<?xml version="1.0" encoding="UTF-8" standalone="no" ?>
<gpx xmlns="http://www.topografix.com/GPX/1/1" xmlns:xsi="http://www.w3.org/2001/XMLSchema-instance" xsi:schemaLocation="http://www.topografix.com/GPX/1/1 http://www.topografix.com/GPX/1/1/gpx.xsd" version="1.1" creator="VisuGPX - https://www.visugpx.com">
  <metadata>
    <name>Prévisionnel en Transcaucasie</name>
    <desc><![CDATA[Prévisionnel en Transcaucasie]]></desc>
  </metadata>
  <trk>
    <name><![CDATA[Batoumi - Tbilissi]]></name>
    <extensions>
      <line xmlns="http://www.topografix.com/GPX/gpx_style/0/2">
        <color>0000FF</color>
        <width>4</width>
      </line>
    </extensions>
    <trkseg>
      <trkpt lat="41.63782" lon="41.62709">
        <ele>6.112969</ele>
        <time>2021-08-14T17:58:13.365Z</time>
      </trkpt>
      <trkpt lat="41.63782" lon="41.62709">
        <ele>6.112969</ele>
        <time>2021-08-14T17:58:13.365Z</time>
      </trkpt>
      <trkpt lat="41.63782" lon="41.62709">
        <ele>6.112969</ele>
        <time>2021-08-14T17:58:13.373Z</time>
      </trkpt>
      <trkpt lat="41.63771" lon="41.62717">
        <ele>6.112969</ele>
        <time>2021-08-14T17:58:15.988Z</time>
      </trkpt>
      <trkpt lat="41.63858" lon="41.62863">
        <ele>5.939172</ele>
        <time>2021-08-14T17:58:46.142Z</time>
      </trkpt>
      <trkpt lat="41.63882" lon="41.62914">
        <ele>5.815052</ele>
        <time>2021-08-14T17:58:56.141Z</time>
      </trkpt>
      <trkpt lat="41.6391" lon="41.62994">
        <ele>5.631912</ele>
        <time>2021-08-14T17:59:11.426Z</time>
      </trkpt>
      <trkpt lat="41.6396" lon="41.63141">
        <ele>5.797897</ele>
        <time>2021-08-14T17:59:41.070Z</time>
      </trkpt>
      <trkpt lat="41.64004" lon="41.63278">
        <ele>5.94034</ele>
        <time>2021-08-14T18:00:06.895Z</time>
      </trkpt>
      <trkpt lat="41.64061" lon="41.63449">
        <ele>6.038532</ele>
        <time>2021-08-14T18:00:40.623Z</time>
      </trkpt>
      <trkpt lat="41.64092" lon="41.63512">
        <ele>5.917928</ele>
        <time>2021-08-14T18:00:53.698Z</time>
      </trkpt>
      <trkpt lat="41.64098" lon="41.63534">
        <ele>5.881912</ele>
        <time>2021-08-14T18:00:57.460Z</time>
      </trkpt>
      <trkpt lat="41.64116" lon="41.63599">
        <ele>5.770052</ele>
        <time>2021-08-14T18:01:08.974Z</time>
      </trkpt>
      <trkpt lat="41.64127" lon="41.63637">
        <ele>5.705716</ele>
        <time>2021-08-14T18:01:15.703Z</time>
      </trkpt>
      <trkpt lat="41.6417" lon="41.63783">
        <ele>5.504568</ele>
        <time>2021-08-14T18:01:41.933Z</time>
      </trkpt>
      <trkpt lat="41.6421" lon="41.63913">
        <ele>5.408167</ele>
        <time>2021-08-14T18:02:06.348Z</time>
      </trkpt>
      <trkpt lat="41.64245" lon="41.64032">
        <ele>5.545655</ele>
        <time>2021-08-14T18:02:30.074Z</time>
      </trkpt>
      <trkpt lat="41.64266" lon="41.64158">
        <ele>5.564003</ele>
        <time>2021-08-14T18:02:52.629Z</time>
      </trkpt>
      <trkpt lat="41.64268" lon="41.64169">
        <ele>5.547329</ele>
        <time>2021-08-14T18:02:54.804Z</time>
      </trkpt>
      <trkpt lat="41.64295" lon="41.64337">
        <ele>5.312893</ele>
        <time>2021-08-14T18:03:23.559Z</time>
      </trkpt>
      <trkpt lat="41.64297" lon="41.64345">
        <ele>5.301432</ele>
        <time>2021-08-14T18:03:24.873Z</time>
      </trkpt>
      <trkpt lat="41.64306" lon="41.64341">
        <ele>5.271287</ele>
        <time>2021-08-14T18:03:27.045Z</time>
      </trkpt>
      <trkpt lat="41.64314" lon="41.6434">
        <ele>5.245916</ele>
        <time>2021-08-14T18:03:28.859Z</time>
      </trkpt>
      <trkpt lat="41.64337" lon="41.64341">
        <ele>5.174902</ele>
        <time>2021-08-14T18:03:33.778Z</time>
      </trkpt>
      <trkpt lat="41.6439" lon="41.64355">
        <ele>5.004783</ele>
        <time>2021-08-14T18:03:45.952Z</time>
      </trkpt>
      <trkpt lat="41.64379" lon="41.64404">
        <ele>4.882945</ele>
        <time>2021-08-14T18:03:54.290Z</time>
      </trkpt>
      <trkpt lat="41.64366" lon="41.64466">
        <ele>4.731886</ele>
        <time>2021-08-14T18:04:04.594Z</time>
      </trkpt>
      <trkpt lat="41.6444" lon="41.6447">
        <ele>4.558198</ele>
        <time>2021-08-14T18:04:20.033Z</time>
      </trkpt>
      <trkpt lat="41.64429" lon="41.64564">
        <ele>4.391415</ele>
        <time>2021-08-14T18:04:35.410Z</time>
      </trkpt>
      <trkpt lat="41.64424" lon="41.6461">
        <ele>4.313359</ele>
        <time>2021-08-14T18:04:43.403Z</time>
      </trkpt>
      <trkpt lat="41.64508" lon="41.64626">
        <ele>4.411694</ele>
        <time>2021-08-14T18:05:02.497Z</time>
      </trkpt>
      <trkpt lat="41.64505" lon="41.64643">
        <ele>4.427162</ele>
        <time>2021-08-14T18:05:05.512Z</time>
      </trkpt>
      <trkpt lat="41.64496" lon="41.64683">
        <ele>4.462891</ele>
        <time>2021-08-14T18:05:12.542Z</time>
      </trkpt>
      <trkpt lat="41.64487" lon="41.64724">
        <ele>4.499593</ele>
        <time>2021-08-14T18:05:19.981Z</time>
      </trkpt>
      <trkpt lat="41.64481" lon="41.64754">
        <ele>4.538712</ele>
        <time>2021-08-14T18:05:25.511Z</time>
      </trkpt>
      <trkpt lat="41.64477" lon="41.64774">
        <ele>4.587504</ele>
        <time>2021-08-14T18:05:29.219Z</time>
      </trkpt>
      <trkpt lat="41.64445" lon="41.64906">
        <ele>4.922095</ele>
        <time>2021-08-14T18:05:54.136Z</time>
      </trkpt>
      <trkpt lat="41.64457" lon="41.64908">
        <ele>4.962372</ele>
        <time>2021-08-14T18:05:56.962Z</time>
      </trkpt>
      <trkpt lat="41.64463" lon="41.64909">
        <ele>4.981039</ele>
        <time>2021-08-14T18:05:58.258Z</time>
      </trkpt>
      <trkpt lat="41.64528" lon="41.64914">
        <ele>5.206829</ele>
        <time>2021-08-14T18:06:13.888Z</time>
      </trkpt>
      <trkpt lat="41.64531" lon="41.64914">
        <ele>5.218272</ele>
        <time>2021-08-14T18:06:14.723Z</time>
      </trkpt>
      <trkpt lat="41.6453" lon="41.64928">
        <ele>5.257871</ele>
        <time>2021-08-14T18:06:17.303Z</time>
      </trkpt>
      <trkpt lat="41.64529" lon="41.64957">
        <ele>5.341974</ele>
        <time>2021-08-14T18:06:22.959Z</time>
      </trkpt>
      <trkpt lat="41.6454" lon="41.65028">
        <ele>5.546399</ele>
        <time>2021-08-14T18:06:36.337Z</time>
      </trkpt>
      <trkpt lat="41.64547" lon="41.65066">
        <ele>5.65876</ele>
        <time>2021-08-14T18:06:43.532Z</time>
      </trkpt>
      <trkpt lat="41.6456" lon="41.65143">
        <ele>5.77141</ele>
        <time>2021-08-14T18:06:56.584Z</time>
      </trkpt>
      <trkpt lat="41.64564" lon="41.65163">
        <ele>5.764484</ele>
        <time>2021-08-14T18:07:00.109Z</time>
      </trkpt>
      <trkpt lat="41.6457" lon="41.65201">
        <ele>5.751386</ele>
        <time>2021-08-14T18:07:07.004Z</time>
      </trkpt>
      <trkpt lat="41.64588" lon="41.65305">
        <ele>5.715537</ele>
        <time>2021-08-14T18:07:24.750Z</time>
      </trkpt>
      <trkpt lat="41.6459" lon="41.65311">
        <ele>5.713173</ele>
        <time>2021-08-14T18:07:25.954Z</time>
      </trkpt>
      <trkpt lat="41.64592" lon="41.65314">
        <ele>5.711838</ele>
        <time>2021-08-14T18:07:26.485Z</time>
      </trkpt>
      <trkpt lat="41.64593" lon="41.65316">
        <ele>5.710885</ele>
        <time>2021-08-14T18:07:26.966Z</time>
      </trkpt>
      <trkpt lat="41.64596" lon="41.65318">
        <ele>5.709349</ele>
        <time>2021-08-14T18:07:27.712Z</time>
      </trkpt>
      <trkpt lat="41.64594" lon="41.65331">
        <ele>5.704853</ele>
        <time>2021-08-14T18:07:29.919Z</time>
      </trkpt>
      <trkpt lat="41.64592" lon="41.65345">
        <ele>5.69016</ele>
        <time>2021-08-14T18:07:32.080Z</time>
      </trkpt>
      <trkpt lat="41.64591" lon="41.65355">
        <ele>5.668222</ele>
        <time>2021-08-14T18:07:33.804Z</time>
      </trkpt>
      <trkpt lat="41.6459" lon="41.65371">
        <ele>5.636422</ele>
        <time>2021-08-14T18:07:36.281Z</time>
      </trkpt>
      <trkpt lat="41.64589" lon="41.6544">
        <ele>5.497172</ele>
        <time>2021-08-14T18:07:47.196Z</time>
      </trkpt>
      <trkpt lat="41.64604" lon="41.65651">
        <ele>5.281948</ele>
        <time>2021-08-14T18:08:21.431Z</time>
      </trkpt>
      <trkpt lat="41.64635" lon="41.65861">
        <ele>5.574739</ele>
        <time>2021-08-14T18:08:59.111Z</time>
      </trkpt>
      <trkpt lat="41.6464" lon="41.65895">
        <ele>5.685039</ele>
        <time>2021-08-14T18:09:05.554Z</time>
      </trkpt>
      <trkpt lat="41.64642" lon="41.6592">
        <ele>5.764376</ele>
        <time>2021-08-14T18:09:10.343Z</time>
      </trkpt>
      <trkpt lat="41.64643" lon="41.65944">
        <ele>5.839164</ele>
        <time>2021-08-14T18:09:14.897Z</time>
      </trkpt>
      <trkpt lat="41.64643" lon="41.65964">
        <ele>5.90367</ele>
        <time>2021-08-14T18:09:18.654Z</time>
      </trkpt>
      <trkpt lat="41.64644" lon="41.66087">
        <ele>6.324879</ele>
        <time>2021-08-14T18:09:41.599Z</time>
      </trkpt>
      <trkpt lat="41.64651" lon="41.66151">
        <ele>6.593516</ele>
        <time>2021-08-14T18:09:53.216Z</time>
      </trkpt>
      <trkpt lat="41.64665" lon="41.66205">
        <ele>6.833071</ele>
        <time>2021-08-14T18:10:03.837Z</time>
      </trkpt>
      <trkpt lat="41.64683" lon="41.66219">
        <ele>6.949496</ele>
        <time>2021-08-14T18:10:08.838Z</time>
      </trkpt>
      <trkpt lat="41.64694" lon="41.66217">
        <ele>7.009434</ele>
        <time>2021-08-14T18:10:11.812Z</time>
      </trkpt>
      <trkpt lat="41.64705" lon="41.66214">
        <ele>7.070514</ele>
        <time>2021-08-14T18:10:14.670Z</time>
      </trkpt>
      <trkpt lat="41.64735" lon="41.66201">
        <ele>7.217034</ele>
        <time>2021-08-14T18:10:23.041Z</time>
      </trkpt>
      <trkpt lat="41.6475" lon="41.66195">
        <ele>7.253105</ele>
        <time>2021-08-14T18:10:26.982Z</time>
      </trkpt>
      <trkpt lat="41.64763" lon="41.66194">
        <ele>7.281297</ele>
        <time>2021-08-14T18:10:31.148Z</time>
      </trkpt>
      <trkpt lat="41.64783" lon="41.66197">
        <ele>7.32804</ele>
        <time>2021-08-14T18:10:35.930Z</time>
      </trkpt>
      <trkpt lat="41.64868" lon="41.6629">
        <ele>7.578707</ele>
        <time>2021-08-14T18:11:00.199Z</time>
      </trkpt>
      <trkpt lat="41.64882" lon="41.66305">
        <ele>7.598846</ele>
        <time>2021-08-14T18:11:04.931Z</time>
      </trkpt>
      <trkpt lat="41.6489" lon="41.66329">
        <ele>7.580146</ele>
        <time>2021-08-14T18:11:08.681Z</time>
      </trkpt>
      <trkpt lat="41.64936" lon="41.66468">
        <ele>7.468449</ele>
        <time>2021-08-14T18:11:34.430Z</time>
      </trkpt>
      <trkpt lat="41.64955" lon="41.66525">
        <ele>7.406563</ele>
        <time>2021-08-14T18:11:44.333Z</time>
      </trkpt>
      <trkpt lat="41.64958" lon="41.66538">
        <ele>7.370674</ele>
        <time>2021-08-14T18:11:46.411Z</time>
      </trkpt>
      <trkpt lat="41.64992" lon="41.66612">
        <ele>7.139023</ele>
        <time>2021-08-14T18:12:00.307Z</time>
      </trkpt>
      <trkpt lat="41.65014" lon="41.6666">
        <ele>6.988854</ele>
        <time>2021-08-14T18:12:09.678Z</time>
      </trkpt>
      <trkpt lat="41.65029" lon="41.66692">
        <ele>6.888995</ele>
        <time>2021-08-14T18:12:15.944Z</time>
      </trkpt>
      <trkpt lat="41.65052" lon="41.66739">
        <ele>6.654461</ele>
        <time>2021-08-14T18:12:24.608Z</time>
      </trkpt>
      <trkpt lat="41.65066" lon="41.66766">
        <ele>6.402797</ele>
        <time>2021-08-14T18:12:29.491Z</time>
      </trkpt>
      <trkpt lat="41.65113" lon="41.66829">
        <ele>5.742634</ele>
        <time>2021-08-14T18:12:41.852Z</time>
      </trkpt>
      <trkpt lat="41.65147" lon="41.66868">
        <ele>5.290183</ele>
        <time>2021-08-14T18:12:50.698Z</time>
      </trkpt>
      <trkpt lat="41.65153" lon="41.66876">
        <ele>5.202063</ele>
        <time>2021-08-14T18:12:52.526Z</time>
      </trkpt>
      <trkpt lat="41.65188" lon="41.66915">
        <ele>5.028905</ele>
        <time>2021-08-14T18:13:02.211Z</time>
      </trkpt>
      <trkpt lat="41.652" lon="41.66931">
        <ele>5.058823</ele>
        <time>2021-08-14T18:13:05.717Z</time>
      </trkpt>
      <trkpt lat="41.6528" lon="41.67037">
        <ele>5.269401</ele>
        <time>2021-08-14T18:13:32.290Z</time>
      </trkpt>
      <trkpt lat="41.65373" lon="41.67159">
        <ele>6.220569</ele>
        <time>2021-08-14T18:14:07.267Z</time>
      </trkpt>
      <trkpt lat="41.65424" lon="41.67227">
        <ele>6.849664</ele>
        <time>2021-08-14T18:14:26.327Z</time>
      </trkpt>
      <trkpt lat="41.65485" lon="41.67309">
        <ele>7.637217</ele>
        <time>2021-08-14T18:14:49.991Z</time>
      </trkpt>
      <trkpt lat="41.65571" lon="41.67423">
        <ele>8.592247</ele>
        <time>2021-08-14T18:15:22.351Z</time>
      </trkpt>
      <trkpt lat="41.65597" lon="41.6745">
        <ele>8.678004</ele>
        <time>2021-08-14T18:15:30.829Z</time>
      </trkpt>
      <trkpt lat="41.65766" lon="41.67595">
        <ele>8.609338</ele>
        <time>2021-08-14T18:16:15.478Z</time>
      </trkpt>
      <trkpt lat="41.65803" lon="41.67627">
        <ele>8.393093</ele>
        <time>2021-08-14T18:16:24.296Z</time>
      </trkpt>
      <trkpt lat="41.65824" lon="41.67645">
        <ele>8.268294</ele>
        <time>2021-08-14T18:16:29.095Z</time>
      </trkpt>
      <trkpt lat="41.65925" lon="41.6773">
        <ele>7.587901</ele>
        <time>2021-08-14T18:16:53.132Z</time>
      </trkpt>
      <trkpt lat="41.65939" lon="41.67743">
        <ele>7.485885</ele>
        <time>2021-08-14T18:16:56.492Z</time>
      </trkpt>
      <trkpt lat="41.65941" lon="41.67747">
        <ele>7.468612</ele>
        <time>2021-08-14T18:16:57.106Z</time>
      </trkpt>
      <trkpt lat="41.65945" lon="41.67751">
        <ele>7.435022</ele>
        <time>2021-08-14T18:16:58.337Z</time>
      </trkpt>
      <trkpt lat="41.65948" lon="41.67751">
        <ele>7.417779</ele>
        <time>2021-08-14T18:16:58.996Z</time>
      </trkpt>
      <trkpt lat="41.6596" lon="41.6776">
        <ele>7.33648</ele>
        <time>2021-08-14T18:17:01.805Z</time>
      </trkpt>
      <trkpt lat="41.65989" lon="41.67784">
        <ele>7.134324</ele>
        <time>2021-08-14T18:17:09.177Z</time>
      </trkpt>
      <trkpt lat="41.6604" lon="41.67827">
        <ele>7.238964</ele>
        <time>2021-08-14T18:17:23.130Z</time>
      </trkpt>
      <trkpt lat="41.66054" lon="41.67838">
        <ele>7.322335</ele>
        <time>2021-08-14T18:17:27.036Z</time>
      </trkpt>
      <trkpt lat="41.66094" lon="41.67878">
        <ele>7.571413</ele>
        <time>2021-08-14T18:17:40.073Z</time>
      </trkpt>
      <trkpt lat="41.6611" lon="41.67898">
        <ele>7.683889</ele>
        <time>2021-08-14T18:17:45.996Z</time>
      </trkpt>
      <trkpt lat="41.66124" lon="41.67906">
        <ele>7.75931</ele>
        <time>2021-08-14T18:17:49.988Z</time>
      </trkpt>
      <trkpt lat="41.66134" lon="41.67916">
        <ele>7.823144</ele>
        <time>2021-08-14T18:17:53.450Z</time>
      </trkpt>
      <trkpt lat="41.66202" lon="41.67998">
        <ele>8.437672</ele>
        <time>2021-08-14T18:18:15.995Z</time>
      </trkpt>
      <trkpt lat="41.66208" lon="41.68005">
        <ele>8.494204</ele>
        <time>2021-08-14T18:18:17.864Z</time>
      </trkpt>
      <trkpt lat="41.66231" lon="41.68034">
        <ele>8.723049</ele>
        <time>2021-08-14T18:18:26.283Z</time>
      </trkpt>
      <trkpt lat="41.66286" lon="41.68101">
        <ele>9.236334</ele>
        <time>2021-08-14T18:18:47.148Z</time>
      </trkpt>
      <trkpt lat="41.66321" lon="41.68143">
        <ele>9.291809</ele>
        <time>2021-08-14T18:18:58.071Z</time>
      </trkpt>
      <trkpt lat="41.66347" lon="41.68173">
        <ele>9.33217</ele>
        <time>2021-08-14T18:19:05.457Z</time>
      </trkpt>
      <trkpt lat="41.66366" lon="41.68201">
        <ele>9.365555</ele>
        <time>2021-08-14T18:19:11.734Z</time>
      </trkpt>
      <trkpt lat="41.66371" lon="41.68208">
        <ele>9.374361</ele>
        <time>2021-08-14T18:19:13.212Z</time>
      </trkpt>
      <trkpt lat="41.66383" lon="41.68223">
        <ele>9.393934</ele>
        <time>2021-08-14T18:19:17.174Z</time>
      </trkpt>
      <trkpt lat="41.66395" lon="41.6824">
        <ele>9.414299</ele>
        <time>2021-08-14T18:19:20.767Z</time>
      </trkpt>
      <trkpt lat="41.66412" lon="41.68266">
        <ele>9.438093</ele>
        <time>2021-08-14T18:19:27.012Z</time>
      </trkpt>
      <trkpt lat="41.66429" lon="41.68291">
        <ele>9.278551</ele>
        <time>2021-08-14T18:19:32.329Z</time>
      </trkpt>
      <trkpt lat="41.66449" lon="41.68322">
        <ele>9.075045</ele>
        <time>2021-08-14T18:19:39.014Z</time>
      </trkpt>
      <trkpt lat="41.66456" lon="41.68333">
        <ele>9.00129</ele>
        <time>2021-08-14T18:19:41.667Z</time>
      </trkpt>
      <trkpt lat="41.66498" lon="41.68405">
        <ele>8.558735</ele>
        <time>2021-08-14T18:19:55.011Z</time>
      </trkpt>
      <trkpt lat="41.66505" lon="41.68416">
        <ele>8.487819</ele>
        <time>2021-08-14T18:19:57.181Z</time>
      </trkpt>
      <trkpt lat="41.66513" lon="41.68429">
        <ele>8.405917</ele>
        <time>2021-08-14T18:19:59.571Z</time>
      </trkpt>
      <trkpt lat="41.66519" lon="41.68436">
        <ele>8.354498</ele>
        <time>2021-08-14T18:20:01.090Z</time>
      </trkpt>
      <trkpt lat="41.66524" lon="41.68443">
        <ele>8.30308</ele>
        <time>2021-08-14T18:20:02.651Z</time>
      </trkpt>
      <trkpt lat="41.66575" lon="41.68487">
        <ele>8.617892</ele>
        <time>2021-08-14T18:20:15.118Z</time>
      </trkpt>
      <trkpt lat="41.66588" lon="41.68496">
        <ele>8.708251</ele>
        <time>2021-08-14T18:20:18.100Z</time>
      </trkpt>
      <trkpt lat="41.66629" lon="41.68525">
        <ele>9.001718</ele>
        <time>2021-08-14T18:20:29.231Z</time>
      </trkpt>
      <trkpt lat="41.66656" lon="41.68545">
        <ele>9.195983</ele>
        <time>2021-08-14T18:20:38.361Z</time>
      </trkpt>
      <trkpt lat="41.66668" lon="41.68553">
        <ele>9.285584</ele>
        <time>2021-08-14T18:20:43.097Z</time>
      </trkpt>
      <trkpt lat="41.66679" lon="41.6856">
        <ele>9.360644</ele>
        <time>2021-08-14T18:20:47.177Z</time>
      </trkpt>
      <trkpt lat="41.66714" lon="41.68583">
        <ele>10.624459</ele>
        <time>2021-08-14T18:21:00.873Z</time>
      </trkpt>
      <trkpt lat="41.66723" lon="41.68589">
        <ele>11.055832</ele>
        <time>2021-08-14T18:21:04.639Z</time>
      </trkpt>
      <trkpt lat="41.66809" lon="41.68659">
        <ele>14.970319</ele>
        <time>2021-08-14T18:21:47.510Z</time>
      </trkpt>
      <trkpt lat="41.66877" lon="41.68714">
        <ele>18.256965</ele>
        <time>2021-08-14T18:22:26.611Z</time>
      </trkpt>
      <trkpt lat="41.66894" lon="41.68728">
        <ele>19.082262</ele>
        <time>2021-08-14T18:22:36.564Z</time>
      </trkpt>
      <trkpt lat="41.66938" lon="41.68763">
        <ele>21.228282</ele>
        <time>2021-08-14T18:22:58.426Z</time>
      </trkpt>
      <trkpt lat="41.66962" lon="41.68782">
        <ele>22.436085</ele>
        <time>2021-08-14T18:23:10.523Z</time>
      </trkpt>
      <trkpt lat="41.67095" lon="41.6887">
        <ele>26.189552</ele>
        <time>2021-08-14T18:24:05.409Z</time>
      </trkpt>
      <trkpt lat="41.6715" lon="41.68927">
        <ele>27.544617</ele>
        <time>2021-08-14T18:24:25.003Z</time>
      </trkpt>
      <trkpt lat="41.67165" lon="41.68951">
        <ele>26.833531</ele>
        <time>2021-08-14T18:24:29.674Z</time>
      </trkpt>
      <trkpt lat="41.67175" lon="41.68979">
        <ele>26.074071</ele>
        <time>2021-08-14T18:24:34.086Z</time>
      </trkpt>
      <trkpt lat="41.67178" lon="41.68997">
        <ele>25.629095</ele>
        <time>2021-08-14T18:24:36.426Z</time>
      </trkpt>
      <trkpt lat="41.67179" lon="41.69011">
        <ele>25.275723</ele>
        <time>2021-08-14T18:24:38.277Z</time>
      </trkpt>
      <trkpt lat="41.67178" lon="41.69048">
        <ele>24.368494</ele>
        <time>2021-08-14T18:24:42.809Z</time>
      </trkpt>
      <trkpt lat="41.67192" lon="41.69095">
        <ele>23.149382</ele>
        <time>2021-08-14T18:24:48.757Z</time>
      </trkpt>
      <trkpt lat="41.67204" lon="41.6911">
        <ele>22.577447</ele>
        <time>2021-08-14T18:24:51.507Z</time>
      </trkpt>
      <trkpt lat="41.67225" lon="41.69133">
        <ele>21.706227</ele>
        <time>2021-08-14T18:24:55.740Z</time>
      </trkpt>
      <trkpt lat="41.67251" lon="41.69161">
        <ele>20.675313</ele>
        <time>2021-08-14T18:25:01.075Z</time>
      </trkpt>
      <trkpt lat="41.67266" lon="41.69179">
        <ele>20.059033</ele>
        <time>2021-08-14T18:25:04.313Z</time>
      </trkpt>
      <trkpt lat="41.67289" lon="41.69205">
        <ele>19.133453</ele>
        <time>2021-08-14T18:25:09.246Z</time>
      </trkpt>
      <trkpt lat="41.67293" lon="41.69211">
        <ele>18.945131</ele>
        <time>2021-08-14T18:25:10.345Z</time>
      </trkpt>
      <trkpt lat="41.67318" lon="41.6924">
        <ele>17.933056</ele>
        <time>2021-08-14T18:25:15.962Z</time>
      </trkpt>
      <trkpt lat="41.67398" lon="41.69331">
        <ele>15.957005</ele>
        <time>2021-08-14T18:25:36.464Z</time>
      </trkpt>
      <trkpt lat="41.67426" lon="41.69362">
        <ele>15.819063</ele>
        <time>2021-08-14T18:25:46.288Z</time>
      </trkpt>
      <trkpt lat="41.67429" lon="41.69366">
        <ele>15.802335</ele>
        <time>2021-08-14T18:25:47.625Z</time>
      </trkpt>
      <trkpt lat="41.67447" lon="41.69387">
        <ele>15.70923</ele>
        <time>2021-08-14T18:25:53.358Z</time>
      </trkpt>
      <trkpt lat="41.6754" lon="41.69493">
        <ele>14.697967</ele>
        <time>2021-08-14T18:26:18.791Z</time>
      </trkpt>
      <trkpt lat="41.67588" lon="41.69548">
        <ele>13.826239</ele>
        <time>2021-08-14T18:26:30.320Z</time>
      </trkpt>
      <trkpt lat="41.67614" lon="41.69577">
        <ele>13.352285</ele>
        <time>2021-08-14T18:26:36.638Z</time>
      </trkpt>
      <trkpt lat="41.67644" lon="41.69609">
        <ele>12.863895</ele>
        <time>2021-08-14T18:26:43.833Z</time>
      </trkpt>
      <trkpt lat="41.67683" lon="41.69649">
        <ele>12.432999</ele>
        <time>2021-08-14T18:26:53.273Z</time>
      </trkpt>
      <trkpt lat="41.67689" lon="41.69655">
        <ele>12.364048</ele>
        <time>2021-08-14T18:26:54.789Z</time>
      </trkpt>
      <trkpt lat="41.67707" lon="41.69673">
        <ele>12.168986</ele>
        <time>2021-08-14T18:26:59.232Z</time>
      </trkpt>
      <trkpt lat="41.67725" lon="41.6969">
        <ele>11.971363</ele>
        <time>2021-08-14T18:27:03.962Z</time>
      </trkpt>
      <trkpt lat="41.67748" lon="41.6971">
        <ele>11.729818</ele>
        <time>2021-08-14T18:27:09.610Z</time>
      </trkpt>
      <trkpt lat="41.67756" lon="41.69716">
        <ele>11.652966</ele>
        <time>2021-08-14T18:27:11.533Z</time>
      </trkpt>
      <trkpt lat="41.67761" lon="41.69721">
        <ele>11.597291</ele>
        <time>2021-08-14T18:27:12.826Z</time>
      </trkpt>
      <trkpt lat="41.6777" lon="41.69728">
        <ele>11.509325</ele>
        <time>2021-08-14T18:27:14.890Z</time>
      </trkpt>
      <trkpt lat="41.67787" lon="41.69739">
        <ele>11.365162</ele>
        <time>2021-08-14T18:27:19.059Z</time>
      </trkpt>
      <trkpt lat="41.67803" lon="41.69746">
        <ele>11.404268</ele>
        <time>2021-08-14T18:27:22.604Z</time>
      </trkpt>
      <trkpt lat="41.67813" lon="41.69751">
        <ele>11.429283</ele>
        <time>2021-08-14T18:27:24.879Z</time>
      </trkpt>
      <trkpt lat="41.6782" lon="41.69754">
        <ele>11.446051</ele>
        <time>2021-08-14T18:27:26.579Z</time>
      </trkpt>
      <trkpt lat="41.67852" lon="41.69762">
        <ele>11.51979</ele>
        <time>2021-08-14T18:27:33.570Z</time>
      </trkpt>
      <trkpt lat="41.67855" lon="41.69762">
        <ele>11.528454</ele>
        <time>2021-08-14T18:27:34.546Z</time>
      </trkpt>
      <trkpt lat="41.67863" lon="41.69764">
        <ele>11.545621</ele>
        <time>2021-08-14T18:27:36.176Z</time>
      </trkpt>
      <trkpt lat="41.67917" lon="41.69779">
        <ele>11.672957</ele>
        <time>2021-08-14T18:27:49.057Z</time>
      </trkpt>
      <trkpt lat="41.67968" lon="41.69792">
        <ele>11.858956</ele>
        <time>2021-08-14T18:28:03.107Z</time>
      </trkpt>
      <trkpt lat="41.68037" lon="41.69816">
        <ele>12.609581</ele>
        <time>2021-08-14T18:28:22.803Z</time>
      </trkpt>
      <trkpt lat="41.68048" lon="41.69819">
        <ele>12.721102</ele>
        <time>2021-08-14T18:28:25.834Z</time>
      </trkpt>
      <trkpt lat="41.6808" lon="41.69836">
        <ele>13.084337</ele>
        <time>2021-08-14T18:28:35.689Z</time>
      </trkpt>
      <trkpt lat="41.68147" lon="41.69869">
        <ele>13.710702</ele>
        <time>2021-08-14T18:28:55.830Z</time>
      </trkpt>
      <trkpt lat="41.68248" lon="41.69932">
        <ele>14.047839</ele>
        <time>2021-08-14T18:29:22.777Z</time>
      </trkpt>
      <trkpt lat="41.68342" lon="41.70008">
        <ele>14.531867</ele>
        <time>2021-08-14T18:29:45.982Z</time>
      </trkpt>
      <trkpt lat="41.68387" lon="41.70044">
        <ele>14.829241</ele>
        <time>2021-08-14T18:29:58.806Z</time>
      </trkpt>
      <trkpt lat="41.68421" lon="41.7007">
        <ele>15.050541</ele>
        <time>2021-08-14T18:30:10.200Z</time>
      </trkpt>
      <trkpt lat="41.68477" lon="41.70113">
        <ele>15.58184</ele>
        <time>2021-08-14T18:30:29.022Z</time>
      </trkpt>
      <trkpt lat="41.68529" lon="41.70158">
        <ele>16.233011</ele>
        <time>2021-08-14T18:30:48.382Z</time>
      </trkpt>
      <trkpt lat="41.68553" lon="41.70182">
        <ele>16.551263</ele>
        <time>2021-08-14T18:30:57.036Z</time>
      </trkpt>
      <trkpt lat="41.68571" lon="41.70204">
        <ele>16.805166</ele>
        <time>2021-08-14T18:31:02.780Z</time>
      </trkpt>
      <trkpt lat="41.6859" lon="41.70228">
        <ele>17.081957</ele>
        <time>2021-08-14T18:31:09.465Z</time>
      </trkpt>
      <trkpt lat="41.68598" lon="41.70244">
        <ele>17.176243</ele>
        <time>2021-08-14T18:31:12.599Z</time>
      </trkpt>
      <trkpt lat="41.68607" lon="41.70294">
        <ele>17.390155</ele>
        <time>2021-08-14T18:31:20.571Z</time>
      </trkpt>
      <trkpt lat="41.68614" lon="41.70312">
        <ele>17.471911</ele>
        <time>2021-08-14T18:31:23.610Z</time>
      </trkpt>
      <trkpt lat="41.68623" lon="41.70327">
        <ele>17.556232</ele>
        <time>2021-08-14T18:31:26.373Z</time>
      </trkpt>
      <trkpt lat="41.68662" lon="41.70375">
        <ele>17.849781</ele>
        <time>2021-08-14T18:31:38.547Z</time>
      </trkpt>
      <trkpt lat="41.6868" lon="41.70415">
        <ele>18.044575</ele>
        <time>2021-08-14T18:31:48.819Z</time>
      </trkpt>
      <trkpt lat="41.68685" lon="41.70436">
        <ele>18.273687</ele>
        <time>2021-08-14T18:31:54.646Z</time>
      </trkpt>
      <trkpt lat="41.6869" lon="41.70469">
        <ele>19.411457</ele>
        <time>2021-08-14T18:32:04.148Z</time>
      </trkpt>
      <trkpt lat="41.68694" lon="41.70506">
        <ele>20.687591</ele>
        <time>2021-08-14T18:32:14.997Z</time>
      </trkpt>
      <trkpt lat="41.68696" lon="41.7053">
        <ele>21.516185</ele>
        <time>2021-08-14T18:32:23.640Z</time>
      </trkpt>
      <trkpt lat="41.68697" lon="41.70578">
        <ele>23.174956</ele>
        <time>2021-08-14T18:32:40.341Z</time>
      </trkpt>
      <trkpt lat="41.68698" lon="41.70689">
        <ele>27.307551</ele>
        <time>2021-08-14T18:33:23.364Z</time>
      </trkpt>
      <trkpt lat="41.68702" lon="41.70797">
        <ele>32.937556</ele>
        <time>2021-08-14T18:34:08.791Z</time>
      </trkpt>
      <trkpt lat="41.68726" lon="41.70929">
        <ele>40.293776</ele>
        <time>2021-08-14T18:35:08.312Z</time>
      </trkpt>
      <trkpt lat="41.68755" lon="41.71007">
        <ele>45.901144</ele>
        <time>2021-08-14T18:35:50.256Z</time>
      </trkpt>
      <trkpt lat="41.68825" lon="41.71146">
        <ele>56.907486</ele>
        <time>2021-08-14T18:37:15.432Z</time>
      </trkpt>
      <trkpt lat="41.68862" lon="41.71236">
        <ele>64.16128</ele>
        <time>2021-08-14T18:38:08.675Z</time>
      </trkpt>
      <trkpt lat="41.68878" lon="41.71298">
        <ele>68.78319</ele>
        <time>2021-08-14T18:38:42.750Z</time>
      </trkpt>
      <trkpt lat="41.68921" lon="41.71458">
        <ele>81.004931</ele>
        <time>2021-08-14T18:40:13.305Z</time>
      </trkpt>
      <trkpt lat="41.68944" lon="41.71535">
        <ele>87.034164</ele>
        <time>2021-08-14T18:40:58.314Z</time>
      </trkpt>
      <trkpt lat="41.68973" lon="41.71638">
        <ele>93.001786</ele>
        <time>2021-08-14T18:41:54.165Z</time>
      </trkpt>
      <trkpt lat="41.68986" lon="41.71676">
        <ele>95.047826</ele>
        <time>2021-08-14T18:42:12.739Z</time>
      </trkpt>
      <trkpt lat="41.69019" lon="41.71762">
        <ele>99.769805</ele>
        <time>2021-08-14T18:42:49.726Z</time>
      </trkpt>
      <trkpt lat="41.69321" lon="41.72412">
        <ele>105.499967</ele>
        <time>2021-08-14T18:45:25.594Z</time>
      </trkpt>
      <trkpt lat="41.69334" lon="41.72441">
        <ele>104.666949</ele>
        <time>2021-08-14T18:45:29.780Z</time>
      </trkpt>
      <trkpt lat="41.69376" lon="41.7251">
        <ele>102.501023</ele>
        <time>2021-08-14T18:45:40.692Z</time>
      </trkpt>
      <trkpt lat="41.69391" lon="41.7253">
        <ele>101.814915</ele>
        <time>2021-08-14T18:45:44.063Z</time>
      </trkpt>
      <trkpt lat="41.69396" lon="41.72538">
        <ele>101.550585</ele>
        <time>2021-08-14T18:45:45.385Z</time>
      </trkpt>
      <trkpt lat="41.6941" lon="41.72556">
        <ele>100.939901</ele>
        <time>2021-08-14T18:45:48.427Z</time>
      </trkpt>
      <trkpt lat="41.69452" lon="41.72604">
        <ele>98.898524</ele>
        <time>2021-08-14T18:45:57.485Z</time>
      </trkpt>
      <trkpt lat="41.69532" lon="41.72673">
        <ele>95.059911</ele>
        <time>2021-08-14T18:46:13.370Z</time>
      </trkpt>
      <trkpt lat="41.69567" lon="41.72697">
        <ele>93.4969</ele>
        <time>2021-08-14T18:46:20.098Z</time>
      </trkpt>
      <trkpt lat="41.69601" lon="41.72716">
        <ele>91.59181</ele>
        <time>2021-08-14T18:46:26.180Z</time>
      </trkpt>
      <trkpt lat="41.69722" lon="41.7276">
        <ele>84.475794</ele>
        <time>2021-08-14T18:46:45.482Z</time>
      </trkpt>
      <trkpt lat="41.69814" lon="41.728">
        <ele>77.762683</ele>
        <time>2021-08-14T18:46:59.947Z</time>
      </trkpt>
      <trkpt lat="41.69846" lon="41.72818">
        <ele>75.234953</ele>
        <time>2021-08-14T18:47:04.987Z</time>
      </trkpt>
      <trkpt lat="41.6992" lon="41.72877">
        <ele>68.781084</ele>
        <time>2021-08-14T18:47:17.759Z</time>
      </trkpt>
      <trkpt lat="41.70002" lon="41.72973">
        <ele>60.212511</ele>
        <time>2021-08-14T18:47:33.849Z</time>
      </trkpt>
      <trkpt lat="41.70037" lon="41.73029">
        <ele>55.914015</ele>
        <time>2021-08-14T18:47:41.881Z</time>
      </trkpt>
      <trkpt lat="41.70062" lon="41.73077">
        <ele>52.170246</ele>
        <time>2021-08-14T18:47:48.288Z</time>
      </trkpt>
      <trkpt lat="41.70095" lon="41.73158">
        <ele>46.267212</ele>
        <time>2021-08-14T18:47:58.157Z</time>
      </trkpt>
      <trkpt lat="41.70113" lon="41.73207">
        <ele>42.772142</ele>
        <time>2021-08-14T18:48:04.023Z</time>
      </trkpt>
      <trkpt lat="41.70137" lon="41.73272">
        <ele>38.777198</ele>
        <time>2021-08-14T18:48:11.992Z</time>
      </trkpt>
      <trkpt lat="41.70159" lon="41.73332">
        <ele>36.168945</ele>
        <time>2021-08-14T18:48:19.588Z</time>
      </trkpt>
      <trkpt lat="41.7017" lon="41.7336">
        <ele>34.927128</ele>
        <time>2021-08-14T18:48:23.290Z</time>
      </trkpt>
      <trkpt lat="41.70184" lon="41.73395">
        <ele>33.42332</ele>
        <time>2021-08-14T18:48:27.951Z</time>
      </trkpt>
      <trkpt lat="41.70206" lon="41.73441">
        <ele>31.274475</ele>
        <time>2021-08-14T18:48:34.903Z</time>
      </trkpt>
      <trkpt lat="41.70187" lon="41.73381">
        <ele>30.096022</ele>
        <time>2021-08-14T18:48:43.738Z</time>
      </trkpt>
      <trkpt lat="41.70174" lon="41.73344">
        <ele>29.766047</ele>
        <time>2021-08-14T18:48:50.023Z</time>
      </trkpt>
      <trkpt lat="41.70185" lon="41.73354">
        <ele>29.623442</ele>
        <time>2021-08-14T18:48:52.790Z</time>
      </trkpt>
      <trkpt lat="41.70201" lon="41.73356">
        <ele>29.457321</ele>
        <time>2021-08-14T18:48:56.112Z</time>
      </trkpt>
      <trkpt lat="41.70208" lon="41.73352">
        <ele>29.372423</ele>
        <time>2021-08-14T18:48:57.800Z</time>
      </trkpt>
      <trkpt lat="41.70208" lon="41.73394">
        <ele>29.034932</ele>
        <time>2021-08-14T18:49:04.488Z</time>
      </trkpt>
      <trkpt lat="41.70221" lon="41.73435">
        <ele>28.680794</ele>
        <time>2021-08-14T18:49:11.623Z</time>
      </trkpt>
      <trkpt lat="41.70241" lon="41.73481">
        <ele>28.155961</ele>
        <time>2021-08-14T18:49:19.767Z</time>
      </trkpt>
      <trkpt lat="41.70265" lon="41.73513">
        <ele>27.656029</ele>
        <time>2021-08-14T18:49:26.392Z</time>
      </trkpt>
      <trkpt lat="41.70305" lon="41.73552">
        <ele>26.924822</ele>
        <time>2021-08-14T18:49:35.887Z</time>
      </trkpt>
      <trkpt lat="41.70371" lon="41.736">
        <ele>25.788754</ele>
        <time>2021-08-14T18:49:49.575Z</time>
      </trkpt>
      <trkpt lat="41.70386" lon="41.73604">
        <ele>25.372275</ele>
        <time>2021-08-14T18:49:52.332Z</time>
      </trkpt>
      <trkpt lat="41.70413" lon="41.73601">
        <ele>24.62921</ele>
        <time>2021-08-14T18:49:57.279Z</time>
      </trkpt>
      <trkpt lat="41.70448" lon="41.73593">
        <ele>23.671583</ele>
        <time>2021-08-14T18:50:03.490Z</time>
      </trkpt>
      <trkpt lat="41.70495" lon="41.73582">
        <ele>22.390297</ele>
        <time>2021-08-14T18:50:11.595Z</time>
      </trkpt>
      <trkpt lat="41.70574" lon="41.73564">
        <ele>20.35205</ele>
        <time>2021-08-14T18:50:25.570Z</time>
      </trkpt>
      <trkpt lat="41.70607" lon="41.73553">
        <ele>19.596525</ele>
        <time>2021-08-14T18:50:31.568Z</time>
      </trkpt>
      <trkpt lat="41.70616" lon="41.73541">
        <ele>19.332285</ele>
        <time>2021-08-14T18:50:33.687Z</time>
      </trkpt>
      <trkpt lat="41.70797" lon="41.73392">
        <ele>15.329034</ele>
        <time>2021-08-14T18:51:13.522Z</time>
      </trkpt>
      <trkpt lat="41.70829" lon="41.73383">
        <ele>14.80719</ele>
        <time>2021-08-14T18:51:19.853Z</time>
      </trkpt>
      <trkpt lat="41.70904" lon="41.73375">
        <ele>13.772498</ele>
        <time>2021-08-14T18:51:34.274Z</time>
      </trkpt>
      <trkpt lat="41.70949" lon="41.7337">
        <ele>13.23436</ele>
        <time>2021-08-14T18:51:43.069Z</time>
      </trkpt>
      <trkpt lat="41.71029" lon="41.73362">
        <ele>12.294354</ele>
        <time>2021-08-14T18:51:58.752Z</time>
      </trkpt>
      <trkpt lat="41.71079" lon="41.73354">
        <ele>11.797654</ele>
        <time>2021-08-14T18:52:08.837Z</time>
      </trkpt>
      <trkpt lat="41.71223" lon="41.73288">
        <ele>10.48469</ele>
        <time>2021-08-14T18:52:39.051Z</time>
      </trkpt>
      <trkpt lat="41.71237" lon="41.73286">
        <ele>10.439774</ele>
        <time>2021-08-14T18:52:42.262Z</time>
      </trkpt>
      <trkpt lat="41.71246" lon="41.73288">
        <ele>10.407212</ele>
        <time>2021-08-14T18:52:44.832Z</time>
      </trkpt>
      <trkpt lat="41.7125" lon="41.7329">
        <ele>10.396162</ele>
        <time>2021-08-14T18:52:45.515Z</time>
      </trkpt>
      <trkpt lat="41.71255" lon="41.73292">
        <ele>10.378545</ele>
        <time>2021-08-14T18:52:46.578Z</time>
      </trkpt>
      <trkpt lat="41.71278" lon="41.73313">
        <ele>10.28742</ele>
        <time>2021-08-14T18:52:53.036Z</time>
      </trkpt>
      <trkpt lat="41.71292" lon="41.73327">
        <ele>10.231032</ele>
        <time>2021-08-14T18:52:56.528Z</time>
      </trkpt>
      <trkpt lat="41.71296" lon="41.73331">
        <ele>10.212874</ele>
        <time>2021-08-14T18:52:58.044Z</time>
      </trkpt>
      <trkpt lat="41.71308" lon="41.73342">
        <ele>10.166839</ele>
        <time>2021-08-14T18:53:01.372Z</time>
      </trkpt>
      <trkpt lat="41.71319" lon="41.73352">
        <ele>10.125001</ele>
        <time>2021-08-14T18:53:03.933Z</time>
      </trkpt>
      <trkpt lat="41.71335" lon="41.73366">
        <ele>10.061771</ele>
        <time>2021-08-14T18:53:08.254Z</time>
      </trkpt>
      <trkpt lat="41.71373" lon="41.73401">
        <ele>9.909468</ele>
        <time>2021-08-14T18:53:17.706Z</time>
      </trkpt>
      <trkpt lat="41.7138" lon="41.73404">
        <ele>9.871824</ele>
        <time>2021-08-14T18:53:19.238Z</time>
      </trkpt>
      <trkpt lat="41.71394" lon="41.73403">
        <ele>9.805121</ele>
        <time>2021-08-14T18:53:22.423Z</time>
      </trkpt>
      <trkpt lat="41.714" lon="41.73401">
        <ele>9.770875</ele>
        <time>2021-08-14T18:53:24.003Z</time>
      </trkpt>
      <trkpt lat="41.71419" lon="41.73393">
        <ele>9.673987</ele>
        <time>2021-08-14T18:53:28.259Z</time>
      </trkpt>
      <trkpt lat="41.71433" lon="41.73383">
        <ele>9.596449</ele>
        <time>2021-08-14T18:53:31.988Z</time>
      </trkpt>
      <trkpt lat="41.71447" lon="41.73369">
        <ele>9.508473</ele>
        <time>2021-08-14T18:53:36.072Z</time>
      </trkpt>
      <trkpt lat="41.71456" lon="41.73354">
        <ele>9.439672</ele>
        <time>2021-08-14T18:53:38.985Z</time>
      </trkpt>
      <trkpt lat="41.71465" lon="41.73338">
        <ele>9.364726</ele>
        <time>2021-08-14T18:53:42.322Z</time>
      </trkpt>
      <trkpt lat="41.71475" lon="41.73315">
        <ele>9.265194</ele>
        <time>2021-08-14T18:53:46.193Z</time>
      </trkpt>
      <trkpt lat="41.71486" lon="41.73292">
        <ele>9.168256</ele>
        <time>2021-08-14T18:53:50.196Z</time>
      </trkpt>
      <trkpt lat="41.71495" lon="41.73277">
        <ele>9.09829</ele>
        <time>2021-08-14T18:53:52.876Z</time>
      </trkpt>
      <trkpt lat="41.71503" lon="41.73266">
        <ele>9.040708</ele>
        <time>2021-08-14T18:53:55.162Z</time>
      </trkpt>
      <trkpt lat="41.71539" lon="41.73238">
        <ele>9.011693</ele>
        <time>2021-08-14T18:54:03.846Z</time>
      </trkpt>
      <trkpt lat="41.7155" lon="41.73236">
        <ele>9.007179</ele>
        <time>2021-08-14T18:54:06.265Z</time>
      </trkpt>
      <trkpt lat="41.71564" lon="41.73238">
        <ele>9.001924</ele>
        <time>2021-08-14T18:54:09.008Z</time>
      </trkpt>
      <trkpt lat="41.71583" lon="41.73246">
        <ele>8.993882</ele>
        <time>2021-08-14T18:54:13.955Z</time>
      </trkpt>
      <trkpt lat="41.71601" lon="41.73255">
        <ele>8.986399</ele>
        <time>2021-08-14T18:54:18.155Z</time>
      </trkpt>
      <trkpt lat="41.71672" lon="41.73291">
        <ele>8.956764</ele>
        <time>2021-08-14T18:54:37.650Z</time>
      </trkpt>
      <trkpt lat="41.71708" lon="41.7331">
        <ele>8.971079</ele>
        <time>2021-08-14T18:54:46.461Z</time>
      </trkpt>
      <trkpt lat="41.71793" lon="41.73327">
        <ele>9.00331</ele>
        <time>2021-08-14T18:55:05.184Z</time>
      </trkpt>
      <trkpt lat="41.71818" lon="41.73327">
        <ele>9.012813</ele>
        <time>2021-08-14T18:55:10.885Z</time>
      </trkpt>
      <trkpt lat="41.71859" lon="41.7333">
        <ele>9.009493</ele>
        <time>2021-08-14T18:55:19.753Z</time>
      </trkpt>
      <trkpt lat="41.71889" lon="41.73333">
        <ele>8.964206</ele>
        <time>2021-08-14T18:55:26.357Z</time>
      </trkpt>
      <trkpt lat="41.72027" lon="41.73336">
        <ele>8.758754</ele>
        <time>2021-08-14T18:55:55.923Z</time>
      </trkpt>
      <trkpt lat="41.72062" lon="41.73339">
        <ele>8.953647</ele>
        <time>2021-08-14T18:56:04.461Z</time>
      </trkpt>
      <trkpt lat="41.72094" lon="41.73343">
        <ele>9.145906</ele>
        <time>2021-08-14T18:56:12.258Z</time>
      </trkpt>
      <trkpt lat="41.7216" lon="41.73342">
        <ele>9.535909</ele>
        <time>2021-08-14T18:56:28.519Z</time>
      </trkpt>
      <trkpt lat="41.72219" lon="41.73333">
        <ele>10.071932</ele>
        <time>2021-08-14T18:56:43.396Z</time>
      </trkpt>
      <trkpt lat="41.72413" lon="41.73312">
        <ele>14.045999</ele>
        <time>2021-08-14T18:57:52.488Z</time>
      </trkpt>
      <trkpt lat="41.72458" lon="41.73306">
        <ele>14.287599</ele>
        <time>2021-08-14T18:58:07.069Z</time>
      </trkpt>
      <trkpt lat="41.72534" lon="41.73295">
        <ele>14.688485</ele>
        <time>2021-08-14T18:58:23.510Z</time>
      </trkpt>
      <trkpt lat="41.72564" lon="41.7329">
        <ele>14.853576</ele>
        <time>2021-08-14T18:58:29.777Z</time>
      </trkpt>
      <trkpt lat="41.72575" lon="41.73286">
        <ele>14.630356</ele>
        <time>2021-08-14T18:58:31.738Z</time>
      </trkpt>
      <trkpt lat="41.72595" lon="41.7328">
        <ele>14.065353</ele>
        <time>2021-08-14T18:58:35.861Z</time>
      </trkpt>
      <trkpt lat="41.72611" lon="41.73275">
        <ele>13.639497</ele>
        <time>2021-08-14T18:58:38.703Z</time>
      </trkpt>
      <trkpt lat="41.72638" lon="41.73266">
        <ele>12.9083</ele>
        <time>2021-08-14T18:58:43.567Z</time>
      </trkpt>
      <trkpt lat="41.7269" lon="41.73235">
        <ele>11.404706</ele>
        <time>2021-08-14T18:58:53.050Z</time>
      </trkpt>
      <trkpt lat="41.72729" lon="41.73179">
        <ele>10.005824</ele>
        <time>2021-08-14T18:59:02.685Z</time>
      </trkpt>
      <trkpt lat="41.72752" lon="41.73145">
        <ele>9.539511</ele>
        <time>2021-08-14T18:59:09.085Z</time>
      </trkpt>
      <trkpt lat="41.72765" lon="41.7313">
        <ele>9.31005</ele>
        <time>2021-08-14T18:59:12.424Z</time>
      </trkpt>
      <trkpt lat="41.728" lon="41.73113">
        <ele>8.802564</ele>
        <time>2021-08-14T18:59:19.842Z</time>
      </trkpt>
      <trkpt lat="41.7284" lon="41.73113">
        <ele>8.268079</ele>
        <time>2021-08-14T18:59:27.708Z</time>
      </trkpt>
      <trkpt lat="41.7298" lon="41.73136">
        <ele>7.558793</ele>
        <time>2021-08-14T18:59:57.029Z</time>
      </trkpt>
      <trkpt lat="41.73065" lon="41.73151">
        <ele>7.501951</ele>
        <time>2021-08-14T19:00:17.302Z</time>
      </trkpt>
      <trkpt lat="41.73106" lon="41.73163">
        <ele>7.977037</ele>
        <time>2021-08-14T19:00:28.432Z</time>
      </trkpt>
      <trkpt lat="41.73174" lon="41.7319">
        <ele>8.776609</ele>
        <time>2021-08-14T19:00:48.639Z</time>
      </trkpt>
      <trkpt lat="41.73301" lon="41.73249">
        <ele>10.143765</ele>
        <time>2021-08-14T19:01:28.053Z</time>
      </trkpt>
      <trkpt lat="41.73322" lon="41.73265">
        <ele>10.367967</ele>
        <time>2021-08-14T19:01:34.492Z</time>
      </trkpt>
      <trkpt lat="41.73363" lon="41.73286">
        <ele>10.770356</ele>
        <time>2021-08-14T19:01:45.603Z</time>
      </trkpt>
      <trkpt lat="41.73551" lon="41.73383">
        <ele>12.435858</ele>
        <time>2021-08-14T19:02:34.306Z</time>
      </trkpt>
      <trkpt lat="41.73676" lon="41.73444">
        <ele>15.965744</ele>
        <time>2021-08-14T19:03:20.902Z</time>
      </trkpt>
      <trkpt lat="41.73757" lon="41.73484">
        <ele>18.231122</ele>
        <time>2021-08-14T19:03:59.289Z</time>
      </trkpt>
      <trkpt lat="41.7382" lon="41.73521">
        <ele>19.243634</ele>
        <time>2021-08-14T19:04:24.415Z</time>
      </trkpt>
      <trkpt lat="41.73874" lon="41.73541">
        <ele>20.06174</ele>
        <time>2021-08-14T19:04:38.006Z</time>
      </trkpt>
      <trkpt lat="41.7392" lon="41.73554">
        <ele>20.519018</ele>
        <time>2021-08-14T19:04:47.301Z</time>
      </trkpt>
      <trkpt lat="41.73937" lon="41.7356">
        <ele>20.441509</ele>
        <time>2021-08-14T19:04:50.358Z</time>
      </trkpt>
      <trkpt lat="41.73973" lon="41.73579">
        <ele>20.276714</ele>
        <time>2021-08-14T19:04:58.394Z</time>
      </trkpt>
      <trkpt lat="41.74061" lon="41.73639">
        <ele>19.856742</ele>
        <time>2021-08-14T19:05:18.971Z</time>
      </trkpt>
      <trkpt lat="41.74083" lon="41.73654">
        <ele>19.909107</ele>
        <time>2021-08-14T19:05:24.044Z</time>
      </trkpt>
      <trkpt lat="41.74087" lon="41.73657">
        <ele>19.943386</ele>
        <time>2021-08-14T19:05:27.611Z</time>
      </trkpt>
      <trkpt lat="41.74181" lon="41.73731">
        <ele>20.810479</ele>
        <time>2021-08-14T19:06:02.004Z</time>
      </trkpt>
      <trkpt lat="41.74203" lon="41.73757">
        <ele>21.046831</ele>
        <time>2021-08-14T19:06:08.509Z</time>
      </trkpt>
      <trkpt lat="41.74254" lon="41.73847">
        <ele>20.403486</ele>
        <time>2021-08-14T19:06:25.354Z</time>
      </trkpt>
      <trkpt lat="41.74279" lon="41.73865">
        <ele>20.010837</ele>
        <time>2021-08-14T19:06:30.744Z</time>
      </trkpt>
      <trkpt lat="41.74284" lon="41.73868">
        <ele>19.943681</ele>
        <time>2021-08-14T19:06:31.510Z</time>
      </trkpt>
      <trkpt lat="41.74285" lon="41.73869">
        <ele>19.925551</ele>
        <time>2021-08-14T19:06:31.857Z</time>
      </trkpt>
      <trkpt lat="41.74343" lon="41.73901">
        <ele>19.057233</ele>
        <time>2021-08-14T19:06:43.656Z</time>
      </trkpt>
      <trkpt lat="41.74404" lon="41.73936">
        <ele>18.295597</ele>
        <time>2021-08-14T19:06:55.942Z</time>
      </trkpt>
      <trkpt lat="41.74433" lon="41.73954">
        <ele>17.968766</ele>
        <time>2021-08-14T19:07:01.934Z</time>
      </trkpt>
      <trkpt lat="41.74501" lon="41.73996">
        <ele>17.200565</ele>
        <time>2021-08-14T19:07:18.254Z</time>
      </trkpt>
      <trkpt lat="41.74573" lon="41.74053">
        <ele>16.692853</ele>
        <time>2021-08-14T19:07:34.898Z</time>
      </trkpt>
      <trkpt lat="41.7467" lon="41.74107">
        <ele>16.292088</ele>
        <time>2021-08-14T19:07:56.178Z</time>
      </trkpt>
      <trkpt lat="41.74673" lon="41.74108">
        <ele>16.280768</ele>
        <time>2021-08-14T19:07:56.639Z</time>
      </trkpt>
      <trkpt lat="41.74723" lon="41.74129">
        <ele>17.76817</ele>
        <time>2021-08-14T19:08:12.240Z</time>
      </trkpt>
      <trkpt lat="41.74758" lon="41.74142">
        <ele>19.367552</ele>
        <time>2021-08-14T19:08:25.981Z</time>
      </trkpt>
      <trkpt lat="41.74853" lon="41.74177">
        <ele>23.682222</ele>
        <time>2021-08-14T19:09:15.778Z</time>
      </trkpt>
      <trkpt lat="41.74994" lon="41.74243">
        <ele>34.604469</ele>
        <time>2021-08-14T19:10:49.736Z</time>
      </trkpt>
      <trkpt lat="41.75007" lon="41.74262">
        <ele>36.000881</ele>
        <time>2021-08-14T19:11:01.025Z</time>
      </trkpt>
      <trkpt lat="41.75024" lon="41.74316">
        <ele>38.647012</ele>
        <time>2021-08-14T19:11:26.227Z</time>
      </trkpt>
      <trkpt lat="41.75031" lon="41.74396">
        <ele>41.407123</ele>
        <time>2021-08-14T19:11:56.266Z</time>
      </trkpt>
      <trkpt lat="41.75041" lon="41.74421">
        <ele>42.358615</ele>
        <time>2021-08-14T19:12:05.232Z</time>
      </trkpt>
      <trkpt lat="41.75076" lon="41.74431">
        <ele>44.012218</ele>
        <time>2021-08-14T19:12:19.572Z</time>
      </trkpt>
      <trkpt lat="41.7512" lon="41.74452">
        <ele>45.998175</ele>
        <time>2021-08-14T19:12:36.084Z</time>
      </trkpt>
      <trkpt lat="41.75194" lon="41.7452">
        <ele>48.200905</ele>
        <time>2021-08-14T19:13:05.177Z</time>
      </trkpt>
      <trkpt lat="41.75206" lon="41.74546">
        <ele>48.741088</ele>
        <time>2021-08-14T19:13:12.725Z</time>
      </trkpt>
      <trkpt lat="41.75215" lon="41.74568">
        <ele>49.205047</ele>
        <time>2021-08-14T19:13:18.480Z</time>
      </trkpt>
      <trkpt lat="41.75225" lon="41.74595">
        <ele>49.753009</ele>
        <time>2021-08-14T19:13:26.433Z</time>
      </trkpt>
      <trkpt lat="41.75261" lon="41.74663">
        <ele>52.257824</ele>
        <time>2021-08-14T19:13:50.123Z</time>
      </trkpt>
      <trkpt lat="41.75279" lon="41.74711">
        <ele>54.165067</ele>
        <time>2021-08-14T19:14:08.044Z</time>
      </trkpt>
      <trkpt lat="41.75295" lon="41.74729">
        <ele>55.125672</ele>
        <time>2021-08-14T19:14:17.217Z</time>
      </trkpt>
      <trkpt lat="41.75367" lon="41.74781">
        <ele>59.175082</ele>
        <time>2021-08-14T19:14:58.712Z</time>
      </trkpt>
      <trkpt lat="41.75391" lon="41.74822">
        <ele>62.48976</ele>
        <time>2021-08-14T19:15:19.618Z</time>
      </trkpt>
      <trkpt lat="41.75436" lon="41.74853">
        <ele>66.714138</ele>
        <time>2021-08-14T19:15:52.577Z</time>
      </trkpt>
      <trkpt lat="41.75474" lon="41.74867">
        <ele>70.063958</ele>
        <time>2021-08-14T19:16:19.967Z</time>
      </trkpt>
      <trkpt lat="41.75488" lon="41.74877">
        <ele>71.423294</ele>
        <time>2021-08-14T19:16:30.828Z</time>
      </trkpt>
      <trkpt lat="41.75508" lon="41.74916">
        <ele>74.610057</ele>
        <time>2021-08-14T19:16:55.900Z</time>
      </trkpt>
      <trkpt lat="41.75514" lon="41.74935">
        <ele>76.439019</ele>
        <time>2021-08-14T19:17:06.756Z</time>
      </trkpt>
      <trkpt lat="41.75521" lon="41.74949">
        <ele>77.954395</ele>
        <time>2021-08-14T19:17:17.095Z</time>
      </trkpt>
      <trkpt lat="41.7554" lon="41.74989">
        <ele>82.234099</ele>
        <time>2021-08-14T19:17:44.501Z</time>
      </trkpt>
      <trkpt lat="41.75559" lon="41.75075">
        <ele>90.328105</ele>
        <time>2021-08-14T19:18:41.435Z</time>
      </trkpt>
      <trkpt lat="41.75592" lon="41.75125">
        <ele>96.315534</ele>
        <time>2021-08-14T19:19:28.422Z</time>
      </trkpt>
      <trkpt lat="41.75595" lon="41.75151">
        <ele>98.689299</ele>
        <time>2021-08-14T19:19:45.842Z</time>
      </trkpt>
      <trkpt lat="41.75586" lon="41.75212">
        <ele>104.378433</ele>
        <time>2021-08-14T19:20:26.804Z</time>
      </trkpt>
      <trkpt lat="41.75559" lon="41.75252">
        <ele>109.260227</ele>
        <time>2021-08-14T19:21:01.646Z</time>
      </trkpt>
      <trkpt lat="41.75554" lon="41.75265">
        <ele>110.543262</ele>
        <time>2021-08-14T19:21:11.008Z</time>
      </trkpt>
      <trkpt lat="41.75557" lon="41.75323">
        <ele>115.816939</ele>
        <time>2021-08-14T19:21:46.867Z</time>
      </trkpt>
      <trkpt lat="41.75532" lon="41.75431">
        <ele>120.492658</ele>
        <time>2021-08-14T19:22:39.415Z</time>
      </trkpt>
      <trkpt lat="41.75536" lon="41.75452">
        <ele>121.176631</ele>
        <time>2021-08-14T19:22:46.901Z</time>
      </trkpt>
      <trkpt lat="41.75574" lon="41.75534">
        <ele>124.293895</ele>
        <time>2021-08-14T19:23:08.384Z</time>
      </trkpt>
      <trkpt lat="41.75594" lon="41.75558">
        <ele>125.141662</ele>
        <time>2021-08-14T19:23:13.509Z</time>
      </trkpt>
      <trkpt lat="41.75603" lon="41.75567">
        <ele>125.098449</ele>
        <time>2021-08-14T19:23:15.867Z</time>
      </trkpt>
      <trkpt lat="41.75607" lon="41.7557">
        <ele>125.077193</ele>
        <time>2021-08-14T19:23:16.771Z</time>
      </trkpt>
      <trkpt lat="41.75628" lon="41.75587">
        <ele>124.979478</ele>
        <time>2021-08-14T19:23:22.205Z</time>
      </trkpt>
      <trkpt lat="41.75672" lon="41.75633">
        <ele>124.755745</ele>
        <time>2021-08-14T19:23:33.050Z</time>
      </trkpt>
      <trkpt lat="41.75688" lon="41.7566">
        <ele>124.651689</ele>
        <time>2021-08-14T19:23:38.187Z</time>
      </trkpt>
      <trkpt lat="41.75711" lon="41.75702">
        <ele>124.494056</ele>
        <time>2021-08-14T19:23:45.884Z</time>
      </trkpt>
      <trkpt lat="41.75728" lon="41.75726">
        <ele>124.745371</ele>
        <time>2021-08-14T19:23:52.997Z</time>
      </trkpt>
      <trkpt lat="41.75741" lon="41.75735">
        <ele>125.128953</ele>
        <time>2021-08-14T19:23:57.026Z</time>
      </trkpt>
      <trkpt lat="41.75769" lon="41.75737">
        <ele>125.879651</ele>
        <time>2021-08-14T19:24:06.829Z</time>
      </trkpt>
      <trkpt lat="41.7578" lon="41.75746">
        <ele>126.196488</ele>
        <time>2021-08-14T19:24:10.959Z</time>
      </trkpt>
      <trkpt lat="41.7579" lon="41.75779">
        <ele>126.903391</ele>
        <time>2021-08-14T19:24:21.028Z</time>
      </trkpt>
      <trkpt lat="41.75807" lon="41.75909">
        <ele>129.235176</ele>
        <time>2021-08-14T19:25:01.930Z</time>
      </trkpt>
      <trkpt lat="41.75816" lon="41.75931">
        <ele>129.379908</ele>
        <time>2021-08-14T19:25:09.627Z</time>
      </trkpt>
      <trkpt lat="41.75828" lon="41.75954">
        <ele>129.534747</ele>
        <time>2021-08-14T19:25:15.755Z</time>
      </trkpt>
      <trkpt lat="41.7584" lon="41.7597">
        <ele>129.670503</ele>
        <time>2021-08-14T19:25:23.007Z</time>
      </trkpt>
      <trkpt lat="41.75855" lon="41.75977">
        <ele>129.786412</ele>
        <time>2021-08-14T19:25:26.804Z</time>
      </trkpt>
      <trkpt lat="41.75872" lon="41.75975">
        <ele>129.918455</ele>
        <time>2021-08-14T19:25:31.006Z</time>
      </trkpt>
      <trkpt lat="41.75959" lon="41.75941">
        <ele>129.908092</ele>
        <time>2021-08-14T19:25:48.905Z</time>
      </trkpt>
      <trkpt lat="41.75993" lon="41.75951">
        <ele>128.26897</ele>
        <time>2021-08-14T19:25:55.178Z</time>
      </trkpt>
      <trkpt lat="41.76015" lon="41.75948">
        <ele>127.191652</ele>
        <time>2021-08-14T19:25:58.776Z</time>
      </trkpt>
      <trkpt lat="41.76035" lon="41.75942">
        <ele>126.221971</ele>
        <time>2021-08-14T19:26:02.052Z</time>
      </trkpt>
      <trkpt lat="41.76057" lon="41.75945">
        <ele>125.158902</ele>
        <time>2021-08-14T19:26:05.563Z</time>
      </trkpt>
      <trkpt lat="41.76115" lon="41.75973">
        <ele>122.234505</ele>
        <time>2021-08-14T19:26:14.834Z</time>
      </trkpt>
      <trkpt lat="41.76135" lon="41.75975">
        <ele>120.659874</ele>
        <time>2021-08-14T19:26:17.817Z</time>
      </trkpt>
      <trkpt lat="41.76168" lon="41.75961">
        <ele>117.418592</ele>
        <time>2021-08-14T19:26:22.906Z</time>
      </trkpt>
      <trkpt lat="41.76193" lon="41.75934">
        <ele>114.442062</ele>
        <time>2021-08-14T19:26:27.627Z</time>
      </trkpt>
      <trkpt lat="41.76205" lon="41.75913">
        <ele>112.661817</ele>
        <time>2021-08-14T19:26:30.417Z</time>
      </trkpt>
      <trkpt lat="41.76225" lon="41.7584">
        <ele>107.314703</ele>
        <time>2021-08-14T19:26:38.639Z</time>
      </trkpt>
      <trkpt lat="41.76255" lon="41.75768">
        <ele>101.279844</ele>
        <time>2021-08-14T19:26:47.297Z</time>
      </trkpt>
      <trkpt lat="41.76254" lon="41.75748">
        <ele>99.784605</ele>
        <time>2021-08-14T19:26:49.371Z</time>
      </trkpt>
      <trkpt lat="41.76239" lon="41.75696">
        <ele>95.550975</ele>
        <time>2021-08-14T19:26:55.284Z</time>
      </trkpt>
      <trkpt lat="41.76239" lon="41.75645">
        <ele>91.708848</ele>
        <time>2021-08-14T19:27:00.672Z</time>
      </trkpt>
      <trkpt lat="41.76251" lon="41.75543">
        <ele>85.731375</ele>
        <time>2021-08-14T19:27:11.878Z</time>
      </trkpt>
      <trkpt lat="41.76237" lon="41.75458">
        <ele>82.722635</ele>
        <time>2021-08-14T19:27:22.143Z</time>
      </trkpt>
      <trkpt lat="41.76235" lon="41.75442">
        <ele>82.131152</ele>
        <time>2021-08-14T19:27:24.028Z</time>
      </trkpt>
      <trkpt lat="41.76237" lon="41.75424">
        <ele>81.508704</ele>
        <time>2021-08-14T19:27:27.526Z</time>
      </trkpt>
      <trkpt lat="41.76245" lon="41.75395">
        <ele>80.419389</ele>
        <time>2021-08-14T19:27:31.315Z</time>
      </trkpt>
      <trkpt lat="41.76253" lon="41.75383">
        <ele>79.874553</ele>
        <time>2021-08-14T19:27:34.946Z</time>
      </trkpt>
      <trkpt lat="41.76273" lon="41.75367">
        <ele>78.833095</ele>
        <time>2021-08-14T19:27:38.871Z</time>
      </trkpt>
      <trkpt lat="41.76294" lon="41.75365">
        <ele>78.49569</ele>
        <time>2021-08-14T19:27:44.625Z</time>
      </trkpt>
      <trkpt lat="41.76321" lon="41.7538">
        <ele>78.041703</ele>
        <time>2021-08-14T19:27:50.249Z</time>
      </trkpt>
      <trkpt lat="41.76366" lon="41.7543">
        <ele>77.122036</ele>
        <time>2021-08-14T19:28:01.434Z</time>
      </trkpt>
      <trkpt lat="41.764" lon="41.75452">
        <ele>76.524118</ele>
        <time>2021-08-14T19:28:08.596Z</time>
      </trkpt>
      <trkpt lat="41.76415" lon="41.75453">
        <ele>76.297329</ele>
        <time>2021-08-14T19:28:11.303Z</time>
      </trkpt>
      <trkpt lat="41.76482" lon="41.75384">
        <ele>74.212511</ele>
        <time>2021-08-14T19:28:26.728Z</time>
      </trkpt>
      <trkpt lat="41.76562" lon="41.75337">
        <ele>71.853934</ele>
        <time>2021-08-14T19:28:41.657Z</time>
      </trkpt>
      <trkpt lat="41.76579" lon="41.75332">
        <ele>71.3898</ele>
        <time>2021-08-14T19:28:44.579Z</time>
      </trkpt>
      <trkpt lat="41.76586" lon="41.7534">
        <ele>71.144067</ele>
        <time>2021-08-14T19:28:46.142Z</time>
      </trkpt>
      <trkpt lat="41.76581" lon="41.75355">
        <ele>70.799398</ele>
        <time>2021-08-14T19:28:48.271Z</time>
      </trkpt>
      <trkpt lat="41.76506" lon="41.75414">
        <ele>68.31914</ele>
        <time>2021-08-14T19:29:03.750Z</time>
      </trkpt>
      <trkpt lat="41.7648" lon="41.75448">
        <ele>67.292624</ele>
        <time>2021-08-14T19:29:10.026Z</time>
      </trkpt>
      <trkpt lat="41.76462" lon="41.75504">
        <ele>66.005207</ele>
        <time>2021-08-14T19:29:17.842Z</time>
      </trkpt>
      <trkpt lat="41.76463" lon="41.75519">
        <ele>65.716132</ele>
        <time>2021-08-14T19:29:19.744Z</time>
      </trkpt>
      <trkpt lat="41.76476" lon="41.75527">
        <ele>65.345893</ele>
        <time>2021-08-14T19:29:22.184Z</time>
      </trkpt>
      <trkpt lat="41.76501" lon="41.75513">
        <ele>64.648272</ele>
        <time>2021-08-14T19:29:26.785Z</time>
      </trkpt>
      <trkpt lat="41.76626" lon="41.75413">
        <ele>60.806316</ele>
        <time>2021-08-14T19:29:52.981Z</time>
      </trkpt>
      <trkpt lat="41.76649" lon="41.75389">
        <ele>59.969519</ele>
        <time>2021-08-14T19:29:58.168Z</time>
      </trkpt>
      <trkpt lat="41.76672" lon="41.75364">
        <ele>59.09447</ele>
        <time>2021-08-14T19:30:03.692Z</time>
      </trkpt>
      <trkpt lat="41.76687" lon="41.75359">
        <ele>58.648335</ele>
        <time>2021-08-14T19:30:06.206Z</time>
      </trkpt>
      <trkpt lat="41.7671" lon="41.75361">
        <ele>57.970549</ele>
        <time>2021-08-14T19:30:10.305Z</time>
      </trkpt>
      <trkpt lat="41.7672" lon="41.75371">
        <ele>57.607518</ele>
        <time>2021-08-14T19:30:12.345Z</time>
      </trkpt>
      <trkpt lat="41.76729" lon="41.75382">
        <ele>57.265212</ele>
        <time>2021-08-14T19:30:14.443Z</time>
      </trkpt>
      <trkpt lat="41.76748" lon="41.75415">
        <ele>56.349412</ele>
        <time>2021-08-14T19:30:19.689Z</time>
      </trkpt>
      <trkpt lat="41.76758" lon="41.75429">
        <ele>55.704415</ele>
        <time>2021-08-14T19:30:22.232Z</time>
      </trkpt>
      <trkpt lat="41.76766" lon="41.75439">
        <ele>55.102068</ele>
        <time>2021-08-14T19:30:23.882Z</time>
      </trkpt>
      <trkpt lat="41.76792" lon="41.75456">
        <ele>53.49066</ele>
        <time>2021-08-14T19:30:28.820Z</time>
      </trkpt>
      <trkpt lat="41.76901" lon="41.75484">
        <ele>47.274718</ele>
        <time>2021-08-14T19:30:45.833Z</time>
      </trkpt>
      <trkpt lat="41.76979" lon="41.75551">
        <ele>41.476499</ele>
        <time>2021-08-14T19:30:59.764Z</time>
      </trkpt>
      <trkpt lat="41.77005" lon="41.75563">
        <ele>39.746857</ele>
        <time>2021-08-14T19:31:03.921Z</time>
      </trkpt>
      <trkpt lat="41.77011" lon="41.75566">
        <ele>39.344351</ele>
        <time>2021-08-14T19:31:04.826Z</time>
      </trkpt>
      <trkpt lat="41.77041" lon="41.75579">
        <ele>37.279594</ele>
        <time>2021-08-14T19:31:09.774Z</time>
      </trkpt>
      <trkpt lat="41.77146" lon="41.75636">
        <ele>30.967043</ele>
        <time>2021-08-14T19:31:27.099Z</time>
      </trkpt>
      <trkpt lat="41.77217" lon="41.75638">
        <ele>27.341093</ele>
        <time>2021-08-14T19:31:38.390Z</time>
      </trkpt>
      <trkpt lat="41.77248" lon="41.75649">
        <ele>25.711358</ele>
        <time>2021-08-14T19:31:43.561Z</time>
      </trkpt>
      <trkpt lat="41.77351" lon="41.75729">
        <ele>21.466321</ele>
        <time>2021-08-14T19:32:03.608Z</time>
      </trkpt>
      <trkpt lat="41.77386" lon="41.75765">
        <ele>19.919621</ele>
        <time>2021-08-14T19:32:11.259Z</time>
      </trkpt>
      <trkpt lat="41.77428" lon="41.75814">
        <ele>18.433737</ele>
        <time>2021-08-14T19:32:20.664Z</time>
      </trkpt>
      <trkpt lat="41.77524" lon="41.75921">
        <ele>15.758213</ele>
        <time>2021-08-14T19:32:43.150Z</time>
      </trkpt>
      <trkpt lat="41.77552" lon="41.75949">
        <ele>15.362451</ele>
        <time>2021-08-14T19:32:50.039Z</time>
      </trkpt>
      <trkpt lat="41.77638" lon="41.76033">
        <ele>15.969421</ele>
        <time>2021-08-14T19:33:18.136Z</time>
      </trkpt>
      <trkpt lat="41.77743" lon="41.76136">
        <ele>15.633056</ele>
        <time>2021-08-14T19:33:55.361Z</time>
      </trkpt>
      <trkpt lat="41.77848" lon="41.7624">
        <ele>13.930377</ele>
        <time>2021-08-14T19:34:18.866Z</time>
      </trkpt>
      <trkpt lat="41.77897" lon="41.76289">
        <ele>11.957095</ele>
        <time>2021-08-14T19:34:29.027Z</time>
      </trkpt>
      <trkpt lat="41.77899" lon="41.76291">
        <ele>11.894979</ele>
        <time>2021-08-14T19:34:29.296Z</time>
      </trkpt>
      <trkpt lat="41.77904" lon="41.76296">
        <ele>11.68466</ele>
        <time>2021-08-14T19:34:30.424Z</time>
      </trkpt>
      <trkpt lat="41.77911" lon="41.76302">
        <ele>11.413313</ele>
        <time>2021-08-14T19:34:31.889Z</time>
      </trkpt>
      <trkpt lat="41.77921" lon="41.76311">
        <ele>11.014299</ele>
        <time>2021-08-14T19:34:33.945Z</time>
      </trkpt>
      <trkpt lat="41.77996" lon="41.76358">
        <ele>8.601717</ele>
        <time>2021-08-14T19:34:48.148Z</time>
      </trkpt>
      <trkpt lat="41.78061" lon="41.76386">
        <ele>7.586881</ele>
        <time>2021-08-14T19:35:00.665Z</time>
      </trkpt>
      <trkpt lat="41.78197" lon="41.7644">
        <ele>6.114326</ele>
        <time>2021-08-14T19:35:29.251Z</time>
      </trkpt>
      <trkpt lat="41.78233" lon="41.76455">
        <ele>6.109728</ele>
        <time>2021-08-14T19:35:37.647Z</time>
      </trkpt>
      <trkpt lat="41.78292" lon="41.76478">
        <ele>6.102125</ele>
        <time>2021-08-14T19:35:53.025Z</time>
      </trkpt>
      <trkpt lat="41.78297" lon="41.7648">
        <ele>6.101547</ele>
        <time>2021-08-14T19:35:53.971Z</time>
      </trkpt>
      <trkpt lat="41.78415" lon="41.76529">
        <ele>6.108956</ele>
        <time>2021-08-14T19:36:23.223Z</time>
      </trkpt>
      <trkpt lat="41.78519" lon="41.76571">
        <ele>5.984885</ele>
        <time>2021-08-14T19:36:46.806Z</time>
      </trkpt>
      <trkpt lat="41.78629" lon="41.76616">
        <ele>5.202379</ele>
        <time>2021-08-14T19:37:09.750Z</time>
      </trkpt>
      <trkpt lat="41.78639" lon="41.7662">
        <ele>5.135819</ele>
        <time>2021-08-14T19:37:11.641Z</time>
      </trkpt>
      <trkpt lat="41.78829" lon="41.76698">
        <ele>4.520648</ele>
        <time>2021-08-14T19:37:54.725Z</time>
      </trkpt>
      <trkpt lat="41.78901" lon="41.76729">
        <ele>4.288572</ele>
        <time>2021-08-14T19:38:11.411Z</time>
      </trkpt>
      <trkpt lat="41.78973" lon="41.76767">
        <ele>4.039143</ele>
        <time>2021-08-14T19:38:27.785Z</time>
      </trkpt>
      <trkpt lat="41.79034" lon="41.768">
        <ele>3.833948</ele>
        <time>2021-08-14T19:38:41.379Z</time>
      </trkpt>
      <trkpt lat="41.79136" lon="41.76859">
        <ele>3.501218</ele>
        <time>2021-08-14T19:39:04.919Z</time>
      </trkpt>
      <trkpt lat="41.7925" lon="41.76934">
        <ele>3.583176</ele>
        <time>2021-08-14T19:39:33.443Z</time>
      </trkpt>
      <trkpt lat="41.79408" lon="41.77038">
        <ele>4.012538</ele>
        <time>2021-08-14T19:40:16.784Z</time>
      </trkpt>
      <trkpt lat="41.79539" lon="41.77108">
        <ele>4.026027</ele>
        <time>2021-08-14T19:40:48.630Z</time>
      </trkpt>
      <trkpt lat="41.79578" lon="41.77131">
        <ele>3.799983</ele>
        <time>2021-08-14T19:40:57.566Z</time>
      </trkpt>
      <trkpt lat="41.79671" lon="41.77197">
        <ele>3.21344</ele>
        <time>2021-08-14T19:41:18.880Z</time>
      </trkpt>
      <trkpt lat="41.79798" lon="41.77272">
        <ele>1.920878</ele>
        <time>2021-08-14T19:41:46.213Z</time>
      </trkpt>
      <trkpt lat="41.79865" lon="41.7731">
        <ele>1.690934</ele>
        <time>2021-08-14T19:42:01.194Z</time>
      </trkpt>
      <trkpt lat="41.79914" lon="41.77343">
        <ele>1.814065</ele>
        <time>2021-08-14T19:42:13.455Z</time>
      </trkpt>
      <trkpt lat="41.79997" lon="41.77399">
        <ele>2.077736</ele>
        <time>2021-08-14T19:42:37.298Z</time>
      </trkpt>
      <trkpt lat="41.80028" lon="41.77417">
        <ele>2.44127</ele>
        <time>2021-08-14T19:42:46.814Z</time>
      </trkpt>
      <trkpt lat="41.80142" lon="41.77493">
        <ele>3.836908</ele>
        <time>2021-08-14T19:43:23.258Z</time>
      </trkpt>
      <trkpt lat="41.8019" lon="41.77524">
        <ele>4.016994</ele>
        <time>2021-08-14T19:43:37.033Z</time>
      </trkpt>
      <trkpt lat="41.80233" lon="41.77549">
        <ele>4.066</ele>
        <time>2021-08-14T19:43:47.845Z</time>
      </trkpt>
      <trkpt lat="41.80298" lon="41.77583">
        <ele>4.139955</ele>
        <time>2021-08-14T19:44:03.004Z</time>
      </trkpt>
      <trkpt lat="41.80317" lon="41.77593">
        <ele>4.16183</ele>
        <time>2021-08-14T19:44:07.417Z</time>
      </trkpt>
      <trkpt lat="41.80332" lon="41.77601">
        <ele>4.082515</ele>
        <time>2021-08-14T19:44:10.618Z</time>
      </trkpt>
      <trkpt lat="41.80409" lon="41.77644">
        <ele>3.584222</ele>
        <time>2021-08-14T19:44:27.895Z</time>
      </trkpt>
      <trkpt lat="41.80429" lon="41.77656">
        <ele>3.453476</ele>
        <time>2021-08-14T19:44:32.406Z</time>
      </trkpt>
      <trkpt lat="41.80448" lon="41.77667">
        <ele>3.330739</ele>
        <time>2021-08-14T19:44:36.609Z</time>
      </trkpt>
      <trkpt lat="41.80497" lon="41.77565">
        <ele>2.916727</ele>
        <time>2021-08-14T19:44:56.150Z</time>
      </trkpt>
      <trkpt lat="41.80504" lon="41.77557">
        <ele>2.884127</ele>
        <time>2021-08-14T19:44:58.190Z</time>
      </trkpt>
      <trkpt lat="41.80568" lon="41.77531">
        <ele>2.650767</ele>
        <time>2021-08-14T19:45:12.886Z</time>
      </trkpt>
      <trkpt lat="41.80593" lon="41.77515">
        <ele>2.554188</ele>
        <time>2021-08-14T19:45:19.100Z</time>
      </trkpt>
      <trkpt lat="41.80659" lon="41.77467">
        <ele>2.642866</ele>
        <time>2021-08-14T19:45:36.667Z</time>
      </trkpt>
      <trkpt lat="41.80688" lon="41.77438">
        <ele>2.774223</ele>
        <time>2021-08-14T19:45:45.729Z</time>
      </trkpt>
      <trkpt lat="41.80705" lon="41.77446">
        <ele>2.837418</ele>
        <time>2021-08-14T19:45:50.488Z</time>
      </trkpt>
      <trkpt lat="41.80809" lon="41.77492">
        <ele>3.24081</ele>
        <time>2021-08-14T19:46:18.724Z</time>
      </trkpt>
      <trkpt lat="41.80845" lon="41.77508">
        <ele>3.388293</ele>
        <time>2021-08-14T19:46:28.757Z</time>
      </trkpt>
      <trkpt lat="41.8091" lon="41.77537">
        <ele>3.648638</ele>
        <time>2021-08-14T19:46:45.564Z</time>
      </trkpt>
      <trkpt lat="41.8094" lon="41.77547">
        <ele>3.766626</ele>
        <time>2021-08-14T19:46:53.124Z</time>
      </trkpt>
      <trkpt lat="41.81074" lon="41.77603">
        <ele>4.01859</ele>
        <time>2021-08-14T19:47:27.085Z</time>
      </trkpt>
      <trkpt lat="41.8111" lon="41.77611">
        <ele>4.078818</ele>
        <time>2021-08-14T19:47:35.884Z</time>
      </trkpt>
      <trkpt lat="41.81123" lon="41.77612">
        <ele>4.09218</ele>
        <time>2021-08-14T19:47:39.167Z</time>
      </trkpt>
      <trkpt lat="41.81151" lon="41.77617">
        <ele>3.894712</ele>
        <time>2021-08-14T19:47:45.526Z</time>
      </trkpt>
      <trkpt lat="41.81172" lon="41.77621">
        <ele>3.744593</ele>
        <time>2021-08-14T19:47:50.194Z</time>
      </trkpt>
      <trkpt lat="41.81217" lon="41.77631">
        <ele>3.414402</ele>
        <time>2021-08-14T19:48:00.098Z</time>
      </trkpt>
      <trkpt lat="41.81279" lon="41.7764">
        <ele>2.968266</ele>
        <time>2021-08-14T19:48:12.817Z</time>
      </trkpt>
      <trkpt lat="41.81315" lon="41.77589">
        <ele>2.632888</ele>
        <time>2021-08-14T19:48:22.952Z</time>
      </trkpt>
      <trkpt lat="41.81346" lon="41.77545">
        <ele>2.360717</ele>
        <time>2021-08-14T19:48:32.265Z</time>
      </trkpt>
      <trkpt lat="41.81364" lon="41.77526">
        <ele>2.221347</ele>
        <time>2021-08-14T19:48:36.851Z</time>
      </trkpt>
      <trkpt lat="41.81399" lon="41.77491">
        <ele>1.960137</ele>
        <time>2021-08-14T19:48:46.005Z</time>
      </trkpt>
      <trkpt lat="41.81499" lon="41.77416">
        <ele>2.322207</ele>
        <time>2021-08-14T19:49:12.206Z</time>
      </trkpt>
      <trkpt lat="41.81528" lon="41.774">
        <ele>2.564451</ele>
        <time>2021-08-14T19:49:21.077Z</time>
      </trkpt>
      <trkpt lat="41.81542" lon="41.77398">
        <ele>2.667614</ele>
        <time>2021-08-14T19:49:25.149Z</time>
      </trkpt>
      <trkpt lat="41.81631" lon="41.77411">
        <ele>3.443144</ele>
        <time>2021-08-14T19:49:50.930Z</time>
      </trkpt>
      <trkpt lat="41.81639" lon="41.77412">
        <ele>3.522273</ele>
        <time>2021-08-14T19:49:53.207Z</time>
      </trkpt>
      <trkpt lat="41.81741" lon="41.77427">
        <ele>4.584879</ele>
        <time>2021-08-14T19:50:20.787Z</time>
      </trkpt>
      <trkpt lat="41.81853" lon="41.77442">
        <ele>5.654764</ele>
        <time>2021-08-14T19:50:51.204Z</time>
      </trkpt>
      <trkpt lat="41.81989" lon="41.77466">
        <ele>6.701951</ele>
        <time>2021-08-14T19:51:27.428Z</time>
      </trkpt>
      <trkpt lat="41.81998" lon="41.77468">
        <ele>6.732827</ele>
        <time>2021-08-14T19:51:30.213Z</time>
      </trkpt>
      <trkpt lat="41.82032" lon="41.77482">
        <ele>6.844027</ele>
        <time>2021-08-14T19:51:39.221Z</time>
      </trkpt>
      <trkpt lat="41.82042" lon="41.77487">
        <ele>6.876572</ele>
        <time>2021-08-14T19:51:42.017Z</time>
      </trkpt>
      <trkpt lat="41.82093" lon="41.77514">
        <ele>7.0464</ele>
        <time>2021-08-14T19:51:54.637Z</time>
      </trkpt>
      <trkpt lat="41.82107" lon="41.77523">
        <ele>7.093186</ele>
        <time>2021-08-14T19:51:58.193Z</time>
      </trkpt>
      <trkpt lat="41.82166" lon="41.77542">
        <ele>6.742898</ele>
        <time>2021-08-14T19:52:10.912Z</time>
      </trkpt>
      <trkpt lat="41.82229" lon="41.77554">
        <ele>6.062585</ele>
        <time>2021-08-14T19:52:23.303Z</time>
      </trkpt>
      <trkpt lat="41.82289" lon="41.77565">
        <ele>5.423302</ele>
        <time>2021-08-14T19:52:34.628Z</time>
      </trkpt>
      <trkpt lat="41.82358" lon="41.77572">
        <ele>5.034928</ele>
        <time>2021-08-14T19:52:48.304Z</time>
      </trkpt>
      <trkpt lat="41.82416" lon="41.77579">
        <ele>4.797112</ele>
        <time>2021-08-14T19:53:00.506Z</time>
      </trkpt>
      <trkpt lat="41.825" lon="41.77586">
        <ele>4.666716</ele>
        <time>2021-08-14T19:53:19.982Z</time>
      </trkpt>
      <trkpt lat="41.82613" lon="41.77601">
        <ele>5.71466</ele>
        <time>2021-08-14T19:53:50.606Z</time>
      </trkpt>
      <trkpt lat="41.82648" lon="41.77606">
        <ele>6.040299</ele>
        <time>2021-08-14T19:54:00.579Z</time>
      </trkpt>
      <trkpt lat="41.82728" lon="41.77619">
        <ele>6.965344</ele>
        <time>2021-08-14T19:54:23.777Z</time>
      </trkpt>
      <trkpt lat="41.82863" lon="41.77643">
        <ele>8.372786</ele>
        <time>2021-08-14T19:55:02.558Z</time>
      </trkpt>
      <trkpt lat="41.82897" lon="41.7765">
        <ele>8.41996</ele>
        <time>2021-08-14T19:55:11.172Z</time>
      </trkpt>
      <trkpt lat="41.82909" lon="41.77652">
        <ele>8.437184</ele>
        <time>2021-08-14T19:55:14.239Z</time>
      </trkpt>
      <trkpt lat="41.8296" lon="41.77661">
        <ele>8.50648</ele>
        <time>2021-08-14T19:55:25.445Z</time>
      </trkpt>
      <trkpt lat="41.83041" lon="41.77677">
        <ele>8.445125</ele>
        <time>2021-08-14T19:55:42.664Z</time>
      </trkpt>
      <trkpt lat="41.8311" lon="41.77687">
        <ele>7.973511</ele>
        <time>2021-08-14T19:55:56.583Z</time>
      </trkpt>
      <trkpt lat="41.83253" lon="41.77711">
        <ele>7.283457</ele>
        <time>2021-08-14T19:56:26.232Z</time>
      </trkpt>
      <trkpt lat="41.83423" lon="41.77737">
        <ele>7.256001</ele>
        <time>2021-08-14T19:57:04.741Z</time>
      </trkpt>
      <trkpt lat="41.8359" lon="41.77765">
        <ele>7.794207</ele>
        <time>2021-08-14T19:57:46.384Z</time>
      </trkpt>
      <trkpt lat="41.83706" lon="41.77783">
        <ele>8.029458</ele>
        <time>2021-08-14T19:58:13.958Z</time>
      </trkpt>
      <trkpt lat="41.83753" lon="41.7779">
        <ele>7.982143</ele>
        <time>2021-08-14T19:58:24.112Z</time>
      </trkpt>
      <trkpt lat="41.83851" lon="41.77803">
        <ele>7.438402</ele>
        <time>2021-08-14T19:58:44.309Z</time>
      </trkpt>
      <trkpt lat="41.83911" lon="41.77811">
        <ele>7.102537</ele>
        <time>2021-08-14T19:58:56.485Z</time>
      </trkpt>
      <trkpt lat="41.84142" lon="41.77842">
        <ele>6.023175</ele>
        <time>2021-08-14T19:59:45.082Z</time>
      </trkpt>
      <trkpt lat="41.84147" lon="41.77842">
        <ele>6.010651</ele>
        <time>2021-08-14T19:59:46.173Z</time>
      </trkpt>
      <trkpt lat="41.84182" lon="41.77847">
        <ele>5.924385</ele>
        <time>2021-08-14T19:59:53.636Z</time>
      </trkpt>
      <trkpt lat="41.84361" lon="41.77868">
        <ele>5.649235</ele>
        <time>2021-08-14T20:00:33.122Z</time>
      </trkpt>
      <trkpt lat="41.8451" lon="41.77885">
        <ele>5.580874</ele>
        <time>2021-08-14T20:01:06.259Z</time>
      </trkpt>
      <trkpt lat="41.84726" lon="41.77913">
        <ele>5.638668</ele>
        <time>2021-08-14T20:01:54.171Z</time>
      </trkpt>
      <trkpt lat="41.84813" lon="41.7792">
        <ele>5.72068</ele>
        <time>2021-08-14T20:02:14.370Z</time>
      </trkpt>
      <trkpt lat="41.84894" lon="41.77926">
        <ele>5.721864</ele>
        <time>2021-08-14T20:02:34.045Z</time>
      </trkpt>
      <trkpt lat="41.8493" lon="41.7793">
        <ele>5.722402</ele>
        <time>2021-08-14T20:02:42.247Z</time>
      </trkpt>
      <trkpt lat="41.85035" lon="41.7794">
        <ele>5.601998</ele>
        <time>2021-08-14T20:03:04.422Z</time>
      </trkpt>
      <trkpt lat="41.85131" lon="41.77949">
        <ele>5.353221</ele>
        <time>2021-08-14T20:03:24.996Z</time>
      </trkpt>
      <trkpt lat="41.85197" lon="41.77955">
        <ele>5.336255</ele>
        <time>2021-08-14T20:03:39.131Z</time>
      </trkpt>
      <trkpt lat="41.85375" lon="41.77967">
        <ele>5.774755</ele>
        <time>2021-08-14T20:04:22.677Z</time>
      </trkpt>
      <trkpt lat="41.85451" lon="41.7797">
        <ele>5.864168</ele>
        <time>2021-08-14T20:04:40.121Z</time>
      </trkpt>
      <trkpt lat="41.85493" lon="41.77972">
        <ele>5.914405</ele>
        <time>2021-08-14T20:04:49.608Z</time>
      </trkpt>
      <trkpt lat="41.85583" lon="41.77975">
        <ele>5.911594</ele>
        <time>2021-08-14T20:05:09.332Z</time>
      </trkpt>
      <trkpt lat="41.85636" lon="41.77976">
        <ele>5.869951</ele>
        <time>2021-08-14T20:05:21.014Z</time>
      </trkpt>
      <trkpt lat="41.85714" lon="41.77975">
        <ele>5.802107</ele>
        <time>2021-08-14T20:05:38.199Z</time>
      </trkpt>
      <trkpt lat="41.85821" lon="41.77973">
        <ele>5.6087</ele>
        <time>2021-08-14T20:06:01.624Z</time>
      </trkpt>
      <trkpt lat="41.85892" lon="41.77972">
        <ele>5.475278</ele>
        <time>2021-08-14T20:06:16.705Z</time>
      </trkpt>
      <trkpt lat="41.86076" lon="41.7797">
        <ele>4.865212</ele>
        <time>2021-08-14T20:06:55.837Z</time>
      </trkpt>
      <trkpt lat="41.86135" lon="41.77969">
        <ele>4.812791</ele>
        <time>2021-08-14T20:07:08.647Z</time>
      </trkpt>
      <trkpt lat="41.86202" lon="41.77969">
        <ele>4.7537</ele>
        <time>2021-08-14T20:07:23.177Z</time>
      </trkpt>
      <trkpt lat="41.86259" lon="41.77968">
        <ele>4.743964</ele>
        <time>2021-08-14T20:07:36.083Z</time>
      </trkpt>
      <trkpt lat="41.86332" lon="41.77966">
        <ele>4.928422</ele>
        <time>2021-08-14T20:07:53.693Z</time>
      </trkpt>
      <trkpt lat="41.86339" lon="41.77965">
        <ele>4.945475</ele>
        <time>2021-08-14T20:07:55.191Z</time>
      </trkpt>
      <trkpt lat="41.86467" lon="41.77942">
        <ele>5.272153</ele>
        <time>2021-08-14T20:08:25.981Z</time>
      </trkpt>
      <trkpt lat="41.86623" lon="41.77913">
        <ele>5.615546</ele>
        <time>2021-08-14T20:09:02.843Z</time>
      </trkpt>
      <trkpt lat="41.86639" lon="41.7791">
        <ele>5.615202</ele>
        <time>2021-08-14T20:09:06.467Z</time>
      </trkpt>
      <trkpt lat="41.86727" lon="41.77894">
        <ele>5.613362</ele>
        <time>2021-08-14T20:09:25.932Z</time>
      </trkpt>
      <trkpt lat="41.86854" lon="41.7787">
        <ele>5.831169</ele>
        <time>2021-08-14T20:09:54.034Z</time>
      </trkpt>
      <trkpt lat="41.86913" lon="41.77858">
        <ele>6.009459</ele>
        <time>2021-08-14T20:10:08.173Z</time>
      </trkpt>
      <trkpt lat="41.86957" lon="41.77849">
        <ele>6.143713</ele>
        <time>2021-08-14T20:10:20.003Z</time>
      </trkpt>
      <trkpt lat="41.87011" lon="41.7784">
        <ele>6.559376</ele>
        <time>2021-08-14T20:10:34.527Z</time>
      </trkpt>
      <trkpt lat="41.8702" lon="41.77839">
        <ele>6.636351</ele>
        <time>2021-08-14T20:10:37.048Z</time>
      </trkpt>
      <trkpt lat="41.87067" lon="41.7783">
        <ele>7.013149</ele>
        <time>2021-08-14T20:10:50.213Z</time>
      </trkpt>
      <trkpt lat="41.87122" lon="41.77814">
        <ele>7.462665</ele>
        <time>2021-08-14T20:11:05.399Z</time>
      </trkpt>
      <trkpt lat="41.87238" lon="41.77765">
        <ele>7.189018</ele>
        <time>2021-08-14T20:11:32.636Z</time>
      </trkpt>
      <trkpt lat="41.87367" lon="41.7771">
        <ele>6.186575</ele>
        <time>2021-08-14T20:11:59.112Z</time>
      </trkpt>
      <trkpt lat="41.87448" lon="41.77675">
        <ele>5.168461</ele>
        <time>2021-08-14T20:12:15.716Z</time>
      </trkpt>
      <trkpt lat="41.87548" lon="41.77632">
        <ele>4.202228</ele>
        <time>2021-08-14T20:12:36.500Z</time>
      </trkpt>
      <trkpt lat="41.87583" lon="41.77616">
        <ele>3.90433</ele>
        <time>2021-08-14T20:12:43.905Z</time>
      </trkpt>
      <trkpt lat="41.87629" lon="41.776">
        <ele>3.529134</ele>
        <time>2021-08-14T20:12:53.536Z</time>
      </trkpt>
      <trkpt lat="41.87684" lon="41.77584">
        <ele>3.356585</ele>
        <time>2021-08-14T20:13:05.411Z</time>
      </trkpt>
      <trkpt lat="41.87752" lon="41.77566">
        <ele>3.401492</ele>
        <time>2021-08-14T20:13:20.746Z</time>
      </trkpt>
      <trkpt lat="41.87867" lon="41.77538">
        <ele>3.769684</ele>
        <time>2021-08-14T20:13:49.154Z</time>
      </trkpt>
      <trkpt lat="41.87886" lon="41.77535">
        <ele>3.923688</ele>
        <time>2021-08-14T20:13:54.153Z</time>
      </trkpt>
      <trkpt lat="41.87955" lon="41.77523">
        <ele>4.493244</ele>
        <time>2021-08-14T20:14:12.751Z</time>
      </trkpt>
      <trkpt lat="41.88101" lon="41.77504">
        <ele>6.27617</ele>
        <time>2021-08-14T20:14:53.589Z</time>
      </trkpt>
      <trkpt lat="41.88163" lon="41.77494">
        <ele>7.184831</ele>
        <time>2021-08-14T20:15:12.700Z</time>
      </trkpt>
      <trkpt lat="41.88185" lon="41.77491">
        <ele>7.497404</ele>
        <time>2021-08-14T20:15:19.920Z</time>
      </trkpt>
      <trkpt lat="41.88297" lon="41.77472">
        <ele>9.138757</ele>
        <time>2021-08-14T20:15:55.418Z</time>
      </trkpt>
      <trkpt lat="41.88392" lon="41.77458">
        <ele>10.059902</ele>
        <time>2021-08-14T20:16:21.876Z</time>
      </trkpt>
      <trkpt lat="41.8856" lon="41.77435">
        <ele>9.462098</ele>
        <time>2021-08-14T20:16:57.180Z</time>
      </trkpt>
      <trkpt lat="41.88741" lon="41.77407">
        <ele>7.567488</ele>
        <time>2021-08-14T20:17:31.850Z</time>
      </trkpt>
      <trkpt lat="41.89059" lon="41.77361">
        <ele>7.409146</ele>
        <time>2021-08-14T20:18:45.705Z</time>
      </trkpt>
      <trkpt lat="41.89331" lon="41.77324">
        <ele>6.519818</ele>
        <time>2021-08-14T20:19:42.759Z</time>
      </trkpt>
      <trkpt lat="41.8941" lon="41.7732">
        <ele>6.378933</ele>
        <time>2021-08-14T20:20:00.307Z</time>
      </trkpt>
      <trkpt lat="41.8949" lon="41.7733">
        <ele>6.12967</ele>
        <time>2021-08-14T20:20:18.783Z</time>
      </trkpt>
      <trkpt lat="41.89598" lon="41.77335">
        <ele>5.712139</ele>
        <time>2021-08-14T20:20:41.963Z</time>
      </trkpt>
      <trkpt lat="41.89791" lon="41.77359">
        <ele>3.555664</ele>
        <time>2021-08-14T20:21:19.354Z</time>
      </trkpt>
      <trkpt lat="41.89854" lon="41.77365">
        <ele>2.842365</ele>
        <time>2021-08-14T20:21:31.498Z</time>
      </trkpt>
      <trkpt lat="41.89893" lon="41.77368">
        <ele>2.401326</ele>
        <time>2021-08-14T20:21:39.154Z</time>
      </trkpt>
      <trkpt lat="41.90245" lon="41.77402">
        <ele>-0.594262</ele>
        <time>2021-08-14T20:22:49.832Z</time>
      </trkpt>
      <trkpt lat="41.90312" lon="41.77409">
        <ele>-0.955176</ele>
        <time>2021-08-14T20:23:04.078Z</time>
      </trkpt>
      <trkpt lat="41.90534" lon="41.77412">
        <ele>-0.755599</ele>
        <time>2021-08-14T20:23:55.391Z</time>
      </trkpt>
      <trkpt lat="41.90645" lon="41.77412">
        <ele>-0.442513</ele>
        <time>2021-08-14T20:24:22.089Z</time>
      </trkpt>
      <trkpt lat="41.90884" lon="41.77409">
        <ele>-0.04417</ele>
        <time>2021-08-14T20:25:17.641Z</time>
      </trkpt>
      <trkpt lat="41.91084" lon="41.77409">
        <ele>-0.542685</ele>
        <time>2021-08-14T20:26:00.150Z</time>
      </trkpt>
      <trkpt lat="41.91172" lon="41.77407">
        <ele>-0.680263</ele>
        <time>2021-08-14T20:26:18.907Z</time>
      </trkpt>
      <trkpt lat="41.91236" lon="41.77406">
        <ele>-0.770191</ele>
        <time>2021-08-14T20:26:33.299Z</time>
      </trkpt>
      <trkpt lat="41.91331" lon="41.77407">
        <ele>-0.202293</ele>
        <time>2021-08-14T20:26:56.633Z</time>
      </trkpt>
      <trkpt lat="41.91321" lon="41.77385">
        <ele>-0.08652</ele>
        <time>2021-08-14T20:27:01.744Z</time>
      </trkpt>
      <trkpt lat="41.91301" lon="41.77302">
        <ele>0.307225</ele>
        <time>2021-08-14T20:27:19.693Z</time>
      </trkpt>
      <trkpt lat="41.91295" lon="41.77266">
        <ele>0.55182</ele>
        <time>2021-08-14T20:27:27.355Z</time>
      </trkpt>
      <trkpt lat="41.91295" lon="41.77246">
        <ele>0.687563</ele>
        <time>2021-08-14T20:27:31.482Z</time>
      </trkpt>
      <trkpt lat="41.91298" lon="41.7723">
        <ele>0.79797</ele>
        <time>2021-08-14T20:27:35.185Z</time>
      </trkpt>
      <trkpt lat="41.91304" lon="41.7722">
        <ele>0.885938</ele>
        <time>2021-08-14T20:27:37.834Z</time>
      </trkpt>
      <trkpt lat="41.91351" lon="41.77202">
        <ele>1.330191</ele>
        <time>2021-08-14T20:27:51.497Z</time>
      </trkpt>
      <trkpt lat="41.91366" lon="41.77182">
        <ele>1.521362</ele>
        <time>2021-08-14T20:27:57.553Z</time>
      </trkpt>
      <trkpt lat="41.91432" lon="41.77167">
        <ele>2.039056</ele>
        <time>2021-08-14T20:28:15.690Z</time>
      </trkpt>
      <trkpt lat="41.91467" lon="41.77166">
        <ele>2.226969</ele>
        <time>2021-08-14T20:28:24.722Z</time>
      </trkpt>
      <trkpt lat="41.91542" lon="41.77134">
        <ele>2.638954</ele>
        <time>2021-08-14T20:28:44.487Z</time>
      </trkpt>
      <trkpt lat="41.91692" lon="41.7713">
        <ele>3.331146</ele>
        <time>2021-08-14T20:29:22.622Z</time>
      </trkpt>
      <trkpt lat="41.91878" lon="41.77085">
        <ele>4.146717</ele>
        <time>2021-08-14T20:30:10.622Z</time>
      </trkpt>
      <trkpt lat="41.91933" lon="41.77083">
        <ele>4.382983</ele>
        <time>2021-08-14T20:30:24.261Z</time>
      </trkpt>
      <trkpt lat="41.91966" lon="41.77073">
        <ele>4.512801</ele>
        <time>2021-08-14T20:30:32.721Z</time>
      </trkpt>
      <trkpt lat="41.92121" lon="41.77056">
        <ele>5.071196</ele>
        <time>2021-08-14T20:31:11.812Z</time>
      </trkpt>
      <trkpt lat="41.92154" lon="41.77045">
        <ele>5.139269</ele>
        <time>2021-08-14T20:31:20.194Z</time>
      </trkpt>
      <trkpt lat="41.92199" lon="41.77025">
        <ele>5.2308</ele>
        <time>2021-08-14T20:31:31.225Z</time>
      </trkpt>
      <trkpt lat="41.92219" lon="41.77017">
        <ele>5.273296</ele>
        <time>2021-08-14T20:31:36.617Z</time>
      </trkpt>
      <trkpt lat="41.9225" lon="41.77011">
        <ele>5.334203</ele>
        <time>2021-08-14T20:31:44.080Z</time>
      </trkpt>
      <trkpt lat="41.92266" lon="41.77003">
        <ele>5.368223</ele>
        <time>2021-08-14T20:31:48.255Z</time>
      </trkpt>
      <trkpt lat="41.92334" lon="41.77007">
        <ele>5.505644</ele>
        <time>2021-08-14T20:32:04.318Z</time>
      </trkpt>
      <trkpt lat="41.92349" lon="41.77008">
        <ele>5.535928</ele>
        <time>2021-08-14T20:32:07.587Z</time>
      </trkpt>
      <trkpt lat="41.92359" lon="41.77009">
        <ele>5.557078</ele>
        <time>2021-08-14T20:32:10.233Z</time>
      </trkpt>
      <trkpt lat="41.92402" lon="41.7701">
        <ele>5.645142</ele>
        <time>2021-08-14T20:32:20.303Z</time>
      </trkpt>
      <trkpt lat="41.92501" lon="41.76996">
        <ele>5.886257</ele>
        <time>2021-08-14T20:32:45.284Z</time>
      </trkpt>
      <trkpt lat="41.92549" lon="41.76996">
        <ele>6.043401</ele>
        <time>2021-08-14T20:32:57.002Z</time>
      </trkpt>
      <trkpt lat="41.92665" lon="41.76978">
        <ele>6.437614</ele>
        <time>2021-08-14T20:33:25.859Z</time>
      </trkpt>
      <trkpt lat="41.93018" lon="41.76933">
        <ele>7.748328</ele>
        <time>2021-08-14T20:34:54.734Z</time>
      </trkpt>
      <trkpt lat="41.93057" lon="41.76921">
        <ele>7.798778</ele>
        <time>2021-08-14T20:35:04.699Z</time>
      </trkpt>
      <trkpt lat="41.93129" lon="41.76914">
        <ele>7.888094</ele>
        <time>2021-08-14T20:35:21.806Z</time>
      </trkpt>
      <trkpt lat="41.93183" lon="41.76911">
        <ele>7.955008</ele>
        <time>2021-08-14T20:35:34.206Z</time>
      </trkpt>
      <trkpt lat="41.93344" lon="41.76885">
        <ele>7.873516</ele>
        <time>2021-08-14T20:36:11.145Z</time>
      </trkpt>
      <trkpt lat="41.93369" lon="41.76884">
        <ele>7.859346</ele>
        <time>2021-08-14T20:36:16.986Z</time>
      </trkpt>
      <trkpt lat="41.9342" lon="41.76881">
        <ele>7.974194</ele>
        <time>2021-08-14T20:36:29.462Z</time>
      </trkpt>
      <trkpt lat="41.93512" lon="41.76874">
        <ele>8.179903</ele>
        <time>2021-08-14T20:36:51.886Z</time>
      </trkpt>
      <trkpt lat="41.93636" lon="41.7686">
        <ele>8.231088</ele>
        <time>2021-08-14T20:37:22.930Z</time>
      </trkpt>
      <trkpt lat="41.93702" lon="41.76854">
        <ele>8.209104</ele>
        <time>2021-08-14T20:37:38.536Z</time>
      </trkpt>
      <trkpt lat="41.93758" lon="41.76867">
        <ele>7.690318</ele>
        <time>2021-08-14T20:37:50.373Z</time>
      </trkpt>
      <trkpt lat="41.93792" lon="41.76879">
        <ele>7.126202</ele>
        <time>2021-08-14T20:37:57.417Z</time>
      </trkpt>
      <trkpt lat="41.93814" lon="41.76901">
        <ele>6.680281</ele>
        <time>2021-08-14T20:38:03.112Z</time>
      </trkpt>
      <trkpt lat="41.93817" lon="41.76948">
        <ele>6.10691</ele>
        <time>2021-08-14T20:38:09.883Z</time>
      </trkpt>
      <trkpt lat="41.93817" lon="41.76956">
        <ele>6.017599</ele>
        <time>2021-08-14T20:38:10.769Z</time>
      </trkpt>
      <trkpt lat="41.93818" lon="41.76985">
        <ele>5.663882</ele>
        <time>2021-08-14T20:38:15.102Z</time>
      </trkpt>
      <trkpt lat="41.93832" lon="41.77078">
        <ele>4.450522</ele>
        <time>2021-08-14T20:38:28.308Z</time>
      </trkpt>
      <trkpt lat="41.9385" lon="41.77145">
        <ele>3.499245</ele>
        <time>2021-08-14T20:38:38.210Z</time>
      </trkpt>
      <trkpt lat="41.93934" lon="41.77132">
        <ele>2.081969</ele>
        <time>2021-08-14T20:38:54.813Z</time>
      </trkpt>
      <trkpt lat="41.94048" lon="41.77118">
        <ele>2.068694</ele>
        <time>2021-08-14T20:39:19.786Z</time>
      </trkpt>
      <trkpt lat="41.94153" lon="41.77102">
        <ele>2.303938</ele>
        <time>2021-08-14T20:39:46.528Z</time>
      </trkpt>
      <trkpt lat="41.94323" lon="41.77081">
        <ele>2.980219</ele>
        <time>2021-08-14T20:40:29.161Z</time>
      </trkpt>
      <trkpt lat="41.94434" lon="41.7707">
        <ele>2.831386</ele>
        <time>2021-08-14T20:40:53.454Z</time>
      </trkpt>
      <trkpt lat="41.94586" lon="41.7706">
        <ele>1.962622</ele>
        <time>2021-08-14T20:41:24.291Z</time>
      </trkpt>
      <trkpt lat="41.94839" lon="41.77043">
        <ele>0.545278</ele>
        <time>2021-08-14T20:42:16.505Z</time>
      </trkpt>
      <trkpt lat="41.95178" lon="41.7704">
        <ele>0.387763</ele>
        <time>2021-08-14T20:43:31.309Z</time>
      </trkpt>
      <trkpt lat="41.95253" lon="41.77046">
        <ele>0.891158</ele>
        <time>2021-08-14T20:43:50.638Z</time>
      </trkpt>
      <trkpt lat="41.95377" lon="41.77079">
        <ele>1.824083</ele>
        <time>2021-08-14T20:44:24.552Z</time>
      </trkpt>
      <trkpt lat="41.9572" lon="41.77203">
        <ele>4.288029</ele>
        <time>2021-08-14T20:45:55.485Z</time>
      </trkpt>
      <trkpt lat="41.9577" lon="41.77222">
        <ele>4.522432</ele>
        <time>2021-08-14T20:46:08.682Z</time>
      </trkpt>
      <trkpt lat="41.95821" lon="41.77242">
        <ele>4.764403</ele>
        <time>2021-08-14T20:46:21.688Z</time>
      </trkpt>
      <trkpt lat="41.95874" lon="41.7726">
        <ele>5.011406</ele>
        <time>2021-08-14T20:46:34.878Z</time>
      </trkpt>
      <trkpt lat="41.95885" lon="41.77265">
        <ele>5.060701</ele>
        <time>2021-08-14T20:46:37.564Z</time>
      </trkpt>
      <trkpt lat="41.95927" lon="41.77277">
        <ele>5.016233</ele>
        <time>2021-08-14T20:46:47.348Z</time>
      </trkpt>
      <trkpt lat="41.95974" lon="41.77283">
        <ele>4.96797</ele>
        <time>2021-08-14T20:46:57.650Z</time>
      </trkpt>
      <trkpt lat="41.96252" lon="41.77307">
        <ele>4.437693</ele>
        <time>2021-08-14T20:47:57.487Z</time>
      </trkpt>
      <trkpt lat="41.9632" lon="41.7731">
        <ele>4.395312</ele>
        <time>2021-08-14T20:48:12.491Z</time>
      </trkpt>
      <trkpt lat="41.96429" lon="41.77317">
        <ele>4.346324</ele>
        <time>2021-08-14T20:48:36.632Z</time>
      </trkpt>
      <trkpt lat="41.96605" lon="41.77329">
        <ele>4.69052</ele>
        <time>2021-08-14T20:49:17.305Z</time>
      </trkpt>
      <trkpt lat="41.96643" lon="41.77337">
        <ele>4.964429</ele>
        <time>2021-08-14T20:49:26.680Z</time>
      </trkpt>
      <trkpt lat="41.96679" lon="41.77351">
        <ele>5.234445</ele>
        <time>2021-08-14T20:49:36.257Z</time>
      </trkpt>
      <trkpt lat="41.96744" lon="41.77391">
        <ele>5.7395</ele>
        <time>2021-08-14T20:49:54.762Z</time>
      </trkpt>
      <trkpt lat="41.96786" lon="41.77435">
        <ele>6.31968</ele>
        <time>2021-08-14T20:50:09.804Z</time>
      </trkpt>
      <trkpt lat="41.96812" lon="41.77485">
        <ele>7.01254</ele>
        <time>2021-08-14T20:50:23.093Z</time>
      </trkpt>
      <trkpt lat="41.96827" lon="41.77556">
        <ele>7.849918</ele>
        <time>2021-08-14T20:50:39.294Z</time>
      </trkpt>
      <trkpt lat="41.9683" lon="41.77599">
        <ele>8.33944</ele>
        <time>2021-08-14T20:50:49.301Z</time>
      </trkpt>
      <trkpt lat="41.96831" lon="41.77648">
        <ele>9.080239</ele>
        <time>2021-08-14T20:51:01.100Z</time>
      </trkpt>
      <trkpt lat="41.9683" lon="41.777">
        <ele>10.216789</ele>
        <time>2021-08-14T20:51:13.724Z</time>
      </trkpt>
      <trkpt lat="41.9683" lon="41.77761">
        <ele>11.531496</ele>
        <time>2021-08-14T20:51:28.736Z</time>
      </trkpt>
      <trkpt lat="41.96828" lon="41.77835">
        <ele>13.150805</ele>
        <time>2021-08-14T20:51:50.254Z</time>
      </trkpt>
      <trkpt lat="41.96828" lon="41.77944">
        <ele>16.039566</ele>
        <time>2021-08-14T20:52:27.262Z</time>
      </trkpt>
      <trkpt lat="41.96832" lon="41.77978">
        <ele>17.048815</ele>
        <time>2021-08-14T20:52:38.810Z</time>
      </trkpt>
      <trkpt lat="41.9686" lon="41.7807">
        <ele>19.943959</ele>
        <time>2021-08-14T20:53:10.491Z</time>
      </trkpt>
      <trkpt lat="41.96866" lon="41.78088">
        <ele>20.526569</ele>
        <time>2021-08-14T20:53:17.246Z</time>
      </trkpt>
      <trkpt lat="41.969" lon="41.78149">
        <ele>21.456335</ele>
        <time>2021-08-14T20:53:34.821Z</time>
      </trkpt>
      <trkpt lat="41.9692" lon="41.78168">
        <ele>21.693865</ele>
        <time>2021-08-14T20:53:43.106Z</time>
      </trkpt>
      <trkpt lat="41.96977" lon="41.78201">
        <ele>22.296212</ele>
        <time>2021-08-14T20:54:00.231Z</time>
      </trkpt>
      <trkpt lat="41.97002" lon="41.7821">
        <ele>22.552528</ele>
        <time>2021-08-14T20:54:05.220Z</time>
      </trkpt>
      <trkpt lat="41.9703" lon="41.7822">
        <ele>22.752562</ele>
        <time>2021-08-14T20:54:10.830Z</time>
      </trkpt>
      <trkpt lat="41.97084" lon="41.78218">
        <ele>22.50703</ele>
        <time>2021-08-14T20:54:21.633Z</time>
      </trkpt>
      <trkpt lat="41.97669" lon="41.7821">
        <ele>19.963517</ele>
        <time>2021-08-14T20:56:25.262Z</time>
      </trkpt>
      <trkpt lat="41.97781" lon="41.78212">
        <ele>19.103267</ele>
        <time>2021-08-14T20:56:49.805Z</time>
      </trkpt>
      <trkpt lat="41.97889" lon="41.78227">
        <ele>17.309967</ele>
        <time>2021-08-14T20:57:10.350Z</time>
      </trkpt>
      <trkpt lat="41.97949" lon="41.78251">
        <ele>15.778322</ele>
        <time>2021-08-14T20:57:21.049Z</time>
      </trkpt>
      <trkpt lat="41.9802" lon="41.78277">
        <ele>13.240425</ele>
        <time>2021-08-14T20:57:33.266Z</time>
      </trkpt>
      <trkpt lat="41.98141" lon="41.78314">
        <ele>9.801006</ele>
        <time>2021-08-14T20:57:54.110Z</time>
      </trkpt>
      <trkpt lat="41.98165" lon="41.7832">
        <ele>9.398057</ele>
        <time>2021-08-14T20:57:58.441Z</time>
      </trkpt>
      <trkpt lat="41.98267" lon="41.78351">
        <ele>7.629192</ele>
        <time>2021-08-14T20:58:19.419Z</time>
      </trkpt>
      <trkpt lat="41.98289" lon="41.78357">
        <ele>7.597019</ele>
        <time>2021-08-14T20:58:24.381Z</time>
      </trkpt>
      <trkpt lat="41.98419" lon="41.78397">
        <ele>7.878152</ele>
        <time>2021-08-14T20:58:56.809Z</time>
      </trkpt>
      <trkpt lat="41.98502" lon="41.7841">
        <ele>7.995801</ele>
        <time>2021-08-14T20:59:16.278Z</time>
      </trkpt>
      <trkpt lat="41.98532" lon="41.7841">
        <ele>8.027658</ele>
        <time>2021-08-14T20:59:23.117Z</time>
      </trkpt>
      <trkpt lat="41.98585" lon="41.784">
        <ele>8.083911</ele>
        <time>2021-08-14T20:59:34.980Z</time>
      </trkpt>
      <trkpt lat="41.98608" lon="41.78389">
        <ele>8.109446</ele>
        <time>2021-08-14T20:59:40.387Z</time>
      </trkpt>
      <trkpt lat="41.98624" lon="41.7838">
        <ele>8.132393</ele>
        <time>2021-08-14T20:59:44.295Z</time>
      </trkpt>
      <trkpt lat="41.98648" lon="41.78359">
        <ele>8.383106</ele>
        <time>2021-08-14T20:59:50.779Z</time>
      </trkpt>
      <trkpt lat="41.98685" lon="41.7833">
        <ele>8.759762</ele>
        <time>2021-08-14T21:00:00.761Z</time>
      </trkpt>
      <trkpt lat="41.98711" lon="41.78303">
        <ele>9.045665</ele>
        <time>2021-08-14T21:00:08.796Z</time>
      </trkpt>
      <trkpt lat="41.98785" lon="41.78234">
        <ele>10.053377</ele>
        <time>2021-08-14T21:00:36.170Z</time>
      </trkpt>
      <trkpt lat="41.9883" lon="41.78192">
        <ele>11.352766</ele>
        <time>2021-08-14T21:00:54.840Z</time>
      </trkpt>
      <trkpt lat="41.98864" lon="41.78168">
        <ele>12.255563</ele>
        <time>2021-08-14T21:01:08.341Z</time>
      </trkpt>
      <trkpt lat="41.98918" lon="41.78138">
        <ele>13.623836</ele>
        <time>2021-08-14T21:01:28.995Z</time>
      </trkpt>
      <trkpt lat="41.98964" lon="41.78128">
        <ele>14.400669</ele>
        <time>2021-08-14T21:01:45.941Z</time>
      </trkpt>
      <trkpt lat="41.99131" lon="41.78125">
        <ele>16.078374</ele>
        <time>2021-08-14T21:02:33.393Z</time>
      </trkpt>
      <trkpt lat="41.99237" lon="41.7813">
        <ele>14.398935</ele>
        <time>2021-08-14T21:02:52.872Z</time>
      </trkpt>
      <trkpt lat="41.99239" lon="41.78093">
        <ele>13.962185</ele>
        <time>2021-08-14T21:02:57.700Z</time>
      </trkpt>
      <trkpt lat="41.99244" lon="41.78067">
        <ele>13.647421</ele>
        <time>2021-08-14T21:03:01.513Z</time>
      </trkpt>
      <trkpt lat="41.99247" lon="41.78055">
        <ele>13.481989</ele>
        <time>2021-08-14T21:03:03.083Z</time>
      </trkpt>
      <trkpt lat="41.99253" lon="41.7804">
        <ele>13.251845</ele>
        <time>2021-08-14T21:03:05.464Z</time>
      </trkpt>
      <trkpt lat="41.99265" lon="41.78027">
        <ele>12.987462</ele>
        <time>2021-08-14T21:03:08.136Z</time>
      </trkpt>
      <trkpt lat="41.99295" lon="41.78013">
        <ele>12.408108</ele>
        <time>2021-08-14T21:03:13.794Z</time>
      </trkpt>
      <trkpt lat="41.99476" lon="41.77971">
        <ele>9.771842</ele>
        <time>2021-08-14T21:03:48.693Z</time>
      </trkpt>
      <trkpt lat="41.99542" lon="41.77955">
        <ele>9.240721</ele>
        <time>2021-08-14T21:04:02.779Z</time>
      </trkpt>
      <trkpt lat="41.99603" lon="41.77943">
        <ele>8.852844</ele>
        <time>2021-08-14T21:04:15.921Z</time>
      </trkpt>
      <trkpt lat="41.99656" lon="41.77937">
        <ele>8.767107</ele>
        <time>2021-08-14T21:04:27.464Z</time>
      </trkpt>
      <trkpt lat="41.99702" lon="41.77941">
        <ele>8.691871</ele>
        <time>2021-08-14T21:04:37.734Z</time>
      </trkpt>
      <trkpt lat="41.99816" lon="41.77929">
        <ele>8.507214</ele>
        <time>2021-08-14T21:05:03.026Z</time>
      </trkpt>
      <trkpt lat="41.9984" lon="41.77922">
        <ele>8.468324</ele>
        <time>2021-08-14T21:05:08.223Z</time>
      </trkpt>
      <trkpt lat="41.99884" lon="41.77892">
        <ele>8.38759</ele>
        <time>2021-08-14T21:05:19.066Z</time>
      </trkpt>
      <trkpt lat="41.99904" lon="41.77874">
        <ele>8.348808</ele>
        <time>2021-08-14T21:05:24.195Z</time>
      </trkpt>
      <trkpt lat="41.99914" lon="41.77854">
        <ele>8.319516</ele>
        <time>2021-08-14T21:05:28.074Z</time>
      </trkpt>
      <trkpt lat="41.9994" lon="41.77878">
        <ele>8.264698</ele>
        <time>2021-08-14T21:05:35.111Z</time>
      </trkpt>
      <trkpt lat="41.99968" lon="41.77914">
        <ele>8.193231</ele>
        <time>2021-08-14T21:05:43.703Z</time>
      </trkpt>
      <trkpt lat="42.00062" lon="41.77896">
        <ele>8.018543</ele>
        <time>2021-08-14T21:06:05.017Z</time>
      </trkpt>
      <trkpt lat="42.00081" lon="41.77879">
        <ele>7.975152</ele>
        <time>2021-08-14T21:06:10.491Z</time>
      </trkpt>
      <trkpt lat="42.00261" lon="41.77858">
        <ele>8.237616</ele>
        <time>2021-08-14T21:06:53.275Z</time>
      </trkpt>
      <trkpt lat="42.00327" lon="41.77859">
        <ele>8.454037</ele>
        <time>2021-08-14T21:07:09.734Z</time>
      </trkpt>
      <trkpt lat="42.00397" lon="41.77879">
        <ele>8.696456</ele>
        <time>2021-08-14T21:07:27.627Z</time>
      </trkpt>
      <trkpt lat="42.00502" lon="41.77919">
        <ele>8.807594</ele>
        <time>2021-08-14T21:07:54.965Z</time>
      </trkpt>
      <trkpt lat="42.00559" lon="41.77957">
        <ele>8.752218</ele>
        <time>2021-08-14T21:08:09.465Z</time>
      </trkpt>
      <trkpt lat="42.00601" lon="41.77974">
        <ele>8.714549</ele>
        <time>2021-08-14T21:08:19.067Z</time>
      </trkpt>
      <trkpt lat="42.00656" lon="41.77972">
        <ele>8.432368</ele>
        <time>2021-08-14T21:08:31.077Z</time>
      </trkpt>
      <trkpt lat="42.00727" lon="41.77964">
        <ele>7.991761</ele>
        <time>2021-08-14T21:08:46.248Z</time>
      </trkpt>
      <trkpt lat="42.00797" lon="41.77942">
        <ele>7.554542</ele>
        <time>2021-08-14T21:09:01.602Z</time>
      </trkpt>
      <trkpt lat="42.00839" lon="41.77846">
        <ele>7.141738</ele>
        <time>2021-08-14T21:09:19.735Z</time>
      </trkpt>
      <trkpt lat="42.00861" lon="41.77756">
        <ele>6.790685</ele>
        <time>2021-08-14T21:09:35.259Z</time>
      </trkpt>
      <trkpt lat="42.00863" lon="41.77744">
        <ele>6.746901</ele>
        <time>2021-08-14T21:09:37.156Z</time>
      </trkpt>
      <trkpt lat="42.00872" lon="41.7768">
        <ele>6.497151</ele>
        <time>2021-08-14T21:09:47.837Z</time>
      </trkpt>
      <trkpt lat="42.00876" lon="41.7767">
        <ele>6.453534</ele>
        <time>2021-08-14T21:09:49.657Z</time>
      </trkpt>
      <trkpt lat="42.00887" lon="41.77637">
        <ele>6.313633</ele>
        <time>2021-08-14T21:09:55.531Z</time>
      </trkpt>
      <trkpt lat="42.00987" lon="41.77379">
        <ele>5.109591</ele>
        <time>2021-08-14T21:10:42.421Z</time>
      </trkpt>
      <trkpt lat="42.0102" lon="41.77322">
        <ele>4.790577</ele>
        <time>2021-08-14T21:10:54.075Z</time>
      </trkpt>
      <trkpt lat="42.01034" lon="41.77289">
        <ele>4.629567</ele>
        <time>2021-08-14T21:11:00.234Z</time>
      </trkpt>
      <trkpt lat="42.01094" lon="41.77046">
        <ele>3.670796</ele>
        <time>2021-08-14T21:11:41.700Z</time>
      </trkpt>
      <trkpt lat="42.01254" lon="41.77093">
        <ele>3.137288</ele>
        <time>2021-08-14T21:12:17.999Z</time>
      </trkpt>
      <trkpt lat="42.01564" lon="41.76964">
        <ele>2.615271</ele>
        <time>2021-08-14T21:13:31.787Z</time>
      </trkpt>
      <trkpt lat="42.01597" lon="41.76963">
        <ele>2.565421</ele>
        <time>2021-08-14T21:13:39.422Z</time>
      </trkpt>
      <trkpt lat="42.01835" lon="41.76479">
        <ele>1.690746</ele>
        <time>2021-08-14T21:15:13.223Z</time>
      </trkpt>
      <trkpt lat="42.01901" lon="41.76349">
        <ele>1.461835</ele>
        <time>2021-08-14T21:15:38.302Z</time>
      </trkpt>
      <trkpt lat="42.01966" lon="41.76217">
        <ele>1.475298</ele>
        <time>2021-08-14T21:16:04.020Z</time>
      </trkpt>
      <trkpt lat="42.02076" lon="41.76018">
        <ele>1.812445</ele>
        <time>2021-08-14T21:16:48.034Z</time>
      </trkpt>
      <trkpt lat="42.02131" lon="41.75936">
        <ele>1.86112</ele>
        <time>2021-08-14T21:17:07.215Z</time>
      </trkpt>
      <trkpt lat="42.02144" lon="41.75917">
        <ele>1.827143</ele>
        <time>2021-08-14T21:17:11.549Z</time>
      </trkpt>
      <trkpt lat="42.02317" lon="41.75664">
        <ele>1.306995</ele>
        <time>2021-08-14T21:18:05.896Z</time>
      </trkpt>
      <trkpt lat="42.02489" lon="41.75411">
        <ele>1.238824</ele>
        <time>2021-08-14T21:19:02.696Z</time>
      </trkpt>
      <trkpt lat="42.02553" lon="41.75323">
        <ele>1.495259</ele>
        <time>2021-08-14T21:19:24.449Z</time>
      </trkpt>
      <trkpt lat="42.02596" lon="41.75259">
        <ele>1.676263</ele>
        <time>2021-08-14T21:19:40.132Z</time>
      </trkpt>
      <trkpt lat="42.02809" lon="41.7494">
        <ele>2.335293</ele>
        <time>2021-08-14T21:20:54.307Z</time>
      </trkpt>
      <trkpt lat="42.02833" lon="41.74911">
        <ele>2.391221</ele>
        <time>2021-08-14T21:21:01.446Z</time>
      </trkpt>
      <trkpt lat="42.02937" lon="41.74787">
        <ele>2.644845</ele>
        <time>2021-08-14T21:21:33.008Z</time>
      </trkpt>
      <trkpt lat="42.02955" lon="41.74767">
        <ele>2.687232</ele>
        <time>2021-08-14T21:21:38.577Z</time>
      </trkpt>
      <trkpt lat="42.03075" lon="41.74637">
        <ele>3.144833</ele>
        <time>2021-08-14T21:22:16.254Z</time>
      </trkpt>
      <trkpt lat="42.03251" lon="41.74461">
        <ele>3.320232</ele>
        <time>2021-08-14T21:23:05.550Z</time>
      </trkpt>
      <trkpt lat="42.03372" lon="41.74321">
        <ele>3.060502</ele>
        <time>2021-08-14T21:23:40.031Z</time>
      </trkpt>
      <trkpt lat="42.03392" lon="41.74298">
        <ele>3.014101</ele>
        <time>2021-08-14T21:23:45.819Z</time>
      </trkpt>
      <trkpt lat="42.035" lon="41.74188">
        <ele>2.861222</ele>
        <time>2021-08-14T21:24:15.539Z</time>
      </trkpt>
      <trkpt lat="42.03726" lon="41.73969">
        <ele>2.591113</ele>
        <time>2021-08-14T21:25:16.185Z</time>
      </trkpt>
      <trkpt lat="42.0378" lon="41.73908">
        <ele>2.716473</ele>
        <time>2021-08-14T21:25:32.219Z</time>
      </trkpt>
      <trkpt lat="42.0391" lon="41.73755">
        <ele>3.287995</ele>
        <time>2021-08-14T21:26:15.035Z</time>
      </trkpt>
      <trkpt lat="42.03932" lon="41.7373">
        <ele>3.409457</ele>
        <time>2021-08-14T21:26:22.249Z</time>
      </trkpt>
      <trkpt lat="42.03996" lon="41.73657">
        <ele>3.535057</ele>
        <time>2021-08-14T21:26:41.905Z</time>
      </trkpt>
      <trkpt lat="42.04021" lon="41.73637">
        <ele>3.513659</ele>
        <time>2021-08-14T21:26:48.434Z</time>
      </trkpt>
      <trkpt lat="42.04041" lon="41.73623">
        <ele>3.497118</ele>
        <time>2021-08-14T21:26:53.347Z</time>
      </trkpt>
      <trkpt lat="42.04275" lon="41.73499">
        <ele>3.075843</ele>
        <time>2021-08-14T21:27:47.113Z</time>
      </trkpt>
      <trkpt lat="42.04707" lon="41.73262">
        <ele>4.442998</ele>
        <time>2021-08-14T21:29:38.710Z</time>
      </trkpt>
      <trkpt lat="42.04722" lon="41.73254">
        <ele>4.488287</ele>
        <time>2021-08-14T21:29:42.634Z</time>
      </trkpt>
      <trkpt lat="42.04865" lon="41.73178">
        <ele>4.533253</ele>
        <time>2021-08-14T21:30:18.066Z</time>
      </trkpt>
      <trkpt lat="42.05129" lon="41.73036">
        <ele>3.52147</ele>
        <time>2021-08-14T21:31:17.671Z</time>
      </trkpt>
      <trkpt lat="42.05267" lon="41.72962">
        <ele>3.024762</ele>
        <time>2021-08-14T21:31:49.158Z</time>
      </trkpt>
      <trkpt lat="42.05392" lon="41.72895">
        <ele>2.785138</ele>
        <time>2021-08-14T21:32:19.166Z</time>
      </trkpt>
      <trkpt lat="42.05598" lon="41.72777">
        <ele>2.042721</ele>
        <time>2021-08-14T21:33:06.947Z</time>
      </trkpt>
      <trkpt lat="42.05688" lon="41.7273">
        <ele>1.646866</ele>
        <time>2021-08-14T21:33:26.444Z</time>
      </trkpt>
      <trkpt lat="42.05728" lon="41.7271">
        <ele>1.472492</ele>
        <time>2021-08-14T21:33:35.378Z</time>
      </trkpt>
      <trkpt lat="42.05778" lon="41.72682">
        <ele>1.249601</ele>
        <time>2021-08-14T21:33:47.144Z</time>
      </trkpt>
      <trkpt lat="42.05882" lon="41.72625">
        <ele>1.351961</ele>
        <time>2021-08-14T21:34:13.472Z</time>
      </trkpt>
      <trkpt lat="42.0626" lon="41.7243">
        <ele>1.615774</ele>
        <time>2021-08-14T21:35:45.195Z</time>
      </trkpt>
      <trkpt lat="42.06421" lon="41.72347">
        <ele>1.324459</ele>
        <time>2021-08-14T21:36:22.330Z</time>
      </trkpt>
      <trkpt lat="42.06423" lon="41.72345">
        <ele>1.317828</ele>
        <time>2021-08-14T21:36:22.961Z</time>
      </trkpt>
      <trkpt lat="42.06506" lon="41.723">
        <ele>1.102185</ele>
        <time>2021-08-14T21:36:42.110Z</time>
      </trkpt>
      <trkpt lat="42.06544" lon="41.72275">
        <ele>0.989973</ele>
        <time>2021-08-14T21:36:51.240Z</time>
      </trkpt>
      <trkpt lat="42.06666" lon="41.72184">
        <ele>0.70823</ele>
        <time>2021-08-14T21:37:21.162Z</time>
      </trkpt>
      <trkpt lat="42.06685" lon="41.72168">
        <ele>0.684348</ele>
        <time>2021-08-14T21:37:26.148Z</time>
      </trkpt>
      <trkpt lat="42.06714" lon="41.72143">
        <ele>0.649277</ele>
        <time>2021-08-14T21:37:33.566Z</time>
      </trkpt>
      <trkpt lat="42.06756" lon="41.72107">
        <ele>0.597421</ele>
        <time>2021-08-14T21:37:44.702Z</time>
      </trkpt>
      <trkpt lat="42.06889" lon="41.71981">
        <ele>0.499941</ele>
        <time>2021-08-14T21:38:20.953Z</time>
      </trkpt>
      <trkpt lat="42.07161" lon="41.71726">
        <ele>0.242953</ele>
        <time>2021-08-14T21:39:32.127Z</time>
      </trkpt>
      <trkpt lat="42.07386" lon="41.71529">
        <ele>2.311137</ele>
        <time>2021-08-14T21:40:45.479Z</time>
      </trkpt>
      <trkpt lat="42.07477" lon="41.71463">
        <ele>3.034224</ele>
        <time>2021-08-14T21:41:12.920Z</time>
      </trkpt>
      <trkpt lat="42.07663" lon="41.71351">
        <ele>3.51685</ele>
        <time>2021-08-14T21:42:00.586Z</time>
      </trkpt>
      <trkpt lat="42.07892" lon="41.71223">
        <ele>2.475534</ele>
        <time>2021-08-14T21:42:52.068Z</time>
      </trkpt>
      <trkpt lat="42.07931" lon="41.71205">
        <ele>2.382707</ele>
        <time>2021-08-14T21:43:00.738Z</time>
      </trkpt>
      <trkpt lat="42.08022" lon="41.71163">
        <ele>2.16511</ele>
        <time>2021-08-14T21:43:21.809Z</time>
      </trkpt>
      <trkpt lat="42.08038" lon="41.71175">
        <ele>2.157134</ele>
        <time>2021-08-14T21:43:26.227Z</time>
      </trkpt>
      <trkpt lat="42.08065" lon="41.71201">
        <ele>2.155706</ele>
        <time>2021-08-14T21:43:34.256Z</time>
      </trkpt>
      <trkpt lat="42.08086" lon="41.71205">
        <ele>2.154777</ele>
        <time>2021-08-14T21:43:39.485Z</time>
      </trkpt>
      <trkpt lat="42.08114" lon="41.712">
        <ele>2.153595</ele>
        <time>2021-08-14T21:43:46.031Z</time>
      </trkpt>
      <trkpt lat="42.0816" lon="41.71179">
        <ele>2.151536</ele>
        <time>2021-08-14T21:43:57.427Z</time>
      </trkpt>
      <trkpt lat="42.08171" lon="41.71176">
        <ele>2.15105</ele>
        <time>2021-08-14T21:44:00.032Z</time>
      </trkpt>
      <trkpt lat="42.08369" lon="41.71084">
        <ele>1.462019</ele>
        <time>2021-08-14T21:44:46.239Z</time>
      </trkpt>
      <trkpt lat="42.08392" lon="41.7107">
        <ele>1.46313</ele>
        <time>2021-08-14T21:44:51.861Z</time>
      </trkpt>
      <trkpt lat="42.08451" lon="41.71036">
        <ele>1.465876</ele>
        <time>2021-08-14T21:45:06.143Z</time>
      </trkpt>
      <trkpt lat="42.08623" lon="41.70944">
        <ele>1.927364</ele>
        <time>2021-08-14T21:45:52.109Z</time>
      </trkpt>
      <trkpt lat="42.08709" lon="41.70904">
        <ele>2.332048</ele>
        <time>2021-08-14T21:46:16.465Z</time>
      </trkpt>
      <trkpt lat="42.08864" lon="41.70849">
        <ele>2.987042</ele>
        <time>2021-08-14T21:46:56.978Z</time>
      </trkpt>
      <trkpt lat="42.08892" lon="41.70844">
        <ele>3.057653</ele>
        <time>2021-08-14T21:47:03.476Z</time>
      </trkpt>
      <trkpt lat="42.08927" lon="41.70826">
        <ele>3.135384</ele>
        <time>2021-08-14T21:47:11.880Z</time>
      </trkpt>
      <trkpt lat="42.09008" lon="41.70796">
        <ele>3.312074</ele>
        <time>2021-08-14T21:47:31.299Z</time>
      </trkpt>
      <trkpt lat="42.09111" lon="41.70769">
        <ele>3.941109</ele>
        <time>2021-08-14T21:47:59.708Z</time>
      </trkpt>
      <trkpt lat="42.09103" lon="41.7075">
        <ele>4.071907</ele>
        <time>2021-08-14T21:48:04.322Z</time>
      </trkpt>
      <trkpt lat="42.09095" lon="41.70731">
        <ele>4.201812</ele>
        <time>2021-08-14T21:48:09.169Z</time>
      </trkpt>
      <trkpt lat="42.09079" lon="41.70694">
        <ele>4.458949</ele>
        <time>2021-08-14T21:48:17.953Z</time>
      </trkpt>
      <trkpt lat="42.09057" lon="41.70624">
        <ele>4.822988</ele>
        <time>2021-08-14T21:48:33.247Z</time>
      </trkpt>
      <trkpt lat="42.09119" lon="41.70592">
        <ele>4.681992</ele>
        <time>2021-08-14T21:48:49.445Z</time>
      </trkpt>
      <trkpt lat="42.0914" lon="41.70581">
        <ele>4.63285</ele>
        <time>2021-08-14T21:48:54.193Z</time>
      </trkpt>
      <trkpt lat="42.09194" lon="41.70554">
        <ele>4.510635</ele>
        <time>2021-08-14T21:49:05.649Z</time>
      </trkpt>
      <trkpt lat="42.09359" lon="41.70466">
        <ele>4.085616</ele>
        <time>2021-08-14T21:49:42.123Z</time>
      </trkpt>
      <trkpt lat="42.09385" lon="41.70453">
        <ele>4.03613</ele>
        <time>2021-08-14T21:49:49.367Z</time>
      </trkpt>
      <trkpt lat="42.094" lon="41.70446">
        <ele>4.288318</ele>
        <time>2021-08-14T21:49:54.763Z</time>
      </trkpt>
      <trkpt lat="42.0941" lon="41.70441">
        <ele>4.471488</ele>
        <time>2021-08-14T21:49:57.884Z</time>
      </trkpt>
      <trkpt lat="42.09553" lon="41.70374">
        <ele>6.918488</ele>
        <time>2021-08-14T21:50:46.477Z</time>
      </trkpt>
      <trkpt lat="42.09584" lon="41.7036">
        <ele>7.102097</ele>
        <time>2021-08-14T21:50:56.010Z</time>
      </trkpt>
      <trkpt lat="42.09654" lon="41.70336">
        <ele>7.474454</ele>
        <time>2021-08-14T21:51:14.653Z</time>
      </trkpt>
      <trkpt lat="42.0973" lon="41.70307">
        <ele>7.861847</ele>
        <time>2021-08-14T21:51:31.708Z</time>
      </trkpt>
      <trkpt lat="42.09778" lon="41.7029">
        <ele>7.732745</ele>
        <time>2021-08-14T21:51:42.176Z</time>
      </trkpt>
      <trkpt lat="42.09885" lon="41.70246">
        <ele>7.445263</ele>
        <time>2021-08-14T21:52:05.609Z</time>
      </trkpt>
      <trkpt lat="42.09994" lon="41.70203">
        <ele>8.011991</ele>
        <time>2021-08-14T21:52:33.236Z</time>
      </trkpt>
      <trkpt lat="42.1012" lon="41.70152">
        <ele>8.491797</ele>
        <time>2021-08-14T21:53:09.401Z</time>
      </trkpt>
      <trkpt lat="42.10223" lon="41.70107">
        <ele>8.446217</ele>
        <time>2021-08-14T21:53:32.938Z</time>
      </trkpt>
      <trkpt lat="42.10245" lon="41.70098">
        <ele>8.417459</ele>
        <time>2021-08-14T21:53:37.391Z</time>
      </trkpt>
      <trkpt lat="42.10343" lon="41.7006">
        <ele>6.919183</ele>
        <time>2021-08-14T21:53:56.919Z</time>
      </trkpt>
      <trkpt lat="42.10466" lon="41.70011">
        <ele>5.105255</ele>
        <time>2021-08-14T21:54:20.792Z</time>
      </trkpt>
      <trkpt lat="42.1051" lon="41.69993">
        <ele>4.47744</ele>
        <time>2021-08-14T21:54:29.815Z</time>
      </trkpt>
      <trkpt lat="42.10503" lon="41.70124">
        <ele>3.228748</ele>
        <time>2021-08-14T21:54:49.726Z</time>
      </trkpt>
      <trkpt lat="42.10524" lon="41.70121">
        <ele>3.041679</ele>
        <time>2021-08-14T21:54:53.924Z</time>
      </trkpt>
      <trkpt lat="42.10642" lon="41.70057">
        <ele>1.899399</ele>
        <time>2021-08-14T21:55:20.639Z</time>
      </trkpt>
      <trkpt lat="42.10648" lon="41.70059">
        <ele>1.844809</ele>
        <time>2021-08-14T21:55:21.824Z</time>
      </trkpt>
      <trkpt lat="42.10652" lon="41.70068">
        <ele>1.778957</ele>
        <time>2021-08-14T21:55:23.724Z</time>
      </trkpt>
      <trkpt lat="42.1068" lon="41.70163">
        <ele>1.630226</ele>
        <time>2021-08-14T21:55:41.027Z</time>
      </trkpt>
      <trkpt lat="42.10698" lon="41.70222">
        <ele>1.550111</ele>
        <time>2021-08-14T21:55:51.961Z</time>
      </trkpt>
      <trkpt lat="42.10706" lon="41.70217">
        <ele>1.536076</ele>
        <time>2021-08-14T21:55:53.775Z</time>
      </trkpt>
      <trkpt lat="42.108" lon="41.70163">
        <ele>1.474237</ele>
        <time>2021-08-14T21:56:17.330Z</time>
      </trkpt>
      <trkpt lat="42.10814" lon="41.70155">
        <ele>1.481511</ele>
        <time>2021-08-14T21:56:20.758Z</time>
      </trkpt>
      <trkpt lat="42.10829" lon="41.70148">
        <ele>1.488929</ele>
        <time>2021-08-14T21:56:24.717Z</time>
      </trkpt>
      <trkpt lat="42.10862" lon="41.7014">
        <ele>1.504904</ele>
        <time>2021-08-14T21:56:32.557Z</time>
      </trkpt>
      <trkpt lat="42.10904" lon="41.70146">
        <ele>1.52478</ele>
        <time>2021-08-14T21:56:42.570Z</time>
      </trkpt>
      <trkpt lat="42.10953" lon="41.70164">
        <ele>1.657722</ele>
        <time>2021-08-14T21:56:54.643Z</time>
      </trkpt>
      <trkpt lat="42.10957" lon="41.70175">
        <ele>1.693971</ele>
        <time>2021-08-14T21:56:57.157Z</time>
      </trkpt>
      <trkpt lat="42.10982" lon="41.70191">
        <ele>1.809683</ele>
        <time>2021-08-14T21:57:03.816Z</time>
      </trkpt>
      <trkpt lat="42.11018" lon="41.70188">
        <ele>1.962185</ele>
        <time>2021-08-14T21:57:13.140Z</time>
      </trkpt>
      <trkpt lat="42.11152" lon="41.70136">
        <ele>2.451229</ele>
        <time>2021-08-14T21:57:49.112Z</time>
      </trkpt>
      <trkpt lat="42.11217" lon="41.70125">
        <ele>2.626969</ele>
        <time>2021-08-14T21:58:05.018Z</time>
      </trkpt>
      <trkpt lat="42.11293" lon="41.7009">
        <ele>2.718585</ele>
        <time>2021-08-14T21:58:23.894Z</time>
      </trkpt>
      <trkpt lat="42.11396" lon="41.70011">
        <ele>2.495938</ele>
        <time>2021-08-14T21:58:50.759Z</time>
      </trkpt>
      <trkpt lat="42.1153" lon="41.69956">
        <ele>1.972944</ele>
        <time>2021-08-14T21:59:21.610Z</time>
      </trkpt>
      <trkpt lat="42.11569" lon="41.69936">
        <ele>1.793441</ele>
        <time>2021-08-14T21:59:30.629Z</time>
      </trkpt>
      <trkpt lat="42.11629" lon="41.6991">
        <ele>1.592584</ele>
        <time>2021-08-14T21:59:44.485Z</time>
      </trkpt>
      <trkpt lat="42.11642" lon="41.69914">
        <ele>1.567747</ele>
        <time>2021-08-14T21:59:47.301Z</time>
      </trkpt>
      <trkpt lat="42.11646" lon="41.69923">
        <ele>1.552219</ele>
        <time>2021-08-14T21:59:49.058Z</time>
      </trkpt>
      <trkpt lat="42.11652" lon="41.69947">
        <ele>1.515578</ele>
        <time>2021-08-14T21:59:53.114Z</time>
      </trkpt>
      <trkpt lat="42.11904" lon="41.69815">
        <ele>1.3</ele>
        <time>2021-08-14T22:00:55.736Z</time>
      </trkpt>
      <trkpt lat="42.11933" lon="41.69797">
        <ele>1.301855</ele>
        <time>2021-08-14T22:01:03.107Z</time>
      </trkpt>
      <trkpt lat="42.11977" lon="41.69772">
        <ele>1.308394</ele>
        <time>2021-08-14T22:01:14.213Z</time>
      </trkpt>
      <trkpt lat="42.12045" lon="41.69738">
        <ele>1.318344</ele>
        <time>2021-08-14T22:01:30.876Z</time>
      </trkpt>
      <trkpt lat="42.12053" lon="41.69734">
        <ele>1.319485</ele>
        <time>2021-08-14T22:01:32.702Z</time>
      </trkpt>
      <trkpt lat="42.1218" lon="41.69658">
        <ele>1.574174</ele>
        <time>2021-08-14T22:02:06.120Z</time>
      </trkpt>
      <trkpt lat="42.12197" lon="41.69647">
        <ele>1.62205</ele>
        <time>2021-08-14T22:02:10.835Z</time>
      </trkpt>
      <trkpt lat="42.12275" lon="41.69599">
        <ele>1.853457</ele>
        <time>2021-08-14T22:02:32.522Z</time>
      </trkpt>
      <trkpt lat="42.1243" lon="41.695">
        <ele>2.416127</ele>
        <time>2021-08-14T22:03:14.720Z</time>
      </trkpt>
      <trkpt lat="42.12441" lon="41.6949">
        <ele>2.468343</ele>
        <time>2021-08-14T22:03:17.948Z</time>
      </trkpt>
      <trkpt lat="42.12483" lon="41.69459">
        <ele>2.657329</ele>
        <time>2021-08-14T22:03:30.007Z</time>
      </trkpt>
      <trkpt lat="42.12534" lon="41.69415">
        <ele>2.895235</ele>
        <time>2021-08-14T22:03:45.459Z</time>
      </trkpt>
      <trkpt lat="42.12567" lon="41.69387">
        <ele>3.048834</ele>
        <time>2021-08-14T22:03:55.356Z</time>
      </trkpt>
      <trkpt lat="42.12632" lon="41.69333">
        <ele>3.074993</ele>
        <time>2021-08-14T22:04:14.281Z</time>
      </trkpt>
      <trkpt lat="42.12639" lon="41.69327">
        <ele>3.077343</ele>
        <time>2021-08-14T22:04:16.417Z</time>
      </trkpt>
      <trkpt lat="42.12782" lon="41.69211">
        <ele>2.738164</ele>
        <time>2021-08-14T22:04:53.672Z</time>
      </trkpt>
      <trkpt lat="42.1281" lon="41.69188">
        <ele>2.566524</ele>
        <time>2021-08-14T22:05:00.637Z</time>
      </trkpt>
      <trkpt lat="42.12833" lon="41.69169">
        <ele>2.430133</ele>
        <time>2021-08-14T22:05:06.163Z</time>
      </trkpt>
      <trkpt lat="42.12909" lon="41.69108">
        <ele>2.177819</ele>
        <time>2021-08-14T22:05:25.424Z</time>
      </trkpt>
      <trkpt lat="42.12971" lon="41.69061">
        <ele>2.197949</ele>
        <time>2021-08-14T22:05:41.889Z</time>
      </trkpt>
      <trkpt lat="42.13005" lon="41.69017">
        <ele>2.211338</ele>
        <time>2021-08-14T22:05:54.280Z</time>
      </trkpt>
      <trkpt lat="42.13076" lon="41.6907">
        <ele>2.318315</ele>
        <time>2021-08-14T22:06:14.795Z</time>
      </trkpt>
      <trkpt lat="42.13126" lon="41.69063">
        <ele>2.404673</ele>
        <time>2021-08-14T22:06:26.372Z</time>
      </trkpt>
      <trkpt lat="42.13133" lon="41.69062">
        <ele>2.41645</ele>
        <time>2021-08-14T22:06:27.816Z</time>
      </trkpt>
      <trkpt lat="42.13153" lon="41.6906">
        <ele>2.450369</ele>
        <time>2021-08-14T22:06:32.394Z</time>
      </trkpt>
      <trkpt lat="42.13183" lon="41.69056">
        <ele>2.502575</ele>
        <time>2021-08-14T22:06:39.092Z</time>
      </trkpt>
      <trkpt lat="42.13199" lon="41.69053">
        <ele>2.523654</ele>
        <time>2021-08-14T22:06:42.757Z</time>
      </trkpt>
      <trkpt lat="42.13214" lon="41.69054">
        <ele>2.498737</ele>
        <time>2021-08-14T22:06:45.829Z</time>
      </trkpt>
      <trkpt lat="42.13225" lon="41.69052">
        <ele>2.478891</ele>
        <time>2021-08-14T22:06:48.422Z</time>
      </trkpt>
      <trkpt lat="42.13233" lon="41.69049">
        <ele>2.464058</ele>
        <time>2021-08-14T22:06:50.261Z</time>
      </trkpt>
      <trkpt lat="42.13235" lon="41.69051">
        <ele>2.459187</ele>
        <time>2021-08-14T22:06:50.825Z</time>
      </trkpt>
      <trkpt lat="42.13238" lon="41.69052">
        <ele>2.454168</ele>
        <time>2021-08-14T22:06:51.425Z</time>
      </trkpt>
      <trkpt lat="42.13241" lon="41.69051">
        <ele>2.449215</ele>
        <time>2021-08-14T22:06:52.003Z</time>
      </trkpt>
      <trkpt lat="42.13243" lon="41.6905">
        <ele>2.446066</ele>
        <time>2021-08-14T22:06:52.395Z</time>
      </trkpt>
      <trkpt lat="42.13245" lon="41.69047">
        <ele>2.439747</ele>
        <time>2021-08-14T22:06:53.189Z</time>
      </trkpt>
      <trkpt lat="42.13246" lon="41.69044">
        <ele>2.436561</ele>
        <time>2021-08-14T22:06:53.587Z</time>
      </trkpt>
      <trkpt lat="42.13246" lon="41.69044">
        <ele>2.43604</ele>
        <time>2021-08-14T22:06:53.653Z</time>
      </trkpt>
      <trkpt lat="42.13263" lon="41.69043">
        <ele>2.405671</ele>
        <time>2021-08-14T22:06:57.584Z</time>
      </trkpt>
      <trkpt lat="42.13268" lon="41.69042">
        <ele>2.396716</ele>
        <time>2021-08-14T22:06:58.656Z</time>
      </trkpt>
      <trkpt lat="42.13272" lon="41.69039">
        <ele>2.388994</ele>
        <time>2021-08-14T22:06:59.591Z</time>
      </trkpt>
      <trkpt lat="42.13302" lon="41.69035">
        <ele>2.335645</ele>
        <time>2021-08-14T22:07:06.283Z</time>
      </trkpt>
      <trkpt lat="42.13316" lon="41.69029">
        <ele>2.310633</ele>
        <time>2021-08-14T22:07:09.488Z</time>
      </trkpt>
      <trkpt lat="42.13412" lon="41.68956">
        <ele>2.199305</ele>
        <time>2021-08-14T22:07:34.966Z</time>
      </trkpt>
      <trkpt lat="42.13466" lon="41.69017">
        <ele>2.182464</ele>
        <time>2021-08-14T22:07:51.684Z</time>
      </trkpt>
      <trkpt lat="42.13548" lon="41.68931">
        <ele>2.002604</ele>
        <time>2021-08-14T22:08:15.273Z</time>
      </trkpt>
      <trkpt lat="42.1363" lon="41.68835">
        <ele>1.624851</ele>
        <time>2021-08-14T22:08:39.334Z</time>
      </trkpt>
      <trkpt lat="42.13685" lon="41.68731">
        <ele>1.356675</ele>
        <time>2021-08-14T22:09:00.409Z</time>
      </trkpt>
      <trkpt lat="42.13711" lon="41.6868">
        <ele>1.236366</ele>
        <time>2021-08-14T22:09:10.621Z</time>
      </trkpt>
      <trkpt lat="42.13735" lon="41.6862">
        <ele>1.10101</ele>
        <time>2021-08-14T22:09:22.116Z</time>
      </trkpt>
      <trkpt lat="42.13739" lon="41.6862">
        <ele>1.09059</ele>
        <time>2021-08-14T22:09:22.960Z</time>
      </trkpt>
      <trkpt lat="42.13754" lon="41.68589">
        <ele>1.050186</ele>
        <time>2021-08-14T22:09:29.148Z</time>
      </trkpt>
      <trkpt lat="42.13855" lon="41.68414">
        <ele>0.893777</ele>
        <time>2021-08-14T22:10:06.736Z</time>
      </trkpt>
      <trkpt lat="42.13926" lon="41.68289">
        <ele>1.169445</ele>
        <time>2021-08-14T22:10:35.159Z</time>
      </trkpt>
      <trkpt lat="42.13955" lon="41.68315">
        <ele>1.251371</ele>
        <time>2021-08-14T22:10:43.502Z</time>
      </trkpt>
      <trkpt lat="42.1397" lon="41.68329">
        <ele>1.293363</ele>
        <time>2021-08-14T22:10:47.867Z</time>
      </trkpt>
      <trkpt lat="42.13991" lon="41.68344">
        <ele>1.357499</ele>
        <time>2021-08-14T22:10:53.538Z</time>
      </trkpt>
      <trkpt lat="42.14007" lon="41.68351">
        <ele>1.406291</ele>
        <time>2021-08-14T22:10:57.726Z</time>
      </trkpt>
      <trkpt lat="42.14021" lon="41.68356">
        <ele>1.446602</ele>
        <time>2021-08-14T22:11:01.113Z</time>
      </trkpt>
      <trkpt lat="42.14105" lon="41.68379">
        <ele>1.688113</ele>
        <time>2021-08-14T22:11:21.385Z</time>
      </trkpt>
      <trkpt lat="42.14299" lon="41.68317">
        <ele>2.121181</ele>
        <time>2021-08-14T22:12:07.935Z</time>
      </trkpt>
      <trkpt lat="42.14411" lon="41.68276">
        <ele>2.181931</ele>
        <time>2021-08-14T22:12:34.071Z</time>
      </trkpt>
      <trkpt lat="42.1456" lon="41.68224">
        <ele>2.065972</ele>
        <time>2021-08-14T22:13:08.206Z</time>
      </trkpt>
      <trkpt lat="42.14629" lon="41.6813">
        <ele>1.87648</ele>
        <time>2021-08-14T22:13:28.753Z</time>
      </trkpt>
      <trkpt lat="42.14673" lon="41.68065">
        <ele>1.999593</ele>
        <time>2021-08-14T22:13:43.199Z</time>
      </trkpt>
      <trkpt lat="42.14712" lon="41.68064">
        <ele>2.123881</ele>
        <time>2021-08-14T22:13:52.517Z</time>
      </trkpt>
      <trkpt lat="42.1473" lon="41.68064">
        <ele>2.181243</ele>
        <time>2021-08-14T22:13:56.851Z</time>
      </trkpt>
      <trkpt lat="42.14736" lon="41.68068">
        <ele>2.202856</ele>
        <time>2021-08-14T22:13:58.451Z</time>
      </trkpt>
      <trkpt lat="42.1475" lon="41.68068">
        <ele>2.245554</ele>
        <time>2021-08-14T22:14:01.767Z</time>
      </trkpt>
      <trkpt lat="42.14756" lon="41.68063">
        <ele>2.267271</ele>
        <time>2021-08-14T22:14:03.411Z</time>
      </trkpt>
      <trkpt lat="42.14761" lon="41.68057">
        <ele>2.290514</ele>
        <time>2021-08-14T22:14:05.185Z</time>
      </trkpt>
      <trkpt lat="42.14764" lon="41.68048">
        <ele>2.314023</ele>
        <time>2021-08-14T22:14:06.925Z</time>
      </trkpt>
      <trkpt lat="42.14801" lon="41.68003">
        <ele>2.552716</ele>
        <time>2021-08-14T22:14:19.836Z</time>
      </trkpt>
      <trkpt lat="42.14811" lon="41.67995">
        <ele>2.643374</ele>
        <time>2021-08-14T22:14:23.058Z</time>
      </trkpt>
      <trkpt lat="42.14933" lon="41.67903">
        <ele>3.749046</ele>
        <time>2021-08-14T22:15:01.323Z</time>
      </trkpt>
      <trkpt lat="42.14946" lon="41.67917">
        <ele>3.824968</ele>
        <time>2021-08-14T22:15:05.408Z</time>
      </trkpt>
      <trkpt lat="42.14954" lon="41.67932">
        <ele>3.771924</ele>
        <time>2021-08-14T22:15:08.700Z</time>
      </trkpt>
      <trkpt lat="42.14995" lon="41.68011">
        <ele>3.507804</ele>
        <time>2021-08-14T22:15:24.696Z</time>
      </trkpt>
      <trkpt lat="42.1503" lon="41.68069">
        <ele>3.301529</ele>
        <time>2021-08-14T22:15:36.585Z</time>
      </trkpt>
      <trkpt lat="42.15041" lon="41.68087">
        <ele>3.238519</ele>
        <time>2021-08-14T22:15:40.045Z</time>
      </trkpt>
      <trkpt lat="42.15212" lon="41.68302">
        <ele>1.624976</ele>
        <time>2021-08-14T22:16:29.570Z</time>
      </trkpt>
      <trkpt lat="42.15271" lon="41.68386">
        <ele>1.344196</ele>
        <time>2021-08-14T22:16:48.944Z</time>
      </trkpt>
      <trkpt lat="42.15302" lon="41.68442">
        <ele>1.17569</ele>
        <time>2021-08-14T22:17:00.784Z</time>
      </trkpt>
      <trkpt lat="42.15403" lon="41.68549">
        <ele>1.290523</ele>
        <time>2021-08-14T22:17:30.784Z</time>
      </trkpt>
      <trkpt lat="42.1545" lon="41.68579">
        <ele>1.34606</ele>
        <time>2021-08-14T22:17:43.209Z</time>
      </trkpt>
      <trkpt lat="42.15479" lon="41.68588">
        <ele>1.463361</ele>
        <time>2021-08-14T22:17:50.806Z</time>
      </trkpt>
      <trkpt lat="42.15533" lon="41.68595">
        <ele>1.706287</ele>
        <time>2021-08-14T22:18:05.049Z</time>
      </trkpt>
      <trkpt lat="42.15594" lon="41.686">
        <ele>1.981401</ele>
        <time>2021-08-14T22:18:20.497Z</time>
      </trkpt>
      <trkpt lat="42.156" lon="41.68603">
        <ele>2.009325</ele>
        <time>2021-08-14T22:18:22.202Z</time>
      </trkpt>
      <trkpt lat="42.15612" lon="41.68614">
        <ele>2.07507</ele>
        <time>2021-08-14T22:18:25.700Z</time>
      </trkpt>
      <trkpt lat="42.15616" lon="41.68621">
        <ele>2.105853</ele>
        <time>2021-08-14T22:18:27.481Z</time>
      </trkpt>
      <trkpt lat="42.15629" lon="41.68651">
        <ele>2.211358</ele>
        <time>2021-08-14T22:18:33.770Z</time>
      </trkpt>
      <trkpt lat="42.15632" lon="41.68656">
        <ele>2.227961</ele>
        <time>2021-08-14T22:18:34.792Z</time>
      </trkpt>
      <trkpt lat="42.15681" lon="41.68768">
        <ele>2.588933</ele>
        <time>2021-08-14T22:18:59.924Z</time>
      </trkpt>
      <trkpt lat="42.157" lon="41.68815">
        <ele>2.737815</ele>
        <time>2021-08-14T22:19:09.898Z</time>
      </trkpt>
      <trkpt lat="42.15709" lon="41.68833">
        <ele>2.797087</ele>
        <time>2021-08-14T22:19:13.462Z</time>
      </trkpt>
      <trkpt lat="42.15719" lon="41.68843">
        <ele>2.829405</ele>
        <time>2021-08-14T22:19:16.593Z</time>
      </trkpt>
      <trkpt lat="42.15747" lon="41.68865">
        <ele>2.78488</ele>
        <time>2021-08-14T22:19:24.068Z</time>
      </trkpt>
      <trkpt lat="42.15778" lon="41.68886">
        <ele>2.737215</ele>
        <time>2021-08-14T22:19:32.171Z</time>
      </trkpt>
      <trkpt lat="42.15787" lon="41.68891">
        <ele>2.724834</ele>
        <time>2021-08-14T22:19:34.537Z</time>
      </trkpt>
      <trkpt lat="42.1579" lon="41.68893">
        <ele>2.719367</ele>
        <time>2021-08-14T22:19:35.394Z</time>
      </trkpt>
      <trkpt lat="42.15921" lon="41.68964">
        <ele>2.255576</ele>
        <time>2021-08-14T22:20:06.928Z</time>
      </trkpt>
      <trkpt lat="42.16001" lon="41.69002">
        <ele>1.62085</ele>
        <time>2021-08-14T22:20:24.530Z</time>
      </trkpt>
      <trkpt lat="42.1604" lon="41.69021">
        <ele>1.307389</ele>
        <time>2021-08-14T22:20:33.277Z</time>
      </trkpt>
      <trkpt lat="42.1606" lon="41.69031">
        <ele>1.169305</ele>
        <time>2021-08-14T22:20:37.675Z</time>
      </trkpt>
      <trkpt lat="42.16092" lon="41.69046">
        <ele>0.970174</ele>
        <time>2021-08-14T22:20:44.877Z</time>
      </trkpt>
      <trkpt lat="42.16106" lon="41.69053">
        <ele>0.883413</ele>
        <time>2021-08-14T22:20:48.077Z</time>
      </trkpt>
      <trkpt lat="42.16153" lon="41.69076">
        <ele>0.593638</ele>
        <time>2021-08-14T22:20:58.751Z</time>
      </trkpt>
      <trkpt lat="42.16202" lon="41.69101">
        <ele>0.286581</ele>
        <time>2021-08-14T22:21:10.323Z</time>
      </trkpt>
      <trkpt lat="42.16286" lon="41.69142">
        <ele>0.053666</ele>
        <time>2021-08-14T22:21:30.693Z</time>
      </trkpt>
      <trkpt lat="42.16498" lon="41.69227">
        <ele>-0.397228</ele>
        <time>2021-08-14T22:22:20.836Z</time>
      </trkpt>
      <trkpt lat="42.16551" lon="41.69249">
        <ele>-0.51958</ele>
        <time>2021-08-14T22:22:33.090Z</time>
      </trkpt>
      <trkpt lat="42.16605" lon="41.69271">
        <ele>-0.71803</ele>
        <time>2021-08-14T22:22:45.640Z</time>
      </trkpt>
      <trkpt lat="42.16696" lon="41.69308">
        <ele>-1.077461</ele>
        <time>2021-08-14T22:23:06.518Z</time>
      </trkpt>
      <trkpt lat="42.16726" lon="41.6932">
        <ele>-1.196289</ele>
        <time>2021-08-14T22:23:13.377Z</time>
      </trkpt>
      <trkpt lat="42.1673" lon="41.69322">
        <ele>-1.215354</ele>
        <time>2021-08-14T22:23:14.509Z</time>
      </trkpt>
      <trkpt lat="42.16742" lon="41.69327">
        <ele>-1.249515</ele>
        <time>2021-08-14T22:23:17.273Z</time>
      </trkpt>
      <trkpt lat="42.16935" lon="41.69401">
        <ele>-1.634684</ele>
        <time>2021-08-14T22:24:02.154Z</time>
      </trkpt>
      <trkpt lat="42.17657" lon="41.69677">
        <ele>-0.4753</ele>
        <time>2021-08-14T22:27:03.041Z</time>
      </trkpt>
      <trkpt lat="42.18091" lon="41.69867">
        <ele>-0.113564</ele>
        <time>2021-08-14T22:28:49.701Z</time>
      </trkpt>
      <trkpt lat="42.18309" lon="41.70015">
        <ele>0.886106</ele>
        <time>2021-08-14T22:29:50.323Z</time>
      </trkpt>
      <trkpt lat="42.18474" lon="41.70145">
        <ele>2.36071</ele>
        <time>2021-08-14T22:30:44.634Z</time>
      </trkpt>
      <trkpt lat="42.18487" lon="41.7015">
        <ele>2.424072</ele>
        <time>2021-08-14T22:30:48.214Z</time>
      </trkpt>
      <trkpt lat="42.18506" lon="41.70151">
        <ele>2.516041</ele>
        <time>2021-08-14T22:30:53.717Z</time>
      </trkpt>
      <trkpt lat="42.1851" lon="41.70181">
        <ele>2.624981</ele>
        <time>2021-08-14T22:30:59.307Z</time>
      </trkpt>
      <trkpt lat="42.1854" lon="41.70284">
        <ele>2.883615</ele>
        <time>2021-08-14T22:31:17.807Z</time>
      </trkpt>
      <trkpt lat="42.18565" lon="41.70372">
        <ele>2.324375</ele>
        <time>2021-08-14T22:31:32.071Z</time>
      </trkpt>
      <trkpt lat="42.18571" lon="41.70399">
        <ele>2.151493</ele>
        <time>2021-08-14T22:31:36.299Z</time>
      </trkpt>
      <trkpt lat="42.18581" lon="41.70461">
        <ele>1.777013</ele>
        <time>2021-08-14T22:31:45.537Z</time>
      </trkpt>
      <trkpt lat="42.18589" lon="41.70508">
        <ele>1.511548</ele>
        <time>2021-08-14T22:31:52.546Z</time>
      </trkpt>
      <trkpt lat="42.18596" lon="41.70548">
        <ele>1.440474</ele>
        <time>2021-08-14T22:31:58.454Z</time>
      </trkpt>
      <trkpt lat="42.186" lon="41.70561">
        <ele>1.417466</ele>
        <time>2021-08-14T22:32:00.439Z</time>
      </trkpt>
      <trkpt lat="42.18605" lon="41.70572">
        <ele>1.393115</ele>
        <time>2021-08-14T22:32:02.508Z</time>
      </trkpt>
      <trkpt lat="42.18611" lon="41.70579">
        <ele>1.375494</ele>
        <time>2021-08-14T22:32:03.981Z</time>
      </trkpt>
      <trkpt lat="42.18743" lon="41.70728">
        <ele>1.544691</ele>
        <time>2021-08-14T22:32:44.190Z</time>
      </trkpt>
      <trkpt lat="42.18802" lon="41.70776">
        <ele>2.104301</ele>
        <time>2021-08-14T22:33:03.207Z</time>
      </trkpt>
      <trkpt lat="42.18815" lon="41.70781">
        <ele>2.21351</ele>
        <time>2021-08-14T22:33:07.134Z</time>
      </trkpt>
      <trkpt lat="42.18819" lon="41.70783">
        <ele>2.247603</ele>
        <time>2021-08-14T22:33:08.277Z</time>
      </trkpt>
      <trkpt lat="42.18837" lon="41.70786">
        <ele>2.396525</ele>
        <time>2021-08-14T22:33:13.408Z</time>
      </trkpt>
      <trkpt lat="42.18917" lon="41.70785">
        <ele>2.842241</ele>
        <time>2021-08-14T22:33:35.908Z</time>
      </trkpt>
      <trkpt lat="42.18929" lon="41.70785">
        <ele>2.900216</ele>
        <time>2021-08-14T22:33:39.231Z</time>
      </trkpt>
      <trkpt lat="42.18937" lon="41.70785">
        <ele>2.936508</ele>
        <time>2021-08-14T22:33:41.105Z</time>
      </trkpt>
      <trkpt lat="42.1899" lon="41.70784">
        <ele>3.188195</ele>
        <time>2021-08-14T22:33:53.877Z</time>
      </trkpt>
      <trkpt lat="42.19003" lon="41.70784">
        <ele>3.251353</ele>
        <time>2021-08-14T22:33:56.816Z</time>
      </trkpt>
      <trkpt lat="42.1901" lon="41.70784">
        <ele>3.284817</ele>
        <time>2021-08-14T22:33:58.311Z</time>
      </trkpt>
      <trkpt lat="42.1902" lon="41.70783">
        <ele>3.328178</ele>
        <time>2021-08-14T22:34:00.266Z</time>
      </trkpt>
      <trkpt lat="42.19034" lon="41.70783">
        <ele>3.394655</ele>
        <time>2021-08-14T22:34:03.362Z</time>
      </trkpt>
      <trkpt lat="42.19057" lon="41.70782">
        <ele>3.308337</ele>
        <time>2021-08-14T22:34:08.229Z</time>
      </trkpt>
      <trkpt lat="42.19173" lon="41.70776">
        <ele>2.720554</ele>
        <time>2021-08-14T22:34:32.325Z</time>
      </trkpt>
      <trkpt lat="42.19237" lon="41.70776">
        <ele>2.414717</ele>
        <time>2021-08-14T22:34:45.234Z</time>
      </trkpt>
      <trkpt lat="42.19463" lon="41.70772">
        <ele>1.541881</ele>
        <time>2021-08-14T22:35:33.280Z</time>
      </trkpt>
      <trkpt lat="42.19519" lon="41.70798">
        <ele>1.370477</ele>
        <time>2021-08-14T22:35:45.873Z</time>
      </trkpt>
      <trkpt lat="42.19557" lon="41.7083">
        <ele>1.238366</ele>
        <time>2021-08-14T22:35:55.787Z</time>
      </trkpt>
      <trkpt lat="42.1958" lon="41.70857">
        <ele>1.188524</ele>
        <time>2021-08-14T22:36:02.434Z</time>
      </trkpt>
      <trkpt lat="42.19595" lon="41.70875">
        <ele>1.166713</ele>
        <time>2021-08-14T22:36:06.750Z</time>
      </trkpt>
      <trkpt lat="42.19573" lon="41.70916">
        <ele>1.126142</ele>
        <time>2021-08-14T22:36:15.364Z</time>
      </trkpt>
      <trkpt lat="42.19585" lon="41.70937">
        <ele>1.104004</ele>
        <time>2021-08-14T22:36:20.182Z</time>
      </trkpt>
      <trkpt lat="42.20042" lon="41.72098">
        <ele>0.085252</ele>
        <time>2021-08-14T22:40:03.291Z</time>
      </trkpt>
      <trkpt lat="42.20067" lon="41.72151">
        <ele>0.037753</ele>
        <time>2021-08-14T22:40:13.889Z</time>
      </trkpt>
      <trkpt lat="42.20092" lon="41.72133">
        <ele>0.008397</ele>
        <time>2021-08-14T22:40:20.485Z</time>
      </trkpt>
      <trkpt lat="42.20096" lon="41.72145">
        <ele>-0.001239</ele>
        <time>2021-08-14T22:40:22.591Z</time>
      </trkpt>
      <trkpt lat="42.20108" lon="41.72179">
        <ele>-0.029562</ele>
        <time>2021-08-14T22:40:28.734Z</time>
      </trkpt>
      <trkpt lat="42.21285" lon="41.75352">
        <ele>-0.36165</ele>
        <time>2021-08-14T22:50:13.729Z</time>
      </trkpt>
      <trkpt lat="42.21317" lon="41.75453">
        <ele>-0.482242</ele>
        <time>2021-08-14T22:50:31.364Z</time>
      </trkpt>
      <trkpt lat="42.21298" lon="41.75479">
        <ele>-0.522564</ele>
        <time>2021-08-14T22:50:37.454Z</time>
      </trkpt>
      <trkpt lat="42.2135" lon="41.75699">
        <ele>-0.77951</ele>
        <time>2021-08-14T22:51:16.216Z</time>
      </trkpt>
      <trkpt lat="42.21652" lon="41.77025">
        <ele>0.204812</ele>
        <time>2021-08-14T22:55:19.072Z</time>
      </trkpt>
      <trkpt lat="42.2179" lon="41.77634">
        <ele>1.819032</ele>
        <time>2021-08-14T22:57:17.980Z</time>
      </trkpt>
      <trkpt lat="42.21911" lon="41.78151">
        <ele>2.327692</ele>
        <time>2021-08-14T22:58:54.145Z</time>
      </trkpt>
      <trkpt lat="42.21968" lon="41.78412">
        <ele>2.390566</ele>
        <time>2021-08-14T22:59:40.423Z</time>
      </trkpt>
      <trkpt lat="42.22028" lon="41.78664">
        <ele>2.554217</ele>
        <time>2021-08-14T23:00:27.639Z</time>
      </trkpt>
      <trkpt lat="42.22084" lon="41.78918">
        <ele>2.700688</ele>
        <time>2021-08-14T23:01:13.775Z</time>
      </trkpt>
      <trkpt lat="42.22126" lon="41.79169">
        <ele>2.972239</ele>
        <time>2021-08-14T23:01:58.442Z</time>
      </trkpt>
      <trkpt lat="42.22172" lon="41.79416">
        <ele>3.679451</ele>
        <time>2021-08-14T23:02:46.750Z</time>
      </trkpt>
      <trkpt lat="42.22177" lon="41.79462">
        <ele>3.833424</ele>
        <time>2021-08-14T23:02:55.484Z</time>
      </trkpt>
      <trkpt lat="42.22183" lon="41.79435">
        <ele>3.905816</ele>
        <time>2021-08-14T23:03:00.766Z</time>
      </trkpt>
      <trkpt lat="42.22187" lon="41.79412">
        <ele>3.940382</ele>
        <time>2021-08-14T23:03:05.116Z</time>
      </trkpt>
      <trkpt lat="42.22199" lon="41.79484">
        <ele>4.049877</ele>
        <time>2021-08-14T23:03:18.183Z</time>
      </trkpt>
      <trkpt lat="42.22269" lon="41.79751">
        <ele>4.175302</ele>
        <time>2021-08-14T23:04:05.588Z</time>
      </trkpt>
      <trkpt lat="42.22287" lon="41.79809">
        <ele>4.145357</ele>
        <time>2021-08-14T23:04:15.624Z</time>
      </trkpt>
      <trkpt lat="42.22315" lon="41.79904">
        <ele>4.01281</ele>
        <time>2021-08-14T23:04:31.992Z</time>
      </trkpt>
      <trkpt lat="42.22349" lon="41.80046">
        <ele>3.768849</ele>
        <time>2021-08-14T23:04:55.682Z</time>
      </trkpt>
      <trkpt lat="42.22457" lon="41.80544">
        <ele>3.511396</ele>
        <time>2021-08-14T23:06:21.251Z</time>
      </trkpt>
      <trkpt lat="42.225" lon="41.8075">
        <ele>3.031373</ele>
        <time>2021-08-14T23:06:54.779Z</time>
      </trkpt>
      <trkpt lat="42.22572" lon="41.81075">
        <ele>2.500882</ele>
        <time>2021-08-14T23:07:49.141Z</time>
      </trkpt>
      <trkpt lat="42.22585" lon="41.81146">
        <ele>2.459152</ele>
        <time>2021-08-14T23:08:01.060Z</time>
      </trkpt>
      <trkpt lat="42.22859" lon="41.82486">
        <ele>2.478491</ele>
        <time>2021-08-14T23:11:51.108Z</time>
      </trkpt>
      <trkpt lat="42.22885" lon="41.82616">
        <ele>2.454371</ele>
        <time>2021-08-14T23:12:13.805Z</time>
      </trkpt>
      <trkpt lat="42.22905" lon="41.82714">
        <ele>2.291098</ele>
        <time>2021-08-14T23:12:30.043Z</time>
      </trkpt>
      <trkpt lat="42.22953" lon="41.82955">
        <ele>2.120824</ele>
        <time>2021-08-14T23:13:09.349Z</time>
      </trkpt>
      <trkpt lat="42.23091" lon="41.83655">
        <ele>3.596096</ele>
        <time>2021-08-14T23:15:20.150Z</time>
      </trkpt>
      <trkpt lat="42.23301" lon="41.84724">
        <ele>2.899688</ele>
        <time>2021-08-14T23:18:19.579Z</time>
      </trkpt>
      <trkpt lat="42.23306" lon="41.84748">
        <ele>2.877377</ele>
        <time>2021-08-14T23:18:23.587Z</time>
      </trkpt>
      <trkpt lat="42.23316" lon="41.84797">
        <ele>2.923134</ele>
        <time>2021-08-14T23:18:32.031Z</time>
      </trkpt>
      <trkpt lat="42.23434" lon="41.85391">
        <ele>3.338819</ele>
        <time>2021-08-14T23:20:17.264Z</time>
      </trkpt>
      <trkpt lat="42.23523" lon="41.85898">
        <ele>1.880773</ele>
        <time>2021-08-14T23:21:38.379Z</time>
      </trkpt>
      <trkpt lat="42.23671" lon="41.86753">
        <ele>2.435852</ele>
        <time>2021-08-14T23:24:06.220Z</time>
      </trkpt>
      <trkpt lat="42.23741" lon="41.87188">
        <ele>3.470353</ele>
        <time>2021-08-14T23:25:25.959Z</time>
      </trkpt>
      <trkpt lat="42.23976" lon="41.88763">
        <ele>5.609537</ele>
        <time>2021-08-14T23:30:01.486Z</time>
      </trkpt>
      <trkpt lat="42.23928" lon="41.88739">
        <ele>5.718603</ele>
        <time>2021-08-14T23:30:13.797Z</time>
      </trkpt>
      <trkpt lat="42.23924" lon="41.88749">
        <ele>5.737525</ele>
        <time>2021-08-14T23:30:16.353Z</time>
      </trkpt>
      <trkpt lat="42.23922" lon="41.88759">
        <ele>5.754092</ele>
        <time>2021-08-14T23:30:18.582Z</time>
      </trkpt>
      <trkpt lat="42.23937" lon="41.88767">
        <ele>5.790033</ele>
        <time>2021-08-14T23:30:22.456Z</time>
      </trkpt>
      <trkpt lat="42.24173" lon="41.90324">
        <ele>8.322679</ele>
        <time>2021-08-14T23:35:08.887Z</time>
      </trkpt>
      <trkpt lat="42.24384" lon="41.91785">
        <ele>7.672781</ele>
        <time>2021-08-14T23:39:22.481Z</time>
      </trkpt>
      <trkpt lat="42.24386" lon="41.9182">
        <ele>7.731128</ele>
        <time>2021-08-14T23:39:28.812Z</time>
      </trkpt>
      <trkpt lat="42.24405" lon="41.91829">
        <ele>7.773642</ele>
        <time>2021-08-14T23:39:33.533Z</time>
      </trkpt>
      <trkpt lat="42.24428" lon="41.91837">
        <ele>7.827063</ele>
        <time>2021-08-14T23:39:39.435Z</time>
      </trkpt>
      <trkpt lat="42.24667" lon="41.93475">
        <ele>10.498918</ele>
        <time>2021-08-14T23:44:29.250Z</time>
      </trkpt>
      <trkpt lat="42.24779" lon="41.94253">
        <ele>11.069508</ele>
        <time>2021-08-14T23:46:41.537Z</time>
      </trkpt>
      <trkpt lat="42.2479" lon="41.94368">
        <ele>11.307544</ele>
        <time>2021-08-14T23:47:02.315Z</time>
      </trkpt>
      <trkpt lat="42.24792" lon="41.94386">
        <ele>11.396608</ele>
        <time>2021-08-14T23:47:05.660Z</time>
      </trkpt>
      <trkpt lat="42.2483" lon="41.94676">
        <ele>12.805448</ele>
        <time>2021-08-14T23:48:02.305Z</time>
      </trkpt>
      <trkpt lat="42.24872" lon="41.9496">
        <ele>13.487687</ele>
        <time>2021-08-14T23:48:55.523Z</time>
      </trkpt>
      <trkpt lat="42.24879" lon="41.95015">
        <ele>13.484797</ele>
        <time>2021-08-14T23:49:04.306Z</time>
      </trkpt>
      <trkpt lat="42.24912" lon="41.95247">
        <ele>12.57649</ele>
        <time>2021-08-14T23:49:39.878Z</time>
      </trkpt>
      <trkpt lat="42.24928" lon="41.95341">
        <ele>12.204391</ele>
        <time>2021-08-14T23:49:54.735Z</time>
      </trkpt>
      <trkpt lat="42.24949" lon="41.95429">
        <ele>12.030626</ele>
        <time>2021-08-14T23:50:09.502Z</time>
      </trkpt>
      <trkpt lat="42.24967" lon="41.95524">
        <ele>11.849323</ele>
        <time>2021-08-14T23:50:25.408Z</time>
      </trkpt>
      <trkpt lat="42.25034" lon="41.95997">
        <ele>11.975169</ele>
        <time>2021-08-14T23:51:45.931Z</time>
      </trkpt>
      <trkpt lat="42.25213" lon="41.97255">
        <ele>11.653276</ele>
        <time>2021-08-14T23:55:16.574Z</time>
      </trkpt>
      <trkpt lat="42.25258" lon="41.97573">
        <ele>11.429685</ele>
        <time>2021-08-14T23:56:08.766Z</time>
      </trkpt>
      <trkpt lat="42.25402" lon="41.9867">
        <ele>12.312208</ele>
        <time>2021-08-14T23:59:17.596Z</time>
      </trkpt>
      <trkpt lat="42.25488" lon="41.99246">
        <ele>12.962119</ele>
        <time>2021-08-15T00:00:57.735Z</time>
      </trkpt>
      <trkpt lat="42.25526" lon="41.99429">
        <ele>13.155895</ele>
        <time>2021-08-15T00:01:29.754Z</time>
      </trkpt>
      <trkpt lat="42.25599" lon="41.99936">
        <ele>13.950808</ele>
        <time>2021-08-15T00:02:59.155Z</time>
      </trkpt>
      <trkpt lat="42.25598" lon="41.99956">
        <ele>13.990871</ele>
        <time>2021-08-15T00:03:02.736Z</time>
      </trkpt>
      <trkpt lat="42.25584" lon="42">
        <ele>14.088076</ele>
        <time>2021-08-15T00:03:11.247Z</time>
      </trkpt>
      <trkpt lat="42.25582" lon="42.00022">
        <ele>14.131398</ele>
        <time>2021-08-15T00:03:14.988Z</time>
      </trkpt>
      <trkpt lat="42.25589" lon="42.00065">
        <ele>14.221612</ele>
        <time>2021-08-15T00:03:22.856Z</time>
      </trkpt>
      <trkpt lat="42.25637" lon="42.00168">
        <ele>14.383547</ele>
        <time>2021-08-15T00:03:43.992Z</time>
      </trkpt>
      <trkpt lat="42.25643" lon="42.00197">
        <ele>14.423032</ele>
        <time>2021-08-15T00:03:49.115Z</time>
      </trkpt>
      <trkpt lat="42.25752" lon="42.00983">
        <ele>14.970093</ele>
        <time>2021-08-15T00:06:03.047Z</time>
      </trkpt>
      <trkpt lat="42.25934" lon="42.02295">
        <ele>17.865123</ele>
        <time>2021-08-15T00:09:58.143Z</time>
      </trkpt>
      <trkpt lat="42.25947" lon="42.02421">
        <ele>18.10589</ele>
        <time>2021-08-15T00:10:20.273Z</time>
      </trkpt>
      <trkpt lat="42.2595" lon="42.02466">
        <ele>18.170405</ele>
        <time>2021-08-15T00:10:28.125Z</time>
      </trkpt>
      <trkpt lat="42.2596" lon="42.02601">
        <ele>18.306105</ele>
        <time>2021-08-15T00:10:51.496Z</time>
      </trkpt>
      <trkpt lat="42.25963" lon="42.02639">
        <ele>18.34405</ele>
        <time>2021-08-15T00:10:57.955Z</time>
      </trkpt>
      <trkpt lat="42.25964" lon="42.02677">
        <ele>18.382507</ele>
        <time>2021-08-15T00:11:04.486Z</time>
      </trkpt>
      <trkpt lat="42.25965" lon="42.02713">
        <ele>18.317479</ele>
        <time>2021-08-15T00:11:10.520Z</time>
      </trkpt>
      <trkpt lat="42.25974" lon="42.02958">
        <ele>17.692898</ele>
        <time>2021-08-15T00:11:48.666Z</time>
      </trkpt>
      <trkpt lat="42.25987" lon="42.03185">
        <ele>17.244271</ele>
        <time>2021-08-15T00:12:25.351Z</time>
      </trkpt>
      <trkpt lat="42.26008" lon="42.0332">
        <ele>16.892951</ele>
        <time>2021-08-15T00:12:46.940Z</time>
      </trkpt>
      <trkpt lat="42.2605" lon="42.03488">
        <ele>16.781638</ele>
        <time>2021-08-15T00:13:14.864Z</time>
      </trkpt>
      <trkpt lat="42.2616" lon="42.03934">
        <ele>18.324845</ele>
        <time>2021-08-15T00:14:41.769Z</time>
      </trkpt>
      <trkpt lat="42.26233" lon="42.04227">
        <ele>19.950549</ele>
        <time>2021-08-15T00:15:41.918Z</time>
      </trkpt>
      <trkpt lat="42.26372" lon="42.04195">
        <ele>20.739152</ele>
        <time>2021-08-15T00:16:18.050Z</time>
      </trkpt>
      <trkpt lat="42.26433" lon="42.04487">
        <ele>21.671815</ele>
        <time>2021-08-15T00:17:45.806Z</time>
      </trkpt>
      <trkpt lat="42.26518" lon="42.0486">
        <ele>23.089038</ele>
        <time>2021-08-15T00:19:40.297Z</time>
      </trkpt>
      <trkpt lat="42.26561" lon="42.05048">
        <ele>23.813647</ele>
        <time>2021-08-15T00:20:37.831Z</time>
      </trkpt>
      <trkpt lat="42.26599" lon="42.05244">
        <ele>24.765846</ele>
        <time>2021-08-15T00:21:37.845Z</time>
      </trkpt>
      <trkpt lat="42.26615" lon="42.05349">
        <ele>25.547404</ele>
        <time>2021-08-15T00:22:11.060Z</time>
      </trkpt>
      <trkpt lat="42.26664" lon="42.05345">
        <ele>26.125817</ele>
        <time>2021-08-15T00:22:24.756Z</time>
      </trkpt>
      <trkpt lat="42.26695" lon="42.05343">
        <ele>26.499045</ele>
        <time>2021-08-15T00:22:33.773Z</time>
      </trkpt>
      <trkpt lat="42.26728" lon="42.05694">
        <ele>29.841579</ele>
        <time>2021-08-15T00:23:52.517Z</time>
      </trkpt>
      <trkpt lat="42.26735" lon="42.05781">
        <ele>30.480642</ele>
        <time>2021-08-15T00:24:11.137Z</time>
      </trkpt>
      <trkpt lat="42.26749" lon="42.05947">
        <ele>31.400336</ele>
        <time>2021-08-15T00:24:44.672Z</time>
      </trkpt>
      <trkpt lat="42.2675" lon="42.05963">
        <ele>31.432682</ele>
        <time>2021-08-15T00:24:47.759Z</time>
      </trkpt>
      <trkpt lat="42.26763" lon="42.06065">
        <ele>31.653088</ele>
        <time>2021-08-15T00:25:06.663Z</time>
      </trkpt>
      <trkpt lat="42.2677" lon="42.06173">
        <ele>31.729641</ele>
        <time>2021-08-15T00:25:24.975Z</time>
      </trkpt>
      <trkpt lat="42.26774" lon="42.06213">
        <ele>31.665942</ele>
        <time>2021-08-15T00:25:31.492Z</time>
      </trkpt>
      <trkpt lat="42.26776" lon="42.06228">
        <ele>31.641634</ele>
        <time>2021-08-15T00:25:34.054Z</time>
      </trkpt>
      <trkpt lat="42.26777" lon="42.06238">
        <ele>31.626018</ele>
        <time>2021-08-15T00:25:35.593Z</time>
      </trkpt>
      <trkpt lat="42.26779" lon="42.06259">
        <ele>31.591099</ele>
        <time>2021-08-15T00:25:39.355Z</time>
      </trkpt>
      <trkpt lat="42.2678" lon="42.06271">
        <ele>31.573076</ele>
        <time>2021-08-15T00:25:41.363Z</time>
      </trkpt>
      <trkpt lat="42.2678" lon="42.06274">
        <ele>31.567163</ele>
        <time>2021-08-15T00:25:41.995Z</time>
      </trkpt>
      <trkpt lat="42.26781" lon="42.0628">
        <ele>31.557589</ele>
        <time>2021-08-15T00:25:42.882Z</time>
      </trkpt>
      <trkpt lat="42.26786" lon="42.06338">
        <ele>31.466015</ele>
        <time>2021-08-15T00:25:52.653Z</time>
      </trkpt>
      <trkpt lat="42.2679" lon="42.06385">
        <ele>31.405068</ele>
        <time>2021-08-15T00:26:00.577Z</time>
      </trkpt>
      <trkpt lat="42.26799" lon="42.06488">
        <ele>31.357639</ele>
        <time>2021-08-15T00:26:18.317Z</time>
      </trkpt>
      <trkpt lat="42.26812" lon="42.06597">
        <ele>31.30779</ele>
        <time>2021-08-15T00:26:37.239Z</time>
      </trkpt>
      <trkpt lat="42.26822" lon="42.06697">
        <ele>31.323262</ele>
        <time>2021-08-15T00:26:54.555Z</time>
      </trkpt>
      <trkpt lat="42.26842" lon="42.06909">
        <ele>31.643072</ele>
        <time>2021-08-15T00:27:31.239Z</time>
      </trkpt>
      <trkpt lat="42.26856" lon="42.07017">
        <ele>32.197749</ele>
        <time>2021-08-15T00:27:53.975Z</time>
      </trkpt>
      <trkpt lat="42.26871" lon="42.07204">
        <ele>32.371872</ele>
        <time>2021-08-15T00:28:32.454Z</time>
      </trkpt>
      <trkpt lat="42.26919" lon="42.0771">
        <ele>31.271707</ele>
        <time>2021-08-15T00:29:54.301Z</time>
      </trkpt>
      <trkpt lat="42.26949" lon="42.08016">
        <ele>31.096642</ele>
        <time>2021-08-15T00:30:45.297Z</time>
      </trkpt>
      <trkpt lat="42.26955" lon="42.08108">
        <ele>31.197117</ele>
        <time>2021-08-15T00:31:01.200Z</time>
      </trkpt>
      <trkpt lat="42.26963" lon="42.08164">
        <ele>31.29164</ele>
        <time>2021-08-15T00:31:11.006Z</time>
      </trkpt>
      <trkpt lat="42.26992" lon="42.08475">
        <ele>31.749765</ele>
        <time>2021-08-15T00:32:05.238Z</time>
      </trkpt>
      <trkpt lat="42.27005" lon="42.08621">
        <ele>31.900614</ele>
        <time>2021-08-15T00:32:30.018Z</time>
      </trkpt>
      <trkpt lat="42.27005" lon="42.08625">
        <ele>31.903631</ele>
        <time>2021-08-15T00:32:30.821Z</time>
      </trkpt>
      <trkpt lat="42.27012" lon="42.08697">
        <ele>31.960414</ele>
        <time>2021-08-15T00:32:42.816Z</time>
      </trkpt>
      <trkpt lat="42.27013" lon="42.08703">
        <ele>31.965329</ele>
        <time>2021-08-15T00:32:43.838Z</time>
      </trkpt>
      <trkpt lat="42.27025" lon="42.08837">
        <ele>32.251207</ele>
        <time>2021-08-15T00:33:07.225Z</time>
      </trkpt>
      <trkpt lat="42.2703" lon="42.08892">
        <ele>32.481661</ele>
        <time>2021-08-15T00:33:16.953Z</time>
      </trkpt>
      <trkpt lat="42.27055" lon="42.08885">
        <ele>32.621843</ele>
        <time>2021-08-15T00:33:23.348Z</time>
      </trkpt>
      <trkpt lat="42.27063" lon="42.08882">
        <ele>32.670199</ele>
        <time>2021-08-15T00:33:25.499Z</time>
      </trkpt>
      <trkpt lat="42.27082" lon="42.08877">
        <ele>32.777301</ele>
        <time>2021-08-15T00:33:30.464Z</time>
      </trkpt>
      <trkpt lat="42.27093" lon="42.08873">
        <ele>32.835959</ele>
        <time>2021-08-15T00:33:33.308Z</time>
      </trkpt>
      <trkpt lat="42.27155" lon="42.08854">
        <ele>33.334125</ele>
        <time>2021-08-15T00:33:50.551Z</time>
      </trkpt>
      <trkpt lat="42.27179" lon="42.08847">
        <ele>33.576835</ele>
        <time>2021-08-15T00:33:57.100Z</time>
      </trkpt>
      <trkpt lat="42.27323" lon="42.08804">
        <ele>35.074597</ele>
        <time>2021-08-15T00:34:38.278Z</time>
      </trkpt>
      <trkpt lat="42.27343" lon="42.08905">
        <ele>35.784542</ele>
        <time>2021-08-15T00:35:05.153Z</time>
      </trkpt>
      <trkpt lat="42.27365" lon="42.08915">
        <ele>35.999099</ele>
        <time>2021-08-15T00:35:13.051Z</time>
      </trkpt>
      <trkpt lat="42.27386" lon="42.08916">
        <ele>36.195838</ele>
        <time>2021-08-15T00:35:19.950Z</time>
      </trkpt>
      <trkpt lat="42.27411" lon="42.08907">
        <ele>36.428163</ele>
        <time>2021-08-15T00:35:28.273Z</time>
      </trkpt>
      <trkpt lat="42.27427" lon="42.08987">
        <ele>36.690868</ele>
        <time>2021-08-15T00:35:48.076Z</time>
      </trkpt>
      <trkpt lat="42.27434" lon="42.08995">
        <ele>36.720391</ele>
        <time>2021-08-15T00:35:50.763Z</time>
      </trkpt>
      <trkpt lat="42.27455" lon="42.08988">
        <ele>36.793904</ele>
        <time>2021-08-15T00:35:57.703Z</time>
      </trkpt>
      <trkpt lat="42.27461" lon="42.08994">
        <ele>36.819314</ele>
        <time>2021-08-15T00:36:00.033Z</time>
      </trkpt>
      <trkpt lat="42.27473" lon="42.09048">
        <ele>36.959854</ele>
        <time>2021-08-15T00:36:12.830Z</time>
      </trkpt>
      <trkpt lat="42.2753" lon="42.09023">
        <ele>37.143235</ele>
        <time>2021-08-15T00:36:26.765Z</time>
      </trkpt>
      <trkpt lat="42.27532" lon="42.09032">
        <ele>37.15774</ele>
        <time>2021-08-15T00:36:28.358Z</time>
      </trkpt>
      <trkpt lat="42.27537" lon="42.09052">
        <ele>37.188566</ele>
        <time>2021-08-15T00:36:31.890Z</time>
      </trkpt>
      <trkpt lat="42.27538" lon="42.09065">
        <ele>37.208482</ele>
        <time>2021-08-15T00:36:34.255Z</time>
      </trkpt>
      <trkpt lat="42.27536" lon="42.09079">
        <ele>37.229728</ele>
        <time>2021-08-15T00:36:36.651Z</time>
      </trkpt>
      <trkpt lat="42.27532" lon="42.0909">
        <ele>37.247569</ele>
        <time>2021-08-15T00:36:38.703Z</time>
      </trkpt>
      <trkpt lat="42.27531" lon="42.09094">
        <ele>37.252981</ele>
        <time>2021-08-15T00:36:39.354Z</time>
      </trkpt>
      <trkpt lat="42.27537" lon="42.09105">
        <ele>37.273225</ele>
        <time>2021-08-15T00:36:41.742Z</time>
      </trkpt>
      <trkpt lat="42.27539" lon="42.09106">
        <ele>37.278885</ele>
        <time>2021-08-15T00:36:42.405Z</time>
      </trkpt>
      <trkpt lat="42.27545" lon="42.0911">
        <ele>37.291754</ele>
        <time>2021-08-15T00:36:43.938Z</time>
      </trkpt>
      <trkpt lat="42.27551" lon="42.09116">
        <ele>37.307151</ele>
        <time>2021-08-15T00:36:45.647Z</time>
      </trkpt>
      <trkpt lat="42.27556" lon="42.09124">
        <ele>37.321998</ele>
        <time>2021-08-15T00:36:47.400Z</time>
      </trkpt>
      <trkpt lat="42.27601" lon="42.09258">
        <ele>37.616329</ele>
        <time>2021-08-15T00:37:12.991Z</time>
      </trkpt>
      <trkpt lat="42.27655" lon="42.09423">
        <ele>38.227546</ele>
        <time>2021-08-15T00:37:46.131Z</time>
      </trkpt>
      <trkpt lat="42.27668" lon="42.09462">
        <ele>38.372927</ele>
        <time>2021-08-15T00:37:53.970Z</time>
      </trkpt>
      <trkpt lat="42.27708" lon="42.09582">
        <ele>38.829762</ele>
        <time>2021-08-15T00:38:18.047Z</time>
      </trkpt>
      <trkpt lat="42.27759" lon="42.09749">
        <ele>39.374881</ele>
        <time>2021-08-15T00:38:50.555Z</time>
      </trkpt>
      <trkpt lat="42.27798" lon="42.09861">
        <ele>39.685911</ele>
        <time>2021-08-15T00:39:11.714Z</time>
      </trkpt>
      <trkpt lat="42.27867" lon="42.10037">
        <ele>40.402108</ele>
        <time>2021-08-15T00:39:48.778Z</time>
      </trkpt>
      <trkpt lat="42.27903" lon="42.10123">
        <ele>40.683185</ele>
        <time>2021-08-15T00:40:07.638Z</time>
      </trkpt>
      <trkpt lat="42.27952" lon="42.10251">
        <ele>40.684557</ele>
        <time>2021-08-15T00:40:31.331Z</time>
      </trkpt>
      <trkpt lat="42.27974" lon="42.10317">
        <ele>40.685256</ele>
        <time>2021-08-15T00:40:42.793Z</time>
      </trkpt>
      <trkpt lat="42.28013" lon="42.10415">
        <ele>40.599627</ele>
        <time>2021-08-15T00:41:00.365Z</time>
      </trkpt>
      <trkpt lat="42.28034" lon="42.10474">
        <ele>40.548954</ele>
        <time>2021-08-15T00:41:10.796Z</time>
      </trkpt>
      <trkpt lat="42.28062" lon="42.10576">
        <ele>40.651161</ele>
        <time>2021-08-15T00:41:29.751Z</time>
      </trkpt>
      <trkpt lat="42.28081" lon="42.10661">
        <ele>40.988424</ele>
        <time>2021-08-15T00:41:46.759Z</time>
      </trkpt>
      <trkpt lat="42.28114" lon="42.10778">
        <ele>41.449827</ele>
        <time>2021-08-15T00:42:10.198Z</time>
      </trkpt>
      <trkpt lat="42.28155" lon="42.10876">
        <ele>41.733209</ele>
        <time>2021-08-15T00:42:30.218Z</time>
      </trkpt>
      <trkpt lat="42.2822" lon="42.11033">
        <ele>42.37941</ele>
        <time>2021-08-15T00:43:01.244Z</time>
      </trkpt>
      <trkpt lat="42.28258" lon="42.11132">
        <ele>43.018197</ele>
        <time>2021-08-15T00:43:23.458Z</time>
      </trkpt>
      <trkpt lat="42.28297" lon="42.11225">
        <ele>43.642037</ele>
        <time>2021-08-15T00:43:45.454Z</time>
      </trkpt>
      <trkpt lat="42.28345" lon="42.11283">
        <ele>44.186918</ele>
        <time>2021-08-15T00:44:03.513Z</time>
      </trkpt>
      <trkpt lat="42.28382" lon="42.11344">
        <ele>44.681569</ele>
        <time>2021-08-15T00:44:19.775Z</time>
      </trkpt>
      <trkpt lat="42.28491" lon="42.11656">
        <ele>44.329913</ele>
        <time>2021-08-15T00:45:15.535Z</time>
      </trkpt>
      <trkpt lat="42.28501" lon="42.11683">
        <ele>44.142804</ele>
        <time>2021-08-15T00:45:19.890Z</time>
      </trkpt>
      <trkpt lat="42.28545" lon="42.11819">
        <ele>43.226934</ele>
        <time>2021-08-15T00:45:41.252Z</time>
      </trkpt>
      <trkpt lat="42.28569" lon="42.11884">
        <ele>43.266842</ele>
        <time>2021-08-15T00:45:52.237Z</time>
      </trkpt>
      <trkpt lat="42.28572" lon="42.11894">
        <ele>43.276999</ele>
        <time>2021-08-15T00:45:54.103Z</time>
      </trkpt>
      <trkpt lat="42.286" lon="42.11967">
        <ele>43.351907</ele>
        <time>2021-08-15T00:46:07.703Z</time>
      </trkpt>
      <trkpt lat="42.28653" lon="42.12055">
        <ele>43.728782</ele>
        <time>2021-08-15T00:46:30.826Z</time>
      </trkpt>
      <trkpt lat="42.28712" lon="42.12137">
        <ele>44.796929</ele>
        <time>2021-08-15T00:46:56.248Z</time>
      </trkpt>
      <trkpt lat="42.28719" lon="42.12146">
        <ele>44.911231</ele>
        <time>2021-08-15T00:46:59.352Z</time>
      </trkpt>
      <trkpt lat="42.28831" lon="42.12302">
        <ele>46.378401</ele>
        <time>2021-08-15T00:47:43.077Z</time>
      </trkpt>
      <trkpt lat="42.28886" lon="42.12378">
        <ele>46.916817</ele>
        <time>2021-08-15T00:48:01.533Z</time>
      </trkpt>
      <trkpt lat="42.29001" lon="42.12533">
        <ele>47.55647</ele>
        <time>2021-08-15T00:48:40.837Z</time>
      </trkpt>
      <trkpt lat="42.29117" lon="42.12689">
        <ele>47.96797</ele>
        <time>2021-08-15T00:49:21.320Z</time>
      </trkpt>
      <trkpt lat="42.29132" lon="42.12711">
        <ele>48.019584</ele>
        <time>2021-08-15T00:49:26.151Z</time>
      </trkpt>
      <trkpt lat="42.29139" lon="42.12726">
        <ele>48.051641</ele>
        <time>2021-08-15T00:49:29.040Z</time>
      </trkpt>
      <trkpt lat="42.29152" lon="42.1277">
        <ele>47.528774</ele>
        <time>2021-08-15T00:49:36.098Z</time>
      </trkpt>
      <trkpt lat="42.29156" lon="42.12867">
        <ele>46.435481</ele>
        <time>2021-08-15T00:49:50.049Z</time>
      </trkpt>
      <trkpt lat="42.29158" lon="42.12941">
        <ele>45.608118</ele>
        <time>2021-08-15T00:49:59.950Z</time>
      </trkpt>
      <trkpt lat="42.29165" lon="42.12998">
        <ele>44.854834</ele>
        <time>2021-08-15T00:50:07.534Z</time>
      </trkpt>
      <trkpt lat="42.29181" lon="42.13042">
        <ele>44.130281</ele>
        <time>2021-08-15T00:50:14.053Z</time>
      </trkpt>
      <trkpt lat="42.29216" lon="42.13149">
        <ele>42.427143</ele>
        <time>2021-08-15T00:50:29.747Z</time>
      </trkpt>
      <trkpt lat="42.29218" lon="42.13247">
        <ele>41.590277</ele>
        <time>2021-08-15T00:50:44.036Z</time>
      </trkpt>
      <trkpt lat="42.29229" lon="42.13331">
        <ele>41.311712</ele>
        <time>2021-08-15T00:50:57.172Z</time>
      </trkpt>
      <trkpt lat="42.29247" lon="42.13406">
        <ele>41.053864</ele>
        <time>2021-08-15T00:51:10.419Z</time>
      </trkpt>
      <trkpt lat="42.29277" lon="42.1346">
        <ele>41.083658</ele>
        <time>2021-08-15T00:51:22.320Z</time>
      </trkpt>
      <trkpt lat="42.29309" lon="42.13505">
        <ele>41.256143</ele>
        <time>2021-08-15T00:51:33.766Z</time>
      </trkpt>
      <trkpt lat="42.29316" lon="42.13517">
        <ele>41.29545</ele>
        <time>2021-08-15T00:51:36.331Z</time>
      </trkpt>
      <trkpt lat="42.29403" lon="42.13653">
        <ele>41.782607</ele>
        <time>2021-08-15T00:52:08.740Z</time>
      </trkpt>
      <trkpt lat="42.2943" lon="42.13703">
        <ele>41.945028</ele>
        <time>2021-08-15T00:52:19.362Z</time>
      </trkpt>
      <trkpt lat="42.29444" lon="42.13761">
        <ele>42.107109</ele>
        <time>2021-08-15T00:52:29.954Z</time>
      </trkpt>
      <trkpt lat="42.29452" lon="42.13823">
        <ele>42.272488</ele>
        <time>2021-08-15T00:52:41.326Z</time>
      </trkpt>
      <trkpt lat="42.29454" lon="42.13939">
        <ele>43.01733</ele>
        <time>2021-08-15T00:53:03.392Z</time>
      </trkpt>
      <trkpt lat="42.29463" lon="42.14007">
        <ele>43.460946</ele>
        <time>2021-08-15T00:53:17.547Z</time>
      </trkpt>
      <trkpt lat="42.29479" lon="42.14077">
        <ele>43.933064</ele>
        <time>2021-08-15T00:53:32.538Z</time>
      </trkpt>
      <trkpt lat="42.29512" lon="42.14191">
        <ele>44.758529</ele>
        <time>2021-08-15T00:53:58.273Z</time>
      </trkpt>
      <trkpt lat="42.29556" lon="42.14382">
        <ele>45.770961</ele>
        <time>2021-08-15T00:54:35.621Z</time>
      </trkpt>
      <trkpt lat="42.29583" lon="42.145">
        <ele>46.163436</ele>
        <time>2021-08-15T00:54:57.553Z</time>
      </trkpt>
      <trkpt lat="42.29623" lon="42.14635">
        <ele>46.340239</ele>
        <time>2021-08-15T00:55:22.856Z</time>
      </trkpt>
      <trkpt lat="42.29684" lon="42.14818">
        <ele>46.379983</ele>
        <time>2021-08-15T00:55:55.541Z</time>
      </trkpt>
      <trkpt lat="42.29753" lon="42.15014">
        <ele>46.334126</ele>
        <time>2021-08-15T00:56:30.769Z</time>
      </trkpt>
      <trkpt lat="42.29758" lon="42.15026">
        <ele>46.354731</ele>
        <time>2021-08-15T00:56:33.001Z</time>
      </trkpt>
      <trkpt lat="42.29771" lon="42.15063">
        <ele>46.417016</ele>
        <time>2021-08-15T00:56:40.138Z</time>
      </trkpt>
      <trkpt lat="42.29804" lon="42.15149">
        <ele>46.562475</ele>
        <time>2021-08-15T00:56:57.106Z</time>
      </trkpt>
      <trkpt lat="42.29875" lon="42.15342">
        <ele>47.572453</ele>
        <time>2021-08-15T00:57:37.671Z</time>
      </trkpt>
      <trkpt lat="42.29964" lon="42.15588">
        <ele>49.408517</ele>
        <time>2021-08-15T00:58:32.898Z</time>
      </trkpt>
      <trkpt lat="42.3003" lon="42.15764">
        <ele>50.41084</ele>
        <time>2021-08-15T00:59:11.115Z</time>
      </trkpt>
      <trkpt lat="42.30056" lon="42.15832">
        <ele>50.759823</ele>
        <time>2021-08-15T00:59:24.827Z</time>
      </trkpt>
      <trkpt lat="42.30082" lon="42.15909">
        <ele>50.916769</ele>
        <time>2021-08-15T00:59:39.530Z</time>
      </trkpt>
      <trkpt lat="42.30115" lon="42.15983">
        <ele>51.057159</ele>
        <time>2021-08-15T00:59:54.118Z</time>
      </trkpt>
      <trkpt lat="42.30161" lon="42.16055">
        <ele>51.235366</ele>
        <time>2021-08-15T01:00:10.425Z</time>
      </trkpt>
      <trkpt lat="42.30204" lon="42.16107">
        <ele>51.47799</ele>
        <time>2021-08-15T01:00:24.188Z</time>
      </trkpt>
      <trkpt lat="42.30249" lon="42.16149">
        <ele>51.709667</ele>
        <time>2021-08-15T01:00:37.648Z</time>
      </trkpt>
      <trkpt lat="42.30368" lon="42.16225">
        <ele>52.381727</ele>
        <time>2021-08-15T01:01:10.939Z</time>
      </trkpt>
      <trkpt lat="42.30399" lon="42.16245">
        <ele>52.575541</ele>
        <time>2021-08-15T01:01:19.380Z</time>
      </trkpt>
      <trkpt lat="42.3045" lon="42.16277">
        <ele>52.896315</ele>
        <time>2021-08-15T01:01:33.416Z</time>
      </trkpt>
      <trkpt lat="42.30534" lon="42.16329">
        <ele>53.427054</ele>
        <time>2021-08-15T01:01:56.683Z</time>
      </trkpt>
      <trkpt lat="42.307" lon="42.16434">
        <ele>54.48416</ele>
        <time>2021-08-15T01:02:42.545Z</time>
      </trkpt>
      <trkpt lat="42.3072" lon="42.16446">
        <ele>54.612751</ele>
        <time>2021-08-15T01:02:48.307Z</time>
      </trkpt>
      <trkpt lat="42.30746" lon="42.16463">
        <ele>54.777982</ele>
        <time>2021-08-15T01:02:55.664Z</time>
      </trkpt>
      <trkpt lat="42.30877" lon="42.16548">
        <ele>55.516399</ele>
        <time>2021-08-15T01:03:31.714Z</time>
      </trkpt>
      <trkpt lat="42.31025" lon="42.16641">
        <ele>56.378961</ele>
        <time>2021-08-15T01:04:11.094Z</time>
      </trkpt>
      <trkpt lat="42.31354" lon="42.16868">
        <ele>58.652369</ele>
        <time>2021-08-15T01:05:45.341Z</time>
      </trkpt>
      <trkpt lat="42.31362" lon="42.16873">
        <ele>58.718903</ele>
        <time>2021-08-15T01:05:47.792Z</time>
      </trkpt>
      <trkpt lat="42.31383" lon="42.16888">
        <ele>58.884914</ele>
        <time>2021-08-15T01:05:53.811Z</time>
      </trkpt>
      <trkpt lat="42.31952" lon="42.17273">
        <ele>63.375892</ele>
        <time>2021-08-15T01:08:37.303Z</time>
      </trkpt>
      <trkpt lat="42.32043" lon="42.17334">
        <ele>64.254327</ele>
        <time>2021-08-15T01:09:04.123Z</time>
      </trkpt>
      <trkpt lat="42.32105" lon="42.17379">
        <ele>64.924986</ele>
        <time>2021-08-15T01:09:23.724Z</time>
      </trkpt>
      <trkpt lat="42.32116" lon="42.17388">
        <ele>65.07246</ele>
        <time>2021-08-15T01:09:27.576Z</time>
      </trkpt>
      <trkpt lat="42.32202" lon="42.17445">
        <ele>66.114189</ele>
        <time>2021-08-15T01:09:54.976Z</time>
      </trkpt>
      <trkpt lat="42.32277" lon="42.17495">
        <ele>66.751334</ele>
        <time>2021-08-15T01:10:16.568Z</time>
      </trkpt>
      <trkpt lat="42.32305" lon="42.17514">
        <ele>66.904507</ele>
        <time>2021-08-15T01:10:24.565Z</time>
      </trkpt>
      <trkpt lat="42.32397" lon="42.17579">
        <ele>67.413233</ele>
        <time>2021-08-15T01:10:49.671Z</time>
      </trkpt>
      <trkpt lat="42.3241" lon="42.17588">
        <ele>67.432856</ele>
        <time>2021-08-15T01:10:52.784Z</time>
      </trkpt>
      <trkpt lat="42.32457" lon="42.17622">
        <ele>67.50787</ele>
        <time>2021-08-15T01:11:04.521Z</time>
      </trkpt>
      <trkpt lat="42.32517" lon="42.17663">
        <ele>67.60072</ele>
        <time>2021-08-15T01:11:19.539Z</time>
      </trkpt>
      <trkpt lat="42.32655" lon="42.17757">
        <ele>68.110051</ele>
        <time>2021-08-15T01:11:56.355Z</time>
      </trkpt>
      <trkpt lat="42.32799" lon="42.17852">
        <ele>69.014772</ele>
        <time>2021-08-15T01:12:36.493Z</time>
      </trkpt>
      <trkpt lat="42.32901" lon="42.17923">
        <ele>69.745289</ele>
        <time>2021-08-15T01:13:07.097Z</time>
      </trkpt>
      <trkpt lat="42.32984" lon="42.1798">
        <ele>70.173177</ele>
        <time>2021-08-15T01:13:29.606Z</time>
      </trkpt>
      <trkpt lat="42.3312" lon="42.18072">
        <ele>71.002554</ele>
        <time>2021-08-15T01:14:05.822Z</time>
      </trkpt>
      <trkpt lat="42.33262" lon="42.18173">
        <ele>72.314547</ele>
        <time>2021-08-15T01:14:48.680Z</time>
      </trkpt>
      <trkpt lat="42.33405" lon="42.18279">
        <ele>73.894174</ele>
        <time>2021-08-15T01:15:34.955Z</time>
      </trkpt>
      <trkpt lat="42.33513" lon="42.18356">
        <ele>74.75996</ele>
        <time>2021-08-15T01:16:05.413Z</time>
      </trkpt>
      <trkpt lat="42.33699" lon="42.1845">
        <ele>75.720987</ele>
        <time>2021-08-15T01:16:52.899Z</time>
      </trkpt>
      <trkpt lat="42.33936" lon="42.18571">
        <ele>78.107925</ele>
        <time>2021-08-15T01:18:03.968Z</time>
      </trkpt>
      <trkpt lat="42.34109" lon="42.18717">
        <ele>79.096422</ele>
        <time>2021-08-15T01:18:54.082Z</time>
      </trkpt>
      <trkpt lat="42.34267" lon="42.18852">
        <ele>79.36925</ele>
        <time>2021-08-15T01:19:34.384Z</time>
      </trkpt>
      <trkpt lat="42.34333" lon="42.18906">
        <ele>79.602932</ele>
        <time>2021-08-15T01:19:53.586Z</time>
      </trkpt>
      <trkpt lat="42.34419" lon="42.18977">
        <ele>80.644145</ele>
        <time>2021-08-15T01:20:21.853Z</time>
      </trkpt>
      <trkpt lat="42.34427" lon="42.18983">
        <ele>80.743609</ele>
        <time>2021-08-15T01:20:24.670Z</time>
      </trkpt>
      <trkpt lat="42.3464" lon="42.1914">
        <ele>83.1323</ele>
        <time>2021-08-15T01:21:31.913Z</time>
      </trkpt>
      <trkpt lat="42.34844" lon="42.19293">
        <ele>83.947926</ele>
        <time>2021-08-15T01:22:25.042Z</time>
      </trkpt>
      <trkpt lat="42.34854" lon="42.193">
        <ele>84.019566</ele>
        <time>2021-08-15T01:22:27.905Z</time>
      </trkpt>
      <trkpt lat="42.34922" lon="42.19355">
        <ele>84.509738</ele>
        <time>2021-08-15T01:22:48.262Z</time>
      </trkpt>
      <trkpt lat="42.34944" lon="42.19373">
        <ele>84.664855</ele>
        <time>2021-08-15T01:22:55.533Z</time>
      </trkpt>
      <trkpt lat="42.35056" lon="42.19447">
        <ele>86.407979</ele>
        <time>2021-08-15T01:23:32.016Z</time>
      </trkpt>
      <trkpt lat="42.3507" lon="42.19439">
        <ele>86.623117</ele>
        <time>2021-08-15T01:23:36.976Z</time>
      </trkpt>
      <trkpt lat="42.35186" lon="42.19394">
        <ele>88.485723</ele>
        <time>2021-08-15T01:24:12.500Z</time>
      </trkpt>
      <trkpt lat="42.35323" lon="42.19338">
        <ele>91.157755</ele>
        <time>2021-08-15T01:24:56.408Z</time>
      </trkpt>
      <trkpt lat="42.35369" lon="42.19321">
        <ele>92.32955</ele>
        <time>2021-08-15T01:25:11.980Z</time>
      </trkpt>
      <trkpt lat="42.35391" lon="42.19313">
        <ele>92.881288</ele>
        <time>2021-08-15T01:25:19.924Z</time>
      </trkpt>
      <trkpt lat="42.3546" lon="42.19312">
        <ele>94.66277</ele>
        <time>2021-08-15T01:25:45.249Z</time>
      </trkpt>
      <trkpt lat="42.35533" lon="42.19283">
        <ele>98.551617</ele>
        <time>2021-08-15T01:26:18.166Z</time>
      </trkpt>
      <trkpt lat="42.35542" lon="42.19278">
        <ele>99.014751</ele>
        <time>2021-08-15T01:26:22.160Z</time>
      </trkpt>
      <trkpt lat="42.35573" lon="42.1928">
        <ele>100.632626</ele>
        <time>2021-08-15T01:26:38.657Z</time>
      </trkpt>
      <trkpt lat="42.35617" lon="42.1923">
        <ele>103.575003</ele>
        <time>2021-08-15T01:27:11.011Z</time>
      </trkpt>
      <trkpt lat="42.35644" lon="42.19218">
        <ele>105.161881</ele>
        <time>2021-08-15T01:27:23.108Z</time>
      </trkpt>
      <trkpt lat="42.35646" lon="42.19215">
        <ele>105.337541</ele>
        <time>2021-08-15T01:27:25.381Z</time>
      </trkpt>
      <trkpt lat="42.35647" lon="42.19212">
        <ele>105.496284</ele>
        <time>2021-08-15T01:27:29.251Z</time>
      </trkpt>
      <trkpt lat="42.35648" lon="42.19142">
        <ele>108.387405</ele>
        <time>2021-08-15T01:27:55.208Z</time>
      </trkpt>
      <trkpt lat="42.35657" lon="42.19118">
        <ele>109.505584</ele>
        <time>2021-08-15T01:28:06.461Z</time>
      </trkpt>
      <trkpt lat="42.35748" lon="42.19087">
        <ele>114.271729</ele>
        <time>2021-08-15T01:28:52.090Z</time>
      </trkpt>
      <trkpt lat="42.35792" lon="42.19079">
        <ele>115.366665</ele>
        <time>2021-08-15T01:29:07.071Z</time>
      </trkpt>
      <trkpt lat="42.35824" lon="42.19084">
        <ele>116.163427</ele>
        <time>2021-08-15T01:29:17.072Z</time>
      </trkpt>
      <trkpt lat="42.35835" lon="42.19093">
        <ele>116.468867</ele>
        <time>2021-08-15T01:29:20.772Z</time>
      </trkpt>
      <trkpt lat="42.35842" lon="42.19102">
        <ele>116.707975</ele>
        <time>2021-08-15T01:29:23.705Z</time>
      </trkpt>
      <trkpt lat="42.35855" lon="42.19138">
        <ele>117.427642</ele>
        <time>2021-08-15T01:29:32.349Z</time>
      </trkpt>
      <trkpt lat="42.35886" lon="42.19168">
        <ele>118.446686</ele>
        <time>2021-08-15T01:29:44.034Z</time>
      </trkpt>
      <trkpt lat="42.35913" lon="42.19221">
        <ele>120.405426</ele>
        <time>2021-08-15T01:29:59.757Z</time>
      </trkpt>
      <trkpt lat="42.35933" lon="42.19245">
        <ele>121.520398</ele>
        <time>2021-08-15T01:30:09.878Z</time>
      </trkpt>
      <trkpt lat="42.35962" lon="42.19254">
        <ele>122.758922</ele>
        <time>2021-08-15T01:30:22.385Z</time>
      </trkpt>
      <trkpt lat="42.35995" lon="42.19258">
        <ele>124.134871</ele>
        <time>2021-08-15T01:30:38.251Z</time>
      </trkpt>
      <trkpt lat="42.36016" lon="42.19253">
        <ele>125.039802</ele>
        <time>2021-08-15T01:30:49.617Z</time>
      </trkpt>
      <trkpt lat="42.36042" lon="42.19235">
        <ele>126.701914</ele>
        <time>2021-08-15T01:31:05.761Z</time>
      </trkpt>
      <trkpt lat="42.36068" lon="42.19187">
        <ele>130.275434</ele>
        <time>2021-08-15T01:31:32.614Z</time>
      </trkpt>
      <trkpt lat="42.3612" lon="42.1913">
        <ele>135.664935</ele>
        <time>2021-08-15T01:32:16.564Z</time>
      </trkpt>
      <trkpt lat="42.36245" lon="42.18965">
        <ele>148.427279</ele>
        <time>2021-08-15T01:34:10.014Z</time>
      </trkpt>
      <trkpt lat="42.3632" lon="42.18814">
        <ele>152.93888</ele>
        <time>2021-08-15T01:35:08.147Z</time>
      </trkpt>
      <trkpt lat="42.3637" lon="42.18729">
        <ele>153.162139</ele>
        <time>2021-08-15T01:35:23.803Z</time>
      </trkpt>
      <trkpt lat="42.36406" lon="42.18683">
        <ele>152.131816</ele>
        <time>2021-08-15T01:35:31.794Z</time>
      </trkpt>
      <trkpt lat="42.36442" lon="42.1866">
        <ele>150.091897</ele>
        <time>2021-08-15T01:35:38.028Z</time>
      </trkpt>
      <trkpt lat="42.36492" lon="42.18667">
        <ele>147.548258</ele>
        <time>2021-08-15T01:35:45.710Z</time>
      </trkpt>
      <trkpt lat="42.36518" lon="42.18688">
        <ele>146.049447</ele>
        <time>2021-08-15T01:35:50.309Z</time>
      </trkpt>
      <trkpt lat="42.3656" lon="42.18739">
        <ele>143.891708</ele>
        <time>2021-08-15T01:35:59.387Z</time>
      </trkpt>
      <trkpt lat="42.36589" lon="42.1879">
        <ele>143.176172</ele>
        <time>2021-08-15T01:36:07.763Z</time>
      </trkpt>
      <trkpt lat="42.36626" lon="42.18904">
        <ele>141.806871</ele>
        <time>2021-08-15T01:36:26.978Z</time>
      </trkpt>
      <trkpt lat="42.36618" lon="42.18955">
        <ele>141.510721</ele>
        <time>2021-08-15T01:36:37.150Z</time>
      </trkpt>
      <trkpt lat="42.36632" lon="42.18991">
        <ele>141.548086</ele>
        <time>2021-08-15T01:36:45.549Z</time>
      </trkpt>
      <trkpt lat="42.36633" lon="42.19005">
        <ele>141.561016</ele>
        <time>2021-08-15T01:36:48.424Z</time>
      </trkpt>
      <trkpt lat="42.36611" lon="42.19082">
        <ele>141.636678</ele>
        <time>2021-08-15T01:37:03.668Z</time>
      </trkpt>
      <trkpt lat="42.36595" lon="42.19241">
        <ele>141.674245</ele>
        <time>2021-08-15T01:37:27.771Z</time>
      </trkpt>
      <trkpt lat="42.36609" lon="42.19364">
        <ele>141.610782</ele>
        <time>2021-08-15T01:37:47.146Z</time>
      </trkpt>
      <trkpt lat="42.3661" lon="42.19413">
        <ele>141.672392</ele>
        <time>2021-08-15T01:37:56.989Z</time>
      </trkpt>
      <trkpt lat="42.36616" lon="42.19423">
        <ele>141.832213</ele>
        <time>2021-08-15T01:38:00.054Z</time>
      </trkpt>
      <trkpt lat="42.36646" lon="42.19429">
        <ele>142.340109</ele>
        <time>2021-08-15T01:38:10.313Z</time>
      </trkpt>
      <trkpt lat="42.36672" lon="42.19425">
        <ele>142.775086</ele>
        <time>2021-08-15T01:38:19.379Z</time>
      </trkpt>
      <trkpt lat="42.36703" lon="42.19411">
        <ele>143.323314</ele>
        <time>2021-08-15T01:38:30.874Z</time>
      </trkpt>
      <trkpt lat="42.36743" lon="42.19375">
        <ele>144.139769</ele>
        <time>2021-08-15T01:38:47.546Z</time>
      </trkpt>
      <trkpt lat="42.36787" lon="42.19353">
        <ele>144.070493</ele>
        <time>2021-08-15T01:39:02.376Z</time>
      </trkpt>
      <trkpt lat="42.369" lon="42.19209">
        <ele>139.597706</ele>
        <time>2021-08-15T01:39:29.415Z</time>
      </trkpt>
      <trkpt lat="42.3692" lon="42.19205">
        <ele>138.158849</ele>
        <time>2021-08-15T01:39:32.310Z</time>
      </trkpt>
      <trkpt lat="42.3695" lon="42.19212">
        <ele>135.504495</ele>
        <time>2021-08-15T01:39:36.587Z</time>
      </trkpt>
      <trkpt lat="42.37001" lon="42.19194">
        <ele>130.853659</ele>
        <time>2021-08-15T01:39:44.213Z</time>
      </trkpt>
      <trkpt lat="42.37019" lon="42.19196">
        <ele>129.261886</ele>
        <time>2021-08-15T01:39:46.716Z</time>
      </trkpt>
      <trkpt lat="42.37023" lon="42.19197">
        <ele>128.943796</ele>
        <time>2021-08-15T01:39:47.216Z</time>
      </trkpt>
      <trkpt lat="42.37036" lon="42.192">
        <ele>127.736199</ele>
        <time>2021-08-15T01:39:49.311Z</time>
      </trkpt>
      <trkpt lat="42.37042" lon="42.19201">
        <ele>127.261171</ele>
        <time>2021-08-15T01:39:50.027Z</time>
      </trkpt>
      <trkpt lat="42.37113" lon="42.19217">
        <ele>121.659677</ele>
        <time>2021-08-15T01:40:00.261Z</time>
      </trkpt>
      <trkpt lat="42.3715" lon="42.19242">
        <ele>118.996167</ele>
        <time>2021-08-15T01:40:06.329Z</time>
      </trkpt>
      <trkpt lat="42.3717" lon="42.19243">
        <ele>117.771897</ele>
        <time>2021-08-15T01:40:09.152Z</time>
      </trkpt>
      <trkpt lat="42.37199" lon="42.1923">
        <ele>115.823238</ele>
        <time>2021-08-15T01:40:14.196Z</time>
      </trkpt>
      <trkpt lat="42.37203" lon="42.19228">
        <ele>115.529433</ele>
        <time>2021-08-15T01:40:14.880Z</time>
      </trkpt>
      <trkpt lat="42.37219" lon="42.19249">
        <ele>114.126287</ele>
        <time>2021-08-15T01:40:18.825Z</time>
      </trkpt>
      <trkpt lat="42.37272" lon="42.19291">
        <ele>111.577794</ele>
        <time>2021-08-15T01:40:29.368Z</time>
      </trkpt>
      <trkpt lat="42.37338" lon="42.19352">
        <ele>110.021089</ele>
        <time>2021-08-15T01:40:43.853Z</time>
      </trkpt>
      <trkpt lat="42.37348" lon="42.19362">
        <ele>109.783572</ele>
        <time>2021-08-15T01:40:46.185Z</time>
      </trkpt>
      <trkpt lat="42.37516" lon="42.19593">
        <ele>107.423491</ele>
        <time>2021-08-15T01:41:34.618Z</time>
      </trkpt>
      <trkpt lat="42.37562" lon="42.19677">
        <ele>107.683924</ele>
        <time>2021-08-15T01:41:52.481Z</time>
      </trkpt>
      <trkpt lat="42.3757" lon="42.19699">
        <ele>107.743217</ele>
        <time>2021-08-15T01:41:56.797Z</time>
      </trkpt>
      <trkpt lat="42.37578" lon="42.19723">
        <ele>107.809264</ele>
        <time>2021-08-15T01:42:01.695Z</time>
      </trkpt>
      <trkpt lat="42.37588" lon="42.19766">
        <ele>107.920935</ele>
        <time>2021-08-15T01:42:10.151Z</time>
      </trkpt>
      <trkpt lat="42.37591" lon="42.19784">
        <ele>107.966447</ele>
        <time>2021-08-15T01:42:13.787Z</time>
      </trkpt>
      <trkpt lat="42.376" lon="42.19829">
        <ele>108.21798</ele>
        <time>2021-08-15T01:42:22.843Z</time>
      </trkpt>
      <trkpt lat="42.37703" lon="42.20025">
        <ele>110.098551</ele>
        <time>2021-08-15T01:43:12.650Z</time>
      </trkpt>
      <trkpt lat="42.37711" lon="42.20042">
        <ele>110.220024</ele>
        <time>2021-08-15T01:43:17.029Z</time>
      </trkpt>
      <trkpt lat="42.37721" lon="42.20064">
        <ele>110.377206</ele>
        <time>2021-08-15T01:43:21.968Z</time>
      </trkpt>
      <trkpt lat="42.37753" lon="42.20149">
        <ele>110.945772</ele>
        <time>2021-08-15T01:43:40.708Z</time>
      </trkpt>
      <trkpt lat="42.37863" lon="42.20452">
        <ele>112.607065</ele>
        <time>2021-08-15T01:44:43.381Z</time>
      </trkpt>
      <trkpt lat="42.37865" lon="42.20458">
        <ele>112.654677</ele>
        <time>2021-08-15T01:44:45.313Z</time>
      </trkpt>
      <trkpt lat="42.37878" lon="42.20452">
        <ele>112.790553</ele>
        <time>2021-08-15T01:44:50.495Z</time>
      </trkpt>
      <trkpt lat="42.37967" lon="42.2043">
        <ele>113.641591</ele>
        <time>2021-08-15T01:45:27.257Z</time>
      </trkpt>
      <trkpt lat="42.37996" lon="42.20431">
        <ele>113.920828</ele>
        <time>2021-08-15T01:45:39.641Z</time>
      </trkpt>
      <trkpt lat="42.38057" lon="42.20455">
        <ele>114.76141</ele>
        <time>2021-08-15T01:46:07.804Z</time>
      </trkpt>
      <trkpt lat="42.38092" lon="42.20457">
        <ele>115.339136</ele>
        <time>2021-08-15T01:46:23.671Z</time>
      </trkpt>
      <trkpt lat="42.3812" lon="42.2045">
        <ele>115.822458</ele>
        <time>2021-08-15T01:46:37.212Z</time>
      </trkpt>
      <trkpt lat="42.38172" lon="42.20412">
        <ele>116.804121</ele>
        <time>2021-08-15T01:47:04.389Z</time>
      </trkpt>
      <trkpt lat="42.38195" lon="42.20402">
        <ele>117.213572</ele>
        <time>2021-08-15T01:47:15.680Z</time>
      </trkpt>
      <trkpt lat="42.38227" lon="42.20389">
        <ele>117.614894</ele>
        <time>2021-08-15T01:47:30.538Z</time>
      </trkpt>
      <trkpt lat="42.38259" lon="42.20379">
        <ele>118.012281</ele>
        <time>2021-08-15T01:47:45.153Z</time>
      </trkpt>
      <trkpt lat="42.3827" lon="42.20376">
        <ele>118.15202</ele>
        <time>2021-08-15T01:47:50.170Z</time>
      </trkpt>
      <trkpt lat="42.38299" lon="42.20361">
        <ele>118.527285</ele>
        <time>2021-08-15T01:48:03.703Z</time>
      </trkpt>
      <trkpt lat="42.38351" lon="42.20329">
        <ele>119.215824</ele>
        <time>2021-08-15T01:48:27.528Z</time>
      </trkpt>
      <trkpt lat="42.38382" lon="42.20292">
        <ele>119.512891</ele>
        <time>2021-08-15T01:48:44.126Z</time>
      </trkpt>
      <trkpt lat="42.38438" lon="42.20174">
        <ele>119.982471</ele>
        <time>2021-08-15T01:49:24.078Z</time>
      </trkpt>
      <trkpt lat="42.38476" lon="42.20128">
        <ele>120.228562</ele>
        <time>2021-08-15T01:49:43.825Z</time>
      </trkpt>
      <trkpt lat="42.38485" lon="42.20122">
        <ele>120.379036</ele>
        <time>2021-08-15T01:49:48.081Z</time>
      </trkpt>
      <trkpt lat="42.385" lon="42.20112">
        <ele>120.630024</ele>
        <time>2021-08-15T01:49:54.170Z</time>
      </trkpt>
      <trkpt lat="42.38589" lon="42.20055">
        <ele>122.134191</ele>
        <time>2021-08-15T01:50:36.942Z</time>
      </trkpt>
      <trkpt lat="42.38607" lon="42.20048">
        <ele>122.417112</ele>
        <time>2021-08-15T01:50:45.585Z</time>
      </trkpt>
      <trkpt lat="42.38648" lon="42.20046">
        <ele>123.173092</ele>
        <time>2021-08-15T01:51:05.988Z</time>
      </trkpt>
      <trkpt lat="42.38688" lon="42.20056">
        <ele>124.622594</ele>
        <time>2021-08-15T01:51:28.092Z</time>
      </trkpt>
      <trkpt lat="42.38749" lon="42.20098">
        <ele>127.04891</ele>
        <time>2021-08-15T01:52:07.607Z</time>
      </trkpt>
      <trkpt lat="42.38857" lon="42.20108">
        <ele>130.111616</ele>
        <time>2021-08-15T01:53:07.214Z</time>
      </trkpt>
      <trkpt lat="42.38894" lon="42.20104">
        <ele>130.806492</ele>
        <time>2021-08-15T01:53:26.021Z</time>
      </trkpt>
      <trkpt lat="42.39045" lon="42.20025">
        <ele>132.470964</ele>
        <time>2021-08-15T01:54:31.489Z</time>
      </trkpt>
      <trkpt lat="42.39105" lon="42.19977">
        <ele>132.28133</ele>
        <time>2021-08-15T01:54:56.239Z</time>
      </trkpt>
      <trkpt lat="42.39155" lon="42.1996">
        <ele>132.086358</ele>
        <time>2021-08-15T01:55:14.048Z</time>
      </trkpt>
      <trkpt lat="42.39197" lon="42.19964">
        <ele>131.474406</ele>
        <time>2021-08-15T01:55:28.532Z</time>
      </trkpt>
      <trkpt lat="42.39228" lon="42.1999">
        <ele>130.943075</ele>
        <time>2021-08-15T01:55:40.967Z</time>
      </trkpt>
      <trkpt lat="42.39294" lon="42.20076">
        <ele>129.61474</ele>
        <time>2021-08-15T01:56:11.337Z</time>
      </trkpt>
      <trkpt lat="42.39331" lon="42.20087">
        <ele>128.756309</ele>
        <time>2021-08-15T01:56:23.642Z</time>
      </trkpt>
      <trkpt lat="42.39343" lon="42.20084">
        <ele>128.482602</ele>
        <time>2021-08-15T01:56:27.340Z</time>
      </trkpt>
      <trkpt lat="42.39368" lon="42.20062">
        <ele>127.767684</ele>
        <time>2021-08-15T01:56:36.840Z</time>
      </trkpt>
      <trkpt lat="42.39414" lon="42.19993">
        <ele>126.151716</ele>
        <time>2021-08-15T01:56:58.347Z</time>
      </trkpt>
      <trkpt lat="42.39425" lon="42.19966">
        <ele>125.60771</ele>
        <time>2021-08-15T01:57:05.696Z</time>
      </trkpt>
      <trkpt lat="42.39437" lon="42.19912">
        <ele>125.240167</ele>
        <time>2021-08-15T01:57:19.163Z</time>
      </trkpt>
      <trkpt lat="42.39461" lon="42.19865">
        <ele>125.154282</ele>
        <time>2021-08-15T01:57:33.549Z</time>
      </trkpt>
      <trkpt lat="42.39488" lon="42.19842">
        <ele>125.089807</ele>
        <time>2021-08-15T01:57:44.945Z</time>
      </trkpt>
      <trkpt lat="42.39523" lon="42.1983">
        <ele>125.017808</ele>
        <time>2021-08-15T01:57:58.739Z</time>
      </trkpt>
      <trkpt lat="42.39609" lon="42.19819">
        <ele>126.243893</ele>
        <time>2021-08-15T01:58:39.093Z</time>
      </trkpt>
      <trkpt lat="42.39643" lon="42.19829">
        <ele>127.251726</ele>
        <time>2021-08-15T01:58:57.250Z</time>
      </trkpt>
      <trkpt lat="42.39804" lon="42.19925">
        <ele>132.300958</ele>
        <time>2021-08-15T02:00:33.435Z</time>
      </trkpt>
      <trkpt lat="42.39841" lon="42.19954">
        <ele>133.502739</ele>
        <time>2021-08-15T02:00:55.543Z</time>
      </trkpt>
      <trkpt lat="42.39886" lon="42.20009">
        <ele>135.191379</ele>
        <time>2021-08-15T02:01:24.814Z</time>
      </trkpt>
      <trkpt lat="42.3991" lon="42.20024">
        <ele>135.296991</ele>
        <time>2021-08-15T02:01:36.992Z</time>
      </trkpt>
      <trkpt lat="42.39985" lon="42.20051">
        <ele>135.541425</ele>
        <time>2021-08-15T02:02:07.812Z</time>
      </trkpt>
      <trkpt lat="42.40049" lon="42.2006">
        <ele>135.74533</ele>
        <time>2021-08-15T02:02:30.757Z</time>
      </trkpt>
      <trkpt lat="42.40072" lon="42.20054">
        <ele>135.622873</ele>
        <time>2021-08-15T02:02:38.967Z</time>
      </trkpt>
      <trkpt lat="42.40091" lon="42.20046">
        <ele>135.358932</ele>
        <time>2021-08-15T02:02:45.913Z</time>
      </trkpt>
      <trkpt lat="42.40109" lon="42.20032">
        <ele>135.083935</ele>
        <time>2021-08-15T02:02:52.824Z</time>
      </trkpt>
      <trkpt lat="42.40147" lon="42.19962">
        <ele>134.236658</ele>
        <time>2021-08-15T02:03:14.149Z</time>
      </trkpt>
      <trkpt lat="42.40231" lon="42.19821">
        <ele>132.184117</ele>
        <time>2021-08-15T02:03:58.966Z</time>
      </trkpt>
      <trkpt lat="42.40259" lon="42.19769">
        <ele>131.349579</ele>
        <time>2021-08-15T02:04:14.906Z</time>
      </trkpt>
      <trkpt lat="42.40273" lon="42.19748">
        <ele>130.996347</ele>
        <time>2021-08-15T02:04:21.647Z</time>
      </trkpt>
      <trkpt lat="42.40296" lon="42.19705">
        <ele>130.306737</ele>
        <time>2021-08-15T02:04:34.678Z</time>
      </trkpt>
      <trkpt lat="42.40341" lon="42.19643">
        <ele>128.609616</ele>
        <time>2021-08-15T02:04:55.059Z</time>
      </trkpt>
      <trkpt lat="42.4042" lon="42.19562">
        <ele>125.927524</ele>
        <time>2021-08-15T02:05:25.966Z</time>
      </trkpt>
      <trkpt lat="42.40489" lon="42.19479">
        <ele>124.149794</ele>
        <time>2021-08-15T02:05:54.281Z</time>
      </trkpt>
      <trkpt lat="42.40508" lon="42.19456">
        <ele>123.712612</ele>
        <time>2021-08-15T02:06:02.429Z</time>
      </trkpt>
      <trkpt lat="42.4054" lon="42.19427">
        <ele>123.051046</ele>
        <time>2021-08-15T02:06:15.450Z</time>
      </trkpt>
      <trkpt lat="42.40564" lon="42.19404">
        <ele>122.537377</ele>
        <time>2021-08-15T02:06:26.614Z</time>
      </trkpt>
      <trkpt lat="42.40609" lon="42.19352">
        <ele>123.252801</ele>
        <time>2021-08-15T02:06:50.526Z</time>
      </trkpt>
      <trkpt lat="42.40636" lon="42.19319">
        <ele>123.969634</ele>
        <time>2021-08-15T02:07:06.085Z</time>
      </trkpt>
      <trkpt lat="42.40663" lon="42.19294">
        <ele>124.638138</ele>
        <time>2021-08-15T02:07:22.117Z</time>
      </trkpt>
      <trkpt lat="42.40666" lon="42.19289">
        <ele>124.721351</ele>
        <time>2021-08-15T02:07:24.352Z</time>
      </trkpt>
      <trkpt lat="42.40663" lon="42.19277">
        <ele>124.91211</ele>
        <time>2021-08-15T02:07:27.793Z</time>
      </trkpt>
      <trkpt lat="42.40641" lon="42.19268">
        <ele>125.37604</ele>
        <time>2021-08-15T02:07:37.131Z</time>
      </trkpt>
      <trkpt lat="42.40636" lon="42.19255">
        <ele>125.579773</ele>
        <time>2021-08-15T02:07:41.655Z</time>
      </trkpt>
      <trkpt lat="42.40638" lon="42.19245">
        <ele>125.733757</ele>
        <time>2021-08-15T02:07:44.629Z</time>
      </trkpt>
      <trkpt lat="42.40697" lon="42.19032">
        <ele>132.212934</ele>
        <time>2021-08-15T02:08:54.450Z</time>
      </trkpt>
      <trkpt lat="42.40727" lon="42.18975">
        <ele>134.982577</ele>
        <time>2021-08-15T02:09:19.715Z</time>
      </trkpt>
      <trkpt lat="42.40731" lon="42.18958">
        <ele>135.804481</ele>
        <time>2021-08-15T02:09:26.411Z</time>
      </trkpt>
      <trkpt lat="42.40743" lon="42.18914">
        <ele>137.962232</ele>
        <time>2021-08-15T02:09:44.936Z</time>
      </trkpt>
      <trkpt lat="42.4075" lon="42.18887">
        <ele>139.274019</ele>
        <time>2021-08-15T02:09:56.545Z</time>
      </trkpt>
      <trkpt lat="42.40779" lon="42.1882">
        <ele>142.859953</ele>
        <time>2021-08-15T02:10:29.821Z</time>
      </trkpt>
      <trkpt lat="42.40773" lon="42.1881">
        <ele>143.451639</ele>
        <time>2021-08-15T02:10:35.710Z</time>
      </trkpt>
      <trkpt lat="42.40749" lon="42.18803">
        <ele>144.921628</ele>
        <time>2021-08-15T02:10:50.699Z</time>
      </trkpt>
      <trkpt lat="42.40734" lon="42.18788">
        <ele>146.014296</ele>
        <time>2021-08-15T02:11:02.838Z</time>
      </trkpt>
      <trkpt lat="42.40725" lon="42.18727">
        <ele>148.630065</ele>
        <time>2021-08-15T02:11:28.590Z</time>
      </trkpt>
      <trkpt lat="42.40731" lon="42.18617">
        <ele>153.323674</ele>
        <time>2021-08-15T02:12:09.454Z</time>
      </trkpt>
      <trkpt lat="42.4075" lon="42.18586">
        <ele>154.732949</ele>
        <time>2021-08-15T02:12:22.361Z</time>
      </trkpt>
      <trkpt lat="42.40761" lon="42.18524">
        <ele>155.497621</ele>
        <time>2021-08-15T02:12:40.580Z</time>
      </trkpt>
      <trkpt lat="42.40793" lon="42.18499">
        <ele>156.099548</ele>
        <time>2021-08-15T02:12:52.900Z</time>
      </trkpt>
      <trkpt lat="42.40811" lon="42.18475">
        <ele>156.506216</ele>
        <time>2021-08-15T02:13:00.143Z</time>
      </trkpt>
      <trkpt lat="42.40817" lon="42.18438">
        <ele>156.966342</ele>
        <time>2021-08-15T02:13:07.263Z</time>
      </trkpt>
      <trkpt lat="42.40806" lon="42.18414">
        <ele>157.310932</ele>
        <time>2021-08-15T02:13:12.109Z</time>
      </trkpt>
      <trkpt lat="42.40789" lon="42.18399">
        <ele>157.53658</ele>
        <time>2021-08-15T02:13:16.396Z</time>
      </trkpt>
      <trkpt lat="42.40739" lon="42.18381">
        <ele>157.358839</ele>
        <time>2021-08-15T02:13:27.121Z</time>
      </trkpt>
      <trkpt lat="42.40704" lon="42.18359">
        <ele>157.224769</ele>
        <time>2021-08-15T02:13:35.176Z</time>
      </trkpt>
      <trkpt lat="42.40694" lon="42.18341">
        <ele>157.167802</ele>
        <time>2021-08-15T02:13:38.673Z</time>
      </trkpt>
      <trkpt lat="42.40691" lon="42.18293">
        <ele>157.047006</ele>
        <time>2021-08-15T02:13:46.470Z</time>
      </trkpt>
      <trkpt lat="42.40677" lon="42.18243">
        <ele>157.135755</ele>
        <time>2021-08-15T02:13:56.242Z</time>
      </trkpt>
      <trkpt lat="42.40667" lon="42.18212">
        <ele>157.877246</ele>
        <time>2021-08-15T02:14:03.001Z</time>
      </trkpt>
      <trkpt lat="42.40644" lon="42.18166">
        <ele>159.124486</ele>
        <time>2021-08-15T02:14:15.824Z</time>
      </trkpt>
      <trkpt lat="42.40642" lon="42.18141">
        <ele>159.697292</ele>
        <time>2021-08-15T02:14:22.423Z</time>
      </trkpt>
      <trkpt lat="42.40651" lon="42.18026">
        <ele>162.283645</ele>
        <time>2021-08-15T02:14:59.778Z</time>
      </trkpt>
      <trkpt lat="42.40666" lon="42.1796">
        <ele>165.747324</ele>
        <time>2021-08-15T02:15:30.157Z</time>
      </trkpt>
      <trkpt lat="42.40668" lon="42.17903">
        <ele>168.644973</ele>
        <time>2021-08-15T02:15:55.084Z</time>
      </trkpt>
      <trkpt lat="42.40675" lon="42.17877">
        <ele>170.098302</ele>
        <time>2021-08-15T02:16:06.769Z</time>
      </trkpt>
      <trkpt lat="42.40679" lon="42.17863">
        <ele>170.880204</ele>
        <time>2021-08-15T02:16:14.751Z</time>
      </trkpt>
      <trkpt lat="42.40708" lon="42.17853">
        <ele>173.002402</ele>
        <time>2021-08-15T02:16:32.984Z</time>
      </trkpt>
      <trkpt lat="42.40726" lon="42.17848">
        <ele>174.257996</ele>
        <time>2021-08-15T02:16:43.872Z</time>
      </trkpt>
      <trkpt lat="42.40777" lon="42.17853">
        <ele>177.056457</ele>
        <time>2021-08-15T02:17:14.789Z</time>
      </trkpt>
      <trkpt lat="42.40821" lon="42.17819">
        <ele>179.59019</ele>
        <time>2021-08-15T02:17:44.085Z</time>
      </trkpt>
      <trkpt lat="42.40842" lon="42.1781">
        <ele>180.703175</ele>
        <time>2021-08-15T02:17:55.064Z</time>
      </trkpt>
      <trkpt lat="42.40857" lon="42.17814">
        <ele>181.494517</ele>
        <time>2021-08-15T02:18:01.695Z</time>
      </trkpt>
      <trkpt lat="42.40911" lon="42.17856">
        <ele>183.912803</ele>
        <time>2021-08-15T02:18:23.160Z</time>
      </trkpt>
      <trkpt lat="42.40988" lon="42.1786">
        <ele>183.162953</ele>
        <time>2021-08-15T02:18:40.695Z</time>
      </trkpt>
      <trkpt lat="42.4105" lon="42.17889">
        <ele>182.526449</ele>
        <time>2021-08-15T02:18:53.090Z</time>
      </trkpt>
      <trkpt lat="42.41102" lon="42.1792">
        <ele>181.617778</ele>
        <time>2021-08-15T02:19:03.173Z</time>
      </trkpt>
      <trkpt lat="42.41131" lon="42.17952">
        <ele>180.809239</ele>
        <time>2021-08-15T02:19:09.901Z</time>
      </trkpt>
      <trkpt lat="42.41186" lon="42.18048">
        <ele>178.907923</ele>
        <time>2021-08-15T02:19:26.752Z</time>
      </trkpt>
      <trkpt lat="42.41235" lon="42.18103">
        <ele>178.793431</ele>
        <time>2021-08-15T02:19:41.767Z</time>
      </trkpt>
      <trkpt lat="42.41253" lon="42.18136">
        <ele>179.048759</ele>
        <time>2021-08-15T02:19:50.385Z</time>
      </trkpt>
      <trkpt lat="42.41265" lon="42.18143">
        <ele>179.159192</ele>
        <time>2021-08-15T02:19:53.488Z</time>
      </trkpt>
      <trkpt lat="42.4127" lon="42.18147">
        <ele>179.200822</ele>
        <time>2021-08-15T02:19:55.450Z</time>
      </trkpt>
      <trkpt lat="42.41283" lon="42.18128">
        <ele>179.361061</ele>
        <time>2021-08-15T02:20:01.597Z</time>
      </trkpt>
      <trkpt lat="42.41307" lon="42.18099">
        <ele>179.628607</ele>
        <time>2021-08-15T02:20:11.848Z</time>
      </trkpt>
      <trkpt lat="42.41326" lon="42.18065">
        <ele>179.890341</ele>
        <time>2021-08-15T02:20:22.141Z</time>
      </trkpt>
      <trkpt lat="42.41378" lon="42.18006">
        <ele>179.143792</ele>
        <time>2021-08-15T02:20:41.614Z</time>
      </trkpt>
      <trkpt lat="42.41401" lon="42.17956">
        <ele>178.587223</ele>
        <time>2021-08-15T02:20:50.216Z</time>
      </trkpt>
      <trkpt lat="42.41415" lon="42.17905">
        <ele>178.071185</ele>
        <time>2021-08-15T02:20:57.639Z</time>
      </trkpt>
      <trkpt lat="42.41428" lon="42.17877">
        <ele>177.763296</ele>
        <time>2021-08-15T02:21:02.166Z</time>
      </trkpt>
      <trkpt lat="42.41431" lon="42.17865">
        <ele>177.639207</ele>
        <time>2021-08-15T02:21:03.718Z</time>
      </trkpt>
      <trkpt lat="42.41438" lon="42.17822">
        <ele>176.198483</ele>
        <time>2021-08-15T02:21:09.343Z</time>
      </trkpt>
      <trkpt lat="42.41452" lon="42.17794">
        <ele>175.075059</ele>
        <time>2021-08-15T02:21:13.594Z</time>
      </trkpt>
      <trkpt lat="42.41449" lon="42.17783">
        <ele>174.670886</ele>
        <time>2021-08-15T02:21:15.048Z</time>
      </trkpt>
      <trkpt lat="42.41417" lon="42.17735">
        <ele>172.522712</ele>
        <time>2021-08-15T02:21:22.819Z</time>
      </trkpt>
      <trkpt lat="42.41335" lon="42.17662">
        <ele>168.793133</ele>
        <time>2021-08-15T02:21:39.518Z</time>
      </trkpt>
      <trkpt lat="42.41299" lon="42.17614">
        <ele>167.688933</ele>
        <time>2021-08-15T02:21:48.453Z</time>
      </trkpt>
      <trkpt lat="42.4127" lon="42.17441">
        <ele>165.380887</ele>
        <time>2021-08-15T02:22:16.110Z</time>
      </trkpt>
      <trkpt lat="42.41272" lon="42.17351">
        <ele>165.119417</ele>
        <time>2021-08-15T02:22:32.313Z</time>
      </trkpt>
      <trkpt lat="42.41269" lon="42.17312">
        <ele>165.00612</ele>
        <time>2021-08-15T02:22:38.794Z</time>
      </trkpt>
      <trkpt lat="42.41276" lon="42.17293">
        <ele>164.945701</ele>
        <time>2021-08-15T02:22:42.871Z</time>
      </trkpt>
      <trkpt lat="42.41287" lon="42.17269">
        <ele>164.862338</ele>
        <time>2021-08-15T02:22:47.487Z</time>
      </trkpt>
      <trkpt lat="42.41291" lon="42.1726">
        <ele>164.829825</ele>
        <time>2021-08-15T02:22:49.986Z</time>
      </trkpt>
      <trkpt lat="42.41304" lon="42.17247">
        <ele>164.49935</ele>
        <time>2021-08-15T02:22:53.136Z</time>
      </trkpt>
      <trkpt lat="42.41368" lon="42.17156">
        <ele>161.154276</ele>
        <time>2021-08-15T02:23:10.860Z</time>
      </trkpt>
      <trkpt lat="42.41395" lon="42.17102">
        <ele>159.40602</ele>
        <time>2021-08-15T02:23:18.888Z</time>
      </trkpt>
      <trkpt lat="42.41402" lon="42.1709">
        <ele>159.012943</ele>
        <time>2021-08-15T02:23:20.600Z</time>
      </trkpt>
      <trkpt lat="42.41406" lon="42.17082">
        <ele>158.750173</ele>
        <time>2021-08-15T02:23:21.719Z</time>
      </trkpt>
      <trkpt lat="42.41435" lon="42.17008">
        <ele>154.438847</ele>
        <time>2021-08-15T02:23:31.603Z</time>
      </trkpt>
      <trkpt lat="42.41443" lon="42.16984">
        <ele>152.929742</ele>
        <time>2021-08-15T02:23:34.627Z</time>
      </trkpt>
      <trkpt lat="42.41446" lon="42.16952">
        <ele>151.1033</ele>
        <time>2021-08-15T02:23:38.222Z</time>
      </trkpt>
      <trkpt lat="42.4144" lon="42.16906">
        <ele>148.449274</ele>
        <time>2021-08-15T02:23:43.474Z</time>
      </trkpt>
      <trkpt lat="42.41441" lon="42.16874">
        <ele>146.597337</ele>
        <time>2021-08-15T02:23:47.156Z</time>
      </trkpt>
      <trkpt lat="42.41461" lon="42.16721">
        <ele>137.515497</ele>
        <time>2021-08-15T02:24:04.717Z</time>
      </trkpt>
      <trkpt lat="42.41468" lon="42.16636">
        <ele>132.43163</ele>
        <time>2021-08-15T02:24:14.662Z</time>
      </trkpt>
      <trkpt lat="42.41497" lon="42.16519">
        <ele>125.125283</ele>
        <time>2021-08-15T02:24:28.699Z</time>
      </trkpt>
      <trkpt lat="42.41503" lon="42.16398">
        <ele>117.866817</ele>
        <time>2021-08-15T02:24:42.331Z</time>
      </trkpt>
      <trkpt lat="42.41511" lon="42.16376">
        <ele>116.366328</ele>
        <time>2021-08-15T02:24:45.207Z</time>
      </trkpt>
      <trkpt lat="42.41518" lon="42.1635">
        <ele>114.932716</ele>
        <time>2021-08-15T02:24:48.374Z</time>
      </trkpt>
      <trkpt lat="42.41533" lon="42.16324">
        <ele>113.582813</ele>
        <time>2021-08-15T02:24:52.130Z</time>
      </trkpt>
      <trkpt lat="42.41594" lon="42.16206">
        <ele>107.662228</ele>
        <time>2021-08-15T02:25:09.048Z</time>
      </trkpt>
      <trkpt lat="42.41672" lon="42.16115">
        <ele>106.252803</ele>
        <time>2021-08-15T02:25:29.761Z</time>
      </trkpt>
      <trkpt lat="42.41709" lon="42.16088">
        <ele>106.790366</ele>
        <time>2021-08-15T02:25:41.855Z</time>
      </trkpt>
      <trkpt lat="42.41715" lon="42.16087">
        <ele>106.8749</ele>
        <time>2021-08-15T02:25:44.347Z</time>
      </trkpt>
      <trkpt lat="42.41719" lon="42.16086">
        <ele>106.934123</ele>
        <time>2021-08-15T02:25:45.876Z</time>
      </trkpt>
      <trkpt lat="42.41728" lon="42.16086">
        <ele>107.040217</ele>
        <time>2021-08-15T02:25:48.504Z</time>
      </trkpt>
      <trkpt lat="42.41732" lon="42.16086">
        <ele>107.099163</ele>
        <time>2021-08-15T02:25:51.075Z</time>
      </trkpt>
      <trkpt lat="42.41768" lon="42.16091">
        <ele>107.575847</ele>
        <time>2021-08-15T02:26:06.019Z</time>
      </trkpt>
      <trkpt lat="42.41781" lon="42.16101">
        <ele>107.762634</ele>
        <time>2021-08-15T02:26:11.887Z</time>
      </trkpt>
      <trkpt lat="42.4178" lon="42.1611">
        <ele>108.145718</ele>
        <time>2021-08-15T02:26:15.387Z</time>
      </trkpt>
      <trkpt lat="42.41762" lon="42.16138">
        <ele>109.817905</ele>
        <time>2021-08-15T02:26:28.747Z</time>
      </trkpt>
      <trkpt lat="42.41762" lon="42.16153">
        <ele>110.503285</ele>
        <time>2021-08-15T02:26:34.770Z</time>
      </trkpt>
      <trkpt lat="42.41768" lon="42.16164">
        <ele>111.135787</ele>
        <time>2021-08-15T02:26:40.628Z</time>
      </trkpt>
      <trkpt lat="42.41801" lon="42.16179">
        <ele>113.31326</ele>
        <time>2021-08-15T02:27:00.729Z</time>
      </trkpt>
      <trkpt lat="42.41838" lon="42.1621">
        <ele>115.995928</ele>
        <time>2021-08-15T02:27:25.480Z</time>
      </trkpt>
      <trkpt lat="42.41869" lon="42.16224">
        <ele>117.962386</ele>
        <time>2021-08-15T02:27:43.492Z</time>
      </trkpt>
      <trkpt lat="42.41904" lon="42.16226">
        <ele>119.948084</ele>
        <time>2021-08-15T02:28:03.732Z</time>
      </trkpt>
      <trkpt lat="42.41956" lon="42.16209">
        <ele>122.78833</ele>
        <time>2021-08-15T02:28:35.230Z</time>
      </trkpt>
      <trkpt lat="42.42049" lon="42.16193">
        <ele>127.652891</ele>
        <time>2021-08-15T02:29:18.574Z</time>
      </trkpt>
      <trkpt lat="42.42061" lon="42.16193">
        <ele>128.297512</ele>
        <time>2021-08-15T02:29:24.358Z</time>
      </trkpt>
      <trkpt lat="42.4207" lon="42.16195">
        <ele>128.364538</ele>
        <time>2021-08-15T02:29:27.179Z</time>
      </trkpt>
      <trkpt lat="42.42113" lon="42.16197">
        <ele>128.523623</ele>
        <time>2021-08-15T02:29:41.377Z</time>
      </trkpt>
      <trkpt lat="42.42174" lon="42.162">
        <ele>128.74996</ele>
        <time>2021-08-15T02:29:57.493Z</time>
      </trkpt>
      <trkpt lat="42.42205" lon="42.16179">
        <ele>128.878864</ele>
        <time>2021-08-15T02:30:04.866Z</time>
      </trkpt>
      <trkpt lat="42.42239" lon="42.1614">
        <ele>128.565904</ele>
        <time>2021-08-15T02:30:13.147Z</time>
      </trkpt>
      <trkpt lat="42.42261" lon="42.16132">
        <ele>127.71679</ele>
        <time>2021-08-15T02:30:17.346Z</time>
      </trkpt>
      <trkpt lat="42.42335" lon="42.16122">
        <ele>124.994395</ele>
        <time>2021-08-15T02:30:30.473Z</time>
      </trkpt>
      <trkpt lat="42.42418" lon="42.16139">
        <ele>121.586947</ele>
        <time>2021-08-15T02:30:44.634Z</time>
      </trkpt>
      <trkpt lat="42.42475" lon="42.16141">
        <ele>118.101406</ele>
        <time>2021-08-15T02:30:53.875Z</time>
      </trkpt>
      <trkpt lat="42.42508" lon="42.1614">
        <ele>116.064247</ele>
        <time>2021-08-15T02:30:59.172Z</time>
      </trkpt>
      <trkpt lat="42.42506" lon="42.16132">
        <ele>115.669764</ele>
        <time>2021-08-15T02:31:01.035Z</time>
      </trkpt>
      <trkpt lat="42.42533" lon="42.16113">
        <ele>113.839291</ele>
        <time>2021-08-15T02:31:05.526Z</time>
      </trkpt>
      <trkpt lat="42.42663" lon="42.16061">
        <ele>105.762599</ele>
        <time>2021-08-15T02:31:25.881Z</time>
      </trkpt>
      <trkpt lat="42.42733" lon="42.15992">
        <ele>100.759698</ele>
        <time>2021-08-15T02:31:39.392Z</time>
      </trkpt>
      <trkpt lat="42.42848" lon="42.15763">
        <ele>97.118307</ele>
        <time>2021-08-15T02:32:17.377Z</time>
      </trkpt>
      <trkpt lat="42.42852" lon="42.15755">
        <ele>97.174391</ele>
        <time>2021-08-15T02:32:19.920Z</time>
      </trkpt>
      <trkpt lat="42.42853" lon="42.15741">
        <ele>97.255035</ele>
        <time>2021-08-15T02:32:22.442Z</time>
      </trkpt>
      <trkpt lat="42.42852" lon="42.1572">
        <ele>97.378304</ele>
        <time>2021-08-15T02:32:25.715Z</time>
      </trkpt>
      <trkpt lat="42.42833" lon="42.15639">
        <ele>97.880318</ele>
        <time>2021-08-15T02:32:43.592Z</time>
      </trkpt>
      <trkpt lat="42.42803" lon="42.15549">
        <ele>98.756901</ele>
        <time>2021-08-15T02:33:07.503Z</time>
      </trkpt>
      <trkpt lat="42.42795" lon="42.1551">
        <ele>99.577685</ele>
        <time>2021-08-15T02:33:17.158Z</time>
      </trkpt>
      <trkpt lat="42.42794" lon="42.15501">
        <ele>99.761473</ele>
        <time>2021-08-15T02:33:19.265Z</time>
      </trkpt>
      <trkpt lat="42.42794" lon="42.15497">
        <ele>99.857555</ele>
        <time>2021-08-15T02:33:20.893Z</time>
      </trkpt>
      <trkpt lat="42.42793" lon="42.1538">
        <ele>102.225533</ele>
        <time>2021-08-15T02:33:51.319Z</time>
      </trkpt>
      <trkpt lat="42.42839" lon="42.15258">
        <ele>105.597859</ele>
        <time>2021-08-15T02:34:32.969Z</time>
      </trkpt>
      <trkpt lat="42.42868" lon="42.15146">
        <ele>108.877178</ele>
        <time>2021-08-15T02:35:09.407Z</time>
      </trkpt>
      <trkpt lat="42.42874" lon="42.15116">
        <ele>109.723264</ele>
        <time>2021-08-15T02:35:19.151Z</time>
      </trkpt>
      <trkpt lat="42.42878" lon="42.15095">
        <ele>110.162834</ele>
        <time>2021-08-15T02:35:24.930Z</time>
      </trkpt>
      <trkpt lat="42.42888" lon="42.15056">
        <ele>110.811989</ele>
        <time>2021-08-15T02:35:37.310Z</time>
      </trkpt>
      <trkpt lat="42.4289" lon="42.15046">
        <ele>110.977424</ele>
        <time>2021-08-15T02:35:40.906Z</time>
      </trkpt>
      <trkpt lat="42.42905" lon="42.15012">
        <ele>111.601792</ele>
        <time>2021-08-15T02:35:51.768Z</time>
      </trkpt>
      <trkpt lat="42.42965" lon="42.14948">
        <ele>113.218471</ele>
        <time>2021-08-15T02:36:18.026Z</time>
      </trkpt>
      <trkpt lat="42.42989" lon="42.14921">
        <ele>113.655833</ele>
        <time>2021-08-15T02:36:24.582Z</time>
      </trkpt>
      <trkpt lat="42.42996" lon="42.14916">
        <ele>113.394857</ele>
        <time>2021-08-15T02:36:26.165Z</time>
      </trkpt>
      <trkpt lat="42.43004" lon="42.14911">
        <ele>113.11453</ele>
        <time>2021-08-15T02:36:27.915Z</time>
      </trkpt>
      <trkpt lat="42.4302" lon="42.149">
        <ele>112.515557</ele>
        <time>2021-08-15T02:36:31.382Z</time>
      </trkpt>
      <trkpt lat="42.43082" lon="42.14842">
        <ele>110.091922</ele>
        <time>2021-08-15T02:36:44.289Z</time>
      </trkpt>
      <trkpt lat="42.43106" lon="42.14828">
        <ele>109.262634</ele>
        <time>2021-08-15T02:36:48.537Z</time>
      </trkpt>
      <trkpt lat="42.43124" lon="42.1482">
        <ele>108.643962</ele>
        <time>2021-08-15T02:36:51.487Z</time>
      </trkpt>
      <trkpt lat="42.43148" lon="42.14812">
        <ele>107.715638</ele>
        <time>2021-08-15T02:36:55.391Z</time>
      </trkpt>
      <trkpt lat="42.43201" lon="42.14771">
        <ele>104.119388</ele>
        <time>2021-08-15T02:37:04.623Z</time>
      </trkpt>
      <trkpt lat="42.43258" lon="42.14754">
        <ele>100.695451</ele>
        <time>2021-08-15T02:37:13.270Z</time>
      </trkpt>
      <trkpt lat="42.43314" lon="42.14748">
        <ele>97.352301</ele>
        <time>2021-08-15T02:37:22.140Z</time>
      </trkpt>
      <trkpt lat="42.43366" lon="42.14768">
        <ele>96.267954</ele>
        <time>2021-08-15T02:37:31.157Z</time>
      </trkpt>
      <trkpt lat="42.43381" lon="42.14771">
        <ele>95.958634</ele>
        <time>2021-08-15T02:37:33.779Z</time>
      </trkpt>
      <trkpt lat="42.43401" lon="42.14764">
        <ele>95.547999</ele>
        <time>2021-08-15T02:37:37.514Z</time>
      </trkpt>
      <trkpt lat="42.4341" lon="42.14757">
        <ele>95.331486</ele>
        <time>2021-08-15T02:37:39.391Z</time>
      </trkpt>
      <trkpt lat="42.43436" lon="42.14731">
        <ele>94.690222</ele>
        <time>2021-08-15T02:37:45.564Z</time>
      </trkpt>
      <trkpt lat="42.43464" lon="42.14704">
        <ele>94.00715</ele>
        <time>2021-08-15T02:37:52.922Z</time>
      </trkpt>
      <trkpt lat="42.43491" lon="42.14673">
        <ele>94.234062</ele>
        <time>2021-08-15T02:38:02.937Z</time>
      </trkpt>
      <trkpt lat="42.43524" lon="42.14611">
        <ele>95.476859</ele>
        <time>2021-08-15T02:38:20.953Z</time>
      </trkpt>
      <trkpt lat="42.43556" lon="42.14581">
        <ele>96.331434</ele>
        <time>2021-08-15T02:38:35.420Z</time>
      </trkpt>
      <trkpt lat="42.43581" lon="42.14565">
        <ele>96.9385</ele>
        <time>2021-08-15T02:38:45.963Z</time>
      </trkpt>
      <trkpt lat="42.43602" lon="42.14554">
        <ele>97.43033</ele>
        <time>2021-08-15T02:38:54.467Z</time>
      </trkpt>
      <trkpt lat="42.43655" lon="42.14528">
        <ele>98.422441</ele>
        <time>2021-08-15T02:39:15.497Z</time>
      </trkpt>
      <trkpt lat="42.43702" lon="42.14513">
        <ele>99.194237</ele>
        <time>2021-08-15T02:39:31.790Z</time>
      </trkpt>
      <trkpt lat="42.43777" lon="42.14509">
        <ele>100.414786</ele>
        <time>2021-08-15T02:39:52.294Z</time>
      </trkpt>
      <trkpt lat="42.438" lon="42.1451">
        <ele>100.463356</ele>
        <time>2021-08-15T02:39:57.711Z</time>
      </trkpt>
      <trkpt lat="42.43815" lon="42.1451">
        <ele>100.271434</ele>
        <time>2021-08-15T02:40:00.680Z</time>
      </trkpt>
      <trkpt lat="42.43921" lon="42.14501">
        <ele>98.883823</ele>
        <time>2021-08-15T02:40:20.643Z</time>
      </trkpt>
      <trkpt lat="42.43972" lon="42.14513">
        <ele>98.239342</ele>
        <time>2021-08-15T02:40:30.170Z</time>
      </trkpt>
      <trkpt lat="42.43991" lon="42.14508">
        <ele>98.12781</ele>
        <time>2021-08-15T02:40:33.653Z</time>
      </trkpt>
      <trkpt lat="42.4401" lon="42.14484">
        <ele>97.980335</ele>
        <time>2021-08-15T02:40:38.900Z</time>
      </trkpt>
      <trkpt lat="42.44018" lon="42.14473">
        <ele>97.919096</ele>
        <time>2021-08-15T02:40:40.721Z</time>
      </trkpt>
      <trkpt lat="42.44021" lon="42.1447">
        <ele>97.899417</ele>
        <time>2021-08-15T02:40:41.372Z</time>
      </trkpt>
      <trkpt lat="42.44049" lon="42.14443">
        <ele>97.702182</ele>
        <time>2021-08-15T02:40:48.275Z</time>
      </trkpt>
      <trkpt lat="42.44054" lon="42.14445">
        <ele>97.673476</ele>
        <time>2021-08-15T02:40:49.928Z</time>
      </trkpt>
      <trkpt lat="42.44161" lon="42.14478">
        <ele>98.30247</ele>
        <time>2021-08-15T02:41:16.265Z</time>
      </trkpt>
      <trkpt lat="42.44235" lon="42.14574">
        <ele>101.551904</ele>
        <time>2021-08-15T02:41:56.380Z</time>
      </trkpt>
      <trkpt lat="42.44325" lon="42.14629">
        <ele>106.20408</ele>
        <time>2021-08-15T02:42:43.484Z</time>
      </trkpt>
      <trkpt lat="42.44402" lon="42.14617">
        <ele>110.731179</ele>
        <time>2021-08-15T02:43:24.912Z</time>
      </trkpt>
      <trkpt lat="42.44489" lon="42.14568">
        <ele>116.299651</ele>
        <time>2021-08-15T02:44:16.723Z</time>
      </trkpt>
      <trkpt lat="42.44544" lon="42.14552">
        <ele>119.667442</ele>
        <time>2021-08-15T02:44:47.008Z</time>
      </trkpt>
      <trkpt lat="42.44691" lon="42.14566">
        <ele>126.982814</ele>
        <time>2021-08-15T02:45:58.822Z</time>
      </trkpt>
      <trkpt lat="42.44695" lon="42.14567">
        <ele>127.133956</ele>
        <time>2021-08-15T02:46:01.564Z</time>
      </trkpt>
      <trkpt lat="42.4471" lon="42.14569">
        <ele>127.762752</ele>
        <time>2021-08-15T02:46:07.498Z</time>
      </trkpt>
      <trkpt lat="42.44752" lon="42.14577">
        <ele>129.427065</ele>
        <time>2021-08-15T02:46:23.675Z</time>
      </trkpt>
      <trkpt lat="42.4482" lon="42.14613">
        <ele>131.812144</ele>
        <time>2021-08-15T02:46:49.219Z</time>
      </trkpt>
      <trkpt lat="42.44847" lon="42.14642">
        <ele>132.504533</ele>
        <time>2021-08-15T02:47:00.282Z</time>
      </trkpt>
      <trkpt lat="42.44859" lon="42.14665">
        <ele>132.919484</ele>
        <time>2021-08-15T02:47:06.585Z</time>
      </trkpt>
      <trkpt lat="42.44864" lon="42.14672">
        <ele>133.054931</ele>
        <time>2021-08-15T02:47:08.659Z</time>
      </trkpt>
      <trkpt lat="42.44867" lon="42.14676">
        <ele>133.142428</ele>
        <time>2021-08-15T02:47:09.779Z</time>
      </trkpt>
      <trkpt lat="42.44908" lon="42.14699">
        <ele>134.029751</ele>
        <time>2021-08-15T02:47:23.658Z</time>
      </trkpt>
      <trkpt lat="42.44964" lon="42.14711">
        <ele>135.247717</ele>
        <time>2021-08-15T02:47:41.602Z</time>
      </trkpt>
      <trkpt lat="42.44974" lon="42.14713">
        <ele>135.495341</ele>
        <time>2021-08-15T02:47:44.446Z</time>
      </trkpt>
      <trkpt lat="42.44983" lon="42.14716">
        <ele>135.751016</ele>
        <time>2021-08-15T02:47:48.413Z</time>
      </trkpt>
      <trkpt lat="42.4501" lon="42.14723">
        <ele>136.453632</ele>
        <time>2021-08-15T02:47:56.818Z</time>
      </trkpt>
      <trkpt lat="42.45047" lon="42.14744">
        <ele>137.507476</ele>
        <time>2021-08-15T02:48:11.128Z</time>
      </trkpt>
      <trkpt lat="42.45085" lon="42.14779">
        <ele>138.713148</ele>
        <time>2021-08-15T02:48:28.374Z</time>
      </trkpt>
      <trkpt lat="42.4516" lon="42.14808">
        <ele>140.942481</ele>
        <time>2021-08-15T02:48:57.965Z</time>
      </trkpt>
      <trkpt lat="42.45197" lon="42.14873">
        <ele>142.79733</ele>
        <time>2021-08-15T02:49:20.942Z</time>
      </trkpt>
      <trkpt lat="42.45285" lon="42.1496">
        <ele>145.830363</ele>
        <time>2021-08-15T02:50:01.552Z</time>
      </trkpt>
      <trkpt lat="42.45328" lon="42.14959">
        <ele>146.78279</ele>
        <time>2021-08-15T02:50:16.941Z</time>
      </trkpt>
      <trkpt lat="42.45371" lon="42.14944">
        <ele>147.764512</ele>
        <time>2021-08-15T02:50:31.818Z</time>
      </trkpt>
      <trkpt lat="42.45457" lon="42.14935">
        <ele>149.186071</ele>
        <time>2021-08-15T02:50:57.409Z</time>
      </trkpt>
      <trkpt lat="42.4555" lon="42.14963">
        <ele>149.697947</ele>
        <time>2021-08-15T02:51:20.786Z</time>
      </trkpt>
      <trkpt lat="42.45614" lon="42.14961">
        <ele>150.17972</ele>
        <time>2021-08-15T02:51:34.367Z</time>
      </trkpt>
      <trkpt lat="42.45678" lon="42.15">
        <ele>151.716538</ele>
        <time>2021-08-15T02:51:52.596Z</time>
      </trkpt>
      <trkpt lat="42.45705" lon="42.15017">
        <ele>152.355825</ele>
        <time>2021-08-15T02:52:02.087Z</time>
      </trkpt>
      <trkpt lat="42.45716" lon="42.15028">
        <ele>152.662394</ele>
        <time>2021-08-15T02:52:06.997Z</time>
      </trkpt>
      <trkpt lat="42.4575" lon="42.15109">
        <ele>154.352961</ele>
        <time>2021-08-15T02:52:37.412Z</time>
      </trkpt>
      <trkpt lat="42.4576" lon="42.15122">
        <ele>154.952438</ele>
        <time>2021-08-15T02:52:43.983Z</time>
      </trkpt>
      <trkpt lat="42.45773" lon="42.15132">
        <ele>155.536988</ele>
        <time>2021-08-15T02:52:51.036Z</time>
      </trkpt>
      <trkpt lat="42.45836" lon="42.15162">
        <ele>158.270347</ele>
        <time>2021-08-15T02:53:21.475Z</time>
      </trkpt>
      <trkpt lat="42.45856" lon="42.15171">
        <ele>159.148078</ele>
        <time>2021-08-15T02:53:31.237Z</time>
      </trkpt>
      <trkpt lat="42.45861" lon="42.15173">
        <ele>159.370233</ele>
        <time>2021-08-15T02:53:33.623Z</time>
      </trkpt>
      <trkpt lat="42.45915" lon="42.15186">
        <ele>161.344731</ele>
        <time>2021-08-15T02:53:56.992Z</time>
      </trkpt>
      <trkpt lat="42.4598" lon="42.15214">
        <ele>161.801185</ele>
        <time>2021-08-15T02:54:13.811Z</time>
      </trkpt>
      <trkpt lat="42.46078" lon="42.15218">
        <ele>162.462047</ele>
        <time>2021-08-15T02:54:33.828Z</time>
      </trkpt>
      <trkpt lat="42.46102" lon="42.15224">
        <ele>162.976687</ele>
        <time>2021-08-15T02:54:40.686Z</time>
      </trkpt>
      <trkpt lat="42.46116" lon="42.15232">
        <ele>163.37816</ele>
        <time>2021-08-15T02:54:44.961Z</time>
      </trkpt>
      <trkpt lat="42.46118" lon="42.15233">
        <ele>163.434118</ele>
        <time>2021-08-15T02:54:45.556Z</time>
      </trkpt>
      <trkpt lat="42.46119" lon="42.15234">
        <ele>163.484109</ele>
        <time>2021-08-15T02:54:46.113Z</time>
      </trkpt>
      <trkpt lat="42.46146" lon="42.15256">
        <ele>164.312061</ele>
        <time>2021-08-15T02:54:56.471Z</time>
      </trkpt>
      <trkpt lat="42.46188" lon="42.15286">
        <ele>165.540732</ele>
        <time>2021-08-15T02:55:13.539Z</time>
      </trkpt>
      <trkpt lat="42.46202" lon="42.1529">
        <ele>165.907055</ele>
        <time>2021-08-15T02:55:18.962Z</time>
      </trkpt>
      <trkpt lat="42.46218" lon="42.15295">
        <ele>166.356852</ele>
        <time>2021-08-15T02:55:25.825Z</time>
      </trkpt>
      <trkpt lat="42.46245" lon="42.15309">
        <ele>167.12236</ele>
        <time>2021-08-15T02:55:38.419Z</time>
      </trkpt>
      <trkpt lat="42.46307" lon="42.15355">
        <ele>170.068087</ele>
        <time>2021-08-15T02:56:11.712Z</time>
      </trkpt>
      <trkpt lat="42.46335" lon="42.15402">
        <ele>171.969648</ele>
        <time>2021-08-15T02:56:32.692Z</time>
      </trkpt>
      <trkpt lat="42.46377" lon="42.15497">
        <ele>174.983778</ele>
        <time>2021-08-15T02:57:06.979Z</time>
      </trkpt>
      <trkpt lat="42.4639" lon="42.15532">
        <ele>175.128433</ele>
        <time>2021-08-15T02:57:17.078Z</time>
      </trkpt>
      <trkpt lat="42.46399" lon="42.15547">
        <ele>175.199212</ele>
        <time>2021-08-15T02:57:21.872Z</time>
      </trkpt>
      <trkpt lat="42.46413" lon="42.15567">
        <ele>175.301676</ele>
        <time>2021-08-15T02:57:28.054Z</time>
      </trkpt>
      <trkpt lat="42.46429" lon="42.15579">
        <ele>175.390192</ele>
        <time>2021-08-15T02:57:33.382Z</time>
      </trkpt>
      <trkpt lat="42.46462" lon="42.15584">
        <ele>175.560377</ele>
        <time>2021-08-15T02:57:41.601Z</time>
      </trkpt>
      <trkpt lat="42.46468" lon="42.15584">
        <ele>175.590034</ele>
        <time>2021-08-15T02:57:43.762Z</time>
      </trkpt>
      <trkpt lat="42.46477" lon="42.1559">
        <ele>175.641817</ele>
        <time>2021-08-15T02:57:45.884Z</time>
      </trkpt>
      <trkpt lat="42.46579" lon="42.15671">
        <ele>170.537865</ele>
        <time>2021-08-15T02:58:06.230Z</time>
      </trkpt>
      <trkpt lat="42.46646" lon="42.1568">
        <ele>166.227148</ele>
        <time>2021-08-15T02:58:16.692Z</time>
      </trkpt>
      <trkpt lat="42.46681" lon="42.15674">
        <ele>163.783753</ele>
        <time>2021-08-15T02:58:21.987Z</time>
      </trkpt>
      <trkpt lat="42.46683" lon="42.15676">
        <ele>163.492519</ele>
        <time>2021-08-15T02:58:22.391Z</time>
      </trkpt>
      <trkpt lat="42.46685" lon="42.15672">
        <ele>163.144772</ele>
        <time>2021-08-15T02:58:22.872Z</time>
      </trkpt>
      <trkpt lat="42.46708" lon="42.15639">
        <ele>159.819499</ele>
        <time>2021-08-15T02:58:27.910Z</time>
      </trkpt>
      <trkpt lat="42.46716" lon="42.15616">
        <ele>157.971655</ele>
        <time>2021-08-15T02:58:30.745Z</time>
      </trkpt>
      <trkpt lat="42.46735" lon="42.15586">
        <ele>155.11195</ele>
        <time>2021-08-15T02:58:34.958Z</time>
      </trkpt>
      <trkpt lat="42.46788" lon="42.15579">
        <ele>149.832505</ele>
        <time>2021-08-15T02:58:42.856Z</time>
      </trkpt>
      <trkpt lat="42.46916" lon="42.15528">
        <ele>139.945772</ele>
        <time>2021-08-15T02:59:03.191Z</time>
      </trkpt>
      <trkpt lat="42.46934" lon="42.15527">
        <ele>138.77642</ele>
        <time>2021-08-15T02:59:06.103Z</time>
      </trkpt>
      <trkpt lat="42.46938" lon="42.15508">
        <ele>137.854389</ele>
        <time>2021-08-15T02:59:08.405Z</time>
      </trkpt>
      <trkpt lat="42.46948" lon="42.15486">
        <ele>136.599435</ele>
        <time>2021-08-15T02:59:11.715Z</time>
      </trkpt>
      <trkpt lat="42.46956" lon="42.1547">
        <ele>135.632815</ele>
        <time>2021-08-15T02:59:14.178Z</time>
      </trkpt>
      <trkpt lat="42.4696" lon="42.15461">
        <ele>135.149158</ele>
        <time>2021-08-15T02:59:15.552Z</time>
      </trkpt>
      <trkpt lat="42.46978" lon="42.15439">
        <ele>134.859381</ele>
        <time>2021-08-15T02:59:20.207Z</time>
      </trkpt>
      <trkpt lat="42.46986" lon="42.15415">
        <ele>135.034278</ele>
        <time>2021-08-15T02:59:23.996Z</time>
      </trkpt>
      <trkpt lat="42.46977" lon="42.15316">
        <ele>135.689932</ele>
        <time>2021-08-15T02:59:42.434Z</time>
      </trkpt>
      <trkpt lat="42.46989" lon="42.15298">
        <ele>135.853475</ele>
        <time>2021-08-15T02:59:49.607Z</time>
      </trkpt>
      <trkpt lat="42.47003" lon="42.1529">
        <ele>135.98639</ele>
        <time>2021-08-15T02:59:54.572Z</time>
      </trkpt>
      <trkpt lat="42.47013" lon="42.15288">
        <ele>136.074686</ele>
        <time>2021-08-15T02:59:58.973Z</time>
      </trkpt>
      <trkpt lat="42.47022" lon="42.15285">
        <ele>136.161791</ele>
        <time>2021-08-15T03:00:03.974Z</time>
      </trkpt>
      <trkpt lat="42.47099" lon="42.15271">
        <ele>139.430833</ele>
        <time>2021-08-15T03:00:38.584Z</time>
      </trkpt>
      <trkpt lat="42.47153" lon="42.15237">
        <ele>142.474923</ele>
        <time>2021-08-15T03:01:08.123Z</time>
      </trkpt>
      <trkpt lat="42.47182" lon="42.15227">
        <ele>144.006425</ele>
        <time>2021-08-15T03:01:23.559Z</time>
      </trkpt>
      <trkpt lat="42.47279" lon="42.15217">
        <ele>150.526144</ele>
        <time>2021-08-15T03:02:16.592Z</time>
      </trkpt>
      <trkpt lat="42.47339" lon="42.1523">
        <ele>154.910435</ele>
        <time>2021-08-15T03:02:53.598Z</time>
      </trkpt>
      <trkpt lat="42.47387" lon="42.15214">
        <ele>158.56228</ele>
        <time>2021-08-15T03:03:25.907Z</time>
      </trkpt>
      <trkpt lat="42.47456" lon="42.15173">
        <ele>162.781007</ele>
        <time>2021-08-15T03:04:15.588Z</time>
      </trkpt>
      <trkpt lat="42.47498" lon="42.1516">
        <ele>165.18234</ele>
        <time>2021-08-15T03:04:38.126Z</time>
      </trkpt>
      <trkpt lat="42.47532" lon="42.15159">
        <ele>167.10524</ele>
        <time>2021-08-15T03:04:53.107Z</time>
      </trkpt>
      <trkpt lat="42.4755" lon="42.15158">
        <ele>168.138955</ele>
        <time>2021-08-15T03:05:01.098Z</time>
      </trkpt>
      <trkpt lat="42.47549" lon="42.15151">
        <ele>168.416582</ele>
        <time>2021-08-15T03:05:02.623Z</time>
      </trkpt>
      <trkpt lat="42.47596" lon="42.15094">
        <ele>166.735253</ele>
        <time>2021-08-15T03:05:17.191Z</time>
      </trkpt>
      <trkpt lat="42.47608" lon="42.15078">
        <ele>166.1551</ele>
        <time>2021-08-15T03:05:20.166Z</time>
      </trkpt>
      <trkpt lat="42.47625" lon="42.15036">
        <ele>164.89243</ele>
        <time>2021-08-15T03:05:26.357Z</time>
      </trkpt>
      <trkpt lat="42.47674" lon="42.14973">
        <ele>162.48252</ele>
        <time>2021-08-15T03:05:36.999Z</time>
      </trkpt>
      <trkpt lat="42.47808" lon="42.14814">
        <ele>148.076047</ele>
        <time>2021-08-15T03:06:04.107Z</time>
      </trkpt>
      <trkpt lat="42.47863" lon="42.14766">
        <ele>144.320102</ele>
        <time>2021-08-15T03:06:14.274Z</time>
      </trkpt>
      <trkpt lat="42.47936" lon="42.14671">
        <ele>138.680406</ele>
        <time>2021-08-15T03:06:31.126Z</time>
      </trkpt>
      <trkpt lat="42.47957" lon="42.14655">
        <ele>137.530128</ele>
        <time>2021-08-15T03:06:35.532Z</time>
      </trkpt>
      <trkpt lat="42.48002" lon="42.14651">
        <ele>136.749477</ele>
        <time>2021-08-15T03:06:43.953Z</time>
      </trkpt>
      <trkpt lat="42.48026" lon="42.14627">
        <ele>136.250069</ele>
        <time>2021-08-15T03:06:49.561Z</time>
      </trkpt>
      <trkpt lat="42.4805" lon="42.14592">
        <ele>135.629498</ele>
        <time>2021-08-15T03:06:56.803Z</time>
      </trkpt>
      <trkpt lat="42.48103" lon="42.14562">
        <ele>134.639145</ele>
        <time>2021-08-15T03:07:09.053Z</time>
      </trkpt>
      <trkpt lat="42.48115" lon="42.14556">
        <ele>134.520389</ele>
        <time>2021-08-15T03:07:11.750Z</time>
      </trkpt>
      <trkpt lat="42.48116" lon="42.14543">
        <ele>134.510618</ele>
        <time>2021-08-15T03:07:13.835Z</time>
      </trkpt>
      <trkpt lat="42.48121" lon="42.14527">
        <ele>134.49701</ele>
        <time>2021-08-15T03:07:16.772Z</time>
      </trkpt>
      <trkpt lat="42.48115" lon="42.14508">
        <ele>134.481151</ele>
        <time>2021-08-15T03:07:20.202Z</time>
      </trkpt>
      <trkpt lat="42.48099" lon="42.14419">
        <ele>134.411635</ele>
        <time>2021-08-15T03:07:35.507Z</time>
      </trkpt>
      <trkpt lat="42.48097" lon="42.14332">
        <ele>134.344673</ele>
        <time>2021-08-15T03:07:50.746Z</time>
      </trkpt>
      <trkpt lat="42.4809" lon="42.14305">
        <ele>134.528469</ele>
        <time>2021-08-15T03:07:55.924Z</time>
      </trkpt>
      <trkpt lat="42.48092" lon="42.14249">
        <ele>135.012701</ele>
        <time>2021-08-15T03:08:06.926Z</time>
      </trkpt>
      <trkpt lat="42.48069" lon="42.14185">
        <ele>135.615585</ele>
        <time>2021-08-15T03:08:21.545Z</time>
      </trkpt>
      <trkpt lat="42.48065" lon="42.1418">
        <ele>135.679915</ele>
        <time>2021-08-15T03:08:23.129Z</time>
      </trkpt>
      <trkpt lat="42.48064" lon="42.14178">
        <ele>135.707794</ele>
        <time>2021-08-15T03:08:24.157Z</time>
      </trkpt>
      <trkpt lat="42.48017" lon="42.14136">
        <ele>136.359337</ele>
        <time>2021-08-15T03:08:41.378Z</time>
      </trkpt>
      <trkpt lat="42.48008" lon="42.14112">
        <ele>136.864701</ele>
        <time>2021-08-15T03:08:47.986Z</time>
      </trkpt>
      <trkpt lat="42.48009" lon="42.1409">
        <ele>137.358342</ele>
        <time>2021-08-15T03:08:53.110Z</time>
      </trkpt>
      <trkpt lat="42.48057" lon="42.13994">
        <ele>140.043952</ele>
        <time>2021-08-15T03:09:27.397Z</time>
      </trkpt>
      <trkpt lat="42.48057" lon="42.13956">
        <ele>140.919319</ele>
        <time>2021-08-15T03:09:38.956Z</time>
      </trkpt>
      <trkpt lat="42.48051" lon="42.13915">
        <ele>141.898662</ele>
        <time>2021-08-15T03:09:51.263Z</time>
      </trkpt>
      <trkpt lat="42.4805" lon="42.13907">
        <ele>142.093077</ele>
        <time>2021-08-15T03:09:54.236Z</time>
      </trkpt>
      <trkpt lat="42.4805" lon="42.13889">
        <ele>142.625873</ele>
        <time>2021-08-15T03:09:58.861Z</time>
      </trkpt>
      <trkpt lat="42.4805" lon="42.13879">
        <ele>142.924753</ele>
        <time>2021-08-15T03:10:01.801Z</time>
      </trkpt>
      <trkpt lat="42.4805" lon="42.13879">
        <ele>142.94123</ele>
        <time>2021-08-15T03:10:02.401Z</time>
      </trkpt>
      <trkpt lat="42.48069" lon="42.1385">
        <ele>144.082307</ele>
        <time>2021-08-15T03:10:15.144Z</time>
      </trkpt>
      <trkpt lat="42.48103" lon="42.13822">
        <ele>145.709225</ele>
        <time>2021-08-15T03:10:33.213Z</time>
      </trkpt>
      <trkpt lat="42.48161" lon="42.13762">
        <ele>148.679679</ele>
        <time>2021-08-15T03:11:05.846Z</time>
      </trkpt>
      <trkpt lat="42.48168" lon="42.13754">
        <ele>149.021591</ele>
        <time>2021-08-15T03:11:11.041Z</time>
      </trkpt>
      <trkpt lat="42.48175" lon="42.13746">
        <ele>149.375618</ele>
        <time>2021-08-15T03:11:14.180Z</time>
      </trkpt>
      <trkpt lat="42.48183" lon="42.13733">
        <ele>149.631979</ele>
        <time>2021-08-15T03:11:19.028Z</time>
      </trkpt>
      <trkpt lat="42.48196" lon="42.13689">
        <ele>150.325711</ele>
        <time>2021-08-15T03:11:32.114Z</time>
      </trkpt>
      <trkpt lat="42.482" lon="42.13655">
        <ele>150.838582</ele>
        <time>2021-08-15T03:11:41.568Z</time>
      </trkpt>
      <trkpt lat="42.48194" lon="42.13624">
        <ele>151.305062</ele>
        <time>2021-08-15T03:11:50.054Z</time>
      </trkpt>
      <trkpt lat="42.48159" lon="42.13531">
        <ele>152.84882</ele>
        <time>2021-08-15T03:12:12.384Z</time>
      </trkpt>
      <trkpt lat="42.48156" lon="42.13511">
        <ele>152.98882</ele>
        <time>2021-08-15T03:12:15.528Z</time>
      </trkpt>
      <trkpt lat="42.48161" lon="42.13472">
        <ele>153.089982</ele>
        <time>2021-08-15T03:12:21.740Z</time>
      </trkpt>
      <trkpt lat="42.48171" lon="42.13447">
        <ele>153.162992</ele>
        <time>2021-08-15T03:12:26.244Z</time>
      </trkpt>
      <trkpt lat="42.48175" lon="42.13436">
        <ele>153.194432</ele>
        <time>2021-08-15T03:12:29.897Z</time>
      </trkpt>
      <trkpt lat="42.4818" lon="42.13421">
        <ele>153.238185</ele>
        <time>2021-08-15T03:12:32.592Z</time>
      </trkpt>
      <trkpt lat="42.48187" lon="42.13395">
        <ele>153.3092</ele>
        <time>2021-08-15T03:12:38.259Z</time>
      </trkpt>
      <trkpt lat="42.48189" lon="42.1339">
        <ele>153.323355</ele>
        <time>2021-08-15T03:12:39.407Z</time>
      </trkpt>
      <trkpt lat="42.48228" lon="42.1332">
        <ele>153.546449</ele>
        <time>2021-08-15T03:12:55.134Z</time>
      </trkpt>
      <trkpt lat="42.48232" lon="42.1331">
        <ele>153.576958</ele>
        <time>2021-08-15T03:12:58.032Z</time>
      </trkpt>
      <trkpt lat="42.48238" lon="42.13298">
        <ele>153.643447</ele>
        <time>2021-08-15T03:13:00.348Z</time>
      </trkpt>
      <trkpt lat="42.48249" lon="42.13285">
        <ele>153.73475</ele>
        <time>2021-08-15T03:13:03.401Z</time>
      </trkpt>
      <trkpt lat="42.48243" lon="42.13275">
        <ele>153.797869</ele>
        <time>2021-08-15T03:13:07.318Z</time>
      </trkpt>
      <trkpt lat="42.48236" lon="42.13251">
        <ele>153.920819</ele>
        <time>2021-08-15T03:13:11.390Z</time>
      </trkpt>
      <trkpt lat="42.48225" lon="42.13115">
        <ele>154.589513</ele>
        <time>2021-08-15T03:13:40.047Z</time>
      </trkpt>
      <trkpt lat="42.48232" lon="42.1303">
        <ele>154.348323</ele>
        <time>2021-08-15T03:13:56.588Z</time>
      </trkpt>
      <trkpt lat="42.48213" lon="42.12848">
        <ele>152.776748</ele>
        <time>2021-08-15T03:14:23.848Z</time>
      </trkpt>
      <trkpt lat="42.48191" lon="42.12795">
        <ele>151.599211</ele>
        <time>2021-08-15T03:14:31.958Z</time>
      </trkpt>
      <trkpt lat="42.48186" lon="42.1276">
        <ele>150.833323</ele>
        <time>2021-08-15T03:14:36.659Z</time>
      </trkpt>
      <trkpt lat="42.48195" lon="42.12707">
        <ele>149.653567</ele>
        <time>2021-08-15T03:14:43.814Z</time>
      </trkpt>
      <trkpt lat="42.48225" lon="42.12638">
        <ele>147.931815</ele>
        <time>2021-08-15T03:14:54.676Z</time>
      </trkpt>
      <trkpt lat="42.48232" lon="42.12622">
        <ele>147.533846</ele>
        <time>2021-08-15T03:14:56.928Z</time>
      </trkpt>
      <trkpt lat="42.48212" lon="42.12554">
        <ele>146.023468</ele>
        <time>2021-08-15T03:15:07.030Z</time>
      </trkpt>
      <trkpt lat="42.48197" lon="42.12477">
        <ele>144.366989</ele>
        <time>2021-08-15T03:15:17.704Z</time>
      </trkpt>
      <trkpt lat="42.4819" lon="42.12369">
        <ele>142.086033</ele>
        <time>2021-08-15T03:15:32.775Z</time>
      </trkpt>
      <trkpt lat="42.48211" lon="42.11977">
        <ele>132.062051</ele>
        <time>2021-08-15T03:16:24.208Z</time>
      </trkpt>
      <trkpt lat="42.48212" lon="42.1194">
        <ele>131.067982</ele>
        <time>2021-08-15T03:16:28.899Z</time>
      </trkpt>
      <trkpt lat="42.48224" lon="42.11965">
        <ele>130.262425</ele>
        <time>2021-08-15T03:16:32.662Z</time>
      </trkpt>
      <trkpt lat="42.48253" lon="42.12005">
        <ele>129.489301</ele>
        <time>2021-08-15T03:16:39.956Z</time>
      </trkpt>
      <trkpt lat="42.48338" lon="42.12084">
        <ele>128.285492</ele>
        <time>2021-08-15T03:16:59.458Z</time>
      </trkpt>
      <trkpt lat="42.48377" lon="42.12175">
        <ele>129.428975</ele>
        <time>2021-08-15T03:17:25.763Z</time>
      </trkpt>
      <trkpt lat="42.48399" lon="42.1227">
        <ele>133.507235</ele>
        <time>2021-08-15T03:18:01.686Z</time>
      </trkpt>
      <trkpt lat="42.48412" lon="42.12289">
        <ele>134.527543</ele>
        <time>2021-08-15T03:18:12.435Z</time>
      </trkpt>
      <trkpt lat="42.48422" lon="42.12296">
        <ele>135.182793</ele>
        <time>2021-08-15T03:18:19.333Z</time>
      </trkpt>
      <trkpt lat="42.48595" lon="42.12342">
        <ele>147.817109</ele>
        <time>2021-08-15T03:20:14.042Z</time>
      </trkpt>
      <trkpt lat="42.48717" lon="42.12411">
        <ele>155.296237</ele>
        <time>2021-08-15T03:21:27.504Z</time>
      </trkpt>
      <trkpt lat="42.48817" lon="42.12477">
        <ele>159.347536</ele>
        <time>2021-08-15T03:22:09.030Z</time>
      </trkpt>
      <trkpt lat="42.4884" lon="42.12492">
        <ele>159.104632</ele>
        <time>2021-08-15T03:22:16.149Z</time>
      </trkpt>
      <trkpt lat="42.4886" lon="42.12506">
        <ele>158.898763</ele>
        <time>2021-08-15T03:22:21.207Z</time>
      </trkpt>
      <trkpt lat="42.48913" lon="42.1253">
        <ele>158.380065</ele>
        <time>2021-08-15T03:22:32.702Z</time>
      </trkpt>
      <trkpt lat="42.49006" lon="42.12556">
        <ele>156.168761</ele>
        <time>2021-08-15T03:22:49.819Z</time>
      </trkpt>
      <trkpt lat="42.49066" lon="42.12549">
        <ele>153.184378</ele>
        <time>2021-08-15T03:22:59.873Z</time>
      </trkpt>
      <trkpt lat="42.49147" lon="42.12518">
        <ele>148.979451</ele>
        <time>2021-08-15T03:23:13.526Z</time>
      </trkpt>
      <trkpt lat="42.49181" lon="42.1252">
        <ele>147.170042</ele>
        <time>2021-08-15T03:23:18.953Z</time>
      </trkpt>
      <trkpt lat="42.4922" lon="42.12525">
        <ele>145.012644</ele>
        <time>2021-08-15T03:23:25.459Z</time>
      </trkpt>
      <trkpt lat="42.49223" lon="42.12525">
        <ele>144.849385</ele>
        <time>2021-08-15T03:23:25.889Z</time>
      </trkpt>
      <trkpt lat="42.4936" lon="42.1256">
        <ele>137.976515</ele>
        <time>2021-08-15T03:23:49.010Z</time>
      </trkpt>
      <trkpt lat="42.49374" lon="42.12564">
        <ele>137.489185</ele>
        <time>2021-08-15T03:23:51.311Z</time>
      </trkpt>
      <trkpt lat="42.49408" lon="42.12573">
        <ele>136.330993</ele>
        <time>2021-08-15T03:23:57.416Z</time>
      </trkpt>
      <trkpt lat="42.49511" lon="42.12579">
        <ele>133.015489</ele>
        <time>2021-08-15T03:24:16.364Z</time>
      </trkpt>
      <trkpt lat="42.49513" lon="42.12579">
        <ele>133.015707</ele>
        <time>2021-08-15T03:24:16.674Z</time>
      </trkpt>
      <trkpt lat="42.49535" lon="42.12577">
        <ele>133.017984</ele>
        <time>2021-08-15T03:24:21.066Z</time>
      </trkpt>
      <trkpt lat="42.49659" lon="42.12566">
        <ele>133.030899</ele>
        <time>2021-08-15T03:24:51.112Z</time>
      </trkpt>
      <trkpt lat="42.49672" lon="42.12568">
        <ele>133.032253</ele>
        <time>2021-08-15T03:24:54.177Z</time>
      </trkpt>
      <trkpt lat="42.49682" lon="42.12574">
        <ele>133.033422</ele>
        <time>2021-08-15T03:24:59.215Z</time>
      </trkpt>
      <trkpt lat="42.49726" lon="42.1266">
        <ele>134.845383</ele>
        <time>2021-08-15T03:25:26.548Z</time>
      </trkpt>
      <trkpt lat="42.49742" lon="42.12678">
        <ele>135.359563</ele>
        <time>2021-08-15T03:25:33.775Z</time>
      </trkpt>
      <trkpt lat="42.49844" lon="42.12754">
        <ele>137.735963</ele>
        <time>2021-08-15T03:26:17.175Z</time>
      </trkpt>
      <trkpt lat="42.49857" lon="42.12763">
        <ele>137.901415</ele>
        <time>2021-08-15T03:26:22.034Z</time>
      </trkpt>
      <trkpt lat="42.49876" lon="42.12775">
        <ele>138.148385</ele>
        <time>2021-08-15T03:26:28.615Z</time>
      </trkpt>
      <trkpt lat="42.49913" lon="42.12793">
        <ele>138.586829</ele>
        <time>2021-08-15T03:26:39.933Z</time>
      </trkpt>
      <trkpt lat="42.49961" lon="42.12807">
        <ele>139.150961</ele>
        <time>2021-08-15T03:26:53.429Z</time>
      </trkpt>
      <trkpt lat="42.50002" lon="42.12831">
        <ele>139.065503</ele>
        <time>2021-08-15T03:27:02.888Z</time>
      </trkpt>
      <trkpt lat="42.5013" lon="42.12888">
        <ele>136.862731</ele>
        <time>2021-08-15T03:27:29.322Z</time>
      </trkpt>
      <trkpt lat="42.50136" lon="42.12889">
        <ele>136.776215</ele>
        <time>2021-08-15T03:27:30.276Z</time>
      </trkpt>
      <trkpt lat="42.50139" lon="42.12889">
        <ele>136.715834</ele>
        <time>2021-08-15T03:27:30.840Z</time>
      </trkpt>
      <trkpt lat="42.50217" lon="42.12857">
        <ele>135.980589</ele>
        <time>2021-08-15T03:27:46.281Z</time>
      </trkpt>
      <trkpt lat="42.50356" lon="42.12915">
        <ele>136.044763</ele>
        <time>2021-08-15T03:28:19.902Z</time>
      </trkpt>
      <trkpt lat="42.50358" lon="42.12917">
        <ele>136.11671</ele>
        <time>2021-08-15T03:28:21.197Z</time>
      </trkpt>
      <trkpt lat="42.50368" lon="42.12928">
        <ele>136.453428</ele>
        <time>2021-08-15T03:28:25.950Z</time>
      </trkpt>
      <trkpt lat="42.50383" lon="42.12951">
        <ele>137.080706</ele>
        <time>2021-08-15T03:28:33.231Z</time>
      </trkpt>
      <trkpt lat="42.50407" lon="42.13013">
        <ele>138.493507</ele>
        <time>2021-08-15T03:28:53.041Z</time>
      </trkpt>
      <trkpt lat="42.50426" lon="42.1304">
        <ele>139.254442</ele>
        <time>2021-08-15T03:29:04.214Z</time>
      </trkpt>
      <trkpt lat="42.50446" lon="42.13067">
        <ele>140.01878</ele>
        <time>2021-08-15T03:29:18.494Z</time>
      </trkpt>
      <trkpt lat="42.50465" lon="42.13089">
        <ele>141.041291</ele>
        <time>2021-08-15T03:29:31.542Z</time>
      </trkpt>
      <trkpt lat="42.50498" lon="42.13131">
        <ele>142.972334</ele>
        <time>2021-08-15T03:29:52.479Z</time>
      </trkpt>
      <trkpt lat="42.50503" lon="42.13147">
        <ele>143.503019</ele>
        <time>2021-08-15T03:29:56.711Z</time>
      </trkpt>
      <trkpt lat="42.50506" lon="42.13157">
        <ele>143.851821</ele>
        <time>2021-08-15T03:30:01.284Z</time>
      </trkpt>
      <trkpt lat="42.50508" lon="42.13167">
        <ele>144.159753</ele>
        <time>2021-08-15T03:30:05.445Z</time>
      </trkpt>
      <trkpt lat="42.50516" lon="42.13194">
        <ele>145.085045</ele>
        <time>2021-08-15T03:30:13.674Z</time>
      </trkpt>
      <trkpt lat="42.50521" lon="42.13201">
        <ele>145.373811</ele>
        <time>2021-08-15T03:30:17.507Z</time>
      </trkpt>
      <trkpt lat="42.50529" lon="42.13216">
        <ele>145.969483</ele>
        <time>2021-08-15T03:30:24.662Z</time>
      </trkpt>
      <trkpt lat="42.5055" lon="42.13239">
        <ele>147.088296</ele>
        <time>2021-08-15T03:30:35.571Z</time>
      </trkpt>
      <trkpt lat="42.50608" lon="42.13269">
        <ele>148.740771</ele>
        <time>2021-08-15T03:30:58.896Z</time>
      </trkpt>
      <trkpt lat="42.5065" lon="42.13312">
        <ele>149.894907</ele>
        <time>2021-08-15T03:31:18.316Z</time>
      </trkpt>
      <trkpt lat="42.50732" lon="42.13339">
        <ele>151.648032</ele>
        <time>2021-08-15T03:31:42.527Z</time>
      </trkpt>
      <trkpt lat="42.50757" lon="42.13356">
        <ele>151.872393</ele>
        <time>2021-08-15T03:31:50.819Z</time>
      </trkpt>
      <trkpt lat="42.50784" lon="42.13383">
        <ele>152.137799</ele>
        <time>2021-08-15T03:32:00.260Z</time>
      </trkpt>
      <trkpt lat="42.50791" lon="42.13395">
        <ele>152.227959</ele>
        <time>2021-08-15T03:32:03.258Z</time>
      </trkpt>
      <trkpt lat="42.50803" lon="42.13435">
        <ele>152.485184</ele>
        <time>2021-08-15T03:32:12.357Z</time>
      </trkpt>
      <trkpt lat="42.50813" lon="42.13472">
        <ele>152.716552</ele>
        <time>2021-08-15T03:32:20.340Z</time>
      </trkpt>
      <trkpt lat="42.5083" lon="42.1349">
        <ele>152.889248</ele>
        <time>2021-08-15T03:32:26.216Z</time>
      </trkpt>
      <trkpt lat="42.51073" lon="42.13625">
        <ele>152.357737</ele>
        <time>2021-08-15T03:33:26.223Z</time>
      </trkpt>
      <trkpt lat="42.51122" lon="42.1366">
        <ele>151.835432</ele>
        <time>2021-08-15T03:33:37.557Z</time>
      </trkpt>
      <trkpt lat="42.51128" lon="42.1366">
        <ele>151.779871</ele>
        <time>2021-08-15T03:33:38.758Z</time>
      </trkpt>
      <trkpt lat="42.51132" lon="42.13655">
        <ele>151.72634</ele>
        <time>2021-08-15T03:33:39.716Z</time>
      </trkpt>
      <trkpt lat="42.5114" lon="42.13607">
        <ele>151.388467</ele>
        <time>2021-08-15T03:33:46.888Z</time>
      </trkpt>
      <trkpt lat="42.51191" lon="42.13487">
        <ele>150.240499</ele>
        <time>2021-08-15T03:34:07.517Z</time>
      </trkpt>
      <trkpt lat="42.51293" lon="42.13412">
        <ele>148.778447</ele>
        <time>2021-08-15T03:34:31.944Z</time>
      </trkpt>
      <trkpt lat="42.51397" lon="42.13368">
        <ele>146.946665</ele>
        <time>2021-08-15T03:34:54.460Z</time>
      </trkpt>
      <trkpt lat="42.51424" lon="42.13371">
        <ele>146.477321</ele>
        <time>2021-08-15T03:34:59.470Z</time>
      </trkpt>
      <trkpt lat="42.51476" lon="42.13396">
        <ele>144.750045</ele>
        <time>2021-08-15T03:35:09.215Z</time>
      </trkpt>
      <trkpt lat="42.5151" lon="42.13413">
        <ele>143.334971</ele>
        <time>2021-08-15T03:35:15.415Z</time>
      </trkpt>
      <trkpt lat="42.51524" lon="42.13415">
        <ele>142.80225</ele>
        <time>2021-08-15T03:35:19.188Z</time>
      </trkpt>
      <trkpt lat="42.51549" lon="42.13405">
        <ele>141.781296</ele>
        <time>2021-08-15T03:35:27.210Z</time>
      </trkpt>
      <trkpt lat="42.516" lon="42.13377">
        <ele>139.637369</ele>
        <time>2021-08-15T03:35:43.355Z</time>
      </trkpt>
      <trkpt lat="42.51618" lon="42.13366">
        <ele>139.043304</ele>
        <time>2021-08-15T03:35:49.471Z</time>
      </trkpt>
      <trkpt lat="42.51664" lon="42.13338">
        <ele>138.395742</ele>
        <time>2021-08-15T03:36:04.320Z</time>
      </trkpt>
      <trkpt lat="42.51705" lon="42.13313">
        <ele>137.798418</ele>
        <time>2021-08-15T03:36:19.550Z</time>
      </trkpt>
      <trkpt lat="42.51769" lon="42.1328">
        <ele>136.909046</ele>
        <time>2021-08-15T03:36:46.307Z</time>
      </trkpt>
      <trkpt lat="42.51813" lon="42.13237">
        <ele>137.692578</ele>
        <time>2021-08-15T03:37:12.066Z</time>
      </trkpt>
      <trkpt lat="42.51854" lon="42.13197">
        <ele>138.669888</ele>
        <time>2021-08-15T03:37:35.623Z</time>
      </trkpt>
      <trkpt lat="42.51883" lon="42.13191">
        <ele>139.236755</ele>
        <time>2021-08-15T03:37:49.786Z</time>
      </trkpt>
      <trkpt lat="42.51902" lon="42.13212">
        <ele>139.724535</ele>
        <time>2021-08-15T03:37:58.693Z</time>
      </trkpt>
      <trkpt lat="42.51972" lon="42.13288">
        <ele>141.731207</ele>
        <time>2021-08-15T03:38:28.645Z</time>
      </trkpt>
      <trkpt lat="42.51979" lon="42.13304">
        <ele>142.040744</ele>
        <time>2021-08-15T03:38:33.156Z</time>
      </trkpt>
      <trkpt lat="42.52009" lon="42.13438">
        <ele>144.488049</ele>
        <time>2021-08-15T03:39:07.941Z</time>
      </trkpt>
      <trkpt lat="42.52014" lon="42.13453">
        <ele>144.99324</ele>
        <time>2021-08-15T03:39:12.875Z</time>
      </trkpt>
      <trkpt lat="42.52042" lon="42.1341">
        <ele>146.928556</ele>
        <time>2021-08-15T03:39:31.947Z</time>
      </trkpt>
      <trkpt lat="42.52058" lon="42.13383">
        <ele>148.110243</ele>
        <time>2021-08-15T03:39:42.270Z</time>
      </trkpt>
      <trkpt lat="42.52054" lon="42.13371">
        <ele>148.55408</ele>
        <time>2021-08-15T03:39:48.336Z</time>
      </trkpt>
      <trkpt lat="42.52055" lon="42.13311">
        <ele>150.605632</ele>
        <time>2021-08-15T03:40:09.070Z</time>
      </trkpt>
      <trkpt lat="42.52059" lon="42.13244">
        <ele>152.89973</ele>
        <time>2021-08-15T03:40:34.202Z</time>
      </trkpt>
      <trkpt lat="42.52071" lon="42.13229">
        <ele>153.625109</ele>
        <time>2021-08-15T03:40:46.998Z</time>
      </trkpt>
      <trkpt lat="42.52107" lon="42.13121">
        <ele>157.531708</ele>
        <time>2021-08-15T03:41:41.193Z</time>
      </trkpt>
      <trkpt lat="42.52113" lon="42.13106">
        <ele>158.074458</ele>
        <time>2021-08-15T03:41:49.891Z</time>
      </trkpt>
      <trkpt lat="42.52094" lon="42.13086">
        <ele>159.164146</ele>
        <time>2021-08-15T03:41:59.358Z</time>
      </trkpt>
      <trkpt lat="42.52072" lon="42.13056">
        <ele>160.546598</ele>
        <time>2021-08-15T03:42:12.391Z</time>
      </trkpt>
      <trkpt lat="42.52132" lon="42.12921">
        <ele>162.245901</ele>
        <time>2021-08-15T03:42:48.891Z</time>
      </trkpt>
      <trkpt lat="42.52144" lon="42.12893">
        <ele>162.536926</ele>
        <time>2021-08-15T03:42:54.762Z</time>
      </trkpt>
      <trkpt lat="42.52167" lon="42.12911">
        <ele>162.866632</ele>
        <time>2021-08-15T03:43:01.195Z</time>
      </trkpt>
      <trkpt lat="42.52186" lon="42.12916">
        <ele>163.10722</ele>
        <time>2021-08-15T03:43:05.701Z</time>
      </trkpt>
      <trkpt lat="42.52195" lon="42.12924">
        <ele>163.064225</ele>
        <time>2021-08-15T03:43:08.254Z</time>
      </trkpt>
      <trkpt lat="42.52231" lon="42.12854">
        <ele>162.605305</ele>
        <time>2021-08-15T03:43:22.457Z</time>
      </trkpt>
      <trkpt lat="42.52272" lon="42.12784">
        <ele>162.128649</ele>
        <time>2021-08-15T03:43:36.182Z</time>
      </trkpt>
      <trkpt lat="42.52292" lon="42.1275">
        <ele>161.895328</ele>
        <time>2021-08-15T03:43:42.689Z</time>
      </trkpt>
      <trkpt lat="42.52296" lon="42.12743">
        <ele>161.848575</ele>
        <time>2021-08-15T03:43:44.047Z</time>
      </trkpt>
      <trkpt lat="42.52316" lon="42.12704">
        <ele>161.257422</ele>
        <time>2021-08-15T03:43:51.099Z</time>
      </trkpt>
      <trkpt lat="42.52355" lon="42.12635">
        <ele>160.112694</ele>
        <time>2021-08-15T03:44:03.625Z</time>
      </trkpt>
      <trkpt lat="42.52385" lon="42.1259">
        <ele>159.322273</ele>
        <time>2021-08-15T03:44:12.152Z</time>
      </trkpt>
      <trkpt lat="42.52387" lon="42.12586">
        <ele>159.252369</ele>
        <time>2021-08-15T03:44:12.909Z</time>
      </trkpt>
      <trkpt lat="42.5241" lon="42.12546">
        <ele>158.576489</ele>
        <time>2021-08-15T03:44:20.144Z</time>
      </trkpt>
      <trkpt lat="42.52439" lon="42.12489">
        <ele>157.506795</ele>
        <time>2021-08-15T03:44:29.986Z</time>
      </trkpt>
      <trkpt lat="42.52442" lon="42.12469">
        <ele>157.204794</ele>
        <time>2021-08-15T03:44:32.758Z</time>
      </trkpt>
      <trkpt lat="42.52381" lon="42.12381">
        <ele>155.347271</ele>
        <time>2021-08-15T03:44:49.796Z</time>
      </trkpt>
      <trkpt lat="42.52371" lon="42.12371">
        <ele>155.082365</ele>
        <time>2021-08-15T03:44:52.181Z</time>
      </trkpt>
      <trkpt lat="42.52337" lon="42.12358">
        <ele>154.359369</ele>
        <time>2021-08-15T03:44:58.800Z</time>
      </trkpt>
      <trkpt lat="42.52315" lon="42.12322">
        <ele>153.650213</ele>
        <time>2021-08-15T03:45:05.409Z</time>
      </trkpt>
      <trkpt lat="42.52291" lon="42.12279">
        <ele>152.837977</ele>
        <time>2021-08-15T03:45:12.997Z</time>
      </trkpt>
      <trkpt lat="42.52338" lon="42.12234">
        <ele>151.669319</ele>
        <time>2021-08-15T03:45:31.423Z</time>
      </trkpt>
      <trkpt lat="42.52346" lon="42.12221">
        <ele>151.408847</ele>
        <time>2021-08-15T03:45:35.482Z</time>
      </trkpt>
      <trkpt lat="42.52397" lon="42.12128">
        <ele>151.707994</ele>
        <time>2021-08-15T03:45:51.618Z</time>
      </trkpt>
      <trkpt lat="42.52397" lon="42.12109">
        <ele>151.808574</ele>
        <time>2021-08-15T03:45:57.556Z</time>
      </trkpt>
      <trkpt lat="42.52377" lon="42.12034">
        <ele>152.236417</ele>
        <time>2021-08-15T03:46:24.538Z</time>
      </trkpt>
      <trkpt lat="42.52374" lon="42.11987">
        <ele>152.597215</ele>
        <time>2021-08-15T03:46:42.473Z</time>
      </trkpt>
      <trkpt lat="42.52374" lon="42.11946">
        <ele>154.75241</ele>
        <time>2021-08-15T03:46:58.233Z</time>
      </trkpt>
      <trkpt lat="42.52385" lon="42.11946">
        <ele>155.560756</ele>
        <time>2021-08-15T03:47:05.620Z</time>
      </trkpt>
      <trkpt lat="42.52449" lon="42.11942">
        <ele>160.127629</ele>
        <time>2021-08-15T03:47:39.227Z</time>
      </trkpt>
      <trkpt lat="42.52573" lon="42.1192">
        <ele>169.420098</ele>
        <time>2021-08-15T03:49:11.701Z</time>
      </trkpt>
      <trkpt lat="42.52584" lon="42.11924">
        <ele>170.294658</ele>
        <time>2021-08-15T03:49:17.984Z</time>
      </trkpt>
      <trkpt lat="42.5259" lon="42.11942">
        <ele>171.43789</ele>
        <time>2021-08-15T03:49:30.968Z</time>
      </trkpt>
      <trkpt lat="42.52632" lon="42.11997">
        <ele>176.015515</ele>
        <time>2021-08-15T03:50:04.079Z</time>
      </trkpt>
      <trkpt lat="42.52647" lon="42.12013">
        <ele>177.494328</ele>
        <time>2021-08-15T03:50:18.050Z</time>
      </trkpt>
      <trkpt lat="42.52654" lon="42.12007">
        <ele>178.178589</ele>
        <time>2021-08-15T03:50:21.133Z</time>
      </trkpt>
      <trkpt lat="42.52708" lon="42.11995">
        <ele>178.870271</ele>
        <time>2021-08-15T03:50:46.554Z</time>
      </trkpt>
      <trkpt lat="42.5274" lon="42.1201">
        <ele>178.299805</ele>
        <time>2021-08-15T03:50:54.113Z</time>
      </trkpt>
      <trkpt lat="42.52753" lon="42.1201">
        <ele>178.076157</ele>
        <time>2021-08-15T03:50:56.633Z</time>
      </trkpt>
      <trkpt lat="42.52777" lon="42.12044">
        <ele>177.482799</ele>
        <time>2021-08-15T03:51:02.707Z</time>
      </trkpt>
      <trkpt lat="42.52784" lon="42.12061">
        <ele>177.234074</ele>
        <time>2021-08-15T03:51:05.129Z</time>
      </trkpt>
      <trkpt lat="42.52798" lon="42.12075">
        <ele>176.936175</ele>
        <time>2021-08-15T03:51:07.689Z</time>
      </trkpt>
      <trkpt lat="42.52832" lon="42.12095">
        <ele>176.025534</ele>
        <time>2021-08-15T03:51:13.170Z</time>
      </trkpt>
      <trkpt lat="42.52873" lon="42.12085">
        <ele>173.828177</ele>
        <time>2021-08-15T03:51:19.445Z</time>
      </trkpt>
      <trkpt lat="42.52926" lon="42.12005">
        <ele>169.716838</ele>
        <time>2021-08-15T03:51:31.562Z</time>
      </trkpt>
      <trkpt lat="42.52966" lon="42.1198">
        <ele>167.385092</ele>
        <time>2021-08-15T03:51:39.059Z</time>
      </trkpt>
      <trkpt lat="42.52976" lon="42.11977">
        <ele>167.115555</ele>
        <time>2021-08-15T03:51:40.553Z</time>
      </trkpt>
      <trkpt lat="42.52987" lon="42.11974">
        <ele>167.156439</ele>
        <time>2021-08-15T03:51:44.329Z</time>
      </trkpt>
      <trkpt lat="42.53107" lon="42.11962">
        <ele>167.589784</ele>
        <time>2021-08-15T03:52:13.327Z</time>
      </trkpt>
      <trkpt lat="42.53134" lon="42.11966">
        <ele>167.690066</ele>
        <time>2021-08-15T03:52:23.216Z</time>
      </trkpt>
      <trkpt lat="42.532" lon="42.11951">
        <ele>168.586796</ele>
        <time>2021-08-15T03:52:47.701Z</time>
      </trkpt>
      <trkpt lat="42.53332" lon="42.11935">
        <ele>170.740894</ele>
        <time>2021-08-15T03:53:26.458Z</time>
      </trkpt>
      <trkpt lat="42.53411" lon="42.11936">
        <ele>170.77885</ele>
        <time>2021-08-15T03:53:45.616Z</time>
      </trkpt>
      <trkpt lat="42.53463" lon="42.1193">
        <ele>170.803975</ele>
        <time>2021-08-15T03:53:57.710Z</time>
      </trkpt>
      <trkpt lat="42.53491" lon="42.11915">
        <ele>170.818047</ele>
        <time>2021-08-15T03:54:04.262Z</time>
      </trkpt>
      <trkpt lat="42.53585" lon="42.11897">
        <ele>168.786587</ele>
        <time>2021-08-15T03:54:22.027Z</time>
      </trkpt>
      <trkpt lat="42.53647" lon="42.11858">
        <ele>167.020732</ele>
        <time>2021-08-15T03:54:33.741Z</time>
      </trkpt>
      <trkpt lat="42.53653" lon="42.1185">
        <ele>166.805764</ele>
        <time>2021-08-15T03:54:35.241Z</time>
      </trkpt>
      <trkpt lat="42.53656" lon="42.11846">
        <ele>166.694781</ele>
        <time>2021-08-15T03:54:35.825Z</time>
      </trkpt>
      <trkpt lat="42.53678" lon="42.11807">
        <ele>165.845546</ele>
        <time>2021-08-15T03:54:41.854Z</time>
      </trkpt>
      <trkpt lat="42.53711" lon="42.11696">
        <ele>163.979598</ele>
        <time>2021-08-15T03:54:57.012Z</time>
      </trkpt>
      <trkpt lat="42.53772" lon="42.11637">
        <ele>162.402621</ele>
        <time>2021-08-15T03:55:11.014Z</time>
      </trkpt>
      <trkpt lat="42.53804" lon="42.11599">
        <ele>164.188624</ele>
        <time>2021-08-15T03:55:24.918Z</time>
      </trkpt>
      <trkpt lat="42.53859" lon="42.11517">
        <ele>167.7115</ele>
        <time>2021-08-15T03:56:00.744Z</time>
      </trkpt>
      <trkpt lat="42.5387" lon="42.1151">
        <ele>168.243831</ele>
        <time>2021-08-15T03:56:07.615Z</time>
      </trkpt>
      <trkpt lat="42.53895" lon="42.11509">
        <ele>169.317153</ele>
        <time>2021-08-15T03:56:21.126Z</time>
      </trkpt>
      <trkpt lat="42.53903" lon="42.11506">
        <ele>169.67217</ele>
        <time>2021-08-15T03:56:26.277Z</time>
      </trkpt>
      <trkpt lat="42.53917" lon="42.11503">
        <ele>170.460465</ele>
        <time>2021-08-15T03:56:35.864Z</time>
      </trkpt>
      <trkpt lat="42.53966" lon="42.11493">
        <ele>174.898871</ele>
        <time>2021-08-15T03:57:06.207Z</time>
      </trkpt>
      <trkpt lat="42.54016" lon="42.11468">
        <ele>179.792225</ele>
        <time>2021-08-15T03:57:44.828Z</time>
      </trkpt>
      <trkpt lat="42.54053" lon="42.1137">
        <ele>187.185007</ele>
        <time>2021-08-15T03:58:43.222Z</time>
      </trkpt>
      <trkpt lat="42.54077" lon="42.11329">
        <ele>190.746046</ele>
        <time>2021-08-15T03:59:08.844Z</time>
      </trkpt>
      <trkpt lat="42.54126" lon="42.11271">
        <ele>196.730738</ele>
        <time>2021-08-15T03:59:52.402Z</time>
      </trkpt>
      <trkpt lat="42.54204" lon="42.11218">
        <ele>205.160296</ele>
        <time>2021-08-15T04:00:52.568Z</time>
      </trkpt>
      <trkpt lat="42.54232" lon="42.11189">
        <ele>208.915248</ele>
        <time>2021-08-15T04:01:17.481Z</time>
      </trkpt>
      <trkpt lat="42.54247" lon="42.1116">
        <ele>211.689859</ele>
        <time>2021-08-15T04:01:36.366Z</time>
      </trkpt>
      <trkpt lat="42.54251" lon="42.11135">
        <ele>213.714781</ele>
        <time>2021-08-15T04:01:50.316Z</time>
      </trkpt>
      <trkpt lat="42.54249" lon="42.11111">
        <ele>215.682988</ele>
        <time>2021-08-15T04:02:04.104Z</time>
      </trkpt>
      <trkpt lat="42.54239" lon="42.11074">
        <ele>218.748332</ele>
        <time>2021-08-15T04:02:26.665Z</time>
      </trkpt>
      <trkpt lat="42.5424" lon="42.11057">
        <ele>220.148923</ele>
        <time>2021-08-15T04:02:37.167Z</time>
      </trkpt>
      <trkpt lat="42.54255" lon="42.11046">
        <ele>221.982305</ele>
        <time>2021-08-15T04:02:51.797Z</time>
      </trkpt>
      <trkpt lat="42.54277" lon="42.11046">
        <ele>224.914827</ele>
        <time>2021-08-15T04:03:11.173Z</time>
      </trkpt>
      <trkpt lat="42.54304" lon="42.11029">
        <ele>228.976788</ele>
        <time>2021-08-15T04:03:37.716Z</time>
      </trkpt>
      <trkpt lat="42.54338" lon="42.10994">
        <ele>234.762394</ele>
        <time>2021-08-15T04:04:16.740Z</time>
      </trkpt>
      <trkpt lat="42.5436" lon="42.10983">
        <ele>237.988141</ele>
        <time>2021-08-15T04:04:38.761Z</time>
      </trkpt>
      <trkpt lat="42.54372" lon="42.10967">
        <ele>240.191158</ele>
        <time>2021-08-15T04:04:53.754Z</time>
      </trkpt>
      <trkpt lat="42.54361" lon="42.10905">
        <ele>246.656187</ele>
        <time>2021-08-15T04:05:37.476Z</time>
      </trkpt>
      <trkpt lat="42.54368" lon="42.10812">
        <ele>255.348594</ele>
        <time>2021-08-15T04:06:42.469Z</time>
      </trkpt>
      <trkpt lat="42.54422" lon="42.10707">
        <ele>267.230649</ele>
        <time>2021-08-15T04:08:01.705Z</time>
      </trkpt>
      <trkpt lat="42.54446" lon="42.10673">
        <ele>270.918815</ele>
        <time>2021-08-15T04:08:26.844Z</time>
      </trkpt>
      <trkpt lat="42.54454" lon="42.10665">
        <ele>271.753782</ele>
        <time>2021-08-15T04:08:36.350Z</time>
      </trkpt>
      <trkpt lat="42.54477" lon="42.10663">
        <ele>273.6673</ele>
        <time>2021-08-15T04:08:49.648Z</time>
      </trkpt>
      <trkpt lat="42.5453" lon="42.10658">
        <ele>278.101488</ele>
        <time>2021-08-15T04:09:25.128Z</time>
      </trkpt>
      <trkpt lat="42.54581" lon="42.10638">
        <ele>282.533941</ele>
        <time>2021-08-15T04:09:57.823Z</time>
      </trkpt>
      <trkpt lat="42.54595" lon="42.10618">
        <ele>284.207393</ele>
        <time>2021-08-15T04:10:09.596Z</time>
      </trkpt>
      <trkpt lat="42.54617" lon="42.10529">
        <ele>287.257002</ele>
        <time>2021-08-15T04:10:40.526Z</time>
      </trkpt>
      <trkpt lat="42.54618" lon="42.10505">
        <ele>287.992883</ele>
        <time>2021-08-15T04:10:49.428Z</time>
      </trkpt>
      <trkpt lat="42.54618" lon="42.1048">
        <ele>288.718853</ele>
        <time>2021-08-15T04:10:55.845Z</time>
      </trkpt>
      <trkpt lat="42.54623" lon="42.10425">
        <ele>290.417048</ele>
        <time>2021-08-15T04:11:13.011Z</time>
      </trkpt>
      <trkpt lat="42.54634" lon="42.10402">
        <ele>291.237703</ele>
        <time>2021-08-15T04:11:20.511Z</time>
      </trkpt>
      <trkpt lat="42.54649" lon="42.10398">
        <ele>291.867298</ele>
        <time>2021-08-15T04:11:25.939Z</time>
      </trkpt>
      <trkpt lat="42.54704" lon="42.10392">
        <ele>292.40108</ele>
        <time>2021-08-15T04:11:44.107Z</time>
      </trkpt>
      <trkpt lat="42.54743" lon="42.10389">
        <ele>292.720959</ele>
        <time>2021-08-15T04:11:53.378Z</time>
      </trkpt>
      <trkpt lat="42.54778" lon="42.10386">
        <ele>293.004474</ele>
        <time>2021-08-15T04:12:01.429Z</time>
      </trkpt>
      <trkpt lat="42.54874" lon="42.10386">
        <ele>293.127781</ele>
        <time>2021-08-15T04:12:22.593Z</time>
      </trkpt>
      <trkpt lat="42.54991" lon="42.1037">
        <ele>292.261976</ele>
        <time>2021-08-15T04:12:46.130Z</time>
      </trkpt>
      <trkpt lat="42.5502" lon="42.10364">
        <ele>291.944457</ele>
        <time>2021-08-15T04:12:51.865Z</time>
      </trkpt>
      <trkpt lat="42.5503" lon="42.10362">
        <ele>291.749035</ele>
        <time>2021-08-15T04:12:53.806Z</time>
      </trkpt>
      <trkpt lat="42.55048" lon="42.10359">
        <ele>291.392639</ele>
        <time>2021-08-15T04:12:57.510Z</time>
      </trkpt>
      <trkpt lat="42.55073" lon="42.10353">
        <ele>290.920824</ele>
        <time>2021-08-15T04:13:02.205Z</time>
      </trkpt>
      <trkpt lat="42.55188" lon="42.10351">
        <ele>288.710922</ele>
        <time>2021-08-15T04:13:23.077Z</time>
      </trkpt>
      <trkpt lat="42.55219" lon="42.10362">
        <ele>287.979908</ele>
        <time>2021-08-15T04:13:28.644Z</time>
      </trkpt>
      <trkpt lat="42.55247" lon="42.10385">
        <ele>287.221187</ele>
        <time>2021-08-15T04:13:34.516Z</time>
      </trkpt>
      <trkpt lat="42.55274" lon="42.10384">
        <ele>286.609949</ele>
        <time>2021-08-15T04:13:39.412Z</time>
      </trkpt>
      <trkpt lat="42.55278" lon="42.10383">
        <ele>286.521545</ele>
        <time>2021-08-15T04:13:40.032Z</time>
      </trkpt>
      <trkpt lat="42.55277" lon="42.10368">
        <ele>286.263378</ele>
        <time>2021-08-15T04:13:41.897Z</time>
      </trkpt>
      <trkpt lat="42.55274" lon="42.10306">
        <ele>285.213312</ele>
        <time>2021-08-15T04:13:50.199Z</time>
      </trkpt>
      <trkpt lat="42.55279" lon="42.10269">
        <ele>284.569771</ele>
        <time>2021-08-15T04:13:55.209Z</time>
      </trkpt>
      <trkpt lat="42.55293" lon="42.10232">
        <ele>284.406934</ele>
        <time>2021-08-15T04:14:01.057Z</time>
      </trkpt>
      <trkpt lat="42.55312" lon="42.10228">
        <ele>284.325582</ele>
        <time>2021-08-15T04:14:04.838Z</time>
      </trkpt>
      <trkpt lat="42.55384" lon="42.10242">
        <ele>284.009763</ele>
        <time>2021-08-15T04:14:20.026Z</time>
      </trkpt>
      <trkpt lat="42.55427" lon="42.10233">
        <ele>283.821918</ele>
        <time>2021-08-15T04:14:30.924Z</time>
      </trkpt>
      <trkpt lat="42.55468" lon="42.10217">
        <ele>283.825218</ele>
        <time>2021-08-15T04:14:42.671Z</time>
      </trkpt>
      <trkpt lat="42.55492" lon="42.10197">
        <ele>283.894776</ele>
        <time>2021-08-15T04:14:50.207Z</time>
      </trkpt>
      <trkpt lat="42.55541" lon="42.10103">
        <ele>284.110256</ele>
        <time>2021-08-15T04:15:10.699Z</time>
      </trkpt>
      <trkpt lat="42.55551" lon="42.10085">
        <ele>284.152936</ele>
        <time>2021-08-15T04:15:14.855Z</time>
      </trkpt>
      <trkpt lat="42.55558" lon="42.10062">
        <ele>284.198726</ele>
        <time>2021-08-15T04:15:18.448Z</time>
      </trkpt>
      <trkpt lat="42.5557" lon="42.10022">
        <ele>283.788806</ele>
        <time>2021-08-15T04:15:24.981Z</time>
      </trkpt>
      <trkpt lat="42.55576" lon="42.0997">
        <ele>283.198347</ele>
        <time>2021-08-15T04:15:32.357Z</time>
      </trkpt>
      <trkpt lat="42.55633" lon="42.09788">
        <ele>281.35286</ele>
        <time>2021-08-15T04:15:59.108Z</time>
      </trkpt>
      <trkpt lat="42.55639" lon="42.09764">
        <ele>281.29882</ele>
        <time>2021-08-15T04:16:02.514Z</time>
      </trkpt>
      <trkpt lat="42.55641" lon="42.09754">
        <ele>281.274714</ele>
        <time>2021-08-15T04:16:04.532Z</time>
      </trkpt>
      <trkpt lat="42.55647" lon="42.09685">
        <ele>281.12734</ele>
        <time>2021-08-15T04:16:15.381Z</time>
      </trkpt>
      <trkpt lat="42.55653" lon="42.09667">
        <ele>281.083856</ele>
        <time>2021-08-15T04:16:18.705Z</time>
      </trkpt>
      <trkpt lat="42.55708" lon="42.09579">
        <ele>281.221663</ele>
        <time>2021-08-15T04:16:42.084Z</time>
      </trkpt>
      <trkpt lat="42.55721" lon="42.09533">
        <ele>281.597033</ele>
        <time>2021-08-15T04:16:53.702Z</time>
      </trkpt>
      <trkpt lat="42.55724" lon="42.09513">
        <ele>281.749687</ele>
        <time>2021-08-15T04:16:58.574Z</time>
      </trkpt>
      <trkpt lat="42.55725" lon="42.09508">
        <ele>281.790942</ele>
        <time>2021-08-15T04:16:59.703Z</time>
      </trkpt>
      <trkpt lat="42.55724" lon="42.09487">
        <ele>281.9512</ele>
        <time>2021-08-15T04:17:03.870Z</time>
      </trkpt>
      <trkpt lat="42.55723" lon="42.09469">
        <ele>282.090125</ele>
        <time>2021-08-15T04:17:07.902Z</time>
      </trkpt>
      <trkpt lat="42.55723" lon="42.09464">
        <ele>282.126742</ele>
        <time>2021-08-15T04:17:09.124Z</time>
      </trkpt>
      <trkpt lat="42.55727" lon="42.0939">
        <ele>282.69415</ele>
        <time>2021-08-15T04:17:23.403Z</time>
      </trkpt>
      <trkpt lat="42.55737" lon="42.09329">
        <ele>282.217447</ele>
        <time>2021-08-15T04:17:34.125Z</time>
      </trkpt>
      <trkpt lat="42.55738" lon="42.09324">
        <ele>282.159525</ele>
        <time>2021-08-15T04:17:34.829Z</time>
      </trkpt>
      <trkpt lat="42.55762" lon="42.09253">
        <ele>281.270432</ele>
        <time>2021-08-15T04:17:45.883Z</time>
      </trkpt>
      <trkpt lat="42.55788" lon="42.09208">
        <ele>280.622554</ele>
        <time>2021-08-15T04:17:53.513Z</time>
      </trkpt>
      <trkpt lat="42.55809" lon="42.09169">
        <ele>280.075683</ele>
        <time>2021-08-15T04:17:59.746Z</time>
      </trkpt>
      <trkpt lat="42.55837" lon="42.09112">
        <ele>278.626537</ele>
        <time>2021-08-15T04:18:08.380Z</time>
      </trkpt>
      <trkpt lat="42.55861" lon="42.09069">
        <ele>277.448971</ele>
        <time>2021-08-15T04:18:15.126Z</time>
      </trkpt>
      <trkpt lat="42.55952" lon="42.08979">
        <ele>274.566103</ele>
        <time>2021-08-15T04:18:34.494Z</time>
      </trkpt>
      <trkpt lat="42.55996" lon="42.08914">
        <ele>274.154315</ele>
        <time>2021-08-15T04:18:46.850Z</time>
      </trkpt>
      <trkpt lat="42.56023" lon="42.08899">
        <ele>273.962907</ele>
        <time>2021-08-15T04:18:53.147Z</time>
      </trkpt>
      <trkpt lat="42.56091" lon="42.08919">
        <ele>273.597004</ele>
        <time>2021-08-15T04:19:10.645Z</time>
      </trkpt>
      <trkpt lat="42.56246" lon="42.08805">
        <ele>276.920056</ele>
        <time>2021-08-15T04:20:09.237Z</time>
      </trkpt>
      <trkpt lat="42.56378" lon="42.08739">
        <ele>278.503525</ele>
        <time>2021-08-15T04:20:50.750Z</time>
      </trkpt>
      <trkpt lat="42.56388" lon="42.08736">
        <ele>278.613357</ele>
        <time>2021-08-15T04:20:53.150Z</time>
      </trkpt>
      <trkpt lat="42.56413" lon="42.08732">
        <ele>278.900222</ele>
        <time>2021-08-15T04:20:58.934Z</time>
      </trkpt>
      <trkpt lat="42.56509" lon="42.08724">
        <ele>278.302186</ele>
        <time>2021-08-15T04:21:19.018Z</time>
      </trkpt>
      <trkpt lat="42.56544" lon="42.08728">
        <ele>278.060849</ele>
        <time>2021-08-15T04:21:25.672Z</time>
      </trkpt>
      <trkpt lat="42.56556" lon="42.08729">
        <ele>277.981823</ele>
        <time>2021-08-15T04:21:28.030Z</time>
      </trkpt>
      <trkpt lat="42.56558" lon="42.08729">
        <ele>277.965853</ele>
        <time>2021-08-15T04:21:28.371Z</time>
      </trkpt>
      <trkpt lat="42.56605" lon="42.08738">
        <ele>277.668392</ele>
        <time>2021-08-15T04:21:37.924Z</time>
      </trkpt>
      <trkpt lat="42.56659" lon="42.0876">
        <ele>277.479437</ele>
        <time>2021-08-15T04:21:49.545Z</time>
      </trkpt>
      <trkpt lat="42.56681" lon="42.08769">
        <ele>277.400226</ele>
        <time>2021-08-15T04:21:54.189Z</time>
      </trkpt>
      <trkpt lat="42.5671" lon="42.0878">
        <ele>277.299961</ele>
        <time>2021-08-15T04:22:00.422Z</time>
      </trkpt>
      <trkpt lat="42.56738" lon="42.08795">
        <ele>277.196145</ele>
        <time>2021-08-15T04:22:07.748Z</time>
      </trkpt>
      <trkpt lat="42.56768" lon="42.08801">
        <ele>277.093724</ele>
        <time>2021-08-15T04:22:15.124Z</time>
      </trkpt>
      <trkpt lat="42.56809" lon="42.08806">
        <ele>276.911757</ele>
        <time>2021-08-15T04:22:25.133Z</time>
      </trkpt>
      <trkpt lat="42.56838" lon="42.08802">
        <ele>276.785842</ele>
        <time>2021-08-15T04:22:32.266Z</time>
      </trkpt>
      <trkpt lat="42.5687" lon="42.08782">
        <ele>276.62711</ele>
        <time>2021-08-15T04:22:40.975Z</time>
      </trkpt>
      <trkpt lat="42.56874" lon="42.08779">
        <ele>276.607031</ele>
        <time>2021-08-15T04:22:41.934Z</time>
      </trkpt>
      <trkpt lat="42.56955" lon="42.08728">
        <ele>275.836939</ele>
        <time>2021-08-15T04:22:58.895Z</time>
      </trkpt>
      <trkpt lat="42.57004" lon="42.08691">
        <ele>274.412639</ele>
        <time>2021-08-15T04:23:08.853Z</time>
      </trkpt>
      <trkpt lat="42.57035" lon="42.08668">
        <ele>273.521722</ele>
        <time>2021-08-15T04:23:14.816Z</time>
      </trkpt>
      <trkpt lat="42.57179" lon="42.08568">
        <ele>270.895549</ele>
        <time>2021-08-15T04:23:43.278Z</time>
      </trkpt>
      <trkpt lat="42.57235" lon="42.08531">
        <ele>270.322529</ele>
        <time>2021-08-15T04:23:58.645Z</time>
      </trkpt>
      <trkpt lat="42.57268" lon="42.0851">
        <ele>270.258697</ele>
        <time>2021-08-15T04:24:08.803Z</time>
      </trkpt>
      <trkpt lat="42.57329" lon="42.08472">
        <ele>271.445142</ele>
        <time>2021-08-15T04:24:29.666Z</time>
      </trkpt>
      <trkpt lat="42.57353" lon="42.08467">
        <ele>271.880969</ele>
        <time>2021-08-15T04:24:38.484Z</time>
      </trkpt>
      <trkpt lat="42.57354" lon="42.08467">
        <ele>271.895291</ele>
        <time>2021-08-15T04:24:38.659Z</time>
      </trkpt>
      <trkpt lat="42.57424" lon="42.08464">
        <ele>273.117651</ele>
        <time>2021-08-15T04:25:01.787Z</time>
      </trkpt>
      <trkpt lat="42.57495" lon="42.08467">
        <ele>273.698873</ele>
        <time>2021-08-15T04:25:21.916Z</time>
      </trkpt>
      <trkpt lat="42.57561" lon="42.08466">
        <ele>274.16785</ele>
        <time>2021-08-15T04:25:37.752Z</time>
      </trkpt>
      <trkpt lat="42.57612" lon="42.0849">
        <ele>274.514379</ele>
        <time>2021-08-15T04:25:50.572Z</time>
      </trkpt>
      <trkpt lat="42.57704" lon="42.08532">
        <ele>274.333936</ele>
        <time>2021-08-15T04:26:11.853Z</time>
      </trkpt>
      <trkpt lat="42.57737" lon="42.08545">
        <ele>274.270715</ele>
        <time>2021-08-15T04:26:19.138Z</time>
      </trkpt>
      <trkpt lat="42.57786" lon="42.08565">
        <ele>274.15431</ele>
        <time>2021-08-15T04:26:29.922Z</time>
      </trkpt>
      <trkpt lat="42.57837" lon="42.08586">
        <ele>273.89637</ele>
        <time>2021-08-15T04:26:40.930Z</time>
      </trkpt>
      <trkpt lat="42.57978" lon="42.08588">
        <ele>273.180734</ele>
        <time>2021-08-15T04:27:10.390Z</time>
      </trkpt>
      <trkpt lat="42.57989" lon="42.0859">
        <ele>273.109723</ele>
        <time>2021-08-15T04:27:12.923Z</time>
      </trkpt>
      <trkpt lat="42.58007" lon="42.08594">
        <ele>272.999343</ele>
        <time>2021-08-15T04:27:16.724Z</time>
      </trkpt>
      <trkpt lat="42.58091" lon="42.08665">
        <ele>272.400342</ele>
        <time>2021-08-15T04:27:37.104Z</time>
      </trkpt>
      <trkpt lat="42.58172" lon="42.08724">
        <ele>271.655056</ele>
        <time>2021-08-15T04:27:55.861Z</time>
      </trkpt>
      <trkpt lat="42.58199" lon="42.08741">
        <ele>271.391254</ele>
        <time>2021-08-15T04:28:01.674Z</time>
      </trkpt>
      <trkpt lat="42.58215" lon="42.08752">
        <ele>271.230393</ele>
        <time>2021-08-15T04:28:05.179Z</time>
      </trkpt>
      <trkpt lat="42.58245" lon="42.0877">
        <ele>270.932851</ele>
        <time>2021-08-15T04:28:11.729Z</time>
      </trkpt>
      <trkpt lat="42.58275" lon="42.08778">
        <ele>270.651061</ele>
        <time>2021-08-15T04:28:17.954Z</time>
      </trkpt>
      <trkpt lat="42.58298" lon="42.08777">
        <ele>270.487438</ele>
        <time>2021-08-15T04:28:22.593Z</time>
      </trkpt>
      <trkpt lat="42.58322" lon="42.08766">
        <ele>270.329898</ele>
        <time>2021-08-15T04:28:27.644Z</time>
      </trkpt>
      <trkpt lat="42.58341" lon="42.08758">
        <ele>270.20549</ele>
        <time>2021-08-15T04:28:31.655Z</time>
      </trkpt>
      <trkpt lat="42.58349" lon="42.08754">
        <ele>270.15135</ele>
        <time>2021-08-15T04:28:33.407Z</time>
      </trkpt>
      <trkpt lat="42.58377" lon="42.0875">
        <ele>269.97929</ele>
        <time>2021-08-15T04:28:39.142Z</time>
      </trkpt>
      <trkpt lat="42.58548" lon="42.08763">
        <ele>268.875506</ele>
        <time>2021-08-15T04:29:15.311Z</time>
      </trkpt>
      <trkpt lat="42.58598" lon="42.08752">
        <ele>268.543753</ele>
        <time>2021-08-15T04:29:25.634Z</time>
      </trkpt>
      <trkpt lat="42.58629" lon="42.08737">
        <ele>268.323726</ele>
        <time>2021-08-15T04:29:32.354Z</time>
      </trkpt>
      <trkpt lat="42.58686" lon="42.08702">
        <ele>267.128939</ele>
        <time>2021-08-15T04:29:44.505Z</time>
      </trkpt>
      <trkpt lat="42.58734" lon="42.08676">
        <ele>266.081476</ele>
        <time>2021-08-15T04:29:53.561Z</time>
      </trkpt>
      <trkpt lat="42.58793" lon="42.08653">
        <ele>264.822616</ele>
        <time>2021-08-15T04:30:04.439Z</time>
      </trkpt>
      <trkpt lat="42.58798" lon="42.08656">
        <ele>264.696361</ele>
        <time>2021-08-15T04:30:05.438Z</time>
      </trkpt>
      <trkpt lat="42.5881" lon="42.0866">
        <ele>264.498596</ele>
        <time>2021-08-15T04:30:07.499Z</time>
      </trkpt>
      <trkpt lat="42.58827" lon="42.08675">
        <ele>264.226158</ele>
        <time>2021-08-15T04:30:11.204Z</time>
      </trkpt>
      <trkpt lat="42.5884" lon="42.08686">
        <ele>264.021318</ele>
        <time>2021-08-15T04:30:13.828Z</time>
      </trkpt>
      <trkpt lat="42.58869" lon="42.0871">
        <ele>263.559289</ele>
        <time>2021-08-15T04:30:20.106Z</time>
      </trkpt>
      <trkpt lat="42.58882" lon="42.08721">
        <ele>263.349969</ele>
        <time>2021-08-15T04:30:23.079Z</time>
      </trkpt>
      <trkpt lat="42.58895" lon="42.08732">
        <ele>263.1468</ele>
        <time>2021-08-15T04:30:25.920Z</time>
      </trkpt>
      <trkpt lat="42.58914" lon="42.08745">
        <ele>262.854128</ele>
        <time>2021-08-15T04:30:30.160Z</time>
      </trkpt>
      <trkpt lat="42.58964" lon="42.08751">
        <ele>262.172351</ele>
        <time>2021-08-15T04:30:40.402Z</time>
      </trkpt>
      <trkpt lat="42.59159" lon="42.08741">
        <ele>264.656265</ele>
        <time>2021-08-15T04:31:38.429Z</time>
      </trkpt>
      <trkpt lat="42.59163" lon="42.0874">
        <ele>264.694058</ele>
        <time>2021-08-15T04:31:40.198Z</time>
      </trkpt>
      <trkpt lat="42.5922" lon="42.0874">
        <ele>265.246365</ele>
        <time>2021-08-15T04:31:58.858Z</time>
      </trkpt>
      <trkpt lat="42.59279" lon="42.08741">
        <ele>265.8123</ele>
        <time>2021-08-15T04:32:15.656Z</time>
      </trkpt>
      <trkpt lat="42.59335" lon="42.08741">
        <ele>265.859436</ele>
        <time>2021-08-15T04:32:28.659Z</time>
      </trkpt>
      <trkpt lat="42.59358" lon="42.08742">
        <ele>264.918276</ele>
        <time>2021-08-15T04:32:33.000Z</time>
      </trkpt>
      <trkpt lat="42.59418" lon="42.08646">
        <ele>261.051508</ele>
        <time>2021-08-15T04:32:49.458Z</time>
      </trkpt>
      <trkpt lat="42.59439" lon="42.08631">
        <ele>260.064271</ele>
        <time>2021-08-15T04:32:53.343Z</time>
      </trkpt>
      <trkpt lat="42.59575" lon="42.08648">
        <ele>247.926238</ele>
        <time>2021-08-15T04:33:13.966Z</time>
      </trkpt>
      <trkpt lat="42.59624" lon="42.08627">
        <ele>242.633213</ele>
        <time>2021-08-15T04:33:21.420Z</time>
      </trkpt>
      <trkpt lat="42.59653" lon="42.08603">
        <ele>239.098238</ele>
        <time>2021-08-15T04:33:26.201Z</time>
      </trkpt>
      <trkpt lat="42.5968" lon="42.08537">
        <ele>232.686392</ele>
        <time>2021-08-15T04:33:34.214Z</time>
      </trkpt>
      <trkpt lat="42.597" lon="42.08519">
        <ele>229.935103</ele>
        <time>2021-08-15T04:33:37.648Z</time>
      </trkpt>
      <trkpt lat="42.59729" lon="42.08503">
        <ele>226.29337</ele>
        <time>2021-08-15T04:33:42.228Z</time>
      </trkpt>
      <trkpt lat="42.59731" lon="42.08478">
        <ele>224.151966</ele>
        <time>2021-08-15T04:33:44.955Z</time>
      </trkpt>
      <trkpt lat="42.59752" lon="42.08425">
        <ele>219.447492</ele>
        <time>2021-08-15T04:33:51.574Z</time>
      </trkpt>
      <trkpt lat="42.5976" lon="42.08418">
        <ele>219.143049</ele>
        <time>2021-08-15T04:33:52.914Z</time>
      </trkpt>
      <trkpt lat="42.59801" lon="42.08412">
        <ele>217.695725</ele>
        <time>2021-08-15T04:33:59.463Z</time>
      </trkpt>
      <trkpt lat="42.59807" lon="42.08407">
        <ele>217.448445</ele>
        <time>2021-08-15T04:34:00.640Z</time>
      </trkpt>
      <trkpt lat="42.59809" lon="42.0839">
        <ele>217.016949</ele>
        <time>2021-08-15T04:34:02.709Z</time>
      </trkpt>
      <trkpt lat="42.59839" lon="42.08407">
        <ele>215.921058</ele>
        <time>2021-08-15T04:34:08.261Z</time>
      </trkpt>
      <trkpt lat="42.59873" lon="42.08413">
        <ele>214.719943</ele>
        <time>2021-08-15T04:34:15.201Z</time>
      </trkpt>
      <trkpt lat="42.59894" lon="42.08423">
        <ele>213.958262</ele>
        <time>2021-08-15T04:34:20.847Z</time>
      </trkpt>
      <trkpt lat="42.59918" lon="42.08446">
        <ele>214.50657</ele>
        <time>2021-08-15T04:34:31.273Z</time>
      </trkpt>
      <trkpt lat="42.5999" lon="42.08441">
        <ele>220.249253</ele>
        <time>2021-08-15T04:35:09.489Z</time>
      </trkpt>
      <trkpt lat="42.60012" lon="42.08422">
        <ele>222.269669</ele>
        <time>2021-08-15T04:35:27.198Z</time>
      </trkpt>
      <trkpt lat="42.60019" lon="42.08403">
        <ele>223.529205</ele>
        <time>2021-08-15T04:35:38.761Z</time>
      </trkpt>
      <trkpt lat="42.59988" lon="42.08353">
        <ele>227.344735</ele>
        <time>2021-08-15T04:36:17.836Z</time>
      </trkpt>
      <trkpt lat="42.59985" lon="42.08329">
        <ele>229.512789</ele>
        <time>2021-08-15T04:36:33.553Z</time>
      </trkpt>
      <trkpt lat="42.59994" lon="42.0832">
        <ele>230.947184</ele>
        <time>2021-08-15T04:36:43.155Z</time>
      </trkpt>
      <trkpt lat="42.60027" lon="42.08314">
        <ele>235.39962</ele>
        <time>2021-08-15T04:37:13.267Z</time>
      </trkpt>
      <trkpt lat="42.60043" lon="42.08303">
        <ele>237.906441</ele>
        <time>2021-08-15T04:37:34.847Z</time>
      </trkpt>
      <trkpt lat="42.60098" lon="42.08227">
        <ele>248.516236</ele>
        <time>2021-08-15T04:38:49.726Z</time>
      </trkpt>
      <trkpt lat="42.60109" lon="42.08196">
        <ele>251.926949</ele>
        <time>2021-08-15T04:39:12.962Z</time>
      </trkpt>
      <trkpt lat="42.60107" lon="42.08159">
        <ele>253.610693</ele>
        <time>2021-08-15T04:39:31.192Z</time>
      </trkpt>
      <trkpt lat="42.60104" lon="42.08152">
        <ele>253.975403</ele>
        <time>2021-08-15T04:39:39.615Z</time>
      </trkpt>
      <trkpt lat="42.60122" lon="42.08132">
        <ele>255.298408</ele>
        <time>2021-08-15T04:39:52.457Z</time>
      </trkpt>
      <trkpt lat="42.60137" lon="42.08121">
        <ele>256.305339</ele>
        <time>2021-08-15T04:40:05.708Z</time>
      </trkpt>
      <trkpt lat="42.60225" lon="42.08105">
        <ele>261.494822</ele>
        <time>2021-08-15T04:40:43.645Z</time>
      </trkpt>
      <trkpt lat="42.6023" lon="42.08104">
        <ele>261.782669</ele>
        <time>2021-08-15T04:40:44.543Z</time>
      </trkpt>
      <trkpt lat="42.60235" lon="42.08103">
        <ele>262.046313</ele>
        <time>2021-08-15T04:40:46.247Z</time>
      </trkpt>
      <trkpt lat="42.60248" lon="42.08077">
        <ele>261.620311</ele>
        <time>2021-08-15T04:40:51.885Z</time>
      </trkpt>
      <trkpt lat="42.60273" lon="42.08049">
        <ele>259.644467</ele>
        <time>2021-08-15T04:40:57.177Z</time>
      </trkpt>
      <trkpt lat="42.60288" lon="42.0804">
        <ele>258.627886</ele>
        <time>2021-08-15T04:40:59.807Z</time>
      </trkpt>
      <trkpt lat="42.6038" lon="42.08042">
        <ele>252.985363</ele>
        <time>2021-08-15T04:41:13.657Z</time>
      </trkpt>
      <trkpt lat="42.60414" lon="42.08052">
        <ele>250.147797</ele>
        <time>2021-08-15T04:41:18.337Z</time>
      </trkpt>
      <trkpt lat="42.60436" lon="42.08034">
        <ele>246.65745</ele>
        <time>2021-08-15T04:41:21.863Z</time>
      </trkpt>
      <trkpt lat="42.6047" lon="42.07988">
        <ele>240.270375</ele>
        <time>2021-08-15T04:41:28.443Z</time>
      </trkpt>
      <trkpt lat="42.60517" lon="42.07987">
        <ele>233.954865</ele>
        <time>2021-08-15T04:41:34.889Z</time>
      </trkpt>
      <trkpt lat="42.60518" lon="42.07985">
        <ele>233.668022</ele>
        <time>2021-08-15T04:41:35.189Z</time>
      </trkpt>
      <trkpt lat="42.60515" lon="42.07977">
        <ele>232.86048</ele>
        <time>2021-08-15T04:41:35.987Z</time>
      </trkpt>
      <trkpt lat="42.60469" lon="42.07959">
        <ele>226.230162</ele>
        <time>2021-08-15T04:41:42.542Z</time>
      </trkpt>
      <trkpt lat="42.60466" lon="42.07953">
        <ele>225.29651</ele>
        <time>2021-08-15T04:41:43.375Z</time>
      </trkpt>
      <trkpt lat="42.60471" lon="42.07944">
        <ele>223.99519</ele>
        <time>2021-08-15T04:41:44.532Z</time>
      </trkpt>
      <trkpt lat="42.60496" lon="42.07941">
        <ele>220.087194</ele>
        <time>2021-08-15T04:41:47.831Z</time>
      </trkpt>
      <trkpt lat="42.60626" lon="42.07952">
        <ele>199.453565</ele>
        <time>2021-08-15T04:42:05.252Z</time>
      </trkpt>
      <trkpt lat="42.60642" lon="42.07945">
        <ele>197.566066</ele>
        <time>2021-08-15T04:42:07.487Z</time>
      </trkpt>
      <trkpt lat="42.60673" lon="42.07905">
        <ele>192.935204</ele>
        <time>2021-08-15T04:42:13.260Z</time>
      </trkpt>
      <trkpt lat="42.60683" lon="42.07894">
        <ele>191.523071</ele>
        <time>2021-08-15T04:42:15.047Z</time>
      </trkpt>
      <trkpt lat="42.60691" lon="42.07887">
        <ele>190.556045</ele>
        <time>2021-08-15T04:42:16.275Z</time>
      </trkpt>
      <trkpt lat="42.60705" lon="42.07869">
        <ele>188.407206</ele>
        <time>2021-08-15T04:42:19.011Z</time>
      </trkpt>
      <trkpt lat="42.60713" lon="42.07856">
        <ele>187.083809</ele>
        <time>2021-08-15T04:42:20.723Z</time>
      </trkpt>
      <trkpt lat="42.6072" lon="42.07842">
        <ele>185.710339</ele>
        <time>2021-08-15T04:42:22.520Z</time>
      </trkpt>
      <trkpt lat="42.60733" lon="42.07816">
        <ele>183.182285</ele>
        <time>2021-08-15T04:42:25.812Z</time>
      </trkpt>
      <trkpt lat="42.60743" lon="42.07793">
        <ele>181.06123</ele>
        <time>2021-08-15T04:42:28.634Z</time>
      </trkpt>
      <trkpt lat="42.60858" lon="42.07583">
        <ele>175.024231</ele>
        <time>2021-08-15T04:43:03.384Z</time>
      </trkpt>
      <trkpt lat="42.60887" lon="42.07529">
        <ele>175.30918</ele>
        <time>2021-08-15T04:43:16.344Z</time>
      </trkpt>
      <trkpt lat="42.60912" lon="42.07527">
        <ele>175.467581</ele>
        <time>2021-08-15T04:43:23.224Z</time>
      </trkpt>
      <trkpt lat="42.60927" lon="42.07525">
        <ele>175.566438</ele>
        <time>2021-08-15T04:43:27.542Z</time>
      </trkpt>
      <trkpt lat="42.60988" lon="42.07518">
        <ele>175.951955</ele>
        <time>2021-08-15T04:43:44.497Z</time>
      </trkpt>
      <trkpt lat="42.61057" lon="42.07511">
        <ele>176.605559</ele>
        <time>2021-08-15T04:44:03.742Z</time>
      </trkpt>
      <trkpt lat="42.61073" lon="42.07615">
        <ele>177.54471</ele>
        <time>2021-08-15T04:44:25.842Z</time>
      </trkpt>
      <trkpt lat="42.61142" lon="42.07626">
        <ele>178.430019</ele>
        <time>2021-08-15T04:44:45.639Z</time>
      </trkpt>
      <trkpt lat="42.61195" lon="42.07643">
        <ele>179.634028</ele>
        <time>2021-08-15T04:45:03.951Z</time>
      </trkpt>
      <trkpt lat="42.61224" lon="42.07642">
        <ele>180.280583</ele>
        <time>2021-08-15T04:45:13.730Z</time>
      </trkpt>
      <trkpt lat="42.6123" lon="42.07699">
        <ele>181.197889</ele>
        <time>2021-08-15T04:45:28.870Z</time>
      </trkpt>
      <trkpt lat="42.61251" lon="42.07725">
        <ele>181.83398</ele>
        <time>2021-08-15T04:45:38.855Z</time>
      </trkpt>
      <trkpt lat="42.61256" lon="42.07731">
        <ele>181.981235</ele>
        <time>2021-08-15T04:45:41.698Z</time>
      </trkpt>
      <trkpt lat="42.61265" lon="42.07751">
        <ele>182.393558</ele>
        <time>2021-08-15T04:45:47.868Z</time>
      </trkpt>
      <trkpt lat="42.6127" lon="42.07759">
        <ele>182.626064</ele>
        <time>2021-08-15T04:45:50.705Z</time>
      </trkpt>
      <trkpt lat="42.61307" lon="42.07754">
        <ele>183.71133</ele>
        <time>2021-08-15T04:46:04.492Z</time>
      </trkpt>
      <trkpt lat="42.6145" lon="42.07779">
        <ele>187.935283</ele>
        <time>2021-08-15T04:46:59.899Z</time>
      </trkpt>
      <trkpt lat="42.61542" lon="42.07787">
        <ele>190.636703</ele>
        <time>2021-08-15T04:47:33.925Z</time>
      </trkpt>
      <trkpt lat="42.61544" lon="42.07787">
        <ele>190.698745</ele>
        <time>2021-08-15T04:47:35.615Z</time>
      </trkpt>
      <trkpt lat="42.61595" lon="42.07789">
        <ele>192.202287</ele>
        <time>2021-08-15T04:47:54.718Z</time>
      </trkpt>
      <trkpt lat="42.61653" lon="42.0779">
        <ele>193.686596</ele>
        <time>2021-08-15T04:48:17.199Z</time>
      </trkpt>
      <trkpt lat="42.61736" lon="42.07813">
        <ele>195.637866</ele>
        <time>2021-08-15T04:48:47.069Z</time>
      </trkpt>
      <trkpt lat="42.61784" lon="42.07839">
        <ele>196.826328</ele>
        <time>2021-08-15T04:49:03.371Z</time>
      </trkpt>
      <trkpt lat="42.61852" lon="42.07885">
        <ele>197.802537</ele>
        <time>2021-08-15T04:49:26.229Z</time>
      </trkpt>
      <trkpt lat="42.61893" lon="42.07921">
        <ele>198.382729</ele>
        <time>2021-08-15T04:49:40.195Z</time>
      </trkpt>
      <trkpt lat="42.61908" lon="42.07941">
        <ele>198.625405</ele>
        <time>2021-08-15T04:49:46.073Z</time>
      </trkpt>
      <trkpt lat="42.61926" lon="42.07966">
        <ele>198.932077</ele>
        <time>2021-08-15T04:49:53.200Z</time>
      </trkpt>
      <trkpt lat="42.6196" lon="42.08001">
        <ele>199.369254</ele>
        <time>2021-08-15T04:50:04.896Z</time>
      </trkpt>
      <trkpt lat="42.62019" lon="42.08057">
        <ele>200.071032</ele>
        <time>2021-08-15T04:50:24.989Z</time>
      </trkpt>
      <trkpt lat="42.62068" lon="42.08088">
        <ele>200.592208</ele>
        <time>2021-08-15T04:50:39.969Z</time>
      </trkpt>
      <trkpt lat="42.62173" lon="42.08249">
        <ele>202.474276</ele>
        <time>2021-08-15T04:51:26.081Z</time>
      </trkpt>
      <trkpt lat="42.62175" lon="42.08265">
        <ele>202.623162</ele>
        <time>2021-08-15T04:51:29.730Z</time>
      </trkpt>
      <trkpt lat="42.62407" lon="42.08325">
        <ele>205.50422</ele>
        <time>2021-08-15T04:52:39.767Z</time>
      </trkpt>
      <trkpt lat="42.62427" lon="42.08326">
        <ele>205.648098</ele>
        <time>2021-08-15T04:52:45.305Z</time>
      </trkpt>
      <trkpt lat="42.62449" lon="42.08302">
        <ele>205.855349</ele>
        <time>2021-08-15T04:52:53.129Z</time>
      </trkpt>
      <trkpt lat="42.62462" lon="42.0827">
        <ele>206.048846</ele>
        <time>2021-08-15T04:53:00.318Z</time>
      </trkpt>
      <trkpt lat="42.62477" lon="42.08205">
        <ele>206.410931</ele>
        <time>2021-08-15T04:53:13.359Z</time>
      </trkpt>
      <trkpt lat="42.62484" lon="42.08189">
        <ele>206.510891</ele>
        <time>2021-08-15T04:53:16.863Z</time>
      </trkpt>
      <trkpt lat="42.6251" lon="42.08164">
        <ele>206.687167</ele>
        <time>2021-08-15T04:53:24.798Z</time>
      </trkpt>
      <trkpt lat="42.62541" lon="42.08162">
        <ele>206.767489</ele>
        <time>2021-08-15T04:53:32.487Z</time>
      </trkpt>
      <trkpt lat="42.62564" lon="42.08152">
        <ele>206.828665</ele>
        <time>2021-08-15T04:53:38.380Z</time>
      </trkpt>
      <trkpt lat="42.62574" lon="42.08079">
        <ele>206.968919</ele>
        <time>2021-08-15T04:53:51.932Z</time>
      </trkpt>
      <trkpt lat="42.62619" lon="42.07992">
        <ele>207.1411</ele>
        <time>2021-08-15T04:54:10.834Z</time>
      </trkpt>
      <trkpt lat="42.62636" lon="42.07944">
        <ele>207.18539</ele>
        <time>2021-08-15T04:54:20.104Z</time>
      </trkpt>
      <trkpt lat="42.62701" lon="42.07802">
        <ele>207.329663</ele>
        <time>2021-08-15T04:54:48.752Z</time>
      </trkpt>
      <trkpt lat="42.62747" lon="42.07603">
        <ele>207.861808</ele>
        <time>2021-08-15T04:55:25.779Z</time>
      </trkpt>
      <trkpt lat="42.6276" lon="42.07554">
        <ele>208.112742</ele>
        <time>2021-08-15T04:55:36.525Z</time>
      </trkpt>
      <trkpt lat="42.62872" lon="42.07746">
        <ele>210.18747</ele>
        <time>2021-08-15T04:56:30.366Z</time>
      </trkpt>
      <trkpt lat="42.62946" lon="42.07863">
        <ele>211.257789</ele>
        <time>2021-08-15T04:57:02.046Z</time>
      </trkpt>
      <trkpt lat="42.63004" lon="42.07954">
        <ele>212.09631</ele>
        <time>2021-08-15T04:57:25.965Z</time>
      </trkpt>
      <trkpt lat="42.63051" lon="42.08006">
        <ele>212.655877</ele>
        <time>2021-08-15T04:57:42.349Z</time>
      </trkpt>
      <trkpt lat="42.63069" lon="42.08028">
        <ele>212.885817</ele>
        <time>2021-08-15T04:57:49.263Z</time>
      </trkpt>
      <trkpt lat="42.63099" lon="42.08062">
        <ele>213.246593</ele>
        <time>2021-08-15T04:58:00.242Z</time>
      </trkpt>
      <trkpt lat="42.63123" lon="42.08095">
        <ele>213.622806</ele>
        <time>2021-08-15T04:58:10.124Z</time>
      </trkpt>
      <trkpt lat="42.63176" lon="42.08284">
        <ele>215.571927</ele>
        <time>2021-08-15T04:58:54.903Z</time>
      </trkpt>
      <trkpt lat="42.63186" lon="42.08308">
        <ele>215.832545</ele>
        <time>2021-08-15T04:59:01.099Z</time>
      </trkpt>
      <trkpt lat="42.63198" lon="42.0833">
        <ele>216.075513</ele>
        <time>2021-08-15T04:59:06.974Z</time>
      </trkpt>
      <trkpt lat="42.63228" lon="42.08351">
        <ele>216.480496</ele>
        <time>2021-08-15T04:59:16.815Z</time>
      </trkpt>
      <trkpt lat="42.6325" lon="42.08365">
        <ele>216.777277</ele>
        <time>2021-08-15T04:59:24.118Z</time>
      </trkpt>
      <trkpt lat="42.63275" lon="42.0838">
        <ele>217.102535</ele>
        <time>2021-08-15T04:59:31.832Z</time>
      </trkpt>
      <trkpt lat="42.63382" lon="42.08433">
        <ele>218.457654</ele>
        <time>2021-08-15T05:00:04.757Z</time>
      </trkpt>
      <trkpt lat="42.63416" lon="42.0845">
        <ele>218.876771</ele>
        <time>2021-08-15T05:00:14.548Z</time>
      </trkpt>
      <trkpt lat="42.63423" lon="42.08453">
        <ele>218.969837</ele>
        <time>2021-08-15T05:00:16.882Z</time>
      </trkpt>
      <trkpt lat="42.63573" lon="42.08533">
        <ele>221.010466</ele>
        <time>2021-08-15T05:01:04.090Z</time>
      </trkpt>
      <trkpt lat="42.63586" lon="42.08543">
        <ele>221.217266</ele>
        <time>2021-08-15T05:01:08.780Z</time>
      </trkpt>
      <trkpt lat="42.63672" lon="42.08612">
        <ele>222.627408</ele>
        <time>2021-08-15T05:01:39.546Z</time>
      </trkpt>
      <trkpt lat="42.63745" lon="42.08675">
        <ele>223.993622</ele>
        <time>2021-08-15T05:02:06.599Z</time>
      </trkpt>
      <trkpt lat="42.63811" lon="42.0874">
        <ele>225.282235</ele>
        <time>2021-08-15T05:02:31.861Z</time>
      </trkpt>
      <trkpt lat="42.63847" lon="42.08772">
        <ele>226.01155</ele>
        <time>2021-08-15T05:02:44.882Z</time>
      </trkpt>
      <trkpt lat="42.63874" lon="42.08799">
        <ele>226.598706</ele>
        <time>2021-08-15T05:02:55.511Z</time>
      </trkpt>
      <trkpt lat="42.63884" lon="42.08809">
        <ele>226.808724</ele>
        <time>2021-08-15T05:02:59.215Z</time>
      </trkpt>
      <trkpt lat="42.639" lon="42.08824">
        <ele>227.156156</ele>
        <time>2021-08-15T05:03:05.886Z</time>
      </trkpt>
      <trkpt lat="42.63952" lon="42.08867">
        <ele>228.205944</ele>
        <time>2021-08-15T05:03:25.471Z</time>
      </trkpt>
      <trkpt lat="42.63979" lon="42.08884">
        <ele>228.726959</ele>
        <time>2021-08-15T05:03:34.939Z</time>
      </trkpt>
      <trkpt lat="42.63985" lon="42.08887">
        <ele>228.827894</ele>
        <time>2021-08-15T05:03:37.005Z</time>
      </trkpt>
      <trkpt lat="42.64013" lon="42.08907">
        <ele>229.381073</ele>
        <time>2021-08-15T05:03:47.400Z</time>
      </trkpt>
      <trkpt lat="42.64023" lon="42.08914">
        <ele>229.578585</ele>
        <time>2021-08-15T05:03:51.416Z</time>
      </trkpt>
      <trkpt lat="42.64044" lon="42.08929">
        <ele>229.970919</ele>
        <time>2021-08-15T05:03:58.629Z</time>
      </trkpt>
      <trkpt lat="42.64122" lon="42.09003">
        <ele>231.603491</ele>
        <time>2021-08-15T05:04:28.942Z</time>
      </trkpt>
      <trkpt lat="42.64143" lon="42.0903">
        <ele>231.768354</ele>
        <time>2021-08-15T05:04:37.736Z</time>
      </trkpt>
      <trkpt lat="42.64167" lon="42.09062">
        <ele>231.945957</ele>
        <time>2021-08-15T05:04:47.426Z</time>
      </trkpt>
      <trkpt lat="42.64199" lon="42.09106">
        <ele>232.185779</ele>
        <time>2021-08-15T05:04:59.708Z</time>
      </trkpt>
      <trkpt lat="42.64236" lon="42.09069">
        <ele>232.429786</ele>
        <time>2021-08-15T05:05:11.501Z</time>
      </trkpt>
      <trkpt lat="42.64281" lon="42.09023">
        <ele>231.70173</ele>
        <time>2021-08-15T05:05:22.685Z</time>
      </trkpt>
      <trkpt lat="42.64333" lon="42.08952">
        <ele>229.581374</ele>
        <time>2021-08-15T05:05:35.611Z</time>
      </trkpt>
      <trkpt lat="42.64341" lon="42.08935">
        <ele>229.145682</ele>
        <time>2021-08-15T05:05:38.149Z</time>
      </trkpt>
      <trkpt lat="42.64359" lon="42.08899">
        <ele>228.210387</ele>
        <time>2021-08-15T05:05:43.280Z</time>
      </trkpt>
      <trkpt lat="42.64406" lon="42.08815">
        <ele>225.66432</ele>
        <time>2021-08-15T05:05:55.949Z</time>
      </trkpt>
      <trkpt lat="42.64421" lon="42.08796">
        <ele>224.922913</ele>
        <time>2021-08-15T05:05:59.295Z</time>
      </trkpt>
      <trkpt lat="42.64423" lon="42.08793">
        <ele>224.812793</ele>
        <time>2021-08-15T05:05:59.763Z</time>
      </trkpt>
      <trkpt lat="42.64431" lon="42.08783">
        <ele>224.452734</ele>
        <time>2021-08-15T05:06:01.590Z</time>
      </trkpt>
      <trkpt lat="42.64455" lon="42.08754">
        <ele>223.312491</ele>
        <time>2021-08-15T05:06:06.788Z</time>
      </trkpt>
      <trkpt lat="42.64463" lon="42.08747">
        <ele>222.977836</ele>
        <time>2021-08-15T05:06:08.472Z</time>
      </trkpt>
      <trkpt lat="42.64463" lon="42.08746">
        <ele>222.960288</ele>
        <time>2021-08-15T05:06:08.557Z</time>
      </trkpt>
      <trkpt lat="42.64472" lon="42.08738">
        <ele>222.565718</ele>
        <time>2021-08-15T05:06:10.482Z</time>
      </trkpt>
      <trkpt lat="42.64487" lon="42.08712">
        <ele>221.72602</ele>
        <time>2021-08-15T05:06:14.645Z</time>
      </trkpt>
      <trkpt lat="42.64527" lon="42.08532">
        <ele>219.354007</ele>
        <time>2021-08-15T05:06:40.983Z</time>
      </trkpt>
      <trkpt lat="42.64531" lon="42.08487">
        <ele>218.891717</ele>
        <time>2021-08-15T05:06:47.804Z</time>
      </trkpt>
      <trkpt lat="42.64533" lon="42.08458">
        <ele>218.591431</ele>
        <time>2021-08-15T05:06:52.344Z</time>
      </trkpt>
      <trkpt lat="42.64534" lon="42.08441">
        <ele>218.433119</ele>
        <time>2021-08-15T05:06:54.782Z</time>
      </trkpt>
      <trkpt lat="42.64543" lon="42.08291">
        <ele>217.323765</ele>
        <time>2021-08-15T05:07:16.637Z</time>
      </trkpt>
      <trkpt lat="42.64545" lon="42.08241">
        <ele>216.960106</ele>
        <time>2021-08-15T05:07:23.709Z</time>
      </trkpt>
      <trkpt lat="42.64545" lon="42.08234">
        <ele>216.907759</ele>
        <time>2021-08-15T05:07:24.759Z</time>
      </trkpt>
      <trkpt lat="42.64546" lon="42.0821">
        <ele>216.728328</ele>
        <time>2021-08-15T05:07:28.410Z</time>
      </trkpt>
      <trkpt lat="42.64548" lon="42.08178">
        <ele>216.667501</ele>
        <time>2021-08-15T05:07:33.068Z</time>
      </trkpt>
      <trkpt lat="42.64557" lon="42.08013">
        <ele>216.556886</ele>
        <time>2021-08-15T05:07:59.762Z</time>
      </trkpt>
      <trkpt lat="42.64557" lon="42.08008">
        <ele>216.553536</ele>
        <time>2021-08-15T05:08:00.527Z</time>
      </trkpt>
      <trkpt lat="42.6456" lon="42.07962">
        <ele>216.523299</ele>
        <time>2021-08-15T05:08:09.361Z</time>
      </trkpt>
      <trkpt lat="42.64569" lon="42.07906">
        <ele>216.94085</ele>
        <time>2021-08-15T05:08:20.421Z</time>
      </trkpt>
      <trkpt lat="42.64576" lon="42.07892">
        <ele>217.07142</ele>
        <time>2021-08-15T05:08:23.654Z</time>
      </trkpt>
      <trkpt lat="42.64593" lon="42.07883">
        <ele>217.253699</ele>
        <time>2021-08-15T05:08:29.092Z</time>
      </trkpt>
      <trkpt lat="42.64797" lon="42.07867">
        <ele>219.272481</ele>
        <time>2021-08-15T05:09:26.423Z</time>
      </trkpt>
      <trkpt lat="42.64817" lon="42.07864">
        <ele>219.464253</ele>
        <time>2021-08-15T05:09:31.471Z</time>
      </trkpt>
      <trkpt lat="42.64855" lon="42.07859">
        <ele>219.816742</ele>
        <time>2021-08-15T05:09:40.912Z</time>
      </trkpt>
      <trkpt lat="42.64916" lon="42.07856">
        <ele>220.432475</ele>
        <time>2021-08-15T05:09:56.972Z</time>
      </trkpt>
      <trkpt lat="42.64997" lon="42.07852">
        <ele>221.294897</ele>
        <time>2021-08-15T05:10:18.690Z</time>
      </trkpt>
      <trkpt lat="42.65004" lon="42.07852">
        <ele>221.369408</ele>
        <time>2021-08-15T05:10:20.841Z</time>
      </trkpt>
      <trkpt lat="42.65042" lon="42.0785">
        <ele>221.782394</ele>
        <time>2021-08-15T05:10:32.267Z</time>
      </trkpt>
      <trkpt lat="42.6512" lon="42.07844">
        <ele>222.683179</ele>
        <time>2021-08-15T05:10:54.529Z</time>
      </trkpt>
      <trkpt lat="42.65145" lon="42.07842">
        <ele>222.987847</ele>
        <time>2021-08-15T05:11:01.839Z</time>
      </trkpt>
      <trkpt lat="42.6516" lon="42.07841">
        <ele>223.164171</ele>
        <time>2021-08-15T05:11:05.999Z</time>
      </trkpt>
      <trkpt lat="42.65193" lon="42.07839">
        <ele>223.56099</ele>
        <time>2021-08-15T05:11:15.264Z</time>
      </trkpt>
      <trkpt lat="42.65218" lon="42.07844">
        <ele>223.87218</ele>
        <time>2021-08-15T05:11:22.378Z</time>
      </trkpt>
      <trkpt lat="42.65295" lon="42.07895">
        <ele>224.757398</ele>
        <time>2021-08-15T05:11:45.671Z</time>
      </trkpt>
      <trkpt lat="42.65302" lon="42.07901">
        <ele>224.840302</ele>
        <time>2021-08-15T05:11:47.766Z</time>
      </trkpt>
      <trkpt lat="42.65333" lon="42.07922">
        <ele>225.176085</ele>
        <time>2021-08-15T05:11:56.556Z</time>
      </trkpt>
      <trkpt lat="42.65492" lon="42.08047">
        <ele>226.75898</ele>
        <time>2021-08-15T05:12:47.726Z</time>
      </trkpt>
      <trkpt lat="42.65505" lon="42.0805">
        <ele>226.858221</ele>
        <time>2021-08-15T05:12:51.355Z</time>
      </trkpt>
      <trkpt lat="42.65527" lon="42.08056">
        <ele>227.036319</ele>
        <time>2021-08-15T05:12:57.498Z</time>
      </trkpt>
      <trkpt lat="42.65582" lon="42.0806">
        <ele>227.02487</ele>
        <time>2021-08-15T05:13:09.589Z</time>
      </trkpt>
      <trkpt lat="42.65598" lon="42.08059">
        <ele>226.835121</ele>
        <time>2021-08-15T05:13:13.114Z</time>
      </trkpt>
      <trkpt lat="42.65652" lon="42.08056">
        <ele>226.154825</ele>
        <time>2021-08-15T05:13:24.128Z</time>
      </trkpt>
      <trkpt lat="42.65682" lon="42.08051">
        <ele>225.782401</ele>
        <time>2021-08-15T05:13:29.985Z</time>
      </trkpt>
      <trkpt lat="42.6569" lon="42.08049">
        <ele>225.677955</ele>
        <time>2021-08-15T05:13:31.387Z</time>
      </trkpt>
      <trkpt lat="42.65753" lon="42.07984">
        <ele>224.513048</ele>
        <time>2021-08-15T05:13:45.393Z</time>
      </trkpt>
      <trkpt lat="42.65779" lon="42.0797">
        <ele>223.988767</ele>
        <time>2021-08-15T05:13:50.208Z</time>
      </trkpt>
      <trkpt lat="42.65825" lon="42.0796">
        <ele>223.113489</ele>
        <time>2021-08-15T05:13:58.433Z</time>
      </trkpt>
      <trkpt lat="42.65896" lon="42.07958">
        <ele>221.766918</ele>
        <time>2021-08-15T05:14:12.307Z</time>
      </trkpt>
      <trkpt lat="42.659" lon="42.07958">
        <ele>221.704945</ele>
        <time>2021-08-15T05:14:12.965Z</time>
      </trkpt>
      <trkpt lat="42.65944" lon="42.07955">
        <ele>222.240855</ele>
        <time>2021-08-15T05:14:22.549Z</time>
      </trkpt>
      <trkpt lat="42.65947" lon="42.0795">
        <ele>222.310377</ele>
        <time>2021-08-15T05:14:24.302Z</time>
      </trkpt>
      <trkpt lat="42.65954" lon="42.07886">
        <ele>222.936293</ele>
        <time>2021-08-15T05:14:36.620Z</time>
      </trkpt>
      <trkpt lat="42.6598" lon="42.07832">
        <ele>223.555293</ele>
        <time>2021-08-15T05:14:51.361Z</time>
      </trkpt>
      <trkpt lat="42.66096" lon="42.0771">
        <ele>227.601149</ele>
        <time>2021-08-15T05:15:49.913Z</time>
      </trkpt>
      <trkpt lat="42.66124" lon="42.07695">
        <ele>228.594074</ele>
        <time>2021-08-15T05:16:01.692Z</time>
      </trkpt>
      <trkpt lat="42.6613" lon="42.07692">
        <ele>228.789462</ele>
        <time>2021-08-15T05:16:04.163Z</time>
      </trkpt>
      <trkpt lat="42.66191" lon="42.07667">
        <ele>230.493863</ele>
        <time>2021-08-15T05:16:27.468Z</time>
      </trkpt>
      <trkpt lat="42.6622" lon="42.07665">
        <ele>231.088701</ele>
        <time>2021-08-15T05:16:37.710Z</time>
      </trkpt>
      <trkpt lat="42.66254" lon="42.07663">
        <ele>231.796788</ele>
        <time>2021-08-15T05:16:49.360Z</time>
      </trkpt>
      <trkpt lat="42.66321" lon="42.07664">
        <ele>233.165842</ele>
        <time>2021-08-15T05:17:09.285Z</time>
      </trkpt>
      <trkpt lat="42.66427" lon="42.07677">
        <ele>234.400771</ele>
        <time>2021-08-15T05:17:39.065Z</time>
      </trkpt>
      <trkpt lat="42.66436" lon="42.0768">
        <ele>234.488775</ele>
        <time>2021-08-15T05:17:41.639Z</time>
      </trkpt>
      <trkpt lat="42.66463" lon="42.07688">
        <ele>234.753106</ele>
        <time>2021-08-15T05:17:48.871Z</time>
      </trkpt>
      <trkpt lat="42.6655" lon="42.07716">
        <ele>235.36586</ele>
        <time>2021-08-15T05:18:11.936Z</time>
      </trkpt>
      <trkpt lat="42.66726" lon="42.07783">
        <ele>235.466372</ele>
        <time>2021-08-15T05:18:53.999Z</time>
      </trkpt>
      <trkpt lat="42.66858" lon="42.07849">
        <ele>234.45884</ele>
        <time>2021-08-15T05:19:21.292Z</time>
      </trkpt>
      <trkpt lat="42.66875" lon="42.07845">
        <ele>234.56615</ele>
        <time>2021-08-15T05:19:25.655Z</time>
      </trkpt>
      <trkpt lat="42.66885" lon="42.07848">
        <ele>234.654933</ele>
        <time>2021-08-15T05:19:27.746Z</time>
      </trkpt>
      <trkpt lat="42.66889" lon="42.07849">
        <ele>234.695449</ele>
        <time>2021-08-15T05:19:28.597Z</time>
      </trkpt>
      <trkpt lat="42.66918" lon="42.0787">
        <ele>234.989107</ele>
        <time>2021-08-15T05:19:37.080Z</time>
      </trkpt>
      <trkpt lat="42.66936" lon="42.07904">
        <ele>235.265397</ele>
        <time>2021-08-15T05:19:45.699Z</time>
      </trkpt>
      <trkpt lat="42.66948" lon="42.0795">
        <ele>235.584083</ele>
        <time>2021-08-15T05:19:56.466Z</time>
      </trkpt>
      <trkpt lat="42.66968" lon="42.07992">
        <ele>235.918488</ele>
        <time>2021-08-15T05:20:08.919Z</time>
      </trkpt>
      <trkpt lat="42.67013" lon="42.08057">
        <ele>236.255871</ele>
        <time>2021-08-15T05:20:27.969Z</time>
      </trkpt>
      <trkpt lat="42.67052" lon="42.08096">
        <ele>236.453192</ele>
        <time>2021-08-15T05:20:39.026Z</time>
      </trkpt>
      <trkpt lat="42.6707" lon="42.0811">
        <ele>236.537521</ele>
        <time>2021-08-15T05:20:45.634Z</time>
      </trkpt>
      <trkpt lat="42.67098" lon="42.08119">
        <ele>236.654885</ele>
        <time>2021-08-15T05:20:51.530Z</time>
      </trkpt>
      <trkpt lat="42.67149" lon="42.08135">
        <ele>236.669499</ele>
        <time>2021-08-15T05:21:02.168Z</time>
      </trkpt>
      <trkpt lat="42.67187" lon="42.08145">
        <ele>236.463436</ele>
        <time>2021-08-15T05:21:09.527Z</time>
      </trkpt>
      <trkpt lat="42.67236" lon="42.0816">
        <ele>236.195229</ele>
        <time>2021-08-15T05:21:18.749Z</time>
      </trkpt>
      <trkpt lat="42.67459" lon="42.08226">
        <ele>237.440757</ele>
        <time>2021-08-15T05:22:17.893Z</time>
      </trkpt>
      <trkpt lat="42.67485" lon="42.08247">
        <ele>237.89478</ele>
        <time>2021-08-15T05:22:28.210Z</time>
      </trkpt>
      <trkpt lat="42.67523" lon="42.08289">
        <ele>239.224718</ele>
        <time>2021-08-15T05:22:44.922Z</time>
      </trkpt>
      <trkpt lat="42.67533" lon="42.08299">
        <ele>239.555106</ele>
        <time>2021-08-15T05:22:48.874Z</time>
      </trkpt>
      <trkpt lat="42.67539" lon="42.08307">
        <ele>239.787034</ele>
        <time>2021-08-15T05:22:52.281Z</time>
      </trkpt>
      <trkpt lat="42.67546" lon="42.08316">
        <ele>240.042962</ele>
        <time>2021-08-15T05:22:55.622Z</time>
      </trkpt>
      <trkpt lat="42.67552" lon="42.08322">
        <ele>240.244226</ele>
        <time>2021-08-15T05:22:58.178Z</time>
      </trkpt>
      <trkpt lat="42.67563" lon="42.08337">
        <ele>240.66927</ele>
        <time>2021-08-15T05:23:03.706Z</time>
      </trkpt>
      <trkpt lat="42.67566" lon="42.0834">
        <ele>240.768226</ele>
        <time>2021-08-15T05:23:05.358Z</time>
      </trkpt>
      <trkpt lat="42.67584" lon="42.08361">
        <ele>241.415834</ele>
        <time>2021-08-15T05:23:13.713Z</time>
      </trkpt>
      <trkpt lat="42.67588" lon="42.08366">
        <ele>241.550865</ele>
        <time>2021-08-15T05:23:15.804Z</time>
      </trkpt>
      <trkpt lat="42.67613" lon="42.08394">
        <ele>242.429858</ele>
        <time>2021-08-15T05:23:28.159Z</time>
      </trkpt>
      <trkpt lat="42.67632" lon="42.08418">
        <ele>243.345111</ele>
        <time>2021-08-15T05:23:38.834Z</time>
      </trkpt>
      <trkpt lat="42.67654" lon="42.08469">
        <ele>244.932183</ele>
        <time>2021-08-15T05:23:56.883Z</time>
      </trkpt>
      <trkpt lat="42.67671" lon="42.08481">
        <ele>245.649762</ele>
        <time>2021-08-15T05:24:05.231Z</time>
      </trkpt>
      <trkpt lat="42.67765" lon="42.08489">
        <ele>249.113717</ele>
        <time>2021-08-15T05:24:43.091Z</time>
      </trkpt>
      <trkpt lat="42.67791" lon="42.08496">
        <ele>250.057463</ele>
        <time>2021-08-15T05:24:54.007Z</time>
      </trkpt>
      <trkpt lat="42.67893" lon="42.0853">
        <ele>253.749892</ele>
        <time>2021-08-15T05:25:36.718Z</time>
      </trkpt>
      <trkpt lat="42.6797" lon="42.08573">
        <ele>256.411291</ele>
        <time>2021-08-15T05:26:08.855Z</time>
      </trkpt>
      <trkpt lat="42.67992" lon="42.08589">
        <ele>257.087131</ele>
        <time>2021-08-15T05:26:18.146Z</time>
      </trkpt>
      <trkpt lat="42.68021" lon="42.08527">
        <ele>258.556844</ele>
        <time>2021-08-15T05:26:36.796Z</time>
      </trkpt>
      <trkpt lat="42.681" lon="42.08363">
        <ele>262.741683</ele>
        <time>2021-08-15T05:27:26.756Z</time>
      </trkpt>
      <trkpt lat="42.68105" lon="42.08355">
        <ele>262.978932</ele>
        <time>2021-08-15T05:27:29.877Z</time>
      </trkpt>
      <trkpt lat="42.68128" lon="42.08315">
        <ele>264.103537</ele>
        <time>2021-08-15T05:27:43.795Z</time>
      </trkpt>
      <trkpt lat="42.68198" lon="42.08244">
        <ele>267.067112</ele>
        <time>2021-08-15T05:28:19.209Z</time>
      </trkpt>
      <trkpt lat="42.68216" lon="42.08228">
        <ele>267.917356</ele>
        <time>2021-08-15T05:28:28.792Z</time>
      </trkpt>
      <trkpt lat="42.68245" lon="42.08201">
        <ele>269.304335</ele>
        <time>2021-08-15T05:28:43.550Z</time>
      </trkpt>
      <trkpt lat="42.68359" lon="42.08133">
        <ele>273.943469</ele>
        <time>2021-08-15T05:29:37.829Z</time>
      </trkpt>
      <trkpt lat="42.68568" lon="42.07936">
        <ele>279.827747</ele>
        <time>2021-08-15T05:31:07.201Z</time>
      </trkpt>
      <trkpt lat="42.68593" lon="42.07914">
        <ele>280.245801</ele>
        <time>2021-08-15T05:31:14.571Z</time>
      </trkpt>
      <trkpt lat="42.68602" lon="42.07907">
        <ele>280.393646</ele>
        <time>2021-08-15T05:31:16.665Z</time>
      </trkpt>
      <trkpt lat="42.68639" lon="42.07874">
        <ele>280.812982</ele>
        <time>2021-08-15T05:31:25.991Z</time>
      </trkpt>
      <trkpt lat="42.68718" lon="42.07821">
        <ele>280.31943</ele>
        <time>2021-08-15T05:31:43.504Z</time>
      </trkpt>
      <trkpt lat="42.68822" lon="42.07675">
        <ele>280.910867</ele>
        <time>2021-08-15T05:32:15.273Z</time>
      </trkpt>
      <trkpt lat="42.68844" lon="42.07618">
        <ele>281.65419</ele>
        <time>2021-08-15T05:32:30.814Z</time>
      </trkpt>
      <trkpt lat="42.68865" lon="42.07586">
        <ele>282.151541</ele>
        <time>2021-08-15T05:32:42.267Z</time>
      </trkpt>
      <trkpt lat="42.68871" lon="42.07575">
        <ele>282.303593</ele>
        <time>2021-08-15T05:32:45.782Z</time>
      </trkpt>
      <trkpt lat="42.68882" lon="42.07554">
        <ele>282.59932</ele>
        <time>2021-08-15T05:32:53.467Z</time>
      </trkpt>
      <trkpt lat="42.689" lon="42.07535">
        <ele>283.220258</ele>
        <time>2021-08-15T05:33:01.674Z</time>
      </trkpt>
      <trkpt lat="42.68903" lon="42.07532">
        <ele>283.33599</ele>
        <time>2021-08-15T05:33:04.518Z</time>
      </trkpt>
      <trkpt lat="42.69003" lon="42.07439">
        <ele>286.927517</ele>
        <time>2021-08-15T05:33:52.420Z</time>
      </trkpt>
      <trkpt lat="42.69063" lon="42.07406">
        <ele>288.222197</ele>
        <time>2021-08-15T05:34:12.869Z</time>
      </trkpt>
      <trkpt lat="42.69087" lon="42.07382">
        <ele>288.423284</ele>
        <time>2021-08-15T05:34:20.434Z</time>
      </trkpt>
      <trkpt lat="42.6911" lon="42.07348">
        <ele>288.658574</ele>
        <time>2021-08-15T05:34:28.885Z</time>
      </trkpt>
      <trkpt lat="42.69137" lon="42.07334">
        <ele>288.859447</ele>
        <time>2021-08-15T05:34:35.682Z</time>
      </trkpt>
      <trkpt lat="42.69151" lon="42.07327">
        <ele>288.962499</ele>
        <time>2021-08-15T05:34:39.006Z</time>
      </trkpt>
      <trkpt lat="42.69215" lon="42.07287">
        <ele>289.449417</ele>
        <time>2021-08-15T05:34:54.524Z</time>
      </trkpt>
      <trkpt lat="42.69308" lon="42.07207">
        <ele>290.220254</ele>
        <time>2021-08-15T05:35:20.427Z</time>
      </trkpt>
      <trkpt lat="42.69361" lon="42.07176">
        <ele>291.099283</ele>
        <time>2021-08-15T05:35:37.983Z</time>
      </trkpt>
      <trkpt lat="42.6943" lon="42.07102">
        <ele>294.809857</ele>
        <time>2021-08-15T05:36:10.050Z</time>
      </trkpt>
      <trkpt lat="42.69446" lon="42.07087">
        <ele>295.619984</ele>
        <time>2021-08-15T05:36:21.621Z</time>
      </trkpt>
      <trkpt lat="42.69457" lon="42.07076">
        <ele>296.211092</ele>
        <time>2021-08-15T05:36:26.903Z</time>
      </trkpt>
      <trkpt lat="42.69508" lon="42.07035">
        <ele>299.334201</ele>
        <time>2021-08-15T05:37:00.444Z</time>
      </trkpt>
      <trkpt lat="42.69532" lon="42.07012">
        <ele>301.866454</ele>
        <time>2021-08-15T05:37:14.566Z</time>
      </trkpt>
      <trkpt lat="42.69535" lon="42.07009">
        <ele>302.195569</ele>
        <time>2021-08-15T05:37:19.820Z</time>
      </trkpt>
      <trkpt lat="42.69539" lon="42.06991">
        <ele>303.385196</ele>
        <time>2021-08-15T05:37:27.013Z</time>
      </trkpt>
      <trkpt lat="42.6952" lon="42.06921">
        <ele>308.153917</ele>
        <time>2021-08-15T05:38:02.296Z</time>
      </trkpt>
      <trkpt lat="42.69496" lon="42.06876">
        <ele>311.684097</ele>
        <time>2021-08-15T05:38:32.866Z</time>
      </trkpt>
      <trkpt lat="42.69492" lon="42.06855">
        <ele>313.062021</ele>
        <time>2021-08-15T05:38:42.351Z</time>
      </trkpt>
      <trkpt lat="42.69499" lon="42.06803">
        <ele>317.122701</ele>
        <time>2021-08-15T05:39:14.355Z</time>
      </trkpt>
      <trkpt lat="42.6953" lon="42.06744">
        <ele>322.980985</ele>
        <time>2021-08-15T05:39:55.756Z</time>
      </trkpt>
      <trkpt lat="42.69543" lon="42.06664">
        <ele>329.490933</ele>
        <time>2021-08-15T05:40:39.534Z</time>
      </trkpt>
      <trkpt lat="42.69543" lon="42.06655">
        <ele>330.243506</ele>
        <time>2021-08-15T05:40:46.035Z</time>
      </trkpt>
      <trkpt lat="42.69543" lon="42.06652">
        <ele>330.41964</ele>
        <time>2021-08-15T05:40:47.242Z</time>
      </trkpt>
      <trkpt lat="42.69543" lon="42.06645">
        <ele>331.020097</ele>
        <time>2021-08-15T05:40:53.335Z</time>
      </trkpt>
      <trkpt lat="42.69543" lon="42.06615">
        <ele>333.431213</ele>
        <time>2021-08-15T05:41:07.908Z</time>
      </trkpt>
      <trkpt lat="42.69554" lon="42.06585">
        <ele>336.229886</ele>
        <time>2021-08-15T05:41:28.644Z</time>
      </trkpt>
      <trkpt lat="42.69618" lon="42.06547">
        <ele>344.204348</ele>
        <time>2021-08-15T05:42:26.189Z</time>
      </trkpt>
      <trkpt lat="42.69664" lon="42.06532">
        <ele>349.676863</ele>
        <time>2021-08-15T05:43:05.954Z</time>
      </trkpt>
      <trkpt lat="42.6969" lon="42.06441">
        <ele>356.761388</ele>
        <time>2021-08-15T05:43:59.575Z</time>
      </trkpt>
      <trkpt lat="42.69712" lon="42.06414">
        <ele>359.155175</ele>
        <time>2021-08-15T05:44:19.993Z</time>
      </trkpt>
      <trkpt lat="42.69752" lon="42.06391">
        <ele>362.663557</ele>
        <time>2021-08-15T05:44:47.743Z</time>
      </trkpt>
      <trkpt lat="42.69768" lon="42.06347">
        <ele>365.617412</ele>
        <time>2021-08-15T05:45:09.074Z</time>
      </trkpt>
      <trkpt lat="42.69769" lon="42.06302">
        <ele>368.257395</ele>
        <time>2021-08-15T05:45:26.280Z</time>
      </trkpt>
      <trkpt lat="42.69779" lon="42.06281">
        <ele>368.973815</ele>
        <time>2021-08-15T05:45:35.098Z</time>
      </trkpt>
      <trkpt lat="42.69819" lon="42.06275">
        <ele>370.25877</ele>
        <time>2021-08-15T05:45:52.200Z</time>
      </trkpt>
      <trkpt lat="42.69847" lon="42.06264">
        <ele>371.176189</ele>
        <time>2021-08-15T05:46:02.892Z</time>
      </trkpt>
      <trkpt lat="42.69887" lon="42.06231">
        <ele>372.634808</ele>
        <time>2021-08-15T05:46:19.933Z</time>
      </trkpt>
      <trkpt lat="42.69923" lon="42.06216">
        <ele>373.852336</ele>
        <time>2021-08-15T05:46:32.471Z</time>
      </trkpt>
      <trkpt lat="42.69977" lon="42.06163">
        <ele>374.001581</ele>
        <time>2021-08-15T05:46:49.150Z</time>
      </trkpt>
      <trkpt lat="42.69985" lon="42.06152">
        <ele>373.972608</ele>
        <time>2021-08-15T05:46:52.671Z</time>
      </trkpt>
      <trkpt lat="42.69986" lon="42.0615">
        <ele>373.968029</ele>
        <time>2021-08-15T05:46:52.950Z</time>
      </trkpt>
      <trkpt lat="42.69994" lon="42.06133">
        <ele>373.929968</ele>
        <time>2021-08-15T05:46:56.047Z</time>
      </trkpt>
      <trkpt lat="42.70031" lon="42.06096">
        <ele>373.811196</ele>
        <time>2021-08-15T05:47:05.846Z</time>
      </trkpt>
      <trkpt lat="42.70059" lon="42.06057">
        <ele>373.709527</ele>
        <time>2021-08-15T05:47:14.049Z</time>
      </trkpt>
      <trkpt lat="42.70064" lon="42.06054">
        <ele>373.694709</ele>
        <time>2021-08-15T05:47:15.070Z</time>
      </trkpt>
      <trkpt lat="42.7009" lon="42.06045">
        <ele>372.946005</ele>
        <time>2021-08-15T05:47:19.865Z</time>
      </trkpt>
      <trkpt lat="42.70104" lon="42.06034">
        <ele>372.441321</ele>
        <time>2021-08-15T05:47:22.571Z</time>
      </trkpt>
      <trkpt lat="42.70122" lon="42.05996">
        <ele>371.393758</ele>
        <time>2021-08-15T05:47:28.193Z</time>
      </trkpt>
      <trkpt lat="42.7017" lon="42.05969">
        <ele>369.740727</ele>
        <time>2021-08-15T05:47:37.186Z</time>
      </trkpt>
      <trkpt lat="42.70184" lon="42.05953">
        <ele>369.175929</ele>
        <time>2021-08-15T05:47:40.100Z</time>
      </trkpt>
      <trkpt lat="42.70185" lon="42.05952">
        <ele>369.133803</ele>
        <time>2021-08-15T05:47:40.285Z</time>
      </trkpt>
      <trkpt lat="42.70191" lon="42.05943">
        <ele>368.857945</ele>
        <time>2021-08-15T05:47:41.803Z</time>
      </trkpt>
      <trkpt lat="42.70214" lon="42.0594">
        <ele>368.122497</ele>
        <time>2021-08-15T05:47:45.781Z</time>
      </trkpt>
      <trkpt lat="42.70282" lon="42.05908">
        <ele>364.495792</ele>
        <time>2021-08-15T05:47:57.498Z</time>
      </trkpt>
      <trkpt lat="42.70412" lon="42.05862">
        <ele>357.144145</ele>
        <time>2021-08-15T05:48:18.341Z</time>
      </trkpt>
      <trkpt lat="42.70467" lon="42.05857">
        <ele>353.225898</ele>
        <time>2021-08-15T05:48:26.595Z</time>
      </trkpt>
      <trkpt lat="42.70512" lon="42.05834">
        <ele>349.922106</ele>
        <time>2021-08-15T05:48:33.595Z</time>
      </trkpt>
      <trkpt lat="42.70543" lon="42.05809">
        <ele>347.357087</ele>
        <time>2021-08-15T05:48:39.050Z</time>
      </trkpt>
      <trkpt lat="42.70572" lon="42.05795">
        <ele>345.356286</ele>
        <time>2021-08-15T05:48:43.848Z</time>
      </trkpt>
      <trkpt lat="42.70713" lon="42.05719">
        <ele>336.423906</ele>
        <time>2021-08-15T05:49:08.283Z</time>
      </trkpt>
      <trkpt lat="42.70793" lon="42.05693">
        <ele>333.196683</ele>
        <time>2021-08-15T05:49:22.544Z</time>
      </trkpt>
      <trkpt lat="42.70891" lon="42.0569">
        <ele>329.816172</ele>
        <time>2021-08-15T05:49:40.064Z</time>
      </trkpt>
      <trkpt lat="42.70901" lon="42.0569">
        <ele>329.481563</ele>
        <time>2021-08-15T05:49:41.861Z</time>
      </trkpt>
      <trkpt lat="42.71015" lon="42.05672">
        <ele>328.310087</ele>
        <time>2021-08-15T05:50:04.624Z</time>
      </trkpt>
      <trkpt lat="42.71102" lon="42.05654">
        <ele>327.789358</ele>
        <time>2021-08-15T05:50:26.923Z</time>
      </trkpt>
      <trkpt lat="42.71137" lon="42.05647">
        <ele>328.032358</ele>
        <time>2021-08-15T05:50:36.287Z</time>
      </trkpt>
      <trkpt lat="42.71205" lon="42.05645">
        <ele>328.49788</ele>
        <time>2021-08-15T05:50:54.717Z</time>
      </trkpt>
      <trkpt lat="42.71202" lon="42.05633">
        <ele>328.563061</ele>
        <time>2021-08-15T05:50:58.521Z</time>
      </trkpt>
      <trkpt lat="42.71156" lon="42.0554">
        <ele>328.972163</ele>
        <time>2021-08-15T05:51:32.314Z</time>
      </trkpt>
      <trkpt lat="42.71207" lon="42.0548">
        <ele>329.128933</ele>
        <time>2021-08-15T05:51:49.604Z</time>
      </trkpt>
      <trkpt lat="42.71257" lon="42.05414">
        <ele>329.289927</ele>
        <time>2021-08-15T05:52:05.550Z</time>
      </trkpt>
      <trkpt lat="42.71281" lon="42.0538">
        <ele>329.185976</ele>
        <time>2021-08-15T05:52:13.227Z</time>
      </trkpt>
      <trkpt lat="42.71366" lon="42.05263">
        <ele>328.585549</ele>
        <time>2021-08-15T05:52:39.239Z</time>
      </trkpt>
      <trkpt lat="42.71527" lon="42.05026">
        <ele>327.727264</ele>
        <time>2021-08-15T05:53:30.862Z</time>
      </trkpt>
      <trkpt lat="42.7157" lon="42.04961">
        <ele>328.200555</ele>
        <time>2021-08-15T05:53:47.664Z</time>
      </trkpt>
      <trkpt lat="42.71625" lon="42.04883">
        <ele>328.789407</ele>
        <time>2021-08-15T05:54:11.020Z</time>
      </trkpt>
      <trkpt lat="42.71635" lon="42.04878">
        <ele>328.861951</ele>
        <time>2021-08-15T05:54:14.131Z</time>
      </trkpt>
      <trkpt lat="42.71784" lon="42.04873">
        <ele>331.148185</ele>
        <time>2021-08-15T05:55:00.928Z</time>
      </trkpt>
      <trkpt lat="42.71804" lon="42.04865">
        <ele>331.470928</ele>
        <time>2021-08-15T05:55:07.305Z</time>
      </trkpt>
      <trkpt lat="42.71829" lon="42.04827">
        <ele>331.995542</ele>
        <time>2021-08-15T05:55:18.755Z</time>
      </trkpt>
      <trkpt lat="42.71833" lon="42.0483">
        <ele>332.052137</ele>
        <time>2021-08-15T05:55:20.008Z</time>
      </trkpt>
      <trkpt lat="42.71836" lon="42.0483">
        <ele>332.100341</ele>
        <time>2021-08-15T05:55:21.106Z</time>
      </trkpt>
      <trkpt lat="42.7184" lon="42.04829">
        <ele>332.147745</ele>
        <time>2021-08-15T05:55:22.193Z</time>
      </trkpt>
      <trkpt lat="42.71843" lon="42.04827">
        <ele>332.197145</ele>
        <time>2021-08-15T05:55:23.233Z</time>
      </trkpt>
      <trkpt lat="42.71846" lon="42.04822">
        <ele>332.259156</ele>
        <time>2021-08-15T05:55:24.586Z</time>
      </trkpt>
      <trkpt lat="42.71846" lon="42.04817">
        <ele>332.307089</ele>
        <time>2021-08-15T05:55:25.609Z</time>
      </trkpt>
      <trkpt lat="42.71846" lon="42.04812">
        <ele>332.355267</ele>
        <time>2021-08-15T05:55:26.627Z</time>
      </trkpt>
      <trkpt lat="42.7209" lon="42.04706">
        <ele>335.338763</ele>
        <time>2021-08-15T05:56:42.096Z</time>
      </trkpt>
      <trkpt lat="42.72121" lon="42.04706">
        <ele>335.651707</ele>
        <time>2021-08-15T05:56:50.514Z</time>
      </trkpt>
      <trkpt lat="42.72194" lon="42.04734">
        <ele>335.385969</ele>
        <time>2021-08-15T05:57:09.208Z</time>
      </trkpt>
      <trkpt lat="42.72201" lon="42.04692">
        <ele>335.116524</ele>
        <time>2021-08-15T05:57:16.169Z</time>
      </trkpt>
      <trkpt lat="42.72208" lon="42.04601">
        <ele>334.553374</ele>
        <time>2021-08-15T05:57:29.911Z</time>
      </trkpt>
      <trkpt lat="42.72203" lon="42.04569">
        <ele>334.35579</ele>
        <time>2021-08-15T05:57:34.430Z</time>
      </trkpt>
      <trkpt lat="42.72152" lon="42.04478">
        <ele>331.580424</ele>
        <time>2021-08-15T05:57:49.810Z</time>
      </trkpt>
      <trkpt lat="42.72145" lon="42.04436">
        <ele>330.544201</ele>
        <time>2021-08-15T05:57:55.270Z</time>
      </trkpt>
      <trkpt lat="42.72148" lon="42.044">
        <ele>329.645836</ele>
        <time>2021-08-15T05:58:00.018Z</time>
      </trkpt>
      <trkpt lat="42.72168" lon="42.04306">
        <ele>326.703033</ele>
        <time>2021-08-15T05:58:12.557Z</time>
      </trkpt>
      <trkpt lat="42.72173" lon="42.04286">
        <ele>325.939135</ele>
        <time>2021-08-15T05:58:15.154Z</time>
      </trkpt>
      <trkpt lat="42.7218" lon="42.04275">
        <ele>325.40657</ele>
        <time>2021-08-15T05:58:17.026Z</time>
      </trkpt>
      <trkpt lat="42.72196" lon="42.04271">
        <ele>324.579415</ele>
        <time>2021-08-15T05:58:19.968Z</time>
      </trkpt>
      <trkpt lat="42.72211" lon="42.0428">
        <ele>323.75342</ele>
        <time>2021-08-15T05:58:22.800Z</time>
      </trkpt>
      <trkpt lat="42.72263" lon="42.04334">
        <ele>320.545138</ele>
        <time>2021-08-15T05:58:33.655Z</time>
      </trkpt>
      <trkpt lat="42.72281" lon="42.04346">
        <ele>319.52485</ele>
        <time>2021-08-15T05:58:37.095Z</time>
      </trkpt>
      <trkpt lat="42.72351" lon="42.04357">
        <ele>312.695787</ele>
        <time>2021-08-15T05:58:47.546Z</time>
      </trkpt>
      <trkpt lat="42.7242" lon="42.04396">
        <ele>305.280403</ele>
        <time>2021-08-15T05:58:58.720Z</time>
      </trkpt>
      <trkpt lat="42.72433" lon="42.04396">
        <ele>304.027635</ele>
        <time>2021-08-15T05:59:00.522Z</time>
      </trkpt>
      <trkpt lat="42.72441" lon="42.04391">
        <ele>303.121427</ele>
        <time>2021-08-15T05:59:01.781Z</time>
      </trkpt>
      <trkpt lat="42.72494" lon="42.0429">
        <ele>294.528408</ele>
        <time>2021-08-15T05:59:15.213Z</time>
      </trkpt>
      <trkpt lat="42.72507" lon="42.04249">
        <ele>291.498155</ele>
        <time>2021-08-15T05:59:20.031Z</time>
      </trkpt>
      <trkpt lat="42.7251" lon="42.0423">
        <ele>290.165237</ele>
        <time>2021-08-15T05:59:22.065Z</time>
      </trkpt>
      <trkpt lat="42.7261" lon="42.04312">
        <ele>282.762023</ele>
        <time>2021-08-15T05:59:41.140Z</time>
      </trkpt>
      <trkpt lat="42.72644" lon="42.04349">
        <ele>281.17552</ele>
        <time>2021-08-15T05:59:48.935Z</time>
      </trkpt>
      <trkpt lat="42.72717" lon="42.04172">
        <ele>277.190833</ele>
        <time>2021-08-15T06:00:17.908Z</time>
      </trkpt>
      <trkpt lat="42.72739" lon="42.04189">
        <ele>276.766997</ele>
        <time>2021-08-15T06:00:22.588Z</time>
      </trkpt>
      <trkpt lat="42.72765" lon="42.04209">
        <ele>276.267464</ele>
        <time>2021-08-15T06:00:28.099Z</time>
      </trkpt>
      <trkpt lat="42.72782" lon="42.04222">
        <ele>275.932619</ele>
        <time>2021-08-15T06:00:31.837Z</time>
      </trkpt>
      <trkpt lat="42.72795" lon="42.04227">
        <ele>275.705913</ele>
        <time>2021-08-15T06:00:34.305Z</time>
      </trkpt>
      <trkpt lat="42.72805" lon="42.0423">
        <ele>275.522545</ele>
        <time>2021-08-15T06:00:36.370Z</time>
      </trkpt>
      <trkpt lat="42.72824" lon="42.04224">
        <ele>275.362527</ele>
        <time>2021-08-15T06:00:39.942Z</time>
      </trkpt>
      <trkpt lat="42.72852" lon="42.04204">
        <ele>275.278957</ele>
        <time>2021-08-15T06:00:46.320Z</time>
      </trkpt>
      <trkpt lat="42.72879" lon="42.04177">
        <ele>275.188755</ele>
        <time>2021-08-15T06:00:53.421Z</time>
      </trkpt>
      <trkpt lat="42.72957" lon="42.04095">
        <ele>274.926667</ele>
        <time>2021-08-15T06:01:15.396Z</time>
      </trkpt>
      <trkpt lat="42.72964" lon="42.04086">
        <ele>275.003962</ele>
        <time>2021-08-15T06:01:18.806Z</time>
      </trkpt>
      <trkpt lat="42.7298" lon="42.04053">
        <ele>275.565613</ele>
        <time>2021-08-15T06:01:25.869Z</time>
      </trkpt>
      <trkpt lat="42.7298" lon="42.03995">
        <ele>276.378577</ele>
        <time>2021-08-15T06:01:38.491Z</time>
      </trkpt>
      <trkpt lat="42.72974" lon="42.03944">
        <ele>277.114769</ele>
        <time>2021-08-15T06:01:50.542Z</time>
      </trkpt>
      <trkpt lat="42.72921" lon="42.03698">
        <ele>282.481741</ele>
        <time>2021-08-15T06:03:01.902Z</time>
      </trkpt>
      <trkpt lat="42.72916" lon="42.03653">
        <ele>283.591839</ele>
        <time>2021-08-15T06:03:15.334Z</time>
      </trkpt>
      <trkpt lat="42.72912" lon="42.03569">
        <ele>286.259487</ele>
        <time>2021-08-15T06:03:40.615Z</time>
      </trkpt>
      <trkpt lat="42.72905" lon="42.03397">
        <ele>292.513438</ele>
        <time>2021-08-15T06:04:39.191Z</time>
      </trkpt>
      <trkpt lat="42.7294" lon="42.03291">
        <ele>299.696264</ele>
        <time>2021-08-15T06:05:29.383Z</time>
      </trkpt>
      <trkpt lat="42.7296" lon="42.03202">
        <ele>306.028798</ele>
        <time>2021-08-15T06:06:16.817Z</time>
      </trkpt>
      <trkpt lat="42.72991" lon="42.03145">
        <ele>310.807782</ele>
        <time>2021-08-15T06:07:02.438Z</time>
      </trkpt>
      <trkpt lat="42.73011" lon="42.03128">
        <ele>312.941418</ele>
        <time>2021-08-15T06:07:21.459Z</time>
      </trkpt>
      <trkpt lat="42.73029" lon="42.03124">
        <ele>314.595927</ele>
        <time>2021-08-15T06:07:39.172Z</time>
      </trkpt>
      <trkpt lat="42.73059" lon="42.03129">
        <ele>317.316706</ele>
        <time>2021-08-15T06:08:00.461Z</time>
      </trkpt>
      <trkpt lat="42.73076" lon="42.03137">
        <ele>318.863877</ele>
        <time>2021-08-15T06:08:12.653Z</time>
      </trkpt>
      <trkpt lat="42.73086" lon="42.0315">
        <ele>320.155499</ele>
        <time>2021-08-15T06:08:20.047Z</time>
      </trkpt>
      <trkpt lat="42.73091" lon="42.03159">
        <ele>320.907063</ele>
        <time>2021-08-15T06:08:29.454Z</time>
      </trkpt>
      <trkpt lat="42.73095" lon="42.03168">
        <ele>321.582458</ele>
        <time>2021-08-15T06:08:33.178Z</time>
      </trkpt>
      <trkpt lat="42.73101" lon="42.032">
        <ele>323.736212</ele>
        <time>2021-08-15T06:08:45.870Z</time>
      </trkpt>
      <trkpt lat="42.73095" lon="42.03239">
        <ele>326.09856</ele>
        <time>2021-08-15T06:08:59.665Z</time>
      </trkpt>
      <trkpt lat="42.73025" lon="42.03374">
        <ele>329.499625</ele>
        <time>2021-08-15T06:09:44.953Z</time>
      </trkpt>
      <trkpt lat="42.73005" lon="42.0343">
        <ele>330.76633</ele>
        <time>2021-08-15T06:09:54.970Z</time>
      </trkpt>
      <trkpt lat="42.72996" lon="42.03485">
        <ele>332.315547</ele>
        <time>2021-08-15T06:10:06.180Z</time>
      </trkpt>
      <trkpt lat="42.73126" lon="42.03995">
        <ele>351.531189</ele>
        <time>2021-08-15T06:13:11.748Z</time>
      </trkpt>
      <trkpt lat="42.73135" lon="42.04015">
        <ele>352.695822</ele>
        <time>2021-08-15T06:13:22.721Z</time>
      </trkpt>
      <trkpt lat="42.73166" lon="42.04054">
        <ele>355.476314</ele>
        <time>2021-08-15T06:13:48.638Z</time>
      </trkpt>
      <trkpt lat="42.73232" lon="42.04109">
        <ele>360.342373</ele>
        <time>2021-08-15T06:14:35.368Z</time>
      </trkpt>
      <trkpt lat="42.73246" lon="42.04119">
        <ele>361.292836</ele>
        <time>2021-08-15T06:14:45.831Z</time>
      </trkpt>
      <trkpt lat="42.73296" lon="42.04158">
        <ele>364.596937</ele>
        <time>2021-08-15T06:15:16.811Z</time>
      </trkpt>
      <trkpt lat="42.73353" lon="42.04202">
        <ele>368.343566</ele>
        <time>2021-08-15T06:15:48.278Z</time>
      </trkpt>
      <trkpt lat="42.73566" lon="42.04421">
        <ele>375.466487</ele>
        <time>2021-08-15T06:17:18.449Z</time>
      </trkpt>
      <trkpt lat="42.73826" lon="42.04632">
        <ele>381.593424</ele>
        <time>2021-08-15T06:19:00.022Z</time>
      </trkpt>
      <trkpt lat="42.73855" lon="42.04649">
        <ele>381.592363</ele>
        <time>2021-08-15T06:19:07.256Z</time>
      </trkpt>
      <trkpt lat="42.73917" lon="42.04668">
        <ele>381.590159</ele>
        <time>2021-08-15T06:19:20.502Z</time>
      </trkpt>
      <trkpt lat="42.73946" lon="42.04687">
        <ele>381.589059</ele>
        <time>2021-08-15T06:19:26.889Z</time>
      </trkpt>
      <trkpt lat="42.7405" lon="42.04767">
        <ele>382.52658</ele>
        <time>2021-08-15T06:19:52.168Z</time>
      </trkpt>
      <trkpt lat="42.74141" lon="42.04853">
        <ele>384.356373</ele>
        <time>2021-08-15T06:20:27.206Z</time>
      </trkpt>
      <trkpt lat="42.74261" lon="42.04907">
        <ele>391.273828</ele>
        <time>2021-08-15T06:21:29.520Z</time>
      </trkpt>
      <trkpt lat="42.74376" lon="42.04978">
        <ele>400.972577</ele>
        <time>2021-08-15T06:22:47.032Z</time>
      </trkpt>
      <trkpt lat="42.74487" lon="42.05011">
        <ele>411.009002</ele>
        <time>2021-08-15T06:24:07.187Z</time>
      </trkpt>
      <trkpt lat="42.74536" lon="42.05016">
        <ele>415.592032</ele>
        <time>2021-08-15T06:24:43.896Z</time>
      </trkpt>
      <trkpt lat="42.74622" lon="42.04991">
        <ele>423.740215</ele>
        <time>2021-08-15T06:25:45.031Z</time>
      </trkpt>
      <trkpt lat="42.7467" lon="42.04977">
        <ele>427.556369</ele>
        <time>2021-08-15T06:26:15.283Z</time>
      </trkpt>
      <trkpt lat="42.74718" lon="42.04963">
        <ele>430.811101</ele>
        <time>2021-08-15T06:26:41.853Z</time>
      </trkpt>
      <trkpt lat="42.74864" lon="42.04916">
        <ele>440.962499</ele>
        <time>2021-08-15T06:27:59.850Z</time>
      </trkpt>
      <trkpt lat="42.7497" lon="42.04901">
        <ele>448.494588</ele>
        <time>2021-08-15T06:29:03.350Z</time>
      </trkpt>
      <trkpt lat="42.75031" lon="42.04882">
        <ele>452.279121</ele>
        <time>2021-08-15T06:29:42.112Z</time>
      </trkpt>
      <trkpt lat="42.75063" lon="42.04841">
        <ele>454.535764</ele>
        <time>2021-08-15T06:30:07.391Z</time>
      </trkpt>
      <trkpt lat="42.75231" lon="42.04547">
        <ele>465.683311</ele>
        <time>2021-08-15T06:31:54.440Z</time>
      </trkpt>
      <trkpt lat="42.75247" lon="42.0453">
        <ele>466.516776</ele>
        <time>2021-08-15T06:32:01.658Z</time>
      </trkpt>
      <trkpt lat="42.75439" lon="42.04383">
        <ele>476.381504</ele>
        <time>2021-08-15T06:33:40.261Z</time>
      </trkpt>
      <trkpt lat="42.7548" lon="42.04373">
        <ele>478.549993</ele>
        <time>2021-08-15T06:34:01.576Z</time>
      </trkpt>
      <trkpt lat="42.75556" lon="42.04365">
        <ele>482.473924</ele>
        <time>2021-08-15T06:34:38.645Z</time>
      </trkpt>
      <trkpt lat="42.75572" lon="42.04363">
        <ele>483.253402</ele>
        <time>2021-08-15T06:34:47.484Z</time>
      </trkpt>
      <trkpt lat="42.75586" lon="42.04364">
        <ele>483.892514</ele>
        <time>2021-08-15T06:34:53.576Z</time>
      </trkpt>
      <trkpt lat="42.75624" lon="42.04373">
        <ele>485.616401</ele>
        <time>2021-08-15T06:35:11.528Z</time>
      </trkpt>
      <trkpt lat="42.75643" lon="42.04383">
        <ele>486.567257</ele>
        <time>2021-08-15T06:35:21.858Z</time>
      </trkpt>
      <trkpt lat="42.75753" lon="42.04494">
        <ele>492.650201</ele>
        <time>2021-08-15T06:36:18.931Z</time>
      </trkpt>
      <trkpt lat="42.75792" lon="42.04523">
        <ele>494.566817</ele>
        <time>2021-08-15T06:36:38.690Z</time>
      </trkpt>
      <trkpt lat="42.75825" lon="42.04538">
        <ele>496.070165</ele>
        <time>2021-08-15T06:36:54.810Z</time>
      </trkpt>
      <trkpt lat="42.75968" lon="42.04577">
        <ele>503.141254</ele>
        <time>2021-08-15T06:37:58.179Z</time>
      </trkpt>
      <trkpt lat="42.76057" lon="42.04623">
        <ele>508.184616</ele>
        <time>2021-08-15T06:38:47.356Z</time>
      </trkpt>
      <trkpt lat="42.76107" lon="42.04741">
        <ele>517.566313</ele>
        <time>2021-08-15T06:39:45.145Z</time>
      </trkpt>
      <trkpt lat="42.76123" lon="42.04768">
        <ele>519.93757</ele>
        <time>2021-08-15T06:40:03.082Z</time>
      </trkpt>
      <trkpt lat="42.76146" lon="42.0479">
        <ele>522.542809</ele>
        <time>2021-08-15T06:40:25.553Z</time>
      </trkpt>
      <trkpt lat="42.76219" lon="42.04833">
        <ele>532.971981</ele>
        <time>2021-08-15T06:41:40.712Z</time>
      </trkpt>
      <trkpt lat="42.76232" lon="42.04853">
        <ele>536.073017</ele>
        <time>2021-08-15T06:42:00.798Z</time>
      </trkpt>
      <trkpt lat="42.7626" lon="42.04918">
        <ele>544.452583</ele>
        <time>2021-08-15T06:42:56.560Z</time>
      </trkpt>
      <trkpt lat="42.76268" lon="42.0493">
        <ele>546.324708</ele>
        <time>2021-08-15T06:43:09.461Z</time>
      </trkpt>
      <trkpt lat="42.76294" lon="42.0495">
        <ele>550.812691</ele>
        <time>2021-08-15T06:43:40.560Z</time>
      </trkpt>
      <trkpt lat="42.76311" lon="42.04953">
        <ele>553.299177</ele>
        <time>2021-08-15T06:43:58.555Z</time>
      </trkpt>
      <trkpt lat="42.76323" lon="42.04948">
        <ele>554.875674</ele>
        <time>2021-08-15T06:44:11.775Z</time>
      </trkpt>
      <trkpt lat="42.76408" lon="42.04871">
        <ele>568.001313</ele>
        <time>2021-08-15T06:45:50.421Z</time>
      </trkpt>
      <trkpt lat="42.7644" lon="42.04857">
        <ele>572.207491</ele>
        <time>2021-08-15T06:46:14.047Z</time>
      </trkpt>
      <trkpt lat="42.7647" lon="42.04862">
        <ele>575.840772</ele>
        <time>2021-08-15T06:46:33.331Z</time>
      </trkpt>
      <trkpt lat="42.76506" lon="42.04886">
        <ele>577.868751</ele>
        <time>2021-08-15T06:46:55.163Z</time>
      </trkpt>
      <trkpt lat="42.76524" lon="42.04915">
        <ele>579.307555</ele>
        <time>2021-08-15T06:47:09.203Z</time>
      </trkpt>
      <trkpt lat="42.76564" lon="42.0507">
        <ele>585.397767</ele>
        <time>2021-08-15T06:47:58.870Z</time>
      </trkpt>
      <trkpt lat="42.7658" lon="42.0515">
        <ele>588.22255</ele>
        <time>2021-08-15T06:48:22.186Z</time>
      </trkpt>
      <trkpt lat="42.76591" lon="42.05264">
        <ele>592.144257</ele>
        <time>2021-08-15T06:48:59.103Z</time>
      </trkpt>
      <trkpt lat="42.76629" lon="42.05424">
        <ele>602.891488</ele>
        <time>2021-08-15T06:50:16.470Z</time>
      </trkpt>
      <trkpt lat="42.76646" lon="42.05448">
        <ele>605.19542</ele>
        <time>2021-08-15T06:50:34.934Z</time>
      </trkpt>
      <trkpt lat="42.76695" lon="42.05482">
        <ele>610.584542</ele>
        <time>2021-08-15T06:51:20.695Z</time>
      </trkpt>
      <trkpt lat="42.76726" lon="42.05529">
        <ele>617.234498</ele>
        <time>2021-08-15T06:52:01.413Z</time>
      </trkpt>
      <trkpt lat="42.76746" lon="42.05534">
        <ele>620.09876</ele>
        <time>2021-08-15T06:52:20.215Z</time>
      </trkpt>
      <trkpt lat="42.76756" lon="42.05531">
        <ele>621.613741</ele>
        <time>2021-08-15T06:52:30.615Z</time>
      </trkpt>
      <trkpt lat="42.76805" lon="42.0547">
        <ele>631.105125</ele>
        <time>2021-08-15T06:53:38.438Z</time>
      </trkpt>
      <trkpt lat="42.76828" lon="42.05462">
        <ele>634.561282</ele>
        <time>2021-08-15T06:54:02.379Z</time>
      </trkpt>
      <trkpt lat="42.76844" lon="42.05483">
        <ele>637.595603</ele>
        <time>2021-08-15T06:54:23.678Z</time>
      </trkpt>
      <trkpt lat="42.76886" lon="42.05596">
        <ele>649.746225</ele>
        <time>2021-08-15T06:55:44.701Z</time>
      </trkpt>
      <trkpt lat="42.76913" lon="42.05602">
        <ele>653.273263</ele>
        <time>2021-08-15T06:56:07.139Z</time>
      </trkpt>
      <trkpt lat="42.77021" lon="42.05599">
        <ele>666.667518</ele>
        <time>2021-08-15T06:57:38.296Z</time>
      </trkpt>
      <trkpt lat="42.77057" lon="42.05611">
        <ele>671.060984</ele>
        <time>2021-08-15T06:58:07.448Z</time>
      </trkpt>
      <trkpt lat="42.77101" lon="42.05643">
        <ele>677.012141</ele>
        <time>2021-08-15T06:58:47.703Z</time>
      </trkpt>
      <trkpt lat="42.77133" lon="42.05651">
        <ele>680.857147</ele>
        <time>2021-08-15T06:59:14.553Z</time>
      </trkpt>
      <trkpt lat="42.77161" lon="42.05643">
        <ele>683.701304</ele>
        <time>2021-08-15T06:59:38.227Z</time>
      </trkpt>
      <trkpt lat="42.77198" lon="42.0562">
        <ele>687.760549</ele>
        <time>2021-08-15T07:00:11.936Z</time>
      </trkpt>
      <trkpt lat="42.77253" lon="42.05556">
        <ele>694.870262</ele>
        <time>2021-08-15T07:01:03.366Z</time>
      </trkpt>
      <trkpt lat="42.77286" lon="42.05497">
        <ele>699.388408</ele>
        <time>2021-08-15T07:01:36.742Z</time>
      </trkpt>
      <trkpt lat="42.77325" lon="42.05448">
        <ele>701.440063</ele>
        <time>2021-08-15T07:02:02.888Z</time>
      </trkpt>
      <trkpt lat="42.77402" lon="42.05406">
        <ele>704.652331</ele>
        <time>2021-08-15T07:02:32.620Z</time>
      </trkpt>
      <trkpt lat="42.77502" lon="42.05335">
        <ele>706.327242</ele>
        <time>2021-08-15T07:03:02.881Z</time>
      </trkpt>
      <trkpt lat="42.77524" lon="42.05324">
        <ele>706.484378</ele>
        <time>2021-08-15T07:03:08.132Z</time>
      </trkpt>
      <trkpt lat="42.77552" lon="42.05321">
        <ele>706.679285</ele>
        <time>2021-08-15T07:03:14.487Z</time>
      </trkpt>
      <trkpt lat="42.77611" lon="42.05368">
        <ele>707.166047</ele>
        <time>2021-08-15T07:03:30.878Z</time>
      </trkpt>
      <trkpt lat="42.77627" lon="42.05379">
        <ele>707.311381</ele>
        <time>2021-08-15T07:03:35.275Z</time>
      </trkpt>
      <trkpt lat="42.77658" lon="42.05398">
        <ele>707.575944</ele>
        <time>2021-08-15T07:03:45.145Z</time>
      </trkpt>
      <trkpt lat="42.77672" lon="42.05409">
        <ele>707.702299</ele>
        <time>2021-08-15T07:03:50.079Z</time>
      </trkpt>
      <trkpt lat="42.77687" lon="42.05432">
        <ele>707.885459</ele>
        <time>2021-08-15T07:03:56.017Z</time>
      </trkpt>
      <trkpt lat="42.77699" lon="42.05474">
        <ele>708.146311</ele>
        <time>2021-08-15T07:04:04.669Z</time>
      </trkpt>
      <trkpt lat="42.7771" lon="42.05557">
        <ele>708.480074</ele>
        <time>2021-08-15T07:04:20.058Z</time>
      </trkpt>
      <trkpt lat="42.77721" lon="42.05574">
        <ele>708.526945</ele>
        <time>2021-08-15T07:04:24.436Z</time>
      </trkpt>
      <trkpt lat="42.77734" lon="42.05583">
        <ele>708.566351</ele>
        <time>2021-08-15T07:04:28.098Z</time>
      </trkpt>
      <trkpt lat="42.77758" lon="42.0559">
        <ele>708.631444</ele>
        <time>2021-08-15T07:04:33.964Z</time>
      </trkpt>
      <trkpt lat="42.77809" lon="42.05581">
        <ele>708.771557</ele>
        <time>2021-08-15T07:04:46.029Z</time>
      </trkpt>
      <trkpt lat="42.77829" lon="42.05582">
        <ele>708.826225</ele>
        <time>2021-08-15T07:04:50.427Z</time>
      </trkpt>
      <trkpt lat="42.77907" lon="42.05609">
        <ele>708.925908</ele>
        <time>2021-08-15T07:05:07.440Z</time>
      </trkpt>
      <trkpt lat="42.78019" lon="42.05634">
        <ele>709.001595</ele>
        <time>2021-08-15T07:05:36.696Z</time>
      </trkpt>
      <trkpt lat="42.78042" lon="42.05634">
        <ele>708.972841</ele>
        <time>2021-08-15T07:05:40.825Z</time>
      </trkpt>
      <trkpt lat="42.78062" lon="42.05625">
        <ele>708.919102</ele>
        <time>2021-08-15T07:05:47.155Z</time>
      </trkpt>
      <trkpt lat="42.78109" lon="42.05585">
        <ele>708.784208</ele>
        <time>2021-08-15T07:05:56.882Z</time>
      </trkpt>
      <trkpt lat="42.78121" lon="42.05578">
        <ele>708.750432</ele>
        <time>2021-08-15T07:06:01.534Z</time>
      </trkpt>
      <trkpt lat="42.78139" lon="42.05576">
        <ele>708.706589</ele>
        <time>2021-08-15T07:06:04.174Z</time>
      </trkpt>
      <trkpt lat="42.78174" lon="42.05585">
        <ele>708.6179</ele>
        <time>2021-08-15T07:06:14.582Z</time>
      </trkpt>
      <trkpt lat="42.7819" lon="42.05596">
        <ele>708.572994</ele>
        <time>2021-08-15T07:06:24.065Z</time>
      </trkpt>
      <trkpt lat="42.78208" lon="42.05622">
        <ele>709.525414</ele>
        <time>2021-08-15T07:06:29.820Z</time>
      </trkpt>
      <trkpt lat="42.78227" lon="42.0567">
        <ele>711.34169</ele>
        <time>2021-08-15T07:06:45.647Z</time>
      </trkpt>
      <trkpt lat="42.78244" lon="42.05679">
        <ele>712.137107</ele>
        <time>2021-08-15T07:06:52.736Z</time>
      </trkpt>
      <trkpt lat="42.78252" lon="42.05679">
        <ele>712.501826</ele>
        <time>2021-08-15T07:06:54.019Z</time>
      </trkpt>
      <trkpt lat="42.7828" lon="42.05672">
        <ele>713.811778</ele>
        <time>2021-08-15T07:07:09.519Z</time>
      </trkpt>
      <trkpt lat="42.78409" lon="42.05666">
        <ele>719.933995</ele>
        <time>2021-08-15T07:08:25.796Z</time>
      </trkpt>
      <trkpt lat="42.78525" lon="42.05609">
        <ele>725.406421</ele>
        <time>2021-08-15T07:09:21.498Z</time>
      </trkpt>
      <trkpt lat="42.78609" lon="42.05621">
        <ele>722.371886</ele>
        <time>2021-08-15T07:09:37.805Z</time>
      </trkpt>
      <trkpt lat="42.78661" lon="42.05597">
        <ele>720.362758</ele>
        <time>2021-08-15T07:09:46.415Z</time>
      </trkpt>
      <trkpt lat="42.78731" lon="42.05552">
        <ele>714.011603</ele>
        <time>2021-08-15T07:09:57.353Z</time>
      </trkpt>
      <trkpt lat="42.7875" lon="42.05534">
        <ele>711.378387</ele>
        <time>2021-08-15T07:10:00.560Z</time>
      </trkpt>
      <trkpt lat="42.78803" lon="42.05456">
        <ele>702.426647</ele>
        <time>2021-08-15T07:10:11.333Z</time>
      </trkpt>
      <trkpt lat="42.78816" lon="42.05393">
        <ele>696.853705</ele>
        <time>2021-08-15T07:10:17.937Z</time>
      </trkpt>
      <trkpt lat="42.78831" lon="42.0528">
        <ele>686.851079</ele>
        <time>2021-08-15T07:10:29.519Z</time>
      </trkpt>
      <trkpt lat="42.78854" lon="42.05187">
        <ele>678.282576</ele>
        <time>2021-08-15T07:10:39.633Z</time>
      </trkpt>
      <trkpt lat="42.7885" lon="42.05158">
        <ele>676.214157</ele>
        <time>2021-08-15T07:10:42.744Z</time>
      </trkpt>
      <trkpt lat="42.78836" lon="42.05134">
        <ele>674.4722</ele>
        <time>2021-08-15T07:10:45.875Z</time>
      </trkpt>
      <trkpt lat="42.78734" lon="42.05071">
        <ele>665.650156</ele>
        <time>2021-08-15T07:11:02.256Z</time>
      </trkpt>
      <trkpt lat="42.7872" lon="42.05058">
        <ele>664.332749</ele>
        <time>2021-08-15T07:11:04.889Z</time>
      </trkpt>
      <trkpt lat="42.78714" lon="42.05042">
        <ele>663.325352</ele>
        <time>2021-08-15T07:11:06.936Z</time>
      </trkpt>
      <trkpt lat="42.78714" lon="42.05004">
        <ele>663.190698</ele>
        <time>2021-08-15T07:11:11.744Z</time>
      </trkpt>
      <trkpt lat="42.7873" lon="42.04936">
        <ele>663.274435</ele>
        <time>2021-08-15T07:11:21.790Z</time>
      </trkpt>
      <trkpt lat="42.78733" lon="42.04903">
        <ele>663.314017</ele>
        <time>2021-08-15T07:11:27.353Z</time>
      </trkpt>
      <trkpt lat="42.78729" lon="42.0482">
        <ele>663.412474</ele>
        <time>2021-08-15T07:11:48.026Z</time>
      </trkpt>
      <trkpt lat="42.78733" lon="42.04789">
        <ele>663.855584</ele>
        <time>2021-08-15T07:11:58.220Z</time>
      </trkpt>
      <trkpt lat="42.7875" lon="42.04735">
        <ele>666.572367</ele>
        <time>2021-08-15T07:12:19.653Z</time>
      </trkpt>
      <trkpt lat="42.7881" lon="42.04644">
        <ele>672.279029</ele>
        <time>2021-08-15T07:13:11.729Z</time>
      </trkpt>
      <trkpt lat="42.78892" lon="42.04535">
        <ele>678.895792</ele>
        <time>2021-08-15T07:14:18.882Z</time>
      </trkpt>
      <trkpt lat="42.78924" lon="42.045">
        <ele>681.129675</ele>
        <time>2021-08-15T07:14:41.395Z</time>
      </trkpt>
      <trkpt lat="42.78939" lon="42.04494">
        <ele>681.974404</ele>
        <time>2021-08-15T07:14:49.506Z</time>
      </trkpt>
      <trkpt lat="42.78965" lon="42.04496">
        <ele>683.403519</ele>
        <time>2021-08-15T07:15:01.952Z</time>
      </trkpt>
      <trkpt lat="42.79074" lon="42.04532">
        <ele>681.736662</ele>
        <time>2021-08-15T07:15:30.629Z</time>
      </trkpt>
      <trkpt lat="42.7909" lon="42.0453">
        <ele>681.205777</ele>
        <time>2021-08-15T07:15:33.248Z</time>
      </trkpt>
      <trkpt lat="42.79112" lon="42.04519">
        <ele>680.435222</ele>
        <time>2021-08-15T07:15:36.841Z</time>
      </trkpt>
      <trkpt lat="42.79191" lon="42.04467">
        <ele>675.15174</ele>
        <time>2021-08-15T07:15:49.419Z</time>
      </trkpt>
      <trkpt lat="42.79206" lon="42.0445">
        <ele>673.174767</ele>
        <time>2021-08-15T07:15:52.188Z</time>
      </trkpt>
      <trkpt lat="42.79279" lon="42.04336">
        <ele>662.154793</ele>
        <time>2021-08-15T07:16:07.598Z</time>
      </trkpt>
      <trkpt lat="42.7932" lon="42.04265">
        <ele>659.422051</ele>
        <time>2021-08-15T07:16:18.180Z</time>
      </trkpt>
      <trkpt lat="42.79336" lon="42.04247">
        <ele>658.858534</ele>
        <time>2021-08-15T07:16:21.910Z</time>
      </trkpt>
      <trkpt lat="42.79353" lon="42.0424">
        <ele>658.389504</ele>
        <time>2021-08-15T07:16:24.960Z</time>
      </trkpt>
      <trkpt lat="42.79379" lon="42.0424">
        <ele>657.66531</ele>
        <time>2021-08-15T07:16:30.516Z</time>
      </trkpt>
      <trkpt lat="42.79392" lon="42.04246">
        <ele>657.289718</ele>
        <time>2021-08-15T07:16:33.144Z</time>
      </trkpt>
      <trkpt lat="42.7941" lon="42.04261">
        <ele>656.723884</ele>
        <time>2021-08-15T07:16:38.931Z</time>
      </trkpt>
      <trkpt lat="42.7945" lon="42.04286">
        <ele>655.466274</ele>
        <time>2021-08-15T07:16:49.090Z</time>
      </trkpt>
      <trkpt lat="42.79482" lon="42.04294">
        <ele>654.448066</ele>
        <time>2021-08-15T07:16:57.488Z</time>
      </trkpt>
      <trkpt lat="42.79518" lon="42.04289">
        <ele>653.338945</ele>
        <time>2021-08-15T07:17:05.129Z</time>
      </trkpt>
      <trkpt lat="42.79625" lon="42.04229">
        <ele>649.113646</ele>
        <time>2021-08-15T07:17:23.077Z</time>
      </trkpt>
      <trkpt lat="42.79656" lon="42.04205">
        <ele>646.92916</ele>
        <time>2021-08-15T07:17:28.280Z</time>
      </trkpt>
      <trkpt lat="42.79739" lon="42.04108">
        <ele>640.22888</ele>
        <time>2021-08-15T07:17:44.860Z</time>
      </trkpt>
      <trkpt lat="42.79771" lon="42.04076">
        <ele>639.272614</ele>
        <time>2021-08-15T07:17:51.494Z</time>
      </trkpt>
      <trkpt lat="42.79818" lon="42.04042">
        <ele>638.920748</ele>
        <time>2021-08-15T07:18:01.850Z</time>
      </trkpt>
      <trkpt lat="42.79848" lon="42.04034">
        <ele>638.716286</ele>
        <time>2021-08-15T07:18:09.369Z</time>
      </trkpt>
      <trkpt lat="42.79881" lon="42.04035">
        <ele>638.499977</ele>
        <time>2021-08-15T07:18:19.148Z</time>
      </trkpt>
      <trkpt lat="42.79929" lon="42.04044">
        <ele>638.077602</ele>
        <time>2021-08-15T07:18:34.347Z</time>
      </trkpt>
      <trkpt lat="42.79962" lon="42.04058">
        <ele>637.526316</ele>
        <time>2021-08-15T07:18:44.179Z</time>
      </trkpt>
      <trkpt lat="42.79993" lon="42.04113">
        <ele>636.700223</ele>
        <time>2021-08-15T07:18:55.185Z</time>
      </trkpt>
      <trkpt lat="42.8001" lon="42.04134">
        <ele>636.336506</ele>
        <time>2021-08-15T07:18:59.197Z</time>
      </trkpt>
      <trkpt lat="42.80065" lon="42.04178">
        <ele>635.154734</ele>
        <time>2021-08-15T07:19:09.557Z</time>
      </trkpt>
      <trkpt lat="42.80078" lon="42.04199">
        <ele>634.139186</ele>
        <time>2021-08-15T07:19:12.668Z</time>
      </trkpt>
      <trkpt lat="42.80096" lon="42.04256">
        <ele>631.75467</ele>
        <time>2021-08-15T07:19:19.835Z</time>
      </trkpt>
      <trkpt lat="42.80123" lon="42.04289">
        <ele>629.861221</ele>
        <time>2021-08-15T07:19:25.504Z</time>
      </trkpt>
      <trkpt lat="42.80156" lon="42.04303">
        <ele>628.084218</ele>
        <time>2021-08-15T07:19:30.837Z</time>
      </trkpt>
      <trkpt lat="42.80169" lon="42.04302">
        <ele>627.386296</ele>
        <time>2021-08-15T07:19:32.965Z</time>
      </trkpt>
      <trkpt lat="42.80216" lon="42.04281">
        <ele>624.921475</ele>
        <time>2021-08-15T07:19:40.638Z</time>
      </trkpt>
      <trkpt lat="42.8023" lon="42.04281">
        <ele>624.227452</ele>
        <time>2021-08-15T07:19:42.911Z</time>
      </trkpt>
      <trkpt lat="42.80261" lon="42.04297">
        <ele>622.611546</ele>
        <time>2021-08-15T07:19:48.375Z</time>
      </trkpt>
      <trkpt lat="42.80273" lon="42.04308">
        <ele>621.903707</ele>
        <time>2021-08-15T07:19:50.901Z</time>
      </trkpt>
      <trkpt lat="42.80333" lon="42.0442">
        <ele>616.885027</ele>
        <time>2021-08-15T07:20:07.246Z</time>
      </trkpt>
      <trkpt lat="42.80353" lon="42.04436">
        <ele>615.343578</ele>
        <time>2021-08-15T07:20:10.779Z</time>
      </trkpt>
      <trkpt lat="42.80399" lon="42.04439">
        <ele>612.387778</ele>
        <time>2021-08-15T07:20:17.449Z</time>
      </trkpt>
      <trkpt lat="42.80415" lon="42.04434">
        <ele>611.279141</ele>
        <time>2021-08-15T07:20:19.948Z</time>
      </trkpt>
      <trkpt lat="42.80498" lon="42.04376">
        <ele>605.715362</ele>
        <time>2021-08-15T07:20:33.961Z</time>
      </trkpt>
      <trkpt lat="42.80516" lon="42.0436">
        <ele>606.183008</ele>
        <time>2021-08-15T07:20:37.422Z</time>
      </trkpt>
      <trkpt lat="42.80528" lon="42.04339">
        <ele>606.616266</ele>
        <time>2021-08-15T07:20:40.767Z</time>
      </trkpt>
      <trkpt lat="42.80545" lon="42.0429">
        <ele>607.476018</ele>
        <time>2021-08-15T07:20:48.608Z</time>
      </trkpt>
      <trkpt lat="42.80555" lon="42.04273">
        <ele>607.831014</ele>
        <time>2021-08-15T07:20:53.994Z</time>
      </trkpt>
      <trkpt lat="42.80588" lon="42.04243">
        <ele>608.69225</ele>
        <time>2021-08-15T07:21:12.775Z</time>
      </trkpt>
      <trkpt lat="42.80605" lon="42.04235">
        <ele>609.08403</ele>
        <time>2021-08-15T07:21:23.918Z</time>
      </trkpt>
      <trkpt lat="42.80619" lon="42.04234">
        <ele>609.390023</ele>
        <time>2021-08-15T07:21:34.384Z</time>
      </trkpt>
      <trkpt lat="42.80688" lon="42.0424">
        <ele>617.792737</ele>
        <time>2021-08-15T07:22:34.566Z</time>
      </trkpt>
      <trkpt lat="42.8076" lon="42.04265">
        <ele>627.424724</ele>
        <time>2021-08-15T07:23:47.582Z</time>
      </trkpt>
      <trkpt lat="42.80781" lon="42.04279">
        <ele>630.44557</ele>
        <time>2021-08-15T07:24:10.185Z</time>
      </trkpt>
      <trkpt lat="42.80865" lon="42.0436">
        <ele>634.212835</ele>
        <time>2021-08-15T07:25:29.559Z</time>
      </trkpt>
      <trkpt lat="42.80926" lon="42.04405">
        <ele>635.329467</ele>
        <time>2021-08-15T07:25:45.106Z</time>
      </trkpt>
      <trkpt lat="42.81012" lon="42.04478">
        <ele>619.696636</ele>
        <time>2021-08-15T07:25:58.481Z</time>
      </trkpt>
      <trkpt lat="42.81026" lon="42.04481">
        <ele>616.720275</ele>
        <time>2021-08-15T07:26:00.277Z</time>
      </trkpt>
      <trkpt lat="42.81039" lon="42.04477">
        <ele>613.759775</ele>
        <time>2021-08-15T07:26:02.088Z</time>
      </trkpt>
      <trkpt lat="42.8105" lon="42.04467">
        <ele>610.888663</ele>
        <time>2021-08-15T07:26:03.831Z</time>
      </trkpt>
      <trkpt lat="42.81056" lon="42.0445">
        <ele>607.915649</ele>
        <time>2021-08-15T07:26:05.642Z</time>
      </trkpt>
      <trkpt lat="42.81059" lon="42.04424">
        <ele>603.839317</ele>
        <time>2021-08-15T07:26:08.152Z</time>
      </trkpt>
      <trkpt lat="42.81054" lon="42.04387">
        <ele>597.996108</ele>
        <time>2021-08-15T07:26:11.737Z</time>
      </trkpt>
      <trkpt lat="42.81032" lon="42.04315">
        <ele>586.436926</ele>
        <time>2021-08-15T07:26:19.275Z</time>
      </trkpt>
      <trkpt lat="42.81033" lon="42.04189">
        <ele>568.011255</ele>
        <time>2021-08-15T07:26:31.300Z</time>
      </trkpt>
      <trkpt lat="42.81027" lon="42.04076">
        <ele>560.46951</ele>
        <time>2021-08-15T07:26:43.339Z</time>
      </trkpt>
      <trkpt lat="42.81019" lon="42.04048">
        <ele>560.132712</ele>
        <time>2021-08-15T07:26:46.887Z</time>
      </trkpt>
      <trkpt lat="42.80973" lon="42.03949">
        <ele>558.825828</ele>
        <time>2021-08-15T07:27:10.709Z</time>
      </trkpt>
      <trkpt lat="42.80954" lon="42.03893">
        <ele>561.107017</ele>
        <time>2021-08-15T07:27:38.283Z</time>
      </trkpt>
      <trkpt lat="42.80953" lon="42.03862">
        <ele>563.700448</ele>
        <time>2021-08-15T07:27:55.402Z</time>
      </trkpt>
      <trkpt lat="42.8096" lon="42.03838">
        <ele>565.894443</ele>
        <time>2021-08-15T07:28:10.943Z</time>
      </trkpt>
      <trkpt lat="42.81043" lon="42.03719">
        <ele>579.583448</ele>
        <time>2021-08-15T07:30:00.530Z</time>
      </trkpt>
      <trkpt lat="42.81116" lon="42.03638">
        <ele>588.677061</ele>
        <time>2021-08-15T07:31:18.623Z</time>
      </trkpt>
      <trkpt lat="42.81183" lon="42.03583">
        <ele>596.288646</ele>
        <time>2021-08-15T07:32:03.776Z</time>
      </trkpt>
      <trkpt lat="42.81236" lon="42.03514">
        <ele>598.977772</ele>
        <time>2021-08-15T07:32:35.401Z</time>
      </trkpt>
      <trkpt lat="42.81284" lon="42.03478">
        <ele>600.870734</ele>
        <time>2021-08-15T07:32:56.017Z</time>
      </trkpt>
      <trkpt lat="42.81306" lon="42.03441">
        <ele>602.06898</ele>
        <time>2021-08-15T07:33:07.486Z</time>
      </trkpt>
      <trkpt lat="42.81314" lon="42.03385">
        <ele>603.079421</ele>
        <time>2021-08-15T07:33:20.104Z</time>
      </trkpt>
      <trkpt lat="42.81324" lon="42.03361">
        <ele>603.378567</ele>
        <time>2021-08-15T07:33:25.925Z</time>
      </trkpt>
      <trkpt lat="42.81338" lon="42.03343">
        <ele>603.683442</ele>
        <time>2021-08-15T07:33:31.625Z</time>
      </trkpt>
      <trkpt lat="42.8136" lon="42.03329">
        <ele>604.061201</ele>
        <time>2021-08-15T07:33:38.981Z</time>
      </trkpt>
      <trkpt lat="42.81492" lon="42.03281">
        <ele>605.15452</ele>
        <time>2021-08-15T07:34:20.387Z</time>
      </trkpt>
      <trkpt lat="42.81507" lon="42.03255">
        <ele>604.970041</ele>
        <time>2021-08-15T07:34:25.651Z</time>
      </trkpt>
      <trkpt lat="42.81506" lon="42.03194">
        <ele>604.627165</ele>
        <time>2021-08-15T07:34:34.624Z</time>
      </trkpt>
      <trkpt lat="42.81517" lon="42.03153">
        <ele>604.383895</ele>
        <time>2021-08-15T07:34:40.852Z</time>
      </trkpt>
      <trkpt lat="42.81525" lon="42.03143">
        <ele>604.299969</ele>
        <time>2021-08-15T07:34:42.922Z</time>
      </trkpt>
      <trkpt lat="42.81547" lon="42.03137">
        <ele>604.130958</ele>
        <time>2021-08-15T07:34:47.396Z</time>
      </trkpt>
      <trkpt lat="42.81666" lon="42.03168">
        <ele>597.727373</ele>
        <time>2021-08-15T07:35:06.359Z</time>
      </trkpt>
      <trkpt lat="42.81684" lon="42.03165">
        <ele>596.737309</ele>
        <time>2021-08-15T07:35:09.517Z</time>
      </trkpt>
      <trkpt lat="42.8171" lon="42.03136">
        <ele>594.946155</ele>
        <time>2021-08-15T07:35:14.386Z</time>
      </trkpt>
      <trkpt lat="42.81716" lon="42.03117">
        <ele>594.193136</ele>
        <time>2021-08-15T07:35:16.504Z</time>
      </trkpt>
      <trkpt lat="42.8172" lon="42.03083">
        <ele>593.202939</ele>
        <time>2021-08-15T07:35:21.186Z</time>
      </trkpt>
      <trkpt lat="42.81721" lon="42.03075">
        <ele>592.97188</ele>
        <time>2021-08-15T07:35:21.951Z</time>
      </trkpt>
      <trkpt lat="42.81721" lon="42.03064">
        <ele>592.632918</ele>
        <time>2021-08-15T07:35:23.370Z</time>
      </trkpt>
      <trkpt lat="42.81724" lon="42.03022">
        <ele>591.420113</ele>
        <time>2021-08-15T07:35:28.153Z</time>
      </trkpt>
      <trkpt lat="42.81727" lon="42.02951">
        <ele>589.339728</ele>
        <time>2021-08-15T07:35:37.394Z</time>
      </trkpt>
      <trkpt lat="42.81737" lon="42.02925">
        <ele>588.510265</ele>
        <time>2021-08-15T07:35:40.574Z</time>
      </trkpt>
      <trkpt lat="42.81799" lon="42.02879">
        <ele>588.68455</ele>
        <time>2021-08-15T07:35:56.937Z</time>
      </trkpt>
      <trkpt lat="42.81875" lon="42.02862">
        <ele>591.394802</ele>
        <time>2021-08-15T07:36:33.828Z</time>
      </trkpt>
      <trkpt lat="42.81944" lon="42.02783">
        <ele>594.814735</ele>
        <time>2021-08-15T07:37:15.769Z</time>
      </trkpt>
      <trkpt lat="42.82017" lon="42.02717">
        <ele>598.858545</ele>
        <time>2021-08-15T07:37:57.361Z</time>
      </trkpt>
      <trkpt lat="42.82048" lon="42.02709">
        <ele>600.31691</ele>
        <time>2021-08-15T07:38:12.200Z</time>
      </trkpt>
      <trkpt lat="42.82097" lon="42.02719">
        <ele>602.315217</ele>
        <time>2021-08-15T07:38:33.077Z</time>
      </trkpt>
      <trkpt lat="42.82198" lon="42.02688">
        <ele>605.442935</ele>
        <time>2021-08-15T07:39:08.760Z</time>
      </trkpt>
      <trkpt lat="42.82247" lon="42.02637">
        <ele>607.373374</ele>
        <time>2021-08-15T07:39:29.893Z</time>
      </trkpt>
      <trkpt lat="42.82286" lon="42.0262">
        <ele>609.845317</ele>
        <time>2021-08-15T07:39:47.833Z</time>
      </trkpt>
      <trkpt lat="42.82345" lon="42.02573">
        <ele>614.025401</ele>
        <time>2021-08-15T07:40:22.174Z</time>
      </trkpt>
      <trkpt lat="42.82366" lon="42.02563">
        <ele>615.405557</ele>
        <time>2021-08-15T07:40:35.074Z</time>
      </trkpt>
      <trkpt lat="42.82394" lon="42.02568">
        <ele>617.112389</ele>
        <time>2021-08-15T07:40:52.505Z</time>
      </trkpt>
      <trkpt lat="42.8242" lon="42.0259">
        <ele>619.199573</ele>
        <time>2021-08-15T07:41:12.787Z</time>
      </trkpt>
      <trkpt lat="42.82487" lon="42.02714">
        <ele>628.622897</ele>
        <time>2021-08-15T07:42:34.339Z</time>
      </trkpt>
      <trkpt lat="42.82521" lon="42.02759">
        <ele>632.528207</ele>
        <time>2021-08-15T07:43:00.965Z</time>
      </trkpt>
      <trkpt lat="42.82553" lon="42.0278">
        <ele>631.330824</ele>
        <time>2021-08-15T07:43:22.189Z</time>
      </trkpt>
      <trkpt lat="42.82619" lon="42.02787">
        <ele>627.180519</ele>
        <time>2021-08-15T07:43:36.603Z</time>
      </trkpt>
      <trkpt lat="42.82678" lon="42.02819">
        <ele>623.194061</ele>
        <time>2021-08-15T07:43:45.192Z</time>
      </trkpt>
      <trkpt lat="42.82695" lon="42.0283">
        <ele>622.039772</ele>
        <time>2021-08-15T07:43:47.638Z</time>
      </trkpt>
      <trkpt lat="42.82714" lon="42.02836">
        <ele>618.240151</ele>
        <time>2021-08-15T07:43:50.259Z</time>
      </trkpt>
      <trkpt lat="42.82748" lon="42.02833">
        <ele>611.188941</ele>
        <time>2021-08-15T07:43:54.589Z</time>
      </trkpt>
      <trkpt lat="42.82756" lon="42.02824">
        <ele>608.99832</ele>
        <time>2021-08-15T07:43:56.008Z</time>
      </trkpt>
      <trkpt lat="42.8276" lon="42.02813">
        <ele>606.970152</ele>
        <time>2021-08-15T07:43:57.290Z</time>
      </trkpt>
      <trkpt lat="42.82759" lon="42.02773">
        <ele>600.798566</ele>
        <time>2021-08-15T07:44:01.114Z</time>
      </trkpt>
      <trkpt lat="42.82752" lon="42.02747">
        <ele>596.524655</ele>
        <time>2021-08-15T07:44:03.763Z</time>
      </trkpt>
      <trkpt lat="42.82721" lon="42.02674">
        <ele>583.651248</ele>
        <time>2021-08-15T07:44:11.881Z</time>
      </trkpt>
      <trkpt lat="42.82708" lon="42.02616">
        <ele>580.89403</ele>
        <time>2021-08-15T07:44:17.739Z</time>
      </trkpt>
      <trkpt lat="42.82707" lon="42.02529">
        <ele>576.907512</ele>
        <time>2021-08-15T07:44:27.823Z</time>
      </trkpt>
      <trkpt lat="42.82715" lon="42.02475">
        <ele>574.379044</ele>
        <time>2021-08-15T07:44:38.572Z</time>
      </trkpt>
      <trkpt lat="42.82734" lon="42.02449">
        <ele>572.735082</ele>
        <time>2021-08-15T07:44:49.800Z</time>
      </trkpt>
      <trkpt lat="42.82838" lon="42.02351">
        <ele>581.899086</ele>
        <time>2021-08-15T07:46:09.111Z</time>
      </trkpt>
      <trkpt lat="42.82964" lon="42.02268">
        <ele>593.366158</ele>
        <time>2021-08-15T07:47:40.026Z</time>
      </trkpt>
      <trkpt lat="42.83" lon="42.02218">
        <ele>597.83741</ele>
        <time>2021-08-15T07:48:11.193Z</time>
      </trkpt>
      <trkpt lat="42.83033" lon="42.02138">
        <ele>603.827955</ele>
        <time>2021-08-15T07:48:58.525Z</time>
      </trkpt>
      <trkpt lat="42.83049" lon="42.02119">
        <ele>605.756386</ele>
        <time>2021-08-15T07:49:13.941Z</time>
      </trkpt>
      <trkpt lat="42.83062" lon="42.0212">
        <ele>606.989239</ele>
        <time>2021-08-15T07:49:23.995Z</time>
      </trkpt>
      <trkpt lat="42.83074" lon="42.0213">
        <ele>608.353088</ele>
        <time>2021-08-15T07:49:34.937Z</time>
      </trkpt>
      <trkpt lat="42.8314" lon="42.02211">
        <ele>616.541891</ele>
        <time>2021-08-15T07:50:45.685Z</time>
      </trkpt>
      <trkpt lat="42.83256" lon="42.02419">
        <ele>621.499034</ele>
        <time>2021-08-15T07:51:56.525Z</time>
      </trkpt>
      <trkpt lat="42.83281" lon="42.02436">
        <ele>619.702754</ele>
        <time>2021-08-15T07:52:00.625Z</time>
      </trkpt>
      <trkpt lat="42.83295" lon="42.02435">
        <ele>618.310762</ele>
        <time>2021-08-15T07:52:02.885Z</time>
      </trkpt>
      <trkpt lat="42.83307" lon="42.0243">
        <ele>617.11114</ele>
        <time>2021-08-15T07:52:04.594Z</time>
      </trkpt>
      <trkpt lat="42.83318" lon="42.02421">
        <ele>615.829061</ele>
        <time>2021-08-15T07:52:06.365Z</time>
      </trkpt>
      <trkpt lat="42.83338" lon="42.02394">
        <ele>613.061309</ele>
        <time>2021-08-15T07:52:10.349Z</time>
      </trkpt>
      <trkpt lat="42.83412" lon="42.02247">
        <ele>602.155148</ele>
        <time>2021-08-15T07:52:28.248Z</time>
      </trkpt>
      <trkpt lat="42.83468" lon="42.02161">
        <ele>597.990643</ele>
        <time>2021-08-15T07:52:42.296Z</time>
      </trkpt>
      <trkpt lat="42.83511" lon="42.02098">
        <ele>595.170318</ele>
        <time>2021-08-15T07:52:54.781Z</time>
      </trkpt>
      <trkpt lat="42.83599" lon="42.02004">
        <ele>595.575506</ele>
        <time>2021-08-15T07:53:25.177Z</time>
      </trkpt>
      <trkpt lat="42.83735" lon="42.01885">
        <ele>596.495758</ele>
        <time>2021-08-15T07:54:02.660Z</time>
      </trkpt>
      <trkpt lat="42.83842" lon="42.0181">
        <ele>598.696895</ele>
        <time>2021-08-15T07:54:35.837Z</time>
      </trkpt>
      <trkpt lat="42.83931" lon="42.01711">
        <ele>603.492696</ele>
        <time>2021-08-15T07:55:23.094Z</time>
      </trkpt>
      <trkpt lat="42.83956" lon="42.01703">
        <ele>604.669473</ele>
        <time>2021-08-15T07:55:37.102Z</time>
      </trkpt>
      <trkpt lat="42.84025" lon="42.01716">
        <ele>614.82297</ele>
        <time>2021-08-15T07:56:29.632Z</time>
      </trkpt>
      <trkpt lat="42.84096" lon="42.01707">
        <ele>625.183574</ele>
        <time>2021-08-15T07:57:41.458Z</time>
      </trkpt>
      <trkpt lat="42.84109" lon="42.0171">
        <ele>627.250501</ele>
        <time>2021-08-15T07:57:58.106Z</time>
      </trkpt>
      <trkpt lat="42.84204" lon="42.01742">
        <ele>643.216774</ele>
        <time>2021-08-15T08:00:11.691Z</time>
      </trkpt>
      <trkpt lat="42.8436" lon="42.01802">
        <ele>660.882403</ele>
        <time>2021-08-15T08:02:42.869Z</time>
      </trkpt>
      <trkpt lat="42.8439" lon="42.01821">
        <ele>660.557759</ele>
        <time>2021-08-15T08:02:49.751Z</time>
      </trkpt>
      <trkpt lat="42.84411" lon="42.01837">
        <ele>660.317376</ele>
        <time>2021-08-15T08:02:53.444Z</time>
      </trkpt>
      <trkpt lat="42.84546" lon="42.01906">
        <ele>654.182122</ele>
        <time>2021-08-15T08:03:13.389Z</time>
      </trkpt>
      <trkpt lat="42.84604" lon="42.02029">
        <ele>646.720136</ele>
        <time>2021-08-15T08:03:31.034Z</time>
      </trkpt>
      <trkpt lat="42.84617" lon="42.02041">
        <ele>646.337324</ele>
        <time>2021-08-15T08:03:33.907Z</time>
      </trkpt>
      <trkpt lat="42.84645" lon="42.02055">
        <ele>645.58647</ele>
        <time>2021-08-15T08:03:39.686Z</time>
      </trkpt>
      <trkpt lat="42.84693" lon="42.02059">
        <ele>644.383593</ele>
        <time>2021-08-15T08:03:49.177Z</time>
      </trkpt>
      <trkpt lat="42.84705" lon="42.02066">
        <ele>644.070711</ele>
        <time>2021-08-15T08:03:51.640Z</time>
      </trkpt>
      <trkpt lat="42.84751" lon="42.0214">
        <ele>642.144061</ele>
        <time>2021-08-15T08:04:04.741Z</time>
      </trkpt>
      <trkpt lat="42.84783" lon="42.02165">
        <ele>638.727247</ele>
        <time>2021-08-15T08:04:10.500Z</time>
      </trkpt>
      <trkpt lat="42.84831" lon="42.0216">
        <ele>634.208559</ele>
        <time>2021-08-15T08:04:17.380Z</time>
      </trkpt>
      <trkpt lat="42.84888" lon="42.02091">
        <ele>626.982503</ele>
        <time>2021-08-15T08:04:27.928Z</time>
      </trkpt>
      <trkpt lat="42.84914" lon="42.02071">
        <ele>624.393963</ele>
        <time>2021-08-15T08:04:32.005Z</time>
      </trkpt>
      <trkpt lat="42.84929" lon="42.02074">
        <ele>623.152745</ele>
        <time>2021-08-15T08:04:34.168Z</time>
      </trkpt>
      <trkpt lat="42.84976" lon="42.02124">
        <ele>618.356943</ele>
        <time>2021-08-15T08:04:42.700Z</time>
      </trkpt>
      <trkpt lat="42.85012" lon="42.02133">
        <ele>615.387557</ele>
        <time>2021-08-15T08:04:48.170Z</time>
      </trkpt>
      <trkpt lat="42.8505" lon="42.02125">
        <ele>612.279863</ele>
        <time>2021-08-15T08:04:53.992Z</time>
      </trkpt>
      <trkpt lat="42.85139" lon="42.02083">
        <ele>609.040622</ele>
        <time>2021-08-15T08:05:09.897Z</time>
      </trkpt>
      <trkpt lat="42.85166" lon="42.0209">
        <ele>608.375583</ele>
        <time>2021-08-15T08:05:15.279Z</time>
      </trkpt>
      <trkpt lat="42.85263" lon="42.02174">
        <ele>606.462604</ele>
        <time>2021-08-15T08:05:37.363Z</time>
      </trkpt>
      <trkpt lat="42.85413" lon="42.02212">
        <ele>606.590857</ele>
        <time>2021-08-15T08:06:10.201Z</time>
      </trkpt>
      <trkpt lat="42.8544" lon="42.02239">
        <ele>607.649576</ele>
        <time>2021-08-15T08:06:22.609Z</time>
      </trkpt>
      <trkpt lat="42.855" lon="42.02316">
        <ele>610.271327</ele>
        <time>2021-08-15T08:06:57.239Z</time>
      </trkpt>
      <trkpt lat="42.85572" lon="42.02439">
        <ele>612.93042</ele>
        <time>2021-08-15T08:07:47.029Z</time>
      </trkpt>
      <trkpt lat="42.85609" lon="42.02526">
        <ele>614.095463</ele>
        <time>2021-08-15T08:08:09.683Z</time>
      </trkpt>
      <trkpt lat="42.85632" lon="42.02564">
        <ele>614.656842</ele>
        <time>2021-08-15T08:08:16.821Z</time>
      </trkpt>
      <trkpt lat="42.85663" lon="42.02598">
        <ele>613.552979</ele>
        <time>2021-08-15T08:08:23.821Z</time>
      </trkpt>
      <trkpt lat="42.85691" lon="42.02615">
        <ele>612.399191</ele>
        <time>2021-08-15T08:08:29.020Z</time>
      </trkpt>
      <trkpt lat="42.85714" lon="42.0262">
        <ele>611.542072</ele>
        <time>2021-08-15T08:08:32.805Z</time>
      </trkpt>
      <trkpt lat="42.8575" lon="42.0266">
        <ele>609.850433</ele>
        <time>2021-08-15T08:08:40.240Z</time>
      </trkpt>
      <trkpt lat="42.85783" lon="42.0267">
        <ele>608.606376</ele>
        <time>2021-08-15T08:08:45.610Z</time>
      </trkpt>
      <trkpt lat="42.858" lon="42.02666">
        <ele>608.09998</ele>
        <time>2021-08-15T08:08:48.296Z</time>
      </trkpt>
      <trkpt lat="42.85831" lon="42.02642">
        <ele>607.721301</ele>
        <time>2021-08-15T08:08:54.187Z</time>
      </trkpt>
      <trkpt lat="42.8589" lon="42.02611">
        <ele>607.057907</ele>
        <time>2021-08-15T08:09:05.654Z</time>
      </trkpt>
      <trkpt lat="42.85916" lon="42.02615">
        <ele>606.787333</ele>
        <time>2021-08-15T08:09:11.520Z</time>
      </trkpt>
      <trkpt lat="42.85925" lon="42.02624">
        <ele>606.668252</ele>
        <time>2021-08-15T08:09:14.539Z</time>
      </trkpt>
      <trkpt lat="42.85946" lon="42.02657">
        <ele>606.332677</ele>
        <time>2021-08-15T08:09:24.960Z</time>
      </trkpt>
      <trkpt lat="42.86024" lon="42.02829">
        <ele>611.174314</ele>
        <time>2021-08-15T08:10:26.186Z</time>
      </trkpt>
      <trkpt lat="42.86046" lon="42.02863">
        <ele>612.346857</ele>
        <time>2021-08-15T08:10:40.735Z</time>
      </trkpt>
      <trkpt lat="42.86091" lon="42.02906">
        <ele>613.346537</ele>
        <time>2021-08-15T08:11:01.949Z</time>
      </trkpt>
      <trkpt lat="42.86227" lon="42.0298">
        <ele>614.910546</ele>
        <time>2021-08-15T08:11:44.172Z</time>
      </trkpt>
      <trkpt lat="42.86279" lon="42.0303">
        <ele>612.612758</ele>
        <time>2021-08-15T08:11:55.365Z</time>
      </trkpt>
      <trkpt lat="42.86288" lon="42.03048">
        <ele>612.036415</ele>
        <time>2021-08-15T08:11:58.025Z</time>
      </trkpt>
      <trkpt lat="42.86289" lon="42.03061">
        <ele>611.698561</ele>
        <time>2021-08-15T08:11:59.579Z</time>
      </trkpt>
      <trkpt lat="42.86283" lon="42.0308">
        <ele>611.166516</ele>
        <time>2021-08-15T08:12:01.997Z</time>
      </trkpt>
      <trkpt lat="42.86254" lon="42.03108">
        <ele>609.905317</ele>
        <time>2021-08-15T08:12:07.596Z</time>
      </trkpt>
      <trkpt lat="42.86234" lon="42.03148">
        <ele>608.099414</ele>
        <time>2021-08-15T08:12:13.099Z</time>
      </trkpt>
      <trkpt lat="42.86228" lon="42.03183">
        <ele>606.012566</ele>
        <time>2021-08-15T08:12:16.911Z</time>
      </trkpt>
      <trkpt lat="42.86253" lon="42.03283">
        <ele>599.813724</ele>
        <time>2021-08-15T08:12:27.928Z</time>
      </trkpt>
      <trkpt lat="42.8625" lon="42.03303">
        <ele>598.635797</ele>
        <time>2021-08-15T08:12:30.030Z</time>
      </trkpt>
      <trkpt lat="42.86237" lon="42.03324">
        <ele>596.98518</ele>
        <time>2021-08-15T08:12:33.052Z</time>
      </trkpt>
      <trkpt lat="42.86218" lon="42.03327">
        <ele>595.457775</ele>
        <time>2021-08-15T08:12:35.890Z</time>
      </trkpt>
      <trkpt lat="42.86165" lon="42.03279">
        <ele>593.700679</ele>
        <time>2021-08-15T08:12:45.937Z</time>
      </trkpt>
      <trkpt lat="42.86127" lon="42.0326">
        <ele>592.986806</ele>
        <time>2021-08-15T08:12:53.047Z</time>
      </trkpt>
      <trkpt lat="42.86114" lon="42.03261">
        <ele>592.761552</ele>
        <time>2021-08-15T08:12:55.445Z</time>
      </trkpt>
      <trkpt lat="42.86077" lon="42.03276">
        <ele>592.093373</ele>
        <time>2021-08-15T08:13:03.593Z</time>
      </trkpt>
      <trkpt lat="42.86057" lon="42.03274">
        <ele>591.74261</ele>
        <time>2021-08-15T08:13:09.924Z</time>
      </trkpt>
      <trkpt lat="42.86048" lon="42.03269">
        <ele>591.575048</ele>
        <time>2021-08-15T08:13:13.454Z</time>
      </trkpt>
      <trkpt lat="42.8601" lon="42.03222">
        <ele>594.415531</ele>
        <time>2021-08-15T08:13:37.013Z</time>
      </trkpt>
      <trkpt lat="42.85983" lon="42.03208">
        <ele>596.278115</ele>
        <time>2021-08-15T08:13:52.397Z</time>
      </trkpt>
      <trkpt lat="42.85956" lon="42.03216">
        <ele>598.00334</ele>
        <time>2021-08-15T08:14:07.681Z</time>
      </trkpt>
      <trkpt lat="42.85906" lon="42.03256">
        <ele>601.738247</ele>
        <time>2021-08-15T08:14:43.230Z</time>
      </trkpt>
      <trkpt lat="42.8586" lon="42.03282">
        <ele>605.685341</ele>
        <time>2021-08-15T08:15:16.709Z</time>
      </trkpt>
      <trkpt lat="42.85842" lon="42.03297">
        <ele>607.646744</ele>
        <time>2021-08-15T08:15:30.647Z</time>
      </trkpt>
      <trkpt lat="42.85833" lon="42.03312">
        <ele>608.867642</ele>
        <time>2021-08-15T08:15:40.655Z</time>
      </trkpt>
      <trkpt lat="42.85832" lon="42.0332">
        <ele>609.400397</ele>
        <time>2021-08-15T08:15:47.117Z</time>
      </trkpt>
      <trkpt lat="42.85835" lon="42.03345">
        <ele>611.087254</ele>
        <time>2021-08-15T08:15:56.700Z</time>
      </trkpt>
      <trkpt lat="42.85839" lon="42.0335">
        <ele>611.593514</ele>
        <time>2021-08-15T08:16:01.920Z</time>
      </trkpt>
      <trkpt lat="42.8587" lon="42.03358">
        <ele>614.387911</ele>
        <time>2021-08-15T08:16:21.634Z</time>
      </trkpt>
      <trkpt lat="42.85936" lon="42.03357">
        <ele>620.214604</ele>
        <time>2021-08-15T08:17:07.675Z</time>
      </trkpt>
      <trkpt lat="42.85965" lon="42.03366">
        <ele>622.43593</ele>
        <time>2021-08-15T08:17:29.494Z</time>
      </trkpt>
      <trkpt lat="42.86033" lon="42.03439">
        <ele>628.976503</ele>
        <time>2021-08-15T08:18:23.348Z</time>
      </trkpt>
      <trkpt lat="42.86071" lon="42.03455">
        <ele>631.935768</ele>
        <time>2021-08-15T08:18:43.696Z</time>
      </trkpt>
      <trkpt lat="42.86138" lon="42.03454">
        <ele>633.956439</ele>
        <time>2021-08-15T08:19:13.505Z</time>
      </trkpt>
      <trkpt lat="42.8622" lon="42.03533">
        <ele>636.157384</ele>
        <time>2021-08-15T08:19:50.170Z</time>
      </trkpt>
      <trkpt lat="42.86337" lon="42.03556">
        <ele>629.015942</ele>
        <time>2021-08-15T08:20:09.442Z</time>
      </trkpt>
      <trkpt lat="42.86382" lon="42.03544">
        <ele>625.421354</ele>
        <time>2021-08-15T08:20:15.796Z</time>
      </trkpt>
      <trkpt lat="42.86417" lon="42.03554">
        <ele>622.557876</ele>
        <time>2021-08-15T08:20:20.681Z</time>
      </trkpt>
      <trkpt lat="42.86452" lon="42.03573">
        <ele>616.964258</ele>
        <time>2021-08-15T08:20:25.664Z</time>
      </trkpt>
      <trkpt lat="42.86466" lon="42.03564">
        <ele>614.46377</ele>
        <time>2021-08-15T08:20:27.772Z</time>
      </trkpt>
      <trkpt lat="42.86491" lon="42.03511">
        <ele>607.287163</ele>
        <time>2021-08-15T08:20:33.835Z</time>
      </trkpt>
      <trkpt lat="42.86491" lon="42.035">
        <ele>605.971896</ele>
        <time>2021-08-15T08:20:34.946Z</time>
      </trkpt>
      <trkpt lat="42.86473" lon="42.03466">
        <ele>601.238762</ele>
        <time>2021-08-15T08:20:38.965Z</time>
      </trkpt>
      <trkpt lat="42.86468" lon="42.03447">
        <ele>598.904695</ele>
        <time>2021-08-15T08:20:40.977Z</time>
      </trkpt>
      <trkpt lat="42.8648" lon="42.03372">
        <ele>594.463272</ele>
        <time>2021-08-15T08:20:48.744Z</time>
      </trkpt>
      <trkpt lat="42.86481" lon="42.03291">
        <ele>594.829476</ele>
        <time>2021-08-15T08:20:58.793Z</time>
      </trkpt>
      <trkpt lat="42.86486" lon="42.03269">
        <ele>594.933946</ele>
        <time>2021-08-15T08:21:04.108Z</time>
      </trkpt>
      <trkpt lat="42.86506" lon="42.03229">
        <ele>595.15671</ele>
        <time>2021-08-15T08:21:22.784Z</time>
      </trkpt>
      <trkpt lat="42.86515" lon="42.03192">
        <ele>595.329112</ele>
        <time>2021-08-15T08:21:42.300Z</time>
      </trkpt>
      <trkpt lat="42.86526" lon="42.03177">
        <ele>595.694567</ele>
        <time>2021-08-15T08:21:54.924Z</time>
      </trkpt>
      <trkpt lat="42.86547" lon="42.03176">
        <ele>598.303754</ele>
        <time>2021-08-15T08:22:13.781Z</time>
      </trkpt>
      <trkpt lat="42.86579" lon="42.03188">
        <ele>602.352433</ele>
        <time>2021-08-15T08:22:45.953Z</time>
      </trkpt>
      <trkpt lat="42.86605" lon="42.03207">
        <ele>605.91478</ele>
        <time>2021-08-15T08:23:16.085Z</time>
      </trkpt>
      <trkpt lat="42.86627" lon="42.03236">
        <ele>609.688472</ele>
        <time>2021-08-15T08:23:47.215Z</time>
      </trkpt>
      <trkpt lat="42.86703" lon="42.03267">
        <ele>617.557087</ele>
        <time>2021-08-15T08:24:47.659Z</time>
      </trkpt>
      <trkpt lat="42.86717" lon="42.03262">
        <ele>617.769981</ele>
        <time>2021-08-15T08:24:54.755Z</time>
      </trkpt>
      <trkpt lat="42.86761" lon="42.03207">
        <ele>618.609175</ele>
        <time>2021-08-15T08:25:13.090Z</time>
      </trkpt>
      <trkpt lat="42.86801" lon="42.03211">
        <ele>619.181571</ele>
        <time>2021-08-15T08:25:21.680Z</time>
      </trkpt>
      <trkpt lat="42.86832" lon="42.03204">
        <ele>619.615719</ele>
        <time>2021-08-15T08:25:27.402Z</time>
      </trkpt>
      <trkpt lat="42.86887" lon="42.03177">
        <ele>617.248164</ele>
        <time>2021-08-15T08:25:36.665Z</time>
      </trkpt>
      <trkpt lat="42.86937" lon="42.0314">
        <ele>613.581669</ele>
        <time>2021-08-15T08:25:45.117Z</time>
      </trkpt>
      <trkpt lat="42.86971" lon="42.03128">
        <ele>611.292017</ele>
        <time>2021-08-15T08:25:50.351Z</time>
      </trkpt>
      <trkpt lat="42.87019" lon="42.03126">
        <ele>608.14987</ele>
        <time>2021-08-15T08:25:57.619Z</time>
      </trkpt>
      <trkpt lat="42.87031" lon="42.03133">
        <ele>607.14604</ele>
        <time>2021-08-15T08:25:59.601Z</time>
      </trkpt>
      <trkpt lat="42.87069" lon="42.03191">
        <ele>602.800699</ele>
        <time>2021-08-15T08:26:08.062Z</time>
      </trkpt>
      <trkpt lat="42.87083" lon="42.03201">
        <ele>601.570674</ele>
        <time>2021-08-15T08:26:10.344Z</time>
      </trkpt>
      <trkpt lat="42.87109" lon="42.03201">
        <ele>599.598135</ele>
        <time>2021-08-15T08:26:14.028Z</time>
      </trkpt>
      <trkpt lat="42.87137" lon="42.03179">
        <ele>597.085299</ele>
        <time>2021-08-15T08:26:18.728Z</time>
      </trkpt>
      <trkpt lat="42.87217" lon="42.03086">
        <ele>592.347473</ele>
        <time>2021-08-15T08:26:34.765Z</time>
      </trkpt>
      <trkpt lat="42.87249" lon="42.03055">
        <ele>591.140863</ele>
        <time>2021-08-15T08:26:41.592Z</time>
      </trkpt>
      <trkpt lat="42.87281" lon="42.03034">
        <ele>590.07888</ele>
        <time>2021-08-15T08:26:48.069Z</time>
      </trkpt>
      <trkpt lat="42.87398" lon="42.03027">
        <ele>592.328683</ele>
        <time>2021-08-15T08:27:26.948Z</time>
      </trkpt>
      <trkpt lat="42.87429" lon="42.0303">
        <ele>593.570629</ele>
        <time>2021-08-15T08:27:41.962Z</time>
      </trkpt>
      <trkpt lat="42.87705" lon="42.03163">
        <ele>609.978057</ele>
        <time>2021-08-15T08:30:17.942Z</time>
      </trkpt>
      <trkpt lat="42.87805" lon="42.03251">
        <ele>616.839695</ele>
        <time>2021-08-15T08:31:18.745Z</time>
      </trkpt>
      <trkpt lat="42.87865" lon="42.03278">
        <ele>618.995229</ele>
        <time>2021-08-15T08:31:48.505Z</time>
      </trkpt>
      <trkpt lat="42.87881" lon="42.03291">
        <ele>619.530307</ele>
        <time>2021-08-15T08:31:56.697Z</time>
      </trkpt>
      <trkpt lat="42.87904" lon="42.0332">
        <ele>620.397703</ele>
        <time>2021-08-15T08:32:08.842Z</time>
      </trkpt>
      <trkpt lat="42.87967" lon="42.03424">
        <ele>622.541673</ele>
        <time>2021-08-15T08:32:36.911Z</time>
      </trkpt>
      <trkpt lat="42.88055" lon="42.035">
        <ele>621.734393</ele>
        <time>2021-08-15T08:32:56.545Z</time>
      </trkpt>
      <trkpt lat="42.88085" lon="42.03518">
        <ele>621.474761</ele>
        <time>2021-08-15T08:33:02.766Z</time>
      </trkpt>
      <trkpt lat="42.88176" lon="42.03544">
        <ele>622.751184</ele>
        <time>2021-08-15T08:33:22.506Z</time>
      </trkpt>
      <trkpt lat="42.88189" lon="42.03552">
        <ele>623.064831</ele>
        <time>2021-08-15T08:33:32.844Z</time>
      </trkpt>
      <trkpt lat="42.88197" lon="42.03566">
        <ele>623.335883</ele>
        <time>2021-08-15T08:33:38.706Z</time>
      </trkpt>
      <trkpt lat="42.88225" lon="42.03722">
        <ele>624.858246</ele>
        <time>2021-08-15T08:34:21.877Z</time>
      </trkpt>
      <trkpt lat="42.88228" lon="42.03748">
        <ele>624.678757</ele>
        <time>2021-08-15T08:34:31.196Z</time>
      </trkpt>
      <trkpt lat="42.88247" lon="42.0392">
        <ele>623.497448</ele>
        <time>2021-08-15T08:34:54.465Z</time>
      </trkpt>
      <trkpt lat="42.88247" lon="42.03943">
        <ele>622.6133</ele>
        <time>2021-08-15T08:34:58.019Z</time>
      </trkpt>
      <trkpt lat="42.88244" lon="42.04007">
        <ele>620.178104</ele>
        <time>2021-08-15T08:35:04.723Z</time>
      </trkpt>
      <trkpt lat="42.88246" lon="42.04045">
        <ele>618.701802</ele>
        <time>2021-08-15T08:35:08.841Z</time>
      </trkpt>
      <trkpt lat="42.88269" lon="42.04096">
        <ele>616.441638</ele>
        <time>2021-08-15T08:35:15.660Z</time>
      </trkpt>
      <trkpt lat="42.88283" lon="42.04108">
        <ele>615.589086</ele>
        <time>2021-08-15T08:35:18.247Z</time>
      </trkpt>
      <trkpt lat="42.88308" lon="42.04118">
        <ele>614.238926</ele>
        <time>2021-08-15T08:35:22.863Z</time>
      </trkpt>
      <trkpt lat="42.88328" lon="42.04124">
        <ele>614.400367</ele>
        <time>2021-08-15T08:35:26.203Z</time>
      </trkpt>
      <trkpt lat="42.8834" lon="42.04125">
        <ele>614.560521</ele>
        <time>2021-08-15T08:35:29.389Z</time>
      </trkpt>
      <trkpt lat="42.88478" lon="42.04139">
        <ele>616.427846</ele>
        <time>2021-08-15T08:36:14.569Z</time>
      </trkpt>
      <trkpt lat="42.88512" lon="42.04143">
        <ele>616.806836</ele>
        <time>2021-08-15T08:36:33.062Z</time>
      </trkpt>
      <trkpt lat="42.88542" lon="42.04147">
        <ele>617.111221</ele>
        <time>2021-08-15T08:36:44.628Z</time>
      </trkpt>
      <trkpt lat="42.88548" lon="42.04148">
        <ele>617.168316</ele>
        <time>2021-08-15T08:36:46.148Z</time>
      </trkpt>
      <trkpt lat="42.88601" lon="42.0416">
        <ele>617.703048</ele>
        <time>2021-08-15T08:37:02.145Z</time>
      </trkpt>
      <trkpt lat="42.88645" lon="42.0417">
        <ele>618.146891</ele>
        <time>2021-08-15T08:37:11.944Z</time>
      </trkpt>
      <trkpt lat="42.88676" lon="42.04175">
        <ele>617.809706</ele>
        <time>2021-08-15T08:37:17.771Z</time>
      </trkpt>
      <trkpt lat="42.88726" lon="42.04173">
        <ele>614.97803</ele>
        <time>2021-08-15T08:37:25.970Z</time>
      </trkpt>
      <trkpt lat="42.88774" lon="42.04161">
        <ele>612.157633</ele>
        <time>2021-08-15T08:37:33.256Z</time>
      </trkpt>
      <trkpt lat="42.88848" lon="42.04133">
        <ele>607.900747</ele>
        <time>2021-08-15T08:37:44.368Z</time>
      </trkpt>
      <trkpt lat="42.89063" lon="42.04074">
        <ele>601.774319</ele>
        <time>2021-08-15T08:38:21.739Z</time>
      </trkpt>
      <trkpt lat="42.89136" lon="42.04069">
        <ele>602.559503</ele>
        <time>2021-08-15T08:38:44.925Z</time>
      </trkpt>
      <trkpt lat="42.8917" lon="42.04082">
        <ele>602.930541</ele>
        <time>2021-08-15T08:38:57.718Z</time>
      </trkpt>
      <trkpt lat="42.89213" lon="42.04108">
        <ele>603.97159</ele>
        <time>2021-08-15T08:39:17.685Z</time>
      </trkpt>
      <trkpt lat="42.89288" lon="42.04181">
        <ele>607.350201</ele>
        <time>2021-08-15T08:39:59.286Z</time>
      </trkpt>
      <trkpt lat="42.89316" lon="42.04194">
        <ele>608.431335</ele>
        <time>2021-08-15T08:40:12.319Z</time>
      </trkpt>
      <trkpt lat="42.89375" lon="42.0419">
        <ele>609.853957</ele>
        <time>2021-08-15T08:40:31.714Z</time>
      </trkpt>
      <trkpt lat="42.89415" lon="42.04194">
        <ele>609.899357</ele>
        <time>2021-08-15T08:40:42.459Z</time>
      </trkpt>
      <trkpt lat="42.89453" lon="42.04202">
        <ele>609.942952</ele>
        <time>2021-08-15T08:40:51.374Z</time>
      </trkpt>
      <trkpt lat="42.89493" lon="42.04223">
        <ele>609.990806</ele>
        <time>2021-08-15T08:40:59.967Z</time>
      </trkpt>
      <trkpt lat="42.89513" lon="42.04259">
        <ele>610.028878</ele>
        <time>2021-08-15T08:41:06.506Z</time>
      </trkpt>
      <trkpt lat="42.89532" lon="42.04317">
        <ele>609.232877</ele>
        <time>2021-08-15T08:41:15.145Z</time>
      </trkpt>
      <trkpt lat="42.89542" lon="42.04335">
        <ele>608.908867</ele>
        <time>2021-08-15T08:41:18.208Z</time>
      </trkpt>
      <trkpt lat="42.89557" lon="42.0435">
        <ele>608.567457</ele>
        <time>2021-08-15T08:41:21.446Z</time>
      </trkpt>
      <trkpt lat="42.89607" lon="42.04374">
        <ele>607.566147</ele>
        <time>2021-08-15T08:41:30.877Z</time>
      </trkpt>
      <trkpt lat="42.89633" lon="42.04399">
        <ele>606.955418</ele>
        <time>2021-08-15T08:41:36.742Z</time>
      </trkpt>
      <trkpt lat="42.89808" lon="42.04688">
        <ele>605.37075</ele>
        <time>2021-08-15T08:42:30.138Z</time>
      </trkpt>
      <trkpt lat="42.89838" lon="42.04765">
        <ele>606.289633</ele>
        <time>2021-08-15T08:42:51.052Z</time>
      </trkpt>
      <trkpt lat="42.8985" lon="42.04782">
        <ele>606.536648</ele>
        <time>2021-08-15T08:42:57.729Z</time>
      </trkpt>
      <trkpt lat="42.8986" lon="42.04789">
        <ele>606.698199</ele>
        <time>2021-08-15T08:43:02.713Z</time>
      </trkpt>
      <trkpt lat="42.89931" lon="42.04795">
        <ele>611.654959</ele>
        <time>2021-08-15T08:43:39.933Z</time>
      </trkpt>
      <trkpt lat="42.89949" lon="42.04805">
        <ele>613.170196</ele>
        <time>2021-08-15T08:43:52.354Z</time>
      </trkpt>
      <trkpt lat="42.89961" lon="42.0482">
        <ele>614.431324</ele>
        <time>2021-08-15T08:44:03.612Z</time>
      </trkpt>
      <trkpt lat="42.89991" lon="42.04908">
        <ele>619.994103</ele>
        <time>2021-08-15T08:44:54.245Z</time>
      </trkpt>
      <trkpt lat="42.90053" lon="42.04963">
        <ele>624.960732</ele>
        <time>2021-08-15T08:45:43.337Z</time>
      </trkpt>
      <trkpt lat="42.90063" lon="42.05023">
        <ele>627.928838</ele>
        <time>2021-08-15T08:46:12.889Z</time>
      </trkpt>
      <trkpt lat="42.90082" lon="42.0524">
        <ele>631.734796</ele>
        <time>2021-08-15T08:47:13.530Z</time>
      </trkpt>
      <trkpt lat="42.90097" lon="42.05311">
        <ele>631.128803</ele>
        <time>2021-08-15T08:47:22.832Z</time>
      </trkpt>
      <trkpt lat="42.90133" lon="42.05434">
        <ele>625.598835</ele>
        <time>2021-08-15T08:47:37.514Z</time>
      </trkpt>
      <trkpt lat="42.90157" lon="42.05484">
        <ele>621.795081</ele>
        <time>2021-08-15T08:47:43.760Z</time>
      </trkpt>
      <trkpt lat="42.902" lon="42.05555">
        <ele>615.883974</ele>
        <time>2021-08-15T08:47:53.374Z</time>
      </trkpt>
      <trkpt lat="42.90206" lon="42.05574">
        <ele>614.695404</ele>
        <time>2021-08-15T08:47:55.416Z</time>
      </trkpt>
      <trkpt lat="42.90215" lon="42.05626">
        <ele>612.514868</ele>
        <time>2021-08-15T08:48:01.009Z</time>
      </trkpt>
      <trkpt lat="42.90219" lon="42.05711">
        <ele>609.097591</ele>
        <time>2021-08-15T08:48:10.381Z</time>
      </trkpt>
      <trkpt lat="42.90222" lon="42.05722">
        <ele>608.629224</ele>
        <time>2021-08-15T08:48:11.547Z</time>
      </trkpt>
      <trkpt lat="42.90233" lon="42.05752">
        <ele>607.261868</ele>
        <time>2021-08-15T08:48:16.685Z</time>
      </trkpt>
      <trkpt lat="42.90239" lon="42.05756">
        <ele>606.917156</ele>
        <time>2021-08-15T08:48:17.497Z</time>
      </trkpt>
      <trkpt lat="42.90259" lon="42.05753">
        <ele>605.800842</ele>
        <time>2021-08-15T08:48:21.835Z</time>
      </trkpt>
      <trkpt lat="42.90319" lon="42.05718">
        <ele>608.575288</ele>
        <time>2021-08-15T08:48:50.924Z</time>
      </trkpt>
      <trkpt lat="42.9035" lon="42.05723">
        <ele>610.711742</ele>
        <time>2021-08-15T08:49:08.702Z</time>
      </trkpt>
      <trkpt lat="42.90396" lon="42.05744">
        <ele>614.085762</ele>
        <time>2021-08-15T08:49:40.488Z</time>
      </trkpt>
      <trkpt lat="42.90445" lon="42.0577">
        <ele>617.515437</ele>
        <time>2021-08-15T08:50:22.015Z</time>
      </trkpt>
      <trkpt lat="42.90514" lon="42.0581">
        <ele>619.221817</ele>
        <time>2021-08-15T08:51:13.189Z</time>
      </trkpt>
      <trkpt lat="42.90905" lon="42.06039">
        <ele>625.250904</ele>
        <time>2021-08-15T08:52:51.037Z</time>
      </trkpt>
      <trkpt lat="42.90931" lon="42.06054">
        <ele>625.188138</ele>
        <time>2021-08-15T08:52:56.554Z</time>
      </trkpt>
      <trkpt lat="42.91034" lon="42.06113">
        <ele>624.120985</ele>
        <time>2021-08-15T08:53:18.381Z</time>
      </trkpt>
      <trkpt lat="42.91057" lon="42.06134">
        <ele>623.847106</ele>
        <time>2021-08-15T08:53:23.925Z</time>
      </trkpt>
      <trkpt lat="42.91066" lon="42.06153">
        <ele>623.679688</ele>
        <time>2021-08-15T08:53:27.307Z</time>
      </trkpt>
      <trkpt lat="42.91112" lon="42.06467">
        <ele>620.769286</ele>
        <time>2021-08-15T08:54:14.037Z</time>
      </trkpt>
      <trkpt lat="42.91128" lon="42.06624">
        <ele>617.875839</ele>
        <time>2021-08-15T08:54:33.955Z</time>
      </trkpt>
      <trkpt lat="42.91135" lon="42.06693">
        <ele>616.787064</ele>
        <time>2021-08-15T08:54:43.048Z</time>
      </trkpt>
      <trkpt lat="42.91138" lon="42.06734">
        <ele>616.559974</ele>
        <time>2021-08-15T08:54:48.596Z</time>
      </trkpt>
      <trkpt lat="42.91136" lon="42.06849">
        <ele>615.908174</ele>
        <time>2021-08-15T08:55:06.865Z</time>
      </trkpt>
      <trkpt lat="42.91143" lon="42.069">
        <ele>615.615762</ele>
        <time>2021-08-15T08:55:17.719Z</time>
      </trkpt>
      <trkpt lat="42.91181" lon="42.07098">
        <ele>615.713956</ele>
        <time>2021-08-15T08:55:46.883Z</time>
      </trkpt>
      <trkpt lat="42.9119" lon="42.07124">
        <ele>615.748799</ele>
        <time>2021-08-15T08:55:51.049Z</time>
      </trkpt>
      <trkpt lat="42.91213" lon="42.07162">
        <ele>617.08267</ele>
        <time>2021-08-15T08:56:02.650Z</time>
      </trkpt>
      <trkpt lat="42.91227" lon="42.07178">
        <ele>619.389716</ele>
        <time>2021-08-15T08:56:11.774Z</time>
      </trkpt>
      <trkpt lat="42.91269" lon="42.0723">
        <ele>626.286475</ele>
        <time>2021-08-15T08:56:51.057Z</time>
      </trkpt>
      <trkpt lat="42.9128" lon="42.07251">
        <ele>628.656731</ele>
        <time>2021-08-15T08:57:10.136Z</time>
      </trkpt>
      <trkpt lat="42.913" lon="42.07297">
        <ele>633.495011</ele>
        <time>2021-08-15T08:57:52.595Z</time>
      </trkpt>
      <trkpt lat="42.9136" lon="42.07463">
        <ele>651.777817</ele>
        <time>2021-08-15T09:00:35.327Z</time>
      </trkpt>
      <trkpt lat="42.91376" lon="42.07515">
        <ele>657.536049</ele>
        <time>2021-08-15T09:01:12.571Z</time>
      </trkpt>
      <trkpt lat="42.91394" lon="42.07603">
        <ele>661.636009</ele>
        <time>2021-08-15T09:01:44.454Z</time>
      </trkpt>
      <trkpt lat="42.91414" lon="42.0766">
        <ele>659.268156</ele>
        <time>2021-08-15T09:01:52.030Z</time>
      </trkpt>
      <trkpt lat="42.91467" lon="42.0776">
        <ele>654.582018</ele>
        <time>2021-08-15T09:02:05.111Z</time>
      </trkpt>
      <trkpt lat="42.91536" lon="42.07856">
        <ele>641.539458</ele>
        <time>2021-08-15T09:02:18.839Z</time>
      </trkpt>
      <trkpt lat="42.91551" lon="42.07928">
        <ele>633.508235</ele>
        <time>2021-08-15T09:02:26.105Z</time>
      </trkpt>
      <trkpt lat="42.91559" lon="42.07943">
        <ele>631.405836</ele>
        <time>2021-08-15T09:02:27.985Z</time>
      </trkpt>
      <trkpt lat="42.91571" lon="42.07954">
        <ele>629.252934</ele>
        <time>2021-08-15T09:02:29.926Z</time>
      </trkpt>
      <trkpt lat="42.91628" lon="42.08021">
        <ele>614.376962</ele>
        <time>2021-08-15T09:02:39.686Z</time>
      </trkpt>
      <trkpt lat="42.91715" lon="42.08113">
        <ele>591.193164</ele>
        <time>2021-08-15T09:02:53.941Z</time>
      </trkpt>
      <trkpt lat="42.91733" lon="42.08125">
        <ele>587.394669</ele>
        <time>2021-08-15T09:02:56.614Z</time>
      </trkpt>
      <trkpt lat="42.91839" lon="42.08155">
        <ele>569.553081</ele>
        <time>2021-08-15T09:03:10.928Z</time>
      </trkpt>
      <trkpt lat="42.91859" lon="42.08169">
        <ele>565.835545</ele>
        <time>2021-08-15T09:03:13.954Z</time>
      </trkpt>
      <trkpt lat="42.91861" lon="42.08188">
        <ele>563.528867</ele>
        <time>2021-08-15T09:03:15.880Z</time>
      </trkpt>
      <trkpt lat="42.91848" lon="42.08266">
        <ele>558.354252</ele>
        <time>2021-08-15T09:03:24.019Z</time>
      </trkpt>
      <trkpt lat="42.91849" lon="42.08292">
        <ele>557.618285</ele>
        <time>2021-08-15T09:03:26.951Z</time>
      </trkpt>
      <trkpt lat="42.91853" lon="42.083">
        <ele>557.360036</ele>
        <time>2021-08-15T09:03:27.902Z</time>
      </trkpt>
      <trkpt lat="42.91865" lon="42.0832">
        <ele>556.660897</ele>
        <time>2021-08-15T09:03:30.945Z</time>
      </trkpt>
      <trkpt lat="42.9187" lon="42.08323">
        <ele>556.464452</ele>
        <time>2021-08-15T09:03:31.732Z</time>
      </trkpt>
      <trkpt lat="42.91879" lon="42.08324">
        <ele>556.117609</ele>
        <time>2021-08-15T09:03:33.156Z</time>
      </trkpt>
      <trkpt lat="42.919" lon="42.08309">
        <ele>555.20751</ele>
        <time>2021-08-15T09:03:37.492Z</time>
      </trkpt>
      <trkpt lat="42.91961" lon="42.08232">
        <ele>555.038254</ele>
        <time>2021-08-15T09:04:04.400Z</time>
      </trkpt>
      <trkpt lat="42.91989" lon="42.08208">
        <ele>558.32668</ele>
        <time>2021-08-15T09:04:25.505Z</time>
      </trkpt>
      <trkpt lat="42.92007" lon="42.08211">
        <ele>560.164849</ele>
        <time>2021-08-15T09:04:41.050Z</time>
      </trkpt>
      <trkpt lat="42.92052" lon="42.08238">
        <ele>565.130129</ele>
        <time>2021-08-15T09:05:24.505Z</time>
      </trkpt>
      <trkpt lat="42.9212" lon="42.08331">
        <ele>574.368816</ele>
        <time>2021-08-15T09:06:48.006Z</time>
      </trkpt>
      <trkpt lat="42.9213" lon="42.08357">
        <ele>576.17273</ele>
        <time>2021-08-15T09:07:05.364Z</time>
      </trkpt>
      <trkpt lat="42.92218" lon="42.08718">
        <ele>595.80225</ele>
        <time>2021-08-15T09:09:37.611Z</time>
      </trkpt>
      <trkpt lat="42.92236" lon="42.08768">
        <ele>597.837888</ele>
        <time>2021-08-15T09:09:53.615Z</time>
      </trkpt>
      <trkpt lat="42.92281" lon="42.08852">
        <ele>600.942375</ele>
        <time>2021-08-15T09:10:24.209Z</time>
      </trkpt>
      <trkpt lat="42.92287" lon="42.08874">
        <ele>601.662108</ele>
        <time>2021-08-15T09:10:31.621Z</time>
      </trkpt>
      <trkpt lat="42.92289" lon="42.08972">
        <ele>604.575553</ele>
        <time>2021-08-15T09:11:02.482Z</time>
      </trkpt>
      <trkpt lat="42.92296" lon="42.09022">
        <ele>606.037734</ele>
        <time>2021-08-15T09:11:19.341Z</time>
      </trkpt>
      <trkpt lat="42.92321" lon="42.091">
        <ele>608.463076</ele>
        <time>2021-08-15T09:11:47.859Z</time>
      </trkpt>
      <trkpt lat="42.92367" lon="42.09295">
        <ele>611.834304</ele>
        <time>2021-08-15T09:12:44.562Z</time>
      </trkpt>
      <trkpt lat="42.92376" lon="42.09372">
        <ele>612.120431</ele>
        <time>2021-08-15T09:12:57.518Z</time>
      </trkpt>
      <trkpt lat="42.92431" lon="42.095">
        <ele>609.968308</ele>
        <time>2021-08-15T09:13:16.757Z</time>
      </trkpt>
      <trkpt lat="42.92469" lon="42.09611">
        <ele>606.36757</ele>
        <time>2021-08-15T09:13:31.194Z</time>
      </trkpt>
      <trkpt lat="42.92489" lon="42.09642">
        <ele>605.149128</ele>
        <time>2021-08-15T09:13:35.937Z</time>
      </trkpt>
      <trkpt lat="42.92544" lon="42.09694">
        <ele>602.012522</ele>
        <time>2021-08-15T09:13:46.391Z</time>
      </trkpt>
      <trkpt lat="42.92602" lon="42.09773">
        <ele>598.18339</ele>
        <time>2021-08-15T09:13:59.365Z</time>
      </trkpt>
      <trkpt lat="42.92701" lon="42.09873">
        <ele>594.6191</ele>
        <time>2021-08-15T09:14:20.896Z</time>
      </trkpt>
      <trkpt lat="42.92715" lon="42.09898">
        <ele>594.089355</ele>
        <time>2021-08-15T09:14:25.321Z</time>
      </trkpt>
      <trkpt lat="42.92724" lon="42.09929">
        <ele>593.524515</ele>
        <time>2021-08-15T09:14:30.191Z</time>
      </trkpt>
      <trkpt lat="42.92736" lon="42.10011">
        <ele>591.8547</ele>
        <time>2021-08-15T09:14:41.897Z</time>
      </trkpt>
      <trkpt lat="42.92752" lon="42.10061">
        <ele>590.386173</ele>
        <time>2021-08-15T09:14:49.524Z</time>
      </trkpt>
      <trkpt lat="42.92887" lon="42.10293">
        <ele>580.733019</ele>
        <time>2021-08-15T09:15:24.205Z</time>
      </trkpt>
      <trkpt lat="42.92969" lon="42.10367">
        <ele>575.881024</ele>
        <time>2021-08-15T09:15:39.129Z</time>
      </trkpt>
      <trkpt lat="42.93021" lon="42.10396">
        <ele>574.479265</ele>
        <time>2021-08-15T09:15:48.314Z</time>
      </trkpt>
      <trkpt lat="42.93042" lon="42.10416">
        <ele>573.814787</ele>
        <time>2021-08-15T09:15:52.938Z</time>
      </trkpt>
      <trkpt lat="42.93056" lon="42.10439">
        <ele>573.283082</ele>
        <time>2021-08-15T09:15:56.892Z</time>
      </trkpt>
      <trkpt lat="42.93093" lon="42.10583">
        <ele>571.028575</ele>
        <time>2021-08-15T09:16:25.244Z</time>
      </trkpt>
      <trkpt lat="42.93135" lon="42.10698">
        <ele>569.654482</ele>
        <time>2021-08-15T09:16:44.366Z</time>
      </trkpt>
      <trkpt lat="42.93149" lon="42.10778">
        <ele>567.85162</ele>
        <time>2021-08-15T09:16:53.948Z</time>
      </trkpt>
      <trkpt lat="42.93162" lon="42.10928">
        <ele>562.462254</ele>
        <time>2021-08-15T09:17:11.006Z</time>
      </trkpt>
      <trkpt lat="42.93163" lon="42.10961">
        <ele>561.27913</ele>
        <time>2021-08-15T09:17:14.804Z</time>
      </trkpt>
      <trkpt lat="42.9316" lon="42.10989">
        <ele>560.369623</ele>
        <time>2021-08-15T09:17:18.251Z</time>
      </trkpt>
      <trkpt lat="42.93141" lon="42.11065">
        <ele>560.488288</ele>
        <time>2021-08-15T09:17:28.551Z</time>
      </trkpt>
      <trkpt lat="42.93068" lon="42.11304">
        <ele>562.037393</ele>
        <time>2021-08-15T09:18:32.313Z</time>
      </trkpt>
      <trkpt lat="42.93031" lon="42.11513">
        <ele>564.461852</ele>
        <time>2021-08-15T09:19:20.250Z</time>
      </trkpt>
      <trkpt lat="42.92974" lon="42.11749">
        <ele>565.429881</ele>
        <time>2021-08-15T09:20:05.582Z</time>
      </trkpt>
      <trkpt lat="42.9297" lon="42.11806">
        <ele>565.296475</ele>
        <time>2021-08-15T09:20:14.617Z</time>
      </trkpt>
      <trkpt lat="42.92976" lon="42.11886">
        <ele>565.108503</ele>
        <time>2021-08-15T09:20:26.851Z</time>
      </trkpt>
      <trkpt lat="42.92993" lon="42.11932">
        <ele>565.001972</ele>
        <time>2021-08-15T09:20:34.432Z</time>
      </trkpt>
      <trkpt lat="42.93026" lon="42.11965">
        <ele>564.932146</ele>
        <time>2021-08-15T09:20:42.186Z</time>
      </trkpt>
      <trkpt lat="42.93072" lon="42.1199">
        <ele>564.845257</ele>
        <time>2021-08-15T09:20:51.782Z</time>
      </trkpt>
      <trkpt lat="42.93104" lon="42.11999">
        <ele>564.789197</ele>
        <time>2021-08-15T09:20:58.309Z</time>
      </trkpt>
      <trkpt lat="42.93134" lon="42.12027">
        <ele>564.725318</ele>
        <time>2021-08-15T09:21:08.458Z</time>
      </trkpt>
      <trkpt lat="42.93146" lon="42.12054">
        <ele>565.21045</ele>
        <time>2021-08-15T09:21:15.972Z</time>
      </trkpt>
      <trkpt lat="42.93149" lon="42.12087">
        <ele>566.246065</ele>
        <time>2021-08-15T09:21:25.466Z</time>
      </trkpt>
      <trkpt lat="42.93142" lon="42.12165">
        <ele>568.759509</ele>
        <time>2021-08-15T09:21:49.752Z</time>
      </trkpt>
      <trkpt lat="42.93136" lon="42.12202">
        <ele>569.941958</ele>
        <time>2021-08-15T09:22:02.373Z</time>
      </trkpt>
      <trkpt lat="42.93129" lon="42.12226">
        <ele>570.773399</ele>
        <time>2021-08-15T09:22:12.722Z</time>
      </trkpt>
      <trkpt lat="42.9311" lon="42.12283">
        <ele>572.759088</ele>
        <time>2021-08-15T09:22:36.996Z</time>
      </trkpt>
      <trkpt lat="42.9311" lon="42.12331">
        <ele>574.303756</ele>
        <time>2021-08-15T09:22:57.042Z</time>
      </trkpt>
      <trkpt lat="42.93131" lon="42.12503">
        <ele>579.84591</ele>
        <time>2021-08-15T09:23:56.169Z</time>
      </trkpt>
      <trkpt lat="42.93178" lon="42.12711">
        <ele>578.539503</ele>
        <time>2021-08-15T09:24:28.269Z</time>
      </trkpt>
      <trkpt lat="42.93205" lon="42.128">
        <ele>576.587536</ele>
        <time>2021-08-15T09:24:39.625Z</time>
      </trkpt>
      <trkpt lat="42.93287" lon="42.12966">
        <ele>571.02996</ele>
        <time>2021-08-15T09:25:03.213Z</time>
      </trkpt>
      <trkpt lat="42.93312" lon="42.12996">
        <ele>571.848609</ele>
        <time>2021-08-15T09:25:09.517Z</time>
      </trkpt>
      <trkpt lat="42.93365" lon="42.13034">
        <ele>573.313366</ele>
        <time>2021-08-15T09:25:25.670Z</time>
      </trkpt>
      <trkpt lat="42.93393" lon="42.13072">
        <ele>574.27626</ele>
        <time>2021-08-15T09:25:42.526Z</time>
      </trkpt>
      <trkpt lat="42.93437" lon="42.1317">
        <ele>578.934396</ele>
        <time>2021-08-15T09:26:35.329Z</time>
      </trkpt>
      <trkpt lat="42.93448" lon="42.13222">
        <ele>582.352475</ele>
        <time>2021-08-15T09:27:04.921Z</time>
      </trkpt>
      <trkpt lat="42.93463" lon="42.13375">
        <ele>590.899491</ele>
        <time>2021-08-15T09:28:24.871Z</time>
      </trkpt>
      <trkpt lat="42.93474" lon="42.13538">
        <ele>591.864276</ele>
        <time>2021-08-15T09:29:04.996Z</time>
      </trkpt>
      <trkpt lat="42.93488" lon="42.13637">
        <ele>589.690549</ele>
        <time>2021-08-15T09:29:16.107Z</time>
      </trkpt>
      <trkpt lat="42.93503" lon="42.13689">
        <ele>586.094799</ele>
        <time>2021-08-15T09:29:22.101Z</time>
      </trkpt>
      <trkpt lat="42.93532" lon="42.13762">
        <ele>580.779871</ele>
        <time>2021-08-15T09:29:30.744Z</time>
      </trkpt>
      <trkpt lat="42.93592" lon="42.13888">
        <ele>571.47359</ele>
        <time>2021-08-15T09:29:46.531Z</time>
      </trkpt>
      <trkpt lat="42.93616" lon="42.13937">
        <ele>567.952027</ele>
        <time>2021-08-15T09:29:52.795Z</time>
      </trkpt>
      <trkpt lat="42.93626" lon="42.13974">
        <ele>565.643914</ele>
        <time>2021-08-15T09:29:57.091Z</time>
      </trkpt>
      <trkpt lat="42.93632" lon="42.14018">
        <ele>562.974533</ele>
        <time>2021-08-15T09:30:02.042Z</time>
      </trkpt>
      <trkpt lat="42.9363" lon="42.14055">
        <ele>561.117555</ele>
        <time>2021-08-15T09:30:06.242Z</time>
      </trkpt>
      <trkpt lat="42.93618" lon="42.14132">
        <ele>558.127626</ele>
        <time>2021-08-15T09:30:14.943Z</time>
      </trkpt>
      <trkpt lat="42.93588" lon="42.14256">
        <ele>553.132678</ele>
        <time>2021-08-15T09:30:30.045Z</time>
      </trkpt>
      <trkpt lat="42.93558" lon="42.14393">
        <ele>553.216256</ele>
        <time>2021-08-15T09:30:49.961Z</time>
      </trkpt>
      <trkpt lat="42.93544" lon="42.14513">
        <ele>554.007083</ele>
        <time>2021-08-15T09:31:23.356Z</time>
      </trkpt>
      <trkpt lat="42.93542" lon="42.14576">
        <ele>557.627823</ele>
        <time>2021-08-15T09:31:46.868Z</time>
      </trkpt>
      <trkpt lat="42.9355" lon="42.14758">
        <ele>568.202301</ele>
        <time>2021-08-15T09:33:19.056Z</time>
      </trkpt>
      <trkpt lat="42.93557" lon="42.14811">
        <ele>571.524663</ele>
        <time>2021-08-15T09:33:45.858Z</time>
      </trkpt>
      <trkpt lat="42.93566" lon="42.14825">
        <ele>572.720226</ele>
        <time>2021-08-15T09:33:52.972Z</time>
      </trkpt>
      <trkpt lat="42.93576" lon="42.14833">
        <ele>573.687189</ele>
        <time>2021-08-15T09:34:03.137Z</time>
      </trkpt>
      <trkpt lat="42.93611" lon="42.14857">
        <ele>576.998211</ele>
        <time>2021-08-15T09:34:27.068Z</time>
      </trkpt>
      <trkpt lat="42.93617" lon="42.14862">
        <ele>577.585235</ele>
        <time>2021-08-15T09:34:31.777Z</time>
      </trkpt>
      <trkpt lat="42.93652" lon="42.14917">
        <ele>582.137979</ele>
        <time>2021-08-15T09:35:04.705Z</time>
      </trkpt>
      <trkpt lat="42.93717" lon="42.14998">
        <ele>590.785735</ele>
        <time>2021-08-15T09:36:00.847Z</time>
      </trkpt>
      <trkpt lat="42.93726" lon="42.15033">
        <ele>593.568334</ele>
        <time>2021-08-15T09:36:19.603Z</time>
      </trkpt>
      <trkpt lat="42.93742" lon="42.15061">
        <ele>596.249206</ele>
        <time>2021-08-15T09:36:40.020Z</time>
      </trkpt>
      <trkpt lat="42.93758" lon="42.15123">
        <ele>601.115479</ele>
        <time>2021-08-15T09:37:23.599Z</time>
      </trkpt>
      <trkpt lat="42.93784" lon="42.15168">
        <ele>604.360159</ele>
        <time>2021-08-15T09:37:58.343Z</time>
      </trkpt>
      <trkpt lat="42.93795" lon="42.1523">
        <ele>607.745787</ele>
        <time>2021-08-15T09:38:32.199Z</time>
      </trkpt>
      <trkpt lat="42.93796" lon="42.15272">
        <ele>609.95583</ele>
        <time>2021-08-15T09:38:51.845Z</time>
      </trkpt>
      <trkpt lat="42.93793" lon="42.15317">
        <ele>612.344525</ele>
        <time>2021-08-15T09:39:07.804Z</time>
      </trkpt>
      <trkpt lat="42.93805" lon="42.15427">
        <ele>612.330244</ele>
        <time>2021-08-15T09:39:29.095Z</time>
      </trkpt>
      <trkpt lat="42.93799" lon="42.15553">
        <ele>607.545129</ele>
        <time>2021-08-15T09:39:42.795Z</time>
      </trkpt>
      <trkpt lat="42.93789" lon="42.1561">
        <ele>605.215571</ele>
        <time>2021-08-15T09:39:48.986Z</time>
      </trkpt>
      <trkpt lat="42.93788" lon="42.15644">
        <ele>603.129393</ele>
        <time>2021-08-15T09:39:52.643Z</time>
      </trkpt>
      <trkpt lat="42.93796" lon="42.15673">
        <ele>601.303894</ele>
        <time>2021-08-15T09:39:55.826Z</time>
      </trkpt>
      <trkpt lat="42.93843" lon="42.15733">
        <ele>596.002681</ele>
        <time>2021-08-15T09:40:05.137Z</time>
      </trkpt>
      <trkpt lat="42.9388" lon="42.15801">
        <ele>590.861306</ele>
        <time>2021-08-15T09:40:14.404Z</time>
      </trkpt>
      <trkpt lat="42.9389" lon="42.15897">
        <ele>587.299148</ele>
        <time>2021-08-15T09:40:25.350Z</time>
      </trkpt>
      <trkpt lat="42.93898" lon="42.15936">
        <ele>585.831147</ele>
        <time>2021-08-15T09:40:30.045Z</time>
      </trkpt>
      <trkpt lat="42.9392" lon="42.15995">
        <ele>583.459196</ele>
        <time>2021-08-15T09:40:37.826Z</time>
      </trkpt>
      <trkpt lat="42.93967" lon="42.16087">
        <ele>582.261869</ele>
        <time>2021-08-15T09:40:52.192Z</time>
      </trkpt>
      <trkpt lat="42.93975" lon="42.16116">
        <ele>582.487161</ele>
        <time>2021-08-15T09:40:56.584Z</time>
      </trkpt>
      <trkpt lat="42.94024" lon="42.1665">
        <ele>588.919792</ele>
        <time>2021-08-15T09:43:01.756Z</time>
      </trkpt>
      <trkpt lat="42.94009" lon="42.16787">
        <ele>592.836646</ele>
        <time>2021-08-15T09:43:52.424Z</time>
      </trkpt>
      <trkpt lat="42.94015" lon="42.16854">
        <ele>595.283989</ele>
        <time>2021-08-15T09:44:18.278Z</time>
      </trkpt>
      <trkpt lat="42.94054" lon="42.16958">
        <ele>599.533236</ele>
        <time>2021-08-15T09:44:58.071Z</time>
      </trkpt>
      <trkpt lat="42.94084" lon="42.17014">
        <ele>601.184267</ele>
        <time>2021-08-15T09:45:19.244Z</time>
      </trkpt>
      <trkpt lat="42.9412" lon="42.17052">
        <ele>602.218725</ele>
        <time>2021-08-15T09:45:35.659Z</time>
      </trkpt>
      <trkpt lat="42.94168" lon="42.17079">
        <ele>603.388894</ele>
        <time>2021-08-15T09:45:51.177Z</time>
      </trkpt>
      <trkpt lat="42.94191" lon="42.17091">
        <ele>603.955</ele>
        <time>2021-08-15T09:45:58.647Z</time>
      </trkpt>
      <trkpt lat="42.9431" lon="42.17211">
        <ele>604.767882</ele>
        <time>2021-08-15T09:46:37.561Z</time>
      </trkpt>
      <trkpt lat="42.94342" lon="42.17253">
        <ele>604.862369</ele>
        <time>2021-08-15T09:46:47.053Z</time>
      </trkpt>
      <trkpt lat="42.94359" lon="42.17294">
        <ele>604.243951</ele>
        <time>2021-08-15T09:46:53.881Z</time>
      </trkpt>
      <trkpt lat="42.9441" lon="42.17508">
        <ele>599.495241</ele>
        <time>2021-08-15T09:47:22.096Z</time>
      </trkpt>
      <trkpt lat="42.94434" lon="42.1756">
        <ele>597.984044</ele>
        <time>2021-08-15T09:47:29.261Z</time>
      </trkpt>
      <trkpt lat="42.94454" lon="42.17688">
        <ele>594.781233</ele>
        <time>2021-08-15T09:47:45.352Z</time>
      </trkpt>
      <trkpt lat="42.94454" lon="42.17766">
        <ele>593.452314</ele>
        <time>2021-08-15T09:47:55.857Z</time>
      </trkpt>
      <trkpt lat="42.94453" lon="42.17798">
        <ele>593.210167</ele>
        <time>2021-08-15T09:48:00.163Z</time>
      </trkpt>
      <trkpt lat="42.94451" lon="42.1781">
        <ele>593.113133</ele>
        <time>2021-08-15T09:48:02.195Z</time>
      </trkpt>
      <trkpt lat="42.94447" lon="42.17825">
        <ele>592.992119</ele>
        <time>2021-08-15T09:48:05.614Z</time>
      </trkpt>
      <trkpt lat="42.94412" lon="42.17978">
        <ele>591.637218</ele>
        <time>2021-08-15T09:48:29.893Z</time>
      </trkpt>
      <trkpt lat="42.94411" lon="42.18074">
        <ele>589.394473</ele>
        <time>2021-08-15T09:48:43.409Z</time>
      </trkpt>
      <trkpt lat="42.94419" lon="42.1821">
        <ele>586.226746</ele>
        <time>2021-08-15T09:48:59.814Z</time>
      </trkpt>
      <trkpt lat="42.94441" lon="42.18281">
        <ele>584.758747</ele>
        <time>2021-08-15T09:49:08.473Z</time>
      </trkpt>
      <trkpt lat="42.94449" lon="42.1832">
        <ele>583.994954</ele>
        <time>2021-08-15T09:49:13.142Z</time>
      </trkpt>
      <trkpt lat="42.9445" lon="42.18356">
        <ele>583.331339</ele>
        <time>2021-08-15T09:49:17.420Z</time>
      </trkpt>
      <trkpt lat="42.94445" lon="42.18386">
        <ele>582.752486</ele>
        <time>2021-08-15T09:49:21.835Z</time>
      </trkpt>
      <trkpt lat="42.94439" lon="42.18403">
        <ele>582.402359</ele>
        <time>2021-08-15T09:49:24.409Z</time>
      </trkpt>
      <trkpt lat="42.94433" lon="42.18423">
        <ele>581.989252</ele>
        <time>2021-08-15T09:49:30.841Z</time>
      </trkpt>
      <trkpt lat="42.94427" lon="42.1844">
        <ele>581.643018</ele>
        <time>2021-08-15T09:49:33.998Z</time>
      </trkpt>
      <trkpt lat="42.94419" lon="42.18464">
        <ele>582.469182</ele>
        <time>2021-08-15T09:49:41.950Z</time>
      </trkpt>
      <trkpt lat="42.94408" lon="42.18487">
        <ele>583.804622</ele>
        <time>2021-08-15T09:49:48.436Z</time>
      </trkpt>
      <trkpt lat="42.94406" lon="42.18493">
        <ele>584.125472</ele>
        <time>2021-08-15T09:49:50.987Z</time>
      </trkpt>
      <trkpt lat="42.94405" lon="42.185">
        <ele>584.443348</ele>
        <time>2021-08-15T09:49:54.936Z</time>
      </trkpt>
      <trkpt lat="42.94406" lon="42.1852">
        <ele>585.386525</ele>
        <time>2021-08-15T09:50:00.668Z</time>
      </trkpt>
      <trkpt lat="42.94421" lon="42.18584">
        <ele>588.588856</ele>
        <time>2021-08-15T09:50:25.114Z</time>
      </trkpt>
      <trkpt lat="42.94426" lon="42.18591">
        <ele>589.059231</ele>
        <time>2021-08-15T09:50:31.861Z</time>
      </trkpt>
      <trkpt lat="42.94485" lon="42.186">
        <ele>592.846772</ele>
        <time>2021-08-15T09:51:11.251Z</time>
      </trkpt>
      <trkpt lat="42.94543" lon="42.18583">
        <ele>598.820499</ele>
        <time>2021-08-15T09:52:00.022Z</time>
      </trkpt>
      <trkpt lat="42.94555" lon="42.18585">
        <ele>600.039771</ele>
        <time>2021-08-15T09:52:08.455Z</time>
      </trkpt>
      <trkpt lat="42.94565" lon="42.18594">
        <ele>601.275093</ele>
        <time>2021-08-15T09:52:18.958Z</time>
      </trkpt>
      <trkpt lat="42.9458" lon="42.1862">
        <ele>603.715889</ele>
        <time>2021-08-15T09:52:35.709Z</time>
      </trkpt>
      <trkpt lat="42.94589" lon="42.18649">
        <ele>606.127795</ele>
        <time>2021-08-15T09:52:52.188Z</time>
      </trkpt>
      <trkpt lat="42.94606" lon="42.1879">
        <ele>616.186045</ele>
        <time>2021-08-15T09:54:06.405Z</time>
      </trkpt>
      <trkpt lat="42.94585" lon="42.1889">
        <ele>623.061105</ele>
        <time>2021-08-15T09:54:58.858Z</time>
      </trkpt>
      <trkpt lat="42.94589" lon="42.18934">
        <ele>625.995486</ele>
        <time>2021-08-15T09:55:20.340Z</time>
      </trkpt>
      <trkpt lat="42.94617" lon="42.18995">
        <ele>629.688907</ele>
        <time>2021-08-15T09:55:52.811Z</time>
      </trkpt>
      <trkpt lat="42.94638" lon="42.19022">
        <ele>631.38441</ele>
        <time>2021-08-15T09:56:09.294Z</time>
      </trkpt>
      <trkpt lat="42.94661" lon="42.19035">
        <ele>632.816542</ele>
        <time>2021-08-15T09:56:22.018Z</time>
      </trkpt>
      <trkpt lat="42.94726" lon="42.19048">
        <ele>636.634608</ele>
        <time>2021-08-15T09:56:52.007Z</time>
      </trkpt>
      <trkpt lat="42.94744" lon="42.19062">
        <ele>637.819585</ele>
        <time>2021-08-15T09:57:00.889Z</time>
      </trkpt>
      <trkpt lat="42.94798" lon="42.19126">
        <ele>640.507362</ele>
        <time>2021-08-15T09:57:31.887Z</time>
      </trkpt>
      <trkpt lat="42.94863" lon="42.19165">
        <ele>642.962522</ele>
        <time>2021-08-15T09:57:59.477Z</time>
      </trkpt>
      <trkpt lat="42.94938" lon="42.1923">
        <ele>644.889138</ele>
        <time>2021-08-15T09:58:32.026Z</time>
      </trkpt>
      <trkpt lat="42.9504" lon="42.19274">
        <ele>645.785539</ele>
        <time>2021-08-15T09:59:01.081Z</time>
      </trkpt>
      <trkpt lat="42.95133" lon="42.19288">
        <ele>643.795406</ele>
        <time>2021-08-15T09:59:17.990Z</time>
      </trkpt>
      <trkpt lat="42.95198" lon="42.19319">
        <ele>641.442006</ele>
        <time>2021-08-15T09:59:29.231Z</time>
      </trkpt>
      <trkpt lat="42.95265" lon="42.19312">
        <ele>639.037541</ele>
        <time>2021-08-15T09:59:39.865Z</time>
      </trkpt>
      <trkpt lat="42.95417" lon="42.19315">
        <ele>633.129611</ele>
        <time>2021-08-15T10:00:04.854Z</time>
      </trkpt>
      <trkpt lat="42.95471" lon="42.19299">
        <ele>632.435975</ele>
        <time>2021-08-15T10:00:15.039Z</time>
      </trkpt>
      <trkpt lat="42.9552" lon="42.19313">
        <ele>632.002183</ele>
        <time>2021-08-15T10:00:24.859Z</time>
      </trkpt>
      <trkpt lat="42.95563" lon="42.19334">
        <ele>631.596562</ele>
        <time>2021-08-15T10:00:35.276Z</time>
      </trkpt>
      <trkpt lat="42.95635" lon="42.19357">
        <ele>631.717597</ele>
        <time>2021-08-15T10:00:54.465Z</time>
      </trkpt>
      <trkpt lat="42.95664" lon="42.19376">
        <ele>632.073513</ele>
        <time>2021-08-15T10:01:03.372Z</time>
      </trkpt>
      <trkpt lat="42.95797" lon="42.19511">
        <ele>630.246521</ele>
        <time>2021-08-15T10:01:53.056Z</time>
      </trkpt>
      <trkpt lat="42.95891" lon="42.19579">
        <ele>624.53849</ele>
        <time>2021-08-15T10:02:09.001Z</time>
      </trkpt>
      <trkpt lat="42.95912" lon="42.19598">
        <ele>622.822624</ele>
        <time>2021-08-15T10:02:12.346Z</time>
      </trkpt>
      <trkpt lat="42.95939" lon="42.19622">
        <ele>619.518627</ele>
        <time>2021-08-15T10:02:16.826Z</time>
      </trkpt>
      <trkpt lat="42.95951" lon="42.1963">
        <ele>618.202436</ele>
        <time>2021-08-15T10:02:18.792Z</time>
      </trkpt>
      <trkpt lat="42.95957" lon="42.19631">
        <ele>617.605665</ele>
        <time>2021-08-15T10:02:19.590Z</time>
      </trkpt>
      <trkpt lat="42.95961" lon="42.1963">
        <ele>617.206266</ele>
        <time>2021-08-15T10:02:20.120Z</time>
      </trkpt>
      <trkpt lat="42.95967" lon="42.19626">
        <ele>616.510111</ele>
        <time>2021-08-15T10:02:21.040Z</time>
      </trkpt>
      <trkpt lat="42.95991" lon="42.19596">
        <ele>613.26835</ele>
        <time>2021-08-15T10:02:25.657Z</time>
      </trkpt>
      <trkpt lat="42.95993" lon="42.19595">
        <ele>613.096862</ele>
        <time>2021-08-15T10:02:25.878Z</time>
      </trkpt>
      <trkpt lat="42.96016" lon="42.19615">
        <ele>610.320928</ele>
        <time>2021-08-15T10:02:29.930Z</time>
      </trkpt>
      <trkpt lat="42.96042" lon="42.19641">
        <ele>607.091012</ele>
        <time>2021-08-15T10:02:34.513Z</time>
      </trkpt>
      <trkpt lat="42.96076" lon="42.19686">
        <ele>605.995496</ele>
        <time>2021-08-15T10:02:41.337Z</time>
      </trkpt>
      <trkpt lat="42.96095" lon="42.19727">
        <ele>606.525148</ele>
        <time>2021-08-15T10:02:47.726Z</time>
      </trkpt>
      <trkpt lat="42.96171" lon="42.19829">
        <ele>608.103719</ele>
        <time>2021-08-15T10:03:45.647Z</time>
      </trkpt>
      <trkpt lat="42.96209" lon="42.19865">
        <ele>610.777087</ele>
        <time>2021-08-15T10:04:10.543Z</time>
      </trkpt>
      <trkpt lat="42.96245" lon="42.19886">
        <ele>613.273023</ele>
        <time>2021-08-15T10:04:31.683Z</time>
      </trkpt>
      <trkpt lat="42.96271" lon="42.1991">
        <ele>615.264789</ele>
        <time>2021-08-15T10:04:48.591Z</time>
      </trkpt>
      <trkpt lat="42.96326" lon="42.19992">
        <ele>620.602633</ele>
        <time>2021-08-15T10:05:32.425Z</time>
      </trkpt>
      <trkpt lat="42.96334" lon="42.20013">
        <ele>621.818868</ele>
        <time>2021-08-15T10:05:41.978Z</time>
      </trkpt>
      <trkpt lat="42.96344" lon="42.20092">
        <ele>625.948572</ele>
        <time>2021-08-15T10:06:15.392Z</time>
      </trkpt>
      <trkpt lat="42.96354" lon="42.20123">
        <ele>627.726245</ele>
        <time>2021-08-15T10:06:29.626Z</time>
      </trkpt>
      <trkpt lat="42.96393" lon="42.20198">
        <ele>632.499779</ele>
        <time>2021-08-15T10:07:09.877Z</time>
      </trkpt>
      <trkpt lat="42.96433" lon="42.20251">
        <ele>636.744297</ele>
        <time>2021-08-15T10:07:44.820Z</time>
      </trkpt>
      <trkpt lat="42.96455" lon="42.20298">
        <ele>639.814237</ele>
        <time>2021-08-15T10:08:09.932Z</time>
      </trkpt>
      <trkpt lat="42.96485" lon="42.2038">
        <ele>644.860679</ele>
        <time>2021-08-15T10:08:51.442Z</time>
      </trkpt>
      <trkpt lat="42.96506" lon="42.20393">
        <ele>646.314217</ele>
        <time>2021-08-15T10:09:03.878Z</time>
      </trkpt>
      <trkpt lat="42.96546" lon="42.20379">
        <ele>648.002032</ele>
        <time>2021-08-15T10:09:25.510Z</time>
      </trkpt>
      <trkpt lat="42.9656" lon="42.20385">
        <ele>648.575202</ele>
        <time>2021-08-15T10:09:32.594Z</time>
      </trkpt>
      <trkpt lat="42.96588" lon="42.20407">
        <ele>649.88948</ele>
        <time>2021-08-15T10:09:46.102Z</time>
      </trkpt>
      <trkpt lat="42.96621" lon="42.20448">
        <ele>651.696678</ele>
        <time>2021-08-15T10:10:02.349Z</time>
      </trkpt>
      <trkpt lat="42.96687" lon="42.20518">
        <ele>654.365653</ele>
        <time>2021-08-15T10:10:29.201Z</time>
      </trkpt>
      <trkpt lat="42.967" lon="42.20525">
        <ele>654.700394</ele>
        <time>2021-08-15T10:10:32.795Z</time>
      </trkpt>
      <trkpt lat="42.96741" lon="42.20543">
        <ele>655.716943</ele>
        <time>2021-08-15T10:10:46.925Z</time>
      </trkpt>
      <trkpt lat="42.96755" lon="42.20556">
        <ele>656.116874</ele>
        <time>2021-08-15T10:10:53.641Z</time>
      </trkpt>
      <trkpt lat="42.96773" lon="42.2058">
        <ele>656.704285</ele>
        <time>2021-08-15T10:11:01.356Z</time>
      </trkpt>
      <trkpt lat="42.96841" lon="42.20634">
        <ele>659.099536</ele>
        <time>2021-08-15T10:11:30.578Z</time>
      </trkpt>
      <trkpt lat="42.96878" lon="42.20664">
        <ele>660.652952</ele>
        <time>2021-08-15T10:11:49.289Z</time>
      </trkpt>
      <trkpt lat="42.96898" lon="42.20706">
        <ele>662.002174</ele>
        <time>2021-08-15T10:12:06.346Z</time>
      </trkpt>
      <trkpt lat="42.96908" lon="42.20716">
        <ele>662.469121</ele>
        <time>2021-08-15T10:12:12.737Z</time>
      </trkpt>
      <trkpt lat="42.97" lon="42.20743">
        <ele>664.974631</ele>
        <time>2021-08-15T10:12:47.104Z</time>
      </trkpt>
      <trkpt lat="42.9701" lon="42.20756">
        <ele>665.219579</ele>
        <time>2021-08-15T10:12:51.846Z</time>
      </trkpt>
      <trkpt lat="42.97025" lon="42.20798">
        <ele>665.811498</ele>
        <time>2021-08-15T10:13:01.596Z</time>
      </trkpt>
      <trkpt lat="42.97033" lon="42.20804">
        <ele>665.969058</ele>
        <time>2021-08-15T10:13:04.121Z</time>
      </trkpt>
      <trkpt lat="42.9709" lon="42.20802">
        <ele>666.967235</ele>
        <time>2021-08-15T10:13:19.488Z</time>
      </trkpt>
      <trkpt lat="42.97122" lon="42.20826">
        <ele>667.541972</ele>
        <time>2021-08-15T10:13:29.810Z</time>
      </trkpt>
      <trkpt lat="42.97133" lon="42.20848">
        <ele>667.799947</ele>
        <time>2021-08-15T10:13:35.077Z</time>
      </trkpt>
      <trkpt lat="42.97146" lon="42.20926">
        <ele>668.604162</ele>
        <time>2021-08-15T10:13:50.932Z</time>
      </trkpt>
      <trkpt lat="42.97183" lon="42.20979">
        <ele>669.332153</ele>
        <time>2021-08-15T10:14:06.791Z</time>
      </trkpt>
      <trkpt lat="42.97215" lon="42.21068">
        <ele>671.079327</ele>
        <time>2021-08-15T10:14:30.423Z</time>
      </trkpt>
      <trkpt lat="42.97279" lon="42.21178">
        <ele>674.311121</ele>
        <time>2021-08-15T10:15:09.125Z</time>
      </trkpt>
      <trkpt lat="42.97319" lon="42.21274">
        <ele>677.867028</ele>
        <time>2021-08-15T10:15:45.408Z</time>
      </trkpt>
      <trkpt lat="42.97351" lon="42.21328">
        <ele>680.571891</ele>
        <time>2021-08-15T10:16:10.541Z</time>
      </trkpt>
      <trkpt lat="42.97418" lon="42.21406">
        <ele>685.173981</ele>
        <time>2021-08-15T10:16:56.166Z</time>
      </trkpt>
      <trkpt lat="42.97436" lon="42.21437">
        <ele>686.486948</ele>
        <time>2021-08-15T10:17:11.141Z</time>
      </trkpt>
      <trkpt lat="42.97469" lon="42.21533">
        <ele>690.083564</ele>
        <time>2021-08-15T10:17:49.014Z</time>
      </trkpt>
      <trkpt lat="42.97472" lon="42.21564">
        <ele>691.165268</ele>
        <time>2021-08-15T10:17:59.167Z</time>
      </trkpt>
      <trkpt lat="42.9746" lon="42.21661">
        <ele>693.738757</ele>
        <time>2021-08-15T10:18:25.752Z</time>
      </trkpt>
      <trkpt lat="42.97472" lon="42.21752">
        <ele>695.02735</ele>
        <time>2021-08-15T10:18:47.594Z</time>
      </trkpt>
      <trkpt lat="42.97469" lon="42.21861">
        <ele>696.548884</ele>
        <time>2021-08-15T10:19:09.893Z</time>
      </trkpt>
      <trkpt lat="42.97493" lon="42.21912">
        <ele>697.610645</ele>
        <time>2021-08-15T10:19:22.654Z</time>
      </trkpt>
      <trkpt lat="42.97507" lon="42.21927">
        <ele>698.051803</ele>
        <time>2021-08-15T10:19:28.456Z</time>
      </trkpt>
      <trkpt lat="42.97526" lon="42.21935">
        <ele>698.544248</ele>
        <time>2021-08-15T10:19:34.843Z</time>
      </trkpt>
      <trkpt lat="42.97559" lon="42.21932">
        <ele>699.360646</ele>
        <time>2021-08-15T10:19:46.529Z</time>
      </trkpt>
      <trkpt lat="42.97574" lon="42.21946">
        <ele>699.803643</ele>
        <time>2021-08-15T10:19:53.435Z</time>
      </trkpt>
      <trkpt lat="42.97585" lon="42.21969">
        <ele>700.31285</ele>
        <time>2021-08-15T10:20:01.331Z</time>
      </trkpt>
      <trkpt lat="42.97649" lon="42.22038">
        <ele>702.81339</ele>
        <time>2021-08-15T10:20:33.853Z</time>
      </trkpt>
      <trkpt lat="42.97701" lon="42.22114">
        <ele>705.464754</ele>
        <time>2021-08-15T10:21:05.284Z</time>
      </trkpt>
      <trkpt lat="42.97732" lon="42.22144">
        <ele>706.780485</ele>
        <time>2021-08-15T10:21:20.635Z</time>
      </trkpt>
      <trkpt lat="42.97753" lon="42.22156">
        <ele>707.442749</ele>
        <time>2021-08-15T10:21:29.219Z</time>
      </trkpt>
      <trkpt lat="42.97808" lon="42.22154">
        <ele>708.368697</ele>
        <time>2021-08-15T10:21:47.652Z</time>
      </trkpt>
      <trkpt lat="42.97853" lon="42.22169">
        <ele>709.150125</ele>
        <time>2021-08-15T10:22:01.128Z</time>
      </trkpt>
      <trkpt lat="42.97893" lon="42.22198">
        <ele>709.909186</ele>
        <time>2021-08-15T10:22:13.161Z</time>
      </trkpt>
      <trkpt lat="42.97929" lon="42.22267">
        <ele>710.717531</ele>
        <time>2021-08-15T10:22:29.984Z</time>
      </trkpt>
      <trkpt lat="42.9799" lon="42.22363">
        <ele>711.669312</ele>
        <time>2021-08-15T10:22:54.859Z</time>
      </trkpt>
      <trkpt lat="42.98022" lon="42.22429">
        <ele>712.292305</ele>
        <time>2021-08-15T10:23:11.359Z</time>
      </trkpt>
      <trkpt lat="42.98084" lon="42.22672">
        <ele>714.819891</ele>
        <time>2021-08-15T10:24:07.641Z</time>
      </trkpt>
      <trkpt lat="42.98126" lon="42.22905">
        <ele>716.19165</ele>
        <time>2021-08-15T10:24:51.069Z</time>
      </trkpt>
      <trkpt lat="42.98181" lon="42.23069">
        <ele>718.109757</ele>
        <time>2021-08-15T10:25:27.549Z</time>
      </trkpt>
      <trkpt lat="42.98204" lon="42.23178">
        <ele>720.177246</ele>
        <time>2021-08-15T10:25:58.022Z</time>
      </trkpt>
      <trkpt lat="42.98238" lon="42.23281">
        <ele>722.986069</ele>
        <time>2021-08-15T10:26:30.714Z</time>
      </trkpt>
      <trkpt lat="42.98246" lon="42.23301">
        <ele>723.535816</ele>
        <time>2021-08-15T10:26:39.717Z</time>
      </trkpt>
      <trkpt lat="42.98264" lon="42.23349">
        <ele>724.780153</ele>
        <time>2021-08-15T10:26:56.330Z</time>
      </trkpt>
      <trkpt lat="42.98274" lon="42.23377">
        <ele>725.15228</ele>
        <time>2021-08-15T10:27:05.861Z</time>
      </trkpt>
      <trkpt lat="42.98296" lon="42.23448">
        <ele>726.060201</ele>
        <time>2021-08-15T10:27:23.541Z</time>
      </trkpt>
      <trkpt lat="42.9833" lon="42.23567">
        <ele>727.569168</ele>
        <time>2021-08-15T10:27:47.308Z</time>
      </trkpt>
      <trkpt lat="42.9834" lon="42.23614">
        <ele>727.692764</ele>
        <time>2021-08-15T10:27:55.746Z</time>
      </trkpt>
      <trkpt lat="42.98358" lon="42.23692">
        <ele>727.852263</ele>
        <time>2021-08-15T10:28:08.840Z</time>
      </trkpt>
      <trkpt lat="42.9837" lon="42.23727">
        <ele>727.928202</ele>
        <time>2021-08-15T10:28:14.855Z</time>
      </trkpt>
      <trkpt lat="42.98378" lon="42.23874">
        <ele>729.007062</ele>
        <time>2021-08-15T10:28:42.482Z</time>
      </trkpt>
      <trkpt lat="42.98389" lon="42.23916">
        <ele>729.604219</ele>
        <time>2021-08-15T10:28:53.233Z</time>
      </trkpt>
      <trkpt lat="42.98404" lon="42.23948">
        <ele>730.132714</ele>
        <time>2021-08-15T10:29:03.024Z</time>
      </trkpt>
      <trkpt lat="42.98474" lon="42.24039">
        <ele>731.849369</ele>
        <time>2021-08-15T10:29:36.449Z</time>
      </trkpt>
      <trkpt lat="42.98484" lon="42.24073">
        <ele>732.283929</ele>
        <time>2021-08-15T10:29:45.728Z</time>
      </trkpt>
      <trkpt lat="42.98491" lon="42.24115">
        <ele>732.795276</ele>
        <time>2021-08-15T10:29:55.974Z</time>
      </trkpt>
      <trkpt lat="42.98487" lon="42.24243">
        <ele>734.297539</ele>
        <time>2021-08-15T10:30:22.466Z</time>
      </trkpt>
      <trkpt lat="42.985" lon="42.2429">
        <ele>734.217832</ele>
        <time>2021-08-15T10:30:31.394Z</time>
      </trkpt>
      <trkpt lat="42.98581" lon="42.24425">
        <ele>733.839399</ele>
        <time>2021-08-15T10:30:58.202Z</time>
      </trkpt>
      <trkpt lat="42.98716" lon="42.24669">
        <ele>731.167861</ele>
        <time>2021-08-15T10:31:41.921Z</time>
      </trkpt>
      <trkpt lat="42.98746" lon="42.2477">
        <ele>729.697612</ele>
        <time>2021-08-15T10:31:56.801Z</time>
      </trkpt>
      <trkpt lat="42.98777" lon="42.24854">
        <ele>728.416919</ele>
        <time>2021-08-15T10:32:09.409Z</time>
      </trkpt>
      <trkpt lat="42.98793" lon="42.24929">
        <ele>727.624912</ele>
        <time>2021-08-15T10:32:19.587Z</time>
      </trkpt>
      <trkpt lat="42.98799" lon="42.25042">
        <ele>726.480941</ele>
        <time>2021-08-15T10:32:35.638Z</time>
      </trkpt>
      <trkpt lat="42.98798" lon="42.25113">
        <ele>725.914939</ele>
        <time>2021-08-15T10:32:46.468Z</time>
      </trkpt>
      <trkpt lat="42.98798" lon="42.25173">
        <ele>726.09086</ele>
        <time>2021-08-15T10:32:56.041Z</time>
      </trkpt>
      <trkpt lat="42.98797" lon="42.25203">
        <ele>726.177357</ele>
        <time>2021-08-15T10:33:01.086Z</time>
      </trkpt>
      <trkpt lat="42.98797" lon="42.25223">
        <ele>726.238345</ele>
        <time>2021-08-15T10:33:04.704Z</time>
      </trkpt>
      <trkpt lat="42.98754" lon="42.25384">
        <ele>727.054192</ele>
        <time>2021-08-15T10:33:38.339Z</time>
      </trkpt>
      <trkpt lat="42.9869" lon="42.25573">
        <ele>729.125311</ele>
        <time>2021-08-15T10:34:22.392Z</time>
      </trkpt>
      <trkpt lat="42.98632" lon="42.25667">
        <ele>730.997365</ele>
        <time>2021-08-15T10:34:52.639Z</time>
      </trkpt>
      <trkpt lat="42.98623" lon="42.25713">
        <ele>731.712713</ele>
        <time>2021-08-15T10:35:04.503Z</time>
      </trkpt>
      <trkpt lat="42.98627" lon="42.25745">
        <ele>732.201989</ele>
        <time>2021-08-15T10:35:12.679Z</time>
      </trkpt>
      <trkpt lat="42.98637" lon="42.25771">
        <ele>732.649657</ele>
        <time>2021-08-15T10:35:20.405Z</time>
      </trkpt>
      <trkpt lat="42.98743" lon="42.2595">
        <ele>735.045437</ele>
        <time>2021-08-15T10:36:10.541Z</time>
      </trkpt>
      <trkpt lat="42.98762" lon="42.26035">
        <ele>735.40798</ele>
        <time>2021-08-15T10:36:25.903Z</time>
      </trkpt>
      <trkpt lat="42.98777" lon="42.26137">
        <ele>735.655942</ele>
        <time>2021-08-15T10:36:43.042Z</time>
      </trkpt>
      <trkpt lat="42.98778" lon="42.26172">
        <ele>735.741204</ele>
        <time>2021-08-15T10:36:48.729Z</time>
      </trkpt>
      <trkpt lat="42.98762" lon="42.26352">
        <ele>736.600342</ele>
        <time>2021-08-15T10:37:22.591Z</time>
      </trkpt>
      <trkpt lat="42.98764" lon="42.26377">
        <ele>736.733291</ele>
        <time>2021-08-15T10:37:27.482Z</time>
      </trkpt>
      <trkpt lat="42.98776" lon="42.26402">
        <ele>736.89374</ele>
        <time>2021-08-15T10:37:33.624Z</time>
      </trkpt>
      <trkpt lat="42.98821" lon="42.26436">
        <ele>737.242455</ele>
        <time>2021-08-15T10:37:47.423Z</time>
      </trkpt>
      <trkpt lat="42.98845" lon="42.26438">
        <ele>737.382373</ele>
        <time>2021-08-15T10:37:53.896Z</time>
      </trkpt>
      <trkpt lat="42.98979" lon="42.2641">
        <ele>738.17725</ele>
        <time>2021-08-15T10:38:27.398Z</time>
      </trkpt>
      <trkpt lat="42.99007" lon="42.26412">
        <ele>738.385351</ele>
        <time>2021-08-15T10:38:33.395Z</time>
      </trkpt>
      <trkpt lat="42.99137" lon="42.2655">
        <ele>739.835526</ele>
        <time>2021-08-15T10:39:16.192Z</time>
      </trkpt>
      <trkpt lat="42.99157" lon="42.26581">
        <ele>740.627989</ele>
        <time>2021-08-15T10:39:25.571Z</time>
      </trkpt>
      <trkpt lat="42.99232" lon="42.26737">
        <ele>744.157907</ele>
        <time>2021-08-15T10:40:15.647Z</time>
      </trkpt>
      <trkpt lat="42.99259" lon="42.26764">
        <ele>745.407896</ele>
        <time>2021-08-15T10:40:29.768Z</time>
      </trkpt>
      <trkpt lat="42.99273" lon="42.26767">
        <ele>745.962188</ele>
        <time>2021-08-15T10:40:35.721Z</time>
      </trkpt>
      <trkpt lat="42.99291" lon="42.26764">
        <ele>746.664879</ele>
        <time>2021-08-15T10:40:44.064Z</time>
      </trkpt>
      <trkpt lat="42.99312" lon="42.26753">
        <ele>747.526488</ele>
        <time>2021-08-15T10:40:53.752Z</time>
      </trkpt>
      <trkpt lat="42.99339" lon="42.26741">
        <ele>748.589771</ele>
        <time>2021-08-15T10:41:06.602Z</time>
      </trkpt>
      <trkpt lat="42.99475" lon="42.26681">
        <ele>752.411437</ele>
        <time>2021-08-15T10:42:02.910Z</time>
      </trkpt>
      <trkpt lat="42.99496" lon="42.26674">
        <ele>752.77402</ele>
        <time>2021-08-15T10:42:08.226Z</time>
      </trkpt>
      <trkpt lat="42.99516" lon="42.26676">
        <ele>753.104196</ele>
        <time>2021-08-15T10:42:14.866Z</time>
      </trkpt>
      <trkpt lat="42.99535" lon="42.26688">
        <ele>753.461304</ele>
        <time>2021-08-15T10:42:19.309Z</time>
      </trkpt>
      <trkpt lat="42.99573" lon="42.26733">
        <ele>754.216644</ele>
        <time>2021-08-15T10:42:32.390Z</time>
      </trkpt>
      <trkpt lat="42.99586" lon="42.26741">
        <ele>754.337339</ele>
        <time>2021-08-15T10:42:35.124Z</time>
      </trkpt>
      <trkpt lat="42.99622" lon="42.26749">
        <ele>754.647988</ele>
        <time>2021-08-15T10:42:43.301Z</time>
      </trkpt>
      <trkpt lat="42.99673" lon="42.2678">
        <ele>755.11813</ele>
        <time>2021-08-15T10:42:56.076Z</time>
      </trkpt>
      <trkpt lat="42.99718" lon="42.26833">
        <ele>755.622824</ele>
        <time>2021-08-15T10:43:15.963Z</time>
      </trkpt>
      <trkpt lat="42.99736" lon="42.26887">
        <ele>756.860897</ele>
        <time>2021-08-15T10:43:33.160Z</time>
      </trkpt>
      <trkpt lat="42.99748" lon="42.26968">
        <ele>758.695217</ele>
        <time>2021-08-15T10:43:58.426Z</time>
      </trkpt>
      <trkpt lat="42.99748" lon="42.27057">
        <ele>760.679902</ele>
        <time>2021-08-15T10:44:24.668Z</time>
      </trkpt>
      <trkpt lat="42.99725" lon="42.27138">
        <ele>761.383946</ele>
        <time>2021-08-15T10:44:46.303Z</time>
      </trkpt>
      <trkpt lat="42.99699" lon="42.27292">
        <ele>761.971085</ele>
        <time>2021-08-15T10:45:12.915Z</time>
      </trkpt>
      <trkpt lat="42.99705" lon="42.27357">
        <ele>761.920395</ele>
        <time>2021-08-15T10:45:22.762Z</time>
      </trkpt>
      <trkpt lat="42.9972" lon="42.27409">
        <ele>761.756813</ele>
        <time>2021-08-15T10:45:31.154Z</time>
      </trkpt>
      <trkpt lat="42.99749" lon="42.27451">
        <ele>761.587201</ele>
        <time>2021-08-15T10:45:40.079Z</time>
      </trkpt>
      <trkpt lat="42.99781" lon="42.27483">
        <ele>761.426163</ele>
        <time>2021-08-15T10:45:48.926Z</time>
      </trkpt>
      <trkpt lat="42.99892" lon="42.27557">
        <ele>762.822828</ele>
        <time>2021-08-15T10:46:24.143Z</time>
      </trkpt>
      <trkpt lat="42.99955" lon="42.27607">
        <ele>763.919998</ele>
        <time>2021-08-15T10:46:49.012Z</time>
      </trkpt>
      <trkpt lat="42.99968" lon="42.27629">
        <ele>764.326234</ele>
        <time>2021-08-15T10:46:56.471Z</time>
      </trkpt>
      <trkpt lat="43.00012" lon="42.27755">
        <ele>766.578979</ele>
        <time>2021-08-15T10:47:32.708Z</time>
      </trkpt>
      <trkpt lat="43.00041" lon="42.27821">
        <ele>767.825076</ele>
        <time>2021-08-15T10:47:51.389Z</time>
      </trkpt>
      <trkpt lat="43.00069" lon="42.27859">
        <ele>768.526497</ele>
        <time>2021-08-15T10:48:03.735Z</time>
      </trkpt>
      <trkpt lat="43.00101" lon="42.27889">
        <ele>769.176771</ele>
        <time>2021-08-15T10:48:15.632Z</time>
      </trkpt>
      <trkpt lat="43.00221" lon="42.2798">
        <ele>771.579703</ele>
        <time>2021-08-15T10:48:58.324Z</time>
      </trkpt>
      <trkpt lat="43.00272" lon="42.28027">
        <ele>772.916967</ele>
        <time>2021-08-15T10:49:18.801Z</time>
      </trkpt>
      <trkpt lat="43.00302" lon="42.2808">
        <ele>773.973993</ele>
        <time>2021-08-15T10:49:35.877Z</time>
      </trkpt>
      <trkpt lat="43.00444" lon="42.28197">
        <ele>778.019578</ele>
        <time>2021-08-15T10:50:36.392Z</time>
      </trkpt>
      <trkpt lat="43.00495" lon="42.28261">
        <ele>779.721519</ele>
        <time>2021-08-15T10:51:00.445Z</time>
      </trkpt>
      <trkpt lat="43.00553" lon="42.28279">
        <ele>780.925559</ele>
        <time>2021-08-15T10:51:20.733Z</time>
      </trkpt>
      <trkpt lat="43.00577" lon="42.28296">
        <ele>781.462922</ele>
        <time>2021-08-15T10:51:29.595Z</time>
      </trkpt>
      <trkpt lat="43.00595" lon="42.28326">
        <ele>782.029816</ele>
        <time>2021-08-15T10:51:39.038Z</time>
      </trkpt>
      <trkpt lat="43.00652" lon="42.28477">
        <ele>784.619771</ele>
        <time>2021-08-15T10:52:18.516Z</time>
      </trkpt>
      <trkpt lat="43.00673" lon="42.28513">
        <ele>785.350257</ele>
        <time>2021-08-15T10:52:29.606Z</time>
      </trkpt>
      <trkpt lat="43.00736" lon="42.2859">
        <ele>787.391544</ele>
        <time>2021-08-15T10:52:59.239Z</time>
      </trkpt>
      <trkpt lat="43.00748" lon="42.28613">
        <ele>788.361106</ele>
        <time>2021-08-15T10:53:07.592Z</time>
      </trkpt>
      <trkpt lat="43.00788" lon="42.2874">
        <ele>792.892666</ele>
        <time>2021-08-15T10:53:50.756Z</time>
      </trkpt>
      <trkpt lat="43.00808" lon="42.28947">
        <ele>804.200586</ele>
        <time>2021-08-15T10:55:18.536Z</time>
      </trkpt>
      <trkpt lat="43.00787" lon="42.29046">
        <ele>810.844921</ele>
        <time>2021-08-15T10:56:18.442Z</time>
      </trkpt>
      <trkpt lat="43.00755" lon="42.29118">
        <ele>817.89327</ele>
        <time>2021-08-15T10:57:11.321Z</time>
      </trkpt>
      <trkpt lat="43.00754" lon="42.29131">
        <ele>818.962238</ele>
        <time>2021-08-15T10:57:19.054Z</time>
      </trkpt>
      <trkpt lat="43.00776" lon="42.2916">
        <ele>822.452504</ele>
        <time>2021-08-15T10:57:45.458Z</time>
      </trkpt>
      <trkpt lat="43.008" lon="42.29183">
        <ele>825.865956</ele>
        <time>2021-08-15T10:58:10.397Z</time>
      </trkpt>
      <trkpt lat="43.00824" lon="42.29198">
        <ele>828.827316</ele>
        <time>2021-08-15T10:58:31.013Z</time>
      </trkpt>
      <trkpt lat="43.00871" lon="42.29201">
        <ele>832.365305</ele>
        <time>2021-08-15T10:59:05.068Z</time>
      </trkpt>
      <trkpt lat="43.00883" lon="42.29212">
        <ele>832.906667</ele>
        <time>2021-08-15T10:59:14.586Z</time>
      </trkpt>
      <trkpt lat="43.00887" lon="42.29223">
        <ele>833.252528</ele>
        <time>2021-08-15T10:59:21.049Z</time>
      </trkpt>
      <trkpt lat="43.00886" lon="42.29235">
        <ele>833.562631</ele>
        <time>2021-08-15T10:59:26.050Z</time>
      </trkpt>
      <trkpt lat="43.00867" lon="42.29259">
        <ele>834.530219</ele>
        <time>2021-08-15T10:59:38.798Z</time>
      </trkpt>
      <trkpt lat="43.00782" lon="42.29285">
        <ele>837.733841</ele>
        <time>2021-08-15T11:00:00.413Z</time>
      </trkpt>
      <trkpt lat="43.00754" lon="42.29309">
        <ele>837.719711</ele>
        <time>2021-08-15T11:00:06.946Z</time>
      </trkpt>
      <trkpt lat="43.00746" lon="42.29334">
        <ele>837.393752</ele>
        <time>2021-08-15T11:00:11.527Z</time>
      </trkpt>
      <trkpt lat="43.00748" lon="42.29357">
        <ele>837.119342</ele>
        <time>2021-08-15T11:00:14.313Z</time>
      </trkpt>
      <trkpt lat="43.00766" lon="42.29422">
        <ele>836.27855</ele>
        <time>2021-08-15T11:00:24.019Z</time>
      </trkpt>
      <trkpt lat="43.0081" lon="42.2973">
        <ele>834.176253</ele>
        <time>2021-08-15T11:01:10.288Z</time>
      </trkpt>
      <trkpt lat="43.00827" lon="42.29793">
        <ele>835.328653</ele>
        <time>2021-08-15T11:01:27.759Z</time>
      </trkpt>
      <trkpt lat="43.00833" lon="42.29838">
        <ele>836.796002</ele>
        <time>2021-08-15T11:01:42.049Z</time>
      </trkpt>
      <trkpt lat="43.00843" lon="42.29863">
        <ele>837.672504</ele>
        <time>2021-08-15T11:01:51.216Z</time>
      </trkpt>
      <trkpt lat="43.00867" lon="42.29898">
        <ele>839.200295</ele>
        <time>2021-08-15T11:02:08.994Z</time>
      </trkpt>
      <trkpt lat="43.00892" lon="42.29974">
        <ele>841.831481</ele>
        <time>2021-08-15T11:02:41.653Z</time>
      </trkpt>
      <trkpt lat="43.00894" lon="42.29997">
        <ele>842.586732</ele>
        <time>2021-08-15T11:02:50.188Z</time>
      </trkpt>
      <trkpt lat="43.00887" lon="42.3003">
        <ele>843.749775</ele>
        <time>2021-08-15T11:03:03.433Z</time>
      </trkpt>
      <trkpt lat="43.00911" lon="42.30095">
        <ele>846.172223</ele>
        <time>2021-08-15T11:03:30.498Z</time>
      </trkpt>
      <trkpt lat="43.00913" lon="42.30141">
        <ele>847.742598</ele>
        <time>2021-08-15T11:03:46.780Z</time>
      </trkpt>
      <trkpt lat="43.00923" lon="42.30191">
        <ele>849.483608</ele>
        <time>2021-08-15T11:04:02.403Z</time>
      </trkpt>
      <trkpt lat="43.00916" lon="42.30341">
        <ele>851.051105</ele>
        <time>2021-08-15T11:04:36.115Z</time>
      </trkpt>
      <trkpt lat="43.00924" lon="42.30396">
        <ele>851.458425</ele>
        <time>2021-08-15T11:04:46.097Z</time>
      </trkpt>
      <trkpt lat="43.00916" lon="42.3045">
        <ele>851.867288</ele>
        <time>2021-08-15T11:04:55.460Z</time>
      </trkpt>
      <trkpt lat="43.00916" lon="42.3051">
        <ele>851.495882</ele>
        <time>2021-08-15T11:05:05.228Z</time>
      </trkpt>
      <trkpt lat="43.00911" lon="42.30568">
        <ele>851.101043</ele>
        <time>2021-08-15T11:05:14.352Z</time>
      </trkpt>
      <trkpt lat="43.00918" lon="42.30606">
        <ele>850.838745</ele>
        <time>2021-08-15T11:05:20.395Z</time>
      </trkpt>
      <trkpt lat="43.00985" lon="42.30658">
        <ele>849.891794</ele>
        <time>2021-08-15T11:05:36.017Z</time>
      </trkpt>
      <trkpt lat="43.01017" lon="42.30712">
        <ele>848.259184</ele>
        <time>2021-08-15T11:05:45.541Z</time>
      </trkpt>
      <trkpt lat="43.0104" lon="42.30728">
        <ele>847.436536</ele>
        <time>2021-08-15T11:05:50.222Z</time>
      </trkpt>
      <trkpt lat="43.01149" lon="42.30734">
        <ele>843.740668</ele>
        <time>2021-08-15T11:06:09.017Z</time>
      </trkpt>
      <trkpt lat="43.01194" lon="42.30745">
        <ele>841.646649</ele>
        <time>2021-08-15T11:06:16.674Z</time>
      </trkpt>
      <trkpt lat="43.01242" lon="42.30771">
        <ele>839.314234</ele>
        <time>2021-08-15T11:06:25.155Z</time>
      </trkpt>
      <trkpt lat="43.01289" lon="42.30816">
        <ele>836.724416</ele>
        <time>2021-08-15T11:06:34.744Z</time>
      </trkpt>
      <trkpt lat="43.01359" lon="42.30928">
        <ele>834.041246</ele>
        <time>2021-08-15T11:06:54.144Z</time>
      </trkpt>
      <trkpt lat="43.01417" lon="42.31068">
        <ele>832.216357</ele>
        <time>2021-08-15T11:07:18.507Z</time>
      </trkpt>
      <trkpt lat="43.01453" lon="42.31122">
        <ele>832.285386</ele>
        <time>2021-08-15T11:07:31.691Z</time>
      </trkpt>
      <trkpt lat="43.01558" lon="42.31194">
        <ele>832.556081</ele>
        <time>2021-08-15T11:08:02.751Z</time>
      </trkpt>
      <trkpt lat="43.01689" lon="42.31314">
        <ele>833.442374</ele>
        <time>2021-08-15T11:08:43.531Z</time>
      </trkpt>
      <trkpt lat="43.01752" lon="42.31361">
        <ele>833.850566</ele>
        <time>2021-08-15T11:09:01.490Z</time>
      </trkpt>
      <trkpt lat="43.01808" lon="42.31421">
        <ele>834.258294</ele>
        <time>2021-08-15T11:09:19.950Z</time>
      </trkpt>
      <trkpt lat="43.01867" lon="42.31543">
        <ele>835.59675</ele>
        <time>2021-08-15T11:09:49.724Z</time>
      </trkpt>
      <trkpt lat="43.0193" lon="42.31711">
        <ele>837.780333</ele>
        <time>2021-08-15T11:10:35.515Z</time>
      </trkpt>
      <trkpt lat="43.01954" lon="42.31801">
        <ele>838.96959</ele>
        <time>2021-08-15T11:10:58.596Z</time>
      </trkpt>
      <trkpt lat="43.01968" lon="42.31836">
        <ele>839.482496</ele>
        <time>2021-08-15T11:11:08.398Z</time>
      </trkpt>
      <trkpt lat="43.01981" lon="42.31847">
        <ele>839.73711</ele>
        <time>2021-08-15T11:11:13.174Z</time>
      </trkpt>
      <trkpt lat="43.02028" lon="42.31846">
        <ele>840.193973</ele>
        <time>2021-08-15T11:11:27.065Z</time>
      </trkpt>
      <trkpt lat="43.02083" lon="42.31864">
        <ele>839.829948</ele>
        <time>2021-08-15T11:11:40.927Z</time>
      </trkpt>
      <trkpt lat="43.02116" lon="42.31888">
        <ele>839.585742</ele>
        <time>2021-08-15T11:11:48.888Z</time>
      </trkpt>
      <trkpt lat="43.02141" lon="42.31918">
        <ele>839.36964</ele>
        <time>2021-08-15T11:11:55.585Z</time>
      </trkpt>
      <trkpt lat="43.02191" lon="42.32034">
        <ele>837.802624</ele>
        <time>2021-08-15T11:12:14.142Z</time>
      </trkpt>
      <trkpt lat="43.02205" lon="42.32083">
        <ele>836.959285</ele>
        <time>2021-08-15T11:12:21.126Z</time>
      </trkpt>
      <trkpt lat="43.0222" lon="42.32105">
        <ele>836.471008</ele>
        <time>2021-08-15T11:12:25.142Z</time>
      </trkpt>
      <trkpt lat="43.02244" lon="42.32126">
        <ele>835.856971</ele>
        <time>2021-08-15T11:12:30.320Z</time>
      </trkpt>
      <trkpt lat="43.02275" lon="42.32131">
        <ele>835.209795</ele>
        <time>2021-08-15T11:12:36.418Z</time>
      </trkpt>
      <trkpt lat="43.0236" lon="42.32112">
        <ele>837.238479</ele>
        <time>2021-08-15T11:12:58.040Z</time>
      </trkpt>
      <trkpt lat="43.024" lon="42.32114">
        <ele>838.169283</ele>
        <time>2021-08-15T11:13:12.991Z</time>
      </trkpt>
      <trkpt lat="43.02434" lon="42.32125">
        <ele>838.994498</ele>
        <time>2021-08-15T11:13:29.227Z</time>
      </trkpt>
      <trkpt lat="43.0247" lon="42.32158">
        <ele>841.486907</ele>
        <time>2021-08-15T11:13:53.418Z</time>
      </trkpt>
      <trkpt lat="43.02507" lon="42.32232">
        <ele>846.7306</ele>
        <time>2021-08-15T11:14:35.991Z</time>
      </trkpt>
      <trkpt lat="43.02514" lon="42.32288">
        <ele>850.110783</ele>
        <time>2021-08-15T11:15:07.446Z</time>
      </trkpt>
      <trkpt lat="43.02505" lon="42.32408">
        <ele>855.746574</ele>
        <time>2021-08-15T11:16:04.063Z</time>
      </trkpt>
      <trkpt lat="43.02502" lon="42.32492">
        <ele>858.445409</ele>
        <time>2021-08-15T11:16:35.612Z</time>
      </trkpt>
      <trkpt lat="43.025" lon="42.32543">
        <ele>860.103486</ele>
        <time>2021-08-15T11:16:56.201Z</time>
      </trkpt>
      <trkpt lat="43.02541" lon="42.32726">
        <ele>860.902546</ele>
        <time>2021-08-15T11:17:46.770Z</time>
      </trkpt>
      <trkpt lat="43.02562" lon="42.32723">
        <ele>860.691093</ele>
        <time>2021-08-15T11:17:53.549Z</time>
      </trkpt>
      <trkpt lat="43.02571" lon="42.32783">
        <ele>860.249148</ele>
        <time>2021-08-15T11:18:07.943Z</time>
      </trkpt>
      <trkpt lat="43.02627" lon="42.32832">
        <ele>860.55902</ele>
        <time>2021-08-15T11:18:29.575Z</time>
      </trkpt>
      <trkpt lat="43.02655" lon="42.32827">
        <ele>860.798415</ele>
        <time>2021-08-15T11:18:40.106Z</time>
      </trkpt>
      <trkpt lat="43.02711" lon="42.32844">
        <ele>861.286787</ele>
        <time>2021-08-15T11:18:58.606Z</time>
      </trkpt>
      <trkpt lat="43.02719" lon="42.3285">
        <ele>861.369276</ele>
        <time>2021-08-15T11:19:02.390Z</time>
      </trkpt>
      <trkpt lat="43.02735" lon="42.3287">
        <ele>861.55638</ele>
        <time>2021-08-15T11:19:10.110Z</time>
      </trkpt>
      <trkpt lat="43.02804" lon="42.32971">
        <ele>864.586555</ele>
        <time>2021-08-15T11:19:52.072Z</time>
      </trkpt>
      <trkpt lat="43.02911" lon="42.33187">
        <ele>868.615934</ele>
        <time>2021-08-15T11:21:02.487Z</time>
      </trkpt>
      <trkpt lat="43.02925" lon="42.3323">
        <ele>868.983031</ele>
        <time>2021-08-15T11:21:09.389Z</time>
      </trkpt>
      <trkpt lat="43.0296" lon="42.33284">
        <ele>869.360642</ele>
        <time>2021-08-15T11:21:19.450Z</time>
      </trkpt>
      <trkpt lat="43.03007" lon="42.33372">
        <ele>868.455166</ele>
        <time>2021-08-15T11:21:34.713Z</time>
      </trkpt>
      <trkpt lat="43.03025" lon="42.3343">
        <ele>867.937147</ele>
        <time>2021-08-15T11:21:43.439Z</time>
      </trkpt>
      <trkpt lat="43.03029" lon="42.335">
        <ele>867.436893</ele>
        <time>2021-08-15T11:21:53.980Z</time>
      </trkpt>
      <trkpt lat="43.03113" lon="42.3371">
        <ele>868.080458</ele>
        <time>2021-08-15T11:22:36.554Z</time>
      </trkpt>
      <trkpt lat="43.03136" lon="42.33789">
        <ele>869.489206</ele>
        <time>2021-08-15T11:22:55.025Z</time>
      </trkpt>
      <trkpt lat="43.03147" lon="42.33813">
        <ele>869.966779</ele>
        <time>2021-08-15T11:23:02.341Z</time>
      </trkpt>
      <trkpt lat="43.03212" lon="42.33894">
        <ele>871.960499</ele>
        <time>2021-08-15T11:23:34.440Z</time>
      </trkpt>
      <trkpt lat="43.03238" lon="42.33987">
        <ele>873.53433</ele>
        <time>2021-08-15T11:24:02.939Z</time>
      </trkpt>
      <trkpt lat="43.03253" lon="42.34078">
        <ele>874.99978</ele>
        <time>2021-08-15T11:24:27.692Z</time>
      </trkpt>
      <trkpt lat="43.03332" lon="42.34228">
        <ele>875.086485</ele>
        <time>2021-08-15T11:24:57.693Z</time>
      </trkpt>
      <trkpt lat="43.03386" lon="42.34393">
        <ele>873.666275</ele>
        <time>2021-08-15T11:25:21.687Z</time>
      </trkpt>
      <trkpt lat="43.03402" lon="42.34462">
        <ele>873.075931</ele>
        <time>2021-08-15T11:25:31.664Z</time>
      </trkpt>
      <trkpt lat="43.03428" lon="42.34515">
        <ele>872.559697</ele>
        <time>2021-08-15T11:25:41.069Z</time>
      </trkpt>
      <trkpt lat="43.03457" lon="42.34546">
        <ele>872.148481</ele>
        <time>2021-08-15T11:25:49.100Z</time>
      </trkpt>
      <trkpt lat="43.03526" lon="42.34592">
        <ele>872.269411</ele>
        <time>2021-08-15T11:26:08.228Z</time>
      </trkpt>
      <trkpt lat="43.03577" lon="42.34616">
        <ele>872.387328</ele>
        <time>2021-08-15T11:26:21.435Z</time>
      </trkpt>
      <trkpt lat="43.03665" lon="42.34658">
        <ele>872.49895</ele>
        <time>2021-08-15T11:26:41.978Z</time>
      </trkpt>
      <trkpt lat="43.03737" lon="42.34734">
        <ele>872.490735</ele>
        <time>2021-08-15T11:27:01.434Z</time>
      </trkpt>
      <trkpt lat="43.03932" lon="42.34958">
        <ele>873.644962</ele>
        <time>2021-08-15T11:28:04.811Z</time>
      </trkpt>
      <trkpt lat="43.03953" lon="42.35034">
        <ele>874.144458</ele>
        <time>2021-08-15T11:28:20.853Z</time>
      </trkpt>
      <trkpt lat="43.03974" lon="42.35081">
        <ele>874.489316</ele>
        <time>2021-08-15T11:28:32.122Z</time>
      </trkpt>
      <trkpt lat="43.0398" lon="42.35102">
        <ele>874.625174</ele>
        <time>2021-08-15T11:28:36.415Z</time>
      </trkpt>
      <trkpt lat="43.03981" lon="42.35153">
        <ele>874.936123</ele>
        <time>2021-08-15T11:28:46.311Z</time>
      </trkpt>
      <trkpt lat="43.04007" lon="42.35277">
        <ele>875.630837</ele>
        <time>2021-08-15T11:29:10.209Z</time>
      </trkpt>
      <trkpt lat="43.04014" lon="42.35478">
        <ele>877.364448</ele>
        <time>2021-08-15T11:29:48.733Z</time>
      </trkpt>
      <trkpt lat="43.04023" lon="42.35546">
        <ele>878.27644</ele>
        <time>2021-08-15T11:30:03.707Z</time>
      </trkpt>
      <trkpt lat="43.04043" lon="42.35608">
        <ele>879.172068</ele>
        <time>2021-08-15T11:30:20.773Z</time>
      </trkpt>
      <trkpt lat="43.04098" lon="42.3569">
        <ele>882.091831</ele>
        <time>2021-08-15T11:30:52.990Z</time>
      </trkpt>
      <trkpt lat="43.04133" lon="42.35775">
        <ele>884.964549</ele>
        <time>2021-08-15T11:31:24.733Z</time>
      </trkpt>
      <trkpt lat="43.04138" lon="42.35893">
        <ele>888.485487</ele>
        <time>2021-08-15T11:32:04.868Z</time>
      </trkpt>
      <trkpt lat="43.04132" lon="42.36042">
        <ele>892.8929</ele>
        <time>2021-08-15T11:32:51.644Z</time>
      </trkpt>
      <trkpt lat="43.04109" lon="42.36154">
        <ele>895.639833</ele>
        <time>2021-08-15T11:33:23.645Z</time>
      </trkpt>
      <trkpt lat="43.04105" lon="42.36401">
        <ele>900.666692</ele>
        <time>2021-08-15T11:34:27.096Z</time>
      </trkpt>
      <trkpt lat="43.04086" lon="42.36497">
        <ele>902.632123</ele>
        <time>2021-08-15T11:34:53.948Z</time>
      </trkpt>
      <trkpt lat="43.04087" lon="42.36564">
        <ele>903.956273</ele>
        <time>2021-08-15T11:35:11.856Z</time>
      </trkpt>
      <trkpt lat="43.04091" lon="42.36581">
        <ele>904.137163</ele>
        <time>2021-08-15T11:35:16.429Z</time>
      </trkpt>
      <trkpt lat="43.04107" lon="42.36605">
        <ele>904.407586</ele>
        <time>2021-08-15T11:35:24.773Z</time>
      </trkpt>
      <trkpt lat="43.0411" lon="42.36652">
        <ele>904.794342</ele>
        <time>2021-08-15T11:35:35.885Z</time>
      </trkpt>
      <trkpt lat="43.04083" lon="42.36772">
        <ele>905.847397</ele>
        <time>2021-08-15T11:36:00.862Z</time>
      </trkpt>
      <trkpt lat="43.04082" lon="42.3695">
        <ele>904.26448</ele>
        <time>2021-08-15T11:36:26.211Z</time>
      </trkpt>
      <trkpt lat="43.04037" lon="42.37174">
        <ele>902.041264</ele>
        <time>2021-08-15T11:36:56.175Z</time>
      </trkpt>
      <trkpt lat="43.04035" lon="42.37218">
        <ele>901.682726</ele>
        <time>2021-08-15T11:37:03.539Z</time>
      </trkpt>
      <trkpt lat="43.04042" lon="42.37259">
        <ele>901.334506</ele>
        <time>2021-08-15T11:37:11.685Z</time>
      </trkpt>
      <trkpt lat="43.04062" lon="42.37299">
        <ele>901.644025</ele>
        <time>2021-08-15T11:37:21.622Z</time>
      </trkpt>
      <trkpt lat="43.04086" lon="42.3737">
        <ele>903.036509</ele>
        <time>2021-08-15T11:37:38.694Z</time>
      </trkpt>
      <trkpt lat="43.04088" lon="42.37382">
        <ele>903.259612</ele>
        <time>2021-08-15T11:37:43.788Z</time>
      </trkpt>
      <trkpt lat="43.04081" lon="42.37488">
        <ele>905.159901</ele>
        <time>2021-08-15T11:38:13.497Z</time>
      </trkpt>
      <trkpt lat="43.04086" lon="42.37548">
        <ele>906.04168</ele>
        <time>2021-08-15T11:38:30.204Z</time>
      </trkpt>
      <trkpt lat="43.04095" lon="42.37568">
        <ele>906.34107</ele>
        <time>2021-08-15T11:38:36.462Z</time>
      </trkpt>
      <trkpt lat="43.04153" lon="42.37646">
        <ele>907.752917</ele>
        <time>2021-08-15T11:38:59.134Z</time>
      </trkpt>
      <trkpt lat="43.042" lon="42.37729">
        <ele>909.350435</ele>
        <time>2021-08-15T11:39:20.381Z</time>
      </trkpt>
      <trkpt lat="43.04225" lon="42.37756">
        <ele>910.235012</ele>
        <time>2021-08-15T11:39:30.618Z</time>
      </trkpt>
      <trkpt lat="43.04296" lon="42.37802">
        <ele>912.458199</ele>
        <time>2021-08-15T11:39:59.137Z</time>
      </trkpt>
      <trkpt lat="43.04312" lon="42.3782">
        <ele>913.015216</ele>
        <time>2021-08-15T11:40:07.661Z</time>
      </trkpt>
      <trkpt lat="43.04335" lon="42.37871">
        <ele>914.365414</ele>
        <time>2021-08-15T11:40:27.454Z</time>
      </trkpt>
      <trkpt lat="43.04375" lon="42.38009">
        <ele>918.033162</ele>
        <time>2021-08-15T11:41:18.077Z</time>
      </trkpt>
      <trkpt lat="43.04391" lon="42.38039">
        <ele>918.95058</ele>
        <time>2021-08-15T11:41:27.500Z</time>
      </trkpt>
      <trkpt lat="43.04426" lon="42.38075">
        <ele>919.593137</ele>
        <time>2021-08-15T11:41:37.208Z</time>
      </trkpt>
      <trkpt lat="43.04471" lon="42.38097">
        <ele>918.988111</ele>
        <time>2021-08-15T11:41:46.532Z</time>
      </trkpt>
      <trkpt lat="43.04542" lon="42.38102">
        <ele>918.086775</ele>
        <time>2021-08-15T11:41:59.544Z</time>
      </trkpt>
      <trkpt lat="43.04565" lon="42.38105">
        <ele>917.794055</ele>
        <time>2021-08-15T11:42:03.495Z</time>
      </trkpt>
      <trkpt lat="43.04595" lon="42.38101">
        <ele>917.496113</ele>
        <time>2021-08-15T11:42:09.080Z</time>
      </trkpt>
      <trkpt lat="43.04618" lon="42.38093">
        <ele>917.405208</ele>
        <time>2021-08-15T11:42:13.699Z</time>
      </trkpt>
      <trkpt lat="43.04643" lon="42.38073">
        <ele>917.291463</ele>
        <time>2021-08-15T11:42:19.468Z</time>
      </trkpt>
      <trkpt lat="43.04708" lon="42.37975">
        <ele>916.919806</ele>
        <time>2021-08-15T11:42:39.702Z</time>
      </trkpt>
      <trkpt lat="43.04744" lon="42.37935">
        <ele>917.274977</ele>
        <time>2021-08-15T11:42:54.975Z</time>
      </trkpt>
      <trkpt lat="43.04754" lon="42.37933">
        <ele>917.431819</ele>
        <time>2021-08-15T11:43:00.747Z</time>
      </trkpt>
      <trkpt lat="43.04773" lon="42.37952">
        <ele>917.817728</ele>
        <time>2021-08-15T11:43:05.709Z</time>
      </trkpt>
      <trkpt lat="43.04775" lon="42.37967">
        <ele>918.006945</ele>
        <time>2021-08-15T11:43:12.202Z</time>
      </trkpt>
      <trkpt lat="43.04771" lon="42.37978">
        <ele>918.14974</ele>
        <time>2021-08-15T11:43:13.621Z</time>
      </trkpt>
      <trkpt lat="43.04737" lon="42.38028">
        <ele>918.97082</ele>
        <time>2021-08-15T11:43:28.518Z</time>
      </trkpt>
      <trkpt lat="43.04723" lon="42.38089">
        <ele>919.729112</ele>
        <time>2021-08-15T11:43:44.800Z</time>
      </trkpt>
      <trkpt lat="43.04724" lon="42.38114">
        <ele>920.068897</ele>
        <time>2021-08-15T11:43:48.838Z</time>
      </trkpt>
      <trkpt lat="43.04743" lon="42.38156">
        <ele>920.734333</ele>
        <time>2021-08-15T11:43:59.444Z</time>
      </trkpt>
      <trkpt lat="43.04769" lon="42.38183">
        <ele>921.347654</ele>
        <time>2021-08-15T11:44:12.479Z</time>
      </trkpt>
      <trkpt lat="43.04821" lon="42.38258">
        <ele>922.745931</ele>
        <time>2021-08-15T11:44:36.841Z</time>
      </trkpt>
      <trkpt lat="43.04865" lon="42.38289">
        <ele>923.518341</ele>
        <time>2021-08-15T11:44:50.035Z</time>
      </trkpt>
      <trkpt lat="43.04932" lon="42.38394">
        <ele>924.900971</ele>
        <time>2021-08-15T11:45:17.534Z</time>
      </trkpt>
      <trkpt lat="43.04984" lon="42.38527">
        <ele>928.316812</ele>
        <time>2021-08-15T11:45:52.741Z</time>
      </trkpt>
      <trkpt lat="43.05049" lon="42.38653">
        <ele>933.408688</ele>
        <time>2021-08-15T11:46:50.214Z</time>
      </trkpt>
      <trkpt lat="43.05058" lon="42.38677">
        <ele>934.444376</ele>
        <time>2021-08-15T11:47:01.268Z</time>
      </trkpt>
      <trkpt lat="43.0506" lon="42.38701">
        <ele>935.490822</ele>
        <time>2021-08-15T11:47:11.212Z</time>
      </trkpt>
      <trkpt lat="43.05049" lon="42.38806">
        <ele>939.961162</ele>
        <time>2021-08-15T11:47:53.700Z</time>
      </trkpt>
      <trkpt lat="43.05051" lon="42.3884">
        <ele>941.40557</ele>
        <time>2021-08-15T11:48:06.628Z</time>
      </trkpt>
      <trkpt lat="43.05066" lon="42.38881">
        <ele>943.33749</ele>
        <time>2021-08-15T11:48:23.027Z</time>
      </trkpt>
      <trkpt lat="43.0507" lon="42.38971">
        <ele>945.595765</ele>
        <time>2021-08-15T11:48:50.071Z</time>
      </trkpt>
      <trkpt lat="43.05082" lon="42.38994">
        <ele>946.20102</ele>
        <time>2021-08-15T11:48:57.902Z</time>
      </trkpt>
      <trkpt lat="43.05107" lon="42.39016">
        <ele>947.043886</ele>
        <time>2021-08-15T11:49:07.724Z</time>
      </trkpt>
      <trkpt lat="43.05145" lon="42.3907">
        <ele>948.639611</ele>
        <time>2021-08-15T11:49:24.840Z</time>
      </trkpt>
      <trkpt lat="43.05186" lon="42.39239">
        <ele>952.890666</ele>
        <time>2021-08-15T11:50:08.907Z</time>
      </trkpt>
      <trkpt lat="43.05211" lon="42.39292">
        <ele>954.419738</ele>
        <time>2021-08-15T11:50:28.083Z</time>
      </trkpt>
      <trkpt lat="43.05234" lon="42.39325">
        <ele>955.869592</ele>
        <time>2021-08-15T11:50:43.783Z</time>
      </trkpt>
      <trkpt lat="43.05368" lon="42.394">
        <ele>966.262963</ele>
        <time>2021-08-15T11:52:08.117Z</time>
      </trkpt>
      <trkpt lat="43.05455" lon="42.39471">
        <ele>974.82203</ele>
        <time>2021-08-15T11:53:16.945Z</time>
      </trkpt>
      <trkpt lat="43.05477" lon="42.39497">
        <ele>977.455591</ele>
        <time>2021-08-15T11:53:37.323Z</time>
      </trkpt>
      <trkpt lat="43.05498" lon="42.39527">
        <ele>980.137024</ele>
        <time>2021-08-15T11:53:57.652Z</time>
      </trkpt>
      <trkpt lat="43.05517" lon="42.39576">
        <ele>983.785109</ele>
        <time>2021-08-15T11:54:24.727Z</time>
      </trkpt>
      <trkpt lat="43.0554" lon="42.39669">
        <ele>989.788452</ele>
        <time>2021-08-15T11:55:10.572Z</time>
      </trkpt>
      <trkpt lat="43.0556" lon="42.397">
        <ele>992.337107</ele>
        <time>2021-08-15T11:55:30.304Z</time>
      </trkpt>
      <trkpt lat="43.05573" lon="42.39734">
        <ele>994.698464</ele>
        <time>2021-08-15T11:55:48.494Z</time>
      </trkpt>
      <trkpt lat="43.05581" lon="42.39847">
        <ele>1001.659822</ele>
        <time>2021-08-15T11:56:41.694Z</time>
      </trkpt>
      <trkpt lat="43.05576" lon="42.39882">
        <ele>1003.788127</ele>
        <time>2021-08-15T11:56:57.875Z</time>
      </trkpt>
      <trkpt lat="43.05583" lon="42.40011">
        <ele>1011.520861</ele>
        <time>2021-08-15T11:57:57.563Z</time>
      </trkpt>
      <trkpt lat="43.05564" lon="42.40161">
        <ele>1020.274586</ele>
        <time>2021-08-15T11:59:08.092Z</time>
      </trkpt>
      <trkpt lat="43.05574" lon="42.4024">
        <ele>1024.775313</ele>
        <time>2021-08-15T11:59:42.960Z</time>
      </trkpt>
      <trkpt lat="43.05588" lon="42.40264">
        <ele>1026.511396</ele>
        <time>2021-08-15T11:59:56.100Z</time>
      </trkpt>
      <trkpt lat="43.0561" lon="42.40275">
        <ele>1028.241845</ele>
        <time>2021-08-15T12:00:09.525Z</time>
      </trkpt>
      <trkpt lat="43.05648" lon="42.40258">
        <ele>1031.082259</ele>
        <time>2021-08-15T12:00:33.204Z</time>
      </trkpt>
      <trkpt lat="43.05741" lon="42.40273">
        <ele>1037.578038</ele>
        <time>2021-08-15T12:01:26.226Z</time>
      </trkpt>
      <trkpt lat="43.05751" lon="42.40279">
        <ele>1038.336697</ele>
        <time>2021-08-15T12:01:32.473Z</time>
      </trkpt>
      <trkpt lat="43.05806" lon="42.40335">
        <ele>1043.200081</ele>
        <time>2021-08-15T12:02:10.000Z</time>
      </trkpt>
      <trkpt lat="43.05874" lon="42.40452">
        <ele>1051.203084</ele>
        <time>2021-08-15T12:03:14.052Z</time>
      </trkpt>
      <trkpt lat="43.05916" lon="42.40473">
        <ele>1054.382655</ele>
        <time>2021-08-15T12:03:42.301Z</time>
      </trkpt>
      <trkpt lat="43.05971" lon="42.40531">
        <ele>1058.954837</ele>
        <time>2021-08-15T12:04:25.302Z</time>
      </trkpt>
      <trkpt lat="43.05981" lon="42.40556">
        <ele>1060.351564</ele>
        <time>2021-08-15T12:04:37.479Z</time>
      </trkpt>
      <trkpt lat="43.05984" lon="42.40638">
        <ele>1064.290541</ele>
        <time>2021-08-15T12:05:07.853Z</time>
      </trkpt>
      <trkpt lat="43.06" lon="42.40698">
        <ele>1066.608004</ele>
        <time>2021-08-15T12:05:29.586Z</time>
      </trkpt>
      <trkpt lat="43.06042" lon="42.40808">
        <ele>1069.999901</ele>
        <time>2021-08-15T12:06:05.348Z</time>
      </trkpt>
      <trkpt lat="43.06044" lon="42.40833">
        <ele>1070.671383</ele>
        <time>2021-08-15T12:06:11.900Z</time>
      </trkpt>
      <trkpt lat="43.06024" lon="42.40912">
        <ele>1073.300717</ele>
        <time>2021-08-15T12:06:34.183Z</time>
      </trkpt>
      <trkpt lat="43.06034" lon="42.40931">
        <ele>1074.295168</ele>
        <time>2021-08-15T12:06:41.222Z</time>
      </trkpt>
      <trkpt lat="43.06061" lon="42.40958">
        <ele>1076.196856</ele>
        <time>2021-08-15T12:06:56.645Z</time>
      </trkpt>
      <trkpt lat="43.06084" lon="42.41033">
        <ele>1079.621876</ele>
        <time>2021-08-15T12:07:36.520Z</time>
      </trkpt>
      <trkpt lat="43.06096" lon="42.41106">
        <ele>1082.646981</ele>
        <time>2021-08-15T12:08:02.781Z</time>
      </trkpt>
      <trkpt lat="43.0613" lon="42.41173">
        <ele>1083.292403</ele>
        <time>2021-08-15T12:08:32.271Z</time>
      </trkpt>
      <trkpt lat="43.06132" lon="42.41185">
        <ele>1083.389217</ele>
        <time>2021-08-15T12:08:33.681Z</time>
      </trkpt>
      <trkpt lat="43.06132" lon="42.41205">
        <ele>1083.551451</ele>
        <time>2021-08-15T12:08:42.337Z</time>
      </trkpt>
      <trkpt lat="43.06129" lon="42.41215">
        <ele>1083.637809</ele>
        <time>2021-08-15T12:08:45.588Z</time>
      </trkpt>
      <trkpt lat="43.06116" lon="42.41227">
        <ele>1083.810672</ele>
        <time>2021-08-15T12:08:48.057Z</time>
      </trkpt>
      <trkpt lat="43.06077" lon="42.41217">
        <ele>1084.241333</ele>
        <time>2021-08-15T12:08:56.416Z</time>
      </trkpt>
      <trkpt lat="43.06035" lon="42.41196">
        <ele>1083.910391</ele>
        <time>2021-08-15T12:09:04.565Z</time>
      </trkpt>
      <trkpt lat="43.06006" lon="42.41201">
        <ele>1082.377965</ele>
        <time>2021-08-15T12:09:09.085Z</time>
      </trkpt>
      <trkpt lat="43.05997" lon="42.4121">
        <ele>1081.837043</ele>
        <time>2021-08-15T12:09:11.150Z</time>
      </trkpt>
      <trkpt lat="43.05987" lon="42.41276">
        <ele>1079.293573</ele>
        <time>2021-08-15T12:09:18.280Z</time>
      </trkpt>
      <trkpt lat="43.05942" lon="42.41321">
        <ele>1076.432112</ele>
        <time>2021-08-15T12:09:26.885Z</time>
      </trkpt>
      <trkpt lat="43.05923" lon="42.41356">
        <ele>1075.232953</ele>
        <time>2021-08-15T12:09:32.155Z</time>
      </trkpt>
      <trkpt lat="43.05922" lon="42.41406">
        <ele>1074.916038</ele>
        <time>2021-08-15T12:09:39.077Z</time>
      </trkpt>
      <trkpt lat="43.05903" lon="42.41474">
        <ele>1074.468076</ele>
        <time>2021-08-15T12:09:50.907Z</time>
      </trkpt>
      <trkpt lat="43.05861" lon="42.41589">
        <ele>1073.056162</ele>
        <time>2021-08-15T12:10:15.004Z</time>
      </trkpt>
      <trkpt lat="43.05861" lon="42.41633">
        <ele>1071.415273</ele>
        <time>2021-08-15T12:10:21.422Z</time>
      </trkpt>
      <trkpt lat="43.0585" lon="42.41655">
        <ele>1070.443596</ele>
        <time>2021-08-15T12:10:24.928Z</time>
      </trkpt>
      <trkpt lat="43.05807" lon="42.4166">
        <ele>1068.249651</ele>
        <time>2021-08-15T12:10:32.192Z</time>
      </trkpt>
      <trkpt lat="43.05681" lon="42.41749">
        <ele>1055.497429</ele>
        <time>2021-08-15T12:10:52.308Z</time>
      </trkpt>
      <trkpt lat="43.05554" lon="42.41794">
        <ele>1039.36163</ele>
        <time>2021-08-15T12:11:09.941Z</time>
      </trkpt>
      <trkpt lat="43.0555" lon="42.418">
        <ele>1038.7928</ele>
        <time>2021-08-15T12:11:10.722Z</time>
      </trkpt>
      <trkpt lat="43.05549" lon="42.41809">
        <ele>1038.200794</ele>
        <time>2021-08-15T12:11:11.578Z</time>
      </trkpt>
      <trkpt lat="43.05556" lon="42.41825">
        <ele>1036.887231</ele>
        <time>2021-08-15T12:11:13.569Z</time>
      </trkpt>
      <trkpt lat="43.05585" lon="42.41827">
        <ele>1034.166364</ele>
        <time>2021-08-15T12:11:17.431Z</time>
      </trkpt>
      <trkpt lat="43.05626" lon="42.41846">
        <ele>1029.935752</ele>
        <time>2021-08-15T12:11:23.756Z</time>
      </trkpt>
      <trkpt lat="43.05691" lon="42.41889">
        <ele>1023.827073</ele>
        <time>2021-08-15T12:11:34.632Z</time>
      </trkpt>
      <trkpt lat="43.05704" lon="42.41909">
        <ele>1023.38108</ele>
        <time>2021-08-15T12:11:39.256Z</time>
      </trkpt>
      <trkpt lat="43.05718" lon="42.41982">
        <ele>1022.112996</ele>
        <time>2021-08-15T12:11:52.406Z</time>
      </trkpt>
      <trkpt lat="43.0572" lon="42.42032">
        <ele>1021.268822</ele>
        <time>2021-08-15T12:11:59.900Z</time>
      </trkpt>
      <trkpt lat="43.05717" lon="42.42087">
        <ele>1020.346992</ele>
        <time>2021-08-15T12:12:07.071Z</time>
      </trkpt>
      <trkpt lat="43.05707" lon="42.42139">
        <ele>1019.240284</ele>
        <time>2021-08-15T12:12:13.446Z</time>
      </trkpt>
      <trkpt lat="43.05703" lon="42.42167">
        <ele>1018.544386</ele>
        <time>2021-08-15T12:12:16.903Z</time>
      </trkpt>
      <trkpt lat="43.05691" lon="42.42224">
        <ele>1017.142295</ele>
        <time>2021-08-15T12:12:23.897Z</time>
      </trkpt>
      <trkpt lat="43.05676" lon="42.42283">
        <ele>1015.669022</ele>
        <time>2021-08-15T12:12:31.330Z</time>
      </trkpt>
      <trkpt lat="43.05672" lon="42.42303">
        <ele>1015.159152</ele>
        <time>2021-08-15T12:12:33.857Z</time>
      </trkpt>
      <trkpt lat="43.05651" lon="42.42432">
        <ele>1017.971851</ele>
        <time>2021-08-15T12:12:54.035Z</time>
      </trkpt>
      <trkpt lat="43.05652" lon="42.42468">
        <ele>1019.581724</ele>
        <time>2021-08-15T12:13:05.647Z</time>
      </trkpt>
      <trkpt lat="43.0566" lon="42.42504">
        <ele>1021.228771</ele>
        <time>2021-08-15T12:13:20.495Z</time>
      </trkpt>
      <trkpt lat="43.05749" lon="42.42761">
        <ele>1044.535319</ele>
        <time>2021-08-15T12:16:30.768Z</time>
      </trkpt>
      <trkpt lat="43.05754" lon="42.42785">
        <ele>1047.01701</ele>
        <time>2021-08-15T12:16:48.264Z</time>
      </trkpt>
      <trkpt lat="43.05755" lon="42.42825">
        <ele>1050.251817</ele>
        <time>2021-08-15T12:17:15.232Z</time>
      </trkpt>
      <trkpt lat="43.05751" lon="42.42846">
        <ele>1051.485134</ele>
        <time>2021-08-15T12:17:28.586Z</time>
      </trkpt>
      <trkpt lat="43.0574" lon="42.42847">
        <ele>1052.347647</ele>
        <time>2021-08-15T12:17:36.863Z</time>
      </trkpt>
      <trkpt lat="43.05679" lon="42.42768">
        <ele>1059.021161</ele>
        <time>2021-08-15T12:18:26.798Z</time>
      </trkpt>
      <trkpt lat="43.05632" lon="42.42729">
        <ele>1063.396726</ele>
        <time>2021-08-15T12:18:54.527Z</time>
      </trkpt>
      <trkpt lat="43.05615" lon="42.4272">
        <ele>1063.820159</ele>
        <time>2021-08-15T12:18:59.858Z</time>
      </trkpt>
      <trkpt lat="43.05568" lon="42.42702">
        <ele>1064.928761</ele>
        <time>2021-08-15T12:19:18.709Z</time>
      </trkpt>
      <trkpt lat="43.05554" lon="42.42703">
        <ele>1065.248548</ele>
        <time>2021-08-15T12:19:22.929Z</time>
      </trkpt>
      <trkpt lat="43.05544" lon="42.4271">
        <ele>1065.509257</ele>
        <time>2021-08-15T12:19:25.942Z</time>
      </trkpt>
      <trkpt lat="43.05514" lon="42.42751">
        <ele>1066.467465</ele>
        <time>2021-08-15T12:19:38.897Z</time>
      </trkpt>
      <trkpt lat="43.05463" lon="42.42803">
        <ele>1067.461813</ele>
        <time>2021-08-15T12:19:57.207Z</time>
      </trkpt>
      <trkpt lat="43.05372" lon="42.4286">
        <ele>1067.248313</ele>
        <time>2021-08-15T12:20:21.849Z</time>
      </trkpt>
      <trkpt lat="43.05307" lon="42.42878">
        <ele>1067.088841</ele>
        <time>2021-08-15T12:20:34.115Z</time>
      </trkpt>
      <trkpt lat="43.05196" lon="42.42977">
        <ele>1066.253944</ele>
        <time>2021-08-15T12:20:58.469Z</time>
      </trkpt>
      <trkpt lat="43.05182" lon="42.43007">
        <ele>1066.090897</ele>
        <time>2021-08-15T12:21:05.397Z</time>
      </trkpt>
      <trkpt lat="43.05177" lon="42.4309">
        <ele>1068.663566</ele>
        <time>2021-08-15T12:21:29.569Z</time>
      </trkpt>
      <trkpt lat="43.05148" lon="42.43183">
        <ele>1073.097353</ele>
        <time>2021-08-15T12:22:09.453Z</time>
      </trkpt>
      <trkpt lat="43.05149" lon="42.43209">
        <ele>1074.252153</ele>
        <time>2021-08-15T12:22:24.605Z</time>
      </trkpt>
      <trkpt lat="43.05166" lon="42.43245">
        <ele>1076.146022</ele>
        <time>2021-08-15T12:22:46.590Z</time>
      </trkpt>
      <trkpt lat="43.05194" lon="42.4327">
        <ele>1077.354277</ele>
        <time>2021-08-15T12:23:07.075Z</time>
      </trkpt>
      <trkpt lat="43.05249" lon="42.43292">
        <ele>1078.67736</ele>
        <time>2021-08-15T12:23:32.835Z</time>
      </trkpt>
      <trkpt lat="43.05257" lon="42.43308">
        <ele>1078.997809</ele>
        <time>2021-08-15T12:23:40.654Z</time>
      </trkpt>
      <trkpt lat="43.05255" lon="42.43331">
        <ele>1079.387356</ele>
        <time>2021-08-15T12:23:44.593Z</time>
      </trkpt>
      <trkpt lat="43.05243" lon="42.43365">
        <ele>1080.022917</ele>
        <time>2021-08-15T12:23:52.100Z</time>
      </trkpt>
      <trkpt lat="43.05217" lon="42.43376">
        <ele>1080.664207</ele>
        <time>2021-08-15T12:23:57.426Z</time>
      </trkpt>
      <trkpt lat="43.05132" lon="42.43362">
        <ele>1075.70959</ele>
        <time>2021-08-15T12:24:10.713Z</time>
      </trkpt>
      <trkpt lat="43.05107" lon="42.43362">
        <ele>1073.870555</ele>
        <time>2021-08-15T12:24:14.186Z</time>
      </trkpt>
      <trkpt lat="43.05094" lon="42.43368">
        <ele>1072.8508</ele>
        <time>2021-08-15T12:24:16.118Z</time>
      </trkpt>
      <trkpt lat="43.05085" lon="42.43382">
        <ele>1071.839414</ele>
        <time>2021-08-15T12:24:18.040Z</time>
      </trkpt>
      <trkpt lat="43.0508" lon="42.43422">
        <ele>1069.649027</ele>
        <time>2021-08-15T12:24:22.253Z</time>
      </trkpt>
      <trkpt lat="43.05135" lon="42.43532">
        <ele>1063.492447</ele>
        <time>2021-08-15T12:24:36.623Z</time>
      </trkpt>
      <trkpt lat="43.05144" lon="42.43611">
        <ele>1060.100642</ele>
        <time>2021-08-15T12:24:45.630Z</time>
      </trkpt>
      <trkpt lat="43.05178" lon="42.43764">
        <ele>1056.888396</ele>
        <time>2021-08-15T12:25:05.976Z</time>
      </trkpt>
      <trkpt lat="43.05252" lon="42.43969">
        <ele>1058.823289</ele>
        <time>2021-08-15T12:25:53.438Z</time>
      </trkpt>
      <trkpt lat="43.05267" lon="42.44049">
        <ele>1061.448077</ele>
        <time>2021-08-15T12:26:24.408Z</time>
      </trkpt>
      <trkpt lat="43.05277" lon="42.44069">
        <ele>1062.199595</ele>
        <time>2021-08-15T12:26:34.300Z</time>
      </trkpt>
      <trkpt lat="43.05287" lon="42.44086">
        <ele>1062.886838</ele>
        <time>2021-08-15T12:26:39.797Z</time>
      </trkpt>
      <trkpt lat="43.05316" lon="42.44115">
        <ele>1064.397987</ele>
        <time>2021-08-15T12:26:58.635Z</time>
      </trkpt>
      <trkpt lat="43.05317" lon="42.44121">
        <ele>1064.508153</ele>
        <time>2021-08-15T12:27:03.685Z</time>
      </trkpt>
      <trkpt lat="43.05318" lon="42.44146">
        <ele>1064.965046</ele>
        <time>2021-08-15T12:27:12.982Z</time>
      </trkpt>
      <trkpt lat="43.05318" lon="42.44156">
        <ele>1065.134907</ele>
        <time>2021-08-15T12:27:15.465Z</time>
      </trkpt>
      <trkpt lat="43.05316" lon="42.44165">
        <ele>1065.320086</ele>
        <time>2021-08-15T12:27:19.067Z</time>
      </trkpt>
      <trkpt lat="43.05311" lon="42.44174">
        <ele>1065.518493</ele>
        <time>2021-08-15T12:27:24.304Z</time>
      </trkpt>
      <trkpt lat="43.05288" lon="42.44197">
        <ele>1066.216519</ele>
        <time>2021-08-15T12:27:36.453Z</time>
      </trkpt>
      <trkpt lat="43.05262" lon="42.44226">
        <ele>1067.049946</ele>
        <time>2021-08-15T12:27:49.938Z</time>
      </trkpt>
      <trkpt lat="43.05258" lon="42.44231">
        <ele>1067.179758</ele>
        <time>2021-08-15T12:27:54.206Z</time>
      </trkpt>
      <trkpt lat="43.05231" lon="42.44274">
        <ele>1068.210917</ele>
        <time>2021-08-15T12:28:04.181Z</time>
      </trkpt>
      <trkpt lat="43.05219" lon="42.44294">
        <ele>1068.684688</ele>
        <time>2021-08-15T12:28:07.786Z</time>
      </trkpt>
      <trkpt lat="43.05154" lon="42.44394">
        <ele>1064.444691</ele>
        <time>2021-08-15T12:28:22.956Z</time>
      </trkpt>
      <trkpt lat="43.05071" lon="42.44462">
        <ele>1060.560926</ele>
        <time>2021-08-15T12:28:37.961Z</time>
      </trkpt>
      <trkpt lat="43.05062" lon="42.44474">
        <ele>1060.6066</ele>
        <time>2021-08-15T12:28:40.832Z</time>
      </trkpt>
      <trkpt lat="43.05057" lon="42.44486">
        <ele>1060.641738</ele>
        <time>2021-08-15T12:28:42.200Z</time>
      </trkpt>
      <trkpt lat="43.05056" lon="42.44511">
        <ele>1060.704424</ele>
        <time>2021-08-15T12:28:49.143Z</time>
      </trkpt>
      <trkpt lat="43.05092" lon="42.44697">
        <ele>1061.736444</ele>
        <time>2021-08-15T12:29:30.812Z</time>
      </trkpt>
      <trkpt lat="43.0509" lon="42.44747">
        <ele>1063.371458</ele>
        <time>2021-08-15T12:29:49.516Z</time>
      </trkpt>
      <trkpt lat="43.05085" lon="42.44758">
        <ele>1063.816135</ele>
        <time>2021-08-15T12:29:59.419Z</time>
      </trkpt>
      <trkpt lat="43.05082" lon="42.44765">
        <ele>1064.059475</ele>
        <time>2021-08-15T12:30:00.385Z</time>
      </trkpt>
      <trkpt lat="43.05046" lon="42.44814">
        <ele>1066.379976</ele>
        <time>2021-08-15T12:30:24.438Z</time>
      </trkpt>
      <trkpt lat="43.05028" lon="42.44847">
        <ele>1067.717168</ele>
        <time>2021-08-15T12:30:38.884Z</time>
      </trkpt>
      <trkpt lat="43.05022" lon="42.44872">
        <ele>1068.590538</ele>
        <time>2021-08-15T12:30:50.423Z</time>
      </trkpt>
      <trkpt lat="43.05029" lon="42.44907">
        <ele>1069.530363</ele>
        <time>2021-08-15T12:30:56.730Z</time>
      </trkpt>
      <trkpt lat="43.05029" lon="42.44911">
        <ele>1069.589652</ele>
        <time>2021-08-15T12:30:59.056Z</time>
      </trkpt>
      <trkpt lat="43.05029" lon="42.44916">
        <ele>1069.667724</ele>
        <time>2021-08-15T12:31:03.225Z</time>
      </trkpt>
      <trkpt lat="43.05001" lon="42.44961">
        <ele>1070.575855</ele>
        <time>2021-08-15T12:31:16.177Z</time>
      </trkpt>
      <trkpt lat="43.04964" lon="42.44995">
        <ele>1071.541655</ele>
        <time>2021-08-15T12:31:30.200Z</time>
      </trkpt>
      <trkpt lat="43.04885" lon="42.45022">
        <ele>1073.009665</ele>
        <time>2021-08-15T12:31:57.014Z</time>
      </trkpt>
      <trkpt lat="43.04768" lon="42.45107">
        <ele>1070.974992</ele>
        <time>2021-08-15T12:32:23.287Z</time>
      </trkpt>
      <trkpt lat="43.04725" lon="42.45163">
        <ele>1069.135572</ele>
        <time>2021-08-15T12:32:33.080Z</time>
      </trkpt>
      <trkpt lat="43.04698" lon="42.45188">
        <ele>1067.059826</ele>
        <time>2021-08-15T12:32:38.021Z</time>
      </trkpt>
      <trkpt lat="43.04664" lon="42.45214">
        <ele>1064.524249</ele>
        <time>2021-08-15T12:32:43.832Z</time>
      </trkpt>
      <trkpt lat="43.04618" lon="42.4523">
        <ele>1061.490166</ele>
        <time>2021-08-15T12:32:50.664Z</time>
      </trkpt>
      <trkpt lat="43.04603" lon="42.45248">
        <ele>1060.1779</ele>
        <time>2021-08-15T12:32:53.685Z</time>
      </trkpt>
      <trkpt lat="43.04564" lon="42.45356">
        <ele>1058.388599</ele>
        <time>2021-08-15T12:33:07.291Z</time>
      </trkpt>
      <trkpt lat="43.04547" lon="42.45453">
        <ele>1057.981983</ele>
        <time>2021-08-15T12:33:25.272Z</time>
      </trkpt>
      <trkpt lat="43.04551" lon="42.45484">
        <ele>1057.858104</ele>
        <time>2021-08-15T12:33:35.578Z</time>
      </trkpt>
      <trkpt lat="43.04559" lon="42.45491">
        <ele>1057.807122</ele>
        <time>2021-08-15T12:33:40.039Z</time>
      </trkpt>
      <trkpt lat="43.04652" lon="42.45499">
        <ele>1062.468307</ele>
        <time>2021-08-15T12:34:35.540Z</time>
      </trkpt>
      <trkpt lat="43.04663" lon="42.45505">
        <ele>1063.109191</ele>
        <time>2021-08-15T12:34:42.482Z</time>
      </trkpt>
      <trkpt lat="43.0469" lon="42.45543">
        <ele>1065.247137</ele>
        <time>2021-08-15T12:35:03.843Z</time>
      </trkpt>
      <trkpt lat="43.04731" lon="42.45572">
        <ele>1067.705427</ele>
        <time>2021-08-15T12:35:24.619Z</time>
      </trkpt>
      <trkpt lat="43.04738" lon="42.45588">
        <ele>1067.517909</ele>
        <time>2021-08-15T12:35:29.204Z</time>
      </trkpt>
      <trkpt lat="43.0474" lon="42.45606">
        <ele>1067.340423</ele>
        <time>2021-08-15T12:35:33.274Z</time>
      </trkpt>
      <trkpt lat="43.04728" lon="42.45628">
        <ele>1067.066135</ele>
        <time>2021-08-15T12:35:37.444Z</time>
      </trkpt>
      <trkpt lat="43.04715" lon="42.45628">
        <ele>1066.885784</ele>
        <time>2021-08-15T12:35:40.484Z</time>
      </trkpt>
      <trkpt lat="43.04647" lon="42.45605">
        <ele>1065.930156</ele>
        <time>2021-08-15T12:35:52.264Z</time>
      </trkpt>
      <trkpt lat="43.04629" lon="42.45611">
        <ele>1065.663309</ele>
        <time>2021-08-15T12:35:55.291Z</time>
      </trkpt>
      <trkpt lat="43.04619" lon="42.45632">
        <ele>1065.41877</ele>
        <time>2021-08-15T12:35:58.120Z</time>
      </trkpt>
      <trkpt lat="43.04616" lon="42.45659">
        <ele>1065.346177</ele>
        <time>2021-08-15T12:36:01.366Z</time>
      </trkpt>
      <trkpt lat="43.04636" lon="42.45837">
        <ele>1066.827374</ele>
        <time>2021-08-15T12:36:30.404Z</time>
      </trkpt>
      <trkpt lat="43.04655" lon="42.46066">
        <ele>1074.86476</ele>
        <time>2021-08-15T12:38:08.780Z</time>
      </trkpt>
      <trkpt lat="43.04652" lon="42.46288">
        <ele>1079.201124</ele>
        <time>2021-08-15T12:39:16.849Z</time>
      </trkpt>
      <trkpt lat="43.04647" lon="42.46329">
        <ele>1079.560987</ele>
        <time>2021-08-15T12:39:22.421Z</time>
      </trkpt>
      <trkpt lat="43.04596" lon="42.46433">
        <ele>1078.787223</ele>
        <time>2021-08-15T12:39:37.714Z</time>
      </trkpt>
      <trkpt lat="43.0459" lon="42.4646">
        <ele>1078.312148</ele>
        <time>2021-08-15T12:39:41.094Z</time>
      </trkpt>
      <trkpt lat="43.04592" lon="42.46489">
        <ele>1077.827643</ele>
        <time>2021-08-15T12:39:44.469Z</time>
      </trkpt>
      <trkpt lat="43.04624" lon="42.46595">
        <ele>1075.890917</ele>
        <time>2021-08-15T12:39:59.770Z</time>
      </trkpt>
      <trkpt lat="43.04634" lon="42.46611">
        <ele>1076.520452</ele>
        <time>2021-08-15T12:40:04.338Z</time>
      </trkpt>
      <trkpt lat="43.04706" lon="42.46671">
        <ele>1080.380324</ele>
        <time>2021-08-15T12:40:41.726Z</time>
      </trkpt>
      <trkpt lat="43.04719" lon="42.46691">
        <ele>1081.277835</ele>
        <time>2021-08-15T12:40:52.026Z</time>
      </trkpt>
      <trkpt lat="43.04739" lon="42.46768">
        <ele>1084.01161</ele>
        <time>2021-08-15T12:41:26.910Z</time>
      </trkpt>
      <trkpt lat="43.04741" lon="42.46796">
        <ele>1085.182688</ele>
        <time>2021-08-15T12:41:39.590Z</time>
      </trkpt>
      <trkpt lat="43.04719" lon="42.46996">
        <ele>1093.773872</ele>
        <time>2021-08-15T12:42:57.319Z</time>
      </trkpt>
      <trkpt lat="43.04754" lon="42.4718">
        <ele>1099.181624</ele>
        <time>2021-08-15T12:43:50.352Z</time>
      </trkpt>
      <trkpt lat="43.04814" lon="42.47302">
        <ele>1103.670116</ele>
        <time>2021-08-15T12:44:35.397Z</time>
      </trkpt>
      <trkpt lat="43.04827" lon="42.47439">
        <ele>1108.358433</ele>
        <time>2021-08-15T12:45:22.394Z</time>
      </trkpt>
      <trkpt lat="43.04831" lon="42.47498">
        <ele>1110.688005</ele>
        <time>2021-08-15T12:45:43.065Z</time>
      </trkpt>
      <trkpt lat="43.04828" lon="42.47517">
        <ele>1111.577727</ele>
        <time>2021-08-15T12:45:49.878Z</time>
      </trkpt>
      <trkpt lat="43.0483" lon="42.47539">
        <ele>1112.566276</ele>
        <time>2021-08-15T12:45:59.148Z</time>
      </trkpt>
      <trkpt lat="43.04856" lon="42.47593">
        <ele>1115.554924</ele>
        <time>2021-08-15T12:46:23.892Z</time>
      </trkpt>
      <trkpt lat="43.04856" lon="42.47606">
        <ele>1116.145673</ele>
        <time>2021-08-15T12:46:28.922Z</time>
      </trkpt>
      <trkpt lat="43.04819" lon="42.4765">
        <ele>1119.205312</ele>
        <time>2021-08-15T12:46:57.372Z</time>
      </trkpt>
      <trkpt lat="43.04811" lon="42.47673">
        <ele>1120.380747</ele>
        <time>2021-08-15T12:47:06.689Z</time>
      </trkpt>
      <trkpt lat="43.04807" lon="42.47698">
        <ele>1121.554479</ele>
        <time>2021-08-15T12:47:18.020Z</time>
      </trkpt>
      <trkpt lat="43.04804" lon="42.47748">
        <ele>1123.929018</ele>
        <time>2021-08-15T12:47:39.303Z</time>
      </trkpt>
      <trkpt lat="43.04797" lon="42.47763">
        <ele>1124.786994</ele>
        <time>2021-08-15T12:47:46.350Z</time>
      </trkpt>
      <trkpt lat="43.04747" lon="42.47822">
        <ele>1129.098985</ele>
        <time>2021-08-15T12:48:25.511Z</time>
      </trkpt>
      <trkpt lat="43.04694" lon="42.47904">
        <ele>1133.180176</ele>
        <time>2021-08-15T12:49:05.777Z</time>
      </trkpt>
      <trkpt lat="43.04672" lon="42.47928">
        <ele>1133.848941</ele>
        <time>2021-08-15T12:49:17.678Z</time>
      </trkpt>
      <trkpt lat="43.04607" lon="42.47962">
        <ele>1135.4535</ele>
        <time>2021-08-15T12:49:40.025Z</time>
      </trkpt>
      <trkpt lat="43.04493" lon="42.47972">
        <ele>1138.020135</ele>
        <time>2021-08-15T12:50:04.797Z</time>
      </trkpt>
      <trkpt lat="43.04478" lon="42.47975">
        <ele>1138.351458</ele>
        <time>2021-08-15T12:50:08.103Z</time>
      </trkpt>
      <trkpt lat="43.04465" lon="42.47987">
        <ele>1138.683228</ele>
        <time>2021-08-15T12:50:12.249Z</time>
      </trkpt>
      <trkpt lat="43.04467" lon="42.48017">
        <ele>1139.170398</ele>
        <time>2021-08-15T12:50:18.647Z</time>
      </trkpt>
      <trkpt lat="43.04522" lon="42.48151">
        <ele>1145.09577</ele>
        <time>2021-08-15T12:51:11.111Z</time>
      </trkpt>
      <trkpt lat="43.04539" lon="42.48183">
        <ele>1147.953359</ele>
        <time>2021-08-15T12:51:29.964Z</time>
      </trkpt>
      <trkpt lat="43.04582" lon="42.4823">
        <ele>1153.422679</ele>
        <time>2021-08-15T12:52:13.187Z</time>
      </trkpt>
      <trkpt lat="43.04609" lon="42.4827">
        <ele>1157.420076</ele>
        <time>2021-08-15T12:52:48.264Z</time>
      </trkpt>
      <trkpt lat="43.04636" lon="42.48287">
        <ele>1161.154841</ele>
        <time>2021-08-15T12:53:16.007Z</time>
      </trkpt>
      <trkpt lat="43.04663" lon="42.48374">
        <ele>1171.031412</ele>
        <time>2021-08-15T12:54:25.613Z</time>
      </trkpt>
      <trkpt lat="43.04697" lon="42.48426">
        <ele>1178.278481</ele>
        <time>2021-08-15T12:55:16.866Z</time>
      </trkpt>
      <trkpt lat="43.04697" lon="42.48452">
        <ele>1181.028389</ele>
        <time>2021-08-15T12:55:34.840Z</time>
      </trkpt>
      <trkpt lat="43.0469" lon="42.48463">
        <ele>1182.501668</ele>
        <time>2021-08-15T12:55:44.209Z</time>
      </trkpt>
      <trkpt lat="43.0468" lon="42.48471">
        <ele>1184.208633</ele>
        <time>2021-08-15T12:55:55.025Z</time>
      </trkpt>
      <trkpt lat="43.04644" lon="42.48462">
        <ele>1185.642703</ele>
        <time>2021-08-15T12:56:23.452Z</time>
      </trkpt>
      <trkpt lat="43.0459" lon="42.48401">
        <ele>1188.293114</ele>
        <time>2021-08-15T12:57:05.406Z</time>
      </trkpt>
      <trkpt lat="43.04393" lon="42.48251">
        <ele>1183.038684</ele>
        <time>2021-08-15T12:57:41.583Z</time>
      </trkpt>
      <trkpt lat="43.04342" lon="42.48233">
        <ele>1180.815297</ele>
        <time>2021-08-15T12:57:49.261Z</time>
      </trkpt>
      <trkpt lat="43.04326" lon="42.48232">
        <ele>1180.362195</ele>
        <time>2021-08-15T12:57:51.591Z</time>
      </trkpt>
      <trkpt lat="43.04309" lon="42.48253">
        <ele>1179.701252</ele>
        <time>2021-08-15T12:57:55.147Z</time>
      </trkpt>
      <trkpt lat="43.04308" lon="42.48267">
        <ele>1179.406058</ele>
        <time>2021-08-15T12:57:56.725Z</time>
      </trkpt>
      <trkpt lat="43.04317" lon="42.48388">
        <ele>1176.876519</ele>
        <time>2021-08-15T12:58:11.884Z</time>
      </trkpt>
      <trkpt lat="43.04373" lon="42.48543">
        <ele>1186.523192</ele>
        <time>2021-08-15T12:59:31.056Z</time>
      </trkpt>
      <trkpt lat="43.04381" lon="42.48614">
        <ele>1191.43583</ele>
        <time>2021-08-15T13:00:16.529Z</time>
      </trkpt>
      <trkpt lat="43.04388" lon="42.48641">
        <ele>1193.529531</ele>
        <time>2021-08-15T13:00:36.123Z</time>
      </trkpt>
      <trkpt lat="43.04395" lon="42.48655">
        <ele>1195.138566</ele>
        <time>2021-08-15T13:00:47.214Z</time>
      </trkpt>
      <trkpt lat="43.04443" lon="42.4871">
        <ele>1203.757202</ele>
        <time>2021-08-15T13:01:48.086Z</time>
      </trkpt>
      <trkpt lat="43.04534" lon="42.48757">
        <ele>1216.978169</ele>
        <time>2021-08-15T13:03:18.265Z</time>
      </trkpt>
      <trkpt lat="43.04542" lon="42.48763">
        <ele>1217.992629</ele>
        <time>2021-08-15T13:03:25.922Z</time>
      </trkpt>
      <trkpt lat="43.04546" lon="42.48776">
        <ele>1218.754534</ele>
        <time>2021-08-15T13:03:33.903Z</time>
      </trkpt>
      <trkpt lat="43.04538" lon="42.48799">
        <ele>1220.108065</ele>
        <time>2021-08-15T13:03:47.659Z</time>
      </trkpt>
      <trkpt lat="43.04489" lon="42.4882">
        <ele>1223.96828</ele>
        <time>2021-08-15T13:04:21.402Z</time>
      </trkpt>
      <trkpt lat="43.04465" lon="42.48838">
        <ele>1226.039211</ele>
        <time>2021-08-15T13:04:36.961Z</time>
      </trkpt>
      <trkpt lat="43.04414" lon="42.48841">
        <ele>1229.823805</ele>
        <time>2021-08-15T13:05:00.789Z</time>
      </trkpt>
      <trkpt lat="43.04393" lon="42.48869">
        <ele>1231.439286</ele>
        <time>2021-08-15T13:05:12.638Z</time>
      </trkpt>
      <trkpt lat="43.04387" lon="42.48889">
        <ele>1231.800815</ele>
        <time>2021-08-15T13:05:18.344Z</time>
      </trkpt>
      <trkpt lat="43.04386" lon="42.48934">
        <ele>1232.53764</ele>
        <time>2021-08-15T13:05:29.231Z</time>
      </trkpt>
      <trkpt lat="43.04397" lon="42.49253">
        <ele>1237.813453</ele>
        <time>2021-08-15T13:06:41.379Z</time>
      </trkpt>
      <trkpt lat="43.04403" lon="42.49307">
        <ele>1238.719837</ele>
        <time>2021-08-15T13:06:56.577Z</time>
      </trkpt>
      <trkpt lat="43.04457" lon="42.49525">
        <ele>1243.096989</ele>
        <time>2021-08-15T13:08:01.210Z</time>
      </trkpt>
      <trkpt lat="43.04465" lon="42.49624">
        <ele>1244.319335</ele>
        <time>2021-08-15T13:08:21.899Z</time>
      </trkpt>
      <trkpt lat="43.0447" lon="42.49637">
        <ele>1244.384276</ele>
        <time>2021-08-15T13:08:24.288Z</time>
      </trkpt>
      <trkpt lat="43.04485" lon="42.49652">
        <ele>1244.4918</ele>
        <time>2021-08-15T13:08:28.505Z</time>
      </trkpt>
      <trkpt lat="43.04545" lon="42.4968">
        <ele>1244.871399</ele>
        <time>2021-08-15T13:08:42.654Z</time>
      </trkpt>
      <trkpt lat="43.04558" lon="42.49693">
        <ele>1244.964003</ele>
        <time>2021-08-15T13:08:46.823Z</time>
      </trkpt>
      <trkpt lat="43.04568" lon="42.49711">
        <ele>1245.063951</ele>
        <time>2021-08-15T13:08:50.773Z</time>
      </trkpt>
      <trkpt lat="43.0458" lon="42.49751">
        <ele>1245.422297</ele>
        <time>2021-08-15T13:08:58.968Z</time>
      </trkpt>
      <trkpt lat="43.04593" lon="42.49778">
        <ele>1245.892597</ele>
        <time>2021-08-15T13:09:04.480Z</time>
      </trkpt>
      <trkpt lat="43.04603" lon="42.49788">
        <ele>1246.132226</ele>
        <time>2021-08-15T13:09:08.305Z</time>
      </trkpt>
      <trkpt lat="43.04618" lon="42.49796">
        <ele>1246.466947</ele>
        <time>2021-08-15T13:09:11.690Z</time>
      </trkpt>
      <trkpt lat="43.04631" lon="42.49798">
        <ele>1246.729728</ele>
        <time>2021-08-15T13:09:17.983Z</time>
      </trkpt>
      <trkpt lat="43.04673" lon="42.49813">
        <ele>1247.593654</ele>
        <time>2021-08-15T13:09:31.823Z</time>
      </trkpt>
      <trkpt lat="43.04703" lon="42.49833">
        <ele>1248.278474</ele>
        <time>2021-08-15T13:09:44.661Z</time>
      </trkpt>
      <trkpt lat="43.04716" lon="42.49855">
        <ele>1248.69785</ele>
        <time>2021-08-15T13:09:51.038Z</time>
      </trkpt>
      <trkpt lat="43.04735" lon="42.4991">
        <ele>1250.230507</ele>
        <time>2021-08-15T13:10:09.820Z</time>
      </trkpt>
      <trkpt lat="43.04784" lon="42.49993">
        <ele>1253.121799</ele>
        <time>2021-08-15T13:10:39.591Z</time>
      </trkpt>
      <trkpt lat="43.04803" lon="42.50056">
        <ele>1254.936839</ele>
        <time>2021-08-15T13:11:00.127Z</time>
      </trkpt>
      <trkpt lat="43.04813" lon="42.50098">
        <ele>1257.131403</ele>
        <time>2021-08-15T13:11:15.182Z</time>
      </trkpt>
      <trkpt lat="43.04807" lon="42.50141">
        <ele>1259.98095</ele>
        <time>2021-08-15T13:11:30.956Z</time>
      </trkpt>
      <trkpt lat="43.04787" lon="42.50195">
        <ele>1264.006438</ele>
        <time>2021-08-15T13:11:55.345Z</time>
      </trkpt>
      <trkpt lat="43.04782" lon="42.50233">
        <ele>1266.54739</ele>
        <time>2021-08-15T13:12:12.654Z</time>
      </trkpt>
      <trkpt lat="43.04789" lon="42.50347">
        <ele>1275.776884</ele>
        <time>2021-08-15T13:13:34.494Z</time>
      </trkpt>
      <trkpt lat="43.04798" lon="42.50375">
        <ele>1279.124574</ele>
        <time>2021-08-15T13:13:56.605Z</time>
      </trkpt>
      <trkpt lat="43.04813" lon="42.50403">
        <ele>1283.002474</ele>
        <time>2021-08-15T13:14:22.857Z</time>
      </trkpt>
      <trkpt lat="43.04817" lon="42.50421">
        <ele>1285.037064</ele>
        <time>2021-08-15T13:14:37.110Z</time>
      </trkpt>
      <trkpt lat="43.04811" lon="42.5044">
        <ele>1287.409752</ele>
        <time>2021-08-15T13:14:52.698Z</time>
      </trkpt>
      <trkpt lat="43.04793" lon="42.50458">
        <ele>1290.721366</ele>
        <time>2021-08-15T13:15:15.276Z</time>
      </trkpt>
      <trkpt lat="43.04783" lon="42.50458">
        <ele>1292.303497</ele>
        <time>2021-08-15T13:15:26.483Z</time>
      </trkpt>
      <trkpt lat="43.04676" lon="42.50382">
        <ele>1306.377731</ele>
        <time>2021-08-15T13:17:18.830Z</time>
      </trkpt>
      <trkpt lat="43.04578" lon="42.50287">
        <ele>1317.333702</ele>
        <time>2021-08-15T13:18:22.373Z</time>
      </trkpt>
      <trkpt lat="43.04509" lon="42.50267">
        <ele>1321.800281</ele>
        <time>2021-08-15T13:18:57.360Z</time>
      </trkpt>
      <trkpt lat="43.04496" lon="42.50248">
        <ele>1323.025058</ele>
        <time>2021-08-15T13:19:07.363Z</time>
      </trkpt>
      <trkpt lat="43.04485" lon="42.50214">
        <ele>1324.7367</ele>
        <time>2021-08-15T13:19:22.124Z</time>
      </trkpt>
      <trkpt lat="43.04479" lon="42.50186">
        <ele>1326.097041</ele>
        <time>2021-08-15T13:19:34.105Z</time>
      </trkpt>
      <trkpt lat="43.04479" lon="42.50133">
        <ele>1329.077043</ele>
        <time>2021-08-15T13:19:56.462Z</time>
      </trkpt>
      <trkpt lat="43.04474" lon="42.50115">
        <ele>1330.485275</ele>
        <time>2021-08-15T13:20:05.197Z</time>
      </trkpt>
      <trkpt lat="43.04468" lon="42.5011">
        <ele>1331.18155</ele>
        <time>2021-08-15T13:20:09.645Z</time>
      </trkpt>
      <trkpt lat="43.04461" lon="42.50114">
        <ele>1331.893166</ele>
        <time>2021-08-15T13:20:14.421Z</time>
      </trkpt>
      <trkpt lat="43.04456" lon="42.50127">
        <ele>1332.991343</ele>
        <time>2021-08-15T13:20:21.868Z</time>
      </trkpt>
      <trkpt lat="43.04461" lon="42.50272">
        <ele>1343.559904</ele>
        <time>2021-08-15T13:21:43.272Z</time>
      </trkpt>
      <trkpt lat="43.0444" lon="42.50338">
        <ele>1348.928254</ele>
        <time>2021-08-15T13:22:25.840Z</time>
      </trkpt>
      <trkpt lat="43.0444" lon="42.5036">
        <ele>1350.618197</ele>
        <time>2021-08-15T13:22:38.209Z</time>
      </trkpt>
      <trkpt lat="43.04444" lon="42.50379">
        <ele>1352.094781</ele>
        <time>2021-08-15T13:22:49.345Z</time>
      </trkpt>
      <trkpt lat="43.04457" lon="42.50396">
        <ele>1353.931757</ele>
        <time>2021-08-15T13:23:02.522Z</time>
      </trkpt>
      <trkpt lat="43.04497" lon="42.50427">
        <ele>1358.746374</ele>
        <time>2021-08-15T13:23:37.369Z</time>
      </trkpt>
      <trkpt lat="43.045" lon="42.50438">
        <ele>1359.636314</ele>
        <time>2021-08-15T13:23:43.999Z</time>
      </trkpt>
      <trkpt lat="43.04495" lon="42.50448">
        <ele>1360.465322</ele>
        <time>2021-08-15T13:23:49.807Z</time>
      </trkpt>
      <trkpt lat="43.0448" lon="42.50452">
        <ele>1362.068351</ele>
        <time>2021-08-15T13:24:00.939Z</time>
      </trkpt>
      <trkpt lat="43.0446" lon="42.50447">
        <ele>1364.172109</ele>
        <time>2021-08-15T13:24:15.170Z</time>
      </trkpt>
      <trkpt lat="43.04412" lon="42.50392">
        <ele>1368.063605</ele>
        <time>2021-08-15T13:24:55.549Z</time>
      </trkpt>
      <trkpt lat="43.04405" lon="42.50343">
        <ele>1370.266097</ele>
        <time>2021-08-15T13:25:14.448Z</time>
      </trkpt>
      <trkpt lat="43.04413" lon="42.5029">
        <ele>1372.672454</ele>
        <time>2021-08-15T13:25:31.593Z</time>
      </trkpt>
      <trkpt lat="43.04413" lon="42.50264">
        <ele>1373.797872</ele>
        <time>2021-08-15T13:25:38.837Z</time>
      </trkpt>
      <trkpt lat="43.04405" lon="42.50241">
        <ele>1374.90283</ele>
        <time>2021-08-15T13:25:46.567Z</time>
      </trkpt>
      <trkpt lat="43.04384" lon="42.50223">
        <ele>1375.938294</ele>
        <time>2021-08-15T13:25:56.895Z</time>
      </trkpt>
      <trkpt lat="43.04351" lon="42.5021">
        <ele>1377.211436</ele>
        <time>2021-08-15T13:26:11.368Z</time>
      </trkpt>
      <trkpt lat="43.04334" lon="42.5018">
        <ele>1378.248382</ele>
        <time>2021-08-15T13:26:22.329Z</time>
      </trkpt>
      <trkpt lat="43.04311" lon="42.50161">
        <ele>1379.248711</ele>
        <time>2021-08-15T13:26:33.185Z</time>
      </trkpt>
      <trkpt lat="43.043" lon="42.50157">
        <ele>1379.666239</ele>
        <time>2021-08-15T13:26:37.630Z</time>
      </trkpt>
      <trkpt lat="43.04222" lon="42.50169">
        <ele>1382.510395</ele>
        <time>2021-08-15T13:27:09.321Z</time>
      </trkpt>
      <trkpt lat="43.04198" lon="42.50178">
        <ele>1383.330202</ele>
        <time>2021-08-15T13:27:19.504Z</time>
      </trkpt>
      <trkpt lat="43.04179" lon="42.50191">
        <ele>1384.057067</ele>
        <time>2021-08-15T13:27:29.333Z</time>
      </trkpt>
      <trkpt lat="43.04151" lon="42.50229">
        <ele>1385.376722</ele>
        <time>2021-08-15T13:27:47.017Z</time>
      </trkpt>
      <trkpt lat="43.04136" lon="42.50239">
        <ele>1385.959333</ele>
        <time>2021-08-15T13:27:54.580Z</time>
      </trkpt>
      <trkpt lat="43.04118" lon="42.5024">
        <ele>1386.563752</ele>
        <time>2021-08-15T13:28:01.766Z</time>
      </trkpt>
      <trkpt lat="43.04099" lon="42.50233">
        <ele>1387.212862</ele>
        <time>2021-08-15T13:28:06.690Z</time>
      </trkpt>
      <trkpt lat="43.04054" lon="42.50187">
        <ele>1387.922326</ele>
        <time>2021-08-15T13:28:23.975Z</time>
      </trkpt>
      <trkpt lat="43.0398" lon="42.50163">
        <ele>1387.95834</ele>
        <time>2021-08-15T13:28:42.155Z</time>
      </trkpt>
      <trkpt lat="43.03966" lon="42.50162">
        <ele>1387.965144</ele>
        <time>2021-08-15T13:28:44.486Z</time>
      </trkpt>
      <trkpt lat="43.03953" lon="42.50168">
        <ele>1387.971647</ele>
        <time>2021-08-15T13:28:48.751Z</time>
      </trkpt>
      <trkpt lat="43.03942" lon="42.50183">
        <ele>1387.97873</ele>
        <time>2021-08-15T13:28:51.405Z</time>
      </trkpt>
      <trkpt lat="43.03929" lon="42.5023">
        <ele>1388.079297</ele>
        <time>2021-08-15T13:28:58.464Z</time>
      </trkpt>
      <trkpt lat="43.03917" lon="42.50251">
        <ele>1388.228222</ele>
        <time>2021-08-15T13:29:02.746Z</time>
      </trkpt>
      <trkpt lat="43.03869" lon="42.50322">
        <ele>1388.755669</ele>
        <time>2021-08-15T13:29:17.088Z</time>
      </trkpt>
      <trkpt lat="43.03859" lon="42.50349">
        <ele>1388.924197</ele>
        <time>2021-08-15T13:29:24.017Z</time>
      </trkpt>
      <trkpt lat="43.03853" lon="42.50387">
        <ele>1389.137287</ele>
        <time>2021-08-15T13:29:33.618Z</time>
      </trkpt>
      <trkpt lat="43.0386" lon="42.50464">
        <ele>1390.995603</ele>
        <time>2021-08-15T13:29:55.274Z</time>
      </trkpt>
      <trkpt lat="43.03906" lon="42.5057">
        <ele>1396.014752</ele>
        <time>2021-08-15T13:30:40.733Z</time>
      </trkpt>
      <trkpt lat="43.03928" lon="42.50638">
        <ele>1398.989587</ele>
        <time>2021-08-15T13:31:11.629Z</time>
      </trkpt>
      <trkpt lat="43.03973" lon="42.50719">
        <ele>1404.00759</ele>
        <time>2021-08-15T13:31:55.949Z</time>
      </trkpt>
      <trkpt lat="43.03992" lon="42.50829">
        <ele>1409.658031</ele>
        <time>2021-08-15T13:32:41.883Z</time>
      </trkpt>
      <trkpt lat="43.03999" lon="42.50936">
        <ele>1414.433487</ele>
        <time>2021-08-15T13:33:24.842Z</time>
      </trkpt>
      <trkpt lat="43.04011" lon="42.51032">
        <ele>1418.487512</ele>
        <time>2021-08-15T13:34:00.497Z</time>
      </trkpt>
      <trkpt lat="43.04012" lon="42.5105">
        <ele>1419.247994</ele>
        <time>2021-08-15T13:34:07.140Z</time>
      </trkpt>
      <trkpt lat="43.04011" lon="42.51075">
        <ele>1420.292475</ele>
        <time>2021-08-15T13:34:16.108Z</time>
      </trkpt>
      <trkpt lat="43.04002" lon="42.51104">
        <ele>1421.606404</ele>
        <time>2021-08-15T13:34:27.186Z</time>
      </trkpt>
      <trkpt lat="43.03962" lon="42.51199">
        <ele>1424.763513</ele>
        <time>2021-08-15T13:35:04.930Z</time>
      </trkpt>
      <trkpt lat="43.03928" lon="42.51272">
        <ele>1427.182113</ele>
        <time>2021-08-15T13:35:31.171Z</time>
      </trkpt>
      <trkpt lat="43.03913" lon="42.51304">
        <ele>1428.266388</ele>
        <time>2021-08-15T13:35:40.439Z</time>
      </trkpt>
      <trkpt lat="43.03909" lon="42.51312">
        <ele>1428.520489</ele>
        <time>2021-08-15T13:35:42.977Z</time>
      </trkpt>
      <trkpt lat="43.03904" lon="42.51322">
        <ele>1428.777429</ele>
        <time>2021-08-15T13:35:45.712Z</time>
      </trkpt>
      <trkpt lat="43.03881" lon="42.51364">
        <ele>1428.984161</ele>
        <time>2021-08-15T13:35:57.694Z</time>
      </trkpt>
      <trkpt lat="43.03853" lon="42.51412">
        <ele>1429.227061</ele>
        <time>2021-08-15T13:36:09.096Z</time>
      </trkpt>
      <trkpt lat="43.03812" lon="42.51487">
        <ele>1429.596051</ele>
        <time>2021-08-15T13:36:23.900Z</time>
      </trkpt>
      <trkpt lat="43.03796" lon="42.51534">
        <ele>1429.84644</ele>
        <time>2021-08-15T13:36:31.619Z</time>
      </trkpt>
      <trkpt lat="43.03788" lon="42.5159">
        <ele>1430.237704</ele>
        <time>2021-08-15T13:36:40.430Z</time>
      </trkpt>
      <trkpt lat="43.0379" lon="42.51708">
        <ele>1431.035996</ele>
        <time>2021-08-15T13:37:01.913Z</time>
      </trkpt>
      <trkpt lat="43.03781" lon="42.51829">
        <ele>1433.41068</ele>
        <time>2021-08-15T13:37:36.498Z</time>
      </trkpt>
      <trkpt lat="43.03787" lon="42.51847">
        <ele>1434.017629</ele>
        <time>2021-08-15T13:37:42.287Z</time>
      </trkpt>
      <trkpt lat="43.03811" lon="42.51875">
        <ele>1435.288635</ele>
        <time>2021-08-15T13:37:56.902Z</time>
      </trkpt>
      <trkpt lat="43.03815" lon="42.51889">
        <ele>1435.726371</ele>
        <time>2021-08-15T13:38:01.929Z</time>
      </trkpt>
      <trkpt lat="43.03815" lon="42.51904">
        <ele>1436.178776</ele>
        <time>2021-08-15T13:38:08.031Z</time>
      </trkpt>
      <trkpt lat="43.0381" lon="42.51916">
        <ele>1436.59976</ele>
        <time>2021-08-15T13:38:12.126Z</time>
      </trkpt>
      <trkpt lat="43.038" lon="42.51923">
        <ele>1437.047002</ele>
        <time>2021-08-15T13:38:16.550Z</time>
      </trkpt>
      <trkpt lat="43.0379" lon="42.51924">
        <ele>1437.468995</ele>
        <time>2021-08-15T13:38:23.037Z</time>
      </trkpt>
      <trkpt lat="43.03772" lon="42.51921">
        <ele>1438.167226</ele>
        <time>2021-08-15T13:38:29.573Z</time>
      </trkpt>
      <trkpt lat="43.03755" lon="42.51922">
        <ele>1438.803979</ele>
        <time>2021-08-15T13:38:38.363Z</time>
      </trkpt>
      <trkpt lat="43.03737" lon="42.51935">
        <ele>1439.325938</ele>
        <time>2021-08-15T13:38:45.943Z</time>
      </trkpt>
      <trkpt lat="43.03679" lon="42.52034">
        <ele>1441.78074</ele>
        <time>2021-08-15T13:39:24.541Z</time>
      </trkpt>
      <trkpt lat="43.03644" lon="42.52075">
        <ele>1442.991936</ele>
        <time>2021-08-15T13:39:37.112Z</time>
      </trkpt>
      <trkpt lat="43.03536" lon="42.52092">
        <ele>1441.581292</ele>
        <time>2021-08-15T13:39:59.311Z</time>
      </trkpt>
      <trkpt lat="43.03439" lon="42.52176">
        <ele>1437.651019</ele>
        <time>2021-08-15T13:40:19.098Z</time>
      </trkpt>
      <trkpt lat="43.03351" lon="42.52258">
        <ele>1429.148826</ele>
        <time>2021-08-15T13:40:34.634Z</time>
      </trkpt>
      <trkpt lat="43.03267" lon="42.52346">
        <ele>1419.632046</ele>
        <time>2021-08-15T13:40:49.513Z</time>
      </trkpt>
      <trkpt lat="43.03241" lon="42.52379">
        <ele>1416.221394</ele>
        <time>2021-08-15T13:40:54.406Z</time>
      </trkpt>
      <trkpt lat="43.03233" lon="42.5242">
        <ele>1413.19944</ele>
        <time>2021-08-15T13:40:58.768Z</time>
      </trkpt>
      <trkpt lat="43.03234" lon="42.52438">
        <ele>1411.901226</ele>
        <time>2021-08-15T13:41:00.671Z</time>
      </trkpt>
      <trkpt lat="43.03274" lon="42.52504">
        <ele>1407.807321</ele>
        <time>2021-08-15T13:41:09.901Z</time>
      </trkpt>
      <trkpt lat="43.03278" lon="42.5254">
        <ele>1407.545104</ele>
        <time>2021-08-15T13:41:14.325Z</time>
      </trkpt>
      <trkpt lat="43.03279" lon="42.52602">
        <ele>1407.103143</ele>
        <time>2021-08-15T13:41:22.619Z</time>
      </trkpt>
      <trkpt lat="43.03294" lon="42.52711">
        <ele>1406.316542</ele>
        <time>2021-08-15T13:41:46.740Z</time>
      </trkpt>
      <trkpt lat="43.03296" lon="42.529">
        <ele>1416.461519</ele>
        <time>2021-08-15T13:43:10.084Z</time>
      </trkpt>
      <trkpt lat="43.03309" lon="42.53">
        <ele>1422.207866</ele>
        <time>2021-08-15T13:44:04.603Z</time>
      </trkpt>
      <trkpt lat="43.03297" lon="42.53053">
        <ele>1425.425973</ele>
        <time>2021-08-15T13:44:33.313Z</time>
      </trkpt>
      <trkpt lat="43.03288" lon="42.53074">
        <ele>1426.805258</ele>
        <time>2021-08-15T13:44:44.784Z</time>
      </trkpt>
      <trkpt lat="43.03274" lon="42.53089">
        <ele>1428.276564</ele>
        <time>2021-08-15T13:44:57.195Z</time>
      </trkpt>
      <trkpt lat="43.03198" lon="42.5309">
        <ele>1434.251767</ele>
        <time>2021-08-15T13:45:39.799Z</time>
      </trkpt>
      <trkpt lat="43.03132" lon="42.53079">
        <ele>1436.354087</ele>
        <time>2021-08-15T13:46:06.624Z</time>
      </trkpt>
      <trkpt lat="43.03104" lon="42.53091">
        <ele>1437.270608</ele>
        <time>2021-08-15T13:46:16.040Z</time>
      </trkpt>
      <trkpt lat="43.03089" lon="42.53105">
        <ele>1437.848771</ele>
        <time>2021-08-15T13:46:21.736Z</time>
      </trkpt>
      <trkpt lat="43.03076" lon="42.53129">
        <ele>1438.527746</ele>
        <time>2021-08-15T13:46:28.622Z</time>
      </trkpt>
      <trkpt lat="43.03063" lon="42.53175">
        <ele>1439.691471</ele>
        <time>2021-08-15T13:46:40.547Z</time>
      </trkpt>
      <trkpt lat="43.03022" lon="42.5328">
        <ele>1442.911308</ele>
        <time>2021-08-15T13:47:12.874Z</time>
      </trkpt>
      <trkpt lat="43.03009" lon="42.53303">
        <ele>1443.69065</ele>
        <time>2021-08-15T13:47:21.599Z</time>
      </trkpt>
      <trkpt lat="43.02925" lon="42.5335">
        <ele>1447.12999</ele>
        <time>2021-08-15T13:48:03.016Z</time>
      </trkpt>
      <trkpt lat="43.02911" lon="42.53364">
        <ele>1447.824576</ele>
        <time>2021-08-15T13:48:11.198Z</time>
      </trkpt>
      <trkpt lat="43.02821" lon="42.53483">
        <ele>1452.867197</ele>
        <time>2021-08-15T13:49:07.177Z</time>
      </trkpt>
      <trkpt lat="43.02685" lon="42.53702">
        <ele>1457.678743</ele>
        <time>2021-08-15T13:50:14.402Z</time>
      </trkpt>
      <trkpt lat="43.02665" lon="42.53754">
        <ele>1458.698254</ele>
        <time>2021-08-15T13:50:26.544Z</time>
      </trkpt>
      <trkpt lat="43.02663" lon="42.53775">
        <ele>1459.053777</ele>
        <time>2021-08-15T13:50:30.901Z</time>
      </trkpt>
      <trkpt lat="43.02698" lon="42.53877">
        <ele>1460.987974</ele>
        <time>2021-08-15T13:50:58.452Z</time>
      </trkpt>
      <trkpt lat="43.02701" lon="42.53903">
        <ele>1461.453433</ele>
        <time>2021-08-15T13:51:05.865Z</time>
      </trkpt>
      <trkpt lat="43.02693" lon="42.53985">
        <ele>1464.262702</ele>
        <time>2021-08-15T13:51:31.412Z</time>
      </trkpt>
      <trkpt lat="43.02674" lon="42.54064">
        <ele>1467.56228</ele>
        <time>2021-08-15T13:52:01.186Z</time>
      </trkpt>
      <trkpt lat="43.02672" lon="42.54134">
        <ele>1470.368933</ele>
        <time>2021-08-15T13:52:29.290Z</time>
      </trkpt>
      <trkpt lat="43.02679" lon="42.54269">
        <ele>1476.50256</ele>
        <time>2021-08-15T13:53:26.144Z</time>
      </trkpt>
      <trkpt lat="43.02677" lon="42.54288">
        <ele>1477.409053</ele>
        <time>2021-08-15T13:53:34.140Z</time>
      </trkpt>
      <trkpt lat="43.02654" lon="42.54333">
        <ele>1480.015609</ele>
        <time>2021-08-15T13:53:56.511Z</time>
      </trkpt>
      <trkpt lat="43.02646" lon="42.54394">
        <ele>1482.948738</ele>
        <time>2021-08-15T13:54:20.479Z</time>
      </trkpt>
      <trkpt lat="43.02615" lon="42.54441">
        <ele>1483.544546</ele>
        <time>2021-08-15T13:54:43.609Z</time>
      </trkpt>
      <trkpt lat="43.02586" lon="42.5446">
        <ele>1483.77823</ele>
        <time>2021-08-15T13:54:56.254Z</time>
      </trkpt>
      <trkpt lat="43.02482" lon="42.54483">
        <ele>1484.540037</ele>
        <time>2021-08-15T13:55:16.626Z</time>
      </trkpt>
      <trkpt lat="43.02452" lon="42.5448">
        <ele>1482.851657</ele>
        <time>2021-08-15T13:55:21.433Z</time>
      </trkpt>
      <trkpt lat="43.02436" lon="42.54473">
        <ele>1481.843548</ele>
        <time>2021-08-15T13:55:23.903Z</time>
      </trkpt>
      <trkpt lat="43.02377" lon="42.54416">
        <ele>1477.556132</ele>
        <time>2021-08-15T13:55:34.765Z</time>
      </trkpt>
      <trkpt lat="43.02363" lon="42.54408">
        <ele>1476.650679</ele>
        <time>2021-08-15T13:55:37.190Z</time>
      </trkpt>
      <trkpt lat="43.02345" lon="42.54409">
        <ele>1475.588352</ele>
        <time>2021-08-15T13:55:39.738Z</time>
      </trkpt>
      <trkpt lat="43.0233" lon="42.54418">
        <ele>1474.620443</ele>
        <time>2021-08-15T13:55:42.236Z</time>
      </trkpt>
      <trkpt lat="43.02319" lon="42.54452">
        <ele>1473.353812</ele>
        <time>2021-08-15T13:55:46.264Z</time>
      </trkpt>
      <trkpt lat="43.02314" lon="42.54485">
        <ele>1472.498992</ele>
        <time>2021-08-15T13:55:50.239Z</time>
      </trkpt>
      <trkpt lat="43.02316" lon="42.54551">
        <ele>1470.826395</ele>
        <time>2021-08-15T13:55:59.175Z</time>
      </trkpt>
      <trkpt lat="43.02327" lon="42.54618">
        <ele>1469.091629</ele>
        <time>2021-08-15T13:56:08.171Z</time>
      </trkpt>
      <trkpt lat="43.02317" lon="42.54667">
        <ele>1467.813675</ele>
        <time>2021-08-15T13:56:14.744Z</time>
      </trkpt>
      <trkpt lat="43.02301" lon="42.54697">
        <ele>1467.037304</ele>
        <time>2021-08-15T13:56:19.340Z</time>
      </trkpt>
      <trkpt lat="43.0229" lon="42.54713">
        <ele>1466.59645</ele>
        <time>2021-08-15T13:56:23.337Z</time>
      </trkpt>
      <trkpt lat="43.02233" lon="42.54761">
        <ele>1464.753828</ele>
        <time>2021-08-15T13:56:34.853Z</time>
      </trkpt>
      <trkpt lat="43.02175" lon="42.54855">
        <ele>1462.876572</ele>
        <time>2021-08-15T13:56:50.451Z</time>
      </trkpt>
      <trkpt lat="43.02171" lon="42.54884">
        <ele>1463.07214</ele>
        <time>2021-08-15T13:56:53.845Z</time>
      </trkpt>
      <trkpt lat="43.02177" lon="42.54968">
        <ele>1463.651533</ele>
        <time>2021-08-15T13:57:07.292Z</time>
      </trkpt>
      <trkpt lat="43.02175" lon="42.55092">
        <ele>1464.519653</ele>
        <time>2021-08-15T13:57:46.577Z</time>
      </trkpt>
      <trkpt lat="43.0217" lon="42.5512">
        <ele>1464.766432</ele>
        <time>2021-08-15T13:57:55.304Z</time>
      </trkpt>
      <trkpt lat="43.02152" lon="42.55177">
        <ele>1465.316924</ele>
        <time>2021-08-15T13:58:14.766Z</time>
      </trkpt>
      <trkpt lat="43.02158" lon="42.55277">
        <ele>1466.189998</ele>
        <time>2021-08-15T13:58:35.984Z</time>
      </trkpt>
      <trkpt lat="43.02148" lon="42.55291">
        <ele>1466.36268</ele>
        <time>2021-08-15T13:58:41.419Z</time>
      </trkpt>
      <trkpt lat="43.02139" lon="42.55292">
        <ele>1466.467111</ele>
        <time>2021-08-15T13:58:42.678Z</time>
      </trkpt>
      <trkpt lat="43.02117" lon="42.55272">
        <ele>1464.487636</ele>
        <time>2021-08-15T13:58:48.185Z</time>
      </trkpt>
      <trkpt lat="43.02055" lon="42.55157">
        <ele>1453.303822</ele>
        <time>2021-08-15T13:59:02.737Z</time>
      </trkpt>
      <trkpt lat="43.02036" lon="42.55135">
        <ele>1450.667508</ele>
        <time>2021-08-15T13:59:06.029Z</time>
      </trkpt>
      <trkpt lat="43.02023" lon="42.55127">
        <ele>1449.11241</ele>
        <time>2021-08-15T13:59:08.034Z</time>
      </trkpt>
      <trkpt lat="43.02011" lon="42.55128">
        <ele>1447.861118</ele>
        <time>2021-08-15T13:59:09.582Z</time>
      </trkpt>
      <trkpt lat="43.01996" lon="42.55142">
        <ele>1445.702548</ele>
        <time>2021-08-15T13:59:12.089Z</time>
      </trkpt>
      <trkpt lat="43.01986" lon="42.55175">
        <ele>1442.58423</ele>
        <time>2021-08-15T13:59:15.617Z</time>
      </trkpt>
      <trkpt lat="43.01991" lon="42.55242">
        <ele>1436.684221</ele>
        <time>2021-08-15T13:59:22.358Z</time>
      </trkpt>
      <trkpt lat="43.02006" lon="42.55347">
        <ele>1427.282533</ele>
        <time>2021-08-15T13:59:33.235Z</time>
      </trkpt>
      <trkpt lat="43.02007" lon="42.55422">
        <ele>1423.008875</ele>
        <time>2021-08-15T13:59:41.662Z</time>
      </trkpt>
      <trkpt lat="43.01992" lon="42.55535">
        <ele>1417.527005</ele>
        <time>2021-08-15T13:59:54.731Z</time>
      </trkpt>
      <trkpt lat="43.01999" lon="42.55669">
        <ele>1410.993738</ele>
        <time>2021-08-15T14:00:09.837Z</time>
      </trkpt>
      <trkpt lat="43.02011" lon="42.55747">
        <ele>1407.029914</ele>
        <time>2021-08-15T14:00:18.685Z</time>
      </trkpt>
      <trkpt lat="43.02024" lon="42.55829">
        <ele>1402.848163</ele>
        <time>2021-08-15T14:00:27.863Z</time>
      </trkpt>
      <trkpt lat="43.02044" lon="42.55885">
        <ele>1399.322091</ele>
        <time>2021-08-15T14:00:34.673Z</time>
      </trkpt>
      <trkpt lat="43.02067" lon="42.5593">
        <ele>1396.020573</ele>
        <time>2021-08-15T14:00:40.627Z</time>
      </trkpt>
      <trkpt lat="43.02099" lon="42.56031">
        <ele>1389.48922</ele>
        <time>2021-08-15T14:00:52.417Z</time>
      </trkpt>
      <trkpt lat="43.0211" lon="42.56101">
        <ele>1384.750513</ele>
        <time>2021-08-15T14:01:00.079Z</time>
      </trkpt>
      <trkpt lat="43.02107" lon="42.56131">
        <ele>1382.579549</ele>
        <time>2021-08-15T14:01:03.184Z</time>
      </trkpt>
      <trkpt lat="43.02095" lon="42.56154">
        <ele>1380.490073</ele>
        <time>2021-08-15T14:01:06.148Z</time>
      </trkpt>
      <trkpt lat="43.02079" lon="42.56166">
        <ele>1378.636639</ele>
        <time>2021-08-15T14:01:08.756Z</time>
      </trkpt>
      <trkpt lat="43.02061" lon="42.56164">
        <ele>1376.82108</ele>
        <time>2021-08-15T14:01:11.331Z</time>
      </trkpt>
      <trkpt lat="43.02012" lon="42.56141">
        <ele>1371.636098</ele>
        <time>2021-08-15T14:01:18.637Z</time>
      </trkpt>
      <trkpt lat="43.01968" lon="42.56101">
        <ele>1365.942264</ele>
        <time>2021-08-15T14:01:26.015Z</time>
      </trkpt>
      <trkpt lat="43.01954" lon="42.561">
        <ele>1364.390161</ele>
        <time>2021-08-15T14:01:27.930Z</time>
      </trkpt>
      <trkpt lat="43.0195" lon="42.56117">
        <ele>1362.966206</ele>
        <time>2021-08-15T14:01:29.679Z</time>
      </trkpt>
      <trkpt lat="43.01952" lon="42.56133">
        <ele>1361.566292</ele>
        <time>2021-08-15T14:01:31.411Z</time>
      </trkpt>
      <trkpt lat="43.01967" lon="42.56161">
        <ele>1358.707206</ele>
        <time>2021-08-15T14:01:34.949Z</time>
      </trkpt>
      <trkpt lat="43.01987" lon="42.56182">
        <ele>1355.878337</ele>
        <time>2021-08-15T14:01:38.474Z</time>
      </trkpt>
      <trkpt lat="43.02007" lon="42.56194">
        <ele>1353.420373</ele>
        <time>2021-08-15T14:01:41.528Z</time>
      </trkpt>
      <trkpt lat="43.02023" lon="42.562">
        <ele>1351.566147</ele>
        <time>2021-08-15T14:01:43.847Z</time>
      </trkpt>
      <trkpt lat="43.02042" lon="42.56212">
        <ele>1349.254923</ele>
        <time>2021-08-15T14:01:46.732Z</time>
      </trkpt>
      <trkpt lat="43.02093" lon="42.56285">
        <ele>1342.223956</ele>
        <time>2021-08-15T14:01:57.196Z</time>
      </trkpt>
      <trkpt lat="43.02162" lon="42.56373">
        <ele>1333.347618</ele>
        <time>2021-08-15T14:02:10.739Z</time>
      </trkpt>
      <trkpt lat="43.02231" lon="42.56476">
        <ele>1325.592827</ele>
        <time>2021-08-15T14:02:25.838Z</time>
      </trkpt>
      <trkpt lat="43.02257" lon="42.56531">
        <ele>1322.098954</ele>
        <time>2021-08-15T14:02:33.075Z</time>
      </trkpt>
      <trkpt lat="43.02318" lon="42.5662">
        <ele>1316.015389</ele>
        <time>2021-08-15T14:02:46.677Z</time>
      </trkpt>
      <trkpt lat="43.02373" lon="42.56662">
        <ele>1311.969038</ele>
        <time>2021-08-15T14:02:56.466Z</time>
      </trkpt>
      <trkpt lat="43.02386" lon="42.5668">
        <ele>1310.787708</ele>
        <time>2021-08-15T14:02:59.313Z</time>
      </trkpt>
      <trkpt lat="43.02459" lon="42.56832">
        <ele>1301.22482</ele>
        <time>2021-08-15T14:03:19.318Z</time>
      </trkpt>
      <trkpt lat="43.02496" lon="42.56945">
        <ele>1294.260089</ele>
        <time>2021-08-15T14:03:32.502Z</time>
      </trkpt>
      <trkpt lat="43.02539" lon="42.56993">
        <ele>1289.810785</ele>
        <time>2021-08-15T14:03:40.686Z</time>
      </trkpt>
      <trkpt lat="43.0258" lon="42.57063">
        <ele>1284.655314</ele>
        <time>2021-08-15T14:03:50.117Z</time>
      </trkpt>
      <trkpt lat="43.0263" lon="42.57229">
        <ele>1276.148734</ele>
        <time>2021-08-15T14:04:09.834Z</time>
      </trkpt>
      <trkpt lat="43.02663" lon="42.57323">
        <ele>1272.551744</ele>
        <time>2021-08-15T14:04:22.213Z</time>
      </trkpt>
      <trkpt lat="43.02673" lon="42.5734">
        <ele>1271.782098</ele>
        <time>2021-08-15T14:04:25.066Z</time>
      </trkpt>
      <trkpt lat="43.02685" lon="42.57354">
        <ele>1271.042686</ele>
        <time>2021-08-15T14:04:27.699Z</time>
      </trkpt>
      <trkpt lat="43.02718" lon="42.57381">
        <ele>1270.225528</ele>
        <time>2021-08-15T14:04:34.762Z</time>
      </trkpt>
      <trkpt lat="43.02768" lon="42.57422">
        <ele>1269.552549</ele>
        <time>2021-08-15T14:04:46.464Z</time>
      </trkpt>
      <trkpt lat="43.02847" lon="42.57532">
        <ele>1268.191306</ele>
        <time>2021-08-15T14:05:10.342Z</time>
      </trkpt>
      <trkpt lat="43.02883" lon="42.57601">
        <ele>1267.211027</ele>
        <time>2021-08-15T14:05:22.087Z</time>
      </trkpt>
      <trkpt lat="43.02896" lon="42.57635">
        <ele>1266.777833</ele>
        <time>2021-08-15T14:05:27.159Z</time>
      </trkpt>
      <trkpt lat="43.02901" lon="42.57667">
        <ele>1266.394637</ele>
        <time>2021-08-15T14:05:31.628Z</time>
      </trkpt>
      <trkpt lat="43.02893" lon="42.57759">
        <ele>1265.608862</ele>
        <time>2021-08-15T14:05:43.972Z</time>
      </trkpt>
      <trkpt lat="43.02892" lon="42.57827">
        <ele>1265.473411</ele>
        <time>2021-08-15T14:05:53.517Z</time>
      </trkpt>
      <trkpt lat="43.02901" lon="42.5789">
        <ele>1265.346844</ele>
        <time>2021-08-15T14:06:03.132Z</time>
      </trkpt>
      <trkpt lat="43.02914" lon="42.57911">
        <ele>1265.292461</ele>
        <time>2021-08-15T14:06:07.755Z</time>
      </trkpt>
      <trkpt lat="43.0297" lon="42.57979">
        <ele>1267.162101</ele>
        <time>2021-08-15T14:06:31.210Z</time>
      </trkpt>
      <trkpt lat="43.02989" lon="42.58019">
        <ele>1269.278149</ele>
        <time>2021-08-15T14:06:44.655Z</time>
      </trkpt>
      <trkpt lat="43.03015" lon="42.581">
        <ele>1273.212751</ele>
        <time>2021-08-15T14:07:19.745Z</time>
      </trkpt>
      <trkpt lat="43.03036" lon="42.58143">
        <ele>1275.505988</ele>
        <time>2021-08-15T14:07:48.426Z</time>
      </trkpt>
      <trkpt lat="43.03092" lon="42.58205">
        <ele>1282.256922</ele>
        <time>2021-08-15T14:08:43.442Z</time>
      </trkpt>
      <trkpt lat="43.03096" lon="42.58216">
        <ele>1283.127257</ele>
        <time>2021-08-15T14:08:51.269Z</time>
      </trkpt>
      <trkpt lat="43.03098" lon="42.58225">
        <ele>1283.843282</ele>
        <time>2021-08-15T14:08:57.129Z</time>
      </trkpt>
      <trkpt lat="43.0309" lon="42.58254">
        <ele>1286.064469</ele>
        <time>2021-08-15T14:09:13.069Z</time>
      </trkpt>
      <trkpt lat="43.03086" lon="42.5826">
        <ele>1286.63518</ele>
        <time>2021-08-15T14:09:18.201Z</time>
      </trkpt>
      <trkpt lat="43.0308" lon="42.58262">
        <ele>1287.234055</ele>
        <time>2021-08-15T14:09:23.492Z</time>
      </trkpt>
      <trkpt lat="43.03061" lon="42.58253">
        <ele>1289.219037</ele>
        <time>2021-08-15T14:09:36.949Z</time>
      </trkpt>
      <trkpt lat="43.02935" lon="42.58161">
        <ele>1298.786093</ele>
        <time>2021-08-15T14:11:09.855Z</time>
      </trkpt>
      <trkpt lat="43.02823" lon="42.58055">
        <ele>1303.547416</ele>
        <time>2021-08-15T14:11:50.553Z</time>
      </trkpt>
      <trkpt lat="43.02785" lon="42.58002">
        <ele>1304.047684</ele>
        <time>2021-08-15T14:12:04.369Z</time>
      </trkpt>
      <trkpt lat="43.02719" lon="42.57937">
        <ele>1304.879302</ele>
        <time>2021-08-15T14:12:25.648Z</time>
      </trkpt>
      <trkpt lat="43.02523" lon="42.57727">
        <ele>1310.654987</ele>
        <time>2021-08-15T14:13:49.161Z</time>
      </trkpt>
      <trkpt lat="43.02492" lon="42.57682">
        <ele>1312.168834</ele>
        <time>2021-08-15T14:14:08.937Z</time>
      </trkpt>
      <trkpt lat="43.0246" lon="42.57613">
        <ele>1314.16966</ele>
        <time>2021-08-15T14:14:36.155Z</time>
      </trkpt>
      <trkpt lat="43.02296" lon="42.57373">
        <ele>1324.528571</ele>
        <time>2021-08-15T14:16:23.813Z</time>
      </trkpt>
      <trkpt lat="43.02268" lon="42.57299">
        <ele>1327.100303</ele>
        <time>2021-08-15T14:16:49.019Z</time>
      </trkpt>
      <trkpt lat="43.02248" lon="42.57262">
        <ele>1328.526375</ele>
        <time>2021-08-15T14:17:03.856Z</time>
      </trkpt>
      <trkpt lat="43.02213" lon="42.57223">
        <ele>1330.774873</ele>
        <time>2021-08-15T14:17:24.807Z</time>
      </trkpt>
      <trkpt lat="43.02066" lon="42.57116">
        <ele>1339.966517</ele>
        <time>2021-08-15T14:18:53.093Z</time>
      </trkpt>
      <trkpt lat="43.02014" lon="42.57067">
        <ele>1342.421464</ele>
        <time>2021-08-15T14:19:26.310Z</time>
      </trkpt>
      <trkpt lat="43.01911" lon="42.56938">
        <ele>1346.48284</ele>
        <time>2021-08-15T14:20:18.145Z</time>
      </trkpt>
      <trkpt lat="43.01864" lon="42.56901">
        <ele>1346.259682</ele>
        <time>2021-08-15T14:20:30.202Z</time>
      </trkpt>
      <trkpt lat="43.01845" lon="42.56866">
        <ele>1346.129897</ele>
        <time>2021-08-15T14:20:36.744Z</time>
      </trkpt>
      <trkpt lat="43.01823" lon="42.56797">
        <ele>1345.90414</ele>
        <time>2021-08-15T14:20:47.562Z</time>
      </trkpt>
      <trkpt lat="43.01772" lon="42.56679">
        <ele>1343.406026</ele>
        <time>2021-08-15T14:21:06.112Z</time>
      </trkpt>
      <trkpt lat="43.01757" lon="42.56657">
        <ele>1342.838502</ele>
        <time>2021-08-15T14:21:10.028Z</time>
      </trkpt>
      <trkpt lat="43.01694" lon="42.56605">
        <ele>1340.808699</ele>
        <time>2021-08-15T14:21:23.376Z</time>
      </trkpt>
      <trkpt lat="43.01651" lon="42.56571">
        <ele>1338.884515</ele>
        <time>2021-08-15T14:21:32.717Z</time>
      </trkpt>
      <trkpt lat="43.01618" lon="42.56548">
        <ele>1337.456691</ele>
        <time>2021-08-15T14:21:39.806Z</time>
      </trkpt>
      <trkpt lat="43.01549" lon="42.56519">
        <ele>1334.709348</ele>
        <time>2021-08-15T14:21:51.771Z</time>
      </trkpt>
      <trkpt lat="43.01472" lon="42.56504">
        <ele>1329.003632</ele>
        <time>2021-08-15T14:22:04.209Z</time>
      </trkpt>
      <trkpt lat="43.01449" lon="42.56501">
        <ele>1327.190064</ele>
        <time>2021-08-15T14:22:07.694Z</time>
      </trkpt>
      <trkpt lat="43.01388" lon="42.56496">
        <ele>1322.329546</ele>
        <time>2021-08-15T14:22:17.040Z</time>
      </trkpt>
      <trkpt lat="43.01328" lon="42.56517">
        <ele>1317.124536</ele>
        <time>2021-08-15T14:22:26.279Z</time>
      </trkpt>
      <trkpt lat="43.01278" lon="42.56568">
        <ele>1311.740629</ele>
        <time>2021-08-15T14:22:35.449Z</time>
      </trkpt>
      <trkpt lat="43.01231" lon="42.56642">
        <ele>1305.488384</ele>
        <time>2021-08-15T14:22:46.477Z</time>
      </trkpt>
      <trkpt lat="43.01168" lon="42.56779">
        <ele>1300.945257</ele>
        <time>2021-08-15T14:23:06.145Z</time>
      </trkpt>
      <trkpt lat="43.01159" lon="42.56924">
        <ele>1299.395227</ele>
        <time>2021-08-15T14:23:29.795Z</time>
      </trkpt>
      <trkpt lat="43.01178" lon="42.56997">
        <ele>1300.959986</ele>
        <time>2021-08-15T14:23:49.792Z</time>
      </trkpt>
      <trkpt lat="43.01193" lon="42.57172">
        <ele>1305.513659</ele>
        <time>2021-08-15T14:24:47.012Z</time>
      </trkpt>
      <trkpt lat="43.01194" lon="42.57279">
        <ele>1309.764327</ele>
        <time>2021-08-15T14:25:26.524Z</time>
      </trkpt>
      <trkpt lat="43.01183" lon="42.57438">
        <ele>1317.115455</ele>
        <time>2021-08-15T14:26:29.470Z</time>
      </trkpt>
      <trkpt lat="43.01206" lon="42.57526">
        <ele>1322.161641</ele>
        <time>2021-08-15T14:27:12.638Z</time>
      </trkpt>
      <trkpt lat="43.01206" lon="42.57544">
        <ele>1323.144251</ele>
        <time>2021-08-15T14:27:21.180Z</time>
      </trkpt>
      <trkpt lat="43.0119" lon="42.57591">
        <ele>1325.94692</ele>
        <time>2021-08-15T14:27:45.081Z</time>
      </trkpt>
      <trkpt lat="43.01165" lon="42.57637">
        <ele>1329.319822</ele>
        <time>2021-08-15T14:28:10.823Z</time>
      </trkpt>
      <trkpt lat="43.01162" lon="42.57677">
        <ele>1331.772399</ele>
        <time>2021-08-15T14:28:29.811Z</time>
      </trkpt>
      <trkpt lat="43.01186" lon="42.57769">
        <ele>1337.658652</ele>
        <time>2021-08-15T14:29:18.624Z</time>
      </trkpt>
      <trkpt lat="43.01186" lon="42.5779">
        <ele>1338.938615</ele>
        <time>2021-08-15T14:29:29.217Z</time>
      </trkpt>
      <trkpt lat="43.0117" lon="42.57817">
        <ele>1341.011929</ele>
        <time>2021-08-15T14:29:45.694Z</time>
      </trkpt>
      <trkpt lat="43.0114" lon="42.57838">
        <ele>1342.995452</ele>
        <time>2021-08-15T14:30:05.541Z</time>
      </trkpt>
      <trkpt lat="43.01124" lon="42.57859">
        <ele>1344.247259</ele>
        <time>2021-08-15T14:30:17.779Z</time>
      </trkpt>
      <trkpt lat="43.0109" lon="42.57955">
        <ele>1348.56965</ele>
        <time>2021-08-15T14:30:57.023Z</time>
      </trkpt>
      <trkpt lat="43.0108" lon="42.58094">
        <ele>1351.516217</ele>
        <time>2021-08-15T14:31:40.970Z</time>
      </trkpt>
      <trkpt lat="43.0107" lon="42.58106">
        <ele>1351.563481</ele>
        <time>2021-08-15T14:31:44.915Z</time>
      </trkpt>
      <trkpt lat="43.01024" lon="42.58124">
        <ele>1351.726178</ele>
        <time>2021-08-15T14:31:55.049Z</time>
      </trkpt>
      <trkpt lat="43.01004" lon="42.58147">
        <ele>1351.814756</ele>
        <time>2021-08-15T14:32:00.060Z</time>
      </trkpt>
      <trkpt lat="43.00976" lon="42.58212">
        <ele>1351.407709</ele>
        <time>2021-08-15T14:32:10.640Z</time>
      </trkpt>
      <trkpt lat="43.00958" lon="42.58306">
        <ele>1348.845494</ele>
        <time>2021-08-15T14:32:23.938Z</time>
      </trkpt>
      <trkpt lat="43.00932" lon="42.58363">
        <ele>1347.072762</ele>
        <time>2021-08-15T14:32:32.338Z</time>
      </trkpt>
      <trkpt lat="43.00937" lon="42.58474">
        <ele>1343.257746</ele>
        <time>2021-08-15T14:32:45.793Z</time>
      </trkpt>
      <trkpt lat="43.0093" lon="42.58553">
        <ele>1339.755631</ele>
        <time>2021-08-15T14:32:55.336Z</time>
      </trkpt>
      <trkpt lat="43.00934" lon="42.58599">
        <ele>1337.70214</ele>
        <time>2021-08-15T14:33:00.875Z</time>
      </trkpt>
      <trkpt lat="43.00929" lon="42.58635">
        <ele>1336.093513</ele>
        <time>2021-08-15T14:33:05.159Z</time>
      </trkpt>
      <trkpt lat="43.00896" lon="42.5874">
        <ele>1330.371559</ele>
        <time>2021-08-15T14:33:18.118Z</time>
      </trkpt>
      <trkpt lat="43.00891" lon="42.58778">
        <ele>1328.31243</ele>
        <time>2021-08-15T14:33:22.494Z</time>
      </trkpt>
      <trkpt lat="43.00893" lon="42.58809">
        <ele>1326.665615</ele>
        <time>2021-08-15T14:33:26.030Z</time>
      </trkpt>
      <trkpt lat="43.00916" lon="42.58859">
        <ele>1323.564493</ele>
        <time>2021-08-15T14:33:32.803Z</time>
      </trkpt>
      <trkpt lat="43.00934" lon="42.58881">
        <ele>1321.826068</ele>
        <time>2021-08-15T14:33:36.714Z</time>
      </trkpt>
      <trkpt lat="43.00978" lon="42.5891">
        <ele>1319.968255</ele>
        <time>2021-08-15T14:33:44.622Z</time>
      </trkpt>
      <trkpt lat="43.01011" lon="42.58948">
        <ele>1318.389115</ele>
        <time>2021-08-15T14:33:51.801Z</time>
      </trkpt>
      <trkpt lat="43.01039" lon="42.59003">
        <ele>1316.584689</ele>
        <time>2021-08-15T14:34:00.528Z</time>
      </trkpt>
      <trkpt lat="43.01058" lon="42.59058">
        <ele>1315.098288</ele>
        <time>2021-08-15T14:34:09.470Z</time>
      </trkpt>
      <trkpt lat="43.01067" lon="42.5907">
        <ele>1315.252271</ele>
        <time>2021-08-15T14:34:12.575Z</time>
      </trkpt>
      <trkpt lat="43.0108" lon="42.59075">
        <ele>1315.40979</ele>
        <time>2021-08-15T14:34:16.511Z</time>
      </trkpt>
      <trkpt lat="43.01105" lon="42.59069">
        <ele>1315.713178</ele>
        <time>2021-08-15T14:34:23.853Z</time>
      </trkpt>
      <trkpt lat="43.01128" lon="42.59074">
        <ele>1315.992472</ele>
        <time>2021-08-15T14:34:31.041Z</time>
      </trkpt>
      <trkpt lat="43.01192" lon="42.59156">
        <ele>1317.04308</ele>
        <time>2021-08-15T14:34:59.367Z</time>
      </trkpt>
      <trkpt lat="43.01299" lon="42.59171">
        <ele>1317.986538</ele>
        <time>2021-08-15T14:35:36.336Z</time>
      </trkpt>
      <trkpt lat="43.01337" lon="42.59194">
        <ele>1318.328306</ele>
        <time>2021-08-15T14:35:46.623Z</time>
      </trkpt>
      <trkpt lat="43.01344" lon="42.5921">
        <ele>1318.446421</ele>
        <time>2021-08-15T14:35:49.640Z</time>
      </trkpt>
      <trkpt lat="43.01344" lon="42.59231">
        <ele>1318.572641</ele>
        <time>2021-08-15T14:35:52.791Z</time>
      </trkpt>
      <trkpt lat="43.0133" lon="42.59313">
        <ele>1317.875429</ele>
        <time>2021-08-15T14:36:04.919Z</time>
      </trkpt>
      <trkpt lat="43.01336" lon="42.59339">
        <ele>1317.501654</ele>
        <time>2021-08-15T14:36:08.803Z</time>
      </trkpt>
      <trkpt lat="43.01376" lon="42.59438">
        <ele>1315.953952</ele>
        <time>2021-08-15T14:36:24.440Z</time>
      </trkpt>
      <trkpt lat="43.0142" lon="42.5959">
        <ele>1314.537835</ele>
        <time>2021-08-15T14:36:47.790Z</time>
      </trkpt>
      <trkpt lat="43.01442" lon="42.59696">
        <ele>1313.794485</ele>
        <time>2021-08-15T14:37:05.939Z</time>
      </trkpt>
      <trkpt lat="43.0146" lon="42.59756">
        <ele>1313.958068</ele>
        <time>2021-08-15T14:37:17.837Z</time>
      </trkpt>
      <trkpt lat="43.01494" lon="42.598">
        <ele>1314.317566</ele>
        <time>2021-08-15T14:37:30.532Z</time>
      </trkpt>
      <trkpt lat="43.01548" lon="42.59854">
        <ele>1314.835628</ele>
        <time>2021-08-15T14:37:49.942Z</time>
      </trkpt>
      <trkpt lat="43.01559" lon="42.59877">
        <ele>1314.990798</ele>
        <time>2021-08-15T14:37:55.649Z</time>
      </trkpt>
      <trkpt lat="43.01564" lon="42.59904">
        <ele>1315.222392</ele>
        <time>2021-08-15T14:38:01.464Z</time>
      </trkpt>
      <trkpt lat="43.01563" lon="42.59995">
        <ele>1316.222043</ele>
        <time>2021-08-15T14:38:19.737Z</time>
      </trkpt>
      <trkpt lat="43.01625" lon="42.60169">
        <ele>1318.535194</ele>
        <time>2021-08-15T14:39:05.905Z</time>
      </trkpt>
      <trkpt lat="43.01636" lon="42.6033">
        <ele>1320.861078</ele>
        <time>2021-08-15T14:39:45.524Z</time>
      </trkpt>
      <trkpt lat="43.01666" lon="42.60388">
        <ele>1321.204375</ele>
        <time>2021-08-15T14:40:03.329Z</time>
      </trkpt>
      <trkpt lat="43.01671" lon="42.60415">
        <ele>1321.114561</ele>
        <time>2021-08-15T14:40:09.762Z</time>
      </trkpt>
      <trkpt lat="43.01656" lon="42.6045">
        <ele>1320.982286</ele>
        <time>2021-08-15T14:40:17.762Z</time>
      </trkpt>
      <trkpt lat="43.01624" lon="42.60479">
        <ele>1320.810294</ele>
        <time>2021-08-15T14:40:26.164Z</time>
      </trkpt>
      <trkpt lat="43.01608" lon="42.60513">
        <ele>1320.679685</ele>
        <time>2021-08-15T14:40:31.896Z</time>
      </trkpt>
      <trkpt lat="43.01572" lon="42.60569">
        <ele>1319.557196</ele>
        <time>2021-08-15T14:40:41.850Z</time>
      </trkpt>
      <trkpt lat="43.01521" lon="42.60717">
        <ele>1313.995504</ele>
        <time>2021-08-15T14:41:01.987Z</time>
      </trkpt>
      <trkpt lat="43.01479" lon="42.608">
        <ele>1310.663894</ele>
        <time>2021-08-15T14:41:13.832Z</time>
      </trkpt>
      <trkpt lat="43.01457" lon="42.61017">
        <ele>1303.83668</ele>
        <time>2021-08-15T14:41:41.375Z</time>
      </trkpt>
      <trkpt lat="43.01455" lon="42.61071">
        <ele>1302.680822</ele>
        <time>2021-08-15T14:41:48.830Z</time>
      </trkpt>
      <trkpt lat="43.01459" lon="42.61101">
        <ele>1302.036529</ele>
        <time>2021-08-15T14:41:53.755Z</time>
      </trkpt>
      <trkpt lat="43.01481" lon="42.61175">
        <ele>1300.333154</ele>
        <time>2021-08-15T14:42:03.968Z</time>
      </trkpt>
      <trkpt lat="43.01486" lon="42.61193">
        <ele>1299.919701</ele>
        <time>2021-08-15T14:42:06.898Z</time>
      </trkpt>
      <trkpt lat="43.01488" lon="42.61204">
        <ele>1299.692359</ele>
        <time>2021-08-15T14:42:08.087Z</time>
      </trkpt>
      <trkpt lat="43.01487" lon="42.61232">
        <ele>1299.076141</ele>
        <time>2021-08-15T14:42:12.480Z</time>
      </trkpt>
      <trkpt lat="43.01482" lon="42.61247">
        <ele>1298.859571</ele>
        <time>2021-08-15T14:42:14.542Z</time>
      </trkpt>
      <trkpt lat="43.01469" lon="42.6126">
        <ele>1298.597659</ele>
        <time>2021-08-15T14:42:17.593Z</time>
      </trkpt>
      <trkpt lat="43.01435" lon="42.6128">
        <ele>1297.991543</ele>
        <time>2021-08-15T14:42:24.673Z</time>
      </trkpt>
      <trkpt lat="43.01425" lon="42.61301">
        <ele>1297.687784</ele>
        <time>2021-08-15T14:42:28.234Z</time>
      </trkpt>
      <trkpt lat="43.01422" lon="42.61327">
        <ele>1297.370686</ele>
        <time>2021-08-15T14:42:32.061Z</time>
      </trkpt>
      <trkpt lat="43.01423" lon="42.61428">
        <ele>1296.15719</ele>
        <time>2021-08-15T14:42:46.624Z</time>
      </trkpt>
      <trkpt lat="43.01429" lon="42.61505">
        <ele>1297.21219</ele>
        <time>2021-08-15T14:43:01.361Z</time>
      </trkpt>
      <trkpt lat="43.01445" lon="42.61574">
        <ele>1298.360187</ele>
        <time>2021-08-15T14:43:21.107Z</time>
      </trkpt>
      <trkpt lat="43.01444" lon="42.61605">
        <ele>1298.853987</ele>
        <time>2021-08-15T14:43:30.391Z</time>
      </trkpt>
      <trkpt lat="43.01438" lon="42.61625">
        <ele>1299.205978</ele>
        <time>2021-08-15T14:43:36.150Z</time>
      </trkpt>
      <trkpt lat="43.01425" lon="42.61651">
        <ele>1299.70137</ele>
        <time>2021-08-15T14:43:45.728Z</time>
      </trkpt>
      <trkpt lat="43.01417" lon="42.61667">
        <ele>1300.007535</ele>
        <time>2021-08-15T14:43:51.108Z</time>
      </trkpt>
      <trkpt lat="43.01351" lon="42.6182">
        <ele>1304.817913</ele>
        <time>2021-08-15T14:44:48.710Z</time>
      </trkpt>
      <trkpt lat="43.01344" lon="42.61866">
        <ele>1306.069879</ele>
        <time>2021-08-15T14:45:01.824Z</time>
      </trkpt>
      <trkpt lat="43.01333" lon="42.61947">
        <ele>1307.749018</ele>
        <time>2021-08-15T14:45:24.089Z</time>
      </trkpt>
      <trkpt lat="43.01321" lon="42.62001">
        <ele>1308.786049</ele>
        <time>2021-08-15T14:45:38.883Z</time>
      </trkpt>
      <trkpt lat="43.01316" lon="42.6203">
        <ele>1309.330311</ele>
        <time>2021-08-15T14:45:46.326Z</time>
      </trkpt>
      <trkpt lat="43.01313" lon="42.62046">
        <ele>1309.625829</ele>
        <time>2021-08-15T14:45:50.428Z</time>
      </trkpt>
      <trkpt lat="43.0131" lon="42.62064">
        <ele>1309.963942</ele>
        <time>2021-08-15T14:45:54.840Z</time>
      </trkpt>
      <trkpt lat="43.01306" lon="42.621">
        <ele>1310.639371</ele>
        <time>2021-08-15T14:46:02.831Z</time>
      </trkpt>
      <trkpt lat="43.01301" lon="42.62167">
        <ele>1312.247812</ele>
        <time>2021-08-15T14:46:22.094Z</time>
      </trkpt>
      <trkpt lat="43.013" lon="42.62187">
        <ele>1312.817428</ele>
        <time>2021-08-15T14:46:26.543Z</time>
      </trkpt>
      <trkpt lat="43.01302" lon="42.62245">
        <ele>1314.440417</ele>
        <time>2021-08-15T14:46:43.895Z</time>
      </trkpt>
      <trkpt lat="43.01315" lon="42.62299">
        <ele>1316.043</ele>
        <time>2021-08-15T14:47:02.200Z</time>
      </trkpt>
      <trkpt lat="43.01318" lon="42.6231">
        <ele>1316.370367</ele>
        <time>2021-08-15T14:47:08.044Z</time>
      </trkpt>
      <trkpt lat="43.01353" lon="42.62373">
        <ele>1318.645556</ele>
        <time>2021-08-15T14:47:34.679Z</time>
      </trkpt>
      <trkpt lat="43.01376" lon="42.62407">
        <ele>1320.053585</ele>
        <time>2021-08-15T14:47:51.055Z</time>
      </trkpt>
      <trkpt lat="43.01412" lon="42.62458">
        <ele>1322.209465</ele>
        <time>2021-08-15T14:48:15.518Z</time>
      </trkpt>
      <trkpt lat="43.01422" lon="42.62482">
        <ele>1323.035157</ele>
        <time>2021-08-15T14:48:23.717Z</time>
      </trkpt>
      <trkpt lat="43.01427" lon="42.62499">
        <ele>1323.602642</ele>
        <time>2021-08-15T14:48:28.703Z</time>
      </trkpt>
      <trkpt lat="43.01423" lon="42.6255">
        <ele>1325.154956</ele>
        <time>2021-08-15T14:48:43.373Z</time>
      </trkpt>
      <trkpt lat="43.01419" lon="42.62569">
        <ele>1325.72735</ele>
        <time>2021-08-15T14:48:49.371Z</time>
      </trkpt>
      <trkpt lat="43.01414" lon="42.62616">
        <ele>1326.97138</ele>
        <time>2021-08-15T14:49:02.560Z</time>
      </trkpt>
      <trkpt lat="43.01411" lon="42.62632">
        <ele>1327.415994</ele>
        <time>2021-08-15T14:49:07.869Z</time>
      </trkpt>
      <trkpt lat="43.01394" lon="42.6271">
        <ele>1329.548283</ele>
        <time>2021-08-15T14:49:30.991Z</time>
      </trkpt>
      <trkpt lat="43.01381" lon="42.62745">
        <ele>1330.572663</ele>
        <time>2021-08-15T14:49:43.364Z</time>
      </trkpt>
      <trkpt lat="43.01372" lon="42.62781">
        <ele>1331.577167</ele>
        <time>2021-08-15T14:49:56.023Z</time>
      </trkpt>
      <trkpt lat="43.01329" lon="42.62925">
        <ele>1334.603813</ele>
        <time>2021-08-15T14:50:46.610Z</time>
      </trkpt>
      <trkpt lat="43.01318" lon="42.62989">
        <ele>1335.842898</ele>
        <time>2021-08-15T14:51:00.511Z</time>
      </trkpt>
      <trkpt lat="43.01312" lon="42.63011">
        <ele>1336.28635</ele>
        <time>2021-08-15T14:51:05.824Z</time>
      </trkpt>
      <trkpt lat="43.013" lon="42.63047">
        <ele>1336.100482</ele>
        <time>2021-08-15T14:51:11.896Z</time>
      </trkpt>
      <trkpt lat="43.01278" lon="42.63102">
        <ele>1334.852819</ele>
        <time>2021-08-15T14:51:21.392Z</time>
      </trkpt>
      <trkpt lat="43.01268" lon="42.63129">
        <ele>1334.236076</ele>
        <time>2021-08-15T14:51:25.381Z</time>
      </trkpt>
      <trkpt lat="43.01268" lon="42.63134">
        <ele>1334.135026</ele>
        <time>2021-08-15T14:51:26.123Z</time>
      </trkpt>
      <trkpt lat="43.01265" lon="42.63208">
        <ele>1332.666087</ele>
        <time>2021-08-15T14:51:35.578Z</time>
      </trkpt>
      <trkpt lat="43.01263" lon="42.63236">
        <ele>1332.113755</ele>
        <time>2021-08-15T14:51:38.947Z</time>
      </trkpt>
      <trkpt lat="43.01259" lon="42.63293">
        <ele>1330.267787</ele>
        <time>2021-08-15T14:51:46.034Z</time>
      </trkpt>
      <trkpt lat="43.01259" lon="42.63312">
        <ele>1329.505341</ele>
        <time>2021-08-15T14:51:48.345Z</time>
      </trkpt>
      <trkpt lat="43.0126" lon="42.63373">
        <ele>1327.078471</ele>
        <time>2021-08-15T14:51:55.825Z</time>
      </trkpt>
      <trkpt lat="43.01264" lon="42.63394">
        <ele>1326.226266</ele>
        <time>2021-08-15T14:51:58.492Z</time>
      </trkpt>
      <trkpt lat="43.01273" lon="42.63424">
        <ele>1324.941261</ele>
        <time>2021-08-15T14:52:02.397Z</time>
      </trkpt>
      <trkpt lat="43.01281" lon="42.63451">
        <ele>1323.7881</ele>
        <time>2021-08-15T14:52:05.829Z</time>
      </trkpt>
      <trkpt lat="43.01292" lon="42.63502">
        <ele>1321.620835</ele>
        <time>2021-08-15T14:52:11.761Z</time>
      </trkpt>
      <trkpt lat="43.01307" lon="42.63538">
        <ele>1319.59674</ele>
        <time>2021-08-15T14:52:16.473Z</time>
      </trkpt>
      <trkpt lat="43.01312" lon="42.63549">
        <ele>1319.020084</ele>
        <time>2021-08-15T14:52:17.756Z</time>
      </trkpt>
      <trkpt lat="43.01323" lon="42.63594">
        <ele>1316.745425</ele>
        <time>2021-08-15T14:52:22.953Z</time>
      </trkpt>
      <trkpt lat="43.01329" lon="42.6362">
        <ele>1315.396749</ele>
        <time>2021-08-15T14:52:26.063Z</time>
      </trkpt>
      <trkpt lat="43.01332" lon="42.63647">
        <ele>1314.107241</ele>
        <time>2021-08-15T14:52:28.970Z</time>
      </trkpt>
      <trkpt lat="43.01343" lon="42.6368">
        <ele>1312.335893</ele>
        <time>2021-08-15T14:52:33.065Z</time>
      </trkpt>
      <trkpt lat="43.01373" lon="42.63721">
        <ele>1309.704786</ele>
        <time>2021-08-15T14:52:39.414Z</time>
      </trkpt>
      <trkpt lat="43.01476" lon="42.63984">
        <ele>1301.403296</ele>
        <time>2021-08-15T14:53:14.669Z</time>
      </trkpt>
      <trkpt lat="43.01493" lon="42.64042">
        <ele>1301.316664</ele>
        <time>2021-08-15T14:53:24.171Z</time>
      </trkpt>
      <trkpt lat="43.0152" lon="42.64099">
        <ele>1301.223475</ele>
        <time>2021-08-15T14:53:38.128Z</time>
      </trkpt>
      <trkpt lat="43.01543" lon="42.64132">
        <ele>1301.161422</ele>
        <time>2021-08-15T14:53:50.055Z</time>
      </trkpt>
      <trkpt lat="43.01575" lon="42.64158">
        <ele>1302.6074</ele>
        <time>2021-08-15T14:54:05.933Z</time>
      </trkpt>
      <trkpt lat="43.01598" lon="42.64188">
        <ele>1304.093884</ele>
        <time>2021-08-15T14:54:21.900Z</time>
      </trkpt>
      <trkpt lat="43.0169" lon="42.64335">
        <ele>1310.263424</ele>
        <time>2021-08-15T14:55:28.577Z</time>
      </trkpt>
      <trkpt lat="43.01692" lon="42.64347">
        <ele>1310.579184</ele>
        <time>2021-08-15T14:55:34.043Z</time>
      </trkpt>
      <trkpt lat="43.01692" lon="42.64355">
        <ele>1310.778417</ele>
        <time>2021-08-15T14:55:36.273Z</time>
      </trkpt>
      <trkpt lat="43.01694" lon="42.64376">
        <ele>1311.283825</ele>
        <time>2021-08-15T14:55:41.451Z</time>
      </trkpt>
      <trkpt lat="43.01717" lon="42.6444">
        <ele>1313.023771</ele>
        <time>2021-08-15T14:56:03.042Z</time>
      </trkpt>
      <trkpt lat="43.01738" lon="42.64462">
        <ele>1313.903285</ele>
        <time>2021-08-15T14:56:11.663Z</time>
      </trkpt>
      <trkpt lat="43.01778" lon="42.64486">
        <ele>1315.363744</ele>
        <time>2021-08-15T14:56:27.417Z</time>
      </trkpt>
      <trkpt lat="43.0179" lon="42.64502">
        <ele>1315.743206</ele>
        <time>2021-08-15T14:56:31.399Z</time>
      </trkpt>
      <trkpt lat="43.01795" lon="42.64533">
        <ele>1316.26299</ele>
        <time>2021-08-15T14:56:37.858Z</time>
      </trkpt>
      <trkpt lat="43.01786" lon="42.64611">
        <ele>1317.570985</ele>
        <time>2021-08-15T14:56:56.212Z</time>
      </trkpt>
      <trkpt lat="43.0179" lon="42.64702">
        <ele>1319.0539</ele>
        <time>2021-08-15T14:57:19.632Z</time>
      </trkpt>
      <trkpt lat="43.01772" lon="42.64835">
        <ele>1322.203564</ele>
        <time>2021-08-15T14:57:56.546Z</time>
      </trkpt>
      <trkpt lat="43.01775" lon="42.64852">
        <ele>1322.62848</ele>
        <time>2021-08-15T14:58:01.398Z</time>
      </trkpt>
      <trkpt lat="43.01791" lon="42.64879">
        <ele>1323.485962</ele>
        <time>2021-08-15T14:58:11.497Z</time>
      </trkpt>
      <trkpt lat="43.01824" lon="42.64905">
        <ele>1324.793926</ele>
        <time>2021-08-15T14:58:27.957Z</time>
      </trkpt>
      <trkpt lat="43.01837" lon="42.64921">
        <ele>1325.364412</ele>
        <time>2021-08-15T14:58:35.052Z</time>
      </trkpt>
      <trkpt lat="43.01857" lon="42.6498">
        <ele>1326.871422</ele>
        <time>2021-08-15T14:58:55.324Z</time>
      </trkpt>
      <trkpt lat="43.01865" lon="42.65067">
        <ele>1328.879717</ele>
        <time>2021-08-15T14:59:20.454Z</time>
      </trkpt>
      <trkpt lat="43.01872" lon="42.65088">
        <ele>1329.382669</ele>
        <time>2021-08-15T14:59:26.305Z</time>
      </trkpt>
      <trkpt lat="43.01904" lon="42.65126">
        <ele>1330.704746</ele>
        <time>2021-08-15T14:59:41.108Z</time>
      </trkpt>
      <trkpt lat="43.0193" lon="42.65173">
        <ele>1331.850209</ele>
        <time>2021-08-15T14:59:55.729Z</time>
      </trkpt>
      <trkpt lat="43.01966" lon="42.6521">
        <ele>1332.925047</ele>
        <time>2021-08-15T15:00:09.189Z</time>
      </trkpt>
      <trkpt lat="43.01971" lon="42.65222">
        <ele>1333.175204</ele>
        <time>2021-08-15T15:00:12.056Z</time>
      </trkpt>
      <trkpt lat="43.01988" lon="42.65325">
        <ele>1335.021702</ele>
        <time>2021-08-15T15:00:37.977Z</time>
      </trkpt>
      <trkpt lat="43.01994" lon="42.65417">
        <ele>1337.768076</ele>
        <time>2021-08-15T15:01:06.650Z</time>
      </trkpt>
      <trkpt lat="43.01999" lon="42.65436">
        <ele>1338.457509</ele>
        <time>2021-08-15T15:01:10.546Z</time>
      </trkpt>
      <trkpt lat="43.02005" lon="42.65461">
        <ele>1339.348984</ele>
        <time>2021-08-15T15:01:22.299Z</time>
      </trkpt>
      <trkpt lat="43.02023" lon="42.65506">
        <ele>1341.085358</ele>
        <time>2021-08-15T15:01:39.978Z</time>
      </trkpt>
      <trkpt lat="43.02076" lon="42.65574">
        <ele>1344.381135</ele>
        <time>2021-08-15T15:02:16.005Z</time>
      </trkpt>
      <trkpt lat="43.02133" lon="42.65677">
        <ele>1348.090537</ele>
        <time>2021-08-15T15:02:59.510Z</time>
      </trkpt>
      <trkpt lat="43.02199" lon="42.6584">
        <ele>1352.458727</ele>
        <time>2021-08-15T15:03:46.442Z</time>
      </trkpt>
      <trkpt lat="43.02285" lon="42.65943">
        <ele>1355.206542</ele>
        <time>2021-08-15T15:04:25.265Z</time>
      </trkpt>
      <trkpt lat="43.02337" lon="42.66028">
        <ele>1357.157997</ele>
        <time>2021-08-15T15:04:53.817Z</time>
      </trkpt>
      <trkpt lat="43.02374" lon="42.66061">
        <ele>1358.247598</ele>
        <time>2021-08-15T15:05:10.042Z</time>
      </trkpt>
      <trkpt lat="43.02455" lon="42.66198">
        <ele>1360.150171</ele>
        <time>2021-08-15T15:05:51.571Z</time>
      </trkpt>
      <trkpt lat="43.02479" lon="42.6623">
        <ele>1360.413826</ele>
        <time>2021-08-15T15:06:00.195Z</time>
      </trkpt>
      <trkpt lat="43.02518" lon="42.66256">
        <ele>1360.744824</ele>
        <time>2021-08-15T15:06:09.801Z</time>
      </trkpt>
      <trkpt lat="43.02536" lon="42.66337">
        <ele>1360.700627</ele>
        <time>2021-08-15T15:06:22.461Z</time>
      </trkpt>
      <trkpt lat="43.02581" lon="42.66479">
        <ele>1359.733646</ele>
        <time>2021-08-15T15:06:44.414Z</time>
      </trkpt>
      <trkpt lat="43.02596" lon="42.66548">
        <ele>1359.68391</ele>
        <time>2021-08-15T15:06:55.440Z</time>
      </trkpt>
      <trkpt lat="43.02632" lon="42.66625">
        <ele>1360.62003</ele>
        <time>2021-08-15T15:07:12.169Z</time>
      </trkpt>
      <trkpt lat="43.0269" lon="42.66862">
        <ele>1362.860747</ele>
        <time>2021-08-15T15:08:16.376Z</time>
      </trkpt>
      <trkpt lat="43.02704" lon="42.6688">
        <ele>1363.060618</ele>
        <time>2021-08-15T15:08:19.733Z</time>
      </trkpt>
      <trkpt lat="43.02765" lon="42.66885">
        <ele>1363.700821</ele>
        <time>2021-08-15T15:08:35.043Z</time>
      </trkpt>
      <trkpt lat="43.0278" lon="42.66893">
        <ele>1363.808356</ele>
        <time>2021-08-15T15:08:38.101Z</time>
      </trkpt>
      <trkpt lat="43.02784" lon="42.66899">
        <ele>1363.784489</ele>
        <time>2021-08-15T15:08:42.140Z</time>
      </trkpt>
      <trkpt lat="43.02785" lon="42.66912">
        <ele>1363.742565</ele>
        <time>2021-08-15T15:08:44.774Z</time>
      </trkpt>
      <trkpt lat="43.02782" lon="42.66921">
        <ele>1363.711206</ele>
        <time>2021-08-15T15:08:45.743Z</time>
      </trkpt>
      <trkpt lat="43.02758" lon="42.66938">
        <ele>1363.590506</ele>
        <time>2021-08-15T15:08:54.345Z</time>
      </trkpt>
      <trkpt lat="43.0274" lon="42.66964">
        <ele>1363.473562</ele>
        <time>2021-08-15T15:08:59.059Z</time>
      </trkpt>
      <trkpt lat="43.02737" lon="42.67008">
        <ele>1363.331582</ele>
        <time>2021-08-15T15:09:04.882Z</time>
      </trkpt>
      <trkpt lat="43.02724" lon="42.67068">
        <ele>1363.127635</ele>
        <time>2021-08-15T15:09:16.814Z</time>
      </trkpt>
      <trkpt lat="43.02742" lon="42.67103">
        <ele>1363.356189</ele>
        <time>2021-08-15T15:09:22.425Z</time>
      </trkpt>
      <trkpt lat="43.02764" lon="42.67115">
        <ele>1364.259433</ele>
        <time>2021-08-15T15:09:29.358Z</time>
      </trkpt>
      <trkpt lat="43.02828" lon="42.67192">
        <ele>1367.462127</ele>
        <time>2021-08-15T15:10:02.787Z</time>
      </trkpt>
      <trkpt lat="43.03012" lon="42.675">
        <ele>1384.375125</ele>
        <time>2021-08-15T15:12:46.558Z</time>
      </trkpt>
      <trkpt lat="43.03041" lon="42.67562">
        <ele>1387.096213</ele>
        <time>2021-08-15T15:13:12.566Z</time>
      </trkpt>
      <trkpt lat="43.03057" lon="42.67586">
        <ele>1388.298037</ele>
        <time>2021-08-15T15:13:24.168Z</time>
      </trkpt>
      <trkpt lat="43.03071" lon="42.67596">
        <ele>1389.08131</ele>
        <time>2021-08-15T15:13:29.963Z</time>
      </trkpt>
      <trkpt lat="43.03085" lon="42.676">
        <ele>1389.808541</ele>
        <time>2021-08-15T15:13:37.242Z</time>
      </trkpt>
      <trkpt lat="43.03095" lon="42.67606">
        <ele>1390.366959</ele>
        <time>2021-08-15T15:13:41.075Z</time>
      </trkpt>
      <trkpt lat="43.03107" lon="42.67623">
        <ele>1391.055219</ele>
        <time>2021-08-15T15:13:47.792Z</time>
      </trkpt>
      <trkpt lat="43.03112" lon="42.67641">
        <ele>1391.174191</ele>
        <time>2021-08-15T15:13:53.299Z</time>
      </trkpt>
      <trkpt lat="43.03122" lon="42.67715">
        <ele>1391.628639</ele>
        <time>2021-08-15T15:14:10.506Z</time>
      </trkpt>
      <trkpt lat="43.03126" lon="42.6782">
        <ele>1392.267818</ele>
        <time>2021-08-15T15:14:30.909Z</time>
      </trkpt>
      <trkpt lat="43.03146" lon="42.67901">
        <ele>1391.06832</ele>
        <time>2021-08-15T15:14:42.411Z</time>
      </trkpt>
      <trkpt lat="43.03158" lon="42.6803">
        <ele>1387.052862</ele>
        <time>2021-08-15T15:14:57.742Z</time>
      </trkpt>
      <trkpt lat="43.03162" lon="42.68048">
        <ele>1386.463461</ele>
        <time>2021-08-15T15:14:59.925Z</time>
      </trkpt>
      <trkpt lat="43.03172" lon="42.68082">
        <ele>1385.28917</ele>
        <time>2021-08-15T15:15:04.071Z</time>
      </trkpt>
      <trkpt lat="43.03177" lon="42.68124">
        <ele>1384.208578</ele>
        <time>2021-08-15T15:15:08.734Z</time>
      </trkpt>
      <trkpt lat="43.03175" lon="42.68152">
        <ele>1383.536255</ele>
        <time>2021-08-15T15:15:11.899Z</time>
      </trkpt>
      <trkpt lat="43.03157" lon="42.68245">
        <ele>1381.305571</ele>
        <time>2021-08-15T15:15:23.317Z</time>
      </trkpt>
      <trkpt lat="43.03157" lon="42.68248">
        <ele>1381.228042</ele>
        <time>2021-08-15T15:15:23.644Z</time>
      </trkpt>
      <trkpt lat="43.03159" lon="42.68272">
        <ele>1380.658604</ele>
        <time>2021-08-15T15:15:27.156Z</time>
      </trkpt>
      <trkpt lat="43.032" lon="42.68371">
        <ele>1380.827834</ele>
        <time>2021-08-15T15:15:50.543Z</time>
      </trkpt>
      <trkpt lat="43.03223" lon="42.6846">
        <ele>1384.285047</ele>
        <time>2021-08-15T15:16:24.742Z</time>
      </trkpt>
      <trkpt lat="43.03224" lon="42.68493">
        <ele>1385.478686</ele>
        <time>2021-08-15T15:16:35.646Z</time>
      </trkpt>
      <trkpt lat="43.03228" lon="42.685">
        <ele>1385.826934</ele>
        <time>2021-08-15T15:16:41.790Z</time>
      </trkpt>
      <trkpt lat="43.03263" lon="42.68501">
        <ele>1387.547119</ele>
        <time>2021-08-15T15:17:01.348Z</time>
      </trkpt>
      <trkpt lat="43.03268" lon="42.68501">
        <ele>1387.827739</ele>
        <time>2021-08-15T15:17:07.109Z</time>
      </trkpt>
      <trkpt lat="43.03272" lon="42.68503">
        <ele>1388.005385</ele>
        <time>2021-08-15T15:17:09.405Z</time>
      </trkpt>
      <trkpt lat="43.03279" lon="42.68521">
        <ele>1388.985976</ele>
        <time>2021-08-15T15:17:16.348Z</time>
      </trkpt>
      <trkpt lat="43.03283" lon="42.68531">
        <ele>1389.541532</ele>
        <time>2021-08-15T15:17:20.213Z</time>
      </trkpt>
      <trkpt lat="43.03283" lon="42.6855">
        <ele>1390.500282</ele>
        <time>2021-08-15T15:17:31.774Z</time>
      </trkpt>
      <trkpt lat="43.03283" lon="42.6856">
        <ele>1391.005299</ele>
        <time>2021-08-15T15:17:35.177Z</time>
      </trkpt>
      <trkpt lat="43.03283" lon="42.68574">
        <ele>1391.674393</ele>
        <time>2021-08-15T15:17:39.967Z</time>
      </trkpt>
      <trkpt lat="43.03281" lon="42.68581">
        <ele>1392.040059</ele>
        <time>2021-08-15T15:17:42.857Z</time>
      </trkpt>
      <trkpt lat="43.03258" lon="42.68613">
        <ele>1394.27946</ele>
        <time>2021-08-15T15:18:03.012Z</time>
      </trkpt>
      <trkpt lat="43.03253" lon="42.68635">
        <ele>1395.395667</ele>
        <time>2021-08-15T15:18:16.382Z</time>
      </trkpt>
      <trkpt lat="43.03253" lon="42.68657">
        <ele>1396.527025</ele>
        <time>2021-08-15T15:18:24.235Z</time>
      </trkpt>
      <trkpt lat="43.03272" lon="42.68727">
        <ele>1400.197819</ele>
        <time>2021-08-15T15:18:51.763Z</time>
      </trkpt>
      <trkpt lat="43.03313" lon="42.68855">
        <ele>1403.875721</ele>
        <time>2021-08-15T15:19:33.511Z</time>
      </trkpt>
      <trkpt lat="43.03359" lon="42.68978">
        <ele>1406.881627</ele>
        <time>2021-08-15T15:20:11.414Z</time>
      </trkpt>
      <trkpt lat="43.0338" lon="42.69012">
        <ele>1407.178868</ele>
        <time>2021-08-15T15:20:21.285Z</time>
      </trkpt>
      <trkpt lat="43.03457" lon="42.69089">
        <ele>1408.043408</ele>
        <time>2021-08-15T15:20:44.762Z</time>
      </trkpt>
      <trkpt lat="43.03493" lon="42.69123">
        <ele>1408.204757</ele>
        <time>2021-08-15T15:20:54.279Z</time>
      </trkpt>
      <trkpt lat="43.03535" lon="42.69152">
        <ele>1407.855267</ele>
        <time>2021-08-15T15:21:03.918Z</time>
      </trkpt>
      <trkpt lat="43.03559" lon="42.69174">
        <ele>1407.637235</ele>
        <time>2021-08-15T15:21:09.574Z</time>
      </trkpt>
      <trkpt lat="43.03591" lon="42.69206">
        <ele>1407.338112</ele>
        <time>2021-08-15T15:21:17.031Z</time>
      </trkpt>
      <trkpt lat="43.03605" lon="42.69233">
        <ele>1407.156786</ele>
        <time>2021-08-15T15:21:21.653Z</time>
      </trkpt>
      <trkpt lat="43.03612" lon="42.69265">
        <ele>1406.972013</ele>
        <time>2021-08-15T15:21:26.695Z</time>
      </trkpt>
      <trkpt lat="43.03615" lon="42.69321">
        <ele>1407.591233</ele>
        <time>2021-08-15T15:21:36.119Z</time>
      </trkpt>
      <trkpt lat="43.03615" lon="42.6935">
        <ele>1407.927519</ele>
        <time>2021-08-15T15:21:41.985Z</time>
      </trkpt>
      <trkpt lat="43.0362" lon="42.69368">
        <ele>1408.149201</ele>
        <time>2021-08-15T15:21:45.086Z</time>
      </trkpt>
      <trkpt lat="43.03632" lon="42.69389">
        <ele>1408.469851</ele>
        <time>2021-08-15T15:21:51.008Z</time>
      </trkpt>
      <trkpt lat="43.03763" lon="42.69599">
        <ele>1414.471367</ele>
        <time>2021-08-15T15:23:06.858Z</time>
      </trkpt>
      <trkpt lat="43.03781" lon="42.69643">
        <ele>1415.976828</ele>
        <time>2021-08-15T15:23:25.896Z</time>
      </trkpt>
      <trkpt lat="43.03793" lon="42.69694">
        <ele>1417.586599</ele>
        <time>2021-08-15T15:23:45.635Z</time>
      </trkpt>
      <trkpt lat="43.03796" lon="42.6976">
        <ele>1419.730564</ele>
        <time>2021-08-15T15:24:08.300Z</time>
      </trkpt>
      <trkpt lat="43.038" lon="42.69784">
        <ele>1420.515567</ele>
        <time>2021-08-15T15:24:17.640Z</time>
      </trkpt>
      <trkpt lat="43.03805" lon="42.698">
        <ele>1421.106199</ele>
        <time>2021-08-15T15:24:23.394Z</time>
      </trkpt>
      <trkpt lat="43.03823" lon="42.6985">
        <ele>1422.918655</ele>
        <time>2021-08-15T15:24:40.958Z</time>
      </trkpt>
      <trkpt lat="43.03831" lon="42.69881">
        <ele>1423.986376</ele>
        <time>2021-08-15T15:24:51.785Z</time>
      </trkpt>
      <trkpt lat="43.03841" lon="42.69923">
        <ele>1425.187289</ele>
        <time>2021-08-15T15:25:04.284Z</time>
      </trkpt>
      <trkpt lat="43.03861" lon="42.70001">
        <ele>1426.250889</ele>
        <time>2021-08-15T15:25:24.767Z</time>
      </trkpt>
      <trkpt lat="43.0391" lon="42.70163">
        <ele>1428.165739</ele>
        <time>2021-08-15T15:25:59.658Z</time>
      </trkpt>
      <trkpt lat="43.03914" lon="42.70177">
        <ele>1428.155117</ele>
        <time>2021-08-15T15:26:03.851Z</time>
      </trkpt>
      <trkpt lat="43.03923" lon="42.70186">
        <ele>1428.14379</ele>
        <time>2021-08-15T15:26:06.850Z</time>
      </trkpt>
      <trkpt lat="43.03935" lon="42.70186">
        <ele>1428.132775</ele>
        <time>2021-08-15T15:26:09.390Z</time>
      </trkpt>
      <trkpt lat="43.03993" lon="42.70168">
        <ele>1428.074731</ele>
        <time>2021-08-15T15:26:24.518Z</time>
      </trkpt>
      <trkpt lat="43.04036" lon="42.70172">
        <ele>1428.033107</ele>
        <time>2021-08-15T15:26:32.677Z</time>
      </trkpt>
      <trkpt lat="43.04045" lon="42.70183">
        <ele>1428.021942</ele>
        <time>2021-08-15T15:26:35.451Z</time>
      </trkpt>
      <trkpt lat="43.04048" lon="42.702">
        <ele>1428.009172</ele>
        <time>2021-08-15T15:26:38.050Z</time>
      </trkpt>
      <trkpt lat="43.04047" lon="42.70205">
        <ele>1427.924397</ele>
        <time>2021-08-15T15:26:38.725Z</time>
      </trkpt>
      <trkpt lat="43.04044" lon="42.70211">
        <ele>1427.744605</ele>
        <time>2021-08-15T15:26:39.601Z</time>
      </trkpt>
      <trkpt lat="43.04034" lon="42.70219">
        <ele>1427.375251</ele>
        <time>2021-08-15T15:26:42.106Z</time>
      </trkpt>
      <trkpt lat="43.04009" lon="42.70238">
        <ele>1426.464534</ele>
        <time>2021-08-15T15:26:47.180Z</time>
      </trkpt>
      <trkpt lat="43.03963" lon="42.70282">
        <ele>1424.674563</ele>
        <time>2021-08-15T15:26:57.296Z</time>
      </trkpt>
      <trkpt lat="43.03935" lon="42.70305">
        <ele>1423.648613</ele>
        <time>2021-08-15T15:27:02.659Z</time>
      </trkpt>
      <trkpt lat="43.03926" lon="42.70315">
        <ele>1423.263571</ele>
        <time>2021-08-15T15:27:04.547Z</time>
      </trkpt>
      <trkpt lat="43.03915" lon="42.70342">
        <ele>1422.552894</ele>
        <time>2021-08-15T15:27:08.039Z</time>
      </trkpt>
      <trkpt lat="43.03912" lon="42.7037">
        <ele>1421.618079</ele>
        <time>2021-08-15T15:27:11.315Z</time>
      </trkpt>
      <trkpt lat="43.03911" lon="42.70396">
        <ele>1420.600382</ele>
        <time>2021-08-15T15:27:14.333Z</time>
      </trkpt>
      <trkpt lat="43.03913" lon="42.70411">
        <ele>1419.993147</ele>
        <time>2021-08-15T15:27:16.072Z</time>
      </trkpt>
      <trkpt lat="43.03923" lon="42.70493">
        <ele>1416.749317</ele>
        <time>2021-08-15T15:27:25.704Z</time>
      </trkpt>
      <trkpt lat="43.03943" lon="42.70654">
        <ele>1409.531128</ele>
        <time>2021-08-15T15:27:44.310Z</time>
      </trkpt>
      <trkpt lat="43.03948" lon="42.70695">
        <ele>1407.302728</ele>
        <time>2021-08-15T15:27:48.925Z</time>
      </trkpt>
      <trkpt lat="43.03971" lon="42.70794">
        <ele>1401.772285</ele>
        <time>2021-08-15T15:28:00.119Z</time>
      </trkpt>
      <trkpt lat="43.03989" lon="42.70876">
        <ele>1397.24695</ele>
        <time>2021-08-15T15:28:09.301Z</time>
      </trkpt>
      <trkpt lat="43.04003" lon="42.70944">
        <ele>1393.521827</ele>
        <time>2021-08-15T15:28:16.879Z</time>
      </trkpt>
      <trkpt lat="43.04006" lon="42.70955">
        <ele>1392.876589</ele>
        <time>2021-08-15T15:28:18.152Z</time>
      </trkpt>
      <trkpt lat="43.04027" lon="42.71008">
        <ele>1389.694721</ele>
        <time>2021-08-15T15:28:24.735Z</time>
      </trkpt>
      <trkpt lat="43.04055" lon="42.71067">
        <ele>1386.259967</ele>
        <time>2021-08-15T15:28:32.687Z</time>
      </trkpt>
      <trkpt lat="43.04062" lon="42.7108">
        <ele>1385.875412</ele>
        <time>2021-08-15T15:28:34.510Z</time>
      </trkpt>
      <trkpt lat="43.04082" lon="42.71147">
        <ele>1384.191473</ele>
        <time>2021-08-15T15:28:43.171Z</time>
      </trkpt>
      <trkpt lat="43.04103" lon="42.71212">
        <ele>1382.542669</ele>
        <time>2021-08-15T15:28:52.242Z</time>
      </trkpt>
      <trkpt lat="43.04109" lon="42.71234">
        <ele>1381.98465</ele>
        <time>2021-08-15T15:28:55.401Z</time>
      </trkpt>
      <trkpt lat="43.04145" lon="42.71376">
        <ele>1380.993773</ele>
        <time>2021-08-15T15:29:17.945Z</time>
      </trkpt>
      <trkpt lat="43.04159" lon="42.71431">
        <ele>1381.129194</ele>
        <time>2021-08-15T15:29:27.904Z</time>
      </trkpt>
      <trkpt lat="43.04163" lon="42.71447">
        <ele>1381.169474</ele>
        <time>2021-08-15T15:29:31.391Z</time>
      </trkpt>
      <trkpt lat="43.0418" lon="42.71517">
        <ele>1381.350556</ele>
        <time>2021-08-15T15:29:47.153Z</time>
      </trkpt>
      <trkpt lat="43.04186" lon="42.71536">
        <ele>1381.682721</ele>
        <time>2021-08-15T15:29:52.060Z</time>
      </trkpt>
      <trkpt lat="43.04204" lon="42.71621">
        <ele>1383.106974</ele>
        <time>2021-08-15T15:30:13.362Z</time>
      </trkpt>
      <trkpt lat="43.04223" lon="42.71705">
        <ele>1384.523128</ele>
        <time>2021-08-15T15:30:36.461Z</time>
      </trkpt>
      <trkpt lat="43.04231" lon="42.7174">
        <ele>1385.106419</ele>
        <time>2021-08-15T15:30:45.676Z</time>
      </trkpt>
      <trkpt lat="43.04237" lon="42.71768">
        <ele>1385.485961</ele>
        <time>2021-08-15T15:30:52.333Z</time>
      </trkpt>
      <trkpt lat="43.04244" lon="42.71801">
        <ele>1385.860732</ele>
        <time>2021-08-15T15:31:00.685Z</time>
      </trkpt>
      <trkpt lat="43.04255" lon="42.71841">
        <ele>1386.313641</ele>
        <time>2021-08-15T15:31:10.982Z</time>
      </trkpt>
      <trkpt lat="43.04265" lon="42.71886">
        <ele>1386.816561</ele>
        <time>2021-08-15T15:31:21.925Z</time>
      </trkpt>
      <trkpt lat="43.04272" lon="42.71914">
        <ele>1387.137526</ele>
        <time>2021-08-15T15:31:28.329Z</time>
      </trkpt>
      <trkpt lat="43.04277" lon="42.71937">
        <ele>1387.400766</ele>
        <time>2021-08-15T15:31:33.841Z</time>
      </trkpt>
      <trkpt lat="43.04282" lon="42.71955">
        <ele>1387.605261</ele>
        <time>2021-08-15T15:31:37.531Z</time>
      </trkpt>
      <trkpt lat="43.04293" lon="42.72003">
        <ele>1387.994093</ele>
        <time>2021-08-15T15:31:46.101Z</time>
      </trkpt>
      <trkpt lat="43.04324" lon="42.72131">
        <ele>1388.314973</ele>
        <time>2021-08-15T15:32:05.844Z</time>
      </trkpt>
      <trkpt lat="43.04306" lon="42.72139">
        <ele>1388.37798</ele>
        <time>2021-08-15T15:32:09.812Z</time>
      </trkpt>
      <trkpt lat="43.04288" lon="42.72147">
        <ele>1388.440225</ele>
        <time>2021-08-15T15:32:14.057Z</time>
      </trkpt>
      <trkpt lat="43.04273" lon="42.72155">
        <ele>1388.490298</ele>
        <time>2021-08-15T15:32:19.170Z</time>
      </trkpt>
      <trkpt lat="43.04223" lon="42.72184">
        <ele>1390.573493</ele>
        <time>2021-08-15T15:32:40.366Z</time>
      </trkpt>
      <trkpt lat="43.04199" lon="42.72212">
        <ele>1392.11312</ele>
        <time>2021-08-15T15:32:54.684Z</time>
      </trkpt>
      <trkpt lat="43.04191" lon="42.72222">
        <ele>1392.665412</ele>
        <time>2021-08-15T15:32:58.234Z</time>
      </trkpt>
      <trkpt lat="43.04182" lon="42.72232">
        <ele>1393.229956</ele>
        <time>2021-08-15T15:33:04.818Z</time>
      </trkpt>
      <trkpt lat="43.04172" lon="42.72246">
        <ele>1393.930291</ele>
        <time>2021-08-15T15:33:10.766Z</time>
      </trkpt>
      <trkpt lat="43.04127" lon="42.72301">
        <ele>1396.892434</ele>
        <time>2021-08-15T15:33:42.968Z</time>
      </trkpt>
      <trkpt lat="43.04119" lon="42.72315">
        <ele>1397.611256</ele>
        <time>2021-08-15T15:33:50.107Z</time>
      </trkpt>
      <trkpt lat="43.04114" lon="42.72327">
        <ele>1398.394655</ele>
        <time>2021-08-15T15:33:55.279Z</time>
      </trkpt>
      <trkpt lat="43.04111" lon="42.72348">
        <ele>1399.69168</ele>
        <time>2021-08-15T15:34:07.370Z</time>
      </trkpt>
      <trkpt lat="43.04107" lon="42.7241">
        <ele>1403.317996</ele>
        <time>2021-08-15T15:34:38.163Z</time>
      </trkpt>
      <trkpt lat="43.04099" lon="42.72454">
        <ele>1405.96115</ele>
        <time>2021-08-15T15:35:00.869Z</time>
      </trkpt>
      <trkpt lat="43.04083" lon="42.72513">
        <ele>1409.624863</ele>
        <time>2021-08-15T15:35:28.452Z</time>
      </trkpt>
      <trkpt lat="43.04065" lon="42.72579">
        <ele>1413.637297</ele>
        <time>2021-08-15T15:35:58.658Z</time>
      </trkpt>
      <trkpt lat="43.0406" lon="42.72657">
        <ele>1417.931154</ele>
        <time>2021-08-15T15:36:29.490Z</time>
      </trkpt>
      <trkpt lat="43.04061" lon="42.72686">
        <ele>1419.533287</ele>
        <time>2021-08-15T15:36:41.917Z</time>
      </trkpt>
      <trkpt lat="43.04062" lon="42.72735">
        <ele>1422.247477</ele>
        <time>2021-08-15T15:37:03.307Z</time>
      </trkpt>
      <trkpt lat="43.04063" lon="42.72752">
        <ele>1423.203444</ele>
        <time>2021-08-15T15:37:11.006Z</time>
      </trkpt>
      <trkpt lat="43.04064" lon="42.7278">
        <ele>1424.721584</ele>
        <time>2021-08-15T15:37:24.244Z</time>
      </trkpt>
      <trkpt lat="43.04078" lon="42.72843">
        <ele>1429.98523</ele>
        <time>2021-08-15T15:37:56.354Z</time>
      </trkpt>
      <trkpt lat="43.04079" lon="42.72884">
        <ele>1433.526164</ele>
        <time>2021-08-15T15:38:21.253Z</time>
      </trkpt>
      <trkpt lat="43.04072" lon="42.72913">
        <ele>1436.062453</ele>
        <time>2021-08-15T15:38:38.298Z</time>
      </trkpt>
      <trkpt lat="43.04061" lon="42.72951">
        <ele>1439.594291</ele>
        <time>2021-08-15T15:39:05.554Z</time>
      </trkpt>
      <trkpt lat="43.04042" lon="42.73009">
        <ele>1444.973917</ele>
        <time>2021-08-15T15:39:45.781Z</time>
      </trkpt>
      <trkpt lat="43.04037" lon="42.73033">
        <ele>1447.077524</ele>
        <time>2021-08-15T15:40:03.988Z</time>
      </trkpt>
      <trkpt lat="43.04031" lon="42.73065">
        <ele>1449.581233</ele>
        <time>2021-08-15T15:40:24.272Z</time>
      </trkpt>
      <trkpt lat="43.0403" lon="42.73095">
        <ele>1451.929312</ele>
        <time>2021-08-15T15:40:43.617Z</time>
      </trkpt>
      <trkpt lat="43.04032" lon="42.73132">
        <ele>1454.831897</ele>
        <time>2021-08-15T15:41:08.596Z</time>
      </trkpt>
      <trkpt lat="43.04036" lon="42.73177">
        <ele>1458.350798</ele>
        <time>2021-08-15T15:41:34.497Z</time>
      </trkpt>
      <trkpt lat="43.04054" lon="42.73402">
        <ele>1471.299518</ele>
        <time>2021-08-15T15:43:10.152Z</time>
      </trkpt>
      <trkpt lat="43.04039" lon="42.73495">
        <ele>1475.424715</ele>
        <time>2021-08-15T15:43:39.348Z</time>
      </trkpt>
      <trkpt lat="43.04031" lon="42.73605">
        <ele>1479.880985</ele>
        <time>2021-08-15T15:44:19.054Z</time>
      </trkpt>
      <trkpt lat="43.04031" lon="42.73632">
        <ele>1480.970247</ele>
        <time>2021-08-15T15:44:29.298Z</time>
      </trkpt>
      <trkpt lat="43.04037" lon="42.73662">
        <ele>1482.215832</ele>
        <time>2021-08-15T15:44:40.228Z</time>
      </trkpt>
      <trkpt lat="43.04047" lon="42.73709">
        <ele>1484.192966</ele>
        <time>2021-08-15T15:44:58.562Z</time>
      </trkpt>
      <trkpt lat="43.04049" lon="42.73734">
        <ele>1485.179159</ele>
        <time>2021-08-15T15:45:08.583Z</time>
      </trkpt>
      <trkpt lat="43.0405" lon="42.73775">
        <ele>1486.87391</ele>
        <time>2021-08-15T15:45:23.692Z</time>
      </trkpt>
      <trkpt lat="43.04034" lon="42.74022">
        <ele>1497.672741</ele>
        <time>2021-08-15T15:46:56.645Z</time>
      </trkpt>
      <trkpt lat="43.04024" lon="42.74069">
        <ele>1500.219833</ele>
        <time>2021-08-15T15:47:15.266Z</time>
      </trkpt>
      <trkpt lat="43.04017" lon="42.74149">
        <ele>1504.416352</ele>
        <time>2021-08-15T15:47:48.153Z</time>
      </trkpt>
      <trkpt lat="43.04013" lon="42.74175">
        <ele>1505.762082</ele>
        <time>2021-08-15T15:47:59.593Z</time>
      </trkpt>
      <trkpt lat="43.0399" lon="42.74232">
        <ele>1509.142535</ele>
        <time>2021-08-15T15:48:30.114Z</time>
      </trkpt>
      <trkpt lat="43.03975" lon="42.7433">
        <ele>1515.825053</ele>
        <time>2021-08-15T15:49:21.183Z</time>
      </trkpt>
      <trkpt lat="43.03968" lon="42.74405">
        <ele>1520.845548</ele>
        <time>2021-08-15T15:50:00.274Z</time>
      </trkpt>
      <trkpt lat="43.03955" lon="42.74459">
        <ele>1524.627611</ele>
        <time>2021-08-15T15:50:29.028Z</time>
      </trkpt>
      <trkpt lat="43.03923" lon="42.74529">
        <ele>1528.083007</ele>
        <time>2021-08-15T15:51:07.038Z</time>
      </trkpt>
      <trkpt lat="43.03921" lon="42.74562">
        <ele>1529.325318</ele>
        <time>2021-08-15T15:51:21.328Z</time>
      </trkpt>
      <trkpt lat="43.03926" lon="42.74608">
        <ele>1531.016694</ele>
        <time>2021-08-15T15:51:38.830Z</time>
      </trkpt>
      <trkpt lat="43.0394" lon="42.74649">
        <ele>1532.674108</ele>
        <time>2021-08-15T15:51:52.017Z</time>
      </trkpt>
      <trkpt lat="43.03963" lon="42.74812">
        <ele>1533.628402</ele>
        <time>2021-08-15T15:52:19.943Z</time>
      </trkpt>
      <trkpt lat="43.03967" lon="42.74833">
        <ele>1533.431706</ele>
        <time>2021-08-15T15:52:22.695Z</time>
      </trkpt>
      <trkpt lat="43.03974" lon="42.74885">
        <ele>1532.950171</ele>
        <time>2021-08-15T15:52:29.609Z</time>
      </trkpt>
      <trkpt lat="43.03985" lon="42.74933">
        <ele>1532.496398</ele>
        <time>2021-08-15T15:52:36.033Z</time>
      </trkpt>
      <trkpt lat="43.03998" lon="42.74963">
        <ele>1531.931759</ele>
        <time>2021-08-15T15:52:40.507Z</time>
      </trkpt>
      <trkpt lat="43.0402" lon="42.74996">
        <ele>1531.10714</ele>
        <time>2021-08-15T15:52:46.221Z</time>
      </trkpt>
      <trkpt lat="43.04099" lon="42.75093">
        <ele>1528.427307</ele>
        <time>2021-08-15T15:53:05.314Z</time>
      </trkpt>
      <trkpt lat="43.04113" lon="42.75129">
        <ele>1527.553753</ele>
        <time>2021-08-15T15:53:10.602Z</time>
      </trkpt>
      <trkpt lat="43.04119" lon="42.75168">
        <ele>1526.314693</ele>
        <time>2021-08-15T15:53:15.758Z</time>
      </trkpt>
      <trkpt lat="43.04114" lon="42.75232">
        <ele>1524.298626</ele>
        <time>2021-08-15T15:53:23.853Z</time>
      </trkpt>
      <trkpt lat="43.04116" lon="42.75275">
        <ele>1522.986322</ele>
        <time>2021-08-15T15:53:28.930Z</time>
      </trkpt>
      <trkpt lat="43.04128" lon="42.75314">
        <ele>1521.679138</ele>
        <time>2021-08-15T15:53:33.822Z</time>
      </trkpt>
      <trkpt lat="43.04184" lon="42.75395">
        <ele>1516.877712</ele>
        <time>2021-08-15T15:53:46.355Z</time>
      </trkpt>
      <trkpt lat="43.04188" lon="42.75418">
        <ele>1515.705343</ele>
        <time>2021-08-15T15:53:48.878Z</time>
      </trkpt>
      <trkpt lat="43.04169" lon="42.75485">
        <ele>1512.05131</ele>
        <time>2021-08-15T15:53:56.751Z</time>
      </trkpt>
      <trkpt lat="43.04105" lon="42.7563">
        <ele>1503.618439</ele>
        <time>2021-08-15T15:54:15.244Z</time>
      </trkpt>
      <trkpt lat="43.04096" lon="42.75667">
        <ele>1501.668084</ele>
        <time>2021-08-15T15:54:19.658Z</time>
      </trkpt>
      <trkpt lat="43.04095" lon="42.75722">
        <ele>1499.004496</ele>
        <time>2021-08-15T15:54:25.691Z</time>
      </trkpt>
      <trkpt lat="43.041" lon="42.75754">
        <ele>1497.370574</ele>
        <time>2021-08-15T15:54:29.392Z</time>
      </trkpt>
      <trkpt lat="43.04123" lon="42.75816">
        <ele>1494.095839</ele>
        <time>2021-08-15T15:54:37.099Z</time>
      </trkpt>
      <trkpt lat="43.04127" lon="42.75856">
        <ele>1492.235864</ele>
        <time>2021-08-15T15:54:41.698Z</time>
      </trkpt>
      <trkpt lat="43.04123" lon="42.75995">
        <ele>1485.963567</ele>
        <time>2021-08-15T15:54:57.180Z</time>
      </trkpt>
      <trkpt lat="43.04114" lon="42.76037">
        <ele>1484.170458</ele>
        <time>2021-08-15T15:55:02.240Z</time>
      </trkpt>
      <trkpt lat="43.04134" lon="42.76145">
        <ele>1481.035672</ele>
        <time>2021-08-15T15:55:15.115Z</time>
      </trkpt>
      <trkpt lat="43.04147" lon="42.76302">
        <ele>1477.911922</ele>
        <time>2021-08-15T15:55:35.583Z</time>
      </trkpt>
      <trkpt lat="43.0416" lon="42.76382">
        <ele>1478.612069</ele>
        <time>2021-08-15T15:55:49.163Z</time>
      </trkpt>
      <trkpt lat="43.04166" lon="42.76415">
        <ele>1478.90918</ele>
        <time>2021-08-15T15:55:56.738Z</time>
      </trkpt>
      <trkpt lat="43.04178" lon="42.76476">
        <ele>1479.452817</ele>
        <time>2021-08-15T15:56:11.892Z</time>
      </trkpt>
      <trkpt lat="43.04208" lon="42.7679">
        <ele>1490.9686</ele>
        <time>2021-08-15T15:58:05.629Z</time>
      </trkpt>
      <trkpt lat="43.04228" lon="42.76882">
        <ele>1495.426343</ele>
        <time>2021-08-15T15:58:46.164Z</time>
      </trkpt>
      <trkpt lat="43.0423" lon="42.76933">
        <ele>1497.776334</ele>
        <time>2021-08-15T15:59:07.156Z</time>
      </trkpt>
      <trkpt lat="43.04242" lon="42.76989">
        <ele>1500.51669</ele>
        <time>2021-08-15T15:59:30.930Z</time>
      </trkpt>
      <trkpt lat="43.04242" lon="42.77051">
        <ele>1502.075948</ele>
        <time>2021-08-15T15:59:53.755Z</time>
      </trkpt>
      <trkpt lat="43.04258" lon="42.77113">
        <ele>1503.712151</ele>
        <time>2021-08-15T16:00:13.902Z</time>
      </trkpt>
      <trkpt lat="43.04271" lon="42.77193">
        <ele>1505.77483</ele>
        <time>2021-08-15T16:00:34.474Z</time>
      </trkpt>
      <trkpt lat="43.04313" lon="42.77367">
        <ele>1507.013607</ele>
        <time>2021-08-15T16:01:08.465Z</time>
      </trkpt>
      <trkpt lat="43.04345" lon="42.77444">
        <ele>1507.204816</ele>
        <time>2021-08-15T16:01:22.304Z</time>
      </trkpt>
      <trkpt lat="43.04388" lon="42.77581">
        <ele>1506.400634</ele>
        <time>2021-08-15T16:01:45.141Z</time>
      </trkpt>
      <trkpt lat="43.04409" lon="42.77743">
        <ele>1504.899032</ele>
        <time>2021-08-15T16:02:08.724Z</time>
      </trkpt>
      <trkpt lat="43.04425" lon="42.77991">
        <ele>1500.698918</ele>
        <time>2021-08-15T16:02:41.412Z</time>
      </trkpt>
      <trkpt lat="43.04443" lon="42.78142">
        <ele>1497.38168</ele>
        <time>2021-08-15T16:03:00.339Z</time>
      </trkpt>
      <trkpt lat="43.04455" lon="42.78179">
        <ele>1496.558852</ele>
        <time>2021-08-15T16:03:05.507Z</time>
      </trkpt>
      <trkpt lat="43.04501" lon="42.78283">
        <ele>1495.319371</ele>
        <time>2021-08-15T16:03:21.197Z</time>
      </trkpt>
      <trkpt lat="43.04505" lon="42.78327">
        <ele>1494.870283</ele>
        <time>2021-08-15T16:03:27.523Z</time>
      </trkpt>
      <trkpt lat="43.04502" lon="42.78435">
        <ele>1494.485615</ele>
        <time>2021-08-15T16:03:46.617Z</time>
      </trkpt>
      <trkpt lat="43.04505" lon="42.78473">
        <ele>1494.92886</ele>
        <time>2021-08-15T16:03:54.657Z</time>
      </trkpt>
      <trkpt lat="43.04515" lon="42.78501">
        <ele>1495.300771</ele>
        <time>2021-08-15T16:04:01.838Z</time>
      </trkpt>
      <trkpt lat="43.04539" lon="42.78538">
        <ele>1495.86693</ele>
        <time>2021-08-15T16:04:13.191Z</time>
      </trkpt>
      <trkpt lat="43.04554" lon="42.7859">
        <ele>1496.51897</ele>
        <time>2021-08-15T16:04:26.941Z</time>
      </trkpt>
      <trkpt lat="43.0456" lon="42.78778">
        <ele>1498.956257</ele>
        <time>2021-08-15T16:05:12.287Z</time>
      </trkpt>
      <trkpt lat="43.04566" lon="42.78805">
        <ele>1499.327771</ele>
        <time>2021-08-15T16:05:18.251Z</time>
      </trkpt>
      <trkpt lat="43.04601" lon="42.78877">
        <ele>1500.467619</ele>
        <time>2021-08-15T16:05:36.334Z</time>
      </trkpt>
      <trkpt lat="43.04633" lon="42.79006">
        <ele>1502.174287</ele>
        <time>2021-08-15T16:06:05.923Z</time>
      </trkpt>
      <trkpt lat="43.04637" lon="42.79042">
        <ele>1502.630458</ele>
        <time>2021-08-15T16:06:14.213Z</time>
      </trkpt>
      <trkpt lat="43.04629" lon="42.79097">
        <ele>1503.340689</ele>
        <time>2021-08-15T16:06:27.700Z</time>
      </trkpt>
      <trkpt lat="43.04607" lon="42.79151">
        <ele>1504.466165</ele>
        <time>2021-08-15T16:06:43.684Z</time>
      </trkpt>
      <trkpt lat="43.04595" lon="42.79234">
        <ele>1506.006947</ele>
        <time>2021-08-15T16:07:06.116Z</time>
      </trkpt>
      <trkpt lat="43.04592" lon="42.79315">
        <ele>1507.480103</ele>
        <time>2021-08-15T16:07:26.519Z</time>
      </trkpt>
      <trkpt lat="43.04597" lon="42.79356">
        <ele>1508.195283</ele>
        <time>2021-08-15T16:07:36.731Z</time>
      </trkpt>
      <trkpt lat="43.04599" lon="42.79375">
        <ele>1508.522183</ele>
        <time>2021-08-15T16:07:41.665Z</time>
      </trkpt>
      <trkpt lat="43.04605" lon="42.79399">
        <ele>1508.937498</ele>
        <time>2021-08-15T16:07:47.806Z</time>
      </trkpt>
      <trkpt lat="43.04618" lon="42.79448">
        <ele>1509.790413</ele>
        <time>2021-08-15T16:08:01.081Z</time>
      </trkpt>
      <trkpt lat="43.04635" lon="42.79489">
        <ele>1510.556736</ele>
        <time>2021-08-15T16:08:12.933Z</time>
      </trkpt>
      <trkpt lat="43.04686" lon="42.79549">
        <ele>1512.030245</ele>
        <time>2021-08-15T16:08:34.600Z</time>
      </trkpt>
      <trkpt lat="43.04693" lon="42.79565">
        <ele>1512.276334</ele>
        <time>2021-08-15T16:08:38.886Z</time>
      </trkpt>
      <trkpt lat="43.04699" lon="42.79628">
        <ele>1513.090831</ele>
        <time>2021-08-15T16:08:53.057Z</time>
      </trkpt>
      <trkpt lat="43.04694" lon="42.79651">
        <ele>1513.403406</ele>
        <time>2021-08-15T16:08:58.554Z</time>
      </trkpt>
      <trkpt lat="43.0466" lon="42.79705">
        <ele>1514.321371</ele>
        <time>2021-08-15T16:09:15.700Z</time>
      </trkpt>
      <trkpt lat="43.04647" lon="42.79746">
        <ele>1514.900032</ele>
        <time>2021-08-15T16:09:25.838Z</time>
      </trkpt>
      <trkpt lat="43.04639" lon="42.79812">
        <ele>1515.53298</ele>
        <time>2021-08-15T16:09:39.319Z</time>
      </trkpt>
      <trkpt lat="43.0464" lon="42.79872">
        <ele>1516.065881</ele>
        <time>2021-08-15T16:09:50.506Z</time>
      </trkpt>
      <trkpt lat="43.04635" lon="42.79907">
        <ele>1516.38898</ele>
        <time>2021-08-15T16:09:57.532Z</time>
      </trkpt>
      <trkpt lat="43.04626" lon="42.79933">
        <ele>1516.6353</ele>
        <time>2021-08-15T16:10:03.046Z</time>
      </trkpt>
      <trkpt lat="43.04597" lon="42.7998">
        <ele>1517.190912</ele>
        <time>2021-08-15T16:10:16.715Z</time>
      </trkpt>
      <trkpt lat="43.04551" lon="42.80035">
        <ele>1517.217031</ele>
        <time>2021-08-15T16:10:36.294Z</time>
      </trkpt>
      <trkpt lat="43.04533" lon="42.8007">
        <ele>1517.217804</ele>
        <time>2021-08-15T16:10:43.814Z</time>
      </trkpt>
      <trkpt lat="43.04522" lon="42.80136">
        <ele>1517.219048</ele>
        <time>2021-08-15T16:10:53.161Z</time>
      </trkpt>
      <trkpt lat="43.04504" lon="42.80184">
        <ele>1517.220057</ele>
        <time>2021-08-15T16:11:01.632Z</time>
      </trkpt>
      <trkpt lat="43.04501" lon="42.80199">
        <ele>1516.980388</ele>
        <time>2021-08-15T16:11:04.009Z</time>
      </trkpt>
      <trkpt lat="43.04505" lon="42.80226">
        <ele>1516.492616</ele>
        <time>2021-08-15T16:11:07.513Z</time>
      </trkpt>
      <trkpt lat="43.04513" lon="42.80233">
        <ele>1516.267893</ele>
        <time>2021-08-15T16:11:11.396Z</time>
      </trkpt>
      <trkpt lat="43.04539" lon="42.80238">
        <ele>1515.650555</ele>
        <time>2021-08-15T16:11:15.683Z</time>
      </trkpt>
      <trkpt lat="43.04543" lon="42.80241">
        <ele>1515.535343</ele>
        <time>2021-08-15T16:11:17.493Z</time>
      </trkpt>
      <trkpt lat="43.04552" lon="42.80262">
        <ele>1515.119503</ele>
        <time>2021-08-15T16:11:20.656Z</time>
      </trkpt>
      <trkpt lat="43.04559" lon="42.8034">
        <ele>1513.760225</ele>
        <time>2021-08-15T16:11:30.642Z</time>
      </trkpt>
      <trkpt lat="43.0459" lon="42.80495">
        <ele>1510.846036</ele>
        <time>2021-08-15T16:11:50.502Z</time>
      </trkpt>
      <trkpt lat="43.04632" lon="42.80599">
        <ele>1508.642007</ele>
        <time>2021-08-15T16:12:06.633Z</time>
      </trkpt>
      <trkpt lat="43.04654" lon="42.80636">
        <ele>1508.373493</ele>
        <time>2021-08-15T16:12:13.172Z</time>
      </trkpt>
      <trkpt lat="43.04674" lon="42.80713">
        <ele>1508.293866</ele>
        <time>2021-08-15T16:12:25.143Z</time>
      </trkpt>
      <trkpt lat="43.04689" lon="42.80805">
        <ele>1508.201535</ele>
        <time>2021-08-15T16:12:41.367Z</time>
      </trkpt>
      <trkpt lat="43.04688" lon="42.80876">
        <ele>1508.950589</ele>
        <time>2021-08-15T16:12:57.089Z</time>
      </trkpt>
      <trkpt lat="43.04695" lon="42.80954">
        <ele>1510.675432</ele>
        <time>2021-08-15T16:13:17.477Z</time>
      </trkpt>
      <trkpt lat="43.04676" lon="42.8106">
        <ele>1513.082714</ele>
        <time>2021-08-15T16:13:50.333Z</time>
      </trkpt>
      <trkpt lat="43.04647" lon="42.81137">
        <ele>1515.369417</ele>
        <time>2021-08-15T16:14:17.656Z</time>
      </trkpt>
      <trkpt lat="43.0464" lon="42.81229">
        <ele>1517.990816</ele>
        <time>2021-08-15T16:14:46.857Z</time>
      </trkpt>
      <trkpt lat="43.04631" lon="42.8132">
        <ele>1520.547279</ele>
        <time>2021-08-15T16:15:13.957Z</time>
      </trkpt>
      <trkpt lat="43.04625" lon="42.8139">
        <ele>1521.846234</ele>
        <time>2021-08-15T16:15:33.415Z</time>
      </trkpt>
      <trkpt lat="43.04601" lon="42.81517">
        <ele>1524.264101</ele>
        <time>2021-08-15T16:16:06.601Z</time>
      </trkpt>
      <trkpt lat="43.04601" lon="42.81678">
        <ele>1526.230121</ele>
        <time>2021-08-15T16:16:41.547Z</time>
      </trkpt>
      <trkpt lat="43.04594" lon="42.81717">
        <ele>1526.631379</ele>
        <time>2021-08-15T16:16:50.544Z</time>
      </trkpt>
      <trkpt lat="43.04563" lon="42.81821">
        <ele>1527.908279</ele>
        <time>2021-08-15T16:17:13.134Z</time>
      </trkpt>
      <trkpt lat="43.04551" lon="42.81844">
        <ele>1528.384577</ele>
        <time>2021-08-15T16:17:18.097Z</time>
      </trkpt>
      <trkpt lat="43.04543" lon="42.81849">
        <ele>1528.582487</ele>
        <time>2021-08-15T16:17:20.293Z</time>
      </trkpt>
      <trkpt lat="43.04534" lon="42.81848">
        <ele>1528.787804</ele>
        <time>2021-08-15T16:17:22.279Z</time>
      </trkpt>
      <trkpt lat="43.045" lon="42.81844">
        <ele>1529.543856</ele>
        <time>2021-08-15T16:17:32.309Z</time>
      </trkpt>
      <trkpt lat="43.04488" lon="42.81852">
        <ele>1529.844406</ele>
        <time>2021-08-15T16:17:36.567Z</time>
      </trkpt>
      <trkpt lat="43.04481" lon="42.81864">
        <ele>1530.097397</ele>
        <time>2021-08-15T16:17:40.589Z</time>
      </trkpt>
      <trkpt lat="43.0447" lon="42.81937">
        <ele>1531.32776</ele>
        <time>2021-08-15T16:18:01.717Z</time>
      </trkpt>
      <trkpt lat="43.04464" lon="42.81965">
        <ele>1532.266303</ele>
        <time>2021-08-15T16:18:11.120Z</time>
      </trkpt>
      <trkpt lat="43.04403" lon="42.82117">
        <ele>1539.885116</ele>
        <time>2021-08-15T16:19:15.963Z</time>
      </trkpt>
      <trkpt lat="43.04393" lon="42.82156">
        <ele>1541.715233</ele>
        <time>2021-08-15T16:19:33.742Z</time>
      </trkpt>
      <trkpt lat="43.04361" lon="42.82239">
        <ele>1547.300792</ele>
        <time>2021-08-15T16:20:18.600Z</time>
      </trkpt>
      <trkpt lat="43.04283" lon="42.82377">
        <ele>1558.123644</ele>
        <time>2021-08-15T16:21:42.395Z</time>
      </trkpt>
      <trkpt lat="43.04278" lon="42.82392">
        <ele>1559.179517</ele>
        <time>2021-08-15T16:21:52.051Z</time>
      </trkpt>
      <trkpt lat="43.04275" lon="42.82413">
        <ele>1560.449041</ele>
        <time>2021-08-15T16:22:01.258Z</time>
      </trkpt>
      <trkpt lat="43.04186" lon="42.82659">
        <ele>1577.251362</ele>
        <time>2021-08-15T16:24:08.739Z</time>
      </trkpt>
      <trkpt lat="43.04157" lon="42.82771">
        <ele>1584.547276</ele>
        <time>2021-08-15T16:25:02.921Z</time>
      </trkpt>
      <trkpt lat="43.04156" lon="42.8282">
        <ele>1587.529806</ele>
        <time>2021-08-15T16:25:26.566Z</time>
      </trkpt>
      <trkpt lat="43.04141" lon="42.82888">
        <ele>1592.604685</ele>
        <time>2021-08-15T16:26:02.251Z</time>
      </trkpt>
      <trkpt lat="43.04099" lon="42.83191">
        <ele>1615.254967</ele>
        <time>2021-08-15T16:28:49.385Z</time>
      </trkpt>
      <trkpt lat="43.04033" lon="42.83515">
        <ele>1639.675112</ele>
        <time>2021-08-15T16:31:47.321Z</time>
      </trkpt>
      <trkpt lat="43.04026" lon="42.83629">
        <ele>1646.847459</ele>
        <time>2021-08-15T16:32:43.254Z</time>
      </trkpt>
      <trkpt lat="43.04006" lon="42.83746">
        <ele>1654.043314</ele>
        <time>2021-08-15T16:33:38.544Z</time>
      </trkpt>
      <trkpt lat="43.03986" lon="42.8395">
        <ele>1664.232297</ele>
        <time>2021-08-15T16:35:02.801Z</time>
      </trkpt>
      <trkpt lat="43.03985" lon="42.83998">
        <ele>1666.52035</ele>
        <time>2021-08-15T16:35:21.091Z</time>
      </trkpt>
      <trkpt lat="43.03971" lon="42.84048">
        <ele>1668.967839</ele>
        <time>2021-08-15T16:35:40.982Z</time>
      </trkpt>
      <trkpt lat="43.03971" lon="42.84075">
        <ele>1670.118255</ele>
        <time>2021-08-15T16:35:50.729Z</time>
      </trkpt>
      <trkpt lat="43.03991" lon="42.8416">
        <ele>1673.930506</ele>
        <time>2021-08-15T16:36:22.896Z</time>
      </trkpt>
      <trkpt lat="43.03989" lon="42.84219">
        <ele>1676.488812</ele>
        <time>2021-08-15T16:36:44.926Z</time>
      </trkpt>
      <trkpt lat="43.03975" lon="42.84312">
        <ele>1681.378499</ele>
        <time>2021-08-15T16:37:22.624Z</time>
      </trkpt>
      <trkpt lat="43.03955" lon="42.84379">
        <ele>1685.736095</ele>
        <time>2021-08-15T16:37:56.407Z</time>
      </trkpt>
      <trkpt lat="43.03926" lon="42.84438">
        <ele>1690.075186</ele>
        <time>2021-08-15T16:38:30.386Z</time>
      </trkpt>
      <trkpt lat="43.03916" lon="42.84477">
        <ele>1692.527727</ele>
        <time>2021-08-15T16:38:50.485Z</time>
      </trkpt>
      <trkpt lat="43.03911" lon="42.84506">
        <ele>1694.756478</ele>
        <time>2021-08-15T16:39:07.267Z</time>
      </trkpt>
      <trkpt lat="43.03906" lon="42.84484">
        <ele>1696.801855</ele>
        <time>2021-08-15T16:39:21.329Z</time>
      </trkpt>
      <trkpt lat="43.03909" lon="42.84385">
        <ele>1705.338362</ele>
        <time>2021-08-15T16:40:25.991Z</time>
      </trkpt>
      <trkpt lat="43.03898" lon="42.84343">
        <ele>1709.177593</ele>
        <time>2021-08-15T16:41:00.618Z</time>
      </trkpt>
      <trkpt lat="43.03862" lon="42.84303">
        <ele>1714.671767</ele>
        <time>2021-08-15T16:41:51.990Z</time>
      </trkpt>
      <trkpt lat="43.03835" lon="42.84257">
        <ele>1720.978514</ele>
        <time>2021-08-15T16:42:37.640Z</time>
      </trkpt>
      <trkpt lat="43.03828" lon="42.84205">
        <ele>1726.648237</ele>
        <time>2021-08-15T16:43:19.883Z</time>
      </trkpt>
      <trkpt lat="43.03824" lon="42.84183">
        <ele>1729.013914</ele>
        <time>2021-08-15T16:43:40.024Z</time>
      </trkpt>
      <trkpt lat="43.03827" lon="42.84162">
        <ele>1731.326961</ele>
        <time>2021-08-15T16:43:54.409Z</time>
      </trkpt>
      <trkpt lat="43.0382" lon="42.84097">
        <ele>1738.352119</ele>
        <time>2021-08-15T16:44:41.974Z</time>
      </trkpt>
      <trkpt lat="43.03849" lon="42.83872">
        <ele>1761.374371</ele>
        <time>2021-08-15T16:47:17.017Z</time>
      </trkpt>
      <trkpt lat="43.03846" lon="42.83825">
        <ele>1766.078071</ele>
        <time>2021-08-15T16:47:46.465Z</time>
      </trkpt>
      <trkpt lat="43.0383" lon="42.83748">
        <ele>1772.42488</ele>
        <time>2021-08-15T16:48:33.671Z</time>
      </trkpt>
      <trkpt lat="43.03811" lon="42.83585">
        <ele>1785.628014</ele>
        <time>2021-08-15T16:50:04.865Z</time>
      </trkpt>
      <trkpt lat="43.03772" lon="42.83421">
        <ele>1796.222035</ele>
        <time>2021-08-15T16:51:27.436Z</time>
      </trkpt>
      <trkpt lat="43.03755" lon="42.8333">
        <ele>1801.925371</ele>
        <time>2021-08-15T16:52:05.931Z</time>
      </trkpt>
      <trkpt lat="43.03718" lon="42.83044">
        <ele>1820.299505</ele>
        <time>2021-08-15T16:54:18.553Z</time>
      </trkpt>
      <trkpt lat="43.03712" lon="42.83025">
        <ele>1821.958367</ele>
        <time>2021-08-15T16:54:30.368Z</time>
      </trkpt>
      <trkpt lat="43.03702" lon="42.83005">
        <ele>1823.892593</ele>
        <time>2021-08-15T16:54:44.122Z</time>
      </trkpt>
      <trkpt lat="43.03694" lon="42.83002">
        <ele>1824.804208</ele>
        <time>2021-08-15T16:54:53.765Z</time>
      </trkpt>
      <trkpt lat="43.03674" lon="42.82998">
        <ele>1827.03815</ele>
        <time>2021-08-15T16:55:12.657Z</time>
      </trkpt>
      <trkpt lat="43.03655" lon="42.82998">
        <ele>1829.141217</ele>
        <time>2021-08-15T16:55:32.427Z</time>
      </trkpt>
      <trkpt lat="43.03634" lon="42.83005">
        <ele>1831.570018</ele>
        <time>2021-08-15T16:55:52.295Z</time>
      </trkpt>
      <trkpt lat="43.03626" lon="42.83011">
        <ele>1832.496623</ele>
        <time>2021-08-15T16:56:03.516Z</time>
      </trkpt>
      <trkpt lat="43.03631" lon="42.83084">
        <ele>1838.284931</ele>
        <time>2021-08-15T16:56:48.590Z</time>
      </trkpt>
      <trkpt lat="43.03651" lon="42.83169">
        <ele>1845.252154</ele>
        <time>2021-08-15T16:57:45.100Z</time>
      </trkpt>
      <trkpt lat="43.03659" lon="42.83217">
        <ele>1849.035794</ele>
        <time>2021-08-15T16:58:12.234Z</time>
      </trkpt>
      <trkpt lat="43.03658" lon="42.83232">
        <ele>1850.202317</ele>
        <time>2021-08-15T16:58:18.030Z</time>
      </trkpt>
      <trkpt lat="43.03649" lon="42.83237">
        <ele>1851.239675</ele>
        <time>2021-08-15T16:58:23.217Z</time>
      </trkpt>
      <trkpt lat="43.03629" lon="42.83188">
        <ele>1854.569919</ele>
        <time>2021-08-15T16:58:47.382Z</time>
      </trkpt>
      <trkpt lat="43.03605" lon="42.83156">
        <ele>1856.116428</ele>
        <time>2021-08-15T16:59:03.352Z</time>
      </trkpt>
      <trkpt lat="43.03602" lon="42.83148">
        <ele>1856.436167</ele>
        <time>2021-08-15T16:59:08.937Z</time>
      </trkpt>
      <trkpt lat="43.03574" lon="42.83091">
        <ele>1858.776287</ele>
        <time>2021-08-15T16:59:30.946Z</time>
      </trkpt>
      <trkpt lat="43.03513" lon="42.82885">
        <ele>1864.404721</ele>
        <time>2021-08-15T17:00:30.642Z</time>
      </trkpt>
      <trkpt lat="43.03512" lon="42.82882">
        <ele>1864.46156</ele>
        <time>2021-08-15T17:00:31.398Z</time>
      </trkpt>
      <trkpt lat="43.03496" lon="42.82724">
        <ele>1867.768269</ele>
        <time>2021-08-15T17:01:07.399Z</time>
      </trkpt>
      <trkpt lat="43.03518" lon="42.82582">
        <ele>1871.974149</ele>
        <time>2021-08-15T17:01:51.681Z</time>
      </trkpt>
      <trkpt lat="43.03522" lon="42.82572">
        <ele>1872.286168</ele>
        <time>2021-08-15T17:01:55.932Z</time>
      </trkpt>
      <trkpt lat="43.03529" lon="42.82561">
        <ele>1872.71416</ele>
        <time>2021-08-15T17:02:01.342Z</time>
      </trkpt>
      <trkpt lat="43.03551" lon="42.82537">
        <ele>1873.886069</ele>
        <time>2021-08-15T17:02:14.894Z</time>
      </trkpt>
      <trkpt lat="43.03571" lon="42.82494">
        <ele>1876.601118</ele>
        <time>2021-08-15T17:02:35.267Z</time>
      </trkpt>
      <trkpt lat="43.03571" lon="42.82481">
        <ele>1877.286444</ele>
        <time>2021-08-15T17:02:40.670Z</time>
      </trkpt>
      <trkpt lat="43.0356" lon="42.82467">
        <ele>1878.335089</ele>
        <time>2021-08-15T17:02:48.488Z</time>
      </trkpt>
      <trkpt lat="43.03525" lon="42.8248">
        <ele>1880.895664</ele>
        <time>2021-08-15T17:03:10.065Z</time>
      </trkpt>
      <trkpt lat="43.03491" lon="42.82483">
        <ele>1883.30127</ele>
        <time>2021-08-15T17:03:31.140Z</time>
      </trkpt>
      <trkpt lat="43.03403" lon="42.82584">
        <ele>1892.06242</ele>
        <time>2021-08-15T17:04:42.783Z</time>
      </trkpt>
      <trkpt lat="43.03394" lon="42.82586">
        <ele>1892.827846</ele>
        <time>2021-08-15T17:04:48.941Z</time>
      </trkpt>
      <trkpt lat="43.03369" lon="42.82573">
        <ele>1894.945111</ele>
        <time>2021-08-15T17:05:05.214Z</time>
      </trkpt>
      <trkpt lat="43.03331" lon="42.82537">
        <ele>1898.655573</ele>
        <time>2021-08-15T17:05:33.398Z</time>
      </trkpt>
      <trkpt lat="43.03243" lon="42.82478">
        <ele>1906.275249</ele>
        <time>2021-08-15T17:06:35.007Z</time>
      </trkpt>
      <trkpt lat="43.0322" lon="42.82472">
        <ele>1908.139421</ele>
        <time>2021-08-15T17:06:50.570Z</time>
      </trkpt>
      <trkpt lat="43.03205" lon="42.82479">
        <ele>1909.375175</ele>
        <time>2021-08-15T17:07:00.653Z</time>
      </trkpt>
      <trkpt lat="43.03175" lon="42.82512">
        <ele>1912.364492</ele>
        <time>2021-08-15T17:07:23.946Z</time>
      </trkpt>
      <trkpt lat="43.03121" lon="42.82573">
        <ele>1915.748098</ele>
        <time>2021-08-15T17:08:04.768Z</time>
      </trkpt>
      <trkpt lat="43.03073" lon="42.82612">
        <ele>1917.069235</ele>
        <time>2021-08-15T17:08:28.495Z</time>
      </trkpt>
      <trkpt lat="43.03054" lon="42.82618">
        <ele>1917.530613</ele>
        <time>2021-08-15T17:08:35.101Z</time>
      </trkpt>
      <trkpt lat="43.03018" lon="42.82582">
        <ele>1918.588249</ele>
        <time>2021-08-15T17:08:44.361Z</time>
      </trkpt>
      <trkpt lat="43.03003" lon="42.82573">
        <ele>1918.957472</ele>
        <time>2021-08-15T17:08:47.534Z</time>
      </trkpt>
      <trkpt lat="43.02974" lon="42.82564">
        <ele>1917.573022</ele>
        <time>2021-08-15T17:08:52.523Z</time>
      </trkpt>
      <trkpt lat="43.02962" lon="42.82565">
        <ele>1916.785502</ele>
        <time>2021-08-15T17:08:54.589Z</time>
      </trkpt>
      <trkpt lat="43.02945" lon="42.82574">
        <ele>1915.677328</ele>
        <time>2021-08-15T17:08:57.264Z</time>
      </trkpt>
      <trkpt lat="43.02929" lon="42.8259">
        <ele>1914.452724</ele>
        <time>2021-08-15T17:09:00.385Z</time>
      </trkpt>
      <trkpt lat="43.02881" lon="42.82661">
        <ele>1909.982563</ele>
        <time>2021-08-15T17:09:10.920Z</time>
      </trkpt>
      <trkpt lat="43.02861" lon="42.82718">
        <ele>1906.889982</ele>
        <time>2021-08-15T17:09:17.500Z</time>
      </trkpt>
      <trkpt lat="43.02802" lon="42.82839">
        <ele>1898.20699</ele>
        <time>2021-08-15T17:09:33.285Z</time>
      </trkpt>
      <trkpt lat="43.02769" lon="42.82894">
        <ele>1894.006142</ele>
        <time>2021-08-15T17:09:40.893Z</time>
      </trkpt>
      <trkpt lat="43.02727" lon="42.82918">
        <ele>1890.390718</ele>
        <time>2021-08-15T17:09:47.596Z</time>
      </trkpt>
      <trkpt lat="43.02686" lon="42.82924">
        <ele>1887.19148</ele>
        <time>2021-08-15T17:09:53.563Z</time>
      </trkpt>
      <trkpt lat="43.02585" lon="42.82873">
        <ele>1878.908107</ele>
        <time>2021-08-15T17:10:09.472Z</time>
      </trkpt>
      <trkpt lat="43.02544" lon="42.8287">
        <ele>1876.762766</ele>
        <time>2021-08-15T17:10:15.615Z</time>
      </trkpt>
      <trkpt lat="43.02514" lon="42.82905">
        <ele>1874.669487</ele>
        <time>2021-08-15T17:10:21.772Z</time>
      </trkpt>
      <trkpt lat="43.02496" lon="42.83013">
        <ele>1870.375056</ele>
        <time>2021-08-15T17:10:34.926Z</time>
      </trkpt>
      <trkpt lat="43.02497" lon="42.83062">
        <ele>1868.615139</ele>
        <time>2021-08-15T17:10:40.958Z</time>
      </trkpt>
      <trkpt lat="43.0248" lon="42.83087">
        <ele>1867.431542</ele>
        <time>2021-08-15T17:10:45.243Z</time>
      </trkpt>
      <trkpt lat="43.0242" lon="42.8311">
        <ele>1864.527976</ele>
        <time>2021-08-15T17:10:55.446Z</time>
      </trkpt>
      <trkpt lat="43.02357" lon="42.83156">
        <ele>1861.160241</ele>
        <time>2021-08-15T17:11:06.649Z</time>
      </trkpt>
      <trkpt lat="43.02325" lon="42.83162">
        <ele>1858.680108</ele>
        <time>2021-08-15T17:11:11.573Z</time>
      </trkpt>
      <trkpt lat="43.02297" lon="42.83173">
        <ele>1856.454768</ele>
        <time>2021-08-15T17:11:15.930Z</time>
      </trkpt>
      <trkpt lat="43.02206" lon="42.83255">
        <ele>1848.160095</ele>
        <time>2021-08-15T17:11:31.831Z</time>
      </trkpt>
      <trkpt lat="43.02084" lon="42.8331">
        <ele>1837.61319</ele>
        <time>2021-08-15T17:11:50.439Z</time>
      </trkpt>
      <trkpt lat="43.02025" lon="42.83319">
        <ele>1832.716275</ele>
        <time>2021-08-15T17:11:59.100Z</time>
      </trkpt>
      <trkpt lat="43.01943" lon="42.83308">
        <ele>1827.609543</ele>
        <time>2021-08-15T17:12:11.424Z</time>
      </trkpt>
      <trkpt lat="43.01854" lon="42.83299">
        <ele>1822.125697</ele>
        <time>2021-08-15T17:12:25.392Z</time>
      </trkpt>
      <trkpt lat="43.01849" lon="42.83284">
        <ele>1821.45892</ele>
        <time>2021-08-15T17:12:27.332Z</time>
      </trkpt>
      <trkpt lat="43.01857" lon="42.83277">
        <ele>1821.061641</ele>
        <time>2021-08-15T17:12:28.924Z</time>
      </trkpt>
      <trkpt lat="43.01898" lon="42.83284">
        <ele>1819.322603</ele>
        <time>2021-08-15T17:12:35.823Z</time>
      </trkpt>
      <trkpt lat="43.01993" lon="42.83285">
        <ele>1815.397416</ele>
        <time>2021-08-15T17:12:51.645Z</time>
      </trkpt>
      <trkpt lat="43.02016" lon="42.83278">
        <ele>1814.427883</ele>
        <time>2021-08-15T17:12:55.524Z</time>
      </trkpt>
      <trkpt lat="43.02073" lon="42.83238">
        <ele>1810.88412</ele>
        <time>2021-08-15T17:13:05.660Z</time>
      </trkpt>
      <trkpt lat="43.02082" lon="42.83225">
        <ele>1810.154708</ele>
        <time>2021-08-15T17:13:07.643Z</time>
      </trkpt>
      <trkpt lat="43.02089" lon="42.83169">
        <ele>1807.758193</ele>
        <time>2021-08-15T17:13:14.115Z</time>
      </trkpt>
      <trkpt lat="43.02086" lon="42.83117">
        <ele>1805.585936</ele>
        <time>2021-08-15T17:13:19.952Z</time>
      </trkpt>
      <trkpt lat="43.02081" lon="42.83097">
        <ele>1804.729352</ele>
        <time>2021-08-15T17:13:22.246Z</time>
      </trkpt>
      <trkpt lat="43.0207" lon="42.83094">
        <ele>1804.080055</ele>
        <time>2021-08-15T17:13:23.977Z</time>
      </trkpt>
      <trkpt lat="43.0206" lon="42.83133">
        <ele>1802.390672</ele>
        <time>2021-08-15T17:13:28.622Z</time>
      </trkpt>
      <trkpt lat="43.02036" lon="42.83164">
        <ele>1800.577685</ele>
        <time>2021-08-15T17:13:33.656Z</time>
      </trkpt>
      <trkpt lat="43.02023" lon="42.83171">
        <ele>1799.792708</ele>
        <time>2021-08-15T17:13:35.820Z</time>
      </trkpt>
      <trkpt lat="43.01968" lon="42.83164">
        <ele>1796.763001</ele>
        <time>2021-08-15T17:13:44.279Z</time>
      </trkpt>
      <trkpt lat="43.01953" lon="42.8317">
        <ele>1795.88117</ele>
        <time>2021-08-15T17:13:46.797Z</time>
      </trkpt>
      <trkpt lat="43.01923" lon="42.83206">
        <ele>1793.644319</ele>
        <time>2021-08-15T17:13:53.276Z</time>
      </trkpt>
      <trkpt lat="43.01908" lon="42.83213">
        <ele>1792.639654</ele>
        <time>2021-08-15T17:13:55.899Z</time>
      </trkpt>
      <trkpt lat="43.01867" lon="42.83192">
        <ele>1789.857447</ele>
        <time>2021-08-15T17:14:02.948Z</time>
      </trkpt>
      <trkpt lat="43.0178" lon="42.83128">
        <ele>1783.605469</ele>
        <time>2021-08-15T17:14:17.935Z</time>
      </trkpt>
      <trkpt lat="43.01746" lon="42.8311">
        <ele>1780.417259</ele>
        <time>2021-08-15T17:14:23.148Z</time>
      </trkpt>
      <trkpt lat="43.01743" lon="42.83098">
        <ele>1779.41612</ele>
        <time>2021-08-15T17:14:24.436Z</time>
      </trkpt>
      <trkpt lat="43.01749" lon="42.83093">
        <ele>1778.578969</ele>
        <time>2021-08-15T17:14:25.515Z</time>
      </trkpt>
      <trkpt lat="43.01811" lon="42.83134">
        <ele>1771.002316</ele>
        <time>2021-08-15T17:14:35.184Z</time>
      </trkpt>
      <trkpt lat="43.01837" lon="42.83142">
        <ele>1767.992506</ele>
        <time>2021-08-15T17:14:38.936Z</time>
      </trkpt>
      <trkpt lat="43.01856" lon="42.83142">
        <ele>1765.897687</ele>
        <time>2021-08-15T17:14:41.521Z</time>
      </trkpt>
      <trkpt lat="43.0188" lon="42.83132">
        <ele>1763.149537</ele>
        <time>2021-08-15T17:14:44.882Z</time>
      </trkpt>
      <trkpt lat="43.01902" lon="42.83091">
        <ele>1758.880951</ele>
        <time>2021-08-15T17:14:49.959Z</time>
      </trkpt>
      <trkpt lat="43.01911" lon="42.83057">
        <ele>1755.851882</ele>
        <time>2021-08-15T17:14:53.549Z</time>
      </trkpt>
      <trkpt lat="43.01913" lon="42.83039">
        <ele>1754.368985</ele>
        <time>2021-08-15T17:14:55.308Z</time>
      </trkpt>
      <trkpt lat="43.01899" lon="42.82988">
        <ele>1749.748597</ele>
        <time>2021-08-15T17:15:00.869Z</time>
      </trkpt>
      <trkpt lat="43.019" lon="42.8295">
        <ele>1746.582014</ele>
        <time>2021-08-15T17:15:04.752Z</time>
      </trkpt>
      <trkpt lat="43.01948" lon="42.82897">
        <ele>1740.745463</ele>
        <time>2021-08-15T17:15:13.838Z</time>
      </trkpt>
      <trkpt lat="43.01948" lon="42.82882">
        <ele>1740.154494</ele>
        <time>2021-08-15T17:15:15.434Z</time>
      </trkpt>
      <trkpt lat="43.01943" lon="42.8288">
        <ele>1739.860587</ele>
        <time>2021-08-15T17:15:16.236Z</time>
      </trkpt>
      <trkpt lat="43.01891" lon="42.82921">
        <ele>1736.577915</ele>
        <time>2021-08-15T17:15:25.471Z</time>
      </trkpt>
      <trkpt lat="43.01884" lon="42.82932">
        <ele>1736.020235</ele>
        <time>2021-08-15T17:15:27.096Z</time>
      </trkpt>
      <trkpt lat="43.01878" lon="42.83008">
        <ele>1732.971755</ele>
        <time>2021-08-15T17:15:36.803Z</time>
      </trkpt>
      <trkpt lat="43.01871" lon="42.83034">
        <ele>1731.817026</ele>
        <time>2021-08-15T17:15:40.350Z</time>
      </trkpt>
      <trkpt lat="43.01858" lon="42.83046">
        <ele>1730.799632</ele>
        <time>2021-08-15T17:15:43.274Z</time>
      </trkpt>
      <trkpt lat="43.01843" lon="42.83046">
        <ele>1729.870305</ele>
        <time>2021-08-15T17:15:45.747Z</time>
      </trkpt>
      <trkpt lat="43.01782" lon="42.82997">
        <ele>1725.498425</ele>
        <time>2021-08-15T17:15:56.687Z</time>
      </trkpt>
      <trkpt lat="43.0177" lon="42.82958">
        <ele>1723.535872</ele>
        <time>2021-08-15T17:16:01.358Z</time>
      </trkpt>
      <trkpt lat="43.01746" lon="42.82924">
        <ele>1721.375397</ele>
        <time>2021-08-15T17:16:06.371Z</time>
      </trkpt>
      <trkpt lat="43.01729" lon="42.82916">
        <ele>1720.024213</ele>
        <time>2021-08-15T17:16:08.836Z</time>
      </trkpt>
      <trkpt lat="43.01692" lon="42.8293">
        <ele>1716.517621</ele>
        <time>2021-08-15T17:16:14.331Z</time>
      </trkpt>
      <trkpt lat="43.01601" lon="42.82931">
        <ele>1708.156978</ele>
        <time>2021-08-15T17:16:27.325Z</time>
      </trkpt>
      <trkpt lat="43.01591" lon="42.8292">
        <ele>1706.994336</ele>
        <time>2021-08-15T17:16:29.123Z</time>
      </trkpt>
      <trkpt lat="43.01595" lon="42.8291">
        <ele>1706.223368</ele>
        <time>2021-08-15T17:16:30.339Z</time>
      </trkpt>
      <trkpt lat="43.01649" lon="42.82911">
        <ele>1702.072721</ele>
        <time>2021-08-15T17:16:38.147Z</time>
      </trkpt>
      <trkpt lat="43.01663" lon="42.82903">
        <ele>1700.976951</ele>
        <time>2021-08-15T17:16:40.460Z</time>
      </trkpt>
      <trkpt lat="43.01708" lon="42.82855">
        <ele>1697.041746</ele>
        <time>2021-08-15T17:16:48.976Z</time>
      </trkpt>
      <trkpt lat="43.01759" lon="42.82841">
        <ele>1693.363173</ele>
        <time>2021-08-15T17:16:57.044Z</time>
      </trkpt>
      <trkpt lat="43.01809" lon="42.82854">
        <ele>1689.711256</ele>
        <time>2021-08-15T17:17:04.753Z</time>
      </trkpt>
      <trkpt lat="43.01821" lon="42.82843">
        <ele>1688.598595</ele>
        <time>2021-08-15T17:17:06.990Z</time>
      </trkpt>
      <trkpt lat="43.01841" lon="42.82797">
        <ele>1685.696075</ele>
        <time>2021-08-15T17:17:12.825Z</time>
      </trkpt>
      <trkpt lat="43.01861" lon="42.82781">
        <ele>1683.954161</ele>
        <time>2021-08-15T17:17:16.315Z</time>
      </trkpt>
      <trkpt lat="43.01865" lon="42.82765">
        <ele>1683.087837</ele>
        <time>2021-08-15T17:17:18.019Z</time>
      </trkpt>
      <trkpt lat="43.01857" lon="42.82759">
        <ele>1682.431712</ele>
        <time>2021-08-15T17:17:19.321Z</time>
      </trkpt>
      <trkpt lat="43.01851" lon="42.82762">
        <ele>1681.942034</ele>
        <time>2021-08-15T17:17:20.306Z</time>
      </trkpt>
      <trkpt lat="43.01822" lon="42.82799">
        <ele>1678.994556</ele>
        <time>2021-08-15T17:17:26.115Z</time>
      </trkpt>
      <trkpt lat="43.01803" lon="42.82805">
        <ele>1677.453219</ele>
        <time>2021-08-15T17:17:28.910Z</time>
      </trkpt>
      <trkpt lat="43.0173" lon="42.82774">
        <ele>1671.093119</ele>
        <time>2021-08-15T17:17:40.078Z</time>
      </trkpt>
      <trkpt lat="43.01684" lon="42.82773">
        <ele>1667.345552</ele>
        <time>2021-08-15T17:17:46.661Z</time>
      </trkpt>
      <trkpt lat="43.01639" lon="42.8278">
        <ele>1663.588733</ele>
        <time>2021-08-15T17:17:53.316Z</time>
      </trkpt>
      <trkpt lat="43.01553" lon="42.82768">
        <ele>1656.316589</ele>
        <time>2021-08-15T17:18:06.076Z</time>
      </trkpt>
      <trkpt lat="43.01554" lon="42.82756">
        <ele>1655.562755</ele>
        <time>2021-08-15T17:18:07.389Z</time>
      </trkpt>
      <trkpt lat="43.0156" lon="42.82754">
        <ele>1655.045467</ele>
        <time>2021-08-15T17:18:08.287Z</time>
      </trkpt>
      <trkpt lat="43.01582" lon="42.82759">
        <ele>1653.132747</ele>
        <time>2021-08-15T17:18:11.604Z</time>
      </trkpt>
      <trkpt lat="43.01624" lon="42.82757">
        <ele>1649.640772</ele>
        <time>2021-08-15T17:18:17.600Z</time>
      </trkpt>
      <trkpt lat="43.01654" lon="42.82747">
        <ele>1646.24706</ele>
        <time>2021-08-15T17:18:22.057Z</time>
      </trkpt>
      <trkpt lat="43.01678" lon="42.82732">
        <ele>1642.85563</ele>
        <time>2021-08-15T17:18:25.709Z</time>
      </trkpt>
      <trkpt lat="43.01716" lon="42.82721">
        <ele>1637.733868</ele>
        <time>2021-08-15T17:18:31.135Z</time>
      </trkpt>
      <trkpt lat="43.01729" lon="42.82711">
        <ele>1635.794796</ele>
        <time>2021-08-15T17:18:33.181Z</time>
      </trkpt>
      <trkpt lat="43.01739" lon="42.8269">
        <ele>1633.358783</ele>
        <time>2021-08-15T17:18:35.720Z</time>
      </trkpt>
      <trkpt lat="43.01741" lon="42.82656">
        <ele>1630.144463</ele>
        <time>2021-08-15T17:18:39.056Z</time>
      </trkpt>
      <trkpt lat="43.01735" lon="42.82642">
        <ele>1628.53197</ele>
        <time>2021-08-15T17:18:40.723Z</time>
      </trkpt>
      <trkpt lat="43.01658" lon="42.82547">
        <ele>1612.89407</ele>
        <time>2021-08-15T17:18:54.572Z</time>
      </trkpt>
      <trkpt lat="43.01552" lon="42.8245">
        <ele>1593.819234</ele>
        <time>2021-08-15T17:19:11.593Z</time>
      </trkpt>
      <trkpt lat="43.01487" lon="42.824">
        <ele>1585.150612</ele>
        <time>2021-08-15T17:19:21.900Z</time>
      </trkpt>
      <trkpt lat="43.01461" lon="42.82389">
        <ele>1582.041366</ele>
        <time>2021-08-15T17:19:25.674Z</time>
      </trkpt>
      <trkpt lat="43.01445" lon="42.82368">
        <ele>1579.49254</ele>
        <time>2021-08-15T17:19:28.822Z</time>
      </trkpt>
      <trkpt lat="43.01415" lon="42.82266">
        <ele>1571.650134</ele>
        <time>2021-08-15T17:19:40.587Z</time>
      </trkpt>
      <trkpt lat="43.01415" lon="42.82243">
        <ele>1570.257311</ele>
        <time>2021-08-15T17:19:43.023Z</time>
      </trkpt>
      <trkpt lat="43.01427" lon="42.8218">
        <ele>1566.214646</ele>
        <time>2021-08-15T17:19:50.128Z</time>
      </trkpt>
      <trkpt lat="43.01354" lon="42.821">
        <ele>1558.587074</ele>
        <time>2021-08-15T17:20:03.760Z</time>
      </trkpt>
      <trkpt lat="43.01343" lon="42.82074">
        <ele>1557.006319</ele>
        <time>2021-08-15T17:20:06.931Z</time>
      </trkpt>
      <trkpt lat="43.01339" lon="42.82039">
        <ele>1555.145012</ele>
        <time>2021-08-15T17:20:10.666Z</time>
      </trkpt>
      <trkpt lat="43.01329" lon="42.8201">
        <ele>1553.440927</ele>
        <time>2021-08-15T17:20:14.108Z</time>
      </trkpt>
      <trkpt lat="43.01321" lon="42.82007">
        <ele>1552.854317</ele>
        <time>2021-08-15T17:20:15.277Z</time>
      </trkpt>
      <trkpt lat="43.01314" lon="42.82013">
        <ele>1552.267638</ele>
        <time>2021-08-15T17:20:16.474Z</time>
      </trkpt>
      <trkpt lat="43.01307" lon="42.82099">
        <ele>1547.650618</ele>
        <time>2021-08-15T17:20:26.200Z</time>
      </trkpt>
      <trkpt lat="43.01329" lon="42.82166">
        <ele>1545.560397</ele>
        <time>2021-08-15T17:20:34.876Z</time>
      </trkpt>
      <trkpt lat="43.01331" lon="42.822">
        <ele>1544.619454</ele>
        <time>2021-08-15T17:20:39.065Z</time>
      </trkpt>
      <trkpt lat="43.01326" lon="42.82243">
        <ele>1543.434471</ele>
        <time>2021-08-15T17:20:44.663Z</time>
      </trkpt>
      <trkpt lat="43.01326" lon="42.82268">
        <ele>1542.751677</ele>
        <time>2021-08-15T17:20:48.097Z</time>
      </trkpt>
      <trkpt lat="43.01333" lon="42.823">
        <ele>1541.863783</ele>
        <time>2021-08-15T17:20:52.303Z</time>
      </trkpt>
      <trkpt lat="43.01366" lon="42.82384">
        <ele>1538.833567</ele>
        <time>2021-08-15T17:21:04.197Z</time>
      </trkpt>
      <trkpt lat="43.01357" lon="42.82436">
        <ele>1536.954482</ele>
        <time>2021-08-15T17:21:10.527Z</time>
      </trkpt>
      <trkpt lat="43.01336" lon="42.82452">
        <ele>1535.802525</ele>
        <time>2021-08-15T17:21:14.316Z</time>
      </trkpt>
      <trkpt lat="43.01271" lon="42.82493">
        <ele>1532.356058</ele>
        <time>2021-08-15T17:21:25.376Z</time>
      </trkpt>
      <trkpt lat="43.01238" lon="42.82519">
        <ele>1530.789044</ele>
        <time>2021-08-15T17:21:31.299Z</time>
      </trkpt>
      <trkpt lat="43.01206" lon="42.82548">
        <ele>1529.255683</ele>
        <time>2021-08-15T17:21:37.263Z</time>
      </trkpt>
      <trkpt lat="43.01172" lon="42.82569">
        <ele>1527.73718</ele>
        <time>2021-08-15T17:21:43.246Z</time>
      </trkpt>
      <trkpt lat="43.01153" lon="42.82571">
        <ele>1526.974702</ele>
        <time>2021-08-15T17:21:46.278Z</time>
      </trkpt>
      <trkpt lat="43.01145" lon="42.82572">
        <ele>1526.660113</ele>
        <time>2021-08-15T17:21:47.619Z</time>
      </trkpt>
      <trkpt lat="43.01142" lon="42.82572">
        <ele>1526.547081</ele>
        <time>2021-08-15T17:21:48.103Z</time>
      </trkpt>
      <trkpt lat="43.01119" lon="42.82572">
        <ele>1525.621271</ele>
        <time>2021-08-15T17:21:52.006Z</time>
      </trkpt>
      <trkpt lat="43.01101" lon="42.82575">
        <ele>1524.87546</ele>
        <time>2021-08-15T17:21:55.433Z</time>
      </trkpt>
      <trkpt lat="43.01073" lon="42.82582">
        <ele>1525.576559</ele>
        <time>2021-08-15T17:22:02.257Z</time>
      </trkpt>
      <trkpt lat="43.01052" lon="42.82598">
        <ele>1526.194161</ele>
        <time>2021-08-15T17:22:10.006Z</time>
      </trkpt>
      <trkpt lat="43.01043" lon="42.8263">
        <ele>1526.820948</ele>
        <time>2021-08-15T17:22:18.956Z</time>
      </trkpt>
      <trkpt lat="43.01028" lon="42.82657">
        <ele>1527.437986</ele>
        <time>2021-08-15T17:22:28.281Z</time>
      </trkpt>
      <trkpt lat="43.01" lon="42.827">
        <ele>1528.494086</ele>
        <time>2021-08-15T17:22:46.407Z</time>
      </trkpt>
      <trkpt lat="43.00964" lon="42.8274">
        <ele>1529.770483</ele>
        <time>2021-08-15T17:23:07.550Z</time>
      </trkpt>
      <trkpt lat="43.00934" lon="42.82768">
        <ele>1531.037646</ele>
        <time>2021-08-15T17:23:24.497Z</time>
      </trkpt>
      <trkpt lat="43.009" lon="42.82811">
        <ele>1532.634106</ele>
        <time>2021-08-15T17:23:45.262Z</time>
      </trkpt>
      <trkpt lat="43.00826" lon="42.82868">
        <ele>1535.589806</ele>
        <time>2021-08-15T17:24:17.458Z</time>
      </trkpt>
      <trkpt lat="43.00791" lon="42.82871">
        <ele>1535.532551</ele>
        <time>2021-08-15T17:24:25.842Z</time>
      </trkpt>
      <trkpt lat="43.00666" lon="42.82857">
        <ele>1535.098831</ele>
        <time>2021-08-15T17:24:50.481Z</time>
      </trkpt>
      <trkpt lat="43.00569" lon="42.82897">
        <ele>1535.560018</ele>
        <time>2021-08-15T17:25:11.820Z</time>
      </trkpt>
      <trkpt lat="43.0054" lon="42.82921">
        <ele>1535.785321</ele>
        <time>2021-08-15T17:25:20.916Z</time>
      </trkpt>
      <trkpt lat="43.00519" lon="42.82951">
        <ele>1535.986028</ele>
        <time>2021-08-15T17:25:29.899Z</time>
      </trkpt>
      <trkpt lat="43.0051" lon="42.82974">
        <ele>1536.114708</ele>
        <time>2021-08-15T17:25:36.245Z</time>
      </trkpt>
      <trkpt lat="43.00506" lon="42.83003">
        <ele>1536.323049</ele>
        <time>2021-08-15T17:25:42.830Z</time>
      </trkpt>
      <trkpt lat="43.00508" lon="42.83053">
        <ele>1537.037238</ele>
        <time>2021-08-15T17:25:55.328Z</time>
      </trkpt>
      <trkpt lat="43.00503" lon="42.83073">
        <ele>1537.336467</ele>
        <time>2021-08-15T17:26:01.123Z</time>
      </trkpt>
      <trkpt lat="43.0049" lon="42.83084">
        <ele>1537.650858</ele>
        <time>2021-08-15T17:26:06.676Z</time>
      </trkpt>
      <trkpt lat="43.00328" lon="42.83146">
        <ele>1540.241967</ele>
        <time>2021-08-15T17:26:58.498Z</time>
      </trkpt>
      <trkpt lat="43.00312" lon="42.83161">
        <ele>1540.40975</ele>
        <time>2021-08-15T17:27:03.707Z</time>
      </trkpt>
      <trkpt lat="43.00281" lon="42.83214">
        <ele>1540.830253</ele>
        <time>2021-08-15T17:27:16.415Z</time>
      </trkpt>
      <trkpt lat="43.00203" lon="42.83272">
        <ele>1541.30043</ele>
        <time>2021-08-15T17:27:36.201Z</time>
      </trkpt>
      <trkpt lat="43.00156" lon="42.83367">
        <ele>1541.412961</ele>
        <time>2021-08-15T17:27:54.053Z</time>
      </trkpt>
      <trkpt lat="43.00048" lon="42.83485">
        <ele>1542.709189</ele>
        <time>2021-08-15T17:28:30.088Z</time>
      </trkpt>
      <trkpt lat="42.99974" lon="42.83583">
        <ele>1544.306335</ele>
        <time>2021-08-15T17:29:03.399Z</time>
      </trkpt>
      <trkpt lat="42.99938" lon="42.83614">
        <ele>1545.353511</ele>
        <time>2021-08-15T17:29:18.024Z</time>
      </trkpt>
      <trkpt lat="42.99858" lon="42.83728">
        <ele>1548.262964</ele>
        <time>2021-08-15T17:29:58.644Z</time>
      </trkpt>
      <trkpt lat="42.99734" lon="42.83802">
        <ele>1552.208008</ele>
        <time>2021-08-15T17:30:47.407Z</time>
      </trkpt>
      <trkpt lat="42.99722" lon="42.83818">
        <ele>1552.712976</ele>
        <time>2021-08-15T17:30:53.997Z</time>
      </trkpt>
      <trkpt lat="42.99711" lon="42.83885">
        <ele>1554.221991</ele>
        <time>2021-08-15T17:31:13.820Z</time>
      </trkpt>
      <trkpt lat="42.99687" lon="42.83935">
        <ele>1555.554681</ele>
        <time>2021-08-15T17:31:31.351Z</time>
      </trkpt>
      <trkpt lat="42.99595" lon="42.84052">
        <ele>1559.38225</ele>
        <time>2021-08-15T17:32:18.840Z</time>
      </trkpt>
      <trkpt lat="42.99512" lon="42.84089">
        <ele>1561.545559</ele>
        <time>2021-08-15T17:32:46.546Z</time>
      </trkpt>
      <trkpt lat="42.99482" lon="42.84117">
        <ele>1562.414419</ele>
        <time>2021-08-15T17:32:58.305Z</time>
      </trkpt>
      <trkpt lat="42.99443" lon="42.84198">
        <ele>1564.284126</ele>
        <time>2021-08-15T17:33:23.582Z</time>
      </trkpt>
      <trkpt lat="42.9944" lon="42.84236">
        <ele>1565.382236</ele>
        <time>2021-08-15T17:33:34.793Z</time>
      </trkpt>
      <trkpt lat="42.99396" lon="42.84353">
        <ele>1569.112446</ele>
        <time>2021-08-15T17:34:15.625Z</time>
      </trkpt>
      <trkpt lat="42.99381" lon="42.8438">
        <ele>1570.070423</ele>
        <time>2021-08-15T17:34:26.885Z</time>
      </trkpt>
      <trkpt lat="42.99364" lon="42.844">
        <ele>1570.930323</ele>
        <time>2021-08-15T17:34:37.250Z</time>
      </trkpt>
      <trkpt lat="42.9932" lon="42.84407">
        <ele>1572.280059</ele>
        <time>2021-08-15T17:34:56.900Z</time>
      </trkpt>
      <trkpt lat="42.99239" lon="42.84441">
        <ele>1574.871343</ele>
        <time>2021-08-15T17:35:30.692Z</time>
      </trkpt>
      <trkpt lat="42.99088" lon="42.84469">
        <ele>1576.287655</ele>
        <time>2021-08-15T17:36:12.262Z</time>
      </trkpt>
      <trkpt lat="42.98971" lon="42.84514">
        <ele>1575.267203</ele>
        <time>2021-08-15T17:36:35.393Z</time>
      </trkpt>
      <trkpt lat="42.98932" lon="42.84556">
        <ele>1574.214263</ele>
        <time>2021-08-15T17:36:44.121Z</time>
      </trkpt>
      <trkpt lat="42.98892" lon="42.84619">
        <ele>1572.905766</ele>
        <time>2021-08-15T17:36:55.001Z</time>
      </trkpt>
      <trkpt lat="42.9883" lon="42.84661">
        <ele>1572.06368</ele>
        <time>2021-08-15T17:37:07.590Z</time>
      </trkpt>
      <trkpt lat="42.98797" lon="42.84693">
        <ele>1571.766982</ele>
        <time>2021-08-15T17:37:15.361Z</time>
      </trkpt>
      <trkpt lat="42.98645" lon="42.84808">
        <ele>1572.053143</ele>
        <time>2021-08-15T17:37:56.390Z</time>
      </trkpt>
      <trkpt lat="42.98622" lon="42.84847">
        <ele>1572.492297</ele>
        <time>2021-08-15T17:38:06.815Z</time>
      </trkpt>
      <trkpt lat="42.98588" lon="42.84935">
        <ele>1573.844633</ele>
        <time>2021-08-15T17:38:28.104Z</time>
      </trkpt>
      <trkpt lat="42.98577" lon="42.8495">
        <ele>1574.833322</ele>
        <time>2021-08-15T17:38:33.089Z</time>
      </trkpt>
      <trkpt lat="42.98493" lon="42.85019">
        <ele>1581.05672</ele>
        <time>2021-08-15T17:39:24.907Z</time>
      </trkpt>
      <trkpt lat="42.98469" lon="42.85028">
        <ele>1582.656363</ele>
        <time>2021-08-15T17:39:42.263Z</time>
      </trkpt>
      <trkpt lat="42.98451" lon="42.85025">
        <ele>1583.815486</ele>
        <time>2021-08-15T17:39:57.378Z</time>
      </trkpt>
      <trkpt lat="42.98426" lon="42.85013">
        <ele>1585.753703</ele>
        <time>2021-08-15T17:40:12.600Z</time>
      </trkpt>
      <trkpt lat="42.98397" lon="42.84999">
        <ele>1588.441853</ele>
        <time>2021-08-15T17:40:34.769Z</time>
      </trkpt>
      <trkpt lat="42.98392" lon="42.84997">
        <ele>1588.923976</ele>
        <time>2021-08-15T17:40:38.275Z</time>
      </trkpt>
      <trkpt lat="42.9838" lon="42.84999">
        <ele>1589.943709</ele>
        <time>2021-08-15T17:40:50.457Z</time>
      </trkpt>
      <trkpt lat="42.98359" lon="42.85013">
        <ele>1591.961267</ele>
        <time>2021-08-15T17:41:02.987Z</time>
      </trkpt>
      <trkpt lat="42.98328" lon="42.85052">
        <ele>1595.651187</ele>
        <time>2021-08-15T17:41:34.980Z</time>
      </trkpt>
      <trkpt lat="42.98309" lon="42.85098">
        <ele>1599.022372</ele>
        <time>2021-08-15T17:42:03.615Z</time>
      </trkpt>
      <trkpt lat="42.98284" lon="42.85271">
        <ele>1604.244575</ele>
        <time>2021-08-15T17:42:54.942Z</time>
      </trkpt>
      <trkpt lat="42.98266" lon="42.85298">
        <ele>1605.157384</ele>
        <time>2021-08-15T17:43:03.585Z</time>
      </trkpt>
      <trkpt lat="42.98195" lon="42.85372">
        <ele>1607.701579</ele>
        <time>2021-08-15T17:43:30.480Z</time>
      </trkpt>
      <trkpt lat="42.98192" lon="42.85381">
        <ele>1607.887019</ele>
        <time>2021-08-15T17:43:32.423Z</time>
      </trkpt>
      <trkpt lat="42.9819" lon="42.85416">
        <ele>1608.500436</ele>
        <time>2021-08-15T17:43:40.485Z</time>
      </trkpt>
      <trkpt lat="42.98193" lon="42.85444">
        <ele>1608.995848</ele>
        <time>2021-08-15T17:43:46.354Z</time>
      </trkpt>
      <trkpt lat="42.98195" lon="42.85477">
        <ele>1609.595083</ele>
        <time>2021-08-15T17:43:54.119Z</time>
      </trkpt>
      <trkpt lat="42.98188" lon="42.85521">
        <ele>1610.395445</ele>
        <time>2021-08-15T17:44:06.769Z</time>
      </trkpt>
      <trkpt lat="42.9818" lon="42.85537">
        <ele>1610.733062</ele>
        <time>2021-08-15T17:44:12.960Z</time>
      </trkpt>
      <trkpt lat="42.98167" lon="42.85548">
        <ele>1611.280578</ele>
        <time>2021-08-15T17:44:19.858Z</time>
      </trkpt>
      <trkpt lat="42.98102" lon="42.8557">
        <ele>1614.156919</ele>
        <time>2021-08-15T17:44:51.365Z</time>
      </trkpt>
      <trkpt lat="42.98036" lon="42.85616">
        <ele>1617.310981</ele>
        <time>2021-08-15T17:45:23.334Z</time>
      </trkpt>
      <trkpt lat="42.98022" lon="42.85618">
        <ele>1617.907769</ele>
        <time>2021-08-15T17:45:29.800Z</time>
      </trkpt>
      <trkpt lat="42.97985" lon="42.85603">
        <ele>1618.754717</ele>
        <time>2021-08-15T17:45:46.511Z</time>
      </trkpt>
      <trkpt lat="42.97965" lon="42.85603">
        <ele>1618.916472</ele>
        <time>2021-08-15T17:45:54.198Z</time>
      </trkpt>
      <trkpt lat="42.97935" lon="42.85614">
        <ele>1619.178488</ele>
        <time>2021-08-15T17:46:06.466Z</time>
      </trkpt>
      <trkpt lat="42.97913" lon="42.85631">
        <ele>1619.392152</ele>
        <time>2021-08-15T17:46:14.821Z</time>
      </trkpt>
      <trkpt lat="42.97894" lon="42.85657">
        <ele>1619.610616</ele>
        <time>2021-08-15T17:46:21.296Z</time>
      </trkpt>
      <trkpt lat="42.97861" lon="42.85725">
        <ele>1619.707896</ele>
        <time>2021-08-15T17:46:31.945Z</time>
      </trkpt>
      <trkpt lat="42.97849" lon="42.85773">
        <ele>1617.695481</ele>
        <time>2021-08-15T17:46:37.869Z</time>
      </trkpt>
      <trkpt lat="42.97846" lon="42.85807">
        <ele>1616.367896</ele>
        <time>2021-08-15T17:46:41.636Z</time>
      </trkpt>
      <trkpt lat="42.9785" lon="42.85841">
        <ele>1615.012494</ele>
        <time>2021-08-15T17:46:45.500Z</time>
      </trkpt>
      <trkpt lat="42.97843" lon="42.85862">
        <ele>1614.109858</ele>
        <time>2021-08-15T17:46:48.036Z</time>
      </trkpt>
      <trkpt lat="42.97807" lon="42.8586">
        <ele>1612.174382</ele>
        <time>2021-08-15T17:46:53.508Z</time>
      </trkpt>
      <trkpt lat="42.97787" lon="42.85851">
        <ele>1611.029477</ele>
        <time>2021-08-15T17:46:56.762Z</time>
      </trkpt>
      <trkpt lat="42.97742" lon="42.8585">
        <ele>1609.352056</ele>
        <time>2021-08-15T17:47:03.662Z</time>
      </trkpt>
      <trkpt lat="42.97623" lon="42.85875">
        <ele>1605.64391</ele>
        <time>2021-08-15T17:47:24.205Z</time>
      </trkpt>
      <trkpt lat="42.9758" lon="42.85899">
        <ele>1604.908012</ele>
        <time>2021-08-15T17:47:34.873Z</time>
      </trkpt>
      <trkpt lat="42.97527" lon="42.85964">
        <ele>1605.317221</ele>
        <time>2021-08-15T17:47:53.355Z</time>
      </trkpt>
      <trkpt lat="42.97499" lon="42.86001">
        <ele>1605.542467</ele>
        <time>2021-08-15T17:48:04.003Z</time>
      </trkpt>
      <trkpt lat="42.97489" lon="42.86027">
        <ele>1605.66835</ele>
        <time>2021-08-15T17:48:10.001Z</time>
      </trkpt>
      <trkpt lat="42.97459" lon="42.86168">
        <ele>1606.416301</ele>
        <time>2021-08-15T17:48:38.909Z</time>
      </trkpt>
      <trkpt lat="42.97444" lon="42.86204">
        <ele>1606.642962</ele>
        <time>2021-08-15T17:48:46.638Z</time>
      </trkpt>
      <trkpt lat="42.97383" lon="42.86326">
        <ele>1607.448919</ele>
        <time>2021-08-15T17:49:14.345Z</time>
      </trkpt>
      <trkpt lat="42.97262" lon="42.8651">
        <ele>1609.181773</ele>
        <time>2021-08-15T17:50:00.552Z</time>
      </trkpt>
      <trkpt lat="42.97208" lon="42.86644">
        <ele>1611.141879</ele>
        <time>2021-08-15T17:50:36.773Z</time>
      </trkpt>
      <trkpt lat="42.97209" lon="42.86657">
        <ele>1611.303107</ele>
        <time>2021-08-15T17:50:39.738Z</time>
      </trkpt>
      <trkpt lat="42.97224" lon="42.86695">
        <ele>1611.953516</ele>
        <time>2021-08-15T17:50:55.024Z</time>
      </trkpt>
      <trkpt lat="42.97225" lon="42.86702">
        <ele>1612.091305</ele>
        <time>2021-08-15T17:50:58.421Z</time>
      </trkpt>
      <trkpt lat="42.97222" lon="42.86719">
        <ele>1612.418249</ele>
        <time>2021-08-15T17:51:04.732Z</time>
      </trkpt>
      <trkpt lat="42.97177" lon="42.8678">
        <ele>1614.017876</ele>
        <time>2021-08-15T17:51:36.619Z</time>
      </trkpt>
      <trkpt lat="42.9709" lon="42.86873">
        <ele>1616.652019</ele>
        <time>2021-08-15T17:52:32.148Z</time>
      </trkpt>
      <trkpt lat="42.97082" lon="42.86888">
        <ele>1616.915531</ele>
        <time>2021-08-15T17:52:38.359Z</time>
      </trkpt>
      <trkpt lat="42.97069" lon="42.86978">
        <ele>1618.193588</ele>
        <time>2021-08-15T17:53:08.408Z</time>
      </trkpt>
      <trkpt lat="42.9706" lon="42.87007">
        <ele>1618.629015</ele>
        <time>2021-08-15T17:53:18.879Z</time>
      </trkpt>
      <trkpt lat="42.97048" lon="42.87019">
        <ele>1618.916034</ele>
        <time>2021-08-15T17:53:25.700Z</time>
      </trkpt>
      <trkpt lat="42.97044" lon="42.87061">
        <ele>1619.491618</ele>
        <time>2021-08-15T17:53:39.826Z</time>
      </trkpt>
      <trkpt lat="42.9705" lon="42.87118">
        <ele>1620.546015</ele>
        <time>2021-08-15T17:53:59.834Z</time>
      </trkpt>
      <trkpt lat="42.97046" lon="42.87137">
        <ele>1620.931849</ele>
        <time>2021-08-15T17:54:07.049Z</time>
      </trkpt>
      <trkpt lat="42.96947" lon="42.8733">
        <ele>1625.490427</ele>
        <time>2021-08-15T17:55:35.833Z</time>
      </trkpt>
      <trkpt lat="42.96898" lon="42.87406">
        <ele>1627.536012</ele>
        <time>2021-08-15T17:56:15.037Z</time>
      </trkpt>
      <trkpt lat="42.96864" lon="42.87478">
        <ele>1629.25871</ele>
        <time>2021-08-15T17:56:46.648Z</time>
      </trkpt>
      <trkpt lat="42.96763" lon="42.87609">
        <ele>1632.434796</ele>
        <time>2021-08-15T17:57:47.652Z</time>
      </trkpt>
      <trkpt lat="42.96733" lon="42.87634">
        <ele>1633.243108</ele>
        <time>2021-08-15T17:58:06.089Z</time>
      </trkpt>
      <trkpt lat="42.96684" lon="42.87657">
        <ele>1637.48095</ele>
        <time>2021-08-15T17:58:38.705Z</time>
      </trkpt>
      <trkpt lat="42.96672" lon="42.87654">
        <ele>1638.516235</ele>
        <time>2021-08-15T17:58:46.037Z</time>
      </trkpt>
      <trkpt lat="42.96645" lon="42.87637">
        <ele>1641.156934</ele>
        <time>2021-08-15T17:59:08.775Z</time>
      </trkpt>
      <trkpt lat="42.96616" lon="42.87628">
        <ele>1643.791362</ele>
        <time>2021-08-15T17:59:35.863Z</time>
      </trkpt>
      <trkpt lat="42.96599" lon="42.87628">
        <ele>1645.364122</ele>
        <time>2021-08-15T17:59:51.416Z</time>
      </trkpt>
      <trkpt lat="42.96575" lon="42.87649">
        <ele>1647.86037</ele>
        <time>2021-08-15T18:00:18.270Z</time>
      </trkpt>
      <trkpt lat="42.96531" lon="42.87773">
        <ele>1660.59799</ele>
        <time>2021-08-15T18:02:10.501Z</time>
      </trkpt>
      <trkpt lat="42.9652" lon="42.87789">
        <ele>1662.613591</ele>
        <time>2021-08-15T18:02:27.178Z</time>
      </trkpt>
      <trkpt lat="42.96496" lon="42.87809">
        <ele>1666.44345</ele>
        <time>2021-08-15T18:02:58.935Z</time>
      </trkpt>
      <trkpt lat="42.96464" lon="42.87854">
        <ele>1672.530084</ele>
        <time>2021-08-15T18:03:46.756Z</time>
      </trkpt>
      <trkpt lat="42.96456" lon="42.87877">
        <ele>1674.061869</ele>
        <time>2021-08-15T18:04:03.822Z</time>
      </trkpt>
      <trkpt lat="42.96438" lon="42.87989">
        <ele>1679.216374</ele>
        <time>2021-08-15T18:05:06.670Z</time>
      </trkpt>
      <trkpt lat="42.96423" lon="42.88037">
        <ele>1681.548462</ele>
        <time>2021-08-15T18:05:28.537Z</time>
      </trkpt>
      <trkpt lat="42.96364" lon="42.881">
        <ele>1684.277602</ele>
        <time>2021-08-15T18:06:05.228Z</time>
      </trkpt>
      <trkpt lat="42.96309" lon="42.88186">
        <ele>1684.260528</ele>
        <time>2021-08-15T18:06:35.081Z</time>
      </trkpt>
      <trkpt lat="42.96286" lon="42.88207">
        <ele>1684.254996</ele>
        <time>2021-08-15T18:06:44.130Z</time>
      </trkpt>
      <trkpt lat="42.96236" lon="42.88237">
        <ele>1684.382688</ele>
        <time>2021-08-15T18:07:03.074Z</time>
      </trkpt>
      <trkpt lat="42.962" lon="42.88249">
        <ele>1684.680889</ele>
        <time>2021-08-15T18:07:16.234Z</time>
      </trkpt>
      <trkpt lat="42.96146" lon="42.88256">
        <ele>1685.132361</ele>
        <time>2021-08-15T18:07:37.766Z</time>
      </trkpt>
      <trkpt lat="42.96096" lon="42.88253">
        <ele>1685.543542</ele>
        <time>2021-08-15T18:07:59.644Z</time>
      </trkpt>
      <trkpt lat="42.95984" lon="42.88277">
        <ele>1689.789445</ele>
        <time>2021-08-15T18:09:00.327Z</time>
      </trkpt>
      <trkpt lat="42.95949" lon="42.88265">
        <ele>1691.412629</ele>
        <time>2021-08-15T18:09:24.031Z</time>
      </trkpt>
      <trkpt lat="42.95925" lon="42.88267">
        <ele>1692.486894</ele>
        <time>2021-08-15T18:09:40.335Z</time>
      </trkpt>
      <trkpt lat="42.95882" lon="42.88255">
        <ele>1694.452393</ele>
        <time>2021-08-15T18:10:09.519Z</time>
      </trkpt>
      <trkpt lat="42.95845" lon="42.88239">
        <ele>1696.280192</ele>
        <time>2021-08-15T18:10:35.736Z</time>
      </trkpt>
      <trkpt lat="42.95819" lon="42.88246">
        <ele>1697.498868</ele>
        <time>2021-08-15T18:10:52.670Z</time>
      </trkpt>
      <trkpt lat="42.95776" lon="42.88285">
        <ele>1699.946152</ele>
        <time>2021-08-15T18:11:24.138Z</time>
      </trkpt>
      <trkpt lat="42.95722" lon="42.88318">
        <ele>1702.334648</ele>
        <time>2021-08-15T18:11:56.802Z</time>
      </trkpt>
      <trkpt lat="42.95701" lon="42.88396">
        <ele>1703.150559</ele>
        <time>2021-08-15T18:12:23.614Z</time>
      </trkpt>
      <trkpt lat="42.95677" lon="42.88433">
        <ele>1703.629802</ele>
        <time>2021-08-15T18:12:37.826Z</time>
      </trkpt>
      <trkpt lat="42.95661" lon="42.88444">
        <ele>1703.875545</ele>
        <time>2021-08-15T18:12:45.178Z</time>
      </trkpt>
      <trkpt lat="42.95612" lon="42.88433">
        <ele>1704.540411</ele>
        <time>2021-08-15T18:13:05.578Z</time>
      </trkpt>
      <trkpt lat="42.95566" lon="42.88446">
        <ele>1704.530669</ele>
        <time>2021-08-15T18:13:24.642Z</time>
      </trkpt>
      <trkpt lat="42.95513" lon="42.8844">
        <ele>1704.448666</ele>
        <time>2021-08-15T18:13:45.925Z</time>
      </trkpt>
      <trkpt lat="42.95484" lon="42.88456">
        <ele>1704.400785</ele>
        <time>2021-08-15T18:13:57.239Z</time>
      </trkpt>
      <trkpt lat="42.95472" lon="42.88469">
        <ele>1704.376501</ele>
        <time>2021-08-15T18:14:02.798Z</time>
      </trkpt>
      <trkpt lat="42.95459" lon="42.88501">
        <ele>1704.336007</ele>
        <time>2021-08-15T18:14:11.769Z</time>
      </trkpt>
      <trkpt lat="42.95446" lon="42.88515">
        <ele>1704.039836</ele>
        <time>2021-08-15T18:14:17.282Z</time>
      </trkpt>
      <trkpt lat="42.95429" lon="42.88524">
        <ele>1703.20886</ele>
        <time>2021-08-15T18:14:23.513Z</time>
      </trkpt>
      <trkpt lat="42.95409" lon="42.88523">
        <ele>1702.314526</ele>
        <time>2021-08-15T18:14:30.106Z</time>
      </trkpt>
      <trkpt lat="42.95393" lon="42.88539">
        <ele>1701.416152</ele>
        <time>2021-08-15T18:14:36.362Z</time>
      </trkpt>
      <trkpt lat="42.95382" lon="42.88565">
        <ele>1700.466604</ele>
        <time>2021-08-15T18:14:42.803Z</time>
      </trkpt>
      <trkpt lat="42.95375" lon="42.88633">
        <ele>1698.234535</ele>
        <time>2021-08-15T18:14:56.969Z</time>
      </trkpt>
      <trkpt lat="42.95365" lon="42.88661">
        <ele>1697.208646</ele>
        <time>2021-08-15T18:15:03.283Z</time>
      </trkpt>
      <trkpt lat="42.95331" lon="42.88706">
        <ele>1694.615087</ele>
        <time>2021-08-15T18:15:16.039Z</time>
      </trkpt>
      <trkpt lat="42.95237" lon="42.88764">
        <ele>1688.121721</ele>
        <time>2021-08-15T18:15:44.213Z</time>
      </trkpt>
      <trkpt lat="42.95154" lon="42.88848">
        <ele>1684.531814</ele>
        <time>2021-08-15T18:16:14.304Z</time>
      </trkpt>
      <trkpt lat="42.95107" lon="42.88872">
        <ele>1684.072636</ele>
        <time>2021-08-15T18:16:30.902Z</time>
      </trkpt>
      <trkpt lat="42.94922" lon="42.88948">
        <ele>1686.476536</ele>
        <time>2021-08-15T18:18:05.901Z</time>
      </trkpt>
      <trkpt lat="42.94853" lon="42.88963">
        <ele>1688.239556</ele>
        <time>2021-08-15T18:18:43.262Z</time>
      </trkpt>
      <trkpt lat="42.9483" lon="42.88979">
        <ele>1688.666555</ele>
        <time>2021-08-15T18:18:56.407Z</time>
      </trkpt>
      <trkpt lat="42.94806" lon="42.89009">
        <ele>1689.204563</ele>
        <time>2021-08-15T18:19:12.204Z</time>
      </trkpt>
      <trkpt lat="42.94723" lon="42.89205">
        <ele>1691.952913</ele>
        <time>2021-08-15T18:20:21.796Z</time>
      </trkpt>
      <trkpt lat="42.94694" lon="42.89261">
        <ele>1692.782924</ele>
        <time>2021-08-15T18:20:42.994Z</time>
      </trkpt>
      <trkpt lat="42.94619" lon="42.89326">
        <ele>1694.426834</ele>
        <time>2021-08-15T18:21:25.874Z</time>
      </trkpt>
      <trkpt lat="42.94534" lon="42.89417">
        <ele>1697.968053</ele>
        <time>2021-08-15T18:22:24.447Z</time>
      </trkpt>
      <trkpt lat="42.94439" lon="42.8962">
        <ele>1703.869876</ele>
        <time>2021-08-15T18:24:01.380Z</time>
      </trkpt>
      <trkpt lat="42.94424" lon="42.8964">
        <ele>1704.590168</ele>
        <time>2021-08-15T18:24:12.907Z</time>
      </trkpt>
      <trkpt lat="42.94373" lon="42.8968">
        <ele>1706.248864</ele>
        <time>2021-08-15T18:24:43.384Z</time>
      </trkpt>
      <trkpt lat="42.94327" lon="42.89743">
        <ele>1707.129545</ele>
        <time>2021-08-15T18:25:16.415Z</time>
      </trkpt>
      <trkpt lat="42.94311" lon="42.89792">
        <ele>1707.654736</ele>
        <time>2021-08-15T18:25:34.502Z</time>
      </trkpt>
      <trkpt lat="42.94289" lon="42.89905">
        <ele>1708.225002</ele>
        <time>2021-08-15T18:26:04.855Z</time>
      </trkpt>
      <trkpt lat="42.94274" lon="42.89936">
        <ele>1707.953885</ele>
        <time>2021-08-15T18:26:14.034Z</time>
      </trkpt>
      <trkpt lat="42.94275" lon="42.89982">
        <ele>1707.619377</ele>
        <time>2021-08-15T18:26:25.194Z</time>
      </trkpt>
      <trkpt lat="42.94272" lon="42.90015">
        <ele>1707.372588</ele>
        <time>2021-08-15T18:26:33.207Z</time>
      </trkpt>
      <trkpt lat="42.94276" lon="42.90022">
        <ele>1707.312256</ele>
        <time>2021-08-15T18:26:35.200Z</time>
      </trkpt>
      <trkpt lat="42.9428" lon="42.90041">
        <ele>1707.16258</ele>
        <time>2021-08-15T18:26:41.284Z</time>
      </trkpt>
      <trkpt lat="42.94281" lon="42.90042">
        <ele>1707.151356</ele>
        <time>2021-08-15T18:26:41.540Z</time>
      </trkpt>
      <trkpt lat="42.94295" lon="42.90044">
        <ele>1707.015863</ele>
        <time>2021-08-15T18:26:45.893Z</time>
      </trkpt>
      <trkpt lat="42.94303" lon="42.90045">
        <ele>1706.936463</ele>
        <time>2021-08-15T18:26:48.641Z</time>
      </trkpt>
      <trkpt lat="42.943" lon="42.90104">
        <ele>1706.924143</ele>
        <time>2021-08-15T18:27:05.173Z</time>
      </trkpt>
      <trkpt lat="42.94308" lon="42.90159">
        <ele>1707.499789</ele>
        <time>2021-08-15T18:27:20.852Z</time>
      </trkpt>
      <trkpt lat="42.94306" lon="42.90201">
        <ele>1707.930414</ele>
        <time>2021-08-15T18:27:33.294Z</time>
      </trkpt>
      <trkpt lat="42.94311" lon="42.90238">
        <ele>1708.311737</ele>
        <time>2021-08-15T18:27:46.063Z</time>
      </trkpt>
      <trkpt lat="42.9433" lon="42.90259">
        <ele>1708.658915</ele>
        <time>2021-08-15T18:27:58.191Z</time>
      </trkpt>
      <trkpt lat="42.94336" lon="42.90264">
        <ele>1708.753753</ele>
        <time>2021-08-15T18:28:04.265Z</time>
      </trkpt>
      <trkpt lat="42.94322" lon="42.90287">
        <ele>1709.061639</ele>
        <time>2021-08-15T18:28:13.974Z</time>
      </trkpt>
      <trkpt lat="42.94278" lon="42.90365">
        <ele>1710.486353</ele>
        <time>2021-08-15T18:28:50.440Z</time>
      </trkpt>
      <trkpt lat="42.94272" lon="42.90379">
        <ele>1710.742102</ele>
        <time>2021-08-15T18:28:57.825Z</time>
      </trkpt>
      <trkpt lat="42.94271" lon="42.90397">
        <ele>1711.005821</ele>
        <time>2021-08-15T18:29:03.472Z</time>
      </trkpt>
      <trkpt lat="42.9426" lon="42.90438">
        <ele>1711.670867</ele>
        <time>2021-08-15T18:29:18.774Z</time>
      </trkpt>
      <trkpt lat="42.94252" lon="42.90458">
        <ele>1712.019612</ele>
        <time>2021-08-15T18:29:25.812Z</time>
      </trkpt>
      <trkpt lat="42.94252" lon="42.90487">
        <ele>1712.471574</ele>
        <time>2021-08-15T18:29:34.467Z</time>
      </trkpt>
      <trkpt lat="42.9428" lon="42.90538">
        <ele>1713.287593</ele>
        <time>2021-08-15T18:29:54.428Z</time>
      </trkpt>
      <trkpt lat="42.9428" lon="42.90611">
        <ele>1714.059337</ele>
        <time>2021-08-15T18:30:17.654Z</time>
      </trkpt>
      <trkpt lat="42.94276" lon="42.90628">
        <ele>1714.256208</ele>
        <time>2021-08-15T18:30:23.217Z</time>
      </trkpt>
      <trkpt lat="42.94277" lon="42.90639">
        <ele>1714.369269</ele>
        <time>2021-08-15T18:30:27.281Z</time>
      </trkpt>
      <trkpt lat="42.94256" lon="42.90686">
        <ele>1714.955186</ele>
        <time>2021-08-15T18:30:45.308Z</time>
      </trkpt>
      <trkpt lat="42.94256" lon="42.9076">
        <ele>1715.921162</ele>
        <time>2021-08-15T18:31:09.299Z</time>
      </trkpt>
      <trkpt lat="42.94252" lon="42.90778">
        <ele>1716.328086</ele>
        <time>2021-08-15T18:31:16.399Z</time>
      </trkpt>
      <trkpt lat="42.94245" lon="42.90795">
        <ele>1716.749243</ele>
        <time>2021-08-15T18:31:22.912Z</time>
      </trkpt>
      <trkpt lat="42.94211" lon="42.90845">
        <ele>1718.221898</ele>
        <time>2021-08-15T18:31:48.049Z</time>
      </trkpt>
      <trkpt lat="42.94146" lon="42.90904">
        <ele>1720.495485</ele>
        <time>2021-08-15T18:32:28.415Z</time>
      </trkpt>
      <trkpt lat="42.94031" lon="42.90979">
        <ele>1727.59244</ele>
        <time>2021-08-15T18:33:50.065Z</time>
      </trkpt>
      <trkpt lat="42.93991" lon="42.90997">
        <ele>1730.018779</ele>
        <time>2021-08-15T18:34:22.892Z</time>
      </trkpt>
      <trkpt lat="42.93939" lon="42.91005">
        <ele>1732.642197</ele>
        <time>2021-08-15T18:34:58.400Z</time>
      </trkpt>
      <trkpt lat="42.93917" lon="42.91016">
        <ele>1733.69392</ele>
        <time>2021-08-15T18:35:15.779Z</time>
      </trkpt>
      <trkpt lat="42.93909" lon="42.91021">
        <ele>1734.118077</ele>
        <time>2021-08-15T18:35:20.276Z</time>
      </trkpt>
      <trkpt lat="42.93888" lon="42.91041">
        <ele>1735.241632</ele>
        <time>2021-08-15T18:35:36.116Z</time>
      </trkpt>
      <trkpt lat="42.93883" lon="42.91051">
        <ele>1735.631189</ele>
        <time>2021-08-15T18:35:39.237Z</time>
      </trkpt>
      <trkpt lat="42.93875" lon="42.91127">
        <ele>1738.143016</ele>
        <time>2021-08-15T18:36:12.965Z</time>
      </trkpt>
      <trkpt lat="42.93868" lon="42.91154">
        <ele>1739.068983</ele>
        <time>2021-08-15T18:36:22.205Z</time>
      </trkpt>
      <trkpt lat="42.93864" lon="42.9122">
        <ele>1739.414684</ele>
        <time>2021-08-15T18:36:47.622Z</time>
      </trkpt>
      <trkpt lat="42.93862" lon="42.91238">
        <ele>1739.446073</ele>
        <time>2021-08-15T18:36:51.862Z</time>
      </trkpt>
      <trkpt lat="42.93852" lon="42.91268">
        <ele>1739.501594</ele>
        <time>2021-08-15T18:37:00.304Z</time>
      </trkpt>
      <trkpt lat="42.93838" lon="42.91309">
        <ele>1739.576226</ele>
        <time>2021-08-15T18:37:11.530Z</time>
      </trkpt>
      <trkpt lat="42.93763" lon="42.91423">
        <ele>1739.870043</ele>
        <time>2021-08-15T18:37:52.142Z</time>
      </trkpt>
      <trkpt lat="42.93752" lon="42.91432">
        <ele>1739.909305</ele>
        <time>2021-08-15T18:37:57.316Z</time>
      </trkpt>
      <trkpt lat="42.93688" lon="42.91527">
        <ele>1740.201901</ele>
        <time>2021-08-15T18:38:33.802Z</time>
      </trkpt>
      <trkpt lat="42.93664" lon="42.91545">
        <ele>1740.319032</ele>
        <time>2021-08-15T18:38:44.763Z</time>
      </trkpt>
      <trkpt lat="42.93603" lon="42.91636">
        <ele>1742.307335</ele>
        <time>2021-08-15T18:39:25.198Z</time>
      </trkpt>
      <trkpt lat="42.93539" lon="42.91693">
        <ele>1743.9995</ele>
        <time>2021-08-15T18:40:05.724Z</time>
      </trkpt>
      <trkpt lat="42.93495" lon="42.91709">
        <ele>1745.597743</ele>
        <time>2021-08-15T18:40:29.788Z</time>
      </trkpt>
      <trkpt lat="42.93472" lon="42.9172">
        <ele>1746.584845</ele>
        <time>2021-08-15T18:40:41.072Z</time>
      </trkpt>
      <trkpt lat="42.93463" lon="42.91713">
        <ele>1746.994917</ele>
        <time>2021-08-15T18:40:48.279Z</time>
      </trkpt>
      <trkpt lat="42.93458" lon="42.91721">
        <ele>1747.310241</ele>
        <time>2021-08-15T18:40:51.092Z</time>
      </trkpt>
      <trkpt lat="42.93403" lon="42.91846">
        <ele>1751.556393</ele>
        <time>2021-08-15T18:41:58.553Z</time>
      </trkpt>
      <trkpt lat="42.93391" lon="42.91852">
        <ele>1751.904725</ele>
        <time>2021-08-15T18:42:05.574Z</time>
      </trkpt>
      <trkpt lat="42.93392" lon="42.91864">
        <ele>1752.144529</ele>
        <time>2021-08-15T18:42:11.339Z</time>
      </trkpt>
      <trkpt lat="42.93382" lon="42.91878">
        <ele>1752.543201</ele>
        <time>2021-08-15T18:42:18.995Z</time>
      </trkpt>
      <trkpt lat="42.93363" lon="42.9187">
        <ele>1753.063919</ele>
        <time>2021-08-15T18:42:28.005Z</time>
      </trkpt>
      <trkpt lat="42.93374" lon="42.91895">
        <ele>1753.638004</ele>
        <time>2021-08-15T18:42:37.684Z</time>
      </trkpt>
      <trkpt lat="42.93381" lon="42.919">
        <ele>1753.858569</ele>
        <time>2021-08-15T18:42:41.487Z</time>
      </trkpt>
      <trkpt lat="42.93373" lon="42.91907">
        <ele>1754.103347</ele>
        <time>2021-08-15T18:42:46.105Z</time>
      </trkpt>
      <trkpt lat="42.93346" lon="42.91925">
        <ele>1754.942615</ele>
        <time>2021-08-15T18:43:00.792Z</time>
      </trkpt>
      <trkpt lat="42.93337" lon="42.91926">
        <ele>1755.187981</ele>
        <time>2021-08-15T18:43:04.259Z</time>
      </trkpt>
      <trkpt lat="42.93269" lon="42.91888">
        <ele>1757.096342</ele>
        <time>2021-08-15T18:43:39.635Z</time>
      </trkpt>
      <trkpt lat="42.93236" lon="42.91883">
        <ele>1757.864141</ele>
        <time>2021-08-15T18:43:56.149Z</time>
      </trkpt>
      <trkpt lat="42.93204" lon="42.91894">
        <ele>1758.643599</ele>
        <time>2021-08-15T18:44:11.606Z</time>
      </trkpt>
      <trkpt lat="42.93191" lon="42.91909">
        <ele>1759.033028</ele>
        <time>2021-08-15T18:44:18.717Z</time>
      </trkpt>
      <trkpt lat="42.93172" lon="42.91936">
        <ele>1759.676914</ele>
        <time>2021-08-15T18:44:31.064Z</time>
      </trkpt>
      <trkpt lat="42.9316" lon="42.91956">
        <ele>1760.120981</ele>
        <time>2021-08-15T18:44:40.464Z</time>
      </trkpt>
      <trkpt lat="42.93148" lon="42.91989">
        <ele>1760.948205</ele>
        <time>2021-08-15T18:44:55.248Z</time>
      </trkpt>
      <trkpt lat="42.93146" lon="42.92014">
        <ele>1762.129938</ele>
        <time>2021-08-15T18:45:05.056Z</time>
      </trkpt>
      <trkpt lat="42.93149" lon="42.92034">
        <ele>1763.124936</ele>
        <time>2021-08-15T18:45:14.112Z</time>
      </trkpt>
      <trkpt lat="42.93147" lon="42.92055">
        <ele>1764.108575</ele>
        <time>2021-08-15T18:45:22.680Z</time>
      </trkpt>
      <trkpt lat="42.93126" lon="42.92116">
        <ele>1767.331667</ele>
        <time>2021-08-15T18:45:54.245Z</time>
      </trkpt>
      <trkpt lat="42.93129" lon="42.92163">
        <ele>1769.563632</ele>
        <time>2021-08-15T18:46:23.147Z</time>
      </trkpt>
      <trkpt lat="42.93125" lon="42.92177">
        <ele>1770.30483</ele>
        <time>2021-08-15T18:46:33.774Z</time>
      </trkpt>
      <trkpt lat="42.93123" lon="42.92182">
        <ele>1770.567014</ele>
        <time>2021-08-15T18:46:37.222Z</time>
      </trkpt>
      <trkpt lat="42.93112" lon="42.92191">
        <ele>1771.409011</ele>
        <time>2021-08-15T18:46:48.462Z</time>
      </trkpt>
      <trkpt lat="42.93091" lon="42.92204">
        <ele>1772.986723</ele>
        <time>2021-08-15T18:47:08.533Z</time>
      </trkpt>
      <trkpt lat="42.93074" lon="42.92212">
        <ele>1774.31881</ele>
        <time>2021-08-15T18:47:23.556Z</time>
      </trkpt>
      <trkpt lat="42.93068" lon="42.92216">
        <ele>1774.753016</ele>
        <time>2021-08-15T18:47:28.030Z</time>
      </trkpt>
      <trkpt lat="42.93025" lon="42.92244">
        <ele>1778.268594</ele>
        <time>2021-08-15T18:48:04.912Z</time>
      </trkpt>
      <trkpt lat="42.93002" lon="42.92262">
        <ele>1780.261871</ele>
        <time>2021-08-15T18:48:25.701Z</time>
      </trkpt>
      <trkpt lat="42.92991" lon="42.9228">
        <ele>1781.515631</ele>
        <time>2021-08-15T18:48:37.971Z</time>
      </trkpt>
      <trkpt lat="42.9298" lon="42.92325">
        <ele>1784.078742</ele>
        <time>2021-08-15T18:49:01.625Z</time>
      </trkpt>
      <trkpt lat="42.92919" lon="42.92449">
        <ele>1787.407834</ele>
        <time>2021-08-15T18:50:06.968Z</time>
      </trkpt>
      <trkpt lat="42.92902" lon="42.92492">
        <ele>1788.15097</ele>
        <time>2021-08-15T18:50:19.919Z</time>
      </trkpt>
      <trkpt lat="42.92869" lon="42.92732">
        <ele>1790.404648</ele>
        <time>2021-08-15T18:51:22.689Z</time>
      </trkpt>
      <trkpt lat="42.92871" lon="42.92801">
        <ele>1790.862001</ele>
        <time>2021-08-15T18:51:47.631Z</time>
      </trkpt>
      <trkpt lat="42.92896" lon="42.92899">
        <ele>1797.827494</ele>
        <time>2021-08-15T18:52:39.352Z</time>
      </trkpt>
      <trkpt lat="42.92901" lon="42.92917">
        <ele>1799.260683</ele>
        <time>2021-08-15T18:52:56.227Z</time>
      </trkpt>
      <trkpt lat="42.9291" lon="42.92955">
        <ele>1802.100069</ele>
        <time>2021-08-15T18:53:25.117Z</time>
      </trkpt>
      <trkpt lat="42.92923" lon="42.92995">
        <ele>1805.276044</ele>
        <time>2021-08-15T18:53:55.804Z</time>
      </trkpt>
      <trkpt lat="42.92946" lon="42.93028">
        <ele>1808.564044</ele>
        <time>2021-08-15T18:54:28.591Z</time>
      </trkpt>
      <trkpt lat="42.92948" lon="42.93036">
        <ele>1809.170118</ele>
        <time>2021-08-15T18:54:38.678Z</time>
      </trkpt>
      <trkpt lat="42.92955" lon="42.93065">
        <ele>1811.206491</ele>
        <time>2021-08-15T18:54:58.800Z</time>
      </trkpt>
      <trkpt lat="42.92964" lon="42.93089">
        <ele>1812.975362</ele>
        <time>2021-08-15T18:55:22.764Z</time>
      </trkpt>
      <trkpt lat="42.92979" lon="42.93112">
        <ele>1815.055982</ele>
        <time>2021-08-15T18:55:40.638Z</time>
      </trkpt>
      <trkpt lat="42.92986" lon="42.93128">
        <ele>1816.263636</ele>
        <time>2021-08-15T18:55:58.927Z</time>
      </trkpt>
      <trkpt lat="42.92986" lon="42.93191">
        <ele>1820.451757</ele>
        <time>2021-08-15T18:56:34.831Z</time>
      </trkpt>
      <trkpt lat="42.92997" lon="42.93241">
        <ele>1823.968398</ele>
        <time>2021-08-15T18:57:03.023Z</time>
      </trkpt>
      <trkpt lat="42.93015" lon="42.93271">
        <ele>1824.488353</ele>
        <time>2021-08-15T18:57:17.067Z</time>
      </trkpt>
      <trkpt lat="42.93057" lon="42.9331">
        <ele>1822.900669</ele>
        <time>2021-08-15T18:57:32.420Z</time>
      </trkpt>
      <trkpt lat="42.93093" lon="42.93353">
        <ele>1821.40201</ele>
        <time>2021-08-15T18:57:45.986Z</time>
      </trkpt>
      <trkpt lat="42.93126" lon="42.93409">
        <ele>1819.746386</ele>
        <time>2021-08-15T18:58:00.971Z</time>
      </trkpt>
      <trkpt lat="42.93138" lon="42.9345">
        <ele>1818.59681</ele>
        <time>2021-08-15T18:58:10.204Z</time>
      </trkpt>
      <trkpt lat="42.93136" lon="42.93488">
        <ele>1817.524831</ele>
        <time>2021-08-15T18:58:18.253Z</time>
      </trkpt>
      <trkpt lat="42.93142" lon="42.93516">
        <ele>1816.68618</ele>
        <time>2021-08-15T18:58:24.571Z</time>
      </trkpt>
      <trkpt lat="42.93177" lon="42.93592">
        <ele>1814.134907</ele>
        <time>2021-08-15T18:58:44.084Z</time>
      </trkpt>
      <trkpt lat="42.93182" lon="42.93617">
        <ele>1813.410523</ele>
        <time>2021-08-15T18:58:49.917Z</time>
      </trkpt>
      <trkpt lat="42.9318" lon="42.93644">
        <ele>1812.66011</ele>
        <time>2021-08-15T18:58:56.272Z</time>
      </trkpt>
      <trkpt lat="42.93165" lon="42.93694">
        <ele>1812.753356</ele>
        <time>2021-08-15T18:59:09.535Z</time>
      </trkpt>
      <trkpt lat="42.93158" lon="42.93761">
        <ele>1813.228958</ele>
        <time>2021-08-15T18:59:30.193Z</time>
      </trkpt>
      <trkpt lat="42.93149" lon="42.93802">
        <ele>1813.532302</ele>
        <time>2021-08-15T18:59:43.995Z</time>
      </trkpt>
      <trkpt lat="42.93134" lon="42.93838">
        <ele>1813.821123</ele>
        <time>2021-08-15T18:59:58.184Z</time>
      </trkpt>
      <trkpt lat="42.93117" lon="42.93858">
        <ele>1814.043654</ele>
        <time>2021-08-15T19:00:08.475Z</time>
      </trkpt>
      <trkpt lat="42.93101" lon="42.93883">
        <ele>1814.622741</ele>
        <time>2021-08-15T19:00:22.693Z</time>
      </trkpt>
      <trkpt lat="42.93087" lon="42.93966">
        <ele>1817.020075</ele>
        <time>2021-08-15T19:00:58.475Z</time>
      </trkpt>
      <trkpt lat="42.93068" lon="42.94001">
        <ele>1818.212853</ele>
        <time>2021-08-15T19:01:17.000Z</time>
      </trkpt>
      <trkpt lat="42.93041" lon="42.94013">
        <ele>1819.296038</ele>
        <time>2021-08-15T19:01:32.970Z</time>
      </trkpt>
      <trkpt lat="42.92993" lon="42.94013">
        <ele>1821.106472</ele>
        <time>2021-08-15T19:02:01.648Z</time>
      </trkpt>
      <trkpt lat="42.92969" lon="42.94027">
        <ele>1821.784545</ele>
        <time>2021-08-15T19:02:15.216Z</time>
      </trkpt>
      <trkpt lat="42.92957" lon="42.94041">
        <ele>1822.204666</ele>
        <time>2021-08-15T19:02:23.683Z</time>
      </trkpt>
      <trkpt lat="42.92941" lon="42.94078">
        <ele>1823.028619</ele>
        <time>2021-08-15T19:02:40.353Z</time>
      </trkpt>
      <trkpt lat="42.9295" lon="42.94165">
        <ele>1824.691341</ele>
        <time>2021-08-15T19:03:11.604Z</time>
      </trkpt>
      <trkpt lat="42.92949" lon="42.94192">
        <ele>1825.219627</ele>
        <time>2021-08-15T19:03:20.812Z</time>
      </trkpt>
      <trkpt lat="42.92928" lon="42.94298">
        <ele>1826.746793</ele>
        <time>2021-08-15T19:03:56.003Z</time>
      </trkpt>
      <trkpt lat="42.92917" lon="42.94394">
        <ele>1827.934095</ele>
        <time>2021-08-15T19:04:28.587Z</time>
      </trkpt>
      <trkpt lat="42.92902" lon="42.94424">
        <ele>1828.385086</ele>
        <time>2021-08-15T19:04:41.523Z</time>
      </trkpt>
      <trkpt lat="42.9288" lon="42.94446">
        <ele>1828.894044</ele>
        <time>2021-08-15T19:04:54.055Z</time>
      </trkpt>
      <trkpt lat="42.92815" lon="42.94472">
        <ele>1830.590421</ele>
        <time>2021-08-15T19:05:24.105Z</time>
      </trkpt>
      <trkpt lat="42.92776" lon="42.94504">
        <ele>1831.746957</ele>
        <time>2021-08-15T19:05:46.606Z</time>
      </trkpt>
      <trkpt lat="42.92753" lon="42.94523">
        <ele>1832.413169</ele>
        <time>2021-08-15T19:06:00.345Z</time>
      </trkpt>
      <trkpt lat="42.92708" lon="42.94586">
        <ele>1834.721933</ele>
        <time>2021-08-15T19:06:36.853Z</time>
      </trkpt>
      <trkpt lat="42.92663" lon="42.94618">
        <ele>1837.123217</ele>
        <time>2021-08-15T19:07:06.769Z</time>
      </trkpt>
      <trkpt lat="42.92651" lon="42.94625">
        <ele>1837.741212</ele>
        <time>2021-08-15T19:07:14.350Z</time>
      </trkpt>
      <trkpt lat="42.92603" lon="42.94622">
        <ele>1840.035514</ele>
        <time>2021-08-15T19:07:43.913Z</time>
      </trkpt>
      <trkpt lat="42.92579" lon="42.94627">
        <ele>1841.1561</ele>
        <time>2021-08-15T19:07:59.281Z</time>
      </trkpt>
      <trkpt lat="42.92556" lon="42.94641">
        <ele>1842.480511</ele>
        <time>2021-08-15T19:08:17.007Z</time>
      </trkpt>
      <trkpt lat="42.925" lon="42.94704">
        <ele>1846.471659</ele>
        <time>2021-08-15T19:09:06.960Z</time>
      </trkpt>
      <trkpt lat="42.92468" lon="42.94721">
        <ele>1848.338294</ele>
        <time>2021-08-15T19:09:28.842Z</time>
      </trkpt>
      <trkpt lat="42.92427" lon="42.94725">
        <ele>1850.601287</ele>
        <time>2021-08-15T19:09:54.100Z</time>
      </trkpt>
      <trkpt lat="42.9241" lon="42.94735">
        <ele>1851.645452</ele>
        <time>2021-08-15T19:10:05.594Z</time>
      </trkpt>
      <trkpt lat="42.92381" lon="42.94779">
        <ele>1852.982347</ele>
        <time>2021-08-15T19:10:31.281Z</time>
      </trkpt>
      <trkpt lat="42.92362" lon="42.94799">
        <ele>1853.70722</ele>
        <time>2021-08-15T19:10:45.330Z</time>
      </trkpt>
      <trkpt lat="42.92326" lon="42.94821">
        <ele>1854.901922</ele>
        <time>2021-08-15T19:11:07.135Z</time>
      </trkpt>
      <trkpt lat="42.92269" lon="42.94829">
        <ele>1856.613476</ele>
        <time>2021-08-15T19:11:33.773Z</time>
      </trkpt>
      <trkpt lat="42.9224" lon="42.94823">
        <ele>1857.157335</ele>
        <time>2021-08-15T19:11:46.201Z</time>
      </trkpt>
      <trkpt lat="42.92222" lon="42.94826">
        <ele>1857.191916</ele>
        <time>2021-08-15T19:11:53.237Z</time>
      </trkpt>
      <trkpt lat="42.92203" lon="42.94839">
        <ele>1857.232452</ele>
        <time>2021-08-15T19:12:01.717Z</time>
      </trkpt>
      <trkpt lat="42.92167" lon="42.94887">
        <ele>1857.330412</ele>
        <time>2021-08-15T19:12:21.189Z</time>
      </trkpt>
      <trkpt lat="42.9209" lon="42.94956">
        <ele>1857.559321</ele>
        <time>2021-08-15T19:12:54.214Z</time>
      </trkpt>
      <trkpt lat="42.92031" lon="42.94991">
        <ele>1857.917752</ele>
        <time>2021-08-15T19:13:16.798Z</time>
      </trkpt>
      <trkpt lat="42.92003" lon="42.95033">
        <ele>1858.149721</ele>
        <time>2021-08-15T19:13:33.480Z</time>
      </trkpt>
      <trkpt lat="42.91953" lon="42.95153">
        <ele>1859.584181</ele>
        <time>2021-08-15T19:14:20.394Z</time>
      </trkpt>
      <trkpt lat="42.91939" lon="42.95166">
        <ele>1860.057894</ele>
        <time>2021-08-15T19:14:29.577Z</time>
      </trkpt>
      <trkpt lat="42.91878" lon="42.95193">
        <ele>1861.775688</ele>
        <time>2021-08-15T19:15:02.902Z</time>
      </trkpt>
      <trkpt lat="42.91833" lon="42.95245">
        <ele>1863.340356</ele>
        <time>2021-08-15T19:15:33.978Z</time>
      </trkpt>
      <trkpt lat="42.91814" lon="42.95278">
        <ele>1863.847865</ele>
        <time>2021-08-15T19:15:50.132Z</time>
      </trkpt>
      <trkpt lat="42.91811" lon="42.95307">
        <ele>1864.2029</ele>
        <time>2021-08-15T19:16:00.601Z</time>
      </trkpt>
      <trkpt lat="42.91813" lon="42.95333">
        <ele>1864.514652</ele>
        <time>2021-08-15T19:16:09.820Z</time>
      </trkpt>
      <trkpt lat="42.91891" lon="42.95489">
        <ele>1867.158255</ele>
        <time>2021-08-15T19:17:07.076Z</time>
      </trkpt>
      <trkpt lat="42.9189" lon="42.95506">
        <ele>1867.504165</ele>
        <time>2021-08-15T19:17:12.182Z</time>
      </trkpt>
      <trkpt lat="42.91875" lon="42.95556">
        <ele>1868.619131</ele>
        <time>2021-08-15T19:17:29.498Z</time>
      </trkpt>
      <trkpt lat="42.91871" lon="42.95663">
        <ele>1870.848466</ele>
        <time>2021-08-15T19:18:12.227Z</time>
      </trkpt>
      <trkpt lat="42.91876" lon="42.95692">
        <ele>1871.69834</ele>
        <time>2021-08-15T19:18:26.113Z</time>
      </trkpt>
      <trkpt lat="42.91898" lon="42.95752">
        <ele>1876.258566</ele>
        <time>2021-08-15T19:19:00.204Z</time>
      </trkpt>
      <trkpt lat="42.91902" lon="42.95778">
        <ele>1878.035667</ele>
        <time>2021-08-15T19:19:14.698Z</time>
      </trkpt>
      <trkpt lat="42.91897" lon="42.95804">
        <ele>1879.899387</ele>
        <time>2021-08-15T19:19:30.360Z</time>
      </trkpt>
      <trkpt lat="42.9186" lon="42.95887">
        <ele>1886.450798</ele>
        <time>2021-08-15T19:20:37.773Z</time>
      </trkpt>
      <trkpt lat="42.91811" lon="42.95953">
        <ele>1892.934402</ele>
        <time>2021-08-15T19:21:51.203Z</time>
      </trkpt>
      <trkpt lat="42.91789" lon="42.96007">
        <ele>1897.185447</ele>
        <time>2021-08-15T19:22:31.473Z</time>
      </trkpt>
      <trkpt lat="42.91791" lon="42.96023">
        <ele>1898.319251</ele>
        <time>2021-08-15T19:22:42.683Z</time>
      </trkpt>
      <trkpt lat="42.91815" lon="42.96057">
        <ele>1901.595992</ele>
        <time>2021-08-15T19:23:08.550Z</time>
      </trkpt>
      <trkpt lat="42.91828" lon="42.96092">
        <ele>1904.353189</ele>
        <time>2021-08-15T19:23:28.308Z</time>
      </trkpt>
      <trkpt lat="42.91845" lon="42.96108">
        <ele>1904.95438</ele>
        <time>2021-08-15T19:23:39.421Z</time>
      </trkpt>
      <trkpt lat="42.91882" lon="42.96117">
        <ele>1904.844304</ele>
        <time>2021-08-15T19:24:00.921Z</time>
      </trkpt>
      <trkpt lat="42.9192" lon="42.96142">
        <ele>1904.719199</ele>
        <time>2021-08-15T19:24:19.089Z</time>
      </trkpt>
      <trkpt lat="42.92" lon="42.9624">
        <ele>1904.101256</ele>
        <time>2021-08-15T19:24:50.708Z</time>
      </trkpt>
      <trkpt lat="42.92021" lon="42.9629">
        <ele>1903.353205</ele>
        <time>2021-08-15T19:25:03.151Z</time>
      </trkpt>
      <trkpt lat="42.92024" lon="42.96311">
        <ele>1903.071375</ele>
        <time>2021-08-15T19:25:07.801Z</time>
      </trkpt>
      <trkpt lat="42.92022" lon="42.96376">
        <ele>1902.228662</ele>
        <time>2021-08-15T19:25:24.272Z</time>
      </trkpt>
      <trkpt lat="42.92007" lon="42.96404">
        <ele>1901.775617</ele>
        <time>2021-08-15T19:25:33.234Z</time>
      </trkpt>
      <trkpt lat="42.91976" lon="42.96444">
        <ele>1901.924852</ele>
        <time>2021-08-15T19:25:52.701Z</time>
      </trkpt>
      <trkpt lat="42.9196" lon="42.96471">
        <ele>1903.0186</ele>
        <time>2021-08-15T19:26:03.531Z</time>
      </trkpt>
      <trkpt lat="42.91948" lon="42.96497">
        <ele>1904.038768</ele>
        <time>2021-08-15T19:26:16.979Z</time>
      </trkpt>
      <trkpt lat="42.91938" lon="42.96532">
        <ele>1905.240002</ele>
        <time>2021-08-15T19:26:33.384Z</time>
      </trkpt>
      <trkpt lat="42.91927" lon="42.9655">
        <ele>1906.006778</ele>
        <time>2021-08-15T19:26:42.953Z</time>
      </trkpt>
      <trkpt lat="42.91904" lon="42.96565">
        <ele>1907.110934</ele>
        <time>2021-08-15T19:27:00.178Z</time>
      </trkpt>
      <trkpt lat="42.91874" lon="42.96568">
        <ele>1908.47561</ele>
        <time>2021-08-15T19:27:21.534Z</time>
      </trkpt>
      <trkpt lat="42.91829" lon="42.96559">
        <ele>1911.156643</ele>
        <time>2021-08-15T19:27:55.005Z</time>
      </trkpt>
      <trkpt lat="42.91803" lon="42.96566">
        <ele>1912.964124</ele>
        <time>2021-08-15T19:28:14.850Z</time>
      </trkpt>
      <trkpt lat="42.91771" lon="42.96617">
        <ele>1916.346582</ele>
        <time>2021-08-15T19:28:49.430Z</time>
      </trkpt>
      <trkpt lat="42.91766" lon="42.96635">
        <ele>1917.297713</ele>
        <time>2021-08-15T19:28:59.167Z</time>
      </trkpt>
      <trkpt lat="42.91771" lon="42.96669">
        <ele>1919.048016</ele>
        <time>2021-08-15T19:29:17.647Z</time>
      </trkpt>
      <trkpt lat="42.91778" lon="42.96681">
        <ele>1919.838744</ele>
        <time>2021-08-15T19:29:25.745Z</time>
      </trkpt>
      <trkpt lat="42.91821" lon="42.96714">
        <ele>1923.082628</ele>
        <time>2021-08-15T19:30:00.538Z</time>
      </trkpt>
      <trkpt lat="42.91887" lon="42.96833">
        <ele>1930.110838</ele>
        <time>2021-08-15T19:31:17.046Z</time>
      </trkpt>
      <trkpt lat="42.91886" lon="42.96884">
        <ele>1932.509999</ele>
        <time>2021-08-15T19:31:43.262Z</time>
      </trkpt>
      <trkpt lat="42.91879" lon="42.96903">
        <ele>1933.3116</ele>
        <time>2021-08-15T19:31:53.917Z</time>
      </trkpt>
      <trkpt lat="42.91825" lon="42.96993">
        <ele>1936.441388</ele>
        <time>2021-08-15T19:32:46.456Z</time>
      </trkpt>
      <trkpt lat="42.91806" lon="42.97008">
        <ele>1937.242074</ele>
        <time>2021-08-15T19:32:58.657Z</time>
      </trkpt>
      <trkpt lat="42.91773" lon="42.97019">
        <ele>1938.49658</ele>
        <time>2021-08-15T19:33:15.532Z</time>
      </trkpt>
      <trkpt lat="42.91756" lon="42.97017">
        <ele>1939.105402</ele>
        <time>2021-08-15T19:33:22.307Z</time>
      </trkpt>
      <trkpt lat="42.91725" lon="42.96989">
        <ele>1940.114209</ele>
        <time>2021-08-15T19:33:36.956Z</time>
      </trkpt>
      <trkpt lat="42.91666" lon="42.96955">
        <ele>1941.474093</ele>
        <time>2021-08-15T19:34:03.106Z</time>
      </trkpt>
      <trkpt lat="42.91658" lon="42.96956">
        <ele>1941.635265</ele>
        <time>2021-08-15T19:34:06.322Z</time>
      </trkpt>
      <trkpt lat="42.91645" lon="42.96973">
        <ele>1942.012689</ele>
        <time>2021-08-15T19:34:14.379Z</time>
      </trkpt>
      <trkpt lat="42.91643" lon="42.96987">
        <ele>1942.232006</ele>
        <time>2021-08-15T19:34:19.298Z</time>
      </trkpt>
      <trkpt lat="42.91646" lon="42.97025">
        <ele>1942.813334</ele>
        <time>2021-08-15T19:34:33.212Z</time>
      </trkpt>
      <trkpt lat="42.9166" lon="42.97073">
        <ele>1944.043857</ele>
        <time>2021-08-15T19:34:55.186Z</time>
      </trkpt>
      <trkpt lat="42.91662" lon="42.97097">
        <ele>1945.407887</ele>
        <time>2021-08-15T19:35:06.752Z</time>
      </trkpt>
      <trkpt lat="42.91649" lon="42.97163">
        <ele>1949.162086</ele>
        <time>2021-08-15T19:35:40.631Z</time>
      </trkpt>
      <trkpt lat="42.91627" lon="42.97203">
        <ele>1951.907044</ele>
        <time>2021-08-15T19:36:08.083Z</time>
      </trkpt>
      <trkpt lat="42.91604" lon="42.97226">
        <ele>1954.078344</ele>
        <time>2021-08-15T19:36:32.302Z</time>
      </trkpt>
      <trkpt lat="42.9159" lon="42.9725">
        <ele>1955.760953</ele>
        <time>2021-08-15T19:36:51.962Z</time>
      </trkpt>
      <trkpt lat="42.91578" lon="42.97304">
        <ele>1959.453681</ele>
        <time>2021-08-15T19:37:29.463Z</time>
      </trkpt>
      <trkpt lat="42.91552" lon="42.97359">
        <ele>1964.268067</ele>
        <time>2021-08-15T19:38:13.518Z</time>
      </trkpt>
      <trkpt lat="42.91538" lon="42.97407">
        <ele>1967.98368</ele>
        <time>2021-08-15T19:38:46.299Z</time>
      </trkpt>
      <trkpt lat="42.91525" lon="42.97427">
        <ele>1969.982844</ele>
        <time>2021-08-15T19:39:04.977Z</time>
      </trkpt>
      <trkpt lat="42.91503" lon="42.97446">
        <ele>1972.574995</ele>
        <time>2021-08-15T19:39:26.442Z</time>
      </trkpt>
      <trkpt lat="42.91487" lon="42.97452">
        <ele>1974.212476</ele>
        <time>2021-08-15T19:39:40.429Z</time>
      </trkpt>
      <trkpt lat="42.9148" lon="42.97451">
        <ele>1974.932485</ele>
        <time>2021-08-15T19:39:46.557Z</time>
      </trkpt>
      <trkpt lat="42.91458" lon="42.9745">
        <ele>1976.469535</ele>
        <time>2021-08-15T19:40:04.196Z</time>
      </trkpt>
      <trkpt lat="42.91453" lon="42.97461">
        <ele>1977.091045</ele>
        <time>2021-08-15T19:40:10.840Z</time>
      </trkpt>
      <trkpt lat="42.91454" lon="42.97467">
        <ele>1977.375316</ele>
        <time>2021-08-15T19:40:14.163Z</time>
      </trkpt>
      <trkpt lat="42.91456" lon="42.97478">
        <ele>1977.976402</ele>
        <time>2021-08-15T19:40:20.392Z</time>
      </trkpt>
      <trkpt lat="42.91469" lon="42.97497">
        <ele>1979.311671</ele>
        <time>2021-08-15T19:40:34.968Z</time>
      </trkpt>
      <trkpt lat="42.91486" lon="42.97511">
        <ele>1980.733946</ele>
        <time>2021-08-15T19:40:49.518Z</time>
      </trkpt>
      <trkpt lat="42.91496" lon="42.97514">
        <ele>1981.384265</ele>
        <time>2021-08-15T19:40:57.040Z</time>
      </trkpt>
      <trkpt lat="42.91531" lon="42.97498">
        <ele>1983.972016</ele>
        <time>2021-08-15T19:41:22.342Z</time>
      </trkpt>
      <trkpt lat="42.91597" lon="42.97399">
        <ele>1989.748815</ele>
        <time>2021-08-15T19:42:25.487Z</time>
      </trkpt>
      <trkpt lat="42.91612" lon="42.97332">
        <ele>1992.209685</ele>
        <time>2021-08-15T19:42:54.629Z</time>
      </trkpt>
      <trkpt lat="42.91613" lon="42.97326">
        <ele>1992.418019</ele>
        <time>2021-08-15T19:42:57.611Z</time>
      </trkpt>
      <trkpt lat="42.91617" lon="42.97317">
        <ele>1992.78653</ele>
        <time>2021-08-15T19:43:01.730Z</time>
      </trkpt>
      <trkpt lat="42.91623" lon="42.97317">
        <ele>1993.088708</ele>
        <time>2021-08-15T19:43:05.459Z</time>
      </trkpt>
      <trkpt lat="42.91626" lon="42.97324">
        <ele>1993.359125</ele>
        <time>2021-08-15T19:43:08.803Z</time>
      </trkpt>
      <trkpt lat="42.91617" lon="42.97355">
        <ele>1994.525175</ele>
        <time>2021-08-15T19:43:23.235Z</time>
      </trkpt>
      <trkpt lat="42.91615" lon="42.97404">
        <ele>1996.270078</ele>
        <time>2021-08-15T19:43:44.884Z</time>
      </trkpt>
      <trkpt lat="42.9161" lon="42.97426">
        <ele>1997.254618</ele>
        <time>2021-08-15T19:43:55.332Z</time>
      </trkpt>
      <trkpt lat="42.91578" lon="42.97484">
        <ele>2000.351385</ele>
        <time>2021-08-15T19:44:31.254Z</time>
      </trkpt>
      <trkpt lat="42.91557" lon="42.97545">
        <ele>2003.245724</ele>
        <time>2021-08-15T19:45:04.951Z</time>
      </trkpt>
      <trkpt lat="42.91526" lon="42.9759">
        <ele>2005.893943</ele>
        <time>2021-08-15T19:45:35.128Z</time>
      </trkpt>
      <trkpt lat="42.91517" lon="42.97625">
        <ele>2007.450184</ele>
        <time>2021-08-15T19:45:54.176Z</time>
      </trkpt>
      <trkpt lat="42.91511" lon="42.97707">
        <ele>2010.786384</ele>
        <time>2021-08-15T19:46:34.560Z</time>
      </trkpt>
      <trkpt lat="42.91499" lon="42.97789">
        <ele>2014.160163</ele>
        <time>2021-08-15T19:47:14.805Z</time>
      </trkpt>
      <trkpt lat="42.91499" lon="42.97854">
        <ele>2016.675353</ele>
        <time>2021-08-15T19:47:44.664Z</time>
      </trkpt>
      <trkpt lat="42.91495" lon="42.9789">
        <ele>2017.404632</ele>
        <time>2021-08-15T19:47:59.589Z</time>
      </trkpt>
      <trkpt lat="42.91483" lon="42.9795">
        <ele>2018.663676</ele>
        <time>2021-08-15T19:48:25.026Z</time>
      </trkpt>
      <trkpt lat="42.91402" lon="42.98355">
        <ele>2024.618338</ele>
        <time>2021-08-15T19:50:44.219Z</time>
      </trkpt>
      <trkpt lat="42.91361" lon="42.98507">
        <ele>2026.027646</ele>
        <time>2021-08-15T19:51:34.283Z</time>
      </trkpt>
      <trkpt lat="42.91344" lon="42.98685">
        <ele>2028.007525</ele>
        <time>2021-08-15T19:52:31.097Z</time>
      </trkpt>
      <trkpt lat="42.91318" lon="42.98821">
        <ele>2029.849175</ele>
        <time>2021-08-15T19:53:19.387Z</time>
      </trkpt>
      <trkpt lat="42.91318" lon="42.98959">
        <ele>2032.342815</ele>
        <time>2021-08-15T19:54:11.837Z</time>
      </trkpt>
      <trkpt lat="42.91324" lon="42.99015">
        <ele>2033.378243</ele>
        <time>2021-08-15T19:54:31.520Z</time>
      </trkpt>
      <trkpt lat="42.91327" lon="42.99047">
        <ele>2033.942673</ele>
        <time>2021-08-15T19:54:44.758Z</time>
      </trkpt>
      <trkpt lat="42.91323" lon="42.99063">
        <ele>2034.213337</ele>
        <time>2021-08-15T19:54:49.193Z</time>
      </trkpt>
      <trkpt lat="42.91301" lon="42.99282">
        <ele>2037.625545</ele>
        <time>2021-08-15T19:56:05.598Z</time>
      </trkpt>
      <trkpt lat="42.91307" lon="42.99313">
        <ele>2038.463295</ele>
        <time>2021-08-15T19:56:17.023Z</time>
      </trkpt>
      <trkpt lat="42.91302" lon="42.99361">
        <ele>2039.785142</ele>
        <time>2021-08-15T19:56:35.502Z</time>
      </trkpt>
      <trkpt lat="42.91308" lon="42.99422">
        <ele>2041.430083</ele>
        <time>2021-08-15T19:57:00.137Z</time>
      </trkpt>
      <trkpt lat="42.9129" lon="42.99527">
        <ele>2044.360332</ele>
        <time>2021-08-15T19:57:46.797Z</time>
      </trkpt>
      <trkpt lat="42.91292" lon="42.99609">
        <ele>2047.558198</ele>
        <time>2021-08-15T19:58:25.405Z</time>
      </trkpt>
      <trkpt lat="42.91351" lon="42.99734">
        <ele>2053.374285</ele>
        <time>2021-08-15T19:59:38.119Z</time>
      </trkpt>
      <trkpt lat="42.91361" lon="42.99771">
        <ele>2054.469666</ele>
        <time>2021-08-15T19:59:56.504Z</time>
      </trkpt>
      <trkpt lat="42.91364" lon="42.99783">
        <ele>2054.736148</ele>
        <time>2021-08-15T20:00:00.799Z</time>
      </trkpt>
      <trkpt lat="42.91368" lon="42.99792">
        <ele>2054.968331</ele>
        <time>2021-08-15T20:00:04.768Z</time>
      </trkpt>
      <trkpt lat="42.91372" lon="42.99798">
        <ele>2055.146653</ele>
        <time>2021-08-15T20:00:08.603Z</time>
      </trkpt>
      <trkpt lat="42.91374" lon="42.99797">
        <ele>2055.219984</ele>
        <time>2021-08-15T20:00:10.303Z</time>
      </trkpt>
      <trkpt lat="42.91373" lon="42.99809">
        <ele>2055.48276</ele>
        <time>2021-08-15T20:00:14.905Z</time>
      </trkpt>
      <trkpt lat="42.91372" lon="42.99826">
        <ele>2055.862771</ele>
        <time>2021-08-15T20:00:20.842Z</time>
      </trkpt>
      <trkpt lat="42.91372" lon="42.9984">
        <ele>2056.165897</ele>
        <time>2021-08-15T20:00:26.092Z</time>
      </trkpt>
      <trkpt lat="42.91372" lon="42.99857">
        <ele>2056.544284</ele>
        <time>2021-08-15T20:00:33.100Z</time>
      </trkpt>
      <trkpt lat="42.91371" lon="42.99871">
        <ele>2056.858468</ele>
        <time>2021-08-15T20:00:37.574Z</time>
      </trkpt>
      <trkpt lat="42.91377" lon="42.99871">
        <ele>2057.030864</ele>
        <time>2021-08-15T20:00:40.477Z</time>
      </trkpt>
      <trkpt lat="42.9139" lon="42.99869">
        <ele>2057.407289</ele>
        <time>2021-08-15T20:00:47.385Z</time>
      </trkpt>
      <trkpt lat="42.9139" lon="42.99878">
        <ele>2057.602052</ele>
        <time>2021-08-15T20:00:50.260Z</time>
      </trkpt>
      <trkpt lat="42.9139" lon="42.99884">
        <ele>2057.743662</ele>
        <time>2021-08-15T20:00:52.345Z</time>
      </trkpt>
      <trkpt lat="42.9139" lon="42.99889">
        <ele>2057.847633</ele>
        <time>2021-08-15T20:00:53.598Z</time>
      </trkpt>
      <trkpt lat="42.9139" lon="42.99896">
        <ele>2058.006908</ele>
        <time>2021-08-15T20:00:56.394Z</time>
      </trkpt>
      <trkpt lat="42.91393" lon="42.99903">
        <ele>2058.174143</ele>
        <time>2021-08-15T20:00:59.184Z</time>
      </trkpt>
      <trkpt lat="42.91398" lon="42.99902">
        <ele>2058.328252</ele>
        <time>2021-08-15T20:01:01.951Z</time>
      </trkpt>
      <trkpt lat="42.91401" lon="42.99902">
        <ele>2058.421913</ele>
        <time>2021-08-15T20:01:03.932Z</time>
      </trkpt>
      <trkpt lat="42.91406" lon="42.99903">
        <ele>2058.58556</ele>
        <time>2021-08-15T20:01:06.775Z</time>
      </trkpt>
      <trkpt lat="42.91412" lon="42.99905">
        <ele>2058.767383</ele>
        <time>2021-08-15T20:01:09.525Z</time>
      </trkpt>
      <trkpt lat="42.91412" lon="42.99911">
        <ele>2058.904536</ele>
        <time>2021-08-15T20:01:11.152Z</time>
      </trkpt>
      <trkpt lat="42.91416" lon="42.99922">
        <ele>2059.159663</ele>
        <time>2021-08-15T20:01:15.330Z</time>
      </trkpt>
      <trkpt lat="42.91416" lon="42.99925">
        <ele>2059.226643</ele>
        <time>2021-08-15T20:01:16.154Z</time>
      </trkpt>
      <trkpt lat="42.91419" lon="42.99937">
        <ele>2059.41838</ele>
        <time>2021-08-15T20:01:20.870Z</time>
      </trkpt>
      <trkpt lat="42.91425" lon="42.99976">
        <ele>2059.953268</ele>
        <time>2021-08-15T20:01:32.732Z</time>
      </trkpt>
      <trkpt lat="42.91424" lon="43.00036">
        <ele>2060.757712</ele>
        <time>2021-08-15T20:01:51.200Z</time>
      </trkpt>
      <trkpt lat="42.91424" lon="43.00053">
        <ele>2060.991936</ele>
        <time>2021-08-15T20:01:56.175Z</time>
      </trkpt>
      <trkpt lat="42.91431" lon="43.00075">
        <ele>2061.302431</ele>
        <time>2021-08-15T20:02:03.043Z</time>
      </trkpt>
      <trkpt lat="42.91498" lon="43.00303">
        <ele>2066.075718</ele>
        <time>2021-08-15T20:03:36.503Z</time>
      </trkpt>
      <trkpt lat="42.91488" lon="43.00398">
        <ele>2068.294856</ele>
        <time>2021-08-15T20:04:14.756Z</time>
      </trkpt>
      <trkpt lat="42.91492" lon="43.00413">
        <ele>2068.734752</ele>
        <time>2021-08-15T20:04:21.913Z</time>
      </trkpt>
      <trkpt lat="42.9149" lon="43.00479">
        <ele>2070.492976</ele>
        <time>2021-08-15T20:04:47.720Z</time>
      </trkpt>
      <trkpt lat="42.9149" lon="43.00544">
        <ele>2072.238318</ele>
        <time>2021-08-15T20:05:12.949Z</time>
      </trkpt>
      <trkpt lat="42.91506" lon="43.00644">
        <ele>2075.038094</ele>
        <time>2021-08-15T20:05:55.504Z</time>
      </trkpt>
      <trkpt lat="42.91524" lon="43.00692">
        <ele>2077.227926</ele>
        <time>2021-08-15T20:06:18.440Z</time>
      </trkpt>
      <trkpt lat="42.91534" lon="43.00762">
        <ele>2080.140642</ele>
        <time>2021-08-15T20:06:51.349Z</time>
      </trkpt>
      <trkpt lat="42.91542" lon="43.00782">
        <ele>2081.052364</ele>
        <time>2021-08-15T20:07:02.335Z</time>
      </trkpt>
      <trkpt lat="42.91532" lon="43.00789">
        <ele>2081.634787</ele>
        <time>2021-08-15T20:07:08.493Z</time>
      </trkpt>
      <trkpt lat="42.91523" lon="43.008">
        <ele>2082.334434</ele>
        <time>2021-08-15T20:07:18.027Z</time>
      </trkpt>
      <trkpt lat="42.91515" lon="43.00813">
        <ele>2083.010139</ele>
        <time>2021-08-15T20:07:26.141Z</time>
      </trkpt>
      <trkpt lat="42.91502" lon="43.00823">
        <ele>2083.840931</ele>
        <time>2021-08-15T20:07:35.070Z</time>
      </trkpt>
      <trkpt lat="42.91503" lon="43.00829">
        <ele>2084.106913</ele>
        <time>2021-08-15T20:07:39.580Z</time>
      </trkpt>
      <trkpt lat="42.9152" lon="43.00858">
        <ele>2086.080066</ele>
        <time>2021-08-15T20:07:58.907Z</time>
      </trkpt>
      <trkpt lat="42.91527" lon="43.00887">
        <ele>2088.096891</ele>
        <time>2021-08-15T20:08:17.766Z</time>
      </trkpt>
      <trkpt lat="42.9153" lon="43.00911">
        <ele>2089.654001</ele>
        <time>2021-08-15T20:08:30.193Z</time>
      </trkpt>
      <trkpt lat="42.91525" lon="43.0093">
        <ele>2090.991643</ele>
        <time>2021-08-15T20:08:43.522Z</time>
      </trkpt>
      <trkpt lat="42.91523" lon="43.0095">
        <ele>2092.343385</ele>
        <time>2021-08-15T20:08:54.869Z</time>
      </trkpt>
      <trkpt lat="42.91519" lon="43.00953">
        <ele>2092.80844</ele>
        <time>2021-08-15T20:08:58.687Z</time>
      </trkpt>
      <trkpt lat="42.91525" lon="43.00967">
        <ele>2093.923669</ele>
        <time>2021-08-15T20:09:09.726Z</time>
      </trkpt>
      <trkpt lat="42.91523" lon="43.01002">
        <ele>2096.259735</ele>
        <time>2021-08-15T20:09:27.437Z</time>
      </trkpt>
      <trkpt lat="42.91526" lon="43.0101">
        <ele>2096.851852</ele>
        <time>2021-08-15T20:09:33.667Z</time>
      </trkpt>
      <trkpt lat="42.91522" lon="43.01016">
        <ele>2097.400769</ele>
        <time>2021-08-15T20:09:39.159Z</time>
      </trkpt>
      <trkpt lat="42.91521" lon="43.01027">
        <ele>2098.099611</ele>
        <time>2021-08-15T20:09:44.720Z</time>
      </trkpt>
      <trkpt lat="42.91516" lon="43.01055">
        <ele>2100.062977</ele>
        <time>2021-08-15T20:10:03.721Z</time>
      </trkpt>
      <trkpt lat="42.91504" lon="43.01124">
        <ele>2105.079479</ele>
        <time>2021-08-15T20:10:45.316Z</time>
      </trkpt>
      <trkpt lat="42.915" lon="43.01153">
        <ele>2107.304163</ele>
        <time>2021-08-15T20:11:05.706Z</time>
      </trkpt>
      <trkpt lat="42.91501" lon="43.01163">
        <ele>2108.009714</ele>
        <time>2021-08-15T20:11:12.571Z</time>
      </trkpt>
      <trkpt lat="42.91485" lon="43.0123">
        <ele>2113.159262</ele>
        <time>2021-08-15T20:11:58.604Z</time>
      </trkpt>
      <trkpt lat="42.91487" lon="43.01321">
        <ele>2119.749926</ele>
        <time>2021-08-15T20:12:55.015Z</time>
      </trkpt>
      <trkpt lat="42.91488" lon="43.01345">
        <ele>2121.341025</ele>
        <time>2021-08-15T20:13:11.339Z</time>
      </trkpt>
      <trkpt lat="42.91491" lon="43.01382">
        <ele>2123.891077</ele>
        <time>2021-08-15T20:13:36.541Z</time>
      </trkpt>
      <trkpt lat="42.91492" lon="43.0152">
        <ele>2133.217724</ele>
        <time>2021-08-15T20:14:58.933Z</time>
      </trkpt>
      <trkpt lat="42.91493" lon="43.01553">
        <ele>2135.449766</ele>
        <time>2021-08-15T20:15:19.788Z</time>
      </trkpt>
      <trkpt lat="42.91498" lon="43.01577">
        <ele>2136.580544</ele>
        <time>2021-08-15T20:15:35.087Z</time>
      </trkpt>
      <trkpt lat="42.91518" lon="43.01696">
        <ele>2141.995076</ele>
        <time>2021-08-15T20:16:38.181Z</time>
      </trkpt>
      <trkpt lat="42.91525" lon="43.0177">
        <ele>2145.300923</ele>
        <time>2021-08-15T20:17:13.360Z</time>
      </trkpt>
      <trkpt lat="42.91526" lon="43.01788">
        <ele>2146.098226</ele>
        <time>2021-08-15T20:17:20.078Z</time>
      </trkpt>
      <trkpt lat="42.9154" lon="43.01828">
        <ele>2147.078389</ele>
        <time>2021-08-15T20:17:35.952Z</time>
      </trkpt>
      <trkpt lat="42.91565" lon="43.01859">
        <ele>2147.863188</ele>
        <time>2021-08-15T20:17:51.708Z</time>
      </trkpt>
      <trkpt lat="42.91579" lon="43.01887">
        <ele>2148.434457</ele>
        <time>2021-08-15T20:18:02.781Z</time>
      </trkpt>
      <trkpt lat="42.91581" lon="43.01894">
        <ele>2148.567937</ele>
        <time>2021-08-15T20:18:05.869Z</time>
      </trkpt>
      <trkpt lat="42.91577" lon="43.01898">
        <ele>2148.683176</ele>
        <time>2021-08-15T20:18:07.685Z</time>
      </trkpt>
      <trkpt lat="42.91525" lon="43.01932">
        <ele>2150.018184</ele>
        <time>2021-08-15T20:18:32.871Z</time>
      </trkpt>
      <trkpt lat="42.91505" lon="43.01938">
        <ele>2150.5103</ele>
        <time>2021-08-15T20:18:42.113Z</time>
      </trkpt>
      <trkpt lat="42.915" lon="43.0195">
        <ele>2150.898097</ele>
        <time>2021-08-15T20:18:47.628Z</time>
      </trkpt>
      <trkpt lat="42.91463" lon="43.02">
        <ele>2153.746115</ele>
        <time>2021-08-15T20:19:18.029Z</time>
      </trkpt>
      <trkpt lat="42.91454" lon="43.02063">
        <ele>2156.298342</ele>
        <time>2021-08-15T20:19:46.371Z</time>
      </trkpt>
      <trkpt lat="42.91452" lon="43.02084">
        <ele>2157.119401</ele>
        <time>2021-08-15T20:19:57.401Z</time>
      </trkpt>
      <trkpt lat="42.91449" lon="43.02108">
        <ele>2158.097493</ele>
        <time>2021-08-15T20:20:08.735Z</time>
      </trkpt>
      <trkpt lat="42.91441" lon="43.02179">
        <ele>2161.360124</ele>
        <time>2021-08-15T20:20:49.697Z</time>
      </trkpt>
      <trkpt lat="42.91422" lon="43.02256">
        <ele>2166.9174</ele>
        <time>2021-08-15T20:21:39.611Z</time>
      </trkpt>
      <trkpt lat="42.91372" lon="43.02411">
        <ele>2178.412637</ele>
        <time>2021-08-15T20:23:25.821Z</time>
      </trkpt>
      <trkpt lat="42.91369" lon="43.02498">
        <ele>2184.718782</ele>
        <time>2021-08-15T20:24:21.112Z</time>
      </trkpt>
      <trkpt lat="42.91358" lon="43.02597">
        <ele>2191.850942</ele>
        <time>2021-08-15T20:25:25.753Z</time>
      </trkpt>
      <trkpt lat="42.91348" lon="43.02629">
        <ele>2194.323521</ele>
        <time>2021-08-15T20:25:47.611Z</time>
      </trkpt>
      <trkpt lat="42.91331" lon="43.02661">
        <ele>2196.649116</ele>
        <time>2021-08-15T20:26:11.515Z</time>
      </trkpt>
      <trkpt lat="42.91317" lon="43.02676">
        <ele>2198.059779</ele>
        <time>2021-08-15T20:26:25.623Z</time>
      </trkpt>
      <trkpt lat="42.91273" lon="43.0269">
        <ele>2201.604548</ele>
        <time>2021-08-15T20:26:59.543Z</time>
      </trkpt>
      <trkpt lat="42.91263" lon="43.02701">
        <ele>2202.601325</ele>
        <time>2021-08-15T20:27:08.975Z</time>
      </trkpt>
      <trkpt lat="42.9125" lon="43.02744">
        <ele>2205.274682</ele>
        <time>2021-08-15T20:27:34.355Z</time>
      </trkpt>
      <trkpt lat="42.91246" lon="43.02804">
        <ele>2208.773051</ele>
        <time>2021-08-15T20:28:07.543Z</time>
      </trkpt>
      <trkpt lat="42.91232" lon="43.02832">
        <ele>2210.644412</ele>
        <time>2021-08-15T20:28:24.834Z</time>
      </trkpt>
      <trkpt lat="42.91223" lon="43.02861">
        <ele>2212.417106</ele>
        <time>2021-08-15T20:28:41.073Z</time>
      </trkpt>
      <trkpt lat="42.9119" lon="43.02908">
        <ele>2216.068455</ele>
        <time>2021-08-15T20:29:13.549Z</time>
      </trkpt>
      <trkpt lat="42.9117" lon="43.02977">
        <ele>2220.200778</ele>
        <time>2021-08-15T20:29:53.924Z</time>
      </trkpt>
      <trkpt lat="42.91166" lon="43.03006">
        <ele>2221.846987</ele>
        <time>2021-08-15T20:30:11.381Z</time>
      </trkpt>
      <trkpt lat="42.91172" lon="43.03059">
        <ele>2226.016765</ele>
        <time>2021-08-15T20:30:47.370Z</time>
      </trkpt>
      <trkpt lat="42.91171" lon="43.03103">
        <ele>2229.612595</ele>
        <time>2021-08-15T20:31:17.621Z</time>
      </trkpt>
      <trkpt lat="42.91162" lon="43.03145">
        <ele>2233.23737</ele>
        <time>2021-08-15T20:31:49.188Z</time>
      </trkpt>
      <trkpt lat="42.91178" lon="43.03189">
        <ele>2237.347782</ele>
        <time>2021-08-15T20:32:25.014Z</time>
      </trkpt>
      <trkpt lat="42.91171" lon="43.0326">
        <ele>2243.189255</ele>
        <time>2021-08-15T20:33:16.150Z</time>
      </trkpt>
      <trkpt lat="42.91169" lon="43.03363">
        <ele>2249.471877</ele>
        <time>2021-08-15T20:34:24.762Z</time>
      </trkpt>
      <trkpt lat="42.91166" lon="43.03373">
        <ele>2250.160165</ele>
        <time>2021-08-15T20:34:31.671Z</time>
      </trkpt>
      <trkpt lat="42.91101" lon="43.03451">
        <ele>2257.443839</ele>
        <time>2021-08-15T20:35:34.581Z</time>
      </trkpt>
      <trkpt lat="42.91041" lon="43.03602">
        <ele>2260.854719</ele>
        <time>2021-08-15T20:36:38.253Z</time>
      </trkpt>
      <trkpt lat="42.91027" lon="43.03705">
        <ele>2262.269796</ele>
        <time>2021-08-15T20:37:09.480Z</time>
      </trkpt>
      <trkpt lat="42.91031" lon="43.03747">
        <ele>2262.139808</ele>
        <time>2021-08-15T20:37:21.208Z</time>
      </trkpt>
      <trkpt lat="42.91027" lon="43.03768">
        <ele>2262.071868</ele>
        <time>2021-08-15T20:37:27.199Z</time>
      </trkpt>
      <trkpt lat="42.91011" lon="43.03796">
        <ele>2261.963471</ele>
        <time>2021-08-15T20:37:36.502Z</time>
      </trkpt>
      <trkpt lat="42.90989" lon="43.03853">
        <ele>2261.765178</ele>
        <time>2021-08-15T20:37:53.299Z</time>
      </trkpt>
      <trkpt lat="42.9095" lon="43.0403">
        <ele>2259.996039</ele>
        <time>2021-08-15T20:38:39.097Z</time>
      </trkpt>
      <trkpt lat="42.9095" lon="43.04071">
        <ele>2259.486021</ele>
        <time>2021-08-15T20:38:48.726Z</time>
      </trkpt>
      <trkpt lat="42.90967" lon="43.04191">
        <ele>2257.802923</ele>
        <time>2021-08-15T20:39:17.632Z</time>
      </trkpt>
      <trkpt lat="42.9096" lon="43.04271">
        <ele>2256.510458</ele>
        <time>2021-08-15T20:39:36.720Z</time>
      </trkpt>
      <trkpt lat="42.90984" lon="43.04426">
        <ele>2254.175726</ele>
        <time>2021-08-15T20:40:14.164Z</time>
      </trkpt>
      <trkpt lat="42.90995" lon="43.04464">
        <ele>2253.712501</ele>
        <time>2021-08-15T20:40:24.326Z</time>
      </trkpt>
      <trkpt lat="42.91027" lon="43.04507">
        <ele>2253.040604</ele>
        <time>2021-08-15T20:40:39.128Z</time>
      </trkpt>
      <trkpt lat="42.91058" lon="43.04592">
        <ele>2251.995525</ele>
        <time>2021-08-15T20:41:02.604Z</time>
      </trkpt>
      <trkpt lat="42.91058" lon="43.04608">
        <ele>2251.892414</ele>
        <time>2021-08-15T20:41:06.786Z</time>
      </trkpt>
      <trkpt lat="42.91036" lon="43.04678">
        <ele>2252.399626</ele>
        <time>2021-08-15T20:41:26.373Z</time>
      </trkpt>
      <trkpt lat="42.91036" lon="43.04704">
        <ele>2252.570714</ele>
        <time>2021-08-15T20:41:33.373Z</time>
      </trkpt>
      <trkpt lat="42.91061" lon="43.04862">
        <ele>2254.398123</ele>
        <time>2021-08-15T20:42:27.394Z</time>
      </trkpt>
      <trkpt lat="42.91081" lon="43.04907">
        <ele>2256.521944</ele>
        <time>2021-08-15T20:42:50.824Z</time>
      </trkpt>
      <trkpt lat="42.911" lon="43.04925">
        <ele>2257.78886</ele>
        <time>2021-08-15T20:43:06.086Z</time>
      </trkpt>
      <trkpt lat="42.91125" lon="43.04931">
        <ele>2259.153235</ele>
        <time>2021-08-15T20:43:22.997Z</time>
      </trkpt>
      <trkpt lat="42.91141" lon="43.04944">
        <ele>2260.186123</ele>
        <time>2021-08-15T20:43:35.975Z</time>
      </trkpt>
      <trkpt lat="42.91183" lon="43.04998">
        <ele>2263.319048</ele>
        <time>2021-08-15T20:44:18.044Z</time>
      </trkpt>
      <trkpt lat="42.9121" lon="43.05046">
        <ele>2266.124866</ele>
        <time>2021-08-15T20:44:51.183Z</time>
      </trkpt>
      <trkpt lat="42.91219" lon="43.05087">
        <ele>2268.071868</ele>
        <time>2021-08-15T20:45:13.484Z</time>
      </trkpt>
      <trkpt lat="42.91214" lon="43.05133">
        <ele>2270.233468</ele>
        <time>2021-08-15T20:45:37.548Z</time>
      </trkpt>
      <trkpt lat="42.91217" lon="43.05211">
        <ele>2273.859327</ele>
        <time>2021-08-15T20:46:15.474Z</time>
      </trkpt>
      <trkpt lat="42.91224" lon="43.05288">
        <ele>2276.731652</ele>
        <time>2021-08-15T20:46:49.469Z</time>
      </trkpt>
      <trkpt lat="42.91241" lon="43.05403">
        <ele>2280.747958</ele>
        <time>2021-08-15T20:47:40.194Z</time>
      </trkpt>
      <trkpt lat="42.91241" lon="43.05462">
        <ele>2282.747223</ele>
        <time>2021-08-15T20:48:05.646Z</time>
      </trkpt>
      <trkpt lat="42.91273" lon="43.0556">
        <ele>2285.950517</ele>
        <time>2021-08-15T20:48:55.244Z</time>
      </trkpt>
      <trkpt lat="42.9128" lon="43.05612">
        <ele>2287.508921</ele>
        <time>2021-08-15T20:49:18.634Z</time>
      </trkpt>
      <trkpt lat="42.91272" lon="43.05664">
        <ele>2289.054377</ele>
        <time>2021-08-15T20:49:40.111Z</time>
      </trkpt>
      <trkpt lat="42.91272" lon="43.05729">
        <ele>2290.47357</ele>
        <time>2021-08-15T20:50:04.602Z</time>
      </trkpt>
      <trkpt lat="42.91254" lon="43.05784">
        <ele>2290.937296</ele>
        <time>2021-08-15T20:50:23.285Z</time>
      </trkpt>
      <trkpt lat="42.91248" lon="43.05795">
        <ele>2291.046026</ele>
        <time>2021-08-15T20:50:26.549Z</time>
      </trkpt>
      <trkpt lat="42.91214" lon="43.05846">
        <ele>2291.590458</ele>
        <time>2021-08-15T20:50:45.593Z</time>
      </trkpt>
      <trkpt lat="42.91195" lon="43.05863">
        <ele>2291.826329</ele>
        <time>2021-08-15T20:50:54.949Z</time>
      </trkpt>
      <trkpt lat="42.91175" lon="43.05865">
        <ele>2292.040586</ele>
        <time>2021-08-15T20:51:03.590Z</time>
      </trkpt>
      <trkpt lat="42.91155" lon="43.05888">
        <ele>2292.636438</ele>
        <time>2021-08-15T20:51:15.076Z</time>
      </trkpt>
      <trkpt lat="42.91138" lon="43.05942">
        <ele>2294.340693</ele>
        <time>2021-08-15T20:51:33.622Z</time>
      </trkpt>
      <trkpt lat="42.91122" lon="43.06015">
        <ele>2296.540495</ele>
        <time>2021-08-15T20:52:04.488Z</time>
      </trkpt>
      <trkpt lat="42.91124" lon="43.06103">
        <ele>2299.101585</ele>
        <time>2021-08-15T20:52:46.295Z</time>
      </trkpt>
      <trkpt lat="42.91115" lon="43.0613">
        <ele>2300.690644</ele>
        <time>2021-08-15T20:53:01.745Z</time>
      </trkpt>
      <trkpt lat="42.91094" lon="43.06161">
        <ele>2303.33583</ele>
        <time>2021-08-15T20:53:27.655Z</time>
      </trkpt>
      <trkpt lat="42.91086" lon="43.06211">
        <ele>2306.50266</ele>
        <time>2021-08-15T20:53:57.907Z</time>
      </trkpt>
      <trkpt lat="42.91039" lon="43.0633">
        <ele>2314.984685</ele>
        <time>2021-08-15T20:55:18.345Z</time>
      </trkpt>
      <trkpt lat="42.91037" lon="43.06356">
        <ele>2317.059064</ele>
        <time>2021-08-15T20:55:34.777Z</time>
      </trkpt>
      <trkpt lat="42.91041" lon="43.06408">
        <ele>2321.200566</ele>
        <time>2021-08-15T20:56:08.528Z</time>
      </trkpt>
      <trkpt lat="42.91034" lon="43.06438">
        <ele>2323.705352</ele>
        <time>2021-08-15T20:56:29.454Z</time>
      </trkpt>
      <trkpt lat="42.91033" lon="43.06516">
        <ele>2329.955708</ele>
        <time>2021-08-15T20:57:23.487Z</time>
      </trkpt>
      <trkpt lat="42.91034" lon="43.06579">
        <ele>2335.1677</ele>
        <time>2021-08-15T20:58:08.979Z</time>
      </trkpt>
      <trkpt lat="42.91042" lon="43.06622">
        <ele>2339.241757</ele>
        <time>2021-08-15T20:58:40.898Z</time>
      </trkpt>
      <trkpt lat="42.91041" lon="43.06657">
        <ele>2342.494108</ele>
        <time>2021-08-15T20:59:06.557Z</time>
      </trkpt>
      <trkpt lat="42.91033" lon="43.06692">
        <ele>2345.823063</ele>
        <time>2021-08-15T20:59:33.255Z</time>
      </trkpt>
      <trkpt lat="42.91033" lon="43.06727">
        <ele>2349.074538</ele>
        <time>2021-08-15T20:59:59.373Z</time>
      </trkpt>
      <trkpt lat="42.91041" lon="43.06794">
        <ele>2355.335286</ele>
        <time>2021-08-15T21:00:50.059Z</time>
      </trkpt>
      <trkpt lat="42.91025" lon="43.06878">
        <ele>2363.271393</ele>
        <time>2021-08-15T21:01:54.945Z</time>
      </trkpt>
      <trkpt lat="42.9103" lon="43.06908">
        <ele>2366.077921</ele>
        <time>2021-08-15T21:02:17.911Z</time>
      </trkpt>
      <trkpt lat="42.91039" lon="43.0693">
        <ele>2368.355618</ele>
        <time>2021-08-15T21:02:35.914Z</time>
      </trkpt>
      <trkpt lat="42.91045" lon="43.06942">
        <ele>2369.62748</ele>
        <time>2021-08-15T21:02:46.353Z</time>
      </trkpt>
      <trkpt lat="42.91048" lon="43.06972">
        <ele>2372.472458</ele>
        <time>2021-08-15T21:03:08.958Z</time>
      </trkpt>
      <trkpt lat="42.91061" lon="43.07002">
        <ele>2375.703979</ele>
        <time>2021-08-15T21:03:35.008Z</time>
      </trkpt>
      <trkpt lat="42.91077" lon="43.07065">
        <ele>2381.350917</ele>
        <time>2021-08-15T21:04:22.474Z</time>
      </trkpt>
      <trkpt lat="42.91139" lon="43.07201">
        <ele>2393.537606</ele>
        <time>2021-08-15T21:06:07.660Z</time>
      </trkpt>
      <trkpt lat="42.91159" lon="43.07228">
        <ele>2396.504813</ele>
        <time>2021-08-15T21:06:31.473Z</time>
      </trkpt>
      <trkpt lat="42.9117" lon="43.07252">
        <ele>2398.555202</ele>
        <time>2021-08-15T21:06:48.283Z</time>
      </trkpt>
      <trkpt lat="42.91179" lon="43.07299">
        <ele>2401.706033</ele>
        <time>2021-08-15T21:07:17.383Z</time>
      </trkpt>
      <trkpt lat="42.912" lon="43.07329">
        <ele>2404.323761</ele>
        <time>2021-08-15T21:07:41.235Z</time>
      </trkpt>
      <trkpt lat="42.91196" lon="43.07397">
        <ele>2408.754644</ele>
        <time>2021-08-15T21:08:21.194Z</time>
      </trkpt>
      <trkpt lat="42.91204" lon="43.0745">
        <ele>2412.204385</ele>
        <time>2021-08-15T21:08:52.257Z</time>
      </trkpt>
      <trkpt lat="42.91205" lon="43.07531">
        <ele>2418.110103</ele>
        <time>2021-08-15T21:09:41.943Z</time>
      </trkpt>
      <trkpt lat="42.91224" lon="43.07571">
        <ele>2421.689968</ele>
        <time>2021-08-15T21:10:12.200Z</time>
      </trkpt>
      <trkpt lat="42.91227" lon="43.07611">
        <ele>2424.777479</ele>
        <time>2021-08-15T21:10:38.869Z</time>
      </trkpt>
      <trkpt lat="42.91244" lon="43.07671">
        <ele>2429.648674</ele>
        <time>2021-08-15T21:11:22.199Z</time>
      </trkpt>
      <trkpt lat="42.91246" lon="43.07736">
        <ele>2434.926324</ele>
        <time>2021-08-15T21:12:07.642Z</time>
      </trkpt>
      <trkpt lat="42.91283" lon="43.07942">
        <ele>2453.465246</ele>
        <time>2021-08-15T21:14:39.553Z</time>
      </trkpt>
      <trkpt lat="42.91311" lon="43.07986">
        <ele>2458.516107</ele>
        <time>2021-08-15T21:15:21.784Z</time>
      </trkpt>
      <trkpt lat="42.91319" lon="43.08015">
        <ele>2461.102701</ele>
        <time>2021-08-15T21:15:43.141Z</time>
      </trkpt>
      <trkpt lat="42.91309" lon="43.08041">
        <ele>2463.659679</ele>
        <time>2021-08-15T21:16:03.914Z</time>
      </trkpt>
      <trkpt lat="42.91268" lon="43.08093">
        <ele>2470.148167</ele>
        <time>2021-08-15T21:16:57.764Z</time>
      </trkpt>
      <trkpt lat="42.91275" lon="43.0816">
        <ele>2475.845859</ele>
        <time>2021-08-15T21:17:45.633Z</time>
      </trkpt>
      <trkpt lat="42.91273" lon="43.08196">
        <ele>2478.3955</ele>
        <time>2021-08-15T21:18:08.465Z</time>
      </trkpt>
      <trkpt lat="42.91262" lon="43.08225">
        <ele>2480.754107</ele>
        <time>2021-08-15T21:18:28.961Z</time>
      </trkpt>
      <trkpt lat="42.91249" lon="43.08309">
        <ele>2487.009588</ele>
        <time>2021-08-15T21:19:23.481Z</time>
      </trkpt>
      <trkpt lat="42.91247" lon="43.08322">
        <ele>2487.910588</ele>
        <time>2021-08-15T21:19:29.907Z</time>
      </trkpt>
      <trkpt lat="42.91225" lon="43.08358">
        <ele>2491.30307</ele>
        <time>2021-08-15T21:19:58.359Z</time>
      </trkpt>
      <trkpt lat="42.91209" lon="43.08463">
        <ele>2499.413293</ele>
        <time>2021-08-15T21:21:06.323Z</time>
      </trkpt>
      <trkpt lat="42.9121" lon="43.08475">
        <ele>2500.33332</ele>
        <time>2021-08-15T21:21:14.281Z</time>
      </trkpt>
      <trkpt lat="42.91217" lon="43.08495">
        <ele>2501.992134</ele>
        <time>2021-08-15T21:21:28.233Z</time>
      </trkpt>
      <trkpt lat="42.91246" lon="43.0853">
        <ele>2505.962734</ele>
        <time>2021-08-15T21:22:01.340Z</time>
      </trkpt>
      <trkpt lat="42.91296" lon="43.08632">
        <ele>2516.343694</ele>
        <time>2021-08-15T21:23:26.945Z</time>
      </trkpt>
      <trkpt lat="42.91327" lon="43.08668">
        <ele>2521.812253</ele>
        <time>2021-08-15T21:24:07.353Z</time>
      </trkpt>
      <trkpt lat="42.91346" lon="43.08719">
        <ele>2527.372314</ele>
        <time>2021-08-15T21:24:52.301Z</time>
      </trkpt>
      <trkpt lat="42.91359" lon="43.08821">
        <ele>2537.670983</ele>
        <time>2021-08-15T21:26:17.396Z</time>
      </trkpt>
      <trkpt lat="42.91359" lon="43.08881">
        <ele>2544.006146</ele>
        <time>2021-08-15T21:27:04.618Z</time>
      </trkpt>
      <trkpt lat="42.91363" lon="43.08885">
        <ele>2544.661065</ele>
        <time>2021-08-15T21:27:11.546Z</time>
      </trkpt>
      <trkpt lat="42.91383" lon="43.08935">
        <ele>2550.590228</ele>
        <time>2021-08-15T21:27:56.018Z</time>
      </trkpt>
      <trkpt lat="42.91416" lon="43.08989">
        <ele>2558.039484</ele>
        <time>2021-08-15T21:28:52.360Z</time>
      </trkpt>
      <trkpt lat="42.9142" lon="43.0909">
        <ele>2566.719626</ele>
        <time>2021-08-15T21:30:13.711Z</time>
      </trkpt>
      <trkpt lat="42.91416" lon="43.09178">
        <ele>2573.481625</ele>
        <time>2021-08-15T21:31:10.720Z</time>
      </trkpt>
      <trkpt lat="42.9141" lon="43.09255">
        <ele>2579.390878</ele>
        <time>2021-08-15T21:31:54.353Z</time>
      </trkpt>
      <trkpt lat="42.91424" lon="43.09316">
        <ele>2582.053238</ele>
        <time>2021-08-15T21:32:28.049Z</time>
      </trkpt>
      <trkpt lat="42.91457" lon="43.09371">
        <ele>2584.613488</ele>
        <time>2021-08-15T21:33:01.242Z</time>
      </trkpt>
      <trkpt lat="42.91483" lon="43.09438">
        <ele>2587.322027</ele>
        <time>2021-08-15T21:33:31.042Z</time>
      </trkpt>
      <trkpt lat="42.91488" lon="43.09455">
        <ele>2587.976931</ele>
        <time>2021-08-15T21:33:38.474Z</time>
      </trkpt>
      <trkpt lat="42.91488" lon="43.09557">
        <ele>2591.034865</ele>
        <time>2021-08-15T21:34:18.092Z</time>
      </trkpt>
      <trkpt lat="42.91515" lon="43.09749">
        <ele>2596.622988</ele>
        <time>2021-08-15T21:35:39.671Z</time>
      </trkpt>
      <trkpt lat="42.91516" lon="43.09838">
        <ele>2599.436119</ele>
        <time>2021-08-15T21:36:20.727Z</time>
      </trkpt>
      <trkpt lat="42.91517" lon="43.09856">
        <ele>2599.994355</ele>
        <time>2021-08-15T21:36:29.076Z</time>
      </trkpt>
      <trkpt lat="42.91529" lon="43.09949">
        <ele>2603.012366</ele>
        <time>2021-08-15T21:37:13.214Z</time>
      </trkpt>
      <trkpt lat="42.91552" lon="43.10272">
        <ele>2602.617084</ele>
        <time>2021-08-15T21:38:55.429Z</time>
      </trkpt>
      <trkpt lat="42.91555" lon="43.10298">
        <ele>2601.229434</ele>
        <time>2021-08-15T21:39:00.675Z</time>
      </trkpt>
      <trkpt lat="42.91559" lon="43.10341">
        <ele>2598.990666</ele>
        <time>2021-08-15T21:39:08.716Z</time>
      </trkpt>
      <trkpt lat="42.91556" lon="43.10434">
        <ele>2594.059076</ele>
        <time>2021-08-15T21:39:26.224Z</time>
      </trkpt>
      <trkpt lat="42.91548" lon="43.10451">
        <ele>2592.999162</ele>
        <time>2021-08-15T21:39:30.212Z</time>
      </trkpt>
      <trkpt lat="42.91543" lon="43.10465">
        <ele>2591.784074</ele>
        <time>2021-08-15T21:39:32.940Z</time>
      </trkpt>
      <trkpt lat="42.91539" lon="43.10477">
        <ele>2590.754214</ele>
        <time>2021-08-15T21:39:35.238Z</time>
      </trkpt>
      <trkpt lat="42.91533" lon="43.10552">
        <ele>2584.693748</ele>
        <time>2021-08-15T21:39:49.094Z</time>
      </trkpt>
      <trkpt lat="42.91547" lon="43.10611">
        <ele>2579.675471</ele>
        <time>2021-08-15T21:40:00.522Z</time>
      </trkpt>
      <trkpt lat="42.91643" lon="43.10758">
        <ele>2565.567418</ele>
        <time>2021-08-15T21:40:38.435Z</time>
      </trkpt>
      <trkpt lat="42.91772" lon="43.10995">
        <ele>2544.580867</ele>
        <time>2021-08-15T21:41:35.069Z</time>
      </trkpt>
      <trkpt lat="42.91833" lon="43.11284">
        <ele>2517.393454</ele>
        <time>2021-08-15T21:42:29.826Z</time>
      </trkpt>
      <trkpt lat="42.91882" lon="43.11423">
        <ele>2501.538182</ele>
        <time>2021-08-15T21:42:57.458Z</time>
      </trkpt>
      <trkpt lat="42.91935" lon="43.11572">
        <ele>2483.991175</ele>
        <time>2021-08-15T21:43:26.923Z</time>
      </trkpt>
      <trkpt lat="42.91942" lon="43.11626">
        <ele>2478.012526</ele>
        <time>2021-08-15T21:43:36.516Z</time>
      </trkpt>
      <trkpt lat="42.9196" lon="43.1167">
        <ele>2472.403828</ele>
        <time>2021-08-15T21:43:45.495Z</time>
      </trkpt>
      <trkpt lat="42.91971" lon="43.11717">
        <ele>2466.987685</ele>
        <time>2021-08-15T21:43:54.224Z</time>
      </trkpt>
      <trkpt lat="42.9198" lon="43.11809">
        <ele>2458.394875</ele>
        <time>2021-08-15T21:44:10.931Z</time>
      </trkpt>
      <trkpt lat="42.92001" lon="43.11837">
        <ele>2455.327437</ele>
        <time>2021-08-15T21:44:18.161Z</time>
      </trkpt>
      <trkpt lat="42.92009" lon="43.11859">
        <ele>2453.404359</ele>
        <time>2021-08-15T21:44:22.730Z</time>
      </trkpt>
      <trkpt lat="42.92024" lon="43.11986">
        <ele>2443.39487</ele>
        <time>2021-08-15T21:44:47.386Z</time>
      </trkpt>
      <trkpt lat="42.92032" lon="43.12015">
        <ele>2442.35583</ele>
        <time>2021-08-15T21:44:53.740Z</time>
      </trkpt>
      <trkpt lat="42.92039" lon="43.12025">
        <ele>2441.908131</ele>
        <time>2021-08-15T21:44:56.607Z</time>
      </trkpt>
      <trkpt lat="42.92053" lon="43.12023">
        <ele>2441.278545</ele>
        <time>2021-08-15T21:45:00.723Z</time>
      </trkpt>
      <trkpt lat="42.92125" lon="43.11958">
        <ele>2437.488583</ele>
        <time>2021-08-15T21:45:26.658Z</time>
      </trkpt>
      <trkpt lat="42.9217" lon="43.1194">
        <ele>2435.435268</ele>
        <time>2021-08-15T21:45:41.286Z</time>
      </trkpt>
      <trkpt lat="42.92272" lon="43.11858">
        <ele>2431.923129</ele>
        <time>2021-08-15T21:46:18.954Z</time>
      </trkpt>
      <trkpt lat="42.92336" lon="43.11754">
        <ele>2427.062384</ele>
        <time>2021-08-15T21:46:49.863Z</time>
      </trkpt>
      <trkpt lat="42.9239" lon="43.11572">
        <ele>2415.391279</ele>
        <time>2021-08-15T21:47:27.798Z</time>
      </trkpt>
      <trkpt lat="42.92429" lon="43.11464">
        <ele>2400.593393</ele>
        <time>2021-08-15T21:47:49.107Z</time>
      </trkpt>
      <trkpt lat="42.92449" lon="43.1143">
        <ele>2395.351942</ele>
        <time>2021-08-15T21:47:56.489Z</time>
      </trkpt>
      <trkpt lat="42.92503" lon="43.11371">
        <ele>2383.749221</ele>
        <time>2021-08-15T21:48:12.620Z</time>
      </trkpt>
      <trkpt lat="42.92608" lon="43.11295">
        <ele>2363.580901</ele>
        <time>2021-08-15T21:48:40.747Z</time>
      </trkpt>
      <trkpt lat="42.9271" lon="43.11278">
        <ele>2348.749107</ele>
        <time>2021-08-15T21:49:05.994Z</time>
      </trkpt>
      <trkpt lat="42.92735" lon="43.11285">
        <ele>2345.640769</ele>
        <time>2021-08-15T21:49:12.352Z</time>
      </trkpt>
      <trkpt lat="42.92774" lon="43.11343">
        <ele>2338.743906</ele>
        <time>2021-08-15T21:49:27.187Z</time>
      </trkpt>
      <trkpt lat="42.92776" lon="43.11346">
        <ele>2338.403256</ele>
        <time>2021-08-15T21:49:27.855Z</time>
      </trkpt>
      <trkpt lat="42.92779" lon="43.11356">
        <ele>2337.501797</ele>
        <time>2021-08-15T21:49:29.673Z</time>
      </trkpt>
      <trkpt lat="42.92787" lon="43.11387">
        <ele>2334.595903</ele>
        <time>2021-08-15T21:49:36.222Z</time>
      </trkpt>
      <trkpt lat="42.92788" lon="43.11394">
        <ele>2333.980986</ele>
        <time>2021-08-15T21:49:37.430Z</time>
      </trkpt>
      <trkpt lat="42.92788" lon="43.11399">
        <ele>2333.514435</ele>
        <time>2021-08-15T21:49:38.330Z</time>
      </trkpt>
      <trkpt lat="42.9277" lon="43.11489">
        <ele>2326.168633</ele>
        <time>2021-08-15T21:49:56.033Z</time>
      </trkpt>
      <trkpt lat="42.92752" lon="43.11548">
        <ele>2321.246905</ele>
        <time>2021-08-15T21:50:07.633Z</time>
      </trkpt>
      <trkpt lat="42.9275" lon="43.11621">
        <ele>2315.518258</ele>
        <time>2021-08-15T21:50:21.439Z</time>
      </trkpt>
      <trkpt lat="42.92726" lon="43.11789">
        <ele>2303.616644</ele>
        <time>2021-08-15T21:50:53.853Z</time>
      </trkpt>
      <trkpt lat="42.92716" lon="43.11895">
        <ele>2296.605559</ele>
        <time>2021-08-15T21:51:14.535Z</time>
      </trkpt>
      <trkpt lat="42.92698" lon="43.11996">
        <ele>2291.822837</ele>
        <time>2021-08-15T21:51:35.115Z</time>
      </trkpt>
      <trkpt lat="42.92684" lon="43.12048">
        <ele>2289.295078</ele>
        <time>2021-08-15T21:51:46.391Z</time>
      </trkpt>
      <trkpt lat="42.92662" lon="43.12096">
        <ele>2286.683243</ele>
        <time>2021-08-15T21:51:58.451Z</time>
      </trkpt>
      <trkpt lat="42.92644" lon="43.12177">
        <ele>2285.080594</ele>
        <time>2021-08-15T21:52:17.998Z</time>
      </trkpt>
      <trkpt lat="42.92643" lon="43.12203">
        <ele>2284.718477</ele>
        <time>2021-08-15T21:52:24.450Z</time>
      </trkpt>
      <trkpt lat="42.92648" lon="43.12227">
        <ele>2284.365036</ele>
        <time>2021-08-15T21:52:30.590Z</time>
      </trkpt>
      <trkpt lat="42.92645" lon="43.12281">
        <ele>2283.61243</ele>
        <time>2021-08-15T21:52:44.213Z</time>
      </trkpt>
      <trkpt lat="42.92653" lon="43.123">
        <ele>2283.316249</ele>
        <time>2021-08-15T21:52:49.683Z</time>
      </trkpt>
      <trkpt lat="42.92661" lon="43.12315">
        <ele>2283.047272</ele>
        <time>2021-08-15T21:52:54.472Z</time>
      </trkpt>
      <trkpt lat="42.92664" lon="43.12326">
        <ele>2282.891402</ele>
        <time>2021-08-15T21:52:57.417Z</time>
      </trkpt>
      <trkpt lat="42.92662" lon="43.12343">
        <ele>2282.648887</ele>
        <time>2021-08-15T21:53:01.826Z</time>
      </trkpt>
      <trkpt lat="42.92654" lon="43.1239">
        <ele>2281.511931</ele>
        <time>2021-08-15T21:53:14.081Z</time>
      </trkpt>
      <trkpt lat="42.92618" lon="43.12455">
        <ele>2279.621262</ele>
        <time>2021-08-15T21:53:33.589Z</time>
      </trkpt>
      <trkpt lat="42.92573" lon="43.12491">
        <ele>2277.950048</ele>
        <time>2021-08-15T21:53:49.611Z</time>
      </trkpt>
      <trkpt lat="42.92531" lon="43.12547">
        <ele>2274.69258</ele>
        <time>2021-08-15T21:54:05.776Z</time>
      </trkpt>
      <trkpt lat="42.92478" lon="43.12626">
        <ele>2268.028708</ele>
        <time>2021-08-15T21:54:26.476Z</time>
      </trkpt>
      <trkpt lat="42.92431" lon="43.12725">
        <ele>2260.859461</ele>
        <time>2021-08-15T21:54:48.714Z</time>
      </trkpt>
      <trkpt lat="42.92347" lon="43.12816">
        <ele>2253.590729</ele>
        <time>2021-08-15T21:55:16.887Z</time>
      </trkpt>
      <trkpt lat="42.92322" lon="43.12857">
        <ele>2250.965663</ele>
        <time>2021-08-15T21:55:28.125Z</time>
      </trkpt>
      <trkpt lat="42.92323" lon="43.12869">
        <ele>2250.342848</ele>
        <time>2021-08-15T21:55:31.010Z</time>
      </trkpt>
      <trkpt lat="42.92329" lon="43.12874">
        <ele>2249.857357</ele>
        <time>2021-08-15T21:55:33.267Z</time>
      </trkpt>
      <trkpt lat="42.92364" lon="43.1288">
        <ele>2249.907524</ele>
        <time>2021-08-15T21:55:45.390Z</time>
      </trkpt>
      <trkpt lat="42.92409" lon="43.12896">
        <ele>2250.682321</ele>
        <time>2021-08-15T21:56:05.048Z</time>
      </trkpt>
      <trkpt lat="42.92439" lon="43.12908">
        <ele>2251.21827</ele>
        <time>2021-08-15T21:56:21.622Z</time>
      </trkpt>
      <trkpt lat="42.92485" lon="43.12936">
        <ele>2252.056865</ele>
        <time>2021-08-15T21:56:49.986Z</time>
      </trkpt>
      <trkpt lat="42.92512" lon="43.12967">
        <ele>2252.501773</ele>
        <time>2021-08-15T21:57:10.436Z</time>
      </trkpt>
      <trkpt lat="42.92525" lon="43.13001">
        <ele>2252.637428</ele>
        <time>2021-08-15T21:57:26.231Z</time>
      </trkpt>
      <trkpt lat="42.92523" lon="43.13011">
        <ele>2252.671437</ele>
        <time>2021-08-15T21:57:30.405Z</time>
      </trkpt>
      <trkpt lat="42.92514" lon="43.13015">
        <ele>2252.715557</ele>
        <time>2021-08-15T21:57:35.382Z</time>
      </trkpt>
      <trkpt lat="42.92424" lon="43.12985">
        <ele>2253.162132</ele>
        <time>2021-08-15T21:58:11.528Z</time>
      </trkpt>
      <trkpt lat="42.92369" lon="43.13001">
        <ele>2251.726944</ele>
        <time>2021-08-15T21:58:28.543Z</time>
      </trkpt>
      <trkpt lat="42.92262" lon="43.13074">
        <ele>2244.494811</ele>
        <time>2021-08-15T21:59:01.714Z</time>
      </trkpt>
      <trkpt lat="42.92199" lon="43.13146">
        <ele>2239.181199</ele>
        <time>2021-08-15T21:59:23.608Z</time>
      </trkpt>
      <trkpt lat="42.92188" lon="43.13163">
        <ele>2238.062459</ele>
        <time>2021-08-15T21:59:28.035Z</time>
      </trkpt>
      <trkpt lat="42.92175" lon="43.13202">
        <ele>2235.931799</ele>
        <time>2021-08-15T21:59:36.525Z</time>
      </trkpt>
      <trkpt lat="42.92141" lon="43.1335">
        <ele>2228.465312</ele>
        <time>2021-08-15T22:00:08.282Z</time>
      </trkpt>
      <trkpt lat="42.92116" lon="43.13427">
        <ele>2224.869287</ele>
        <time>2021-08-15T22:00:25.872Z</time>
      </trkpt>
      <trkpt lat="42.92092" lon="43.13471">
        <ele>2222.519877</ele>
        <time>2021-08-15T22:00:37.347Z</time>
      </trkpt>
      <trkpt lat="42.92012" lon="43.13562">
        <ele>2215.029925</ele>
        <time>2021-08-15T22:01:06.638Z</time>
      </trkpt>
      <trkpt lat="42.91976" lon="43.13612">
        <ele>2210.844553</ele>
        <time>2021-08-15T22:01:20.156Z</time>
      </trkpt>
      <trkpt lat="42.91932" lon="43.13662">
        <ele>2206.055623</ele>
        <time>2021-08-15T22:01:35.112Z</time>
      </trkpt>
      <trkpt lat="42.9192" lon="43.13691">
        <ele>2203.5955</ele>
        <time>2021-08-15T22:01:41.282Z</time>
      </trkpt>
      <trkpt lat="42.9191" lon="43.13757">
        <ele>2197.097514</ele>
        <time>2021-08-15T22:01:53.564Z</time>
      </trkpt>
      <trkpt lat="42.91913" lon="43.13779">
        <ele>2194.912136</ele>
        <time>2021-08-15T22:01:57.666Z</time>
      </trkpt>
      <trkpt lat="42.91979" lon="43.1382">
        <ele>2185.286507</ele>
        <time>2021-08-15T22:02:15.479Z</time>
      </trkpt>
      <trkpt lat="42.91984" lon="43.13831">
        <ele>2184.029089</ele>
        <time>2021-08-15T22:02:17.811Z</time>
      </trkpt>
      <trkpt lat="42.91979" lon="43.13843">
        <ele>2182.719066</ele>
        <time>2021-08-15T22:02:20.227Z</time>
      </trkpt>
      <trkpt lat="42.91972" lon="43.13847">
        <ele>2181.783483</ele>
        <time>2021-08-15T22:02:21.954Z</time>
      </trkpt>
      <trkpt lat="42.91945" lon="43.13842">
        <ele>2178.230652</ele>
        <time>2021-08-15T22:02:28.711Z</time>
      </trkpt>
      <trkpt lat="42.91927" lon="43.13844">
        <ele>2175.907909</ele>
        <time>2021-08-15T22:02:33.185Z</time>
      </trkpt>
      <trkpt lat="42.91883" lon="43.13871">
        <ele>2169.862039</ele>
        <time>2021-08-15T22:02:44.844Z</time>
      </trkpt>
      <trkpt lat="42.91851" lon="43.1388">
        <ele>2165.656478</ele>
        <time>2021-08-15T22:02:53.012Z</time>
      </trkpt>
      <trkpt lat="42.91688" lon="43.13885">
        <ele>2147.742555</ele>
        <time>2021-08-15T22:03:34.613Z</time>
      </trkpt>
      <trkpt lat="42.91638" lon="43.13861">
        <ele>2142.50186</ele>
        <time>2021-08-15T22:03:48.251Z</time>
      </trkpt>
      <trkpt lat="42.91643" lon="43.1388">
        <ele>2140.990929</ele>
        <time>2021-08-15T22:03:52.156Z</time>
      </trkpt>
      <trkpt lat="42.91663" lon="43.13897">
        <ele>2138.671447</ele>
        <time>2021-08-15T22:03:58.188Z</time>
      </trkpt>
      <trkpt lat="42.91792" lon="43.1393">
        <ele>2125.393644</ele>
        <time>2021-08-15T22:04:32.101Z</time>
      </trkpt>
      <trkpt lat="42.91932" lon="43.13997">
        <ele>2108.516278</ele>
        <time>2021-08-15T22:05:09.355Z</time>
      </trkpt>
      <trkpt lat="42.92003" lon="43.14024">
        <ele>2099.697912</ele>
        <time>2021-08-15T22:05:27.714Z</time>
      </trkpt>
      <trkpt lat="42.92034" lon="43.14045">
        <ele>2095.152137</ele>
        <time>2021-08-15T22:05:36.159Z</time>
      </trkpt>
      <trkpt lat="42.92061" lon="43.1408">
        <ele>2090.149547</ele>
        <time>2021-08-15T22:05:45.400Z</time>
      </trkpt>
      <trkpt lat="42.92088" lon="43.1409">
        <ele>2086.373505</ele>
        <time>2021-08-15T22:05:52.337Z</time>
      </trkpt>
      <trkpt lat="42.92091" lon="43.14098">
        <ele>2085.512378</ele>
        <time>2021-08-15T22:05:53.910Z</time>
      </trkpt>
      <trkpt lat="42.92084" lon="43.14106">
        <ele>2084.370043</ele>
        <time>2021-08-15T22:05:55.995Z</time>
      </trkpt>
      <trkpt lat="42.92049" lon="43.14114">
        <ele>2079.601467</ele>
        <time>2021-08-15T22:06:04.731Z</time>
      </trkpt>
      <trkpt lat="42.91925" lon="43.14101">
        <ele>2062.356505</ele>
        <time>2021-08-15T22:06:35.166Z</time>
      </trkpt>
      <trkpt lat="42.91847" lon="43.14108">
        <ele>2051.575599</ele>
        <time>2021-08-15T22:06:54.197Z</time>
      </trkpt>
      <trkpt lat="42.9184" lon="43.14114">
        <ele>2050.673723</ele>
        <time>2021-08-15T22:06:56.126Z</time>
      </trkpt>
      <trkpt lat="42.91842" lon="43.14124">
        <ele>2049.83684</ele>
        <time>2021-08-15T22:06:57.924Z</time>
      </trkpt>
      <trkpt lat="42.9185" lon="43.14133">
        <ele>2048.570767</ele>
        <time>2021-08-15T22:07:00.626Z</time>
      </trkpt>
      <trkpt lat="42.91965" lon="43.14173">
        <ele>2035.012141</ele>
        <time>2021-08-15T22:07:30.265Z</time>
      </trkpt>
      <trkpt lat="42.92116" lon="43.14239">
        <ele>2019.620668</ele>
        <time>2021-08-15T22:08:11.826Z</time>
      </trkpt>
      <trkpt lat="42.9215" lon="43.14247">
        <ele>2016.498161</ele>
        <time>2021-08-15T22:08:20.759Z</time>
      </trkpt>
      <trkpt lat="42.92176" lon="43.14281">
        <ele>2013.156103</ele>
        <time>2021-08-15T22:08:30.258Z</time>
      </trkpt>
      <trkpt lat="42.92175" lon="43.14305">
        <ele>2011.548459</ele>
        <time>2021-08-15T22:08:34.784Z</time>
      </trkpt>
      <trkpt lat="42.92155" lon="43.14312">
        <ele>2009.678022</ele>
        <time>2021-08-15T22:08:40.028Z</time>
      </trkpt>
      <trkpt lat="42.92085" lon="43.1429">
        <ele>2003.022613</ele>
        <time>2021-08-15T22:08:58.598Z</time>
      </trkpt>
      <trkpt lat="42.91888" lon="43.14277">
        <ele>1985.827117</ele>
        <time>2021-08-15T22:09:50.093Z</time>
      </trkpt>
      <trkpt lat="42.91712" lon="43.14276">
        <ele>1973.336939</ele>
        <time>2021-08-15T22:10:38.428Z</time>
      </trkpt>
      <trkpt lat="42.91686" lon="43.14275">
        <ele>1971.597599</ele>
        <time>2021-08-15T22:10:45.632Z</time>
      </trkpt>
      <trkpt lat="42.91606" lon="43.14276">
        <ele>1966.335667</ele>
        <time>2021-08-15T22:11:07.958Z</time>
      </trkpt>
      <trkpt lat="42.91564" lon="43.14271">
        <ele>1963.591423</ele>
        <time>2021-08-15T22:11:19.564Z</time>
      </trkpt>
      <trkpt lat="42.91507" lon="43.14253">
        <ele>1959.800293</ele>
        <time>2021-08-15T22:11:35.579Z</time>
      </trkpt>
      <trkpt lat="42.91451" lon="43.14214">
        <ele>1955.341806</ele>
        <time>2021-08-15T22:11:52.865Z</time>
      </trkpt>
      <trkpt lat="42.91434" lon="43.14208">
        <ele>1954.058759</ele>
        <time>2021-08-15T22:11:57.577Z</time>
      </trkpt>
      <trkpt lat="42.91387" lon="43.14217">
        <ele>1950.579236</ele>
        <time>2021-08-15T22:12:10.494Z</time>
      </trkpt>
      <trkpt lat="42.91336" lon="43.14212">
        <ele>1946.850372</ele>
        <time>2021-08-15T22:12:24.155Z</time>
      </trkpt>
      <trkpt lat="42.9131" lon="43.14218">
        <ele>1944.73376</ele>
        <time>2021-08-15T22:12:31.413Z</time>
      </trkpt>
      <trkpt lat="42.91304" lon="43.1422">
        <ele>1944.237326</ele>
        <time>2021-08-15T22:12:32.842Z</time>
      </trkpt>
      <trkpt lat="42.91269" lon="43.14229">
        <ele>1941.082902</ele>
        <time>2021-08-15T22:12:42.482Z</time>
      </trkpt>
      <trkpt lat="42.91146" lon="43.14254">
        <ele>1930.207914</ele>
        <time>2021-08-15T22:13:14.839Z</time>
      </trkpt>
      <trkpt lat="42.91134" lon="43.14276">
        <ele>1928.119178</ele>
        <time>2021-08-15T22:13:20.103Z</time>
      </trkpt>
      <trkpt lat="42.91144" lon="43.14307">
        <ele>1925.550894</ele>
        <time>2021-08-15T22:13:26.474Z</time>
      </trkpt>
      <trkpt lat="42.9114" lon="43.14337">
        <ele>1923.220703</ele>
        <time>2021-08-15T22:13:32.209Z</time>
      </trkpt>
      <trkpt lat="42.91131" lon="43.14358">
        <ele>1921.34981</ele>
        <time>2021-08-15T22:13:36.811Z</time>
      </trkpt>
      <trkpt lat="42.91119" lon="43.14368">
        <ele>1919.900815</ele>
        <time>2021-08-15T22:13:40.351Z</time>
      </trkpt>
      <trkpt lat="42.91105" lon="43.14369">
        <ele>1918.482802</ele>
        <time>2021-08-15T22:13:43.798Z</time>
      </trkpt>
      <trkpt lat="42.91071" lon="43.14366">
        <ele>1914.903896</ele>
        <time>2021-08-15T22:13:52.520Z</time>
      </trkpt>
      <trkpt lat="42.9105" lon="43.14352">
        <ele>1912.481792</ele>
        <time>2021-08-15T22:13:58.402Z</time>
      </trkpt>
      <trkpt lat="42.91016" lon="43.14287">
        <ele>1906.412825</ele>
        <time>2021-08-15T22:14:13.344Z</time>
      </trkpt>
      <trkpt lat="42.90992" lon="43.14255">
        <ele>1903.005798</ele>
        <time>2021-08-15T22:14:21.872Z</time>
      </trkpt>
      <trkpt lat="42.90973" lon="43.14249">
        <ele>1900.947493</ele>
        <time>2021-08-15T22:14:27.004Z</time>
      </trkpt>
      <trkpt lat="42.9092" lon="43.14259">
        <ele>1895.382587</ele>
        <time>2021-08-15T22:14:40.591Z</time>
      </trkpt>
      <trkpt lat="42.90886" lon="43.14242">
        <ele>1891.76884</ele>
        <time>2021-08-15T22:14:49.902Z</time>
      </trkpt>
      <trkpt lat="42.90836" lon="43.14235">
        <ele>1887.229766</ele>
        <time>2021-08-15T22:15:03.088Z</time>
      </trkpt>
      <trkpt lat="42.90829" lon="43.14232">
        <ele>1886.499322</ele>
        <time>2021-08-15T22:15:04.970Z</time>
      </trkpt>
      <trkpt lat="42.90822" lon="43.14232">
        <ele>1885.914021</ele>
        <time>2021-08-15T22:15:06.707Z</time>
      </trkpt>
      <trkpt lat="42.90817" lon="43.14231">
        <ele>1885.410088</ele>
        <time>2021-08-15T22:15:08.014Z</time>
      </trkpt>
      <trkpt lat="42.90797" lon="43.14203">
        <ele>1882.818741</ele>
        <time>2021-08-15T22:15:15.496Z</time>
      </trkpt>
      <trkpt lat="42.90699" lon="43.14186">
        <ele>1874.446893</ele>
        <time>2021-08-15T22:15:41.867Z</time>
      </trkpt>
      <trkpt lat="42.90697" lon="43.14186">
        <ele>1874.314056</ele>
        <time>2021-08-15T22:15:42.346Z</time>
      </trkpt>
      <trkpt lat="42.90691" lon="43.14193">
        <ele>1873.796124</ele>
        <time>2021-08-15T22:15:43.470Z</time>
      </trkpt>
      <trkpt lat="42.90664" lon="43.14212">
        <ele>1871.777229</ele>
        <time>2021-08-15T22:15:48.044Z</time>
      </trkpt>
      <trkpt lat="42.90622" lon="43.14201">
        <ele>1868.953773</ele>
        <time>2021-08-15T22:15:54.639Z</time>
      </trkpt>
      <trkpt lat="42.90594" lon="43.14205">
        <ele>1867.074879</ele>
        <time>2021-08-15T22:15:59.159Z</time>
      </trkpt>
      <trkpt lat="42.90583" lon="43.14204">
        <ele>1866.398534</ele>
        <time>2021-08-15T22:16:00.678Z</time>
      </trkpt>
      <trkpt lat="42.90563" lon="43.14224">
        <ele>1864.713294</ele>
        <time>2021-08-15T22:16:08.009Z</time>
      </trkpt>
      <trkpt lat="42.90479" lon="43.14236">
        <ele>1859.333727</ele>
        <time>2021-08-15T22:16:32.171Z</time>
      </trkpt>
      <trkpt lat="42.90375" lon="43.1421">
        <ele>1852.523143</ele>
        <time>2021-08-15T22:17:01.058Z</time>
      </trkpt>
      <trkpt lat="42.90311" lon="43.14204">
        <ele>1847.319589</ele>
        <time>2021-08-15T22:17:17.939Z</time>
      </trkpt>
      <trkpt lat="42.90288" lon="43.14189">
        <ele>1845.237006</ele>
        <time>2021-08-15T22:17:24.644Z</time>
      </trkpt>
      <trkpt lat="42.90268" lon="43.14138">
        <ele>1841.850023</ele>
        <time>2021-08-15T22:17:35.585Z</time>
      </trkpt>
      <trkpt lat="42.90262" lon="43.14132">
        <ele>1841.177834</ele>
        <time>2021-08-15T22:17:37.758Z</time>
      </trkpt>
      <trkpt lat="42.90241" lon="43.1413">
        <ele>1839.529321</ele>
        <time>2021-08-15T22:17:43.101Z</time>
      </trkpt>
      <trkpt lat="42.90212" lon="43.14142">
        <ele>1837.485124</ele>
        <time>2021-08-15T22:17:51.401Z</time>
      </trkpt>
      <trkpt lat="42.90172" lon="43.14185">
        <ele>1834.891088</ele>
        <time>2021-08-15T22:18:05.364Z</time>
      </trkpt>
      <trkpt lat="42.9012" lon="43.14218">
        <ele>1831.926083</ele>
        <time>2021-08-15T22:18:22.129Z</time>
      </trkpt>
      <trkpt lat="42.9008" lon="43.14223">
        <ele>1829.838876</ele>
        <time>2021-08-15T22:18:34.336Z</time>
      </trkpt>
      <trkpt lat="42.9001" lon="43.14211">
        <ele>1827.538381</ele>
        <time>2021-08-15T22:18:56.135Z</time>
      </trkpt>
      <trkpt lat="42.89972" lon="43.14239">
        <ele>1826.336429</ele>
        <time>2021-08-15T22:19:10.222Z</time>
      </trkpt>
      <trkpt lat="42.89915" lon="43.14265">
        <ele>1824.670232</ele>
        <time>2021-08-15T22:19:29.382Z</time>
      </trkpt>
      <trkpt lat="42.89874" lon="43.14259">
        <ele>1823.231757</ele>
        <time>2021-08-15T22:19:41.946Z</time>
      </trkpt>
      <trkpt lat="42.89852" lon="43.14264">
        <ele>1822.239264</ele>
        <time>2021-08-15T22:19:48.798Z</time>
      </trkpt>
      <trkpt lat="42.89809" lon="43.14292">
        <ele>1820.157971</ele>
        <time>2021-08-15T22:20:02.852Z</time>
      </trkpt>
      <trkpt lat="42.89774" lon="43.14294">
        <ele>1818.670519</ele>
        <time>2021-08-15T22:20:12.786Z</time>
      </trkpt>
      <trkpt lat="42.89609" lon="43.14338">
        <ele>1811.064958</ele>
        <time>2021-08-15T22:21:01.273Z</time>
      </trkpt>
      <trkpt lat="42.89564" lon="43.1434">
        <ele>1808.984645</ele>
        <time>2021-08-15T22:21:14.642Z</time>
      </trkpt>
      <trkpt lat="42.89545" lon="43.14339">
        <ele>1808.10357</ele>
        <time>2021-08-15T22:21:20.229Z</time>
      </trkpt>
      <trkpt lat="42.89534" lon="43.14339">
        <ele>1807.596396</ele>
        <time>2021-08-15T22:21:23.571Z</time>
      </trkpt>
      <trkpt lat="42.89485" lon="43.14341">
        <ele>1805.342162</ele>
        <time>2021-08-15T22:21:38.308Z</time>
      </trkpt>
      <trkpt lat="42.89432" lon="43.14384">
        <ele>1802.549074</ele>
        <time>2021-08-15T22:21:56.515Z</time>
      </trkpt>
      <trkpt lat="42.89389" lon="43.14378">
        <ele>1800.600335</ele>
        <time>2021-08-15T22:22:08.927Z</time>
      </trkpt>
      <trkpt lat="42.8932" lon="43.14333">
        <ele>1795.93872</ele>
        <time>2021-08-15T22:22:30.316Z</time>
      </trkpt>
      <trkpt lat="42.89287" lon="43.14301">
        <ele>1793.231421</ele>
        <time>2021-08-15T22:22:41.560Z</time>
      </trkpt>
      <trkpt lat="42.8926" lon="43.14288">
        <ele>1791.319569</ele>
        <time>2021-08-15T22:22:49.415Z</time>
      </trkpt>
      <trkpt lat="42.89186" lon="43.14275">
        <ele>1786.007756</ele>
        <time>2021-08-15T22:23:09.675Z</time>
      </trkpt>
      <trkpt lat="42.89142" lon="43.14229">
        <ele>1781.491302</ele>
        <time>2021-08-15T22:23:24.368Z</time>
      </trkpt>
      <trkpt lat="42.89123" lon="43.14217">
        <ele>1779.785327</ele>
        <time>2021-08-15T22:23:29.876Z</time>
      </trkpt>
      <trkpt lat="42.89111" lon="43.14215">
        <ele>1778.757247</ele>
        <time>2021-08-15T22:23:33.182Z</time>
      </trkpt>
      <trkpt lat="42.89095" lon="43.14232">
        <ele>1777.125237</ele>
        <time>2021-08-15T22:23:38.443Z</time>
      </trkpt>
      <trkpt lat="42.89053" lon="43.14237">
        <ele>1773.665473</ele>
        <time>2021-08-15T22:23:49.540Z</time>
      </trkpt>
      <trkpt lat="42.89005" lon="43.14264">
        <ele>1769.160101</ele>
        <time>2021-08-15T22:24:03.135Z</time>
      </trkpt>
      <trkpt lat="42.88949" lon="43.14273">
        <ele>1764.208131</ele>
        <time>2021-08-15T22:24:17.931Z</time>
      </trkpt>
      <trkpt lat="42.8894" lon="43.14285">
        <ele>1763.107573</ele>
        <time>2021-08-15T22:24:21.232Z</time>
      </trkpt>
      <trkpt lat="42.88925" lon="43.14293">
        <ele>1761.675527</ele>
        <time>2021-08-15T22:24:25.505Z</time>
      </trkpt>
      <trkpt lat="42.88904" lon="43.143">
        <ele>1759.847378</ele>
        <time>2021-08-15T22:24:31.021Z</time>
      </trkpt>
      <trkpt lat="42.8886" lon="43.14298">
        <ele>1756.251223</ele>
        <time>2021-08-15T22:24:42.769Z</time>
      </trkpt>
      <trkpt lat="42.8882" lon="43.14329">
        <ele>1753.072061</ele>
        <time>2021-08-15T22:24:55.124Z</time>
      </trkpt>
      <trkpt lat="42.88799" lon="43.14334">
        <ele>1751.627103</ele>
        <time>2021-08-15T22:25:00.835Z</time>
      </trkpt>
      <trkpt lat="42.88787" lon="43.14345">
        <ele>1750.633578</ele>
        <time>2021-08-15T22:25:04.757Z</time>
      </trkpt>
      <trkpt lat="42.88712" lon="43.14441">
        <ele>1743.727122</ele>
        <time>2021-08-15T22:25:33.621Z</time>
      </trkpt>
      <trkpt lat="42.88683" lon="43.14443">
        <ele>1741.985737</ele>
        <time>2021-08-15T22:25:41.805Z</time>
      </trkpt>
      <trkpt lat="42.88649" lon="43.14433">
        <ele>1739.866137</ele>
        <time>2021-08-15T22:25:51.699Z</time>
      </trkpt>
      <trkpt lat="42.88623" lon="43.14436">
        <ele>1738.333847</ele>
        <time>2021-08-15T22:25:58.805Z</time>
      </trkpt>
      <trkpt lat="42.88566" lon="43.14465">
        <ele>1734.647514</ele>
        <time>2021-08-15T22:26:15.785Z</time>
      </trkpt>
      <trkpt lat="42.88428" lon="43.14513">
        <ele>1725.20883</ele>
        <time>2021-08-15T22:26:55.040Z</time>
      </trkpt>
      <trkpt lat="42.88387" lon="43.14538">
        <ele>1722.260245</ele>
        <time>2021-08-15T22:27:07.175Z</time>
      </trkpt>
      <trkpt lat="42.88292" lon="43.14592">
        <ele>1716.183362</ele>
        <time>2021-08-15T22:27:35.970Z</time>
      </trkpt>
      <trkpt lat="42.88281" lon="43.14603">
        <ele>1715.372566</ele>
        <time>2021-08-15T22:27:39.838Z</time>
      </trkpt>
      <trkpt lat="42.88192" lon="43.14707">
        <ele>1708.431308</ele>
        <time>2021-08-15T22:28:13.160Z</time>
      </trkpt>
      <trkpt lat="42.88111" lon="43.14788">
        <ele>1702.49704</ele>
        <time>2021-08-15T22:28:41.234Z</time>
      </trkpt>
      <trkpt lat="42.88072" lon="43.14822">
        <ele>1699.441558</ele>
        <time>2021-08-15T22:28:54.232Z</time>
      </trkpt>
      <trkpt lat="42.87916" lon="43.1492">
        <ele>1686.895627</ele>
        <time>2021-08-15T22:29:40.471Z</time>
      </trkpt>
      <trkpt lat="42.87884" lon="43.14917">
        <ele>1684.038786</ele>
        <time>2021-08-15T22:29:49.076Z</time>
      </trkpt>
      <trkpt lat="42.87799" lon="43.14922">
        <ele>1676.51454</ele>
        <time>2021-08-15T22:30:11.530Z</time>
      </trkpt>
      <trkpt lat="42.87744" lon="43.14917">
        <ele>1671.474789</ele>
        <time>2021-08-15T22:30:25.879Z</time>
      </trkpt>
      <trkpt lat="42.87645" lon="43.14924">
        <ele>1659.500025</ele>
        <time>2021-08-15T22:30:50.831Z</time>
      </trkpt>
      <trkpt lat="42.87628" lon="43.14953">
        <ele>1656.21409</ele>
        <time>2021-08-15T22:30:57.588Z</time>
      </trkpt>
      <trkpt lat="42.87581" lon="43.14999">
        <ele>1649.180192</ele>
        <time>2021-08-15T22:31:11.760Z</time>
      </trkpt>
      <trkpt lat="42.87508" lon="43.15037">
        <ele>1638.723851</ele>
        <time>2021-08-15T22:31:30.909Z</time>
      </trkpt>
      <trkpt lat="42.8747" lon="43.15065">
        <ele>1633.08513</ele>
        <time>2021-08-15T22:31:41.273Z</time>
      </trkpt>
      <trkpt lat="42.87443" lon="43.15185">
        <ele>1622.111816</ele>
        <time>2021-08-15T22:32:04.283Z</time>
      </trkpt>
      <trkpt lat="42.87425" lon="43.15243">
        <ele>1617.311937</ele>
        <time>2021-08-15T22:32:16.195Z</time>
      </trkpt>
      <trkpt lat="42.87415" lon="43.15257">
        <ele>1615.857119</ele>
        <time>2021-08-15T22:32:19.837Z</time>
      </trkpt>
      <trkpt lat="42.87408" lon="43.15258">
        <ele>1615.115106</ele>
        <time>2021-08-15T22:32:21.704Z</time>
      </trkpt>
      <trkpt lat="42.87404" lon="43.15249">
        <ele>1614.36728</ele>
        <time>2021-08-15T22:32:23.573Z</time>
      </trkpt>
      <trkpt lat="42.87419" lon="43.15203">
        <ele>1610.514606</ele>
        <time>2021-08-15T22:32:33.323Z</time>
      </trkpt>
      <trkpt lat="42.87434" lon="43.15024">
        <ele>1599.566696</ele>
        <time>2021-08-15T22:33:08.601Z</time>
      </trkpt>
      <trkpt lat="42.87456" lon="43.14908">
        <ele>1593.009579</ele>
        <time>2021-08-15T22:33:32.367Z</time>
      </trkpt>
      <trkpt lat="42.87452" lon="43.14881">
        <ele>1591.851143</ele>
        <time>2021-08-15T22:33:37.880Z</time>
      </trkpt>
      <trkpt lat="42.87437" lon="43.14876">
        <ele>1590.939955</ele>
        <time>2021-08-15T22:33:42.212Z</time>
      </trkpt>
      <trkpt lat="42.87429" lon="43.14882">
        <ele>1590.415099</ele>
        <time>2021-08-15T22:33:44.727Z</time>
      </trkpt>
      <trkpt lat="42.87407" lon="43.14927">
        <ele>1588.136432</ele>
        <time>2021-08-15T22:33:55.805Z</time>
      </trkpt>
      <trkpt lat="42.87377" lon="43.15063">
        <ele>1582.57815</ele>
        <time>2021-08-15T22:34:26.136Z</time>
      </trkpt>
      <trkpt lat="42.87327" lon="43.1516">
        <ele>1579.24824</ele>
        <time>2021-08-15T22:34:52.399Z</time>
      </trkpt>
      <trkpt lat="42.87312" lon="43.15213">
        <ele>1577.642153</ele>
        <time>2021-08-15T22:35:05.166Z</time>
      </trkpt>
      <trkpt lat="42.87307" lon="43.1526">
        <ele>1576.279421</ele>
        <time>2021-08-15T22:35:15.820Z</time>
      </trkpt>
      <trkpt lat="42.873" lon="43.15276">
        <ele>1575.729982</ele>
        <time>2021-08-15T22:35:19.819Z</time>
      </trkpt>
      <trkpt lat="42.8725" lon="43.1533">
        <ele>1573.037055</ele>
        <time>2021-08-15T22:35:39.062Z</time>
      </trkpt>
      <trkpt lat="42.87074" lon="43.15541">
        <ele>1562.821318</ele>
        <time>2021-08-15T22:36:47.424Z</time>
      </trkpt>
      <trkpt lat="42.87004" lon="43.15653">
        <ele>1558.159128</ele>
        <time>2021-08-15T22:37:19.431Z</time>
      </trkpt>
      <trkpt lat="42.86966" lon="43.15686">
        <ele>1556.259212</ele>
        <time>2021-08-15T22:37:32.842Z</time>
      </trkpt>
      <trkpt lat="42.86888" lon="43.15851">
        <ele>1549.711088</ele>
        <time>2021-08-15T22:38:15.362Z</time>
      </trkpt>
      <trkpt lat="42.86829" lon="43.15899">
        <ele>1546.353727</ele>
        <time>2021-08-15T22:38:35.012Z</time>
      </trkpt>
      <trkpt lat="42.86806" lon="43.159">
        <ele>1545.225482</ele>
        <time>2021-08-15T22:38:41.575Z</time>
      </trkpt>
      <trkpt lat="42.8679" lon="43.1591">
        <ele>1544.343864</ele>
        <time>2021-08-15T22:38:46.521Z</time>
      </trkpt>
      <trkpt lat="42.86731" lon="43.15992">
        <ele>1539.666369</ele>
        <time>2021-08-15T22:39:10.551Z</time>
      </trkpt>
      <trkpt lat="42.86673" lon="43.16051">
        <ele>1535.662711</ele>
        <time>2021-08-15T22:39:30.903Z</time>
      </trkpt>
      <trkpt lat="42.86589" lon="43.16196">
        <ele>1528.627515</ele>
        <time>2021-08-15T22:40:09.329Z</time>
      </trkpt>
      <trkpt lat="42.86581" lon="43.16207">
        <ele>1528.045291</ele>
        <time>2021-08-15T22:40:12.337Z</time>
      </trkpt>
      <trkpt lat="42.86507" lon="43.16307">
        <ele>1524.736029</ele>
        <time>2021-08-15T22:40:43.386Z</time>
      </trkpt>
      <trkpt lat="42.86484" lon="43.16315">
        <ele>1524.440079</ele>
        <time>2021-08-15T22:40:52.024Z</time>
      </trkpt>
      <trkpt lat="42.86453" lon="43.16303">
        <ele>1524.051665</ele>
        <time>2021-08-15T22:41:02.810Z</time>
      </trkpt>
      <trkpt lat="42.86437" lon="43.16286">
        <ele>1523.802106</ele>
        <time>2021-08-15T22:41:09.937Z</time>
      </trkpt>
      <trkpt lat="42.86428" lon="43.1628">
        <ele>1523.671944</ele>
        <time>2021-08-15T22:41:15.618Z</time>
      </trkpt>
      <trkpt lat="42.86346" lon="43.16285">
        <ele>1523.704412</ele>
        <time>2021-08-15T22:41:49.407Z</time>
      </trkpt>
      <trkpt lat="42.86307" lon="43.16314">
        <ele>1524.287831</ele>
        <time>2021-08-15T22:42:08.716Z</time>
      </trkpt>
      <trkpt lat="42.86287" lon="43.16322">
        <ele>1524.560177</ele>
        <time>2021-08-15T22:42:20.467Z</time>
      </trkpt>
      <trkpt lat="42.86253" lon="43.16357">
        <ele>1525.125986</ele>
        <time>2021-08-15T22:42:40.096Z</time>
      </trkpt>
      <trkpt lat="42.86204" lon="43.16444">
        <ele>1525.796973</ele>
        <time>2021-08-15T22:43:11.240Z</time>
      </trkpt>
      <trkpt lat="42.86183" lon="43.16469">
        <ele>1525.948344</ele>
        <time>2021-08-15T22:43:21.581Z</time>
      </trkpt>
      <trkpt lat="42.86164" lon="43.16455">
        <ele>1526.065589</ele>
        <time>2021-08-15T22:43:29.638Z</time>
      </trkpt>
      <trkpt lat="42.86139" lon="43.16455">
        <ele>1526.20419</ele>
        <time>2021-08-15T22:43:39.798Z</time>
      </trkpt>
      <trkpt lat="42.86119" lon="43.16445">
        <ele>1526.320054</ele>
        <time>2021-08-15T22:43:48.277Z</time>
      </trkpt>
      <trkpt lat="42.8609" lon="43.16451">
        <ele>1526.485032</ele>
        <time>2021-08-15T22:44:00.620Z</time>
      </trkpt>
      <trkpt lat="42.86043" lon="43.16418">
        <ele>1526.028642</ele>
        <time>2021-08-15T22:44:23.358Z</time>
      </trkpt>
      <trkpt lat="42.85998" lon="43.164">
        <ele>1525.567433</ele>
        <time>2021-08-15T22:44:40.887Z</time>
      </trkpt>
      <trkpt lat="42.85959" lon="43.16415">
        <ele>1525.160273</ele>
        <time>2021-08-15T22:44:54.757Z</time>
      </trkpt>
      <trkpt lat="42.85932" lon="43.16406">
        <ele>1524.892604</ele>
        <time>2021-08-15T22:45:03.628Z</time>
      </trkpt>
      <trkpt lat="42.85893" lon="43.16415">
        <ele>1523.385982</ele>
        <time>2021-08-15T22:45:15.358Z</time>
      </trkpt>
      <trkpt lat="42.85829" lon="43.1644">
        <ele>1519.505846</ele>
        <time>2021-08-15T22:45:34.055Z</time>
      </trkpt>
      <trkpt lat="42.85802" lon="43.1644">
        <ele>1517.980845</ele>
        <time>2021-08-15T22:45:41.305Z</time>
      </trkpt>
      <trkpt lat="42.8578" lon="43.1642">
        <ele>1516.4348</ele>
        <time>2021-08-15T22:45:48.811Z</time>
      </trkpt>
      <trkpt lat="42.85766" lon="43.16423">
        <ele>1515.628663</ele>
        <time>2021-08-15T22:45:52.417Z</time>
      </trkpt>
      <trkpt lat="42.85756" lon="43.16403">
        <ele>1514.603343</ele>
        <time>2021-08-15T22:45:57.437Z</time>
      </trkpt>
      <trkpt lat="42.85732" lon="43.16373">
        <ele>1512.873512</ele>
        <time>2021-08-15T22:46:06.128Z</time>
      </trkpt>
      <trkpt lat="42.85691" lon="43.16383">
        <ele>1510.644086</ele>
        <time>2021-08-15T22:46:17.814Z</time>
      </trkpt>
      <trkpt lat="42.8564" lon="43.16369">
        <ele>1507.91414</ele>
        <time>2021-08-15T22:46:32.217Z</time>
      </trkpt>
      <trkpt lat="42.85621" lon="43.1638">
        <ele>1506.798196</ele>
        <time>2021-08-15T22:46:38.593Z</time>
      </trkpt>
      <trkpt lat="42.85586" lon="43.1638">
        <ele>1504.965433</ele>
        <time>2021-08-15T22:46:49.266Z</time>
      </trkpt>
      <trkpt lat="42.85568" lon="43.16357">
        <ele>1504.154248</ele>
        <time>2021-08-15T22:46:56.826Z</time>
      </trkpt>
      <trkpt lat="42.85536" lon="43.16357">
        <ele>1503.208254</ele>
        <time>2021-08-15T22:47:06.708Z</time>
      </trkpt>
      <trkpt lat="42.8552" lon="43.16339">
        <ele>1502.577191</ele>
        <time>2021-08-15T22:47:13.413Z</time>
      </trkpt>
      <trkpt lat="42.8545" lon="43.16312">
        <ele>1500.412697</ele>
        <time>2021-08-15T22:47:36.147Z</time>
      </trkpt>
      <trkpt lat="42.85393" lon="43.16309">
        <ele>1498.681829</ele>
        <time>2021-08-15T22:47:53.917Z</time>
      </trkpt>
      <trkpt lat="42.85368" lon="43.16289">
        <ele>1497.773865</ele>
        <time>2021-08-15T22:48:02.824Z</time>
      </trkpt>
      <trkpt lat="42.85309" lon="43.1629">
        <ele>1495.935723</ele>
        <time>2021-08-15T22:48:20.681Z</time>
      </trkpt>
      <trkpt lat="42.85268" lon="43.16268">
        <ele>1494.536116</ele>
        <time>2021-08-15T22:48:34.443Z</time>
      </trkpt>
      <trkpt lat="42.85223" lon="43.16273">
        <ele>1493.016087</ele>
        <time>2021-08-15T22:48:48.353Z</time>
      </trkpt>
      <trkpt lat="42.85184" lon="43.16306">
        <ele>1491.3785</ele>
        <time>2021-08-15T22:49:02.087Z</time>
      </trkpt>
      <trkpt lat="42.85172" lon="43.1631">
        <ele>1490.947188</ele>
        <time>2021-08-15T22:49:05.711Z</time>
      </trkpt>
      <trkpt lat="42.85108" lon="43.16271">
        <ele>1488.44929</ele>
        <time>2021-08-15T22:49:26.685Z</time>
      </trkpt>
      <trkpt lat="42.85082" lon="43.16245">
        <ele>1487.287865</ele>
        <time>2021-08-15T22:49:36.504Z</time>
      </trkpt>
      <trkpt lat="42.84987" lon="43.16198">
        <ele>1484.341562</ele>
        <time>2021-08-15T22:50:07.647Z</time>
      </trkpt>
      <trkpt lat="42.84937" lon="43.16199">
        <ele>1482.914432</ele>
        <time>2021-08-15T22:50:23.153Z</time>
      </trkpt>
      <trkpt lat="42.84892" lon="43.16163">
        <ele>1481.764714</ele>
        <time>2021-08-15T22:50:40.193Z</time>
      </trkpt>
      <trkpt lat="42.8485" lon="43.16152">
        <ele>1481.153749</ele>
        <time>2021-08-15T22:50:54.625Z</time>
      </trkpt>
      <trkpt lat="42.84828" lon="43.16153">
        <ele>1480.832284</ele>
        <time>2021-08-15T22:51:02.292Z</time>
      </trkpt>
      <trkpt lat="42.84815" lon="43.16165">
        <ele>1480.6208</ele>
        <time>2021-08-15T22:51:07.351Z</time>
      </trkpt>
      <trkpt lat="42.84799" lon="43.16167">
        <ele>1480.385891</ele>
        <time>2021-08-15T22:51:12.954Z</time>
      </trkpt>
      <trkpt lat="42.84759" lon="43.16139">
        <ele>1479.744428</ele>
        <time>2021-08-15T22:51:28.361Z</time>
      </trkpt>
      <trkpt lat="42.84733" lon="43.16098">
        <ele>1479.057869</ele>
        <time>2021-08-15T22:51:42.083Z</time>
      </trkpt>
      <trkpt lat="42.84704" lon="43.16081">
        <ele>1478.468817</ele>
        <time>2021-08-15T22:51:52.641Z</time>
      </trkpt>
      <trkpt lat="42.84681" lon="43.1607">
        <ele>1478.01401</ele>
        <time>2021-08-15T22:52:00.685Z</time>
      </trkpt>
      <trkpt lat="42.84662" lon="43.16073">
        <ele>1477.650992</ele>
        <time>2021-08-15T22:52:07.133Z</time>
      </trkpt>
      <trkpt lat="42.84627" lon="43.16068">
        <ele>1476.998421</ele>
        <time>2021-08-15T22:52:18.358Z</time>
      </trkpt>
      <trkpt lat="42.84586" lon="43.16051">
        <ele>1476.195573</ele>
        <time>2021-08-15T22:52:31.864Z</time>
      </trkpt>
      <trkpt lat="42.84574" lon="43.16041">
        <ele>1475.829784</ele>
        <time>2021-08-15T22:52:36.185Z</time>
      </trkpt>
      <trkpt lat="42.84547" lon="43.15995">
        <ele>1474.667124</ele>
        <time>2021-08-15T22:52:49.802Z</time>
      </trkpt>
      <trkpt lat="42.84524" lon="43.1598">
        <ele>1474.007843</ele>
        <time>2021-08-15T22:52:57.582Z</time>
      </trkpt>
      <trkpt lat="42.84504" lon="43.15981">
        <ele>1473.462351</ele>
        <time>2021-08-15T22:53:04.034Z</time>
      </trkpt>
      <trkpt lat="42.84473" lon="43.15993">
        <ele>1472.599499</ele>
        <time>2021-08-15T22:53:14.291Z</time>
      </trkpt>
      <trkpt lat="42.84462" lon="43.15991">
        <ele>1472.309303</ele>
        <time>2021-08-15T22:53:17.761Z</time>
      </trkpt>
      <trkpt lat="42.84413" lon="43.16011">
        <ele>1471.061871</ele>
        <time>2021-08-15T22:53:34.050Z</time>
      </trkpt>
      <trkpt lat="42.84393" lon="43.15992">
        <ele>1470.597018</ele>
        <time>2021-08-15T22:53:41.737Z</time>
      </trkpt>
      <trkpt lat="42.8435" lon="43.15973">
        <ele>1469.72857</ele>
        <time>2021-08-15T22:53:56.203Z</time>
      </trkpt>
      <trkpt lat="42.84248" lon="43.15898">
        <ele>1467.585914</ele>
        <time>2021-08-15T22:54:35.014Z</time>
      </trkpt>
      <trkpt lat="42.84206" lon="43.15901">
        <ele>1466.938088</ele>
        <time>2021-08-15T22:54:49.145Z</time>
      </trkpt>
      <trkpt lat="42.8413" lon="43.15924">
        <ele>1465.735159</ele>
        <time>2021-08-15T22:55:14.989Z</time>
      </trkpt>
      <trkpt lat="42.84066" lon="43.1593">
        <ele>1464.682099</ele>
        <time>2021-08-15T22:55:36.527Z</time>
      </trkpt>
      <trkpt lat="42.8402" lon="43.1595">
        <ele>1463.847423</ele>
        <time>2021-08-15T22:55:52.398Z</time>
      </trkpt>
      <trkpt lat="42.83985" lon="43.15953">
        <ele>1463.23686</ele>
        <time>2021-08-15T22:56:04.029Z</time>
      </trkpt>
      <trkpt lat="42.83899" lon="43.15935">
        <ele>1461.601649</ele>
        <time>2021-08-15T22:56:32.503Z</time>
      </trkpt>
      <trkpt lat="42.83873" lon="43.15935">
        <ele>1460.938406</ele>
        <time>2021-08-15T22:56:40.941Z</time>
      </trkpt>
      <trkpt lat="42.83847" lon="43.15951">
        <ele>1460.212419</ele>
        <time>2021-08-15T22:56:50.147Z</time>
      </trkpt>
      <trkpt lat="42.83817" lon="43.15957">
        <ele>1459.436808</ele>
        <time>2021-08-15T22:56:59.803Z</time>
      </trkpt>
      <trkpt lat="42.83784" lon="43.15975">
        <ele>1458.527704</ele>
        <time>2021-08-15T22:57:10.890Z</time>
      </trkpt>
      <trkpt lat="42.83745" lon="43.15985">
        <ele>1457.507338</ele>
        <time>2021-08-15T22:57:23.218Z</time>
      </trkpt>
      <trkpt lat="42.83701" lon="43.15996">
        <ele>1455.925993</ele>
        <time>2021-08-15T22:57:36.779Z</time>
      </trkpt>
      <trkpt lat="42.83676" lon="43.15995">
        <ele>1455.014469</ele>
        <time>2021-08-15T22:57:44.442Z</time>
      </trkpt>
      <trkpt lat="42.83641" lon="43.15981">
        <ele>1453.693253</ele>
        <time>2021-08-15T22:57:55.372Z</time>
      </trkpt>
      <trkpt lat="42.83507" lon="43.16021">
        <ele>1449.075181</ele>
        <time>2021-08-15T22:58:36.882Z</time>
      </trkpt>
      <trkpt lat="42.83482" lon="43.16019">
        <ele>1448.323173</ele>
        <time>2021-08-15T22:58:44.538Z</time>
      </trkpt>
      <trkpt lat="42.83465" lon="43.16004">
        <ele>1447.685147</ele>
        <time>2021-08-15T22:58:51.095Z</time>
      </trkpt>
      <trkpt lat="42.83444" lon="43.15996">
        <ele>1447.036</ele>
        <time>2021-08-15T22:58:57.753Z</time>
      </trkpt>
      <trkpt lat="42.83406" lon="43.15997">
        <ele>1445.859028</ele>
        <time>2021-08-15T22:59:09.813Z</time>
      </trkpt>
      <trkpt lat="42.83371" lon="43.16014">
        <ele>1444.715809</ele>
        <time>2021-08-15T22:59:21.422Z</time>
      </trkpt>
      <trkpt lat="42.83278" lon="43.15992">
        <ele>1441.80981</ele>
        <time>2021-08-15T22:59:50.688Z</time>
      </trkpt>
      <trkpt lat="42.83248" lon="43.1601">
        <ele>1440.789583</ele>
        <time>2021-08-15T23:00:00.817Z</time>
      </trkpt>
      <trkpt lat="42.83238" lon="43.16009">
        <ele>1440.480848</ele>
        <time>2021-08-15T23:00:03.875Z</time>
      </trkpt>
      <trkpt lat="42.83163" lon="43.15977">
        <ele>1438.015392</ele>
        <time>2021-08-15T23:00:27.620Z</time>
      </trkpt>
      <trkpt lat="42.83045" lon="43.15961">
        <ele>1434.294978</ele>
        <time>2021-08-15T23:01:04.066Z</time>
      </trkpt>
      <trkpt lat="42.83004" lon="43.15946">
        <ele>1433.270151</ele>
        <time>2021-08-15T23:01:17.618Z</time>
      </trkpt>
      <trkpt lat="42.82945" lon="43.15887">
        <ele>1431.524369</ele>
        <time>2021-08-15T23:01:41.358Z</time>
      </trkpt>
      <trkpt lat="42.82858" lon="43.15844">
        <ele>1429.089021</ele>
        <time>2021-08-15T23:02:11.258Z</time>
      </trkpt>
      <trkpt lat="42.82752" lon="43.15817">
        <ele>1425.616313</ele>
        <time>2021-08-15T23:02:44.204Z</time>
      </trkpt>
      <trkpt lat="42.82707" lon="43.15817">
        <ele>1424.167127</ele>
        <time>2021-08-15T23:02:57.631Z</time>
      </trkpt>
      <trkpt lat="42.82673" lon="43.15831">
        <ele>1422.922893</ele>
        <time>2021-08-15T23:03:08.268Z</time>
      </trkpt>
      <trkpt lat="42.82618" lon="43.15829">
        <ele>1421.038875</ele>
        <time>2021-08-15T23:03:24.376Z</time>
      </trkpt>
      <trkpt lat="42.82438" lon="43.1568">
        <ele>1414.840704</ele>
        <time>2021-08-15T23:04:29.896Z</time>
      </trkpt>
      <trkpt lat="42.82334" lon="43.15628">
        <ele>1412.566341</ele>
        <time>2021-08-15T23:05:06.578Z</time>
      </trkpt>
      <trkpt lat="42.82276" lon="43.15538">
        <ele>1411.258441</ele>
        <time>2021-08-15T23:05:36.263Z</time>
      </trkpt>
      <trkpt lat="42.82185" lon="43.15472">
        <ele>1409.846543</ele>
        <time>2021-08-15T23:06:10.594Z</time>
      </trkpt>
      <trkpt lat="42.82135" lon="43.15428">
        <ele>1409.076446</ele>
        <time>2021-08-15T23:06:30.720Z</time>
      </trkpt>
      <trkpt lat="42.82107" lon="43.15415">
        <ele>1408.6912</ele>
        <time>2021-08-15T23:06:40.770Z</time>
      </trkpt>
      <trkpt lat="42.82094" lon="43.15395">
        <ele>1408.44218</ele>
        <time>2021-08-15T23:06:47.525Z</time>
      </trkpt>
      <trkpt lat="42.82069" lon="43.1535">
        <ele>1408.076006</ele>
        <time>2021-08-15T23:07:01.914Z</time>
      </trkpt>
      <trkpt lat="42.82013" lon="43.1534">
        <ele>1407.63856</ele>
        <time>2021-08-15T23:07:21.680Z</time>
      </trkpt>
      <trkpt lat="42.81962" lon="43.15318">
        <ele>1407.221583</ele>
        <time>2021-08-15T23:07:40.669Z</time>
      </trkpt>
      <trkpt lat="42.81938" lon="43.15274">
        <ele>1406.896401</ele>
        <time>2021-08-15T23:07:54.860Z</time>
      </trkpt>
      <trkpt lat="42.8193" lon="43.15208">
        <ele>1406.296855</ele>
        <time>2021-08-15T23:08:11.975Z</time>
      </trkpt>
      <trkpt lat="42.81928" lon="43.15189">
        <ele>1406.124001</ele>
        <time>2021-08-15T23:08:16.795Z</time>
      </trkpt>
      <trkpt lat="42.8195" lon="43.15141">
        <ele>1405.613526</ele>
        <time>2021-08-15T23:08:31.011Z</time>
      </trkpt>
      <trkpt lat="42.81983" lon="43.15102">
        <ele>1405.078248</ele>
        <time>2021-08-15T23:08:45.677Z</time>
      </trkpt>
      <trkpt lat="42.82024" lon="43.14983">
        <ele>1403.1917</ele>
        <time>2021-08-15T23:09:17.232Z</time>
      </trkpt>
      <trkpt lat="42.82038" lon="43.14896">
        <ele>1401.721827</ele>
        <time>2021-08-15T23:09:38.043Z</time>
      </trkpt>
      <trkpt lat="42.82068" lon="43.14618">
        <ele>1396.734201</ele>
        <time>2021-08-15T23:10:43.256Z</time>
      </trkpt>
      <trkpt lat="42.8207" lon="43.14543">
        <ele>1395.891818</ele>
        <time>2021-08-15T23:11:01.193Z</time>
      </trkpt>
      <trkpt lat="42.82019" lon="43.14471">
        <ele>1395.181969</ele>
        <time>2021-08-15T23:11:25.996Z</time>
      </trkpt>
      <trkpt lat="42.82003" lon="43.14426">
        <ele>1394.829937</ele>
        <time>2021-08-15T23:11:39.030Z</time>
      </trkpt>
      <trkpt lat="42.82003" lon="43.14352">
        <ele>1394.625954</ele>
        <time>2021-08-15T23:11:59.845Z</time>
      </trkpt>
      <trkpt lat="42.82017" lon="43.14288">
        <ele>1395.006281</ele>
        <time>2021-08-15T23:12:19.860Z</time>
      </trkpt>
      <trkpt lat="42.82054" lon="43.14232">
        <ele>1395.431599</ele>
        <time>2021-08-15T23:12:43.473Z</time>
      </trkpt>
      <trkpt lat="42.82181" lon="43.14002">
        <ele>1396.213541</ele>
        <time>2021-08-15T23:14:10.872Z</time>
      </trkpt>
      <trkpt lat="42.82238" lon="43.13921">
        <ele>1394.338605</ele>
        <time>2021-08-15T23:14:37.667Z</time>
      </trkpt>
      <trkpt lat="42.82307" lon="43.13698">
        <ele>1388.420541</ele>
        <time>2021-08-15T23:15:29.945Z</time>
      </trkpt>
      <trkpt lat="42.82314" lon="43.13633">
        <ele>1386.86351</ele>
        <time>2021-08-15T23:15:44.466Z</time>
      </trkpt>
      <trkpt lat="42.8234" lon="43.13571">
        <ele>1385.17487</ele>
        <time>2021-08-15T23:16:00.991Z</time>
      </trkpt>
      <trkpt lat="42.82386" lon="43.13545">
        <ele>1384.208347</ele>
        <time>2021-08-15T23:16:17.639Z</time>
      </trkpt>
      <trkpt lat="42.82388" lon="43.13488">
        <ele>1383.941677</ele>
        <time>2021-08-15T23:16:32.510Z</time>
      </trkpt>
      <trkpt lat="42.82412" lon="43.13442">
        <ele>1383.679636</ele>
        <time>2021-08-15T23:16:47.760Z</time>
      </trkpt>
      <trkpt lat="42.82444" lon="43.13312">
        <ele>1382.78994</ele>
        <time>2021-08-15T23:17:24.672Z</time>
      </trkpt>
      <trkpt lat="42.82486" lon="43.13216">
        <ele>1381.542388</ele>
        <time>2021-08-15T23:17:52.856Z</time>
      </trkpt>
      <trkpt lat="42.82517" lon="43.13111">
        <ele>1379.982547</ele>
        <time>2021-08-15T23:18:19.268Z</time>
      </trkpt>
      <trkpt lat="42.82521" lon="43.13066">
        <ele>1378.764879</ele>
        <time>2021-08-15T23:18:29.505Z</time>
      </trkpt>
      <trkpt lat="42.82503" lon="43.13025">
        <ele>1377.474669</ele>
        <time>2021-08-15T23:18:40.168Z</time>
      </trkpt>
      <trkpt lat="42.82501" lon="43.12987">
        <ele>1376.456692</ele>
        <time>2021-08-15T23:18:48.507Z</time>
      </trkpt>
      <trkpt lat="42.82508" lon="43.12939">
        <ele>1375.160423</ele>
        <time>2021-08-15T23:18:59.108Z</time>
      </trkpt>
      <trkpt lat="42.82523" lon="43.12907">
        <ele>1374.145983</ele>
        <time>2021-08-15T23:19:07.365Z</time>
      </trkpt>
      <trkpt lat="42.82524" lon="43.1289">
        <ele>1373.696921</ele>
        <time>2021-08-15T23:19:11.112Z</time>
      </trkpt>
      <trkpt lat="42.82513" lon="43.12863">
        <ele>1372.8926</ele>
        <time>2021-08-15T23:19:17.860Z</time>
      </trkpt>
      <trkpt lat="42.82527" lon="43.12782">
        <ele>1370.746471</ele>
        <time>2021-08-15T23:19:36.003Z</time>
      </trkpt>
      <trkpt lat="42.82524" lon="43.12764">
        <ele>1370.271342</ele>
        <time>2021-08-15T23:19:40.073Z</time>
      </trkpt>
      <trkpt lat="42.82458" lon="43.12625">
        <ele>1366.749394</ele>
        <time>2021-08-15T23:20:18.151Z</time>
      </trkpt>
      <trkpt lat="42.82431" lon="43.12576">
        <ele>1365.93114</ele>
        <time>2021-08-15T23:20:32.838Z</time>
      </trkpt>
      <trkpt lat="42.82392" lon="43.12526">
        <ele>1364.95371</ele>
        <time>2021-08-15T23:20:50.647Z</time>
      </trkpt>
      <trkpt lat="42.82363" lon="43.12519">
        <ele>1364.4063</ele>
        <time>2021-08-15T23:21:00.734Z</time>
      </trkpt>
      <trkpt lat="42.82341" lon="43.12505">
        <ele>1364.02063</ele>
        <time>2021-08-15T23:21:09.239Z</time>
      </trkpt>
      <trkpt lat="42.82275" lon="43.1248">
        <ele>1363.027408</ele>
        <time>2021-08-15T23:21:32.622Z</time>
      </trkpt>
      <trkpt lat="42.82223" lon="43.12432">
        <ele>1362.118935</ele>
        <time>2021-08-15T23:21:53.548Z</time>
      </trkpt>
      <trkpt lat="42.82177" lon="43.12378">
        <ele>1361.052064</ele>
        <time>2021-08-15T23:22:13.357Z</time>
      </trkpt>
      <trkpt lat="42.82163" lon="43.12345">
        <ele>1360.478849</ele>
        <time>2021-08-15T23:22:22.326Z</time>
      </trkpt>
      <trkpt lat="42.82134" lon="43.123">
        <ele>1359.57388</ele>
        <time>2021-08-15T23:22:36.501Z</time>
      </trkpt>
      <trkpt lat="42.82098" lon="43.12279">
        <ele>1358.775487</ele>
        <time>2021-08-15T23:22:49.104Z</time>
      </trkpt>
      <trkpt lat="42.82069" lon="43.12246">
        <ele>1357.999443</ele>
        <time>2021-08-15T23:23:01.468Z</time>
      </trkpt>
      <trkpt lat="42.82016" lon="43.1221">
        <ele>1357.158126</ele>
        <time>2021-08-15T23:23:20.911Z</time>
      </trkpt>
      <trkpt lat="42.81977" lon="43.12147">
        <ele>1356.311139</ele>
        <time>2021-08-15T23:23:41.023Z</time>
      </trkpt>
      <trkpt lat="42.8194" lon="43.12008">
        <ele>1354.954362</ele>
        <time>2021-08-15T23:24:19.160Z</time>
      </trkpt>
      <trkpt lat="42.8184" lon="43.11812">
        <ele>1352.990557</ele>
        <time>2021-08-15T23:25:19.281Z</time>
      </trkpt>
      <trkpt lat="42.81793" lon="43.11765">
        <ele>1352.157188</ele>
        <time>2021-08-15T23:25:38.770Z</time>
      </trkpt>
      <trkpt lat="42.81702" lon="43.11714">
        <ele>1350.845223</ele>
        <time>2021-08-15T23:26:11.339Z</time>
      </trkpt>
      <trkpt lat="42.81653" lon="43.11657">
        <ele>1350.215759</ele>
        <time>2021-08-15T23:26:33.173Z</time>
      </trkpt>
      <trkpt lat="42.81626" lon="43.1164">
        <ele>1349.919662</ele>
        <time>2021-08-15T23:26:43.688Z</time>
      </trkpt>
      <trkpt lat="42.81557" lon="43.11625">
        <ele>1349.239228</ele>
        <time>2021-08-15T23:27:08.363Z</time>
      </trkpt>
      <trkpt lat="42.81482" lon="43.1158">
        <ele>1348.506485</ele>
        <time>2021-08-15T23:27:37.861Z</time>
      </trkpt>
      <trkpt lat="42.81377" lon="43.11485">
        <ele>1346.997517</ele>
        <time>2021-08-15T23:28:20.653Z</time>
      </trkpt>
      <trkpt lat="42.81308" lon="43.11414">
        <ele>1345.131141</ele>
        <time>2021-08-15T23:28:48.608Z</time>
      </trkpt>
      <trkpt lat="42.81286" lon="43.11387">
        <ele>1344.495725</ele>
        <time>2021-08-15T23:28:58.019Z</time>
      </trkpt>
      <trkpt lat="42.81254" lon="43.11328">
        <ele>1343.111624</ele>
        <time>2021-08-15T23:29:15.084Z</time>
      </trkpt>
      <trkpt lat="42.81234" lon="43.11313">
        <ele>1342.401974</ele>
        <time>2021-08-15T23:29:21.921Z</time>
      </trkpt>
      <trkpt lat="42.81228" lon="43.11297">
        <ele>1341.956664</ele>
        <time>2021-08-15T23:29:26.295Z</time>
      </trkpt>
      <trkpt lat="42.81226" lon="43.11276">
        <ele>1341.47222</ele>
        <time>2021-08-15T23:29:30.919Z</time>
      </trkpt>
      <trkpt lat="42.81233" lon="43.11246">
        <ele>1340.720825</ele>
        <time>2021-08-15T23:29:38.185Z</time>
      </trkpt>
      <trkpt lat="42.8123" lon="43.11234">
        <ele>1340.433174</ele>
        <time>2021-08-15T23:29:40.898Z</time>
      </trkpt>
      <trkpt lat="42.81201" lon="43.11215">
        <ele>1339.397233</ele>
        <time>2021-08-15T23:29:50.731Z</time>
      </trkpt>
      <trkpt lat="42.81181" lon="43.11187">
        <ele>1338.470378</ele>
        <time>2021-08-15T23:29:59.517Z</time>
      </trkpt>
      <trkpt lat="42.81125" lon="43.11082">
        <ele>1334.882809</ele>
        <time>2021-08-15T23:30:28.136Z</time>
      </trkpt>
      <trkpt lat="42.81074" lon="43.11093">
        <ele>1332.869593</ele>
        <time>2021-08-15T23:30:43.562Z</time>
      </trkpt>
      <trkpt lat="42.81025" lon="43.1108">
        <ele>1330.981822</ele>
        <time>2021-08-15T23:30:58.316Z</time>
      </trkpt>
      <trkpt lat="42.81011" lon="43.1107">
        <ele>1330.507843</ele>
        <time>2021-08-15T23:31:03.015Z</time>
      </trkpt>
      <trkpt lat="42.80935" lon="43.10986">
        <ele>1327.543103</ele>
        <time>2021-08-15T23:31:33.235Z</time>
      </trkpt>
      <trkpt lat="42.80905" lon="43.10932">
        <ele>1326.055975</ele>
        <time>2021-08-15T23:31:48.785Z</time>
      </trkpt>
      <trkpt lat="42.80876" lon="43.1084">
        <ele>1324.937373</ele>
        <time>2021-08-15T23:32:12.698Z</time>
      </trkpt>
      <trkpt lat="42.80854" lon="43.1081">
        <ele>1324.563353</ele>
        <time>2021-08-15T23:32:23.311Z</time>
      </trkpt>
      <trkpt lat="42.80796" lon="43.10769">
        <ele>1323.778315</ele>
        <time>2021-08-15T23:32:46.432Z</time>
      </trkpt>
      <trkpt lat="42.80746" lon="43.10745">
        <ele>1323.537884</ele>
        <time>2021-08-15T23:33:05.924Z</time>
      </trkpt>
      <trkpt lat="42.80738" lon="43.10733">
        <ele>1323.549378</ele>
        <time>2021-08-15T23:33:10.387Z</time>
      </trkpt>
      <trkpt lat="42.80729" lon="43.10718">
        <ele>1323.563557</ele>
        <time>2021-08-15T23:33:15.681Z</time>
      </trkpt>
      <trkpt lat="42.80704" lon="43.10616">
        <ele>1323.641533</ele>
        <time>2021-08-15T23:33:46.531Z</time>
      </trkpt>
      <trkpt lat="42.8067" lon="43.10568">
        <ele>1323.630352</ele>
        <time>2021-08-15T23:34:05.758Z</time>
      </trkpt>
      <trkpt lat="42.80664" lon="43.10547">
        <ele>1323.413153</ele>
        <time>2021-08-15T23:34:11.856Z</time>
      </trkpt>
      <trkpt lat="42.80659" lon="43.10501">
        <ele>1322.968666</ele>
        <time>2021-08-15T23:34:24.105Z</time>
      </trkpt>
      <trkpt lat="42.80636" lon="43.1037">
        <ele>1321.687056</ele>
        <time>2021-08-15T23:34:56.839Z</time>
      </trkpt>
      <trkpt lat="42.80628" lon="43.10346">
        <ele>1321.433041</ele>
        <time>2021-08-15T23:35:03.081Z</time>
      </trkpt>
      <trkpt lat="42.80566" lon="43.10259">
        <ele>1319.999657</ele>
        <time>2021-08-15T23:35:31.668Z</time>
      </trkpt>
      <trkpt lat="42.80541" lon="43.10196">
        <ele>1319.135855</ele>
        <time>2021-08-15T23:35:49.002Z</time>
      </trkpt>
      <trkpt lat="42.80501" lon="43.1013">
        <ele>1318.451645</ele>
        <time>2021-08-15T23:36:10.528Z</time>
      </trkpt>
      <trkpt lat="42.80486" lon="43.10114">
        <ele>1318.505316</ele>
        <time>2021-08-15T23:36:17.809Z</time>
      </trkpt>
      <trkpt lat="42.80419" lon="43.10067">
        <ele>1318.706479</ele>
        <time>2021-08-15T23:36:47.579Z</time>
      </trkpt>
      <trkpt lat="42.80347" lon="43.10032">
        <ele>1318.947632</ele>
        <time>2021-08-15T23:37:18.633Z</time>
      </trkpt>
      <trkpt lat="42.80327" lon="43.1003">
        <ele>1319.087998</ele>
        <time>2021-08-15T23:37:27.142Z</time>
      </trkpt>
      <trkpt lat="42.80308" lon="43.10016">
        <ele>1319.239975</ele>
        <time>2021-08-15T23:37:36.152Z</time>
      </trkpt>
      <trkpt lat="42.80302" lon="43.0996">
        <ele>1319.523531</ele>
        <time>2021-08-15T23:37:53.098Z</time>
      </trkpt>
      <trkpt lat="42.80293" lon="43.09927">
        <ele>1319.695639</ele>
        <time>2021-08-15T23:38:03.063Z</time>
      </trkpt>
      <trkpt lat="42.80224" lon="43.09792">
        <ele>1320.636667</ele>
        <time>2021-08-15T23:38:52.018Z</time>
      </trkpt>
      <trkpt lat="42.80188" lon="43.09746">
        <ele>1321.070058</ele>
        <time>2021-08-15T23:39:12.489Z</time>
      </trkpt>
      <trkpt lat="42.80184" lon="43.09732">
        <ele>1321.166033</ele>
        <time>2021-08-15T23:39:17.208Z</time>
      </trkpt>
      <trkpt lat="42.80186" lon="43.097">
        <ele>1321.37239</ele>
        <time>2021-08-15T23:39:27.557Z</time>
      </trkpt>
      <trkpt lat="42.80192" lon="43.09664">
        <ele>1321.609989</ele>
        <time>2021-08-15T23:39:39.306Z</time>
      </trkpt>
      <trkpt lat="42.80208" lon="43.09624">
        <ele>1321.715421</ele>
        <time>2021-08-15T23:39:53.414Z</time>
      </trkpt>
      <trkpt lat="42.8021" lon="43.09607">
        <ele>1321.72708</ele>
        <time>2021-08-15T23:39:58.516Z</time>
      </trkpt>
      <trkpt lat="42.80195" lon="43.09557">
        <ele>1321.763126</ele>
        <time>2021-08-15T23:40:13.941Z</time>
      </trkpt>
      <trkpt lat="42.80196" lon="43.09501">
        <ele>1321.801341</ele>
        <time>2021-08-15T23:40:29.483Z</time>
      </trkpt>
      <trkpt lat="42.80185" lon="43.09428">
        <ele>1321.851584</ele>
        <time>2021-08-15T23:40:48.826Z</time>
      </trkpt>
      <trkpt lat="42.80185" lon="43.09382">
        <ele>1321.765607</ele>
        <time>2021-08-15T23:41:00.542Z</time>
      </trkpt>
      <trkpt lat="42.80149" lon="43.09295">
        <ele>1321.493225</ele>
        <time>2021-08-15T23:41:25.988Z</time>
      </trkpt>
      <trkpt lat="42.80138" lon="43.0925">
        <ele>1321.364162</ele>
        <time>2021-08-15T23:41:38.352Z</time>
      </trkpt>
      <trkpt lat="42.80145" lon="43.09206">
        <ele>1321.240869</ele>
        <time>2021-08-15T23:41:50.725Z</time>
      </trkpt>
      <trkpt lat="42.8013" lon="43.09158">
        <ele>1321.529114</ele>
        <time>2021-08-15T23:42:06.435Z</time>
      </trkpt>
      <trkpt lat="42.80125" lon="43.09107">
        <ele>1322.033285</ele>
        <time>2021-08-15T23:42:22.872Z</time>
      </trkpt>
      <trkpt lat="42.80113" lon="43.09052">
        <ele>1322.603203</ele>
        <time>2021-08-15T23:42:42.731Z</time>
      </trkpt>
      <trkpt lat="42.80113" lon="43.09029">
        <ele>1322.829841</ele>
        <time>2021-08-15T23:42:50.938Z</time>
      </trkpt>
      <trkpt lat="42.80133" lon="43.08923">
        <ele>1323.545057</ele>
        <time>2021-08-15T23:43:27.456Z</time>
      </trkpt>
      <trkpt lat="42.8013" lon="43.08905">
        <ele>1323.509877</ele>
        <time>2021-08-15T23:43:32.795Z</time>
      </trkpt>
      <trkpt lat="42.80121" lon="43.08885">
        <ele>1323.462604</ele>
        <time>2021-08-15T23:43:39.792Z</time>
      </trkpt>
      <trkpt lat="42.80118" lon="43.0882">
        <ele>1323.335641</ele>
        <time>2021-08-15T23:43:57.309Z</time>
      </trkpt>
      <trkpt lat="42.80103" lon="43.08781">
        <ele>1323.249475</ele>
        <time>2021-08-15T23:44:08.790Z</time>
      </trkpt>
      <trkpt lat="42.80088" lon="43.08777">
        <ele>1323.208932</ele>
        <time>2021-08-15T23:44:13.935Z</time>
      </trkpt>
      <trkpt lat="42.8008" lon="43.08768">
        <ele>1323.180068</ele>
        <time>2021-08-15T23:44:17.550Z</time>
      </trkpt>
      <trkpt lat="42.80062" lon="43.08725">
        <ele>1322.643776</ele>
        <time>2021-08-15T23:44:29.478Z</time>
      </trkpt>
      <trkpt lat="42.80052" lon="43.08716">
        <ele>1322.260085</ele>
        <time>2021-08-15T23:44:33.492Z</time>
      </trkpt>
      <trkpt lat="42.80025" lon="43.08709">
        <ele>1321.416092</ele>
        <time>2021-08-15T23:44:41.945Z</time>
      </trkpt>
      <trkpt lat="42.79985" lon="43.08688">
        <ele>1320.086012</ele>
        <time>2021-08-15T23:44:55.084Z</time>
      </trkpt>
      <trkpt lat="42.79925" lon="43.08556">
        <ele>1315.991107</ele>
        <time>2021-08-15T23:45:29.584Z</time>
      </trkpt>
      <trkpt lat="42.79916" lon="43.08544">
        <ele>1315.363606</ele>
        <time>2021-08-15T23:45:33.356Z</time>
      </trkpt>
      <trkpt lat="42.79908" lon="43.08539">
        <ele>1314.95241</ele>
        <time>2021-08-15T23:45:35.792Z</time>
      </trkpt>
      <trkpt lat="42.79893" lon="43.08542">
        <ele>1314.176612</ele>
        <time>2021-08-15T23:45:40.363Z</time>
      </trkpt>
      <trkpt lat="42.79877" lon="43.08573">
        <ele>1312.808446</ele>
        <time>2021-08-15T23:45:48.266Z</time>
      </trkpt>
      <trkpt lat="42.79847" lon="43.08597">
        <ele>1311.107174</ele>
        <time>2021-08-15T23:45:58.070Z</time>
      </trkpt>
      <trkpt lat="42.79825" lon="43.08595">
        <ele>1310.035268</ele>
        <time>2021-08-15T23:46:04.251Z</time>
      </trkpt>
      <trkpt lat="42.79762" lon="43.08566">
        <ele>1306.798315</ele>
        <time>2021-08-15T23:46:23.383Z</time>
      </trkpt>
      <trkpt lat="42.79736" lon="43.08539">
        <ele>1305.248196</ele>
        <time>2021-08-15T23:46:32.704Z</time>
      </trkpt>
      <trkpt lat="42.79713" lon="43.08468">
        <ele>1302.526365</ele>
        <time>2021-08-15T23:46:49.188Z</time>
      </trkpt>
      <trkpt lat="42.79683" lon="43.08429">
        <ele>1300.547134</ele>
        <time>2021-08-15T23:47:01.398Z</time>
      </trkpt>
      <trkpt lat="42.79675" lon="43.08393">
        <ele>1299.681396</ele>
        <time>2021-08-15T23:47:09.791Z</time>
      </trkpt>
      <trkpt lat="42.79663" lon="43.08367">
        <ele>1299.148245</ele>
        <time>2021-08-15T23:47:16.547Z</time>
      </trkpt>
      <trkpt lat="42.79661" lon="43.08347">
        <ele>1298.777627</ele>
        <time>2021-08-15T23:47:21.322Z</time>
      </trkpt>
      <trkpt lat="42.79651" lon="43.08331">
        <ele>1298.418421</ele>
        <time>2021-08-15T23:47:25.990Z</time>
      </trkpt>
      <trkpt lat="42.79637" lon="43.08325">
        <ele>1298.0558</ele>
        <time>2021-08-15T23:47:30.744Z</time>
      </trkpt>
      <trkpt lat="42.79619" lon="43.08289">
        <ele>1297.277531</ele>
        <time>2021-08-15T23:47:41.123Z</time>
      </trkpt>
      <trkpt lat="42.79539" lon="43.08206">
        <ele>1295.565359</ele>
        <time>2021-08-15T23:48:14.900Z</time>
      </trkpt>
      <trkpt lat="42.79454" lon="43.08133">
        <ele>1295.022935</ele>
        <time>2021-08-15T23:48:50.860Z</time>
      </trkpt>
      <trkpt lat="42.79437" lon="43.08103">
        <ele>1294.871334</ele>
        <time>2021-08-15T23:49:01.432Z</time>
      </trkpt>
      <trkpt lat="42.79396" lon="43.08076">
        <ele>1294.598187</ele>
        <time>2021-08-15T23:49:18.605Z</time>
      </trkpt>
      <trkpt lat="42.79394" lon="43.08063">
        <ele>1294.535689</ele>
        <time>2021-08-15T23:49:22.533Z</time>
      </trkpt>
      <trkpt lat="42.79398" lon="43.08041">
        <ele>1294.429658</ele>
        <time>2021-08-15T23:49:29.046Z</time>
      </trkpt>
      <trkpt lat="42.79422" lon="43.07977">
        <ele>1294.096889</ele>
        <time>2021-08-15T23:49:48.901Z</time>
      </trkpt>
      <trkpt lat="42.79422" lon="43.07904">
        <ele>1293.759217</ele>
        <time>2021-08-15T23:50:06.794Z</time>
      </trkpt>
      <trkpt lat="42.7945" lon="43.07816">
        <ele>1292.059665</ele>
        <time>2021-08-15T23:50:29.235Z</time>
      </trkpt>
      <trkpt lat="42.79455" lon="43.07779">
        <ele>1291.256272</ele>
        <time>2021-08-15T23:50:38.040Z</time>
      </trkpt>
      <trkpt lat="42.79458" lon="43.07743">
        <ele>1290.495784</ele>
        <time>2021-08-15T23:50:46.254Z</time>
      </trkpt>
      <trkpt lat="42.79451" lon="43.07725">
        <ele>1290.064257</ele>
        <time>2021-08-15T23:50:50.717Z</time>
      </trkpt>
      <trkpt lat="42.79426" lon="43.0769">
        <ele>1289.025551</ele>
        <time>2021-08-15T23:51:01.724Z</time>
      </trkpt>
      <trkpt lat="42.79418" lon="43.07654">
        <ele>1288.228383</ele>
        <time>2021-08-15T23:51:10.305Z</time>
      </trkpt>
      <trkpt lat="42.79424" lon="43.07618">
        <ele>1287.457734</ele>
        <time>2021-08-15T23:51:18.559Z</time>
      </trkpt>
      <trkpt lat="42.79435" lon="43.07587">
        <ele>1286.747567</ele>
        <time>2021-08-15T23:51:26.080Z</time>
      </trkpt>
      <trkpt lat="42.79456" lon="43.07552">
        <ele>1285.787824</ele>
        <time>2021-08-15T23:51:36.215Z</time>
      </trkpt>
      <trkpt lat="42.79472" lon="43.07513">
        <ele>1284.855862</ele>
        <time>2021-08-15T23:51:46.671Z</time>
      </trkpt>
      <trkpt lat="42.79471" lon="43.07399">
        <ele>1282.895782</ele>
        <time>2021-08-15T23:52:13.977Z</time>
      </trkpt>
      <trkpt lat="42.79475" lon="43.07381">
        <ele>1282.691937</ele>
        <time>2021-08-15T23:52:18.421Z</time>
      </trkpt>
      <trkpt lat="42.79474" lon="43.07371">
        <ele>1282.579675</ele>
        <time>2021-08-15T23:52:20.854Z</time>
      </trkpt>
      <trkpt lat="42.79443" lon="43.07263">
        <ele>1281.326583</ele>
        <time>2021-08-15T23:52:49.905Z</time>
      </trkpt>
      <trkpt lat="42.7944" lon="43.07214">
        <ele>1280.790454</ele>
        <time>2021-08-15T23:53:02.347Z</time>
      </trkpt>
      <trkpt lat="42.79448" lon="43.07144">
        <ele>1280.150057</ele>
        <time>2021-08-15T23:53:19.976Z</time>
      </trkpt>
      <trkpt lat="42.79458" lon="43.07098">
        <ele>1279.728096</ele>
        <time>2021-08-15T23:53:32.236Z</time>
      </trkpt>
      <trkpt lat="42.79461" lon="43.07075">
        <ele>1279.527792</ele>
        <time>2021-08-15T23:53:38.039Z</time>
      </trkpt>
      <trkpt lat="42.79465" lon="43.07035">
        <ele>1279.172755</ele>
        <time>2021-08-15T23:53:48.217Z</time>
      </trkpt>
      <trkpt lat="42.79465" lon="43.07029">
        <ele>1279.114635</ele>
        <time>2021-08-15T23:53:49.895Z</time>
      </trkpt>
      <trkpt lat="42.79465" lon="43.06985">
        <ele>1278.727451</ele>
        <time>2021-08-15T23:54:00.900Z</time>
      </trkpt>
      <trkpt lat="42.79468" lon="43.06778">
        <ele>1276.31022</ele>
        <time>2021-08-15T23:54:51.418Z</time>
      </trkpt>
      <trkpt lat="42.79469" lon="43.06722">
        <ele>1275.650127</ele>
        <time>2021-08-15T23:55:04.936Z</time>
      </trkpt>
      <trkpt lat="42.79469" lon="43.06694">
        <ele>1275.271305</ele>
        <time>2021-08-15T23:55:11.937Z</time>
      </trkpt>
      <trkpt lat="42.79467" lon="43.06572">
        <ele>1273.642848</ele>
        <time>2021-08-15T23:55:41.528Z</time>
      </trkpt>
      <trkpt lat="42.79468" lon="43.06556">
        <ele>1273.425919</ele>
        <time>2021-08-15T23:55:45.373Z</time>
      </trkpt>
      <trkpt lat="42.79468" lon="43.06542">
        <ele>1273.245127</ele>
        <time>2021-08-15T23:55:48.742Z</time>
      </trkpt>
      <trkpt lat="42.79468" lon="43.06514">
        <ele>1272.863996</ele>
        <time>2021-08-15T23:55:55.446Z</time>
      </trkpt>
      <trkpt lat="42.79467" lon="43.06484">
        <ele>1272.461568</ele>
        <time>2021-08-15T23:56:02.759Z</time>
      </trkpt>
      <trkpt lat="42.79467" lon="43.06459">
        <ele>1272.085508</ele>
        <time>2021-08-15T23:56:08.604Z</time>
      </trkpt>
      <trkpt lat="42.79467" lon="43.06443">
        <ele>1271.827651</ele>
        <time>2021-08-15T23:56:12.476Z</time>
      </trkpt>
      <trkpt lat="42.79467" lon="43.06422">
        <ele>1271.465661</ele>
        <time>2021-08-15T23:56:17.579Z</time>
      </trkpt>
      <trkpt lat="42.79404" lon="43.06102">
        <ele>1265.740972</ele>
        <time>2021-08-15T23:57:35.541Z</time>
      </trkpt>
      <trkpt lat="42.79371" lon="43.05788">
        <ele>1259.792903</ele>
        <time>2021-08-15T23:58:48.937Z</time>
      </trkpt>
      <trkpt lat="42.79371" lon="43.05739">
        <ele>1258.962597</ele>
        <time>2021-08-15T23:59:00.450Z</time>
      </trkpt>
      <trkpt lat="42.79371" lon="43.05717">
        <ele>1258.68829</ele>
        <time>2021-08-15T23:59:05.743Z</time>
      </trkpt>
      <trkpt lat="42.79361" lon="43.0563">
        <ele>1257.606627</ele>
        <time>2021-08-15T23:59:26.874Z</time>
      </trkpt>
      <trkpt lat="42.79352" lon="43.05543">
        <ele>1256.522074</ele>
        <time>2021-08-15T23:59:48.480Z</time>
      </trkpt>
      <trkpt lat="42.79316" lon="43.05346">
        <ele>1255.592108</ele>
        <time>2021-08-16T00:00:40.806Z</time>
      </trkpt>
      <trkpt lat="42.79304" lon="43.05303">
        <ele>1255.44986</ele>
        <time>2021-08-16T00:00:53.271Z</time>
      </trkpt>
      <trkpt lat="42.79302" lon="43.05237">
        <ele>1255.822936</ele>
        <time>2021-08-16T00:01:12.313Z</time>
      </trkpt>
      <trkpt lat="42.79293" lon="43.05195">
        <ele>1256.372285</ele>
        <time>2021-08-16T00:01:26.024Z</time>
      </trkpt>
      <trkpt lat="42.79285" lon="43.05164">
        <ele>1256.791228</ele>
        <time>2021-08-16T00:01:36.933Z</time>
      </trkpt>
      <trkpt lat="42.79285" lon="43.05135">
        <ele>1257.145385</ele>
        <time>2021-08-16T00:01:46.335Z</time>
      </trkpt>
      <trkpt lat="42.79302" lon="43.04965">
        <ele>1259.754442</ele>
        <time>2021-08-16T00:02:50.773Z</time>
      </trkpt>
      <trkpt lat="42.79324" lon="43.04797">
        <ele>1262.970208</ele>
        <time>2021-08-16T00:03:54.258Z</time>
      </trkpt>
      <trkpt lat="42.79344" lon="43.04648">
        <ele>1264.333114</ele>
        <time>2021-08-16T00:04:43.847Z</time>
      </trkpt>
      <trkpt lat="42.79364" lon="43.04473">
        <ele>1265.607526</ele>
        <time>2021-08-16T00:05:34.726Z</time>
      </trkpt>
      <trkpt lat="42.7938" lon="43.04338">
        <ele>1266.354039</ele>
        <time>2021-08-16T00:06:15.101Z</time>
      </trkpt>
      <trkpt lat="42.79386" lon="43.0428">
        <ele>1266.85103</ele>
        <time>2021-08-16T00:06:33.754Z</time>
      </trkpt>
      <trkpt lat="42.79378" lon="43.04061">
        <ele>1269.396094</ele>
        <time>2021-08-16T00:07:49.362Z</time>
      </trkpt>
      <trkpt lat="42.79372" lon="43.0398">
        <ele>1269.020582</ele>
        <time>2021-08-16T00:08:13.621Z</time>
      </trkpt>
      <trkpt lat="42.79359" lon="43.03935">
        <ele>1268.792426</ele>
        <time>2021-08-16T00:08:26.640Z</time>
      </trkpt>
      <trkpt lat="42.79361" lon="43.03918">
        <ele>1268.713843</ele>
        <time>2021-08-16T00:08:30.837Z</time>
      </trkpt>
      <trkpt lat="42.79373" lon="43.03886">
        <ele>1268.54542</ele>
        <time>2021-08-16T00:08:40.091Z</time>
      </trkpt>
      <trkpt lat="42.79375" lon="43.03849">
        <ele>1268.376256</ele>
        <time>2021-08-16T00:08:48.612Z</time>
      </trkpt>
      <trkpt lat="42.79371" lon="43.03767">
        <ele>1266.720574</ele>
        <time>2021-08-16T00:09:07.405Z</time>
      </trkpt>
      <trkpt lat="42.79344" lon="43.03714">
        <ele>1265.020308</ele>
        <time>2021-08-16T00:09:21.604Z</time>
      </trkpt>
      <trkpt lat="42.79337" lon="43.03683">
        <ele>1264.164657</ele>
        <time>2021-08-16T00:09:28.577Z</time>
      </trkpt>
      <trkpt lat="42.79362" lon="43.03601">
        <ele>1261.822811</ele>
        <time>2021-08-16T00:09:47.936Z</time>
      </trkpt>
      <trkpt lat="42.79363" lon="43.03461">
        <ele>1259.472546</ele>
        <time>2021-08-16T00:10:20.214Z</time>
      </trkpt>
      <trkpt lat="42.79369" lon="43.03376">
        <ele>1258.025867</ele>
        <time>2021-08-16T00:10:41.397Z</time>
      </trkpt>
      <trkpt lat="42.79377" lon="43.03319">
        <ele>1257.388332</ele>
        <time>2021-08-16T00:10:55.903Z</time>
      </trkpt>
      <trkpt lat="42.79388" lon="43.03239">
        <ele>1256.729225</ele>
        <time>2021-08-16T00:11:16.690Z</time>
      </trkpt>
      <trkpt lat="42.79397" lon="43.0319">
        <ele>1256.324654</ele>
        <time>2021-08-16T00:11:29.471Z</time>
      </trkpt>
      <trkpt lat="42.794" lon="43.03118">
        <ele>1255.744674</ele>
        <time>2021-08-16T00:11:47.716Z</time>
      </trkpt>
      <trkpt lat="42.79392" lon="43.03051">
        <ele>1255.708776</ele>
        <time>2021-08-16T00:12:04.540Z</time>
      </trkpt>
      <trkpt lat="42.79398" lon="43.02939">
        <ele>1255.688668</ele>
        <time>2021-08-16T00:12:34.259Z</time>
      </trkpt>
      <trkpt lat="42.79392" lon="43.02878">
        <ele>1255.677692</ele>
        <time>2021-08-16T00:12:53.794Z</time>
      </trkpt>
      <trkpt lat="42.79394" lon="43.02847">
        <ele>1256.250183</ele>
        <time>2021-08-16T00:13:04.266Z</time>
      </trkpt>
      <trkpt lat="42.79391" lon="43.02788">
        <ele>1257.645577</ele>
        <time>2021-08-16T00:13:25.809Z</time>
      </trkpt>
      <trkpt lat="42.79389" lon="43.02762">
        <ele>1258.257337</ele>
        <time>2021-08-16T00:13:35.897Z</time>
      </trkpt>
      <trkpt lat="42.7939" lon="43.027">
        <ele>1259.703855</ele>
        <time>2021-08-16T00:13:53.777Z</time>
      </trkpt>
      <trkpt lat="42.79397" lon="43.02595">
        <ele>1262.672892</ele>
        <time>2021-08-16T00:14:27.950Z</time>
      </trkpt>
      <trkpt lat="42.79421" lon="43.02436">
        <ele>1268.962074</ele>
        <time>2021-08-16T00:15:24.822Z</time>
      </trkpt>
      <trkpt lat="42.79414" lon="43.02379">
        <ele>1271.310809</ele>
        <time>2021-08-16T00:15:47.700Z</time>
      </trkpt>
      <trkpt lat="42.79408" lon="43.02346">
        <ele>1272.988661</ele>
        <time>2021-08-16T00:16:01.823Z</time>
      </trkpt>
      <trkpt lat="42.79405" lon="43.02323">
        <ele>1274.185509</ele>
        <time>2021-08-16T00:16:11.799Z</time>
      </trkpt>
      <trkpt lat="42.79404" lon="43.02303">
        <ele>1275.17824</ele>
        <time>2021-08-16T00:16:19.936Z</time>
      </trkpt>
      <trkpt lat="42.79406" lon="43.02285">
        <ele>1276.062905</ele>
        <time>2021-08-16T00:16:26.074Z</time>
      </trkpt>
      <trkpt lat="42.79417" lon="43.02271">
        <ele>1277.094433</ele>
        <time>2021-08-16T00:16:36.595Z</time>
      </trkpt>
      <trkpt lat="42.79462" lon="43.02232">
        <ele>1280.701885</ele>
        <time>2021-08-16T00:17:05.305Z</time>
      </trkpt>
      <trkpt lat="42.79478" lon="43.022">
        <ele>1282.647821</ele>
        <time>2021-08-16T00:17:22.652Z</time>
      </trkpt>
      <trkpt lat="42.7949" lon="43.02165">
        <ele>1284.247958</ele>
        <time>2021-08-16T00:17:39.929Z</time>
      </trkpt>
      <trkpt lat="42.7949" lon="43.02111">
        <ele>1286.27647</ele>
        <time>2021-08-16T00:18:02.826Z</time>
      </trkpt>
      <trkpt lat="42.79482" lon="43.02041">
        <ele>1288.979991</ele>
        <time>2021-08-16T00:18:27.364Z</time>
      </trkpt>
      <trkpt lat="42.79464" lon="43.01918">
        <ele>1292.7786</ele>
        <time>2021-08-16T00:19:06.179Z</time>
      </trkpt>
      <trkpt lat="42.79432" lon="43.01708">
        <ele>1294.556345</ele>
        <time>2021-08-16T00:19:49.010Z</time>
      </trkpt>
      <trkpt lat="42.7938" lon="43.01638">
        <ele>1291.766334</ele>
        <time>2021-08-16T00:20:01.945Z</time>
      </trkpt>
      <trkpt lat="42.79322" lon="43.01515">
        <ele>1287.505099</ele>
        <time>2021-08-16T00:20:18.992Z</time>
      </trkpt>
      <trkpt lat="42.79298" lon="43.01462">
        <ele>1282.984718</ele>
        <time>2021-08-16T00:20:25.884Z</time>
      </trkpt>
      <trkpt lat="42.79275" lon="43.01417">
        <ele>1278.939619</ele>
        <time>2021-08-16T00:20:31.741Z</time>
      </trkpt>
      <trkpt lat="42.79236" lon="43.01296">
        <ele>1269.037276</ele>
        <time>2021-08-16T00:20:45.144Z</time>
      </trkpt>
      <trkpt lat="42.7922" lon="43.01248">
        <ele>1263.709558</ele>
        <time>2021-08-16T00:20:50.407Z</time>
      </trkpt>
      <trkpt lat="42.79211" lon="43.01222">
        <ele>1260.770262</ele>
        <time>2021-08-16T00:20:53.266Z</time>
      </trkpt>
      <trkpt lat="42.79186" lon="43.01179">
        <ele>1255.250576</ele>
        <time>2021-08-16T00:20:58.699Z</time>
      </trkpt>
      <trkpt lat="42.79127" lon="43.0111">
        <ele>1244.752474</ele>
        <time>2021-08-16T00:21:09.160Z</time>
      </trkpt>
      <trkpt lat="42.79095" lon="43.01058">
        <ele>1240.886444</ele>
        <time>2021-08-16T00:21:16.054Z</time>
      </trkpt>
      <trkpt lat="42.79011" lon="43.00868">
        <ele>1229.895353</ele>
        <time>2021-08-16T00:21:41.676Z</time>
      </trkpt>
      <trkpt lat="42.7901" lon="43.00763">
        <ele>1227.468984</ele>
        <time>2021-08-16T00:21:55.736Z</time>
      </trkpt>
      <trkpt lat="42.79019" lon="43.0073">
        <ele>1226.644773</ele>
        <time>2021-08-16T00:22:00.411Z</time>
      </trkpt>
      <trkpt lat="42.79034" lon="43.00703">
        <ele>1225.872268</ele>
        <time>2021-08-16T00:22:04.790Z</time>
      </trkpt>
      <trkpt lat="42.79063" lon="43.007">
        <ele>1224.848941</ele>
        <time>2021-08-16T00:22:09.956Z</time>
      </trkpt>
      <trkpt lat="42.79073" lon="43.0069">
        <ele>1224.35393</ele>
        <time>2021-08-16T00:22:12.183Z</time>
      </trkpt>
      <trkpt lat="42.79071" lon="43.00661">
        <ele>1223.544481</ele>
        <time>2021-08-16T00:22:15.708Z</time>
      </trkpt>
      <trkpt lat="42.79063" lon="43.00649">
        <ele>1223.070989</ele>
        <time>2021-08-16T00:22:17.702Z</time>
      </trkpt>
      <trkpt lat="42.79046" lon="43.00642">
        <ele>1222.376063</ele>
        <time>2021-08-16T00:22:20.589Z</time>
      </trkpt>
      <trkpt lat="42.78944" lon="43.00616">
        <ele>1218.348323</ele>
        <time>2021-08-16T00:22:37.088Z</time>
      </trkpt>
      <trkpt lat="42.7891" lon="43.00586">
        <ele>1218.197889</ele>
        <time>2021-08-16T00:22:44.325Z</time>
      </trkpt>
      <trkpt lat="42.78898" lon="43.00563">
        <ele>1218.119877</ele>
        <time>2021-08-16T00:22:47.876Z</time>
      </trkpt>
      <trkpt lat="42.78868" lon="43.00495">
        <ele>1217.903838</ele>
        <time>2021-08-16T00:23:00.597Z</time>
      </trkpt>
      <trkpt lat="42.78856" lon="43.0046">
        <ele>1217.800311</ele>
        <time>2021-08-16T00:23:09.489Z</time>
      </trkpt>
      <trkpt lat="42.78848" lon="43.00392">
        <ele>1218.236659</ele>
        <time>2021-08-16T00:23:26.594Z</time>
      </trkpt>
      <trkpt lat="42.78846" lon="43.00335">
        <ele>1219.463295</ele>
        <time>2021-08-16T00:23:46.021Z</time>
      </trkpt>
      <trkpt lat="42.78885" lon="43.0027">
        <ele>1221.269943</ele>
        <time>2021-08-16T00:24:12.369Z</time>
      </trkpt>
      <trkpt lat="42.78901" lon="43.00231">
        <ele>1222.243581</ele>
        <time>2021-08-16T00:24:23.371Z</time>
      </trkpt>
      <trkpt lat="42.78901" lon="43.00186">
        <ele>1222.788254</ele>
        <time>2021-08-16T00:24:33.621Z</time>
      </trkpt>
      <trkpt lat="42.78892" lon="43.00108">
        <ele>1221.522098</ele>
        <time>2021-08-16T00:24:47.406Z</time>
      </trkpt>
      <trkpt lat="42.78905" lon="43.00075">
        <ele>1220.924542</ele>
        <time>2021-08-16T00:24:52.459Z</time>
      </trkpt>
      <trkpt lat="42.78934" lon="43.00027">
        <ele>1219.917474</ele>
        <time>2021-08-16T00:25:00.191Z</time>
      </trkpt>
      <trkpt lat="42.78947" lon="42.99938">
        <ele>1217.167054</ele>
        <time>2021-08-16T00:25:10.692Z</time>
      </trkpt>
      <trkpt lat="42.78985" lon="42.99872">
        <ele>1212.889074</ele>
        <time>2021-08-16T00:25:19.878Z</time>
      </trkpt>
      <trkpt lat="42.79115" lon="42.9968">
        <ele>1199.846109</ele>
        <time>2021-08-16T00:25:48.206Z</time>
      </trkpt>
      <trkpt lat="42.7915" lon="42.99608">
        <ele>1195.661498</ele>
        <time>2021-08-16T00:25:57.894Z</time>
      </trkpt>
      <trkpt lat="42.79241" lon="42.99408">
        <ele>1189.272063</ele>
        <time>2021-08-16T00:26:26.747Z</time>
      </trkpt>
      <trkpt lat="42.79295" lon="42.99233">
        <ele>1187.095653</ele>
        <time>2021-08-16T00:26:54.427Z</time>
      </trkpt>
      <trkpt lat="42.79321" lon="42.99142">
        <ele>1186.223257</ele>
        <time>2021-08-16T00:27:09.404Z</time>
      </trkpt>
      <trkpt lat="42.79396" lon="42.98775">
        <ele>1181.7193</ele>
        <time>2021-08-16T00:28:01.947Z</time>
      </trkpt>
      <trkpt lat="42.79498" lon="42.98607">
        <ele>1179.383895</ele>
        <time>2021-08-16T00:28:31.657Z</time>
      </trkpt>
      <trkpt lat="42.79537" lon="42.98529">
        <ele>1178.552527</ele>
        <time>2021-08-16T00:28:45.650Z</time>
      </trkpt>
      <trkpt lat="42.79539" lon="42.98527">
        <ele>1178.529816</ele>
        <time>2021-08-16T00:28:46.008Z</time>
      </trkpt>
      <trkpt lat="42.79569" lon="42.98444">
        <ele>1178.234683</ele>
        <time>2021-08-16T00:29:00.728Z</time>
      </trkpt>
      <trkpt lat="42.79588" lon="42.98306">
        <ele>1178.146037</ele>
        <time>2021-08-16T00:29:25.213Z</time>
      </trkpt>
      <trkpt lat="42.79603" lon="42.98137">
        <ele>1177.184713</ele>
        <time>2021-08-16T00:29:51.642Z</time>
      </trkpt>
      <trkpt lat="42.79631" lon="42.98051">
        <ele>1176.4999</ele>
        <time>2021-08-16T00:30:04.909Z</time>
      </trkpt>
      <trkpt lat="42.79688" lon="42.97914">
        <ele>1174.007034</ele>
        <time>2021-08-16T00:30:25.785Z</time>
      </trkpt>
      <trkpt lat="42.79929" lon="42.97605">
        <ele>1165.010872</ele>
        <time>2021-08-16T00:31:23.950Z</time>
      </trkpt>
      <trkpt lat="42.8032" lon="42.97275">
        <ele>1150.70421</ele>
        <time>2021-08-16T00:32:42.518Z</time>
      </trkpt>
      <trkpt lat="42.80392" lon="42.97237">
        <ele>1149.083799</ele>
        <time>2021-08-16T00:32:56.142Z</time>
      </trkpt>
      <trkpt lat="42.80488" lon="42.97161">
        <ele>1146.889138</ele>
        <time>2021-08-16T00:33:16.994Z</time>
      </trkpt>
      <trkpt lat="42.80571" lon="42.97112">
        <ele>1146.234158</ele>
        <time>2021-08-16T00:33:35.179Z</time>
      </trkpt>
      <trkpt lat="42.80653" lon="42.97085">
        <ele>1145.627856</ele>
        <time>2021-08-16T00:33:52.633Z</time>
      </trkpt>
      <trkpt lat="42.80713" lon="42.97085">
        <ele>1146.323041</ele>
        <time>2021-08-16T00:34:06.633Z</time>
      </trkpt>
      <trkpt lat="42.80741" lon="42.9707">
        <ele>1146.727363</ele>
        <time>2021-08-16T00:34:15.003Z</time>
      </trkpt>
      <trkpt lat="42.80759" lon="42.97058">
        <ele>1146.993101</ele>
        <time>2021-08-16T00:34:20.805Z</time>
      </trkpt>
      <trkpt lat="42.80781" lon="42.97044">
        <ele>1147.317944</ele>
        <time>2021-08-16T00:34:28.182Z</time>
      </trkpt>
      <trkpt lat="42.8085" lon="42.96992">
        <ele>1148.898394</ele>
        <time>2021-08-16T00:34:56.279Z</time>
      </trkpt>
      <trkpt lat="42.80884" lon="42.96969">
        <ele>1150.125153</ele>
        <time>2021-08-16T00:35:11.199Z</time>
      </trkpt>
      <trkpt lat="42.80928" lon="42.96917">
        <ele>1152.000817</ele>
        <time>2021-08-16T00:35:36.426Z</time>
      </trkpt>
      <trkpt lat="42.81018" lon="42.96725">
        <ele>1155.009638</ele>
        <time>2021-08-16T00:36:35.937Z</time>
      </trkpt>
      <trkpt lat="42.81068" lon="42.96649">
        <ele>1155.577484</ele>
        <time>2021-08-16T00:36:50.922Z</time>
      </trkpt>
      <trkpt lat="42.81128" lon="42.96581">
        <ele>1153.379061</ele>
        <time>2021-08-16T00:37:04.571Z</time>
      </trkpt>
      <trkpt lat="42.81202" lon="42.96541">
        <ele>1151.139079</ele>
        <time>2021-08-16T00:37:17.754Z</time>
      </trkpt>
      <trkpt lat="42.81361" lon="42.96491">
        <ele>1147.463517</ele>
        <time>2021-08-16T00:37:46.798Z</time>
      </trkpt>
      <trkpt lat="42.81419" lon="42.96457">
        <ele>1146.578337</ele>
        <time>2021-08-16T00:37:59.586Z</time>
      </trkpt>
      <trkpt lat="42.81472" lon="42.96398">
        <ele>1146.201082</ele>
        <time>2021-08-16T00:38:14.208Z</time>
      </trkpt>
      <trkpt lat="42.81504" lon="42.96337">
        <ele>1145.898207</ele>
        <time>2021-08-16T00:38:26.235Z</time>
      </trkpt>
      <trkpt lat="42.81552" lon="42.96273">
        <ele>1145.299753</ele>
        <time>2021-08-16T00:38:40.180Z</time>
      </trkpt>
      <trkpt lat="42.81663" lon="42.96103">
        <ele>1143.235063</ele>
        <time>2021-08-16T00:39:12.615Z</time>
      </trkpt>
      <trkpt lat="42.81716" lon="42.95989">
        <ele>1141.380737</ele>
        <time>2021-08-16T00:39:30.738Z</time>
      </trkpt>
      <trkpt lat="42.81773" lon="42.95927">
        <ele>1140.144123</ele>
        <time>2021-08-16T00:39:43.988Z</time>
      </trkpt>
      <trkpt lat="42.81895" lon="42.95868">
        <ele>1138.494035</ele>
        <time>2021-08-16T00:40:08.678Z</time>
      </trkpt>
      <trkpt lat="42.81931" lon="42.95842">
        <ele>1138.137997</ele>
        <time>2021-08-16T00:40:17.111Z</time>
      </trkpt>
      <trkpt lat="42.82087" lon="42.95667">
        <ele>1138.288978</ele>
        <time>2021-08-16T00:41:06.778Z</time>
      </trkpt>
      <trkpt lat="42.82133" lon="42.95638">
        <ele>1137.918932</ele>
        <time>2021-08-16T00:41:18.341Z</time>
      </trkpt>
      <trkpt lat="42.82163" lon="42.9559">
        <ele>1137.581829</ele>
        <time>2021-08-16T00:41:27.781Z</time>
      </trkpt>
      <trkpt lat="42.82176" lon="42.95544">
        <ele>1137.315232</ele>
        <time>2021-08-16T00:41:34.795Z</time>
      </trkpt>
      <trkpt lat="42.82182" lon="42.95465">
        <ele>1135.226332</ele>
        <time>2021-08-16T00:41:45.140Z</time>
      </trkpt>
      <trkpt lat="42.8228" lon="42.95371">
        <ele>1129.848529</ele>
        <time>2021-08-16T00:42:03.998Z</time>
      </trkpt>
      <trkpt lat="42.82302" lon="42.9534">
        <ele>1128.253051</ele>
        <time>2021-08-16T00:42:08.916Z</time>
      </trkpt>
      <trkpt lat="42.82319" lon="42.95326">
        <ele>1127.173979</ele>
        <time>2021-08-16T00:42:11.918Z</time>
      </trkpt>
      <trkpt lat="42.82396" lon="42.95308">
        <ele>1122.903776</ele>
        <time>2021-08-16T00:42:23.925Z</time>
      </trkpt>
      <trkpt lat="42.82431" lon="42.95288">
        <ele>1120.878823</ele>
        <time>2021-08-16T00:42:29.729Z</time>
      </trkpt>
      <trkpt lat="42.82506" lon="42.95232">
        <ele>1118.813567</ele>
        <time>2021-08-16T00:42:43.907Z</time>
      </trkpt>
      <trkpt lat="42.82616" lon="42.95122">
        <ele>1118.093892</ele>
        <time>2021-08-16T00:43:17.342Z</time>
      </trkpt>
      <trkpt lat="42.82636" lon="42.95101">
        <ele>1118.744937</ele>
        <time>2021-08-16T00:43:26.416Z</time>
      </trkpt>
      <trkpt lat="42.82652" lon="42.95072">
        <ele>1119.439819</ele>
        <time>2021-08-16T00:43:35.698Z</time>
      </trkpt>
      <trkpt lat="42.82691" lon="42.94938">
        <ele>1122.241259</ele>
        <time>2021-08-16T00:44:17.431Z</time>
      </trkpt>
      <trkpt lat="42.8273" lon="42.94877">
        <ele>1123.423856</ele>
        <time>2021-08-16T00:44:38.355Z</time>
      </trkpt>
      <trkpt lat="42.82764" lon="42.94834">
        <ele>1124.327965</ele>
        <time>2021-08-16T00:44:53.142Z</time>
      </trkpt>
      <trkpt lat="42.828" lon="42.94774">
        <ele>1125.410574</ele>
        <time>2021-08-16T00:45:09.918Z</time>
      </trkpt>
      <trkpt lat="42.82841" lon="42.94614">
        <ele>1126.641247</ele>
        <time>2021-08-16T00:45:44.072Z</time>
      </trkpt>
      <trkpt lat="42.82886" lon="42.94522">
        <ele>1127.243375</ele>
        <time>2021-08-16T00:46:04.119Z</time>
      </trkpt>
      <trkpt lat="42.82888" lon="42.94477">
        <ele>1127.005726</ele>
        <time>2021-08-16T00:46:12.097Z</time>
      </trkpt>
      <trkpt lat="42.82845" lon="42.94236">
        <ele>1124.698318</ele>
        <time>2021-08-16T00:46:48.652Z</time>
      </trkpt>
      <trkpt lat="42.82846" lon="42.94176">
        <ele>1123.143589</ele>
        <time>2021-08-16T00:46:56.209Z</time>
      </trkpt>
      <trkpt lat="42.82862" lon="42.94036">
        <ele>1119.418668</ele>
        <time>2021-08-16T00:47:13.074Z</time>
      </trkpt>
      <trkpt lat="42.82875" lon="42.93977">
        <ele>1117.078671</ele>
        <time>2021-08-16T00:47:20.053Z</time>
      </trkpt>
      <trkpt lat="42.82898" lon="42.93906">
        <ele>1114.092316</ele>
        <time>2021-08-16T00:47:28.968Z</time>
      </trkpt>
      <trkpt lat="42.82945" lon="42.93827">
        <ele>1110.209019</ele>
        <time>2021-08-16T00:47:40.686Z</time>
      </trkpt>
      <trkpt lat="42.82971" lon="42.93759">
        <ele>1108.342395</ele>
        <time>2021-08-16T00:47:49.788Z</time>
      </trkpt>
      <trkpt lat="42.82994" lon="42.93667">
        <ele>1105.960335</ele>
        <time>2021-08-16T00:48:01.880Z</time>
      </trkpt>
      <trkpt lat="42.8311" lon="42.93412">
        <ele>1101.472515</ele>
        <time>2021-08-16T00:48:43.291Z</time>
      </trkpt>
      <trkpt lat="42.83139" lon="42.933">
        <ele>1100.112601</ele>
        <time>2021-08-16T00:48:59.986Z</time>
      </trkpt>
      <trkpt lat="42.83146" lon="42.93197">
        <ele>1098.928454</ele>
        <time>2021-08-16T00:49:14.325Z</time>
      </trkpt>
      <trkpt lat="42.83162" lon="42.9312">
        <ele>1098.252377</ele>
        <time>2021-08-16T00:49:25.467Z</time>
      </trkpt>
      <trkpt lat="42.8319" lon="42.93057">
        <ele>1097.846215</ele>
        <time>2021-08-16T00:49:35.855Z</time>
      </trkpt>
      <trkpt lat="42.83201" lon="42.93014">
        <ele>1097.590195</ele>
        <time>2021-08-16T00:49:42.682Z</time>
      </trkpt>
      <trkpt lat="42.83209" lon="42.92856">
        <ele>1097.605508</ele>
        <time>2021-08-16T00:50:09.169Z</time>
      </trkpt>
      <trkpt lat="42.83278" lon="42.92455">
        <ele>1100.938334</ele>
        <time>2021-08-16T00:51:36.600Z</time>
      </trkpt>
      <trkpt lat="42.83303" lon="42.9236">
        <ele>1101.224788</ele>
        <time>2021-08-16T00:51:55.529Z</time>
      </trkpt>
      <trkpt lat="42.83318" lon="42.9232">
        <ele>1101.332386</ele>
        <time>2021-08-16T00:52:03.353Z</time>
      </trkpt>
      <trkpt lat="42.83339" lon="42.92279">
        <ele>1101.452835</ele>
        <time>2021-08-16T00:52:11.754Z</time>
      </trkpt>
      <trkpt lat="42.83425" lon="42.92149">
        <ele>1101.027028</ele>
        <time>2021-08-16T00:52:39.436Z</time>
      </trkpt>
      <trkpt lat="42.83439" lon="42.92115">
        <ele>1100.845157</ele>
        <time>2021-08-16T00:52:45.331Z</time>
      </trkpt>
      <trkpt lat="42.83447" lon="42.92029">
        <ele>1100.4391</ele>
        <time>2021-08-16T00:52:58.063Z</time>
      </trkpt>
      <trkpt lat="42.83439" lon="42.91904">
        <ele>1098.698083</ele>
        <time>2021-08-16T00:53:15.415Z</time>
      </trkpt>
      <trkpt lat="42.83445" lon="42.91866">
        <ele>1098.158262</ele>
        <time>2021-08-16T00:53:20.588Z</time>
      </trkpt>
      <trkpt lat="42.83486" lon="42.91733">
        <ele>1095.996389</ele>
        <time>2021-08-16T00:53:39.584Z</time>
      </trkpt>
      <trkpt lat="42.83495" lon="42.91654">
        <ele>1094.696115</ele>
        <time>2021-08-16T00:53:50.100Z</time>
      </trkpt>
      <trkpt lat="42.83446" lon="42.91231">
        <ele>1089.208628</ele>
        <time>2021-08-16T00:54:48.537Z</time>
      </trkpt>
      <trkpt lat="42.83413" lon="42.91122">
        <ele>1088.343112</ele>
        <time>2021-08-16T00:55:06.045Z</time>
      </trkpt>
      <trkpt lat="42.83387" lon="42.91075">
        <ele>1087.971525</ele>
        <time>2021-08-16T00:55:15.426Z</time>
      </trkpt>
      <trkpt lat="42.83381" lon="42.91051">
        <ele>1087.919991</ele>
        <time>2021-08-16T00:55:19.472Z</time>
      </trkpt>
      <trkpt lat="42.83373" lon="42.90852">
        <ele>1087.508828</ele>
        <time>2021-08-16T00:55:51.445Z</time>
      </trkpt>
      <trkpt lat="42.83379" lon="42.90767">
        <ele>1086.597343</ele>
        <time>2021-08-16T00:56:04.257Z</time>
      </trkpt>
      <trkpt lat="42.83424" lon="42.90628">
        <ele>1084.8367</ele>
        <time>2021-08-16T00:56:25.057Z</time>
      </trkpt>
      <trkpt lat="42.83436" lon="42.90526">
        <ele>1082.452258</ele>
        <time>2021-08-16T00:56:38.089Z</time>
      </trkpt>
      <trkpt lat="42.83431" lon="42.90471">
        <ele>1081.033186</ele>
        <time>2021-08-16T00:56:45.001Z</time>
      </trkpt>
      <trkpt lat="42.83435" lon="42.90412">
        <ele>1079.539025</ele>
        <time>2021-08-16T00:56:52.169Z</time>
      </trkpt>
      <trkpt lat="42.8346" lon="42.90332">
        <ele>1077.345022</ele>
        <time>2021-08-16T00:57:02.604Z</time>
      </trkpt>
      <trkpt lat="42.83489" lon="42.9027">
        <ele>1075.512439</ele>
        <time>2021-08-16T00:57:11.468Z</time>
      </trkpt>
      <trkpt lat="42.83534" lon="42.90221">
        <ele>1073.549182</ele>
        <time>2021-08-16T00:57:21.198Z</time>
      </trkpt>
      <trkpt lat="42.83549" lon="42.90191">
        <ele>1072.639729</ele>
        <time>2021-08-16T00:57:25.925Z</time>
      </trkpt>
      <trkpt lat="42.83553" lon="42.90149">
        <ele>1072.208047</ele>
        <time>2021-08-16T00:57:31.631Z</time>
      </trkpt>
      <trkpt lat="42.83565" lon="42.90112">
        <ele>1072.074576</ele>
        <time>2021-08-16T00:57:37.410Z</time>
      </trkpt>
      <trkpt lat="42.83581" lon="42.90097">
        <ele>1071.986739</ele>
        <time>2021-08-16T00:57:41.277Z</time>
      </trkpt>
      <trkpt lat="42.83682" lon="42.90064">
        <ele>1071.524826</ele>
        <time>2021-08-16T00:58:05.544Z</time>
      </trkpt>
      <trkpt lat="42.8371" lon="42.90034">
        <ele>1071.835989</ele>
        <time>2021-08-16T00:58:15.855Z</time>
      </trkpt>
      <trkpt lat="42.83858" lon="42.89763">
        <ele>1073.846054</ele>
        <time>2021-08-16T00:59:26.186Z</time>
      </trkpt>
      <trkpt lat="42.83908" lon="42.8961">
        <ele>1073.3349</ele>
        <time>2021-08-16T00:59:51.626Z</time>
      </trkpt>
      <trkpt lat="42.83921" lon="42.89451">
        <ele>1071.055359</ele>
        <time>2021-08-16T01:00:13.062Z</time>
      </trkpt>
      <trkpt lat="42.83939" lon="42.8939">
        <ele>1069.851199</ele>
        <time>2021-08-16T01:00:21.364Z</time>
      </trkpt>
      <trkpt lat="42.83986" lon="42.89169">
        <ele>1065.626331</ele>
        <time>2021-08-16T01:00:50.129Z</time>
      </trkpt>
      <trkpt lat="42.83991" lon="42.89129">
        <ele>1066.155609</ele>
        <time>2021-08-16T01:00:56.109Z</time>
      </trkpt>
      <trkpt lat="42.83975" lon="42.89114">
        <ele>1066.505993</ele>
        <time>2021-08-16T01:01:00.427Z</time>
      </trkpt>
      <trkpt lat="42.83956" lon="42.89032">
        <ele>1067.621783</ele>
        <time>2021-08-16T01:01:20.910Z</time>
      </trkpt>
      <trkpt lat="42.83906" lon="42.88922">
        <ele>1071.376883</ele>
        <time>2021-08-16T01:02:08.692Z</time>
      </trkpt>
      <trkpt lat="42.83889" lon="42.88875">
        <ele>1073.837146</ele>
        <time>2021-08-16T01:02:31.173Z</time>
      </trkpt>
      <trkpt lat="42.83876" lon="42.88754">
        <ele>1079.706829</ele>
        <time>2021-08-16T01:03:24.065Z</time>
      </trkpt>
      <trkpt lat="42.83877" lon="42.88684">
        <ele>1081.764101</ele>
        <time>2021-08-16T01:03:50.919Z</time>
      </trkpt>
      <trkpt lat="42.83895" lon="42.88611">
        <ele>1083.717573</ele>
        <time>2021-08-16T01:04:15.445Z</time>
      </trkpt>
      <trkpt lat="42.83899" lon="42.88526">
        <ele>1085.905046</ele>
        <time>2021-08-16T01:04:35.672Z</time>
      </trkpt>
      <trkpt lat="42.83894" lon="42.88419">
        <ele>1086.163999</ele>
        <time>2021-08-16T01:04:53.741Z</time>
      </trkpt>
      <trkpt lat="42.83903" lon="42.88324">
        <ele>1085.731849</ele>
        <time>2021-08-16T01:05:07.693Z</time>
      </trkpt>
      <trkpt lat="42.83936" lon="42.88236">
        <ele>1085.106314</ele>
        <time>2021-08-16T01:05:21.418Z</time>
      </trkpt>
      <trkpt lat="42.83979" lon="42.88195">
        <ele>1084.379453</ele>
        <time>2021-08-16T01:05:31.331Z</time>
      </trkpt>
      <trkpt lat="42.83989" lon="42.88167">
        <ele>1084.062175</ele>
        <time>2021-08-16T01:05:35.848Z</time>
      </trkpt>
      <trkpt lat="42.84005" lon="42.8803">
        <ele>1082.049053</ele>
        <time>2021-08-16T01:05:56.060Z</time>
      </trkpt>
      <trkpt lat="42.84029" lon="42.87948">
        <ele>1079.255983</ele>
        <time>2021-08-16T01:06:07.313Z</time>
      </trkpt>
      <trkpt lat="42.84029" lon="42.87884">
        <ele>1077.2429</ele>
        <time>2021-08-16T01:06:14.798Z</time>
      </trkpt>
      <trkpt lat="42.84061" lon="42.87794">
        <ele>1072.817638</ele>
        <time>2021-08-16T01:06:25.836Z</time>
      </trkpt>
      <trkpt lat="42.84067" lon="42.87749">
        <ele>1069.584523</ele>
        <time>2021-08-16T01:06:30.782Z</time>
      </trkpt>
      <trkpt lat="42.84107" lon="42.8758">
        <ele>1057.442045</ele>
        <time>2021-08-16T01:06:49.109Z</time>
      </trkpt>
      <trkpt lat="42.84128" lon="42.87538">
        <ele>1054.558268</ele>
        <time>2021-08-16T01:06:54.323Z</time>
      </trkpt>
      <trkpt lat="42.84195" lon="42.87466">
        <ele>1047.805696</ele>
        <time>2021-08-16T01:07:06.898Z</time>
      </trkpt>
      <trkpt lat="42.84241" lon="42.87407">
        <ele>1043.560928</ele>
        <time>2021-08-16T01:07:16.708Z</time>
      </trkpt>
      <trkpt lat="42.84254" lon="42.87379">
        <ele>1042.822184</ele>
        <time>2021-08-16T01:07:20.714Z</time>
      </trkpt>
      <trkpt lat="42.84361" lon="42.87064">
        <ele>1035.98361</ele>
        <time>2021-08-16T01:08:06.784Z</time>
      </trkpt>
      <trkpt lat="42.84371" lon="42.87035">
        <ele>1035.451974</ele>
        <time>2021-08-16T01:08:11.019Z</time>
      </trkpt>
      <trkpt lat="42.84374" lon="42.8701">
        <ele>1035.03172</ele>
        <time>2021-08-16T01:08:14.249Z</time>
      </trkpt>
      <trkpt lat="42.8437" lon="42.86929">
        <ele>1034.114136</ele>
        <time>2021-08-16T01:08:25.040Z</time>
      </trkpt>
      <trkpt lat="42.84352" lon="42.86851">
        <ele>1033.483431</ele>
        <time>2021-08-16T01:08:36.540Z</time>
      </trkpt>
      <trkpt lat="42.84349" lon="42.86839">
        <ele>1033.390982</ele>
        <time>2021-08-16T01:08:38.062Z</time>
      </trkpt>
      <trkpt lat="42.84344" lon="42.8682">
        <ele>1033.229984</ele>
        <time>2021-08-16T01:08:41.047Z</time>
      </trkpt>
      <trkpt lat="42.84293" lon="42.86595">
        <ele>1033.424289</ele>
        <time>2021-08-16T01:09:23.062Z</time>
      </trkpt>
      <trkpt lat="42.84286" lon="42.8654">
        <ele>1033.727214</ele>
        <time>2021-08-16T01:09:35.479Z</time>
      </trkpt>
      <trkpt lat="42.84293" lon="42.86446">
        <ele>1033.995931</ele>
        <time>2021-08-16T01:09:55.008Z</time>
      </trkpt>
      <trkpt lat="42.84321" lon="42.86376">
        <ele>1034.089292</ele>
        <time>2021-08-16T01:10:09.713Z</time>
      </trkpt>
      <trkpt lat="42.84366" lon="42.86234">
        <ele>1033.736087</ele>
        <time>2021-08-16T01:10:33.073Z</time>
      </trkpt>
      <trkpt lat="42.84435" lon="42.8608">
        <ele>1031.863245</ele>
        <time>2021-08-16T01:10:58.093Z</time>
      </trkpt>
      <trkpt lat="42.84466" lon="42.86021">
        <ele>1031.025435</ele>
        <time>2021-08-16T01:11:08.027Z</time>
      </trkpt>
      <trkpt lat="42.84514" lon="42.85966">
        <ele>1029.98796</ele>
        <time>2021-08-16T01:11:20.030Z</time>
      </trkpt>
      <trkpt lat="42.84539" lon="42.85929">
        <ele>1029.387716</ele>
        <time>2021-08-16T01:11:27.012Z</time>
      </trkpt>
      <trkpt lat="42.84585" lon="42.85825">
        <ele>1027.792976</ele>
        <time>2021-08-16T01:11:43.621Z</time>
      </trkpt>
      <trkpt lat="42.84602" lon="42.8577">
        <ele>1026.965914</ele>
        <time>2021-08-16T01:11:51.455Z</time>
      </trkpt>
      <trkpt lat="42.84633" lon="42.85594">
        <ele>1025.451316</ele>
        <time>2021-08-16T01:12:15.944Z</time>
      </trkpt>
      <trkpt lat="42.84676" lon="42.85481">
        <ele>1025.766066</ele>
        <time>2021-08-16T01:12:37.574Z</time>
      </trkpt>
      <trkpt lat="42.84674" lon="42.85364">
        <ele>1027.709123</ele>
        <time>2021-08-16T01:13:09.576Z</time>
      </trkpt>
      <trkpt lat="42.84683" lon="42.85325">
        <ele>1028.892163</ele>
        <time>2021-08-16T01:13:22.213Z</time>
      </trkpt>
      <trkpt lat="42.84709" lon="42.85263">
        <ele>1031.034876</ele>
        <time>2021-08-16T01:13:46.462Z</time>
      </trkpt>
      <trkpt lat="42.84717" lon="42.85229">
        <ele>1032.082587</ele>
        <time>2021-08-16T01:13:58.406Z</time>
      </trkpt>
      <trkpt lat="42.8472" lon="42.85193">
        <ele>1033.167608</ele>
        <time>2021-08-16T01:14:10.861Z</time>
      </trkpt>
      <trkpt lat="42.8471" lon="42.85122">
        <ele>1035.297219</ele>
        <time>2021-08-16T01:14:34.889Z</time>
      </trkpt>
      <trkpt lat="42.84704" lon="42.85058">
        <ele>1037.19935</ele>
        <time>2021-08-16T01:14:55.055Z</time>
      </trkpt>
      <trkpt lat="42.8469" lon="42.84968">
        <ele>1039.930452</ele>
        <time>2021-08-16T01:15:22.286Z</time>
      </trkpt>
      <trkpt lat="42.84683" lon="42.8494">
        <ele>1040.743517</ele>
        <time>2021-08-16T01:15:30.771Z</time>
      </trkpt>
      <trkpt lat="42.8467" lon="42.84911">
        <ele>1041.61261</ele>
        <time>2021-08-16T01:15:40.561Z</time>
      </trkpt>
      <trkpt lat="42.84623" lon="42.84834">
        <ele>1044.231175</ele>
        <time>2021-08-16T01:16:10.600Z</time>
      </trkpt>
      <trkpt lat="42.84553" lon="42.84555">
        <ele>1050.962313</ele>
        <time>2021-08-16T01:17:35.940Z</time>
      </trkpt>
      <trkpt lat="42.84546" lon="42.84502">
        <ele>1051.973227</ele>
        <time>2021-08-16T01:17:48.450Z</time>
      </trkpt>
      <trkpt lat="42.8455" lon="42.8443">
        <ele>1051.728064</ele>
        <time>2021-08-16T01:18:02.553Z</time>
      </trkpt>
      <trkpt lat="42.84582" lon="42.84309">
        <ele>1051.294106</ele>
        <time>2021-08-16T01:18:21.510Z</time>
      </trkpt>
      <trkpt lat="42.84586" lon="42.84283">
        <ele>1051.205288</ele>
        <time>2021-08-16T01:18:25.143Z</time>
      </trkpt>
      <trkpt lat="42.84583" lon="42.84257">
        <ele>1050.758159</ele>
        <time>2021-08-16T01:18:28.680Z</time>
      </trkpt>
      <trkpt lat="42.84572" lon="42.84202">
        <ele>1049.177631</ele>
        <time>2021-08-16T01:18:35.884Z</time>
      </trkpt>
      <trkpt lat="42.84568" lon="42.84163">
        <ele>1048.091418</ele>
        <time>2021-08-16T01:18:40.590Z</time>
      </trkpt>
      <trkpt lat="42.84567" lon="42.84023">
        <ele>1044.222014</ele>
        <time>2021-08-16T01:18:57.128Z</time>
      </trkpt>
      <trkpt lat="42.84564" lon="42.83995">
        <ele>1043.493784</ele>
        <time>2021-08-16T01:19:00.457Z</time>
      </trkpt>
      <trkpt lat="42.84557" lon="42.8394">
        <ele>1042.050234</ele>
        <time>2021-08-16T01:19:07.361Z</time>
      </trkpt>
      <trkpt lat="42.84516" lon="42.83691">
        <ele>1035.165962</ele>
        <time>2021-08-16T01:19:39.696Z</time>
      </trkpt>
      <trkpt lat="42.8449" lon="42.83442">
        <ele>1026.419856</ele>
        <time>2021-08-16T01:20:09.471Z</time>
      </trkpt>
      <trkpt lat="42.84491" lon="42.8339">
        <ele>1024.230235</ele>
        <time>2021-08-16T01:20:15.162Z</time>
      </trkpt>
      <trkpt lat="42.84515" lon="42.83219">
        <ele>1017.955798</ele>
        <time>2021-08-16T01:20:34.553Z</time>
      </trkpt>
      <trkpt lat="42.84519" lon="42.83152">
        <ele>1015.951366</ele>
        <time>2021-08-16T01:20:42.601Z</time>
      </trkpt>
      <trkpt lat="42.8451" lon="42.83106">
        <ele>1014.560536</ele>
        <time>2021-08-16T01:20:48.631Z</time>
      </trkpt>
      <trkpt lat="42.84495" lon="42.83072">
        <ele>1013.381125</ele>
        <time>2021-08-16T01:20:54.166Z</time>
      </trkpt>
      <trkpt lat="42.84472" lon="42.83037">
        <ele>1013.691451</ele>
        <time>2021-08-16T01:21:01.738Z</time>
      </trkpt>
      <trkpt lat="42.84444" lon="42.83009">
        <ele>1014.178837</ele>
        <time>2021-08-16T01:21:11.232Z</time>
      </trkpt>
      <trkpt lat="42.84373" lon="42.82955">
        <ele>1015.345586</ele>
        <time>2021-08-16T01:21:39.853Z</time>
      </trkpt>
      <trkpt lat="42.84282" lon="42.82807">
        <ele>1017.599648</ele>
        <time>2021-08-16T01:22:27.445Z</time>
      </trkpt>
      <trkpt lat="42.84222" lon="42.8267">
        <ele>1018.444288</ele>
        <time>2021-08-16T01:22:58.575Z</time>
      </trkpt>
      <trkpt lat="42.84207" lon="42.82571">
        <ele>1017.905531</ele>
        <time>2021-08-16T01:23:12.879Z</time>
      </trkpt>
      <trkpt lat="42.84191" lon="42.82525">
        <ele>1017.635011</ele>
        <time>2021-08-16T01:23:19.995Z</time>
      </trkpt>
      <trkpt lat="42.84114" lon="42.8244">
        <ele>1016.11667</ele>
        <time>2021-08-16T01:23:39.323Z</time>
      </trkpt>
      <trkpt lat="42.84045" lon="42.82335">
        <ele>1014.302528</ele>
        <time>2021-08-16T01:23:59.283Z</time>
      </trkpt>
      <trkpt lat="42.84026" lon="42.82322">
        <ele>1012.642203</ele>
        <time>2021-08-16T01:24:02.918Z</time>
      </trkpt>
      <trkpt lat="42.83982" lon="42.82313">
        <ele>1009.197412</ele>
        <time>2021-08-16T01:24:09.739Z</time>
      </trkpt>
      <trkpt lat="42.83976" lon="42.8231">
        <ele>1008.703504</ele>
        <time>2021-08-16T01:24:10.759Z</time>
      </trkpt>
      <trkpt lat="42.83933" lon="42.82257">
        <ele>1004.302125</ele>
        <time>2021-08-16T01:24:18.946Z</time>
      </trkpt>
      <trkpt lat="42.83914" lon="42.82232">
        <ele>1002.235352</ele>
        <time>2021-08-16T01:24:22.730Z</time>
      </trkpt>
      <trkpt lat="42.83895" lon="42.822">
        <ele>999.562925</ele>
        <time>2021-08-16T01:24:27.073Z</time>
      </trkpt>
      <trkpt lat="42.83867" lon="42.82119">
        <ele>991.616615</ele>
        <time>2021-08-16T01:24:36.070Z</time>
      </trkpt>
      <trkpt lat="42.83858" lon="42.82105">
        <ele>989.953147</ele>
        <time>2021-08-16T01:24:37.932Z</time>
      </trkpt>
      <trkpt lat="42.83835" lon="42.82077">
        <ele>986.169615</ele>
        <time>2021-08-16T01:24:42.157Z</time>
      </trkpt>
      <trkpt lat="42.83831" lon="42.82074">
        <ele>985.650068</ele>
        <time>2021-08-16T01:24:42.710Z</time>
      </trkpt>
      <trkpt lat="42.83777" lon="42.82039">
        <ele>978.344981</ele>
        <time>2021-08-16T01:24:51.082Z</time>
      </trkpt>
      <trkpt lat="42.83764" lon="42.8202">
        <ele>976.694118</ele>
        <time>2021-08-16T01:24:53.720Z</time>
      </trkpt>
      <trkpt lat="42.8373" lon="42.81938">
        <ele>970.63853</ele>
        <time>2021-08-16T01:25:03.655Z</time>
      </trkpt>
      <trkpt lat="42.83701" lon="42.81895">
        <ele>966.81441</ele>
        <time>2021-08-16T01:25:09.989Z</time>
      </trkpt>
      <trkpt lat="42.83676" lon="42.81869">
        <ele>964.06723</ele>
        <time>2021-08-16T01:25:14.616Z</time>
      </trkpt>
      <trkpt lat="42.83647" lon="42.81849">
        <ele>961.777553</ele>
        <time>2021-08-16T01:25:19.473Z</time>
      </trkpt>
      <trkpt lat="42.83596" lon="42.81833">
        <ele>958.929465</ele>
        <time>2021-08-16T01:25:27.633Z</time>
      </trkpt>
      <trkpt lat="42.83563" lon="42.81803">
        <ele>956.794036</ele>
        <time>2021-08-16T01:25:33.852Z</time>
      </trkpt>
      <trkpt lat="42.83536" lon="42.81741">
        <ele>953.935606</ele>
        <time>2021-08-16T01:25:42.360Z</time>
      </trkpt>
      <trkpt lat="42.83516" lon="42.81714">
        <ele>952.454453</ele>
        <time>2021-08-16T01:25:46.966Z</time>
      </trkpt>
      <trkpt lat="42.83497" lon="42.817">
        <ele>951.384468</ele>
        <time>2021-08-16T01:25:50.499Z</time>
      </trkpt>
      <trkpt lat="42.83436" lon="42.81679">
        <ele>948.235392</ele>
        <time>2021-08-16T01:26:00.729Z</time>
      </trkpt>
      <trkpt lat="42.83292" lon="42.81546">
        <ele>939.799986</ele>
        <time>2021-08-16T01:26:27.864Z</time>
      </trkpt>
      <trkpt lat="42.83261" lon="42.81537">
        <ele>938.315389</ele>
        <time>2021-08-16T01:26:32.929Z</time>
      </trkpt>
      <trkpt lat="42.83187" lon="42.81542">
        <ele>935.124174</ele>
        <time>2021-08-16T01:26:45.196Z</time>
      </trkpt>
      <trkpt lat="42.83138" lon="42.8154">
        <ele>933.831931</ele>
        <time>2021-08-16T01:26:53.748Z</time>
      </trkpt>
      <trkpt lat="42.83119" lon="42.81532">
        <ele>933.31563</ele>
        <time>2021-08-16T01:26:57.260Z</time>
      </trkpt>
      <trkpt lat="42.82904" lon="42.81331">
        <ele>927.296453</ele>
        <time>2021-08-16T01:27:44.788Z</time>
      </trkpt>
      <trkpt lat="42.82883" lon="42.81314">
        <ele>926.680263</ele>
        <time>2021-08-16T01:27:49.154Z</time>
      </trkpt>
      <trkpt lat="42.82844" lon="42.81298">
        <ele>925.354893</ele>
        <time>2021-08-16T01:27:56.415Z</time>
      </trkpt>
      <trkpt lat="42.8282" lon="42.81274">
        <ele>924.38455</ele>
        <time>2021-08-16T01:28:01.637Z</time>
      </trkpt>
      <trkpt lat="42.8275" lon="42.81133">
        <ele>920.231699</ele>
        <time>2021-08-16T01:28:22.423Z</time>
      </trkpt>
      <trkpt lat="42.82703" lon="42.80998">
        <ele>916.288558</ele>
        <time>2021-08-16T01:28:40.382Z</time>
      </trkpt>
      <trkpt lat="42.82655" lon="42.80901">
        <ele>914.018116</ele>
        <time>2021-08-16T01:28:55.389Z</time>
      </trkpt>
      <trkpt lat="42.82628" lon="42.80859">
        <ele>913.406862</ele>
        <time>2021-08-16T01:29:03.074Z</time>
      </trkpt>
      <trkpt lat="42.82611" lon="42.80842">
        <ele>913.084131</ele>
        <time>2021-08-16T01:29:07.364Z</time>
      </trkpt>
      <trkpt lat="42.82505" lon="42.80776">
        <ele>910.9889</ele>
        <time>2021-08-16T01:29:31.624Z</time>
      </trkpt>
      <trkpt lat="42.8249" lon="42.80762">
        <ele>910.558945</ele>
        <time>2021-08-16T01:29:35.021Z</time>
      </trkpt>
      <trkpt lat="42.82464" lon="42.8072">
        <ele>909.580694</ele>
        <time>2021-08-16T01:29:42.323Z</time>
      </trkpt>
      <trkpt lat="42.82441" lon="42.80667">
        <ele>908.502944</ele>
        <time>2021-08-16T01:29:50.042Z</time>
      </trkpt>
      <trkpt lat="42.82413" lon="42.80557">
        <ele>905.584199</ele>
        <time>2021-08-16T01:30:04.074Z</time>
      </trkpt>
      <trkpt lat="42.8232" lon="42.80424">
        <ele>899.898091</ele>
        <time>2021-08-16T01:30:25.999Z</time>
      </trkpt>
      <trkpt lat="42.82278" lon="42.80331">
        <ele>897.118097</ele>
        <time>2021-08-16T01:30:39.426Z</time>
      </trkpt>
      <trkpt lat="42.82236" lon="42.80213">
        <ele>893.770727</ele>
        <time>2021-08-16T01:30:55.974Z</time>
      </trkpt>
      <trkpt lat="42.82208" lon="42.80093">
        <ele>891.28473</ele>
        <time>2021-08-16T01:31:11.729Z</time>
      </trkpt>
      <trkpt lat="42.82194" lon="42.80057">
        <ele>890.469534</ele>
        <time>2021-08-16T01:31:16.909Z</time>
      </trkpt>
      <trkpt lat="42.82113" lon="42.79901">
        <ele>888.019628</ele>
        <time>2021-08-16T01:31:43.096Z</time>
      </trkpt>
      <trkpt lat="42.82063" lon="42.79846">
        <ele>887.334118</ele>
        <time>2021-08-16T01:31:57.358Z</time>
      </trkpt>
      <trkpt lat="42.82004" lon="42.79759">
        <ele>885.805453</ele>
        <time>2021-08-16T01:32:14.678Z</time>
      </trkpt>
      <trkpt lat="42.81973" lon="42.79706">
        <ele>884.704391</ele>
        <time>2021-08-16T01:32:24.041Z</time>
      </trkpt>
      <trkpt lat="42.81952" lon="42.79667">
        <ele>883.912337</ele>
        <time>2021-08-16T01:32:30.311Z</time>
      </trkpt>
      <trkpt lat="42.81918" lon="42.79597">
        <ele>882.082917</ele>
        <time>2021-08-16T01:32:40.678Z</time>
      </trkpt>
      <trkpt lat="42.81907" lon="42.79501">
        <ele>878.900554</ele>
        <time>2021-08-16T01:32:52.007Z</time>
      </trkpt>
      <trkpt lat="42.81898" lon="42.79468">
        <ele>877.742289</ele>
        <time>2021-08-16T01:32:56.087Z</time>
      </trkpt>
      <trkpt lat="42.81812" lon="42.7928">
        <ele>871.337118</ele>
        <time>2021-08-16T01:33:22.686Z</time>
      </trkpt>
      <trkpt lat="42.81793" lon="42.79212">
        <ele>869.416453</ele>
        <time>2021-08-16T01:33:31.639Z</time>
      </trkpt>
      <trkpt lat="42.81718" lon="42.79021">
        <ele>865.451992</ele>
        <time>2021-08-16T01:34:00.383Z</time>
      </trkpt>
      <trkpt lat="42.817" lon="42.78985">
        <ele>864.730364</ele>
        <time>2021-08-16T01:34:06.264Z</time>
      </trkpt>
      <trkpt lat="42.81659" lon="42.78949">
        <ele>863.792721</ele>
        <time>2021-08-16T01:34:15.277Z</time>
      </trkpt>
      <trkpt lat="42.81628" lon="42.7893">
        <ele>863.192546</ele>
        <time>2021-08-16T01:34:21.611Z</time>
      </trkpt>
      <trkpt lat="42.81595" lon="42.78922">
        <ele>862.593896</ele>
        <time>2021-08-16T01:34:28.047Z</time>
      </trkpt>
      <trkpt lat="42.81554" lon="42.78922">
        <ele>861.869775</ele>
        <time>2021-08-16T01:34:35.786Z</time>
      </trkpt>
      <trkpt lat="42.81541" lon="42.78915">
        <ele>861.627024</ele>
        <time>2021-08-16T01:34:38.289Z</time>
      </trkpt>
      <trkpt lat="42.81532" lon="42.78893">
        <ele>861.295871</ele>
        <time>2021-08-16T01:34:41.723Z</time>
      </trkpt>
      <trkpt lat="42.81526" lon="42.78801">
        <ele>860.354331</ele>
        <time>2021-08-16T01:34:54.204Z</time>
      </trkpt>
      <trkpt lat="42.81515" lon="42.78766">
        <ele>859.977605</ele>
        <time>2021-08-16T01:34:59.568Z</time>
      </trkpt>
      <trkpt lat="42.81499" lon="42.78738">
        <ele>859.621414</ele>
        <time>2021-08-16T01:35:04.748Z</time>
      </trkpt>
      <trkpt lat="42.81464" lon="42.78706">
        <ele>859.046265</ele>
        <time>2021-08-16T01:35:13.218Z</time>
      </trkpt>
      <trkpt lat="42.81401" lon="42.78693">
        <ele>857.898732</ele>
        <time>2021-08-16T01:35:25.954Z</time>
      </trkpt>
      <trkpt lat="42.81383" lon="42.78684">
        <ele>857.51228</ele>
        <time>2021-08-16T01:35:29.546Z</time>
      </trkpt>
      <trkpt lat="42.81353" lon="42.78657">
        <ele>856.773455</ele>
        <time>2021-08-16T01:35:36.404Z</time>
      </trkpt>
      <trkpt lat="42.81314" lon="42.78609">
        <ele>855.708915</ele>
        <time>2021-08-16T01:35:46.008Z</time>
      </trkpt>
      <trkpt lat="42.8126" lon="42.78484">
        <ele>852.179345</ele>
        <time>2021-08-16T01:36:03.750Z</time>
      </trkpt>
      <trkpt lat="42.8115" lon="42.78398">
        <ele>847.565113</ele>
        <time>2021-08-16T01:36:24.493Z</time>
      </trkpt>
      <trkpt lat="42.81083" lon="42.78358">
        <ele>845.519167</ele>
        <time>2021-08-16T01:36:37.149Z</time>
      </trkpt>
      <trkpt lat="42.81021" lon="42.78253">
        <ele>842.774715</ele>
        <time>2021-08-16T01:36:55.136Z</time>
      </trkpt>
      <trkpt lat="42.80992" lon="42.78187">
        <ele>841.238987</ele>
        <time>2021-08-16T01:37:05.413Z</time>
      </trkpt>
      <trkpt lat="42.80943" lon="42.78132">
        <ele>839.518411</ele>
        <time>2021-08-16T01:37:16.482Z</time>
      </trkpt>
      <trkpt lat="42.80921" lon="42.78118">
        <ele>838.85579</ele>
        <time>2021-08-16T01:37:20.688Z</time>
      </trkpt>
      <trkpt lat="42.80794" lon="42.78068">
        <ele>833.881046</ele>
        <time>2021-08-16T01:37:42.677Z</time>
      </trkpt>
      <trkpt lat="42.80762" lon="42.78044">
        <ele>832.412298</ele>
        <time>2021-08-16T01:37:48.699Z</time>
      </trkpt>
      <trkpt lat="42.8072" lon="42.77985">
        <ele>830.106805</ele>
        <time>2021-08-16T01:37:58.454Z</time>
      </trkpt>
      <trkpt lat="42.80683" lon="42.77954">
        <ele>828.522279</ele>
        <time>2021-08-16T01:38:05.482Z</time>
      </trkpt>
      <trkpt lat="42.80596" lon="42.77932">
        <ele>825.295429</ele>
        <time>2021-08-16T01:38:20.247Z</time>
      </trkpt>
      <trkpt lat="42.80559" lon="42.77903">
        <ele>824.442042</ele>
        <time>2021-08-16T01:38:27.619Z</time>
      </trkpt>
      <trkpt lat="42.80486" lon="42.77775">
        <ele>823.677263</ele>
        <time>2021-08-16T01:38:52.451Z</time>
      </trkpt>
      <trkpt lat="42.80448" lon="42.77723">
        <ele>823.492086</ele>
        <time>2021-08-16T01:39:07.428Z</time>
      </trkpt>
      <trkpt lat="42.80435" lon="42.77706">
        <ele>823.55341</ele>
        <time>2021-08-16T01:39:12.685Z</time>
      </trkpt>
      <trkpt lat="42.80383" lon="42.77662">
        <ele>823.761453</ele>
        <time>2021-08-16T01:39:29.202Z</time>
      </trkpt>
      <trkpt lat="42.80344" lon="42.77621">
        <ele>823.927793</ele>
        <time>2021-08-16T01:39:41.270Z</time>
      </trkpt>
      <trkpt lat="42.80312" lon="42.77578">
        <ele>823.812785</ele>
        <time>2021-08-16T01:39:50.750Z</time>
      </trkpt>
      <trkpt lat="42.80292" lon="42.77541">
        <ele>822.98018</ele>
        <time>2021-08-16T01:39:57.231Z</time>
      </trkpt>
      <trkpt lat="42.80275" lon="42.77493">
        <ele>822.029408</ele>
        <time>2021-08-16T01:40:04.290Z</time>
      </trkpt>
      <trkpt lat="42.80263" lon="42.77356">
        <ele>819.478074</ele>
        <time>2021-08-16T01:40:21.679Z</time>
      </trkpt>
      <trkpt lat="42.8023" lon="42.772">
        <ele>814.453253</ele>
        <time>2021-08-16T01:40:40.943Z</time>
      </trkpt>
      <trkpt lat="42.80216" lon="42.77152">
        <ele>812.859165</ele>
        <time>2021-08-16T01:40:47.131Z</time>
      </trkpt>
      <trkpt lat="42.80214" lon="42.77141">
        <ele>812.488363</ele>
        <time>2021-08-16T01:40:48.569Z</time>
      </trkpt>
      <trkpt lat="42.80212" lon="42.77122">
        <ele>811.945823</ele>
        <time>2021-08-16T01:40:50.767Z</time>
      </trkpt>
      <trkpt lat="42.80218" lon="42.77029">
        <ele>809.806008</ele>
        <time>2021-08-16T01:41:02.278Z</time>
      </trkpt>
      <trkpt lat="42.80241" lon="42.76847">
        <ele>806.121355</ele>
        <time>2021-08-16T01:41:26.231Z</time>
      </trkpt>
      <trkpt lat="42.80292" lon="42.76664">
        <ele>804.296167</ele>
        <time>2021-08-16T01:41:54.520Z</time>
      </trkpt>
      <trkpt lat="42.80294" lon="42.76599">
        <ele>804.369174</ele>
        <time>2021-08-16T01:42:04.738Z</time>
      </trkpt>
      <trkpt lat="42.80271" lon="42.76515">
        <ele>804.682751</ele>
        <time>2021-08-16T01:42:20.475Z</time>
      </trkpt>
      <trkpt lat="42.80214" lon="42.76403">
        <ele>805.14035</ele>
        <time>2021-08-16T01:42:49.780Z</time>
      </trkpt>
      <trkpt lat="42.80209" lon="42.76247">
        <ele>805.585827</ele>
        <time>2021-08-16T01:43:20.463Z</time>
      </trkpt>
      <trkpt lat="42.80183" lon="42.76188">
        <ele>805.46385</ele>
        <time>2021-08-16T01:43:31.045Z</time>
      </trkpt>
      <trkpt lat="42.80132" lon="42.75966">
        <ele>800.569827</ele>
        <time>2021-08-16T01:44:00.416Z</time>
      </trkpt>
      <trkpt lat="42.80117" lon="42.75931">
        <ele>799.465512</ele>
        <time>2021-08-16T01:44:05.223Z</time>
      </trkpt>
      <trkpt lat="42.801" lon="42.75916">
        <ele>798.715972</ele>
        <time>2021-08-16T01:44:08.511Z</time>
      </trkpt>
      <trkpt lat="42.80057" lon="42.75893">
        <ele>796.977541</ele>
        <time>2021-08-16T01:44:16.162Z</time>
      </trkpt>
      <trkpt lat="42.79947" lon="42.75885">
        <ele>792.925536</ele>
        <time>2021-08-16T01:44:34.658Z</time>
      </trkpt>
      <trkpt lat="42.79835" lon="42.75856">
        <ele>788.939549</ele>
        <time>2021-08-16T01:44:53.936Z</time>
      </trkpt>
      <trkpt lat="42.79776" lon="42.75851">
        <ele>786.855341</ele>
        <time>2021-08-16T01:45:03.792Z</time>
      </trkpt>
      <trkpt lat="42.79747" lon="42.75857">
        <ele>785.769597</ele>
        <time>2021-08-16T01:45:08.749Z</time>
      </trkpt>
      <trkpt lat="42.79689" lon="42.75854">
        <ele>783.683208</ele>
        <time>2021-08-16T01:45:18.275Z</time>
      </trkpt>
      <trkpt lat="42.79607" lon="42.75813">
        <ele>780.631884</ele>
        <time>2021-08-16T01:45:32.980Z</time>
      </trkpt>
      <trkpt lat="42.79595" lon="42.75797">
        <ele>780.158178</ele>
        <time>2021-08-16T01:45:35.901Z</time>
      </trkpt>
      <trkpt lat="42.79582" lon="42.7572">
        <ele>778.569956</ele>
        <time>2021-08-16T01:45:45.828Z</time>
      </trkpt>
      <trkpt lat="42.79572" lon="42.75687">
        <ele>777.832389</ele>
        <time>2021-08-16T01:45:50.530Z</time>
      </trkpt>
      <trkpt lat="42.79541" lon="42.7562">
        <ele>776.244861</ele>
        <time>2021-08-16T01:46:00.878Z</time>
      </trkpt>
      <trkpt lat="42.79517" lon="42.75595">
        <ele>775.619683</ele>
        <time>2021-08-16T01:46:06.614Z</time>
      </trkpt>
      <trkpt lat="42.79455" lon="42.75565">
        <ele>774.389575</ele>
        <time>2021-08-16T01:46:18.823Z</time>
      </trkpt>
      <trkpt lat="42.79398" lon="42.7551">
        <ele>773.071186</ele>
        <time>2021-08-16T01:46:31.819Z</time>
      </trkpt>
      <trkpt lat="42.79391" lon="42.75494">
        <ele>772.807558</ele>
        <time>2021-08-16T01:46:34.421Z</time>
      </trkpt>
      <trkpt lat="42.79376" lon="42.75415">
        <ele>771.494824</ele>
        <time>2021-08-16T01:46:45.546Z</time>
      </trkpt>
      <trkpt lat="42.79354" lon="42.75357">
        <ele>770.4374</ele>
        <time>2021-08-16T01:46:54.132Z</time>
      </trkpt>
      <trkpt lat="42.79336" lon="42.75317">
        <ele>769.686241</ele>
        <time>2021-08-16T01:47:00.144Z</time>
      </trkpt>
      <trkpt lat="42.79286" lon="42.75239">
        <ele>768.239307</ele>
        <time>2021-08-16T01:47:13.846Z</time>
      </trkpt>
      <trkpt lat="42.79264" lon="42.7518">
        <ele>767.53271</ele>
        <time>2021-08-16T01:47:22.799Z</time>
      </trkpt>
      <trkpt lat="42.79249" lon="42.75127">
        <ele>766.930066</ele>
        <time>2021-08-16T01:47:30.587Z</time>
      </trkpt>
      <trkpt lat="42.79232" lon="42.75018">
        <ele>765.87561</ele>
        <time>2021-08-16T01:47:48.115Z</time>
      </trkpt>
      <trkpt lat="42.79225" lon="42.74993">
        <ele>765.703952</ele>
        <time>2021-08-16T01:47:52.883Z</time>
      </trkpt>
      <trkpt lat="42.7921" lon="42.74933">
        <ele>765.285458</ele>
        <time>2021-08-16T01:48:02.240Z</time>
      </trkpt>
      <trkpt lat="42.79192" lon="42.74888">
        <ele>764.940273</ele>
        <time>2021-08-16T01:48:09.735Z</time>
      </trkpt>
      <trkpt lat="42.79175" lon="42.74851">
        <ele>764.656707</ele>
        <time>2021-08-16T01:48:15.936Z</time>
      </trkpt>
      <trkpt lat="42.79156" lon="42.74816">
        <ele>764.283035</ele>
        <time>2021-08-16T01:48:22.208Z</time>
      </trkpt>
      <trkpt lat="42.79142" lon="42.7479">
        <ele>763.915511</ele>
        <time>2021-08-16T01:48:26.565Z</time>
      </trkpt>
      <trkpt lat="42.79126" lon="42.74755">
        <ele>763.456068</ele>
        <time>2021-08-16T01:48:32.336Z</time>
      </trkpt>
      <trkpt lat="42.79123" lon="42.74734">
        <ele>763.214239</ele>
        <time>2021-08-16T01:48:35.518Z</time>
      </trkpt>
      <trkpt lat="42.79099" lon="42.7446">
        <ele>760.342612</ele>
        <time>2021-08-16T01:49:13.618Z</time>
      </trkpt>
      <trkpt lat="42.79063" lon="42.74338">
        <ele>759.040385</ele>
        <time>2021-08-16T01:49:33.331Z</time>
      </trkpt>
      <trkpt lat="42.7904" lon="42.74291">
        <ele>758.412095</ele>
        <time>2021-08-16T01:49:41.516Z</time>
      </trkpt>
      <trkpt lat="42.79026" lon="42.74249">
        <ele>757.894907</ele>
        <time>2021-08-16T01:49:48.176Z</time>
      </trkpt>
      <trkpt lat="42.78999" lon="42.74076">
        <ele>755.417057</ele>
        <time>2021-08-16T01:50:11.939Z</time>
      </trkpt>
      <trkpt lat="42.78997" lon="42.74037">
        <ele>754.660539</ele>
        <time>2021-08-16T01:50:17.060Z</time>
      </trkpt>
      <trkpt lat="42.79004" lon="42.73983">
        <ele>753.626692</ele>
        <time>2021-08-16T01:50:23.989Z</time>
      </trkpt>
      <trkpt lat="42.79027" lon="42.73903">
        <ele>751.986463</ele>
        <time>2021-08-16T01:50:34.972Z</time>
      </trkpt>
      <trkpt lat="42.7904" lon="42.7373">
        <ele>748.236766</ele>
        <time>2021-08-16T01:50:57.164Z</time>
      </trkpt>
      <trkpt lat="42.7904" lon="42.73608">
        <ele>745.766714</ele>
        <time>2021-08-16T01:51:12.594Z</time>
      </trkpt>
      <trkpt lat="42.79066" lon="42.73465">
        <ele>743.058127</ele>
        <time>2021-08-16T01:51:31.936Z</time>
      </trkpt>
      <trkpt lat="42.79067" lon="42.73443">
        <ele>742.67053</ele>
        <time>2021-08-16T01:51:34.800Z</time>
      </trkpt>
      <trkpt lat="42.7906" lon="42.73405">
        <ele>742.078933</ele>
        <time>2021-08-16T01:51:40.149Z</time>
      </trkpt>
      <trkpt lat="42.79019" lon="42.73346">
        <ele>741.392377</ele>
        <time>2021-08-16T01:51:51.491Z</time>
      </trkpt>
      <trkpt lat="42.79003" lon="42.73321">
        <ele>741.110967</ele>
        <time>2021-08-16T01:51:56.320Z</time>
      </trkpt>
      <trkpt lat="42.78978" lon="42.7327">
        <ele>740.593308</ele>
        <time>2021-08-16T01:52:05.467Z</time>
      </trkpt>
      <trkpt lat="42.78943" lon="42.73214">
        <ele>740.017709</ele>
        <time>2021-08-16T01:52:16.729Z</time>
      </trkpt>
      <trkpt lat="42.78898" lon="42.73115">
        <ele>739.362813</ele>
        <time>2021-08-16T01:52:33.839Z</time>
      </trkpt>
      <trkpt lat="42.7887" lon="42.73051">
        <ele>738.940718</ele>
        <time>2021-08-16T01:52:45.633Z</time>
      </trkpt>
      <trkpt lat="42.78869" lon="42.73037">
        <ele>738.860444</ele>
        <time>2021-08-16T01:52:47.665Z</time>
      </trkpt>
      <trkpt lat="42.78869" lon="42.73022">
        <ele>738.777147</ele>
        <time>2021-08-16T01:52:49.963Z</time>
      </trkpt>
      <trkpt lat="42.78872" lon="42.72955">
        <ele>738.037074</ele>
        <time>2021-08-16T01:52:59.657Z</time>
      </trkpt>
      <trkpt lat="42.78866" lon="42.72955">
        <ele>737.94194</ele>
        <time>2021-08-16T01:53:00.816Z</time>
      </trkpt>
      <trkpt lat="42.78862" lon="42.72954">
        <ele>737.867668</ele>
        <time>2021-08-16T01:53:01.674Z</time>
      </trkpt>
      <trkpt lat="42.78798" lon="42.72952">
        <ele>736.831196</ele>
        <time>2021-08-16T01:53:14.236Z</time>
      </trkpt>
      <trkpt lat="42.78799" lon="42.72831">
        <ele>735.400653</ele>
        <time>2021-08-16T01:53:31.310Z</time>
      </trkpt>
      <trkpt lat="42.78798" lon="42.72725">
        <ele>734.140331</ele>
        <time>2021-08-16T01:53:46.282Z</time>
      </trkpt>
      <trkpt lat="42.788" lon="42.72687">
        <ele>733.685772</ele>
        <time>2021-08-16T01:53:51.781Z</time>
      </trkpt>
      <trkpt lat="42.788" lon="42.72617">
        <ele>732.933253</ele>
        <time>2021-08-16T01:54:02.541Z</time>
      </trkpt>
      <trkpt lat="42.78801" lon="42.72616">
        <ele>732.935271</ele>
        <time>2021-08-16T01:54:02.680Z</time>
      </trkpt>
      <trkpt lat="42.78802" lon="42.72548">
        <ele>733.049115</ele>
        <time>2021-08-16T01:54:13.895Z</time>
      </trkpt>
      <trkpt lat="42.78804" lon="42.72482">
        <ele>733.15827</ele>
        <time>2021-08-16T01:54:25.518Z</time>
      </trkpt>
      <trkpt lat="42.78805" lon="42.7239">
        <ele>733.313387</ele>
        <time>2021-08-16T01:54:44.046Z</time>
      </trkpt>
      <trkpt lat="42.78808" lon="42.72264">
        <ele>734.077028</ele>
        <time>2021-08-16T01:55:10.695Z</time>
      </trkpt>
      <trkpt lat="42.78884" lon="42.72234">
        <ele>734.774214</ele>
        <time>2021-08-16T01:55:31.352Z</time>
      </trkpt>
      <trkpt lat="42.78889" lon="42.72232">
        <ele>734.819096</ele>
        <time>2021-08-16T01:55:32.826Z</time>
      </trkpt>
      <trkpt lat="42.78893" lon="42.72231">
        <ele>734.857988</ele>
        <time>2021-08-16T01:55:34.099Z</time>
      </trkpt>
      <trkpt lat="42.78889" lon="42.72215">
        <ele>734.949007</ele>
        <time>2021-08-16T01:55:37.374Z</time>
      </trkpt>
      <trkpt lat="42.78889" lon="42.7221">
        <ele>734.966472</ele>
        <time>2021-08-16T01:55:38.164Z</time>
      </trkpt>
      <trkpt lat="42.7889" lon="42.72176">
        <ele>735.0835</ele>
        <time>2021-08-16T01:55:45.319Z</time>
      </trkpt>
      <trkpt lat="42.78892" lon="42.72127">
        <ele>735.249567</ele>
        <time>2021-08-16T01:55:55.176Z</time>
      </trkpt>
      <trkpt lat="42.78895" lon="42.7206">
        <ele>735.4784</ele>
        <time>2021-08-16T01:56:08.310Z</time>
      </trkpt>
      <trkpt lat="42.78895" lon="42.72056">
        <ele>735.493171</ele>
        <time>2021-08-16T01:56:09.156Z</time>
      </trkpt>
      <trkpt lat="42.78897" lon="42.72027">
        <ele>735.594362</ele>
        <time>2021-08-16T01:56:14.567Z</time>
      </trkpt>
      <trkpt lat="42.78899" lon="42.71951">
        <ele>735.477373</ele>
        <time>2021-08-16T01:56:26.029Z</time>
      </trkpt>
      <trkpt lat="42.78884" lon="42.71922">
        <ele>735.060877</ele>
        <time>2021-08-16T01:56:31.181Z</time>
      </trkpt>
      <trkpt lat="42.78872" lon="42.71902">
        <ele>734.753284</ele>
        <time>2021-08-16T01:56:34.898Z</time>
      </trkpt>
      <trkpt lat="42.78857" lon="42.71882">
        <ele>734.424327</ele>
        <time>2021-08-16T01:56:38.866Z</time>
      </trkpt>
      <trkpt lat="42.78852" lon="42.71875">
        <ele>734.315328</ele>
        <time>2021-08-16T01:56:40.219Z</time>
      </trkpt>
      <trkpt lat="42.788" lon="42.71806">
        <ele>733.152361</ele>
        <time>2021-08-16T01:56:53.495Z</time>
      </trkpt>
      <trkpt lat="42.78796" lon="42.71802">
        <ele>733.065004</ele>
        <time>2021-08-16T01:56:54.419Z</time>
      </trkpt>
      <trkpt lat="42.7879" lon="42.71798">
        <ele>732.963826</ele>
        <time>2021-08-16T01:56:55.596Z</time>
      </trkpt>
      <trkpt lat="42.78783" lon="42.71795">
        <ele>732.818671</ele>
        <time>2021-08-16T01:56:56.906Z</time>
      </trkpt>
      <trkpt lat="42.78778" lon="42.71792">
        <ele>732.68347</ele>
        <time>2021-08-16T01:56:57.865Z</time>
      </trkpt>
      <trkpt lat="42.78773" lon="42.71791">
        <ele>732.552803</ele>
        <time>2021-08-16T01:56:58.845Z</time>
      </trkpt>
      <trkpt lat="42.78768" lon="42.71791">
        <ele>732.428595</ele>
        <time>2021-08-16T01:56:59.744Z</time>
      </trkpt>
      <trkpt lat="42.78765" lon="42.71793">
        <ele>732.363362</ele>
        <time>2021-08-16T01:57:00.138Z</time>
      </trkpt>
      <trkpt lat="42.78612" lon="42.71934">
        <ele>727.987278</ele>
        <time>2021-08-16T01:57:32.869Z</time>
      </trkpt>
      <trkpt lat="42.78414" lon="42.72093">
        <ele>725.096283</ele>
        <time>2021-08-16T01:58:17.151Z</time>
      </trkpt>
      <trkpt lat="42.78318" lon="42.72138">
        <ele>724.598448</ele>
        <time>2021-08-16T01:58:39.290Z</time>
      </trkpt>
      <trkpt lat="42.78274" lon="42.72148">
        <ele>725.254924</ele>
        <time>2021-08-16T01:58:51.133Z</time>
      </trkpt>
      <trkpt lat="42.78207" lon="42.72146">
        <ele>726.322856</ele>
        <time>2021-08-16T01:59:12.303Z</time>
      </trkpt>
      <trkpt lat="42.7814" lon="42.72152">
        <ele>727.377267</ele>
        <time>2021-08-16T01:59:35.153Z</time>
      </trkpt>
      <trkpt lat="42.78122" lon="42.72148">
        <ele>727.532447</ele>
        <time>2021-08-16T01:59:41.212Z</time>
      </trkpt>
      <trkpt lat="42.78021" lon="42.7209">
        <ele>728.359372</ele>
        <time>2021-08-16T02:00:12.104Z</time>
      </trkpt>
      <trkpt lat="42.77988" lon="42.72089">
        <ele>728.614124</ele>
        <time>2021-08-16T02:00:19.924Z</time>
      </trkpt>
      <trkpt lat="42.77947" lon="42.721">
        <ele>728.360754</ele>
        <time>2021-08-16T02:00:28.405Z</time>
      </trkpt>
      <trkpt lat="42.77846" lon="42.72202">
        <ele>725.798145</ele>
        <time>2021-08-16T02:00:50.713Z</time>
      </trkpt>
      <trkpt lat="42.77783" lon="42.72254">
        <ele>724.147788</ele>
        <time>2021-08-16T02:01:03.871Z</time>
      </trkpt>
      <trkpt lat="42.77733" lon="42.72282">
        <ele>722.844703</ele>
        <time>2021-08-16T02:01:13.763Z</time>
      </trkpt>
      <trkpt lat="42.77685" lon="42.72317">
        <ele>721.557644</ele>
        <time>2021-08-16T02:01:23.751Z</time>
      </trkpt>
      <trkpt lat="42.77566" lon="42.72418">
        <ele>716.550744</ele>
        <time>2021-08-16T02:01:47.628Z</time>
      </trkpt>
      <trkpt lat="42.7749" lon="42.72458">
        <ele>713.485645</ele>
        <time>2021-08-16T02:02:00.491Z</time>
      </trkpt>
      <trkpt lat="42.77461" lon="42.72474">
        <ele>712.645429</ele>
        <time>2021-08-16T02:02:05.538Z</time>
      </trkpt>
      <trkpt lat="42.77447" lon="42.7248">
        <ele>712.247264</ele>
        <time>2021-08-16T02:02:07.793Z</time>
      </trkpt>
      <trkpt lat="42.77431" lon="42.72484">
        <ele>711.790664</ele>
        <time>2021-08-16T02:02:10.715Z</time>
      </trkpt>
      <trkpt lat="42.77416" lon="42.72476">
        <ele>711.365596</ele>
        <time>2021-08-16T02:02:13.197Z</time>
      </trkpt>
      <trkpt lat="42.77361" lon="42.72422">
        <ele>709.54119</ele>
        <time>2021-08-16T02:02:25.320Z</time>
      </trkpt>
      <trkpt lat="42.77287" lon="42.72368">
        <ele>710.149799</ele>
        <time>2021-08-16T02:02:50.883Z</time>
      </trkpt>
      <trkpt lat="42.77251" lon="42.72349">
        <ele>710.929916</ele>
        <time>2021-08-16T02:03:06.141Z</time>
      </trkpt>
      <trkpt lat="42.77176" lon="42.72337">
        <ele>712.510101</ele>
        <time>2021-08-16T02:03:35.215Z</time>
      </trkpt>
      <trkpt lat="42.77114" lon="42.72359">
        <ele>711.10751</ele>
        <time>2021-08-16T02:03:51.978Z</time>
      </trkpt>
      <trkpt lat="42.77055" lon="42.72394">
        <ele>709.44834</ele>
        <time>2021-08-16T02:04:03.511Z</time>
      </trkpt>
      <trkpt lat="42.76975" lon="42.72523">
        <ele>705.159903</ele>
        <time>2021-08-16T02:04:22.111Z</time>
      </trkpt>
      <trkpt lat="42.76958" lon="42.72534">
        <ele>704.363261</ele>
        <time>2021-08-16T02:04:25.012Z</time>
      </trkpt>
      <trkpt lat="42.76937" lon="42.72521">
        <ele>703.386913</ele>
        <time>2021-08-16T02:04:28.602Z</time>
      </trkpt>
      <trkpt lat="42.769" lon="42.72456">
        <ele>700.866276</ele>
        <time>2021-08-16T02:04:38.819Z</time>
      </trkpt>
      <trkpt lat="42.76881" lon="42.72433">
        <ele>701.396304</ele>
        <time>2021-08-16T02:04:44.393Z</time>
      </trkpt>
      <trkpt lat="42.76763" lon="42.72353">
        <ele>709.995576</ele>
        <time>2021-08-16T02:05:57.259Z</time>
      </trkpt>
      <trkpt lat="42.76713" lon="42.72339">
        <ele>713.989366</ele>
        <time>2021-08-16T02:06:40.924Z</time>
      </trkpt>
      <trkpt lat="42.76684" lon="42.72343">
        <ele>717.116749</ele>
        <time>2021-08-16T02:07:06.380Z</time>
      </trkpt>
      <trkpt lat="42.76629" lon="42.7237">
        <ele>723.201578</ele>
        <time>2021-08-16T02:07:53.922Z</time>
      </trkpt>
      <trkpt lat="42.76586" lon="42.72418">
        <ele>729.010001</ele>
        <time>2021-08-16T02:08:36.229Z</time>
      </trkpt>
      <trkpt lat="42.76569" lon="42.72449">
        <ele>731.193124</ele>
        <time>2021-08-16T02:08:55.528Z</time>
      </trkpt>
      <trkpt lat="42.7651" lon="42.72606">
        <ele>734.18029</ele>
        <time>2021-08-16T02:09:45.704Z</time>
      </trkpt>
      <trkpt lat="42.76503" lon="42.72641">
        <ele>734.795622</ele>
        <time>2021-08-16T02:09:50.469Z</time>
      </trkpt>
      <trkpt lat="42.76494" lon="42.72745">
        <ele>729.955167</ele>
        <time>2021-08-16T02:10:02.539Z</time>
      </trkpt>
      <trkpt lat="42.76494" lon="42.72804">
        <ele>726.369674</ele>
        <time>2021-08-16T02:10:08.883Z</time>
      </trkpt>
      <trkpt lat="42.76518" lon="42.72962">
        <ele>716.662029</ele>
        <time>2021-08-16T02:10:25.341Z</time>
      </trkpt>
      <trkpt lat="42.76514" lon="42.73105">
        <ele>708.070151</ele>
        <time>2021-08-16T02:10:40.490Z</time>
      </trkpt>
      <trkpt lat="42.76527" lon="42.73196">
        <ele>707.012158</ele>
        <time>2021-08-16T02:10:52.805Z</time>
      </trkpt>
      <trkpt lat="42.76547" lon="42.7327">
        <ele>709.079924</ele>
        <time>2021-08-16T02:11:15.878Z</time>
      </trkpt>
      <trkpt lat="42.76585" lon="42.73379">
        <ele>712.288223</ele>
        <time>2021-08-16T02:12:08.451Z</time>
      </trkpt>
      <trkpt lat="42.76611" lon="42.73423">
        <ele>714.498786</ele>
        <time>2021-08-16T02:12:35.803Z</time>
      </trkpt>
      <trkpt lat="42.76663" lon="42.7346">
        <ele>717.615704</ele>
        <time>2021-08-16T02:13:08.922Z</time>
      </trkpt>
      <trkpt lat="42.76707" lon="42.73498">
        <ele>720.330861</ele>
        <time>2021-08-16T02:13:31.972Z</time>
      </trkpt>
      <trkpt lat="42.76732" lon="42.73504">
        <ele>721.458844</ele>
        <time>2021-08-16T02:13:40.074Z</time>
      </trkpt>
      <trkpt lat="42.768" lon="42.73479">
        <ele>719.546493</ele>
        <time>2021-08-16T02:13:53.572Z</time>
      </trkpt>
      <trkpt lat="42.76849" lon="42.73521">
        <ele>717.960893</ele>
        <time>2021-08-16T02:14:03.254Z</time>
      </trkpt>
      <trkpt lat="42.76875" lon="42.73573">
        <ele>716.696278</ele>
        <time>2021-08-16T02:14:10.583Z</time>
      </trkpt>
      <trkpt lat="42.76883" lon="42.73612">
        <ele>714.859901</ele>
        <time>2021-08-16T02:14:15.154Z</time>
      </trkpt>
      <trkpt lat="42.769" lon="42.73811">
        <ele>705.133457</ele>
        <time>2021-08-16T02:14:37.137Z</time>
      </trkpt>
      <trkpt lat="42.76886" lon="42.73847">
        <ele>703.895406</ele>
        <time>2021-08-16T02:14:41.716Z</time>
      </trkpt>
      <trkpt lat="42.76823" lon="42.739">
        <ele>701.27014</ele>
        <time>2021-08-16T02:14:53.541Z</time>
      </trkpt>
      <trkpt lat="42.76727" lon="42.74018">
        <ele>698.179319</ele>
        <time>2021-08-16T02:15:18.640Z</time>
      </trkpt>
      <trkpt lat="42.76631" lon="42.74211">
        <ele>695.723042</ele>
        <time>2021-08-16T02:16:00.045Z</time>
      </trkpt>
      <trkpt lat="42.76522" lon="42.74499">
        <ele>684.183064</ele>
        <time>2021-08-16T02:16:35.974Z</time>
      </trkpt>
      <trkpt lat="42.76492" lon="42.74551">
        <ele>681.928618</ele>
        <time>2021-08-16T02:16:43.762Z</time>
      </trkpt>
      <trkpt lat="42.76422" lon="42.74584">
        <ele>681.555568</ele>
        <time>2021-08-16T02:16:59.011Z</time>
      </trkpt>
      <trkpt lat="42.76333" lon="42.74637">
        <ele>684.677209</ele>
        <time>2021-08-16T02:17:41.316Z</time>
      </trkpt>
      <trkpt lat="42.76306" lon="42.74655">
        <ele>685.629521</ele>
        <time>2021-08-16T02:17:57.390Z</time>
      </trkpt>
      <trkpt lat="42.76281" lon="42.74681">
        <ele>686.347239</ele>
        <time>2021-08-16T02:18:14.123Z</time>
      </trkpt>
      <trkpt lat="42.76257" lon="42.74727">
        <ele>686.997364</ele>
        <time>2021-08-16T02:18:34.098Z</time>
      </trkpt>
      <trkpt lat="42.76231" lon="42.74836">
        <ele>688.330146</ele>
        <time>2021-08-16T02:18:55.294Z</time>
      </trkpt>
      <trkpt lat="42.76207" lon="42.74909">
        <ele>688.127566</ele>
        <time>2021-08-16T02:19:06.267Z</time>
      </trkpt>
      <trkpt lat="42.76163" lon="42.75023">
        <ele>684.918831</ele>
        <time>2021-08-16T02:19:22.342Z</time>
      </trkpt>
      <trkpt lat="42.76149" lon="42.75062">
        <ele>683.853986</ele>
        <time>2021-08-16T02:19:27.478Z</time>
      </trkpt>
      <trkpt lat="42.76111" lon="42.75149">
        <ele>680.49019</ele>
        <time>2021-08-16T02:19:39.447Z</time>
      </trkpt>
      <trkpt lat="42.76075" lon="42.75237">
        <ele>676.59193</ele>
        <time>2021-08-16T02:19:51.446Z</time>
      </trkpt>
      <trkpt lat="42.76055" lon="42.75271">
        <ele>674.914338</ele>
        <time>2021-08-16T02:19:56.276Z</time>
      </trkpt>
      <trkpt lat="42.76006" lon="42.75329">
        <ele>671.931489</ele>
        <time>2021-08-16T02:20:06.042Z</time>
      </trkpt>
      <trkpt lat="42.75935" lon="42.75338">
        <ele>669.055451</ele>
        <time>2021-08-16T02:20:17.048Z</time>
      </trkpt>
      <trkpt lat="42.75756" lon="42.7531">
        <ele>666.802987</ele>
        <time>2021-08-16T02:20:53.269Z</time>
      </trkpt>
      <trkpt lat="42.75702" lon="42.75316">
        <ele>667.172208</ele>
        <time>2021-08-16T02:21:14.440Z</time>
      </trkpt>
      <trkpt lat="42.75653" lon="42.7534">
        <ele>667.611616</ele>
        <time>2021-08-16T02:21:33.029Z</time>
      </trkpt>
      <trkpt lat="42.75588" lon="42.75415">
        <ele>668.430886</ele>
        <time>2021-08-16T02:22:00.565Z</time>
      </trkpt>
      <trkpt lat="42.75504" lon="42.75567">
        <ele>666.4484</ele>
        <time>2021-08-16T02:22:27.269Z</time>
      </trkpt>
      <trkpt lat="42.75448" lon="42.75644">
        <ele>663.803786</ele>
        <time>2021-08-16T02:22:40.066Z</time>
      </trkpt>
      <trkpt lat="42.75434" lon="42.75658">
        <ele>663.243563</ele>
        <time>2021-08-16T02:22:42.929Z</time>
      </trkpt>
      <trkpt lat="42.75369" lon="42.75725">
        <ele>659.188024</ele>
        <time>2021-08-16T02:22:55.651Z</time>
      </trkpt>
      <trkpt lat="42.75336" lon="42.75768">
        <ele>656.858551</ele>
        <time>2021-08-16T02:23:02.774Z</time>
      </trkpt>
      <trkpt lat="42.75247" lon="42.75807">
        <ele>652.971865</ele>
        <time>2021-08-16T02:23:17.661Z</time>
      </trkpt>
      <trkpt lat="42.75209" lon="42.7584">
        <ele>651.757397</ele>
        <time>2021-08-16T02:23:25.447Z</time>
      </trkpt>
      <trkpt lat="42.75154" lon="42.75819">
        <ele>650.223395</ele>
        <time>2021-08-16T02:23:36.100Z</time>
      </trkpt>
      <trkpt lat="42.75123" lon="42.75814">
        <ele>649.402193</ele>
        <time>2021-08-16T02:23:42.008Z</time>
      </trkpt>
      <trkpt lat="42.75048" lon="42.75805">
        <ele>647.839717</ele>
        <time>2021-08-16T02:23:56.674Z</time>
      </trkpt>
      <trkpt lat="42.7501" lon="42.75816">
        <ele>647.062295</ele>
        <time>2021-08-16T02:24:04.060Z</time>
      </trkpt>
      <trkpt lat="42.74961" lon="42.75854">
        <ele>645.949397</ele>
        <time>2021-08-16T02:24:14.063Z</time>
      </trkpt>
      <trkpt lat="42.7491" lon="42.7591">
        <ele>645.149734</ele>
        <time>2021-08-16T02:24:25.301Z</time>
      </trkpt>
      <trkpt lat="42.74861" lon="42.75932">
        <ele>644.686373</ele>
        <time>2021-08-16T02:24:34.696Z</time>
      </trkpt>
      <trkpt lat="42.74792" lon="42.75929">
        <ele>644.072425</ele>
        <time>2021-08-16T02:24:49.232Z</time>
      </trkpt>
      <trkpt lat="42.74663" lon="42.75846">
        <ele>647.822967</ele>
        <time>2021-08-16T02:25:46.666Z</time>
      </trkpt>
      <trkpt lat="42.74636" lon="42.75843">
        <ele>648.615985</ele>
        <time>2021-08-16T02:25:58.848Z</time>
      </trkpt>
      <trkpt lat="42.74566" lon="42.75902">
        <ele>648.454544</ele>
        <time>2021-08-16T02:26:25.555Z</time>
      </trkpt>
      <trkpt lat="42.74542" lon="42.75916">
        <ele>648.044311</ele>
        <time>2021-08-16T02:26:31.159Z</time>
      </trkpt>
      <trkpt lat="42.74511" lon="42.75956">
        <ele>647.389853</ele>
        <time>2021-08-16T02:26:38.801Z</time>
      </trkpt>
      <trkpt lat="42.74464" lon="42.76065">
        <ele>644.087399</ele>
        <time>2021-08-16T02:26:53.284Z</time>
      </trkpt>
      <trkpt lat="42.74445" lon="42.76084">
        <ele>642.602523</ele>
        <time>2021-08-16T02:26:56.814Z</time>
      </trkpt>
      <trkpt lat="42.74414" lon="42.76077">
        <ele>640.623359</ele>
        <time>2021-08-16T02:27:01.527Z</time>
      </trkpt>
      <trkpt lat="42.74373" lon="42.76054">
        <ele>637.885174</ele>
        <time>2021-08-16T02:27:08.134Z</time>
      </trkpt>
      <trkpt lat="42.74361" lon="42.76019">
        <ele>636.117601</ele>
        <time>2021-08-16T02:27:12.502Z</time>
      </trkpt>
      <trkpt lat="42.74356" lon="42.75941">
        <ele>633.587175</ele>
        <time>2021-08-16T02:27:21.644Z</time>
      </trkpt>
      <trkpt lat="42.74348" lon="42.759">
        <ele>632.366465</ele>
        <time>2021-08-16T02:27:26.807Z</time>
      </trkpt>
      <trkpt lat="42.74328" lon="42.75867">
        <ele>631.156711</ele>
        <time>2021-08-16T02:27:32.041Z</time>
      </trkpt>
      <trkpt lat="42.74215" lon="42.7579">
        <ele>626.672896</ele>
        <time>2021-08-16T02:27:54.149Z</time>
      </trkpt>
      <trkpt lat="42.7416" lon="42.75783">
        <ele>624.990729</ele>
        <time>2021-08-16T02:28:03.566Z</time>
      </trkpt>
      <trkpt lat="42.74047" lon="42.7574">
        <ele>621.588515</ele>
        <time>2021-08-16T02:28:23.629Z</time>
      </trkpt>
      <trkpt lat="42.74022" lon="42.75738">
        <ele>620.930561</ele>
        <time>2021-08-16T02:28:27.921Z</time>
      </trkpt>
      <trkpt lat="42.73995" lon="42.75752">
        <ele>620.165407</ele>
        <time>2021-08-16T02:28:32.941Z</time>
      </trkpt>
      <trkpt lat="42.73974" lon="42.75774">
        <ele>619.465173</ele>
        <time>2021-08-16T02:28:37.646Z</time>
      </trkpt>
      <trkpt lat="42.73952" lon="42.75781">
        <ele>618.884208</ele>
        <time>2021-08-16T02:28:41.628Z</time>
      </trkpt>
      <trkpt lat="42.73932" lon="42.75775">
        <ele>618.355301</ele>
        <time>2021-08-16T02:28:45.311Z</time>
      </trkpt>
      <trkpt lat="42.73865" lon="42.75717">
        <ele>617.566892</ele>
        <time>2021-08-16T02:29:00.675Z</time>
      </trkpt>
      <trkpt lat="42.73749" lon="42.7565">
        <ele>616.684718</ele>
        <time>2021-08-16T02:29:27.586Z</time>
      </trkpt>
      <trkpt lat="42.73702" lon="42.75632">
        <ele>616.559097</ele>
        <time>2021-08-16T02:29:39.038Z</time>
      </trkpt>
      <trkpt lat="42.73671" lon="42.75636">
        <ele>616.479912</ele>
        <time>2021-08-16T02:29:46.179Z</time>
      </trkpt>
      <trkpt lat="42.73603" lon="42.75661">
        <ele>616.299336</ele>
        <time>2021-08-16T02:30:01.304Z</time>
      </trkpt>
      <trkpt lat="42.73572" lon="42.75655">
        <ele>616.037147</ele>
        <time>2021-08-16T02:30:07.727Z</time>
      </trkpt>
      <trkpt lat="42.73536" lon="42.75632">
        <ele>615.548205</ele>
        <time>2021-08-16T02:30:15.496Z</time>
      </trkpt>
      <trkpt lat="42.73515" lon="42.75608">
        <ele>615.209499</ele>
        <time>2021-08-16T02:30:20.747Z</time>
      </trkpt>
      <trkpt lat="42.73499" lon="42.75575">
        <ele>614.856313</ele>
        <time>2021-08-16T02:30:26.091Z</time>
      </trkpt>
      <trkpt lat="42.73466" lon="42.75524">
        <ele>614.238439</ele>
        <time>2021-08-16T02:30:35.213Z</time>
      </trkpt>
      <trkpt lat="42.73359" lon="42.7547">
        <ele>615.247497</ele>
        <time>2021-08-16T02:30:59.608Z</time>
      </trkpt>
      <trkpt lat="42.7332" lon="42.75472">
        <ele>615.718786</ele>
        <time>2021-08-16T02:31:14.371Z</time>
      </trkpt>
      <trkpt lat="42.7329" lon="42.75472">
        <ele>616.07884</ele>
        <time>2021-08-16T02:31:24.883Z</time>
      </trkpt>
      <trkpt lat="42.73247" lon="42.75473">
        <ele>617.117526</ele>
        <time>2021-08-16T02:31:44.168Z</time>
      </trkpt>
      <trkpt lat="42.73226" lon="42.75477">
        <ele>617.729332</ele>
        <time>2021-08-16T02:31:52.219Z</time>
      </trkpt>
      <trkpt lat="42.73206" lon="42.75489">
        <ele>618.352686</ele>
        <time>2021-08-16T02:32:01.757Z</time>
      </trkpt>
      <trkpt lat="42.73183" lon="42.75511">
        <ele>619.137551</ele>
        <time>2021-08-16T02:32:12.343Z</time>
      </trkpt>
      <trkpt lat="42.73132" lon="42.75602">
        <ele>621.438688</ele>
        <time>2021-08-16T02:32:43.084Z</time>
      </trkpt>
      <trkpt lat="42.73081" lon="42.75715">
        <ele>622.230424</ele>
        <time>2021-08-16T02:33:02.687Z</time>
      </trkpt>
      <trkpt lat="42.73037" lon="42.75775">
        <ele>622.732506</ele>
        <time>2021-08-16T02:33:20.870Z</time>
      </trkpt>
      <trkpt lat="42.72948" lon="42.75855">
        <ele>623.285093</ele>
        <time>2021-08-16T02:33:58.034Z</time>
      </trkpt>
      <trkpt lat="42.72928" lon="42.75876">
        <ele>623.40644</ele>
        <time>2021-08-16T02:34:08.127Z</time>
      </trkpt>
      <trkpt lat="42.72917" lon="42.75914">
        <ele>623.546904</ele>
        <time>2021-08-16T02:34:16.140Z</time>
      </trkpt>
      <trkpt lat="42.72904" lon="42.76008">
        <ele>620.755804</ele>
        <time>2021-08-16T02:34:27.316Z</time>
      </trkpt>
      <trkpt lat="42.72904" lon="42.76045">
        <ele>618.632544</ele>
        <time>2021-08-16T02:34:31.389Z</time>
      </trkpt>
      <trkpt lat="42.72923" lon="42.76104">
        <ele>615.007977</ele>
        <time>2021-08-16T02:34:38.386Z</time>
      </trkpt>
      <trkpt lat="42.72922" lon="42.76129">
        <ele>613.561406</ele>
        <time>2021-08-16T02:34:40.901Z</time>
      </trkpt>
      <trkpt lat="42.7292" lon="42.76148">
        <ele>612.492049</ele>
        <time>2021-08-16T02:34:42.978Z</time>
      </trkpt>
      <trkpt lat="42.72914" lon="42.76163">
        <ele>611.551189</ele>
        <time>2021-08-16T02:34:44.661Z</time>
      </trkpt>
      <trkpt lat="42.72907" lon="42.76169">
        <ele>610.919123</ele>
        <time>2021-08-16T02:34:45.757Z</time>
      </trkpt>
      <trkpt lat="42.72843" lon="42.76164">
        <ele>606.814769</ele>
        <time>2021-08-16T02:34:55.038Z</time>
      </trkpt>
      <trkpt lat="42.72823" lon="42.76165">
        <ele>605.639393</ele>
        <time>2021-08-16T02:34:57.924Z</time>
      </trkpt>
      <trkpt lat="42.72775" lon="42.7616">
        <ele>602.748407</ele>
        <time>2021-08-16T02:35:05.359Z</time>
      </trkpt>
      <trkpt lat="42.72741" lon="42.76154">
        <ele>600.729815</ele>
        <time>2021-08-16T02:35:11.697Z</time>
      </trkpt>
      <trkpt lat="42.72727" lon="42.76146">
        <ele>599.845508</ele>
        <time>2021-08-16T02:35:14.491Z</time>
      </trkpt>
      <trkpt lat="42.72704" lon="42.76117">
        <ele>598.844739</ele>
        <time>2021-08-16T02:35:20.292Z</time>
      </trkpt>
      <trkpt lat="42.72681" lon="42.76076">
        <ele>598.327768</ele>
        <time>2021-08-16T02:35:27.528Z</time>
      </trkpt>
      <trkpt lat="42.7266" lon="42.76052">
        <ele>597.956799</ele>
        <time>2021-08-16T02:35:32.890Z</time>
      </trkpt>
      <trkpt lat="42.72606" lon="42.76034">
        <ele>597.212192</ele>
        <time>2021-08-16T02:35:44.007Z</time>
      </trkpt>
      <trkpt lat="42.7251" lon="42.76013">
        <ele>595.804464</ele>
        <time>2021-08-16T02:36:03.119Z</time>
      </trkpt>
      <trkpt lat="42.72384" lon="42.7604">
        <ele>593.90573</ele>
        <time>2021-08-16T02:36:26.897Z</time>
      </trkpt>
      <trkpt lat="42.72169" lon="42.76032">
        <ele>591.408187</ele>
        <time>2021-08-16T02:37:08.400Z</time>
      </trkpt>
      <trkpt lat="42.72116" lon="42.76003">
        <ele>591.132414</ele>
        <time>2021-08-16T02:37:20.708Z</time>
      </trkpt>
      <trkpt lat="42.72095" lon="42.75986">
        <ele>591.015856</ele>
        <time>2021-08-16T02:37:26.303Z</time>
      </trkpt>
      <trkpt lat="42.72048" lon="42.75956">
        <ele>590.768544</ele>
        <time>2021-08-16T02:37:37.589Z</time>
      </trkpt>
      <trkpt lat="42.72008" lon="42.75956">
        <ele>590.391069</ele>
        <time>2021-08-16T02:37:46.360Z</time>
      </trkpt>
      <trkpt lat="42.71899" lon="42.76032">
        <ele>589.121797</ele>
        <time>2021-08-16T02:38:10.701Z</time>
      </trkpt>
      <trkpt lat="42.71847" lon="42.76055">
        <ele>588.32525</ele>
        <time>2021-08-16T02:38:20.496Z</time>
      </trkpt>
      <trkpt lat="42.71804" lon="42.76067">
        <ele>587.517847</ele>
        <time>2021-08-16T02:38:28.548Z</time>
      </trkpt>
      <trkpt lat="42.71782" lon="42.76068">
        <ele>587.13206</ele>
        <time>2021-08-16T02:38:32.347Z</time>
      </trkpt>
      <trkpt lat="42.71614" lon="42.76035">
        <ele>584.827478</ele>
        <time>2021-08-16T02:39:04.722Z</time>
      </trkpt>
      <trkpt lat="42.7152" lon="42.76023">
        <ele>583.949531</ele>
        <time>2021-08-16T02:39:24.898Z</time>
      </trkpt>
      <trkpt lat="42.71469" lon="42.76032">
        <ele>583.399863</ele>
        <time>2021-08-16T02:39:35.456Z</time>
      </trkpt>
      <trkpt lat="42.71428" lon="42.76051">
        <ele>582.925525</ele>
        <time>2021-08-16T02:39:44.406Z</time>
      </trkpt>
      <trkpt lat="42.71327" lon="42.7613">
        <ele>581.824995</ele>
        <time>2021-08-16T02:40:06.365Z</time>
      </trkpt>
      <trkpt lat="42.71299" lon="42.76139">
        <ele>581.652614</ele>
        <time>2021-08-16T02:40:11.676Z</time>
      </trkpt>
      <trkpt lat="42.71263" lon="42.76131">
        <ele>581.434495</ele>
        <time>2021-08-16T02:40:18.484Z</time>
      </trkpt>
      <trkpt lat="42.71189" lon="42.76079">
        <ele>581.025993</ele>
        <time>2021-08-16T02:40:37.468Z</time>
      </trkpt>
      <trkpt lat="42.71139" lon="42.76047">
        <ele>583.557159</ele>
        <time>2021-08-16T02:40:56.073Z</time>
      </trkpt>
      <trkpt lat="42.71104" lon="42.76006">
        <ele>585.673037</ele>
        <time>2021-08-16T02:41:16.421Z</time>
      </trkpt>
      <trkpt lat="42.71082" lon="42.75988">
        <ele>586.878773</ele>
        <time>2021-08-16T02:41:29.288Z</time>
      </trkpt>
      <trkpt lat="42.71045" lon="42.75972">
        <ele>588.644675</ele>
        <time>2021-08-16T02:41:51.171Z</time>
      </trkpt>
      <trkpt lat="42.71019" lon="42.75971">
        <ele>590.250245</ele>
        <time>2021-08-16T02:42:07.672Z</time>
      </trkpt>
      <trkpt lat="42.70995" lon="42.75981">
        <ele>592.174227</ele>
        <time>2021-08-16T02:42:24.625Z</time>
      </trkpt>
      <trkpt lat="42.70946" lon="42.76011">
        <ele>596.20188</ele>
        <time>2021-08-16T02:43:00.326Z</time>
      </trkpt>
      <trkpt lat="42.7089" lon="42.76063">
        <ele>601.375473</ele>
        <time>2021-08-16T02:43:42.053Z</time>
      </trkpt>
      <trkpt lat="42.70867" lon="42.76101">
        <ele>602.98564</ele>
        <time>2021-08-16T02:44:01.026Z</time>
      </trkpt>
      <trkpt lat="42.7085" lon="42.76157">
        <ele>603.248829</ele>
        <time>2021-08-16T02:44:20.904Z</time>
      </trkpt>
      <trkpt lat="42.70824" lon="42.7631">
        <ele>603.922694</ele>
        <time>2021-08-16T02:44:44.278Z</time>
      </trkpt>
      <trkpt lat="42.70808" lon="42.76377">
        <ele>600.196063</ele>
        <time>2021-08-16T02:44:52.262Z</time>
      </trkpt>
      <trkpt lat="42.70749" lon="42.76504">
        <ele>591.668257</ele>
        <time>2021-08-16T02:45:08.113Z</time>
      </trkpt>
      <trkpt lat="42.70705" lon="42.76544">
        <ele>587.714361</ele>
        <time>2021-08-16T02:45:15.621Z</time>
      </trkpt>
      <trkpt lat="42.70591" lon="42.7654">
        <ele>579.427108</ele>
        <time>2021-08-16T02:45:32.390Z</time>
      </trkpt>
      <trkpt lat="42.70478" lon="42.76572">
        <ele>574.517843</ele>
        <time>2021-08-16T02:45:51.303Z</time>
      </trkpt>
      <trkpt lat="42.70337" lon="42.76595">
        <ele>571.0073</ele>
        <time>2021-08-16T02:46:17.861Z</time>
      </trkpt>
      <trkpt lat="42.70271" lon="42.7659">
        <ele>570.110894</ele>
        <time>2021-08-16T02:46:30.776Z</time>
      </trkpt>
      <trkpt lat="42.70235" lon="42.76574">
        <ele>569.608583</ele>
        <time>2021-08-16T02:46:38.045Z</time>
      </trkpt>
      <trkpt lat="42.70185" lon="42.76555">
        <ele>568.858972</ele>
        <time>2021-08-16T02:46:48.189Z</time>
      </trkpt>
      <trkpt lat="42.70135" lon="42.76536">
        <ele>568.012564</ele>
        <time>2021-08-16T02:46:58.267Z</time>
      </trkpt>
      <trkpt lat="42.70092" lon="42.7651">
        <ele>567.250607</ele>
        <time>2021-08-16T02:47:07.247Z</time>
      </trkpt>
      <trkpt lat="42.7004" lon="42.76433">
        <ele>565.862587</ele>
        <time>2021-08-16T02:47:21.421Z</time>
      </trkpt>
      <trkpt lat="42.7002" lon="42.76369">
        <ele>564.537655</ele>
        <time>2021-08-16T02:47:30.422Z</time>
      </trkpt>
      <trkpt lat="42.70008" lon="42.76269">
        <ele>562.60503</ele>
        <time>2021-08-16T02:47:43.364Z</time>
      </trkpt>
      <trkpt lat="42.69999" lon="42.7622">
        <ele>561.639831</ele>
        <time>2021-08-16T02:47:49.923Z</time>
      </trkpt>
      <trkpt lat="42.69973" lon="42.76156">
        <ele>560.801993</ele>
        <time>2021-08-16T02:47:59.570Z</time>
      </trkpt>
      <trkpt lat="42.6995" lon="42.76114">
        <ele>560.224197</ele>
        <time>2021-08-16T02:48:06.635Z</time>
      </trkpt>
      <trkpt lat="42.69936" lon="42.76095">
        <ele>559.922154</ele>
        <time>2021-08-16T02:48:10.453Z</time>
      </trkpt>
      <trkpt lat="42.69913" lon="42.76083">
        <ele>559.553071</ele>
        <time>2021-08-16T02:48:15.110Z</time>
      </trkpt>
      <trkpt lat="42.69822" lon="42.76062">
        <ele>558.814956</ele>
        <time>2021-08-16T02:48:34.773Z</time>
      </trkpt>
      <trkpt lat="42.69761" lon="42.76058">
        <ele>558.763506</ele>
        <time>2021-08-16T02:48:49.317Z</time>
      </trkpt>
      <trkpt lat="42.69687" lon="42.76062">
        <ele>558.686563</ele>
        <time>2021-08-16T02:49:05.958Z</time>
      </trkpt>
      <trkpt lat="42.69632" lon="42.76073">
        <ele>558.293692</ele>
        <time>2021-08-16T02:49:17.591Z</time>
      </trkpt>
      <trkpt lat="42.69571" lon="42.76101">
        <ele>557.837421</ele>
        <time>2021-08-16T02:49:30.542Z</time>
      </trkpt>
      <trkpt lat="42.69518" lon="42.76111">
        <ele>557.460488</ele>
        <time>2021-08-16T02:49:41.118Z</time>
      </trkpt>
      <trkpt lat="42.69427" lon="42.76077">
        <ele>556.510225</ele>
        <time>2021-08-16T02:49:59.874Z</time>
      </trkpt>
      <trkpt lat="42.69346" lon="42.76059">
        <ele>555.677237</ele>
        <time>2021-08-16T02:50:16.092Z</time>
      </trkpt>
      <trkpt lat="42.6927" lon="42.76061">
        <ele>554.650011</ele>
        <time>2021-08-16T02:50:31.218Z</time>
      </trkpt>
      <trkpt lat="42.6917" lon="42.76113">
        <ele>553.173822</ele>
        <time>2021-08-16T02:50:51.382Z</time>
      </trkpt>
      <trkpt lat="42.69141" lon="42.76116">
        <ele>552.870809</ele>
        <time>2021-08-16T02:50:56.770Z</time>
      </trkpt>
      <trkpt lat="42.69118" lon="42.76112">
        <ele>552.636963</ele>
        <time>2021-08-16T02:51:01.269Z</time>
      </trkpt>
      <trkpt lat="42.69069" lon="42.76081">
        <ele>552.115128</ele>
        <time>2021-08-16T02:51:11.625Z</time>
      </trkpt>
      <trkpt lat="42.6904" lon="42.76079">
        <ele>551.83774</ele>
        <time>2021-08-16T02:51:17.344Z</time>
      </trkpt>
      <trkpt lat="42.69006" lon="42.76086">
        <ele>551.49804</ele>
        <time>2021-08-16T02:51:24.609Z</time>
      </trkpt>
      <trkpt lat="42.68971" lon="42.76101">
        <ele>551.624738</ele>
        <time>2021-08-16T02:51:32.552Z</time>
      </trkpt>
      <trkpt lat="42.6878" lon="42.76224">
        <ele>554.417297</ele>
        <time>2021-08-16T02:52:36.460Z</time>
      </trkpt>
      <trkpt lat="42.68708" lon="42.76249">
        <ele>555.616667</ele>
        <time>2021-08-16T02:52:59.970Z</time>
      </trkpt>
      <trkpt lat="42.68666" lon="42.76284">
        <ele>556.414681</ele>
        <time>2021-08-16T02:53:14.591Z</time>
      </trkpt>
      <trkpt lat="42.68642" lon="42.76311">
        <ele>556.791784</ele>
        <time>2021-08-16T02:53:23.448Z</time>
      </trkpt>
      <trkpt lat="42.68516" lon="42.7648">
        <ele>559.097301</ele>
        <time>2021-08-16T02:54:11.814Z</time>
      </trkpt>
      <trkpt lat="42.68485" lon="42.76508">
        <ele>559.894055</ele>
        <time>2021-08-16T02:54:23.467Z</time>
      </trkpt>
      <trkpt lat="42.68439" lon="42.76564">
        <ele>561.213331</ele>
        <time>2021-08-16T02:54:44.579Z</time>
      </trkpt>
      <trkpt lat="42.68442" lon="42.7659">
        <ele>561.622784</ele>
        <time>2021-08-16T02:54:51.664Z</time>
      </trkpt>
      <trkpt lat="42.68464" lon="42.76673">
        <ele>562.560689</ele>
        <time>2021-08-16T02:55:14.914Z</time>
      </trkpt>
      <trkpt lat="42.68452" lon="42.76712">
        <ele>562.745266</ele>
        <time>2021-08-16T02:55:26.029Z</time>
      </trkpt>
      <trkpt lat="42.68428" lon="42.7674">
        <ele>562.924278</ele>
        <time>2021-08-16T02:55:36.252Z</time>
      </trkpt>
      <trkpt lat="42.68412" lon="42.76754">
        <ele>563.037343</ele>
        <time>2021-08-16T02:55:41.864Z</time>
      </trkpt>
      <trkpt lat="42.68402" lon="42.76763">
        <ele>563.10677</ele>
        <time>2021-08-16T02:55:44.624Z</time>
      </trkpt>
      <trkpt lat="42.68374" lon="42.76783">
        <ele>563.292294</ele>
        <time>2021-08-16T02:55:51.139Z</time>
      </trkpt>
      <trkpt lat="42.68302" lon="42.76839">
        <ele>560.603968</ele>
        <time>2021-08-16T02:56:05.136Z</time>
      </trkpt>
      <trkpt lat="42.6829" lon="42.76849">
        <ele>559.934076</ele>
        <time>2021-08-16T02:56:07.275Z</time>
      </trkpt>
      <trkpt lat="42.68267" lon="42.76868">
        <ele>558.608183</ele>
        <time>2021-08-16T02:56:11.397Z</time>
      </trkpt>
      <trkpt lat="42.6821" lon="42.76898">
        <ele>555.530435</ele>
        <time>2021-08-16T02:56:20.864Z</time>
      </trkpt>
      <trkpt lat="42.68159" lon="42.76911">
        <ele>553.560506</ele>
        <time>2021-08-16T02:56:28.640Z</time>
      </trkpt>
      <trkpt lat="42.68137" lon="42.76909">
        <ele>552.872144</ele>
        <time>2021-08-16T02:56:31.987Z</time>
      </trkpt>
      <trkpt lat="42.67691" lon="42.76714">
        <ele>540.206605</ele>
        <time>2021-08-16T02:57:55.533Z</time>
      </trkpt>
      <trkpt lat="42.67665" lon="42.76715">
        <ele>539.892474</ele>
        <time>2021-08-16T02:58:01.344Z</time>
      </trkpt>
      <trkpt lat="42.67633" lon="42.76728">
        <ele>540.028739</ele>
        <time>2021-08-16T02:58:09.179Z</time>
      </trkpt>
      <trkpt lat="42.67533" lon="42.76723">
        <ele>540.436209</ele>
        <time>2021-08-16T02:58:35.010Z</time>
      </trkpt>
      <trkpt lat="42.6749" lon="42.76738">
        <ele>540.612584</ele>
        <time>2021-08-16T02:58:46.831Z</time>
      </trkpt>
      <trkpt lat="42.67354" lon="42.76728">
        <ele>541.104738</ele>
        <time>2021-08-16T02:59:21.279Z</time>
      </trkpt>
      <trkpt lat="42.67068" lon="42.76809">
        <ele>538.353631</ele>
        <time>2021-08-16T03:00:22.451Z</time>
      </trkpt>
      <trkpt lat="42.67006" lon="42.76814">
        <ele>536.619557</ele>
        <time>2021-08-16T03:00:32.610Z</time>
      </trkpt>
      <trkpt lat="42.66977" lon="42.76837">
        <ele>535.682568</ele>
        <time>2021-08-16T03:00:38.014Z</time>
      </trkpt>
      <trkpt lat="42.66926" lon="42.76865">
        <ele>533.946102</ele>
        <time>2021-08-16T03:00:46.693Z</time>
      </trkpt>
      <trkpt lat="42.66867" lon="42.76848">
        <ele>531.961087</ele>
        <time>2021-08-16T03:00:56.406Z</time>
      </trkpt>
      <trkpt lat="42.66677" lon="42.76764">
        <ele>528.249798</ele>
        <time>2021-08-16T03:01:34.931Z</time>
      </trkpt>
      <trkpt lat="42.66634" lon="42.76758">
        <ele>527.817297</ele>
        <time>2021-08-16T03:01:44.836Z</time>
      </trkpt>
      <trkpt lat="42.66547" lon="42.76806">
        <ele>526.387863</ele>
        <time>2021-08-16T03:02:04.045Z</time>
      </trkpt>
      <trkpt lat="42.66498" lon="42.76826">
        <ele>525.561961</ele>
        <time>2021-08-16T03:02:13.672Z</time>
      </trkpt>
      <trkpt lat="42.66436" lon="42.76846">
        <ele>524.432822</ele>
        <time>2021-08-16T03:02:24.693Z</time>
      </trkpt>
      <trkpt lat="42.66365" lon="42.7686">
        <ele>522.831249</ele>
        <time>2021-08-16T03:02:36.842Z</time>
      </trkpt>
      <trkpt lat="42.66316" lon="42.76858">
        <ele>521.72185</ele>
        <time>2021-08-16T03:02:45.274Z</time>
      </trkpt>
      <trkpt lat="42.66166" lon="42.76793">
        <ele>522.111125</ele>
        <time>2021-08-16T03:03:20.363Z</time>
      </trkpt>
      <trkpt lat="42.66133" lon="42.76786">
        <ele>522.478971</ele>
        <time>2021-08-16T03:03:31.864Z</time>
      </trkpt>
      <trkpt lat="42.66108" lon="42.76791">
        <ele>522.77218</ele>
        <time>2021-08-16T03:03:41.959Z</time>
      </trkpt>
      <trkpt lat="42.66041" lon="42.76825">
        <ele>526.12602</ele>
        <time>2021-08-16T03:04:12.772Z</time>
      </trkpt>
      <trkpt lat="42.65968" lon="42.76828">
        <ele>529.774132</ele>
        <time>2021-08-16T03:04:50.626Z</time>
      </trkpt>
      <trkpt lat="42.659" lon="42.76886">
        <ele>534.178445</ele>
        <time>2021-08-16T03:05:30.144Z</time>
      </trkpt>
      <trkpt lat="42.65829" lon="42.76901">
        <ele>538.474219</ele>
        <time>2021-08-16T03:06:07.741Z</time>
      </trkpt>
      <trkpt lat="42.65796" lon="42.76919">
        <ele>540.630426</ele>
        <time>2021-08-16T03:06:28.004Z</time>
      </trkpt>
      <trkpt lat="42.65777" lon="42.76951">
        <ele>542.435097</ele>
        <time>2021-08-16T03:06:44.194Z</time>
      </trkpt>
      <trkpt lat="42.65768" lon="42.76983">
        <ele>542.880256</ele>
        <time>2021-08-16T03:06:57.418Z</time>
      </trkpt>
      <trkpt lat="42.65771" lon="42.76993">
        <ele>542.988951</ele>
        <time>2021-08-16T03:07:01.233Z</time>
      </trkpt>
      <trkpt lat="42.6575" lon="42.77038">
        <ele>543.519715</ele>
        <time>2021-08-16T03:07:20.495Z</time>
      </trkpt>
      <trkpt lat="42.65753" lon="42.77053">
        <ele>543.670949</ele>
        <time>2021-08-16T03:07:26.088Z</time>
      </trkpt>
      <trkpt lat="42.65757" lon="42.7706">
        <ele>543.761831</ele>
        <time>2021-08-16T03:07:29.190Z</time>
      </trkpt>
      <trkpt lat="42.65732" lon="42.77087">
        <ele>544.190603</ele>
        <time>2021-08-16T03:07:38.086Z</time>
      </trkpt>
      <trkpt lat="42.65684" lon="42.77115">
        <ele>544.893875</ele>
        <time>2021-08-16T03:07:47.172Z</time>
      </trkpt>
      <trkpt lat="42.65642" lon="42.77167">
        <ele>539.960852</ele>
        <time>2021-08-16T03:07:55.723Z</time>
      </trkpt>
      <trkpt lat="42.65637" lon="42.77181">
        <ele>538.728702</ele>
        <time>2021-08-16T03:07:57.472Z</time>
      </trkpt>
      <trkpt lat="42.65607" lon="42.77231">
        <ele>533.733066</ele>
        <time>2021-08-16T03:08:04.062Z</time>
      </trkpt>
      <trkpt lat="42.65589" lon="42.77259">
        <ele>530.854372</ele>
        <time>2021-08-16T03:08:07.804Z</time>
      </trkpt>
      <trkpt lat="42.65591" lon="42.77292">
        <ele>528.305688</ele>
        <time>2021-08-16T03:08:11.087Z</time>
      </trkpt>
      <trkpt lat="42.65581" lon="42.7732">
        <ele>525.926054</ele>
        <time>2021-08-16T03:08:14.132Z</time>
      </trkpt>
      <trkpt lat="42.65553" lon="42.77364">
        <ele>521.764393</ele>
        <time>2021-08-16T03:08:19.939Z</time>
      </trkpt>
      <trkpt lat="42.65539" lon="42.77376">
        <ele>520.115326</ele>
        <time>2021-08-16T03:08:22.241Z</time>
      </trkpt>
      <trkpt lat="42.65511" lon="42.7738">
        <ele>517.413348</ele>
        <time>2021-08-16T03:08:26.182Z</time>
      </trkpt>
      <trkpt lat="42.65495" lon="42.77379">
        <ele>515.848201</ele>
        <time>2021-08-16T03:08:28.455Z</time>
      </trkpt>
      <trkpt lat="42.65487" lon="42.77376">
        <ele>515.075677</ele>
        <time>2021-08-16T03:08:29.682Z</time>
      </trkpt>
      <trkpt lat="42.65472" lon="42.77366">
        <ele>513.440837</ele>
        <time>2021-08-16T03:08:32.172Z</time>
      </trkpt>
      <trkpt lat="42.65428" lon="42.77293">
        <ele>508.177548</ele>
        <time>2021-08-16T03:08:42.960Z</time>
      </trkpt>
      <trkpt lat="42.65397" lon="42.77247">
        <ele>507.184929</ele>
        <time>2021-08-16T03:08:50.770Z</time>
      </trkpt>
      <trkpt lat="42.65397" lon="42.77246">
        <ele>507.163127</ele>
        <time>2021-08-16T03:08:50.932Z</time>
      </trkpt>
      <trkpt lat="42.65386" lon="42.77234">
        <ele>506.873604</ele>
        <time>2021-08-16T03:08:53.708Z</time>
      </trkpt>
      <trkpt lat="42.65383" lon="42.77231">
        <ele>506.77948</ele>
        <time>2021-08-16T03:08:54.617Z</time>
      </trkpt>
      <trkpt lat="42.65378" lon="42.77228">
        <ele>506.664685</ele>
        <time>2021-08-16T03:08:55.643Z</time>
      </trkpt>
      <trkpt lat="42.65296" lon="42.77204">
        <ele>504.86031</ele>
        <time>2021-08-16T03:09:13.247Z</time>
      </trkpt>
      <trkpt lat="42.65269" lon="42.77198">
        <ele>504.499081</ele>
        <time>2021-08-16T03:09:18.637Z</time>
      </trkpt>
      <trkpt lat="42.65262" lon="42.77197">
        <ele>504.429574</ele>
        <time>2021-08-16T03:09:19.984Z</time>
      </trkpt>
      <trkpt lat="42.65251" lon="42.77196">
        <ele>504.313926</ele>
        <time>2021-08-16T03:09:22.106Z</time>
      </trkpt>
      <trkpt lat="42.65174" lon="42.77175">
        <ele>503.466616</ele>
        <time>2021-08-16T03:09:37.813Z</time>
      </trkpt>
      <trkpt lat="42.65153" lon="42.77167">
        <ele>503.225947</ele>
        <time>2021-08-16T03:09:42.278Z</time>
      </trkpt>
      <trkpt lat="42.65142" lon="42.77162">
        <ele>503.103391</ele>
        <time>2021-08-16T03:09:44.472Z</time>
      </trkpt>
      <trkpt lat="42.65071" lon="42.77121">
        <ele>501.879973</ele>
        <time>2021-08-16T03:09:59.118Z</time>
      </trkpt>
      <trkpt lat="42.65048" lon="42.77106">
        <ele>501.398722</ele>
        <time>2021-08-16T03:10:03.798Z</time>
      </trkpt>
      <trkpt lat="42.65034" lon="42.77098">
        <ele>501.114203</ele>
        <time>2021-08-16T03:10:06.481Z</time>
      </trkpt>
      <trkpt lat="42.65002" lon="42.77081">
        <ele>500.473202</ele>
        <time>2021-08-16T03:10:12.619Z</time>
      </trkpt>
      <trkpt lat="42.64985" lon="42.77072">
        <ele>500.128551</ele>
        <time>2021-08-16T03:10:15.907Z</time>
      </trkpt>
      <trkpt lat="42.64914" lon="42.77036">
        <ele>498.909926</ele>
        <time>2021-08-16T03:10:29.862Z</time>
      </trkpt>
      <trkpt lat="42.64901" lon="42.77023">
        <ele>498.691264</ele>
        <time>2021-08-16T03:10:32.887Z</time>
      </trkpt>
      <trkpt lat="42.64878" lon="42.76995">
        <ele>498.290439</ele>
        <time>2021-08-16T03:10:38.662Z</time>
      </trkpt>
      <trkpt lat="42.64852" lon="42.76961">
        <ele>497.814167</ele>
        <time>2021-08-16T03:10:45.603Z</time>
      </trkpt>
      <trkpt lat="42.64838" lon="42.76942">
        <ele>497.544157</ele>
        <time>2021-08-16T03:10:49.859Z</time>
      </trkpt>
      <trkpt lat="42.64809" lon="42.76902">
        <ele>497.013652</ele>
        <time>2021-08-16T03:10:58.257Z</time>
      </trkpt>
      <trkpt lat="42.64676" lon="42.76752">
        <ele>495.86624</ele>
        <time>2021-08-16T03:11:34.541Z</time>
      </trkpt>
      <trkpt lat="42.64666" lon="42.76742">
        <ele>495.720317</ele>
        <time>2021-08-16T03:11:36.924Z</time>
      </trkpt>
      <trkpt lat="42.64654" lon="42.7673">
        <ele>495.476647</ele>
        <time>2021-08-16T03:11:39.808Z</time>
      </trkpt>
      <trkpt lat="42.64636" lon="42.76712">
        <ele>495.106346</ele>
        <time>2021-08-16T03:11:44.004Z</time>
      </trkpt>
      <trkpt lat="42.6461" lon="42.76687">
        <ele>494.588988</ele>
        <time>2021-08-16T03:11:49.852Z</time>
      </trkpt>
      <trkpt lat="42.64546" lon="42.76587">
        <ele>492.986612</ele>
        <time>2021-08-16T03:12:07.920Z</time>
      </trkpt>
      <trkpt lat="42.64533" lon="42.76565">
        <ele>492.68213</ele>
        <time>2021-08-16T03:12:11.770Z</time>
      </trkpt>
      <trkpt lat="42.64492" lon="42.76495">
        <ele>491.811078</ele>
        <time>2021-08-16T03:12:24.185Z</time>
      </trkpt>
      <trkpt lat="42.64481" lon="42.76475">
        <ele>491.557021</ele>
        <time>2021-08-16T03:12:27.955Z</time>
      </trkpt>
      <trkpt lat="42.64461" lon="42.76454">
        <ele>491.221227</ele>
        <time>2021-08-16T03:12:32.804Z</time>
      </trkpt>
      <trkpt lat="42.64412" lon="42.76431">
        <ele>490.534929</ele>
        <time>2021-08-16T03:12:43.092Z</time>
      </trkpt>
      <trkpt lat="42.64374" lon="42.76412">
        <ele>490.134298</ele>
        <time>2021-08-16T03:12:51.303Z</time>
      </trkpt>
      <trkpt lat="42.64317" lon="42.76387">
        <ele>489.564898</ele>
        <time>2021-08-16T03:13:03.294Z</time>
      </trkpt>
      <trkpt lat="42.64305" lon="42.76381">
        <ele>489.440256</ele>
        <time>2021-08-16T03:13:05.906Z</time>
      </trkpt>
      <trkpt lat="42.64248" lon="42.76342">
        <ele>488.830006</ele>
        <time>2021-08-16T03:13:18.535Z</time>
      </trkpt>
      <trkpt lat="42.64221" lon="42.76321">
        <ele>488.541931</ele>
        <time>2021-08-16T03:13:24.788Z</time>
      </trkpt>
      <trkpt lat="42.6414" lon="42.76242">
        <ele>487.642233</ele>
        <time>2021-08-16T03:13:44.701Z</time>
      </trkpt>
      <trkpt lat="42.64124" lon="42.76222">
        <ele>487.44794</ele>
        <time>2021-08-16T03:13:49.051Z</time>
      </trkpt>
      <trkpt lat="42.6408" lon="42.76168">
        <ele>486.940466</ele>
        <time>2021-08-16T03:14:01.225Z</time>
      </trkpt>
      <trkpt lat="42.64007" lon="42.76082">
        <ele>486.197708</ele>
        <time>2021-08-16T03:14:20.262Z</time>
      </trkpt>
      <trkpt lat="42.63986" lon="42.76063">
        <ele>486.00558</ele>
        <time>2021-08-16T03:14:25.205Z</time>
      </trkpt>
      <trkpt lat="42.63881" lon="42.75964">
        <ele>485.575474</ele>
        <time>2021-08-16T03:14:53.483Z</time>
      </trkpt>
      <trkpt lat="42.63875" lon="42.7596">
        <ele>485.56372</ele>
        <time>2021-08-16T03:14:54.853Z</time>
      </trkpt>
      <trkpt lat="42.63841" lon="42.75933">
        <ele>485.492473</ele>
        <time>2021-08-16T03:15:03.295Z</time>
      </trkpt>
      <trkpt lat="42.63768" lon="42.75871">
        <ele>485.019176</ele>
        <time>2021-08-16T03:15:22.052Z</time>
      </trkpt>
      <trkpt lat="42.6373" lon="42.75845">
        <ele>484.652522</ele>
        <time>2021-08-16T03:15:31.278Z</time>
      </trkpt>
      <trkpt lat="42.63727" lon="42.75843">
        <ele>484.621575</ele>
        <time>2021-08-16T03:15:31.876Z</time>
      </trkpt>
      <trkpt lat="42.63631" lon="42.75798">
        <ele>483.672134</ele>
        <time>2021-08-16T03:15:51.345Z</time>
      </trkpt>
      <trkpt lat="42.63538" lon="42.75745">
        <ele>482.224781</ele>
        <time>2021-08-16T03:16:10.004Z</time>
      </trkpt>
      <trkpt lat="42.63491" lon="42.75716">
        <ele>481.490013</ele>
        <time>2021-08-16T03:16:20.167Z</time>
      </trkpt>
      <trkpt lat="42.63447" lon="42.75682">
        <ele>481.407476</ele>
        <time>2021-08-16T03:16:30.828Z</time>
      </trkpt>
      <trkpt lat="42.63425" lon="42.75651">
        <ele>481.490487</ele>
        <time>2021-08-16T03:16:37.696Z</time>
      </trkpt>
      <trkpt lat="42.63407" lon="42.75609">
        <ele>481.584817</ele>
        <time>2021-08-16T03:16:46.253Z</time>
      </trkpt>
      <trkpt lat="42.63387" lon="42.75475">
        <ele>481.834172</ele>
        <time>2021-08-16T03:17:13.971Z</time>
      </trkpt>
      <trkpt lat="42.63363" lon="42.75356">
        <ele>482.00649</ele>
        <time>2021-08-16T03:17:36.273Z</time>
      </trkpt>
      <trkpt lat="42.63343" lon="42.75321">
        <ele>482.069165</ele>
        <time>2021-08-16T03:17:43.517Z</time>
      </trkpt>
      <trkpt lat="42.63223" lon="42.75162">
        <ele>480.850158</ele>
        <time>2021-08-16T03:18:17.144Z</time>
      </trkpt>
      <trkpt lat="42.63153" lon="42.75054">
        <ele>479.630562</ele>
        <time>2021-08-16T03:18:37.762Z</time>
      </trkpt>
      <trkpt lat="42.63082" lon="42.7493">
        <ele>478.125606</ele>
        <time>2021-08-16T03:19:00.131Z</time>
      </trkpt>
      <trkpt lat="42.63053" lon="42.74888">
        <ele>477.516788</ele>
        <time>2021-08-16T03:19:08.302Z</time>
      </trkpt>
      <trkpt lat="42.62874" lon="42.74605">
        <ele>473.547423</ele>
        <time>2021-08-16T03:20:00.548Z</time>
      </trkpt>
      <trkpt lat="42.62814" lon="42.74492">
        <ele>472.167404</ele>
        <time>2021-08-16T03:20:20.506Z</time>
      </trkpt>
      <trkpt lat="42.62804" lon="42.74474">
        <ele>471.965453</ele>
        <time>2021-08-16T03:20:23.626Z</time>
      </trkpt>
      <trkpt lat="42.62742" lon="42.74351">
        <ele>470.612766</ele>
        <time>2021-08-16T03:20:45.239Z</time>
      </trkpt>
      <trkpt lat="42.62606" lon="42.74113">
        <ele>468.275982</ele>
        <time>2021-08-16T03:21:29.269Z</time>
      </trkpt>
      <trkpt lat="42.62562" lon="42.74048">
        <ele>467.570884</ele>
        <time>2021-08-16T03:21:41.995Z</time>
      </trkpt>
      <trkpt lat="42.62471" lon="42.73947">
        <ele>466.756985</ele>
        <time>2021-08-16T03:22:04.952Z</time>
      </trkpt>
      <trkpt lat="42.62429" lon="42.73892">
        <ele>466.66942</ele>
        <time>2021-08-16T03:22:17.519Z</time>
      </trkpt>
      <trkpt lat="42.62397" lon="42.73842">
        <ele>466.596517</ele>
        <time>2021-08-16T03:22:28.817Z</time>
      </trkpt>
      <trkpt lat="42.62377" lon="42.73809">
        <ele>466.6648</ele>
        <time>2021-08-16T03:22:37.234Z</time>
      </trkpt>
      <trkpt lat="42.62345" lon="42.73753">
        <ele>467.403284</ele>
        <time>2021-08-16T03:22:52.839Z</time>
      </trkpt>
      <trkpt lat="42.62319" lon="42.73687">
        <ele>468.176672</ele>
        <time>2021-08-16T03:23:09.830Z</time>
      </trkpt>
      <trkpt lat="42.62296" lon="42.73611">
        <ele>469.028839</ele>
        <time>2021-08-16T03:23:28.743Z</time>
      </trkpt>
      <trkpt lat="42.6228" lon="42.73573">
        <ele>468.826608</ele>
        <time>2021-08-16T03:23:37.393Z</time>
      </trkpt>
      <trkpt lat="42.62268" lon="42.73551">
        <ele>468.631498</ele>
        <time>2021-08-16T03:23:42.397Z</time>
      </trkpt>
      <trkpt lat="42.62234" lon="42.73516">
        <ele>468.223233</ele>
        <time>2021-08-16T03:23:51.996Z</time>
      </trkpt>
      <trkpt lat="42.6221" lon="42.73505">
        <ele>467.976269</ele>
        <time>2021-08-16T03:23:57.112Z</time>
      </trkpt>
      <trkpt lat="42.62178" lon="42.735">
        <ele>467.666909</ele>
        <time>2021-08-16T03:24:02.870Z</time>
      </trkpt>
      <trkpt lat="42.62089" lon="42.73489">
        <ele>465.202044</ele>
        <time>2021-08-16T03:24:17.868Z</time>
      </trkpt>
      <trkpt lat="42.62062" lon="42.73483">
        <ele>464.166884</ele>
        <time>2021-08-16T03:24:22.370Z</time>
      </trkpt>
      <trkpt lat="42.62034" lon="42.73471">
        <ele>463.077214</ele>
        <time>2021-08-16T03:24:27.057Z</time>
      </trkpt>
      <trkpt lat="42.61699" lon="42.73294">
        <ele>450.761695</ele>
        <time>2021-08-16T03:25:27.149Z</time>
      </trkpt>
      <trkpt lat="42.61653" lon="42.73249">
        <ele>449.124562</ele>
        <time>2021-08-16T03:25:37.540Z</time>
      </trkpt>
      <trkpt lat="42.61549" lon="42.73079">
        <ele>447.062083</ele>
        <time>2021-08-16T03:26:09.551Z</time>
      </trkpt>
      <trkpt lat="42.6149" lon="42.73001">
        <ele>446.28587</ele>
        <time>2021-08-16T03:26:26.298Z</time>
      </trkpt>
      <trkpt lat="42.61117" lon="42.72547">
        <ele>442.254272</ele>
        <time>2021-08-16T03:28:07.479Z</time>
      </trkpt>
      <trkpt lat="42.60868" lon="42.72258">
        <ele>441.052326</ele>
        <time>2021-08-16T03:29:17.388Z</time>
      </trkpt>
      <trkpt lat="42.60779" lon="42.72137">
        <ele>440.448903</ele>
        <time>2021-08-16T03:29:44.044Z</time>
      </trkpt>
      <trkpt lat="42.60672" lon="42.72011">
        <ele>439.474964</ele>
        <time>2021-08-16T03:30:13.438Z</time>
      </trkpt>
      <trkpt lat="42.60511" lon="42.718">
        <ele>437.098894</ele>
        <time>2021-08-16T03:30:57.479Z</time>
      </trkpt>
      <trkpt lat="42.60433" lon="42.71712">
        <ele>435.834347</ele>
        <time>2021-08-16T03:31:16.888Z</time>
      </trkpt>
      <trkpt lat="42.60413" lon="42.7169">
        <ele>435.519664</ele>
        <time>2021-08-16T03:31:21.785Z</time>
      </trkpt>
      <trkpt lat="42.60178" lon="42.71505">
        <ele>432.696662</ele>
        <time>2021-08-16T03:32:15.582Z</time>
      </trkpt>
      <trkpt lat="42.60093" lon="42.71433">
        <ele>432.210282</ele>
        <time>2021-08-16T03:32:36.680Z</time>
      </trkpt>
      <trkpt lat="42.60061" lon="42.71406">
        <ele>432.077206</ele>
        <time>2021-08-16T03:32:44.732Z</time>
      </trkpt>
      <trkpt lat="42.59971" lon="42.71315">
        <ele>431.76832</ele>
        <time>2021-08-16T03:33:09.117Z</time>
      </trkpt>
      <trkpt lat="42.5988" lon="42.71214">
        <ele>431.574953</ele>
        <time>2021-08-16T03:33:34.842Z</time>
      </trkpt>
      <trkpt lat="42.59816" lon="42.71148">
        <ele>431.423027</ele>
        <time>2021-08-16T03:33:52.289Z</time>
      </trkpt>
      <trkpt lat="42.59781" lon="42.71112">
        <ele>431.33809</ele>
        <time>2021-08-16T03:34:01.696Z</time>
      </trkpt>
      <trkpt lat="42.59679" lon="42.70998">
        <ele>431.238218</ele>
        <time>2021-08-16T03:34:30.342Z</time>
      </trkpt>
      <trkpt lat="42.59257" lon="42.70555">
        <ele>431.400532</ele>
        <time>2021-08-16T03:36:31.811Z</time>
      </trkpt>
      <trkpt lat="42.59246" lon="42.70541">
        <ele>431.335968</ele>
        <time>2021-08-16T03:36:35.463Z</time>
      </trkpt>
      <trkpt lat="42.5923" lon="42.70517">
        <ele>431.235953</ele>
        <time>2021-08-16T03:36:40.312Z</time>
      </trkpt>
      <trkpt lat="42.59201" lon="42.70463">
        <ele>431.02576</ele>
        <time>2021-08-16T03:36:50.773Z</time>
      </trkpt>
      <trkpt lat="42.59147" lon="42.70317">
        <ele>429.617606</ele>
        <time>2021-08-16T03:37:14.366Z</time>
      </trkpt>
      <trkpt lat="42.5911" lon="42.70244">
        <ele>428.641441</ele>
        <time>2021-08-16T03:37:26.413Z</time>
      </trkpt>
      <trkpt lat="42.59051" lon="42.7015">
        <ele>427.509989</ele>
        <time>2021-08-16T03:37:43.427Z</time>
      </trkpt>
      <trkpt lat="42.59035" lon="42.7013">
        <ele>427.271061</ele>
        <time>2021-08-16T03:37:47.765Z</time>
      </trkpt>
      <trkpt lat="42.58996" lon="42.70103">
        <ele>426.794234</ele>
        <time>2021-08-16T03:37:56.468Z</time>
      </trkpt>
      <trkpt lat="42.58941" lon="42.70093">
        <ele>426.191569</ele>
        <time>2021-08-16T03:38:08.024Z</time>
      </trkpt>
      <trkpt lat="42.58915" lon="42.70087">
        <ele>426.136817</ele>
        <time>2021-08-16T03:38:13.417Z</time>
      </trkpt>
      <trkpt lat="42.589" lon="42.70078">
        <ele>426.101948</ele>
        <time>2021-08-16T03:38:17.251Z</time>
      </trkpt>
      <trkpt lat="42.5886" lon="42.70038">
        <ele>425.996403</ele>
        <time>2021-08-16T03:38:28.182Z</time>
      </trkpt>
      <trkpt lat="42.58804" lon="42.69951">
        <ele>425.816589</ele>
        <time>2021-08-16T03:38:47.052Z</time>
      </trkpt>
      <trkpt lat="42.58761" lon="42.69853">
        <ele>425.562024</ele>
        <time>2021-08-16T03:39:04.658Z</time>
      </trkpt>
      <trkpt lat="42.58744" lon="42.69789">
        <ele>425.407823</ele>
        <time>2021-08-16T03:39:14.966Z</time>
      </trkpt>
      <trkpt lat="42.58724" lon="42.69738">
        <ele>425.278337</ele>
        <time>2021-08-16T03:39:24.017Z</time>
      </trkpt>
      <trkpt lat="42.58701" lon="42.69706">
        <ele>425.716121</ele>
        <time>2021-08-16T03:39:31.423Z</time>
      </trkpt>
      <trkpt lat="42.58642" lon="42.69658">
        <ele>426.8944</ele>
        <time>2021-08-16T03:39:49.778Z</time>
      </trkpt>
      <trkpt lat="42.5862" lon="42.69631">
        <ele>427.396412</ele>
        <time>2021-08-16T03:39:59.386Z</time>
      </trkpt>
      <trkpt lat="42.5861" lon="42.69597">
        <ele>427.853366</ele>
        <time>2021-08-16T03:40:08.893Z</time>
      </trkpt>
      <trkpt lat="42.58604" lon="42.69557">
        <ele>428.511105</ele>
        <time>2021-08-16T03:40:20.975Z</time>
      </trkpt>
      <trkpt lat="42.58597" lon="42.69498">
        <ele>431.124141</ele>
        <time>2021-08-16T03:40:40.421Z</time>
      </trkpt>
      <trkpt lat="42.58595" lon="42.69415">
        <ele>434.795629</ele>
        <time>2021-08-16T03:41:11.979Z</time>
      </trkpt>
      <trkpt lat="42.58588" lon="42.69385">
        <ele>436.163068</ele>
        <time>2021-08-16T03:41:24.979Z</time>
      </trkpt>
      <trkpt lat="42.58533" lon="42.6928">
        <ele>442.134966</ele>
        <time>2021-08-16T03:42:24.508Z</time>
      </trkpt>
      <trkpt lat="42.58444" lon="42.69183">
        <ele>449.707657</ele>
        <time>2021-08-16T03:43:31.669Z</time>
      </trkpt>
      <trkpt lat="42.58383" lon="42.69091">
        <ele>450.292525</ele>
        <time>2021-08-16T03:44:05.020Z</time>
      </trkpt>
      <trkpt lat="42.58365" lon="42.69037">
        <ele>449.861039</ele>
        <time>2021-08-16T03:44:12.987Z</time>
      </trkpt>
      <trkpt lat="42.58348" lon="42.6894">
        <ele>448.605664</ele>
        <time>2021-08-16T03:44:24.710Z</time>
      </trkpt>
      <trkpt lat="42.58337" lon="42.68916">
        <ele>447.146129</ele>
        <time>2021-08-16T03:44:27.859Z</time>
      </trkpt>
      <trkpt lat="42.583" lon="42.68891">
        <ele>444.233489</ele>
        <time>2021-08-16T03:44:34.062Z</time>
      </trkpt>
      <trkpt lat="42.58232" lon="42.68865">
        <ele>439.298637</ele>
        <time>2021-08-16T03:44:44.397Z</time>
      </trkpt>
      <trkpt lat="42.58097" lon="42.68845">
        <ele>430.764993</ele>
        <time>2021-08-16T03:45:04.722Z</time>
      </trkpt>
      <trkpt lat="42.58046" lon="42.68808">
        <ele>427.244651</ele>
        <time>2021-08-16T03:45:14.041Z</time>
      </trkpt>
      <trkpt lat="42.58039" lon="42.68801">
        <ele>426.712085</ele>
        <time>2021-08-16T03:45:15.309Z</time>
      </trkpt>
      <trkpt lat="42.5798" lon="42.68747">
        <ele>424.326448</ele>
        <time>2021-08-16T03:45:26.959Z</time>
      </trkpt>
      <trkpt lat="42.57974" lon="42.68741">
        <ele>424.140864</ele>
        <time>2021-08-16T03:45:28.207Z</time>
      </trkpt>
      <trkpt lat="42.57949" lon="42.68724">
        <ele>423.394767</ele>
        <time>2021-08-16T03:45:33.058Z</time>
      </trkpt>
      <trkpt lat="42.57885" lon="42.68666">
        <ele>421.376233</ele>
        <time>2021-08-16T03:45:47.642Z</time>
      </trkpt>
      <trkpt lat="42.57852" lon="42.68629">
        <ele>421.06563</ele>
        <time>2021-08-16T03:45:56.666Z</time>
      </trkpt>
      <trkpt lat="42.5784" lon="42.68611">
        <ele>421.067431</ele>
        <time>2021-08-16T03:46:00.430Z</time>
      </trkpt>
      <trkpt lat="42.57832" lon="42.68588">
        <ele>421.069334</ele>
        <time>2021-08-16T03:46:04.545Z</time>
      </trkpt>
      <trkpt lat="42.57832" lon="42.68526">
        <ele>421.073932</ele>
        <time>2021-08-16T03:46:15.365Z</time>
      </trkpt>
      <trkpt lat="42.57837" lon="42.68495">
        <ele>421.076328</ele>
        <time>2021-08-16T03:46:21.197Z</time>
      </trkpt>
      <trkpt lat="42.57843" lon="42.68471">
        <ele>421.078228</ele>
        <time>2021-08-16T03:46:25.854Z</time>
      </trkpt>
      <trkpt lat="42.5788" lon="42.68385">
        <ele>421.127472</ele>
        <time>2021-08-16T03:46:43.637Z</time>
      </trkpt>
      <trkpt lat="42.5789" lon="42.6831">
        <ele>421.181049</ele>
        <time>2021-08-16T03:46:56.933Z</time>
      </trkpt>
      <trkpt lat="42.57875" lon="42.682">
        <ele>421.194651</ele>
        <time>2021-08-16T03:47:14.862Z</time>
      </trkpt>
      <trkpt lat="42.57859" lon="42.68162">
        <ele>420.925709</ele>
        <time>2021-08-16T03:47:21.836Z</time>
      </trkpt>
      <trkpt lat="42.57814" lon="42.68124">
        <ele>420.488656</ele>
        <time>2021-08-16T03:47:32.842Z</time>
      </trkpt>
      <trkpt lat="42.57716" lon="42.68087">
        <ele>419.472976</ele>
        <time>2021-08-16T03:47:52.787Z</time>
      </trkpt>
      <trkpt lat="42.57673" lon="42.6808">
        <ele>418.540227</ele>
        <time>2021-08-16T03:48:00.714Z</time>
      </trkpt>
      <trkpt lat="42.57624" lon="42.68086">
        <ele>417.508252</ele>
        <time>2021-08-16T03:48:09.585Z</time>
      </trkpt>
      <trkpt lat="42.57595" lon="42.68097">
        <ele>416.87672</ele>
        <time>2021-08-16T03:48:14.890Z</time>
      </trkpt>
      <trkpt lat="42.57549" lon="42.6811">
        <ele>415.864366</ele>
        <time>2021-08-16T03:48:23.380Z</time>
      </trkpt>
      <trkpt lat="42.5754" lon="42.68115">
        <ele>415.639034</ele>
        <time>2021-08-16T03:48:24.925Z</time>
      </trkpt>
      <trkpt lat="42.57508" lon="42.68136">
        <ele>414.783486</ele>
        <time>2021-08-16T03:48:31.240Z</time>
      </trkpt>
      <trkpt lat="42.57493" lon="42.68142">
        <ele>414.393658</ele>
        <time>2021-08-16T03:48:34.206Z</time>
      </trkpt>
      <trkpt lat="42.57387" lon="42.68152">
        <ele>411.821314</ele>
        <time>2021-08-16T03:48:53.320Z</time>
      </trkpt>
      <trkpt lat="42.57297" lon="42.68218">
        <ele>408.441108</ele>
        <time>2021-08-16T03:49:11.159Z</time>
      </trkpt>
      <trkpt lat="42.57117" lon="42.68312">
        <ele>401.086294</ele>
        <time>2021-08-16T03:49:42.691Z</time>
      </trkpt>
      <trkpt lat="42.56902" lon="42.68359">
        <ele>393.711607</ele>
        <time>2021-08-16T03:50:18.704Z</time>
      </trkpt>
      <trkpt lat="42.56834" lon="42.68367">
        <ele>393.17896</ele>
        <time>2021-08-16T03:50:32.378Z</time>
      </trkpt>
      <trkpt lat="42.56757" lon="42.68383">
        <ele>394.457958</ele>
        <time>2021-08-16T03:50:55.173Z</time>
      </trkpt>
      <trkpt lat="42.56716" lon="42.68389">
        <ele>395.132922</ele>
        <time>2021-08-16T03:51:10.448Z</time>
      </trkpt>
      <trkpt lat="42.56635" lon="42.68405">
        <ele>397.751379</ele>
        <time>2021-08-16T03:51:46.314Z</time>
      </trkpt>
      <trkpt lat="42.56327" lon="42.6844">
        <ele>409.430711</ele>
        <time>2021-08-16T03:53:56.845Z</time>
      </trkpt>
      <trkpt lat="42.56213" lon="42.68446">
        <ele>409.989425</ele>
        <time>2021-08-16T03:54:29.554Z</time>
      </trkpt>
      <trkpt lat="42.56129" lon="42.68451">
        <ele>409.382435</ele>
        <time>2021-08-16T03:54:45.480Z</time>
      </trkpt>
      <trkpt lat="42.56099" lon="42.6846">
        <ele>408.03609</ele>
        <time>2021-08-16T03:54:50.857Z</time>
      </trkpt>
      <trkpt lat="42.55964" lon="42.68545">
        <ele>401.557091</ele>
        <time>2021-08-16T03:55:14.167Z</time>
      </trkpt>
      <trkpt lat="42.55866" lon="42.68545">
        <ele>396.940125</ele>
        <time>2021-08-16T03:55:29.566Z</time>
      </trkpt>
      <trkpt lat="42.55809" lon="42.68574">
        <ele>394.090524</ele>
        <time>2021-08-16T03:55:39.560Z</time>
      </trkpt>
      <trkpt lat="42.55792" lon="42.68577">
        <ele>393.870769</ele>
        <time>2021-08-16T03:55:42.508Z</time>
      </trkpt>
      <trkpt lat="42.5577" lon="42.68574">
        <ele>393.598347</ele>
        <time>2021-08-16T03:55:46.232Z</time>
      </trkpt>
      <trkpt lat="42.55698" lon="42.6853">
        <ele>392.592343</ele>
        <time>2021-08-16T03:56:01.637Z</time>
      </trkpt>
      <trkpt lat="42.55633" lon="42.685">
        <ele>391.885779</ele>
        <time>2021-08-16T03:56:17.761Z</time>
      </trkpt>
      <trkpt lat="42.5548" lon="42.68494">
        <ele>393.210488</ele>
        <time>2021-08-16T03:56:58.307Z</time>
      </trkpt>
      <trkpt lat="42.55449" lon="42.68477">
        <ele>393.682407</ele>
        <time>2021-08-16T03:57:07.998Z</time>
      </trkpt>
      <trkpt lat="42.55415" lon="42.68434">
        <ele>394.732141</ele>
        <time>2021-08-16T03:57:22.331Z</time>
      </trkpt>
      <trkpt lat="42.55381" lon="42.68333">
        <ele>396.560898</ele>
        <time>2021-08-16T03:57:50.006Z</time>
      </trkpt>
      <trkpt lat="42.5535" lon="42.68272">
        <ele>397.932421</ele>
        <time>2021-08-16T03:58:10.555Z</time>
      </trkpt>
      <trkpt lat="42.55341" lon="42.68243">
        <ele>398.645017</ele>
        <time>2021-08-16T03:58:19.661Z</time>
      </trkpt>
      <trkpt lat="42.55322" lon="42.68118">
        <ele>401.578754</ele>
        <time>2021-08-16T03:58:58.461Z</time>
      </trkpt>
      <trkpt lat="42.55321" lon="42.67999">
        <ele>402.905191</ele>
        <time>2021-08-16T03:59:28.390Z</time>
      </trkpt>
      <trkpt lat="42.55312" lon="42.67945">
        <ele>402.818175</ele>
        <time>2021-08-16T03:59:38.244Z</time>
      </trkpt>
      <trkpt lat="42.55274" lon="42.67889">
        <ele>402.698536</ele>
        <time>2021-08-16T03:59:49.281Z</time>
      </trkpt>
      <trkpt lat="42.55205" lon="42.67828">
        <ele>401.587596</ele>
        <time>2021-08-16T04:00:03.907Z</time>
      </trkpt>
      <trkpt lat="42.55139" lon="42.678">
        <ele>399.887776</ele>
        <time>2021-08-16T04:00:15.620Z</time>
      </trkpt>
      <trkpt lat="42.55111" lon="42.67778">
        <ele>399.071386</ele>
        <time>2021-08-16T04:00:21.469Z</time>
      </trkpt>
      <trkpt lat="42.55099" lon="42.67764">
        <ele>398.68485</ele>
        <time>2021-08-16T04:00:24.336Z</time>
      </trkpt>
      <trkpt lat="42.55088" lon="42.67732">
        <ele>398.083349</ele>
        <time>2021-08-16T04:00:29.226Z</time>
      </trkpt>
      <trkpt lat="42.55083" lon="42.67663">
        <ele>397.349593</ele>
        <time>2021-08-16T04:00:39.044Z</time>
      </trkpt>
      <trkpt lat="42.55086" lon="42.67619">
        <ele>396.874706</ele>
        <time>2021-08-16T04:00:45.483Z</time>
      </trkpt>
      <trkpt lat="42.55093" lon="42.67585">
        <ele>396.500748</ele>
        <time>2021-08-16T04:00:50.597Z</time>
      </trkpt>
      <trkpt lat="42.55126" lon="42.67498">
        <ele>395.404177</ele>
        <time>2021-08-16T04:01:04.630Z</time>
      </trkpt>
      <trkpt lat="42.55135" lon="42.67448">
        <ele>394.548588</ele>
        <time>2021-08-16T04:01:11.743Z</time>
      </trkpt>
      <trkpt lat="42.55082" lon="42.67355">
        <ele>392.572275</ele>
        <time>2021-08-16T04:01:27.067Z</time>
      </trkpt>
      <trkpt lat="42.55071" lon="42.67328">
        <ele>392.057944</ele>
        <time>2021-08-16T04:01:31.025Z</time>
      </trkpt>
      <trkpt lat="42.5506" lon="42.67285">
        <ele>391.378478</ele>
        <time>2021-08-16T04:01:36.913Z</time>
      </trkpt>
      <trkpt lat="42.55055" lon="42.6721">
        <ele>390.720218</ele>
        <time>2021-08-16T04:01:47.057Z</time>
      </trkpt>
      <trkpt lat="42.55049" lon="42.67174">
        <ele>390.392414</ele>
        <time>2021-08-16T04:01:52.331Z</time>
      </trkpt>
      <trkpt lat="42.55032" lon="42.67128">
        <ele>389.942539</ele>
        <time>2021-08-16T04:01:59.870Z</time>
      </trkpt>
      <trkpt lat="42.54986" lon="42.67058">
        <ele>389.411369</ele>
        <time>2021-08-16T04:02:14.853Z</time>
      </trkpt>
      <trkpt lat="42.54978" lon="42.67034">
        <ele>389.515862</ele>
        <time>2021-08-16T04:02:19.732Z</time>
      </trkpt>
      <trkpt lat="42.54967" lon="42.66931">
        <ele>389.922774</ele>
        <time>2021-08-16T04:02:40.287Z</time>
      </trkpt>
      <trkpt lat="42.54977" lon="42.66883">
        <ele>390.120269</ele>
        <time>2021-08-16T04:02:50.337Z</time>
      </trkpt>
      <trkpt lat="42.54995" lon="42.66839">
        <ele>390.197716</ele>
        <time>2021-08-16T04:02:59.886Z</time>
      </trkpt>
      <trkpt lat="42.55059" lon="42.66748">
        <ele>389.079547</ele>
        <time>2021-08-16T04:03:19.501Z</time>
      </trkpt>
      <trkpt lat="42.55078" lon="42.6671">
        <ele>388.671672</ele>
        <time>2021-08-16T04:03:25.855Z</time>
      </trkpt>
      <trkpt lat="42.55085" lon="42.66687">
        <ele>388.450637</ele>
        <time>2021-08-16T04:03:29.186Z</time>
      </trkpt>
      <trkpt lat="42.5509" lon="42.66634">
        <ele>387.73422</ele>
        <time>2021-08-16T04:03:35.997Z</time>
      </trkpt>
      <trkpt lat="42.55088" lon="42.66612">
        <ele>387.18859</ele>
        <time>2021-08-16T04:03:38.742Z</time>
      </trkpt>
      <trkpt lat="42.55068" lon="42.66541">
        <ele>385.293088</ele>
        <time>2021-08-16T04:03:48.028Z</time>
      </trkpt>
      <trkpt lat="42.55036" lon="42.66474">
        <ele>383.32632</ele>
        <time>2021-08-16T04:03:57.655Z</time>
      </trkpt>
      <trkpt lat="42.54965" lon="42.66402">
        <ele>382.159932</ele>
        <time>2021-08-16T04:04:13.375Z</time>
      </trkpt>
      <trkpt lat="42.54907" lon="42.66326">
        <ele>382.314555</ele>
        <time>2021-08-16T04:04:32.480Z</time>
      </trkpt>
      <trkpt lat="42.54839" lon="42.66194">
        <ele>383.958155</ele>
        <time>2021-08-16T04:05:18.323Z</time>
      </trkpt>
      <trkpt lat="42.54799" lon="42.66058">
        <ele>386.320341</ele>
        <time>2021-08-16T04:05:54.524Z</time>
      </trkpt>
      <trkpt lat="42.54785" lon="42.65989">
        <ele>384.94227</ele>
        <time>2021-08-16T04:06:05.426Z</time>
      </trkpt>
      <trkpt lat="42.54783" lon="42.6594">
        <ele>383.946718</ele>
        <time>2021-08-16T04:06:11.955Z</time>
      </trkpt>
      <trkpt lat="42.54794" lon="42.65824">
        <ele>381.606027</ele>
        <time>2021-08-16T04:06:25.853Z</time>
      </trkpt>
      <trkpt lat="42.54778" lon="42.6578">
        <ele>380.178365</ele>
        <time>2021-08-16T04:06:31.485Z</time>
      </trkpt>
      <trkpt lat="42.54753" lon="42.65743">
        <ele>378.585507</ele>
        <time>2021-08-16T04:06:37.415Z</time>
      </trkpt>
      <trkpt lat="42.54719" lon="42.65714">
        <ele>376.902113</ele>
        <time>2021-08-16T04:06:43.771Z</time>
      </trkpt>
      <trkpt lat="42.54601" lon="42.65663">
        <ele>372.806664</ele>
        <time>2021-08-16T04:07:04.874Z</time>
      </trkpt>
      <trkpt lat="42.54559" lon="42.65665">
        <ele>371.965007</ele>
        <time>2021-08-16T04:07:12.709Z</time>
      </trkpt>
      <trkpt lat="42.54493" lon="42.65686">
        <ele>370.6045</ele>
        <time>2021-08-16T04:07:25.823Z</time>
      </trkpt>
      <trkpt lat="42.54428" lon="42.6568">
        <ele>369.525691</ele>
        <time>2021-08-16T04:07:38.487Z</time>
      </trkpt>
      <trkpt lat="42.54409" lon="42.65669">
        <ele>369.218483</ele>
        <time>2021-08-16T04:07:42.362Z</time>
      </trkpt>
      <trkpt lat="42.54347" lon="42.65596">
        <ele>367.980887</ele>
        <time>2021-08-16T04:07:57.847Z</time>
      </trkpt>
      <trkpt lat="42.54341" lon="42.65583">
        <ele>367.809241</ele>
        <time>2021-08-16T04:08:00.003Z</time>
      </trkpt>
      <trkpt lat="42.54326" lon="42.65544">
        <ele>367.43819</ele>
        <time>2021-08-16T04:08:06.113Z</time>
      </trkpt>
      <trkpt lat="42.54297" lon="42.65435">
        <ele>366.918602</ele>
        <time>2021-08-16T04:08:22.433Z</time>
      </trkpt>
      <trkpt lat="42.54278" lon="42.65261">
        <ele>367.208362</ele>
        <time>2021-08-16T04:08:53.561Z</time>
      </trkpt>
      <trkpt lat="42.5428" lon="42.65214">
        <ele>367.769182</ele>
        <time>2021-08-16T04:09:06.154Z</time>
      </trkpt>
      <trkpt lat="42.54242" lon="42.65136">
        <ele>368.885563</ele>
        <time>2021-08-16T04:09:29.950Z</time>
      </trkpt>
      <trkpt lat="42.54233" lon="42.65083">
        <ele>369.205589</ele>
        <time>2021-08-16T04:09:42.141Z</time>
      </trkpt>
      <trkpt lat="42.5423" lon="42.65066">
        <ele>369.066514</ele>
        <time>2021-08-16T04:09:46.486Z</time>
      </trkpt>
      <trkpt lat="42.5422" lon="42.65047">
        <ele>368.880833</ele>
        <time>2021-08-16T04:09:50.484Z</time>
      </trkpt>
      <trkpt lat="42.54172" lon="42.6502">
        <ele>368.328334</ele>
        <time>2021-08-16T04:10:01.937Z</time>
      </trkpt>
      <trkpt lat="42.54143" lon="42.65007">
        <ele>367.995099</ele>
        <time>2021-08-16T04:10:07.779Z</time>
      </trkpt>
      <trkpt lat="42.54086" lon="42.64995">
        <ele>367.320628</ele>
        <time>2021-08-16T04:10:17.526Z</time>
      </trkpt>
      <trkpt lat="42.53987" lon="42.65016">
        <ele>363.387883</ele>
        <time>2021-08-16T04:10:33.603Z</time>
      </trkpt>
      <trkpt lat="42.53928" lon="42.65001">
        <ele>361.050532</ele>
        <time>2021-08-16T04:10:43.527Z</time>
      </trkpt>
      <trkpt lat="42.53779" lon="42.64985">
        <ele>356.666167</ele>
        <time>2021-08-16T04:11:10.128Z</time>
      </trkpt>
      <trkpt lat="42.53729" lon="42.65001">
        <ele>355.169843</ele>
        <time>2021-08-16T04:11:19.161Z</time>
      </trkpt>
      <trkpt lat="42.53672" lon="42.65039">
        <ele>352.46969</ele>
        <time>2021-08-16T04:11:29.715Z</time>
      </trkpt>
      <trkpt lat="42.53587" lon="42.65054">
        <ele>348.849856</ele>
        <time>2021-08-16T04:11:43.379Z</time>
      </trkpt>
      <trkpt lat="42.53545" lon="42.65048">
        <ele>347.271243</ele>
        <time>2021-08-16T04:11:50.047Z</time>
      </trkpt>
      <trkpt lat="42.53489" lon="42.6503">
        <ele>345.557019</ele>
        <time>2021-08-16T04:11:59.383Z</time>
      </trkpt>
      <trkpt lat="42.53468" lon="42.65016">
        <ele>344.854641</ele>
        <time>2021-08-16T04:12:03.293Z</time>
      </trkpt>
      <trkpt lat="42.53449" lon="42.64996">
        <ele>344.139614</ele>
        <time>2021-08-16T04:12:07.419Z</time>
      </trkpt>
      <trkpt lat="42.53381" lon="42.6485">
        <ele>341.798399</ele>
        <time>2021-08-16T04:12:32.673Z</time>
      </trkpt>
      <trkpt lat="42.53313" lon="42.64797">
        <ele>341.163092</ele>
        <time>2021-08-16T04:12:49.215Z</time>
      </trkpt>
      <trkpt lat="42.53285" lon="42.6475">
        <ele>340.696139</ele>
        <time>2021-08-16T04:12:58.381Z</time>
      </trkpt>
      <trkpt lat="42.53247" lon="42.64703">
        <ele>339.797947</ele>
        <time>2021-08-16T04:13:08.392Z</time>
      </trkpt>
      <trkpt lat="42.53189" lon="42.64686">
        <ele>338.765361</ele>
        <time>2021-08-16T04:13:19.223Z</time>
      </trkpt>
      <trkpt lat="42.53127" lon="42.64693">
        <ele>337.690352</ele>
        <time>2021-08-16T04:13:30.207Z</time>
      </trkpt>
      <trkpt lat="42.53017" lon="42.64656">
        <ele>336.339727</ele>
        <time>2021-08-16T04:13:51.643Z</time>
      </trkpt>
      <trkpt lat="42.52973" lon="42.64628">
        <ele>335.757738</ele>
        <time>2021-08-16T04:14:01.800Z</time>
      </trkpt>
      <trkpt lat="42.52931" lon="42.64566">
        <ele>335.790752</ele>
        <time>2021-08-16T04:14:15.927Z</time>
      </trkpt>
      <trkpt lat="42.52879" lon="42.64424">
        <ele>336.275384</ele>
        <time>2021-08-16T04:14:46.274Z</time>
      </trkpt>
      <trkpt lat="42.52803" lon="42.64325">
        <ele>336.936118</ele>
        <time>2021-08-16T04:15:12.359Z</time>
      </trkpt>
      <trkpt lat="42.52763" lon="42.64287">
        <ele>337.252863</ele>
        <time>2021-08-16T04:15:24.321Z</time>
      </trkpt>
      <trkpt lat="42.52743" lon="42.64278">
        <ele>337.392392</ele>
        <time>2021-08-16T04:15:29.807Z</time>
      </trkpt>
      <trkpt lat="42.52713" lon="42.64273">
        <ele>337.725707</ele>
        <time>2021-08-16T04:15:37.961Z</time>
      </trkpt>
      <trkpt lat="42.52665" lon="42.64288">
        <ele>338.677221</ele>
        <time>2021-08-16T04:15:51.891Z</time>
      </trkpt>
      <trkpt lat="42.52618" lon="42.64318">
        <ele>339.692769</ele>
        <time>2021-08-16T04:16:07.954Z</time>
      </trkpt>
      <trkpt lat="42.52561" lon="42.64375">
        <ele>341.087297</ele>
        <time>2021-08-16T04:16:32.352Z</time>
      </trkpt>
      <trkpt lat="42.52525" lon="42.64391">
        <ele>342.444714</ele>
        <time>2021-08-16T04:16:47.929Z</time>
      </trkpt>
      <trkpt lat="42.5247" lon="42.644">
        <ele>344.403496</ele>
        <time>2021-08-16T04:17:11.569Z</time>
      </trkpt>
      <trkpt lat="42.52389" lon="42.64391">
        <ele>347.272007</ele>
        <time>2021-08-16T04:17:45.602Z</time>
      </trkpt>
      <trkpt lat="42.52312" lon="42.64406">
        <ele>347.470252</ele>
        <time>2021-08-16T04:18:12.805Z</time>
      </trkpt>
      <trkpt lat="42.52278" lon="42.64407">
        <ele>347.523299</ele>
        <time>2021-08-16T04:18:21.075Z</time>
      </trkpt>
      <trkpt lat="42.52257" lon="42.64394">
        <ele>347.5595</ele>
        <time>2021-08-16T04:18:25.663Z</time>
      </trkpt>
      <trkpt lat="42.52238" lon="42.64363">
        <ele>347.605891</ele>
        <time>2021-08-16T04:18:31.024Z</time>
      </trkpt>
      <trkpt lat="42.52223" lon="42.6432">
        <ele>346.669809</ele>
        <time>2021-08-16T04:18:36.984Z</time>
      </trkpt>
      <trkpt lat="42.52184" lon="42.6402">
        <ele>334.834862</ele>
        <time>2021-08-16T04:19:11.466Z</time>
      </trkpt>
      <trkpt lat="42.52174" lon="42.63977">
        <ele>333.3633</ele>
        <time>2021-08-16T04:19:16.726Z</time>
      </trkpt>
      <trkpt lat="42.5214" lon="42.63929">
        <ele>331.201939</ele>
        <time>2021-08-16T04:19:24.822Z</time>
      </trkpt>
      <trkpt lat="42.52117" lon="42.63917">
        <ele>330.10475</ele>
        <time>2021-08-16T04:19:29.091Z</time>
      </trkpt>
      <trkpt lat="42.52047" lon="42.63922">
        <ele>329.317033</ele>
        <time>2021-08-16T04:19:42.478Z</time>
      </trkpt>
      <trkpt lat="42.51951" lon="42.63956">
        <ele>328.823345</ele>
        <time>2021-08-16T04:20:04.515Z</time>
      </trkpt>
      <trkpt lat="42.51862" lon="42.63972">
        <ele>329.513495</ele>
        <time>2021-08-16T04:20:28.822Z</time>
      </trkpt>
      <trkpt lat="42.51681" lon="42.64027">
        <ele>331.955951</ele>
        <time>2021-08-16T04:21:23.324Z</time>
      </trkpt>
      <trkpt lat="42.51645" lon="42.6403">
        <ele>332.496983</ele>
        <time>2021-08-16T04:21:34.116Z</time>
      </trkpt>
      <trkpt lat="42.51593" lon="42.64025">
        <ele>333.302291</ele>
        <time>2021-08-16T04:21:50.215Z</time>
      </trkpt>
      <trkpt lat="42.5153" lon="42.63987">
        <ele>334.173048</ele>
        <time>2021-08-16T04:22:10.713Z</time>
      </trkpt>
      <trkpt lat="42.51511" lon="42.6396">
        <ele>334.494349</ele>
        <time>2021-08-16T04:22:18.633Z</time>
      </trkpt>
      <trkpt lat="42.51481" lon="42.63893">
        <ele>335.169309</ele>
        <time>2021-08-16T04:22:34.674Z</time>
      </trkpt>
      <trkpt lat="42.51366" lon="42.63702">
        <ele>336.426907</ele>
        <time>2021-08-16T04:23:22.011Z</time>
      </trkpt>
      <trkpt lat="42.51314" lon="42.63643">
        <ele>336.508348</ele>
        <time>2021-08-16T04:23:37.064Z</time>
      </trkpt>
      <trkpt lat="42.51279" lon="42.63624">
        <ele>336.305512</ele>
        <time>2021-08-16T04:23:45.093Z</time>
      </trkpt>
      <trkpt lat="42.51256" lon="42.63623">
        <ele>336.180132</ele>
        <time>2021-08-16T04:23:50.002Z</time>
      </trkpt>
      <trkpt lat="42.5123" lon="42.63634">
        <ele>336.033505</ele>
        <time>2021-08-16T04:23:55.714Z</time>
      </trkpt>
      <trkpt lat="42.51153" lon="42.63702">
        <ele>335.244034</ele>
        <time>2021-08-16T04:24:14.002Z</time>
      </trkpt>
      <trkpt lat="42.5106" lon="42.63753">
        <ele>333.596147</ele>
        <time>2021-08-16T04:24:32.961Z</time>
      </trkpt>
      <trkpt lat="42.50987" lon="42.63826">
        <ele>331.687644</ele>
        <time>2021-08-16T04:24:49.402Z</time>
      </trkpt>
      <trkpt lat="42.50973" lon="42.63827">
        <ele>331.281694</ele>
        <time>2021-08-16T04:24:52.037Z</time>
      </trkpt>
      <trkpt lat="42.5096" lon="42.6382">
        <ele>330.888753</ele>
        <time>2021-08-16T04:24:54.465Z</time>
      </trkpt>
      <trkpt lat="42.50906" lon="42.63759">
        <ele>328.923591</ele>
        <time>2021-08-16T04:25:06.409Z</time>
      </trkpt>
      <trkpt lat="42.50848" lon="42.63737">
        <ele>327.23333</ele>
        <time>2021-08-16T04:25:16.804Z</time>
      </trkpt>
      <trkpt lat="42.50766" lon="42.63722">
        <ele>325.01796</ele>
        <time>2021-08-16T04:25:31.069Z</time>
      </trkpt>
      <trkpt lat="42.50703" lon="42.63722">
        <ele>323.36003</ele>
        <time>2021-08-16T04:25:42.026Z</time>
      </trkpt>
      <trkpt lat="42.50549" lon="42.63734">
        <ele>321.409289</ele>
        <time>2021-08-16T04:26:11.994Z</time>
      </trkpt>
      <trkpt lat="42.50389" lon="42.63775">
        <ele>321.050014</ele>
        <time>2021-08-16T04:26:47.670Z</time>
      </trkpt>
      <trkpt lat="42.50301" lon="42.63769">
        <ele>321.731839</ele>
        <time>2021-08-16T04:27:09.358Z</time>
      </trkpt>
      <trkpt lat="42.5025" lon="42.6379">
        <ele>322.938857</ele>
        <time>2021-08-16T04:27:22.702Z</time>
      </trkpt>
      <trkpt lat="42.50211" lon="42.63812">
        <ele>323.889446</ele>
        <time>2021-08-16T04:27:36.218Z</time>
      </trkpt>
      <trkpt lat="42.50184" lon="42.63815">
        <ele>324.500308</ele>
        <time>2021-08-16T04:27:46.786Z</time>
      </trkpt>
      <trkpt lat="42.50158" lon="42.63804">
        <ele>325.112846</ele>
        <time>2021-08-16T04:27:57.755Z</time>
      </trkpt>
      <trkpt lat="42.50097" lon="42.63758">
        <ele>331.768705</ele>
        <time>2021-08-16T04:28:36.268Z</time>
      </trkpt>
      <trkpt lat="42.50085" lon="42.63756">
        <ele>332.935886</ele>
        <time>2021-08-16T04:28:45.587Z</time>
      </trkpt>
      <trkpt lat="42.49989" lon="42.63754">
        <ele>342.197903</ele>
        <time>2021-08-16T04:29:58.709Z</time>
      </trkpt>
      <trkpt lat="42.4991" lon="42.63754">
        <ele>353.726592</ele>
        <time>2021-08-16T04:31:26.463Z</time>
      </trkpt>
      <trkpt lat="42.49812" lon="42.63776">
        <ele>368.262322</ele>
        <time>2021-08-16T04:33:06.935Z</time>
      </trkpt>
      <trkpt lat="42.49771" lon="42.63799">
        <ele>369.572022</ele>
        <time>2021-08-16T04:33:39.019Z</time>
      </trkpt>
      <trkpt lat="42.49763" lon="42.63801">
        <ele>369.655795</ele>
        <time>2021-08-16T04:33:43.895Z</time>
      </trkpt>
      <trkpt lat="42.49736" lon="42.63794">
        <ele>369.93886</ele>
        <time>2021-08-16T04:33:55.280Z</time>
      </trkpt>
      <trkpt lat="42.4967" lon="42.63748">
        <ele>370.688689</ele>
        <time>2021-08-16T04:34:09.835Z</time>
      </trkpt>
      <trkpt lat="42.49635" lon="42.63708">
        <ele>369.523638</ele>
        <time>2021-08-16T04:34:16.491Z</time>
      </trkpt>
      <trkpt lat="42.49605" lon="42.63655">
        <ele>364.154169</ele>
        <time>2021-08-16T04:34:23.114Z</time>
      </trkpt>
      <trkpt lat="42.49566" lon="42.63533">
        <ele>353.391407</ele>
        <time>2021-08-16T04:34:36.630Z</time>
      </trkpt>
      <trkpt lat="42.49545" lon="42.63408">
        <ele>349.605182</ele>
        <time>2021-08-16T04:34:51.385Z</time>
      </trkpt>
      <trkpt lat="42.49538" lon="42.63312">
        <ele>347.938159</ele>
        <time>2021-08-16T04:35:06.890Z</time>
      </trkpt>
      <trkpt lat="42.49528" lon="42.63251">
        <ele>347.556316</ele>
        <time>2021-08-16T04:35:22.731Z</time>
      </trkpt>
      <trkpt lat="42.49513" lon="42.63216">
        <ele>348.403461</ele>
        <time>2021-08-16T04:35:34.584Z</time>
      </trkpt>
      <trkpt lat="42.49486" lon="42.63176">
        <ele>349.545648</ele>
        <time>2021-08-16T04:35:52.493Z</time>
      </trkpt>
      <trkpt lat="42.49458" lon="42.63147">
        <ele>350.526978</ele>
        <time>2021-08-16T04:36:06.625Z</time>
      </trkpt>
      <trkpt lat="42.49353" lon="42.63059">
        <ele>352.600394</ele>
        <time>2021-08-16T04:36:46.622Z</time>
      </trkpt>
      <trkpt lat="42.49273" lon="42.63011">
        <ele>353.0489</ele>
        <time>2021-08-16T04:37:07.257Z</time>
      </trkpt>
      <trkpt lat="42.49243" lon="42.62982">
        <ele>353.020069</ele>
        <time>2021-08-16T04:37:14.709Z</time>
      </trkpt>
      <trkpt lat="42.49225" lon="42.62953">
        <ele>352.255406</ele>
        <time>2021-08-16T04:37:19.874Z</time>
      </trkpt>
      <trkpt lat="42.49221" lon="42.62937">
        <ele>351.906989</ele>
        <time>2021-08-16T04:37:22.194Z</time>
      </trkpt>
      <trkpt lat="42.49224" lon="42.62845">
        <ele>350.043161</ele>
        <time>2021-08-16T04:37:33.833Z</time>
      </trkpt>
      <trkpt lat="42.49254" lon="42.62737">
        <ele>347.909991</ele>
        <time>2021-08-16T04:37:47.971Z</time>
      </trkpt>
      <trkpt lat="42.49257" lon="42.62705">
        <ele>347.497314</ele>
        <time>2021-08-16T04:37:52.023Z</time>
      </trkpt>
      <trkpt lat="42.49252" lon="42.62664">
        <ele>346.970497</ele>
        <time>2021-08-16T04:37:57.300Z</time>
      </trkpt>
      <trkpt lat="42.49239" lon="42.62636">
        <ele>346.542157</ele>
        <time>2021-08-16T04:38:01.765Z</time>
      </trkpt>
      <trkpt lat="42.49162" lon="42.6253">
        <ele>345.7971</ele>
        <time>2021-08-16T04:38:25.141Z</time>
      </trkpt>
      <trkpt lat="42.4907" lon="42.62454">
        <ele>348.189708</ele>
        <time>2021-08-16T04:39:05.015Z</time>
      </trkpt>
      <trkpt lat="42.49018" lon="42.6239">
        <ele>349.365945</ele>
        <time>2021-08-16T04:39:31.892Z</time>
      </trkpt>
      <trkpt lat="42.48995" lon="42.62336">
        <ele>349.738741</ele>
        <time>2021-08-16T04:39:47.196Z</time>
      </trkpt>
      <trkpt lat="42.48976" lon="42.62242">
        <ele>350.32293</ele>
        <time>2021-08-16T04:40:05.018Z</time>
      </trkpt>
      <trkpt lat="42.48961" lon="42.62197">
        <ele>350.584834</ele>
        <time>2021-08-16T04:40:12.002Z</time>
      </trkpt>
      <trkpt lat="42.48907" lon="42.62105">
        <ele>347.890895</ele>
        <time>2021-08-16T04:40:27.306Z</time>
      </trkpt>
      <trkpt lat="42.48813" lon="42.62027">
        <ele>344.496092</ele>
        <time>2021-08-16T04:40:45.497Z</time>
      </trkpt>
      <trkpt lat="42.48764" lon="42.61973">
        <ele>342.530611</ele>
        <time>2021-08-16T04:40:55.824Z</time>
      </trkpt>
      <trkpt lat="42.4875" lon="42.61946">
        <ele>341.779835</ele>
        <time>2021-08-16T04:40:59.917Z</time>
      </trkpt>
      <trkpt lat="42.48735" lon="42.61895">
        <ele>340.521476</ele>
        <time>2021-08-16T04:41:06.983Z</time>
      </trkpt>
      <trkpt lat="42.48722" lon="42.61831">
        <ele>339.592485</ele>
        <time>2021-08-16T04:41:16.337Z</time>
      </trkpt>
      <trkpt lat="42.4869" lon="42.61747">
        <ele>340.157132</ele>
        <time>2021-08-16T04:41:30.947Z</time>
      </trkpt>
      <trkpt lat="42.48621" lon="42.61657">
        <ele>340.939094</ele>
        <time>2021-08-16T04:42:03.726Z</time>
      </trkpt>
      <trkpt lat="42.48595" lon="42.61603">
        <ele>341.781551</ele>
        <time>2021-08-16T04:42:20.881Z</time>
      </trkpt>
      <trkpt lat="42.48564" lon="42.61517">
        <ele>343.037893</ele>
        <time>2021-08-16T04:42:44.067Z</time>
      </trkpt>
      <trkpt lat="42.48542" lon="42.61378">
        <ele>344.365872</ele>
        <time>2021-08-16T04:43:11.272Z</time>
      </trkpt>
      <trkpt lat="42.48523" lon="42.61161">
        <ele>345.266148</ele>
        <time>2021-08-16T04:43:50.629Z</time>
      </trkpt>
      <trkpt lat="42.48473" lon="42.61004">
        <ele>345.842472</ele>
        <time>2021-08-16T04:44:24.875Z</time>
      </trkpt>
      <trkpt lat="42.48428" lon="42.60921">
        <ele>344.95415</ele>
        <time>2021-08-16T04:44:40.600Z</time>
      </trkpt>
      <trkpt lat="42.48409" lon="42.60867">
        <ele>344.003056</ele>
        <time>2021-08-16T04:44:48.708Z</time>
      </trkpt>
      <trkpt lat="42.48387" lon="42.60833">
        <ele>343.284033</ele>
        <time>2021-08-16T04:44:54.533Z</time>
      </trkpt>
      <trkpt lat="42.48309" lon="42.60754">
        <ele>341.009211</ele>
        <time>2021-08-16T04:45:10.800Z</time>
      </trkpt>
      <trkpt lat="42.48285" lon="42.60743">
        <ele>340.356643</ele>
        <time>2021-08-16T04:45:15.064Z</time>
      </trkpt>
      <trkpt lat="42.48254" lon="42.60739">
        <ele>339.534782</ele>
        <time>2021-08-16T04:45:20.607Z</time>
      </trkpt>
      <trkpt lat="42.4819" lon="42.60743">
        <ele>337.881614</ele>
        <time>2021-08-16T04:45:32.253Z</time>
      </trkpt>
      <trkpt lat="42.48158" lon="42.60725">
        <ele>337.342786</ele>
        <time>2021-08-16T04:45:38.816Z</time>
      </trkpt>
      <trkpt lat="42.48096" lon="42.60702">
        <ele>336.981821</ele>
        <time>2021-08-16T04:45:51.893Z</time>
      </trkpt>
      <trkpt lat="42.48014" lon="42.60702">
        <ele>336.521338</ele>
        <time>2021-08-16T04:46:10.015Z</time>
      </trkpt>
      <trkpt lat="42.47939" lon="42.60691">
        <ele>336.047943</ele>
        <time>2021-08-16T04:46:26.988Z</time>
      </trkpt>
      <trkpt lat="42.47765" lon="42.60653">
        <ele>333.845609</ele>
        <time>2021-08-16T04:47:02.133Z</time>
      </trkpt>
      <trkpt lat="42.47707" lon="42.60616">
        <ele>332.205823</ele>
        <time>2021-08-16T04:47:13.208Z</time>
      </trkpt>
      <trkpt lat="42.47647" lon="42.6059">
        <ele>330.590392</ele>
        <time>2021-08-16T04:47:23.595Z</time>
      </trkpt>
      <trkpt lat="42.47478" lon="42.60543">
        <ele>325.953996</ele>
        <time>2021-08-16T04:47:53.195Z</time>
      </trkpt>
      <trkpt lat="42.4742" lon="42.60532">
        <ele>326.673115</ele>
        <time>2021-08-16T04:48:07.732Z</time>
      </trkpt>
      <trkpt lat="42.47267" lon="42.60472">
        <ele>329.150408</ele>
        <time>2021-08-16T04:49:04.162Z</time>
      </trkpt>
      <trkpt lat="42.47235" lon="42.60455">
        <ele>329.713362</ele>
        <time>2021-08-16T04:49:16.033Z</time>
      </trkpt>
      <trkpt lat="42.47222" lon="42.60442">
        <ele>329.977957</ele>
        <time>2021-08-16T04:49:21.090Z</time>
      </trkpt>
      <trkpt lat="42.47162" lon="42.60333">
        <ele>331.619142</ele>
        <time>2021-08-16T04:49:47.909Z</time>
      </trkpt>
      <trkpt lat="42.47091" lon="42.60271">
        <ele>332.966294</ele>
        <time>2021-08-16T04:50:10.348Z</time>
      </trkpt>
      <trkpt lat="42.47057" lon="42.60256">
        <ele>333.536635</ele>
        <time>2021-08-16T04:50:21.534Z</time>
      </trkpt>
      <trkpt lat="42.46838" lon="42.60086">
        <ele>337.127988</ele>
        <time>2021-08-16T04:51:49.754Z</time>
      </trkpt>
      <trkpt lat="42.46827" lon="42.60075">
        <ele>336.432037</ele>
        <time>2021-08-16T04:51:52.329Z</time>
      </trkpt>
      <trkpt lat="42.46767" lon="42.59964">
        <ele>331.263675</ele>
        <time>2021-08-16T04:52:08.407Z</time>
      </trkpt>
      <trkpt lat="42.4666" lon="42.59867">
        <ele>321.014351</ele>
        <time>2021-08-16T04:52:26.602Z</time>
      </trkpt>
      <trkpt lat="42.4663" lon="42.59854">
        <ele>317.9842</ele>
        <time>2021-08-16T04:52:31.020Z</time>
      </trkpt>
      <trkpt lat="42.46542" lon="42.59833">
        <ele>310.10847</ele>
        <time>2021-08-16T04:52:43.816Z</time>
      </trkpt>
      <trkpt lat="42.46352" lon="42.59808">
        <ele>298.875698</ele>
        <time>2021-08-16T04:53:13.422Z</time>
      </trkpt>
      <trkpt lat="42.46308" lon="42.59785">
        <ele>297.322539</ele>
        <time>2021-08-16T04:53:21.033Z</time>
      </trkpt>
      <trkpt lat="42.46232" lon="42.59729">
        <ele>294.481931</ele>
        <time>2021-08-16T04:53:36.298Z</time>
      </trkpt>
      <trkpt lat="42.46189" lon="42.59714">
        <ele>295.0931</ele>
        <time>2021-08-16T04:53:45.634Z</time>
      </trkpt>
      <trkpt lat="42.46177" lon="42.59715">
        <ele>295.455627</ele>
        <time>2021-08-16T04:53:49.557Z</time>
      </trkpt>
      <trkpt lat="42.46155" lon="42.59729">
        <ele>296.216077</ele>
        <time>2021-08-16T04:53:56.127Z</time>
      </trkpt>
      <trkpt lat="42.46132" lon="42.59769">
        <ele>297.396298</ele>
        <time>2021-08-16T04:54:10.060Z</time>
      </trkpt>
      <trkpt lat="42.46071" lon="42.59786">
        <ele>299.356911</ele>
        <time>2021-08-16T04:54:39.813Z</time>
      </trkpt>
      <trkpt lat="42.45948" lon="42.59856">
        <ele>309.527775</ele>
        <time>2021-08-16T04:56:04.958Z</time>
      </trkpt>
      <trkpt lat="42.45879" lon="42.59871">
        <ele>314.776552</ele>
        <time>2021-08-16T04:56:52.009Z</time>
      </trkpt>
      <trkpt lat="42.45846" lon="42.599">
        <ele>316.596253</ele>
        <time>2021-08-16T04:57:17.117Z</time>
      </trkpt>
      <trkpt lat="42.45776" lon="42.59878">
        <ele>319.864867</ele>
        <time>2021-08-16T04:57:52.465Z</time>
      </trkpt>
      <trkpt lat="42.45699" lon="42.59867">
        <ele>321.79969</ele>
        <time>2021-08-16T04:58:12.666Z</time>
      </trkpt>
      <trkpt lat="42.45677" lon="42.59852">
        <ele>320.967244</ele>
        <time>2021-08-16T04:58:17.109Z</time>
      </trkpt>
      <trkpt lat="42.45647" lon="42.59816">
        <ele>319.612837</ele>
        <time>2021-08-16T04:58:23.736Z</time>
      </trkpt>
      <trkpt lat="42.45634" lon="42.59788">
        <ele>318.787777</ele>
        <time>2021-08-16T04:58:27.555Z</time>
      </trkpt>
      <trkpt lat="42.45613" lon="42.59723">
        <ele>317.018111</ele>
        <time>2021-08-16T04:58:35.684Z</time>
      </trkpt>
      <trkpt lat="42.45604" lon="42.5965">
        <ele>316.917693</ele>
        <time>2021-08-16T04:58:44.506Z</time>
      </trkpt>
      <trkpt lat="42.45594" lon="42.59618">
        <ele>317.281731</ele>
        <time>2021-08-16T04:58:49.252Z</time>
      </trkpt>
      <trkpt lat="42.45564" lon="42.59558">
        <ele>318.040981</ele>
        <time>2021-08-16T04:59:04.459Z</time>
      </trkpt>
      <trkpt lat="42.4554" lon="42.59541">
        <ele>318.425462</ele>
        <time>2021-08-16T04:59:16.282Z</time>
      </trkpt>
      <trkpt lat="42.45521" lon="42.59552">
        <ele>318.718805</ele>
        <time>2021-08-16T04:59:27.660Z</time>
      </trkpt>
      <trkpt lat="42.45512" lon="42.59565">
        <ele>318.905549</ele>
        <time>2021-08-16T04:59:34.945Z</time>
      </trkpt>
      <trkpt lat="42.4551" lon="42.59616">
        <ele>322.291974</ele>
        <time>2021-08-16T04:59:59.641Z</time>
      </trkpt>
      <trkpt lat="42.45501" lon="42.59625">
        <ele>323.400028</ele>
        <time>2021-08-16T05:00:08.060Z</time>
      </trkpt>
      <trkpt lat="42.45493" lon="42.59624">
        <ele>324.196131</ele>
        <time>2021-08-16T05:00:14.373Z</time>
      </trkpt>
      <trkpt lat="42.45469" lon="42.59595">
        <ele>327.314979</ele>
        <time>2021-08-16T05:00:38.389Z</time>
      </trkpt>
      <trkpt lat="42.4543" lon="42.59513">
        <ele>334.340546</ele>
        <time>2021-08-16T05:01:34.142Z</time>
      </trkpt>
      <trkpt lat="42.45407" lon="42.59485">
        <ele>337.229995</ele>
        <time>2021-08-16T05:01:57.077Z</time>
      </trkpt>
      <trkpt lat="42.4539" lon="42.59479">
        <ele>338.685644</ele>
        <time>2021-08-16T05:02:09.798Z</time>
      </trkpt>
      <trkpt lat="42.45368" lon="42.59462">
        <ele>340.784099</ele>
        <time>2021-08-16T05:02:27.325Z</time>
      </trkpt>
      <trkpt lat="42.45332" lon="42.59449">
        <ele>343.871231</ele>
        <time>2021-08-16T05:02:51.389Z</time>
      </trkpt>
      <trkpt lat="42.45338" lon="42.59395">
        <ele>347.209937</ele>
        <time>2021-08-16T05:03:15.216Z</time>
      </trkpt>
      <trkpt lat="42.45334" lon="42.59354">
        <ele>349.738434</ele>
        <time>2021-08-16T05:03:32.413Z</time>
      </trkpt>
      <trkpt lat="42.45285" lon="42.59303">
        <ele>354.47122</ele>
        <time>2021-08-16T05:04:07.684Z</time>
      </trkpt>
      <trkpt lat="42.4525" lon="42.59286">
        <ele>357.206133</ele>
        <time>2021-08-16T05:04:29.579Z</time>
      </trkpt>
      <trkpt lat="42.45237" lon="42.59273">
        <ele>358.39453</ele>
        <time>2021-08-16T05:04:38.997Z</time>
      </trkpt>
      <trkpt lat="42.45229" lon="42.59256">
        <ele>359.488892</ele>
        <time>2021-08-16T05:04:47.753Z</time>
      </trkpt>
      <trkpt lat="42.45232" lon="42.5912">
        <ele>367.012896</ele>
        <time>2021-08-16T05:05:48.099Z</time>
      </trkpt>
      <trkpt lat="42.45228" lon="42.59108">
        <ele>367.750735</ele>
        <time>2021-08-16T05:05:54.162Z</time>
      </trkpt>
      <trkpt lat="42.45186" lon="42.59063">
        <ele>371.873956</ele>
        <time>2021-08-16T05:06:29.227Z</time>
      </trkpt>
      <trkpt lat="42.45153" lon="42.59005">
        <ele>376.063343</ele>
        <time>2021-08-16T05:07:03.469Z</time>
      </trkpt>
      <trkpt lat="42.45132" lon="42.58898">
        <ele>380.927912</ele>
        <time>2021-08-16T05:07:48.538Z</time>
      </trkpt>
      <trkpt lat="42.45098" lon="42.5881">
        <ele>384.364776</ele>
        <time>2021-08-16T05:08:22.292Z</time>
      </trkpt>
      <trkpt lat="42.45096" lon="42.58756">
        <ele>386.273573</ele>
        <time>2021-08-16T05:08:37.938Z</time>
      </trkpt>
      <trkpt lat="42.45105" lon="42.58719">
        <ele>387.602441</ele>
        <time>2021-08-16T05:08:48.113Z</time>
      </trkpt>
      <trkpt lat="42.45117" lon="42.58693">
        <ele>388.562071</ele>
        <time>2021-08-16T05:08:55.042Z</time>
      </trkpt>
      <trkpt lat="42.45175" lon="42.58625">
        <ele>391.852209</ele>
        <time>2021-08-16T05:09:21.338Z</time>
      </trkpt>
      <trkpt lat="42.45186" lon="42.58585">
        <ele>393.232571</ele>
        <time>2021-08-16T05:09:36.101Z</time>
      </trkpt>
      <trkpt lat="42.45177" lon="42.58479">
        <ele>399.600098</ele>
        <time>2021-08-16T05:10:24.634Z</time>
      </trkpt>
      <trkpt lat="42.4517" lon="42.58461">
        <ele>401.331664</ele>
        <time>2021-08-16T05:10:35.561Z</time>
      </trkpt>
      <trkpt lat="42.45145" lon="42.58427">
        <ele>405.454105</ele>
        <time>2021-08-16T05:11:03.566Z</time>
      </trkpt>
      <trkpt lat="42.45145" lon="42.58417">
        <ele>406.308181</ele>
        <time>2021-08-16T05:11:09.826Z</time>
      </trkpt>
      <trkpt lat="42.45165" lon="42.58377">
        <ele>410.518959</ele>
        <time>2021-08-16T05:11:41.942Z</time>
      </trkpt>
      <trkpt lat="42.45169" lon="42.58354">
        <ele>412.495763</ele>
        <time>2021-08-16T05:11:57.733Z</time>
      </trkpt>
      <trkpt lat="42.45152" lon="42.58322">
        <ele>415.924426</ele>
        <time>2021-08-16T05:12:25.924Z</time>
      </trkpt>
      <trkpt lat="42.45118" lon="42.58217">
        <ele>427.494598</ele>
        <time>2021-08-16T05:13:51.242Z</time>
      </trkpt>
      <trkpt lat="42.45102" lon="42.58024">
        <ele>445.542486</ele>
        <time>2021-08-16T05:15:51.393Z</time>
      </trkpt>
      <trkpt lat="42.45094" lon="42.57992">
        <ele>448.173171</ele>
        <time>2021-08-16T05:16:09.506Z</time>
      </trkpt>
      <trkpt lat="42.45076" lon="42.57957">
        <ele>451.494952</ele>
        <time>2021-08-16T05:16:32.246Z</time>
      </trkpt>
      <trkpt lat="42.45053" lon="42.57865">
        <ele>459.058208</ele>
        <time>2021-08-16T05:17:23.080Z</time>
      </trkpt>
      <trkpt lat="42.45023" lon="42.57784">
        <ele>466.221615</ele>
        <time>2021-08-16T05:18:09.948Z</time>
      </trkpt>
      <trkpt lat="42.44943" lon="42.57629">
        <ele>480.996772</ele>
        <time>2021-08-16T05:20:00.600Z</time>
      </trkpt>
      <trkpt lat="42.44898" lon="42.57515">
        <ele>490.43268</ele>
        <time>2021-08-16T05:21:14.448Z</time>
      </trkpt>
      <trkpt lat="42.44847" lon="42.57335">
        <ele>500.811375</ele>
        <time>2021-08-16T05:22:41.269Z</time>
      </trkpt>
      <trkpt lat="42.4485" lon="42.57264">
        <ele>503.581274</ele>
        <time>2021-08-16T05:23:03.073Z</time>
      </trkpt>
      <trkpt lat="42.44869" lon="42.57169">
        <ele>506.849383</ele>
        <time>2021-08-16T05:23:29.392Z</time>
      </trkpt>
      <trkpt lat="42.44889" lon="42.57101">
        <ele>508.489042</ele>
        <time>2021-08-16T05:23:47.643Z</time>
      </trkpt>
      <trkpt lat="42.44884" lon="42.57059">
        <ele>509.430271</ele>
        <time>2021-08-16T05:23:58.688Z</time>
      </trkpt>
      <trkpt lat="42.4487" lon="42.57034">
        <ele>510.117073</ele>
        <time>2021-08-16T05:24:07.186Z</time>
      </trkpt>
      <trkpt lat="42.44845" lon="42.57014">
        <ele>511.00388</ele>
        <time>2021-08-16T05:24:18.638Z</time>
      </trkpt>
      <trkpt lat="42.4481" lon="42.57018">
        <ele>512.441084</ele>
        <time>2021-08-16T05:24:33.125Z</time>
      </trkpt>
      <trkpt lat="42.44727" lon="42.56992">
        <ele>516.749952</ele>
        <time>2021-08-16T05:25:12.797Z</time>
      </trkpt>
      <trkpt lat="42.44572" lon="42.57013">
        <ele>524.189481</ele>
        <time>2021-08-16T05:26:33.698Z</time>
      </trkpt>
      <trkpt lat="42.44531" lon="42.57041">
        <ele>526.260625</ele>
        <time>2021-08-16T05:26:54.908Z</time>
      </trkpt>
      <trkpt lat="42.44478" lon="42.57061">
        <ele>528.67833</ele>
        <time>2021-08-16T05:27:16.423Z</time>
      </trkpt>
      <trkpt lat="42.44437" lon="42.57093">
        <ele>527.343509</ele>
        <time>2021-08-16T05:27:30.229Z</time>
      </trkpt>
      <trkpt lat="42.44368" lon="42.57097">
        <ele>525.395101</ele>
        <time>2021-08-16T05:27:42.721Z</time>
      </trkpt>
      <trkpt lat="42.44325" lon="42.57117">
        <ele>524.112523</ele>
        <time>2021-08-16T05:27:49.733Z</time>
      </trkpt>
      <trkpt lat="42.44307" lon="42.57114">
        <ele>523.548644</ele>
        <time>2021-08-16T05:27:52.372Z</time>
      </trkpt>
      <trkpt lat="42.44247" lon="42.57075">
        <ele>516.729122</ele>
        <time>2021-08-16T05:28:01.873Z</time>
      </trkpt>
      <trkpt lat="42.44226" lon="42.57087">
        <ele>514.473336</ele>
        <time>2021-08-16T05:28:04.962Z</time>
      </trkpt>
      <trkpt lat="42.44207" lon="42.57123">
        <ele>511.115187</ele>
        <time>2021-08-16T05:28:09.542Z</time>
      </trkpt>
      <trkpt lat="42.44141" lon="42.57213">
        <ele>503.282065</ele>
        <time>2021-08-16T05:28:22.669Z</time>
      </trkpt>
      <trkpt lat="42.44122" lon="42.57271">
        <ele>500.66858</ele>
        <time>2021-08-16T05:28:29.619Z</time>
      </trkpt>
      <trkpt lat="42.44117" lon="42.57305">
        <ele>499.240765</ele>
        <time>2021-08-16T05:28:33.600Z</time>
      </trkpt>
      <trkpt lat="42.44122" lon="42.57361">
        <ele>496.917598</ele>
        <time>2021-08-16T05:28:40.668Z</time>
      </trkpt>
      <trkpt lat="42.44156" lon="42.57483">
        <ele>496.762416</ele>
        <time>2021-08-16T05:29:05.708Z</time>
      </trkpt>
      <trkpt lat="42.44139" lon="42.57578">
        <ele>498.333801</ele>
        <time>2021-08-16T05:29:35.178Z</time>
      </trkpt>
      <trkpt lat="42.44113" lon="42.57627">
        <ele>499.271714</ele>
        <time>2021-08-16T05:29:53.128Z</time>
      </trkpt>
      <trkpt lat="42.44081" lon="42.57713">
        <ele>500.225304</ele>
        <time>2021-08-16T05:30:18.417Z</time>
      </trkpt>
      <trkpt lat="42.44021" lon="42.57835">
        <ele>501.587255</ele>
        <time>2021-08-16T05:30:45.932Z</time>
      </trkpt>
      <trkpt lat="42.44008" lon="42.5785">
        <ele>501.356635</ele>
        <time>2021-08-16T05:30:49.257Z</time>
      </trkpt>
      <trkpt lat="42.43969" lon="42.57874">
        <ele>500.778096</ele>
        <time>2021-08-16T05:30:57.325Z</time>
      </trkpt>
      <trkpt lat="42.43943" lon="42.5791">
        <ele>500.276011</ele>
        <time>2021-08-16T05:31:04.151Z</time>
      </trkpt>
      <trkpt lat="42.43933" lon="42.57934">
        <ele>500.001287</ele>
        <time>2021-08-16T05:31:07.936Z</time>
      </trkpt>
      <trkpt lat="42.43911" lon="42.57998">
        <ele>499.297937</ele>
        <time>2021-08-16T05:31:17.692Z</time>
      </trkpt>
      <trkpt lat="42.43909" lon="42.58103">
        <ele>499.081754</ele>
        <time>2021-08-16T05:31:32.771Z</time>
      </trkpt>
      <trkpt lat="42.43902" lon="42.58132">
        <ele>499.042975</ele>
        <time>2021-08-16T05:31:37.288Z</time>
      </trkpt>
      <trkpt lat="42.4387" lon="42.58199">
        <ele>498.94151</ele>
        <time>2021-08-16T05:31:50.529Z</time>
      </trkpt>
      <trkpt lat="42.43867" lon="42.58222">
        <ele>498.911764</ele>
        <time>2021-08-16T05:31:55.130Z</time>
      </trkpt>
      <trkpt lat="42.43871" lon="42.58301">
        <ele>500.588475</ele>
        <time>2021-08-16T05:32:16.230Z</time>
      </trkpt>
      <trkpt lat="42.43866" lon="42.58316">
        <ele>501.025467</ele>
        <time>2021-08-16T05:32:20.070Z</time>
      </trkpt>
      <trkpt lat="42.43843" lon="42.58331">
        <ele>501.91232</ele>
        <time>2021-08-16T05:32:30.807Z</time>
      </trkpt>
      <trkpt lat="42.43825" lon="42.58336">
        <ele>502.553142</ele>
        <time>2021-08-16T05:32:36.915Z</time>
      </trkpt>
      <trkpt lat="42.4381" lon="42.58342">
        <ele>503.116472</ele>
        <time>2021-08-16T05:32:45.189Z</time>
      </trkpt>
      <trkpt lat="42.43793" lon="42.58352">
        <ele>503.756657</ele>
        <time>2021-08-16T05:32:51.846Z</time>
      </trkpt>
      <trkpt lat="42.43781" lon="42.58367">
        <ele>504.358455</ele>
        <time>2021-08-16T05:33:00.813Z</time>
      </trkpt>
      <trkpt lat="42.43777" lon="42.58387">
        <ele>504.905827</ele>
        <time>2021-08-16T05:33:07.129Z</time>
      </trkpt>
      <trkpt lat="42.43781" lon="42.58434">
        <ele>506.25484</ele>
        <time>2021-08-16T05:33:24.094Z</time>
      </trkpt>
      <trkpt lat="42.43773" lon="42.58449">
        <ele>506.782725</ele>
        <time>2021-08-16T05:33:30.594Z</time>
      </trkpt>
      <trkpt lat="42.43762" lon="42.58452">
        <ele>507.229649</ele>
        <time>2021-08-16T05:33:36.856Z</time>
      </trkpt>
      <trkpt lat="42.43739" lon="42.58426">
        <ele>508.466223</ele>
        <time>2021-08-16T05:33:51.635Z</time>
      </trkpt>
      <trkpt lat="42.43671" lon="42.58374">
        <ele>511.582409</ele>
        <time>2021-08-16T05:34:23.078Z</time>
      </trkpt>
      <trkpt lat="42.43585" lon="42.5829">
        <ele>513.216428</ele>
        <time>2021-08-16T05:34:56.569Z</time>
      </trkpt>
      <trkpt lat="42.43491" lon="42.58211">
        <ele>513.98504</ele>
        <time>2021-08-16T05:35:20.748Z</time>
      </trkpt>
      <trkpt lat="42.4345" lon="42.58144">
        <ele>513.663517</ele>
        <time>2021-08-16T05:35:34.030Z</time>
      </trkpt>
      <trkpt lat="42.43437" lon="42.58114">
        <ele>513.535</ele>
        <time>2021-08-16T05:35:39.321Z</time>
      </trkpt>
      <trkpt lat="42.43368" lon="42.58009">
        <ele>512.980242</ele>
        <time>2021-08-16T05:36:00.889Z</time>
      </trkpt>
      <trkpt lat="42.43261" lon="42.5782">
        <ele>511.844983</ele>
        <time>2021-08-16T05:36:37.289Z</time>
      </trkpt>
      <trkpt lat="42.43141" lon="42.57627">
        <ele>510.459744</ele>
        <time>2021-08-16T05:37:15.001Z</time>
      </trkpt>
      <trkpt lat="42.43104" lon="42.57606">
        <ele>510.204692</ele>
        <time>2021-08-16T05:37:23.338Z</time>
      </trkpt>
      <trkpt lat="42.43077" lon="42.57503">
        <ele>509.69176</ele>
        <time>2021-08-16T05:37:40.104Z</time>
      </trkpt>
      <trkpt lat="42.4304" lon="42.57445">
        <ele>509.182973</ele>
        <time>2021-08-16T05:37:51.898Z</time>
      </trkpt>
      <trkpt lat="42.42989" lon="42.5738">
        <ele>508.362785</ele>
        <time>2021-08-16T05:38:06.004Z</time>
      </trkpt>
      <trkpt lat="42.42897" lon="42.57287">
        <ele>506.71777</ele>
        <time>2021-08-16T05:38:27.651Z</time>
      </trkpt>
      <trkpt lat="42.42841" lon="42.57267">
        <ele>505.5014</ele>
        <time>2021-08-16T05:38:38.257Z</time>
      </trkpt>
      <trkpt lat="42.4275" lon="42.57187">
        <ele>503.181931</ele>
        <time>2021-08-16T05:38:57.783Z</time>
      </trkpt>
      <trkpt lat="42.42692" lon="42.57155">
        <ele>501.721292</ele>
        <time>2021-08-16T05:39:08.913Z</time>
      </trkpt>
      <trkpt lat="42.42662" lon="42.57127">
        <ele>500.871612</ele>
        <time>2021-08-16T05:39:15.431Z</time>
      </trkpt>
      <trkpt lat="42.42609" lon="42.57121">
        <ele>499.631159</ele>
        <time>2021-08-16T05:39:25.038Z</time>
      </trkpt>
      <trkpt lat="42.42544" lon="42.57136">
        <ele>497.856581</ele>
        <time>2021-08-16T05:39:36.929Z</time>
      </trkpt>
      <trkpt lat="42.42469" lon="42.57131">
        <ele>495.796617</ele>
        <time>2021-08-16T05:39:50.158Z</time>
      </trkpt>
      <trkpt lat="42.42396" lon="42.57138">
        <ele>493.202933</ele>
        <time>2021-08-16T05:40:02.608Z</time>
      </trkpt>
      <trkpt lat="42.42336" lon="42.57185">
        <ele>489.739929</ele>
        <time>2021-08-16T05:40:13.867Z</time>
      </trkpt>
      <trkpt lat="42.42285" lon="42.572">
        <ele>487.13235</ele>
        <time>2021-08-16T05:40:21.953Z</time>
      </trkpt>
      <trkpt lat="42.42195" lon="42.57247">
        <ele>481.425349</ele>
        <time>2021-08-16T05:40:36.502Z</time>
      </trkpt>
      <trkpt lat="42.42145" lon="42.57288">
        <ele>477.695728</ele>
        <time>2021-08-16T05:40:45.218Z</time>
      </trkpt>
      <trkpt lat="42.42072" lon="42.5737">
        <ele>473.024836</ele>
        <time>2021-08-16T05:40:59.939Z</time>
      </trkpt>
      <trkpt lat="42.42064" lon="42.57387">
        <ele>472.622849</ele>
        <time>2021-08-16T05:41:02.462Z</time>
      </trkpt>
      <trkpt lat="42.42042" lon="42.57475">
        <ele>470.770283</ele>
        <time>2021-08-16T05:41:15.570Z</time>
      </trkpt>
      <trkpt lat="42.42038" lon="42.57524">
        <ele>469.787289</ele>
        <time>2021-08-16T05:41:22.461Z</time>
      </trkpt>
      <trkpt lat="42.42038" lon="42.57567">
        <ele>468.974693</ele>
        <time>2021-08-16T05:41:28.430Z</time>
      </trkpt>
      <trkpt lat="42.42045" lon="42.57637">
        <ele>467.81433</ele>
        <time>2021-08-16T05:41:38.623Z</time>
      </trkpt>
      <trkpt lat="42.42008" lon="42.57687">
        <ele>466.662285</ele>
        <time>2021-08-16T05:41:48.249Z</time>
      </trkpt>
      <trkpt lat="42.41909" lon="42.57766">
        <ele>465.200074</ele>
        <time>2021-08-16T05:42:07.726Z</time>
      </trkpt>
      <trkpt lat="42.41866" lon="42.57914">
        <ele>465.218662</ele>
        <time>2021-08-16T05:42:34.364Z</time>
      </trkpt>
      <trkpt lat="42.41838" lon="42.57959">
        <ele>467.335752</ele>
        <time>2021-08-16T05:42:54.891Z</time>
      </trkpt>
      <trkpt lat="42.41828" lon="42.57989">
        <ele>469.062154</ele>
        <time>2021-08-16T05:43:08.363Z</time>
      </trkpt>
      <trkpt lat="42.41819" lon="42.58127">
        <ele>476.31494</ele>
        <time>2021-08-16T05:44:15.071Z</time>
      </trkpt>
      <trkpt lat="42.41813" lon="42.58147">
        <ele>477.409114</ele>
        <time>2021-08-16T05:44:25.715Z</time>
      </trkpt>
      <trkpt lat="42.41803" lon="42.58154">
        <ele>478.163658</ele>
        <time>2021-08-16T05:44:33.529Z</time>
      </trkpt>
      <trkpt lat="42.41789" lon="42.58153">
        <ele>478.983499</ele>
        <time>2021-08-16T05:44:42.913Z</time>
      </trkpt>
      <trkpt lat="42.41775" lon="42.58134">
        <ele>480.152934</ele>
        <time>2021-08-16T05:44:56.358Z</time>
      </trkpt>
      <trkpt lat="42.41686" lon="42.57947">
        <ele>488.171154</ele>
        <time>2021-08-16T05:46:15.489Z</time>
      </trkpt>
      <trkpt lat="42.41665" lon="42.57876">
        <ele>487.719801</ele>
        <time>2021-08-16T05:46:29.383Z</time>
      </trkpt>
      <trkpt lat="42.41592" lon="42.57676">
        <ele>484.032991</ele>
        <time>2021-08-16T05:46:57.344Z</time>
      </trkpt>
      <trkpt lat="42.4157" lon="42.5756">
        <ele>480.01815</ele>
        <time>2021-08-16T05:47:11.157Z</time>
      </trkpt>
      <trkpt lat="42.41514" lon="42.57393">
        <ele>475.028593</ele>
        <time>2021-08-16T05:47:33.224Z</time>
      </trkpt>
      <trkpt lat="42.41463" lon="42.57314">
        <ele>472.420379</ele>
        <time>2021-08-16T05:47:47.179Z</time>
      </trkpt>
      <trkpt lat="42.4142" lon="42.57258">
        <ele>471.238279</ele>
        <time>2021-08-16T05:47:58.684Z</time>
      </trkpt>
      <trkpt lat="42.41302" lon="42.57153">
        <ele>467.848009</ele>
        <time>2021-08-16T05:48:24.720Z</time>
      </trkpt>
      <trkpt lat="42.41223" lon="42.57056">
        <ele>463.296687</ele>
        <time>2021-08-16T05:48:42.297Z</time>
      </trkpt>
      <trkpt lat="42.4119" lon="42.56994">
        <ele>460.541513</ele>
        <time>2021-08-16T05:48:51.059Z</time>
      </trkpt>
      <trkpt lat="42.41102" lon="42.56912">
        <ele>451.916245</ele>
        <time>2021-08-16T05:49:06.954Z</time>
      </trkpt>
      <trkpt lat="42.41051" lon="42.56831">
        <ele>444.924333</ele>
        <time>2021-08-16T05:49:18.216Z</time>
      </trkpt>
      <trkpt lat="42.41002" lon="42.56726">
        <ele>433.480027</ele>
        <time>2021-08-16T05:49:30.912Z</time>
      </trkpt>
      <trkpt lat="42.40957" lon="42.56676">
        <ele>426.216878</ele>
        <time>2021-08-16T05:49:38.825Z</time>
      </trkpt>
      <trkpt lat="42.40884" lon="42.5658">
        <ele>411.293912</ele>
        <time>2021-08-16T05:49:52.572Z</time>
      </trkpt>
      <trkpt lat="42.40802" lon="42.56458">
        <ele>393.055615</ele>
        <time>2021-08-16T05:50:08.901Z</time>
      </trkpt>
      <trkpt lat="42.40773" lon="42.56441">
        <ele>388.381876</ele>
        <time>2021-08-16T05:50:13.199Z</time>
      </trkpt>
      <trkpt lat="42.40712" lon="42.56425">
        <ele>379.264816</ele>
        <time>2021-08-16T05:50:21.556Z</time>
      </trkpt>
      <trkpt lat="42.40654" lon="42.56415">
        <ele>370.683905</ele>
        <time>2021-08-16T05:50:29.418Z</time>
      </trkpt>
      <trkpt lat="42.40618" lon="42.56434">
        <ele>365.87727</ele>
        <time>2021-08-16T05:50:34.682Z</time>
      </trkpt>
      <trkpt lat="42.40608" lon="42.56455">
        <ele>363.54424</ele>
        <time>2021-08-16T05:50:37.343Z</time>
      </trkpt>
      <trkpt lat="42.40605" lon="42.56466">
        <ele>362.482636</ele>
        <time>2021-08-16T05:50:38.466Z</time>
      </trkpt>
      <trkpt lat="42.40556" lon="42.56568">
        <ele>351.334256</ele>
        <time>2021-08-16T05:50:50.989Z</time>
      </trkpt>
      <trkpt lat="42.40542" lon="42.56636">
        <ele>345.2491</ele>
        <time>2021-08-16T05:50:58.107Z</time>
      </trkpt>
      <trkpt lat="42.4053" lon="42.56908">
        <ele>324.116517</ele>
        <time>2021-08-16T05:51:26.450Z</time>
      </trkpt>
      <trkpt lat="42.40535" lon="42.56967">
        <ele>320.502151</ele>
        <time>2021-08-16T05:51:32.745Z</time>
      </trkpt>
      <trkpt lat="42.40555" lon="42.57102">
        <ele>312.636489</ele>
        <time>2021-08-16T05:51:48.143Z</time>
      </trkpt>
      <trkpt lat="42.40559" lon="42.57219">
        <ele>308.709604</ele>
        <time>2021-08-16T05:52:02.343Z</time>
      </trkpt>
      <trkpt lat="42.40561" lon="42.5744">
        <ele>300.834824</ele>
        <time>2021-08-16T05:52:29.356Z</time>
      </trkpt>
      <trkpt lat="42.40541" lon="42.57513">
        <ele>297.857332</ele>
        <time>2021-08-16T05:52:38.435Z</time>
      </trkpt>
      <trkpt lat="42.40512" lon="42.57556">
        <ele>295.474242</ele>
        <time>2021-08-16T05:52:44.923Z</time>
      </trkpt>
      <trkpt lat="42.40483" lon="42.57574">
        <ele>292.772355</ele>
        <time>2021-08-16T05:52:49.646Z</time>
      </trkpt>
      <trkpt lat="42.40467" lon="42.57575">
        <ele>291.347748</ele>
        <time>2021-08-16T05:52:52.113Z</time>
      </trkpt>
      <trkpt lat="42.40268" lon="42.57534">
        <ele>273.134857</ele>
        <time>2021-08-16T05:53:20.989Z</time>
      </trkpt>
      <trkpt lat="42.40171" lon="42.57544">
        <ele>263.545939</ele>
        <time>2021-08-16T05:53:34.712Z</time>
      </trkpt>
      <trkpt lat="42.40159" lon="42.57538">
        <ele>262.405964</ele>
        <time>2021-08-16T05:53:36.458Z</time>
      </trkpt>
      <trkpt lat="42.40151" lon="42.57535">
        <ele>261.783558</ele>
        <time>2021-08-16T05:53:37.558Z</time>
      </trkpt>
      <trkpt lat="42.40122" lon="42.57513">
        <ele>259.260039</ele>
        <time>2021-08-16T05:53:42.217Z</time>
      </trkpt>
      <trkpt lat="42.40106" lon="42.57494">
        <ele>257.591394</ele>
        <time>2021-08-16T05:53:45.469Z</time>
      </trkpt>
      <trkpt lat="42.4008" lon="42.57431">
        <ele>253.487923</ele>
        <time>2021-08-16T05:53:53.138Z</time>
      </trkpt>
      <trkpt lat="42.40076" lon="42.57405">
        <ele>251.973715</ele>
        <time>2021-08-16T05:53:56.331Z</time>
      </trkpt>
      <trkpt lat="42.40072" lon="42.57379">
        <ele>250.443025</ele>
        <time>2021-08-16T05:53:59.228Z</time>
      </trkpt>
      <trkpt lat="42.40061" lon="42.57409">
        <ele>248.840042</ele>
        <time>2021-08-16T05:54:03.848Z</time>
      </trkpt>
      <trkpt lat="42.40053" lon="42.57485">
        <ele>247.427479</ele>
        <time>2021-08-16T05:54:14.536Z</time>
      </trkpt>
      <trkpt lat="42.40044" lon="42.57503">
        <ele>247.044135</ele>
        <time>2021-08-16T05:54:17.416Z</time>
      </trkpt>
      <trkpt lat="42.40016" lon="42.57524">
        <ele>246.245219</ele>
        <time>2021-08-16T05:54:23.644Z</time>
      </trkpt>
      <trkpt lat="42.39999" lon="42.57545">
        <ele>245.665042</ele>
        <time>2021-08-16T05:54:28.151Z</time>
      </trkpt>
      <trkpt lat="42.39948" lon="42.57689">
        <ele>242.057415</ele>
        <time>2021-08-16T05:54:51.130Z</time>
      </trkpt>
      <trkpt lat="42.3994" lon="42.57734">
        <ele>240.902271</ele>
        <time>2021-08-16T05:54:57.002Z</time>
      </trkpt>
      <trkpt lat="42.39945" lon="42.57798">
        <ele>239.262822</ele>
        <time>2021-08-16T05:55:05.085Z</time>
      </trkpt>
      <trkpt lat="42.39953" lon="42.57838">
        <ele>238.241662</ele>
        <time>2021-08-16T05:55:10.255Z</time>
      </trkpt>
      <trkpt lat="42.39978" lon="42.57884">
        <ele>237.106899</ele>
        <time>2021-08-16T05:55:17.278Z</time>
      </trkpt>
      <trkpt lat="42.4" lon="42.57899">
        <ele>236.434456</ele>
        <time>2021-08-16T05:55:21.517Z</time>
      </trkpt>
      <trkpt lat="42.4002" lon="42.57928">
        <ele>235.647434</ele>
        <time>2021-08-16T05:55:26.596Z</time>
      </trkpt>
      <trkpt lat="42.40032" lon="42.57966">
        <ele>234.804902</ele>
        <time>2021-08-16T05:55:32.344Z</time>
      </trkpt>
      <trkpt lat="42.40028" lon="42.58044">
        <ele>233.703214</ele>
        <time>2021-08-16T05:55:44.408Z</time>
      </trkpt>
      <trkpt lat="42.40019" lon="42.58124">
        <ele>235.545759</ele>
        <time>2021-08-16T05:56:03.423Z</time>
      </trkpt>
      <trkpt lat="42.39986" lon="42.58326">
        <ele>240.591695</ele>
        <time>2021-08-16T05:57:14.086Z</time>
      </trkpt>
      <trkpt lat="42.39973" lon="42.58366">
        <ele>241.902981</ele>
        <time>2021-08-16T05:57:29.577Z</time>
      </trkpt>
      <trkpt lat="42.39921" lon="42.58444">
        <ele>245.051605</ele>
        <time>2021-08-16T05:58:03.553Z</time>
      </trkpt>
      <trkpt lat="42.3991" lon="42.58473">
        <ele>246.031752</ele>
        <time>2021-08-16T05:58:12.639Z</time>
      </trkpt>
      <trkpt lat="42.39903" lon="42.58488">
        <ele>246.389414</ele>
        <time>2021-08-16T05:58:17.927Z</time>
      </trkpt>
      <trkpt lat="42.39899" lon="42.58496">
        <ele>246.526566</ele>
        <time>2021-08-16T05:58:20.288Z</time>
      </trkpt>
      <trkpt lat="42.39881" lon="42.58515">
        <ele>246.985052</ele>
        <time>2021-08-16T05:58:28.527Z</time>
      </trkpt>
      <trkpt lat="42.3981" lon="42.5857">
        <ele>248.589257</ele>
        <time>2021-08-16T05:58:55.013Z</time>
      </trkpt>
      <trkpt lat="42.39758" lon="42.58626">
        <ele>249.883546</ele>
        <time>2021-08-16T05:59:14.808Z</time>
      </trkpt>
      <trkpt lat="42.39716" lon="42.58648">
        <ele>250.646819</ele>
        <time>2021-08-16T05:59:27.826Z</time>
      </trkpt>
      <trkpt lat="42.39708" lon="42.5865">
        <ele>250.792278</ele>
        <time>2021-08-16T05:59:30.577Z</time>
      </trkpt>
      <trkpt lat="42.39705" lon="42.58654">
        <ele>250.868249</ele>
        <time>2021-08-16T05:59:31.992Z</time>
      </trkpt>
      <trkpt lat="42.39655" lon="42.58689">
        <ele>251.816354</ele>
        <time>2021-08-16T05:59:49.168Z</time>
      </trkpt>
      <trkpt lat="42.39636" lon="42.5871">
        <ele>252.238633</ele>
        <time>2021-08-16T05:59:57.454Z</time>
      </trkpt>
      <trkpt lat="42.39627" lon="42.58729">
        <ele>252.516149</ele>
        <time>2021-08-16T06:00:02.817Z</time>
      </trkpt>
      <trkpt lat="42.39623" lon="42.58801">
        <ele>253.692139</ele>
        <time>2021-08-16T06:00:21.721Z</time>
      </trkpt>
      <trkpt lat="42.39649" lon="42.58923">
        <ele>255.983969</ele>
        <time>2021-08-16T06:00:55.012Z</time>
      </trkpt>
      <trkpt lat="42.39645" lon="42.59032">
        <ele>258.002716</ele>
        <time>2021-08-16T06:01:24.381Z</time>
      </trkpt>
      <trkpt lat="42.39641" lon="42.59054">
        <ele>258.433542</ele>
        <time>2021-08-16T06:01:30.468Z</time>
      </trkpt>
      <trkpt lat="42.39616" lon="42.59101">
        <ele>259.523973</ele>
        <time>2021-08-16T06:01:45.765Z</time>
      </trkpt>
      <trkpt lat="42.39608" lon="42.59128">
        <ele>260.07938</ele>
        <time>2021-08-16T06:01:53.539Z</time>
      </trkpt>
      <trkpt lat="42.39602" lon="42.59223">
        <ele>261.881171</ele>
        <time>2021-08-16T06:02:18.799Z</time>
      </trkpt>
      <trkpt lat="42.39601" lon="42.59424">
        <ele>265.360119</ele>
        <time>2021-08-16T06:03:12.100Z</time>
      </trkpt>
      <trkpt lat="42.39616" lon="42.59522">
        <ele>266.265394</ele>
        <time>2021-08-16T06:03:36.162Z</time>
      </trkpt>
      <trkpt lat="42.39613" lon="42.5956">
        <ele>266.393053</ele>
        <time>2021-08-16T06:03:44.473Z</time>
      </trkpt>
      <trkpt lat="42.39542" lon="42.5971">
        <ele>266.434773</ele>
        <time>2021-08-16T06:04:14.097Z</time>
      </trkpt>
      <trkpt lat="42.39499" lon="42.5976">
        <ele>265.414504</ele>
        <time>2021-08-16T06:04:25.043Z</time>
      </trkpt>
      <trkpt lat="42.39477" lon="42.59873">
        <ele>263.841761</ele>
        <time>2021-08-16T06:04:41.637Z</time>
      </trkpt>
      <trkpt lat="42.39463" lon="42.59907">
        <ele>263.106615</ele>
        <time>2021-08-16T06:04:46.871Z</time>
      </trkpt>
      <trkpt lat="42.39373" lon="42.59943">
        <ele>260.109698</ele>
        <time>2021-08-16T06:05:03.890Z</time>
      </trkpt>
      <trkpt lat="42.39367" lon="42.59937">
        <ele>259.854423</ele>
        <time>2021-08-16T06:05:05.298Z</time>
      </trkpt>
      <trkpt lat="42.39337" lon="42.59933">
        <ele>258.914889</ele>
        <time>2021-08-16T06:05:10.453Z</time>
      </trkpt>
      <trkpt lat="42.39323" lon="42.59941">
        <ele>258.420967</ele>
        <time>2021-08-16T06:05:13.143Z</time>
      </trkpt>
      <trkpt lat="42.39296" lon="42.59986">
        <ele>257.012099</ele>
        <time>2021-08-16T06:05:20.524Z</time>
      </trkpt>
      <trkpt lat="42.39282" lon="42.60001">
        <ele>256.400943</ele>
        <time>2021-08-16T06:05:23.631Z</time>
      </trkpt>
      <trkpt lat="42.39219" lon="42.6005">
        <ele>253.959673</ele>
        <time>2021-08-16T06:05:36.053Z</time>
      </trkpt>
      <trkpt lat="42.39207" lon="42.60081">
        <ele>253.076732</ele>
        <time>2021-08-16T06:05:40.621Z</time>
      </trkpt>
      <trkpt lat="42.39169" lon="42.60132">
        <ele>251.946258</ele>
        <time>2021-08-16T06:05:50.396Z</time>
      </trkpt>
      <trkpt lat="42.39123" lon="42.60242">
        <ele>252.899371</ele>
        <time>2021-08-16T06:06:15.622Z</time>
      </trkpt>
      <trkpt lat="42.39076" lon="42.60257">
        <ele>253.401655</ele>
        <time>2021-08-16T06:06:32.435Z</time>
      </trkpt>
      <trkpt lat="42.39067" lon="42.60256">
        <ele>253.495772</ele>
        <time>2021-08-16T06:06:37.209Z</time>
      </trkpt>
      <trkpt lat="42.39053" lon="42.60239">
        <ele>253.848576</ele>
        <time>2021-08-16T06:06:44.101Z</time>
      </trkpt>
      <trkpt lat="42.39046" lon="42.60222">
        <ele>254.406945</ele>
        <time>2021-08-16T06:06:50.348Z</time>
      </trkpt>
      <trkpt lat="42.39043" lon="42.60178">
        <ele>255.708034</ele>
        <time>2021-08-16T06:07:03.921Z</time>
      </trkpt>
      <trkpt lat="42.39046" lon="42.6006">
        <ele>259.163712</ele>
        <time>2021-08-16T06:07:45.057Z</time>
      </trkpt>
      <trkpt lat="42.39043" lon="42.60049">
        <ele>259.517991</ele>
        <time>2021-08-16T06:07:49.025Z</time>
      </trkpt>
      <trkpt lat="42.39028" lon="42.60036">
        <ele>260.249398</ele>
        <time>2021-08-16T06:07:56.701Z</time>
      </trkpt>
      <trkpt lat="42.39005" lon="42.60028">
        <ele>261.082538</ele>
        <time>2021-08-16T06:08:05.365Z</time>
      </trkpt>
      <trkpt lat="42.38911" lon="42.60029">
        <ele>264.022089</ele>
        <time>2021-08-16T06:08:41.348Z</time>
      </trkpt>
      <trkpt lat="42.3878" lon="42.59953">
        <ele>267.234513</ele>
        <time>2021-08-16T06:09:35.742Z</time>
      </trkpt>
      <trkpt lat="42.38763" lon="42.5994">
        <ele>267.487839</ele>
        <time>2021-08-16T06:09:42.671Z</time>
      </trkpt>
      <trkpt lat="42.3874" lon="42.59901">
        <ele>267.960207</ele>
        <time>2021-08-16T06:09:53.929Z</time>
      </trkpt>
      <trkpt lat="42.3861" lon="42.59797">
        <ele>266.153983</ele>
        <time>2021-08-16T06:10:24.866Z</time>
      </trkpt>
      <trkpt lat="42.38583" lon="42.59766">
        <ele>265.199868</ele>
        <time>2021-08-16T06:10:30.938Z</time>
      </trkpt>
      <trkpt lat="42.38562" lon="42.59754">
        <ele>264.581675</ele>
        <time>2021-08-16T06:10:34.827Z</time>
      </trkpt>
      <trkpt lat="42.38491" lon="42.59746">
        <ele>261.612348</ele>
        <time>2021-08-16T06:10:46.904Z</time>
      </trkpt>
      <trkpt lat="42.38392" lon="42.59758">
        <ele>256.611027</ele>
        <time>2021-08-16T06:11:03.489Z</time>
      </trkpt>
      <trkpt lat="42.38369" lon="42.59766">
        <ele>255.420957</ele>
        <time>2021-08-16T06:11:07.423Z</time>
      </trkpt>
      <trkpt lat="42.38355" lon="42.59797">
        <ele>253.752838</ele>
        <time>2021-08-16T06:11:11.766Z</time>
      </trkpt>
      <trkpt lat="42.38335" lon="42.59825">
        <ele>251.637447</ele>
        <time>2021-08-16T06:11:16.378Z</time>
      </trkpt>
      <trkpt lat="42.38303" lon="42.59867">
        <ele>248.385489</ele>
        <time>2021-08-16T06:11:23.338Z</time>
      </trkpt>
      <trkpt lat="42.38291" lon="42.59872">
        <ele>247.415265</ele>
        <time>2021-08-16T06:11:25.423Z</time>
      </trkpt>
      <trkpt lat="42.38275" lon="42.59871">
        <ele>246.231151</ele>
        <time>2021-08-16T06:11:27.881Z</time>
      </trkpt>
      <trkpt lat="42.38267" lon="42.59852">
        <ele>245.062059</ele>
        <time>2021-08-16T06:11:30.361Z</time>
      </trkpt>
      <trkpt lat="42.38197" lon="42.59852">
        <ele>239.558119</ele>
        <time>2021-08-16T06:11:40.946Z</time>
      </trkpt>
      <trkpt lat="42.38168" lon="42.59851">
        <ele>236.931673</ele>
        <time>2021-08-16T06:11:45.286Z</time>
      </trkpt>
      <trkpt lat="42.38105" lon="42.59791">
        <ele>229.946757</ele>
        <time>2021-08-16T06:11:56.830Z</time>
      </trkpt>
      <trkpt lat="42.38083" lon="42.5978">
        <ele>227.872828</ele>
        <time>2021-08-16T06:12:00.318Z</time>
      </trkpt>
      <trkpt lat="42.38039" lon="42.5978">
        <ele>224.080943</ele>
        <time>2021-08-16T06:12:07.081Z</time>
      </trkpt>
      <trkpt lat="42.3802" lon="42.59769">
        <ele>222.547069</ele>
        <time>2021-08-16T06:12:10.192Z</time>
      </trkpt>
      <trkpt lat="42.37975" lon="42.59713">
        <ele>217.91652</ele>
        <time>2021-08-16T06:12:19.817Z</time>
      </trkpt>
      <trkpt lat="42.37946" lon="42.59672">
        <ele>214.77915</ele>
        <time>2021-08-16T06:12:26.416Z</time>
      </trkpt>
      <trkpt lat="42.37941" lon="42.59666">
        <ele>214.254913</ele>
        <time>2021-08-16T06:12:27.435Z</time>
      </trkpt>
      <trkpt lat="42.3787" lon="42.59621">
        <ele>208.555598</ele>
        <time>2021-08-16T06:12:39.662Z</time>
      </trkpt>
      <trkpt lat="42.37836" lon="42.59586">
        <ele>205.483371</ele>
        <time>2021-08-16T06:12:46.412Z</time>
      </trkpt>
      <trkpt lat="42.3782" lon="42.59589">
        <ele>204.367998</ele>
        <time>2021-08-16T06:12:48.915Z</time>
      </trkpt>
      <trkpt lat="42.37787" lon="42.59632">
        <ele>201.113641</ele>
        <time>2021-08-16T06:12:56.085Z</time>
      </trkpt>
      <trkpt lat="42.37755" lon="42.59711">
        <ele>196.062389</ele>
        <time>2021-08-16T06:13:06.716Z</time>
      </trkpt>
      <trkpt lat="42.37741" lon="42.59738">
        <ele>194.117031</ele>
        <time>2021-08-16T06:13:10.487Z</time>
      </trkpt>
      <trkpt lat="42.37698" lon="42.59786">
        <ele>189.69075</ele>
        <time>2021-08-16T06:13:18.959Z</time>
      </trkpt>
      <trkpt lat="42.37688" lon="42.59816">
        <ele>187.76205</ele>
        <time>2021-08-16T06:13:22.623Z</time>
      </trkpt>
      <trkpt lat="42.37668" lon="42.59849">
        <ele>185.25358</ele>
        <time>2021-08-16T06:13:27.464Z</time>
      </trkpt>
      <trkpt lat="42.37655" lon="42.59889">
        <ele>183.136798</ele>
        <time>2021-08-16T06:13:32.421Z</time>
      </trkpt>
      <trkpt lat="42.37639" lon="42.5994">
        <ele>180.589801</ele>
        <time>2021-08-16T06:13:38.660Z</time>
      </trkpt>
      <trkpt lat="42.37638" lon="42.59966">
        <ele>179.413901</ele>
        <time>2021-08-16T06:13:41.580Z</time>
      </trkpt>
      <trkpt lat="42.37641" lon="42.59991">
        <ele>178.239499</ele>
        <time>2021-08-16T06:13:44.466Z</time>
      </trkpt>
      <trkpt lat="42.37636" lon="42.60005">
        <ele>177.544966</ele>
        <time>2021-08-16T06:13:46.204Z</time>
      </trkpt>
      <trkpt lat="42.37619" lon="42.60011">
        <ele>176.464426</ele>
        <time>2021-08-16T06:13:48.941Z</time>
      </trkpt>
      <trkpt lat="42.3761" lon="42.60016">
        <ele>175.836115</ele>
        <time>2021-08-16T06:13:50.482Z</time>
      </trkpt>
      <trkpt lat="42.37575" lon="42.60031">
        <ele>173.619708</ele>
        <time>2021-08-16T06:13:56.145Z</time>
      </trkpt>
      <trkpt lat="42.37549" lon="42.60047">
        <ele>172.980716</ele>
        <time>2021-08-16T06:14:01.070Z</time>
      </trkpt>
      <trkpt lat="42.37531" lon="42.60042">
        <ele>172.599753</ele>
        <time>2021-08-16T06:14:04.457Z</time>
      </trkpt>
      <trkpt lat="42.37498" lon="42.60028">
        <ele>171.928876</ele>
        <time>2021-08-16T06:14:10.573Z</time>
      </trkpt>
      <trkpt lat="42.37462" lon="42.59995">
        <ele>171.055169</ele>
        <time>2021-08-16T06:14:19.620Z</time>
      </trkpt>
      <trkpt lat="42.37355" lon="42.59941">
        <ele>169.395763</ele>
        <time>2021-08-16T06:14:42.226Z</time>
      </trkpt>
      <trkpt lat="42.37296" lon="42.59893">
        <ele>168.731945</ele>
        <time>2021-08-16T06:14:55.976Z</time>
      </trkpt>
      <trkpt lat="42.37267" lon="42.59888">
        <ele>168.456851</ele>
        <time>2021-08-16T06:15:01.723Z</time>
      </trkpt>
      <trkpt lat="42.37247" lon="42.59891">
        <ele>168.263924</ele>
        <time>2021-08-16T06:15:05.771Z</time>
      </trkpt>
      <trkpt lat="42.37215" lon="42.59902">
        <ele>168.033319</ele>
        <time>2021-08-16T06:15:12.277Z</time>
      </trkpt>
      <trkpt lat="42.37093" lon="42.59907">
        <ele>167.21622</ele>
        <time>2021-08-16T06:15:37.250Z</time>
      </trkpt>
      <trkpt lat="42.37059" lon="42.59911">
        <ele>166.973756</ele>
        <time>2021-08-16T06:15:44.432Z</time>
      </trkpt>
      <trkpt lat="42.37029" lon="42.59918">
        <ele>166.699313</ele>
        <time>2021-08-16T06:15:51.086Z</time>
      </trkpt>
      <trkpt lat="42.36997" lon="42.59932">
        <ele>166.402617</ele>
        <time>2021-08-16T06:15:58.335Z</time>
      </trkpt>
      <trkpt lat="42.36911" lon="42.59987">
        <ele>165.554708</ele>
        <time>2021-08-16T06:16:17.154Z</time>
      </trkpt>
      <trkpt lat="42.36866" lon="42.60006">
        <ele>164.704827</ele>
        <time>2021-08-16T06:16:26.087Z</time>
      </trkpt>
      <trkpt lat="42.36849" lon="42.6001">
        <ele>164.321592</ele>
        <time>2021-08-16T06:16:29.413Z</time>
      </trkpt>
      <trkpt lat="42.36833" lon="42.60012">
        <ele>163.96707</ele>
        <time>2021-08-16T06:16:32.186Z</time>
      </trkpt>
      <trkpt lat="42.36789" lon="42.60004">
        <ele>162.978234</ele>
        <time>2021-08-16T06:16:40.221Z</time>
      </trkpt>
      <trkpt lat="42.36745" lon="42.60009">
        <ele>162.017015</ele>
        <time>2021-08-16T06:16:47.888Z</time>
      </trkpt>
      <trkpt lat="42.36726" lon="42.60016">
        <ele>161.579609</ele>
        <time>2021-08-16T06:16:51.257Z</time>
      </trkpt>
      <trkpt lat="42.36706" lon="42.60038">
        <ele>160.953044</ele>
        <time>2021-08-16T06:16:55.790Z</time>
      </trkpt>
      <trkpt lat="42.36681" lon="42.60056">
        <ele>160.225842</ele>
        <time>2021-08-16T06:17:00.845Z</time>
      </trkpt>
      <trkpt lat="42.36644" lon="42.60062">
        <ele>159.292722</ele>
        <time>2021-08-16T06:17:07.569Z</time>
      </trkpt>
      <trkpt lat="42.36608" lon="42.60054">
        <ele>158.377655</ele>
        <time>2021-08-16T06:17:14.115Z</time>
      </trkpt>
      <trkpt lat="42.36552" lon="42.6007">
        <ele>156.951697</ele>
        <time>2021-08-16T06:17:24.226Z</time>
      </trkpt>
      <trkpt lat="42.36529" lon="42.6007">
        <ele>156.269863</ele>
        <time>2021-08-16T06:17:28.331Z</time>
      </trkpt>
      <trkpt lat="42.36488" lon="42.6006">
        <ele>155.034423</ele>
        <time>2021-08-16T06:17:35.706Z</time>
      </trkpt>
      <trkpt lat="42.36411" lon="42.60045">
        <ele>152.723053</ele>
        <time>2021-08-16T06:17:49.173Z</time>
      </trkpt>
      <trkpt lat="42.36359" lon="42.60042">
        <ele>151.298444</ele>
        <time>2021-08-16T06:17:57.872Z</time>
      </trkpt>
      <trkpt lat="42.36317" lon="42.60056">
        <ele>150.394858</ele>
        <time>2021-08-16T06:18:05.023Z</time>
      </trkpt>
      <trkpt lat="42.36287" lon="42.60058">
        <ele>149.768581</ele>
        <time>2021-08-16T06:18:10.168Z</time>
      </trkpt>
      <trkpt lat="42.36262" lon="42.60056">
        <ele>149.237887</ele>
        <time>2021-08-16T06:18:14.571Z</time>
      </trkpt>
      <trkpt lat="42.36252" lon="42.60128">
        <ele>148.096497</ele>
        <time>2021-08-16T06:18:25.100Z</time>
      </trkpt>
      <trkpt lat="42.36216" lon="42.60359">
        <ele>151.366634</ele>
        <time>2021-08-16T06:19:19.594Z</time>
      </trkpt>
      <trkpt lat="42.36195" lon="42.60441">
        <ele>154.918928</ele>
        <time>2021-08-16T06:19:55.243Z</time>
      </trkpt>
      <trkpt lat="42.36179" lon="42.60546">
        <ele>160.468876</ele>
        <time>2021-08-16T06:20:44.997Z</time>
      </trkpt>
      <trkpt lat="42.36179" lon="42.60633">
        <ele>164.755625</ele>
        <time>2021-08-16T06:21:25.570Z</time>
      </trkpt>
      <trkpt lat="42.36152" lon="42.60697">
        <ele>167.221801</ele>
        <time>2021-08-16T06:21:56.743Z</time>
      </trkpt>
      <trkpt lat="42.36102" lon="42.60803">
        <ele>171.40187</ele>
        <time>2021-08-16T06:22:37.332Z</time>
      </trkpt>
      <trkpt lat="42.36062" lon="42.60852">
        <ele>172.901452</ele>
        <time>2021-08-16T06:22:51.024Z</time>
      </trkpt>
      <trkpt lat="42.36017" lon="42.60868">
        <ele>173.506513</ele>
        <time>2021-08-16T06:23:02.596Z</time>
      </trkpt>
      <trkpt lat="42.35968" lon="42.60872">
        <ele>174.136193</ele>
        <time>2021-08-16T06:23:16.387Z</time>
      </trkpt>
      <trkpt lat="42.35942" lon="42.60889">
        <ele>174.508807</ele>
        <time>2021-08-16T06:23:24.508Z</time>
      </trkpt>
      <trkpt lat="42.35925" lon="42.60932">
        <ele>175.212143</ele>
        <time>2021-08-16T06:23:36.311Z</time>
      </trkpt>
      <trkpt lat="42.35921" lon="42.61">
        <ele>177.146413</ele>
        <time>2021-08-16T06:23:55.710Z</time>
      </trkpt>
      <trkpt lat="42.35882" lon="42.6113">
        <ele>181.097854</ele>
        <time>2021-08-16T06:24:45.137Z</time>
      </trkpt>
      <trkpt lat="42.35826" lon="42.61374">
        <ele>187.137949</ele>
        <time>2021-08-16T06:26:04.079Z</time>
      </trkpt>
      <trkpt lat="42.35816" lon="42.61442">
        <ele>186.162883</ele>
        <time>2021-08-16T06:26:15.621Z</time>
      </trkpt>
      <trkpt lat="42.35804" lon="42.6145">
        <ele>185.804254</ele>
        <time>2021-08-16T06:26:17.895Z</time>
      </trkpt>
      <trkpt lat="42.35787" lon="42.61533">
        <ele>184.08016</ele>
        <time>2021-08-16T06:26:29.637Z</time>
      </trkpt>
      <trkpt lat="42.3578" lon="42.61546">
        <ele>183.779317</ele>
        <time>2021-08-16T06:26:31.476Z</time>
      </trkpt>
      <trkpt lat="42.35773" lon="42.61547">
        <ele>183.584239</ele>
        <time>2021-08-16T06:26:32.754Z</time>
      </trkpt>
      <trkpt lat="42.35726" lon="42.61505">
        <ele>181.506841</ele>
        <time>2021-08-16T06:26:41.906Z</time>
      </trkpt>
      <trkpt lat="42.35556" lon="42.6145">
        <ele>170.832493</ele>
        <time>2021-08-16T06:27:09.884Z</time>
      </trkpt>
      <trkpt lat="42.35508" lon="42.61447">
        <ele>167.802669</ele>
        <time>2021-08-16T06:27:17.561Z</time>
      </trkpt>
      <trkpt lat="42.35447" lon="42.61442">
        <ele>163.968008</ele>
        <time>2021-08-16T06:27:27.242Z</time>
      </trkpt>
      <trkpt lat="42.35416" lon="42.61439">
        <ele>162.038492</ele>
        <time>2021-08-16T06:27:32.185Z</time>
      </trkpt>
      <trkpt lat="42.3539" lon="42.61445">
        <ele>160.408636</ele>
        <time>2021-08-16T06:27:36.455Z</time>
      </trkpt>
      <trkpt lat="42.35351" lon="42.61439">
        <ele>158.783084</ele>
        <time>2021-08-16T06:27:43.004Z</time>
      </trkpt>
      <trkpt lat="42.35333" lon="42.61443">
        <ele>158.04918</ele>
        <time>2021-08-16T06:27:46.046Z</time>
      </trkpt>
      <trkpt lat="42.35267" lon="42.61467">
        <ele>155.346443</ele>
        <time>2021-08-16T06:27:57.680Z</time>
      </trkpt>
      <trkpt lat="42.35236" lon="42.61488">
        <ele>153.942</ele>
        <time>2021-08-16T06:28:04.028Z</time>
      </trkpt>
      <trkpt lat="42.35163" lon="42.6156">
        <ele>152.22561</ele>
        <time>2021-08-16T06:28:21.463Z</time>
      </trkpt>
      <trkpt lat="42.35128" lon="42.61595">
        <ele>151.663873</ele>
        <time>2021-08-16T06:28:30.543Z</time>
      </trkpt>
      <trkpt lat="42.35081" lon="42.6164">
        <ele>150.935243</ele>
        <time>2021-08-16T06:28:42.795Z</time>
      </trkpt>
      <trkpt lat="42.35009" lon="42.61668">
        <ele>150.776547</ele>
        <time>2021-08-16T06:28:59.580Z</time>
      </trkpt>
      <trkpt lat="42.34939" lon="42.6168">
        <ele>150.74566</ele>
        <time>2021-08-16T06:29:17.354Z</time>
      </trkpt>
      <trkpt lat="42.34897" lon="42.61641">
        <ele>150.705078</ele>
        <time>2021-08-16T06:29:29.555Z</time>
      </trkpt>
      <trkpt lat="42.34759" lon="42.61538">
        <ele>150.25282</ele>
        <time>2021-08-16T06:30:03.553Z</time>
      </trkpt>
      <trkpt lat="42.34639" lon="42.61477">
        <ele>151.606316</ele>
        <time>2021-08-16T06:30:36.228Z</time>
      </trkpt>
      <trkpt lat="42.34587" lon="42.61462">
        <ele>152.257595</ele>
        <time>2021-08-16T06:30:53.247Z</time>
      </trkpt>
      <trkpt lat="42.34505" lon="42.61454">
        <ele>155.083711</ele>
        <time>2021-08-16T06:31:28.577Z</time>
      </trkpt>
      <trkpt lat="42.34438" lon="42.61464">
        <ele>157.72306</ele>
        <time>2021-08-16T06:32:00.224Z</time>
      </trkpt>
      <trkpt lat="42.34414" lon="42.61465">
        <ele>158.661974</ele>
        <time>2021-08-16T06:32:10.948Z</time>
      </trkpt>
      <trkpt lat="42.34394" lon="42.61478">
        <ele>159.480739</ele>
        <time>2021-08-16T06:32:20.205Z</time>
      </trkpt>
      <trkpt lat="42.34369" lon="42.61478">
        <ele>159.889962</ele>
        <time>2021-08-16T06:32:30.096Z</time>
      </trkpt>
      <trkpt lat="42.34339" lon="42.61483">
        <ele>160.387294</ele>
        <time>2021-08-16T06:32:41.876Z</time>
      </trkpt>
      <trkpt lat="42.34205" lon="42.61575">
        <ele>162.04864</ele>
        <time>2021-08-16T06:33:23.120Z</time>
      </trkpt>
      <trkpt lat="42.34182" lon="42.61581">
        <ele>161.735894</ele>
        <time>2021-08-16T06:33:27.911Z</time>
      </trkpt>
      <trkpt lat="42.34096" lon="42.61541">
        <ele>160.555423</ele>
        <time>2021-08-16T06:33:45.615Z</time>
      </trkpt>
      <trkpt lat="42.34063" lon="42.61543">
        <ele>160.128746</ele>
        <time>2021-08-16T06:33:51.963Z</time>
      </trkpt>
      <trkpt lat="42.3394" lon="42.61567">
        <ele>156.380483</ele>
        <time>2021-08-16T06:34:14.895Z</time>
      </trkpt>
      <trkpt lat="42.33899" lon="42.61565">
        <ele>155.151563</ele>
        <time>2021-08-16T06:34:21.856Z</time>
      </trkpt>
      <trkpt lat="42.33861" lon="42.61519">
        <ele>153.315793</ele>
        <time>2021-08-16T06:34:30.737Z</time>
      </trkpt>
      <trkpt lat="42.33839" lon="42.61468">
        <ele>151.609234</ele>
        <time>2021-08-16T06:34:38.274Z</time>
      </trkpt>
      <trkpt lat="42.33826" lon="42.61407">
        <ele>149.767761</ele>
        <time>2021-08-16T06:34:46.466Z</time>
      </trkpt>
      <trkpt lat="42.33814" lon="42.61374">
        <ele>148.703032</ele>
        <time>2021-08-16T06:34:51.133Z</time>
      </trkpt>
      <trkpt lat="42.33784" lon="42.61348">
        <ele>147.292734</ele>
        <time>2021-08-16T06:34:57.240Z</time>
      </trkpt>
      <trkpt lat="42.33739" lon="42.61273">
        <ele>144.125664</ele>
        <time>2021-08-16T06:35:10.294Z</time>
      </trkpt>
      <trkpt lat="42.3369" lon="42.61163">
        <ele>139.911979</ele>
        <time>2021-08-16T06:35:26.294Z</time>
      </trkpt>
      <trkpt lat="42.33663" lon="42.61083">
        <ele>135.488645</ele>
        <time>2021-08-16T06:35:36.650Z</time>
      </trkpt>
      <trkpt lat="42.33654" lon="42.6106">
        <ele>134.166763</ele>
        <time>2021-08-16T06:35:39.458Z</time>
      </trkpt>
      <trkpt lat="42.33627" lon="42.6104">
        <ele>132.003241</ele>
        <time>2021-08-16T06:35:44.132Z</time>
      </trkpt>
      <trkpt lat="42.33565" lon="42.61">
        <ele>127.094339</ele>
        <time>2021-08-16T06:35:54.910Z</time>
      </trkpt>
      <trkpt lat="42.33527" lon="42.60978">
        <ele>126.138493</ele>
        <time>2021-08-16T06:36:01.466Z</time>
      </trkpt>
      <trkpt lat="42.33525" lon="42.60995">
        <ele>125.911743</ele>
        <time>2021-08-16T06:36:03.637Z</time>
      </trkpt>
      <trkpt lat="42.33513" lon="42.61042">
        <ele>125.23764</ele>
        <time>2021-08-16T06:36:10.330Z</time>
      </trkpt>
      <trkpt lat="42.33505" lon="42.61067">
        <ele>124.876122</ele>
        <time>2021-08-16T06:36:14.315Z</time>
      </trkpt>
      <trkpt lat="42.33501" lon="42.6108">
        <ele>124.680999</ele>
        <time>2021-08-16T06:36:17.186Z</time>
      </trkpt>
      <trkpt lat="42.33458" lon="42.61152">
        <ele>123.747254</ele>
        <time>2021-08-16T06:36:37.172Z</time>
      </trkpt>
      <trkpt lat="42.33432" lon="42.61258">
        <ele>126.449169</ele>
        <time>2021-08-16T06:37:15.940Z</time>
      </trkpt>
      <trkpt lat="42.3343" lon="42.61318">
        <ele>127.897651</ele>
        <time>2021-08-16T06:37:34.277Z</time>
      </trkpt>
      <trkpt lat="42.33425" lon="42.61342">
        <ele>128.507068</ele>
        <time>2021-08-16T06:37:40.623Z</time>
      </trkpt>
      <trkpt lat="42.33409" lon="42.61363">
        <ele>129.248315</ele>
        <time>2021-08-16T06:37:49.620Z</time>
      </trkpt>
      <trkpt lat="42.33377" lon="42.61331">
        <ele>129.666556</ele>
        <time>2021-08-16T06:38:02.889Z</time>
      </trkpt>
      <trkpt lat="42.3334" lon="42.61288">
        <ele>130.001231</ele>
        <time>2021-08-16T06:38:17.477Z</time>
      </trkpt>
      <trkpt lat="42.33302" lon="42.61228">
        <ele>130.396998</ele>
        <time>2021-08-16T06:38:32.444Z</time>
      </trkpt>
      <trkpt lat="42.33296" lon="42.61223">
        <ele>130.448479</ele>
        <time>2021-08-16T06:38:33.895Z</time>
      </trkpt>
      <trkpt lat="42.33282" lon="42.61231">
        <ele>130.548447</ele>
        <time>2021-08-16T06:38:36.924Z</time>
      </trkpt>
      <trkpt lat="42.3327" lon="42.61244">
        <ele>130.657192</ele>
        <time>2021-08-16T06:38:39.993Z</time>
      </trkpt>
      <trkpt lat="42.33226" lon="42.61265">
        <ele>129.921079</ele>
        <time>2021-08-16T06:38:49.566Z</time>
      </trkpt>
      <trkpt lat="42.33138" lon="42.61284">
        <ele>128.474119</ele>
        <time>2021-08-16T06:39:07.267Z</time>
      </trkpt>
      <trkpt lat="42.33042" lon="42.61316">
        <ele>126.656075</ele>
        <time>2021-08-16T06:39:25.647Z</time>
      </trkpt>
      <trkpt lat="42.32988" lon="42.61315">
        <ele>125.559635</ele>
        <time>2021-08-16T06:39:35.683Z</time>
      </trkpt>
      <trkpt lat="42.32962" lon="42.61327">
        <ele>125.001322</ele>
        <time>2021-08-16T06:39:40.883Z</time>
      </trkpt>
      <trkpt lat="42.32934" lon="42.61322">
        <ele>124.41884</ele>
        <time>2021-08-16T06:39:46.470Z</time>
      </trkpt>
      <trkpt lat="42.32891" lon="42.61285">
        <ele>124.462542</ele>
        <time>2021-08-16T06:39:57.052Z</time>
      </trkpt>
      <trkpt lat="42.32859" lon="42.61276">
        <ele>124.823509</ele>
        <time>2021-08-16T06:40:04.914Z</time>
      </trkpt>
      <trkpt lat="42.32803" lon="42.61354">
        <ele>125.702586</ele>
        <time>2021-08-16T06:40:29.762Z</time>
      </trkpt>
      <trkpt lat="42.32793" lon="42.61352">
        <ele>125.807853</ele>
        <time>2021-08-16T06:40:33.179Z</time>
      </trkpt>
      <trkpt lat="42.32785" lon="42.61372">
        <ele>125.988686</ele>
        <time>2021-08-16T06:40:39.776Z</time>
      </trkpt>
      <trkpt lat="42.3276" lon="42.61403">
        <ele>126.94315</ele>
        <time>2021-08-16T06:40:54.047Z</time>
      </trkpt>
      <trkpt lat="42.32741" lon="42.61411">
        <ele>127.553763</ele>
        <time>2021-08-16T06:41:01.699Z</time>
      </trkpt>
      <trkpt lat="42.32717" lon="42.6141">
        <ele>128.317206</ele>
        <time>2021-08-16T06:41:12.168Z</time>
      </trkpt>
      <trkpt lat="42.32698" lon="42.61403">
        <ele>128.925438</ele>
        <time>2021-08-16T06:41:19.468Z</time>
      </trkpt>
      <trkpt lat="42.32668" lon="42.61385">
        <ele>129.947432</ele>
        <time>2021-08-16T06:41:32.278Z</time>
      </trkpt>
      <trkpt lat="42.32635" lon="42.61357">
        <ele>131.158217</ele>
        <time>2021-08-16T06:41:46.781Z</time>
      </trkpt>
      <trkpt lat="42.32627" lon="42.61339">
        <ele>131.644972</ele>
        <time>2021-08-16T06:41:52.564Z</time>
      </trkpt>
      <trkpt lat="42.32626" lon="42.61317">
        <ele>131.669484</ele>
        <time>2021-08-16T06:41:58.055Z</time>
      </trkpt>
      <trkpt lat="42.32638" lon="42.61242">
        <ele>131.630862</ele>
        <time>2021-08-16T06:42:15.890Z</time>
      </trkpt>
      <trkpt lat="42.32637" lon="42.61217">
        <ele>131.61811</ele>
        <time>2021-08-16T06:42:20.544Z</time>
      </trkpt>
      <trkpt lat="42.32631" lon="42.61194">
        <ele>131.605486</ele>
        <time>2021-08-16T06:42:24.411Z</time>
      </trkpt>
      <trkpt lat="42.32621" lon="42.61175">
        <ele>131.593807</ele>
        <time>2021-08-16T06:42:27.721Z</time>
      </trkpt>
      <trkpt lat="42.32611" lon="42.61168">
        <ele>131.586097</ele>
        <time>2021-08-16T06:42:29.781Z</time>
      </trkpt>
      <trkpt lat="42.32596" lon="42.61162">
        <ele>131.575091</ele>
        <time>2021-08-16T06:42:32.647Z</time>
      </trkpt>
      <trkpt lat="42.32558" lon="42.61159">
        <ele>131.180111</ele>
        <time>2021-08-16T06:42:39.208Z</time>
      </trkpt>
      <trkpt lat="42.32519" lon="42.61155">
        <ele>129.807632</ele>
        <time>2021-08-16T06:42:45.990Z</time>
      </trkpt>
      <trkpt lat="42.32482" lon="42.61148">
        <ele>128.498313</ele>
        <time>2021-08-16T06:42:52.305Z</time>
      </trkpt>
      <trkpt lat="42.32441" lon="42.6114">
        <ele>127.070648</ele>
        <time>2021-08-16T06:42:59.053Z</time>
      </trkpt>
      <trkpt lat="42.32421" lon="42.61136">
        <ele>126.373672</ele>
        <time>2021-08-16T06:43:02.299Z</time>
      </trkpt>
      <trkpt lat="42.324" lon="42.61131">
        <ele>125.614605</ele>
        <time>2021-08-16T06:43:05.876Z</time>
      </trkpt>
      <trkpt lat="42.32385" lon="42.61127">
        <ele>125.180918</ele>
        <time>2021-08-16T06:43:08.295Z</time>
      </trkpt>
      <trkpt lat="42.3236" lon="42.61122">
        <ele>124.683426</ele>
        <time>2021-08-16T06:43:12.558Z</time>
      </trkpt>
      <trkpt lat="42.3236" lon="42.61122">
        <ele>124.683426</ele>
        <time>2021-08-16T06:43:12.568Z</time>
      </trkpt>
      <trkpt lat="42.32343" lon="42.61118">
        <ele>124.34167</ele>
        <time>2021-08-16T06:43:15.550Z</time>
      </trkpt>
      <trkpt lat="42.32284" lon="42.61104">
        <ele>123.175709</ele>
        <time>2021-08-16T06:43:26.857Z</time>
      </trkpt>
      <trkpt lat="42.32268" lon="42.61099">
        <ele>122.849163</ele>
        <time>2021-08-16T06:43:30.194Z</time>
      </trkpt>
      <trkpt lat="42.32195" lon="42.61065">
        <ele>121.483077</ele>
        <time>2021-08-16T06:43:45.689Z</time>
      </trkpt>
      <trkpt lat="42.3216" lon="42.61049">
        <ele>120.983472</ele>
        <time>2021-08-16T06:43:53.422Z</time>
      </trkpt>
      <trkpt lat="42.32146" lon="42.61045">
        <ele>120.789177</ele>
        <time>2021-08-16T06:43:56.906Z</time>
      </trkpt>
      <trkpt lat="42.3213" lon="42.61119">
        <ele>120.026109</ele>
        <time>2021-08-16T06:44:07.843Z</time>
      </trkpt>
      <trkpt lat="42.32116" lon="42.61186">
        <ele>119.309954</ele>
        <time>2021-08-16T06:44:17.367Z</time>
      </trkpt>
      <trkpt lat="42.32108" lon="42.61228">
        <ele>118.571602</ele>
        <time>2021-08-16T06:44:22.901Z</time>
      </trkpt>
      <trkpt lat="42.32102" lon="42.6125">
        <ele>118.184104</ele>
        <time>2021-08-16T06:44:25.762Z</time>
      </trkpt>
      <trkpt lat="42.32095" lon="42.61266">
        <ele>117.863249</ele>
        <time>2021-08-16T06:44:28.035Z</time>
      </trkpt>
      <trkpt lat="42.32045" lon="42.61368">
        <ele>115.789206</ele>
        <time>2021-08-16T06:44:44.242Z</time>
      </trkpt>
      <trkpt lat="42.32028" lon="42.61403">
        <ele>115.310668</ele>
        <time>2021-08-16T06:44:50.044Z</time>
      </trkpt>
      <trkpt lat="42.32013" lon="42.61429">
        <ele>115.621822</ele>
        <time>2021-08-16T06:44:54.887Z</time>
      </trkpt>
      <trkpt lat="42.32008" lon="42.61439">
        <ele>115.734203</ele>
        <time>2021-08-16T06:44:56.672Z</time>
      </trkpt>
      <trkpt lat="42.32004" lon="42.61447">
        <ele>115.82832</ele>
        <time>2021-08-16T06:44:58.751Z</time>
      </trkpt>
      <trkpt lat="42.31963" lon="42.61529">
        <ele>116.769067</ele>
        <time>2021-08-16T06:45:19.677Z</time>
      </trkpt>
      <trkpt lat="42.31923" lon="42.61613">
        <ele>118.062527</ele>
        <time>2021-08-16T06:45:48.642Z</time>
      </trkpt>
      <trkpt lat="42.31912" lon="42.61635">
        <ele>118.75282</ele>
        <time>2021-08-16T06:45:56.467Z</time>
      </trkpt>
      <trkpt lat="42.31874" lon="42.61716">
        <ele>121.308248</ele>
        <time>2021-08-16T06:46:26.130Z</time>
      </trkpt>
      <trkpt lat="42.31831" lon="42.61813">
        <ele>124.216301</ele>
        <time>2021-08-16T06:47:00.101Z</time>
      </trkpt>
      <trkpt lat="42.31798" lon="42.61884">
        <ele>125.58675</ele>
        <time>2021-08-16T06:47:22.935Z</time>
      </trkpt>
      <trkpt lat="42.31753" lon="42.61986">
        <ele>127.529168</ele>
        <time>2021-08-16T06:47:50.524Z</time>
      </trkpt>
      <trkpt lat="42.31736" lon="42.62046">
        <ele>128.293203</ele>
        <time>2021-08-16T06:48:03.585Z</time>
      </trkpt>
      <trkpt lat="42.31737" lon="42.62181">
        <ele>129.388793</ele>
        <time>2021-08-16T06:48:30.604Z</time>
      </trkpt>
      <trkpt lat="42.31729" lon="42.6222">
        <ele>129.716977</ele>
        <time>2021-08-16T06:48:39.009Z</time>
      </trkpt>
      <trkpt lat="42.31725" lon="42.62238">
        <ele>129.869702</ele>
        <time>2021-08-16T06:48:42.902Z</time>
      </trkpt>
      <trkpt lat="42.31707" lon="42.62301">
        <ele>130.726442</ele>
        <time>2021-08-16T06:48:57.178Z</time>
      </trkpt>
      <trkpt lat="42.31684" lon="42.62359">
        <ele>131.642047</ele>
        <time>2021-08-16T06:49:11.906Z</time>
      </trkpt>
      <trkpt lat="42.31679" lon="42.62372">
        <ele>131.843097</ele>
        <time>2021-08-16T06:49:15.259Z</time>
      </trkpt>
      <trkpt lat="42.31646" lon="42.6245">
        <ele>133.092331</ele>
        <time>2021-08-16T06:49:37.572Z</time>
      </trkpt>
      <trkpt lat="42.31597" lon="42.62544">
        <ele>135.394887</ele>
        <time>2021-08-16T06:50:07.770Z</time>
      </trkpt>
      <trkpt lat="42.31567" lon="42.62606">
        <ele>136.954957</ele>
        <time>2021-08-16T06:50:28.504Z</time>
      </trkpt>
      <trkpt lat="42.31539" lon="42.62665">
        <ele>138.438303</ele>
        <time>2021-08-16T06:50:47.161Z</time>
      </trkpt>
      <trkpt lat="42.31532" lon="42.62691">
        <ele>139.086984</ele>
        <time>2021-08-16T06:50:55.474Z</time>
      </trkpt>
      <trkpt lat="42.31526" lon="42.62741">
        <ele>140.255335</ele>
        <time>2021-08-16T06:51:10.122Z</time>
      </trkpt>
      <trkpt lat="42.31474" lon="42.62738">
        <ele>141.895703</ele>
        <time>2021-08-16T06:51:30.341Z</time>
      </trkpt>
      <trkpt lat="42.31426" lon="42.6273">
        <ele>143.396902</ele>
        <time>2021-08-16T06:51:49.046Z</time>
      </trkpt>
      <trkpt lat="42.31397" lon="42.62743">
        <ele>144.373037</ele>
        <time>2021-08-16T06:52:00.640Z</time>
      </trkpt>
      <trkpt lat="42.31379" lon="42.62754">
        <ele>145.113258</ele>
        <time>2021-08-16T06:52:08.610Z</time>
      </trkpt>
      <trkpt lat="42.31355" lon="42.62778">
        <ele>146.175796</ele>
        <time>2021-08-16T06:52:19.701Z</time>
      </trkpt>
      <trkpt lat="42.31345" lon="42.62796">
        <ele>146.78896</ele>
        <time>2021-08-16T06:52:26.261Z</time>
      </trkpt>
      <trkpt lat="42.31338" lon="42.62834">
        <ele>147.831515</ele>
        <time>2021-08-16T06:52:37.952Z</time>
      </trkpt>
      <trkpt lat="42.31333" lon="42.63013">
        <ele>153.066201</ele>
        <time>2021-08-16T06:53:36.365Z</time>
      </trkpt>
      <trkpt lat="42.31323" lon="42.63166">
        <ele>158.076346</ele>
        <time>2021-08-16T06:54:30.485Z</time>
      </trkpt>
      <trkpt lat="42.31314" lon="42.63236">
        <ele>159.465437</ele>
        <time>2021-08-16T06:54:52.815Z</time>
      </trkpt>
      <trkpt lat="42.31236" lon="42.63339">
        <ele>161.794648</ele>
        <time>2021-08-16T06:55:28.354Z</time>
      </trkpt>
      <trkpt lat="42.31167" lon="42.63476">
        <ele>163.17263</ele>
        <time>2021-08-16T06:55:55.055Z</time>
      </trkpt>
      <trkpt lat="42.31118" lon="42.63546">
        <ele>163.743504</ele>
        <time>2021-08-16T06:56:16.316Z</time>
      </trkpt>
      <trkpt lat="42.31093" lon="42.63563">
        <ele>164.054404</ele>
        <time>2021-08-16T06:56:24.672Z</time>
      </trkpt>
      <trkpt lat="42.31057" lon="42.6358">
        <ele>164.659463</ele>
        <time>2021-08-16T06:56:36.607Z</time>
      </trkpt>
      <trkpt lat="42.31027" lon="42.63592">
        <ele>165.15117</ele>
        <time>2021-08-16T06:56:46.258Z</time>
      </trkpt>
      <trkpt lat="42.30998" lon="42.63588">
        <ele>165.60474</ele>
        <time>2021-08-16T06:56:55.454Z</time>
      </trkpt>
      <trkpt lat="42.30981" lon="42.63572">
        <ele>165.923084</ele>
        <time>2021-08-16T06:57:02.709Z</time>
      </trkpt>
      <trkpt lat="42.30922" lon="42.63519">
        <ele>166.356463</ele>
        <time>2021-08-16T06:57:23.432Z</time>
      </trkpt>
      <trkpt lat="42.30919" lon="42.63572">
        <ele>165.749046</ele>
        <time>2021-08-16T06:57:37.402Z</time>
      </trkpt>
      <trkpt lat="42.30914" lon="42.63593">
        <ele>165.49338</ele>
        <time>2021-08-16T06:57:42.784Z</time>
      </trkpt>
      <trkpt lat="42.30883" lon="42.63636">
        <ele>164.795194</ele>
        <time>2021-08-16T06:57:57.182Z</time>
      </trkpt>
      <trkpt lat="42.30824" lon="42.63679">
        <ele>163.554762</ele>
        <time>2021-08-16T06:58:17.615Z</time>
      </trkpt>
      <trkpt lat="42.30806" lon="42.63731">
        <ele>161.758378</ele>
        <time>2021-08-16T06:58:30.492Z</time>
      </trkpt>
      <trkpt lat="42.30753" lon="42.63992">
        <ele>153.751248</ele>
        <time>2021-08-16T06:59:29.289Z</time>
      </trkpt>
      <trkpt lat="42.30754" lon="42.64017">
        <ele>153.081</ele>
        <time>2021-08-16T06:59:34.846Z</time>
      </trkpt>
      <trkpt lat="42.30751" lon="42.64024">
        <ele>152.861524</ele>
        <time>2021-08-16T06:59:36.697Z</time>
      </trkpt>
      <trkpt lat="42.3074" lon="42.64023">
        <ele>152.448502</ele>
        <time>2021-08-16T06:59:40.104Z</time>
      </trkpt>
      <trkpt lat="42.30737" lon="42.64009">
        <ele>152.052534</ele>
        <time>2021-08-16T06:59:43.441Z</time>
      </trkpt>
      <trkpt lat="42.30732" lon="42.63909">
        <ele>149.563789</ele>
        <time>2021-08-16T07:00:06.427Z</time>
      </trkpt>
      <trkpt lat="42.30727" lon="42.63887">
        <ele>149.220626</ele>
        <time>2021-08-16T07:00:11.935Z</time>
      </trkpt>
      <trkpt lat="42.3072" lon="42.63876">
        <ele>149.003195</ele>
        <time>2021-08-16T07:00:15.455Z</time>
      </trkpt>
      <trkpt lat="42.3071" lon="42.63873">
        <ele>148.798968</ele>
        <time>2021-08-16T07:00:18.785Z</time>
      </trkpt>
      <trkpt lat="42.30696" lon="42.63875">
        <ele>148.516565</ele>
        <time>2021-08-16T07:00:23.401Z</time>
      </trkpt>
      <trkpt lat="42.30663" lon="42.63905">
        <ele>147.737299</ele>
        <time>2021-08-16T07:00:36.196Z</time>
      </trkpt>
      <trkpt lat="42.30633" lon="42.63962">
        <ele>146.714145</ele>
        <time>2021-08-16T07:00:53.205Z</time>
      </trkpt>
      <trkpt lat="42.30622" lon="42.63974">
        <ele>146.428096</ele>
        <time>2021-08-16T07:00:58.020Z</time>
      </trkpt>
      <trkpt lat="42.3059" lon="42.63979">
        <ele>146.362605</ele>
        <time>2021-08-16T07:01:08.645Z</time>
      </trkpt>
      <trkpt lat="42.3055" lon="42.63969">
        <ele>146.637896</ele>
        <time>2021-08-16T07:01:22.658Z</time>
      </trkpt>
      <trkpt lat="42.3053" lon="42.63974">
        <ele>146.772908</ele>
        <time>2021-08-16T07:01:30.318Z</time>
      </trkpt>
      <trkpt lat="42.30474" lon="42.64011">
        <ele>147.193901</ele>
        <time>2021-08-16T07:01:57.164Z</time>
      </trkpt>
      <trkpt lat="42.30424" lon="42.64051">
        <ele>148.642995</ele>
        <time>2021-08-16T07:02:27.038Z</time>
      </trkpt>
      <trkpt lat="42.30401" lon="42.6408">
        <ele>150.257901</ele>
        <time>2021-08-16T07:02:40.728Z</time>
      </trkpt>
      <trkpt lat="42.30343" lon="42.64143">
        <ele>154.099543</ele>
        <time>2021-08-16T07:03:17.023Z</time>
      </trkpt>
      <trkpt lat="42.30312" lon="42.64191">
        <ele>156.556227</ele>
        <time>2021-08-16T07:03:43.838Z</time>
      </trkpt>
      <trkpt lat="42.3027" lon="42.64263">
        <ele>161.24361</ele>
        <time>2021-08-16T07:04:23.984Z</time>
      </trkpt>
      <trkpt lat="42.30239" lon="42.64286">
        <ele>163.708326</ele>
        <time>2021-08-16T07:04:44.175Z</time>
      </trkpt>
      <trkpt lat="42.30194" lon="42.64299">
        <ele>166.941791</ele>
        <time>2021-08-16T07:05:10.493Z</time>
      </trkpt>
      <trkpt lat="42.30172" lon="42.64322">
        <ele>168.889065</ele>
        <time>2021-08-16T07:05:26.314Z</time>
      </trkpt>
      <trkpt lat="42.30163" lon="42.64341">
        <ele>170.044549</ele>
        <time>2021-08-16T07:05:35.410Z</time>
      </trkpt>
      <trkpt lat="42.30162" lon="42.64344">
        <ele>170.196083</ele>
        <time>2021-08-16T07:05:37.438Z</time>
      </trkpt>
      <trkpt lat="42.30148" lon="42.64399">
        <ele>173.156296</ele>
        <time>2021-08-16T07:06:01.142Z</time>
      </trkpt>
      <trkpt lat="42.30117" lon="42.64453">
        <ele>176.710809</ele>
        <time>2021-08-16T07:06:29.595Z</time>
      </trkpt>
      <trkpt lat="42.30099" lon="42.64518">
        <ele>180.254922</ele>
        <time>2021-08-16T07:07:02.174Z</time>
      </trkpt>
      <trkpt lat="42.30092" lon="42.64532">
        <ele>181.141337</ele>
        <time>2021-08-16T07:07:08.785Z</time>
      </trkpt>
      <trkpt lat="42.30026" lon="42.64589">
        <ele>184.75039</ele>
        <time>2021-08-16T07:07:49.495Z</time>
      </trkpt>
      <trkpt lat="42.3002" lon="42.64597">
        <ele>185.12845</ele>
        <time>2021-08-16T07:07:54.928Z</time>
      </trkpt>
      <trkpt lat="42.30005" lon="42.64633">
        <ele>186.415528</ele>
        <time>2021-08-16T07:08:07.552Z</time>
      </trkpt>
      <trkpt lat="42.29985" lon="42.64667">
        <ele>187.825385</ele>
        <time>2021-08-16T07:08:20.522Z</time>
      </trkpt>
      <trkpt lat="42.29948" lon="42.64708">
        <ele>189.547187</ele>
        <time>2021-08-16T07:08:36.308Z</time>
      </trkpt>
      <trkpt lat="42.2994" lon="42.64726">
        <ele>189.542968</ele>
        <time>2021-08-16T07:08:40.074Z</time>
      </trkpt>
      <trkpt lat="42.29939" lon="42.64841">
        <ele>189.520954</ele>
        <time>2021-08-16T07:08:58.626Z</time>
      </trkpt>
      <trkpt lat="42.29935" lon="42.64886">
        <ele>189.51235</ele>
        <time>2021-08-16T07:09:05.218Z</time>
      </trkpt>
      <trkpt lat="42.29926" lon="42.64943">
        <ele>189.487484</ele>
        <time>2021-08-16T07:09:14.207Z</time>
      </trkpt>
      <trkpt lat="42.29923" lon="42.64961">
        <ele>189.449695</ele>
        <time>2021-08-16T07:09:16.833Z</time>
      </trkpt>
      <trkpt lat="42.2991" lon="42.64992">
        <ele>189.375236</ele>
        <time>2021-08-16T07:09:22.285Z</time>
      </trkpt>
      <trkpt lat="42.29883" lon="42.6504">
        <ele>189.250664</ele>
        <time>2021-08-16T07:09:31.172Z</time>
      </trkpt>
      <trkpt lat="42.29869" lon="42.65067">
        <ele>189.182182</ele>
        <time>2021-08-16T07:09:36.418Z</time>
      </trkpt>
      <trkpt lat="42.29814" lon="42.65166">
        <ele>189.125794</ele>
        <time>2021-08-16T07:09:59.144Z</time>
      </trkpt>
      <trkpt lat="42.29773" lon="42.65234">
        <ele>189.444536</ele>
        <time>2021-08-16T07:10:14.632Z</time>
      </trkpt>
      <trkpt lat="42.29664" lon="42.65463">
        <ele>191.00744</ele>
        <time>2021-08-16T07:11:05.348Z</time>
      </trkpt>
      <trkpt lat="42.29625" lon="42.65586">
        <ele>192.233561</ele>
        <time>2021-08-16T07:11:35.622Z</time>
      </trkpt>
      <trkpt lat="42.29599" lon="42.65662">
        <ele>193.313534</ele>
        <time>2021-08-16T07:11:55.248Z</time>
      </trkpt>
      <trkpt lat="42.29571" lon="42.65711">
        <ele>194.120781</ele>
        <time>2021-08-16T07:12:09.541Z</time>
      </trkpt>
      <trkpt lat="42.29539" lon="42.6575">
        <ele>194.834376</ele>
        <time>2021-08-16T07:12:23.198Z</time>
      </trkpt>
      <trkpt lat="42.29508" lon="42.65758">
        <ele>194.924935</ele>
        <time>2021-08-16T07:12:33.164Z</time>
      </trkpt>
      <trkpt lat="42.29471" lon="42.65779">
        <ele>195.039599</ele>
        <time>2021-08-16T07:12:44.422Z</time>
      </trkpt>
      <trkpt lat="42.29442" lon="42.65824">
        <ele>195.164907</ele>
        <time>2021-08-16T07:12:54.860Z</time>
      </trkpt>
      <trkpt lat="42.29427" lon="42.65842">
        <ele>195.222596</ele>
        <time>2021-08-16T07:12:59.185Z</time>
      </trkpt>
      <trkpt lat="42.29405" lon="42.65846">
        <ele>195.28655</ele>
        <time>2021-08-16T07:13:03.576Z</time>
      </trkpt>
      <trkpt lat="42.29374" lon="42.65846">
        <ele>195.237071</ele>
        <time>2021-08-16T07:13:09.371Z</time>
      </trkpt>
      <trkpt lat="42.29324" lon="42.65843">
        <ele>194.810893</ele>
        <time>2021-08-16T07:13:18.481Z</time>
      </trkpt>
      <trkpt lat="42.29282" lon="42.65846">
        <ele>194.446926</ele>
        <time>2021-08-16T07:13:26.759Z</time>
      </trkpt>
      <trkpt lat="42.29244" lon="42.65861">
        <ele>194.096757</ele>
        <time>2021-08-16T07:13:34.989Z</time>
      </trkpt>
      <trkpt lat="42.29202" lon="42.65894">
        <ele>193.937938</ele>
        <time>2021-08-16T07:13:45.411Z</time>
      </trkpt>
      <trkpt lat="42.2916" lon="42.65941">
        <ele>194.631332</ele>
        <time>2021-08-16T07:14:00.141Z</time>
      </trkpt>
      <trkpt lat="42.29104" lon="42.66039">
        <ele>195.813781</ele>
        <time>2021-08-16T07:14:31.297Z</time>
      </trkpt>
      <trkpt lat="42.29066" lon="42.66082">
        <ele>195.582352</ele>
        <time>2021-08-16T07:14:44.471Z</time>
      </trkpt>
      <trkpt lat="42.29052" lon="42.66086">
        <ele>195.324233</ele>
        <time>2021-08-16T07:14:49.554Z</time>
      </trkpt>
      <trkpt lat="42.29032" lon="42.6608">
        <ele>194.96023</ele>
        <time>2021-08-16T07:14:53.253Z</time>
      </trkpt>
      <trkpt lat="42.29008" lon="42.6608">
        <ele>194.541925</ele>
        <time>2021-08-16T07:14:58.031Z</time>
      </trkpt>
      <trkpt lat="42.28998" lon="42.66089">
        <ele>194.329724</ele>
        <time>2021-08-16T07:14:59.911Z</time>
      </trkpt>
      <trkpt lat="42.28989" lon="42.66107">
        <ele>194.033297</ele>
        <time>2021-08-16T07:15:03.449Z</time>
      </trkpt>
      <trkpt lat="42.28982" lon="42.66133">
        <ele>193.660683</ele>
        <time>2021-08-16T07:15:06.634Z</time>
      </trkpt>
      <trkpt lat="42.28972" lon="42.66149">
        <ele>193.390277</ele>
        <time>2021-08-16T07:15:09.908Z</time>
      </trkpt>
      <trkpt lat="42.28959" lon="42.66158">
        <ele>193.121837</ele>
        <time>2021-08-16T07:15:12.198Z</time>
      </trkpt>
      <trkpt lat="42.28901" lon="42.66158">
        <ele>191.732968</ele>
        <time>2021-08-16T07:15:21.559Z</time>
      </trkpt>
      <trkpt lat="42.28882" lon="42.6617">
        <ele>191.159555</ele>
        <time>2021-08-16T07:15:24.973Z</time>
      </trkpt>
      <trkpt lat="42.2887" lon="42.66187">
        <ele>190.697898</ele>
        <time>2021-08-16T07:15:28.043Z</time>
      </trkpt>
      <trkpt lat="42.28863" lon="42.66216">
        <ele>190.104646</ele>
        <time>2021-08-16T07:15:31.732Z</time>
      </trkpt>
      <trkpt lat="42.28862" lon="42.66244">
        <ele>189.556075</ele>
        <time>2021-08-16T07:15:35.709Z</time>
      </trkpt>
      <trkpt lat="42.28864" lon="42.66308">
        <ele>188.313562</ele>
        <time>2021-08-16T07:15:44.658Z</time>
      </trkpt>
      <trkpt lat="42.28886" lon="42.66336">
        <ele>188.277697</ele>
        <time>2021-08-16T07:15:51.134Z</time>
      </trkpt>
      <trkpt lat="42.2889" lon="42.66355">
        <ele>188.397445</ele>
        <time>2021-08-16T07:15:54.494Z</time>
      </trkpt>
      <trkpt lat="42.28889" lon="42.66368">
        <ele>188.478116</ele>
        <time>2021-08-16T07:15:57.368Z</time>
      </trkpt>
      <trkpt lat="42.28875" lon="42.6637">
        <ele>188.591409</ele>
        <time>2021-08-16T07:16:01.385Z</time>
      </trkpt>
      <trkpt lat="42.2883" lon="42.66359">
        <ele>188.973978</ele>
        <time>2021-08-16T07:16:16.663Z</time>
      </trkpt>
      <trkpt lat="42.28817" lon="42.66368">
        <ele>189.0984</ele>
        <time>2021-08-16T07:16:21.253Z</time>
      </trkpt>
      <trkpt lat="42.28808" lon="42.66386">
        <ele>189.232044</ele>
        <time>2021-08-16T07:16:25.460Z</time>
      </trkpt>
      <trkpt lat="42.28797" lon="42.66443">
        <ele>189.593529</ele>
        <time>2021-08-16T07:16:37.235Z</time>
      </trkpt>
      <trkpt lat="42.28785" lon="42.66448">
        <ele>189.592671</ele>
        <time>2021-08-16T07:16:40.118Z</time>
      </trkpt>
      <trkpt lat="42.28774" lon="42.66441">
        <ele>189.591423</ele>
        <time>2021-08-16T07:16:43.083Z</time>
      </trkpt>
      <trkpt lat="42.28762" lon="42.66411">
        <ele>189.588911</ele>
        <time>2021-08-16T07:16:49.254Z</time>
      </trkpt>
      <trkpt lat="42.28748" lon="42.6636">
        <ele>189.584947</ele>
        <time>2021-08-16T07:16:58.127Z</time>
      </trkpt>
      <trkpt lat="42.28736" lon="42.66342">
        <ele>189.5831</ele>
        <time>2021-08-16T07:17:03.421Z</time>
      </trkpt>
      <trkpt lat="42.28722" lon="42.66329">
        <ele>189.581425</ele>
        <time>2021-08-16T07:17:06.667Z</time>
      </trkpt>
      <trkpt lat="42.28707" lon="42.66332">
        <ele>189.579976</ele>
        <time>2021-08-16T07:17:10.787Z</time>
      </trkpt>
      <trkpt lat="42.28648" lon="42.66374">
        <ele>189.188027</ele>
        <time>2021-08-16T07:17:24.282Z</time>
      </trkpt>
      <trkpt lat="42.2859" lon="42.66401">
        <ele>188.320846</ele>
        <time>2021-08-16T07:17:35.870Z</time>
      </trkpt>
      <trkpt lat="42.28549" lon="42.66416">
        <ele>187.73244</ele>
        <time>2021-08-16T07:17:44.399Z</time>
      </trkpt>
      <trkpt lat="42.28507" lon="42.66438">
        <ele>187.094929</ele>
        <time>2021-08-16T07:17:52.785Z</time>
      </trkpt>
      <trkpt lat="42.28477" lon="42.66443">
        <ele>186.09655</ele>
        <time>2021-08-16T07:17:58.333Z</time>
      </trkpt>
      <trkpt lat="42.28414" lon="42.66439">
        <ele>183.901436</ele>
        <time>2021-08-16T07:18:08.962Z</time>
      </trkpt>
      <trkpt lat="42.28389" lon="42.66432">
        <ele>183.005925</ele>
        <time>2021-08-16T07:18:13.106Z</time>
      </trkpt>
      <trkpt lat="42.28339" lon="42.66406">
        <ele>181.138367</ele>
        <time>2021-08-16T07:18:21.789Z</time>
      </trkpt>
      <trkpt lat="42.28318" lon="42.66419">
        <ele>180.328674</ele>
        <time>2021-08-16T07:18:25.686Z</time>
      </trkpt>
      <trkpt lat="42.28293" lon="42.66448">
        <ele>179.251495</ele>
        <time>2021-08-16T07:18:31.096Z</time>
      </trkpt>
      <trkpt lat="42.28271" lon="42.66465">
        <ele>178.447828</ele>
        <time>2021-08-16T07:18:35.124Z</time>
      </trkpt>
      <trkpt lat="42.28243" lon="42.66476">
        <ele>177.496803</ele>
        <time>2021-08-16T07:18:40.026Z</time>
      </trkpt>
      <trkpt lat="42.28199" lon="42.66485">
        <ele>176.044547</ele>
        <time>2021-08-16T07:18:47.596Z</time>
      </trkpt>
      <trkpt lat="42.28188" lon="42.66485">
        <ele>175.699065</ele>
        <time>2021-08-16T07:18:49.466Z</time>
      </trkpt>
      <trkpt lat="42.28184" lon="42.66486">
        <ele>175.565052</ele>
        <time>2021-08-16T07:18:50.123Z</time>
      </trkpt>
      <trkpt lat="42.28034" lon="42.66538">
        <ele>175.075571</ele>
        <time>2021-08-16T07:19:21.542Z</time>
      </trkpt>
      <trkpt lat="42.28013" lon="42.66549">
        <ele>175.107252</ele>
        <time>2021-08-16T07:19:28.784Z</time>
      </trkpt>
      <trkpt lat="42.27979" lon="42.66578">
        <ele>175.918198</ele>
        <time>2021-08-16T07:19:43.312Z</time>
      </trkpt>
      <trkpt lat="42.27972" lon="42.6658">
        <ele>176.256209</ele>
        <time>2021-08-16T07:19:46.184Z</time>
      </trkpt>
      <trkpt lat="42.27963" lon="42.66595">
        <ele>176.930381</ele>
        <time>2021-08-16T07:19:53.066Z</time>
      </trkpt>
      <trkpt lat="42.27891" lon="42.66672">
        <ele>181.230421</ele>
        <time>2021-08-16T07:20:38.980Z</time>
      </trkpt>
      <trkpt lat="42.27843" lon="42.66709">
        <ele>183.731966</ele>
        <time>2021-08-16T07:21:07.562Z</time>
      </trkpt>
      <trkpt lat="42.27794" lon="42.66754">
        <ele>185.812772</ele>
        <time>2021-08-16T07:21:34.886Z</time>
      </trkpt>
      <trkpt lat="42.27795" lon="42.66718">
        <ele>186.742167</ele>
        <time>2021-08-16T07:21:45.921Z</time>
      </trkpt>
      <trkpt lat="42.27782" lon="42.66731">
        <ele>187.3061</ele>
        <time>2021-08-16T07:21:52.423Z</time>
      </trkpt>
      <trkpt lat="42.27741" lon="42.66792">
        <ele>189.443096</ele>
        <time>2021-08-16T07:22:14.645Z</time>
      </trkpt>
      <trkpt lat="42.27729" lon="42.66799">
        <ele>189.868265</ele>
        <time>2021-08-16T07:22:18.246Z</time>
      </trkpt>
      <trkpt lat="42.27705" lon="42.66802">
        <ele>190.014257</ele>
        <time>2021-08-16T07:22:25.346Z</time>
      </trkpt>
      <trkpt lat="42.27694" lon="42.66797">
        <ele>190.080555</ele>
        <time>2021-08-16T07:22:27.775Z</time>
      </trkpt>
      <trkpt lat="42.27675" lon="42.66783">
        <ele>190.210675</ele>
        <time>2021-08-16T07:22:32.808Z</time>
      </trkpt>
      <trkpt lat="42.27651" lon="42.66764">
        <ele>190.374486</ele>
        <time>2021-08-16T07:22:39.059Z</time>
      </trkpt>
      <trkpt lat="42.27633" lon="42.66755">
        <ele>190.487567</ele>
        <time>2021-08-16T07:22:43.460Z</time>
      </trkpt>
      <trkpt lat="42.27612" lon="42.6675">
        <ele>190.61332</ele>
        <time>2021-08-16T07:22:48.546Z</time>
      </trkpt>
      <trkpt lat="42.27577" lon="42.66753">
        <ele>190.826374</ele>
        <time>2021-08-16T07:22:57.147Z</time>
      </trkpt>
      <trkpt lat="42.27561" lon="42.6676">
        <ele>190.92545</ele>
        <time>2021-08-16T07:23:00.951Z</time>
      </trkpt>
      <trkpt lat="42.27509" lon="42.668">
        <ele>191.169811</ele>
        <time>2021-08-16T07:23:15.398Z</time>
      </trkpt>
      <trkpt lat="42.27478" lon="42.66796">
        <ele>191.293693</ele>
        <time>2021-08-16T07:23:22.788Z</time>
      </trkpt>
      <trkpt lat="42.27454" lon="42.66778">
        <ele>191.40553</ele>
        <time>2021-08-16T07:23:29.400Z</time>
      </trkpt>
      <trkpt lat="42.27442" lon="42.66836">
        <ele>191.586129</ele>
        <time>2021-08-16T07:23:41.149Z</time>
      </trkpt>
      <trkpt lat="42.27436" lon="42.66844">
        <ele>191.622238</ele>
        <time>2021-08-16T07:23:43.501Z</time>
      </trkpt>
      <trkpt lat="42.27406" lon="42.66854">
        <ele>191.310712</ele>
        <time>2021-08-16T07:23:51.936Z</time>
      </trkpt>
      <trkpt lat="42.27402" lon="42.6692">
        <ele>190.515256</ele>
        <time>2021-08-16T07:24:03.677Z</time>
      </trkpt>
      <trkpt lat="42.27411" lon="42.6697">
        <ele>189.913988</ele>
        <time>2021-08-16T07:24:11.194Z</time>
      </trkpt>
      <trkpt lat="42.27411" lon="42.66982">
        <ele>189.763051</ele>
        <time>2021-08-16T07:24:12.906Z</time>
      </trkpt>
      <trkpt lat="42.27408" lon="42.66996">
        <ele>189.600371</ele>
        <time>2021-08-16T07:24:15.462Z</time>
      </trkpt>
      <trkpt lat="42.27391" lon="42.67029">
        <ele>189.121684</ele>
        <time>2021-08-16T07:24:22.521Z</time>
      </trkpt>
      <trkpt lat="42.27391" lon="42.67057">
        <ele>188.788765</ele>
        <time>2021-08-16T07:24:27.384Z</time>
      </trkpt>
      <trkpt lat="42.27338" lon="42.67065">
        <ele>184.922713</ele>
        <time>2021-08-16T07:24:38.755Z</time>
      </trkpt>
      <trkpt lat="42.2732" lon="42.67077">
        <ele>183.416519</ele>
        <time>2021-08-16T07:24:43.002Z</time>
      </trkpt>
      <trkpt lat="42.27285" lon="42.6712">
        <ele>179.822243</ele>
        <time>2021-08-16T07:24:52.710Z</time>
      </trkpt>
      <trkpt lat="42.2724" lon="42.6713">
        <ele>176.395129</ele>
        <time>2021-08-16T07:25:01.614Z</time>
      </trkpt>
      <trkpt lat="42.27101" lon="42.67286">
        <ele>158.929256</ele>
        <time>2021-08-16T07:25:36.490Z</time>
      </trkpt>
      <trkpt lat="42.27077" lon="42.67308">
        <ele>156.841386</ele>
        <time>2021-08-16T07:25:42.408Z</time>
      </trkpt>
      <trkpt lat="42.27065" lon="42.6735">
        <ele>155.403626</ele>
        <time>2021-08-16T07:25:49.386Z</time>
      </trkpt>
      <trkpt lat="42.27037" lon="42.67338">
        <ele>154.141278</ele>
        <time>2021-08-16T07:25:54.196Z</time>
      </trkpt>
      <trkpt lat="42.27032" lon="42.67355">
        <ele>153.562568</ele>
        <time>2021-08-16T07:25:56.515Z</time>
      </trkpt>
      <trkpt lat="42.27021" lon="42.67389">
        <ele>152.362805</ele>
        <time>2021-08-16T07:26:01.398Z</time>
      </trkpt>
      <trkpt lat="42.27018" lon="42.67399">
        <ele>152.018457</ele>
        <time>2021-08-16T07:26:02.893Z</time>
      </trkpt>
      <trkpt lat="42.27004" lon="42.67443">
        <ele>150.50238</ele>
        <time>2021-08-16T07:26:09.596Z</time>
      </trkpt>
      <trkpt lat="42.2698" lon="42.67521">
        <ele>149.64282</ele>
        <time>2021-08-16T07:26:24.011Z</time>
      </trkpt>
      <trkpt lat="42.2696" lon="42.67593">
        <ele>149.580112</ele>
        <time>2021-08-16T07:26:37.325Z</time>
      </trkpt>
      <trkpt lat="42.26955" lon="42.67608">
        <ele>149.565807</ele>
        <time>2021-08-16T07:26:40.259Z</time>
      </trkpt>
      <trkpt lat="42.2695" lon="42.67621">
        <ele>149.554389</ele>
        <time>2021-08-16T07:26:42.690Z</time>
      </trkpt>
      <trkpt lat="42.26937" lon="42.67662">
        <ele>149.517922</ele>
        <time>2021-08-16T07:26:50.872Z</time>
      </trkpt>
      <trkpt lat="42.26929" lon="42.6769">
        <ele>149.493294</ele>
        <time>2021-08-16T07:26:56.342Z</time>
      </trkpt>
      <trkpt lat="42.26912" lon="42.67748">
        <ele>149.587845</ele>
        <time>2021-08-16T07:27:07.623Z</time>
      </trkpt>
      <trkpt lat="42.26901" lon="42.67787">
        <ele>149.652868</ele>
        <time>2021-08-16T07:27:14.884Z</time>
      </trkpt>
      <trkpt lat="42.26886" lon="42.67828">
        <ele>149.723402</ele>
        <time>2021-08-16T07:27:22.766Z</time>
      </trkpt>
      <trkpt lat="42.26881" lon="42.67847">
        <ele>149.755006</ele>
        <time>2021-08-16T07:27:26.456Z</time>
      </trkpt>
      <trkpt lat="42.26832" lon="42.68015">
        <ele>149.837277</ele>
        <time>2021-08-16T07:27:59.589Z</time>
      </trkpt>
      <trkpt lat="42.26811" lon="42.68087">
        <ele>149.812981</ele>
        <time>2021-08-16T07:28:12.912Z</time>
      </trkpt>
      <trkpt lat="42.26733" lon="42.68353">
        <ele>148.958197</ele>
        <time>2021-08-16T07:28:58.532Z</time>
      </trkpt>
      <trkpt lat="42.26726" lon="42.68368">
        <ele>148.901905</ele>
        <time>2021-08-16T07:29:01.498Z</time>
      </trkpt>
      <trkpt lat="42.26707" lon="42.68396">
        <ele>148.973448</ele>
        <time>2021-08-16T07:29:08.526Z</time>
      </trkpt>
      <trkpt lat="42.26696" lon="42.68407">
        <ele>149.009916</ele>
        <time>2021-08-16T07:29:11.614Z</time>
      </trkpt>
      <trkpt lat="42.26694" lon="42.68404">
        <ele>149.018359</ele>
        <time>2021-08-16T07:29:12.323Z</time>
      </trkpt>
      <trkpt lat="42.2669" lon="42.68402">
        <ele>149.027442</ele>
        <time>2021-08-16T07:29:13.304Z</time>
      </trkpt>
      <trkpt lat="42.26681" lon="42.68407">
        <ele>149.053626</ele>
        <time>2021-08-16T07:29:15.904Z</time>
      </trkpt>
      <trkpt lat="42.2668" lon="42.68412">
        <ele>149.062769</ele>
        <time>2021-08-16T07:29:16.711Z</time>
      </trkpt>
      <trkpt lat="42.2668" lon="42.68417">
        <ele>149.073731</ele>
        <time>2021-08-16T07:29:17.630Z</time>
      </trkpt>
      <trkpt lat="42.26681" lon="42.68422">
        <ele>149.084598</ele>
        <time>2021-08-16T07:29:18.471Z</time>
      </trkpt>
      <trkpt lat="42.26686" lon="42.68451">
        <ele>149.140967</ele>
        <time>2021-08-16T07:29:23.711Z</time>
      </trkpt>
      <trkpt lat="42.2669" lon="42.68534">
        <ele>149.3017</ele>
        <time>2021-08-16T07:29:38.087Z</time>
      </trkpt>
      <trkpt lat="42.26688" lon="42.68561">
        <ele>149.352394</ele>
        <time>2021-08-16T07:29:43.543Z</time>
      </trkpt>
      <trkpt lat="42.26678" lon="42.68656">
        <ele>149.56751</ele>
        <time>2021-08-16T07:30:03.181Z</time>
      </trkpt>
      <trkpt lat="42.26668" lon="42.68741">
        <ele>149.761069</ele>
        <time>2021-08-16T07:30:18.516Z</time>
      </trkpt>
      <trkpt lat="42.26657" lon="42.68835">
        <ele>149.73149</ele>
        <time>2021-08-16T07:30:33.456Z</time>
      </trkpt>
      <trkpt lat="42.26647" lon="42.68927">
        <ele>149.123362</ele>
        <time>2021-08-16T07:30:47.465Z</time>
      </trkpt>
      <trkpt lat="42.26634" lon="42.69033">
        <ele>148.415381</ele>
        <time>2021-08-16T07:31:03.216Z</time>
      </trkpt>
      <trkpt lat="42.26632" lon="42.69062">
        <ele>148.263052</ele>
        <time>2021-08-16T07:31:07.267Z</time>
      </trkpt>
      <trkpt lat="42.26637" lon="42.69114">
        <ele>148.051604</ele>
        <time>2021-08-16T07:31:14.636Z</time>
      </trkpt>
      <trkpt lat="42.2668" lon="42.6925">
        <ele>147.455156</ele>
        <time>2021-08-16T07:31:37.515Z</time>
      </trkpt>
      <trkpt lat="42.26696" lon="42.693">
        <ele>147.491336</ele>
        <time>2021-08-16T07:31:47.888Z</time>
      </trkpt>
      <trkpt lat="42.26713" lon="42.6934">
        <ele>147.755681</ele>
        <time>2021-08-16T07:31:56.852Z</time>
      </trkpt>
      <trkpt lat="42.26718" lon="42.69357">
        <ele>147.863712</ele>
        <time>2021-08-16T07:32:00.601Z</time>
      </trkpt>
      <trkpt lat="42.26723" lon="42.69377">
        <ele>147.98204</ele>
        <time>2021-08-16T07:32:04.736Z</time>
      </trkpt>
      <trkpt lat="42.26728" lon="42.69398">
        <ele>148.112681</ele>
        <time>2021-08-16T07:32:09.091Z</time>
      </trkpt>
      <trkpt lat="42.26733" lon="42.69428">
        <ele>148.289978</ele>
        <time>2021-08-16T07:32:15.302Z</time>
      </trkpt>
      <trkpt lat="42.26741" lon="42.69478">
        <ele>148.586114</ele>
        <time>2021-08-16T07:32:25.460Z</time>
      </trkpt>
      <trkpt lat="42.2675" lon="42.69528">
        <ele>148.824989</ele>
        <time>2021-08-16T07:32:36.080Z</time>
      </trkpt>
      <trkpt lat="42.26756" lon="42.69566">
        <ele>148.956708</ele>
        <time>2021-08-16T07:32:43.821Z</time>
      </trkpt>
      <trkpt lat="42.26759" lon="42.69603">
        <ele>149.086017</ele>
        <time>2021-08-16T07:32:50.711Z</time>
      </trkpt>
      <trkpt lat="42.26764" lon="42.69637">
        <ele>149.204249</ele>
        <time>2021-08-16T07:32:56.867Z</time>
      </trkpt>
      <trkpt lat="42.26769" lon="42.6967">
        <ele>149.318486</ele>
        <time>2021-08-16T07:33:02.634Z</time>
      </trkpt>
      <trkpt lat="42.26773" lon="42.69693">
        <ele>149.399531</ele>
        <time>2021-08-16T07:33:06.785Z</time>
      </trkpt>
      <trkpt lat="42.26799" lon="42.69798">
        <ele>149.497035</ele>
        <time>2021-08-16T07:33:25.304Z</time>
      </trkpt>
      <trkpt lat="42.26839" lon="42.69804">
        <ele>149.427515</ele>
        <time>2021-08-16T07:33:33.979Z</time>
      </trkpt>
      <trkpt lat="42.26882" lon="42.69808">
        <ele>149.351192</ele>
        <time>2021-08-16T07:33:43.956Z</time>
      </trkpt>
      <trkpt lat="42.2697" lon="42.69827">
        <ele>149.343371</ele>
        <time>2021-08-16T07:34:02.147Z</time>
      </trkpt>
      <trkpt lat="42.27015" lon="42.69852">
        <ele>149.45326</ele>
        <time>2021-08-16T07:34:12.836Z</time>
      </trkpt>
      <trkpt lat="42.27021" lon="42.69855">
        <ele>149.46673</ele>
        <time>2021-08-16T07:34:14.408Z</time>
      </trkpt>
      <trkpt lat="42.27027" lon="42.69871">
        <ele>149.496786</ele>
        <time>2021-08-16T07:34:17.010Z</time>
      </trkpt>
      <trkpt lat="42.27029" lon="42.69876">
        <ele>149.50568</ele>
        <time>2021-08-16T07:34:17.833Z</time>
      </trkpt>
      <trkpt lat="42.27059" lon="42.69966">
        <ele>149.700603</ele>
        <time>2021-08-16T07:34:37.666Z</time>
      </trkpt>
      <trkpt lat="42.27063" lon="42.69971">
        <ele>149.815664</ele>
        <time>2021-08-16T07:34:39.661Z</time>
      </trkpt>
      <trkpt lat="42.27066" lon="42.69984">
        <ele>150.013877</ele>
        <time>2021-08-16T07:34:43.244Z</time>
      </trkpt>
      <trkpt lat="42.27069" lon="42.69997">
        <ele>150.21203</ele>
        <time>2021-08-16T07:34:45.826Z</time>
      </trkpt>
      <trkpt lat="42.2707" lon="42.70046">
        <ele>150.910035</ele>
        <time>2021-08-16T07:34:56.487Z</time>
      </trkpt>
      <trkpt lat="42.2707" lon="42.70055">
        <ele>151.038873</ele>
        <time>2021-08-16T07:34:58.275Z</time>
      </trkpt>
      <trkpt lat="42.2707" lon="42.70063">
        <ele>151.164817</ele>
        <time>2021-08-16T07:35:00.257Z</time>
      </trkpt>
      <trkpt lat="42.27069" lon="42.70077">
        <ele>151.362147</ele>
        <time>2021-08-16T07:35:03.642Z</time>
      </trkpt>
      <trkpt lat="42.27069" lon="42.70129">
        <ele>152.114846</ele>
        <time>2021-08-16T07:35:16.443Z</time>
      </trkpt>
      <trkpt lat="42.27069" lon="42.70154">
        <ele>152.4825</ele>
        <time>2021-08-16T07:35:22.699Z</time>
      </trkpt>
      <trkpt lat="42.27069" lon="42.70159">
        <ele>152.546188</ele>
        <time>2021-08-16T07:35:23.903Z</time>
      </trkpt>
      <trkpt lat="42.27069" lon="42.70181">
        <ele>152.871871</ele>
        <time>2021-08-16T07:35:30.182Z</time>
      </trkpt>
      <trkpt lat="42.27069" lon="42.7022">
        <ele>153.458563</ele>
        <time>2021-08-16T07:35:40.621Z</time>
      </trkpt>
      <trkpt lat="42.27069" lon="42.70257">
        <ele>154.027425</ele>
        <time>2021-08-16T07:35:50.083Z</time>
      </trkpt>
      <trkpt lat="42.27068" lon="42.7028">
        <ele>154.398792</ele>
        <time>2021-08-16T07:35:55.455Z</time>
      </trkpt>
      <trkpt lat="42.27068" lon="42.70331">
        <ele>155.199399</ele>
        <time>2021-08-16T07:36:07.221Z</time>
      </trkpt>
      <trkpt lat="42.27068" lon="42.70382">
        <ele>155.989073</ele>
        <time>2021-08-16T07:36:18.543Z</time>
      </trkpt>
      <trkpt lat="42.27068" lon="42.70384">
        <ele>156.025107</ele>
        <time>2021-08-16T07:36:19.466Z</time>
      </trkpt>
      <trkpt lat="42.27068" lon="42.70435">
        <ele>156.819447</ele>
        <time>2021-08-16T07:36:31.278Z</time>
      </trkpt>
      <trkpt lat="42.27067" lon="42.70472">
        <ele>157.699646</ele>
        <time>2021-08-16T07:36:40.088Z</time>
      </trkpt>
      <trkpt lat="42.27069" lon="42.70479">
        <ele>157.905148</ele>
        <time>2021-08-16T07:36:42.574Z</time>
      </trkpt>
      <trkpt lat="42.27073" lon="42.70487">
        <ele>158.1443</ele>
        <time>2021-08-16T07:36:45.045Z</time>
      </trkpt>
      <trkpt lat="42.27083" lon="42.705">
        <ele>158.657905</ele>
        <time>2021-08-16T07:36:49.582Z</time>
      </trkpt>
      <trkpt lat="42.27089" lon="42.70505">
        <ele>158.895705</ele>
        <time>2021-08-16T07:36:51.970Z</time>
      </trkpt>
      <trkpt lat="42.27093" lon="42.70508">
        <ele>159.071762</ele>
        <time>2021-08-16T07:36:53.929Z</time>
      </trkpt>
      <trkpt lat="42.27096" lon="42.70512">
        <ele>159.23894</ele>
        <time>2021-08-16T07:36:56.200Z</time>
      </trkpt>
      <trkpt lat="42.27099" lon="42.70514">
        <ele>159.353452</ele>
        <time>2021-08-16T07:36:57.365Z</time>
      </trkpt>
      <trkpt lat="42.27103" lon="42.70517">
        <ele>159.511571</ele>
        <time>2021-08-16T07:36:58.907Z</time>
      </trkpt>
      <trkpt lat="42.27113" lon="42.70531">
        <ele>160.039818</ele>
        <time>2021-08-16T07:37:04.190Z</time>
      </trkpt>
      <trkpt lat="42.27116" lon="42.70547">
        <ele>160.494743</ele>
        <time>2021-08-16T07:37:09.901Z</time>
      </trkpt>
      <trkpt lat="42.27119" lon="42.70565">
        <ele>160.98909</ele>
        <time>2021-08-16T07:37:15.241Z</time>
      </trkpt>
      <trkpt lat="42.2712" lon="42.70585">
        <ele>161.51956</ele>
        <time>2021-08-16T07:37:21.889Z</time>
      </trkpt>
      <trkpt lat="42.2712" lon="42.70595">
        <ele>161.777598</ele>
        <time>2021-08-16T07:37:25.377Z</time>
      </trkpt>
      <trkpt lat="42.2712" lon="42.70608">
        <ele>162.132364</ele>
        <time>2021-08-16T07:37:29.464Z</time>
      </trkpt>
      <trkpt lat="42.2712" lon="42.70631">
        <ele>162.763956</ele>
        <time>2021-08-16T07:37:37.153Z</time>
      </trkpt>
      <trkpt lat="42.27121" lon="42.70643">
        <ele>163.06872</ele>
        <time>2021-08-16T07:37:41.521Z</time>
      </trkpt>
      <trkpt lat="42.27135" lon="42.70712">
        <ele>165.534301</ele>
        <time>2021-08-16T07:38:05.828Z</time>
      </trkpt>
      <trkpt lat="42.27136" lon="42.70726">
        <ele>166.046406</ele>
        <time>2021-08-16T07:38:11.053Z</time>
      </trkpt>
      <trkpt lat="42.27134" lon="42.70737">
        <ele>166.482734</ele>
        <time>2021-08-16T07:38:15.689Z</time>
      </trkpt>
      <trkpt lat="42.27127" lon="42.70754">
        <ele>167.190129</ele>
        <time>2021-08-16T07:38:21.824Z</time>
      </trkpt>
      <trkpt lat="42.27113" lon="42.70784">
        <ele>168.485794</ele>
        <time>2021-08-16T07:38:34.934Z</time>
      </trkpt>
      <trkpt lat="42.27083" lon="42.70831">
        <ele>170.782408</ele>
        <time>2021-08-16T07:38:56.500Z</time>
      </trkpt>
      <trkpt lat="42.27039" lon="42.70907">
        <ele>174.085384</ele>
        <time>2021-08-16T07:39:30.371Z</time>
      </trkpt>
      <trkpt lat="42.27019" lon="42.70941">
        <ele>175.458176</ele>
        <time>2021-08-16T07:39:44.536Z</time>
      </trkpt>
      <trkpt lat="42.26997" lon="42.7098">
        <ele>177.044582</ele>
        <time>2021-08-16T07:39:59.982Z</time>
      </trkpt>
      <trkpt lat="42.26941" lon="42.71097">
        <ele>181.087781</ele>
        <time>2021-08-16T07:40:44.627Z</time>
      </trkpt>
      <trkpt lat="42.26903" lon="42.71186">
        <ele>183.321421</ele>
        <time>2021-08-16T07:41:13.623Z</time>
      </trkpt>
      <trkpt lat="42.26895" lon="42.7121">
        <ele>183.871438</ele>
        <time>2021-08-16T07:41:20.560Z</time>
      </trkpt>
      <trkpt lat="42.2689" lon="42.7123">
        <ele>184.347578</ele>
        <time>2021-08-16T07:41:25.437Z</time>
      </trkpt>
      <trkpt lat="42.26847" lon="42.71332">
        <ele>186.357625</ele>
        <time>2021-08-16T07:41:52.977Z</time>
      </trkpt>
      <trkpt lat="42.26817" lon="42.71401">
        <ele>187.452456</ele>
        <time>2021-08-16T07:42:11.101Z</time>
      </trkpt>
      <trkpt lat="42.26799" lon="42.71444">
        <ele>188.117487</ele>
        <time>2021-08-16T07:42:21.411Z</time>
      </trkpt>
      <trkpt lat="42.26771" lon="42.71504">
        <ele>189.175027</ele>
        <time>2021-08-16T07:42:38.460Z</time>
      </trkpt>
      <trkpt lat="42.2675" lon="42.71533">
        <ele>189.907308</ele>
        <time>2021-08-16T07:42:49.371Z</time>
      </trkpt>
      <trkpt lat="42.26715" lon="42.71584">
        <ele>191.142269</ele>
        <time>2021-08-16T07:43:08.407Z</time>
      </trkpt>
      <trkpt lat="42.26713" lon="42.71586">
        <ele>191.18924</ele>
        <time>2021-08-16T07:43:09.150Z</time>
      </trkpt>
      <trkpt lat="42.26636" lon="42.71672">
        <ele>192.81178</ele>
        <time>2021-08-16T07:43:44.328Z</time>
      </trkpt>
      <trkpt lat="42.26624" lon="42.7174">
        <ele>192.053805</ele>
        <time>2021-08-16T07:43:58.388Z</time>
      </trkpt>
      <trkpt lat="42.26615" lon="42.71807">
        <ele>191.30591</ele>
        <time>2021-08-16T07:44:08.429Z</time>
      </trkpt>
      <trkpt lat="42.2661" lon="42.71808">
        <ele>191.239236</ele>
        <time>2021-08-16T07:44:09.230Z</time>
      </trkpt>
      <trkpt lat="42.26601" lon="42.71821">
        <ele>191.044248</ele>
        <time>2021-08-16T07:44:11.474Z</time>
      </trkpt>
      <trkpt lat="42.26601" lon="42.71827">
        <ele>190.977523</ele>
        <time>2021-08-16T07:44:12.251Z</time>
      </trkpt>
      <trkpt lat="42.26602" lon="42.71831">
        <ele>190.930131</ele>
        <time>2021-08-16T07:44:12.803Z</time>
      </trkpt>
      <trkpt lat="42.26578" lon="42.71874">
        <ele>189.727778</ele>
        <time>2021-08-16T07:44:19.280Z</time>
      </trkpt>
      <trkpt lat="42.26575" lon="42.71886">
        <ele>188.890052</ele>
        <time>2021-08-16T07:44:20.673Z</time>
      </trkpt>
      <trkpt lat="42.26548" lon="42.71929">
        <ele>184.985727</ele>
        <time>2021-08-16T07:44:26.834Z</time>
      </trkpt>
      <trkpt lat="42.26552" lon="42.71945">
        <ele>183.819397</ele>
        <time>2021-08-16T07:44:28.750Z</time>
      </trkpt>
      <trkpt lat="42.26563" lon="42.71972">
        <ele>181.693113</ele>
        <time>2021-08-16T07:44:32.154Z</time>
      </trkpt>
      <trkpt lat="42.26568" lon="42.71992">
        <ele>180.250245</ele>
        <time>2021-08-16T07:44:34.474Z</time>
      </trkpt>
      <trkpt lat="42.26575" lon="42.72013">
        <ele>178.683389</ele>
        <time>2021-08-16T07:44:36.942Z</time>
      </trkpt>
      <trkpt lat="42.26574" lon="42.72041">
        <ele>176.720508</ele>
        <time>2021-08-16T07:44:40.053Z</time>
      </trkpt>
      <trkpt lat="42.26568" lon="42.7208">
        <ele>174.002073</ele>
        <time>2021-08-16T07:44:44.331Z</time>
      </trkpt>
      <trkpt lat="42.26568" lon="42.72102">
        <ele>172.150237</ele>
        <time>2021-08-16T07:44:46.727Z</time>
      </trkpt>
      <trkpt lat="42.2657" lon="42.72259">
        <ele>158.873904</ele>
        <time>2021-08-16T07:45:03.604Z</time>
      </trkpt>
      <trkpt lat="42.26543" lon="42.72403">
        <ele>147.882058</ele>
        <time>2021-08-16T07:45:19.909Z</time>
      </trkpt>
      <trkpt lat="42.2653" lon="42.72419">
        <ele>146.375395</ele>
        <time>2021-08-16T07:45:22.445Z</time>
      </trkpt>
      <trkpt lat="42.26527" lon="42.72494">
        <ele>141.473348</ele>
        <time>2021-08-16T07:45:30.668Z</time>
      </trkpt>
      <trkpt lat="42.26526" lon="42.72608">
        <ele>135.917166</ele>
        <time>2021-08-16T07:45:43.281Z</time>
      </trkpt>
      <trkpt lat="42.26535" lon="42.72662">
        <ele>134.325106</ele>
        <time>2021-08-16T07:45:49.920Z</time>
      </trkpt>
      <trkpt lat="42.26568" lon="42.72812">
        <ele>130.512045</ele>
        <time>2021-08-16T07:46:10.691Z</time>
      </trkpt>
      <trkpt lat="42.26589" lon="42.72877">
        <ele>130.820119</ele>
        <time>2021-08-16T07:46:22.021Z</time>
      </trkpt>
      <trkpt lat="42.26609" lon="42.72916">
        <ele>131.027641</ele>
        <time>2021-08-16T07:46:31.812Z</time>
      </trkpt>
      <trkpt lat="42.26616" lon="42.72933">
        <ele>131.111036</ele>
        <time>2021-08-16T07:46:35.614Z</time>
      </trkpt>
      <trkpt lat="42.26615" lon="42.7295">
        <ele>131.186445</ele>
        <time>2021-08-16T07:46:40.339Z</time>
      </trkpt>
      <trkpt lat="42.26572" lon="42.73024">
        <ele>131.699357</ele>
        <time>2021-08-16T07:47:02.389Z</time>
      </trkpt>
      <trkpt lat="42.26538" lon="42.73062">
        <ele>132.221304</ele>
        <time>2021-08-16T07:47:17.116Z</time>
      </trkpt>
      <trkpt lat="42.26509" lon="42.73089">
        <ele>132.636921</ele>
        <time>2021-08-16T07:47:28.677Z</time>
      </trkpt>
      <trkpt lat="42.26488" lon="42.73102">
        <ele>132.911417</ele>
        <time>2021-08-16T07:47:35.061Z</time>
      </trkpt>
      <trkpt lat="42.26299" lon="42.73128">
        <ele>133.808064</ele>
        <time>2021-08-16T07:48:15.958Z</time>
      </trkpt>
      <trkpt lat="42.26229" lon="42.73112">
        <ele>134.735558</ele>
        <time>2021-08-16T07:48:34.431Z</time>
      </trkpt>
      <trkpt lat="42.26182" lon="42.73101">
        <ele>136.508362</ele>
        <time>2021-08-16T07:48:49.744Z</time>
      </trkpt>
      <trkpt lat="42.26164" lon="42.73098">
        <ele>137.17776</ele>
        <time>2021-08-16T07:48:57.203Z</time>
      </trkpt>
      <trkpt lat="42.26148" lon="42.731">
        <ele>137.779922</ele>
        <time>2021-08-16T07:49:03.147Z</time>
      </trkpt>
      <trkpt lat="42.26129" lon="42.73111">
        <ele>138.547411</ele>
        <time>2021-08-16T07:49:12.636Z</time>
      </trkpt>
      <trkpt lat="42.26096" lon="42.73149">
        <ele>140.190089</ele>
        <time>2021-08-16T07:49:34.328Z</time>
      </trkpt>
      <trkpt lat="42.26067" lon="42.73191">
        <ele>143.138663</ele>
        <time>2021-08-16T07:49:59.236Z</time>
      </trkpt>
      <trkpt lat="42.26055" lon="42.73221">
        <ele>145.175265</ele>
        <time>2021-08-16T07:50:15.898Z</time>
      </trkpt>
      <trkpt lat="42.26052" lon="42.73253">
        <ele>147.159706</ele>
        <time>2021-08-16T07:50:31.605Z</time>
      </trkpt>
      <trkpt lat="42.26056" lon="42.73277">
        <ele>148.581164</ele>
        <time>2021-08-16T07:50:43.017Z</time>
      </trkpt>
      <trkpt lat="42.26091" lon="42.7341">
        <ele>156.852835</ele>
        <time>2021-08-16T07:51:51.994Z</time>
      </trkpt>
      <trkpt lat="42.26093" lon="42.73449">
        <ele>158.90459</ele>
        <time>2021-08-16T07:52:10.291Z</time>
      </trkpt>
      <trkpt lat="42.26089" lon="42.73492">
        <ele>161.231495</ele>
        <time>2021-08-16T07:52:30.403Z</time>
      </trkpt>
      <trkpt lat="42.26083" lon="42.73512">
        <ele>162.3618</ele>
        <time>2021-08-16T07:52:39.813Z</time>
      </trkpt>
      <trkpt lat="42.26076" lon="42.73524">
        <ele>163.159554</ele>
        <time>2021-08-16T07:52:46.187Z</time>
      </trkpt>
      <trkpt lat="42.26057" lon="42.73531">
        <ele>164.559838</ele>
        <time>2021-08-16T07:52:57.166Z</time>
      </trkpt>
      <trkpt lat="42.25984" lon="42.73496">
        <ele>169.438879</ele>
        <time>2021-08-16T07:53:36.199Z</time>
      </trkpt>
      <trkpt lat="42.25961" lon="42.73493">
        <ele>170.532855</ele>
        <time>2021-08-16T07:53:46.606Z</time>
      </trkpt>
      <trkpt lat="42.25932" lon="42.73516">
        <ele>172.123914</ele>
        <time>2021-08-16T07:54:01.185Z</time>
      </trkpt>
      <trkpt lat="42.25915" lon="42.73552">
        <ele>173.640662</ele>
        <time>2021-08-16T07:54:15.010Z</time>
      </trkpt>
      <trkpt lat="42.25909" lon="42.73692">
        <ele>178.904403</ele>
        <time>2021-08-16T07:55:02.248Z</time>
      </trkpt>
      <trkpt lat="42.25881" lon="42.73845">
        <ele>185.265092</ele>
        <time>2021-08-16T07:56:00.449Z</time>
      </trkpt>
      <trkpt lat="42.25838" lon="42.74189">
        <ele>201.453012</ele>
        <time>2021-08-16T07:58:22.185Z</time>
      </trkpt>
      <trkpt lat="42.25833" lon="42.74203">
        <ele>202.137911</ele>
        <time>2021-08-16T07:58:28.923Z</time>
      </trkpt>
      <trkpt lat="42.25806" lon="42.74294">
        <ele>206.519367</ele>
        <time>2021-08-16T07:59:06.177Z</time>
      </trkpt>
      <trkpt lat="42.25796" lon="42.74328">
        <ele>208.161234</ele>
        <time>2021-08-16T07:59:19.551Z</time>
      </trkpt>
      <trkpt lat="42.25752" lon="42.7444">
        <ele>213.459593</ele>
        <time>2021-08-16T08:00:06.366Z</time>
      </trkpt>
      <trkpt lat="42.25741" lon="42.74505">
        <ele>216.226659</ele>
        <time>2021-08-16T08:00:31.598Z</time>
      </trkpt>
      <trkpt lat="42.25742" lon="42.74593">
        <ele>219.677564</ele>
        <time>2021-08-16T08:01:04.456Z</time>
      </trkpt>
      <trkpt lat="42.25723" lon="42.74661">
        <ele>222.022777</ele>
        <time>2021-08-16T08:01:31.002Z</time>
      </trkpt>
      <trkpt lat="42.25696" lon="42.74717">
        <ele>224.175513</ele>
        <time>2021-08-16T08:01:54.499Z</time>
      </trkpt>
      <trkpt lat="42.25213" lon="42.7501">
        <ele>236.393735</ele>
        <time>2021-08-16T08:05:00.845Z</time>
      </trkpt>
      <trkpt lat="42.25175" lon="42.75086">
        <ele>236.467951</ele>
        <time>2021-08-16T08:05:13.350Z</time>
      </trkpt>
      <trkpt lat="42.25015" lon="42.75402">
        <ele>218.369541</ele>
        <time>2021-08-16T08:05:56.218Z</time>
      </trkpt>
      <trkpt lat="42.24913" lon="42.75521">
        <ele>208.984252</ele>
        <time>2021-08-16T08:06:16.184Z</time>
      </trkpt>
      <trkpt lat="42.24769" lon="42.75619">
        <ele>198.904614</ele>
        <time>2021-08-16T08:06:40.725Z</time>
      </trkpt>
      <trkpt lat="42.2458" lon="42.7586">
        <ele>188.296576</ele>
        <time>2021-08-16T08:07:23.374Z</time>
      </trkpt>
      <trkpt lat="42.24033" lon="42.76554">
        <ele>172.826364</ele>
        <time>2021-08-16T08:09:41.300Z</time>
      </trkpt>
      <trkpt lat="42.24005" lon="42.76567">
        <ele>172.329611</ele>
        <time>2021-08-16T08:09:47.086Z</time>
      </trkpt>
      <trkpt lat="42.2399" lon="42.76573">
        <ele>172.270915</ele>
        <time>2021-08-16T08:09:50.300Z</time>
      </trkpt>
      <trkpt lat="42.23988" lon="42.76572">
        <ele>172.270393</ele>
        <time>2021-08-16T08:09:50.619Z</time>
      </trkpt>
      <trkpt lat="42.23979" lon="42.76577">
        <ele>172.267011</ele>
        <time>2021-08-16T08:09:52.629Z</time>
      </trkpt>
      <trkpt lat="42.23954" lon="42.76599">
        <ele>172.257168</ele>
        <time>2021-08-16T08:09:58.764Z</time>
      </trkpt>
      <trkpt lat="42.23948" lon="42.76607">
        <ele>172.254208</ele>
        <time>2021-08-16T08:10:00.614Z</time>
      </trkpt>
      <trkpt lat="42.23946" lon="42.76613">
        <ele>172.252582</ele>
        <time>2021-08-16T08:10:01.691Z</time>
      </trkpt>
      <trkpt lat="42.23938" lon="42.76633">
        <ele>172.247054</ele>
        <time>2021-08-16T08:10:05.321Z</time>
      </trkpt>
      <trkpt lat="42.23898" lon="42.76709">
        <ele>172.2241</ele>
        <time>2021-08-16T08:10:21.624Z</time>
      </trkpt>
      <trkpt lat="42.23882" lon="42.76739">
        <ele>172.226017</ele>
        <time>2021-08-16T08:10:28.595Z</time>
      </trkpt>
      <trkpt lat="42.23508" lon="42.7722">
        <ele>178.068915</ele>
        <time>2021-08-16T08:12:57.229Z</time>
      </trkpt>
      <trkpt lat="42.23312" lon="42.77453">
        <ele>176.103849</ele>
        <time>2021-08-16T08:13:48.826Z</time>
      </trkpt>
      <trkpt lat="42.23201" lon="42.77582">
        <ele>174.786887</ele>
        <time>2021-08-16T08:14:18.397Z</time>
      </trkpt>
      <trkpt lat="42.22996" lon="42.7786">
        <ele>172.500789</ele>
        <time>2021-08-16T08:15:17.065Z</time>
      </trkpt>
      <trkpt lat="42.22866" lon="42.77971">
        <ele>172.398445</ele>
        <time>2021-08-16T08:15:50.061Z</time>
      </trkpt>
      <trkpt lat="42.22829" lon="42.78009">
        <ele>172.485771</ele>
        <time>2021-08-16T08:16:02.293Z</time>
      </trkpt>
      <trkpt lat="42.22813" lon="42.78029">
        <ele>172.525931</ele>
        <time>2021-08-16T08:16:08.195Z</time>
      </trkpt>
      <trkpt lat="42.22799" lon="42.7806">
        <ele>172.637608</ele>
        <time>2021-08-16T08:16:15.783Z</time>
      </trkpt>
      <trkpt lat="42.22778" lon="42.78174">
        <ele>173.016937</ele>
        <time>2021-08-16T08:16:39.507Z</time>
      </trkpt>
      <trkpt lat="42.22758" lon="42.7823">
        <ele>173.219149</ele>
        <time>2021-08-16T08:16:51.145Z</time>
      </trkpt>
      <trkpt lat="42.22752" lon="42.78258">
        <ele>173.311953</ele>
        <time>2021-08-16T08:16:55.627Z</time>
      </trkpt>
      <trkpt lat="42.22753" lon="42.78288">
        <ele>172.652337</ele>
        <time>2021-08-16T08:16:59.900Z</time>
      </trkpt>
      <trkpt lat="42.22769" lon="42.784">
        <ele>170.078365</ele>
        <time>2021-08-16T08:17:14.871Z</time>
      </trkpt>
      <trkpt lat="42.2276" lon="42.78494">
        <ele>167.963013</ele>
        <time>2021-08-16T08:17:26.249Z</time>
      </trkpt>
      <trkpt lat="42.22751" lon="42.78538">
        <ele>166.27896</ele>
        <time>2021-08-16T08:17:31.597Z</time>
      </trkpt>
      <trkpt lat="42.22738" lon="42.78572">
        <ele>164.794613</ele>
        <time>2021-08-16T08:17:36.076Z</time>
      </trkpt>
      <trkpt lat="42.22723" lon="42.78606">
        <ele>163.284235</ele>
        <time>2021-08-16T08:17:40.600Z</time>
      </trkpt>
      <trkpt lat="42.22689" lon="42.78662">
        <ele>160.459904</ele>
        <time>2021-08-16T08:17:49.037Z</time>
      </trkpt>
      <trkpt lat="42.22565" lon="42.78806">
        <ele>152.815697</ele>
        <time>2021-08-16T08:18:15.089Z</time>
      </trkpt>
      <trkpt lat="42.22525" lon="42.78845">
        <ele>150.608681</ele>
        <time>2021-08-16T08:18:23.195Z</time>
      </trkpt>
      <trkpt lat="42.22462" lon="42.78876">
        <ele>148.882594</ele>
        <time>2021-08-16T08:18:34.725Z</time>
      </trkpt>
      <trkpt lat="42.22413" lon="42.7889">
        <ele>147.668404</ele>
        <time>2021-08-16T08:18:43.719Z</time>
      </trkpt>
      <trkpt lat="42.22406" lon="42.78893">
        <ele>147.480192</ele>
        <time>2021-08-16T08:18:45.150Z</time>
      </trkpt>
      <trkpt lat="42.22334" lon="42.78948">
        <ele>145.560183</ele>
        <time>2021-08-16T08:19:00.477Z</time>
      </trkpt>
      <trkpt lat="42.22269" lon="42.79024">
        <ele>143.794711</ele>
        <time>2021-08-16T08:19:16.653Z</time>
      </trkpt>
      <trkpt lat="42.22246" lon="42.79065">
        <ele>143.021355</ele>
        <time>2021-08-16T08:19:23.626Z</time>
      </trkpt>
      <trkpt lat="42.22208" lon="42.79178">
        <ele>140.713951</ele>
        <time>2021-08-16T08:19:39.751Z</time>
      </trkpt>
      <trkpt lat="42.22194" lon="42.79199">
        <ele>140.119632</ele>
        <time>2021-08-16T08:19:43.502Z</time>
      </trkpt>
      <trkpt lat="42.22163" lon="42.79221">
        <ele>139.159825</ele>
        <time>2021-08-16T08:19:49.499Z</time>
      </trkpt>
      <trkpt lat="42.22135" lon="42.79236">
        <ele>138.314548</ele>
        <time>2021-08-16T08:19:54.733Z</time>
      </trkpt>
      <trkpt lat="42.22071" lon="42.79283">
        <ele>136.187284</ele>
        <time>2021-08-16T08:20:07.333Z</time>
      </trkpt>
      <trkpt lat="42.21945" lon="42.79431">
        <ele>131.29949</ele>
        <time>2021-08-16T08:20:36.049Z</time>
      </trkpt>
      <trkpt lat="42.21923" lon="42.79445">
        <ele>130.690316</ele>
        <time>2021-08-16T08:20:40.324Z</time>
      </trkpt>
      <trkpt lat="42.21699" lon="42.79525">
        <ele>125.477241</ele>
        <time>2021-08-16T08:21:22.110Z</time>
      </trkpt>
      <trkpt lat="42.21657" lon="42.79546">
        <ele>124.60705</ele>
        <time>2021-08-16T08:21:30.434Z</time>
      </trkpt>
      <trkpt lat="42.21622" lon="42.79575">
        <ele>123.827469</ele>
        <time>2021-08-16T08:21:38.196Z</time>
      </trkpt>
      <trkpt lat="42.21591" lon="42.79625">
        <ele>123.126129</ele>
        <time>2021-08-16T08:21:47.380Z</time>
      </trkpt>
      <trkpt lat="42.2146" lon="42.79916">
        <ele>120.576241</ele>
        <time>2021-08-16T08:22:36.027Z</time>
      </trkpt>
      <trkpt lat="42.21443" lon="42.7996">
        <ele>120.363765</ele>
        <time>2021-08-16T08:22:45.276Z</time>
      </trkpt>
      <trkpt lat="42.21431" lon="42.80015">
        <ele>120.986522</ele>
        <time>2021-08-16T08:22:57.400Z</time>
      </trkpt>
      <trkpt lat="42.21426" lon="42.8009">
        <ele>122.520917</ele>
        <time>2021-08-16T08:23:15.673Z</time>
      </trkpt>
      <trkpt lat="42.21423" lon="42.80129">
        <ele>123.30619</ele>
        <time>2021-08-16T08:23:26.439Z</time>
      </trkpt>
      <trkpt lat="42.21418" lon="42.80243">
        <ele>125.700013</ele>
        <time>2021-08-16T08:24:02.688Z</time>
      </trkpt>
      <trkpt lat="42.21423" lon="42.80348">
        <ele>128.230283</ele>
        <time>2021-08-16T08:24:35.838Z</time>
      </trkpt>
      <trkpt lat="42.21429" lon="42.80392">
        <ele>129.305484</ele>
        <time>2021-08-16T08:24:48.128Z</time>
      </trkpt>
      <trkpt lat="42.21439" lon="42.80434">
        <ele>130.345586</ele>
        <time>2021-08-16T08:24:59.319Z</time>
      </trkpt>
      <trkpt lat="42.21446" lon="42.80465">
        <ele>131.068847</ele>
        <time>2021-08-16T08:25:07.569Z</time>
      </trkpt>
      <trkpt lat="42.21453" lon="42.80493">
        <ele>131.360049</ele>
        <time>2021-08-16T08:25:14.084Z</time>
      </trkpt>
      <trkpt lat="42.2155" lon="42.80806">
        <ele>134.723024</ele>
        <time>2021-08-16T08:26:24.320Z</time>
      </trkpt>
      <trkpt lat="42.21558" lon="42.80851">
        <ele>135.182164</ele>
        <time>2021-08-16T08:26:34.867Z</time>
      </trkpt>
      <trkpt lat="42.2156" lon="42.80873">
        <ele>135.401541</ele>
        <time>2021-08-16T08:26:40.706Z</time>
      </trkpt>
      <trkpt lat="42.21563" lon="42.80913">
        <ele>135.808376</ele>
        <time>2021-08-16T08:26:49.497Z</time>
      </trkpt>
      <trkpt lat="42.2156" lon="42.80954">
        <ele>135.97441</ele>
        <time>2021-08-16T08:26:57.922Z</time>
      </trkpt>
      <trkpt lat="42.21555" lon="42.80992">
        <ele>136.114969</ele>
        <time>2021-08-16T08:27:06.064Z</time>
      </trkpt>
      <trkpt lat="42.2154" lon="42.81064">
        <ele>136.387988</ele>
        <time>2021-08-16T08:27:22.008Z</time>
      </trkpt>
      <trkpt lat="42.21522" lon="42.81142">
        <ele>136.685907</ele>
        <time>2021-08-16T08:27:34.728Z</time>
      </trkpt>
      <trkpt lat="42.21484" lon="42.81318">
        <ele>135.249923</ele>
        <time>2021-08-16T08:28:00.935Z</time>
      </trkpt>
      <trkpt lat="42.21449" lon="42.81501">
        <ele>133.78733</ele>
        <time>2021-08-16T08:28:28.644Z</time>
      </trkpt>
      <trkpt lat="42.21427" lon="42.81601">
        <ele>133.023578</ele>
        <time>2021-08-16T08:28:44.160Z</time>
      </trkpt>
      <trkpt lat="42.21424" lon="42.81612">
        <ele>132.938718</ele>
        <time>2021-08-16T08:28:45.946Z</time>
      </trkpt>
      <trkpt lat="42.21405" lon="42.81711">
        <ele>132.310573</ele>
        <time>2021-08-16T08:29:01.294Z</time>
      </trkpt>
      <trkpt lat="42.214" lon="42.81737">
        <ele>132.142386</ele>
        <time>2021-08-16T08:29:05.358Z</time>
      </trkpt>
      <trkpt lat="42.21377" lon="42.81844">
        <ele>131.466836</ele>
        <time>2021-08-16T08:29:22.045Z</time>
      </trkpt>
      <trkpt lat="42.21365" lon="42.81869">
        <ele>131.286435</ele>
        <time>2021-08-16T08:29:26.377Z</time>
      </trkpt>
      <trkpt lat="42.21359" lon="42.81881">
        <ele>131.192993</ele>
        <time>2021-08-16T08:29:28.728Z</time>
      </trkpt>
      <trkpt lat="42.21351" lon="42.81895">
        <ele>131.084631</ele>
        <time>2021-08-16T08:29:31.296Z</time>
      </trkpt>
      <trkpt lat="42.21347" lon="42.81896">
        <ele>131.049256</ele>
        <time>2021-08-16T08:29:32.065Z</time>
      </trkpt>
      <trkpt lat="42.21337" lon="42.81904">
        <ele>130.946857</ele>
        <time>2021-08-16T08:29:34.686Z</time>
      </trkpt>
      <trkpt lat="42.21334" lon="42.81909">
        <ele>130.911851</ele>
        <time>2021-08-16T08:29:35.520Z</time>
      </trkpt>
      <trkpt lat="42.21332" lon="42.81918">
        <ele>130.852865</ele>
        <time>2021-08-16T08:29:36.952Z</time>
      </trkpt>
      <trkpt lat="42.21333" lon="42.81927">
        <ele>130.794236</ele>
        <time>2021-08-16T08:29:38.362Z</time>
      </trkpt>
      <trkpt lat="42.21336" lon="42.81936">
        <ele>130.735537</ele>
        <time>2021-08-16T08:29:39.725Z</time>
      </trkpt>
      <trkpt lat="42.21339" lon="42.8194">
        <ele>130.697217</ele>
        <time>2021-08-16T08:29:40.725Z</time>
      </trkpt>
      <trkpt lat="42.21343" lon="42.81943">
        <ele>130.659642</ele>
        <time>2021-08-16T08:29:41.735Z</time>
      </trkpt>
      <trkpt lat="42.21347" lon="42.81952">
        <ele>130.593884</ele>
        <time>2021-08-16T08:29:43.385Z</time>
      </trkpt>
      <trkpt lat="42.21353" lon="42.81967">
        <ele>130.490432</ele>
        <time>2021-08-16T08:29:45.866Z</time>
      </trkpt>
      <trkpt lat="42.21359" lon="42.81995">
        <ele>130.310258</ele>
        <time>2021-08-16T08:29:50.329Z</time>
      </trkpt>
      <trkpt lat="42.21355" lon="42.82038">
        <ele>130.042151</ele>
        <time>2021-08-16T08:29:56.841Z</time>
      </trkpt>
      <trkpt lat="42.21347" lon="42.82201">
        <ele>128.634968</ele>
        <time>2021-08-16T08:30:20.409Z</time>
      </trkpt>
      <trkpt lat="42.2134" lon="42.82257">
        <ele>128.128792</ele>
        <time>2021-08-16T08:30:28.353Z</time>
      </trkpt>
      <trkpt lat="42.21319" lon="42.82322">
        <ele>127.698587</ele>
        <time>2021-08-16T08:30:38.718Z</time>
      </trkpt>
      <trkpt lat="42.21274" lon="42.8239">
        <ele>127.635782</ele>
        <time>2021-08-16T08:30:52.665Z</time>
      </trkpt>
      <trkpt lat="42.21108" lon="42.82589">
        <ele>128.0409</ele>
        <time>2021-08-16T08:31:48.441Z</time>
      </trkpt>
      <trkpt lat="42.21131" lon="42.82621">
        <ele>128.166627</ele>
        <time>2021-08-16T08:32:00.879Z</time>
      </trkpt>
      <trkpt lat="42.21127" lon="42.82628">
        <ele>128.189971</ele>
        <time>2021-08-16T08:32:03.133Z</time>
      </trkpt>
      <trkpt lat="42.21106" lon="42.8267">
        <ele>128.232872</ele>
        <time>2021-08-16T08:32:17.174Z</time>
      </trkpt>
      <trkpt lat="42.2106" lon="42.82733">
        <ele>128.213279</ele>
        <time>2021-08-16T08:32:40.958Z</time>
      </trkpt>
      <trkpt lat="42.21084" lon="42.83011">
        <ele>128.906718</ele>
        <time>2021-08-16T08:33:58.536Z</time>
      </trkpt>
      <trkpt lat="42.21146" lon="42.83611">
        <ele>135.691532</ele>
        <time>2021-08-16T08:37:20.100Z</time>
      </trkpt>
      <trkpt lat="42.21178" lon="42.83868">
        <ele>140.604141</ele>
        <time>2021-08-16T08:39:01.143Z</time>
      </trkpt>
      <trkpt lat="42.21202" lon="42.83939">
        <ele>141.650508</ele>
        <time>2021-08-16T08:39:31.887Z</time>
      </trkpt>
      <trkpt lat="42.21255" lon="42.84102">
        <ele>141.974287</ele>
        <time>2021-08-16T08:40:23.841Z</time>
      </trkpt>
      <trkpt lat="42.21235" lon="42.84093">
        <ele>141.476785</ele>
        <time>2021-08-16T08:40:30.606Z</time>
      </trkpt>
      <trkpt lat="42.21114" lon="42.84065">
        <ele>138.284341</ele>
        <time>2021-08-16T08:41:07.845Z</time>
      </trkpt>
      <trkpt lat="42.20979" lon="42.84046">
        <ele>132.018292</ele>
        <time>2021-08-16T08:41:46.679Z</time>
      </trkpt>
      <trkpt lat="42.20815" lon="42.83995">
        <ele>125.160054</ele>
        <time>2021-08-16T08:42:36.602Z</time>
      </trkpt>
      <trkpt lat="42.20671" lon="42.83958">
        <ele>120.595489</ele>
        <time>2021-08-16T08:43:21.752Z</time>
      </trkpt>
      <trkpt lat="42.20585" lon="42.83946">
        <ele>118.240782</ele>
        <time>2021-08-16T08:43:49.261Z</time>
      </trkpt>
      <trkpt lat="42.20497" lon="42.83946">
        <ele>116.360249</ele>
        <time>2021-08-16T08:44:17.235Z</time>
      </trkpt>
      <trkpt lat="42.20488" lon="42.83943">
        <ele>116.147202</ele>
        <time>2021-08-16T08:44:20.283Z</time>
      </trkpt>
      <trkpt lat="42.20473" lon="42.83978">
        <ele>115.515255</ele>
        <time>2021-08-16T08:44:30.051Z</time>
      </trkpt>
      <trkpt lat="42.20459" lon="42.83994">
        <ele>115.129986</ele>
        <time>2021-08-16T08:44:36.004Z</time>
      </trkpt>
      <trkpt lat="42.20451" lon="42.83994">
        <ele>114.943539</ele>
        <time>2021-08-16T08:44:38.942Z</time>
      </trkpt>
      <trkpt lat="42.20421" lon="42.83982">
        <ele>114.367412</ele>
        <time>2021-08-16T08:44:44.986Z</time>
      </trkpt>
      <trkpt lat="42.20402" lon="42.83974">
        <ele>114.049292</ele>
        <time>2021-08-16T08:44:51.353Z</time>
      </trkpt>
      <trkpt lat="42.20399" lon="42.84004">
        <ele>113.683457</ele>
        <time>2021-08-16T08:44:59.223Z</time>
      </trkpt>
      <trkpt lat="42.20398" lon="42.84055">
        <ele>113.065765</ele>
        <time>2021-08-16T08:45:11.876Z</time>
      </trkpt>
      <trkpt lat="42.20373" lon="42.8416">
        <ele>111.747569</ele>
        <time>2021-08-16T08:45:38.693Z</time>
      </trkpt>
      <trkpt lat="42.20363" lon="42.84178">
        <ele>111.49607</ele>
        <time>2021-08-16T08:45:44.506Z</time>
      </trkpt>
      <trkpt lat="42.20347" lon="42.84199">
        <ele>111.160793</ele>
        <time>2021-08-16T08:45:52.081Z</time>
      </trkpt>
      <trkpt lat="42.20279" lon="42.84204">
        <ele>110.136988</ele>
        <time>2021-08-16T08:46:05.652Z</time>
      </trkpt>
      <trkpt lat="42.20208" lon="42.84209">
        <ele>109.062272</ele>
        <time>2021-08-16T08:46:19.559Z</time>
      </trkpt>
      <trkpt lat="42.20081" lon="42.84226">
        <ele>107.922271</ele>
        <time>2021-08-16T08:46:45.773Z</time>
      </trkpt>
      <trkpt lat="42.19686" lon="42.84275">
        <ele>106.773782</ele>
        <time>2021-08-16T08:48:15.410Z</time>
      </trkpt>
      <trkpt lat="42.19664" lon="42.8429">
        <ele>106.729989</ele>
        <time>2021-08-16T08:48:21.072Z</time>
      </trkpt>
      <trkpt lat="42.19663" lon="42.84314">
        <ele>106.709324</ele>
        <time>2021-08-16T08:48:27.515Z</time>
      </trkpt>
      <trkpt lat="42.19669" lon="42.84331">
        <ele>106.693607</ele>
        <time>2021-08-16T08:48:32.485Z</time>
      </trkpt>
      <trkpt lat="42.19686" lon="42.84334">
        <ele>106.67374</ele>
        <time>2021-08-16T08:48:38.706Z</time>
      </trkpt>
      <trkpt lat="42.19694" lon="42.84361">
        <ele>106.648138</ele>
        <time>2021-08-16T08:48:46.798Z</time>
      </trkpt>
      <trkpt lat="42.19699" lon="42.84449">
        <ele>106.572199</ele>
        <time>2021-08-16T08:49:10.806Z</time>
      </trkpt>
      <trkpt lat="42.19673" lon="42.84483">
        <ele>106.530457</ele>
        <time>2021-08-16T08:49:24.064Z</time>
      </trkpt>
      <trkpt lat="42.19648" lon="42.84533">
        <ele>106.587769</ele>
        <time>2021-08-16T08:49:40.889Z</time>
      </trkpt>
      <trkpt lat="42.19637" lon="42.8464">
        <ele>106.704108</ele>
        <time>2021-08-16T08:50:11.539Z</time>
      </trkpt>
      <trkpt lat="42.19628" lon="42.84808">
        <ele>106.836006</ele>
        <time>2021-08-16T08:50:58.726Z</time>
      </trkpt>
      <trkpt lat="42.19632" lon="42.85016">
        <ele>107.036558</ele>
        <time>2021-08-16T08:51:56.323Z</time>
      </trkpt>
      <trkpt lat="42.19629" lon="42.85119">
        <ele>107.258931</ele>
        <time>2021-08-16T08:52:25.669Z</time>
      </trkpt>
      <trkpt lat="42.19607" lon="42.85187">
        <ele>107.420761</ele>
        <time>2021-08-16T08:52:47.535Z</time>
      </trkpt>
      <trkpt lat="42.19601" lon="42.85289">
        <ele>107.771736</ele>
        <time>2021-08-16T08:53:17.730Z</time>
      </trkpt>
      <trkpt lat="42.19601" lon="42.85484">
        <ele>108.375575</ele>
        <time>2021-08-16T08:54:14.966Z</time>
      </trkpt>
      <trkpt lat="42.19584" lon="42.85552">
        <ele>108.475148</ele>
        <time>2021-08-16T08:54:35.299Z</time>
      </trkpt>
      <trkpt lat="42.19527" lon="42.85629">
        <ele>108.626234</ele>
        <time>2021-08-16T08:55:05.507Z</time>
      </trkpt>
      <trkpt lat="42.19471" lon="42.85741">
        <ele>108.669847</ele>
        <time>2021-08-16T08:55:42.362Z</time>
      </trkpt>
      <trkpt lat="42.19436" lon="42.85885">
        <ele>108.719736</ele>
        <time>2021-08-16T08:56:24.479Z</time>
      </trkpt>
      <trkpt lat="42.19404" lon="42.86061">
        <ele>108.917587</ele>
        <time>2021-08-16T08:57:15.604Z</time>
      </trkpt>
      <trkpt lat="42.19393" lon="42.86183">
        <ele>109.100954</ele>
        <time>2021-08-16T08:57:50.232Z</time>
      </trkpt>
      <trkpt lat="42.19408" lon="42.86222">
        <ele>109.171939</ele>
        <time>2021-08-16T08:58:02.022Z</time>
      </trkpt>
      <trkpt lat="42.19422" lon="42.86241">
        <ele>109.216886</ele>
        <time>2021-08-16T08:58:09.800Z</time>
      </trkpt>
      <trkpt lat="42.19417" lon="42.86282">
        <ele>109.284913</ele>
        <time>2021-08-16T08:58:21.663Z</time>
      </trkpt>
      <trkpt lat="42.19425" lon="42.86322">
        <ele>109.354195</ele>
        <time>2021-08-16T08:58:33.867Z</time>
      </trkpt>
      <trkpt lat="42.19422" lon="42.86361">
        <ele>109.511323</ele>
        <time>2021-08-16T08:58:45.213Z</time>
      </trkpt>
      <trkpt lat="42.19393" lon="42.86376">
        <ele>109.684253</ele>
        <time>2021-08-16T08:58:57.506Z</time>
      </trkpt>
      <trkpt lat="42.19401" lon="42.8643">
        <ele>109.908663</ele>
        <time>2021-08-16T08:59:13.875Z</time>
      </trkpt>
      <trkpt lat="42.19406" lon="42.86473">
        <ele>110.086501</ele>
        <time>2021-08-16T08:59:26.774Z</time>
      </trkpt>
      <trkpt lat="42.19382" lon="42.86516">
        <ele>110.303544</ele>
        <time>2021-08-16T08:59:42.606Z</time>
      </trkpt>
      <trkpt lat="42.19371" lon="42.86578">
        <ele>110.457538</ele>
        <time>2021-08-16T09:00:01.971Z</time>
      </trkpt>
      <trkpt lat="42.19369" lon="42.8664">
        <ele>110.582803</ele>
        <time>2021-08-16T09:00:20.358Z</time>
      </trkpt>
      <trkpt lat="42.19383" lon="42.86864">
        <ele>110.639076</ele>
        <time>2021-08-16T09:01:21.721Z</time>
      </trkpt>
      <trkpt lat="42.19383" lon="42.87115">
        <ele>110.209102</ele>
        <time>2021-08-16T09:02:28.667Z</time>
      </trkpt>
      <trkpt lat="42.1938" lon="42.872">
        <ele>110.105877</ele>
        <time>2021-08-16T09:02:52.162Z</time>
      </trkpt>
      <trkpt lat="42.19369" lon="42.87261">
        <ele>110.082333</ele>
        <time>2021-08-16T09:03:09.517Z</time>
      </trkpt>
      <trkpt lat="42.19352" lon="42.87286">
        <ele>110.217371</ele>
        <time>2021-08-16T09:03:19.267Z</time>
      </trkpt>
      <trkpt lat="42.19326" lon="42.8731">
        <ele>110.38502</ele>
        <time>2021-08-16T09:03:31.596Z</time>
      </trkpt>
      <trkpt lat="42.19294" lon="42.87325">
        <ele>110.564781</ele>
        <time>2021-08-16T09:03:44.988Z</time>
      </trkpt>
      <trkpt lat="42.19269" lon="42.87387">
        <ele>110.843167</ele>
        <time>2021-08-16T09:04:06.175Z</time>
      </trkpt>
      <trkpt lat="42.1924" lon="42.87482">
        <ele>111.377347</ele>
        <time>2021-08-16T09:04:37.431Z</time>
      </trkpt>
      <trkpt lat="42.19198" lon="42.87567">
        <ele>111.995377</ele>
        <time>2021-08-16T09:05:08.830Z</time>
      </trkpt>
      <trkpt lat="42.19152" lon="42.87681">
        <ele>112.692951</ele>
        <time>2021-08-16T09:05:48.459Z</time>
      </trkpt>
      <trkpt lat="42.19104" lon="42.87747">
        <ele>113.103796</ele>
        <time>2021-08-16T09:06:16.285Z</time>
      </trkpt>
      <trkpt lat="42.19023" lon="42.8781">
        <ele>113.575287</ele>
        <time>2021-08-16T09:06:53.121Z</time>
      </trkpt>
      <trkpt lat="42.18988" lon="42.87872">
        <ele>113.671689</ele>
        <time>2021-08-16T09:07:15.324Z</time>
      </trkpt>
      <trkpt lat="42.18967" lon="42.8793">
        <ele>113.751121</ele>
        <time>2021-08-16T09:07:33.294Z</time>
      </trkpt>
      <trkpt lat="42.18965" lon="42.87969">
        <ele>113.799558</ele>
        <time>2021-08-16T09:07:44.078Z</time>
      </trkpt>
      <trkpt lat="42.18924" lon="42.87971">
        <ele>113.826598</ele>
        <time>2021-08-16T09:07:59.289Z</time>
      </trkpt>
      <trkpt lat="42.18852" lon="42.88016">
        <ele>113.762828</ele>
        <time>2021-08-16T09:08:28.487Z</time>
      </trkpt>
      <trkpt lat="42.1881" lon="42.88075">
        <ele>113.714334</ele>
        <time>2021-08-16T09:08:50.772Z</time>
      </trkpt>
      <trkpt lat="42.18794" lon="42.88133">
        <ele>113.671165</ele>
        <time>2021-08-16T09:09:07.583Z</time>
      </trkpt>
      <trkpt lat="42.1875" lon="42.88155">
        <ele>113.620295</ele>
        <time>2021-08-16T09:09:24.663Z</time>
      </trkpt>
      <trkpt lat="42.18707" lon="42.88189">
        <ele>113.565805</ele>
        <time>2021-08-16T09:09:42.944Z</time>
      </trkpt>
      <trkpt lat="42.18663" lon="42.88266">
        <ele>113.486678</ele>
        <time>2021-08-16T09:10:09.444Z</time>
      </trkpt>
      <trkpt lat="42.18586" lon="42.88336">
        <ele>113.384894</ele>
        <time>2021-08-16T09:10:43.457Z</time>
      </trkpt>
      <trkpt lat="42.18576" lon="42.88365">
        <ele>113.359305</ele>
        <time>2021-08-16T09:10:52.040Z</time>
      </trkpt>
      <trkpt lat="42.18525" lon="42.88349">
        <ele>113.302758</ele>
        <time>2021-08-16T09:11:11.009Z</time>
      </trkpt>
      <trkpt lat="42.18446" lon="42.88357">
        <ele>113.420659</ele>
        <time>2021-08-16T09:11:40.699Z</time>
      </trkpt>
      <trkpt lat="42.18375" lon="42.88384">
        <ele>113.532088</ele>
        <time>2021-08-16T09:12:08.883Z</time>
      </trkpt>
      <trkpt lat="42.18289" lon="42.88457">
        <ele>113.879381</ele>
        <time>2021-08-16T09:12:48.469Z</time>
      </trkpt>
      <trkpt lat="42.1826" lon="42.8851">
        <ele>114.084698</ele>
        <time>2021-08-16T09:13:08.064Z</time>
      </trkpt>
      <trkpt lat="42.18229" lon="42.88549">
        <ele>114.257832</ele>
        <time>2021-08-16T09:13:24.590Z</time>
      </trkpt>
      <trkpt lat="42.18117" lon="42.88771">
        <ele>114.827168</ele>
        <time>2021-08-16T09:14:41.586Z</time>
      </trkpt>
      <trkpt lat="42.18055" lon="42.88879">
        <ele>114.870469</ele>
        <time>2021-08-16T09:15:19.142Z</time>
      </trkpt>
      <trkpt lat="42.18037" lon="42.88934">
        <ele>114.889275</ele>
        <time>2021-08-16T09:15:35.403Z</time>
      </trkpt>
      <trkpt lat="42.17978" lon="42.89036">
        <ele>115.01458</ele>
        <time>2021-08-16T09:16:11.221Z</time>
      </trkpt>
      <trkpt lat="42.17938" lon="42.8912">
        <ele>115.139223</ele>
        <time>2021-08-16T09:16:39.404Z</time>
      </trkpt>
      <trkpt lat="42.1791" lon="42.89124">
        <ele>115.186776</ele>
        <time>2021-08-16T09:16:50.374Z</time>
      </trkpt>
      <trkpt lat="42.17805" lon="42.8918">
        <ele>115.651588</ele>
        <time>2021-08-16T09:17:34.797Z</time>
      </trkpt>
      <trkpt lat="42.17774" lon="42.89259">
        <ele>115.941777</ele>
        <time>2021-08-16T09:18:00.771Z</time>
      </trkpt>
      <trkpt lat="42.17775" lon="42.89285">
        <ele>116.016318</ele>
        <time>2021-08-16T09:18:08.353Z</time>
      </trkpt>
      <trkpt lat="42.17755" lon="42.89389">
        <ele>116.248197</ele>
        <time>2021-08-16T09:18:39.220Z</time>
      </trkpt>
      <trkpt lat="42.17716" lon="42.89501">
        <ele>116.516482</ele>
        <time>2021-08-16T09:19:14.472Z</time>
      </trkpt>
      <trkpt lat="42.1767" lon="42.89568">
        <ele>116.674341</ele>
        <time>2021-08-16T09:19:40.165Z</time>
      </trkpt>
      <trkpt lat="42.17589" lon="42.89615">
        <ele>116.881713</ele>
        <time>2021-08-16T09:20:14.034Z</time>
      </trkpt>
      <trkpt lat="42.17544" lon="42.8967">
        <ele>117.036994</ele>
        <time>2021-08-16T09:20:37.059Z</time>
      </trkpt>
      <trkpt lat="42.17506" lon="42.89697">
        <ele>117.156353</ele>
        <time>2021-08-16T09:20:53.732Z</time>
      </trkpt>
      <trkpt lat="42.17494" lon="42.89726">
        <ele>117.224573</ele>
        <time>2021-08-16T09:21:03.286Z</time>
      </trkpt>
      <trkpt lat="42.17471" lon="42.89747">
        <ele>117.301118</ele>
        <time>2021-08-16T09:21:14.004Z</time>
      </trkpt>
      <trkpt lat="42.17457" lon="42.89769">
        <ele>117.360625</ele>
        <time>2021-08-16T09:21:22.365Z</time>
      </trkpt>
      <trkpt lat="42.17445" lon="42.89802">
        <ele>117.434348</ele>
        <time>2021-08-16T09:21:32.767Z</time>
      </trkpt>
      <trkpt lat="42.17428" lon="42.89818">
        <ele>117.505652</ele>
        <time>2021-08-16T09:21:40.550Z</time>
      </trkpt>
      <trkpt lat="42.17377" lon="42.89844">
        <ele>117.700225</ele>
        <time>2021-08-16T09:22:01.765Z</time>
      </trkpt>
      <trkpt lat="42.17271" lon="42.89881">
        <ele>118.088667</ele>
        <time>2021-08-16T09:22:44.372Z</time>
      </trkpt>
      <trkpt lat="42.17153" lon="42.89937">
        <ele>118.499804</ele>
        <time>2021-08-16T09:23:33.216Z</time>
      </trkpt>
      <trkpt lat="42.17066" lon="42.89992">
        <ele>118.822579</ele>
        <time>2021-08-16T09:24:09.885Z</time>
      </trkpt>
      <trkpt lat="42.17035" lon="42.9004">
        <ele>118.992387</ele>
        <time>2021-08-16T09:24:28.410Z</time>
      </trkpt>
      <trkpt lat="42.16807" lon="42.90283">
        <ele>120.091573</ele>
        <time>2021-08-16T09:26:21.450Z</time>
      </trkpt>
      <trkpt lat="42.16767" lon="42.90349">
        <ele>120.460033</ele>
        <time>2021-08-16T09:26:46.881Z</time>
      </trkpt>
      <trkpt lat="42.16751" lon="42.90408">
        <ele>120.728117</ele>
        <time>2021-08-16T09:27:05.484Z</time>
      </trkpt>
      <trkpt lat="42.16702" lon="42.90479">
        <ele>121.055667</ele>
        <time>2021-08-16T09:27:34.447Z</time>
      </trkpt>
      <trkpt lat="42.16691" lon="42.90527">
        <ele>121.139791</ele>
        <time>2021-08-16T09:27:49.110Z</time>
      </trkpt>
      <trkpt lat="42.16638" lon="42.90671">
        <ele>121.403491</ele>
        <time>2021-08-16T09:28:34.013Z</time>
      </trkpt>
      <trkpt lat="42.16617" lon="42.90701">
        <ele>121.345435</ele>
        <time>2021-08-16T09:28:44.936Z</time>
      </trkpt>
      <trkpt lat="42.16612" lon="42.9073">
        <ele>121.301926</ele>
        <time>2021-08-16T09:28:53.112Z</time>
      </trkpt>
      <trkpt lat="42.1661" lon="42.90806">
        <ele>121.193118</ele>
        <time>2021-08-16T09:29:13.513Z</time>
      </trkpt>
      <trkpt lat="42.1663" lon="42.90868">
        <ele>121.096205</ele>
        <time>2021-08-16T09:29:31.619Z</time>
      </trkpt>
      <trkpt lat="42.16632" lon="42.90905">
        <ele>121.085819</ele>
        <time>2021-08-16T09:29:41.632Z</time>
      </trkpt>
      <trkpt lat="42.16576" lon="42.91102">
        <ele>121.572192</ele>
        <time>2021-08-16T09:30:41.898Z</time>
      </trkpt>
      <trkpt lat="42.16508" lon="42.91133">
        <ele>122.162963</ele>
        <time>2021-08-16T09:31:11.905Z</time>
      </trkpt>
      <trkpt lat="42.16461" lon="42.91173">
        <ele>122.693519</ele>
        <time>2021-08-16T09:31:35.524Z</time>
      </trkpt>
      <trkpt lat="42.1639" lon="42.91283">
        <ele>123.541209</ele>
        <time>2021-08-16T09:32:21.399Z</time>
      </trkpt>
      <trkpt lat="42.16262" lon="42.91399">
        <ele>124.188065</ele>
        <time>2021-08-16T09:33:21.290Z</time>
      </trkpt>
      <trkpt lat="42.16159" lon="42.91521">
        <ele>123.854219</ele>
        <time>2021-08-16T09:34:11.011Z</time>
      </trkpt>
      <trkpt lat="42.16073" lon="42.91567">
        <ele>123.862376</ele>
        <time>2021-08-16T09:34:44.146Z</time>
      </trkpt>
      <trkpt lat="42.15951" lon="42.91649">
        <ele>124.16746</ele>
        <time>2021-08-16T09:35:37.273Z</time>
      </trkpt>
      <trkpt lat="42.15936" lon="42.91643">
        <ele>124.298389</ele>
        <time>2021-08-16T09:35:43.663Z</time>
      </trkpt>
      <trkpt lat="42.15925" lon="42.9166">
        <ele>124.438123</ele>
        <time>2021-08-16T09:35:48.523Z</time>
      </trkpt>
      <trkpt lat="42.15887" lon="42.91701">
        <ele>124.839093</ele>
        <time>2021-08-16T09:36:02.042Z</time>
      </trkpt>
      <trkpt lat="42.15856" lon="42.91709">
        <ele>125.093888</ele>
        <time>2021-08-16T09:36:10.884Z</time>
      </trkpt>
      <trkpt lat="42.15843" lon="42.91593">
        <ele>125.620959</ele>
        <time>2021-08-16T09:36:34.771Z</time>
      </trkpt>
      <trkpt lat="42.1583" lon="42.91586">
        <ele>125.674734</ele>
        <time>2021-08-16T09:36:38.388Z</time>
      </trkpt>
      <trkpt lat="42.15803" lon="42.91597">
        <ele>125.777769</ele>
        <time>2021-08-16T09:36:45.391Z</time>
      </trkpt>
      <trkpt lat="42.1578" lon="42.91618">
        <ele>125.880725</ele>
        <time>2021-08-16T09:36:52.326Z</time>
      </trkpt>
      <trkpt lat="42.1579" lon="42.91635">
        <ele>125.941907</ele>
        <time>2021-08-16T09:36:56.116Z</time>
      </trkpt>
      <trkpt lat="42.15808" lon="42.91683">
        <ele>126.087842</ele>
        <time>2021-08-16T09:37:05.226Z</time>
      </trkpt>
      <trkpt lat="42.1581" lon="42.91708">
        <ele>126.126313</ele>
        <time>2021-08-16T09:37:09.503Z</time>
      </trkpt>
      <trkpt lat="42.15833" lon="42.91879">
        <ele>125.984985</ele>
        <time>2021-08-16T09:37:37.639Z</time>
      </trkpt>
      <trkpt lat="42.15835" lon="42.91896">
        <ele>125.970777</ele>
        <time>2021-08-16T09:37:40.450Z</time>
      </trkpt>
      <trkpt lat="42.15833" lon="42.91975">
        <ele>125.896307</ele>
        <time>2021-08-16T09:37:53.189Z</time>
      </trkpt>
      <trkpt lat="42.15812" lon="42.92182">
        <ele>125.673623</ele>
        <time>2021-08-16T09:38:26.909Z</time>
      </trkpt>
      <trkpt lat="42.15808" lon="42.92239">
        <ele>125.785147</ele>
        <time>2021-08-16T09:38:36.432Z</time>
      </trkpt>
      <trkpt lat="42.15806" lon="42.92266">
        <ele>125.838858</ele>
        <time>2021-08-16T09:38:41.290Z</time>
      </trkpt>
      <trkpt lat="42.15795" lon="42.92319">
        <ele>125.944749</ele>
        <time>2021-08-16T09:38:50.817Z</time>
      </trkpt>
      <trkpt lat="42.15785" lon="42.92338">
        <ele>125.990825</ele>
        <time>2021-08-16T09:38:54.991Z</time>
      </trkpt>
      <trkpt lat="42.15649" lon="42.92524">
        <ele>126.815412</ele>
        <time>2021-08-16T09:39:43.435Z</time>
      </trkpt>
      <trkpt lat="42.15632" lon="42.92563">
        <ele>126.979416</ele>
        <time>2021-08-16T09:39:51.496Z</time>
      </trkpt>
      <trkpt lat="42.15551" lon="42.92803">
        <ele>127.688536</ele>
        <time>2021-08-16T09:40:38.623Z</time>
      </trkpt>
      <trkpt lat="42.15525" lon="42.92869">
        <ele>127.798072</ele>
        <time>2021-08-16T09:40:52.045Z</time>
      </trkpt>
      <trkpt lat="42.15496" lon="42.92917">
        <ele>127.887466</ele>
        <time>2021-08-16T09:41:02.818Z</time>
      </trkpt>
      <trkpt lat="42.15456" lon="42.92945">
        <ele>127.974668</ele>
        <time>2021-08-16T09:41:13.176Z</time>
      </trkpt>
      <trkpt lat="42.15133" lon="42.93091">
        <ele>127.811686</ele>
        <time>2021-08-16T09:42:27.689Z</time>
      </trkpt>
      <trkpt lat="42.15094" lon="42.93115">
        <ele>127.797497</ele>
        <time>2021-08-16T09:42:37.437Z</time>
      </trkpt>
      <trkpt lat="42.14495" lon="42.93878">
        <ele>130.70101</ele>
        <time>2021-08-16T09:45:55.692Z</time>
      </trkpt>
      <trkpt lat="42.14242" lon="42.94157">
        <ele>131.84189</ele>
        <time>2021-08-16T09:47:14.552Z</time>
      </trkpt>
      <trkpt lat="42.14006" lon="42.94413">
        <ele>132.545069</ele>
        <time>2021-08-16T09:48:25.084Z</time>
      </trkpt>
      <trkpt lat="42.13967" lon="42.94458">
        <ele>132.593407</ele>
        <time>2021-08-16T09:48:36.590Z</time>
      </trkpt>
      <trkpt lat="42.13941" lon="42.94493">
        <ele>132.627508</ele>
        <time>2021-08-16T09:48:44.769Z</time>
      </trkpt>
      <trkpt lat="42.13911" lon="42.94587">
        <ele>132.698387</ele>
        <time>2021-08-16T09:49:01.919Z</time>
      </trkpt>
      <trkpt lat="42.13818" lon="42.94963">
        <ele>133.824403</ele>
        <time>2021-08-16T09:50:13.312Z</time>
      </trkpt>
      <trkpt lat="42.1379" lon="42.95104">
        <ele>134.270765</ele>
        <time>2021-08-16T09:50:39.860Z</time>
      </trkpt>
      <trkpt lat="42.1377" lon="42.95152">
        <ele>134.424491</ele>
        <time>2021-08-16T09:50:49.649Z</time>
      </trkpt>
      <trkpt lat="42.13663" lon="42.95376">
        <ele>135.218177</ele>
        <time>2021-08-16T09:51:36.737Z</time>
      </trkpt>
      <trkpt lat="42.13543" lon="42.9564">
        <ele>136.447253</ele>
        <time>2021-08-16T09:52:34.730Z</time>
      </trkpt>
      <trkpt lat="42.1339" lon="42.9603">
        <ele>138.614983</ele>
        <time>2021-08-16T09:53:58.836Z</time>
      </trkpt>
      <trkpt lat="42.13257" lon="42.96389">
        <ele>140.024361</ele>
        <time>2021-08-16T09:55:13.041Z</time>
      </trkpt>
      <trkpt lat="42.13238" lon="42.96443">
        <ele>140.103669</ele>
        <time>2021-08-16T09:55:23.367Z</time>
      </trkpt>
      <trkpt lat="42.13218" lon="42.96526">
        <ele>140.220284</ele>
        <time>2021-08-16T09:55:37.816Z</time>
      </trkpt>
      <trkpt lat="42.13141" lon="42.96826">
        <ele>140.180527</ele>
        <time>2021-08-16T09:56:29.374Z</time>
      </trkpt>
      <trkpt lat="42.13131" lon="42.96864">
        <ele>140.266167</ele>
        <time>2021-08-16T09:56:36.285Z</time>
      </trkpt>
      <trkpt lat="42.13121" lon="42.96869">
        <ele>140.294856</ele>
        <time>2021-08-16T09:56:38.770Z</time>
      </trkpt>
      <trkpt lat="42.12721" lon="42.97048">
        <ele>141.494702</ele>
        <time>2021-08-16T09:58:19.891Z</time>
      </trkpt>
      <trkpt lat="42.12588" lon="42.97107">
        <ele>141.631319</ele>
        <time>2021-08-16T09:58:51.515Z</time>
      </trkpt>
      <trkpt lat="42.12436" lon="42.97174">
        <ele>141.55581</ele>
        <time>2021-08-16T09:59:26.725Z</time>
      </trkpt>
      <trkpt lat="42.12262" lon="42.97256">
        <ele>141.469258</ele>
        <time>2021-08-16T10:00:06.822Z</time>
      </trkpt>
      <trkpt lat="42.12243" lon="42.97283">
        <ele>141.48111</ele>
        <time>2021-08-16T10:00:12.913Z</time>
      </trkpt>
      <trkpt lat="42.12202" lon="42.97392">
        <ele>141.655751</ele>
        <time>2021-08-16T10:00:34.417Z</time>
      </trkpt>
      <trkpt lat="42.12184" lon="42.97419">
        <ele>141.848373</ele>
        <time>2021-08-16T10:00:41.151Z</time>
      </trkpt>
      <trkpt lat="42.12176" lon="42.9743">
        <ele>141.928678</ele>
        <time>2021-08-16T10:00:43.933Z</time>
      </trkpt>
      <trkpt lat="42.12157" lon="42.97455">
        <ele>142.120804</ele>
        <time>2021-08-16T10:00:50.866Z</time>
      </trkpt>
      <trkpt lat="42.12119" lon="42.97497">
        <ele>142.473957</ele>
        <time>2021-08-16T10:01:03.890Z</time>
      </trkpt>
      <trkpt lat="42.12047" lon="42.9755">
        <ele>143.063515</ele>
        <time>2021-08-16T10:01:26.602Z</time>
      </trkpt>
      <trkpt lat="42.12014" lon="42.97553">
        <ele>143.296054</ele>
        <time>2021-08-16T10:01:35.229Z</time>
      </trkpt>
      <trkpt lat="42.11991" lon="42.97549">
        <ele>143.464096</ele>
        <time>2021-08-16T10:01:41.126Z</time>
      </trkpt>
      <trkpt lat="42.11973" lon="42.97548">
        <ele>143.595598</ele>
        <time>2021-08-16T10:01:45.991Z</time>
      </trkpt>
      <trkpt lat="42.11901" lon="42.97708">
        <ele>144.166073</ele>
        <time>2021-08-16T10:02:21.007Z</time>
      </trkpt>
      <trkpt lat="42.11883" lon="42.97752">
        <ele>144.204751</ele>
        <time>2021-08-16T10:02:29.519Z</time>
      </trkpt>
      <trkpt lat="42.1188" lon="42.97808">
        <ele>144.249018</ele>
        <time>2021-08-16T10:02:39.181Z</time>
      </trkpt>
      <trkpt lat="42.11924" lon="42.98369">
        <ele>144.152418</ele>
        <time>2021-08-16T10:04:15.161Z</time>
      </trkpt>
      <trkpt lat="42.11927" lon="42.98478">
        <ele>144.591731</ele>
        <time>2021-08-16T10:04:36.203Z</time>
      </trkpt>
      <trkpt lat="42.11925" lon="42.98533">
        <ele>144.815347</ele>
        <time>2021-08-16T10:04:47.491Z</time>
      </trkpt>
      <trkpt lat="42.11892" lon="42.98777">
        <ele>146.090066</ele>
        <time>2021-08-16T10:05:38.135Z</time>
      </trkpt>
      <trkpt lat="42.11901" lon="42.98886">
        <ele>146.318575</ele>
        <time>2021-08-16T10:05:58.078Z</time>
      </trkpt>
      <trkpt lat="42.11933" lon="42.99018">
        <ele>146.382267</ele>
        <time>2021-08-16T10:06:21.740Z</time>
      </trkpt>
      <trkpt lat="42.11935" lon="42.99058">
        <ele>146.392598</ele>
        <time>2021-08-16T10:06:28.594Z</time>
      </trkpt>
      <trkpt lat="42.1192" lon="42.99214">
        <ele>146.339442</ele>
        <time>2021-08-16T10:06:55.306Z</time>
      </trkpt>
      <trkpt lat="42.11897" lon="42.99316">
        <ele>146.34109</ele>
        <time>2021-08-16T10:07:14.097Z</time>
      </trkpt>
      <trkpt lat="42.11858" lon="42.99455">
        <ele>146.466668</ele>
        <time>2021-08-16T10:07:40.067Z</time>
      </trkpt>
      <trkpt lat="42.11854" lon="42.99505">
        <ele>146.50985</ele>
        <time>2021-08-16T10:07:49.033Z</time>
      </trkpt>
      <trkpt lat="42.11865" lon="42.99628">
        <ele>146.801181</ele>
        <time>2021-08-16T10:08:11.156Z</time>
      </trkpt>
      <trkpt lat="42.11872" lon="42.99813">
        <ele>147.310821</ele>
        <time>2021-08-16T10:08:46.274Z</time>
      </trkpt>
      <trkpt lat="42.1188" lon="42.9991">
        <ele>147.629528</ele>
        <time>2021-08-16T10:09:04.909Z</time>
      </trkpt>
      <trkpt lat="42.11891" lon="42.99979">
        <ele>147.860587</ele>
        <time>2021-08-16T10:09:18.167Z</time>
      </trkpt>
      <trkpt lat="42.119" lon="43.00011">
        <ele>147.948997</ele>
        <time>2021-08-16T10:09:24.576Z</time>
      </trkpt>
      <trkpt lat="42.11947" lon="43.00119">
        <ele>148.144294</ele>
        <time>2021-08-16T10:09:47.252Z</time>
      </trkpt>
      <trkpt lat="42.11983" lon="43.00223">
        <ele>148.31977</ele>
        <time>2021-08-16T10:10:07.793Z</time>
      </trkpt>
      <trkpt lat="42.11999" lon="43.00274">
        <ele>148.384109</ele>
        <time>2021-08-16T10:10:17.510Z</time>
      </trkpt>
      <trkpt lat="42.12035" lon="43.00417">
        <ele>148.563112</ele>
        <time>2021-08-16T10:10:44.041Z</time>
      </trkpt>
      <trkpt lat="42.12053" lon="43.00471">
        <ele>148.71141</ele>
        <time>2021-08-16T10:10:54.911Z</time>
      </trkpt>
      <trkpt lat="42.12063" lon="43.00491">
        <ele>148.794813</ele>
        <time>2021-08-16T10:10:59.450Z</time>
      </trkpt>
      <trkpt lat="42.12075" lon="43.00506">
        <ele>148.867361</ele>
        <time>2021-08-16T10:11:03.446Z</time>
      </trkpt>
      <trkpt lat="42.12117" lon="43.00533">
        <ele>149.078803</ele>
        <time>2021-08-16T10:11:15.069Z</time>
      </trkpt>
      <trkpt lat="42.12134" lon="43.00548">
        <ele>149.172887</ele>
        <time>2021-08-16T10:11:20.602Z</time>
      </trkpt>
      <trkpt lat="42.1215" lon="43.00562">
        <ele>149.260903</ele>
        <time>2021-08-16T10:11:25.555Z</time>
      </trkpt>
      <trkpt lat="42.12158" lon="43.00572">
        <ele>149.312069</ele>
        <time>2021-08-16T10:11:28.611Z</time>
      </trkpt>
      <trkpt lat="42.12171" lon="43.0059">
        <ele>149.395739</ele>
        <time>2021-08-16T10:11:33.325Z</time>
      </trkpt>
      <trkpt lat="42.12217" lon="43.00654">
        <ele>149.724394</ele>
        <time>2021-08-16T10:11:50.834Z</time>
      </trkpt>
      <trkpt lat="42.1223" lon="43.00667">
        <ele>149.80513</ele>
        <time>2021-08-16T10:11:55.208Z</time>
      </trkpt>
      <trkpt lat="42.12217" lon="43.00692">
        <ele>149.919236</ele>
        <time>2021-08-16T10:12:01.246Z</time>
      </trkpt>
      <trkpt lat="42.12091" lon="43.0094">
        <ele>150.634843</ele>
        <time>2021-08-16T10:12:53.589Z</time>
      </trkpt>
      <trkpt lat="42.12024" lon="43.01072">
        <ele>150.830819</ele>
        <time>2021-08-16T10:13:20.689Z</time>
      </trkpt>
      <trkpt lat="42.11971" lon="43.01198">
        <ele>150.978937</ele>
        <time>2021-08-16T10:13:45.608Z</time>
      </trkpt>
      <trkpt lat="42.11786" lon="43.01767">
        <ele>151.559102</ele>
        <time>2021-08-16T10:15:30.909Z</time>
      </trkpt>
      <trkpt lat="42.11782" lon="43.01782">
        <ele>151.578752</ele>
        <time>2021-08-16T10:15:33.782Z</time>
      </trkpt>
      <trkpt lat="42.11766" lon="43.01829">
        <ele>151.639983</ele>
        <time>2021-08-16T10:15:42.607Z</time>
      </trkpt>
      <trkpt lat="42.11734" lon="43.01925">
        <ele>151.881871</ele>
        <time>2021-08-16T10:16:01.094Z</time>
      </trkpt>
      <trkpt lat="42.11704" lon="43.02018">
        <ele>152.145942</ele>
        <time>2021-08-16T10:16:19.091Z</time>
      </trkpt>
      <trkpt lat="42.1168" lon="43.02085">
        <ele>152.356505</ele>
        <time>2021-08-16T10:16:32.584Z</time>
      </trkpt>
      <trkpt lat="42.11662" lon="43.02118">
        <ele>152.506267</ele>
        <time>2021-08-16T10:16:40.084Z</time>
      </trkpt>
      <trkpt lat="42.11568" lon="43.02237">
        <ele>153.14238</ele>
        <time>2021-08-16T10:17:12.219Z</time>
      </trkpt>
      <trkpt lat="42.11523" lon="43.02291">
        <ele>153.391019</ele>
        <time>2021-08-16T10:17:26.592Z</time>
      </trkpt>
      <trkpt lat="42.1149" lon="43.02331">
        <ele>153.569205</ele>
        <time>2021-08-16T10:17:37.112Z</time>
      </trkpt>
      <trkpt lat="42.11447" lon="43.02371">
        <ele>153.778636</ele>
        <time>2021-08-16T10:17:49.991Z</time>
      </trkpt>
      <trkpt lat="42.11408" lon="43.02392">
        <ele>153.976934</ele>
        <time>2021-08-16T10:18:00.631Z</time>
      </trkpt>
      <trkpt lat="42.11392" lon="43.02398">
        <ele>154.086769</ele>
        <time>2021-08-16T10:18:04.425Z</time>
      </trkpt>
      <trkpt lat="42.11367" lon="43.024">
        <ele>154.260818</ele>
        <time>2021-08-16T10:18:10.492Z</time>
      </trkpt>
      <trkpt lat="42.11349" lon="43.02404">
        <ele>154.38557</ele>
        <time>2021-08-16T10:18:14.809Z</time>
      </trkpt>
      <trkpt lat="42.11325" lon="43.02411">
        <ele>154.554936</ele>
        <time>2021-08-16T10:18:20.903Z</time>
      </trkpt>
      <trkpt lat="42.11313" lon="43.02415">
        <ele>154.636207</ele>
        <time>2021-08-16T10:18:23.949Z</time>
      </trkpt>
      <trkpt lat="42.11294" lon="43.02422">
        <ele>154.769272</ele>
        <time>2021-08-16T10:18:28.972Z</time>
      </trkpt>
      <trkpt lat="42.11287" lon="43.02424">
        <ele>154.822264</ele>
        <time>2021-08-16T10:18:30.868Z</time>
      </trkpt>
      <trkpt lat="42.11279" lon="43.02428">
        <ele>154.881834</ele>
        <time>2021-08-16T10:18:33.257Z</time>
      </trkpt>
      <trkpt lat="42.11275" lon="43.02428">
        <ele>154.907842</ele>
        <time>2021-08-16T10:18:34.281Z</time>
      </trkpt>
      <trkpt lat="42.11268" lon="43.02433">
        <ele>154.959025</ele>
        <time>2021-08-16T10:18:36.255Z</time>
      </trkpt>
      <trkpt lat="42.11266" lon="43.02437">
        <ele>154.984715</ele>
        <time>2021-08-16T10:18:37.288Z</time>
      </trkpt>
      <trkpt lat="42.11265" lon="43.02442">
        <ele>155.01209</ele>
        <time>2021-08-16T10:18:38.346Z</time>
      </trkpt>
      <trkpt lat="42.11268" lon="43.02456">
        <ele>155.091153</ele>
        <time>2021-08-16T10:18:41.334Z</time>
      </trkpt>
      <trkpt lat="42.11271" lon="43.02459">
        <ele>155.11839</ele>
        <time>2021-08-16T10:18:42.481Z</time>
      </trkpt>
      <trkpt lat="42.11274" lon="43.0246">
        <ele>155.13363</ele>
        <time>2021-08-16T10:18:43.122Z</time>
      </trkpt>
      <trkpt lat="42.1128" lon="43.02472">
        <ele>155.333399</ele>
        <time>2021-08-16T10:18:45.932Z</time>
      </trkpt>
      <trkpt lat="42.11289" lon="43.02491">
        <ele>155.695475</ele>
        <time>2021-08-16T10:18:50.870Z</time>
      </trkpt>
      <trkpt lat="42.11323" lon="43.0261">
        <ele>157.726699</ele>
        <time>2021-08-16T10:19:20.970Z</time>
      </trkpt>
      <trkpt lat="42.11335" lon="43.02657">
        <ele>158.522291</ele>
        <time>2021-08-16T10:19:34.418Z</time>
      </trkpt>
      <trkpt lat="42.1134" lon="43.02674">
        <ele>158.810334</ele>
        <time>2021-08-16T10:19:39.788Z</time>
      </trkpt>
      <trkpt lat="42.11342" lon="43.02684">
        <ele>158.9727</ele>
        <time>2021-08-16T10:19:42.716Z</time>
      </trkpt>
      <trkpt lat="42.11344" lon="43.0269">
        <ele>159.119787</ele>
        <time>2021-08-16T10:19:44.740Z</time>
      </trkpt>
      <trkpt lat="42.11371" lon="43.02792">
        <ele>161.641991</ele>
        <time>2021-08-16T10:20:16.327Z</time>
      </trkpt>
      <trkpt lat="42.11371" lon="43.02793">
        <ele>161.681519</ele>
        <time>2021-08-16T10:20:16.798Z</time>
      </trkpt>
      <trkpt lat="42.11395" lon="43.02888">
        <ele>164.020814</ele>
        <time>2021-08-16T10:20:45.678Z</time>
      </trkpt>
      <trkpt lat="42.11392" lon="43.02909">
        <ele>164.534185</ele>
        <time>2021-08-16T10:20:51.533Z</time>
      </trkpt>
      <trkpt lat="42.1139" lon="43.02915">
        <ele>164.687817</ele>
        <time>2021-08-16T10:20:53.423Z</time>
      </trkpt>
      <trkpt lat="42.11388" lon="43.02921">
        <ele>164.76983</ele>
        <time>2021-08-16T10:20:54.981Z</time>
      </trkpt>
      <trkpt lat="42.11387" lon="43.02924">
        <ele>164.827923</ele>
        <time>2021-08-16T10:20:56.099Z</time>
      </trkpt>
      <trkpt lat="42.11385" lon="43.02928">
        <ele>164.887247</ele>
        <time>2021-08-16T10:20:57.219Z</time>
      </trkpt>
      <trkpt lat="42.11383" lon="43.02939">
        <ele>165.04587</ele>
        <time>2021-08-16T10:21:00.066Z</time>
      </trkpt>
      <trkpt lat="42.11383" lon="43.02944">
        <ele>165.12104</ele>
        <time>2021-08-16T10:21:01.337Z</time>
      </trkpt>
      <trkpt lat="42.1138" lon="43.0298">
        <ele>165.623498</ele>
        <time>2021-08-16T10:21:10.135Z</time>
      </trkpt>
      <trkpt lat="42.1138" lon="43.02995">
        <ele>165.845049</ele>
        <time>2021-08-16T10:21:13.607Z</time>
      </trkpt>
      <trkpt lat="42.11381" lon="43.03011">
        <ele>166.065915</ele>
        <time>2021-08-16T10:21:17.192Z</time>
      </trkpt>
      <trkpt lat="42.11381" lon="43.03042">
        <ele>166.502076</ele>
        <time>2021-08-16T10:21:24.577Z</time>
      </trkpt>
      <trkpt lat="42.11383" lon="43.03091">
        <ele>167.195556</ele>
        <time>2021-08-16T10:21:35.532Z</time>
      </trkpt>
      <trkpt lat="42.11389" lon="43.03137">
        <ele>167.856518</ele>
        <time>2021-08-16T10:21:45.482Z</time>
      </trkpt>
      <trkpt lat="42.11398" lon="43.03214">
        <ele>169.031335</ele>
        <time>2021-08-16T10:22:02.183Z</time>
      </trkpt>
      <trkpt lat="42.11401" lon="43.03238">
        <ele>169.405498</ele>
        <time>2021-08-16T10:22:08.392Z</time>
      </trkpt>
      <trkpt lat="42.11403" lon="43.03328">
        <ele>170.799175</ele>
        <time>2021-08-16T10:22:30.602Z</time>
      </trkpt>
      <trkpt lat="42.11391" lon="43.03404">
        <ele>171.977478</ele>
        <time>2021-08-16T10:22:51.030Z</time>
      </trkpt>
      <trkpt lat="42.11383" lon="43.03433">
        <ele>172.386577</ele>
        <time>2021-08-16T10:22:59.551Z</time>
      </trkpt>
      <trkpt lat="42.11365" lon="43.03489">
        <ele>173.182294</ele>
        <time>2021-08-16T10:23:14.520Z</time>
      </trkpt>
      <trkpt lat="42.11331" lon="43.03569">
        <ele>174.383188</ele>
        <time>2021-08-16T10:23:34.414Z</time>
      </trkpt>
      <trkpt lat="42.1133" lon="43.03572">
        <ele>174.435206</ele>
        <time>2021-08-16T10:23:35.688Z</time>
      </trkpt>
      <trkpt lat="42.11253" lon="43.03745">
        <ele>175.724623</ele>
        <time>2021-08-16T10:24:15.699Z</time>
      </trkpt>
      <trkpt lat="42.11234" lon="43.03789">
        <ele>175.957556</ele>
        <time>2021-08-16T10:24:24.061Z</time>
      </trkpt>
      <trkpt lat="42.11212" lon="43.03843">
        <ele>176.157853</ele>
        <time>2021-08-16T10:24:34.128Z</time>
      </trkpt>
      <trkpt lat="42.11203" lon="43.03867">
        <ele>176.203545</ele>
        <time>2021-08-16T10:24:38.778Z</time>
      </trkpt>
      <trkpt lat="42.11165" lon="43.03982">
        <ele>176.413702</ele>
        <time>2021-08-16T10:25:01.414Z</time>
      </trkpt>
      <trkpt lat="42.11146" lon="43.04043">
        <ele>176.511734</ele>
        <time>2021-08-16T10:25:13.164Z</time>
      </trkpt>
      <trkpt lat="42.11106" lon="43.04171">
        <ele>176.201346</ele>
        <time>2021-08-16T10:25:35.825Z</time>
      </trkpt>
      <trkpt lat="42.1107" lon="43.04267">
        <ele>175.907101</ele>
        <time>2021-08-16T10:25:52.489Z</time>
      </trkpt>
      <trkpt lat="42.1104" lon="43.04346">
        <ele>175.025891</ele>
        <time>2021-08-16T10:26:05.268Z</time>
      </trkpt>
      <trkpt lat="42.10986" lon="43.04466">
        <ele>173.624146</ele>
        <time>2021-08-16T10:26:25.063Z</time>
      </trkpt>
      <trkpt lat="42.10961" lon="43.0453">
        <ele>173.006452</ele>
        <time>2021-08-16T10:26:35.325Z</time>
      </trkpt>
      <trkpt lat="42.10959" lon="43.04538">
        <ele>172.939422</ele>
        <time>2021-08-16T10:26:36.485Z</time>
      </trkpt>
      <trkpt lat="42.10947" lon="43.04586">
        <ele>172.507609</ele>
        <time>2021-08-16T10:26:43.830Z</time>
      </trkpt>
      <trkpt lat="42.10928" lon="43.04659">
        <ele>171.861884</ele>
        <time>2021-08-16T10:26:54.861Z</time>
      </trkpt>
      <trkpt lat="42.10921" lon="43.04682">
        <ele>171.647933</ele>
        <time>2021-08-16T10:26:58.480Z</time>
      </trkpt>
      <trkpt lat="42.10918" lon="43.04689">
        <ele>171.580823</ele>
        <time>2021-08-16T10:26:59.825Z</time>
      </trkpt>
      <trkpt lat="42.10915" lon="43.04692">
        <ele>171.536445</ele>
        <time>2021-08-16T10:27:00.536Z</time>
      </trkpt>
      <trkpt lat="42.10908" lon="43.04699">
        <ele>171.611707</ele>
        <time>2021-08-16T10:27:02.337Z</time>
      </trkpt>
      <trkpt lat="42.10904" lon="43.04702">
        <ele>171.668929</ele>
        <time>2021-08-16T10:27:03.283Z</time>
      </trkpt>
      <trkpt lat="42.10788" lon="43.04756">
        <ele>173.061049</ele>
        <time>2021-08-16T10:27:36.634Z</time>
      </trkpt>
      <trkpt lat="42.10776" lon="43.04764">
        <ele>173.218046</ele>
        <time>2021-08-16T10:27:41.216Z</time>
      </trkpt>
      <trkpt lat="42.10766" lon="43.04774">
        <ele>173.359566</ele>
        <time>2021-08-16T10:27:44.524Z</time>
      </trkpt>
      <trkpt lat="42.10748" lon="43.04784">
        <ele>173.591933</ele>
        <time>2021-08-16T10:27:52.525Z</time>
      </trkpt>
      <trkpt lat="42.10705" lon="43.04822">
        <ele>175.154246</ele>
        <time>2021-08-16T10:28:11.709Z</time>
      </trkpt>
      <trkpt lat="42.10672" lon="43.04845">
        <ele>176.284094</ele>
        <time>2021-08-16T10:28:26.854Z</time>
      </trkpt>
      <trkpt lat="42.10673" lon="43.04862">
        <ele>176.669344</ele>
        <time>2021-08-16T10:28:33.025Z</time>
      </trkpt>
      <trkpt lat="42.10649" lon="43.05003">
        <ele>179.670186</ele>
        <time>2021-08-16T10:29:14.120Z</time>
      </trkpt>
      <trkpt lat="42.10626" lon="43.05103">
        <ele>181.340867</ele>
        <time>2021-08-16T10:29:40.440Z</time>
      </trkpt>
      <trkpt lat="42.10606" lon="43.05141">
        <ele>182.096267</ele>
        <time>2021-08-16T10:29:51.248Z</time>
      </trkpt>
      <trkpt lat="42.1057" lon="43.05188">
        <ele>183.233549</ele>
        <time>2021-08-16T10:30:06.057Z</time>
      </trkpt>
      <trkpt lat="42.10566" lon="43.05202">
        <ele>183.520732</ele>
        <time>2021-08-16T10:30:09.730Z</time>
      </trkpt>
      <trkpt lat="42.10562" lon="43.05204">
        <ele>183.632762</ele>
        <time>2021-08-16T10:30:11.729Z</time>
      </trkpt>
      <trkpt lat="42.10477" lon="43.05309">
        <ele>186.677996</ele>
        <time>2021-08-16T10:30:53.139Z</time>
      </trkpt>
      <trkpt lat="42.10469" lon="43.0532">
        <ele>186.977587</ele>
        <time>2021-08-16T10:30:57.325Z</time>
      </trkpt>
      <trkpt lat="42.10451" lon="43.05343">
        <ele>187.630622</ele>
        <time>2021-08-16T10:31:08.098Z</time>
      </trkpt>
      <trkpt lat="42.10413" lon="43.05386">
        <ele>189.551241</ele>
        <time>2021-08-16T10:31:28.178Z</time>
      </trkpt>
      <trkpt lat="42.10392" lon="43.05409">
        <ele>190.594835</ele>
        <time>2021-08-16T10:31:39.663Z</time>
      </trkpt>
      <trkpt lat="42.10345" lon="43.05461">
        <ele>192.993857</ele>
        <time>2021-08-16T10:32:07.155Z</time>
      </trkpt>
      <trkpt lat="42.10264" lon="43.05556">
        <ele>197.26469</ele>
        <time>2021-08-16T10:32:53.258Z</time>
      </trkpt>
      <trkpt lat="42.10216" lon="43.05614">
        <ele>199.887385</ele>
        <time>2021-08-16T10:33:22.525Z</time>
      </trkpt>
      <trkpt lat="42.10174" lon="43.05666">
        <ele>202.149498</ele>
        <time>2021-08-16T10:33:46.465Z</time>
      </trkpt>
      <trkpt lat="42.10152" lon="43.05689">
        <ele>203.098591</ele>
        <time>2021-08-16T10:33:57.497Z</time>
      </trkpt>
      <trkpt lat="42.10142" lon="43.057">
        <ele>203.555119</ele>
        <time>2021-08-16T10:34:03.473Z</time>
      </trkpt>
      <trkpt lat="42.10096" lon="43.05754">
        <ele>205.632066</ele>
        <time>2021-08-16T10:34:27.754Z</time>
      </trkpt>
      <trkpt lat="42.10085" lon="43.05774">
        <ele>206.255105</ele>
        <time>2021-08-16T10:34:35.518Z</time>
      </trkpt>
      <trkpt lat="42.10073" lon="43.05812">
        <ele>207.308293</ele>
        <time>2021-08-16T10:34:48.052Z</time>
      </trkpt>
      <trkpt lat="42.10063" lon="43.05879">
        <ele>208.666813</ele>
        <time>2021-08-16T10:35:07.771Z</time>
      </trkpt>
      <trkpt lat="42.1006" lon="43.05908">
        <ele>209.105572</ele>
        <time>2021-08-16T10:35:14.820Z</time>
      </trkpt>
      <trkpt lat="42.10059" lon="43.05924">
        <ele>209.351967</ele>
        <time>2021-08-16T10:35:19.229Z</time>
      </trkpt>
      <trkpt lat="42.10051" lon="43.05987">
        <ele>210.33009</ele>
        <time>2021-08-16T10:35:34.783Z</time>
      </trkpt>
      <trkpt lat="42.10033" lon="43.06047">
        <ele>211.30276</ele>
        <time>2021-08-16T10:35:50.316Z</time>
      </trkpt>
      <trkpt lat="42.10028" lon="43.06065">
        <ele>211.60701</ele>
        <time>2021-08-16T10:35:54.956Z</time>
      </trkpt>
      <trkpt lat="42.10011" lon="43.06106">
        <ele>211.820275</ele>
        <time>2021-08-16T10:36:04.863Z</time>
      </trkpt>
      <trkpt lat="42.0999" lon="43.06146">
        <ele>211.85241</ele>
        <time>2021-08-16T10:36:13.696Z</time>
      </trkpt>
      <trkpt lat="42.09973" lon="43.0618">
        <ele>211.878962</ele>
        <time>2021-08-16T10:36:20.632Z</time>
      </trkpt>
      <trkpt lat="42.09954" lon="43.06209">
        <ele>211.904487</ele>
        <time>2021-08-16T10:36:27.241Z</time>
      </trkpt>
      <trkpt lat="42.0994" lon="43.06229">
        <ele>211.922522</ele>
        <time>2021-08-16T10:36:31.824Z</time>
      </trkpt>
      <trkpt lat="42.09926" lon="43.06248">
        <ele>211.939751</ele>
        <time>2021-08-16T10:36:36.036Z</time>
      </trkpt>
      <trkpt lat="42.09906" lon="43.06268">
        <ele>211.88535</ele>
        <time>2021-08-16T10:36:41.485Z</time>
      </trkpt>
      <trkpt lat="42.09882" lon="43.06292">
        <ele>211.531469</ele>
        <time>2021-08-16T10:36:47.869Z</time>
      </trkpt>
      <trkpt lat="42.09873" lon="43.063">
        <ele>211.402854</ele>
        <time>2021-08-16T10:36:50.199Z</time>
      </trkpt>
      <trkpt lat="42.09831" lon="43.06334">
        <ele>210.820431</ele>
        <time>2021-08-16T10:37:00.280Z</time>
      </trkpt>
      <trkpt lat="42.0977" lon="43.06387">
        <ele>209.967568</ele>
        <time>2021-08-16T10:37:14.745Z</time>
      </trkpt>
      <trkpt lat="42.09713" lon="43.06447">
        <ele>208.185787</ele>
        <time>2021-08-16T10:37:29.078Z</time>
      </trkpt>
      <trkpt lat="42.09621" lon="43.06541">
        <ele>205.074649</ele>
        <time>2021-08-16T10:37:49.911Z</time>
      </trkpt>
      <trkpt lat="42.09597" lon="43.06566">
        <ele>203.893902</ele>
        <time>2021-08-16T10:37:55.059Z</time>
      </trkpt>
      <trkpt lat="42.09569" lon="43.06584">
        <ele>202.611642</ele>
        <time>2021-08-16T10:38:00.346Z</time>
      </trkpt>
      <trkpt lat="42.09505" lon="43.06628">
        <ele>199.596131</ele>
        <time>2021-08-16T10:38:12.639Z</time>
      </trkpt>
      <trkpt lat="42.09403" lon="43.06679">
        <ele>195.584163</ele>
        <time>2021-08-16T10:38:31.221Z</time>
      </trkpt>
      <trkpt lat="42.09341" lon="43.06718">
        <ele>193.339017</ele>
        <time>2021-08-16T10:38:43.328Z</time>
      </trkpt>
      <trkpt lat="42.09247" lon="43.06762">
        <ele>191.153453</ele>
        <time>2021-08-16T10:39:02.240Z</time>
      </trkpt>
      <trkpt lat="42.09189" lon="43.06797">
        <ele>190.580858</ele>
        <time>2021-08-16T10:39:15.175Z</time>
      </trkpt>
      <trkpt lat="42.08918" lon="43.06801">
        <ele>191.048178</ele>
        <time>2021-08-16T10:40:22.270Z</time>
      </trkpt>
      <trkpt lat="42.08846" lon="43.0684">
        <ele>192.352588</ele>
        <time>2021-08-16T10:40:46.453Z</time>
      </trkpt>
      <trkpt lat="42.08731" lon="43.06928">
        <ele>195.114987</ele>
        <time>2021-08-16T10:41:32.379Z</time>
      </trkpt>
      <trkpt lat="42.08649" lon="43.06966">
        <ele>197.454631</ele>
        <time>2021-08-16T10:42:04.171Z</time>
      </trkpt>
      <trkpt lat="42.08637" lon="43.06975">
        <ele>197.822896</ele>
        <time>2021-08-16T10:42:09.298Z</time>
      </trkpt>
      <trkpt lat="42.08642" lon="43.07033">
        <ele>199.071503</ele>
        <time>2021-08-16T10:42:25.956Z</time>
      </trkpt>
      <trkpt lat="42.08637" lon="43.07104">
        <ele>200.711195</ele>
        <time>2021-08-16T10:42:46.037Z</time>
      </trkpt>
      <trkpt lat="42.08615" lon="43.07179">
        <ele>202.579551</ele>
        <time>2021-08-16T10:43:08.535Z</time>
      </trkpt>
      <trkpt lat="42.08612" lon="43.07191">
        <ele>202.882259</ele>
        <time>2021-08-16T10:43:12.705Z</time>
      </trkpt>
      <trkpt lat="42.08605" lon="43.07202">
        <ele>203.210459</ele>
        <time>2021-08-16T10:43:16.547Z</time>
      </trkpt>
      <trkpt lat="42.08538" lon="43.07255">
        <ele>206.37247</ele>
        <time>2021-08-16T10:43:45.221Z</time>
      </trkpt>
      <trkpt lat="42.08457" lon="43.07301">
        <ele>210.561854</ele>
        <time>2021-08-16T10:44:23.934Z</time>
      </trkpt>
      <trkpt lat="42.08419" lon="43.07337">
        <ele>212.768012</ele>
        <time>2021-08-16T10:44:46.870Z</time>
      </trkpt>
      <trkpt lat="42.08352" lon="43.07414">
        <ele>221.519102</ele>
        <time>2021-08-16T10:45:46.910Z</time>
      </trkpt>
      <trkpt lat="42.08302" lon="43.07508">
        <ele>229.967307</ele>
        <time>2021-08-16T10:46:55.426Z</time>
      </trkpt>
      <trkpt lat="42.08277" lon="43.07567">
        <ele>235.4139</ele>
        <time>2021-08-16T10:47:36.114Z</time>
      </trkpt>
      <trkpt lat="42.08272" lon="43.07576">
        <ele>236.358039</ele>
        <time>2021-08-16T10:47:44.708Z</time>
      </trkpt>
      <trkpt lat="42.08255" lon="43.07581">
        <ele>238.297837</ele>
        <time>2021-08-16T10:47:57.288Z</time>
      </trkpt>
      <trkpt lat="42.08197" lon="43.07538">
        <ele>245.553099</ele>
        <time>2021-08-16T10:48:49.709Z</time>
      </trkpt>
      <trkpt lat="42.08162" lon="43.07522">
        <ele>249.603337</ele>
        <time>2021-08-16T10:49:18.044Z</time>
      </trkpt>
      <trkpt lat="42.08134" lon="43.07489">
        <ele>252.795905</ele>
        <time>2021-08-16T10:49:42.776Z</time>
      </trkpt>
      <trkpt lat="42.08126" lon="43.0749">
        <ele>253.448728</ele>
        <time>2021-08-16T10:49:47.324Z</time>
      </trkpt>
      <trkpt lat="42.08121" lon="43.07502">
        <ele>254.287579</ele>
        <time>2021-08-16T10:49:53.251Z</time>
      </trkpt>
      <trkpt lat="42.08166" lon="43.07578">
        <ele>260.141131</ele>
        <time>2021-08-16T10:50:36.309Z</time>
      </trkpt>
      <trkpt lat="42.08178" lon="43.07622">
        <ele>262.94182</ele>
        <time>2021-08-16T10:50:57.782Z</time>
      </trkpt>
      <trkpt lat="42.08176" lon="43.07642">
        <ele>264.167921</ele>
        <time>2021-08-16T10:51:07.155Z</time>
      </trkpt>
      <trkpt lat="42.08134" lon="43.07793">
        <ele>272.644987</ele>
        <time>2021-08-16T10:52:19.791Z</time>
      </trkpt>
      <trkpt lat="42.08115" lon="43.07809">
        <ele>274.210613</ele>
        <time>2021-08-16T10:52:32.656Z</time>
      </trkpt>
      <trkpt lat="42.08077" lon="43.07824">
        <ele>276.928055</ele>
        <time>2021-08-16T10:52:53.839Z</time>
      </trkpt>
      <trkpt lat="42.08016" lon="43.07898">
        <ele>280.060718</ele>
        <time>2021-08-16T10:53:31.313Z</time>
      </trkpt>
      <trkpt lat="42.08003" lon="43.07924">
        <ele>280.863787</ele>
        <time>2021-08-16T10:53:40.066Z</time>
      </trkpt>
      <trkpt lat="42.07996" lon="43.07971">
        <ele>282.099053</ele>
        <time>2021-08-16T10:53:52.416Z</time>
      </trkpt>
      <trkpt lat="42.07985" lon="43.07991">
        <ele>282.729617</ele>
        <time>2021-08-16T10:53:58.238Z</time>
      </trkpt>
      <trkpt lat="42.07932" lon="43.0802">
        <ele>284.36464</ele>
        <time>2021-08-16T10:54:16.127Z</time>
      </trkpt>
      <trkpt lat="42.07891" lon="43.08056">
        <ele>285.448578</ele>
        <time>2021-08-16T10:54:30.989Z</time>
      </trkpt>
      <trkpt lat="42.0784" lon="43.08116">
        <ele>286.960084</ele>
        <time>2021-08-16T10:54:52.727Z</time>
      </trkpt>
      <trkpt lat="42.07689" lon="43.08184">
        <ele>292.162185</ele>
        <time>2021-08-16T10:55:55.277Z</time>
      </trkpt>
      <trkpt lat="42.07648" lon="43.08213">
        <ele>293.817987</ele>
        <time>2021-08-16T10:56:15.140Z</time>
      </trkpt>
      <trkpt lat="42.0757" lon="43.08336">
        <ele>298.739609</ele>
        <time>2021-08-16T10:57:05.728Z</time>
      </trkpt>
      <trkpt lat="42.0754" lon="43.08369">
        <ele>300.349775</ele>
        <time>2021-08-16T10:57:21.905Z</time>
      </trkpt>
      <trkpt lat="42.07467" lon="43.08471">
        <ele>306.364325</ele>
        <time>2021-08-16T10:58:11.144Z</time>
      </trkpt>
      <trkpt lat="42.07389" lon="43.08566">
        <ele>313.004846</ele>
        <time>2021-08-16T10:59:11.060Z</time>
      </trkpt>
      <trkpt lat="42.07385" lon="43.08571">
        <ele>313.425154</ele>
        <time>2021-08-16T10:59:15.452Z</time>
      </trkpt>
      <trkpt lat="42.07381" lon="43.08577">
        <ele>313.904104</ele>
        <time>2021-08-16T10:59:20.472Z</time>
      </trkpt>
      <trkpt lat="42.07359" lon="43.08612">
        <ele>316.773992</ele>
        <time>2021-08-16T10:59:41.705Z</time>
      </trkpt>
      <trkpt lat="42.0733" lon="43.08637">
        <ele>319.56004</ele>
        <time>2021-08-16T11:00:04.189Z</time>
      </trkpt>
      <trkpt lat="42.07311" lon="43.08664">
        <ele>321.815307</ele>
        <time>2021-08-16T11:00:20.480Z</time>
      </trkpt>
      <trkpt lat="42.07286" lon="43.08725">
        <ele>326.131934</ele>
        <time>2021-08-16T11:00:59.892Z</time>
      </trkpt>
      <trkpt lat="42.07256" lon="43.08771">
        <ele>329.097776</ele>
        <time>2021-08-16T11:01:24.125Z</time>
      </trkpt>
      <trkpt lat="42.07251" lon="43.08786">
        <ele>329.705982</ele>
        <time>2021-08-16T11:01:29.484Z</time>
      </trkpt>
      <trkpt lat="42.07248" lon="43.08799">
        <ele>330.208885</ele>
        <time>2021-08-16T11:01:36.504Z</time>
      </trkpt>
      <trkpt lat="42.0725" lon="43.08802">
        <ele>330.397697</ele>
        <time>2021-08-16T11:01:38.734Z</time>
      </trkpt>
      <trkpt lat="42.07271" lon="43.08875">
        <ele>333.347554</ele>
        <time>2021-08-16T11:02:14.443Z</time>
      </trkpt>
      <trkpt lat="42.07282" lon="43.08897">
        <ele>334.358772</ele>
        <time>2021-08-16T11:02:27.181Z</time>
      </trkpt>
      <trkpt lat="42.07318" lon="43.08926">
        <ele>336.506211</ele>
        <time>2021-08-16T11:02:50.498Z</time>
      </trkpt>
      <trkpt lat="42.07339" lon="43.08951">
        <ele>337.077735</ele>
        <time>2021-08-16T11:03:05.700Z</time>
      </trkpt>
      <trkpt lat="42.07344" lon="43.0897">
        <ele>337.17587</ele>
        <time>2021-08-16T11:03:12.346Z</time>
      </trkpt>
      <trkpt lat="42.07345" lon="43.09008">
        <ele>337.359764</ele>
        <time>2021-08-16T11:03:23.275Z</time>
      </trkpt>
      <trkpt lat="42.07349" lon="43.09021">
        <ele>337.428709</ele>
        <time>2021-08-16T11:03:28.176Z</time>
      </trkpt>
      <trkpt lat="42.07331" lon="43.09031">
        <ele>337.552437</ele>
        <time>2021-08-16T11:03:35.090Z</time>
      </trkpt>
      <trkpt lat="42.07273" lon="43.09042">
        <ele>337.932891</ele>
        <time>2021-08-16T11:03:56.924Z</time>
      </trkpt>
      <trkpt lat="42.07237" lon="43.09073">
        <ele>338.019487</ele>
        <time>2021-08-16T11:04:11.691Z</time>
      </trkpt>
      <trkpt lat="42.07203" lon="43.09117">
        <ele>337.623972</ele>
        <time>2021-08-16T11:04:27.905Z</time>
      </trkpt>
      <trkpt lat="42.07178" lon="43.09165">
        <ele>337.266462</ele>
        <time>2021-08-16T11:04:42.371Z</time>
      </trkpt>
      <trkpt lat="42.07163" lon="43.09209">
        <ele>336.961138</ele>
        <time>2021-08-16T11:04:54.953Z</time>
      </trkpt>
      <trkpt lat="42.07155" lon="43.09214">
        <ele>336.893763</ele>
        <time>2021-08-16T11:04:57.563Z</time>
      </trkpt>
      <trkpt lat="42.07145" lon="43.09244">
        <ele>336.689352</ele>
        <time>2021-08-16T11:05:06.432Z</time>
      </trkpt>
      <trkpt lat="42.0714" lon="43.09275">
        <ele>336.799279</ele>
        <time>2021-08-16T11:05:15.862Z</time>
      </trkpt>
      <trkpt lat="42.07142" lon="43.09338">
        <ele>337.269624</ele>
        <time>2021-08-16T11:05:34.794Z</time>
      </trkpt>
      <trkpt lat="42.07155" lon="43.09408">
        <ele>337.81174</ele>
        <time>2021-08-16T11:05:57.719Z</time>
      </trkpt>
      <trkpt lat="42.07168" lon="43.0943">
        <ele>338.02018</ele>
        <time>2021-08-16T11:06:06.928Z</time>
      </trkpt>
      <trkpt lat="42.07175" lon="43.09453">
        <ele>338.204531</ele>
        <time>2021-08-16T11:06:15.861Z</time>
      </trkpt>
      <trkpt lat="42.07167" lon="43.0946">
        <ele>338.301356</ele>
        <time>2021-08-16T11:06:20.336Z</time>
      </trkpt>
      <trkpt lat="42.07139" lon="43.09486">
        <ele>338.345871</ele>
        <time>2021-08-16T11:06:35.842Z</time>
      </trkpt>
      <trkpt lat="42.07107" lon="43.09565">
        <ele>337.990396</ele>
        <time>2021-08-16T11:07:04.477Z</time>
      </trkpt>
      <trkpt lat="42.07061" lon="43.09632">
        <ele>337.627541</ele>
        <time>2021-08-16T11:07:27.254Z</time>
      </trkpt>
      <trkpt lat="42.0702" lon="43.09665">
        <ele>336.416459</ele>
        <time>2021-08-16T11:07:41.899Z</time>
      </trkpt>
      <trkpt lat="42.06997" lon="43.09664">
        <ele>335.261552</ele>
        <time>2021-08-16T11:07:48.743Z</time>
      </trkpt>
      <trkpt lat="42.06927" lon="43.09645">
        <ele>331.681136</ele>
        <time>2021-08-16T11:08:09.516Z</time>
      </trkpt>
      <trkpt lat="42.0691" lon="43.09648">
        <ele>330.840859</ele>
        <time>2021-08-16T11:08:14.409Z</time>
      </trkpt>
      <trkpt lat="42.06891" lon="43.09669">
        <ele>329.619458</ele>
        <time>2021-08-16T11:08:21.066Z</time>
      </trkpt>
      <trkpt lat="42.06851" lon="43.09686">
        <ele>326.827514</ele>
        <time>2021-08-16T11:08:32.639Z</time>
      </trkpt>
      <trkpt lat="42.06824" lon="43.0971">
        <ele>324.151228</ele>
        <time>2021-08-16T11:08:41.328Z</time>
      </trkpt>
      <trkpt lat="42.06806" lon="43.09718">
        <ele>322.563349</ele>
        <time>2021-08-16T11:08:44.371Z</time>
      </trkpt>
      <trkpt lat="42.06773" lon="43.09717">
        <ele>319.870137</ele>
        <time>2021-08-16T11:08:49.466Z</time>
      </trkpt>
      <trkpt lat="42.06754" lon="43.09716">
        <ele>318.320396</ele>
        <time>2021-08-16T11:08:52.305Z</time>
      </trkpt>
      <trkpt lat="42.06666" lon="43.0972">
        <ele>309.782727</ele>
        <time>2021-08-16T11:09:05.482Z</time>
      </trkpt>
      <trkpt lat="42.06626" lon="43.09735">
        <ele>304.753421</ele>
        <time>2021-08-16T11:09:11.483Z</time>
      </trkpt>
      <trkpt lat="42.06589" lon="43.0971">
        <ele>299.728752</ele>
        <time>2021-08-16T11:09:17.442Z</time>
      </trkpt>
      <trkpt lat="42.06574" lon="43.09708">
        <ele>297.914639</ele>
        <time>2021-08-16T11:09:19.583Z</time>
      </trkpt>
      <trkpt lat="42.06543" lon="43.09705">
        <ele>294.177977</ele>
        <time>2021-08-16T11:09:24.067Z</time>
      </trkpt>
      <trkpt lat="42.06538" lon="43.09705">
        <ele>293.582824</ele>
        <time>2021-08-16T11:09:24.738Z</time>
      </trkpt>
      <trkpt lat="42.06521" lon="43.09677">
        <ele>290.112537</ele>
        <time>2021-08-16T11:09:28.691Z</time>
      </trkpt>
      <trkpt lat="42.06519" lon="43.09659">
        <ele>288.262204</ele>
        <time>2021-08-16T11:09:30.660Z</time>
      </trkpt>
      <trkpt lat="42.06529" lon="43.09617">
        <ele>283.950609</ele>
        <time>2021-08-16T11:09:35.276Z</time>
      </trkpt>
      <trkpt lat="42.06525" lon="43.09607">
        <ele>282.858049</ele>
        <time>2021-08-16T11:09:36.450Z</time>
      </trkpt>
      <trkpt lat="42.0652" lon="43.09606">
        <ele>282.178086</ele>
        <time>2021-08-16T11:09:37.177Z</time>
      </trkpt>
      <trkpt lat="42.06487" lon="43.09642">
        <ele>276.430633</ele>
        <time>2021-08-16T11:09:43.227Z</time>
      </trkpt>
      <trkpt lat="42.06469" lon="43.09685">
        <ele>271.581695</ele>
        <time>2021-08-16T11:09:48.365Z</time>
      </trkpt>
      <trkpt lat="42.06461" lon="43.09693">
        <ele>270.24918</ele>
        <time>2021-08-16T11:09:49.813Z</time>
      </trkpt>
      <trkpt lat="42.06447" lon="43.09736">
        <ele>265.852908</ele>
        <time>2021-08-16T11:09:54.852Z</time>
      </trkpt>
      <trkpt lat="42.06423" lon="43.09797">
        <ele>259.8463</ele>
        <time>2021-08-16T11:10:02.300Z</time>
      </trkpt>
      <trkpt lat="42.06404" lon="43.09838">
        <ele>255.668018</ele>
        <time>2021-08-16T11:10:11.309Z</time>
      </trkpt>
      <trkpt lat="42.06416" lon="43.09901">
        <ele>250.050731</ele>
        <time>2021-08-16T11:10:23.498Z</time>
      </trkpt>
      <trkpt lat="42.06412" lon="43.09919">
        <ele>248.481904</ele>
        <time>2021-08-16T11:10:26.925Z</time>
      </trkpt>
      <trkpt lat="42.06397" lon="43.09934">
        <ele>246.518164</ele>
        <time>2021-08-16T11:10:31.552Z</time>
      </trkpt>
      <trkpt lat="42.06364" lon="43.09952">
        <ele>244.139705</ele>
        <time>2021-08-16T11:10:40.870Z</time>
      </trkpt>
      <trkpt lat="42.06326" lon="43.09955">
        <ele>241.634335</ele>
        <time>2021-08-16T11:10:51.098Z</time>
      </trkpt>
      <trkpt lat="42.0631" lon="43.09944">
        <ele>240.428662</ele>
        <time>2021-08-16T11:10:56.291Z</time>
      </trkpt>
      <trkpt lat="42.06297" lon="43.09924">
        <ele>239.152093</ele>
        <time>2021-08-16T11:11:01.743Z</time>
      </trkpt>
      <trkpt lat="42.063" lon="43.09946">
        <ele>238.070667</ele>
        <time>2021-08-16T11:11:04.500Z</time>
      </trkpt>
      <trkpt lat="42.06315" lon="43.10009">
        <ele>234.848114</ele>
        <time>2021-08-16T11:11:12.723Z</time>
      </trkpt>
      <trkpt lat="42.06331" lon="43.10414">
        <ele>226.777967</ele>
        <time>2021-08-16T11:12:08.034Z</time>
      </trkpt>
      <trkpt lat="42.06324" lon="43.10453">
        <ele>226.147679</ele>
        <time>2021-08-16T11:12:14.148Z</time>
      </trkpt>
      <trkpt lat="42.06304" lon="43.10475">
        <ele>225.604102</ele>
        <time>2021-08-16T11:12:19.609Z</time>
      </trkpt>
      <trkpt lat="42.06291" lon="43.10486">
        <ele>225.695475</ele>
        <time>2021-08-16T11:12:22.785Z</time>
      </trkpt>
      <trkpt lat="42.06261" lon="43.10513">
        <ele>226.071469</ele>
        <time>2021-08-16T11:12:30.908Z</time>
      </trkpt>
      <trkpt lat="42.06207" lon="43.1054">
        <ele>226.677398</ele>
        <time>2021-08-16T11:12:46.214Z</time>
      </trkpt>
      <trkpt lat="42.06179" lon="43.10553">
        <ele>226.985408</ele>
        <time>2021-08-16T11:12:54.953Z</time>
      </trkpt>
      <trkpt lat="42.06153" lon="43.10584">
        <ele>227.343043</ele>
        <time>2021-08-16T11:13:05.902Z</time>
      </trkpt>
      <trkpt lat="42.06128" lon="43.10649">
        <ele>230.023452</ele>
        <time>2021-08-16T11:13:29.777Z</time>
      </trkpt>
      <trkpt lat="42.06092" lon="43.10791">
        <ele>236.305963</ele>
        <time>2021-08-16T11:14:31.124Z</time>
      </trkpt>
      <trkpt lat="42.06084" lon="43.10806">
        <ele>237.106071</ele>
        <time>2021-08-16T11:14:39.476Z</time>
      </trkpt>
      <trkpt lat="42.0607" lon="43.10821">
        <ele>238.078039</ele>
        <time>2021-08-16T11:14:51.203Z</time>
      </trkpt>
      <trkpt lat="42.05934" lon="43.10879">
        <ele>245.777712</ele>
        <time>2021-08-16T11:16:11.324Z</time>
      </trkpt>
      <trkpt lat="42.05905" lon="43.10877">
        <ele>247.291273</ele>
        <time>2021-08-16T11:16:21.264Z</time>
      </trkpt>
      <trkpt lat="42.05782" lon="43.10827">
        <ele>246.696924</ele>
        <time>2021-08-16T11:16:48.639Z</time>
      </trkpt>
      <trkpt lat="42.05705" lon="43.10808">
        <ele>246.244001</ele>
        <time>2021-08-16T11:17:03.260Z</time>
      </trkpt>
      <trkpt lat="42.05487" lon="43.10836">
        <ele>245.102591</ele>
        <time>2021-08-16T11:17:51.245Z</time>
      </trkpt>
      <trkpt lat="42.05447" lon="43.10852">
        <ele>245.155512</ele>
        <time>2021-08-16T11:18:02.259Z</time>
      </trkpt>
      <trkpt lat="42.05377" lon="43.10837">
        <ele>245.24635</ele>
        <time>2021-08-16T11:18:20.575Z</time>
      </trkpt>
      <trkpt lat="42.05246" lon="43.1085">
        <ele>245.69466</ele>
        <time>2021-08-16T11:18:52.706Z</time>
      </trkpt>
      <trkpt lat="42.0516" lon="43.10871">
        <ele>246.219183</ele>
        <time>2021-08-16T11:19:14.054Z</time>
      </trkpt>
      <trkpt lat="42.0507" lon="43.10904">
        <ele>247.090126</ele>
        <time>2021-08-16T11:19:40.326Z</time>
      </trkpt>
      <trkpt lat="42.05026" lon="43.10918">
        <ele>247.512084</ele>
        <time>2021-08-16T11:19:53.924Z</time>
      </trkpt>
      <trkpt lat="42.04998" lon="43.10923">
        <ele>247.887702</ele>
        <time>2021-08-16T11:20:02.768Z</time>
      </trkpt>
      <trkpt lat="42.04797" lon="43.10936">
        <ele>250.424018</ele>
        <time>2021-08-16T11:21:03.148Z</time>
      </trkpt>
      <trkpt lat="42.0476" lon="43.10953">
        <ele>250.768518</ele>
        <time>2021-08-16T11:21:13.237Z</time>
      </trkpt>
      <trkpt lat="42.04708" lon="43.10986">
        <ele>251.28259</ele>
        <time>2021-08-16T11:21:28.302Z</time>
      </trkpt>
      <trkpt lat="42.04688" lon="43.11001">
        <ele>251.487049</ele>
        <time>2021-08-16T11:21:33.821Z</time>
      </trkpt>
      <trkpt lat="42.04669" lon="43.11017">
        <ele>251.767456</ele>
        <time>2021-08-16T11:21:39.828Z</time>
      </trkpt>
      <trkpt lat="42.0458" lon="43.11088">
        <ele>253.802437</ele>
        <time>2021-08-16T11:22:11.977Z</time>
      </trkpt>
      <trkpt lat="42.04546" lon="43.11106">
        <ele>254.510772</ele>
        <time>2021-08-16T11:22:25.237Z</time>
      </trkpt>
      <trkpt lat="42.04523" lon="43.11118">
        <ele>254.986381</ele>
        <time>2021-08-16T11:22:34.641Z</time>
      </trkpt>
      <trkpt lat="42.04498" lon="43.11132">
        <ele>255.950335</ele>
        <time>2021-08-16T11:22:45.447Z</time>
      </trkpt>
      <trkpt lat="42.04456" lon="43.11156">
        <ele>257.810215</ele>
        <time>2021-08-16T11:23:03.370Z</time>
      </trkpt>
      <trkpt lat="42.04399" lon="43.11192">
        <ele>260.378915</ele>
        <time>2021-08-16T11:23:33.760Z</time>
      </trkpt>
      <trkpt lat="42.04325" lon="43.11238">
        <ele>263.512542</ele>
        <time>2021-08-16T11:24:10.147Z</time>
      </trkpt>
      <trkpt lat="42.04317" lon="43.11242">
        <ele>263.850937</ele>
        <time>2021-08-16T11:24:14.921Z</time>
      </trkpt>
      <trkpt lat="42.04295" lon="43.11251">
        <ele>264.653023</ele>
        <time>2021-08-16T11:24:23.456Z</time>
      </trkpt>
      <trkpt lat="42.04279" lon="43.11259">
        <ele>265.281244</ele>
        <time>2021-08-16T11:24:30.960Z</time>
      </trkpt>
      <trkpt lat="42.04185" lon="43.11267">
        <ele>268.67599</ele>
        <time>2021-08-16T11:25:07.188Z</time>
      </trkpt>
      <trkpt lat="42.04152" lon="43.11266">
        <ele>269.910118</ele>
        <time>2021-08-16T11:25:21.308Z</time>
      </trkpt>
      <trkpt lat="42.04129" lon="43.11267">
        <ele>270.795248</ele>
        <time>2021-08-16T11:25:29.408Z</time>
      </trkpt>
      <trkpt lat="42.04113" lon="43.11269">
        <ele>271.44575</ele>
        <time>2021-08-16T11:25:35.941Z</time>
      </trkpt>
      <trkpt lat="42.04083" lon="43.1128">
        <ele>272.630719</ele>
        <time>2021-08-16T11:25:48.294Z</time>
      </trkpt>
      <trkpt lat="42.04062" lon="43.11285">
        <ele>273.469388</ele>
        <time>2021-08-16T11:25:56.565Z</time>
      </trkpt>
      <trkpt lat="42.04052" lon="43.11288">
        <ele>273.85899</ele>
        <time>2021-08-16T11:26:02.357Z</time>
      </trkpt>
      <trkpt lat="42.04012" lon="43.11319">
        <ele>275.637335</ele>
        <time>2021-08-16T11:26:23.094Z</time>
      </trkpt>
      <trkpt lat="42.03988" lon="43.11368">
        <ele>277.908499</ele>
        <time>2021-08-16T11:26:43.644Z</time>
      </trkpt>
      <trkpt lat="42.03962" lon="43.11429">
        <ele>280.807543</ele>
        <time>2021-08-16T11:27:11.834Z</time>
      </trkpt>
      <trkpt lat="42.03935" lon="43.11511">
        <ele>284.44723</ele>
        <time>2021-08-16T11:27:45.600Z</time>
      </trkpt>
      <trkpt lat="42.03916" lon="43.11578">
        <ele>287.600857</ele>
        <time>2021-08-16T11:28:13.291Z</time>
      </trkpt>
      <trkpt lat="42.0391" lon="43.11624">
        <ele>289.734082</ele>
        <time>2021-08-16T11:28:30.587Z</time>
      </trkpt>
      <trkpt lat="42.03907" lon="43.11826">
        <ele>299.560591</ele>
        <time>2021-08-16T11:29:54.374Z</time>
      </trkpt>
      <trkpt lat="42.03906" lon="43.11897">
        <ele>303.603821</ele>
        <time>2021-08-16T11:30:26.891Z</time>
      </trkpt>
      <trkpt lat="42.03904" lon="43.11971">
        <ele>307.77093</ele>
        <time>2021-08-16T11:31:00.833Z</time>
      </trkpt>
      <trkpt lat="42.03892" lon="43.12113">
        <ele>315.772258</ele>
        <time>2021-08-16T11:32:11.292Z</time>
      </trkpt>
      <trkpt lat="42.03894" lon="43.12191">
        <ele>320.172733</ele>
        <time>2021-08-16T11:32:48.428Z</time>
      </trkpt>
      <trkpt lat="42.03902" lon="43.12242">
        <ele>323.053597</ele>
        <time>2021-08-16T11:33:08.188Z</time>
      </trkpt>
      <trkpt lat="42.03909" lon="43.12254">
        <ele>323.87912</ele>
        <time>2021-08-16T11:33:14.690Z</time>
      </trkpt>
      <trkpt lat="42.03903" lon="43.12297">
        <ele>325.844551</ele>
        <time>2021-08-16T11:33:36.054Z</time>
      </trkpt>
      <trkpt lat="42.03897" lon="43.12358">
        <ele>328.493748</ele>
        <time>2021-08-16T11:34:05.281Z</time>
      </trkpt>
      <trkpt lat="42.03903" lon="43.12297">
        <ele>331.142945</ele>
        <time>2021-08-16T11:34:33.666Z</time>
      </trkpt>
      <trkpt lat="42.03909" lon="43.12254">
        <ele>333.049639</ele>
        <time>2021-08-16T11:34:57.056Z</time>
      </trkpt>
      <trkpt lat="42.03916" lon="43.12263">
        <ele>333.644654</ele>
        <time>2021-08-16T11:35:04.370Z</time>
      </trkpt>
      <trkpt lat="42.03971" lon="43.12335">
        <ele>338.832491</ele>
        <time>2021-08-16T11:35:43.046Z</time>
      </trkpt>
      <trkpt lat="42.03987" lon="43.1236">
        <ele>340.557331</ele>
        <time>2021-08-16T11:35:55.008Z</time>
      </trkpt>
      <trkpt lat="42.03994" lon="43.12385">
        <ele>341.98996</ele>
        <time>2021-08-16T11:36:06.079Z</time>
      </trkpt>
      <trkpt lat="42.03994" lon="43.12399">
        <ele>342.708694</ele>
        <time>2021-08-16T11:36:12.873Z</time>
      </trkpt>
      <trkpt lat="42.03985" lon="43.12422">
        <ele>344.108933</ele>
        <time>2021-08-16T11:36:27.933Z</time>
      </trkpt>
      <trkpt lat="42.03963" lon="43.12538">
        <ele>351.099405</ele>
        <time>2021-08-16T11:37:32.112Z</time>
      </trkpt>
      <trkpt lat="42.03967" lon="43.12568">
        <ele>353.059926</ele>
        <time>2021-08-16T11:37:49.124Z</time>
      </trkpt>
      <trkpt lat="42.03987" lon="43.12621">
        <ele>356.928437</ele>
        <time>2021-08-16T11:38:20.378Z</time>
      </trkpt>
      <trkpt lat="42.03997" lon="43.12674">
        <ele>360.493171</ele>
        <time>2021-08-16T11:38:49.080Z</time>
      </trkpt>
      <trkpt lat="42.04002" lon="43.12692">
        <ele>361.75044</ele>
        <time>2021-08-16T11:39:01.025Z</time>
      </trkpt>
      <trkpt lat="42.04002" lon="43.12704">
        <ele>362.54021</ele>
        <time>2021-08-16T11:39:07.728Z</time>
      </trkpt>
      <trkpt lat="42.0399" lon="43.12776">
        <ele>367.484703</ele>
        <time>2021-08-16T11:39:44.526Z</time>
      </trkpt>
      <trkpt lat="42.03989" lon="43.12821">
        <ele>370.544917</ele>
        <time>2021-08-16T11:40:07.866Z</time>
      </trkpt>
      <trkpt lat="42.03991" lon="43.12835">
        <ele>371.563029</ele>
        <time>2021-08-16T11:40:16.899Z</time>
      </trkpt>
      <trkpt lat="42.03997" lon="43.1287">
        <ele>373.964991</ele>
        <time>2021-08-16T11:40:35.000Z</time>
      </trkpt>
      <trkpt lat="42.04014" lon="43.131">
        <ele>388.612026</ele>
        <time>2021-08-16T11:42:30.263Z</time>
      </trkpt>
      <trkpt lat="42.04015" lon="43.13145">
        <ele>391.361109</ele>
        <time>2021-08-16T11:42:50.713Z</time>
      </trkpt>
      <trkpt lat="42.04003" lon="43.13219">
        <ele>395.409987</ele>
        <time>2021-08-16T11:43:23.715Z</time>
      </trkpt>
      <trkpt lat="42.04001" lon="43.13229">
        <ele>395.838498</ele>
        <time>2021-08-16T11:43:28.931Z</time>
      </trkpt>
      <trkpt lat="42.03987" lon="43.13291">
        <ele>398.518218</ele>
        <time>2021-08-16T11:43:55.953Z</time>
      </trkpt>
      <trkpt lat="42.0398" lon="43.13373">
        <ele>401.964857</ele>
        <time>2021-08-16T11:44:25.326Z</time>
      </trkpt>
      <trkpt lat="42.03981" lon="43.1339">
        <ele>402.670934</ele>
        <time>2021-08-16T11:44:32.174Z</time>
      </trkpt>
      <trkpt lat="42.03912" lon="43.13366">
        <ele>405.768985</ele>
        <time>2021-08-16T11:45:01.834Z</time>
      </trkpt>
      <trkpt lat="42.03871" lon="43.13358">
        <ele>407.195997</ele>
        <time>2021-08-16T11:45:16.023Z</time>
      </trkpt>
      <trkpt lat="42.03833" lon="43.13366">
        <ele>408.552729</ele>
        <time>2021-08-16T11:45:29.933Z</time>
      </trkpt>
      <trkpt lat="42.03793" lon="43.13355">
        <ele>409.944567</ele>
        <time>2021-08-16T11:45:44.403Z</time>
      </trkpt>
      <trkpt lat="42.03783" lon="43.1336">
        <ele>410.330001</ele>
        <time>2021-08-16T11:45:49.031Z</time>
      </trkpt>
      <trkpt lat="42.03771" lon="43.13357">
        <ele>410.922587</ele>
        <time>2021-08-16T11:45:53.772Z</time>
      </trkpt>
      <trkpt lat="42.03763" lon="43.13347">
        <ele>411.702759</ele>
        <time>2021-08-16T11:45:58.760Z</time>
      </trkpt>
      <trkpt lat="42.03699" lon="43.13345">
        <ele>416.207343</ele>
        <time>2021-08-16T11:46:33.068Z</time>
      </trkpt>
      <trkpt lat="42.03649" lon="43.13349">
        <ele>419.709823</ele>
        <time>2021-08-16T11:47:02.776Z</time>
      </trkpt>
      <trkpt lat="42.03626" lon="43.13385">
        <ele>422.259777</ele>
        <time>2021-08-16T11:47:26.125Z</time>
      </trkpt>
      <trkpt lat="42.03616" lon="43.13402">
        <ele>423.417341</ele>
        <time>2021-08-16T11:47:37.669Z</time>
      </trkpt>
      <trkpt lat="42.03587" lon="43.13472">
        <ele>429.250013</ele>
        <time>2021-08-16T11:48:22.031Z</time>
      </trkpt>
      <trkpt lat="42.03576" lon="43.13514">
        <ele>432.440127</ele>
        <time>2021-08-16T11:48:44.987Z</time>
      </trkpt>
      <trkpt lat="42.03574" lon="43.13555">
        <ele>435.387214</ele>
        <time>2021-08-16T11:49:06.197Z</time>
      </trkpt>
      <trkpt lat="42.03577" lon="43.13566">
        <ele>436.270123</ele>
        <time>2021-08-16T11:49:14.580Z</time>
      </trkpt>
      <trkpt lat="42.03583" lon="43.13607">
        <ele>439.257696</ele>
        <time>2021-08-16T11:49:37.103Z</time>
      </trkpt>
      <trkpt lat="42.03583" lon="43.13627">
        <ele>440.674691</ele>
        <time>2021-08-16T11:49:46.982Z</time>
      </trkpt>
      <trkpt lat="42.03559" lon="43.13718">
        <ele>446.47687</ele>
        <time>2021-08-16T11:50:34.150Z</time>
      </trkpt>
      <trkpt lat="42.03549" lon="43.13755">
        <ele>448.847728</ele>
        <time>2021-08-16T11:50:53.375Z</time>
      </trkpt>
      <trkpt lat="42.03541" lon="43.13787">
        <ele>450.854733</ele>
        <time>2021-08-16T11:51:07.879Z</time>
      </trkpt>
      <trkpt lat="42.03489" lon="43.13973">
        <ele>461.82029</ele>
        <time>2021-08-16T11:52:30.724Z</time>
      </trkpt>
      <trkpt lat="42.03483" lon="43.14032">
        <ele>464.941074</ele>
        <time>2021-08-16T11:52:55.643Z</time>
      </trkpt>
      <trkpt lat="42.03481" lon="43.14081">
        <ele>467.487385</ele>
        <time>2021-08-16T11:53:17.316Z</time>
      </trkpt>
      <trkpt lat="42.03483" lon="43.14138">
        <ele>470.89846</ele>
        <time>2021-08-16T11:53:43.546Z</time>
      </trkpt>
      <trkpt lat="42.03477" lon="43.14163">
        <ele>472.493646</ele>
        <time>2021-08-16T11:53:57.184Z</time>
      </trkpt>
      <trkpt lat="42.03466" lon="43.14217">
        <ele>475.918829</ele>
        <time>2021-08-16T11:54:24.274Z</time>
      </trkpt>
      <trkpt lat="42.0343" lon="43.14298">
        <ele>481.657387</ele>
        <time>2021-08-16T11:55:11.453Z</time>
      </trkpt>
      <trkpt lat="42.03393" lon="43.14447">
        <ele>489.26759</ele>
        <time>2021-08-16T11:56:20.010Z</time>
      </trkpt>
      <trkpt lat="42.03388" lon="43.14474">
        <ele>490.568808</ele>
        <time>2021-08-16T11:56:31.027Z</time>
      </trkpt>
      <trkpt lat="42.03382" lon="43.14505">
        <ele>492.034391</ele>
        <time>2021-08-16T11:56:42.881Z</time>
      </trkpt>
      <trkpt lat="42.03381" lon="43.14554">
        <ele>494.152061</ele>
        <time>2021-08-16T11:56:59.653Z</time>
      </trkpt>
      <trkpt lat="42.03388" lon="43.14592">
        <ele>495.030027</ele>
        <time>2021-08-16T11:57:11.575Z</time>
      </trkpt>
      <trkpt lat="42.03387" lon="43.14601">
        <ele>495.244421</ele>
        <time>2021-08-16T11:57:15.267Z</time>
      </trkpt>
      <trkpt lat="42.03386" lon="43.14616">
        <ele>495.584129</ele>
        <time>2021-08-16T11:57:19.601Z</time>
      </trkpt>
      <trkpt lat="42.03384" lon="43.14635">
        <ele>496.009408</ele>
        <time>2021-08-16T11:57:24.740Z</time>
      </trkpt>
      <trkpt lat="42.03383" lon="43.14644">
        <ele>496.22504</ele>
        <time>2021-08-16T11:57:28.826Z</time>
      </trkpt>
      <trkpt lat="42.03382" lon="43.14653">
        <ele>496.423331</ele>
        <time>2021-08-16T11:57:30.607Z</time>
      </trkpt>
      <trkpt lat="42.03394" lon="43.14746">
        <ele>498.576254</ele>
        <time>2021-08-16T11:57:55.655Z</time>
      </trkpt>
      <trkpt lat="42.03394" lon="43.1488">
        <ele>501.495138</ele>
        <time>2021-08-16T11:58:27.863Z</time>
      </trkpt>
      <trkpt lat="42.03379" lon="43.14982">
        <ele>503.737924</ele>
        <time>2021-08-16T11:58:57.198Z</time>
      </trkpt>
      <trkpt lat="42.03402" lon="43.15073">
        <ele>505.871659</ele>
        <time>2021-08-16T11:59:29.810Z</time>
      </trkpt>
      <trkpt lat="42.03402" lon="43.15121">
        <ele>506.950902</ele>
        <time>2021-08-16T11:59:46.379Z</time>
      </trkpt>
      <trkpt lat="42.0339" lon="43.15165">
        <ele>508.001907</ele>
        <time>2021-08-16T12:00:00.309Z</time>
      </trkpt>
      <trkpt lat="42.03378" lon="43.15192">
        <ele>508.726363</ele>
        <time>2021-08-16T12:00:08.488Z</time>
      </trkpt>
      <trkpt lat="42.03368" lon="43.15215">
        <ele>509.33495</ele>
        <time>2021-08-16T12:00:15.864Z</time>
      </trkpt>
      <trkpt lat="42.03349" lon="43.15238">
        <ele>510.094388</ele>
        <time>2021-08-16T12:00:23.260Z</time>
      </trkpt>
      <trkpt lat="42.03348" lon="43.15239">
        <ele>510.129253</ele>
        <time>2021-08-16T12:00:24.954Z</time>
      </trkpt>
      <trkpt lat="42.03338" lon="43.15253">
        <ele>509.879498</ele>
        <time>2021-08-16T12:00:28.341Z</time>
      </trkpt>
      <trkpt lat="42.03332" lon="43.15262">
        <ele>509.718219</ele>
        <time>2021-08-16T12:00:30.339Z</time>
      </trkpt>
      <trkpt lat="42.03325" lon="43.15273">
        <ele>509.525189</ele>
        <time>2021-08-16T12:00:32.735Z</time>
      </trkpt>
      <trkpt lat="42.03312" lon="43.15295">
        <ele>509.149646</ele>
        <time>2021-08-16T12:00:37.641Z</time>
      </trkpt>
      <trkpt lat="42.0327" lon="43.15363">
        <ele>507.980944</ele>
        <time>2021-08-16T12:00:50.753Z</time>
      </trkpt>
      <trkpt lat="42.03257" lon="43.15376">
        <ele>507.693087</ele>
        <time>2021-08-16T12:00:53.541Z</time>
      </trkpt>
      <trkpt lat="42.03238" lon="43.15384">
        <ele>507.345478</ele>
        <time>2021-08-16T12:00:57.103Z</time>
      </trkpt>
      <trkpt lat="42.03215" lon="43.15386">
        <ele>506.897418</ele>
        <time>2021-08-16T12:01:01.040Z</time>
      </trkpt>
      <trkpt lat="42.03187" lon="43.15395">
        <ele>505.025828</ele>
        <time>2021-08-16T12:01:05.610Z</time>
      </trkpt>
      <trkpt lat="42.0317" lon="43.15405">
        <ele>503.774088</ele>
        <time>2021-08-16T12:01:08.776Z</time>
      </trkpt>
      <trkpt lat="42.03148" lon="43.15428">
        <ele>501.920762</ele>
        <time>2021-08-16T12:01:13.116Z</time>
      </trkpt>
      <trkpt lat="42.03108" lon="43.15486">
        <ele>497.997987</ele>
        <time>2021-08-16T12:01:22.267Z</time>
      </trkpt>
      <trkpt lat="42.03102" lon="43.15507">
        <ele>496.882855</ele>
        <time>2021-08-16T12:01:24.882Z</time>
      </trkpt>
      <trkpt lat="42.0311" lon="43.15562">
        <ele>493.994878</ele>
        <time>2021-08-16T12:01:31.442Z</time>
      </trkpt>
      <trkpt lat="42.03116" lon="43.15594">
        <ele>492.126184</ele>
        <time>2021-08-16T12:01:35.281Z</time>
      </trkpt>
      <trkpt lat="42.03122" lon="43.15623">
        <ele>490.473465</ele>
        <time>2021-08-16T12:01:38.716Z</time>
      </trkpt>
      <trkpt lat="42.0313" lon="43.15706">
        <ele>485.825118</ele>
        <time>2021-08-16T12:01:48.407Z</time>
      </trkpt>
      <trkpt lat="42.03122" lon="43.15733">
        <ele>484.171476</ele>
        <time>2021-08-16T12:01:51.764Z</time>
      </trkpt>
      <trkpt lat="42.03025" lon="43.15855">
        <ele>474.86587</ele>
        <time>2021-08-16T12:02:12.489Z</time>
      </trkpt>
      <trkpt lat="42.03009" lon="43.15887">
        <ele>472.884288</ele>
        <time>2021-08-16T12:02:17.094Z</time>
      </trkpt>
      <trkpt lat="42.03" lon="43.15911">
        <ele>471.516315</ele>
        <time>2021-08-16T12:02:20.272Z</time>
      </trkpt>
      <trkpt lat="42.02984" lon="43.15956">
        <ele>469.00804</ele>
        <time>2021-08-16T12:02:26.211Z</time>
      </trkpt>
      <trkpt lat="42.02919" lon="43.16097">
        <ele>462.255336</ele>
        <time>2021-08-16T12:02:46.268Z</time>
      </trkpt>
      <trkpt lat="42.02879" lon="43.16202">
        <ele>457.975746</ele>
        <time>2021-08-16T12:03:01.124Z</time>
      </trkpt>
      <trkpt lat="42.02869" lon="43.16213">
        <ele>457.461065</ele>
        <time>2021-08-16T12:03:03.323Z</time>
      </trkpt>
      <trkpt lat="42.02838" lon="43.16229">
        <ele>456.113664</ele>
        <time>2021-08-16T12:03:09.118Z</time>
      </trkpt>
      <trkpt lat="42.02824" lon="43.16244">
        <ele>455.390315</ele>
        <time>2021-08-16T12:03:12.236Z</time>
      </trkpt>
      <trkpt lat="42.02818" lon="43.16264">
        <ele>454.77364</ele>
        <time>2021-08-16T12:03:14.929Z</time>
      </trkpt>
      <trkpt lat="42.02826" lon="43.16314">
        <ele>453.249582</ele>
        <time>2021-08-16T12:03:21.628Z</time>
      </trkpt>
      <trkpt lat="42.02816" lon="43.16336">
        <ele>452.484606</ele>
        <time>2021-08-16T12:03:25.010Z</time>
      </trkpt>
      <trkpt lat="42.02753" lon="43.16346">
        <ele>450.30159</ele>
        <time>2021-08-16T12:03:36.013Z</time>
      </trkpt>
      <trkpt lat="42.02648" lon="43.16375">
        <ele>446.655497</ele>
        <time>2021-08-16T12:03:55.147Z</time>
      </trkpt>
      <trkpt lat="42.02634" lon="43.16381">
        <ele>446.161082</ele>
        <time>2021-08-16T12:03:57.672Z</time>
      </trkpt>
      <trkpt lat="42.02574" lon="43.16421">
        <ele>443.920674</ele>
        <time>2021-08-16T12:04:09.879Z</time>
      </trkpt>
      <trkpt lat="42.02494" lon="43.16478">
        <ele>440.870979</ele>
        <time>2021-08-16T12:04:25.960Z</time>
      </trkpt>
      <trkpt lat="42.0248" lon="43.16483">
        <ele>440.396204</ele>
        <time>2021-08-16T12:04:28.543Z</time>
      </trkpt>
      <trkpt lat="42.02453" lon="43.16491">
        <ele>439.145328</ele>
        <time>2021-08-16T12:04:33.431Z</time>
      </trkpt>
      <trkpt lat="42.02358" lon="43.16531">
        <ele>433.604555</ele>
        <time>2021-08-16T12:04:50.543Z</time>
      </trkpt>
      <trkpt lat="42.02331" lon="43.16548">
        <ele>431.986817</ele>
        <time>2021-08-16T12:04:55.383Z</time>
      </trkpt>
      <trkpt lat="42.02288" lon="43.16608">
        <ele>427.241414</ele>
        <time>2021-08-16T12:05:04.592Z</time>
      </trkpt>
      <trkpt lat="42.0224" lon="43.16632">
        <ele>421.804157</ele>
        <time>2021-08-16T12:05:12.310Z</time>
      </trkpt>
      <trkpt lat="42.02215" lon="43.16676">
        <ele>417.414588</ele>
        <time>2021-08-16T12:05:18.388Z</time>
      </trkpt>
      <trkpt lat="42.0221" lon="43.16674">
        <ele>416.852122</ele>
        <time>2021-08-16T12:05:19.132Z</time>
      </trkpt>
      <trkpt lat="42.02203" lon="43.16671">
        <ele>416.069117</ele>
        <time>2021-08-16T12:05:20.136Z</time>
      </trkpt>
      <trkpt lat="42.02184" lon="43.16644">
        <ele>413.118482</ele>
        <time>2021-08-16T12:05:24.271Z</time>
      </trkpt>
      <trkpt lat="42.02174" lon="43.16639">
        <ele>412.024763</ele>
        <time>2021-08-16T12:05:25.703Z</time>
      </trkpt>
      <trkpt lat="42.02128" lon="43.16636">
        <ele>407.596392</ele>
        <time>2021-08-16T12:05:32.495Z</time>
      </trkpt>
      <trkpt lat="42.0212" lon="43.16647">
        <ele>406.577277</ele>
        <time>2021-08-16T12:05:34.200Z</time>
      </trkpt>
      <trkpt lat="42.02122" lon="43.16654">
        <ele>406.110248</ele>
        <time>2021-08-16T12:05:34.918Z</time>
      </trkpt>
      <trkpt lat="42.02148" lon="43.16692">
        <ele>402.551643</ele>
        <time>2021-08-16T12:05:40.559Z</time>
      </trkpt>
      <trkpt lat="42.02144" lon="43.16721">
        <ele>400.491842</ele>
        <time>2021-08-16T12:05:43.920Z</time>
      </trkpt>
      <trkpt lat="42.02131" lon="43.16732">
        <ele>399.059733</ele>
        <time>2021-08-16T12:05:46.358Z</time>
      </trkpt>
      <trkpt lat="42.021" lon="43.16688">
        <ele>394.908373</ele>
        <time>2021-08-16T12:05:53.586Z</time>
      </trkpt>
      <trkpt lat="42.02084" lon="43.16673">
        <ele>393.887827</ele>
        <time>2021-08-16T12:05:56.682Z</time>
      </trkpt>
      <trkpt lat="42.02077" lon="43.16651">
        <ele>393.252592</ele>
        <time>2021-08-16T12:05:59.676Z</time>
      </trkpt>
      <trkpt lat="42.02078" lon="43.166">
        <ele>391.893456</ele>
        <time>2021-08-16T12:06:06.344Z</time>
      </trkpt>
      <trkpt lat="42.02086" lon="43.16578">
        <ele>391.248829</ele>
        <time>2021-08-16T12:06:09.623Z</time>
      </trkpt>
      <trkpt lat="42.02092" lon="43.16571">
        <ele>390.934739</ele>
        <time>2021-08-16T12:06:11.240Z</time>
      </trkpt>
      <trkpt lat="42.02133" lon="43.16568">
        <ele>389.485852</ele>
        <time>2021-08-16T12:06:18.989Z</time>
      </trkpt>
      <trkpt lat="42.02145" lon="43.16561">
        <ele>389.019639</ele>
        <time>2021-08-16T12:06:21.481Z</time>
      </trkpt>
      <trkpt lat="42.02198" lon="43.16495">
        <ele>386.511151</ele>
        <time>2021-08-16T12:06:34.511Z</time>
      </trkpt>
      <trkpt lat="42.02195" lon="43.16476">
        <ele>386.025077</ele>
        <time>2021-08-16T12:06:36.964Z</time>
      </trkpt>
      <trkpt lat="42.02161" lon="43.16482">
        <ele>384.842838</ele>
        <time>2021-08-16T12:06:42.951Z</time>
      </trkpt>
      <trkpt lat="42.02123" lon="43.16481">
        <ele>383.543795</ele>
        <time>2021-08-16T12:06:49.486Z</time>
      </trkpt>
      <trkpt lat="42.02049" lon="43.16497">
        <ele>381.144568</ele>
        <time>2021-08-16T12:07:02.856Z</time>
      </trkpt>
      <trkpt lat="42.02008" lon="43.16518">
        <ele>379.901471</ele>
        <time>2021-08-16T12:07:10.891Z</time>
      </trkpt>
      <trkpt lat="42.01991" lon="43.16537">
        <ele>379.271873</ele>
        <time>2021-08-16T12:07:14.854Z</time>
      </trkpt>
      <trkpt lat="42.01987" lon="43.16548">
        <ele>379.022689</ele>
        <time>2021-08-16T12:07:16.434Z</time>
      </trkpt>
      <trkpt lat="42.01984" lon="43.16561">
        <ele>378.731399</ele>
        <time>2021-08-16T12:07:18.601Z</time>
      </trkpt>
      <trkpt lat="42.01992" lon="43.16658">
        <ele>376.696025</ele>
        <time>2021-08-16T12:07:31.956Z</time>
      </trkpt>
      <trkpt lat="42.01975" lon="43.16732">
        <ele>374.742737</ele>
        <time>2021-08-16T12:07:42.731Z</time>
      </trkpt>
      <trkpt lat="42.01976" lon="43.1678">
        <ele>373.514761</ele>
        <time>2021-08-16T12:07:49.470Z</time>
      </trkpt>
      <trkpt lat="42.01987" lon="43.16825">
        <ele>372.325609</ele>
        <time>2021-08-16T12:07:55.546Z</time>
      </trkpt>
      <trkpt lat="42.02026" lon="43.16899">
        <ele>369.963123</ele>
        <time>2021-08-16T12:08:06.916Z</time>
      </trkpt>
      <trkpt lat="42.02029" lon="43.16925">
        <ele>369.207352</ele>
        <time>2021-08-16T12:08:10.237Z</time>
      </trkpt>
      <trkpt lat="42.02005" lon="43.17041">
        <ele>365.724274</ele>
        <time>2021-08-16T12:08:25.909Z</time>
      </trkpt>
      <trkpt lat="42.02002" lon="43.17081">
        <ele>364.56215</ele>
        <time>2021-08-16T12:08:31.157Z</time>
      </trkpt>
      <trkpt lat="42.02009" lon="43.17151">
        <ele>362.912333</ele>
        <time>2021-08-16T12:08:40.255Z</time>
      </trkpt>
      <trkpt lat="42.0202" lon="43.17259">
        <ele>360.908352</ele>
        <time>2021-08-16T12:08:54.916Z</time>
      </trkpt>
      <trkpt lat="42.02029" lon="43.17285">
        <ele>360.371723</ele>
        <time>2021-08-16T12:08:58.903Z</time>
      </trkpt>
      <trkpt lat="42.02032" lon="43.173">
        <ele>360.099717</ele>
        <time>2021-08-16T12:09:01.088Z</time>
      </trkpt>
      <trkpt lat="42.02028" lon="43.17346">
        <ele>359.232572</ele>
        <time>2021-08-16T12:09:08.287Z</time>
      </trkpt>
      <trkpt lat="42.02028" lon="43.17375">
        <ele>359.584039</ele>
        <time>2021-08-16T12:09:13.363Z</time>
      </trkpt>
      <trkpt lat="42.02039" lon="43.17439">
        <ele>360.656648</ele>
        <time>2021-08-16T12:09:26.777Z</time>
      </trkpt>
      <trkpt lat="42.0204" lon="43.17465">
        <ele>361.082789</ele>
        <time>2021-08-16T12:09:32.738Z</time>
      </trkpt>
      <trkpt lat="42.02041" lon="43.17542">
        <ele>362.352538</ele>
        <time>2021-08-16T12:09:54.978Z</time>
      </trkpt>
      <trkpt lat="42.02042" lon="43.17553">
        <ele>362.526731</ele>
        <time>2021-08-16T12:09:58.986Z</time>
      </trkpt>
      <trkpt lat="42.02064" lon="43.17695">
        <ele>366.600431</ele>
        <time>2021-08-16T12:10:50.872Z</time>
      </trkpt>
      <trkpt lat="42.02068" lon="43.17724">
        <ele>367.535097</ele>
        <time>2021-08-16T12:11:00.551Z</time>
      </trkpt>
      <trkpt lat="42.02065" lon="43.178">
        <ele>369.971231</ele>
        <time>2021-08-16T12:11:25.609Z</time>
      </trkpt>
      <trkpt lat="42.02062" lon="43.17838">
        <ele>371.267423</ele>
        <time>2021-08-16T12:11:37.411Z</time>
      </trkpt>
      <trkpt lat="42.02055" lon="43.17905">
        <ele>373.77199</ele>
        <time>2021-08-16T12:11:56.320Z</time>
      </trkpt>
      <trkpt lat="42.02054" lon="43.18032">
        <ele>378.487561</ele>
        <time>2021-08-16T12:12:39.491Z</time>
      </trkpt>
      <trkpt lat="42.02046" lon="43.18102">
        <ele>382.273228</ele>
        <time>2021-08-16T12:13:12.535Z</time>
      </trkpt>
      <trkpt lat="42.02044" lon="43.18185">
        <ele>388.231515</ele>
        <time>2021-08-16T12:13:57.853Z</time>
      </trkpt>
      <trkpt lat="42.02045" lon="43.18216">
        <ele>390.43505</ele>
        <time>2021-08-16T12:14:14.160Z</time>
      </trkpt>
      <trkpt lat="42.0205" lon="43.18241">
        <ele>392.308577</ele>
        <time>2021-08-16T12:14:29.725Z</time>
      </trkpt>
      <trkpt lat="42.02055" lon="43.18258">
        <ele>393.628225</ele>
        <time>2021-08-16T12:14:39.378Z</time>
      </trkpt>
      <trkpt lat="42.02051" lon="43.18282">
        <ele>395.422345</ele>
        <time>2021-08-16T12:14:59.061Z</time>
      </trkpt>
      <trkpt lat="42.02076" lon="43.1838">
        <ele>400.172977</ele>
        <time>2021-08-16T12:16:07.447Z</time>
      </trkpt>
      <trkpt lat="42.02085" lon="43.1846">
        <ele>403.136713</ele>
        <time>2021-08-16T12:16:47.934Z</time>
      </trkpt>
      <trkpt lat="42.02089" lon="43.18478">
        <ele>403.836286</ele>
        <time>2021-08-16T12:16:57.008Z</time>
      </trkpt>
      <trkpt lat="42.02099" lon="43.18497">
        <ele>404.699521</ele>
        <time>2021-08-16T12:17:02.392Z</time>
      </trkpt>
      <trkpt lat="42.02113" lon="43.18523">
        <ele>405.907077</ele>
        <time>2021-08-16T12:17:11.358Z</time>
      </trkpt>
      <trkpt lat="42.0212" lon="43.18535">
        <ele>405.952826</ele>
        <time>2021-08-16T12:17:14.504Z</time>
      </trkpt>
      <trkpt lat="42.02144" lon="43.18575">
        <ele>403.334641</ele>
        <time>2021-08-16T12:17:26.135Z</time>
      </trkpt>
      <trkpt lat="42.02157" lon="43.18621">
        <ele>400.812341</ele>
        <time>2021-08-16T12:17:36.730Z</time>
      </trkpt>
      <trkpt lat="42.02155" lon="43.18638">
        <ele>399.961778</ele>
        <time>2021-08-16T12:17:40.507Z</time>
      </trkpt>
      <trkpt lat="42.02148" lon="43.18669">
        <ele>398.31984</ele>
        <time>2021-08-16T12:17:46.820Z</time>
      </trkpt>
      <trkpt lat="42.02131" lon="43.18801">
        <ele>389.387885</ele>
        <time>2021-08-16T12:18:12.145Z</time>
      </trkpt>
      <trkpt lat="42.02134" lon="43.18901">
        <ele>379.805617</ele>
        <time>2021-08-16T12:18:30.535Z</time>
      </trkpt>
      <trkpt lat="42.02135" lon="43.18908">
        <ele>379.058579</ele>
        <time>2021-08-16T12:18:31.893Z</time>
      </trkpt>
      <trkpt lat="42.02139" lon="43.18941">
        <ele>375.92698</ele>
        <time>2021-08-16T12:18:37.957Z</time>
      </trkpt>
      <trkpt lat="42.02153" lon="43.19004">
        <ele>369.599046</ele>
        <time>2021-08-16T12:18:50.059Z</time>
      </trkpt>
      <trkpt lat="42.02157" lon="43.19069">
        <ele>363.341486</ele>
        <time>2021-08-16T12:19:01.863Z</time>
      </trkpt>
      <trkpt lat="42.02157" lon="43.19095">
        <ele>360.750194</ele>
        <time>2021-08-16T12:19:06.687Z</time>
      </trkpt>
      <trkpt lat="42.02153" lon="43.19224">
        <ele>348.310069</ele>
        <time>2021-08-16T12:19:30.506Z</time>
      </trkpt>
      <trkpt lat="42.02159" lon="43.19254">
        <ele>345.839667</ele>
        <time>2021-08-16T12:19:36.201Z</time>
      </trkpt>
      <trkpt lat="42.02152" lon="43.19268">
        <ele>344.547291</ele>
        <time>2021-08-16T12:19:38.051Z</time>
      </trkpt>
      <trkpt lat="42.02138" lon="43.19303">
        <ele>341.690334</ele>
        <time>2021-08-16T12:19:42.167Z</time>
      </trkpt>
      <trkpt lat="42.02128" lon="43.19333">
        <ele>339.31991</ele>
        <time>2021-08-16T12:19:45.625Z</time>
      </trkpt>
      <trkpt lat="42.02124" lon="43.19345">
        <ele>338.290996</ele>
        <time>2021-08-16T12:19:47.135Z</time>
      </trkpt>
      <trkpt lat="42.02113" lon="43.19382">
        <ele>335.430065</ele>
        <time>2021-08-16T12:19:51.294Z</time>
      </trkpt>
      <trkpt lat="42.021" lon="43.19423">
        <ele>332.122571</ele>
        <time>2021-08-16T12:19:56.067Z</time>
      </trkpt>
      <trkpt lat="42.02075" lon="43.19507">
        <ele>326.923337</ele>
        <time>2021-08-16T12:20:05.999Z</time>
      </trkpt>
      <trkpt lat="42.02067" lon="43.19534">
        <ele>325.534646</ele>
        <time>2021-08-16T12:20:09.193Z</time>
      </trkpt>
      <trkpt lat="42.02056" lon="43.19568">
        <ele>323.749009</ele>
        <time>2021-08-16T12:20:13.399Z</time>
      </trkpt>
      <trkpt lat="42.02045" lon="43.19608">
        <ele>321.669624</ele>
        <time>2021-08-16T12:20:18.358Z</time>
      </trkpt>
      <trkpt lat="42.02032" lon="43.19662">
        <ele>318.877133</ele>
        <time>2021-08-16T12:20:25.193Z</time>
      </trkpt>
      <trkpt lat="42.02021" lon="43.19769">
        <ele>313.263081</ele>
        <time>2021-08-16T12:20:37.478Z</time>
      </trkpt>
      <trkpt lat="42.02003" lon="43.1985">
        <ele>308.78714</ele>
        <time>2021-08-16T12:20:46.988Z</time>
      </trkpt>
      <trkpt lat="42.02003" lon="43.19874">
        <ele>307.505387</ele>
        <time>2021-08-16T12:20:49.791Z</time>
      </trkpt>
      <trkpt lat="42.02006" lon="43.199">
        <ele>306.107625</ele>
        <time>2021-08-16T12:20:52.616Z</time>
      </trkpt>
      <trkpt lat="42.0202" lon="43.19947">
        <ele>302.940632</ele>
        <time>2021-08-16T12:20:57.842Z</time>
      </trkpt>
      <trkpt lat="42.02054" lon="43.19987">
        <ele>298.668362</ele>
        <time>2021-08-16T12:21:04.278Z</time>
      </trkpt>
      <trkpt lat="42.02062" lon="43.2001">
        <ele>296.896446</ele>
        <time>2021-08-16T12:21:06.865Z</time>
      </trkpt>
      <trkpt lat="42.02059" lon="43.20043">
        <ele>294.521505</ele>
        <time>2021-08-16T12:21:10.575Z</time>
      </trkpt>
      <trkpt lat="42.02043" lon="43.20088">
        <ele>291.007291</ele>
        <time>2021-08-16T12:21:15.877Z</time>
      </trkpt>
      <trkpt lat="42.02039" lon="43.20101">
        <ele>290.046293</ele>
        <time>2021-08-16T12:21:17.259Z</time>
      </trkpt>
      <trkpt lat="42.02027" lon="43.20111">
        <ele>288.725477</ele>
        <time>2021-08-16T12:21:19.409Z</time>
      </trkpt>
      <trkpt lat="42.01962" lon="43.20137">
        <ele>285.475504</ele>
        <time>2021-08-16T12:21:29.663Z</time>
      </trkpt>
      <trkpt lat="42.01862" lon="43.20166">
        <ele>280.956817</ele>
        <time>2021-08-16T12:21:46.953Z</time>
      </trkpt>
      <trkpt lat="42.01849" lon="43.2017">
        <ele>280.402655</ele>
        <time>2021-08-16T12:21:49.663Z</time>
      </trkpt>
      <trkpt lat="42.01817" lon="43.20179">
        <ele>280.064856</ele>
        <time>2021-08-16T12:21:56.346Z</time>
      </trkpt>
      <trkpt lat="42.01803" lon="43.20183">
        <ele>279.956468</ele>
        <time>2021-08-16T12:21:59.427Z</time>
      </trkpt>
      <trkpt lat="42.01711" lon="43.20216">
        <ele>279.257696</ele>
        <time>2021-08-16T12:22:19.348Z</time>
      </trkpt>
      <trkpt lat="42.01679" lon="43.20227">
        <ele>279.015378</ele>
        <time>2021-08-16T12:22:26.306Z</time>
      </trkpt>
      <trkpt lat="42.01649" lon="43.2024">
        <ele>279.059063</ele>
        <time>2021-08-16T12:22:32.991Z</time>
      </trkpt>
      <trkpt lat="42.01618" lon="43.20252">
        <ele>279.184307</ele>
        <time>2021-08-16T12:22:39.849Z</time>
      </trkpt>
      <trkpt lat="42.0157" lon="43.20256">
        <ele>279.367988</ele>
        <time>2021-08-16T12:22:50.704Z</time>
      </trkpt>
      <trkpt lat="42.01535" lon="43.20258">
        <ele>279.506227</ele>
        <time>2021-08-16T12:23:00.421Z</time>
      </trkpt>
      <trkpt lat="42.01515" lon="43.20264">
        <ele>279.58493</ele>
        <time>2021-08-16T12:23:06.106Z</time>
      </trkpt>
      <trkpt lat="42.01439" lon="43.20322">
        <ele>280.802383</ele>
        <time>2021-08-16T12:23:30.676Z</time>
      </trkpt>
      <trkpt lat="42.01431" lon="43.2033">
        <ele>280.981347</ele>
        <time>2021-08-16T12:23:34.154Z</time>
      </trkpt>
      <trkpt lat="42.01425" lon="43.20335">
        <ele>281.094232</ele>
        <time>2021-08-16T12:23:36.399Z</time>
      </trkpt>
      <trkpt lat="42.014" lon="43.20367">
        <ele>281.670426</ele>
        <time>2021-08-16T12:23:47.384Z</time>
      </trkpt>
      <trkpt lat="42.01377" lon="43.20396">
        <ele>282.208596</ele>
        <time>2021-08-16T12:23:57.082Z</time>
      </trkpt>
      <trkpt lat="42.01361" lon="43.20424">
        <ele>282.656299</ele>
        <time>2021-08-16T12:24:05.336Z</time>
      </trkpt>
      <trkpt lat="42.0134" lon="43.2046">
        <ele>283.526342</ele>
        <time>2021-08-16T12:24:16.685Z</time>
      </trkpt>
      <trkpt lat="42.01327" lon="43.20487">
        <ele>284.157026</ele>
        <time>2021-08-16T12:24:25.202Z</time>
      </trkpt>
      <trkpt lat="42.01314" lon="43.20513">
        <ele>284.769759</ele>
        <time>2021-08-16T12:24:33.698Z</time>
      </trkpt>
      <trkpt lat="42.01299" lon="43.2054">
        <ele>285.445182</ele>
        <time>2021-08-16T12:24:43.516Z</time>
      </trkpt>
      <trkpt lat="42.01286" lon="43.20566">
        <ele>286.050724</ele>
        <time>2021-08-16T12:24:52.601Z</time>
      </trkpt>
      <trkpt lat="42.01212" lon="43.20586">
        <ele>287.87821</ele>
        <time>2021-08-16T12:25:20.531Z</time>
      </trkpt>
      <trkpt lat="42.01145" lon="43.20605">
        <ele>289.109238</ele>
        <time>2021-08-16T12:25:41.790Z</time>
      </trkpt>
      <trkpt lat="42.01137" lon="43.2061">
        <ele>289.278974</ele>
        <time>2021-08-16T12:25:44.542Z</time>
      </trkpt>
      <trkpt lat="42.0112" lon="43.20625">
        <ele>289.650016</ele>
        <time>2021-08-16T12:25:51.629Z</time>
      </trkpt>
      <trkpt lat="42.01102" lon="43.20672">
        <ele>290.360106</ele>
        <time>2021-08-16T12:26:04.342Z</time>
      </trkpt>
      <trkpt lat="42.01092" lon="43.207">
        <ele>290.7629</ele>
        <time>2021-08-16T12:26:11.238Z</time>
      </trkpt>
      <trkpt lat="42.01084" lon="43.20725">
        <ele>291.002824</ele>
        <time>2021-08-16T12:26:16.986Z</time>
      </trkpt>
      <trkpt lat="42.01072" lon="43.20772">
        <ele>291.452173</ele>
        <time>2021-08-16T12:26:26.080Z</time>
      </trkpt>
      <trkpt lat="42.01039" lon="43.20894">
        <ele>292.610776</ele>
        <time>2021-08-16T12:26:53.033Z</time>
      </trkpt>
      <trkpt lat="42.01032" lon="43.2092">
        <ele>292.851956</ele>
        <time>2021-08-16T12:26:59.022Z</time>
      </trkpt>
      <trkpt lat="42.01031" lon="43.20946">
        <ele>293.349175</ele>
        <time>2021-08-16T12:27:06.771Z</time>
      </trkpt>
      <trkpt lat="42.01037" lon="43.20949">
        <ele>293.525135</ele>
        <time>2021-08-16T12:27:08.939Z</time>
      </trkpt>
      <trkpt lat="42.01046" lon="43.20957">
        <ele>293.841387</ele>
        <time>2021-08-16T12:27:12.062Z</time>
      </trkpt>
      <trkpt lat="42.01024" lon="43.20991">
        <ele>294.796979</ele>
        <time>2021-08-16T12:27:24.402Z</time>
      </trkpt>
      <trkpt lat="42.01011" lon="43.21009">
        <ele>295.310668</ele>
        <time>2021-08-16T12:27:31.721Z</time>
      </trkpt>
      <trkpt lat="42.00918" lon="43.2109">
        <ele>298.526768</ele>
        <time>2021-08-16T12:28:13.700Z</time>
      </trkpt>
      <trkpt lat="42.00876" lon="43.21145">
        <ele>300.456461</ele>
        <time>2021-08-16T12:28:37.104Z</time>
      </trkpt>
      <trkpt lat="42.0083" lon="43.21225">
        <ele>302.958087</ele>
        <time>2021-08-16T12:29:06.115Z</time>
      </trkpt>
      <trkpt lat="42.00772" lon="43.21318">
        <ele>305.960323</ele>
        <time>2021-08-16T12:29:40.851Z</time>
      </trkpt>
      <trkpt lat="42.00748" lon="43.21366">
        <ele>307.392214</ele>
        <time>2021-08-16T12:30:03.979Z</time>
      </trkpt>
      <trkpt lat="42.0064" lon="43.21539">
        <ele>312.89851</ele>
        <time>2021-08-16T12:31:35.324Z</time>
      </trkpt>
      <trkpt lat="42.00589" lon="43.21637">
        <ele>315.744954</ele>
        <time>2021-08-16T12:32:22.861Z</time>
      </trkpt>
      <trkpt lat="42.00568" lon="43.21663">
        <ele>316.084798</ele>
        <time>2021-08-16T12:32:37.111Z</time>
      </trkpt>
      <trkpt lat="42.00535" lon="43.21773">
        <ele>317.136469</ele>
        <time>2021-08-16T12:33:16.610Z</time>
      </trkpt>
      <trkpt lat="42.00481" lon="43.2184">
        <ele>317.58173</ele>
        <time>2021-08-16T12:33:45.300Z</time>
      </trkpt>
      <trkpt lat="42.00471" lon="43.21869">
        <ele>316.985626</ele>
        <time>2021-08-16T12:33:53.060Z</time>
      </trkpt>
      <trkpt lat="42.00467" lon="43.2191">
        <ele>316.198445</ele>
        <time>2021-08-16T12:34:02.789Z</time>
      </trkpt>
      <trkpt lat="42.00465" lon="43.21967">
        <ele>315.09214</ele>
        <time>2021-08-16T12:34:15.984Z</time>
      </trkpt>
      <trkpt lat="42.00469" lon="43.22039">
        <ele>313.722798</ele>
        <time>2021-08-16T12:34:32.188Z</time>
      </trkpt>
      <trkpt lat="42.00453" lon="43.22103">
        <ele>312.609313</ele>
        <time>2021-08-16T12:34:47.418Z</time>
      </trkpt>
      <trkpt lat="42.0045" lon="43.22114">
        <ele>312.425366</ele>
        <time>2021-08-16T12:34:50.160Z</time>
      </trkpt>
      <trkpt lat="42.00439" lon="43.2216">
        <ele>311.697565</ele>
        <time>2021-08-16T12:35:01.186Z</time>
      </trkpt>
      <trkpt lat="42.00412" lon="43.22212">
        <ele>310.766629</ele>
        <time>2021-08-16T12:35:15.771Z</time>
      </trkpt>
      <trkpt lat="42.00373" lon="43.2225">
        <ele>309.78914</ele>
        <time>2021-08-16T12:35:32.350Z</time>
      </trkpt>
      <trkpt lat="42.00334" lon="43.22271">
        <ele>311.300381</ele>
        <time>2021-08-16T12:35:51.136Z</time>
      </trkpt>
      <trkpt lat="42.00303" lon="43.22266">
        <ele>312.851891</ele>
        <time>2021-08-16T12:36:08.165Z</time>
      </trkpt>
      <trkpt lat="42.0025" lon="43.22234">
        <ele>315.722561</ele>
        <time>2021-08-16T12:36:45.696Z</time>
      </trkpt>
      <trkpt lat="42.00214" lon="43.22197">
        <ele>317.907036</ele>
        <time>2021-08-16T12:37:18.953Z</time>
      </trkpt>
      <trkpt lat="42.0014" lon="43.22177">
        <ele>323.012957</ele>
        <time>2021-08-16T12:38:23.246Z</time>
      </trkpt>
      <trkpt lat="42.00112" lon="43.22179">
        <ele>324.980143</ele>
        <time>2021-08-16T12:38:47.768Z</time>
      </trkpt>
      <trkpt lat="42.00078" lon="43.22227">
        <ele>328.379283</ele>
        <time>2021-08-16T12:39:21.178Z</time>
      </trkpt>
      <trkpt lat="42.0005" lon="43.22327">
        <ele>330.957951</ele>
        <time>2021-08-16T12:40:04.773Z</time>
      </trkpt>
      <trkpt lat="42.00048" lon="43.22376">
        <ele>330.859611</ele>
        <time>2021-08-16T12:40:20.435Z</time>
      </trkpt>
      <trkpt lat="42.0008" lon="43.22403">
        <ele>330.758553</ele>
        <time>2021-08-16T12:40:28.278Z</time>
      </trkpt>
      <trkpt lat="42.00044" lon="43.22437">
        <ele>330.639893</ele>
        <time>2021-08-16T12:40:36.724Z</time>
      </trkpt>
      <trkpt lat="42.00026" lon="43.2247">
        <ele>330.241949</ele>
        <time>2021-08-16T12:40:45.615Z</time>
      </trkpt>
      <trkpt lat="41.99987" lon="43.2255">
        <ele>327.842126</ele>
        <time>2021-08-16T12:41:05.919Z</time>
      </trkpt>
      <trkpt lat="41.99953" lon="43.22595">
        <ele>326.241434</ele>
        <time>2021-08-16T12:41:22.284Z</time>
      </trkpt>
      <trkpt lat="41.99901" lon="43.22707">
        <ele>323.400456</ele>
        <time>2021-08-16T12:41:52.530Z</time>
      </trkpt>
      <trkpt lat="41.99891" lon="43.22753">
        <ele>322.572142</ele>
        <time>2021-08-16T12:42:03.536Z</time>
      </trkpt>
      <trkpt lat="41.99889" lon="43.228">
        <ele>321.747049</ele>
        <time>2021-08-16T12:42:14.651Z</time>
      </trkpt>
      <trkpt lat="41.99894" lon="43.22971">
        <ele>320.442236</ele>
        <time>2021-08-16T12:42:57.581Z</time>
      </trkpt>
      <trkpt lat="41.99891" lon="43.22993">
        <ele>320.480377</ele>
        <time>2021-08-16T12:43:04.168Z</time>
      </trkpt>
      <trkpt lat="41.99877" lon="43.23009">
        <ele>320.524077</ele>
        <time>2021-08-16T12:43:12.563Z</time>
      </trkpt>
      <trkpt lat="41.99832" lon="43.23023">
        <ele>320.634967</ele>
        <time>2021-08-16T12:43:32.422Z</time>
      </trkpt>
      <trkpt lat="41.9978" lon="43.23024">
        <ele>320.886582</ele>
        <time>2021-08-16T12:43:54.779Z</time>
      </trkpt>
      <trkpt lat="41.99775" lon="43.23028">
        <ele>320.945434</ele>
        <time>2021-08-16T12:43:57.861Z</time>
      </trkpt>
      <trkpt lat="41.99763" lon="43.23055">
        <ele>321.164417</ele>
        <time>2021-08-16T12:44:04.296Z</time>
      </trkpt>
      <trkpt lat="41.9976" lon="43.23069">
        <ele>321.263452</ele>
        <time>2021-08-16T12:44:09.082Z</time>
      </trkpt>
      <trkpt lat="41.99759" lon="43.23083">
        <ele>321.362227</ele>
        <time>2021-08-16T12:44:14.073Z</time>
      </trkpt>
      <trkpt lat="41.99758" lon="43.2309">
        <ele>321.414139</ele>
        <time>2021-08-16T12:44:15.959Z</time>
      </trkpt>
      <trkpt lat="41.99757" lon="43.23109">
        <ele>321.543563</ele>
        <time>2021-08-16T12:44:21.841Z</time>
      </trkpt>
      <trkpt lat="41.99772" lon="43.23229">
        <ele>322.390012</ele>
        <time>2021-08-16T12:44:59.729Z</time>
      </trkpt>
      <trkpt lat="41.99801" lon="43.23337">
        <ele>323.815984</ele>
        <time>2021-08-16T12:45:30.847Z</time>
      </trkpt>
      <trkpt lat="41.99808" lon="43.23382">
        <ele>324.387124</ele>
        <time>2021-08-16T12:45:44.920Z</time>
      </trkpt>
      <trkpt lat="41.99807" lon="43.23453">
        <ele>325.266095</ele>
        <time>2021-08-16T12:46:09.320Z</time>
      </trkpt>
      <trkpt lat="41.99801" lon="43.23469">
        <ele>325.995509</ele>
        <time>2021-08-16T12:46:17.484Z</time>
      </trkpt>
      <trkpt lat="41.99797" lon="43.23475">
        <ele>326.63268</ele>
        <time>2021-08-16T12:46:21.246Z</time>
      </trkpt>
      <trkpt lat="41.99792" lon="43.23483">
        <ele>327.560278</ele>
        <time>2021-08-16T12:46:26.655Z</time>
      </trkpt>
      <trkpt lat="41.99777" lon="43.23507">
        <ele>330.335405</ele>
        <time>2021-08-16T12:46:45.796Z</time>
      </trkpt>
      <trkpt lat="41.99739" lon="43.23552">
        <ele>336.435887</ele>
        <time>2021-08-16T12:47:31.770Z</time>
      </trkpt>
      <trkpt lat="41.9972" lon="43.23619">
        <ele>342.783092</ele>
        <time>2021-08-16T12:48:28.640Z</time>
      </trkpt>
      <trkpt lat="41.99685" lon="43.23601">
        <ele>347.429132</ele>
        <time>2021-08-16T12:49:09.402Z</time>
      </trkpt>
      <trkpt lat="41.99663" lon="43.23596">
        <ele>351.382161</ele>
        <time>2021-08-16T12:49:38.100Z</time>
      </trkpt>
      <trkpt lat="41.99638" lon="43.23616">
        <ele>356.646337</ele>
        <time>2021-08-16T12:50:15.276Z</time>
      </trkpt>
      <trkpt lat="41.99596" lon="43.23617">
        <ele>364.17572</ele>
        <time>2021-08-16T12:51:07.231Z</time>
      </trkpt>
      <trkpt lat="41.99552" lon="43.23633">
        <ele>372.238817</ele>
        <time>2021-08-16T12:52:00.997Z</time>
      </trkpt>
      <trkpt lat="41.99529" lon="43.23634">
        <ele>376.264387</ele>
        <time>2021-08-16T12:52:25.921Z</time>
      </trkpt>
      <trkpt lat="41.99533" lon="43.23652">
        <ele>378.772709</ele>
        <time>2021-08-16T12:52:37.990Z</time>
      </trkpt>
      <trkpt lat="41.99559" lon="43.23694">
        <ele>381.054189</ele>
        <time>2021-08-16T12:53:14.249Z</time>
      </trkpt>
      <trkpt lat="41.99565" lon="43.23717">
        <ele>382.032365</ele>
        <time>2021-08-16T12:53:26.885Z</time>
      </trkpt>
      <trkpt lat="41.99565" lon="43.23767">
        <ele>384.067717</ele>
        <time>2021-08-16T12:53:49.633Z</time>
      </trkpt>
      <trkpt lat="41.99572" lon="43.23786">
        <ele>384.89743</ele>
        <time>2021-08-16T12:53:57.813Z</time>
      </trkpt>
      <trkpt lat="41.99573" lon="43.23813">
        <ele>385.980994</ele>
        <time>2021-08-16T12:54:08.450Z</time>
      </trkpt>
      <trkpt lat="41.99569" lon="43.23835">
        <ele>386.897914</ele>
        <time>2021-08-16T12:54:15.401Z</time>
      </trkpt>
      <trkpt lat="41.99555" lon="43.23861">
        <ele>388.221</ele>
        <time>2021-08-16T12:54:22.452Z</time>
      </trkpt>
      <trkpt lat="41.99551" lon="43.2388">
        <ele>387.944103</ele>
        <time>2021-08-16T12:54:26.973Z</time>
      </trkpt>
      <trkpt lat="41.99548" lon="43.23892">
        <ele>386.911171</ele>
        <time>2021-08-16T12:54:29.430Z</time>
      </trkpt>
      <trkpt lat="41.99531" lon="43.23931">
        <ele>383.304933</ele>
        <time>2021-08-16T12:54:38.516Z</time>
      </trkpt>
      <trkpt lat="41.99504" lon="43.23963">
        <ele>379.342847</ele>
        <time>2021-08-16T12:54:47.932Z</time>
      </trkpt>
      <trkpt lat="41.99513" lon="43.24">
        <ele>376.195997</ele>
        <time>2021-08-16T12:54:55.212Z</time>
      </trkpt>
      <trkpt lat="41.9951" lon="43.2402">
        <ele>374.599432</ele>
        <time>2021-08-16T12:54:58.744Z</time>
      </trkpt>
      <trkpt lat="41.99489" lon="43.24055">
        <ele>370.944751</ele>
        <time>2021-08-16T12:55:06.881Z</time>
      </trkpt>
      <trkpt lat="41.99487" lon="43.24065">
        <ele>370.03241</ele>
        <time>2021-08-16T12:55:08.893Z</time>
      </trkpt>
      <trkpt lat="41.99513" lon="43.24097">
        <ele>365.012286</ele>
        <time>2021-08-16T12:55:17.363Z</time>
      </trkpt>
      <trkpt lat="41.99518" lon="43.24112">
        <ele>363.166648</ele>
        <time>2021-08-16T12:55:20.250Z</time>
      </trkpt>
      <trkpt lat="41.99511" lon="43.24143">
        <ele>359.512144</ele>
        <time>2021-08-16T12:55:25.830Z</time>
      </trkpt>
      <trkpt lat="41.99535" lon="43.24224">
        <ele>349.573581</ele>
        <time>2021-08-16T12:55:41.288Z</time>
      </trkpt>
      <trkpt lat="41.99533" lon="43.24248">
        <ele>346.847929</ele>
        <time>2021-08-16T12:55:45.758Z</time>
      </trkpt>
      <trkpt lat="41.99522" lon="43.24297">
        <ele>341.372736</ele>
        <time>2021-08-16T12:55:55.216Z</time>
      </trkpt>
      <trkpt lat="41.99525" lon="43.24311">
        <ele>340.744796</ele>
        <time>2021-08-16T12:55:57.855Z</time>
      </trkpt>
      <trkpt lat="41.99507" lon="43.2433">
        <ele>339.486404</ele>
        <time>2021-08-16T12:56:03.961Z</time>
      </trkpt>
      <trkpt lat="41.99475" lon="43.24349">
        <ele>337.498959</ele>
        <time>2021-08-16T12:56:13.356Z</time>
      </trkpt>
      <trkpt lat="41.99404" lon="43.2435">
        <ele>333.453018</ele>
        <time>2021-08-16T12:56:34.376Z</time>
      </trkpt>
      <trkpt lat="41.99367" lon="43.24384">
        <ele>331.548599</ele>
        <time>2021-08-16T12:56:49.760Z</time>
      </trkpt>
      <trkpt lat="41.99349" lon="43.24408">
        <ele>331.917811</ele>
        <time>2021-08-16T12:57:01.964Z</time>
      </trkpt>
      <trkpt lat="41.99316" lon="43.24482">
        <ele>332.843518</ele>
        <time>2021-08-16T12:57:33.284Z</time>
      </trkpt>
      <trkpt lat="41.99299" lon="43.24565">
        <ele>333.775777</ele>
        <time>2021-08-16T12:58:04.365Z</time>
      </trkpt>
      <trkpt lat="41.99299" lon="43.24611">
        <ele>334.107103</ele>
        <time>2021-08-16T12:58:19.695Z</time>
      </trkpt>
      <trkpt lat="41.99283" lon="43.24657">
        <ele>334.289597</ele>
        <time>2021-08-16T12:58:35.530Z</time>
      </trkpt>
      <trkpt lat="41.9928" lon="43.24668">
        <ele>334.332735</ele>
        <time>2021-08-16T12:58:39.527Z</time>
      </trkpt>
      <trkpt lat="41.99253" lon="43.24707">
        <ele>334.525615</ele>
        <time>2021-08-16T12:58:54.975Z</time>
      </trkpt>
      <trkpt lat="41.99227" lon="43.2473">
        <ele>334.675744</ele>
        <time>2021-08-16T12:59:06.549Z</time>
      </trkpt>
      <trkpt lat="41.99213" lon="43.24732">
        <ele>334.74254</ele>
        <time>2021-08-16T12:59:11.548Z</time>
      </trkpt>
      <trkpt lat="41.99188" lon="43.24724">
        <ele>334.867671</ele>
        <time>2021-08-16T12:59:20.971Z</time>
      </trkpt>
      <trkpt lat="41.99161" lon="43.24732">
        <ele>335.0019</ele>
        <time>2021-08-16T12:59:30.637Z</time>
      </trkpt>
      <trkpt lat="41.99086" lon="43.24819">
        <ele>335.48626</ele>
        <time>2021-08-16T13:00:05.220Z</time>
      </trkpt>
      <trkpt lat="41.99064" lon="43.24863">
        <ele>335.674527</ele>
        <time>2021-08-16T13:00:21.978Z</time>
      </trkpt>
      <trkpt lat="41.99051" lon="43.24924">
        <ele>337.573503</ele>
        <time>2021-08-16T13:00:48.036Z</time>
      </trkpt>
      <trkpt lat="41.99038" lon="43.24951">
        <ele>339.137091</ele>
        <time>2021-08-16T13:01:03.059Z</time>
      </trkpt>
      <trkpt lat="41.99" lon="43.24983">
        <ele>342.112392</ele>
        <time>2021-08-16T13:01:34.625Z</time>
      </trkpt>
      <trkpt lat="41.98955" lon="43.25003">
        <ele>345.265528</ele>
        <time>2021-08-16T13:02:12.085Z</time>
      </trkpt>
      <trkpt lat="41.98927" lon="43.25">
        <ele>347.096552</ele>
        <time>2021-08-16T13:02:34.689Z</time>
      </trkpt>
      <trkpt lat="41.98886" lon="43.24973">
        <ele>349.855724</ele>
        <time>2021-08-16T13:03:13.370Z</time>
      </trkpt>
      <trkpt lat="41.98872" lon="43.24973">
        <ele>350.665766</ele>
        <time>2021-08-16T13:03:24.217Z</time>
      </trkpt>
      <trkpt lat="41.98854" lon="43.2498">
        <ele>351.816777</ele>
        <time>2021-08-16T13:03:40.082Z</time>
      </trkpt>
      <trkpt lat="41.98822" lon="43.2502">
        <ele>354.364943</ele>
        <time>2021-08-16T13:04:10.778Z</time>
      </trkpt>
      <trkpt lat="41.98811" lon="43.25057">
        <ele>356.121647</ele>
        <time>2021-08-16T13:04:28.711Z</time>
      </trkpt>
      <trkpt lat="41.98811" lon="43.25121">
        <ele>358.213066</ele>
        <time>2021-08-16T13:04:51.298Z</time>
      </trkpt>
      <trkpt lat="41.98804" lon="43.25157">
        <ele>357.941229</ele>
        <time>2021-08-16T13:05:02.029Z</time>
      </trkpt>
      <trkpt lat="41.9877" lon="43.25286">
        <ele>356.94261</ele>
        <time>2021-08-16T13:05:35.240Z</time>
      </trkpt>
      <trkpt lat="41.98747" lon="43.25311">
        <ele>356.645443</ele>
        <time>2021-08-16T13:05:44.838Z</time>
      </trkpt>
      <trkpt lat="41.98713" lon="43.25322">
        <ele>356.399595</ele>
        <time>2021-08-16T13:05:55.956Z</time>
      </trkpt>
      <trkpt lat="41.98695" lon="43.25334">
        <ele>356.279646</ele>
        <time>2021-08-16T13:06:02.551Z</time>
      </trkpt>
      <trkpt lat="41.98665" lon="43.25365">
        <ele>356.054739</ele>
        <time>2021-08-16T13:06:15.339Z</time>
      </trkpt>
      <trkpt lat="41.98597" lon="43.25464">
        <ele>355.511616</ele>
        <time>2021-08-16T13:06:52.770Z</time>
      </trkpt>
      <trkpt lat="41.98506" lon="43.25632">
        <ele>357.938974</ele>
        <time>2021-08-16T13:08:03.170Z</time>
      </trkpt>
      <trkpt lat="41.98491" lon="43.257">
        <ele>358.799713</ele>
        <time>2021-08-16T13:08:28.477Z</time>
      </trkpt>
      <trkpt lat="41.98406" lon="43.25885">
        <ele>361.347314</ele>
        <time>2021-08-16T13:09:43.583Z</time>
      </trkpt>
      <trkpt lat="41.9836" lon="43.26058">
        <ele>361.396543</ele>
        <time>2021-08-16T13:10:33.747Z</time>
      </trkpt>
      <trkpt lat="41.98325" lon="43.26138">
        <ele>361.431509</ele>
        <time>2021-08-16T13:10:57.476Z</time>
      </trkpt>
      <trkpt lat="41.98248" lon="43.26228">
        <ele>361.496924</ele>
        <time>2021-08-16T13:11:34.860Z</time>
      </trkpt>
      <trkpt lat="41.98204" lon="43.26267">
        <ele>361.76739</ele>
        <time>2021-08-16T13:11:56.907Z</time>
      </trkpt>
      <trkpt lat="41.98145" lon="43.263">
        <ele>363.044878</ele>
        <time>2021-08-16T13:12:26.936Z</time>
      </trkpt>
      <trkpt lat="41.98074" lon="43.26376">
        <ele>364.860049</ele>
        <time>2021-08-16T13:13:12.297Z</time>
      </trkpt>
      <trkpt lat="41.98068" lon="43.26389">
        <ele>365.092148</ele>
        <time>2021-08-16T13:13:18.126Z</time>
      </trkpt>
      <trkpt lat="41.98055" lon="43.26487">
        <ele>365.552681</ele>
        <time>2021-08-16T13:13:52.170Z</time>
      </trkpt>
      <trkpt lat="41.98018" lon="43.26597">
        <ele>366.077544</ele>
        <time>2021-08-16T13:14:26.725Z</time>
      </trkpt>
      <trkpt lat="41.98018" lon="43.26617">
        <ele>366.163471</ele>
        <time>2021-08-16T13:14:31.750Z</time>
      </trkpt>
      <trkpt lat="41.98037" lon="43.26695">
        <ele>365.172384</ele>
        <time>2021-08-16T13:14:51.451Z</time>
      </trkpt>
      <trkpt lat="41.98029" lon="43.26774">
        <ele>364.14414</ele>
        <time>2021-08-16T13:15:10.176Z</time>
      </trkpt>
      <trkpt lat="41.98013" lon="43.26814">
        <ele>363.553412</ele>
        <time>2021-08-16T13:15:21.361Z</time>
      </trkpt>
      <trkpt lat="41.97981" lon="43.26848">
        <ele>363.101379</ele>
        <time>2021-08-16T13:15:35.195Z</time>
      </trkpt>
      <trkpt lat="41.97964" lon="43.26862">
        <ele>363.189183</ele>
        <time>2021-08-16T13:15:42.266Z</time>
      </trkpt>
      <trkpt lat="41.97952" lon="43.2687">
        <ele>363.244187</ele>
        <time>2021-08-16T13:15:47.375Z</time>
      </trkpt>
      <trkpt lat="41.97923" lon="43.26884">
        <ele>363.375575</ele>
        <time>2021-08-16T13:15:58.946Z</time>
      </trkpt>
      <trkpt lat="41.97905" lon="43.26888">
        <ele>363.449336</ele>
        <time>2021-08-16T13:16:05.585Z</time>
      </trkpt>
      <trkpt lat="41.97869" lon="43.26932">
        <ele>363.65478</ele>
        <time>2021-08-16T13:16:25.471Z</time>
      </trkpt>
      <trkpt lat="41.97825" lon="43.27024">
        <ele>364.444557</ele>
        <time>2021-08-16T13:17:04.655Z</time>
      </trkpt>
      <trkpt lat="41.978" lon="43.27057">
        <ele>364.946836</ele>
        <time>2021-08-16T13:17:20.557Z</time>
      </trkpt>
      <trkpt lat="41.97758" lon="43.2713">
        <ele>365.920054</ele>
        <time>2021-08-16T13:17:48.706Z</time>
      </trkpt>
      <trkpt lat="41.97718" lon="43.27214">
        <ele>368.756659</ele>
        <time>2021-08-16T13:18:18.731Z</time>
      </trkpt>
      <trkpt lat="41.97691" lon="43.27301">
        <ele>372.736953</ele>
        <time>2021-08-16T13:19:04.960Z</time>
      </trkpt>
      <trkpt lat="41.9769" lon="43.27319">
        <ele>373.506663</ele>
        <time>2021-08-16T13:19:15.244Z</time>
      </trkpt>
      <trkpt lat="41.97693" lon="43.27353">
        <ele>374.943301</ele>
        <time>2021-08-16T13:19:34.841Z</time>
      </trkpt>
      <trkpt lat="41.97695" lon="43.27379">
        <ele>376.02168</ele>
        <time>2021-08-16T13:19:50.124Z</time>
      </trkpt>
      <trkpt lat="41.9771" lon="43.27466">
        <ele>382.84014</ele>
        <time>2021-08-16T13:20:49.494Z</time>
      </trkpt>
      <trkpt lat="41.9775" lon="43.27568">
        <ele>392.31385</ele>
        <time>2021-08-16T13:22:15.428Z</time>
      </trkpt>
      <trkpt lat="41.97808" lon="43.2765">
        <ele>399.854956</ele>
        <time>2021-08-16T13:23:32.273Z</time>
      </trkpt>
      <trkpt lat="41.97855" lon="43.27728">
        <ele>405.303358</ele>
        <time>2021-08-16T13:24:26.557Z</time>
      </trkpt>
      <trkpt lat="41.97881" lon="43.27817">
        <ele>409.724447</ele>
        <time>2021-08-16T13:25:11.847Z</time>
      </trkpt>
      <trkpt lat="41.9793" lon="43.27934">
        <ele>410.747871</ele>
        <time>2021-08-16T13:25:57.452Z</time>
      </trkpt>
      <trkpt lat="41.97953" lon="43.27977">
        <ele>411.151655</ele>
        <time>2021-08-16T13:26:11.401Z</time>
      </trkpt>
      <trkpt lat="41.98015" lon="43.28061">
        <ele>409.343226</ele>
        <time>2021-08-16T13:26:39.364Z</time>
      </trkpt>
      <trkpt lat="41.98053" lon="43.28123">
        <ele>407.281291</ele>
        <time>2021-08-16T13:26:57.286Z</time>
      </trkpt>
      <trkpt lat="41.98066" lon="43.28222">
        <ele>404.556254</ele>
        <time>2021-08-16T13:27:19.413Z</time>
      </trkpt>
      <trkpt lat="41.98095" lon="43.28326">
        <ele>400.866555</ele>
        <time>2021-08-16T13:27:43.477Z</time>
      </trkpt>
      <trkpt lat="41.98101" lon="43.28387">
        <ele>398.82763</ele>
        <time>2021-08-16T13:27:56.737Z</time>
      </trkpt>
      <trkpt lat="41.98084" lon="43.2845">
        <ele>396.894148</ele>
        <time>2021-08-16T13:28:11.497Z</time>
      </trkpt>
      <trkpt lat="41.98088" lon="43.28505">
        <ele>395.995634</ele>
        <time>2021-08-16T13:28:23.763Z</time>
      </trkpt>
      <trkpt lat="41.98056" lon="43.28558">
        <ele>394.904634</ele>
        <time>2021-08-16T13:28:39.224Z</time>
      </trkpt>
      <trkpt lat="41.98023" lon="43.286">
        <ele>393.910013</ele>
        <time>2021-08-16T13:28:54.278Z</time>
      </trkpt>
      <trkpt lat="41.97992" lon="43.28624">
        <ele>393.616263</ele>
        <time>2021-08-16T13:29:07.843Z</time>
      </trkpt>
      <trkpt lat="41.97983" lon="43.28624">
        <ele>394.152991</ele>
        <time>2021-08-16T13:29:12.063Z</time>
      </trkpt>
      <trkpt lat="41.9793" lon="43.28592">
        <ele>397.365511</ele>
        <time>2021-08-16T13:29:45.084Z</time>
      </trkpt>
      <trkpt lat="41.97878" lon="43.28593">
        <ele>400.220587</ele>
        <time>2021-08-16T13:30:21.492Z</time>
      </trkpt>
      <trkpt lat="41.97833" lon="43.28619">
        <ele>402.941817</ele>
        <time>2021-08-16T13:31:00.967Z</time>
      </trkpt>
      <trkpt lat="41.97815" lon="43.28636">
        <ele>404.372579</ele>
        <time>2021-08-16T13:31:19.764Z</time>
      </trkpt>
      <trkpt lat="41.978" lon="43.28661">
        <ele>405.99816</ele>
        <time>2021-08-16T13:31:40.213Z</time>
      </trkpt>
      <trkpt lat="41.97772" lon="43.28726">
        <ele>409.712661</ele>
        <time>2021-08-16T13:32:25.509Z</time>
      </trkpt>
      <trkpt lat="41.97746" lon="43.28812">
        <ele>414.362591</ele>
        <time>2021-08-16T13:33:12.543Z</time>
      </trkpt>
      <trkpt lat="41.97721" lon="43.28861">
        <ele>414.079812</ele>
        <time>2021-08-16T13:33:32.744Z</time>
      </trkpt>
      <trkpt lat="41.97715" lon="43.28888">
        <ele>413.215918</ele>
        <time>2021-08-16T13:33:40.112Z</time>
      </trkpt>
      <trkpt lat="41.97713" lon="43.28954">
        <ele>411.221688</ele>
        <time>2021-08-16T13:33:55.160Z</time>
      </trkpt>
      <trkpt lat="41.97723" lon="43.29172">
        <ele>401.258581</ele>
        <time>2021-08-16T13:34:37.984Z</time>
      </trkpt>
      <trkpt lat="41.97722" lon="43.29199">
        <ele>399.633505</ele>
        <time>2021-08-16T13:34:43.100Z</time>
      </trkpt>
      <trkpt lat="41.97714" lon="43.29228">
        <ele>397.811833</ele>
        <time>2021-08-16T13:34:48.954Z</time>
      </trkpt>
      <trkpt lat="41.97705" lon="43.29249">
        <ele>396.351965</ele>
        <time>2021-08-16T13:34:53.647Z</time>
      </trkpt>
      <trkpt lat="41.97696" lon="43.29259">
        <ele>395.403333</ele>
        <time>2021-08-16T13:34:56.753Z</time>
      </trkpt>
      <trkpt lat="41.97683" lon="43.29263">
        <ele>394.3055</ele>
        <time>2021-08-16T13:35:00.512Z</time>
      </trkpt>
      <trkpt lat="41.97667" lon="43.29261">
        <ele>393.403104</ele>
        <time>2021-08-16T13:35:05.469Z</time>
      </trkpt>
      <trkpt lat="41.97621" lon="43.29229">
        <ele>393.227553</ele>
        <time>2021-08-16T13:35:21.450Z</time>
      </trkpt>
      <trkpt lat="41.97611" lon="43.29225">
        <ele>393.194144</ele>
        <time>2021-08-16T13:35:25.408Z</time>
      </trkpt>
      <trkpt lat="41.976" lon="43.29226">
        <ele>393.156198</ele>
        <time>2021-08-16T13:35:30.053Z</time>
      </trkpt>
      <trkpt lat="41.97563" lon="43.29244">
        <ele>393.025518</ele>
        <time>2021-08-16T13:35:39.682Z</time>
      </trkpt>
      <trkpt lat="41.97553" lon="43.29249">
        <ele>392.989418</ele>
        <time>2021-08-16T13:35:43.473Z</time>
      </trkpt>
      <trkpt lat="41.97537" lon="43.29265">
        <ele>392.92181</ele>
        <time>2021-08-16T13:35:55.406Z</time>
      </trkpt>
      <trkpt lat="41.97525" lon="43.29287">
        <ele>392.853808</ele>
        <time>2021-08-16T13:36:04.689Z</time>
      </trkpt>
      <trkpt lat="41.97521" lon="43.29324">
        <ele>393.24779</ele>
        <time>2021-08-16T13:36:19.987Z</time>
      </trkpt>
      <trkpt lat="41.97526" lon="43.29349">
        <ele>393.760657</ele>
        <time>2021-08-16T13:36:31.896Z</time>
      </trkpt>
      <trkpt lat="41.9758" lon="43.29443">
        <ele>396.039706</ele>
        <time>2021-08-16T13:37:20.375Z</time>
      </trkpt>
      <trkpt lat="41.9759" lon="43.29468">
        <ele>396.599076</ele>
        <time>2021-08-16T13:37:29.592Z</time>
      </trkpt>
      <trkpt lat="41.97593" lon="43.29491">
        <ele>397.058591</ele>
        <time>2021-08-16T13:37:36.869Z</time>
      </trkpt>
      <trkpt lat="41.97592" lon="43.29525">
        <ele>397.567873</ele>
        <time>2021-08-16T13:37:47.040Z</time>
      </trkpt>
      <trkpt lat="41.97579" lon="43.29574">
        <ele>397.891935</ele>
        <time>2021-08-16T13:38:02.096Z</time>
      </trkpt>
      <trkpt lat="41.97558" lon="43.2962">
        <ele>398.232869</ele>
        <time>2021-08-16T13:38:17.601Z</time>
      </trkpt>
      <trkpt lat="41.97484" lon="43.29911">
        <ele>400.168019</ele>
        <time>2021-08-16T13:39:54.845Z</time>
      </trkpt>
      <trkpt lat="41.97459" lon="43.29983">
        <ele>400.453007</ele>
        <time>2021-08-16T13:40:18.743Z</time>
      </trkpt>
      <trkpt lat="41.97428" lon="43.30129">
        <ele>399.774654</ele>
        <time>2021-08-16T13:40:58.162Z</time>
      </trkpt>
      <trkpt lat="41.97376" lon="43.30299">
        <ele>400.150015</ele>
        <time>2021-08-16T13:41:45.705Z</time>
      </trkpt>
      <trkpt lat="41.97368" lon="43.3032">
        <ele>400.288591</ele>
        <time>2021-08-16T13:41:51.940Z</time>
      </trkpt>
      <trkpt lat="41.97341" lon="43.30362">
        <ele>400.624361</ele>
        <time>2021-08-16T13:42:11.498Z</time>
      </trkpt>
      <trkpt lat="41.97331" lon="43.30386">
        <ele>400.791143</ele>
        <time>2021-08-16T13:42:21.990Z</time>
      </trkpt>
      <trkpt lat="41.97326" lon="43.30421">
        <ele>401.517447</ele>
        <time>2021-08-16T13:42:36.103Z</time>
      </trkpt>
      <trkpt lat="41.97327" lon="43.30439">
        <ele>402.294205</ele>
        <time>2021-08-16T13:42:44.108Z</time>
      </trkpt>
      <trkpt lat="41.97347" lon="43.30506">
        <ele>405.35282</ele>
        <time>2021-08-16T13:43:08.712Z</time>
      </trkpt>
      <trkpt lat="41.9735" lon="43.30518">
        <ele>405.883611</ele>
        <time>2021-08-16T13:43:14.958Z</time>
      </trkpt>
      <trkpt lat="41.97353" lon="43.30539">
        <ele>406.798383</ele>
        <time>2021-08-16T13:43:26.871Z</time>
      </trkpt>
      <trkpt lat="41.97318" lon="43.30836">
        <ele>422.031325</ele>
        <time>2021-08-16T13:46:08.765Z</time>
      </trkpt>
      <trkpt lat="41.97319" lon="43.30856">
        <ele>423.110811</ele>
        <time>2021-08-16T13:46:22.047Z</time>
      </trkpt>
      <trkpt lat="41.97338" lon="43.30899">
        <ele>425.747762</ele>
        <time>2021-08-16T13:46:51.011Z</time>
      </trkpt>
      <trkpt lat="41.97339" lon="43.30924">
        <ele>427.019544</ele>
        <time>2021-08-16T13:47:03.622Z</time>
      </trkpt>
      <trkpt lat="41.97333" lon="43.30937">
        <ele>427.777707</ele>
        <time>2021-08-16T13:47:14.562Z</time>
      </trkpt>
      <trkpt lat="41.97327" lon="43.30945">
        <ele>428.402504</ele>
        <time>2021-08-16T13:47:21.340Z</time>
      </trkpt>
      <trkpt lat="41.97291" lon="43.30983">
        <ele>431.510529</ele>
        <time>2021-08-16T13:47:54.906Z</time>
      </trkpt>
      <trkpt lat="41.97252" lon="43.31055">
        <ele>436.044052</ele>
        <time>2021-08-16T13:48:41.749Z</time>
      </trkpt>
      <trkpt lat="41.97228" lon="43.31101">
        <ele>436.698286</ele>
        <time>2021-08-16T13:49:07.009Z</time>
      </trkpt>
      <trkpt lat="41.97198" lon="43.31139">
        <ele>436.575606</ele>
        <time>2021-08-16T13:49:24.041Z</time>
      </trkpt>
      <trkpt lat="41.97176" lon="43.31156">
        <ele>436.501543</ele>
        <time>2021-08-16T13:49:32.768Z</time>
      </trkpt>
      <trkpt lat="41.97116" lon="43.31182">
        <ele>436.314299</ele>
        <time>2021-08-16T13:49:52.908Z</time>
      </trkpt>
      <trkpt lat="41.97074" lon="43.31213">
        <ele>434.77054</ele>
        <time>2021-08-16T13:50:06.899Z</time>
      </trkpt>
      <trkpt lat="41.97062" lon="43.31239">
        <ele>433.61866</ele>
        <time>2021-08-16T13:50:13.248Z</time>
      </trkpt>
      <trkpt lat="41.9706" lon="43.31256">
        <ele>432.944038</ele>
        <time>2021-08-16T13:50:16.983Z</time>
      </trkpt>
      <trkpt lat="41.97051" lon="43.31425">
        <ele>426.993618</ele>
        <time>2021-08-16T13:50:52.268Z</time>
      </trkpt>
      <trkpt lat="41.97039" lon="43.31467">
        <ele>426.973932</ele>
        <time>2021-08-16T13:51:02.406Z</time>
      </trkpt>
      <trkpt lat="41.97014" lon="43.31498">
        <ele>426.95449</ele>
        <time>2021-08-16T13:51:14.135Z</time>
      </trkpt>
      <trkpt lat="41.97012" lon="43.31501">
        <ele>426.952609</ele>
        <time>2021-08-16T13:51:14.991Z</time>
      </trkpt>
      <trkpt lat="41.97008" lon="43.31506">
        <ele>426.949477</ele>
        <time>2021-08-16T13:51:17.307Z</time>
      </trkpt>
      <trkpt lat="41.97006" lon="43.31516">
        <ele>426.944981</ele>
        <time>2021-08-16T13:51:21.134Z</time>
      </trkpt>
      <trkpt lat="41.9701" lon="43.31536">
        <ele>426.936019</ele>
        <time>2021-08-16T13:51:27.943Z</time>
      </trkpt>
      <trkpt lat="41.97046" lon="43.31597">
        <ele>426.902705</ele>
        <time>2021-08-16T13:51:56.466Z</time>
      </trkpt>
      <trkpt lat="41.97049" lon="43.3163">
        <ele>427.546243</ele>
        <time>2021-08-16T13:52:10.015Z</time>
      </trkpt>
      <trkpt lat="41.97053" lon="43.31689">
        <ele>429.933268</ele>
        <time>2021-08-16T13:52:38.630Z</time>
      </trkpt>
      <trkpt lat="41.97051" lon="43.31761">
        <ele>432.821309</ele>
        <time>2021-08-16T13:53:15.791Z</time>
      </trkpt>
      <trkpt lat="41.97058" lon="43.31796">
        <ele>434.287126</ele>
        <time>2021-08-16T13:53:35.544Z</time>
      </trkpt>
      <trkpt lat="41.97076" lon="43.31843">
        <ele>436.392941</ele>
        <time>2021-08-16T13:54:03.341Z</time>
      </trkpt>
      <trkpt lat="41.97148" lon="43.31965">
        <ele>439.218534</ele>
        <time>2021-08-16T13:55:05.338Z</time>
      </trkpt>
      <trkpt lat="41.97155" lon="43.31985">
        <ele>439.61121</ele>
        <time>2021-08-16T13:55:12.394Z</time>
      </trkpt>
      <trkpt lat="41.97168" lon="43.32114">
        <ele>440.162921</ele>
        <time>2021-08-16T13:55:47.147Z</time>
      </trkpt>
      <trkpt lat="41.97187" lon="43.32172">
        <ele>439.489942</ele>
        <time>2021-08-16T13:56:02.639Z</time>
      </trkpt>
      <trkpt lat="41.97212" lon="43.32201">
        <ele>439.019127</ele>
        <time>2021-08-16T13:56:13.259Z</time>
      </trkpt>
      <trkpt lat="41.97292" lon="43.32274">
        <ele>438.140519</ele>
        <time>2021-08-16T13:56:44.974Z</time>
      </trkpt>
      <trkpt lat="41.97317" lon="43.32303">
        <ele>438.058686</ele>
        <time>2021-08-16T13:56:56.343Z</time>
      </trkpt>
      <trkpt lat="41.97376" lon="43.32351">
        <ele>437.88984</ele>
        <time>2021-08-16T13:57:21.423Z</time>
      </trkpt>
      <trkpt lat="41.97419" lon="43.3241">
        <ele>438.751738</ele>
        <time>2021-08-16T13:57:48.480Z</time>
      </trkpt>
      <trkpt lat="41.97503" lon="43.32468">
        <ele>442.253473</ele>
        <time>2021-08-16T13:58:40.537Z</time>
      </trkpt>
      <trkpt lat="41.9754" lon="43.32523">
        <ele>444.312461</ele>
        <time>2021-08-16T13:59:15.628Z</time>
      </trkpt>
      <trkpt lat="41.97557" lon="43.32571">
        <ele>446.255859</ele>
        <time>2021-08-16T13:59:41.611Z</time>
      </trkpt>
      <trkpt lat="41.97561" lon="43.32605">
        <ele>447.551141</ele>
        <time>2021-08-16T13:59:58.520Z</time>
      </trkpt>
      <trkpt lat="41.97559" lon="43.32687">
        <ele>450.656595</ele>
        <time>2021-08-16T14:00:38.555Z</time>
      </trkpt>
      <trkpt lat="41.97561" lon="43.32783">
        <ele>453.849281</ele>
        <time>2021-08-16T14:01:21.094Z</time>
      </trkpt>
      <trkpt lat="41.97568" lon="43.32829">
        <ele>454.528144</ele>
        <time>2021-08-16T14:01:39.360Z</time>
      </trkpt>
      <trkpt lat="41.97587" lon="43.32871">
        <ele>455.256869</ele>
        <time>2021-08-16T14:01:56.913Z</time>
      </trkpt>
      <trkpt lat="41.97655" lon="43.32947">
        <ele>456.985811</ele>
        <time>2021-08-16T14:02:34.073Z</time>
      </trkpt>
      <trkpt lat="41.97705" lon="43.32986">
        <ele>457.676616</ele>
        <time>2021-08-16T14:02:56.883Z</time>
      </trkpt>
      <trkpt lat="41.97739" lon="43.32998">
        <ele>458.056342</ele>
        <time>2021-08-16T14:03:09.885Z</time>
      </trkpt>
      <trkpt lat="41.97803" lon="43.3298">
        <ele>458.777253</ele>
        <time>2021-08-16T14:03:37.377Z</time>
      </trkpt>
      <trkpt lat="41.97829" lon="43.32979">
        <ele>459.061376</ele>
        <time>2021-08-16T14:03:49.372Z</time>
      </trkpt>
      <trkpt lat="41.97876" lon="43.33001">
        <ele>460.719796</ele>
        <time>2021-08-16T14:04:15.219Z</time>
      </trkpt>
      <trkpt lat="41.97906" lon="43.33035">
        <ele>462.096663</ele>
        <time>2021-08-16T14:04:38.892Z</time>
      </trkpt>
      <trkpt lat="41.97914" lon="43.33049">
        <ele>462.549488</ele>
        <time>2021-08-16T14:04:46.217Z</time>
      </trkpt>
      <trkpt lat="41.97924" lon="43.33067">
        <ele>463.113031</ele>
        <time>2021-08-16T14:04:56.662Z</time>
      </trkpt>
      <trkpt lat="41.9796" lon="43.33146">
        <ele>465.446388</ele>
        <time>2021-08-16T14:05:33.990Z</time>
      </trkpt>
      <trkpt lat="41.97984" lon="43.33187">
        <ele>466.391436</ele>
        <time>2021-08-16T14:05:54.768Z</time>
      </trkpt>
      <trkpt lat="41.97994" lon="43.33203">
        <ele>466.773659</ele>
        <time>2021-08-16T14:06:02.206Z</time>
      </trkpt>
      <trkpt lat="41.98015" lon="43.33327">
        <ele>469.078091</ele>
        <time>2021-08-16T14:06:48.777Z</time>
      </trkpt>
      <trkpt lat="41.98038" lon="43.3339">
        <ele>470.326829</ele>
        <time>2021-08-16T14:07:11.186Z</time>
      </trkpt>
      <trkpt lat="41.9804" lon="43.33408">
        <ele>470.653924</ele>
        <time>2021-08-16T14:07:17.013Z</time>
      </trkpt>
      <trkpt lat="41.98039" lon="43.33464">
        <ele>471.650848</ele>
        <time>2021-08-16T14:07:36.501Z</time>
      </trkpt>
      <trkpt lat="41.98027" lon="43.33573">
        <ele>473.597602</ele>
        <time>2021-08-16T14:08:19.220Z</time>
      </trkpt>
      <trkpt lat="41.98019" lon="43.33612">
        <ele>474.176398</ele>
        <time>2021-08-16T14:08:35.318Z</time>
      </trkpt>
      <trkpt lat="41.98021" lon="43.33651">
        <ele>474.588487</ele>
        <time>2021-08-16T14:08:50.587Z</time>
      </trkpt>
      <trkpt lat="41.98029" lon="43.33677">
        <ele>474.884894</ele>
        <time>2021-08-16T14:09:01.378Z</time>
      </trkpt>
      <trkpt lat="41.98149" lon="43.3387">
        <ele>475.942192</ele>
        <time>2021-08-16T14:10:15.597Z</time>
      </trkpt>
      <trkpt lat="41.98166" lon="43.33881">
        <ele>475.788391</ele>
        <time>2021-08-16T14:10:21.659Z</time>
      </trkpt>
      <trkpt lat="41.98236" lon="43.33895">
        <ele>475.21276</ele>
        <time>2021-08-16T14:10:44.564Z</time>
      </trkpt>
      <trkpt lat="41.98313" lon="43.33924">
        <ele>474.999628</ele>
        <time>2021-08-16T14:11:12.020Z</time>
      </trkpt>
      <trkpt lat="41.98333" lon="43.33952">
        <ele>474.971361</ele>
        <time>2021-08-16T14:11:22.441Z</time>
      </trkpt>
      <trkpt lat="41.98344" lon="43.33999">
        <ele>474.936038</ele>
        <time>2021-08-16T14:11:36.210Z</time>
      </trkpt>
      <trkpt lat="41.98344" lon="43.34021">
        <ele>474.919916</ele>
        <time>2021-08-16T14:11:43.053Z</time>
      </trkpt>
      <trkpt lat="41.98331" lon="43.34063">
        <ele>474.88692</ele>
        <time>2021-08-16T14:11:57.169Z</time>
      </trkpt>
      <trkpt lat="41.98321" lon="43.34081">
        <ele>475.155517</ele>
        <time>2021-08-16T14:12:04.479Z</time>
      </trkpt>
      <trkpt lat="41.98277" lon="43.34129">
        <ele>476.205689</ele>
        <time>2021-08-16T14:12:30.976Z</time>
      </trkpt>
      <trkpt lat="41.9827" lon="43.3414">
        <ele>476.414451</ele>
        <time>2021-08-16T14:12:36.656Z</time>
      </trkpt>
      <trkpt lat="41.98267" lon="43.34156">
        <ele>476.642743</ele>
        <time>2021-08-16T14:12:42.579Z</time>
      </trkpt>
      <trkpt lat="41.98267" lon="43.34171">
        <ele>476.856101</ele>
        <time>2021-08-16T14:12:48.203Z</time>
      </trkpt>
      <trkpt lat="41.98281" lon="43.34215">
        <ele>477.524046</ele>
        <time>2021-08-16T14:13:05.006Z</time>
      </trkpt>
      <trkpt lat="41.98287" lon="43.34257">
        <ele>478.119415</ele>
        <time>2021-08-16T14:13:19.680Z</time>
      </trkpt>
      <trkpt lat="41.98283" lon="43.34356">
        <ele>479.571724</ele>
        <time>2021-08-16T14:13:53.771Z</time>
      </trkpt>
      <trkpt lat="41.9827" lon="43.34393">
        <ele>480.187692</ele>
        <time>2021-08-16T14:14:08.576Z</time>
      </trkpt>
      <trkpt lat="41.98244" lon="43.34442">
        <ele>481.064529</ele>
        <time>2021-08-16T14:14:29.809Z</time>
      </trkpt>
      <trkpt lat="41.9824" lon="43.34462">
        <ele>481.368788</ele>
        <time>2021-08-16T14:14:37.063Z</time>
      </trkpt>
      <trkpt lat="41.98243" lon="43.34525">
        <ele>482.489378</ele>
        <time>2021-08-16T14:14:58.796Z</time>
      </trkpt>
      <trkpt lat="41.98245" lon="43.34553">
        <ele>483.082417</ele>
        <time>2021-08-16T14:15:08.659Z</time>
      </trkpt>
      <trkpt lat="41.98236" lon="43.34626">
        <ele>484.598689</ele>
        <time>2021-08-16T14:15:34.985Z</time>
      </trkpt>
      <trkpt lat="41.98167" lon="43.34736">
        <ele>488.160037</ele>
        <time>2021-08-16T14:16:34.013Z</time>
      </trkpt>
      <trkpt lat="41.98162" lon="43.34757">
        <ele>488.966785</ele>
        <time>2021-08-16T14:16:43.453Z</time>
      </trkpt>
      <trkpt lat="41.98162" lon="43.34781">
        <ele>489.860131</ele>
        <time>2021-08-16T14:16:53.781Z</time>
      </trkpt>
      <trkpt lat="41.98167" lon="43.34803">
        <ele>490.70488</ele>
        <time>2021-08-16T14:17:04.111Z</time>
      </trkpt>
      <trkpt lat="41.9819" lon="43.34847">
        <ele>492.682324</ele>
        <time>2021-08-16T14:17:29.337Z</time>
      </trkpt>
      <trkpt lat="41.98194" lon="43.34863">
        <ele>493.314928</ele>
        <time>2021-08-16T14:17:37.634Z</time>
      </trkpt>
      <trkpt lat="41.98194" lon="43.34874">
        <ele>493.712239</ele>
        <time>2021-08-16T14:17:42.974Z</time>
      </trkpt>
      <trkpt lat="41.98182" lon="43.34915">
        <ele>495.318724</ele>
        <time>2021-08-16T14:18:05.318Z</time>
      </trkpt>
      <trkpt lat="41.9816" lon="43.34961">
        <ele>497.257975</ele>
        <time>2021-08-16T14:18:34.048Z</time>
      </trkpt>
      <trkpt lat="41.98088" lon="43.34986">
        <ele>500.726587</ele>
        <time>2021-08-16T14:19:20.639Z</time>
      </trkpt>
      <trkpt lat="41.98051" lon="43.35031">
        <ele>503.057962</ele>
        <time>2021-08-16T14:19:48.978Z</time>
      </trkpt>
      <trkpt lat="41.98033" lon="43.35063">
        <ele>504.148614</ele>
        <time>2021-08-16T14:20:05.285Z</time>
      </trkpt>
      <trkpt lat="41.98026" lon="43.35084">
        <ele>504.152075</ele>
        <time>2021-08-16T14:20:13.792Z</time>
      </trkpt>
      <trkpt lat="41.98023" lon="43.35125">
        <ele>504.158518</ele>
        <time>2021-08-16T14:20:28.606Z</time>
      </trkpt>
      <trkpt lat="41.98005" lon="43.35158">
        <ele>504.164711</ele>
        <time>2021-08-16T14:20:40.894Z</time>
      </trkpt>
      <trkpt lat="41.97988" lon="43.35173">
        <ele>504.169069</ele>
        <time>2021-08-16T14:20:48.292Z</time>
      </trkpt>
      <trkpt lat="41.9796" lon="43.35186">
        <ele>504.17506</ele>
        <time>2021-08-16T14:20:57.906Z</time>
      </trkpt>
      <trkpt lat="41.9794" lon="43.3519">
        <ele>504.179242</ele>
        <time>2021-08-16T14:21:04.362Z</time>
      </trkpt>
      <trkpt lat="41.97912" lon="43.35182">
        <ele>504.133298</ele>
        <time>2021-08-16T14:21:13.438Z</time>
      </trkpt>
      <trkpt lat="41.97901" lon="43.35184">
        <ele>503.986074</ele>
        <time>2021-08-16T14:21:16.937Z</time>
      </trkpt>
      <trkpt lat="41.97894" lon="43.35193">
        <ele>503.861111</ele>
        <time>2021-08-16T14:21:19.884Z</time>
      </trkpt>
      <trkpt lat="41.97887" lon="43.35226">
        <ele>503.52578</ele>
        <time>2021-08-16T14:21:27.893Z</time>
      </trkpt>
      <trkpt lat="41.97863" lon="43.35276">
        <ele>502.955295</ele>
        <time>2021-08-16T14:21:42.601Z</time>
      </trkpt>
      <trkpt lat="41.9787" lon="43.35385">
        <ele>501.902933</ele>
        <time>2021-08-16T14:22:11.649Z</time>
      </trkpt>
      <trkpt lat="41.9788" lon="43.3542">
        <ele>502.061503</ele>
        <time>2021-08-16T14:22:21.981Z</time>
      </trkpt>
      <trkpt lat="41.97904" lon="43.35396">
        <ele>502.317773</ele>
        <time>2021-08-16T14:22:34.951Z</time>
      </trkpt>
      <trkpt lat="41.97916" lon="43.35397">
        <ele>502.423656</ele>
        <time>2021-08-16T14:22:40.117Z</time>
      </trkpt>
      <trkpt lat="41.98035" lon="43.35527">
        <ele>503.123223</ele>
        <time>2021-08-16T14:23:46.417Z</time>
      </trkpt>
      <trkpt lat="41.98046" lon="43.35558">
        <ele>502.932189</ele>
        <time>2021-08-16T14:23:55.358Z</time>
      </trkpt>
      <trkpt lat="41.98041" lon="43.35579">
        <ele>502.817012</ele>
        <time>2021-08-16T14:24:00.598Z</time>
      </trkpt>
      <trkpt lat="41.98017" lon="43.35655">
        <ele>502.360038</ele>
        <time>2021-08-16T14:24:21.499Z</time>
      </trkpt>
      <trkpt lat="41.98009" lon="43.35663">
        <ele>502.288198</ele>
        <time>2021-08-16T14:24:23.395Z</time>
      </trkpt>
      <trkpt lat="41.98017" lon="43.35673">
        <ele>502.211525</ele>
        <time>2021-08-16T14:24:26.924Z</time>
      </trkpt>
      <trkpt lat="41.98032" lon="43.35715">
        <ele>501.975651</ele>
        <time>2021-08-16T14:24:38.414Z</time>
      </trkpt>
      <trkpt lat="41.98032" lon="43.35826">
        <ele>501.467562</ele>
        <time>2021-08-16T14:25:06.161Z</time>
      </trkpt>
      <trkpt lat="41.98055" lon="43.35946">
        <ele>501.111935</ele>
        <time>2021-08-16T14:25:42.619Z</time>
      </trkpt>
      <trkpt lat="41.98083" lon="43.36007">
        <ele>501.67945</ele>
        <time>2021-08-16T14:26:04.368Z</time>
      </trkpt>
      <trkpt lat="41.98111" lon="43.36109">
        <ele>502.553105</ele>
        <time>2021-08-16T14:26:38.624Z</time>
      </trkpt>
      <trkpt lat="41.98151" lon="43.36184">
        <ele>504.41633</ele>
        <time>2021-08-16T14:27:09.181Z</time>
      </trkpt>
      <trkpt lat="41.98181" lon="43.36238">
        <ele>506.568326</ele>
        <time>2021-08-16T14:27:36.408Z</time>
      </trkpt>
      <trkpt lat="41.98189" lon="43.36255">
        <ele>507.24066</ele>
        <time>2021-08-16T14:27:47.098Z</time>
      </trkpt>
      <trkpt lat="41.98194" lon="43.3628">
        <ele>508.046263</ele>
        <time>2021-08-16T14:27:59.639Z</time>
      </trkpt>
      <trkpt lat="41.98193" lon="43.36292">
        <ele>508.435938</ele>
        <time>2021-08-16T14:28:05.519Z</time>
      </trkpt>
      <trkpt lat="41.98187" lon="43.36322">
        <ele>509.427646</ele>
        <time>2021-08-16T14:28:21.724Z</time>
      </trkpt>
      <trkpt lat="41.98185" lon="43.36373">
        <ele>511.037413</ele>
        <time>2021-08-16T14:28:47.122Z</time>
      </trkpt>
      <trkpt lat="41.98185" lon="43.36393">
        <ele>511.600727</ele>
        <time>2021-08-16T14:28:56.204Z</time>
      </trkpt>
      <trkpt lat="41.98171" lon="43.36395">
        <ele>512.156989</ele>
        <time>2021-08-16T14:29:04.176Z</time>
      </trkpt>
      <trkpt lat="41.98149" lon="43.36402">
        <ele>513.071798</ele>
        <time>2021-08-16T14:29:14.778Z</time>
      </trkpt>
      <trkpt lat="41.9814" lon="43.36412">
        <ele>513.502728</ele>
        <time>2021-08-16T14:29:20.972Z</time>
      </trkpt>
      <trkpt lat="41.98132" lon="43.36496">
        <ele>515.985249</ele>
        <time>2021-08-16T14:29:49.299Z</time>
      </trkpt>
      <trkpt lat="41.9816" lon="43.36727">
        <ele>518.230362</ele>
        <time>2021-08-16T14:30:33.036Z</time>
      </trkpt>
      <trkpt lat="41.98168" lon="43.36749">
        <ele>518.297483</ele>
        <time>2021-08-16T14:30:36.298Z</time>
      </trkpt>
      <trkpt lat="41.98245" lon="43.36866">
        <ele>519.634839</ele>
        <time>2021-08-16T14:31:01.751Z</time>
      </trkpt>
      <trkpt lat="41.98259" lon="43.36896">
        <ele>520.022361</ele>
        <time>2021-08-16T14:31:10.537Z</time>
      </trkpt>
      <trkpt lat="41.98264" lon="43.3692">
        <ele>520.289912</ele>
        <time>2021-08-16T14:31:17.044Z</time>
      </trkpt>
      <trkpt lat="41.98268" lon="43.36953">
        <ele>520.656915</ele>
        <time>2021-08-16T14:31:26.327Z</time>
      </trkpt>
      <trkpt lat="41.98264" lon="43.36976">
        <ele>520.909664</ele>
        <time>2021-08-16T14:31:32.969Z</time>
      </trkpt>
      <trkpt lat="41.98253" lon="43.36994">
        <ele>521.290102</ele>
        <time>2021-08-16T14:31:39.616Z</time>
      </trkpt>
      <trkpt lat="41.98226" lon="43.3702">
        <ele>522.23824</ele>
        <time>2021-08-16T14:31:52.829Z</time>
      </trkpt>
      <trkpt lat="41.98217" lon="43.37039">
        <ele>522.737778</ele>
        <time>2021-08-16T14:32:00.056Z</time>
      </trkpt>
      <trkpt lat="41.98216" lon="43.37073">
        <ele>523.490285</ele>
        <time>2021-08-16T14:32:11.320Z</time>
      </trkpt>
      <trkpt lat="41.98332" lon="43.37579">
        <ele>535.357187</ele>
        <time>2021-08-16T14:34:31.688Z</time>
      </trkpt>
      <trkpt lat="41.98419" lon="43.37999">
        <ele>548.96011</ele>
        <time>2021-08-16T14:36:52.918Z</time>
      </trkpt>
      <trkpt lat="41.98421" lon="43.38061">
        <ele>551.185823</ele>
        <time>2021-08-16T14:37:14.208Z</time>
      </trkpt>
      <trkpt lat="41.98415" lon="43.38176">
        <ele>555.671694</ele>
        <time>2021-08-16T14:38:10.332Z</time>
      </trkpt>
      <trkpt lat="41.98402" lon="43.38289">
        <ele>560.679207</ele>
        <time>2021-08-16T14:39:08.026Z</time>
      </trkpt>
      <trkpt lat="41.98393" lon="43.38326">
        <ele>562.403839</ele>
        <time>2021-08-16T14:39:28.875Z</time>
      </trkpt>
      <trkpt lat="41.98388" lon="43.38372">
        <ele>564.355143</ele>
        <time>2021-08-16T14:39:52.017Z</time>
      </trkpt>
      <trkpt lat="41.98402" lon="43.38478">
        <ele>566.927673</ele>
        <time>2021-08-16T14:40:40.083Z</time>
      </trkpt>
      <trkpt lat="41.98414" lon="43.38531">
        <ele>568.257289</ele>
        <time>2021-08-16T14:40:57.148Z</time>
      </trkpt>
      <trkpt lat="41.98429" lon="43.38599">
        <ele>569.988315</ele>
        <time>2021-08-16T14:41:11.461Z</time>
      </trkpt>
      <trkpt lat="41.98438" lon="43.38644">
        <ele>569.339255</ele>
        <time>2021-08-16T14:41:18.883Z</time>
      </trkpt>
      <trkpt lat="41.98419" lon="43.38717">
        <ele>568.011067</ele>
        <time>2021-08-16T14:41:29.899Z</time>
      </trkpt>
      <trkpt lat="41.98417" lon="43.38765">
        <ele>567.196918</ele>
        <time>2021-08-16T14:41:35.761Z</time>
      </trkpt>
      <trkpt lat="41.98407" lon="43.38786">
        <ele>566.767627</ele>
        <time>2021-08-16T14:41:38.890Z</time>
      </trkpt>
      <trkpt lat="41.98363" lon="43.38818">
        <ele>565.421963</ele>
        <time>2021-08-16T14:41:47.033Z</time>
      </trkpt>
      <trkpt lat="41.98357" lon="43.38827">
        <ele>565.076281</ele>
        <time>2021-08-16T14:41:48.578Z</time>
      </trkpt>
      <trkpt lat="41.98345" lon="43.38898">
        <ele>563.032953</ele>
        <time>2021-08-16T14:41:57.522Z</time>
      </trkpt>
      <trkpt lat="41.98338" lon="43.38905">
        <ele>562.702827</ele>
        <time>2021-08-16T14:41:58.878Z</time>
      </trkpt>
      <trkpt lat="41.98303" lon="43.38924">
        <ele>561.279511</ele>
        <time>2021-08-16T14:42:05.050Z</time>
      </trkpt>
      <trkpt lat="41.98274" lon="43.38961">
        <ele>559.737514</ele>
        <time>2021-08-16T14:42:11.766Z</time>
      </trkpt>
      <trkpt lat="41.98256" lon="43.39">
        <ele>559.053826</ele>
        <time>2021-08-16T14:42:17.667Z</time>
      </trkpt>
      <trkpt lat="41.98247" lon="43.39011">
        <ele>558.998706</ele>
        <time>2021-08-16T14:42:19.985Z</time>
      </trkpt>
      <trkpt lat="41.98228" lon="43.39024">
        <ele>558.906807</ele>
        <time>2021-08-16T14:42:23.725Z</time>
      </trkpt>
      <trkpt lat="41.98186" lon="43.39039">
        <ele>558.711645</ele>
        <time>2021-08-16T14:42:32.891Z</time>
      </trkpt>
      <trkpt lat="41.98144" lon="43.39039">
        <ele>558.527229</ele>
        <time>2021-08-16T14:42:42.898Z</time>
      </trkpt>
      <trkpt lat="41.9811" lon="43.39052">
        <ele>558.370216</ele>
        <time>2021-08-16T14:42:52.906Z</time>
      </trkpt>
      <trkpt lat="41.98067" lon="43.3908">
        <ele>559.54266</ele>
        <time>2021-08-16T14:43:08.208Z</time>
      </trkpt>
      <trkpt lat="41.9805" lon="43.39084">
        <ele>560.054685</ele>
        <time>2021-08-16T14:43:14.098Z</time>
      </trkpt>
      <trkpt lat="41.98014" lon="43.39072">
        <ele>561.174441</ele>
        <time>2021-08-16T14:43:27.881Z</time>
      </trkpt>
      <trkpt lat="41.97996" lon="43.39076">
        <ele>561.720014</ele>
        <time>2021-08-16T14:43:35.399Z</time>
      </trkpt>
      <trkpt lat="41.97975" lon="43.39095">
        <ele>562.50096</ele>
        <time>2021-08-16T14:43:46.576Z</time>
      </trkpt>
      <trkpt lat="41.97944" lon="43.39142">
        <ele>563.91343</ele>
        <time>2021-08-16T14:44:04.856Z</time>
      </trkpt>
      <trkpt lat="41.97854" lon="43.3917">
        <ele>566.78746</ele>
        <time>2021-08-16T14:44:45.874Z</time>
      </trkpt>
      <trkpt lat="41.97803" lon="43.39239">
        <ele>569.025846</ele>
        <time>2021-08-16T14:45:09.954Z</time>
      </trkpt>
      <trkpt lat="41.97789" lon="43.39249">
        <ele>569.400723</ele>
        <time>2021-08-16T14:45:14.270Z</time>
      </trkpt>
      <trkpt lat="41.9776" lon="43.39254">
        <ele>569.774372</ele>
        <time>2021-08-16T14:45:23.245Z</time>
      </trkpt>
      <trkpt lat="41.97754" lon="43.39282">
        <ele>570.048942</ele>
        <time>2021-08-16T14:45:28.606Z</time>
      </trkpt>
      <trkpt lat="41.97757" lon="43.39303">
        <ele>570.25493</ele>
        <time>2021-08-16T14:45:33.339Z</time>
      </trkpt>
      <trkpt lat="41.97762" lon="43.39327">
        <ele>570.487076</ele>
        <time>2021-08-16T14:45:37.813Z</time>
      </trkpt>
      <trkpt lat="41.97766" lon="43.39366">
        <ele>570.86103</ele>
        <time>2021-08-16T14:45:45.135Z</time>
      </trkpt>
      <trkpt lat="41.97756" lon="43.39387">
        <ele>571.088377</ele>
        <time>2021-08-16T14:45:50.430Z</time>
      </trkpt>
      <trkpt lat="41.97731" lon="43.3941">
        <ele>571.475779</ele>
        <time>2021-08-16T14:45:58.463Z</time>
      </trkpt>
      <trkpt lat="41.97721" lon="43.3943">
        <ele>572.036656</ele>
        <time>2021-08-16T14:46:03.238Z</time>
      </trkpt>
      <trkpt lat="41.97714" lon="43.39452">
        <ele>572.968388</ele>
        <time>2021-08-16T14:46:10.613Z</time>
      </trkpt>
      <trkpt lat="41.97673" lon="43.39559">
        <ele>577.846382</ele>
        <time>2021-08-16T14:46:50.614Z</time>
      </trkpt>
      <trkpt lat="41.97667" lon="43.39587">
        <ele>579.019051</ele>
        <time>2021-08-16T14:47:07.728Z</time>
      </trkpt>
      <trkpt lat="41.97671" lon="43.39591">
        <ele>579.267753</ele>
        <time>2021-08-16T14:47:09.665Z</time>
      </trkpt>
      <trkpt lat="41.97676" lon="43.39602">
        <ele>579.810084</ele>
        <time>2021-08-16T14:47:13.826Z</time>
      </trkpt>
      <trkpt lat="41.97679" lon="43.39607">
        <ele>580.024327</ele>
        <time>2021-08-16T14:47:19.249Z</time>
      </trkpt>
      <trkpt lat="41.97688" lon="43.39637">
        <ele>581.337587</ele>
        <time>2021-08-16T14:47:32.816Z</time>
      </trkpt>
      <trkpt lat="41.97688" lon="43.39664">
        <ele>583.015762</ele>
        <time>2021-08-16T14:47:47.511Z</time>
      </trkpt>
      <trkpt lat="41.97699" lon="43.39715">
        <ele>586.333261</ele>
        <time>2021-08-16T14:48:14.047Z</time>
      </trkpt>
      <trkpt lat="41.97707" lon="43.39733">
        <ele>587.670065</ele>
        <time>2021-08-16T14:48:21.235Z</time>
      </trkpt>
      <trkpt lat="41.97722" lon="43.3976">
        <ele>589.74214</ele>
        <time>2021-08-16T14:48:41.629Z</time>
      </trkpt>
      <trkpt lat="41.97746" lon="43.39774">
        <ele>591.913361</ele>
        <time>2021-08-16T14:48:59.408Z</time>
      </trkpt>
      <trkpt lat="41.97779" lon="43.39802">
        <ele>595.200903</ele>
        <time>2021-08-16T14:49:23.121Z</time>
      </trkpt>
      <trkpt lat="41.97795" lon="43.39818">
        <ele>596.800058</ele>
        <time>2021-08-16T14:49:33.311Z</time>
      </trkpt>
      <trkpt lat="41.97809" lon="43.39833">
        <ele>598.094538</ele>
        <time>2021-08-16T14:49:47.004Z</time>
      </trkpt>
      <trkpt lat="41.97841" lon="43.3989">
        <ele>601.889534</ele>
        <time>2021-08-16T14:50:16.734Z</time>
      </trkpt>
      <trkpt lat="41.97864" lon="43.39906">
        <ele>603.715103</ele>
        <time>2021-08-16T14:50:31.111Z</time>
      </trkpt>
      <trkpt lat="41.97883" lon="43.39923">
        <ele>605.36813</ele>
        <time>2021-08-16T14:50:43.828Z</time>
      </trkpt>
      <trkpt lat="41.9789" lon="43.39929">
        <ele>605.969517</ele>
        <time>2021-08-16T14:50:49.965Z</time>
      </trkpt>
      <trkpt lat="41.97955" lon="43.39985">
        <ele>611.30277</ele>
        <time>2021-08-16T14:51:35.712Z</time>
      </trkpt>
      <trkpt lat="41.9797" lon="43.40007">
        <ele>612.758957</ele>
        <time>2021-08-16T14:51:48.399Z</time>
      </trkpt>
      <trkpt lat="41.97988" lon="43.40078">
        <ele>616.437774</ele>
        <time>2021-08-16T14:52:22.645Z</time>
      </trkpt>
      <trkpt lat="41.98017" lon="43.40155">
        <ele>620.722571</ele>
        <time>2021-08-16T14:52:55.917Z</time>
      </trkpt>
      <trkpt lat="41.98064" lon="43.40219">
        <ele>623.779716</ele>
        <time>2021-08-16T14:53:28.513Z</time>
      </trkpt>
      <trkpt lat="41.98113" lon="43.40297">
        <ele>627.031684</ele>
        <time>2021-08-16T14:54:01.981Z</time>
      </trkpt>
      <trkpt lat="41.98171" lon="43.40433">
        <ele>631.205441</ele>
        <time>2021-08-16T14:54:48.033Z</time>
      </trkpt>
      <trkpt lat="41.98189" lon="43.40503">
        <ele>632.929951</ele>
        <time>2021-08-16T14:55:08.384Z</time>
      </trkpt>
      <trkpt lat="41.98196" lon="43.4058">
        <ele>634.867667</ele>
        <time>2021-08-16T14:55:29.503Z</time>
      </trkpt>
      <trkpt lat="41.98192" lon="43.40619">
        <ele>636.923474</ele>
        <time>2021-08-16T14:55:40.791Z</time>
      </trkpt>
      <trkpt lat="41.98204" lon="43.40644">
        <ele>638.412997</ele>
        <time>2021-08-16T14:55:52.300Z</time>
      </trkpt>
      <trkpt lat="41.98213" lon="43.4068">
        <ele>640.366032</ele>
        <time>2021-08-16T14:56:05.403Z</time>
      </trkpt>
      <trkpt lat="41.98222" lon="43.40687">
        <ele>641.135274</ele>
        <time>2021-08-16T14:56:14.012Z</time>
      </trkpt>
      <trkpt lat="41.98292" lon="43.40669">
        <ele>646.057996</ele>
        <time>2021-08-16T14:57:03.000Z</time>
      </trkpt>
      <trkpt lat="41.98315" lon="43.40653">
        <ele>648.33394</ele>
        <time>2021-08-16T14:57:20.042Z</time>
      </trkpt>
      <trkpt lat="41.98319" lon="43.40649">
        <ele>648.890111</ele>
        <time>2021-08-16T14:57:25.179Z</time>
      </trkpt>
      <trkpt lat="41.98337" lon="43.4067">
        <ele>651.498632</ele>
        <time>2021-08-16T14:57:40.496Z</time>
      </trkpt>
      <trkpt lat="41.98344" lon="43.40684">
        <ele>652.880025</ele>
        <time>2021-08-16T14:57:51.769Z</time>
      </trkpt>
      <trkpt lat="41.98362" lon="43.40706">
        <ele>655.539514</ele>
        <time>2021-08-16T14:58:08.328Z</time>
      </trkpt>
      <trkpt lat="41.98365" lon="43.40711">
        <ele>656.116858</ele>
        <time>2021-08-16T14:58:13.332Z</time>
      </trkpt>
      <trkpt lat="41.98379" lon="43.40717">
        <ele>657.697078</ele>
        <time>2021-08-16T14:58:25.234Z</time>
      </trkpt>
      <trkpt lat="41.98389" lon="43.40731">
        <ele>659.34986</ele>
        <time>2021-08-16T14:58:36.259Z</time>
      </trkpt>
      <trkpt lat="41.98397" lon="43.40757">
        <ele>661.648129</ele>
        <time>2021-08-16T14:58:54.902Z</time>
      </trkpt>
      <trkpt lat="41.98399" lon="43.40816">
        <ele>666.484666</ele>
        <time>2021-08-16T14:59:32.951Z</time>
      </trkpt>
      <trkpt lat="41.98444" lon="43.40932">
        <ele>679.050469</ele>
        <time>2021-08-16T15:00:51.677Z</time>
      </trkpt>
      <trkpt lat="41.98459" lon="43.40954">
        <ele>681.864123</ele>
        <time>2021-08-16T15:01:09.761Z</time>
      </trkpt>
      <trkpt lat="41.98552" lon="43.41054">
        <ele>699.75158</ele>
        <time>2021-08-16T15:03:06.762Z</time>
      </trkpt>
      <trkpt lat="41.98583" lon="43.41079">
        <ele>705.879846</ele>
        <time>2021-08-16T15:03:46.232Z</time>
      </trkpt>
      <trkpt lat="41.98621" lon="43.41098">
        <ele>712.941092</ele>
        <time>2021-08-16T15:04:33.671Z</time>
      </trkpt>
      <trkpt lat="41.98652" lon="43.41122">
        <ele>718.996558</ele>
        <time>2021-08-16T15:05:15.002Z</time>
      </trkpt>
      <trkpt lat="41.98704" lon="43.41185">
        <ele>730.607502</ele>
        <time>2021-08-16T15:06:38.325Z</time>
      </trkpt>
      <trkpt lat="41.98731" lon="43.41207">
        <ele>735.794916</ele>
        <time>2021-08-16T15:07:14.262Z</time>
      </trkpt>
      <trkpt lat="41.98808" lon="43.41228">
        <ele>748.743597</ele>
        <time>2021-08-16T15:08:34.092Z</time>
      </trkpt>
      <trkpt lat="41.98833" lon="43.41251">
        <ele>752.16273</ele>
        <time>2021-08-16T15:09:00.616Z</time>
      </trkpt>
      <trkpt lat="41.98849" lon="43.41311">
        <ele>755.891826</ele>
        <time>2021-08-16T15:09:35.798Z</time>
      </trkpt>
      <trkpt lat="41.98849" lon="43.41438">
        <ele>763.259093</ele>
        <time>2021-08-16T15:10:26.470Z</time>
      </trkpt>
      <trkpt lat="41.98833" lon="43.41543">
        <ele>766.186854</ele>
        <time>2021-08-16T15:10:58.088Z</time>
      </trkpt>
      <trkpt lat="41.98833" lon="43.41579">
        <ele>766.79595</ele>
        <time>2021-08-16T15:11:07.063Z</time>
      </trkpt>
      <trkpt lat="41.98836" lon="43.41621">
        <ele>767.512537</ele>
        <time>2021-08-16T15:11:17.052Z</time>
      </trkpt>
      <trkpt lat="41.98854" lon="43.41646">
        <ele>768.120836</ele>
        <time>2021-08-16T15:11:25.381Z</time>
      </trkpt>
      <trkpt lat="41.98868" lon="43.41675">
        <ele>768.704199</ele>
        <time>2021-08-16T15:11:32.562Z</time>
      </trkpt>
      <trkpt lat="41.9889" lon="43.41698">
        <ele>768.673493</ele>
        <time>2021-08-16T15:11:40.151Z</time>
      </trkpt>
      <trkpt lat="41.98918" lon="43.41707">
        <ele>768.245537</ele>
        <time>2021-08-16T15:11:47.892Z</time>
      </trkpt>
      <trkpt lat="41.98972" lon="43.41705">
        <ele>767.454087</ele>
        <time>2021-08-16T15:12:01.365Z</time>
      </trkpt>
      <trkpt lat="41.99005" lon="43.41721">
        <ele>766.942312</ele>
        <time>2021-08-16T15:12:08.097Z</time>
      </trkpt>
      <trkpt lat="41.99077" lon="43.41801">
        <ele>762.454547</ele>
        <time>2021-08-16T15:12:23.573Z</time>
      </trkpt>
      <trkpt lat="41.99111" lon="43.41827">
        <ele>759.451601</ele>
        <time>2021-08-16T15:12:29.587Z</time>
      </trkpt>
      <trkpt lat="41.99155" lon="43.4184">
        <ele>755.927846</ele>
        <time>2021-08-16T15:12:41.441Z</time>
      </trkpt>
      <trkpt lat="41.99223" lon="43.41867">
        <ele>750.136359</ele>
        <time>2021-08-16T15:12:59.489Z</time>
      </trkpt>
      <trkpt lat="41.99315" lon="43.41919">
        <ele>740.934875</ele>
        <time>2021-08-16T15:13:25.485Z</time>
      </trkpt>
      <trkpt lat="41.99411" lon="43.41982">
        <ele>730.138977</ele>
        <time>2021-08-16T15:13:53.730Z</time>
      </trkpt>
      <trkpt lat="41.99409" lon="43.42079">
        <ele>722.258375</ele>
        <time>2021-08-16T15:14:12.368Z</time>
      </trkpt>
      <trkpt lat="41.9944" lon="43.42124">
        <ele>717.241783</ele>
        <time>2021-08-16T15:14:23.701Z</time>
      </trkpt>
      <trkpt lat="41.99489" lon="43.42157">
        <ele>708.23127</ele>
        <time>2021-08-16T15:14:36.838Z</time>
      </trkpt>
      <trkpt lat="41.99508" lon="43.4221">
        <ele>700.438951</ele>
        <time>2021-08-16T15:14:47.167Z</time>
      </trkpt>
      <trkpt lat="41.99515" lon="43.42323">
        <ele>685.388583</ele>
        <time>2021-08-16T15:15:06.979Z</time>
      </trkpt>
      <trkpt lat="41.99505" lon="43.42391">
        <ele>677.868827</ele>
        <time>2021-08-16T15:15:18.961Z</time>
      </trkpt>
      <trkpt lat="41.99486" lon="43.42477">
        <ele>668.40509</ele>
        <time>2021-08-16T15:15:34.775Z</time>
      </trkpt>
      <trkpt lat="41.995" lon="43.42495">
        <ele>665.728833</ele>
        <time>2021-08-16T15:15:39.550Z</time>
      </trkpt>
      <trkpt lat="41.99514" lon="43.42488">
        <ele>663.576498</ele>
        <time>2021-08-16T15:15:43.390Z</time>
      </trkpt>
      <trkpt lat="41.99523" lon="43.42473">
        <ele>661.532076</ele>
        <time>2021-08-16T15:15:47.332Z</time>
      </trkpt>
      <trkpt lat="41.99541" lon="43.42492">
        <ele>658.597557</ele>
        <time>2021-08-16T15:15:53.416Z</time>
      </trkpt>
      <trkpt lat="41.99562" lon="43.42528">
        <ele>659.665422</ele>
        <time>2021-08-16T15:16:03.869Z</time>
      </trkpt>
      <trkpt lat="41.99566" lon="43.42602">
        <ele>661.407704</ele>
        <time>2021-08-16T15:16:29.922Z</time>
      </trkpt>
      <trkpt lat="41.99576" lon="43.42669">
        <ele>663.004005</ele>
        <time>2021-08-16T15:17:03.854Z</time>
      </trkpt>
      <trkpt lat="41.99589" lon="43.42717">
        <ele>664.183684</ele>
        <time>2021-08-16T15:17:36.232Z</time>
      </trkpt>
      <trkpt lat="41.9967" lon="43.42934">
        <ele>683.419049</ele>
        <time>2021-08-16T15:20:30.766Z</time>
      </trkpt>
      <trkpt lat="41.99663" lon="43.42981">
        <ele>684.620103</ele>
        <time>2021-08-16T15:20:56.818Z</time>
      </trkpt>
      <trkpt lat="41.99664" lon="43.43156">
        <ele>689.102493</ele>
        <time>2021-08-16T15:22:04.596Z</time>
      </trkpt>
      <trkpt lat="41.9969" lon="43.4329">
        <ele>685.726583</ele>
        <time>2021-08-16T15:22:35.180Z</time>
      </trkpt>
      <trkpt lat="41.99695" lon="43.43303">
        <ele>685.236182</ele>
        <time>2021-08-16T15:22:38.693Z</time>
      </trkpt>
      <trkpt lat="41.99703" lon="43.43306">
        <ele>684.901498</ele>
        <time>2021-08-16T15:22:40.782Z</time>
      </trkpt>
      <trkpt lat="41.99712" lon="43.43347">
        <ele>683.486015</ele>
        <time>2021-08-16T15:22:49.942Z</time>
      </trkpt>
      <trkpt lat="41.99713" lon="43.43352">
        <ele>683.323265</ele>
        <time>2021-08-16T15:22:50.881Z</time>
      </trkpt>
      <trkpt lat="41.99716" lon="43.43361">
        <ele>683.029343</ele>
        <time>2021-08-16T15:22:52.608Z</time>
      </trkpt>
      <trkpt lat="41.99735" lon="43.43352">
        <ele>682.153108</ele>
        <time>2021-08-16T15:22:58.583Z</time>
      </trkpt>
      <trkpt lat="41.99739" lon="43.43337">
        <ele>681.627001</ele>
        <time>2021-08-16T15:23:01.839Z</time>
      </trkpt>
      <trkpt lat="41.99741" lon="43.43292">
        <ele>680.233582</ele>
        <time>2021-08-16T15:23:11.104Z</time>
      </trkpt>
      <trkpt lat="41.99735" lon="43.43236">
        <ele>678.443491</ele>
        <time>2021-08-16T15:23:22.970Z</time>
      </trkpt>
      <trkpt lat="41.99746" lon="43.43228">
        <ele>677.907215</ele>
        <time>2021-08-16T15:23:26.959Z</time>
      </trkpt>
      <trkpt lat="41.99757" lon="43.43219">
        <ele>677.351024</ele>
        <time>2021-08-16T15:23:30.786Z</time>
      </trkpt>
      <trkpt lat="41.99767" lon="43.43236">
        <ele>676.67033</ele>
        <time>2021-08-16T15:23:35.282Z</time>
      </trkpt>
      <trkpt lat="41.99776" lon="43.43244">
        <ele>676.229838</ele>
        <time>2021-08-16T15:23:38.559Z</time>
      </trkpt>
      <trkpt lat="41.99781" lon="43.43259">
        <ele>675.68826</ele>
        <time>2021-08-16T15:23:42.518Z</time>
      </trkpt>
      <trkpt lat="41.99784" lon="43.4326">
        <ele>675.569912</ele>
        <time>2021-08-16T15:23:43.652Z</time>
      </trkpt>
      <trkpt lat="41.99783" lon="43.433">
        <ele>674.316316</ele>
        <time>2021-08-16T15:23:49.250Z</time>
      </trkpt>
      <trkpt lat="41.99793" lon="43.43428">
        <ele>674.14956</ele>
        <time>2021-08-16T15:24:10.225Z</time>
      </trkpt>
      <trkpt lat="41.99805" lon="43.43512">
        <ele>674.157483</ele>
        <time>2021-08-16T15:24:28.903Z</time>
      </trkpt>
      <trkpt lat="41.99827" lon="43.43562">
        <ele>674.382309</ele>
        <time>2021-08-16T15:24:40.242Z</time>
      </trkpt>
      <trkpt lat="41.99847" lon="43.4364">
        <ele>675.1279</ele>
        <time>2021-08-16T15:24:57.800Z</time>
      </trkpt>
      <trkpt lat="41.99849" lon="43.43643">
        <ele>675.161945</ele>
        <time>2021-08-16T15:25:00.014Z</time>
      </trkpt>
      <trkpt lat="41.99864" lon="43.43673">
        <ele>675.493749</ele>
        <time>2021-08-16T15:25:06.620Z</time>
      </trkpt>
      <trkpt lat="41.99869" lon="43.43684">
        <ele>675.60265</ele>
        <time>2021-08-16T15:25:10.919Z</time>
      </trkpt>
      <trkpt lat="41.99874" lon="43.43703">
        <ele>675.785286</ele>
        <time>2021-08-16T15:25:14.041Z</time>
      </trkpt>
      <trkpt lat="41.99884" lon="43.43718">
        <ele>675.963655</ele>
        <time>2021-08-16T15:25:18.987Z</time>
      </trkpt>
      <trkpt lat="41.99966" lon="43.43814">
        <ele>677.901483</ele>
        <time>2021-08-16T15:25:51.868Z</time>
      </trkpt>
      <trkpt lat="42.00017" lon="43.43903">
        <ele>679.580207</ele>
        <time>2021-08-16T15:26:21.201Z</time>
      </trkpt>
      <trkpt lat="42.00037" lon="43.4396">
        <ele>680.768539</ele>
        <time>2021-08-16T15:26:38.789Z</time>
      </trkpt>
      <trkpt lat="42.00058" lon="43.43997">
        <ele>681.734858</ele>
        <time>2021-08-16T15:26:51.335Z</time>
      </trkpt>
      <trkpt lat="42.00084" lon="43.44028">
        <ele>682.727979</ele>
        <time>2021-08-16T15:27:04.101Z</time>
      </trkpt>
      <trkpt lat="42.00101" lon="43.44047">
        <ele>683.336614</ele>
        <time>2021-08-16T15:27:12.125Z</time>
      </trkpt>
      <trkpt lat="42.00128" lon="43.44086">
        <ele>684.471225</ele>
        <time>2021-08-16T15:27:26.626Z</time>
      </trkpt>
      <trkpt lat="42.00211" lon="43.4418">
        <ele>688.298509</ele>
        <time>2021-08-16T15:28:10.427Z</time>
      </trkpt>
      <trkpt lat="42.00232" lon="43.44203">
        <ele>689.327252</ele>
        <time>2021-08-16T15:28:21.587Z</time>
      </trkpt>
      <trkpt lat="42.00244" lon="43.44212">
        <ele>689.838784</ele>
        <time>2021-08-16T15:28:27.317Z</time>
      </trkpt>
      <trkpt lat="42.00268" lon="43.44235">
        <ele>690.916081</ele>
        <time>2021-08-16T15:28:39.357Z</time>
      </trkpt>
      <trkpt lat="42.00282" lon="43.44246">
        <ele>691.515991</ele>
        <time>2021-08-16T15:28:46.411Z</time>
      </trkpt>
      <trkpt lat="42.00289" lon="43.4426">
        <ele>692.096233</ele>
        <time>2021-08-16T15:28:52.242Z</time>
      </trkpt>
      <trkpt lat="42.00375" lon="43.44352">
        <ele>698.217971</ele>
        <time>2021-08-16T15:29:47.673Z</time>
      </trkpt>
      <trkpt lat="42.00419" lon="43.44419">
        <ele>701.922161</ele>
        <time>2021-08-16T15:30:22.348Z</time>
      </trkpt>
      <trkpt lat="42.00456" lon="43.44487">
        <ele>706.357756</ele>
        <time>2021-08-16T15:30:59.992Z</time>
      </trkpt>
      <trkpt lat="42.00485" lon="43.44573">
        <ele>711.234341</ele>
        <time>2021-08-16T15:31:42.033Z</time>
      </trkpt>
      <trkpt lat="42.00488" lon="43.44594">
        <ele>712.367997</ele>
        <time>2021-08-16T15:31:51.104Z</time>
      </trkpt>
      <trkpt lat="42.00487" lon="43.4463">
        <ele>714.249402</ele>
        <time>2021-08-16T15:32:07.235Z</time>
      </trkpt>
      <trkpt lat="42.0048" lon="43.44677">
        <ele>716.233148</ele>
        <time>2021-08-16T15:32:27.707Z</time>
      </trkpt>
      <trkpt lat="42.0046" lon="43.44822">
        <ele>722.396534</ele>
        <time>2021-08-16T15:33:26.969Z</time>
      </trkpt>
      <trkpt lat="42.00461" lon="43.44896">
        <ele>724.828768</ele>
        <time>2021-08-16T15:33:49.088Z</time>
      </trkpt>
      <trkpt lat="42.00461" lon="43.44916">
        <ele>725.15487</ele>
        <time>2021-08-16T15:33:54.179Z</time>
      </trkpt>
      <trkpt lat="42.00473" lon="43.44999">
        <ele>726.574674</ele>
        <time>2021-08-16T15:34:15.666Z</time>
      </trkpt>
      <trkpt lat="42.00491" lon="43.45059">
        <ele>727.659824</ele>
        <time>2021-08-16T15:34:31.162Z</time>
      </trkpt>
      <trkpt lat="42.00525" lon="43.45127">
        <ele>729.25777</ele>
        <time>2021-08-16T15:34:49.314Z</time>
      </trkpt>
      <trkpt lat="42.0056" lon="43.45181">
        <ele>730.879314</ele>
        <time>2021-08-16T15:35:05.473Z</time>
      </trkpt>
      <trkpt lat="42.00723" lon="43.45401">
        <ele>740.114657</ele>
        <time>2021-08-16T15:36:49.849Z</time>
      </trkpt>
      <trkpt lat="42.00763" lon="43.45449">
        <ele>742.633024</ele>
        <time>2021-08-16T15:37:16.439Z</time>
      </trkpt>
      <trkpt lat="42.00801" lon="43.4546">
        <ele>744.595242</ele>
        <time>2021-08-16T15:37:35.687Z</time>
      </trkpt>
      <trkpt lat="42.00824" lon="43.45449">
        <ele>745.887851</ele>
        <time>2021-08-16T15:37:49.565Z</time>
      </trkpt>
      <trkpt lat="42.00827" lon="43.45462">
        <ele>746.412955</ele>
        <time>2021-08-16T15:37:53.181Z</time>
      </trkpt>
      <trkpt lat="42.00826" lon="43.45482">
        <ele>747.184348</ele>
        <time>2021-08-16T15:38:01.812Z</time>
      </trkpt>
      <trkpt lat="42.00828" lon="43.45494">
        <ele>747.632928</ele>
        <time>2021-08-16T15:38:06.116Z</time>
      </trkpt>
      <trkpt lat="42.00836" lon="43.45506">
        <ele>748.267982</ele>
        <time>2021-08-16T15:38:11.012Z</time>
      </trkpt>
      <trkpt lat="42.00842" lon="43.45523">
        <ele>748.981138</ele>
        <time>2021-08-16T15:38:18.992Z</time>
      </trkpt>
      <trkpt lat="42.0086" lon="43.45547">
        <ele>750.289837</ele>
        <time>2021-08-16T15:38:30.365Z</time>
      </trkpt>
      <trkpt lat="42.00908" lon="43.45622">
        <ele>754.172191</ele>
        <time>2021-08-16T15:39:04.644Z</time>
      </trkpt>
      <trkpt lat="42.00954" lon="43.45683">
        <ele>757.659259</ele>
        <time>2021-08-16T15:39:33.086Z</time>
      </trkpt>
      <trkpt lat="42.00999" lon="43.4573">
        <ele>760.766904</ele>
        <time>2021-08-16T15:40:04.964Z</time>
      </trkpt>
      <trkpt lat="42.01086" lon="43.45808">
        <ele>768.388617</ele>
        <time>2021-08-16T15:41:08.988Z</time>
      </trkpt>
      <trkpt lat="42.01102" lon="43.4582">
        <ele>769.764529</ele>
        <time>2021-08-16T15:41:20.842Z</time>
      </trkpt>
      <trkpt lat="42.01167" lon="43.45863">
        <ele>775.225573</ele>
        <time>2021-08-16T15:42:05.233Z</time>
      </trkpt>
      <trkpt lat="42.01183" lon="43.45876">
        <ele>776.544943</ele>
        <time>2021-08-16T15:42:19.535Z</time>
      </trkpt>
      <trkpt lat="42.01198" lon="43.45874">
        <ele>777.612674</ele>
        <time>2021-08-16T15:42:31.028Z</time>
      </trkpt>
      <trkpt lat="42.01212" lon="43.45859">
        <ele>778.834174</ele>
        <time>2021-08-16T15:42:43.944Z</time>
      </trkpt>
      <trkpt lat="42.01227" lon="43.45857">
        <ele>779.836555</ele>
        <time>2021-08-16T15:42:54.883Z</time>
      </trkpt>
      <trkpt lat="42.01291" lon="43.45953">
        <ele>786.488972</ele>
        <time>2021-08-16T15:44:03.141Z</time>
      </trkpt>
      <trkpt lat="42.01383" lon="43.45958">
        <ele>792.078558</ele>
        <time>2021-08-16T15:45:03.525Z</time>
      </trkpt>
      <trkpt lat="42.01411" lon="43.45978">
        <ele>793.976397</ele>
        <time>2021-08-16T15:45:23.974Z</time>
      </trkpt>
      <trkpt lat="42.01444" lon="43.46013">
        <ele>796.461746</ele>
        <time>2021-08-16T15:45:50.737Z</time>
      </trkpt>
      <trkpt lat="42.01484" lon="43.46069">
        <ele>800.9581</ele>
        <time>2021-08-16T15:46:30.357Z</time>
      </trkpt>
      <trkpt lat="42.01541" lon="43.46086">
        <ele>806.476563</ele>
        <time>2021-08-16T15:47:16.607Z</time>
      </trkpt>
      <trkpt lat="42.0158" lon="43.46134">
        <ele>811.472024</ele>
        <time>2021-08-16T15:48:03.759Z</time>
      </trkpt>
      <trkpt lat="42.01603" lon="43.46151">
        <ele>813.996636</ele>
        <time>2021-08-16T15:48:29.416Z</time>
      </trkpt>
      <trkpt lat="42.01631" lon="43.46161">
        <ele>817.274781</ele>
        <time>2021-08-16T15:48:57.972Z</time>
      </trkpt>
      <trkpt lat="42.0165" lon="43.4616">
        <ele>819.832372</ele>
        <time>2021-08-16T15:49:18.282Z</time>
      </trkpt>
      <trkpt lat="42.01664" lon="43.46149">
        <ele>821.921527</ele>
        <time>2021-08-16T15:49:35.129Z</time>
      </trkpt>
      <trkpt lat="42.01701" lon="43.46088">
        <ele>829.563534</ele>
        <time>2021-08-16T15:50:38.496Z</time>
      </trkpt>
      <trkpt lat="42.01725" lon="43.46014">
        <ele>837.372172</ele>
        <time>2021-08-16T15:51:42.553Z</time>
      </trkpt>
      <trkpt lat="42.01764" lon="43.45945">
        <ele>842.579214</ele>
        <time>2021-08-16T15:52:41.367Z</time>
      </trkpt>
      <trkpt lat="42.01789" lon="43.45885">
        <ele>846.322876</ele>
        <time>2021-08-16T15:53:21.041Z</time>
      </trkpt>
      <trkpt lat="42.01813" lon="43.4586">
        <ele>848.593924</ele>
        <time>2021-08-16T15:53:41.073Z</time>
      </trkpt>
      <trkpt lat="42.01867" lon="43.45825">
        <ele>851.612338</ele>
        <time>2021-08-16T15:54:11.697Z</time>
      </trkpt>
      <trkpt lat="42.01887" lon="43.45772">
        <ele>851.330172</ele>
        <time>2021-08-16T15:54:30.416Z</time>
      </trkpt>
      <trkpt lat="42.01933" lon="43.45723">
        <ele>850.952877</ele>
        <time>2021-08-16T15:54:50.226Z</time>
      </trkpt>
      <trkpt lat="42.01968" lon="43.45705">
        <ele>850.708173</ele>
        <time>2021-08-16T15:55:02.287Z</time>
      </trkpt>
      <trkpt lat="42.01986" lon="43.45717">
        <ele>850.582974</ele>
        <time>2021-08-16T15:55:08.367Z</time>
      </trkpt>
      <trkpt lat="42.01988" lon="43.45728">
        <ele>850.356858</ele>
        <time>2021-08-16T15:55:10.842Z</time>
      </trkpt>
      <trkpt lat="42.01983" lon="43.45746">
        <ele>849.811122</ele>
        <time>2021-08-16T15:55:15.229Z</time>
      </trkpt>
      <trkpt lat="42.01949" lon="43.45802">
        <ele>847.714332</ele>
        <time>2021-08-16T15:55:31.534Z</time>
      </trkpt>
      <trkpt lat="42.0191" lon="43.45905">
        <ele>844.409506</ele>
        <time>2021-08-16T15:55:56.912Z</time>
      </trkpt>
      <trkpt lat="42.01877" lon="43.45979">
        <ele>842.345849</ele>
        <time>2021-08-16T15:56:15.759Z</time>
      </trkpt>
      <trkpt lat="42.0185" lon="43.46019">
        <ele>841.157905</ele>
        <time>2021-08-16T15:56:27.899Z</time>
      </trkpt>
      <trkpt lat="42.01842" lon="43.46041">
        <ele>840.631305</ele>
        <time>2021-08-16T15:56:33.349Z</time>
      </trkpt>
      <trkpt lat="42.01813" lon="43.46173">
        <ele>838.789259</ele>
        <time>2021-08-16T15:57:06.805Z</time>
      </trkpt>
      <trkpt lat="42.0181" lon="43.46205">
        <ele>839.237323</ele>
        <time>2021-08-16T15:57:16.023Z</time>
      </trkpt>
      <trkpt lat="42.01812" lon="43.4622">
        <ele>839.441814</ele>
        <time>2021-08-16T15:57:20.540Z</time>
      </trkpt>
      <trkpt lat="42.01824" lon="43.46243">
        <ele>839.828668</ele>
        <time>2021-08-16T15:57:29.957Z</time>
      </trkpt>
      <trkpt lat="42.01883" lon="43.46334">
        <ele>841.485542</ele>
        <time>2021-08-16T15:58:16.437Z</time>
      </trkpt>
      <trkpt lat="42.01893" lon="43.46462">
        <ele>846.627494</ele>
        <time>2021-08-16T15:59:18.214Z</time>
      </trkpt>
      <trkpt lat="42.01917" lon="43.4653">
        <ele>849.816352</ele>
        <time>2021-08-16T15:59:56.738Z</time>
      </trkpt>
      <trkpt lat="42.01948" lon="43.46649">
        <ele>855.449061</ele>
        <time>2021-08-16T16:01:02.675Z</time>
      </trkpt>
      <trkpt lat="42.01966" lon="43.46676">
        <ele>857.134772</ele>
        <time>2021-08-16T16:01:21.349Z</time>
      </trkpt>
      <trkpt lat="42.01966" lon="43.46744">
        <ele>860.273766</ele>
        <time>2021-08-16T16:01:56.650Z</time>
      </trkpt>
      <trkpt lat="42.01974" lon="43.46766">
        <ele>861.367484</ele>
        <time>2021-08-16T16:02:08.771Z</time>
      </trkpt>
      <trkpt lat="42.02021" lon="43.46831">
        <ele>864.917083</ele>
        <time>2021-08-16T16:02:52.057Z</time>
      </trkpt>
      <trkpt lat="42.02031" lon="43.46851">
        <ele>865.712652</ele>
        <time>2021-08-16T16:03:02.620Z</time>
      </trkpt>
      <trkpt lat="42.02037" lon="43.46872">
        <ele>866.440501</ele>
        <time>2021-08-16T16:03:11.980Z</time>
      </trkpt>
      <trkpt lat="42.02043" lon="43.46948">
        <ele>869.01138</ele>
        <time>2021-08-16T16:03:44.930Z</time>
      </trkpt>
      <trkpt lat="42.02069" lon="43.47009">
        <ele>871.346062</ele>
        <time>2021-08-16T16:04:14.524Z</time>
      </trkpt>
      <trkpt lat="42.02069" lon="43.47025">
        <ele>871.91635</ele>
        <time>2021-08-16T16:04:21.313Z</time>
      </trkpt>
      <trkpt lat="42.0205" lon="43.47049">
        <ele>873.205253</ele>
        <time>2021-08-16T16:04:36.633Z</time>
      </trkpt>
      <trkpt lat="42.02041" lon="43.47079">
        <ele>874.384984</ele>
        <time>2021-08-16T16:04:50.811Z</time>
      </trkpt>
      <trkpt lat="42.0204" lon="43.47137">
        <ele>876.47612</ele>
        <time>2021-08-16T16:05:16.461Z</time>
      </trkpt>
      <trkpt lat="42.02046" lon="43.47205">
        <ele>878.972309</ele>
        <time>2021-08-16T16:05:48.866Z</time>
      </trkpt>
      <trkpt lat="42.02043" lon="43.47297">
        <ele>882.9266</ele>
        <time>2021-08-16T16:06:35.576Z</time>
      </trkpt>
      <trkpt lat="42.02031" lon="43.47343">
        <ele>885.231144</ele>
        <time>2021-08-16T16:07:01.919Z</time>
      </trkpt>
      <trkpt lat="42.02024" lon="43.47408">
        <ele>888.268048</ele>
        <time>2021-08-16T16:07:36.598Z</time>
      </trkpt>
      <trkpt lat="42.02007" lon="43.47489">
        <ele>891.794382</ele>
        <time>2021-08-16T16:08:18.587Z</time>
      </trkpt>
      <trkpt lat="42.02004" lon="43.4756">
        <ele>893.748369</ele>
        <time>2021-08-16T16:08:50.504Z</time>
      </trkpt>
      <trkpt lat="42.01995" lon="43.47591">
        <ele>894.670708</ele>
        <time>2021-08-16T16:09:04.464Z</time>
      </trkpt>
      <trkpt lat="42.01965" lon="43.4764">
        <ele>896.420735</ele>
        <time>2021-08-16T16:09:29.102Z</time>
      </trkpt>
      <trkpt lat="42.01959" lon="43.47666">
        <ele>897.195808</ele>
        <time>2021-08-16T16:09:39.355Z</time>
      </trkpt>
      <trkpt lat="42.01957" lon="43.47711">
        <ele>898.089655</ele>
        <time>2021-08-16T16:09:55.144Z</time>
      </trkpt>
      <trkpt lat="42.0192" lon="43.47789">
        <ele>898.834682</ele>
        <time>2021-08-16T16:10:25.147Z</time>
      </trkpt>
      <trkpt lat="42.01916" lon="43.47821">
        <ele>899.100711</ele>
        <time>2021-08-16T16:10:35.353Z</time>
      </trkpt>
      <trkpt lat="42.01919" lon="43.47879">
        <ele>899.569581</ele>
        <time>2021-08-16T16:10:52.821Z</time>
      </trkpt>
      <trkpt lat="42.01915" lon="43.47926">
        <ele>899.896641</ele>
        <time>2021-08-16T16:11:06.741Z</time>
      </trkpt>
      <trkpt lat="42.01937" lon="43.48001">
        <ele>899.906673</ele>
        <time>2021-08-16T16:11:29.692Z</time>
      </trkpt>
      <trkpt lat="42.01955" lon="43.48123">
        <ele>899.92228</ele>
        <time>2021-08-16T16:12:02.885Z</time>
      </trkpt>
      <trkpt lat="42.01991" lon="43.48296">
        <ele>901.759009</ele>
        <time>2021-08-16T16:12:55.233Z</time>
      </trkpt>
      <trkpt lat="42.01991" lon="43.48328">
        <ele>902.148277</ele>
        <time>2021-08-16T16:13:05.655Z</time>
      </trkpt>
      <trkpt lat="42.01989" lon="43.4836">
        <ele>902.534763</ele>
        <time>2021-08-16T16:13:15.305Z</time>
      </trkpt>
      <trkpt lat="42.01993" lon="43.48384">
        <ele>902.846748</ele>
        <time>2021-08-16T16:13:25.757Z</time>
      </trkpt>
      <trkpt lat="42.02005" lon="43.48429">
        <ele>905.306375</ele>
        <time>2021-08-16T16:13:47.515Z</time>
      </trkpt>
      <trkpt lat="42.02018" lon="43.48462">
        <ele>907.410266</ele>
        <time>2021-08-16T16:14:06.986Z</time>
      </trkpt>
      <trkpt lat="42.02002" lon="43.48464">
        <ele>908.652879</ele>
        <time>2021-08-16T16:14:16.730Z</time>
      </trkpt>
      <trkpt lat="42.01977" lon="43.48468">
        <ele>910.532992</ele>
        <time>2021-08-16T16:14:32.079Z</time>
      </trkpt>
      <trkpt lat="42.01988" lon="43.48495">
        <ele>912.243802</ele>
        <time>2021-08-16T16:14:51.669Z</time>
      </trkpt>
      <trkpt lat="42.02015" lon="43.48541">
        <ele>915.529009</ele>
        <time>2021-08-16T16:15:28.619Z</time>
      </trkpt>
      <trkpt lat="42.02035" lon="43.48605">
        <ele>919.957561</ele>
        <time>2021-08-16T16:16:12.633Z</time>
      </trkpt>
      <trkpt lat="42.02087" lon="43.48711">
        <ele>928.535242</ele>
        <time>2021-08-16T16:17:34.652Z</time>
      </trkpt>
      <trkpt lat="42.02246" lon="43.4894">
        <ele>945.672136</ele>
        <time>2021-08-16T16:20:25.866Z</time>
      </trkpt>
      <trkpt lat="42.02271" lon="43.49002">
        <ele>947.640917</ele>
        <time>2021-08-16T16:20:57.512Z</time>
      </trkpt>
      <trkpt lat="42.0229" lon="43.49053">
        <ele>949.255277</ele>
        <time>2021-08-16T16:21:21.797Z</time>
      </trkpt>
      <trkpt lat="42.02306" lon="43.49131">
        <ele>951.522018</ele>
        <time>2021-08-16T16:21:53.368Z</time>
      </trkpt>
      <trkpt lat="42.0233" lon="43.49324">
        <ele>952.134301</ele>
        <time>2021-08-16T16:22:51.694Z</time>
      </trkpt>
      <trkpt lat="42.02338" lon="43.49447">
        <ele>950.997903</ele>
        <time>2021-08-16T16:23:21.577Z</time>
      </trkpt>
      <trkpt lat="42.02342" lon="43.49481">
        <ele>950.276638</ele>
        <time>2021-08-16T16:23:29.642Z</time>
      </trkpt>
      <trkpt lat="42.02342" lon="43.49493">
        <ele>950.023502</ele>
        <time>2021-08-16T16:23:32.363Z</time>
      </trkpt>
      <trkpt lat="42.02357" lon="43.4959">
        <ele>947.932206</ele>
        <time>2021-08-16T16:23:54.963Z</time>
      </trkpt>
      <trkpt lat="42.02353" lon="43.49639">
        <ele>946.937164</ele>
        <time>2021-08-16T16:24:06.192Z</time>
      </trkpt>
      <trkpt lat="42.02354" lon="43.49678">
        <ele>946.488516</ele>
        <time>2021-08-16T16:24:14.946Z</time>
      </trkpt>
      <trkpt lat="42.02361" lon="43.49721">
        <ele>945.980165</ele>
        <time>2021-08-16T16:24:25.548Z</time>
      </trkpt>
      <trkpt lat="42.02358" lon="43.49741">
        <ele>945.75024</ele>
        <time>2021-08-16T16:24:30.673Z</time>
      </trkpt>
      <trkpt lat="42.02363" lon="43.49777">
        <ele>945.329102</ele>
        <time>2021-08-16T16:24:39.724Z</time>
      </trkpt>
      <trkpt lat="42.02361" lon="43.49839">
        <ele>944.607595</ele>
        <time>2021-08-16T16:24:56.042Z</time>
      </trkpt>
      <trkpt lat="42.02356" lon="43.49862">
        <ele>944.328389</ele>
        <time>2021-08-16T16:25:02.222Z</time>
      </trkpt>
      <trkpt lat="42.0234" lon="43.49889">
        <ele>944.33208</ele>
        <time>2021-08-16T16:25:11.832Z</time>
      </trkpt>
      <trkpt lat="42.02325" lon="43.4993">
        <ele>944.596645</ele>
        <time>2021-08-16T16:25:25.088Z</time>
      </trkpt>
      <trkpt lat="42.02327" lon="43.5003">
        <ele>945.173774</ele>
        <time>2021-08-16T16:25:56.480Z</time>
      </trkpt>
      <trkpt lat="42.0232" lon="43.50072">
        <ele>945.419612</ele>
        <time>2021-08-16T16:26:10.935Z</time>
      </trkpt>
      <trkpt lat="42.02322" lon="43.50104">
        <ele>945.602108</ele>
        <time>2021-08-16T16:26:21.833Z</time>
      </trkpt>
      <trkpt lat="42.02304" lon="43.50177">
        <ele>945.888098</ele>
        <time>2021-08-16T16:26:46.244Z</time>
      </trkpt>
      <trkpt lat="42.02295" lon="43.50282">
        <ele>946.281499</ele>
        <time>2021-08-16T16:27:17.347Z</time>
      </trkpt>
      <trkpt lat="42.02267" lon="43.50423">
        <ele>946.386769</ele>
        <time>2021-08-16T16:27:56.194Z</time>
      </trkpt>
      <trkpt lat="42.02267" lon="43.50509">
        <ele>946.277884</ele>
        <time>2021-08-16T16:28:19.037Z</time>
      </trkpt>
      <trkpt lat="42.02258" lon="43.50529">
        <ele>946.248337</ele>
        <time>2021-08-16T16:28:26.477Z</time>
      </trkpt>
      <trkpt lat="42.02253" lon="43.50563">
        <ele>946.204273</ele>
        <time>2021-08-16T16:28:36.145Z</time>
      </trkpt>
      <trkpt lat="42.0224" lon="43.50612">
        <ele>946.011037</ele>
        <time>2021-08-16T16:28:51.616Z</time>
      </trkpt>
      <trkpt lat="42.02233" lon="43.5064">
        <ele>945.883402</ele>
        <time>2021-08-16T16:28:59.823Z</time>
      </trkpt>
      <trkpt lat="42.02225" lon="43.50667">
        <ele>945.760382</ele>
        <time>2021-08-16T16:29:06.290Z</time>
      </trkpt>
      <trkpt lat="42.02224" lon="43.50739">
        <ele>945.452936</ele>
        <time>2021-08-16T16:29:18.032Z</time>
      </trkpt>
      <trkpt lat="42.02235" lon="43.50815">
        <ele>944.820495</ele>
        <time>2021-08-16T16:29:29.669Z</time>
      </trkpt>
      <trkpt lat="42.02252" lon="43.50891">
        <ele>941.520848</ele>
        <time>2021-08-16T16:29:40.195Z</time>
      </trkpt>
      <trkpt lat="42.02326" lon="43.51094">
        <ele>931.581511</ele>
        <time>2021-08-16T16:30:06.488Z</time>
      </trkpt>
      <trkpt lat="42.02355" lon="43.51187">
        <ele>926.595632</ele>
        <time>2021-08-16T16:30:18.163Z</time>
      </trkpt>
      <trkpt lat="42.02361" lon="43.51228">
        <ele>924.535899</ele>
        <time>2021-08-16T16:30:23.158Z</time>
      </trkpt>
      <trkpt lat="42.02344" lon="43.51346">
        <ele>920.216348</ele>
        <time>2021-08-16T16:30:38.281Z</time>
      </trkpt>
      <trkpt lat="42.02356" lon="43.51447">
        <ele>916.944616</ele>
        <time>2021-08-16T16:30:51.762Z</time>
      </trkpt>
      <trkpt lat="42.02386" lon="43.51579">
        <ele>911.36017</ele>
        <time>2021-08-16T16:31:09.325Z</time>
      </trkpt>
      <trkpt lat="42.02506" lon="43.5194">
        <ele>891.357577</ele>
        <time>2021-08-16T16:31:55.447Z</time>
      </trkpt>
      <trkpt lat="42.02541" lon="43.52087">
        <ele>883.009575</ele>
        <time>2021-08-16T16:32:13.303Z</time>
      </trkpt>
      <trkpt lat="42.02571" lon="43.52193">
        <ele>876.809862</ele>
        <time>2021-08-16T16:32:26.621Z</time>
      </trkpt>
      <trkpt lat="42.0265" lon="43.5239">
        <ele>864.44808</ele>
        <time>2021-08-16T16:32:52.597Z</time>
      </trkpt>
      <trkpt lat="42.0266" lon="43.52463">
        <ele>859.734701</ele>
        <time>2021-08-16T16:33:01.071Z</time>
      </trkpt>
      <trkpt lat="42.02643" lon="43.52563">
        <ele>853.190232</ele>
        <time>2021-08-16T16:33:12.722Z</time>
      </trkpt>
      <trkpt lat="42.02617" lon="43.52645">
        <ele>847.38414</ele>
        <time>2021-08-16T16:33:22.710Z</time>
      </trkpt>
      <trkpt lat="42.02593" lon="43.52708">
        <ele>842.622358</ele>
        <time>2021-08-16T16:33:30.558Z</time>
      </trkpt>
      <trkpt lat="42.02565" lon="43.52758">
        <ele>838.323424</ele>
        <time>2021-08-16T16:33:37.655Z</time>
      </trkpt>
      <trkpt lat="42.02542" lon="43.52788">
        <ele>835.393779</ele>
        <time>2021-08-16T16:33:42.491Z</time>
      </trkpt>
      <trkpt lat="42.02509" lon="43.52811">
        <ele>832.181195</ele>
        <time>2021-08-16T16:33:48.197Z</time>
      </trkpt>
      <trkpt lat="42.02446" lon="43.52845">
        <ele>827.16869</ele>
        <time>2021-08-16T16:33:58.247Z</time>
      </trkpt>
      <trkpt lat="42.02392" lon="43.52866">
        <ele>823.009339</ele>
        <time>2021-08-16T16:34:07.038Z</time>
      </trkpt>
      <trkpt lat="42.02364" lon="43.52889">
        <ele>820.529999</ele>
        <time>2021-08-16T16:34:12.508Z</time>
      </trkpt>
      <trkpt lat="42.02354" lon="43.52897">
        <ele>819.793377</ele>
        <time>2021-08-16T16:34:14.358Z</time>
      </trkpt>
      <trkpt lat="42.02342" lon="43.52895">
        <ele>819.783313</ele>
        <time>2021-08-16T16:34:16.526Z</time>
      </trkpt>
      <trkpt lat="42.02299" lon="43.52913">
        <ele>819.746999</ele>
        <time>2021-08-16T16:34:24.630Z</time>
      </trkpt>
      <trkpt lat="42.02281" lon="43.52912">
        <ele>819.731991</ele>
        <time>2021-08-16T16:34:27.939Z</time>
      </trkpt>
      <trkpt lat="42.02262" lon="43.52904">
        <ele>819.7159</ele>
        <time>2021-08-16T16:34:34.250Z</time>
      </trkpt>
      <trkpt lat="42.02252" lon="43.52909">
        <ele>819.707312</ele>
        <time>2021-08-16T16:34:36.495Z</time>
      </trkpt>
      <trkpt lat="42.02251" lon="43.52973">
        <ele>819.668242</ele>
        <time>2021-08-16T16:34:51.994Z</time>
      </trkpt>
      <trkpt lat="42.02239" lon="43.53047">
        <ele>820.800217</ele>
        <time>2021-08-16T16:35:20.426Z</time>
      </trkpt>
      <trkpt lat="42.0223" lon="43.53072">
        <ele>821.568193</ele>
        <time>2021-08-16T16:35:29.451Z</time>
      </trkpt>
      <trkpt lat="42.02228" lon="43.5309">
        <ele>822.04941</ele>
        <time>2021-08-16T16:35:36.998Z</time>
      </trkpt>
      <trkpt lat="42.02219" lon="43.53151">
        <ele>823.772258</ele>
        <time>2021-08-16T16:35:57.877Z</time>
      </trkpt>
      <trkpt lat="42.02226" lon="43.53269">
        <ele>826.038865</ele>
        <time>2021-08-16T16:36:31.522Z</time>
      </trkpt>
      <trkpt lat="42.02237" lon="43.53366">
        <ele>825.048681</ele>
        <time>2021-08-16T16:36:47.712Z</time>
      </trkpt>
      <trkpt lat="42.02261" lon="43.53472">
        <ele>823.924208</ele>
        <time>2021-08-16T16:37:02.503Z</time>
      </trkpt>
      <trkpt lat="42.02299" lon="43.53606">
        <ele>818.608457</ele>
        <time>2021-08-16T16:37:20.341Z</time>
      </trkpt>
      <trkpt lat="42.02334" lon="43.53713">
        <ele>813.904471</ele>
        <time>2021-08-16T16:37:34.520Z</time>
      </trkpt>
      <trkpt lat="42.0236" lon="43.53774">
        <ele>809.93766</ele>
        <time>2021-08-16T16:37:42.986Z</time>
      </trkpt>
      <trkpt lat="42.02473" lon="43.53979">
        <ele>793.978043</ele>
        <time>2021-08-16T16:38:11.902Z</time>
      </trkpt>
      <trkpt lat="42.02487" lon="43.54003">
        <ele>791.738234</ele>
        <time>2021-08-16T16:38:15.343Z</time>
      </trkpt>
      <trkpt lat="42.02501" lon="43.54014">
        <ele>790.188192</ele>
        <time>2021-08-16T16:38:17.662Z</time>
      </trkpt>
      <trkpt lat="42.02519" lon="43.54029">
        <ele>788.159859</ele>
        <time>2021-08-16T16:38:20.796Z</time>
      </trkpt>
      <trkpt lat="42.02557" lon="43.54086">
        <ele>782.56909</ele>
        <time>2021-08-16T16:38:29.162Z</time>
      </trkpt>
      <trkpt lat="42.02606" lon="43.54232">
        <ele>771.136886</ele>
        <time>2021-08-16T16:38:46.820Z</time>
      </trkpt>
      <trkpt lat="42.02608" lon="43.54243">
        <ele>770.335423</ele>
        <time>2021-08-16T16:38:48.044Z</time>
      </trkpt>
      <trkpt lat="42.02611" lon="43.54264">
        <ele>768.848143</ele>
        <time>2021-08-16T16:38:50.439Z</time>
      </trkpt>
      <trkpt lat="42.02617" lon="43.54283">
        <ele>767.37985</ele>
        <time>2021-08-16T16:38:52.892Z</time>
      </trkpt>
      <trkpt lat="42.02638" lon="43.54299">
        <ele>765.523226</ele>
        <time>2021-08-16T16:38:56.660Z</time>
      </trkpt>
      <trkpt lat="42.02639" lon="43.54307">
        <ele>765.23303</ele>
        <time>2021-08-16T16:38:58.390Z</time>
      </trkpt>
      <trkpt lat="42.02636" lon="43.54328">
        <ele>764.430611</ele>
        <time>2021-08-16T16:39:02.758Z</time>
      </trkpt>
      <trkpt lat="42.02632" lon="43.54412">
        <ele>761.382871</ele>
        <time>2021-08-16T16:39:20.460Z</time>
      </trkpt>
      <trkpt lat="42.02625" lon="43.5445">
        <ele>759.930605</ele>
        <time>2021-08-16T16:39:29.060Z</time>
      </trkpt>
      <trkpt lat="42.02624" lon="43.54457">
        <ele>759.672583</ele>
        <time>2021-08-16T16:39:30.748Z</time>
      </trkpt>
      <trkpt lat="42.02617" lon="43.54486">
        <ele>758.580901</ele>
        <time>2021-08-16T16:39:37.543Z</time>
      </trkpt>
      <trkpt lat="42.02613" lon="43.54501">
        <ele>757.989709</ele>
        <time>2021-08-16T16:39:41.377Z</time>
      </trkpt>
      <trkpt lat="42.02602" lon="43.54545">
        <ele>756.880571</ele>
        <time>2021-08-16T16:39:47.985Z</time>
      </trkpt>
      <trkpt lat="42.02587" lon="43.54615">
        <ele>755.931737</ele>
        <time>2021-08-16T16:39:58.636Z</time>
      </trkpt>
      <trkpt lat="42.02558" lon="43.54784">
        <ele>753.790979</ele>
        <time>2021-08-16T16:40:24.476Z</time>
      </trkpt>
      <trkpt lat="42.0254" lon="43.54847">
        <ele>753.188971</ele>
        <time>2021-08-16T16:40:34.548Z</time>
      </trkpt>
      <trkpt lat="42.02449" lon="43.54997">
        <ele>751.248484</ele>
        <time>2021-08-16T16:41:04.350Z</time>
      </trkpt>
      <trkpt lat="42.02438" lon="43.55022">
        <ele>750.874487</ele>
        <time>2021-08-16T16:41:08.650Z</time>
      </trkpt>
      <trkpt lat="42.0243" lon="43.55031">
        <ele>750.689062</ele>
        <time>2021-08-16T16:41:10.786Z</time>
      </trkpt>
      <trkpt lat="42.02421" lon="43.55046">
        <ele>750.439646</ele>
        <time>2021-08-16T16:41:13.594Z</time>
      </trkpt>
      <trkpt lat="42.02407" lon="43.55107">
        <ele>749.621311</ele>
        <time>2021-08-16T16:41:22.608Z</time>
      </trkpt>
      <trkpt lat="42.02402" lon="43.55173">
        <ele>748.758568</ele>
        <time>2021-08-16T16:41:32.030Z</time>
      </trkpt>
      <trkpt lat="42.02398" lon="43.55234">
        <ele>747.722128</ele>
        <time>2021-08-16T16:41:40.623Z</time>
      </trkpt>
      <trkpt lat="42.02393" lon="43.55269">
        <ele>747.120923</ele>
        <time>2021-08-16T16:41:45.456Z</time>
      </trkpt>
      <trkpt lat="42.02376" lon="43.55368">
        <ele>745.377057</ele>
        <time>2021-08-16T16:41:59.573Z</time>
      </trkpt>
      <trkpt lat="42.02344" lon="43.55464">
        <ele>744.059047</ele>
        <time>2021-08-16T16:42:14.662Z</time>
      </trkpt>
      <trkpt lat="42.02316" lon="43.55535">
        <ele>743.338258</ele>
        <time>2021-08-16T16:42:26.858Z</time>
      </trkpt>
      <trkpt lat="42.02305" lon="43.55564">
        <ele>743.04157</ele>
        <time>2021-08-16T16:42:32.004Z</time>
      </trkpt>
      <trkpt lat="42.02279" lon="43.55619">
        <ele>742.451101</ele>
        <time>2021-08-16T16:42:42.371Z</time>
      </trkpt>
      <trkpt lat="42.02183" lon="43.55777">
        <ele>741.437678</ele>
        <time>2021-08-16T16:43:15.509Z</time>
      </trkpt>
      <trkpt lat="42.0214" lon="43.55825">
        <ele>740.937173</ele>
        <time>2021-08-16T16:43:27.015Z</time>
      </trkpt>
      <trkpt lat="42.02126" lon="43.55836">
        <ele>740.723699</ele>
        <time>2021-08-16T16:43:30.791Z</time>
      </trkpt>
      <trkpt lat="42.02124" lon="43.5584">
        <ele>740.692183</ele>
        <time>2021-08-16T16:43:31.295Z</time>
      </trkpt>
      <trkpt lat="42.02123" lon="43.55845">
        <ele>740.64174</ele>
        <time>2021-08-16T16:43:32.128Z</time>
      </trkpt>
      <trkpt lat="42.02123" lon="43.55851">
        <ele>740.581906</ele>
        <time>2021-08-16T16:43:32.949Z</time>
      </trkpt>
      <trkpt lat="42.02127" lon="43.55861">
        <ele>740.475286</ele>
        <time>2021-08-16T16:43:34.649Z</time>
      </trkpt>
      <trkpt lat="42.02124" lon="43.55883">
        <ele>740.269634</ele>
        <time>2021-08-16T16:43:38.027Z</time>
      </trkpt>
      <trkpt lat="42.02087" lon="43.55976">
        <ele>739.302874</ele>
        <time>2021-08-16T16:43:53.129Z</time>
      </trkpt>
      <trkpt lat="42.02087" lon="43.55987">
        <ele>739.203767</ele>
        <time>2021-08-16T16:43:54.510Z</time>
      </trkpt>
      <trkpt lat="42.02083" lon="43.5599">
        <ele>739.14201</ele>
        <time>2021-08-16T16:43:55.539Z</time>
      </trkpt>
      <trkpt lat="42.02074" lon="43.55999">
        <ele>739.005712</ele>
        <time>2021-08-16T16:43:57.708Z</time>
      </trkpt>
      <trkpt lat="42.02066" lon="43.56006">
        <ele>738.879032</ele>
        <time>2021-08-16T16:43:59.489Z</time>
      </trkpt>
      <trkpt lat="42.02062" lon="43.56011">
        <ele>738.799706</ele>
        <time>2021-08-16T16:44:00.485Z</time>
      </trkpt>
      <trkpt lat="42.02044" lon="43.5603">
        <ele>738.484561</ele>
        <time>2021-08-16T16:44:04.885Z</time>
      </trkpt>
      <trkpt lat="42.01991" lon="43.56085">
        <ele>737.565425</ele>
        <time>2021-08-16T16:44:17.832Z</time>
      </trkpt>
      <trkpt lat="42.01969" lon="43.56109">
        <ele>737.170953</ele>
        <time>2021-08-16T16:44:23.337Z</time>
      </trkpt>
      <trkpt lat="42.01951" lon="43.56126">
        <ele>736.860861</ele>
        <time>2021-08-16T16:44:27.583Z</time>
      </trkpt>
      <trkpt lat="42.01904" lon="43.56177">
        <ele>736.062478</ele>
        <time>2021-08-16T16:44:39.247Z</time>
      </trkpt>
      <trkpt lat="42.01888" lon="43.5619">
        <ele>735.831751</ele>
        <time>2021-08-16T16:44:42.654Z</time>
      </trkpt>
      <trkpt lat="42.0188" lon="43.56198">
        <ele>735.699102</ele>
        <time>2021-08-16T16:44:44.654Z</time>
      </trkpt>
      <trkpt lat="42.01863" lon="43.56215">
        <ele>735.432282</ele>
        <time>2021-08-16T16:44:48.626Z</time>
      </trkpt>
      <trkpt lat="42.01846" lon="43.56233">
        <ele>735.15123</ele>
        <time>2021-08-16T16:44:52.968Z</time>
      </trkpt>
      <trkpt lat="42.01843" lon="43.56236">
        <ele>735.105481</ele>
        <time>2021-08-16T16:44:53.644Z</time>
      </trkpt>
      <trkpt lat="42.0184" lon="43.56239">
        <ele>735.05814</ele>
        <time>2021-08-16T16:44:54.286Z</time>
      </trkpt>
      <trkpt lat="42.01805" lon="43.56275">
        <ele>734.493246</ele>
        <time>2021-08-16T16:45:03.025Z</time>
      </trkpt>
      <trkpt lat="42.01738" lon="43.56345">
        <ele>733.573309</ele>
        <time>2021-08-16T16:45:19.853Z</time>
      </trkpt>
      <trkpt lat="42.01725" lon="43.5636">
        <ele>733.401883</ele>
        <time>2021-08-16T16:45:23.092Z</time>
      </trkpt>
      <trkpt lat="42.01667" lon="43.56425">
        <ele>732.627537</ele>
        <time>2021-08-16T16:45:38.387Z</time>
      </trkpt>
      <trkpt lat="42.0162" lon="43.56486">
        <ele>731.825822</ele>
        <time>2021-08-16T16:45:51.245Z</time>
      </trkpt>
      <trkpt lat="42.01561" lon="43.56561">
        <ele>730.736133</ele>
        <time>2021-08-16T16:46:06.832Z</time>
      </trkpt>
      <trkpt lat="42.01522" lon="43.56613">
        <ele>729.998297</ele>
        <time>2021-08-16T16:46:17.306Z</time>
      </trkpt>
      <trkpt lat="42.01506" lon="43.56633">
        <ele>729.728409</ele>
        <time>2021-08-16T16:46:21.431Z</time>
      </trkpt>
      <trkpt lat="42.01486" lon="43.56653">
        <ele>729.421636</ele>
        <time>2021-08-16T16:46:26.159Z</time>
      </trkpt>
      <trkpt lat="42.0145" lon="43.56687">
        <ele>728.872276</ele>
        <time>2021-08-16T16:46:34.710Z</time>
      </trkpt>
      <trkpt lat="42.01432" lon="43.56701">
        <ele>728.610842</ele>
        <time>2021-08-16T16:46:38.749Z</time>
      </trkpt>
      <trkpt lat="42.01409" lon="43.56722">
        <ele>728.264717</ele>
        <time>2021-08-16T16:46:44.182Z</time>
      </trkpt>
      <trkpt lat="42.01401" lon="43.5673">
        <ele>728.1524</ele>
        <time>2021-08-16T16:46:45.870Z</time>
      </trkpt>
      <trkpt lat="42.01394" lon="43.56739">
        <ele>728.03058</ele>
        <time>2021-08-16T16:46:47.844Z</time>
      </trkpt>
      <trkpt lat="42.01358" lon="43.56799">
        <ele>727.609771</ele>
        <time>2021-08-16T16:46:59.390Z</time>
      </trkpt>
      <trkpt lat="42.01325" lon="43.56851">
        <ele>727.411289</ele>
        <time>2021-08-16T16:47:10.196Z</time>
      </trkpt>
      <trkpt lat="42.01308" lon="43.56873">
        <ele>727.31779</ele>
        <time>2021-08-16T16:47:15.340Z</time>
      </trkpt>
      <trkpt lat="42.01269" lon="43.56914">
        <ele>727.125036</ele>
        <time>2021-08-16T16:47:26.089Z</time>
      </trkpt>
      <trkpt lat="42.01242" lon="43.56945">
        <ele>727.055618</ele>
        <time>2021-08-16T16:47:33.837Z</time>
      </trkpt>
      <trkpt lat="42.01233" lon="43.56954">
        <ele>727.068424</ele>
        <time>2021-08-16T16:47:36.541Z</time>
      </trkpt>
      <trkpt lat="42.01218" lon="43.56968">
        <ele>727.087537</ele>
        <time>2021-08-16T16:47:40.548Z</time>
      </trkpt>
      <trkpt lat="42.01098" lon="43.5708">
        <ele>727.227089</ele>
        <time>2021-08-16T16:48:14.604Z</time>
      </trkpt>
      <trkpt lat="42.01064" lon="43.57112">
        <ele>727.191211</ele>
        <time>2021-08-16T16:48:23.599Z</time>
      </trkpt>
      <trkpt lat="42.00979" lon="43.57194">
        <ele>727.09981</ele>
        <time>2021-08-16T16:48:46.464Z</time>
      </trkpt>
      <trkpt lat="42.00902" lon="43.57258">
        <ele>726.901496</ele>
        <time>2021-08-16T16:49:06.119Z</time>
      </trkpt>
      <trkpt lat="42.00743" lon="43.57414">
        <ele>726.051178</ele>
        <time>2021-08-16T16:49:48.170Z</time>
      </trkpt>
      <trkpt lat="42.00645" lon="43.57542">
        <ele>724.999304</ele>
        <time>2021-08-16T16:50:15.482Z</time>
      </trkpt>
      <trkpt lat="42.00617" lon="43.57591">
        <ele>724.511358</ele>
        <time>2021-08-16T16:50:24.508Z</time>
      </trkpt>
      <trkpt lat="42.006" lon="43.57622">
        <ele>724.205442</ele>
        <time>2021-08-16T16:50:30.126Z</time>
      </trkpt>
      <trkpt lat="42.00587" lon="43.57617">
        <ele>724.06628</ele>
        <time>2021-08-16T16:50:32.751Z</time>
      </trkpt>
      <trkpt lat="42.00576" lon="43.57616">
        <ele>723.944825</ele>
        <time>2021-08-16T16:50:34.993Z</time>
      </trkpt>
      <trkpt lat="42.00543" lon="43.57617">
        <ele>723.59711</ele>
        <time>2021-08-16T16:50:41.478Z</time>
      </trkpt>
      <trkpt lat="42.00526" lon="43.57622">
        <ele>723.433083</ele>
        <time>2021-08-16T16:50:44.786Z</time>
      </trkpt>
      <trkpt lat="42.00491" lon="43.57648">
        <ele>723.069789</ele>
        <time>2021-08-16T16:50:52.894Z</time>
      </trkpt>
      <trkpt lat="42.00364" lon="43.57767">
        <ele>721.634043</ele>
        <time>2021-08-16T16:51:24.076Z</time>
      </trkpt>
      <trkpt lat="42.00332" lon="43.57797">
        <ele>721.185713</ele>
        <time>2021-08-16T16:51:31.987Z</time>
      </trkpt>
      <trkpt lat="42.00287" lon="43.57838">
        <ele>720.570257</ele>
        <time>2021-08-16T16:51:42.689Z</time>
      </trkpt>
      <trkpt lat="42.00096" lon="43.58021">
        <ele>717.292965</ele>
        <time>2021-08-16T16:52:27.535Z</time>
      </trkpt>
      <trkpt lat="42.00042" lon="43.58071">
        <ele>716.344736</ele>
        <time>2021-08-16T16:52:39.935Z</time>
      </trkpt>
      <trkpt lat="41.99978" lon="43.58133">
        <ele>715.21235</ele>
        <time>2021-08-16T16:52:54.932Z</time>
      </trkpt>
      <trkpt lat="41.99962" lon="43.58147">
        <ele>714.924931</ele>
        <time>2021-08-16T16:52:58.760Z</time>
      </trkpt>
      <trkpt lat="41.99902" lon="43.58203">
        <ele>713.913404</ele>
        <time>2021-08-16T16:53:12.577Z</time>
      </trkpt>
      <trkpt lat="41.99814" lon="43.58286">
        <ele>712.440689</ele>
        <time>2021-08-16T16:53:33.311Z</time>
      </trkpt>
      <trkpt lat="41.99786" lon="43.58313">
        <ele>711.934353</ele>
        <time>2021-08-16T16:53:40.039Z</time>
      </trkpt>
      <trkpt lat="41.99744" lon="43.58352">
        <ele>711.078614</ele>
        <time>2021-08-16T16:53:49.933Z</time>
      </trkpt>
      <trkpt lat="41.99705" lon="43.58389">
        <ele>710.285071</ele>
        <time>2021-08-16T16:53:58.996Z</time>
      </trkpt>
      <trkpt lat="41.99662" lon="43.58429">
        <ele>709.407861</ele>
        <time>2021-08-16T16:54:08.773Z</time>
      </trkpt>
      <trkpt lat="41.99611" lon="43.58478">
        <ele>707.80681</ele>
        <time>2021-08-16T16:54:19.834Z</time>
      </trkpt>
      <trkpt lat="41.99591" lon="43.58497">
        <ele>707.083217</ele>
        <time>2021-08-16T16:54:24.147Z</time>
      </trkpt>
      <trkpt lat="41.9958" lon="43.58508">
        <ele>706.668751</ele>
        <time>2021-08-16T16:54:26.590Z</time>
      </trkpt>
      <trkpt lat="41.99555" lon="43.5853">
        <ele>705.804466</ele>
        <time>2021-08-16T16:54:31.671Z</time>
      </trkpt>
      <trkpt lat="41.9953" lon="43.58554">
        <ele>704.897259</ele>
        <time>2021-08-16T16:54:36.908Z</time>
      </trkpt>
      <trkpt lat="41.99496" lon="43.58587">
        <ele>703.693321</ele>
        <time>2021-08-16T16:54:43.891Z</time>
      </trkpt>
      <trkpt lat="41.99442" lon="43.58636">
        <ele>702.005777</ele>
        <time>2021-08-16T16:54:54.961Z</time>
      </trkpt>
      <trkpt lat="41.99414" lon="43.58664">
        <ele>701.112319</ele>
        <time>2021-08-16T16:55:01.006Z</time>
      </trkpt>
      <trkpt lat="41.99366" lon="43.58714">
        <ele>699.550191</ele>
        <time>2021-08-16T16:55:12.011Z</time>
      </trkpt>
      <trkpt lat="41.99273" lon="43.58812">
        <ele>698.844945</ele>
        <time>2021-08-16T16:55:36.419Z</time>
      </trkpt>
      <trkpt lat="41.99217" lon="43.58869">
        <ele>698.604486</ele>
        <time>2021-08-16T16:55:53.393Z</time>
      </trkpt>
      <trkpt lat="41.9916" lon="43.58925">
        <ele>698.627503</ele>
        <time>2021-08-16T16:56:10.054Z</time>
      </trkpt>
      <trkpt lat="41.991" lon="43.58985">
        <ele>698.673972</ele>
        <time>2021-08-16T16:56:26.632Z</time>
      </trkpt>
      <trkpt lat="41.99041" lon="43.58817">
        <ele>698.559654</ele>
        <time>2021-08-16T16:57:06.437Z</time>
      </trkpt>
      <trkpt lat="41.99022" lon="43.58768">
        <ele>698.501684</ele>
        <time>2021-08-16T16:57:18.225Z</time>
      </trkpt>
      <trkpt lat="41.98987" lon="43.58806">
        <ele>698.447626</ele>
        <time>2021-08-16T16:57:28.584Z</time>
      </trkpt>
      <trkpt lat="41.98927" lon="43.5863">
        <ele>698.539375</ele>
        <time>2021-08-16T16:58:02.831Z</time>
      </trkpt>
      <trkpt lat="41.98867" lon="43.58446">
        <ele>698.577086</ele>
        <time>2021-08-16T16:58:37.312Z</time>
      </trkpt>
      <trkpt lat="41.98826" lon="43.58474">
        <ele>698.583993</ele>
        <time>2021-08-16T16:58:48.177Z</time>
      </trkpt>
      <trkpt lat="41.98777" lon="43.58508">
        <ele>698.661337</ele>
        <time>2021-08-16T16:59:01.092Z</time>
      </trkpt>
      <trkpt lat="41.9873" lon="43.58543">
        <ele>698.763949</ele>
        <time>2021-08-16T16:59:14.067Z</time>
      </trkpt>
      <trkpt lat="41.98683" lon="43.58575">
        <ele>698.864569</ele>
        <time>2021-08-16T16:59:26.873Z</time>
      </trkpt>
      <trkpt lat="41.98674" lon="43.58577">
        <ele>698.881993</ele>
        <time>2021-08-16T16:59:29.067Z</time>
      </trkpt>
      <trkpt lat="41.98629" lon="43.58596">
        <ele>698.964164</ele>
        <time>2021-08-16T16:59:40.692Z</time>
      </trkpt>
      <trkpt lat="41.98577" lon="43.58622">
        <ele>699.050214</ele>
        <time>2021-08-16T16:59:54.477Z</time>
      </trkpt>
      <trkpt lat="41.98528" lon="43.58647">
        <ele>699.131501</ele>
        <time>2021-08-16T17:00:06.738Z</time>
      </trkpt>
      <trkpt lat="41.98477" lon="43.58673">
        <ele>699.23004</ele>
        <time>2021-08-16T17:00:19.287Z</time>
      </trkpt>
      <trkpt lat="41.98427" lon="43.58697">
        <ele>699.472808</ele>
        <time>2021-08-16T17:00:31.826Z</time>
      </trkpt>
      <trkpt lat="41.98396" lon="43.58708">
        <ele>699.620491</ele>
        <time>2021-08-16T17:00:39.839Z</time>
      </trkpt>
      <trkpt lat="41.9839" lon="43.5871">
        <ele>699.647267</ele>
        <time>2021-08-16T17:00:41.142Z</time>
      </trkpt>
      <trkpt lat="41.98383" lon="43.58681">
        <ele>699.750207</ele>
        <time>2021-08-16T17:00:46.667Z</time>
      </trkpt>
      <trkpt lat="41.98287" lon="43.5833">
        <ele>702.103512</ele>
        <time>2021-08-16T17:02:02.903Z</time>
      </trkpt>
      <trkpt lat="41.98195" lon="43.57985">
        <ele>703.851902</ele>
        <time>2021-08-16T17:03:13.565Z</time>
      </trkpt>
      <trkpt lat="41.98169" lon="43.57884">
        <ele>704.037598</ele>
        <time>2021-08-16T17:03:30.898Z</time>
      </trkpt>
      <trkpt lat="41.98129" lon="43.57732">
        <ele>703.836991</ele>
        <time>2021-08-16T17:03:56.876Z</time>
      </trkpt>
      <trkpt lat="41.98097" lon="43.57615">
        <ele>703.800395</ele>
        <time>2021-08-16T17:04:17.221Z</time>
      </trkpt>
      <trkpt lat="41.98004" lon="43.57268">
        <ele>704.008456</ele>
        <time>2021-08-16T17:05:19.374Z</time>
      </trkpt>
      <trkpt lat="41.97978" lon="43.57171">
        <ele>704.129048</ele>
        <time>2021-08-16T17:05:37.251Z</time>
      </trkpt>
      <trkpt lat="41.97814" lon="43.5656">
        <ele>705.060218</ele>
        <time>2021-08-16T17:07:29.070Z</time>
      </trkpt>
      <trkpt lat="41.97628" lon="43.55866">
        <ele>707.586577</ele>
        <time>2021-08-16T17:09:43.694Z</time>
      </trkpt>
      <trkpt lat="41.97567" lon="43.55642">
        <ele>709.609195</ele>
        <time>2021-08-16T17:10:33.798Z</time>
      </trkpt>
      <trkpt lat="41.97498" lon="43.55392">
        <ele>712.26214</ele>
        <time>2021-08-16T17:11:34.266Z</time>
      </trkpt>
      <trkpt lat="41.97417" lon="43.55067">
        <ele>712.454581</ele>
        <time>2021-08-16T17:12:30.265Z</time>
      </trkpt>
      <trkpt lat="41.97352" lon="43.54838">
        <ele>712.363486</ele>
        <time>2021-08-16T17:13:09.824Z</time>
      </trkpt>
      <trkpt lat="41.97155" lon="43.54085">
        <ele>714.305602</ele>
        <time>2021-08-16T17:15:33.038Z</time>
      </trkpt>
      <trkpt lat="41.96608" lon="43.52067">
        <ele>720.399743</ele>
        <time>2021-08-16T17:21:59.883Z</time>
      </trkpt>
      <trkpt lat="41.9655" lon="43.51879">
        <ele>720.604809</ele>
        <time>2021-08-16T17:22:34.628Z</time>
      </trkpt>
      <trkpt lat="41.96403" lon="43.51555">
        <ele>720.614826</ele>
        <time>2021-08-16T17:23:36.915Z</time>
      </trkpt>
      <trkpt lat="41.96363" lon="43.51469">
        <ele>720.794121</ele>
        <time>2021-08-16T17:23:54.728Z</time>
      </trkpt>
      <trkpt lat="41.96289" lon="43.5131">
        <ele>721.115113</ele>
        <time>2021-08-16T17:24:28.121Z</time>
      </trkpt>
      <trkpt lat="41.9622" lon="43.512">
        <ele>721.355221</ele>
        <time>2021-08-16T17:24:52.997Z</time>
      </trkpt>
      <trkpt lat="41.9618" lon="43.51156">
        <ele>721.475891</ele>
        <time>2021-08-16T17:25:04.630Z</time>
      </trkpt>
      <trkpt lat="41.96093" lon="43.511">
        <ele>721.707914</ele>
        <time>2021-08-16T17:25:26.992Z</time>
      </trkpt>
      <trkpt lat="41.95812" lon="43.50917">
        <ele>722.616876</ele>
        <time>2021-08-16T17:26:43.214Z</time>
      </trkpt>
      <trkpt lat="41.95741" lon="43.50886">
        <ele>722.623429</ele>
        <time>2021-08-16T17:26:59.223Z</time>
      </trkpt>
      <trkpt lat="41.95733" lon="43.50882">
        <ele>722.624187</ele>
        <time>2021-08-16T17:27:00.961Z</time>
      </trkpt>
      <trkpt lat="41.95663" lon="43.50869">
        <ele>722.355369</ele>
        <time>2021-08-16T17:27:15.806Z</time>
      </trkpt>
      <trkpt lat="41.95596" lon="43.50865">
        <ele>722.064178</ele>
        <time>2021-08-16T17:27:29.639Z</time>
      </trkpt>
      <trkpt lat="41.95521" lon="43.50871">
        <ele>721.874486</ele>
        <time>2021-08-16T17:27:45.523Z</time>
      </trkpt>
      <trkpt lat="41.95359" lon="43.50896">
        <ele>722.135613</ele>
        <time>2021-08-16T17:28:23.910Z</time>
      </trkpt>
      <trkpt lat="41.94852" lon="43.5104">
        <ele>724.243122</ele>
        <time>2021-08-16T17:30:29.112Z</time>
      </trkpt>
      <trkpt lat="41.94799" lon="43.51045">
        <ele>724.926464</ele>
        <time>2021-08-16T17:30:43.202Z</time>
      </trkpt>
      <trkpt lat="41.94741" lon="43.51039">
        <ele>725.835667</ele>
        <time>2021-08-16T17:30:59.852Z</time>
      </trkpt>
      <trkpt lat="41.94646" lon="43.50978">
        <ele>727.60521</ele>
        <time>2021-08-16T17:31:34.613Z</time>
      </trkpt>
      <trkpt lat="41.94613" lon="43.50949">
        <ele>728.435108</ele>
        <time>2021-08-16T17:31:48.254Z</time>
      </trkpt>
      <trkpt lat="41.946" lon="43.50938">
        <ele>728.73756</ele>
        <time>2021-08-16T17:31:53.642Z</time>
      </trkpt>
      <trkpt lat="41.94541" lon="43.50881">
        <ele>730.264147</ele>
        <time>2021-08-16T17:32:18.027Z</time>
      </trkpt>
      <trkpt lat="41.94473" lon="43.50806">
        <ele>731.037692</ele>
        <time>2021-08-16T17:32:43.606Z</time>
      </trkpt>
      <trkpt lat="41.94419" lon="43.50727">
        <ele>731.247891</ele>
        <time>2021-08-16T17:33:01.187Z</time>
      </trkpt>
      <trkpt lat="41.94376" lon="43.50676">
        <ele>731.261613</ele>
        <time>2021-08-16T17:33:12.974Z</time>
      </trkpt>
      <trkpt lat="41.94187" lon="43.50547">
        <ele>730.756966</ele>
        <time>2021-08-16T17:33:55.989Z</time>
      </trkpt>
      <trkpt lat="41.94059" lon="43.50424">
        <ele>732.786328</ele>
        <time>2021-08-16T17:34:46.121Z</time>
      </trkpt>
      <trkpt lat="41.94019" lon="43.5038">
        <ele>733.722952</ele>
        <time>2021-08-16T17:35:05.271Z</time>
      </trkpt>
      <trkpt lat="41.93982" lon="43.50329">
        <ele>734.676011</ele>
        <time>2021-08-16T17:35:21.928Z</time>
      </trkpt>
      <trkpt lat="41.93969" lon="43.50304">
        <ele>735.085667</ele>
        <time>2021-08-16T17:35:29.308Z</time>
      </trkpt>
      <trkpt lat="41.93945" lon="43.50259">
        <ele>735.546261</ele>
        <time>2021-08-16T17:35:40.486Z</time>
      </trkpt>
      <trkpt lat="41.93861" lon="43.50057">
        <ele>734.990745</ele>
        <time>2021-08-16T17:36:16.115Z</time>
      </trkpt>
      <trkpt lat="41.9383" lon="43.49964">
        <ele>734.777058</ele>
        <time>2021-08-16T17:36:31.373Z</time>
      </trkpt>
      <trkpt lat="41.93805" lon="43.49866">
        <ele>734.559139</ele>
        <time>2021-08-16T17:36:48.089Z</time>
      </trkpt>
      <trkpt lat="41.9377" lon="43.49678">
        <ele>735.254808</ele>
        <time>2021-08-16T17:37:25.645Z</time>
      </trkpt>
      <trkpt lat="41.93748" lon="43.49579">
        <ele>735.623783</ele>
        <time>2021-08-16T17:37:45.333Z</time>
      </trkpt>
      <trkpt lat="41.93743" lon="43.4954">
        <ele>735.651353</ele>
        <time>2021-08-16T17:37:52.390Z</time>
      </trkpt>
      <trkpt lat="41.93739" lon="43.49258">
        <ele>735.646517</ele>
        <time>2021-08-16T17:38:38.507Z</time>
      </trkpt>
      <trkpt lat="41.9372" lon="43.49132">
        <ele>735.491886</ele>
        <time>2021-08-16T17:38:59.121Z</time>
      </trkpt>
      <trkpt lat="41.93716" lon="43.49112">
        <ele>735.457815</ele>
        <time>2021-08-16T17:39:02.868Z</time>
      </trkpt>
      <trkpt lat="41.93709" lon="43.49079">
        <ele>735.397695</ele>
        <time>2021-08-16T17:39:08.105Z</time>
      </trkpt>
      <trkpt lat="41.93693" lon="43.49034">
        <ele>735.308508</ele>
        <time>2021-08-16T17:39:16.161Z</time>
      </trkpt>
      <trkpt lat="41.93669" lon="43.48968">
        <ele>735.176144</ele>
        <time>2021-08-16T17:39:28.126Z</time>
      </trkpt>
      <trkpt lat="41.93651" lon="43.4892">
        <ele>735.08015</ele>
        <time>2021-08-16T17:39:36.730Z</time>
      </trkpt>
      <trkpt lat="41.93604" lon="43.48803">
        <ele>734.999624</ele>
        <time>2021-08-16T17:39:57.811Z</time>
      </trkpt>
      <trkpt lat="41.93578" lon="43.48753">
        <ele>734.972109</ele>
        <time>2021-08-16T17:40:07.856Z</time>
      </trkpt>
      <trkpt lat="41.93492" lon="43.48612">
        <ele>735.502125</ele>
        <time>2021-08-16T17:40:40.955Z</time>
      </trkpt>
      <trkpt lat="41.93373" lon="43.48439">
        <ele>736.600549</ele>
        <time>2021-08-16T17:41:27.441Z</time>
      </trkpt>
      <trkpt lat="41.93299" lon="43.48302">
        <ele>737.167043</ele>
        <time>2021-08-16T17:41:58.327Z</time>
      </trkpt>
      <trkpt lat="41.93252" lon="43.48242">
        <ele>737.101338</ele>
        <time>2021-08-16T17:42:12.579Z</time>
      </trkpt>
      <trkpt lat="41.93209" lon="43.48225">
        <ele>737.056435</ele>
        <time>2021-08-16T17:42:22.070Z</time>
      </trkpt>
      <trkpt lat="41.93171" lon="43.48225">
        <ele>737.017727</ele>
        <time>2021-08-16T17:42:30.268Z</time>
      </trkpt>
      <trkpt lat="41.93124" lon="43.48231">
        <ele>737.170599</ele>
        <time>2021-08-16T17:42:40.275Z</time>
      </trkpt>
      <trkpt lat="41.93084" lon="43.4824">
        <ele>737.316015</ele>
        <time>2021-08-16T17:42:49.355Z</time>
      </trkpt>
      <trkpt lat="41.93052" lon="43.48246">
        <ele>737.429107</ele>
        <time>2021-08-16T17:42:56.899Z</time>
      </trkpt>
      <trkpt lat="41.92983" lon="43.48261">
        <ele>737.787626</ele>
        <time>2021-08-16T17:43:15.436Z</time>
      </trkpt>
      <trkpt lat="41.92871" lon="43.48295">
        <ele>739.913627</ele>
        <time>2021-08-16T17:43:51.471Z</time>
      </trkpt>
      <trkpt lat="41.92744" lon="43.48335">
        <ele>742.002167</ele>
        <time>2021-08-16T17:44:35.416Z</time>
      </trkpt>
      <trkpt lat="41.92708" lon="43.48356">
        <ele>742.552839</ele>
        <time>2021-08-16T17:44:47.086Z</time>
      </trkpt>
      <trkpt lat="41.92693" lon="43.48371">
        <ele>742.813176</ele>
        <time>2021-08-16T17:44:52.940Z</time>
      </trkpt>
      <trkpt lat="41.92679" lon="43.48387">
        <ele>743.069461</ele>
        <time>2021-08-16T17:44:57.209Z</time>
      </trkpt>
      <trkpt lat="41.9263" lon="43.48437">
        <ele>743.198879</ele>
        <time>2021-08-16T17:45:11.628Z</time>
      </trkpt>
      <trkpt lat="41.92553" lon="43.48472">
        <ele>742.380723</ele>
        <time>2021-08-16T17:45:27.778Z</time>
      </trkpt>
      <trkpt lat="41.92435" lon="43.48485">
        <ele>740.988441</ele>
        <time>2021-08-16T17:45:49.942Z</time>
      </trkpt>
      <trkpt lat="41.92361" lon="43.48516">
        <ele>739.911554</ele>
        <time>2021-08-16T17:46:04.501Z</time>
      </trkpt>
      <trkpt lat="41.92318" lon="43.48522">
        <ele>739.309936</ele>
        <time>2021-08-16T17:46:12.971Z</time>
      </trkpt>
      <trkpt lat="41.923" lon="43.48522">
        <ele>739.20758</ele>
        <time>2021-08-16T17:46:16.503Z</time>
      </trkpt>
      <trkpt lat="41.92285" lon="43.48522">
        <ele>739.240334</ele>
        <time>2021-08-16T17:46:19.580Z</time>
      </trkpt>
      <trkpt lat="41.92211" lon="43.48515">
        <ele>739.407076</ele>
        <time>2021-08-16T17:46:35.984Z</time>
      </trkpt>
      <trkpt lat="41.92157" lon="43.48498">
        <ele>739.529532</ele>
        <time>2021-08-16T17:46:49.675Z</time>
      </trkpt>
      <trkpt lat="41.92114" lon="43.4848">
        <ele>739.955066</ele>
        <time>2021-08-16T17:47:02.917Z</time>
      </trkpt>
      <trkpt lat="41.92052" lon="43.48456">
        <ele>741.17811</ele>
        <time>2021-08-16T17:47:22.981Z</time>
      </trkpt>
      <trkpt lat="41.91896" lon="43.48382">
        <ele>744.515086</ele>
        <time>2021-08-16T17:48:18.838Z</time>
      </trkpt>
      <trkpt lat="41.91867" lon="43.48368">
        <ele>745.184272</ele>
        <time>2021-08-16T17:48:28.393Z</time>
      </trkpt>
      <trkpt lat="41.91837" lon="43.4837">
        <ele>745.838928</ele>
        <time>2021-08-16T17:48:37.441Z</time>
      </trkpt>
      <trkpt lat="41.91697" lon="43.48342">
        <ele>750.187867</ele>
        <time>2021-08-16T17:49:28.371Z</time>
      </trkpt>
      <trkpt lat="41.91682" lon="43.48346">
        <ele>750.745919</ele>
        <time>2021-08-16T17:49:34.411Z</time>
      </trkpt>
      <trkpt lat="41.91674" lon="43.48357">
        <ele>751.165051</ele>
        <time>2021-08-16T17:49:38.401Z</time>
      </trkpt>
      <trkpt lat="41.91664" lon="43.48348">
        <ele>751.574858</ele>
        <time>2021-08-16T17:49:44.595Z</time>
      </trkpt>
      <trkpt lat="41.91652" lon="43.48324">
        <ele>752.350642</ele>
        <time>2021-08-16T17:49:53.028Z</time>
      </trkpt>
      <trkpt lat="41.91649" lon="43.48278">
        <ele>753.693523</ele>
        <time>2021-08-16T17:50:09.557Z</time>
      </trkpt>
      <trkpt lat="41.91656" lon="43.48205">
        <ele>756.609189</ele>
        <time>2021-08-16T17:50:42.652Z</time>
      </trkpt>
      <trkpt lat="41.91664" lon="43.48168">
        <ele>758.113272</ele>
        <time>2021-08-16T17:50:58.429Z</time>
      </trkpt>
      <trkpt lat="41.91656" lon="43.4809">
        <ele>761.20985</ele>
        <time>2021-08-16T17:51:27.574Z</time>
      </trkpt>
      <trkpt lat="41.91662" lon="43.48068">
        <ele>762.119792</ele>
        <time>2021-08-16T17:51:36.705Z</time>
      </trkpt>
      <trkpt lat="41.91647" lon="43.48009">
        <ele>762.887915</ele>
        <time>2021-08-16T17:51:54.531Z</time>
      </trkpt>
      <trkpt lat="41.91585" lon="43.4786">
        <ele>762.876801</ele>
        <time>2021-08-16T17:52:22.200Z</time>
      </trkpt>
      <trkpt lat="41.91572" lon="43.47797">
        <ele>761.692521</ele>
        <time>2021-08-16T17:52:30.123Z</time>
      </trkpt>
      <trkpt lat="41.9154" lon="43.47769">
        <ele>760.071861</ele>
        <time>2021-08-16T17:52:36.192Z</time>
      </trkpt>
      <trkpt lat="41.91502" lon="43.47704">
        <ele>757.440754</ele>
        <time>2021-08-16T17:52:45.969Z</time>
      </trkpt>
      <trkpt lat="41.91447" lon="43.47487">
        <ele>751.360724</ele>
        <time>2021-08-16T17:53:14.001Z</time>
      </trkpt>
      <trkpt lat="41.91422" lon="43.47419">
        <ele>749.49842</ele>
        <time>2021-08-16T17:53:24.398Z</time>
      </trkpt>
      <trkpt lat="41.91379" lon="43.47355">
        <ele>748.826213</ele>
        <time>2021-08-16T17:53:36.700Z</time>
      </trkpt>
      <trkpt lat="41.91334" lon="43.47303">
        <ele>748.326405</ele>
        <time>2021-08-16T17:53:48.789Z</time>
      </trkpt>
      <trkpt lat="41.91299" lon="43.47276">
        <ele>747.988628</ele>
        <time>2021-08-16T17:53:57.286Z</time>
      </trkpt>
      <trkpt lat="41.91195" lon="43.47221">
        <ele>748.542588</ele>
        <time>2021-08-16T17:54:23.285Z</time>
      </trkpt>
      <trkpt lat="41.91074" lon="43.47139">
        <ele>750.232577</ele>
        <time>2021-08-16T17:55:03.535Z</time>
      </trkpt>
      <trkpt lat="41.91021" lon="43.47137">
        <ele>751.34714</ele>
        <time>2021-08-16T17:55:21.701Z</time>
      </trkpt>
      <trkpt lat="41.90899" lon="43.47203">
        <ele>753.922385</ele>
        <time>2021-08-16T17:56:05.812Z</time>
      </trkpt>
      <trkpt lat="41.90863" lon="43.47212">
        <ele>754.578256</ele>
        <time>2021-08-16T17:56:17.686Z</time>
      </trkpt>
      <trkpt lat="41.90837" lon="43.472">
        <ele>755.076536</ele>
        <time>2021-08-16T17:56:26.422Z</time>
      </trkpt>
      <trkpt lat="41.90766" lon="43.4714">
        <ele>756.330201</ele>
        <time>2021-08-16T17:56:50.777Z</time>
      </trkpt>
      <trkpt lat="41.90739" lon="43.47098">
        <ele>756.566387</ele>
        <time>2021-08-16T17:57:01.699Z</time>
      </trkpt>
      <trkpt lat="41.9072" lon="43.47047">
        <ele>756.812333</ele>
        <time>2021-08-16T17:57:12.411Z</time>
      </trkpt>
      <trkpt lat="41.90646" lon="43.46904">
        <ele>757.293858</ele>
        <time>2021-08-16T17:57:41.909Z</time>
      </trkpt>
      <trkpt lat="41.90619" lon="43.468">
        <ele>757.357236</ele>
        <time>2021-08-16T17:58:00.053Z</time>
      </trkpt>
      <trkpt lat="41.90605" lon="43.46713">
        <ele>757.437831</ele>
        <time>2021-08-16T17:58:15.491Z</time>
      </trkpt>
      <trkpt lat="41.90601" lon="43.46613">
        <ele>757.598611</ele>
        <time>2021-08-16T17:58:33.169Z</time>
      </trkpt>
      <trkpt lat="41.90604" lon="43.46494">
        <ele>757.778229</ele>
        <time>2021-08-16T17:58:54.473Z</time>
      </trkpt>
      <trkpt lat="41.90587" lon="43.4602">
        <ele>757.135696</ele>
        <time>2021-08-16T18:00:11.298Z</time>
      </trkpt>
      <trkpt lat="41.90577" lon="43.45955">
        <ele>756.693954</ele>
        <time>2021-08-16T18:00:21.248Z</time>
      </trkpt>
      <trkpt lat="41.9056" lon="43.45895">
        <ele>756.242357</ele>
        <time>2021-08-16T18:00:30.872Z</time>
      </trkpt>
      <trkpt lat="41.90506" lon="43.45782">
        <ele>755.276253</ele>
        <time>2021-08-16T18:00:50.593Z</time>
      </trkpt>
      <trkpt lat="41.90445" lon="43.45713">
        <ele>754.411924</ele>
        <time>2021-08-16T18:01:06.074Z</time>
      </trkpt>
      <trkpt lat="41.90221" lon="43.45562">
        <ele>752.086309</ele>
        <time>2021-08-16T18:01:56.072Z</time>
      </trkpt>
      <trkpt lat="41.90171" lon="43.4554">
        <ele>751.915668</ele>
        <time>2021-08-16T18:02:07.157Z</time>
      </trkpt>
      <trkpt lat="41.90055" lon="43.45505">
        <ele>751.763554</ele>
        <time>2021-08-16T18:02:33.583Z</time>
      </trkpt>
      <trkpt lat="41.89957" lon="43.45444">
        <ele>752.003179</ele>
        <time>2021-08-16T18:02:58.322Z</time>
      </trkpt>
      <trkpt lat="41.89951" lon="43.4544">
        <ele>752.024716</ele>
        <time>2021-08-16T18:02:59.788Z</time>
      </trkpt>
      <trkpt lat="41.89942" lon="43.45431">
        <ele>752.060492</ele>
        <time>2021-08-16T18:03:02.417Z</time>
      </trkpt>
      <trkpt lat="41.89847" lon="43.45335">
        <ele>752.735095</ele>
        <time>2021-08-16T18:03:32.274Z</time>
      </trkpt>
      <trkpt lat="41.89811" lon="43.45292">
        <ele>753.227876</ele>
        <time>2021-08-16T18:03:45.102Z</time>
      </trkpt>
      <trkpt lat="41.89595" lon="43.44914">
        <ele>757.953979</ele>
        <time>2021-08-16T18:05:28.203Z</time>
      </trkpt>
      <trkpt lat="41.89505" lon="43.44779">
        <ele>760.183121</ele>
        <time>2021-08-16T18:06:09.744Z</time>
      </trkpt>
      <trkpt lat="41.89485" lon="43.44733">
        <ele>760.918567</ele>
        <time>2021-08-16T18:06:22.680Z</time>
      </trkpt>
      <trkpt lat="41.89474" lon="43.44679">
        <ele>761.696831</ele>
        <time>2021-08-16T18:06:36.718Z</time>
      </trkpt>
      <trkpt lat="41.89477" lon="43.44611">
        <ele>762.637456</ele>
        <time>2021-08-16T18:06:53.958Z</time>
      </trkpt>
      <trkpt lat="41.89474" lon="43.44574">
        <ele>762.854711</ele>
        <time>2021-08-16T18:07:02.268Z</time>
      </trkpt>
      <trkpt lat="41.89476" lon="43.44509">
        <ele>763.023743</ele>
        <time>2021-08-16T18:07:14.179Z</time>
      </trkpt>
      <trkpt lat="41.89476" lon="43.44507">
        <ele>763.029725</ele>
        <time>2021-08-16T18:07:14.988Z</time>
      </trkpt>
      <trkpt lat="41.89496" lon="43.44449">
        <ele>763.195589</ele>
        <time>2021-08-16T18:07:25.713Z</time>
      </trkpt>
      <trkpt lat="41.89494" lon="43.44435">
        <ele>763.232286</ele>
        <time>2021-08-16T18:07:27.916Z</time>
      </trkpt>
      <trkpt lat="41.89443" lon="43.44363">
        <ele>763.85208</ele>
        <time>2021-08-16T18:07:44.287Z</time>
      </trkpt>
      <trkpt lat="41.89439" lon="43.44357">
        <ele>763.973215</ele>
        <time>2021-08-16T18:07:45.890Z</time>
      </trkpt>
      <trkpt lat="41.89431" lon="43.44342">
        <ele>764.241682</ele>
        <time>2021-08-16T18:07:49.864Z</time>
      </trkpt>
      <trkpt lat="41.89408" lon="43.44371">
        <ele>764.887008</ele>
        <time>2021-08-16T18:07:59.048Z</time>
      </trkpt>
      <trkpt lat="41.89392" lon="43.44393">
        <ele>765.343014</ele>
        <time>2021-08-16T18:08:06.113Z</time>
      </trkpt>
      <trkpt lat="41.89353" lon="43.44364">
        <ele>766.248913</ele>
        <time>2021-08-16T18:08:21.406Z</time>
      </trkpt>
      <trkpt lat="41.89318" lon="43.44335">
        <ele>767.139314</ele>
        <time>2021-08-16T18:08:38.359Z</time>
      </trkpt>
      <trkpt lat="41.893" lon="43.44322">
        <ele>768.487954</ele>
        <time>2021-08-16T18:08:47.941Z</time>
      </trkpt>
      <trkpt lat="41.89344" lon="43.44216">
        <ele>774.44107</ele>
        <time>2021-08-16T18:09:36.968Z</time>
      </trkpt>
      <trkpt lat="41.8936" lon="43.44161">
        <ele>777.353044</ele>
        <time>2021-08-16T18:10:04.357Z</time>
      </trkpt>
      <trkpt lat="41.89364" lon="43.44119">
        <ele>779.708395</ele>
        <time>2021-08-16T18:10:23.490Z</time>
      </trkpt>
      <trkpt lat="41.89363" lon="43.44095">
        <ele>781.485047</ele>
        <time>2021-08-16T18:10:37.416Z</time>
      </trkpt>
      <trkpt lat="41.89359" lon="43.43992">
        <ele>789.178945</ele>
        <time>2021-08-16T18:11:35.617Z</time>
      </trkpt>
      <trkpt lat="41.89351" lon="43.43963">
        <ele>791.486663</ele>
        <time>2021-08-16T18:11:52.876Z</time>
      </trkpt>
      <trkpt lat="41.89328" lon="43.43937">
        <ele>794.510606</ele>
        <time>2021-08-16T18:12:16.046Z</time>
      </trkpt>
      <trkpt lat="41.89319" lon="43.43931">
        <ele>795.547873</ele>
        <time>2021-08-16T18:12:25.258Z</time>
      </trkpt>
      <trkpt lat="41.893" lon="43.43931">
        <ele>797.205967</ele>
        <time>2021-08-16T18:12:40.238Z</time>
      </trkpt>
      <trkpt lat="41.89264" lon="43.43936">
        <ele>799.076664</ele>
        <time>2021-08-16T18:13:05.611Z</time>
      </trkpt>
      <trkpt lat="41.89225" lon="43.43928">
        <ele>801.096353</ele>
        <time>2021-08-16T18:13:29.078Z</time>
      </trkpt>
      <trkpt lat="41.89198" lon="43.43938">
        <ele>802.541791</ele>
        <time>2021-08-16T18:13:44.138Z</time>
      </trkpt>
      <trkpt lat="41.89159" lon="43.43916">
        <ele>804.742981</ele>
        <time>2021-08-16T18:14:02.614Z</time>
      </trkpt>
      <trkpt lat="41.89094" lon="43.43907">
        <ele>803.533611</ele>
        <time>2021-08-16T18:14:15.381Z</time>
      </trkpt>
      <trkpt lat="41.89039" lon="43.43868">
        <ele>798.931697</ele>
        <time>2021-08-16T18:14:25.271Z</time>
      </trkpt>
      <trkpt lat="41.88967" lon="43.43777">
        <ele>791.329339</ele>
        <time>2021-08-16T18:14:39.579Z</time>
      </trkpt>
      <trkpt lat="41.88918" lon="43.4372">
        <ele>785.383856</ele>
        <time>2021-08-16T18:14:49.037Z</time>
      </trkpt>
      <trkpt lat="41.88911" lon="43.43711">
        <ele>784.508495</ele>
        <time>2021-08-16T18:14:50.428Z</time>
      </trkpt>
      <trkpt lat="41.88901" lon="43.43698">
        <ele>783.200236</ele>
        <time>2021-08-16T18:14:52.555Z</time>
      </trkpt>
      <trkpt lat="41.88891" lon="43.43679">
        <ele>781.655827</ele>
        <time>2021-08-16T18:14:55.085Z</time>
      </trkpt>
      <trkpt lat="41.88854" lon="43.43638">
        <ele>777.207887</ele>
        <time>2021-08-16T18:15:02.524Z</time>
      </trkpt>
      <trkpt lat="41.88736" lon="43.43533">
        <ele>775.564462</ele>
        <time>2021-08-16T18:15:31.367Z</time>
      </trkpt>
      <trkpt lat="41.88663" lon="43.43492">
        <ele>776.302539</ele>
        <time>2021-08-16T18:16:03.048Z</time>
      </trkpt>
      <trkpt lat="41.88645" lon="43.43477">
        <ele>776.987399</ele>
        <time>2021-08-16T18:16:11.620Z</time>
      </trkpt>
      <trkpt lat="41.88635" lon="43.43473">
        <ele>777.328984</ele>
        <time>2021-08-16T18:16:16.310Z</time>
      </trkpt>
      <trkpt lat="41.88518" lon="43.43387">
        <ele>781.763532</ele>
        <time>2021-08-16T18:17:10.095Z</time>
      </trkpt>
      <trkpt lat="41.88467" lon="43.43336">
        <ele>784.150511</ele>
        <time>2021-08-16T18:17:31.304Z</time>
      </trkpt>
      <trkpt lat="41.88364" lon="43.43255">
        <ele>789.446533</ele>
        <time>2021-08-16T18:18:25.641Z</time>
      </trkpt>
      <trkpt lat="41.88336" lon="43.43242">
        <ele>791.619925</ele>
        <time>2021-08-16T18:18:41.405Z</time>
      </trkpt>
      <trkpt lat="41.88282" lon="43.43218">
        <ele>795.936338</ele>
        <time>2021-08-16T18:19:16.690Z</time>
      </trkpt>
      <trkpt lat="41.8825" lon="43.43217">
        <ele>798.342168</ele>
        <time>2021-08-16T18:19:38.170Z</time>
      </trkpt>
      <trkpt lat="41.88199" lon="43.43201">
        <ele>802.363972</ele>
        <time>2021-08-16T18:20:16.101Z</time>
      </trkpt>
      <trkpt lat="41.88085" lon="43.43194">
        <ele>811.295067</ele>
        <time>2021-08-16T18:21:34.632Z</time>
      </trkpt>
      <trkpt lat="41.87935" lon="43.43157">
        <ele>818.097577</ele>
        <time>2021-08-16T18:22:47.130Z</time>
      </trkpt>
      <trkpt lat="41.8792" lon="43.43138">
        <ele>818.643819</ele>
        <time>2021-08-16T18:22:53.226Z</time>
      </trkpt>
      <trkpt lat="41.87857" lon="43.43107">
        <ele>820.091189</ele>
        <time>2021-08-16T18:23:08.801Z</time>
      </trkpt>
      <trkpt lat="41.87844" lon="43.43094">
        <ele>819.565388</ele>
        <time>2021-08-16T18:23:12.204Z</time>
      </trkpt>
      <trkpt lat="41.8779" lon="43.43009">
        <ele>816.942989</ele>
        <time>2021-08-16T18:23:27.110Z</time>
      </trkpt>
      <trkpt lat="41.87762" lon="43.42951">
        <ele>815.306802</ele>
        <time>2021-08-16T18:23:35.955Z</time>
      </trkpt>
      <trkpt lat="41.87753" lon="43.42949">
        <ele>815.013289</ele>
        <time>2021-08-16T18:23:37.548Z</time>
      </trkpt>
      <trkpt lat="41.87729" lon="43.42969">
        <ele>813.969693</ele>
        <time>2021-08-16T18:23:42.268Z</time>
      </trkpt>
      <trkpt lat="41.87724" lon="43.42964">
        <ele>813.725937</ele>
        <time>2021-08-16T18:23:43.254Z</time>
      </trkpt>
      <trkpt lat="41.87734" lon="43.42926">
        <ele>812.461742</ele>
        <time>2021-08-16T18:23:48.250Z</time>
      </trkpt>
      <trkpt lat="41.87705" lon="43.42837">
        <ele>809.397863</ele>
        <time>2021-08-16T18:24:00.421Z</time>
      </trkpt>
      <trkpt lat="41.87692" lon="43.42765">
        <ele>807.045102</ele>
        <time>2021-08-16T18:24:09.976Z</time>
      </trkpt>
      <trkpt lat="41.87685" lon="43.42717">
        <ele>806.881472</ele>
        <time>2021-08-16T18:24:16.508Z</time>
      </trkpt>
      <trkpt lat="41.8768" lon="43.42603">
        <ele>806.744806</ele>
        <time>2021-08-16T18:24:33.614Z</time>
      </trkpt>
      <trkpt lat="41.87663" lon="43.42492">
        <ele>807.719219</ele>
        <time>2021-08-16T18:25:07.050Z</time>
      </trkpt>
      <trkpt lat="41.87654" lon="43.42474">
        <ele>808.419288</ele>
        <time>2021-08-16T18:25:15.987Z</time>
      </trkpt>
      <trkpt lat="41.87644" lon="43.42454">
        <ele>809.272714</ele>
        <time>2021-08-16T18:25:24.634Z</time>
      </trkpt>
      <trkpt lat="41.87632" lon="43.42433">
        <ele>810.142072</ele>
        <time>2021-08-16T18:25:35.988Z</time>
      </trkpt>
      <trkpt lat="41.87592" lon="43.42393">
        <ele>812.405099</ele>
        <time>2021-08-16T18:26:00.346Z</time>
      </trkpt>
      <trkpt lat="41.87566" lon="43.4236">
        <ele>814.011581</ele>
        <time>2021-08-16T18:26:16.056Z</time>
      </trkpt>
      <trkpt lat="41.87563" lon="43.42351">
        <ele>814.351441</ele>
        <time>2021-08-16T18:26:20.140Z</time>
      </trkpt>
      <trkpt lat="41.87561" lon="43.42345">
        <ele>814.570649</ele>
        <time>2021-08-16T18:26:22.994Z</time>
      </trkpt>
      <trkpt lat="41.87558" lon="43.42335">
        <ele>814.787671</ele>
        <time>2021-08-16T18:26:26.335Z</time>
      </trkpt>
      <trkpt lat="41.87557" lon="43.42238">
        <ele>814.998536</ele>
        <time>2021-08-16T18:26:52.516Z</time>
      </trkpt>
      <trkpt lat="41.87553" lon="43.42208">
        <ele>815.063427</ele>
        <time>2021-08-16T18:26:58.225Z</time>
      </trkpt>
      <trkpt lat="41.87541" lon="43.4218">
        <ele>815.134348</ele>
        <time>2021-08-16T18:27:03.231Z</time>
      </trkpt>
      <trkpt lat="41.87526" lon="43.42164">
        <ele>815.189386</ele>
        <time>2021-08-16T18:27:06.866Z</time>
      </trkpt>
      <trkpt lat="41.87511" lon="43.42156">
        <ele>815.236562</ele>
        <time>2021-08-16T18:27:09.602Z</time>
      </trkpt>
      <trkpt lat="41.87478" lon="43.42153">
        <ele>815.20289</ele>
        <time>2021-08-16T18:27:15.503Z</time>
      </trkpt>
      <trkpt lat="41.87437" lon="43.4216">
        <ele>814.817474</ele>
        <time>2021-08-16T18:27:23.020Z</time>
      </trkpt>
      <trkpt lat="41.87423" lon="43.42163">
        <ele>814.679618</ele>
        <time>2021-08-16T18:27:25.769Z</time>
      </trkpt>
      <trkpt lat="41.87389" lon="43.4217">
        <ele>814.365786</ele>
        <time>2021-08-16T18:27:32.487Z</time>
      </trkpt>
      <trkpt lat="41.87351" lon="43.42207">
        <ele>813.929945</ele>
        <time>2021-08-16T18:27:44.044Z</time>
      </trkpt>
      <trkpt lat="41.8731" lon="43.42227">
        <ele>814.028586</ele>
        <time>2021-08-16T18:27:56.624Z</time>
      </trkpt>
      <trkpt lat="41.87268" lon="43.42257">
        <ele>815.660048</ele>
        <time>2021-08-16T18:28:13.233Z</time>
      </trkpt>
      <trkpt lat="41.87225" lon="43.42302">
        <ele>817.550604</ele>
        <time>2021-08-16T18:28:36.410Z</time>
      </trkpt>
      <trkpt lat="41.87171" lon="43.4232">
        <ele>819.472525</ele>
        <time>2021-08-16T18:29:01.749Z</time>
      </trkpt>
      <trkpt lat="41.87083" lon="43.4236">
        <ele>824.030565</ele>
        <time>2021-08-16T18:29:47.536Z</time>
      </trkpt>
      <trkpt lat="41.87025" lon="43.42373">
        <ele>827.042152</ele>
        <time>2021-08-16T18:30:16.593Z</time>
      </trkpt>
      <trkpt lat="41.86989" lon="43.42372">
        <ele>828.893148</ele>
        <time>2021-08-16T18:30:34.243Z</time>
      </trkpt>
      <trkpt lat="41.8697" lon="43.42381">
        <ele>829.845951</ele>
        <time>2021-08-16T18:30:43.589Z</time>
      </trkpt>
      <trkpt lat="41.86959" lon="43.42396">
        <ele>830.640577</ele>
        <time>2021-08-16T18:30:51.715Z</time>
      </trkpt>
      <trkpt lat="41.86942" lon="43.42396">
        <ele>831.418091</ele>
        <time>2021-08-16T18:30:59.317Z</time>
      </trkpt>
      <trkpt lat="41.8686" lon="43.42383">
        <ele>835.446928</ele>
        <time>2021-08-16T18:31:39.429Z</time>
      </trkpt>
      <trkpt lat="41.86725" lon="43.42314">
        <ele>840.642093</ele>
        <time>2021-08-16T18:32:44.514Z</time>
      </trkpt>
      <trkpt lat="41.86658" lon="43.423">
        <ele>842.672265</ele>
        <time>2021-08-16T18:33:09.181Z</time>
      </trkpt>
      <trkpt lat="41.86606" lon="43.42276">
        <ele>841.037184</ele>
        <time>2021-08-16T18:33:23.245Z</time>
      </trkpt>
      <trkpt lat="41.86553" lon="43.42231">
        <ele>837.858513</ele>
        <time>2021-08-16T18:33:33.365Z</time>
      </trkpt>
      <trkpt lat="41.86539" lon="43.42213">
        <ele>836.864569</ele>
        <time>2021-08-16T18:33:36.611Z</time>
      </trkpt>
      <trkpt lat="41.86524" lon="43.42186">
        <ele>835.584067</ele>
        <time>2021-08-16T18:33:40.381Z</time>
      </trkpt>
      <trkpt lat="41.86515" lon="43.42149">
        <ele>834.073956</ele>
        <time>2021-08-16T18:33:44.814Z</time>
      </trkpt>
      <trkpt lat="41.86499" lon="43.4214">
        <ele>832.413927</ele>
        <time>2021-08-16T18:33:47.501Z</time>
      </trkpt>
      <trkpt lat="41.86493" lon="43.42142">
        <ele>831.693318</ele>
        <time>2021-08-16T18:33:48.427Z</time>
      </trkpt>
      <trkpt lat="41.86501" lon="43.42109">
        <ele>828.920425</ele>
        <time>2021-08-16T18:33:52.386Z</time>
      </trkpt>
      <trkpt lat="41.86491" lon="43.42055">
        <ele>824.486872</ele>
        <time>2021-08-16T18:33:58.444Z</time>
      </trkpt>
      <trkpt lat="41.86431" lon="43.41971">
        <ele>815.161889</ele>
        <time>2021-08-16T18:34:10.988Z</time>
      </trkpt>
      <trkpt lat="41.86317" lon="43.41931">
        <ele>806.435101</ele>
        <time>2021-08-16T18:34:29.047Z</time>
      </trkpt>
      <trkpt lat="41.86278" lon="43.41922">
        <ele>803.497107</ele>
        <time>2021-08-16T18:34:35.632Z</time>
      </trkpt>
      <trkpt lat="41.86269" lon="43.41899">
        <ele>802.086842</ele>
        <time>2021-08-16T18:34:38.964Z</time>
      </trkpt>
      <trkpt lat="41.86249" lon="43.41822">
        <ele>798.846504</ele>
        <time>2021-08-16T18:34:49.277Z</time>
      </trkpt>
      <trkpt lat="41.8625" lon="43.41788">
        <ele>797.575556</ele>
        <time>2021-08-16T18:34:53.590Z</time>
      </trkpt>
      <trkpt lat="41.86268" lon="43.41718">
        <ele>794.808094</ele>
        <time>2021-08-16T18:35:02.630Z</time>
      </trkpt>
      <trkpt lat="41.86275" lon="43.41698">
        <ele>794.004836</ele>
        <time>2021-08-16T18:35:05.573Z</time>
      </trkpt>
      <trkpt lat="41.86248" lon="43.4163">
        <ele>791.113764</ele>
        <time>2021-08-16T18:35:14.995Z</time>
      </trkpt>
      <trkpt lat="41.8623" lon="43.41607">
        <ele>789.881224</ele>
        <time>2021-08-16T18:35:19.168Z</time>
      </trkpt>
      <trkpt lat="41.86222" lon="43.41595">
        <ele>789.254237</ele>
        <time>2021-08-16T18:35:21.037Z</time>
      </trkpt>
      <trkpt lat="41.86245" lon="43.41572">
        <ele>787.797029</ele>
        <time>2021-08-16T18:35:25.713Z</time>
      </trkpt>
      <trkpt lat="41.8625" lon="43.41567">
        <ele>787.502489</ele>
        <time>2021-08-16T18:35:26.591Z</time>
      </trkpt>
      <trkpt lat="41.86254" lon="43.41553">
        <ele>786.938508</ele>
        <time>2021-08-16T18:35:28.463Z</time>
      </trkpt>
      <trkpt lat="41.8625" lon="43.41548">
        <ele>786.658</ele>
        <time>2021-08-16T18:35:29.343Z</time>
      </trkpt>
      <trkpt lat="41.86146" lon="43.41382">
        <ele>782.181994</ele>
        <time>2021-08-16T18:35:57.895Z</time>
      </trkpt>
      <trkpt lat="41.86127" lon="43.41341">
        <ele>781.718213</ele>
        <time>2021-08-16T18:36:08.036Z</time>
      </trkpt>
      <trkpt lat="41.86122" lon="43.41346">
        <ele>781.639301</ele>
        <time>2021-08-16T18:36:09.823Z</time>
      </trkpt>
      <trkpt lat="41.86108" lon="43.4136">
        <ele>781.406698</ele>
        <time>2021-08-16T18:36:15.362Z</time>
      </trkpt>
      <trkpt lat="41.86076" lon="43.41387">
        <ele>781.293303</ele>
        <time>2021-08-16T18:36:26.461Z</time>
      </trkpt>
      <trkpt lat="41.86035" lon="43.41422">
        <ele>781.821793</ele>
        <time>2021-08-16T18:36:41.584Z</time>
      </trkpt>
      <trkpt lat="41.86017" lon="43.41442">
        <ele>782.082248</ele>
        <time>2021-08-16T18:36:49.706Z</time>
      </trkpt>
      <trkpt lat="41.86004" lon="43.41454">
        <ele>782.255009</ele>
        <time>2021-08-16T18:36:53.994Z</time>
      </trkpt>
      <trkpt lat="41.85964" lon="43.41495">
        <ele>782.806964</ele>
        <time>2021-08-16T18:37:07.314Z</time>
      </trkpt>
      <trkpt lat="41.85903" lon="43.41529">
        <ele>782.945476</ele>
        <time>2021-08-16T18:37:21.805Z</time>
      </trkpt>
      <trkpt lat="41.85879" lon="43.41537">
        <ele>782.848376</ele>
        <time>2021-08-16T18:37:26.752Z</time>
      </trkpt>
      <trkpt lat="41.85858" lon="43.41539">
        <ele>782.764594</ele>
        <time>2021-08-16T18:37:30.915Z</time>
      </trkpt>
      <trkpt lat="41.85797" lon="43.41527">
        <ele>782.518455</ele>
        <time>2021-08-16T18:37:43.463Z</time>
      </trkpt>
      <trkpt lat="41.85743" lon="43.41506">
        <ele>782.687912</ele>
        <time>2021-08-16T18:37:55.505Z</time>
      </trkpt>
      <trkpt lat="41.85709" lon="43.41465">
        <ele>783.271631</ele>
        <time>2021-08-16T18:38:07.491Z</time>
      </trkpt>
      <trkpt lat="41.85665" lon="43.41389">
        <ele>784.200049</ele>
        <time>2021-08-16T18:38:29.542Z</time>
      </trkpt>
      <trkpt lat="41.85651" lon="43.41379">
        <ele>784.403502</ele>
        <time>2021-08-16T18:38:34.869Z</time>
      </trkpt>
      <trkpt lat="41.85631" lon="43.41373">
        <ele>784.670143</ele>
        <time>2021-08-16T18:38:41.511Z</time>
      </trkpt>
      <trkpt lat="41.85607" lon="43.41366">
        <ele>785.268103</ele>
        <time>2021-08-16T18:38:49.897Z</time>
      </trkpt>
      <trkpt lat="41.85514" lon="43.41342">
        <ele>787.73488</ele>
        <time>2021-08-16T18:39:23.939Z</time>
      </trkpt>
      <trkpt lat="41.85435" lon="43.4133">
        <ele>789.562079</ele>
        <time>2021-08-16T18:39:53.031Z</time>
      </trkpt>
      <trkpt lat="41.85369" lon="43.41323">
        <ele>790.236554</ele>
        <time>2021-08-16T18:40:14.310Z</time>
      </trkpt>
      <trkpt lat="41.85349" lon="43.41322">
        <ele>790.431981</ele>
        <time>2021-08-16T18:40:19.632Z</time>
      </trkpt>
      <trkpt lat="41.85287" lon="43.41317">
        <ele>791.064178</ele>
        <time>2021-08-16T18:40:33.394Z</time>
      </trkpt>
      <trkpt lat="41.8523" lon="43.41313">
        <ele>790.829253</ele>
        <time>2021-08-16T18:40:44.959Z</time>
      </trkpt>
      <trkpt lat="41.85205" lon="43.41308">
        <ele>790.575891</ele>
        <time>2021-08-16T18:40:50.359Z</time>
      </trkpt>
      <trkpt lat="41.85196" lon="43.41305">
        <ele>790.485924</ele>
        <time>2021-08-16T18:40:51.952Z</time>
      </trkpt>
      <trkpt lat="41.85135" lon="43.41285">
        <ele>789.883112</ele>
        <time>2021-08-16T18:41:04.353Z</time>
      </trkpt>
      <trkpt lat="41.85038" lon="43.41279">
        <ele>789.042023</ele>
        <time>2021-08-16T18:41:23.107Z</time>
      </trkpt>
      <trkpt lat="41.85017" lon="43.4127">
        <ele>788.864106</ele>
        <time>2021-08-16T18:41:27.692Z</time>
      </trkpt>
      <trkpt lat="41.84997" lon="43.41256">
        <ele>788.68206</ele>
        <time>2021-08-16T18:41:32.575Z</time>
      </trkpt>
      <trkpt lat="41.84981" lon="43.41242">
        <ele>788.531474</ele>
        <time>2021-08-16T18:41:36.390Z</time>
      </trkpt>
      <trkpt lat="41.84962" lon="43.41217">
        <ele>788.317608</ele>
        <time>2021-08-16T18:41:41.955Z</time>
      </trkpt>
      <trkpt lat="41.84933" lon="43.41161">
        <ele>788.048202</ele>
        <time>2021-08-16T18:41:52.515Z</time>
      </trkpt>
      <trkpt lat="41.84891" lon="43.41038">
        <ele>788.011976</ele>
        <time>2021-08-16T18:42:14.023Z</time>
      </trkpt>
      <trkpt lat="41.84855" lon="43.40888">
        <ele>788.343469</ele>
        <time>2021-08-16T18:42:43.899Z</time>
      </trkpt>
      <trkpt lat="41.84819" lon="43.40713">
        <ele>789.231571</ele>
        <time>2021-08-16T18:43:18.490Z</time>
      </trkpt>
      <trkpt lat="41.84802" lon="43.40624">
        <ele>789.810003</ele>
        <time>2021-08-16T18:43:35.999Z</time>
      </trkpt>
      <trkpt lat="41.84789" lon="43.40563">
        <ele>790.207415</ele>
        <time>2021-08-16T18:43:47.214Z</time>
      </trkpt>
      <trkpt lat="41.84781" lon="43.40509">
        <ele>790.560205</ele>
        <time>2021-08-16T18:43:59.206Z</time>
      </trkpt>
      <trkpt lat="41.84779" lon="43.40485">
        <ele>790.749811</ele>
        <time>2021-08-16T18:44:04.154Z</time>
      </trkpt>
      <trkpt lat="41.84774" lon="43.40455">
        <ele>791.083925</ele>
        <time>2021-08-16T18:44:11.264Z</time>
      </trkpt>
      <trkpt lat="41.84763" lon="43.40414">
        <ele>791.568705</ele>
        <time>2021-08-16T18:44:22.467Z</time>
      </trkpt>
      <trkpt lat="41.84748" lon="43.40382">
        <ele>791.984069</ele>
        <time>2021-08-16T18:44:30.765Z</time>
      </trkpt>
      <trkpt lat="41.84744" lon="43.40373">
        <ele>792.089467</ele>
        <time>2021-08-16T18:44:34.009Z</time>
      </trkpt>
      <trkpt lat="41.84686" lon="43.40246">
        <ele>793.600444</ele>
        <time>2021-08-16T18:45:05.688Z</time>
      </trkpt>
      <trkpt lat="41.84653" lon="43.40144">
        <ele>794.435405</ele>
        <time>2021-08-16T18:45:23.382Z</time>
      </trkpt>
      <trkpt lat="41.84637" lon="43.40071">
        <ele>795.005442</ele>
        <time>2021-08-16T18:45:43.141Z</time>
      </trkpt>
      <trkpt lat="41.84634" lon="43.40045">
        <ele>795.175435</ele>
        <time>2021-08-16T18:45:50.060Z</time>
      </trkpt>
      <trkpt lat="41.84631" lon="43.40023">
        <ele>795.271945</ele>
        <time>2021-08-16T18:45:55.891Z</time>
      </trkpt>
      <trkpt lat="41.84628" lon="43.39993">
        <ele>795.401484</ele>
        <time>2021-08-16T18:46:02.165Z</time>
      </trkpt>
      <trkpt lat="41.84617" lon="43.39941">
        <ele>795.637103</ele>
        <time>2021-08-16T18:46:11.200Z</time>
      </trkpt>
      <trkpt lat="41.84594" lon="43.39858">
        <ele>796.019883</ele>
        <time>2021-08-16T18:46:25.230Z</time>
      </trkpt>
      <trkpt lat="41.84578" lon="43.39814">
        <ele>796.006598</ele>
        <time>2021-08-16T18:46:35.242Z</time>
      </trkpt>
      <trkpt lat="41.84575" lon="43.39804">
        <ele>795.858968</ele>
        <time>2021-08-16T18:46:37.277Z</time>
      </trkpt>
      <trkpt lat="41.8457" lon="43.39792">
        <ele>795.674537</ele>
        <time>2021-08-16T18:46:39.314Z</time>
      </trkpt>
      <trkpt lat="41.84542" lon="43.39728">
        <ele>794.649198</ele>
        <time>2021-08-16T18:46:51.499Z</time>
      </trkpt>
      <trkpt lat="41.84491" lon="43.3961">
        <ele>792.757389</ele>
        <time>2021-08-16T18:47:08.417Z</time>
      </trkpt>
      <trkpt lat="41.84447" lon="43.39501">
        <ele>790.681338</ele>
        <time>2021-08-16T18:47:25.459Z</time>
      </trkpt>
      <trkpt lat="41.84432" lon="43.39466">
        <ele>790.012485</ele>
        <time>2021-08-16T18:47:30.869Z</time>
      </trkpt>
      <trkpt lat="41.84411" lon="43.39413">
        <ele>788.999909</ele>
        <time>2021-08-16T18:47:39.077Z</time>
      </trkpt>
      <trkpt lat="41.84382" lon="43.39334">
        <ele>788.074879</ele>
        <time>2021-08-16T18:47:51.146Z</time>
      </trkpt>
      <trkpt lat="41.84378" lon="43.39325">
        <ele>787.969213</ele>
        <time>2021-08-16T18:47:52.682Z</time>
      </trkpt>
      <trkpt lat="41.84321" lon="43.39158">
        <ele>786.60169</ele>
        <time>2021-08-16T18:48:19.518Z</time>
      </trkpt>
      <trkpt lat="41.84307" lon="43.39091">
        <ele>786.884387</ele>
        <time>2021-08-16T18:48:32.983Z</time>
      </trkpt>
      <trkpt lat="41.84305" lon="43.39079">
        <ele>786.935755</ele>
        <time>2021-08-16T18:48:35.498Z</time>
      </trkpt>
      <trkpt lat="41.84299" lon="43.39052">
        <ele>787.052499</ele>
        <time>2021-08-16T18:48:41.186Z</time>
      </trkpt>
      <trkpt lat="41.84297" lon="43.3904">
        <ele>787.099794</ele>
        <time>2021-08-16T18:48:43.478Z</time>
      </trkpt>
      <trkpt lat="41.8427" lon="43.3891">
        <ele>787.963528</ele>
        <time>2021-08-16T18:49:11.226Z</time>
      </trkpt>
      <trkpt lat="41.84244" lon="43.38765">
        <ele>789.59003</ele>
        <time>2021-08-16T18:49:44.912Z</time>
      </trkpt>
      <trkpt lat="41.84243" lon="43.38746">
        <ele>789.793647</ele>
        <time>2021-08-16T18:49:49.456Z</time>
      </trkpt>
      <trkpt lat="41.84244" lon="43.38706">
        <ele>790.243877</ele>
        <time>2021-08-16T18:49:58.112Z</time>
      </trkpt>
      <trkpt lat="41.84245" lon="43.38695">
        <ele>790.388812</ele>
        <time>2021-08-16T18:50:01.099Z</time>
      </trkpt>
      <trkpt lat="41.84248" lon="43.38662">
        <ele>790.796167</ele>
        <time>2021-08-16T18:50:08.028Z</time>
      </trkpt>
      <trkpt lat="41.84262" lon="43.38593">
        <ele>791.677851</ele>
        <time>2021-08-16T18:50:25.113Z</time>
      </trkpt>
      <trkpt lat="41.84274" lon="43.3855">
        <ele>792.25081</ele>
        <time>2021-08-16T18:50:35.947Z</time>
      </trkpt>
      <trkpt lat="41.84278" lon="43.38532">
        <ele>792.478115</ele>
        <time>2021-08-16T18:50:40.220Z</time>
      </trkpt>
      <trkpt lat="41.84283" lon="43.38513">
        <ele>792.73214</ele>
        <time>2021-08-16T18:50:44.631Z</time>
      </trkpt>
      <trkpt lat="41.84294" lon="43.38471">
        <ele>793.151578</ele>
        <time>2021-08-16T18:50:54.220Z</time>
      </trkpt>
      <trkpt lat="41.84298" lon="43.38458">
        <ele>793.218744</ele>
        <time>2021-08-16T18:50:57.214Z</time>
      </trkpt>
      <trkpt lat="41.84305" lon="43.38446">
        <ele>793.288461</ele>
        <time>2021-08-16T18:51:00.669Z</time>
      </trkpt>
      <trkpt lat="41.84314" lon="43.38408">
        <ele>793.472221</ele>
        <time>2021-08-16T18:51:08.594Z</time>
      </trkpt>
      <trkpt lat="41.84314" lon="43.38374">
        <ele>793.631671</ele>
        <time>2021-08-16T18:51:15.540Z</time>
      </trkpt>
      <trkpt lat="41.84311" lon="43.38318">
        <ele>793.895358</ele>
        <time>2021-08-16T18:51:26.740Z</time>
      </trkpt>
      <trkpt lat="41.84302" lon="43.3827">
        <ele>794.123319</ele>
        <time>2021-08-16T18:51:35.001Z</time>
      </trkpt>
      <trkpt lat="41.84279" lon="43.38217">
        <ele>794.049751</ele>
        <time>2021-08-16T18:51:44.149Z</time>
      </trkpt>
      <trkpt lat="41.84255" lon="43.38172">
        <ele>793.87141</ele>
        <time>2021-08-16T18:51:52.278Z</time>
      </trkpt>
      <trkpt lat="41.84242" lon="43.3814">
        <ele>793.752007</ele>
        <time>2021-08-16T18:51:58.119Z</time>
      </trkpt>
      <trkpt lat="41.84238" lon="43.38133">
        <ele>793.724843</ele>
        <time>2021-08-16T18:51:59.320Z</time>
      </trkpt>
      <trkpt lat="41.84229" lon="43.38115">
        <ele>793.65356</ele>
        <time>2021-08-16T18:52:02.932Z</time>
      </trkpt>
      <trkpt lat="41.84216" lon="43.38089">
        <ele>793.551094</ele>
        <time>2021-08-16T18:52:07.810Z</time>
      </trkpt>
      <trkpt lat="41.84193" lon="43.38051">
        <ele>793.452131</ele>
        <time>2021-08-16T18:52:15.875Z</time>
      </trkpt>
      <trkpt lat="41.84161" lon="43.38004">
        <ele>793.841537</ele>
        <time>2021-08-16T18:52:26.625Z</time>
      </trkpt>
      <trkpt lat="41.84132" lon="43.37974">
        <ele>794.140604</ele>
        <time>2021-08-16T18:52:34.804Z</time>
      </trkpt>
      <trkpt lat="41.84083" lon="43.3793">
        <ele>794.624283</ele>
        <time>2021-08-16T18:52:51.254Z</time>
      </trkpt>
      <trkpt lat="41.84066" lon="43.37912">
        <ele>794.807318</ele>
        <time>2021-08-16T18:52:58.829Z</time>
      </trkpt>
      <trkpt lat="41.84052" lon="43.37902">
        <ele>795.021629</ele>
        <time>2021-08-16T18:53:03.683Z</time>
      </trkpt>
      <trkpt lat="41.84038" lon="43.37892">
        <ele>795.401789</ele>
        <time>2021-08-16T18:53:09.075Z</time>
      </trkpt>
      <trkpt lat="41.84033" lon="43.37888">
        <ele>795.535829</ele>
        <time>2021-08-16T18:53:10.810Z</time>
      </trkpt>
      <trkpt lat="41.84021" lon="43.3788">
        <ele>795.872636</ele>
        <time>2021-08-16T18:53:15.035Z</time>
      </trkpt>
      <trkpt lat="41.84005" lon="43.37875">
        <ele>796.273524</ele>
        <time>2021-08-16T18:53:20.763Z</time>
      </trkpt>
      <trkpt lat="41.83986" lon="43.37874">
        <ele>796.736926</ele>
        <time>2021-08-16T18:53:27.001Z</time>
      </trkpt>
      <trkpt lat="41.83976" lon="43.37874">
        <ele>796.985584</ele>
        <time>2021-08-16T18:53:31.118Z</time>
      </trkpt>
      <trkpt lat="41.83906" lon="43.37887">
        <ele>798.708991</ele>
        <time>2021-08-16T18:53:57.586Z</time>
      </trkpt>
      <trkpt lat="41.83887" lon="43.37887">
        <ele>799.152901</ele>
        <time>2021-08-16T18:54:04.503Z</time>
      </trkpt>
      <trkpt lat="41.83875" lon="43.37882">
        <ele>799.403728</ele>
        <time>2021-08-16T18:54:08.139Z</time>
      </trkpt>
      <trkpt lat="41.83869" lon="43.37879">
        <ele>799.495719</ele>
        <time>2021-08-16T18:54:10.323Z</time>
      </trkpt>
      <trkpt lat="41.83841" lon="43.37868">
        <ele>799.928907</ele>
        <time>2021-08-16T18:54:19.355Z</time>
      </trkpt>
      <trkpt lat="41.83827" lon="43.37859">
        <ele>800.16188</ele>
        <time>2021-08-16T18:54:24.544Z</time>
      </trkpt>
      <trkpt lat="41.83804" lon="43.37853">
        <ele>800.529259</ele>
        <time>2021-08-16T18:54:30.003Z</time>
      </trkpt>
      <trkpt lat="41.83795" lon="43.37852">
        <ele>800.654844</ele>
        <time>2021-08-16T18:54:33.001Z</time>
      </trkpt>
      <trkpt lat="41.83787" lon="43.37852">
        <ele>800.772895</ele>
        <time>2021-08-16T18:54:35.060Z</time>
      </trkpt>
      <trkpt lat="41.83784" lon="43.37851">
        <ele>800.825856</ele>
        <time>2021-08-16T18:54:35.788Z</time>
      </trkpt>
      <trkpt lat="41.8376" lon="43.37853">
        <ele>801.187401</ele>
        <time>2021-08-16T18:54:42.507Z</time>
      </trkpt>
      <trkpt lat="41.83746" lon="43.3786">
        <ele>801.412533</ele>
        <time>2021-08-16T18:54:47.726Z</time>
      </trkpt>
      <trkpt lat="41.83735" lon="43.37867">
        <ele>801.598017</ele>
        <time>2021-08-16T18:54:50.818Z</time>
      </trkpt>
      <trkpt lat="41.83731" lon="43.3787">
        <ele>801.672452</ele>
        <time>2021-08-16T18:54:51.912Z</time>
      </trkpt>
      <trkpt lat="41.83706" lon="43.37891">
        <ele>802.083133</ele>
        <time>2021-08-16T18:55:01.092Z</time>
      </trkpt>
      <trkpt lat="41.83699" lon="43.37896">
        <ele>802.175549</ele>
        <time>2021-08-16T18:55:02.877Z</time>
      </trkpt>
      <trkpt lat="41.83689" lon="43.37897">
        <ele>802.294408</ele>
        <time>2021-08-16T18:55:06.534Z</time>
      </trkpt>
      <trkpt lat="41.83675" lon="43.37895">
        <ele>802.469941</ele>
        <time>2021-08-16T18:55:10.313Z</time>
      </trkpt>
      <trkpt lat="41.83659" lon="43.3788">
        <ele>802.692111</ele>
        <time>2021-08-16T18:55:14.849Z</time>
      </trkpt>
      <trkpt lat="41.83653" lon="43.3787">
        <ele>802.806708</ele>
        <time>2021-08-16T18:55:17.669Z</time>
      </trkpt>
      <trkpt lat="41.83657" lon="43.37838">
        <ele>803.089231</ele>
        <time>2021-08-16T18:55:22.616Z</time>
      </trkpt>
      <trkpt lat="41.83659" lon="43.37823">
        <ele>803.227982</ele>
        <time>2021-08-16T18:55:26.341Z</time>
      </trkpt>
      <trkpt lat="41.8367" lon="43.37743">
        <ele>803.94208</ele>
        <time>2021-08-16T18:55:43.123Z</time>
      </trkpt>
      <trkpt lat="41.83659" lon="43.37545">
        <ele>806.424459</ele>
        <time>2021-08-16T18:56:33.007Z</time>
      </trkpt>
      <trkpt lat="41.83664" lon="43.37521">
        <ele>806.743264</ele>
        <time>2021-08-16T18:56:38.337Z</time>
      </trkpt>
      <trkpt lat="41.83686" lon="43.37468">
        <ele>807.255303</ele>
        <time>2021-08-16T18:56:50.645Z</time>
      </trkpt>
      <trkpt lat="41.83718" lon="43.37335">
        <ele>807.370472</ele>
        <time>2021-08-16T18:57:13.745Z</time>
      </trkpt>
      <trkpt lat="41.83721" lon="43.37301">
        <ele>807.398421</ele>
        <time>2021-08-16T18:57:18.944Z</time>
      </trkpt>
      <trkpt lat="41.83715" lon="43.37241">
        <ele>807.459868</ele>
        <time>2021-08-16T18:57:28.821Z</time>
      </trkpt>
      <trkpt lat="41.83701" lon="43.37188">
        <ele>807.544988</ele>
        <time>2021-08-16T18:57:37.939Z</time>
      </trkpt>
      <trkpt lat="41.83681" lon="43.37158">
        <ele>807.606631</ele>
        <time>2021-08-16T18:57:44.528Z</time>
      </trkpt>
      <trkpt lat="41.83677" lon="43.37153">
        <ele>807.617942</ele>
        <time>2021-08-16T18:57:45.840Z</time>
      </trkpt>
      <trkpt lat="41.83663" lon="43.37133">
        <ele>807.658819</ele>
        <time>2021-08-16T18:57:50.158Z</time>
      </trkpt>
      <trkpt lat="41.8365" lon="43.37117">
        <ele>807.694905</ele>
        <time>2021-08-16T18:57:54.496Z</time>
      </trkpt>
      <trkpt lat="41.83613" lon="43.37071">
        <ele>807.797265</ele>
        <time>2021-08-16T18:58:07.326Z</time>
      </trkpt>
      <trkpt lat="41.83552" lon="43.36981">
        <ele>808.834922</ele>
        <time>2021-08-16T18:58:33.202Z</time>
      </trkpt>
      <trkpt lat="41.83534" lon="43.36955">
        <ele>809.150577</ele>
        <time>2021-08-16T18:58:40.730Z</time>
      </trkpt>
      <trkpt lat="41.8352" lon="43.36938">
        <ele>809.359714</ele>
        <time>2021-08-16T18:58:45.795Z</time>
      </trkpt>
      <trkpt lat="41.8349" lon="43.3691">
        <ele>809.798896</ele>
        <time>2021-08-16T18:58:55.979Z</time>
      </trkpt>
      <trkpt lat="41.83459" lon="43.36895">
        <ele>810.284125</ele>
        <time>2021-08-16T18:59:05.385Z</time>
      </trkpt>
      <trkpt lat="41.83423" lon="43.36891">
        <ele>810.868589</ele>
        <time>2021-08-16T18:59:16.460Z</time>
      </trkpt>
      <trkpt lat="41.83411" lon="43.3689">
        <ele>811.073909</ele>
        <time>2021-08-16T18:59:20.406Z</time>
      </trkpt>
      <trkpt lat="41.83364" lon="43.3687">
        <ele>811.864019</ele>
        <time>2021-08-16T18:59:35.400Z</time>
      </trkpt>
      <trkpt lat="41.83342" lon="43.36842">
        <ele>812.356824</ele>
        <time>2021-08-16T18:59:44.572Z</time>
      </trkpt>
      <trkpt lat="41.83324" lon="43.36821">
        <ele>812.743801</ele>
        <time>2021-08-16T18:59:51.989Z</time>
      </trkpt>
      <trkpt lat="41.83294" lon="43.36785">
        <ele>813.519245</ele>
        <time>2021-08-16T19:00:04.468Z</time>
      </trkpt>
      <trkpt lat="41.83289" lon="43.3678">
        <ele>813.643154</ele>
        <time>2021-08-16T19:00:06.407Z</time>
      </trkpt>
      <trkpt lat="41.83115" lon="43.366">
        <ele>818.582065</ele>
        <time>2021-08-16T19:01:18.174Z</time>
      </trkpt>
      <trkpt lat="41.83102" lon="43.36573">
        <ele>819.213617</ele>
        <time>2021-08-16T19:01:26.361Z</time>
      </trkpt>
      <trkpt lat="41.83073" lon="43.36469">
        <ele>821.522638</ele>
        <time>2021-08-16T19:01:57.253Z</time>
      </trkpt>
      <trkpt lat="41.83002" lon="43.36321">
        <ele>826.889185</ele>
        <time>2021-08-16T19:02:55.147Z</time>
      </trkpt>
      <trkpt lat="41.82982" lon="43.36286">
        <ele>828.213127</ele>
        <time>2021-08-16T19:03:09.507Z</time>
      </trkpt>
      <trkpt lat="41.82956" lon="43.36258">
        <ele>829.118828</ele>
        <time>2021-08-16T19:03:23.916Z</time>
      </trkpt>
      <trkpt lat="41.8293" lon="43.36239">
        <ele>829.789341</ele>
        <time>2021-08-16T19:03:36.508Z</time>
      </trkpt>
      <trkpt lat="41.82854" lon="43.36187">
        <ele>831.72834</ele>
        <time>2021-08-16T19:04:05.544Z</time>
      </trkpt>
      <trkpt lat="41.82803" lon="43.36148">
        <ele>832.224274</ele>
        <time>2021-08-16T19:04:19.277Z</time>
      </trkpt>
      <trkpt lat="41.82778" lon="43.36125">
        <ele>831.566704</ele>
        <time>2021-08-16T19:04:25.299Z</time>
      </trkpt>
      <trkpt lat="41.82744" lon="43.36087">
        <ele>830.60601</ele>
        <time>2021-08-16T19:04:33.598Z</time>
      </trkpt>
      <trkpt lat="41.82738" lon="43.3607">
        <ele>830.294839</ele>
        <time>2021-08-16T19:04:36.115Z</time>
      </trkpt>
      <trkpt lat="41.82739" lon="43.36048">
        <ele>829.936479</ele>
        <time>2021-08-16T19:04:39.030Z</time>
      </trkpt>
      <trkpt lat="41.82756" lon="43.36002">
        <ele>829.098146</ele>
        <time>2021-08-16T19:04:45.547Z</time>
      </trkpt>
      <trkpt lat="41.82844" lon="43.35847">
        <ele>822.480613</ele>
        <time>2021-08-16T19:05:08.610Z</time>
      </trkpt>
      <trkpt lat="41.82855" lon="43.35817">
        <ele>821.238076</ele>
        <time>2021-08-16T19:05:12.676Z</time>
      </trkpt>
      <trkpt lat="41.82867" lon="43.35725">
        <ele>817.951761</ele>
        <time>2021-08-16T19:05:23.573Z</time>
      </trkpt>
      <trkpt lat="41.82867" lon="43.3571">
        <ele>817.435108</ele>
        <time>2021-08-16T19:05:25.213Z</time>
      </trkpt>
      <trkpt lat="41.82858" lon="43.35593">
        <ele>813.373626</ele>
        <time>2021-08-16T19:05:39.433Z</time>
      </trkpt>
      <trkpt lat="41.82851" lon="43.35452">
        <ele>810.360294</ele>
        <time>2021-08-16T19:05:57.289Z</time>
      </trkpt>
      <trkpt lat="41.82847" lon="43.35384">
        <ele>809.42915</ele>
        <time>2021-08-16T19:06:06.918Z</time>
      </trkpt>
      <trkpt lat="41.8284" lon="43.35308">
        <ele>808.37007</ele>
        <time>2021-08-16T19:06:18.881Z</time>
      </trkpt>
      <trkpt lat="41.82836" lon="43.35257">
        <ele>808.281057</ele>
        <time>2021-08-16T19:06:27.490Z</time>
      </trkpt>
      <trkpt lat="41.82831" lon="43.35204">
        <ele>808.293233</ele>
        <time>2021-08-16T19:06:37.213Z</time>
      </trkpt>
      <trkpt lat="41.82822" lon="43.35143">
        <ele>808.30766</ele>
        <time>2021-08-16T19:06:48.556Z</time>
      </trkpt>
      <trkpt lat="41.82812" lon="43.35104">
        <ele>808.317108</ele>
        <time>2021-08-16T19:06:55.336Z</time>
      </trkpt>
      <trkpt lat="41.82779" lon="43.35024">
        <ele>808.204632</ele>
        <time>2021-08-16T19:07:09.758Z</time>
      </trkpt>
      <trkpt lat="41.82753" lon="43.34983">
        <ele>808.07656</ele>
        <time>2021-08-16T19:07:18.437Z</time>
      </trkpt>
      <trkpt lat="41.82722" lon="43.3494">
        <ele>807.931634</ele>
        <time>2021-08-16T19:07:27.846Z</time>
      </trkpt>
      <trkpt lat="41.82707" lon="43.34922">
        <ele>807.866227</ele>
        <time>2021-08-16T19:07:32.005Z</time>
      </trkpt>
      <trkpt lat="41.82684" lon="43.34897">
        <ele>807.771957</ele>
        <time>2021-08-16T19:07:38.342Z</time>
      </trkpt>
      <trkpt lat="41.82657" lon="43.34878">
        <ele>807.883631</ele>
        <time>2021-08-16T19:07:44.974Z</time>
      </trkpt>
      <trkpt lat="41.82594" lon="43.34842">
        <ele>808.29483</ele>
        <time>2021-08-16T19:08:00.671Z</time>
      </trkpt>
      <trkpt lat="41.82545" lon="43.34813">
        <ele>808.612352</ele>
        <time>2021-08-16T19:08:15.845Z</time>
      </trkpt>
      <trkpt lat="41.82515" lon="43.34802">
        <ele>808.802459</ele>
        <time>2021-08-16T19:08:25.040Z</time>
      </trkpt>
      <trkpt lat="41.8247" lon="43.34808">
        <ele>809.159866</ele>
        <time>2021-08-16T19:08:37.776Z</time>
      </trkpt>
      <trkpt lat="41.82401" lon="43.34846">
        <ele>809.754525</ele>
        <time>2021-08-16T19:08:57.189Z</time>
      </trkpt>
      <trkpt lat="41.82391" lon="43.34851">
        <ele>809.842489</ele>
        <time>2021-08-16T19:08:59.894Z</time>
      </trkpt>
      <trkpt lat="41.82363" lon="43.34868">
        <ele>810.090652</ele>
        <time>2021-08-16T19:09:07.491Z</time>
      </trkpt>
      <trkpt lat="41.82301" lon="43.34908">
        <ele>810.466527</ele>
        <time>2021-08-16T19:09:24.504Z</time>
      </trkpt>
      <trkpt lat="41.82196" lon="43.34971">
        <ele>810.935185</ele>
        <time>2021-08-16T19:09:52.032Z</time>
      </trkpt>
      <trkpt lat="41.82161" lon="43.35">
        <ele>811.082359</ele>
        <time>2021-08-16T19:10:02.320Z</time>
      </trkpt>
      <trkpt lat="41.82079" lon="43.35082">
        <ele>811.413595</ele>
        <time>2021-08-16T19:10:27.638Z</time>
      </trkpt>
      <trkpt lat="41.82019" lon="43.35139">
        <ele>811.568588</ele>
        <time>2021-08-16T19:10:43.938Z</time>
      </trkpt>
      <trkpt lat="41.81952" lon="43.35201">
        <ele>811.467186</ele>
        <time>2021-08-16T19:11:01.514Z</time>
      </trkpt>
      <trkpt lat="41.81919" lon="43.35217">
        <ele>811.424225</ele>
        <time>2021-08-16T19:11:08.977Z</time>
      </trkpt>
      <trkpt lat="41.81871" lon="43.35223">
        <ele>811.388726</ele>
        <time>2021-08-16T19:11:19.227Z</time>
      </trkpt>
      <trkpt lat="41.81741" lon="43.35213">
        <ele>812.454289</ele>
        <time>2021-08-16T19:11:51.853Z</time>
      </trkpt>
      <trkpt lat="41.81712" lon="43.35196">
        <ele>812.70944</ele>
        <time>2021-08-16T19:12:01.120Z</time>
      </trkpt>
      <trkpt lat="41.81651" lon="43.35128">
        <ele>814.185976</ele>
        <time>2021-08-16T19:12:26.845Z</time>
      </trkpt>
      <trkpt lat="41.81623" lon="43.35084">
        <ele>815.10117</ele>
        <time>2021-08-16T19:12:41.739Z</time>
      </trkpt>
      <trkpt lat="41.81588" lon="43.35011">
        <ele>816.458944</ele>
        <time>2021-08-16T19:13:03.738Z</time>
      </trkpt>
      <trkpt lat="41.81553" lon="43.34933">
        <ele>817.443042</ele>
        <time>2021-08-16T19:13:25.586Z</time>
      </trkpt>
      <trkpt lat="41.81511" lon="43.34764">
        <ele>819.231193</ele>
        <time>2021-08-16T19:14:02.286Z</time>
      </trkpt>
      <trkpt lat="41.81483" lon="43.34696">
        <ele>819.892646</ele>
        <time>2021-08-16T19:14:16.419Z</time>
      </trkpt>
      <trkpt lat="41.81411" lon="43.34542">
        <ele>821.659283</ele>
        <time>2021-08-16T19:14:55.771Z</time>
      </trkpt>
      <trkpt lat="41.81399" lon="43.34507">
        <ele>822.215512</ele>
        <time>2021-08-16T19:15:05.216Z</time>
      </trkpt>
      <trkpt lat="41.81394" lon="43.34433">
        <ele>823.287672</ele>
        <time>2021-08-16T19:15:24.205Z</time>
      </trkpt>
      <trkpt lat="41.81439" lon="43.34119">
        <ele>827.460215</ele>
        <time>2021-08-16T19:16:40.234Z</time>
      </trkpt>
      <trkpt lat="41.81432" lon="43.34043">
        <ele>827.494827</ele>
        <time>2021-08-16T19:16:53.947Z</time>
      </trkpt>
      <trkpt lat="41.81417" lon="43.34008">
        <ele>827.396912</ele>
        <time>2021-08-16T19:17:00.508Z</time>
      </trkpt>
      <trkpt lat="41.814" lon="43.3398">
        <ele>827.308114</ele>
        <time>2021-08-16T19:17:06.229Z</time>
      </trkpt>
      <trkpt lat="41.81353" lon="43.33925">
        <ele>827.105944</ele>
        <time>2021-08-16T19:17:18.493Z</time>
      </trkpt>
      <trkpt lat="41.8127" lon="43.33844">
        <ele>825.807433</ele>
        <time>2021-08-16T19:17:38.285Z</time>
      </trkpt>
      <trkpt lat="41.81107" lon="43.33698">
        <ele>823.165225</ele>
        <time>2021-08-16T19:18:15.606Z</time>
      </trkpt>
      <trkpt lat="41.81074" lon="43.33675">
        <ele>822.694122</ele>
        <time>2021-08-16T19:18:22.904Z</time>
      </trkpt>
      <trkpt lat="41.81058" lon="43.33656">
        <ele>822.429967</ele>
        <time>2021-08-16T19:18:27.058Z</time>
      </trkpt>
      <trkpt lat="41.81048" lon="43.33633">
        <ele>822.201328</ele>
        <time>2021-08-16T19:18:31.050Z</time>
      </trkpt>
      <trkpt lat="41.81027" lon="43.33532">
        <ele>821.951663</ele>
        <time>2021-08-16T19:18:47.244Z</time>
      </trkpt>
      <trkpt lat="41.81012" lon="43.33497">
        <ele>821.854425</ele>
        <time>2021-08-16T19:18:53.828Z</time>
      </trkpt>
      <trkpt lat="41.80965" lon="43.33402">
        <ele>821.775003</ele>
        <time>2021-08-16T19:19:12.936Z</time>
      </trkpt>
      <trkpt lat="41.80939" lon="43.33319">
        <ele>822.333432</ele>
        <time>2021-08-16T19:19:29.687Z</time>
      </trkpt>
      <trkpt lat="41.80892" lon="43.33193">
        <ele>823.240369</ele>
        <time>2021-08-16T19:19:59.234Z</time>
      </trkpt>
      <trkpt lat="41.80824" lon="43.33078">
        <ele>824.651315</ele>
        <time>2021-08-16T19:20:31.684Z</time>
      </trkpt>
      <trkpt lat="41.80789" lon="43.32966">
        <ele>825.676957</ele>
        <time>2021-08-16T19:20:56.922Z</time>
      </trkpt>
      <trkpt lat="41.80726" lon="43.32872">
        <ele>826.469242</ele>
        <time>2021-08-16T19:21:21.594Z</time>
      </trkpt>
      <trkpt lat="41.80718" lon="43.32853">
        <ele>826.606171</ele>
        <time>2021-08-16T19:21:25.690Z</time>
      </trkpt>
      <trkpt lat="41.80722" lon="43.32723">
        <ele>827.388207</ele>
        <time>2021-08-16T19:21:51.004Z</time>
      </trkpt>
      <trkpt lat="41.80717" lon="43.32677">
        <ele>827.663882</ele>
        <time>2021-08-16T19:22:00.292Z</time>
      </trkpt>
      <trkpt lat="41.80708" lon="43.3263">
        <ele>827.946005</ele>
        <time>2021-08-16T19:22:09.762Z</time>
      </trkpt>
      <trkpt lat="41.80672" lon="43.32536">
        <ele>828.47213</ele>
        <time>2021-08-16T19:22:30.203Z</time>
      </trkpt>
      <trkpt lat="41.80642" lon="43.32488">
        <ele>828.676703</ele>
        <time>2021-08-16T19:22:42.195Z</time>
      </trkpt>
      <trkpt lat="41.8056" lon="43.32399">
        <ele>829.130514</ele>
        <time>2021-08-16T19:23:07.543Z</time>
      </trkpt>
      <trkpt lat="41.8039" lon="43.32181">
        <ele>829.711144</ele>
        <time>2021-08-16T19:24:00.876Z</time>
      </trkpt>
      <trkpt lat="41.80273" lon="43.31947">
        <ele>831.068816</ele>
        <time>2021-08-16T19:24:56.506Z</time>
      </trkpt>
      <trkpt lat="41.80238" lon="43.31893">
        <ele>831.444893</ele>
        <time>2021-08-16T19:25:10.804Z</time>
      </trkpt>
      <trkpt lat="41.80232" lon="43.31885">
        <ele>831.504474</ele>
        <time>2021-08-16T19:25:12.810Z</time>
      </trkpt>
      <trkpt lat="41.80219" lon="43.31866">
        <ele>831.643159</ele>
        <time>2021-08-16T19:25:17.731Z</time>
      </trkpt>
      <trkpt lat="41.80195" lon="43.31834">
        <ele>831.702123</ele>
        <time>2021-08-16T19:25:25.856Z</time>
      </trkpt>
      <trkpt lat="41.80034" lon="43.31551">
        <ele>831.342033</ele>
        <time>2021-08-16T19:26:21.996Z</time>
      </trkpt>
      <trkpt lat="41.7995" lon="43.31441">
        <ele>831.919151</ele>
        <time>2021-08-16T19:26:51.162Z</time>
      </trkpt>
      <trkpt lat="41.79913" lon="43.31384">
        <ele>832.679877</ele>
        <time>2021-08-16T19:27:07.763Z</time>
      </trkpt>
      <trkpt lat="41.79898" lon="43.31351">
        <ele>833.073258</ele>
        <time>2021-08-16T19:27:16.927Z</time>
      </trkpt>
      <trkpt lat="41.79838" lon="43.31155">
        <ele>834.89914</ele>
        <time>2021-08-16T19:28:06.143Z</time>
      </trkpt>
      <trkpt lat="41.79818" lon="43.31077">
        <ele>835.543683</ele>
        <time>2021-08-16T19:28:21.651Z</time>
      </trkpt>
      <trkpt lat="41.79769" lon="43.30768">
        <ele>834.704824</ele>
        <time>2021-08-16T19:29:10.083Z</time>
      </trkpt>
      <trkpt lat="41.79753" lon="43.30719">
        <ele>834.695155</ele>
        <time>2021-08-16T19:29:18.601Z</time>
      </trkpt>
      <trkpt lat="41.79676" lon="43.30536">
        <ele>834.722284</ele>
        <time>2021-08-16T19:29:56.234Z</time>
      </trkpt>
      <trkpt lat="41.79652" lon="43.3049">
        <ele>834.758669</ele>
        <time>2021-08-16T19:30:06.284Z</time>
      </trkpt>
      <trkpt lat="41.79617" lon="43.30452">
        <ele>834.798182</ele>
        <time>2021-08-16T19:30:16.339Z</time>
      </trkpt>
      <trkpt lat="41.79415" lon="43.30257">
        <ele>834.174664</ele>
        <time>2021-08-16T19:31:08.938Z</time>
      </trkpt>
      <trkpt lat="41.79387" lon="43.30232">
        <ele>834.195268</ele>
        <time>2021-08-16T19:31:16.245Z</time>
      </trkpt>
      <trkpt lat="41.79367" lon="43.30219">
        <ele>834.209095</ele>
        <time>2021-08-16T19:31:21.192Z</time>
      </trkpt>
      <trkpt lat="41.79337" lon="43.30212">
        <ele>834.227452</ele>
        <time>2021-08-16T19:31:27.871Z</time>
      </trkpt>
      <trkpt lat="41.79221" lon="43.30257">
        <ele>834.825892</ele>
        <time>2021-08-16T19:31:58.645Z</time>
      </trkpt>
      <trkpt lat="41.79182" lon="43.30266">
        <ele>835.176117</ele>
        <time>2021-08-16T19:32:09.084Z</time>
      </trkpt>
      <trkpt lat="41.79154" lon="43.30272">
        <ele>835.433711</ele>
        <time>2021-08-16T19:32:17.057Z</time>
      </trkpt>
      <trkpt lat="41.79088" lon="43.30277">
        <ele>836.067905</ele>
        <time>2021-08-16T19:32:35.391Z</time>
      </trkpt>
      <trkpt lat="41.79028" lon="43.3027">
        <ele>836.776423</ele>
        <time>2021-08-16T19:32:52.028Z</time>
      </trkpt>
      <trkpt lat="41.78988" lon="43.30258">
        <ele>837.258707</ele>
        <time>2021-08-16T19:33:03.233Z</time>
      </trkpt>
      <trkpt lat="41.78939" lon="43.30232">
        <ele>837.884714</ele>
        <time>2021-08-16T19:33:17.842Z</time>
      </trkpt>
      <trkpt lat="41.78887" lon="43.30187">
        <ele>838.955885</ele>
        <time>2021-08-16T19:33:37.212Z</time>
      </trkpt>
      <trkpt lat="41.78877" lon="43.30174">
        <ele>839.212121</ele>
        <time>2021-08-16T19:33:41.381Z</time>
      </trkpt>
      <trkpt lat="41.78869" lon="43.30159">
        <ele>839.458647</ele>
        <time>2021-08-16T19:33:46.156Z</time>
      </trkpt>
      <trkpt lat="41.78861" lon="43.30135">
        <ele>839.828579</ele>
        <time>2021-08-16T19:33:52.003Z</time>
      </trkpt>
      <trkpt lat="41.78853" lon="43.30105">
        <ele>840.264537</ele>
        <time>2021-08-16T19:33:59.727Z</time>
      </trkpt>
      <trkpt lat="41.78847" lon="43.3007">
        <ele>840.753152</ele>
        <time>2021-08-16T19:34:08.426Z</time>
      </trkpt>
      <trkpt lat="41.7885" lon="43.29964">
        <ele>842.049254</ele>
        <time>2021-08-16T19:34:34.167Z</time>
      </trkpt>
      <trkpt lat="41.78846" lon="43.29914">
        <ele>842.617136</ele>
        <time>2021-08-16T19:34:46.097Z</time>
      </trkpt>
      <trkpt lat="41.78821" lon="43.298">
        <ele>843.947558</ele>
        <time>2021-08-16T19:35:11.001Z</time>
      </trkpt>
      <trkpt lat="41.78808" lon="43.29764">
        <ele>844.242257</ele>
        <time>2021-08-16T19:35:18.738Z</time>
      </trkpt>
      <trkpt lat="41.78795" lon="43.29744">
        <ele>844.420024</ele>
        <time>2021-08-16T19:35:23.775Z</time>
      </trkpt>
      <trkpt lat="41.78732" lon="43.29675">
        <ele>845.156481</ele>
        <time>2021-08-16T19:35:45.100Z</time>
      </trkpt>
      <trkpt lat="41.7868" lon="43.29636">
        <ele>845.73495</ele>
        <time>2021-08-16T19:36:01.199Z</time>
      </trkpt>
      <trkpt lat="41.78581" lon="43.29588">
        <ele>847.193776</ele>
        <time>2021-08-16T19:36:31.284Z</time>
      </trkpt>
      <trkpt lat="41.78487" lon="43.29529">
        <ele>848.829479</ele>
        <time>2021-08-16T19:37:03.030Z</time>
      </trkpt>
      <trkpt lat="41.78379" lon="43.29434">
        <ele>851.310154</ele>
        <time>2021-08-16T19:37:44.022Z</time>
      </trkpt>
      <trkpt lat="41.78301" lon="43.29394">
        <ele>853.208694</ele>
        <time>2021-08-16T19:38:12.307Z</time>
      </trkpt>
      <trkpt lat="41.78266" lon="43.29385">
        <ele>854.050221</ele>
        <time>2021-08-16T19:38:24.688Z</time>
      </trkpt>
      <trkpt lat="41.782" lon="43.29388">
        <ele>855.604574</ele>
        <time>2021-08-16T19:38:47.615Z</time>
      </trkpt>
      <trkpt lat="41.78127" lon="43.29402">
        <ele>857.106665</ele>
        <time>2021-08-16T19:39:12.394Z</time>
      </trkpt>
      <trkpt lat="41.78057" lon="43.29417">
        <ele>858.501831</ele>
        <time>2021-08-16T19:39:35.042Z</time>
      </trkpt>
      <trkpt lat="41.78035" lon="43.29429">
        <ele>858.968546</ele>
        <time>2021-08-16T19:39:42.138Z</time>
      </trkpt>
      <trkpt lat="41.77971" lon="43.29517">
        <ele>860.749491</ele>
        <time>2021-08-16T19:40:09.752Z</time>
      </trkpt>
      <trkpt lat="41.77944" lon="43.29538">
        <ele>861.357422</ele>
        <time>2021-08-16T19:40:19.290Z</time>
      </trkpt>
      <trkpt lat="41.77907" lon="43.29533">
        <ele>862.076129</ele>
        <time>2021-08-16T19:40:31.017Z</time>
      </trkpt>
      <trkpt lat="41.77893" lon="43.29508">
        <ele>862.534477</ele>
        <time>2021-08-16T19:40:38.991Z</time>
      </trkpt>
      <trkpt lat="41.77893" lon="43.29488">
        <ele>862.826037</ele>
        <time>2021-08-16T19:40:44.157Z</time>
      </trkpt>
      <trkpt lat="41.77929" lon="43.29395">
        <ele>864.757174</ele>
        <time>2021-08-16T19:41:12.213Z</time>
      </trkpt>
      <trkpt lat="41.77958" lon="43.29287">
        <ele>866.916761</ele>
        <time>2021-08-16T19:41:42.817Z</time>
      </trkpt>
      <trkpt lat="41.77958" lon="43.29206">
        <ele>867.911522</ele>
        <time>2021-08-16T19:42:02.768Z</time>
      </trkpt>
      <trkpt lat="41.77944" lon="43.29119">
        <ele>868.736999</ele>
        <time>2021-08-16T19:42:22.427Z</time>
      </trkpt>
      <trkpt lat="41.77912" lon="43.29049">
        <ele>869.497346</ele>
        <time>2021-08-16T19:42:37.713Z</time>
      </trkpt>
      <trkpt lat="41.77854" lon="43.28954">
        <ele>869.929274</ele>
        <time>2021-08-16T19:42:58.884Z</time>
      </trkpt>
      <trkpt lat="41.77828" lon="43.28899">
        <ele>870.101332</ele>
        <time>2021-08-16T19:43:10.095Z</time>
      </trkpt>
      <trkpt lat="41.77807" lon="43.28843">
        <ele>870.272174</ele>
        <time>2021-08-16T19:43:21.901Z</time>
      </trkpt>
      <trkpt lat="41.77771" lon="43.2872">
        <ele>870.783888</ele>
        <time>2021-08-16T19:43:47.834Z</time>
      </trkpt>
      <trkpt lat="41.77758" lon="43.28697">
        <ele>870.893654</ele>
        <time>2021-08-16T19:43:53.325Z</time>
      </trkpt>
      <trkpt lat="41.77737" lon="43.28683">
        <ele>871.016271</ele>
        <time>2021-08-16T19:43:59.257Z</time>
      </trkpt>
      <trkpt lat="41.77638" lon="43.28695">
        <ele>870.697507</ele>
        <time>2021-08-16T19:44:21.613Z</time>
      </trkpt>
      <trkpt lat="41.77538" lon="43.28693">
        <ele>869.796883</ele>
        <time>2021-08-16T19:44:41.064Z</time>
      </trkpt>
      <trkpt lat="41.77506" lon="43.2868">
        <ele>869.387296</ele>
        <time>2021-08-16T19:44:47.319Z</time>
      </trkpt>
      <trkpt lat="41.7748" lon="43.28661">
        <ele>868.890532</ele>
        <time>2021-08-16T19:44:52.518Z</time>
      </trkpt>
      <trkpt lat="41.77436" lon="43.28607">
        <ele>867.853343</ele>
        <time>2021-08-16T19:45:03.207Z</time>
      </trkpt>
      <trkpt lat="41.7742" lon="43.28564">
        <ele>867.230553</ele>
        <time>2021-08-16T19:45:09.878Z</time>
      </trkpt>
      <trkpt lat="41.77419" lon="43.2853">
        <ele>866.798012</ele>
        <time>2021-08-16T19:45:14.810Z</time>
      </trkpt>
      <trkpt lat="41.77429" lon="43.28454">
        <ele>866.619987</ele>
        <time>2021-08-16T19:45:26.799Z</time>
      </trkpt>
      <trkpt lat="41.77441" lon="43.28415">
        <ele>866.712569</ele>
        <time>2021-08-16T19:45:33.877Z</time>
      </trkpt>
      <trkpt lat="41.77467" lon="43.28356">
        <ele>866.865403</ele>
        <time>2021-08-16T19:45:47.243Z</time>
      </trkpt>
      <trkpt lat="41.77495" lon="43.28295">
        <ele>867.023267</ele>
        <time>2021-08-16T19:46:01.526Z</time>
      </trkpt>
      <trkpt lat="41.77545" lon="43.2823">
        <ele>866.640748</ele>
        <time>2021-08-16T19:46:20.628Z</time>
      </trkpt>
      <trkpt lat="41.77581" lon="43.28165">
        <ele>866.278375</ele>
        <time>2021-08-16T19:46:33.635Z</time>
      </trkpt>
      <trkpt lat="41.77612" lon="43.28085">
        <ele>865.68378</ele>
        <time>2021-08-16T19:46:45.595Z</time>
      </trkpt>
      <trkpt lat="41.77623" lon="43.28037">
        <ele>864.933015</ele>
        <time>2021-08-16T19:46:51.858Z</time>
      </trkpt>
      <trkpt lat="41.77627" lon="43.27984">
        <ele>864.122717</ele>
        <time>2021-08-16T19:46:58.811Z</time>
      </trkpt>
      <trkpt lat="41.77623" lon="43.2786">
        <ele>862.468396</ele>
        <time>2021-08-16T19:47:15.962Z</time>
      </trkpt>
      <trkpt lat="41.77619" lon="43.27749">
        <ele>865.417427</ele>
        <time>2021-08-16T19:47:40.954Z</time>
      </trkpt>
      <trkpt lat="41.77616" lon="43.27678">
        <ele>867.325413</ele>
        <time>2021-08-16T19:48:05.018Z</time>
      </trkpt>
      <trkpt lat="41.77624" lon="43.27646">
        <ele>868.234176</ele>
        <time>2021-08-16T19:48:20.321Z</time>
      </trkpt>
      <trkpt lat="41.77638" lon="43.27622">
        <ele>869.394837</ele>
        <time>2021-08-16T19:48:32.850Z</time>
      </trkpt>
      <trkpt lat="41.77641" lon="43.27617">
        <ele>869.810602</ele>
        <time>2021-08-16T19:48:37.844Z</time>
      </trkpt>
      <trkpt lat="41.77901" lon="43.27235">
        <ele>899.475632</ele>
        <time>2021-08-16T19:52:46.385Z</time>
      </trkpt>
      <trkpt lat="41.77925" lon="43.27189">
        <ele>900.635977</ele>
        <time>2021-08-16T19:53:03.715Z</time>
      </trkpt>
      <trkpt lat="41.77962" lon="43.2708">
        <ele>903.107704</ele>
        <time>2021-08-16T19:53:28.178Z</time>
      </trkpt>
      <trkpt lat="41.7803" lon="43.26957">
        <ele>899.618632</ele>
        <time>2021-08-16T19:53:47.584Z</time>
      </trkpt>
      <trkpt lat="41.78064" lon="43.26907">
        <ele>897.792644</ele>
        <time>2021-08-16T19:53:55.498Z</time>
      </trkpt>
      <trkpt lat="41.78111" lon="43.26852">
        <ele>895.62684</ele>
        <time>2021-08-16T19:54:05.450Z</time>
      </trkpt>
      <trkpt lat="41.78128" lon="43.26836">
        <ele>894.912412</ele>
        <time>2021-08-16T19:54:08.835Z</time>
      </trkpt>
      <trkpt lat="41.78156" lon="43.26798">
        <ele>893.604219</ele>
        <time>2021-08-16T19:54:15.274Z</time>
      </trkpt>
      <trkpt lat="41.78165" lon="43.26777">
        <ele>892.980826</ele>
        <time>2021-08-16T19:54:18.460Z</time>
      </trkpt>
      <trkpt lat="41.78171" lon="43.26747">
        <ele>892.195305</ele>
        <time>2021-08-16T19:54:22.434Z</time>
      </trkpt>
      <trkpt lat="41.78184" lon="43.26509">
        <ele>889.677358</ele>
        <time>2021-08-16T19:54:58.380Z</time>
      </trkpt>
      <trkpt lat="41.78197" lon="43.26432">
        <ele>889.022345</ele>
        <time>2021-08-16T19:55:11.144Z</time>
      </trkpt>
      <trkpt lat="41.78214" lon="43.26363">
        <ele>887.99539</ele>
        <time>2021-08-16T19:55:21.963Z</time>
      </trkpt>
      <trkpt lat="41.78227" lon="43.26306">
        <ele>887.153682</ele>
        <time>2021-08-16T19:55:30.291Z</time>
      </trkpt>
      <trkpt lat="41.78237" lon="43.26209">
        <ele>885.676061</ele>
        <time>2021-08-16T19:55:42.958Z</time>
      </trkpt>
      <trkpt lat="41.78229" lon="43.26119">
        <ele>883.514613</ele>
        <time>2021-08-16T19:55:54.216Z</time>
      </trkpt>
      <trkpt lat="41.7821" lon="43.26018">
        <ele>881.020906</ele>
        <time>2021-08-16T19:56:07.190Z</time>
      </trkpt>
      <trkpt lat="41.78153" lon="43.25784">
        <ele>878.728578</ele>
        <time>2021-08-16T19:56:42.350Z</time>
      </trkpt>
      <trkpt lat="41.78117" lon="43.25482">
        <ele>881.814403</ele>
        <time>2021-08-16T19:57:56.732Z</time>
      </trkpt>
      <trkpt lat="41.78102" lon="43.25418">
        <ele>882.03994</ele>
        <time>2021-08-16T19:58:11.164Z</time>
      </trkpt>
      <trkpt lat="41.78081" lon="43.25388">
        <ele>882.179538</ele>
        <time>2021-08-16T19:58:19.023Z</time>
      </trkpt>
      <trkpt lat="41.78057" lon="43.25366">
        <ele>882.312546</ele>
        <time>2021-08-16T19:58:25.734Z</time>
      </trkpt>
      <trkpt lat="41.77879" lon="43.25225">
        <ele>880.333821</ele>
        <time>2021-08-16T19:59:05.430Z</time>
      </trkpt>
      <trkpt lat="41.77804" lon="43.25178">
        <ele>879.191295</ele>
        <time>2021-08-16T19:59:21.255Z</time>
      </trkpt>
      <trkpt lat="41.77733" lon="43.25141">
        <ele>878.133648</ele>
        <time>2021-08-16T19:59:35.910Z</time>
      </trkpt>
      <trkpt lat="41.77596" lon="43.25073">
        <ele>876.134944</ele>
        <time>2021-08-16T20:00:04.069Z</time>
      </trkpt>
      <trkpt lat="41.77564" lon="43.25057">
        <ele>875.675457</ele>
        <time>2021-08-16T20:00:10.417Z</time>
      </trkpt>
      <trkpt lat="41.77518" lon="43.25011">
        <ele>875.020212</ele>
        <time>2021-08-16T20:00:21.408Z</time>
      </trkpt>
      <trkpt lat="41.77487" lon="43.24976">
        <ele>874.736491</ele>
        <time>2021-08-16T20:00:29.521Z</time>
      </trkpt>
      <trkpt lat="41.77447" lon="43.24933">
        <ele>874.383764</ele>
        <time>2021-08-16T20:00:39.974Z</time>
      </trkpt>
      <trkpt lat="41.77412" lon="43.24909">
        <ele>874.116783</ele>
        <time>2021-08-16T20:00:48.192Z</time>
      </trkpt>
      <trkpt lat="41.77384" lon="43.24898">
        <ele>873.913008</ele>
        <time>2021-08-16T20:00:54.583Z</time>
      </trkpt>
      <trkpt lat="41.77354" lon="43.24889">
        <ele>874.030919</ele>
        <time>2021-08-16T20:01:01.486Z</time>
      </trkpt>
      <trkpt lat="41.77295" lon="43.24882">
        <ele>874.275338</ele>
        <time>2021-08-16T20:01:15.668Z</time>
      </trkpt>
      <trkpt lat="41.77224" lon="43.2489">
        <ele>874.570415</ele>
        <time>2021-08-16T20:01:34.001Z</time>
      </trkpt>
      <trkpt lat="41.77173" lon="43.24911">
        <ele>874.928106</ele>
        <time>2021-08-16T20:01:47.974Z</time>
      </trkpt>
      <trkpt lat="41.77113" lon="43.24952">
        <ele>875.473483</ele>
        <time>2021-08-16T20:02:05.270Z</time>
      </trkpt>
      <trkpt lat="41.77091" lon="43.24967">
        <ele>875.671758</ele>
        <time>2021-08-16T20:02:11.705Z</time>
      </trkpt>
      <trkpt lat="41.77056" lon="43.24986">
        <ele>875.978221</ele>
        <time>2021-08-16T20:02:21.781Z</time>
      </trkpt>
      <trkpt lat="41.77008" lon="43.24998">
        <ele>876.40177</ele>
        <time>2021-08-16T20:02:34.983Z</time>
      </trkpt>
      <trkpt lat="41.76982" lon="43.24996">
        <ele>876.635924</ele>
        <time>2021-08-16T20:02:41.977Z</time>
      </trkpt>
      <trkpt lat="41.76964" lon="43.24985">
        <ele>876.816714</ele>
        <time>2021-08-16T20:02:47.535Z</time>
      </trkpt>
      <trkpt lat="41.76944" lon="43.2497">
        <ele>877.023288</ele>
        <time>2021-08-16T20:02:53.530Z</time>
      </trkpt>
      <trkpt lat="41.76851" lon="43.24888">
        <ele>877.835569</ele>
        <time>2021-08-16T20:03:23.251Z</time>
      </trkpt>
      <trkpt lat="41.76577" lon="43.24661">
        <ele>878.506944</ele>
        <time>2021-08-16T20:04:37.040Z</time>
      </trkpt>
      <trkpt lat="41.76568" lon="43.24652">
        <ele>878.535105</ele>
        <time>2021-08-16T20:04:39.394Z</time>
      </trkpt>
      <trkpt lat="41.76532" lon="43.24598">
        <ele>878.744923</ele>
        <time>2021-08-16T20:04:52.120Z</time>
      </trkpt>
      <trkpt lat="41.76514" lon="43.24557">
        <ele>878.878463</ele>
        <time>2021-08-16T20:05:00.475Z</time>
      </trkpt>
      <trkpt lat="41.76478" lon="43.24422">
        <ele>879.385222</ele>
        <time>2021-08-16T20:05:27.169Z</time>
      </trkpt>
      <trkpt lat="41.76456" lon="43.24359">
        <ele>879.811911</ele>
        <time>2021-08-16T20:05:41.061Z</time>
      </trkpt>
      <trkpt lat="41.7642" lon="43.24279">
        <ele>880.378563</ele>
        <time>2021-08-16T20:05:59.468Z</time>
      </trkpt>
      <trkpt lat="41.76378" lon="43.24216">
        <ele>880.972886</ele>
        <time>2021-08-16T20:06:16.629Z</time>
      </trkpt>
      <trkpt lat="41.76366" lon="43.24188">
        <ele>881.228253</ele>
        <time>2021-08-16T20:06:23.037Z</time>
      </trkpt>
      <trkpt lat="41.76327" lon="43.24051">
        <ele>882.409161</ele>
        <time>2021-08-16T20:06:53.684Z</time>
      </trkpt>
      <trkpt lat="41.76325" lon="43.24026">
        <ele>882.61658</ele>
        <time>2021-08-16T20:06:59.321Z</time>
      </trkpt>
      <trkpt lat="41.76329" lon="43.2397">
        <ele>882.723357</ele>
        <time>2021-08-16T20:07:11.164Z</time>
      </trkpt>
      <trkpt lat="41.76346" lon="43.23815">
        <ele>883.025519</ele>
        <time>2021-08-16T20:07:38.248Z</time>
      </trkpt>
      <trkpt lat="41.76347" lon="43.23794">
        <ele>883.065907</ele>
        <time>2021-08-16T20:07:41.436Z</time>
      </trkpt>
      <trkpt lat="41.76348" lon="43.23769">
        <ele>882.915113</ele>
        <time>2021-08-16T20:07:45.374Z</time>
      </trkpt>
      <trkpt lat="41.76347" lon="43.23732">
        <ele>882.568316</ele>
        <time>2021-08-16T20:07:50.901Z</time>
      </trkpt>
      <trkpt lat="41.76338" lon="43.23691">
        <ele>882.171382</ele>
        <time>2021-08-16T20:07:57.034Z</time>
      </trkpt>
      <trkpt lat="41.76286" lon="43.23434">
        <ele>880.129024</ele>
        <time>2021-08-16T20:08:34.874Z</time>
      </trkpt>
      <trkpt lat="41.76248" lon="43.23289">
        <ele>879.673437</ele>
        <time>2021-08-16T20:08:59.959Z</time>
      </trkpt>
      <trkpt lat="41.76138" lon="43.23016">
        <ele>881.937392</ele>
        <time>2021-08-16T20:10:04.003Z</time>
      </trkpt>
      <trkpt lat="41.76126" lon="43.22974">
        <ele>882.36428</ele>
        <time>2021-08-16T20:10:13.898Z</time>
      </trkpt>
      <trkpt lat="41.76082" lon="43.22733">
        <ele>884.780181</ele>
        <time>2021-08-16T20:11:07.655Z</time>
      </trkpt>
      <trkpt lat="41.7608" lon="43.22696">
        <ele>885.147274</ele>
        <time>2021-08-16T20:11:15.595Z</time>
      </trkpt>
      <trkpt lat="41.76084" lon="43.22648">
        <ele>885.635936</ele>
        <time>2021-08-16T20:11:26.200Z</time>
      </trkpt>
      <trkpt lat="41.76123" lon="43.22376">
        <ele>888.454938</ele>
        <time>2021-08-16T20:12:27.155Z</time>
      </trkpt>
      <trkpt lat="41.76139" lon="43.22204">
        <ele>889.792794</ele>
        <time>2021-08-16T20:13:03.610Z</time>
      </trkpt>
      <trkpt lat="41.7614" lon="43.2214">
        <ele>889.962101</ele>
        <time>2021-08-16T20:13:15.525Z</time>
      </trkpt>
      <trkpt lat="41.76113" lon="43.21732">
        <ele>888.469441</ele>
        <time>2021-08-16T20:14:19.105Z</time>
      </trkpt>
      <trkpt lat="41.76101" lon="43.21666">
        <ele>888.091954</ele>
        <time>2021-08-16T20:14:29.304Z</time>
      </trkpt>
      <trkpt lat="41.76071" lon="43.21565">
        <ele>887.419691</ele>
        <time>2021-08-16T20:14:45.469Z</time>
      </trkpt>
      <trkpt lat="41.75982" lon="43.21382">
        <ele>886.535325</ele>
        <time>2021-08-16T20:15:18.945Z</time>
      </trkpt>
      <trkpt lat="41.75942" lon="43.21311">
        <ele>886.348027</ele>
        <time>2021-08-16T20:15:33.451Z</time>
      </trkpt>
      <trkpt lat="41.75868" lon="43.21213">
        <ele>886.5597</ele>
        <time>2021-08-16T20:15:58.231Z</time>
      </trkpt>
      <trkpt lat="41.75771" lon="43.21102">
        <ele>886.993467</ele>
        <time>2021-08-16T20:16:29.607Z</time>
      </trkpt>
      <trkpt lat="41.75744" lon="43.21077">
        <ele>887.033902</ele>
        <time>2021-08-16T20:16:37.482Z</time>
      </trkpt>
      <trkpt lat="41.75672" lon="43.21029">
        <ele>887.132767</ele>
        <time>2021-08-16T20:16:56.084Z</time>
      </trkpt>
      <trkpt lat="41.75459" lon="43.20911">
        <ele>887.020901</ele>
        <time>2021-08-16T20:17:45.790Z</time>
      </trkpt>
      <trkpt lat="41.75353" lon="43.20842">
        <ele>888.099996</ele>
        <time>2021-08-16T20:18:14.737Z</time>
      </trkpt>
      <trkpt lat="41.75302" lon="43.20796">
        <ele>888.821896</ele>
        <time>2021-08-16T20:18:33.995Z</time>
      </trkpt>
      <trkpt lat="41.7526" lon="43.20757">
        <ele>890.651216</ele>
        <time>2021-08-16T20:18:52.139Z</time>
      </trkpt>
      <trkpt lat="41.75223" lon="43.20722">
        <ele>892.267379</ele>
        <time>2021-08-16T20:19:09.990Z</time>
      </trkpt>
      <trkpt lat="41.7515" lon="43.20666">
        <ele>895.326862</ele>
        <time>2021-08-16T20:19:47.902Z</time>
      </trkpt>
      <trkpt lat="41.75122" lon="43.20653">
        <ele>896.728483</ele>
        <time>2021-08-16T20:20:02.473Z</time>
      </trkpt>
      <trkpt lat="41.74965" lon="43.20641">
        <ele>903.301614</ele>
        <time>2021-08-16T20:21:15.923Z</time>
      </trkpt>
      <trkpt lat="41.74931" lon="43.20635">
        <ele>903.22833</ele>
        <time>2021-08-16T20:21:27.465Z</time>
      </trkpt>
      <trkpt lat="41.74906" lon="43.20624">
        <ele>903.173116</ele>
        <time>2021-08-16T20:21:34.942Z</time>
      </trkpt>
      <trkpt lat="41.74873" lon="43.20609">
        <ele>903.099162</ele>
        <time>2021-08-16T20:21:42.575Z</time>
      </trkpt>
      <trkpt lat="41.74846" lon="43.20594">
        <ele>903.038811</ele>
        <time>2021-08-16T20:21:47.588Z</time>
      </trkpt>
      <trkpt lat="41.74801" lon="43.20546">
        <ele>902.201359</ele>
        <time>2021-08-16T20:21:57.232Z</time>
      </trkpt>
      <trkpt lat="41.74769" lon="43.20479">
        <ele>899.571045</ele>
        <time>2021-08-16T20:22:06.705Z</time>
      </trkpt>
      <trkpt lat="41.74746" lon="43.20422">
        <ele>897.408218</ele>
        <time>2021-08-16T20:22:14.098Z</time>
      </trkpt>
      <trkpt lat="41.747" lon="43.20319">
        <ele>894.392601</ele>
        <time>2021-08-16T20:22:29.043Z</time>
      </trkpt>
      <trkpt lat="41.7466" lon="43.20225">
        <ele>893.13523</ele>
        <time>2021-08-16T20:22:44.427Z</time>
      </trkpt>
      <trkpt lat="41.74624" lon="43.20145">
        <ele>892.146242</ele>
        <time>2021-08-16T20:22:59.785Z</time>
      </trkpt>
      <trkpt lat="41.74567" lon="43.20059">
        <ele>892.424982</ele>
        <time>2021-08-16T20:23:20.034Z</time>
      </trkpt>
      <trkpt lat="41.74528" lon="43.20015">
        <ele>892.591001</ele>
        <time>2021-08-16T20:23:32.612Z</time>
      </trkpt>
      <trkpt lat="41.74485" lon="43.19985">
        <ele>892.748986</ele>
        <time>2021-08-16T20:23:44.955Z</time>
      </trkpt>
      <trkpt lat="41.74455" lon="43.19949">
        <ele>892.872826</ele>
        <time>2021-08-16T20:23:54.602Z</time>
      </trkpt>
      <trkpt lat="41.7442" lon="43.19855">
        <ele>893.112963</ele>
        <time>2021-08-16T20:24:12.865Z</time>
      </trkpt>
      <trkpt lat="41.74419" lon="43.19846">
        <ele>893.134098</ele>
        <time>2021-08-16T20:24:14.879Z</time>
      </trkpt>
      <trkpt lat="41.74418" lon="43.1984">
        <ele>893.148231</ele>
        <time>2021-08-16T20:24:15.978Z</time>
      </trkpt>
      <trkpt lat="41.74413" lon="43.19812">
        <ele>893.216139</ele>
        <time>2021-08-16T20:24:20.789Z</time>
      </trkpt>
      <trkpt lat="41.74408" lon="43.1971">
        <ele>893.630276</ele>
        <time>2021-08-16T20:24:38.897Z</time>
      </trkpt>
      <trkpt lat="41.74438" lon="43.19446">
        <ele>895.231105</ele>
        <time>2021-08-16T20:25:31.203Z</time>
      </trkpt>
      <trkpt lat="41.74503" lon="43.19187">
        <ele>897.090825</ele>
        <time>2021-08-16T20:26:30.127Z</time>
      </trkpt>
      <trkpt lat="41.74515" lon="43.19127">
        <ele>897.425674</ele>
        <time>2021-08-16T20:26:41.198Z</time>
      </trkpt>
      <trkpt lat="41.74523" lon="43.18957">
        <ele>897.027111</ele>
        <time>2021-08-16T20:27:07.941Z</time>
      </trkpt>
      <trkpt lat="41.74532" lon="43.18892">
        <ele>896.694218</ele>
        <time>2021-08-16T20:27:17.799Z</time>
      </trkpt>
      <trkpt lat="41.74534" lon="43.18843">
        <ele>896.453511</ele>
        <time>2021-08-16T20:27:24.957Z</time>
      </trkpt>
      <trkpt lat="41.74528" lon="43.18797">
        <ele>896.290596</ele>
        <time>2021-08-16T20:27:32.004Z</time>
      </trkpt>
      <trkpt lat="41.74513" lon="43.18757">
        <ele>896.133095</ele>
        <time>2021-08-16T20:27:38.927Z</time>
      </trkpt>
      <trkpt lat="41.74462" lon="43.18677">
        <ele>895.767144</ele>
        <time>2021-08-16T20:27:55.380Z</time>
      </trkpt>
      <trkpt lat="41.74321" lon="43.18392">
        <ele>896.406169</ele>
        <time>2021-08-16T20:28:55.185Z</time>
      </trkpt>
      <trkpt lat="41.74261" lon="43.18311">
        <ele>897.245738</ele>
        <time>2021-08-16T20:29:19.616Z</time>
      </trkpt>
      <trkpt lat="41.74101" lon="43.18123">
        <ele>899.496984</ele>
        <time>2021-08-16T20:30:20.307Z</time>
      </trkpt>
      <trkpt lat="41.74055" lon="43.18037">
        <ele>899.871724</ele>
        <time>2021-08-16T20:30:38.679Z</time>
      </trkpt>
      <trkpt lat="41.74049" lon="43.1801">
        <ele>899.932855</ele>
        <time>2021-08-16T20:30:43.481Z</time>
      </trkpt>
      <trkpt lat="41.7405" lon="43.17988">
        <ele>899.981935</ele>
        <time>2021-08-16T20:30:47.364Z</time>
      </trkpt>
      <trkpt lat="41.74059" lon="43.17954">
        <ele>900.060181</ele>
        <time>2021-08-16T20:30:53.843Z</time>
      </trkpt>
      <trkpt lat="41.74062" lon="43.17934">
        <ele>900.105129</ele>
        <time>2021-08-16T20:30:57.399Z</time>
      </trkpt>
      <trkpt lat="41.7407" lon="43.17884">
        <ele>900.215026</ele>
        <time>2021-08-16T20:31:06.358Z</time>
      </trkpt>
      <trkpt lat="41.74084" lon="43.1779">
        <ele>900.588455</ele>
        <time>2021-08-16T20:31:23.287Z</time>
      </trkpt>
      <trkpt lat="41.74088" lon="43.17753">
        <ele>900.736101</ele>
        <time>2021-08-16T20:31:30.312Z</time>
      </trkpt>
      <trkpt lat="41.74087" lon="43.17723">
        <ele>900.856116</ele>
        <time>2021-08-16T20:31:36.219Z</time>
      </trkpt>
      <trkpt lat="41.74074" lon="43.17651">
        <ele>901.14693</ele>
        <time>2021-08-16T20:31:50.440Z</time>
      </trkpt>
      <trkpt lat="41.74041" lon="43.17582">
        <ele>901.510844</ele>
        <time>2021-08-16T20:32:05.992Z</time>
      </trkpt>
      <trkpt lat="41.73964" lon="43.17468">
        <ele>902.196014</ele>
        <time>2021-08-16T20:32:34.256Z</time>
      </trkpt>
      <trkpt lat="41.73786" lon="43.17246">
        <ele>904.021141</ele>
        <time>2021-08-16T20:33:39.586Z</time>
      </trkpt>
      <trkpt lat="41.73777" lon="43.17234">
        <ele>904.07517</ele>
        <time>2021-08-16T20:33:42.653Z</time>
      </trkpt>
      <trkpt lat="41.73702" lon="43.17148">
        <ele>904.488732</ele>
        <time>2021-08-16T20:34:05.666Z</time>
      </trkpt>
      <trkpt lat="41.73676" lon="43.17107">
        <ele>904.545536</ele>
        <time>2021-08-16T20:34:14.557Z</time>
      </trkpt>
      <trkpt lat="41.73616" lon="43.1699">
        <ele>904.543651</ele>
        <time>2021-08-16T20:34:37.600Z</time>
      </trkpt>
      <trkpt lat="41.73582" lon="43.16943">
        <ele>904.550074</ele>
        <time>2021-08-16T20:34:48.726Z</time>
      </trkpt>
      <trkpt lat="41.73477" lon="43.16859">
        <ele>905.067643</ele>
        <time>2021-08-16T20:35:18.148Z</time>
      </trkpt>
      <trkpt lat="41.73432" lon="43.16825">
        <ele>905.282735</ele>
        <time>2021-08-16T20:35:30.924Z</time>
      </trkpt>
      <trkpt lat="41.73396" lon="43.16802">
        <ele>905.744157</ele>
        <time>2021-08-16T20:35:41.395Z</time>
      </trkpt>
      <trkpt lat="41.73354" lon="43.16774">
        <ele>906.323354</ele>
        <time>2021-08-16T20:35:54.359Z</time>
      </trkpt>
      <trkpt lat="41.73292" lon="43.16712">
        <ele>907.280458</ele>
        <time>2021-08-16T20:36:17.433Z</time>
      </trkpt>
      <trkpt lat="41.73271" lon="43.16682">
        <ele>907.691808</ele>
        <time>2021-08-16T20:36:26.865Z</time>
      </trkpt>
      <trkpt lat="41.73219" lon="43.16597">
        <ele>908.915521</ele>
        <time>2021-08-16T20:36:51.725Z</time>
      </trkpt>
      <trkpt lat="41.73204" lon="43.16566">
        <ele>909.329849</ele>
        <time>2021-08-16T20:37:00.284Z</time>
      </trkpt>
      <trkpt lat="41.73193" lon="43.16535">
        <ele>909.711781</ele>
        <time>2021-08-16T20:37:08.139Z</time>
      </trkpt>
      <trkpt lat="41.7318" lon="43.16498">
        <ele>910.170871</ele>
        <time>2021-08-16T20:37:16.757Z</time>
      </trkpt>
      <trkpt lat="41.73159" lon="43.16447">
        <ele>910.537856</ele>
        <time>2021-08-16T20:37:28.534Z</time>
      </trkpt>
      <trkpt lat="41.73152" lon="43.16427">
        <ele>910.670689</ele>
        <time>2021-08-16T20:37:33.189Z</time>
      </trkpt>
      <trkpt lat="41.73136" lon="43.16392">
        <ele>910.906181</ele>
        <time>2021-08-16T20:37:40.908Z</time>
      </trkpt>
      <trkpt lat="41.73122" lon="43.1637">
        <ele>911.073178</ele>
        <time>2021-08-16T20:37:46.361Z</time>
      </trkpt>
      <trkpt lat="41.73115" lon="43.16359">
        <ele>911.15372</ele>
        <time>2021-08-16T20:37:48.999Z</time>
      </trkpt>
      <trkpt lat="41.73104" lon="43.16349">
        <ele>911.258521</ele>
        <time>2021-08-16T20:37:52.582Z</time>
      </trkpt>
      <trkpt lat="41.73097" lon="43.16338">
        <ele>911.344047</ele>
        <time>2021-08-16T20:37:55.145Z</time>
      </trkpt>
      <trkpt lat="41.73094" lon="43.16329">
        <ele>911.403005</ele>
        <time>2021-08-16T20:37:57.142Z</time>
      </trkpt>
      <trkpt lat="41.73076" lon="43.16287">
        <ele>911.658751</ele>
        <time>2021-08-16T20:38:06.201Z</time>
      </trkpt>
      <trkpt lat="41.73044" lon="43.16205">
        <ele>911.972714</ele>
        <time>2021-08-16T20:38:23.398Z</time>
      </trkpt>
      <trkpt lat="41.73014" lon="43.16124">
        <ele>912.276366</ele>
        <time>2021-08-16T20:38:40.539Z</time>
      </trkpt>
      <trkpt lat="41.72948" lon="43.15939">
        <ele>912.129484</ele>
        <time>2021-08-16T20:39:14.963Z</time>
      </trkpt>
      <trkpt lat="41.72933" lon="43.15915">
        <ele>912.067993</ele>
        <time>2021-08-16T20:39:19.693Z</time>
      </trkpt>
      <trkpt lat="41.72928" lon="43.15907">
        <ele>912.046216</ele>
        <time>2021-08-16T20:39:21.454Z</time>
      </trkpt>
      <trkpt lat="41.72915" lon="43.15889">
        <ele>911.997871</ele>
        <time>2021-08-16T20:39:25.003Z</time>
      </trkpt>
      <trkpt lat="41.72806" lon="43.15759">
        <ele>910.907449</ele>
        <time>2021-08-16T20:39:54.406Z</time>
      </trkpt>
      <trkpt lat="41.7268" lon="43.15612">
        <ele>910.105714</ele>
        <time>2021-08-16T20:40:29.144Z</time>
      </trkpt>
      <trkpt lat="41.72617" lon="43.15545">
        <ele>910.062835</ele>
        <time>2021-08-16T20:40:46.813Z</time>
      </trkpt>
      <trkpt lat="41.72603" lon="43.15529">
        <ele>910.212059</ele>
        <time>2021-08-16T20:40:50.993Z</time>
      </trkpt>
      <trkpt lat="41.72374" lon="43.15271">
        <ele>913.519702</ele>
        <time>2021-08-16T20:42:14.125Z</time>
      </trkpt>
      <trkpt lat="41.72358" lon="43.15247">
        <ele>913.881059</ele>
        <time>2021-08-16T20:42:21.909Z</time>
      </trkpt>
      <trkpt lat="41.72311" lon="43.15195">
        <ele>915.865858</ele>
        <time>2021-08-16T20:42:43.395Z</time>
      </trkpt>
      <trkpt lat="41.72206" lon="43.15078">
        <ele>920.320832</ele>
        <time>2021-08-16T20:43:39.272Z</time>
      </trkpt>
      <trkpt lat="41.72163" lon="43.1503">
        <ele>922.285933</ele>
        <time>2021-08-16T20:44:03.767Z</time>
      </trkpt>
      <trkpt lat="41.72099" lon="43.14962">
        <ele>925.147108</ele>
        <time>2021-08-16T20:44:36.688Z</time>
      </trkpt>
      <trkpt lat="41.72072" lon="43.14929">
        <ele>925.981949</ele>
        <time>2021-08-16T20:44:50.003Z</time>
      </trkpt>
      <trkpt lat="41.72041" lon="43.14895">
        <ele>926.145816</ele>
        <time>2021-08-16T20:45:02.158Z</time>
      </trkpt>
      <trkpt lat="41.72012" lon="43.14859">
        <ele>926.303744</ele>
        <time>2021-08-16T20:45:11.949Z</time>
      </trkpt>
      <trkpt lat="41.71963" lon="43.14804">
        <ele>926.56647</ele>
        <time>2021-08-16T20:45:25.764Z</time>
      </trkpt>
      <trkpt lat="41.7194" lon="43.14775">
        <ele>926.399769</ele>
        <time>2021-08-16T20:45:31.916Z</time>
      </trkpt>
      <trkpt lat="41.71822" lon="43.1463">
        <ele>922.19931</ele>
        <time>2021-08-16T20:45:59.687Z</time>
      </trkpt>
      <trkpt lat="41.71802" lon="43.14593">
        <ele>921.24955</ele>
        <time>2021-08-16T20:46:05.577Z</time>
      </trkpt>
      <trkpt lat="41.71789" lon="43.14502">
        <ele>919.328602</ele>
        <time>2021-08-16T20:46:17.417Z</time>
      </trkpt>
      <trkpt lat="41.71775" lon="43.14461">
        <ele>918.393119</ele>
        <time>2021-08-16T20:46:23.239Z</time>
      </trkpt>
      <trkpt lat="41.71751" lon="43.14431">
        <ele>917.476997</ele>
        <time>2021-08-16T20:46:29.005Z</time>
      </trkpt>
      <trkpt lat="41.71686" lon="43.14381">
        <ele>916.112958</ele>
        <time>2021-08-16T20:46:42.996Z</time>
      </trkpt>
      <trkpt lat="41.71613" lon="43.14362">
        <ele>915.021565</ele>
        <time>2021-08-16T20:46:57.436Z</time>
      </trkpt>
      <trkpt lat="41.71514" lon="43.14351">
        <ele>913.623177</ele>
        <time>2021-08-16T20:47:16.823Z</time>
      </trkpt>
      <trkpt lat="41.71258" lon="43.14316">
        <ele>910.620621</ele>
        <time>2021-08-16T20:48:06.027Z</time>
      </trkpt>
      <trkpt lat="41.70804" lon="43.14249">
        <ele>909.628954</ele>
        <time>2021-08-16T20:49:46.380Z</time>
      </trkpt>
      <trkpt lat="41.70755" lon="43.14231">
        <ele>909.599828</ele>
        <time>2021-08-16T20:49:57.495Z</time>
      </trkpt>
      <trkpt lat="41.70624" lon="43.14161">
        <ele>909.632519</ele>
        <time>2021-08-16T20:50:28.558Z</time>
      </trkpt>
      <trkpt lat="41.70443" lon="43.14057">
        <ele>910.191612</ele>
        <time>2021-08-16T20:51:14.897Z</time>
      </trkpt>
      <trkpt lat="41.70242" lon="43.13949">
        <ele>911.104069</ele>
        <time>2021-08-16T20:52:10.133Z</time>
      </trkpt>
      <trkpt lat="41.70113" lon="43.13877">
        <ele>911.235376</ele>
        <time>2021-08-16T20:52:40.478Z</time>
      </trkpt>
      <trkpt lat="41.70029" lon="43.13822">
        <ele>911.096621</ele>
        <time>2021-08-16T20:53:00.363Z</time>
      </trkpt>
      <trkpt lat="41.69829" lon="43.13659">
        <ele>911.925591</ele>
        <time>2021-08-16T20:53:56.881Z</time>
      </trkpt>
      <trkpt lat="41.69714" lon="43.13565">
        <ele>912.796432</ele>
        <time>2021-08-16T20:54:31.766Z</time>
      </trkpt>
      <trkpt lat="41.69673" lon="43.13533">
        <ele>913.189394</ele>
        <time>2021-08-16T20:54:43.823Z</time>
      </trkpt>
      <trkpt lat="41.69587" lon="43.13489">
        <ele>913.993327</ele>
        <time>2021-08-16T20:55:08.439Z</time>
      </trkpt>
      <trkpt lat="41.69575" lon="43.13478">
        <ele>914.121926</ele>
        <time>2021-08-16T20:55:12.264Z</time>
      </trkpt>
      <trkpt lat="41.69566" lon="43.13462">
        <ele>914.254806</ele>
        <time>2021-08-16T20:55:16.602Z</time>
      </trkpt>
      <trkpt lat="41.6955" lon="43.13407">
        <ele>914.762556</ele>
        <time>2021-08-16T20:55:28.524Z</time>
      </trkpt>
      <trkpt lat="41.69545" lon="43.13381">
        <ele>915.043314</ele>
        <time>2021-08-16T20:55:34.275Z</time>
      </trkpt>
      <trkpt lat="41.69536" lon="43.13351">
        <ele>915.370745</ele>
        <time>2021-08-16T20:55:40.883Z</time>
      </trkpt>
      <trkpt lat="41.69449" lon="43.13146">
        <ele>917.840709</ele>
        <time>2021-08-16T20:56:33.858Z</time>
      </trkpt>
      <trkpt lat="41.69434" lon="43.1304">
        <ele>918.999775</ele>
        <time>2021-08-16T20:56:57.751Z</time>
      </trkpt>
      <trkpt lat="41.69433" lon="43.12994">
        <ele>919.497641</ele>
        <time>2021-08-16T20:57:07.841Z</time>
      </trkpt>
      <trkpt lat="41.69433" lon="43.12968">
        <ele>919.582677</ele>
        <time>2021-08-16T20:57:13.446Z</time>
      </trkpt>
      <trkpt lat="41.69439" lon="43.12861">
        <ele>919.936987</ele>
        <time>2021-08-16T20:57:34.961Z</time>
      </trkpt>
      <trkpt lat="41.69444" lon="43.12755">
        <ele>920.285548</ele>
        <time>2021-08-16T20:57:52.560Z</time>
      </trkpt>
      <trkpt lat="41.69456" lon="43.12544">
        <ele>918.838626</ele>
        <time>2021-08-16T20:58:23.987Z</time>
      </trkpt>
      <trkpt lat="41.69453" lon="43.12428">
        <ele>918.153168</ele>
        <time>2021-08-16T20:58:41.057Z</time>
      </trkpt>
      <trkpt lat="41.69449" lon="43.12377">
        <ele>917.874051</ele>
        <time>2021-08-16T20:58:48.762Z</time>
      </trkpt>
      <trkpt lat="41.6943" lon="43.12259">
        <ele>917.30045</ele>
        <time>2021-08-16T20:59:07.842Z</time>
      </trkpt>
      <trkpt lat="41.69427" lon="43.12215">
        <ele>917.299933</ele>
        <time>2021-08-16T20:59:14.920Z</time>
      </trkpt>
      <trkpt lat="41.69427" lon="43.12187">
        <ele>917.299602</ele>
        <time>2021-08-16T20:59:19.512Z</time>
      </trkpt>
      <trkpt lat="41.6943" lon="43.12129">
        <ele>917.298906</ele>
        <time>2021-08-16T20:59:29.692Z</time>
      </trkpt>
      <trkpt lat="41.69438" lon="43.12037">
        <ele>917.297807</ele>
        <time>2021-08-16T20:59:45.735Z</time>
      </trkpt>
      <trkpt lat="41.69434" lon="43.12012">
        <ele>917.332249</ele>
        <time>2021-08-16T20:59:50.211Z</time>
      </trkpt>
      <trkpt lat="41.69371" lon="43.11777">
        <ele>917.649571</ele>
        <time>2021-08-16T21:00:33.327Z</time>
      </trkpt>
      <trkpt lat="41.69319" lon="43.11673">
        <ele>917.706788</ele>
        <time>2021-08-16T21:00:54.551Z</time>
      </trkpt>
      <trkpt lat="41.69242" lon="43.1156">
        <ele>917.700587</ele>
        <time>2021-08-16T21:01:19.964Z</time>
      </trkpt>
      <trkpt lat="41.69203" lon="43.1149">
        <ele>917.644862</ele>
        <time>2021-08-16T21:01:34.382Z</time>
      </trkpt>
      <trkpt lat="41.69137" lon="43.1136">
        <ele>917.525726</ele>
        <time>2021-08-16T21:01:59.950Z</time>
      </trkpt>
      <trkpt lat="41.69046" lon="43.11159">
        <ele>917.534176</ele>
        <time>2021-08-16T21:02:38.605Z</time>
      </trkpt>
      <trkpt lat="41.69015" lon="43.11073">
        <ele>917.758684</ele>
        <time>2021-08-16T21:02:55.494Z</time>
      </trkpt>
      <trkpt lat="41.69004" lon="43.11045">
        <ele>917.832607</ele>
        <time>2021-08-16T21:03:01.267Z</time>
      </trkpt>
      <trkpt lat="41.68989" lon="43.1099">
        <ele>918.040643</ele>
        <time>2021-08-16T21:03:12.473Z</time>
      </trkpt>
      <trkpt lat="41.68937" lon="43.10665">
        <ele>920.760971</ele>
        <time>2021-08-16T21:04:21.598Z</time>
      </trkpt>
      <trkpt lat="41.68902" lon="43.10513">
        <ele>922.26214</ele>
        <time>2021-08-16T21:04:55.306Z</time>
      </trkpt>
      <trkpt lat="41.68864" lon="43.10377">
        <ele>924.051897</ele>
        <time>2021-08-16T21:05:28.578Z</time>
      </trkpt>
      <trkpt lat="41.68849" lon="43.10295">
        <ele>925.048988</ele>
        <time>2021-08-16T21:05:48.367Z</time>
      </trkpt>
      <trkpt lat="41.68847" lon="43.10248">
        <ele>925.462449</ele>
        <time>2021-08-16T21:05:59.265Z</time>
      </trkpt>
      <trkpt lat="41.6886" lon="43.10217">
        <ele>925.781531</ele>
        <time>2021-08-16T21:06:07.462Z</time>
      </trkpt>
      <trkpt lat="41.68872" lon="43.10204">
        <ele>925.967289</ele>
        <time>2021-08-16T21:06:12.154Z</time>
      </trkpt>
      <trkpt lat="41.68967" lon="43.10145">
        <ele>927.026704</ele>
        <time>2021-08-16T21:06:40.266Z</time>
      </trkpt>
      <trkpt lat="41.69005" lon="43.101">
        <ele>926.776698</ele>
        <time>2021-08-16T21:06:51.328Z</time>
      </trkpt>
      <trkpt lat="41.6905" lon="43.09948">
        <ele>926.156263</ele>
        <time>2021-08-16T21:07:15.860Z</time>
      </trkpt>
      <trkpt lat="41.69085" lon="43.09894">
        <ele>925.679594</ele>
        <time>2021-08-16T21:07:26.358Z</time>
      </trkpt>
      <trkpt lat="41.69117" lon="43.09812">
        <ele>925.062867</ele>
        <time>2021-08-16T21:07:40.094Z</time>
      </trkpt>
      <trkpt lat="41.69126" lon="43.09699">
        <ele>924.55322</ele>
        <time>2021-08-16T21:07:57.469Z</time>
      </trkpt>
      <trkpt lat="41.69122" lon="43.09631">
        <ele>924.513535</ele>
        <time>2021-08-16T21:08:08.318Z</time>
      </trkpt>
      <trkpt lat="41.6911" lon="43.09583">
        <ele>924.483732</ele>
        <time>2021-08-16T21:08:16.668Z</time>
      </trkpt>
      <trkpt lat="41.69042" lon="43.09372">
        <ele>925.437842</ele>
        <time>2021-08-16T21:08:59.247Z</time>
      </trkpt>
      <trkpt lat="41.69027" lon="43.09311">
        <ele>925.865578</ele>
        <time>2021-08-16T21:09:13.374Z</time>
      </trkpt>
      <trkpt lat="41.69007" lon="43.09211">
        <ele>926.748866</ele>
        <time>2021-08-16T21:09:36.795Z</time>
      </trkpt>
      <trkpt lat="41.6901" lon="43.09165">
        <ele>927.169814</ele>
        <time>2021-08-16T21:09:47.136Z</time>
      </trkpt>
      <trkpt lat="41.69025" lon="43.09118">
        <ele>927.647988</ele>
        <time>2021-08-16T21:09:58.706Z</time>
      </trkpt>
      <trkpt lat="41.69202" lon="43.08716">
        <ele>929.348356</ele>
        <time>2021-08-16T21:11:24.161Z</time>
      </trkpt>
      <trkpt lat="41.69259" lon="43.08564">
        <ele>929.278871</ele>
        <time>2021-08-16T21:11:51.753Z</time>
      </trkpt>
      <trkpt lat="41.69279" lon="43.08491">
        <ele>929.096648</ele>
        <time>2021-08-16T21:12:03.998Z</time>
      </trkpt>
      <trkpt lat="41.69405" lon="43.07907">
        <ele>927.965164</ele>
        <time>2021-08-16T21:13:41.104Z</time>
      </trkpt>
      <trkpt lat="41.69466" lon="43.07627">
        <ele>928.746463</ele>
        <time>2021-08-16T21:14:36.955Z</time>
      </trkpt>
      <trkpt lat="41.69479" lon="43.07568">
        <ele>928.849449</ele>
        <time>2021-08-16T21:14:47.731Z</time>
      </trkpt>
      <trkpt lat="41.69499" lon="43.07473">
        <ele>928.865997</ele>
        <time>2021-08-16T21:15:03.721Z</time>
      </trkpt>
      <trkpt lat="41.69505" lon="43.07422">
        <ele>928.576444</ele>
        <time>2021-08-16T21:15:11.756Z</time>
      </trkpt>
      <trkpt lat="41.69505" lon="43.07398">
        <ele>928.442793</ele>
        <time>2021-08-16T21:15:15.433Z</time>
      </trkpt>
      <trkpt lat="41.69505" lon="43.07379">
        <ele>928.337021</ele>
        <time>2021-08-16T21:15:18.230Z</time>
      </trkpt>
      <trkpt lat="41.69499" lon="43.07338">
        <ele>928.105754</ele>
        <time>2021-08-16T21:15:24.466Z</time>
      </trkpt>
      <trkpt lat="41.69468" lon="43.0722">
        <ele>927.48177</ele>
        <time>2021-08-16T21:15:43.158Z</time>
      </trkpt>
      <trkpt lat="41.69418" lon="43.07091">
        <ele>926.941299</ele>
        <time>2021-08-16T21:16:05.672Z</time>
      </trkpt>
      <trkpt lat="41.69255" lon="43.06749">
        <ele>926.823633</ele>
        <time>2021-08-16T21:17:12.962Z</time>
      </trkpt>
      <trkpt lat="41.69251" lon="43.06742">
        <ele>926.833388</ele>
        <time>2021-08-16T21:17:14.569Z</time>
      </trkpt>
      <trkpt lat="41.69206" lon="43.06668">
        <ele>926.941909</ele>
        <time>2021-08-16T21:17:31.356Z</time>
      </trkpt>
      <trkpt lat="41.69148" lon="43.06581">
        <ele>927.406961</ele>
        <time>2021-08-16T21:17:52.835Z</time>
      </trkpt>
      <trkpt lat="41.69104" lon="43.06536">
        <ele>927.762851</ele>
        <time>2021-08-16T21:18:06.922Z</time>
      </trkpt>
      <trkpt lat="41.69072" lon="43.06522">
        <ele>927.97596</ele>
        <time>2021-08-16T21:18:15.512Z</time>
      </trkpt>
      <trkpt lat="41.69037" lon="43.06518">
        <ele>928.263745</ele>
        <time>2021-08-16T21:18:24.841Z</time>
      </trkpt>
      <trkpt lat="41.69005" lon="43.06514">
        <ele>928.643468</ele>
        <time>2021-08-16T21:18:33.467Z</time>
      </trkpt>
      <trkpt lat="41.68949" lon="43.06519">
        <ele>929.321452</ele>
        <time>2021-08-16T21:18:49.192Z</time>
      </trkpt>
      <trkpt lat="41.68846" lon="43.06542">
        <ele>930.95469</ele>
        <time>2021-08-16T21:19:19.335Z</time>
      </trkpt>
      <trkpt lat="41.68813" lon="43.06556">
        <ele>931.929827</ele>
        <time>2021-08-16T21:19:30.603Z</time>
      </trkpt>
      <trkpt lat="41.6875" lon="43.06604">
        <ele>933.96364</ele>
        <time>2021-08-16T21:19:56.429Z</time>
      </trkpt>
      <trkpt lat="41.68426" lon="43.06872">
        <ele>949.507488</ele>
        <time>2021-08-16T21:22:45.056Z</time>
      </trkpt>
      <trkpt lat="41.6838" lon="43.06916">
        <ele>951.224736</ele>
        <time>2021-08-16T21:23:07.239Z</time>
      </trkpt>
      <trkpt lat="41.68326" lon="43.06996">
        <ele>952.789973</ele>
        <time>2021-08-16T21:23:35.094Z</time>
      </trkpt>
      <trkpt lat="41.68267" lon="43.07109">
        <ele>953.593786</ele>
        <time>2021-08-16T21:24:02.516Z</time>
      </trkpt>
      <trkpt lat="41.68193" lon="43.07201">
        <ele>951.868144</ele>
        <time>2021-08-16T21:24:21.277Z</time>
      </trkpt>
      <trkpt lat="41.68182" lon="43.07221">
        <ele>951.546244</ele>
        <time>2021-08-16T21:24:24.699Z</time>
      </trkpt>
      <trkpt lat="41.68173" lon="43.07252">
        <ele>951.12788</ele>
        <time>2021-08-16T21:24:28.700Z</time>
      </trkpt>
      <trkpt lat="41.68143" lon="43.07328">
        <ele>948.234496</ele>
        <time>2021-08-16T21:24:39.284Z</time>
      </trkpt>
      <trkpt lat="41.68093" lon="43.07379">
        <ele>945.360089</ele>
        <time>2021-08-16T21:24:49.197Z</time>
      </trkpt>
      <trkpt lat="41.68078" lon="43.07388">
        <ele>944.604041</ele>
        <time>2021-08-16T21:24:51.688Z</time>
      </trkpt>
      <trkpt lat="41.68059" lon="43.07391">
        <ele>943.709951</ele>
        <time>2021-08-16T21:24:54.733Z</time>
      </trkpt>
      <trkpt lat="41.68038" lon="43.07386">
        <ele>942.766844</ele>
        <time>2021-08-16T21:24:58.096Z</time>
      </trkpt>
      <trkpt lat="41.68022" lon="43.07371">
        <ele>942.158307</ele>
        <time>2021-08-16T21:25:01.282Z</time>
      </trkpt>
      <trkpt lat="41.67995" lon="43.07325">
        <ele>940.812861</ele>
        <time>2021-08-16T21:25:08.533Z</time>
      </trkpt>
      <trkpt lat="41.67977" lon="43.07303">
        <ele>940.075586</ele>
        <time>2021-08-16T21:25:12.550Z</time>
      </trkpt>
      <trkpt lat="41.67948" lon="43.07277">
        <ele>938.996298</ele>
        <time>2021-08-16T21:25:18.683Z</time>
      </trkpt>
      <trkpt lat="41.67919" lon="43.07254">
        <ele>937.966452</ele>
        <time>2021-08-16T21:25:24.794Z</time>
      </trkpt>
      <trkpt lat="41.67886" lon="43.07216">
        <ele>937.289483</ele>
        <time>2021-08-16T21:25:33.098Z</time>
      </trkpt>
      <trkpt lat="41.67773" lon="43.0708">
        <ele>937.352313</ele>
        <time>2021-08-16T21:26:09.060Z</time>
      </trkpt>
      <trkpt lat="41.67762" lon="43.07068">
        <ele>937.416589</ele>
        <time>2021-08-16T21:26:13.352Z</time>
      </trkpt>
      <trkpt lat="41.67692" lon="43.07022">
        <ele>938.050932</ele>
        <time>2021-08-16T21:26:34.923Z</time>
      </trkpt>
      <trkpt lat="41.67675" lon="43.07001">
        <ele>938.246783</ele>
        <time>2021-08-16T21:26:41.651Z</time>
      </trkpt>
      <trkpt lat="41.67607" lon="43.06824">
        <ele>938.735183</ele>
        <time>2021-08-16T21:27:19.130Z</time>
      </trkpt>
      <trkpt lat="41.67566" lon="43.06782">
        <ele>938.675403</ele>
        <time>2021-08-16T21:27:30.154Z</time>
      </trkpt>
      <trkpt lat="41.67557" lon="43.06771">
        <ele>938.660474</ele>
        <time>2021-08-16T21:27:32.746Z</time>
      </trkpt>
      <trkpt lat="41.67539" lon="43.06749">
        <ele>938.6331</ele>
        <time>2021-08-16T21:27:37.632Z</time>
      </trkpt>
      <trkpt lat="41.67508" lon="43.06696">
        <ele>938.173134</ele>
        <time>2021-08-16T21:27:47.488Z</time>
      </trkpt>
      <trkpt lat="41.67415" lon="43.06524">
        <ele>936.340996</ele>
        <time>2021-08-16T21:28:17.982Z</time>
      </trkpt>
      <trkpt lat="41.67405" lon="43.06505">
        <ele>936.290384</ele>
        <time>2021-08-16T21:28:21.399Z</time>
      </trkpt>
      <trkpt lat="41.67382" lon="43.06464">
        <ele>936.18018</ele>
        <time>2021-08-16T21:28:29.285Z</time>
      </trkpt>
      <trkpt lat="41.67318" lon="43.0637">
        <ele>935.904419</ele>
        <time>2021-08-16T21:28:50.399Z</time>
      </trkpt>
      <trkpt lat="41.67246" lon="43.06252">
        <ele>937.017484</ele>
        <time>2021-08-16T21:29:20.991Z</time>
      </trkpt>
      <trkpt lat="41.67167" lon="43.06108">
        <ele>938.990771</ele>
        <time>2021-08-16T21:30:01.336Z</time>
      </trkpt>
      <trkpt lat="41.67004" lon="43.05801">
        <ele>944.847356</ele>
        <time>2021-08-16T21:31:34.377Z</time>
      </trkpt>
      <trkpt lat="41.66885" lon="43.05589">
        <ele>949.189195</ele>
        <time>2021-08-16T21:32:40.620Z</time>
      </trkpt>
      <trkpt lat="41.66721" lon="43.05307">
        <ele>954.280531</ele>
        <time>2021-08-16T21:34:04.934Z</time>
      </trkpt>
      <trkpt lat="41.6671" lon="43.05285">
        <ele>954.669756</ele>
        <time>2021-08-16T21:34:11.483Z</time>
      </trkpt>
      <trkpt lat="41.66701" lon="43.05265">
        <ele>955.002634</ele>
        <time>2021-08-16T21:34:16.800Z</time>
      </trkpt>
      <trkpt lat="41.66674" lon="43.05166">
        <ele>956.540647</ele>
        <time>2021-08-16T21:34:42.254Z</time>
      </trkpt>
      <trkpt lat="41.6659" lon="43.0462">
        <ele>965.255713</ele>
        <time>2021-08-16T21:36:57.557Z</time>
      </trkpt>
      <trkpt lat="41.66584" lon="43.04594">
        <ele>965.743448</ele>
        <time>2021-08-16T21:37:04.652Z</time>
      </trkpt>
      <trkpt lat="41.66569" lon="43.04558">
        <ele>966.474517</ele>
        <time>2021-08-16T21:37:15.262Z</time>
      </trkpt>
      <trkpt lat="41.66433" lon="43.04317">
        <ele>972.217963</ele>
        <time>2021-08-16T21:38:36.059Z</time>
      </trkpt>
      <trkpt lat="41.66381" lon="43.04209">
        <ele>973.531591</ele>
        <time>2021-08-16T21:39:06.991Z</time>
      </trkpt>
      <trkpt lat="41.66134" lon="43.03648">
        <ele>978.439195</ele>
        <time>2021-08-16T21:41:18.677Z</time>
      </trkpt>
      <trkpt lat="41.66083" lon="43.03502">
        <ele>978.000943</ele>
        <time>2021-08-16T21:41:44.048Z</time>
      </trkpt>
      <trkpt lat="41.65961" lon="43.03159">
        <ele>975.057297</ele>
        <time>2021-08-16T21:42:37.576Z</time>
      </trkpt>
      <trkpt lat="41.65889" lon="43.02955">
        <ele>976.11464</ele>
        <time>2021-08-16T21:43:26.482Z</time>
      </trkpt>
      <trkpt lat="41.65771" lon="43.02651">
        <ele>979.756343</ele>
        <time>2021-08-16T21:44:44.386Z</time>
      </trkpt>
      <trkpt lat="41.6572" lon="43.02499">
        <ele>980.673279</ele>
        <time>2021-08-16T21:45:14.511Z</time>
      </trkpt>
      <trkpt lat="41.65719" lon="43.02495">
        <ele>980.689741</ele>
        <time>2021-08-16T21:45:15.269Z</time>
      </trkpt>
      <trkpt lat="41.65674" lon="43.02357">
        <ele>981.366214</ele>
        <time>2021-08-16T21:45:42.466Z</time>
      </trkpt>
      <trkpt lat="41.65657" lon="43.02302">
        <ele>981.859995</ele>
        <time>2021-08-16T21:45:54.976Z</time>
      </trkpt>
      <trkpt lat="41.6564" lon="43.0225">
        <ele>982.321404</ele>
        <time>2021-08-16T21:46:07.135Z</time>
      </trkpt>
      <trkpt lat="41.65616" lon="43.02192">
        <ele>982.865939</ele>
        <time>2021-08-16T21:46:21.621Z</time>
      </trkpt>
      <trkpt lat="41.65601" lon="43.02153">
        <ele>983.161287</ele>
        <time>2021-08-16T21:46:31.228Z</time>
      </trkpt>
      <trkpt lat="41.65559" lon="43.02052">
        <ele>983.611603</ele>
        <time>2021-08-16T21:46:55.227Z</time>
      </trkpt>
      <trkpt lat="41.654" lon="43.01729">
        <ele>983.260165</ele>
        <time>2021-08-16T21:47:57.247Z</time>
      </trkpt>
      <trkpt lat="41.65275" lon="43.01476">
        <ele>982.480236</ele>
        <time>2021-08-16T21:48:43.457Z</time>
      </trkpt>
      <trkpt lat="41.65231" lon="43.01386">
        <ele>982.716135</ele>
        <time>2021-08-16T21:49:05.155Z</time>
      </trkpt>
      <trkpt lat="41.65223" lon="43.01368">
        <ele>982.76112</ele>
        <time>2021-08-16T21:49:09.552Z</time>
      </trkpt>
      <trkpt lat="41.65224" lon="43.01358">
        <ele>982.783817</ele>
        <time>2021-08-16T21:49:12.186Z</time>
      </trkpt>
      <trkpt lat="41.65222" lon="43.01323">
        <ele>982.88983</ele>
        <time>2021-08-16T21:49:19.723Z</time>
      </trkpt>
      <trkpt lat="41.65157" lon="43.01186">
        <ele>983.392871</ele>
        <time>2021-08-16T21:49:53.035Z</time>
      </trkpt>
      <trkpt lat="41.65134" lon="43.0115">
        <ele>983.521683</ele>
        <time>2021-08-16T21:50:00.644Z</time>
      </trkpt>
      <trkpt lat="41.65108" lon="43.01089">
        <ele>982.465125</ele>
        <time>2021-08-16T21:50:11.113Z</time>
      </trkpt>
      <trkpt lat="41.65035" lon="43.0095">
        <ele>979.907918</ele>
        <time>2021-08-16T21:50:34.780Z</time>
      </trkpt>
      <trkpt lat="41.65009" lon="43.00892">
        <ele>978.712052</ele>
        <time>2021-08-16T21:50:44.081Z</time>
      </trkpt>
      <trkpt lat="41.64964" lon="43.00796">
        <ele>976.708358</ele>
        <time>2021-08-16T21:51:00.245Z</time>
      </trkpt>
      <trkpt lat="41.64947" lon="43.00807">
        <ele>976.270836</ele>
        <time>2021-08-16T21:51:03.649Z</time>
      </trkpt>
      <trkpt lat="41.64939" lon="43.00797">
        <ele>976.017761</ele>
        <time>2021-08-16T21:51:05.637Z</time>
      </trkpt>
      <trkpt lat="41.64898" lon="43.00716">
        <ele>974.103163</ele>
        <time>2021-08-16T21:51:18.686Z</time>
      </trkpt>
      <trkpt lat="41.6488" lon="43.00664">
        <ele>972.959733</ele>
        <time>2021-08-16T21:51:26.266Z</time>
      </trkpt>
      <trkpt lat="41.6487" lon="43.00635">
        <ele>972.320094</ele>
        <time>2021-08-16T21:51:30.451Z</time>
      </trkpt>
      <trkpt lat="41.64865" lon="43.00614">
        <ele>971.885564</ele>
        <time>2021-08-16T21:51:33.372Z</time>
      </trkpt>
      <trkpt lat="41.64855" lon="43.00572">
        <ele>971.000055</ele>
        <time>2021-08-16T21:51:39.238Z</time>
      </trkpt>
      <trkpt lat="41.64738" lon="43.00262">
        <ele>963.107463</ele>
        <time>2021-08-16T21:52:23.931Z</time>
      </trkpt>
      <trkpt lat="41.64729" lon="43.00242">
        <ele>962.588068</ele>
        <time>2021-08-16T21:52:26.817Z</time>
      </trkpt>
      <trkpt lat="41.64695" lon="43.00202">
        <ele>961.181804</ele>
        <time>2021-08-16T21:52:34.622Z</time>
      </trkpt>
      <trkpt lat="41.6469" lon="43.00197">
        <ele>960.993957</ele>
        <time>2021-08-16T21:52:35.548Z</time>
      </trkpt>
      <trkpt lat="41.64664" lon="43.00173">
        <ele>960.022709</ele>
        <time>2021-08-16T21:52:41.172Z</time>
      </trkpt>
      <trkpt lat="41.64644" lon="43.00143">
        <ele>959.459634</ele>
        <time>2021-08-16T21:52:46.412Z</time>
      </trkpt>
      <trkpt lat="41.64643" lon="43.00139">
        <ele>959.408251</ele>
        <time>2021-08-16T21:52:47.046Z</time>
      </trkpt>
      <trkpt lat="41.64641" lon="43.00136">
        <ele>959.356221</ele>
        <time>2021-08-16T21:52:47.600Z</time>
      </trkpt>
      <trkpt lat="41.64639" lon="43.00133">
        <ele>959.303696</ele>
        <time>2021-08-16T21:52:48.080Z</time>
      </trkpt>
      <trkpt lat="41.64627" lon="43.00136">
        <ele>959.108688</ele>
        <time>2021-08-16T21:52:50.315Z</time>
      </trkpt>
      <trkpt lat="41.64626" lon="43.00138">
        <ele>959.07989</ele>
        <time>2021-08-16T21:52:50.587Z</time>
      </trkpt>
      <trkpt lat="41.64626" lon="43.0014">
        <ele>959.056369</ele>
        <time>2021-08-16T21:52:50.845Z</time>
      </trkpt>
      <trkpt lat="41.64617" lon="43.00149">
        <ele>958.873403</ele>
        <time>2021-08-16T21:52:52.983Z</time>
      </trkpt>
      <trkpt lat="41.64601" lon="43.00164">
        <ele>958.557178</ele>
        <time>2021-08-16T21:52:56.442Z</time>
      </trkpt>
      <trkpt lat="41.64592" lon="43.00168">
        <ele>958.404422</ele>
        <time>2021-08-16T21:52:58.114Z</time>
      </trkpt>
      <trkpt lat="41.64508" lon="43.00211">
        <ele>956.933974</ele>
        <time>2021-08-16T21:53:15.741Z</time>
      </trkpt>
      <trkpt lat="41.64455" lon="43.00242">
        <ele>957.605048</ele>
        <time>2021-08-16T21:53:30.351Z</time>
      </trkpt>
      <trkpt lat="41.64443" lon="43.00246">
        <ele>957.751778</ele>
        <time>2021-08-16T21:53:34.058Z</time>
      </trkpt>
      <trkpt lat="41.64432" lon="43.00251">
        <ele>957.894749</ele>
        <time>2021-08-16T21:53:37.567Z</time>
      </trkpt>
      <trkpt lat="41.64425" lon="43.00254">
        <ele>957.982755</ele>
        <time>2021-08-16T21:53:39.787Z</time>
      </trkpt>
      <trkpt lat="41.64421" lon="43.00253">
        <ele>958.030642</ele>
        <time>2021-08-16T21:53:40.997Z</time>
      </trkpt>
      <trkpt lat="41.64417" lon="43.00255">
        <ele>958.078682</ele>
        <time>2021-08-16T21:53:42.235Z</time>
      </trkpt>
      <trkpt lat="41.64402" lon="43.00251">
        <ele>958.254555</ele>
        <time>2021-08-16T21:53:46.776Z</time>
      </trkpt>
      <trkpt lat="41.64389" lon="43.00251">
        <ele>958.404629</ele>
        <time>2021-08-16T21:53:50.614Z</time>
      </trkpt>
      <trkpt lat="41.64353" lon="43.00243">
        <ele>958.844382</ele>
        <time>2021-08-16T21:54:02.241Z</time>
      </trkpt>
      <trkpt lat="41.64297" lon="43.00233">
        <ele>959.818953</ele>
        <time>2021-08-16T21:54:20.901Z</time>
      </trkpt>
      <trkpt lat="41.64262" lon="43.00227">
        <ele>960.521426</ele>
        <time>2021-08-16T21:54:32.781Z</time>
      </trkpt>
      <trkpt lat="41.64246" lon="43.00222">
        <ele>960.853001</ele>
        <time>2021-08-16T21:54:38.336Z</time>
      </trkpt>
      <trkpt lat="41.64212" lon="43.00216">
        <ele>961.540416</ele>
        <time>2021-08-16T21:54:49.754Z</time>
      </trkpt>
      <trkpt lat="41.64211" lon="43.00154">
        <ele>962.456132</ele>
        <time>2021-08-16T21:55:04.973Z</time>
      </trkpt>
      <trkpt lat="41.6417" lon="42.99911">
        <ele>964.625427</ele>
        <time>2021-08-16T21:55:58.874Z</time>
      </trkpt>
      <trkpt lat="41.64175" lon="42.99882">
        <ele>964.692817</ele>
        <time>2021-08-16T21:56:04.521Z</time>
      </trkpt>
      <trkpt lat="41.64165" lon="42.99824">
        <ele>964.77049</ele>
        <time>2021-08-16T21:56:15.477Z</time>
      </trkpt>
      <trkpt lat="41.6417" lon="42.99753">
        <ele>964.863771</ele>
        <time>2021-08-16T21:56:27.729Z</time>
      </trkpt>
      <trkpt lat="41.64177" lon="42.99664">
        <ele>965.004723</ele>
        <time>2021-08-16T21:56:42.898Z</time>
      </trkpt>
      <trkpt lat="41.64183" lon="42.99572">
        <ele>965.573957</ele>
        <time>2021-08-16T21:56:59.390Z</time>
      </trkpt>
      <trkpt lat="41.64076" lon="42.99555">
        <ele>966.478313</ele>
        <time>2021-08-16T21:57:29.602Z</time>
      </trkpt>
      <trkpt lat="41.63968" lon="42.99537">
        <ele>970.343731</ele>
        <time>2021-08-16T21:58:11.379Z</time>
      </trkpt>
      <trkpt lat="41.63975" lon="42.9946">
        <ele>972.397148</ele>
        <time>2021-08-16T21:58:39.712Z</time>
      </trkpt>
      <trkpt lat="41.63863" lon="42.99465">
        <ele>978.024789</ele>
        <time>2021-08-16T21:59:31.045Z</time>
      </trkpt>
      <trkpt lat="41.6388" lon="42.99406">
        <ele>980.472692</ele>
        <time>2021-08-16T21:59:55.124Z</time>
      </trkpt>
      <trkpt lat="41.63908" lon="42.99315">
        <ele>983.746138</ele>
        <time>2021-08-16T22:00:33.467Z</time>
      </trkpt>
      <trkpt lat="41.63914" lon="42.99282">
        <ele>984.709491</ele>
        <time>2021-08-16T22:00:44.895Z</time>
      </trkpt>
      <trkpt lat="41.6386" lon="42.99256">
        <ele>986.880472</ele>
        <time>2021-08-16T22:01:07.591Z</time>
      </trkpt>
      <trkpt lat="41.63796" lon="42.99225">
        <ele>989.175223</ele>
        <time>2021-08-16T22:01:33.015Z</time>
      </trkpt>
      <trkpt lat="41.63835" lon="42.99083">
        <ele>990.115801</ele>
        <time>2021-08-16T22:02:05.603Z</time>
      </trkpt>
      <trkpt lat="41.63878" lon="42.98932">
        <ele>990.372804</ele>
        <time>2021-08-16T22:02:31.886Z</time>
      </trkpt>
      <trkpt lat="41.63915" lon="42.98802">
        <ele>990.03843</ele>
        <time>2021-08-16T22:02:54.746Z</time>
      </trkpt>
      <trkpt lat="41.63934" lon="42.98733">
        <ele>989.968594</ele>
        <time>2021-08-16T22:03:05.773Z</time>
      </trkpt>
      <trkpt lat="41.63959" lon="42.98641">
        <ele>989.90873</ele>
        <time>2021-08-16T22:03:21.690Z</time>
      </trkpt>
      <trkpt lat="41.6398" lon="42.98569">
        <ele>989.861846</ele>
        <time>2021-08-16T22:03:35.167Z</time>
      </trkpt>
      <trkpt lat="41.63976" lon="42.98564">
        <ele>989.857307</ele>
        <time>2021-08-16T22:03:36.400Z</time>
      </trkpt>
      <trkpt lat="41.63967" lon="42.98559">
        <ele>989.963119</ele>
        <time>2021-08-16T22:03:39.599Z</time>
      </trkpt>
      <trkpt lat="41.63962" lon="42.98557">
        <ele>990.028141</ele>
        <time>2021-08-16T22:03:40.758Z</time>
      </trkpt>
      <trkpt lat="41.63943" lon="42.9858">
        <ele>990.315398</ele>
        <time>2021-08-16T22:03:46.815Z</time>
      </trkpt>
      <trkpt lat="41.6394" lon="42.98583">
        <ele>990.358333</ele>
        <time>2021-08-16T22:03:48.333Z</time>
      </trkpt>
      <trkpt lat="41.6391" lon="42.98618">
        <ele>990.813118</ele>
        <time>2021-08-16T22:03:58.355Z</time>
      </trkpt>
      <trkpt lat="41.63882" lon="42.9866">
        <ele>991.285188</ele>
        <time>2021-08-16T22:04:09.518Z</time>
      </trkpt>
      <trkpt lat="41.63868" lon="42.98706">
        <ele>991.707983</ele>
        <time>2021-08-16T22:04:21.183Z</time>
      </trkpt>
      <trkpt lat="41.6385" lon="42.98767">
        <ele>992.326034</ele>
        <time>2021-08-16T22:04:38.707Z</time>
      </trkpt>
      <trkpt lat="41.63811" lon="42.98903">
        <ele>993.745488</ele>
        <time>2021-08-16T22:05:12.026Z</time>
      </trkpt>
      <trkpt lat="41.63809" lon="42.98924">
        <ele>993.953847</ele>
        <time>2021-08-16T22:05:15.968Z</time>
      </trkpt>
      <trkpt lat="41.6378" lon="42.99028">
        <ele>993.636711</ele>
        <time>2021-08-16T22:05:34.115Z</time>
      </trkpt>
      <trkpt lat="41.63773" lon="42.99051">
        <ele>993.443377</ele>
        <time>2021-08-16T22:05:38.572Z</time>
      </trkpt>
      <trkpt lat="41.63835" lon="42.99083">
        <ele>992.75384</ele>
        <time>2021-08-16T22:05:52.914Z</time>
      </trkpt>
      <trkpt lat="41.63796" lon="42.99225">
        <ele>989.938942</ele>
        <time>2021-08-16T22:06:13.248Z</time>
      </trkpt>
      <trkpt lat="41.6386" lon="42.99256">
        <ele>987.803876</ele>
        <time>2021-08-16T22:06:25.416Z</time>
      </trkpt>
      <trkpt lat="41.63914" lon="42.99282">
        <ele>986.266335</ele>
        <time>2021-08-16T22:06:35.508Z</time>
      </trkpt>
      <trkpt lat="41.63908" lon="42.99315">
        <ele>985.722012</ele>
        <time>2021-08-16T22:06:39.964Z</time>
      </trkpt>
      <trkpt lat="41.6388" lon="42.99406">
        <ele>984.135291</ele>
        <time>2021-08-16T22:06:53.046Z</time>
      </trkpt>
      <trkpt lat="41.63863" lon="42.99465">
        <ele>983.121853</ele>
        <time>2021-08-16T22:07:02.075Z</time>
      </trkpt>
      <trkpt lat="41.63858" lon="42.99504">
        <ele>982.778869</ele>
        <time>2021-08-16T22:07:08.660Z</time>
      </trkpt>
      <trkpt lat="41.63855" lon="42.99691">
        <ele>981.868186</ele>
        <time>2021-08-16T22:07:38.084Z</time>
      </trkpt>
      <trkpt lat="41.63844" lon="42.99749">
        <ele>981.491338</ele>
        <time>2021-08-16T22:07:46.948Z</time>
      </trkpt>
      <trkpt lat="41.63833" lon="42.99821">
        <ele>980.949878</ele>
        <time>2021-08-16T22:07:57.661Z</time>
      </trkpt>
      <trkpt lat="41.63832" lon="42.99884">
        <ele>980.482293</ele>
        <time>2021-08-16T22:08:07.116Z</time>
      </trkpt>
      <trkpt lat="41.63831" lon="42.99927">
        <ele>980.165698</ele>
        <time>2021-08-16T22:08:13.569Z</time>
      </trkpt>
      <trkpt lat="41.6383" lon="42.99959">
        <ele>979.911391</ele>
        <time>2021-08-16T22:08:18.414Z</time>
      </trkpt>
      <trkpt lat="41.6383" lon="43.00003">
        <ele>979.358877</ele>
        <time>2021-08-16T22:08:24.951Z</time>
      </trkpt>
      <trkpt lat="41.63831" lon="43.00033">
        <ele>978.982567</ele>
        <time>2021-08-16T22:08:29.412Z</time>
      </trkpt>
      <trkpt lat="41.63834" lon="43.00062">
        <ele>978.614531</ele>
        <time>2021-08-16T22:08:33.867Z</time>
      </trkpt>
      <trkpt lat="41.63841" lon="43.00143">
        <ele>977.59993</ele>
        <time>2021-08-16T22:08:45.502Z</time>
      </trkpt>
      <trkpt lat="41.63846" lon="43.0021">
        <ele>976.495091</ele>
        <time>2021-08-16T22:08:54.331Z</time>
      </trkpt>
      <trkpt lat="41.63853" lon="43.00299">
        <ele>973.924837</ele>
        <time>2021-08-16T22:09:05.625Z</time>
      </trkpt>
      <trkpt lat="41.63853" lon="43.00303">
        <ele>973.820662</ele>
        <time>2021-08-16T22:09:06.010Z</time>
      </trkpt>
      <trkpt lat="41.6386" lon="43.00406">
        <ele>970.828444</ele>
        <time>2021-08-16T22:09:18.526Z</time>
      </trkpt>
      <trkpt lat="41.63877" lon="43.00681">
        <ele>963.433372</ele>
        <time>2021-08-16T22:09:52.867Z</time>
      </trkpt>
      <trkpt lat="41.63878" lon="43.00694">
        <ele>963.26593</ele>
        <time>2021-08-16T22:09:54.639Z</time>
      </trkpt>
      <trkpt lat="41.63914" lon="43.01183">
        <ele>958.543684</ele>
        <time>2021-08-16T22:11:06.327Z</time>
      </trkpt>
      <trkpt lat="41.63936" lon="43.01461">
        <ele>960.335473</ele>
        <time>2021-08-16T22:11:57.721Z</time>
      </trkpt>
      <trkpt lat="41.63944" lon="43.01485">
        <ele>960.884944</ele>
        <time>2021-08-16T22:12:04.578Z</time>
      </trkpt>
      <trkpt lat="41.63941" lon="43.01488">
        <ele>960.982336</ele>
        <time>2021-08-16T22:12:06.027Z</time>
      </trkpt>
      <trkpt lat="41.63939" lon="43.01496">
        <ele>961.178757</ele>
        <time>2021-08-16T22:12:08.612Z</time>
      </trkpt>
      <trkpt lat="41.63939" lon="43.01501">
        <ele>961.277049</ele>
        <time>2021-08-16T22:12:10.056Z</time>
      </trkpt>
      <trkpt lat="41.63941" lon="43.01505">
        <ele>961.377871</ele>
        <time>2021-08-16T22:12:11.277Z</time>
      </trkpt>
      <trkpt lat="41.63944" lon="43.01508">
        <ele>961.47885</ele>
        <time>2021-08-16T22:12:12.737Z</time>
      </trkpt>
      <trkpt lat="41.63947" lon="43.01509">
        <ele>961.577141</ele>
        <time>2021-08-16T22:12:13.945Z</time>
      </trkpt>
      <trkpt lat="41.63944" lon="43.01531">
        <ele>962.050966</ele>
        <time>2021-08-16T22:12:20.993Z</time>
      </trkpt>
      <trkpt lat="41.63945" lon="43.0155">
        <ele>962.464186</ele>
        <time>2021-08-16T22:12:27.084Z</time>
      </trkpt>
      <trkpt lat="41.63946" lon="43.01562">
        <ele>962.715622</ele>
        <time>2021-08-16T22:12:30.625Z</time>
      </trkpt>
      <trkpt lat="41.63954" lon="43.0164">
        <ele>964.617335</ele>
        <time>2021-08-16T22:12:56.942Z</time>
      </trkpt>
      <trkpt lat="41.63961" lon="43.01696">
        <ele>966.522383</ele>
        <time>2021-08-16T22:13:16.619Z</time>
      </trkpt>
      <trkpt lat="41.63966" lon="43.01737">
        <ele>967.910577</ele>
        <time>2021-08-16T22:13:31.222Z</time>
      </trkpt>
      <trkpt lat="41.63987" lon="43.01869">
        <ele>972.255874</ele>
        <time>2021-08-16T22:14:18.167Z</time>
      </trkpt>
      <trkpt lat="41.64016" lon="43.02065">
        <ele>975.432186</ele>
        <time>2021-08-16T22:15:06.303Z</time>
      </trkpt>
      <trkpt lat="41.64029" lon="43.02113">
        <ele>976.016387</ele>
        <time>2021-08-16T22:15:15.742Z</time>
      </trkpt>
      <trkpt lat="41.64041" lon="43.02158">
        <ele>976.255728</ele>
        <time>2021-08-16T22:15:24.905Z</time>
      </trkpt>
      <trkpt lat="41.64051" lon="43.02189">
        <ele>976.420567</ele>
        <time>2021-08-16T22:15:30.477Z</time>
      </trkpt>
      <trkpt lat="41.64063" lon="43.02221">
        <ele>976.598206</ele>
        <time>2021-08-16T22:15:37.106Z</time>
      </trkpt>
      <trkpt lat="41.64085" lon="43.02261">
        <ele>976.842935</ele>
        <time>2021-08-16T22:15:46.230Z</time>
      </trkpt>
      <trkpt lat="41.641" lon="43.02281">
        <ele>976.980043</ele>
        <time>2021-08-16T22:15:52.239Z</time>
      </trkpt>
      <trkpt lat="41.64145" lon="43.0235">
        <ele>977.985129</ele>
        <time>2021-08-16T22:16:09.680Z</time>
      </trkpt>
      <trkpt lat="41.64162" lon="43.024">
        <ele>978.720354</ele>
        <time>2021-08-16T22:16:22.393Z</time>
      </trkpt>
      <trkpt lat="41.64184" lon="43.02489">
        <ele>979.968793</ele>
        <time>2021-08-16T22:16:46.340Z</time>
      </trkpt>
      <trkpt lat="41.64206" lon="43.02565">
        <ele>981.649345</ele>
        <time>2021-08-16T22:17:07.678Z</time>
      </trkpt>
      <trkpt lat="41.64211" lon="43.02606">
        <ele>982.634495</ele>
        <time>2021-08-16T22:17:18.850Z</time>
      </trkpt>
      <trkpt lat="41.64202" lon="43.02644">
        <ele>983.589155</ele>
        <time>2021-08-16T22:17:29.919Z</time>
      </trkpt>
      <trkpt lat="41.64096" lon="43.02806">
        <ele>988.966759</ele>
        <time>2021-08-16T22:18:37.177Z</time>
      </trkpt>
      <trkpt lat="41.64005" lon="43.02952">
        <ele>992.917695</ele>
        <time>2021-08-16T22:19:31.124Z</time>
      </trkpt>
      <trkpt lat="41.63978" lon="43.02999">
        <ele>993.54401</ele>
        <time>2021-08-16T22:19:44.869Z</time>
      </trkpt>
      <trkpt lat="41.6395" lon="43.03056">
        <ele>994.261834</ele>
        <time>2021-08-16T22:19:58.536Z</time>
      </trkpt>
      <trkpt lat="41.63889" lon="43.0321">
        <ele>994.651446</ele>
        <time>2021-08-16T22:20:26.453Z</time>
      </trkpt>
      <trkpt lat="41.63773" lon="43.03557">
        <ele>994.208364</ele>
        <time>2021-08-16T22:21:28.983Z</time>
      </trkpt>
      <trkpt lat="41.63694" lon="43.0383">
        <ele>992.529015</ele>
        <time>2021-08-16T22:22:15.282Z</time>
      </trkpt>
      <trkpt lat="41.63643" lon="43.03944">
        <ele>990.641055</ele>
        <time>2021-08-16T22:22:33.707Z</time>
      </trkpt>
      <trkpt lat="41.63623" lon="43.03982">
        <ele>989.556657</ele>
        <time>2021-08-16T22:22:39.470Z</time>
      </trkpt>
      <trkpt lat="41.636" lon="43.04017">
        <ele>987.322425</ele>
        <time>2021-08-16T22:22:45.016Z</time>
      </trkpt>
      <trkpt lat="41.63589" lon="43.04037">
        <ele>986.138409</ele>
        <time>2021-08-16T22:22:47.848Z</time>
      </trkpt>
      <trkpt lat="41.63582" lon="43.04057">
        <ele>985.094893</ele>
        <time>2021-08-16T22:22:50.380Z</time>
      </trkpt>
      <trkpt lat="41.63575" lon="43.04093">
        <ele>983.304481</ele>
        <time>2021-08-16T22:22:54.569Z</time>
      </trkpt>
      <trkpt lat="41.63563" lon="43.04148">
        <ele>980.53838</ele>
        <time>2021-08-16T22:23:00.963Z</time>
      </trkpt>
      <trkpt lat="41.63545" lon="43.04199">
        <ele>977.635931</ele>
        <time>2021-08-16T22:23:07.090Z</time>
      </trkpt>
      <trkpt lat="41.63525" lon="43.04239">
        <ele>974.602504</ele>
        <time>2021-08-16T22:23:12.371Z</time>
      </trkpt>
      <trkpt lat="41.63503" lon="43.0427">
        <ele>971.968826</ele>
        <time>2021-08-16T22:23:16.913Z</time>
      </trkpt>
      <trkpt lat="41.63469" lon="43.04298">
        <ele>968.7034</ele>
        <time>2021-08-16T22:23:22.640Z</time>
      </trkpt>
      <trkpt lat="41.63353" lon="43.0435">
        <ele>961.176379</ele>
        <time>2021-08-16T22:23:40.914Z</time>
      </trkpt>
      <trkpt lat="41.63329" lon="43.04362">
        <ele>960.102372</ele>
        <time>2021-08-16T22:23:45.090Z</time>
      </trkpt>
      <trkpt lat="41.63301" lon="43.04376">
        <ele>958.82822</ele>
        <time>2021-08-16T22:23:50.215Z</time>
      </trkpt>
      <trkpt lat="41.63276" lon="43.04388">
        <ele>957.721199</ele>
        <time>2021-08-16T22:23:54.872Z</time>
      </trkpt>
      <trkpt lat="41.63251" lon="43.044">
        <ele>956.616293</ele>
        <time>2021-08-16T22:23:59.754Z</time>
      </trkpt>
      <trkpt lat="41.63209" lon="43.0442">
        <ele>956.249069</ele>
        <time>2021-08-16T22:24:08.624Z</time>
      </trkpt>
      <trkpt lat="41.63141" lon="43.04482">
        <ele>956.279964</ele>
        <time>2021-08-16T22:24:28.388Z</time>
      </trkpt>
      <trkpt lat="41.63075" lon="43.04614">
        <ele>956.981894</ele>
        <time>2021-08-16T22:24:59.041Z</time>
      </trkpt>
      <trkpt lat="41.6301" lon="43.047">
        <ele>958.074973</ele>
        <time>2021-08-16T22:25:26.648Z</time>
      </trkpt>
      <trkpt lat="41.62996" lon="43.04715">
        <ele>958.286319</ele>
        <time>2021-08-16T22:25:32.335Z</time>
      </trkpt>
      <trkpt lat="41.62972" lon="43.04744">
        <ele>958.360883</ele>
        <time>2021-08-16T22:25:42.873Z</time>
      </trkpt>
      <trkpt lat="41.62902" lon="43.04851">
        <ele>957.798692</ele>
        <time>2021-08-16T22:26:04.926Z</time>
      </trkpt>
      <trkpt lat="41.62879" lon="43.04886">
        <ele>957.617156</ele>
        <time>2021-08-16T22:26:11.759Z</time>
      </trkpt>
      <trkpt lat="41.62825" lon="43.04964">
        <ele>956.487617</ele>
        <time>2021-08-16T22:26:26.142Z</time>
      </trkpt>
      <trkpt lat="41.62779" lon="43.04966">
        <ele>955.669896</ele>
        <time>2021-08-16T22:26:34.637Z</time>
      </trkpt>
      <trkpt lat="41.62731" lon="43.04966">
        <ele>954.840288</ele>
        <time>2021-08-16T22:26:43.049Z</time>
      </trkpt>
      <trkpt lat="41.6263" lon="43.04932">
        <ele>954.283574</ele>
        <time>2021-08-16T22:27:05.350Z</time>
      </trkpt>
      <trkpt lat="41.62575" lon="43.04934">
        <ele>954.224187</ele>
        <time>2021-08-16T22:27:18.168Z</time>
      </trkpt>
      <trkpt lat="41.62545" lon="43.04928">
        <ele>954.190934</ele>
        <time>2021-08-16T22:27:25.361Z</time>
      </trkpt>
      <trkpt lat="41.62506" lon="43.04933">
        <ele>954.357638</ele>
        <time>2021-08-16T22:27:34.755Z</time>
      </trkpt>
      <trkpt lat="41.62487" lon="43.04922">
        <ele>954.5244</ele>
        <time>2021-08-16T22:27:39.537Z</time>
      </trkpt>
      <trkpt lat="41.62466" lon="43.04879">
        <ele>954.847905</ele>
        <time>2021-08-16T22:27:49.032Z</time>
      </trkpt>
      <trkpt lat="41.62456" lon="43.04847">
        <ele>955.060981</ele>
        <time>2021-08-16T22:27:55.671Z</time>
      </trkpt>
      <trkpt lat="41.62447" lon="43.04783">
        <ele>955.469635</ele>
        <time>2021-08-16T22:28:09.275Z</time>
      </trkpt>
      <trkpt lat="41.62448" lon="43.04708">
        <ele>956.268261</ele>
        <time>2021-08-16T22:28:26.096Z</time>
      </trkpt>
      <trkpt lat="41.62432" lon="43.04598">
        <ele>957.851692</ele>
        <time>2021-08-16T22:28:53.031Z</time>
      </trkpt>
      <trkpt lat="41.6242" lon="43.04561">
        <ele>958.423649</ele>
        <time>2021-08-16T22:29:02.988Z</time>
      </trkpt>
      <trkpt lat="41.6236" lon="43.04461">
        <ele>960.215025</ele>
        <time>2021-08-16T22:29:34.484Z</time>
      </trkpt>
      <trkpt lat="41.62347" lon="43.04404">
        <ele>961.06431</ele>
        <time>2021-08-16T22:29:49.063Z</time>
      </trkpt>
      <trkpt lat="41.62332" lon="43.0437">
        <ele>961.612218</ele>
        <time>2021-08-16T22:29:58.089Z</time>
      </trkpt>
      <trkpt lat="41.62309" lon="43.04341">
        <ele>962.206314</ele>
        <time>2021-08-16T22:30:07.668Z</time>
      </trkpt>
      <trkpt lat="41.62256" lon="43.04293">
        <ele>963.222137</ele>
        <time>2021-08-16T22:30:26.530Z</time>
      </trkpt>
      <trkpt lat="41.62232" lon="43.04231">
        <ele>964.000134</ele>
        <time>2021-08-16T22:30:42.114Z</time>
      </trkpt>
      <trkpt lat="41.62196" lon="43.04157">
        <ele>965.001603</ele>
        <time>2021-08-16T22:31:01.795Z</time>
      </trkpt>
      <trkpt lat="41.62182" lon="43.04138">
        <ele>965.319316</ele>
        <time>2021-08-16T22:31:07.439Z</time>
      </trkpt>
      <trkpt lat="41.62167" lon="43.04119">
        <ele>965.683257</ele>
        <time>2021-08-16T22:31:13.605Z</time>
      </trkpt>
      <trkpt lat="41.6215" lon="43.04104">
        <ele>966.045908</ele>
        <time>2021-08-16T22:31:19.747Z</time>
      </trkpt>
      <trkpt lat="41.62049" lon="43.04044">
        <ele>967.968805</ele>
        <time>2021-08-16T22:31:54.073Z</time>
      </trkpt>
      <trkpt lat="41.61961" lon="43.03963">
        <ele>970.43546</ele>
        <time>2021-08-16T22:32:29.427Z</time>
      </trkpt>
      <trkpt lat="41.61932" lon="43.03949">
        <ele>971.189792</ele>
        <time>2021-08-16T22:32:40.246Z</time>
      </trkpt>
      <trkpt lat="41.61857" lon="43.03941">
        <ele>973.030484</ele>
        <time>2021-08-16T22:33:07.504Z</time>
      </trkpt>
      <trkpt lat="41.61795" lon="43.03913">
        <ele>974.674196</ele>
        <time>2021-08-16T22:33:31.387Z</time>
      </trkpt>
      <trkpt lat="41.61722" lon="43.03946">
        <ele>976.618395</ele>
        <time>2021-08-16T22:33:57.867Z</time>
      </trkpt>
      <trkpt lat="41.61694" lon="43.03939">
        <ele>977.318827</ele>
        <time>2021-08-16T22:34:07.492Z</time>
      </trkpt>
      <trkpt lat="41.61584" lon="43.03848">
        <ele>979.901035</ele>
        <time>2021-08-16T22:34:48.362Z</time>
      </trkpt>
      <trkpt lat="41.6153" lon="43.03829">
        <ele>981.091164</ele>
        <time>2021-08-16T22:35:05.788Z</time>
      </trkpt>
      <trkpt lat="41.61461" lon="43.03771">
        <ele>983.372295</ele>
        <time>2021-08-16T22:35:33.454Z</time>
      </trkpt>
      <trkpt lat="41.61233" lon="43.03784">
        <ele>990.916153</ele>
        <time>2021-08-16T22:37:03.626Z</time>
      </trkpt>
      <trkpt lat="41.61175" lon="43.03805">
        <ele>993.274198</ele>
        <time>2021-08-16T22:37:29.397Z</time>
      </trkpt>
      <trkpt lat="41.61077" lon="43.0387">
        <ele>998.171305</ele>
        <time>2021-08-16T22:38:16.258Z</time>
      </trkpt>
      <trkpt lat="41.61034" lon="43.03859">
        <ele>1000.113361</ele>
        <time>2021-08-16T22:38:36.545Z</time>
      </trkpt>
      <trkpt lat="41.6096" lon="43.03867">
        <ele>1004.713115</ele>
        <time>2021-08-16T22:39:15.130Z</time>
      </trkpt>
      <trkpt lat="41.60941" lon="43.03879">
        <ele>1005.977726</ele>
        <time>2021-08-16T22:39:26.004Z</time>
      </trkpt>
      <trkpt lat="41.60865" lon="43.03989">
        <ele>1012.870119</ele>
        <time>2021-08-16T22:40:29.645Z</time>
      </trkpt>
      <trkpt lat="41.60846" lon="43.04002">
        <ele>1014.055837</ele>
        <time>2021-08-16T22:40:42.014Z</time>
      </trkpt>
      <trkpt lat="41.60795" lon="43.03999">
        <ele>1016.828323</ele>
        <time>2021-08-16T22:41:09.957Z</time>
      </trkpt>
      <trkpt lat="41.60762" lon="43.04018">
        <ele>1018.821374</ele>
        <time>2021-08-16T22:41:28.448Z</time>
      </trkpt>
      <trkpt lat="41.60747" lon="43.04044">
        <ele>1020.17956</ele>
        <time>2021-08-16T22:41:39.792Z</time>
      </trkpt>
      <trkpt lat="41.60737" lon="43.04095">
        <ele>1021.760138</ele>
        <time>2021-08-16T22:41:55.086Z</time>
      </trkpt>
      <trkpt lat="41.60725" lon="43.04191">
        <ele>1022.672282</ele>
        <time>2021-08-16T22:42:15.781Z</time>
      </trkpt>
      <trkpt lat="41.60727" lon="43.04248">
        <ele>1023.204815</ele>
        <time>2021-08-16T22:42:25.573Z</time>
      </trkpt>
      <trkpt lat="41.60722" lon="43.04277">
        <ele>1023.48397</ele>
        <time>2021-08-16T22:42:30.715Z</time>
      </trkpt>
      <trkpt lat="41.60705" lon="43.04287">
        <ele>1023.714947</ele>
        <time>2021-08-16T22:42:34.997Z</time>
      </trkpt>
      <trkpt lat="41.6066" lon="43.04274">
        <ele>1024.63864</ele>
        <time>2021-08-16T22:42:46.717Z</time>
      </trkpt>
      <trkpt lat="41.60625" lon="43.04278">
        <ele>1025.425028</ele>
        <time>2021-08-16T22:42:56.759Z</time>
      </trkpt>
      <trkpt lat="41.60555" lon="43.04292">
        <ele>1027.00678</ele>
        <time>2021-08-16T22:43:20.731Z</time>
      </trkpt>
      <trkpt lat="41.60528" lon="43.04306">
        <ele>1027.653227</ele>
        <time>2021-08-16T22:43:32.726Z</time>
      </trkpt>
      <trkpt lat="41.60475" lon="43.04312">
        <ele>1029.991992</ele>
        <time>2021-08-16T22:43:56.979Z</time>
      </trkpt>
      <trkpt lat="41.6037" lon="43.04345">
        <ele>1035.280584</ele>
        <time>2021-08-16T22:44:50.460Z</time>
      </trkpt>
      <trkpt lat="41.60325" lon="43.04414">
        <ele>1038.485209</ele>
        <time>2021-08-16T22:45:21.108Z</time>
      </trkpt>
      <trkpt lat="41.60296" lon="43.04493">
        <ele>1041.446964</ele>
        <time>2021-08-16T22:45:50.005Z</time>
      </trkpt>
      <trkpt lat="41.60266" lon="43.04522">
        <ele>1043.111334</ele>
        <time>2021-08-16T22:46:06.958Z</time>
      </trkpt>
      <trkpt lat="41.60195" lon="43.04613">
        <ele>1047.284454</ele>
        <time>2021-08-16T22:46:50.635Z</time>
      </trkpt>
      <trkpt lat="41.60185" lon="43.0466">
        <ele>1048.783298</ele>
        <time>2021-08-16T22:47:06.200Z</time>
      </trkpt>
      <trkpt lat="41.60174" lon="43.04684">
        <ele>1049.636481</ele>
        <time>2021-08-16T22:47:15.167Z</time>
      </trkpt>
      <trkpt lat="41.6016" lon="43.0469">
        <ele>1050.226655</ele>
        <time>2021-08-16T22:47:21.538Z</time>
      </trkpt>
      <trkpt lat="41.60116" lon="43.04687">
        <ele>1052.037618</ele>
        <time>2021-08-16T22:47:40.186Z</time>
      </trkpt>
      <trkpt lat="41.60098" lon="43.04706">
        <ele>1052.505185</ele>
        <time>2021-08-16T22:47:49.606Z</time>
      </trkpt>
      <trkpt lat="41.60079" lon="43.04744">
        <ele>1053.120625</ele>
        <time>2021-08-16T22:48:02.207Z</time>
      </trkpt>
      <trkpt lat="41.60074" lon="43.04786">
        <ele>1053.682823</ele>
        <time>2021-08-16T22:48:12.027Z</time>
      </trkpt>
      <trkpt lat="41.60075" lon="43.04834">
        <ele>1054.331819</ele>
        <time>2021-08-16T22:48:21.801Z</time>
      </trkpt>
      <trkpt lat="41.60067" lon="43.04861">
        <ele>1054.725418</ele>
        <time>2021-08-16T22:48:27.232Z</time>
      </trkpt>
      <trkpt lat="41.60051" lon="43.04875">
        <ele>1055.070158</ele>
        <time>2021-08-16T22:48:32.111Z</time>
      </trkpt>
      <trkpt lat="41.59974" lon="43.04978">
        <ele>1056.177596</ele>
        <time>2021-08-16T22:48:59.388Z</time>
      </trkpt>
      <trkpt lat="41.59958" lon="43.0499">
        <ele>1056.342304</ele>
        <time>2021-08-16T22:49:04.130Z</time>
      </trkpt>
      <trkpt lat="41.59904" lon="43.05004">
        <ele>1056.833841</ele>
        <time>2021-08-16T22:49:19.516Z</time>
      </trkpt>
      <trkpt lat="41.59745" lon="43.05173">
        <ele>1059.585033</ele>
        <time>2021-08-16T22:50:22.628Z</time>
      </trkpt>
      <trkpt lat="41.5968" lon="43.05255">
        <ele>1059.092464</ele>
        <time>2021-08-16T22:50:41.517Z</time>
      </trkpt>
      <trkpt lat="41.59667" lon="43.05299">
        <ele>1058.895669</ele>
        <time>2021-08-16T22:50:48.376Z</time>
      </trkpt>
      <trkpt lat="41.59645" lon="43.05349">
        <ele>1058.655824</ele>
        <time>2021-08-16T22:50:56.493Z</time>
      </trkpt>
      <trkpt lat="41.59611" lon="43.05395">
        <ele>1058.415937</ele>
        <time>2021-08-16T22:51:05.748Z</time>
      </trkpt>
      <trkpt lat="41.59578" lon="43.05425">
        <ele>1058.22544</ele>
        <time>2021-08-16T22:51:13.365Z</time>
      </trkpt>
      <trkpt lat="41.59545" lon="43.05445">
        <ele>1058.046298</ele>
        <time>2021-08-16T22:51:20.986Z</time>
      </trkpt>
      <trkpt lat="41.59494" lon="43.05456">
        <ele>1057.791883</ele>
        <time>2021-08-16T22:51:33.884Z</time>
      </trkpt>
      <trkpt lat="41.59444" lon="43.05512">
        <ele>1058.511782</ele>
        <time>2021-08-16T22:51:52.844Z</time>
      </trkpt>
      <trkpt lat="41.59414" lon="43.05532">
        <ele>1058.919596</ele>
        <time>2021-08-16T22:52:02.946Z</time>
      </trkpt>
      <trkpt lat="41.59389" lon="43.05566">
        <ele>1059.361394</ele>
        <time>2021-08-16T22:52:13.533Z</time>
      </trkpt>
      <trkpt lat="41.59348" lon="43.05639">
        <ele>1060.06586</ele>
        <time>2021-08-16T22:52:32.366Z</time>
      </trkpt>
      <trkpt lat="41.59326" lon="43.05657">
        <ele>1060.183313</ele>
        <time>2021-08-16T22:52:39.606Z</time>
      </trkpt>
      <trkpt lat="41.59288" lon="43.05664">
        <ele>1060.353052</ele>
        <time>2021-08-16T22:52:49.739Z</time>
      </trkpt>
      <trkpt lat="41.59238" lon="43.05694">
        <ele>1060.599063</ele>
        <time>2021-08-16T22:53:02.755Z</time>
      </trkpt>
      <trkpt lat="41.59185" lon="43.05754">
        <ele>1060.775253</ele>
        <time>2021-08-16T22:53:17.482Z</time>
      </trkpt>
      <trkpt lat="41.59144" lon="43.0578">
        <ele>1060.748148</ele>
        <time>2021-08-16T22:53:27.217Z</time>
      </trkpt>
      <trkpt lat="41.59105" lon="43.05779">
        <ele>1060.725001</ele>
        <time>2021-08-16T22:53:35.846Z</time>
      </trkpt>
      <trkpt lat="41.5905" lon="43.05749">
        <ele>1060.689556</ele>
        <time>2021-08-16T22:53:49.486Z</time>
      </trkpt>
      <trkpt lat="41.5902" lon="43.05749">
        <ele>1060.747566</ele>
        <time>2021-08-16T22:53:56.083Z</time>
      </trkpt>
      <trkpt lat="41.5891" lon="43.05799">
        <ele>1061.121209</ele>
        <time>2021-08-16T22:54:22.570Z</time>
      </trkpt>
      <trkpt lat="41.58823" lon="43.05816">
        <ele>1061.190862</ele>
        <time>2021-08-16T22:54:46.739Z</time>
      </trkpt>
      <trkpt lat="41.58798" lon="43.0581">
        <ele>1061.150315</ele>
        <time>2021-08-16T22:54:52.672Z</time>
      </trkpt>
      <trkpt lat="41.58755" lon="43.05773">
        <ele>1061.070645</ele>
        <time>2021-08-16T22:55:03.879Z</time>
      </trkpt>
      <trkpt lat="41.58739" lon="43.05766">
        <ele>1061.043159</ele>
        <time>2021-08-16T22:55:07.141Z</time>
      </trkpt>
      <trkpt lat="41.58704" lon="43.05775">
        <ele>1060.986945</ele>
        <time>2021-08-16T22:55:13.747Z</time>
      </trkpt>
      <trkpt lat="41.58685" lon="43.05789">
        <ele>1061.089509</ele>
        <time>2021-08-16T22:55:18.271Z</time>
      </trkpt>
      <trkpt lat="41.58684" lon="43.0583">
        <ele>1061.314829</ele>
        <time>2021-08-16T22:55:24.146Z</time>
      </trkpt>
      <trkpt lat="41.58691" lon="43.05892">
        <ele>1061.662779</ele>
        <time>2021-08-16T22:55:36.101Z</time>
      </trkpt>
      <trkpt lat="41.58699" lon="43.05957">
        <ele>1062.02466</ele>
        <time>2021-08-16T22:55:49.681Z</time>
      </trkpt>
      <trkpt lat="41.58709" lon="43.0604">
        <ele>1063.696083</ele>
        <time>2021-08-16T22:56:10.050Z</time>
      </trkpt>
      <trkpt lat="41.58711" lon="43.06059">
        <ele>1064.507246</ele>
        <time>2021-08-16T22:56:17.056Z</time>
      </trkpt>
      <trkpt lat="41.58717" lon="43.0611">
        <ele>1066.670343</ele>
        <time>2021-08-16T22:56:34.826Z</time>
      </trkpt>
      <trkpt lat="41.58707" lon="43.0615">
        <ele>1068.453477</ele>
        <time>2021-08-16T22:56:51.948Z</time>
      </trkpt>
      <trkpt lat="41.58663" lon="43.06256">
        <ele>1073.856698</ele>
        <time>2021-08-16T22:57:47.536Z</time>
      </trkpt>
      <trkpt lat="41.58639" lon="43.06285">
        <ele>1076.193298</ele>
        <time>2021-08-16T22:58:06.371Z</time>
      </trkpt>
      <trkpt lat="41.58559" lon="43.06444">
        <ele>1086.406126</ele>
        <time>2021-08-16T22:59:27.466Z</time>
      </trkpt>
      <trkpt lat="41.58465" lon="43.06536">
        <ele>1095.01312</ele>
        <time>2021-08-16T23:00:37.780Z</time>
      </trkpt>
      <trkpt lat="41.58429" lon="43.06564">
        <ele>1098.12784</ele>
        <time>2021-08-16T23:01:02.850Z</time>
      </trkpt>
      <trkpt lat="41.58398" lon="43.06588">
        <ele>1100.615174</ele>
        <time>2021-08-16T23:01:23.706Z</time>
      </trkpt>
      <trkpt lat="41.58201" lon="43.06716">
        <ele>1115.694053</ele>
        <time>2021-08-16T23:03:27.453Z</time>
      </trkpt>
      <trkpt lat="41.58176" lon="43.06765">
        <ele>1118.637758</ele>
        <time>2021-08-16T23:03:51.311Z</time>
      </trkpt>
      <trkpt lat="41.58122" lon="43.06926">
        <ele>1127.625034</ele>
        <time>2021-08-16T23:05:05.261Z</time>
      </trkpt>
      <trkpt lat="41.5812" lon="43.0693">
        <ele>1127.844873</ele>
        <time>2021-08-16T23:05:07.096Z</time>
      </trkpt>
      <trkpt lat="41.58068" lon="43.07046">
        <ele>1134.831657</ele>
        <time>2021-08-16T23:06:06.284Z</time>
      </trkpt>
      <trkpt lat="41.58058" lon="43.07062">
        <ele>1135.79103</ele>
        <time>2021-08-16T23:06:15.622Z</time>
      </trkpt>
      <trkpt lat="41.58039" lon="43.07072">
        <ele>1136.836139</ele>
        <time>2021-08-16T23:06:26.686Z</time>
      </trkpt>
      <trkpt lat="41.57966" lon="43.07101">
        <ele>1140.743879</ele>
        <time>2021-08-16T23:07:05.975Z</time>
      </trkpt>
      <trkpt lat="41.57958" lon="43.07113">
        <ele>1141.345748</ele>
        <time>2021-08-16T23:07:11.509Z</time>
      </trkpt>
      <trkpt lat="41.57921" lon="43.07132">
        <ele>1143.349478</ele>
        <time>2021-08-16T23:07:28.404Z</time>
      </trkpt>
      <trkpt lat="41.57839" lon="43.07168">
        <ele>1145.540793</ele>
        <time>2021-08-16T23:07:59.729Z</time>
      </trkpt>
      <trkpt lat="41.57837" lon="43.0717">
        <ele>1145.587427</ele>
        <time>2021-08-16T23:08:00.980Z</time>
      </trkpt>
      <trkpt lat="41.57836" lon="43.07171">
        <ele>1145.591137</ele>
        <time>2021-08-16T23:08:01.051Z</time>
      </trkpt>
      <trkpt lat="41.57827" lon="43.07176">
        <ele>1145.738114</ele>
        <time>2021-08-16T23:08:03.751Z</time>
      </trkpt>
      <trkpt lat="41.57738" lon="43.07224">
        <ele>1147.162327</ele>
        <time>2021-08-16T23:08:28.316Z</time>
      </trkpt>
      <trkpt lat="41.57692" lon="43.07249">
        <ele>1147.240679</ele>
        <time>2021-08-16T23:08:39.903Z</time>
      </trkpt>
      <trkpt lat="41.57649" lon="43.07277">
        <ele>1147.170459</ele>
        <time>2021-08-16T23:08:50.041Z</time>
      </trkpt>
      <trkpt lat="41.57556" lon="43.07316">
        <ele>1147.19153</ele>
        <time>2021-08-16T23:09:09.494Z</time>
      </trkpt>
      <trkpt lat="41.5745" lon="43.07366">
        <ele>1150.120333</ele>
        <time>2021-08-16T23:09:45.813Z</time>
      </trkpt>
      <trkpt lat="41.57481" lon="43.0748">
        <ele>1153.673736</ele>
        <time>2021-08-16T23:10:26.699Z</time>
      </trkpt>
      <trkpt lat="41.57483" lon="43.07497">
        <ele>1154.518707</ele>
        <time>2021-08-16T23:10:32.979Z</time>
      </trkpt>
      <trkpt lat="41.57481" lon="43.07509">
        <ele>1155.1264</ele>
        <time>2021-08-16T23:10:37.849Z</time>
      </trkpt>
      <trkpt lat="41.57474" lon="43.07526">
        <ele>1156.086999</ele>
        <time>2021-08-16T23:10:46.681Z</time>
      </trkpt>
      <trkpt lat="41.57467" lon="43.07548">
        <ele>1157.266478</ele>
        <time>2021-08-16T23:10:56.983Z</time>
      </trkpt>
      <trkpt lat="41.57468" lon="43.07562">
        <ele>1157.960226</ele>
        <time>2021-08-16T23:11:03.795Z</time>
      </trkpt>
      <trkpt lat="41.57472" lon="43.07575">
        <ele>1158.6847</ele>
        <time>2021-08-16T23:11:11.287Z</time>
      </trkpt>
      <trkpt lat="41.57492" lon="43.07604">
        <ele>1160.603266</ele>
        <time>2021-08-16T23:11:29.644Z</time>
      </trkpt>
      <trkpt lat="41.57519" lon="43.07667">
        <ele>1163.956878</ele>
        <time>2021-08-16T23:12:01.402Z</time>
      </trkpt>
      <trkpt lat="41.57529" lon="43.07707">
        <ele>1165.196418</ele>
        <time>2021-08-16T23:12:17.648Z</time>
      </trkpt>
      <trkpt lat="41.5754" lon="43.07767">
        <ele>1167.02824</ele>
        <time>2021-08-16T23:12:39.597Z</time>
      </trkpt>
      <trkpt lat="41.5755" lon="43.07826">
        <ele>1168.786338</ele>
        <time>2021-08-16T23:12:57.152Z</time>
      </trkpt>
      <trkpt lat="41.57556" lon="43.07844">
        <ele>1169.366868</ele>
        <time>2021-08-16T23:13:01.798Z</time>
      </trkpt>
      <trkpt lat="41.57518" lon="43.07956">
        <ele>1170.459724</ele>
        <time>2021-08-16T23:13:25.899Z</time>
      </trkpt>
      <trkpt lat="41.57514" lon="43.08001">
        <ele>1170.347197</ele>
        <time>2021-08-16T23:13:33.846Z</time>
      </trkpt>
      <trkpt lat="41.57516" lon="43.0804">
        <ele>1170.248019</ele>
        <time>2021-08-16T23:13:39.639Z</time>
      </trkpt>
      <trkpt lat="41.57517" lon="43.08075">
        <ele>1170.160761</ele>
        <time>2021-08-16T23:13:44.759Z</time>
      </trkpt>
      <trkpt lat="41.5752" lon="43.08091">
        <ele>1170.11882</ele>
        <time>2021-08-16T23:13:47.088Z</time>
      </trkpt>
      <trkpt lat="41.57531" lon="43.08127">
        <ele>1169.805488</ele>
        <time>2021-08-16T23:13:52.418Z</time>
      </trkpt>
      <trkpt lat="41.57547" lon="43.0815">
        <ele>1169.233055</ele>
        <time>2021-08-16T23:13:57.531Z</time>
      </trkpt>
      <trkpt lat="41.57564" lon="43.08171">
        <ele>1168.654923</ele>
        <time>2021-08-16T23:14:01.372Z</time>
      </trkpt>
      <trkpt lat="41.57568" lon="43.08183">
        <ele>1168.403051</ele>
        <time>2021-08-16T23:14:04.578Z</time>
      </trkpt>
      <trkpt lat="41.57568" lon="43.08192">
        <ele>1168.247255</ele>
        <time>2021-08-16T23:14:05.463Z</time>
      </trkpt>
      <trkpt lat="41.57563" lon="43.08199">
        <ele>1168.070225</ele>
        <time>2021-08-16T23:14:06.608Z</time>
      </trkpt>
      <trkpt lat="41.57515" lon="43.08212">
        <ele>1166.836846</ele>
        <time>2021-08-16T23:14:15.255Z</time>
      </trkpt>
      <trkpt lat="41.57504" lon="43.08221">
        <ele>1166.533996</ele>
        <time>2021-08-16T23:14:17.668Z</time>
      </trkpt>
      <trkpt lat="41.57478" lon="43.0827">
        <ele>1165.564426</ele>
        <time>2021-08-16T23:14:25.659Z</time>
      </trkpt>
      <trkpt lat="41.57462" lon="43.08317">
        <ele>1165.372539</ele>
        <time>2021-08-16T23:14:32.509Z</time>
      </trkpt>
      <trkpt lat="41.57458" lon="43.08338">
        <ele>1165.2941</ele>
        <time>2021-08-16T23:14:35.380Z</time>
      </trkpt>
      <trkpt lat="41.57451" lon="43.08348">
        <ele>1165.24296</ele>
        <time>2021-08-16T23:14:37.487Z</time>
      </trkpt>
      <trkpt lat="41.57408" lon="43.08382">
        <ele>1164.99517</ele>
        <time>2021-08-16T23:14:47.503Z</time>
      </trkpt>
      <trkpt lat="41.57396" lon="43.08414">
        <ele>1164.864278</ele>
        <time>2021-08-16T23:14:54.590Z</time>
      </trkpt>
      <trkpt lat="41.57395" lon="43.08443">
        <ele>1164.755876</ele>
        <time>2021-08-16T23:15:00.302Z</time>
      </trkpt>
      <trkpt lat="41.57376" lon="43.08536">
        <ele>1167.596815</ele>
        <time>2021-08-16T23:15:27.992Z</time>
      </trkpt>
      <trkpt lat="41.57409" lon="43.08602">
        <ele>1170.315956</ele>
        <time>2021-08-16T23:15:58.392Z</time>
      </trkpt>
      <trkpt lat="41.57413" lon="43.08621">
        <ele>1170.982244</ele>
        <time>2021-08-16T23:16:05.771Z</time>
      </trkpt>
      <trkpt lat="41.57405" lon="43.08695">
        <ele>1173.654186</ele>
        <time>2021-08-16T23:16:35.049Z</time>
      </trkpt>
      <trkpt lat="41.57421" lon="43.08753">
        <ele>1176.107178</ele>
        <time>2021-08-16T23:16:58.497Z</time>
      </trkpt>
      <trkpt lat="41.57424" lon="43.08772">
        <ele>1176.867877</ele>
        <time>2021-08-16T23:17:05.563Z</time>
      </trkpt>
      <trkpt lat="41.57421" lon="43.08826">
        <ele>1179.004293</ele>
        <time>2021-08-16T23:17:24.647Z</time>
      </trkpt>
      <trkpt lat="41.57422" lon="43.08846">
        <ele>1179.810673</ele>
        <time>2021-08-16T23:17:32.191Z</time>
      </trkpt>
      <trkpt lat="41.57425" lon="43.08896">
        <ele>1181.814289</ele>
        <time>2021-08-16T23:17:49.965Z</time>
      </trkpt>
      <trkpt lat="41.57448" lon="43.08981">
        <ele>1185.290813</ele>
        <time>2021-08-16T23:18:21.540Z</time>
      </trkpt>
      <trkpt lat="41.57473" lon="43.09037">
        <ele>1187.769445</ele>
        <time>2021-08-16T23:18:43.871Z</time>
      </trkpt>
      <trkpt lat="41.5751" lon="43.09069">
        <ele>1190.030514</ele>
        <time>2021-08-16T23:19:04.558Z</time>
      </trkpt>
      <trkpt lat="41.57523" lon="43.09087">
        <ele>1191.016029</ele>
        <time>2021-08-16T23:19:14.093Z</time>
      </trkpt>
      <trkpt lat="41.57527" lon="43.09105">
        <ele>1191.753743</ele>
        <time>2021-08-16T23:19:21.113Z</time>
      </trkpt>
      <trkpt lat="41.57523" lon="43.09158">
        <ele>1194.555197</ele>
        <time>2021-08-16T23:19:41.856Z</time>
      </trkpt>
      <trkpt lat="41.57533" lon="43.0922">
        <ele>1197.937409</ele>
        <time>2021-08-16T23:20:08.497Z</time>
      </trkpt>
      <trkpt lat="41.57563" lon="43.09319">
        <ele>1203.672457</ele>
        <time>2021-08-16T23:20:57.578Z</time>
      </trkpt>
      <trkpt lat="41.57581" lon="43.09335">
        <ele>1205.525697</ele>
        <time>2021-08-16T23:21:11.438Z</time>
      </trkpt>
      <trkpt lat="41.57626" lon="43.09351">
        <ele>1210.221979</ele>
        <time>2021-08-16T23:21:42.223Z</time>
      </trkpt>
      <trkpt lat="41.57645" lon="43.09375">
        <ele>1212.955665</ele>
        <time>2021-08-16T23:22:01.084Z</time>
      </trkpt>
      <trkpt lat="41.5767" lon="43.09435">
        <ele>1218.141006</ele>
        <time>2021-08-16T23:22:39.541Z</time>
      </trkpt>
      <trkpt lat="41.57675" lon="43.09483">
        <ele>1221.879354</ele>
        <time>2021-08-16T23:23:09.184Z</time>
      </trkpt>
      <trkpt lat="41.57692" lon="43.09546">
        <ele>1227.836768</ele>
        <time>2021-08-16T23:23:51.082Z</time>
      </trkpt>
      <trkpt lat="41.57727" lon="43.09609">
        <ele>1235.089315</ele>
        <time>2021-08-16T23:24:41.887Z</time>
      </trkpt>
      <trkpt lat="41.5774" lon="43.09642">
        <ele>1238.478116</ele>
        <time>2021-08-16T23:25:05.460Z</time>
      </trkpt>
      <trkpt lat="41.5775" lon="43.09743">
        <ele>1247.2901</ele>
        <time>2021-08-16T23:26:09.295Z</time>
      </trkpt>
      <trkpt lat="41.5774" lon="43.09802">
        <ele>1251.806105</ele>
        <time>2021-08-16T23:26:45.259Z</time>
      </trkpt>
      <trkpt lat="41.57759" lon="43.09858">
        <ele>1256.313409</ele>
        <time>2021-08-16T23:27:17.772Z</time>
      </trkpt>
      <trkpt lat="41.57769" lon="43.09958">
        <ele>1263.455793</ele>
        <time>2021-08-16T23:28:05.562Z</time>
      </trkpt>
      <trkpt lat="41.5779" lon="43.1002">
        <ele>1266.952075</ele>
        <time>2021-08-16T23:28:35.696Z</time>
      </trkpt>
      <trkpt lat="41.57785" lon="43.1004">
        <ele>1268.043608</ele>
        <time>2021-08-16T23:28:45.018Z</time>
      </trkpt>
      <trkpt lat="41.57751" lon="43.10084">
        <ele>1271.26988</ele>
        <time>2021-08-16T23:29:12.123Z</time>
      </trkpt>
      <trkpt lat="41.57739" lon="43.10105">
        <ele>1272.621913</ele>
        <time>2021-08-16T23:29:22.826Z</time>
      </trkpt>
      <trkpt lat="41.57736" lon="43.10119">
        <ele>1273.360999</ele>
        <time>2021-08-16T23:29:28.540Z</time>
      </trkpt>
      <trkpt lat="41.5775" lon="43.10145">
        <ele>1274.98229</ele>
        <time>2021-08-16T23:29:40.228Z</time>
      </trkpt>
      <trkpt lat="41.57805" lon="43.10183">
        <ele>1278.22584</ele>
        <time>2021-08-16T23:30:09.471Z</time>
      </trkpt>
      <trkpt lat="41.57859" lon="43.10197">
        <ele>1281.145682</ele>
        <time>2021-08-16T23:30:36.560Z</time>
      </trkpt>
      <trkpt lat="41.57892" lon="43.10232">
        <ele>1283.341369</ele>
        <time>2021-08-16T23:30:57.335Z</time>
      </trkpt>
      <trkpt lat="41.57895" lon="43.10242">
        <ele>1283.758854</ele>
        <time>2021-08-16T23:31:01.181Z</time>
      </trkpt>
      <trkpt lat="41.57888" lon="43.10255">
        <ele>1284.375325</ele>
        <time>2021-08-16T23:31:06.801Z</time>
      </trkpt>
      <trkpt lat="41.57848" lon="43.10246">
        <ele>1286.736233</ele>
        <time>2021-08-16T23:31:25.243Z</time>
      </trkpt>
      <trkpt lat="41.57827" lon="43.10259">
        <ele>1288.139992</ele>
        <time>2021-08-16T23:31:36.056Z</time>
      </trkpt>
      <trkpt lat="41.57807" lon="43.10323">
        <ele>1291.206182</ele>
        <time>2021-08-16T23:32:01.482Z</time>
      </trkpt>
      <trkpt lat="41.57792" lon="43.10356">
        <ele>1292.876063</ele>
        <time>2021-08-16T23:32:17.008Z</time>
      </trkpt>
      <trkpt lat="41.57787" lon="43.10384">
        <ele>1294.176971</ele>
        <time>2021-08-16T23:32:29.913Z</time>
      </trkpt>
      <trkpt lat="41.57787" lon="43.10419">
        <ele>1295.955356</ele>
        <time>2021-08-16T23:32:45.538Z</time>
      </trkpt>
      <trkpt lat="41.57765" lon="43.10483">
        <ele>1300.292606</ele>
        <time>2021-08-16T23:33:18.345Z</time>
      </trkpt>
      <trkpt lat="41.57761" lon="43.10511">
        <ele>1302.04106</ele>
        <time>2021-08-16T23:33:31.691Z</time>
      </trkpt>
      <trkpt lat="41.57762" lon="43.10564">
        <ele>1305.309447</ele>
        <time>2021-08-16T23:33:56.963Z</time>
      </trkpt>
      <trkpt lat="41.57768" lon="43.10584">
        <ele>1306.684047</ele>
        <time>2021-08-16T23:34:07.932Z</time>
      </trkpt>
      <trkpt lat="41.57801" lon="43.10637">
        <ele>1310.840319</ele>
        <time>2021-08-16T23:34:41.998Z</time>
      </trkpt>
      <trkpt lat="41.57816" lon="43.10705">
        <ele>1315.197419</ele>
        <time>2021-08-16T23:35:17.978Z</time>
      </trkpt>
      <trkpt lat="41.57811" lon="43.10723">
        <ele>1316.407336</ele>
        <time>2021-08-16T23:35:27.570Z</time>
      </trkpt>
      <trkpt lat="41.57771" lon="43.108">
        <ele>1322.137547</ele>
        <time>2021-08-16T23:36:10.968Z</time>
      </trkpt>
      <trkpt lat="41.57765" lon="43.10821">
        <ele>1323.510702</ele>
        <time>2021-08-16T23:36:21.020Z</time>
      </trkpt>
      <trkpt lat="41.57773" lon="43.10909">
        <ele>1328.139003</ele>
        <time>2021-08-16T23:36:59.073Z</time>
      </trkpt>
      <trkpt lat="41.5776" lon="43.10978">
        <ele>1331.70873</ele>
        <time>2021-08-16T23:37:29.099Z</time>
      </trkpt>
      <trkpt lat="41.57749" lon="43.11015">
        <ele>1333.693473</ele>
        <time>2021-08-16T23:37:45.209Z</time>
      </trkpt>
      <trkpt lat="41.57748" lon="43.11045">
        <ele>1335.249692</ele>
        <time>2021-08-16T23:37:57.425Z</time>
      </trkpt>
      <trkpt lat="41.57787" lon="43.11141">
        <ele>1340.479971</ele>
        <time>2021-08-16T23:38:40.497Z</time>
      </trkpt>
      <trkpt lat="41.57793" lon="43.11235">
        <ele>1344.881989</ele>
        <time>2021-08-16T23:39:18.629Z</time>
      </trkpt>
      <trkpt lat="41.57807" lon="43.11267">
        <ele>1346.625939</ele>
        <time>2021-08-16T23:39:33.895Z</time>
      </trkpt>
      <trkpt lat="41.57823" lon="43.11288">
        <ele>1348.0495</ele>
        <time>2021-08-16T23:39:46.217Z</time>
      </trkpt>
      <trkpt lat="41.57824" lon="43.11309">
        <ele>1348.971112</ele>
        <time>2021-08-16T23:39:54.363Z</time>
      </trkpt>
      <trkpt lat="41.57797" lon="43.11339">
        <ele>1351.077625</ele>
        <time>2021-08-16T23:40:12.773Z</time>
      </trkpt>
      <trkpt lat="41.57781" lon="43.11379">
        <ele>1353.138313</ele>
        <time>2021-08-16T23:40:30.796Z</time>
      </trkpt>
      <trkpt lat="41.57788" lon="43.11414">
        <ele>1354.765907</ele>
        <time>2021-08-16T23:40:45.146Z</time>
      </trkpt>
      <trkpt lat="41.57821" lon="43.11471">
        <ele>1358.030949</ele>
        <time>2021-08-16T23:41:13.522Z</time>
      </trkpt>
      <trkpt lat="41.57807" lon="43.11589">
        <ele>1362.825527</ele>
        <time>2021-08-16T23:41:57.967Z</time>
      </trkpt>
      <trkpt lat="41.57792" lon="43.1166">
        <ele>1365.734389</ele>
        <time>2021-08-16T23:42:24.135Z</time>
      </trkpt>
      <trkpt lat="41.57795" lon="43.117">
        <ele>1367.289367</ele>
        <time>2021-08-16T23:42:38.186Z</time>
      </trkpt>
      <trkpt lat="41.57807" lon="43.11732">
        <ele>1368.670958</ele>
        <time>2021-08-16T23:42:51.065Z</time>
      </trkpt>
      <trkpt lat="41.57822" lon="43.11756">
        <ele>1369.798149</ele>
        <time>2021-08-16T23:43:02.118Z</time>
      </trkpt>
      <trkpt lat="41.57868" lon="43.11793">
        <ele>1372.349976</ele>
        <time>2021-08-16T23:43:26.586Z</time>
      </trkpt>
      <trkpt lat="41.57887" lon="43.11827">
        <ele>1373.88698</ele>
        <time>2021-08-16T23:43:41.326Z</time>
      </trkpt>
      <trkpt lat="41.57894" lon="43.1187">
        <ele>1375.430307</ele>
        <time>2021-08-16T23:43:56.238Z</time>
      </trkpt>
      <trkpt lat="41.57885" lon="43.11944">
        <ele>1378.121549</ele>
        <time>2021-08-16T23:44:22.125Z</time>
      </trkpt>
      <trkpt lat="41.5789" lon="43.1198">
        <ele>1379.450002</ele>
        <time>2021-08-16T23:44:34.898Z</time>
      </trkpt>
      <trkpt lat="41.5788" lon="43.12034">
        <ele>1381.470479</ele>
        <time>2021-08-16T23:44:54.387Z</time>
      </trkpt>
      <trkpt lat="41.57875" lon="43.121">
        <ele>1383.863494</ele>
        <time>2021-08-16T23:45:17.328Z</time>
      </trkpt>
      <trkpt lat="41.57844" lon="43.12208">
        <ele>1387.983591</ele>
        <time>2021-08-16T23:45:58.178Z</time>
      </trkpt>
      <trkpt lat="41.57845" lon="43.12402">
        <ele>1394.687621</ele>
        <time>2021-08-16T23:47:04.287Z</time>
      </trkpt>
      <trkpt lat="41.57841" lon="43.12436">
        <ele>1395.68328</ele>
        <time>2021-08-16T23:47:15.213Z</time>
      </trkpt>
      <trkpt lat="41.57828" lon="43.12482">
        <ele>1397.150403</ele>
        <time>2021-08-16T23:47:31.007Z</time>
      </trkpt>
      <trkpt lat="41.57816" lon="43.12561">
        <ele>1399.553824</ele>
        <time>2021-08-16T23:47:56.111Z</time>
      </trkpt>
      <trkpt lat="41.57746" lon="43.12761">
        <ele>1405.709513</ele>
        <time>2021-08-16T23:49:00.825Z</time>
      </trkpt>
      <trkpt lat="41.57741" lon="43.12794">
        <ele>1406.638209</ele>
        <time>2021-08-16T23:49:11.206Z</time>
      </trkpt>
      <trkpt lat="41.57742" lon="43.12814">
        <ele>1407.173041</ele>
        <time>2021-08-16T23:49:17.812Z</time>
      </trkpt>
      <trkpt lat="41.57748" lon="43.12854">
        <ele>1408.701062</ele>
        <time>2021-08-16T23:49:31.245Z</time>
      </trkpt>
      <trkpt lat="41.57749" lon="43.12868">
        <ele>1409.304468</ele>
        <time>2021-08-16T23:49:35.149Z</time>
      </trkpt>
      <trkpt lat="41.57754" lon="43.12888">
        <ele>1410.240343</ele>
        <time>2021-08-16T23:49:42.021Z</time>
      </trkpt>
      <trkpt lat="41.57763" lon="43.129">
        <ele>1410.97959</ele>
        <time>2021-08-16T23:49:47.800Z</time>
      </trkpt>
      <trkpt lat="41.57789" lon="43.12919">
        <ele>1412.742374</ele>
        <time>2021-08-16T23:50:04.445Z</time>
      </trkpt>
      <trkpt lat="41.57804" lon="43.12933">
        <ele>1413.834054</ele>
        <time>2021-08-16T23:50:14.832Z</time>
      </trkpt>
      <trkpt lat="41.57815" lon="43.12949">
        <ele>1414.795153</ele>
        <time>2021-08-16T23:50:24.356Z</time>
      </trkpt>
      <trkpt lat="41.57824" lon="43.12995">
        <ele>1416.880479</ele>
        <time>2021-08-16T23:50:44.238Z</time>
      </trkpt>
      <trkpt lat="41.57829" lon="43.13061">
        <ele>1420.088187</ele>
        <time>2021-08-16T23:51:10.624Z</time>
      </trkpt>
      <trkpt lat="41.57833" lon="43.13069">
        <ele>1420.635752</ele>
        <time>2021-08-16T23:51:15.758Z</time>
      </trkpt>
      <trkpt lat="41.57842" lon="43.13088">
        <ele>1421.782468</ele>
        <time>2021-08-16T23:51:25.069Z</time>
      </trkpt>
      <trkpt lat="41.57846" lon="43.131">
        <ele>1422.511945</ele>
        <time>2021-08-16T23:51:30.428Z</time>
      </trkpt>
      <trkpt lat="41.57849" lon="43.13122">
        <ele>1423.699077</ele>
        <time>2021-08-16T23:51:42.778Z</time>
      </trkpt>
      <trkpt lat="41.57835" lon="43.13173">
        <ele>1426.573909</ele>
        <time>2021-08-16T23:52:06.494Z</time>
      </trkpt>
      <trkpt lat="41.57825" lon="43.13288">
        <ele>1432.26</ele>
        <time>2021-08-16T23:52:55.356Z</time>
      </trkpt>
      <trkpt lat="41.57826" lon="43.133">
        <ele>1432.752292</ele>
        <time>2021-08-16T23:52:59.927Z</time>
      </trkpt>
      <trkpt lat="41.57829" lon="43.13309">
        <ele>1433.13958</ele>
        <time>2021-08-16T23:53:04.428Z</time>
      </trkpt>
      <trkpt lat="41.57837" lon="43.1335">
        <ele>1434.887179</ele>
        <time>2021-08-16T23:53:19.269Z</time>
      </trkpt>
      <trkpt lat="41.57839" lon="43.13446">
        <ele>1438.761164</ele>
        <time>2021-08-16T23:53:53.282Z</time>
      </trkpt>
      <trkpt lat="41.57842" lon="43.13476">
        <ele>1439.986617</ele>
        <time>2021-08-16T23:54:03.473Z</time>
      </trkpt>
      <trkpt lat="41.57842" lon="43.13498">
        <ele>1440.854848</ele>
        <time>2021-08-16T23:54:12.311Z</time>
      </trkpt>
      <trkpt lat="41.5781" lon="43.13598">
        <ele>1444.34329</ele>
        <time>2021-08-16T23:54:48.000Z</time>
      </trkpt>
      <trkpt lat="41.57786" lon="43.13701">
        <ele>1447.84277</ele>
        <time>2021-08-16T23:55:22.634Z</time>
      </trkpt>
      <trkpt lat="41.57783" lon="43.13721">
        <ele>1448.47736</ele>
        <time>2021-08-16T23:55:28.122Z</time>
      </trkpt>
      <trkpt lat="41.57782" lon="43.13727">
        <ele>1448.733267</ele>
        <time>2021-08-16T23:55:30.590Z</time>
      </trkpt>
      <trkpt lat="41.57799" lon="43.13823">
        <ele>1452.693076</ele>
        <time>2021-08-16T23:56:02.405Z</time>
      </trkpt>
      <trkpt lat="41.57824" lon="43.13897">
        <ele>1455.967159</ele>
        <time>2021-08-16T23:56:34.091Z</time>
      </trkpt>
      <trkpt lat="41.57835" lon="43.13959">
        <ele>1458.695078</ele>
        <time>2021-08-16T23:57:01.018Z</time>
      </trkpt>
      <trkpt lat="41.57835" lon="43.13989">
        <ele>1460.473412</ele>
        <time>2021-08-16T23:57:13.306Z</time>
      </trkpt>
      <trkpt lat="41.57836" lon="43.14014">
        <ele>1461.911012</ele>
        <time>2021-08-16T23:57:24.614Z</time>
      </trkpt>
      <trkpt lat="41.57838" lon="43.14055">
        <ele>1464.314739</ele>
        <time>2021-08-16T23:57:42.153Z</time>
      </trkpt>
      <trkpt lat="41.57831" lon="43.141">
        <ele>1466.946636</ele>
        <time>2021-08-16T23:58:04.537Z</time>
      </trkpt>
      <trkpt lat="41.57812" lon="43.14125">
        <ele>1469.019207</ele>
        <time>2021-08-16T23:58:22.807Z</time>
      </trkpt>
      <trkpt lat="41.57774" lon="43.14161">
        <ele>1472.570274</ele>
        <time>2021-08-16T23:58:53.879Z</time>
      </trkpt>
      <trkpt lat="41.57761" lon="43.14181">
        <ele>1473.72272</ele>
        <time>2021-08-16T23:59:06.612Z</time>
      </trkpt>
      <trkpt lat="41.57756" lon="43.14199">
        <ele>1474.562519</ele>
        <time>2021-08-16T23:59:13.002Z</time>
      </trkpt>
      <trkpt lat="41.57755" lon="43.14215">
        <ele>1475.307274</ele>
        <time>2021-08-16T23:59:20.322Z</time>
      </trkpt>
      <trkpt lat="41.57758" lon="43.14225">
        <ele>1475.781435</ele>
        <time>2021-08-16T23:59:25.675Z</time>
      </trkpt>
      <trkpt lat="41.57781" lon="43.14227">
        <ele>1477.14087</ele>
        <time>2021-08-16T23:59:36.725Z</time>
      </trkpt>
      <trkpt lat="41.57951" lon="43.1415">
        <ele>1485.436447</ele>
        <time>2021-08-17T00:00:59.730Z</time>
      </trkpt>
      <trkpt lat="41.57983" lon="43.14154">
        <ele>1486.456792</ele>
        <time>2021-08-17T00:01:11.059Z</time>
      </trkpt>
      <trkpt lat="41.57996" lon="43.14169">
        <ele>1486.975192</ele>
        <time>2021-08-17T00:01:16.654Z</time>
      </trkpt>
      <trkpt lat="41.58009" lon="43.14211">
        <ele>1488.039305</ele>
        <time>2021-08-17T00:01:27.050Z</time>
      </trkpt>
      <trkpt lat="41.58001" lon="43.14297">
        <ele>1488.237603</ele>
        <time>2021-08-17T00:01:43.504Z</time>
      </trkpt>
      <trkpt lat="41.58001" lon="43.14357">
        <ele>1488.066217</ele>
        <time>2021-08-17T00:01:52.904Z</time>
      </trkpt>
      <trkpt lat="41.58007" lon="43.144">
        <ele>1487.938513</ele>
        <time>2021-08-17T00:01:59.666Z</time>
      </trkpt>
      <trkpt lat="41.58007" lon="43.14406">
        <ele>1487.921809</ele>
        <time>2021-08-17T00:02:00.396Z</time>
      </trkpt>
      <trkpt lat="41.58024" lon="43.14514">
        <ele>1487.251824</ele>
        <time>2021-08-17T00:02:16.285Z</time>
      </trkpt>
      <trkpt lat="41.58026" lon="43.14537">
        <ele>1487.010769</ele>
        <time>2021-08-17T00:02:19.658Z</time>
      </trkpt>
      <trkpt lat="41.5803" lon="43.14568">
        <ele>1486.694889</ele>
        <time>2021-08-17T00:02:24.036Z</time>
      </trkpt>
      <trkpt lat="41.5803" lon="43.14591">
        <ele>1486.463518</ele>
        <time>2021-08-17T00:02:27.270Z</time>
      </trkpt>
      <trkpt lat="41.58031" lon="43.14608">
        <ele>1486.285351</ele>
        <time>2021-08-17T00:02:29.734Z</time>
      </trkpt>
      <trkpt lat="41.5803" lon="43.14715">
        <ele>1485.229799</ele>
        <time>2021-08-17T00:02:45.407Z</time>
      </trkpt>
      <trkpt lat="41.58029" lon="43.14724">
        <ele>1485.15858</ele>
        <time>2021-08-17T00:02:46.798Z</time>
      </trkpt>
      <trkpt lat="41.58028" lon="43.14741">
        <ele>1485.034051</ele>
        <time>2021-08-17T00:02:49.465Z</time>
      </trkpt>
      <trkpt lat="41.58026" lon="43.14781">
        <ele>1484.742869</ele>
        <time>2021-08-17T00:02:55.280Z</time>
      </trkpt>
      <trkpt lat="41.58024" lon="43.14823">
        <ele>1484.433277</ele>
        <time>2021-08-17T00:03:01.484Z</time>
      </trkpt>
      <trkpt lat="41.58021" lon="43.14888">
        <ele>1483.96284</ele>
        <time>2021-08-17T00:03:11.222Z</time>
      </trkpt>
      <trkpt lat="41.58021" lon="43.14905">
        <ele>1483.837281</ele>
        <time>2021-08-17T00:03:13.661Z</time>
      </trkpt>
      <trkpt lat="41.58022" lon="43.14956">
        <ele>1483.519918</ele>
        <time>2021-08-17T00:03:21.503Z</time>
      </trkpt>
      <trkpt lat="41.58026" lon="43.1499">
        <ele>1483.447226</ele>
        <time>2021-08-17T00:03:26.901Z</time>
      </trkpt>
      <trkpt lat="41.58032" lon="43.15032">
        <ele>1483.359334</ele>
        <time>2021-08-17T00:03:33.474Z</time>
      </trkpt>
      <trkpt lat="41.58032" lon="43.15048">
        <ele>1483.324556</ele>
        <time>2021-08-17T00:03:35.868Z</time>
      </trkpt>
      <trkpt lat="41.58032" lon="43.15057">
        <ele>1483.305467</ele>
        <time>2021-08-17T00:03:37.593Z</time>
      </trkpt>
      <trkpt lat="41.58012" lon="43.15139">
        <ele>1483.125344</ele>
        <time>2021-08-17T00:03:51.746Z</time>
      </trkpt>
      <trkpt lat="41.57981" lon="43.15232">
        <ele>1482.955226</ele>
        <time>2021-08-17T00:04:09.700Z</time>
      </trkpt>
      <trkpt lat="41.57973" lon="43.1526">
        <ele>1482.913638</ele>
        <time>2021-08-17T00:04:15.621Z</time>
      </trkpt>
      <trkpt lat="41.57969" lon="43.15291">
        <ele>1482.870755</ele>
        <time>2021-08-17T00:04:20.720Z</time>
      </trkpt>
      <trkpt lat="41.57966" lon="43.1531">
        <ele>1482.844256</ele>
        <time>2021-08-17T00:04:24.136Z</time>
      </trkpt>
      <trkpt lat="41.57962" lon="43.15345">
        <ele>1482.794859</ele>
        <time>2021-08-17T00:04:29.756Z</time>
      </trkpt>
      <trkpt lat="41.57965" lon="43.15371">
        <ele>1482.758764</ele>
        <time>2021-08-17T00:04:33.708Z</time>
      </trkpt>
      <trkpt lat="41.57973" lon="43.15407">
        <ele>1482.702386</ele>
        <time>2021-08-17T00:04:39.732Z</time>
      </trkpt>
      <trkpt lat="41.57975" lon="43.15414">
        <ele>1482.613674</ele>
        <time>2021-08-17T00:04:40.688Z</time>
      </trkpt>
      <trkpt lat="41.57987" lon="43.15462">
        <ele>1481.982113</ele>
        <time>2021-08-17T00:04:48.261Z</time>
      </trkpt>
      <trkpt lat="41.57998" lon="43.15509">
        <ele>1481.354387</ele>
        <time>2021-08-17T00:04:55.307Z</time>
      </trkpt>
      <trkpt lat="41.58011" lon="43.15555">
        <ele>1480.747781</ele>
        <time>2021-08-17T00:05:01.937Z</time>
      </trkpt>
      <trkpt lat="41.5802" lon="43.156">
        <ele>1480.161628</ele>
        <time>2021-08-17T00:05:08.351Z</time>
      </trkpt>
      <trkpt lat="41.58023" lon="43.15668">
        <ele>1479.106559</ele>
        <time>2021-08-17T00:05:17.867Z</time>
      </trkpt>
      <trkpt lat="41.58023" lon="43.15673">
        <ele>1479.017199</ele>
        <time>2021-08-17T00:05:18.448Z</time>
      </trkpt>
      <trkpt lat="41.58018" lon="43.15726">
        <ele>1478.010441</ele>
        <time>2021-08-17T00:05:25.578Z</time>
      </trkpt>
      <trkpt lat="41.58011" lon="43.15828">
        <ele>1476.102406</ele>
        <time>2021-08-17T00:05:39.147Z</time>
      </trkpt>
      <trkpt lat="41.58003" lon="43.15881">
        <ele>1475.059058</ele>
        <time>2021-08-17T00:05:46.306Z</time>
      </trkpt>
      <trkpt lat="41.57999" lon="43.15902">
        <ele>1474.566495</ele>
        <time>2021-08-17T00:05:49.059Z</time>
      </trkpt>
      <trkpt lat="41.57996" lon="43.1596">
        <ele>1473.250297</ele>
        <time>2021-08-17T00:05:56.681Z</time>
      </trkpt>
      <trkpt lat="41.58002" lon="43.1614">
        <ele>1468.926926</ele>
        <time>2021-08-17T00:06:19.880Z</time>
      </trkpt>
      <trkpt lat="41.57978" lon="43.16274">
        <ele>1464.666343</ele>
        <time>2021-08-17T00:06:37.036Z</time>
      </trkpt>
      <trkpt lat="41.57976" lon="43.16313">
        <ele>1463.451301</ele>
        <time>2021-08-17T00:06:41.791Z</time>
      </trkpt>
      <trkpt lat="41.57986" lon="43.16476">
        <ele>1456.328797</ele>
        <time>2021-08-17T00:07:01.098Z</time>
      </trkpt>
      <trkpt lat="41.58005" lon="43.16672">
        <ele>1445.9154</ele>
        <time>2021-08-17T00:07:23.019Z</time>
      </trkpt>
      <trkpt lat="41.58005" lon="43.16713">
        <ele>1443.458254</ele>
        <time>2021-08-17T00:07:27.543Z</time>
      </trkpt>
      <trkpt lat="41.58007" lon="43.16731">
        <ele>1442.374738</ele>
        <time>2021-08-17T00:07:29.456Z</time>
      </trkpt>
      <trkpt lat="41.58023" lon="43.1676">
        <ele>1440.219782</ele>
        <time>2021-08-17T00:07:33.442Z</time>
      </trkpt>
      <trkpt lat="41.58028" lon="43.16778">
        <ele>1439.046876</ele>
        <time>2021-08-17T00:07:35.545Z</time>
      </trkpt>
      <trkpt lat="41.58026" lon="43.16796">
        <ele>1437.937656</ele>
        <time>2021-08-17T00:07:37.602Z</time>
      </trkpt>
      <trkpt lat="41.57995" lon="43.16859">
        <ele>1433.264027</ele>
        <time>2021-08-17T00:07:45.758Z</time>
      </trkpt>
      <trkpt lat="41.57969" lon="43.16969">
        <ele>1426.000484</ele>
        <time>2021-08-17T00:07:58.456Z</time>
      </trkpt>
      <trkpt lat="41.57967" lon="43.17029">
        <ele>1422.215286</ele>
        <time>2021-08-17T00:08:05.046Z</time>
      </trkpt>
      <trkpt lat="41.57974" lon="43.17056">
        <ele>1420.329018</ele>
        <time>2021-08-17T00:08:08.112Z</time>
      </trkpt>
      <trkpt lat="41.5801" lon="43.17169">
        <ele>1411.575957</ele>
        <time>2021-08-17T00:08:21.308Z</time>
      </trkpt>
      <trkpt lat="41.58025" lon="43.172">
        <ele>1408.945155</ele>
        <time>2021-08-17T00:08:25.265Z</time>
      </trkpt>
      <trkpt lat="41.58067" lon="43.17263">
        <ele>1402.919399</ele>
        <time>2021-08-17T00:08:34.233Z</time>
      </trkpt>
      <trkpt lat="41.58081" lon="43.1729">
        <ele>1400.573747</ele>
        <time>2021-08-17T00:08:37.650Z</time>
      </trkpt>
      <trkpt lat="41.58087" lon="43.17336">
        <ele>1397.154125</ele>
        <time>2021-08-17T00:08:42.639Z</time>
      </trkpt>
      <trkpt lat="41.58087" lon="43.17407">
        <ele>1391.946719</ele>
        <time>2021-08-17T00:08:50.235Z</time>
      </trkpt>
      <trkpt lat="41.58093" lon="43.17421">
        <ele>1390.776268</ele>
        <time>2021-08-17T00:08:51.954Z</time>
      </trkpt>
      <trkpt lat="41.58105" lon="43.17425">
        <ele>1389.52724</ele>
        <time>2021-08-17T00:08:53.789Z</time>
      </trkpt>
      <trkpt lat="41.58115" lon="43.17422">
        <ele>1388.5152</ele>
        <time>2021-08-17T00:08:55.266Z</time>
      </trkpt>
      <trkpt lat="41.5819" lon="43.17376">
        <ele>1381.397303</ele>
        <time>2021-08-17T00:09:07.097Z</time>
      </trkpt>
      <trkpt lat="41.58206" lon="43.17387">
        <ele>1379.941095</ele>
        <time>2021-08-17T00:09:09.618Z</time>
      </trkpt>
      <trkpt lat="41.58207" lon="43.17405">
        <ele>1378.797582</ele>
        <time>2021-08-17T00:09:11.611Z</time>
      </trkpt>
      <trkpt lat="41.58183" lon="43.17462">
        <ele>1374.70072</ele>
        <time>2021-08-17T00:09:18.807Z</time>
      </trkpt>
      <trkpt lat="41.58167" lon="43.17481">
        <ele>1372.92368</ele>
        <time>2021-08-17T00:09:21.964Z</time>
      </trkpt>
      <trkpt lat="41.58134" lon="43.17498">
        <ele>1370.361552</ele>
        <time>2021-08-17T00:09:27.248Z</time>
      </trkpt>
      <trkpt lat="41.58103" lon="43.17531">
        <ele>1367.806143</ele>
        <time>2021-08-17T00:09:33.362Z</time>
      </trkpt>
      <trkpt lat="41.58079" lon="43.17582">
        <ele>1364.957126</ele>
        <time>2021-08-17T00:09:40.252Z</time>
      </trkpt>
      <trkpt lat="41.58013" lon="43.17695">
        <ele>1358.14122</ele>
        <time>2021-08-17T00:09:56.772Z</time>
      </trkpt>
      <trkpt lat="41.57976" lon="43.17733">
        <ele>1355.115001</ele>
        <time>2021-08-17T00:10:04.040Z</time>
      </trkpt>
      <trkpt lat="41.57966" lon="43.1775">
        <ele>1354.102958</ele>
        <time>2021-08-17T00:10:06.460Z</time>
      </trkpt>
      <trkpt lat="41.57961" lon="43.17769">
        <ele>1353.12693</ele>
        <time>2021-08-17T00:10:08.772Z</time>
      </trkpt>
      <trkpt lat="41.57957" lon="43.17852">
        <ele>1349.083164</ele>
        <time>2021-08-17T00:10:18.215Z</time>
      </trkpt>
      <trkpt lat="41.57946" lon="43.17921">
        <ele>1344.736026</ele>
        <time>2021-08-17T00:10:25.976Z</time>
      </trkpt>
      <trkpt lat="41.57934" lon="43.17958">
        <ele>1342.153821</ele>
        <time>2021-08-17T00:10:30.390Z</time>
      </trkpt>
      <trkpt lat="41.57902" lon="43.18021">
        <ele>1337.198192</ele>
        <time>2021-08-17T00:10:38.781Z</time>
      </trkpt>
      <trkpt lat="41.5787" lon="43.18132">
        <ele>1328.8385</ele>
        <time>2021-08-17T00:10:51.398Z</time>
      </trkpt>
      <trkpt lat="41.57843" lon="43.182">
        <ele>1322.836753</ele>
        <time>2021-08-17T00:10:59.529Z</time>
      </trkpt>
      <trkpt lat="41.57814" lon="43.1831">
        <ele>1313.830831</ele>
        <time>2021-08-17T00:11:11.779Z</time>
      </trkpt>
      <trkpt lat="41.5781" lon="43.18337">
        <ele>1311.916504</ele>
        <time>2021-08-17T00:11:14.689Z</time>
      </trkpt>
      <trkpt lat="41.57813" lon="43.18361">
        <ele>1310.198772</ele>
        <time>2021-08-17T00:11:17.292Z</time>
      </trkpt>
      <trkpt lat="41.57839" lon="43.18433">
        <ele>1304.661446</ele>
        <time>2021-08-17T00:11:25.750Z</time>
      </trkpt>
      <trkpt lat="41.57882" lon="43.18605">
        <ele>1294.925492</ele>
        <time>2021-08-17T00:11:45.875Z</time>
      </trkpt>
      <trkpt lat="41.57882" lon="43.18684">
        <ele>1292.242971</ele>
        <time>2021-08-17T00:11:55.395Z</time>
      </trkpt>
      <trkpt lat="41.57892" lon="43.18831">
        <ele>1289.932715</ele>
        <time>2021-08-17T00:12:16.904Z</time>
      </trkpt>
      <trkpt lat="41.57892" lon="43.18844">
        <ele>1290.009596</ele>
        <time>2021-08-17T00:12:19.368Z</time>
      </trkpt>
      <trkpt lat="41.5789" lon="43.18879">
        <ele>1290.219441</ele>
        <time>2021-08-17T00:12:26.702Z</time>
      </trkpt>
      <trkpt lat="41.57888" lon="43.18923">
        <ele>1290.481759</ele>
        <time>2021-08-17T00:12:36.945Z</time>
      </trkpt>
      <trkpt lat="41.57892" lon="43.19025">
        <ele>1291.042297</ele>
        <time>2021-08-17T00:13:03.300Z</time>
      </trkpt>
      <trkpt lat="41.57882" lon="43.19097">
        <ele>1291.317569</ele>
        <time>2021-08-17T00:13:19.183Z</time>
      </trkpt>
      <trkpt lat="41.57881" lon="43.19139">
        <ele>1291.472809</ele>
        <time>2021-08-17T00:13:26.417Z</time>
      </trkpt>
      <trkpt lat="41.57883" lon="43.19161">
        <ele>1291.553879</ele>
        <time>2021-08-17T00:13:31.046Z</time>
      </trkpt>
      <trkpt lat="41.57887" lon="43.19199">
        <ele>1291.699104</ele>
        <time>2021-08-17T00:13:36.964Z</time>
      </trkpt>
      <trkpt lat="41.57888" lon="43.19224">
        <ele>1291.792407</ele>
        <time>2021-08-17T00:13:40.795Z</time>
      </trkpt>
      <trkpt lat="41.57882" lon="43.19247">
        <ele>1291.809711</ele>
        <time>2021-08-17T00:13:44.599Z</time>
      </trkpt>
      <trkpt lat="41.5787" lon="43.19266">
        <ele>1291.611889</ele>
        <time>2021-08-17T00:13:48.151Z</time>
      </trkpt>
      <trkpt lat="41.57863" lon="43.19276">
        <ele>1291.502617</ele>
        <time>2021-08-17T00:13:50.014Z</time>
      </trkpt>
      <trkpt lat="41.57819" lon="43.19344">
        <ele>1290.776219</ele>
        <time>2021-08-17T00:14:02.903Z</time>
      </trkpt>
      <trkpt lat="41.57737" lon="43.19422">
        <ele>1290.082696</ele>
        <time>2021-08-17T00:14:22.540Z</time>
      </trkpt>
      <trkpt lat="41.57647" lon="43.19542">
        <ele>1291.034025</ele>
        <time>2021-08-17T00:14:56.642Z</time>
      </trkpt>
      <trkpt lat="41.57614" lon="43.19634">
        <ele>1292.602309</ele>
        <time>2021-08-17T00:15:20.852Z</time>
      </trkpt>
      <trkpt lat="41.57575" lon="43.19722">
        <ele>1294.830723</ele>
        <time>2021-08-17T00:15:49.039Z</time>
      </trkpt>
      <trkpt lat="41.57572" lon="43.19739">
        <ele>1295.218098</ele>
        <time>2021-08-17T00:15:54.360Z</time>
      </trkpt>
      <trkpt lat="41.57581" lon="43.1977">
        <ele>1295.945562</ele>
        <time>2021-08-17T00:16:04.525Z</time>
      </trkpt>
      <trkpt lat="41.57604" lon="43.19779">
        <ele>1296.692488</ele>
        <time>2021-08-17T00:16:14.487Z</time>
      </trkpt>
      <trkpt lat="41.57655" lon="43.19778">
        <ele>1298.947332</ele>
        <time>2021-08-17T00:16:36.597Z</time>
      </trkpt>
      <trkpt lat="41.57728" lon="43.19792">
        <ele>1302.169085</ele>
        <time>2021-08-17T00:17:09.923Z</time>
      </trkpt>
      <trkpt lat="41.57842" lon="43.19776">
        <ele>1306.87803</ele>
        <time>2021-08-17T00:18:01.586Z</time>
      </trkpt>
      <trkpt lat="41.57868" lon="43.19778">
        <ele>1307.893912</ele>
        <time>2021-08-17T00:18:12.621Z</time>
      </trkpt>
      <trkpt lat="41.57876" lon="43.19791">
        <ele>1308.390976</ele>
        <time>2021-08-17T00:18:18.023Z</time>
      </trkpt>
      <trkpt lat="41.57895" lon="43.19847">
        <ele>1310.184453</ele>
        <time>2021-08-17T00:18:36.524Z</time>
      </trkpt>
      <trkpt lat="41.57912" lon="43.19865">
        <ele>1311.012574</ele>
        <time>2021-08-17T00:18:44.740Z</time>
      </trkpt>
      <trkpt lat="41.57967" lon="43.199">
        <ele>1312.974427</ele>
        <time>2021-08-17T00:19:07.309Z</time>
      </trkpt>
      <trkpt lat="41.58025" lon="43.19945">
        <ele>1315.002522</ele>
        <time>2021-08-17T00:19:31.595Z</time>
      </trkpt>
      <trkpt lat="41.58066" lon="43.19968">
        <ele>1316.339733</ele>
        <time>2021-08-17T00:19:47.963Z</time>
      </trkpt>
      <trkpt lat="41.58135" lon="43.19991">
        <ele>1319.105308</ele>
        <time>2021-08-17T00:20:15.895Z</time>
      </trkpt>
      <trkpt lat="41.58148" lon="43.2">
        <ele>1319.713996</ele>
        <time>2021-08-17T00:20:21.995Z</time>
      </trkpt>
      <trkpt lat="41.58157" lon="43.20026">
        <ele>1320.600667</ele>
        <time>2021-08-17T00:20:30.877Z</time>
      </trkpt>
      <trkpt lat="41.5814" lon="43.20117">
        <ele>1323.50453</ele>
        <time>2021-08-17T00:21:01.795Z</time>
      </trkpt>
      <trkpt lat="41.58121" lon="43.20142">
        <ele>1324.713099</ele>
        <time>2021-08-17T00:21:13.591Z</time>
      </trkpt>
      <trkpt lat="41.58091" lon="43.20157">
        <ele>1326.678601</ele>
        <time>2021-08-17T00:21:31.272Z</time>
      </trkpt>
      <trkpt lat="41.58031" lon="43.20217">
        <ele>1331.116393</ele>
        <time>2021-08-17T00:22:10.851Z</time>
      </trkpt>
      <trkpt lat="41.58005" lon="43.20257">
        <ele>1333.500433</ele>
        <time>2021-08-17T00:22:31.937Z</time>
      </trkpt>
      <trkpt lat="41.57999" lon="43.20271">
        <ele>1334.213304</ele>
        <time>2021-08-17T00:22:37.860Z</time>
      </trkpt>
      <trkpt lat="41.57995" lon="43.2029">
        <ele>1335.103098</ele>
        <time>2021-08-17T00:22:47.168Z</time>
      </trkpt>
      <trkpt lat="41.57956" lon="43.20424">
        <ele>1340.889205</ele>
        <time>2021-08-17T00:23:44.216Z</time>
      </trkpt>
      <trkpt lat="41.57949" lon="43.20434">
        <ele>1341.438188</ele>
        <time>2021-08-17T00:23:48.398Z</time>
      </trkpt>
      <trkpt lat="41.57928" lon="43.20443">
        <ele>1342.598275</ele>
        <time>2021-08-17T00:24:00.081Z</time>
      </trkpt>
      <trkpt lat="41.57852" lon="43.2043">
        <ele>1345.165781</ele>
        <time>2021-08-17T00:24:30.851Z</time>
      </trkpt>
      <trkpt lat="41.57833" lon="43.20434">
        <ele>1345.375989</ele>
        <time>2021-08-17T00:24:37.261Z</time>
      </trkpt>
      <trkpt lat="41.57825" lon="43.2044">
        <ele>1345.47588</ele>
        <time>2021-08-17T00:24:40.838Z</time>
      </trkpt>
      <trkpt lat="41.57784" lon="43.20475">
        <ele>1346.02178</ele>
        <time>2021-08-17T00:24:56.238Z</time>
      </trkpt>
      <trkpt lat="41.57759" lon="43.20506">
        <ele>1346.388015</ele>
        <time>2021-08-17T00:25:03.214Z</time>
      </trkpt>
      <trkpt lat="41.57705" lon="43.20596">
        <ele>1344.329018</ele>
        <time>2021-08-17T00:25:18.723Z</time>
      </trkpt>
      <trkpt lat="41.57694" lon="43.20624">
        <ele>1343.270988</ele>
        <time>2021-08-17T00:25:22.702Z</time>
      </trkpt>
      <trkpt lat="41.57688" lon="43.2065">
        <ele>1342.33949</ele>
        <time>2021-08-17T00:25:25.970Z</time>
      </trkpt>
      <trkpt lat="41.5767" lon="43.20765">
        <ele>1338.25021</ele>
        <time>2021-08-17T00:25:39.594Z</time>
      </trkpt>
      <trkpt lat="41.57675" lon="43.20932">
        <ele>1329.266594</ele>
        <time>2021-08-17T00:25:58.170Z</time>
      </trkpt>
      <trkpt lat="41.57665" lon="43.21009">
        <ele>1325.08729</ele>
        <time>2021-08-17T00:26:06.864Z</time>
      </trkpt>
      <trkpt lat="41.57645" lon="43.21117">
        <ele>1319.163093</ele>
        <time>2021-08-17T00:26:19.333Z</time>
      </trkpt>
      <trkpt lat="41.57643" lon="43.21179">
        <ele>1315.823577</ele>
        <time>2021-08-17T00:26:26.421Z</time>
      </trkpt>
      <trkpt lat="41.57589" lon="43.21319">
        <ele>1307.785108</ele>
        <time>2021-08-17T00:26:44.060Z</time>
      </trkpt>
      <trkpt lat="41.57557" lon="43.21435">
        <ele>1301.598598</ele>
        <time>2021-08-17T00:26:58.120Z</time>
      </trkpt>
      <trkpt lat="41.57547" lon="43.21458">
        <ele>1300.349993</ele>
        <time>2021-08-17T00:27:01.119Z</time>
      </trkpt>
      <trkpt lat="41.57526" lon="43.2148">
        <ele>1298.791467</ele>
        <time>2021-08-17T00:27:05.251Z</time>
      </trkpt>
      <trkpt lat="41.57486" lon="43.21519">
        <ele>1295.888401</ele>
        <time>2021-08-17T00:27:12.918Z</time>
      </trkpt>
      <trkpt lat="41.57438" lon="43.21586">
        <ele>1291.813925</ele>
        <time>2021-08-17T00:27:23.665Z</time>
      </trkpt>
      <trkpt lat="41.57427" lon="43.2162">
        <ele>1290.170933</ele>
        <time>2021-08-17T00:27:28.147Z</time>
      </trkpt>
      <trkpt lat="41.57418" lon="43.21824">
        <ele>1280.955225</ele>
        <time>2021-08-17T00:27:51.893Z</time>
      </trkpt>
      <trkpt lat="41.57412" lon="43.21856">
        <ele>1279.443558</ele>
        <time>2021-08-17T00:27:55.590Z</time>
      </trkpt>
      <trkpt lat="41.57396" lon="43.21886">
        <ele>1277.368868</ele>
        <time>2021-08-17T00:27:59.663Z</time>
      </trkpt>
      <trkpt lat="41.57377" lon="43.21908">
        <ele>1275.443529</ele>
        <time>2021-08-17T00:28:03.412Z</time>
      </trkpt>
      <trkpt lat="41.57255" lon="43.22002">
        <ele>1264.831714</ele>
        <time>2021-08-17T00:28:24.098Z</time>
      </trkpt>
      <trkpt lat="41.5723" lon="43.22029">
        <ele>1262.460137</ele>
        <time>2021-08-17T00:28:28.930Z</time>
      </trkpt>
      <trkpt lat="41.572" lon="43.22059">
        <ele>1259.758825</ele>
        <time>2021-08-17T00:28:34.450Z</time>
      </trkpt>
      <trkpt lat="41.5712" lon="43.22192">
        <ele>1250.808671</ele>
        <time>2021-08-17T00:28:53.620Z</time>
      </trkpt>
      <trkpt lat="41.57113" lon="43.22226">
        <ele>1249.136851</ele>
        <time>2021-08-17T00:28:57.665Z</time>
      </trkpt>
      <trkpt lat="41.57117" lon="43.22273">
        <ele>1246.947008</ele>
        <time>2021-08-17T00:29:02.990Z</time>
      </trkpt>
      <trkpt lat="41.57128" lon="43.22303">
        <ele>1245.354459</ele>
        <time>2021-08-17T00:29:06.881Z</time>
      </trkpt>
      <trkpt lat="41.57137" lon="43.2232">
        <ele>1244.382071</ele>
        <time>2021-08-17T00:29:09.267Z</time>
      </trkpt>
      <trkpt lat="41.57152" lon="43.22332">
        <ele>1243.301594</ele>
        <time>2021-08-17T00:29:11.915Z</time>
      </trkpt>
      <trkpt lat="41.57168" lon="43.22333">
        <ele>1242.318746</ele>
        <time>2021-08-17T00:29:14.332Z</time>
      </trkpt>
      <trkpt lat="41.57185" lon="43.22323">
        <ele>1241.155922</ele>
        <time>2021-08-17T00:29:17.292Z</time>
      </trkpt>
      <trkpt lat="41.57227" lon="43.22277">
        <ele>1238.088264</ele>
        <time>2021-08-17T00:29:25.758Z</time>
      </trkpt>
      <trkpt lat="41.57256" lon="43.22254">
        <ele>1236.181129</ele>
        <time>2021-08-17T00:29:31.058Z</time>
      </trkpt>
      <trkpt lat="41.57303" lon="43.22207">
        <ele>1232.86144</ele>
        <time>2021-08-17T00:29:40.337Z</time>
      </trkpt>
      <trkpt lat="41.57335" lon="43.22184">
        <ele>1230.715571</ele>
        <time>2021-08-17T00:29:45.995Z</time>
      </trkpt>
      <trkpt lat="41.57352" lon="43.22181">
        <ele>1229.572159</ele>
        <time>2021-08-17T00:29:48.559Z</time>
      </trkpt>
      <trkpt lat="41.57434" lon="43.22225">
        <ele>1223.748277</ele>
        <time>2021-08-17T00:30:01.863Z</time>
      </trkpt>
      <trkpt lat="41.57456" lon="43.22256">
        <ele>1221.65201</ele>
        <time>2021-08-17T00:30:06.681Z</time>
      </trkpt>
      <trkpt lat="41.57466" lon="43.22283">
        <ele>1220.18147</ele>
        <time>2021-08-17T00:30:09.998Z</time>
      </trkpt>
      <trkpt lat="41.57477" lon="43.22318">
        <ele>1218.399878</ele>
        <time>2021-08-17T00:30:14.349Z</time>
      </trkpt>
      <trkpt lat="41.57478" lon="43.22334">
        <ele>1217.638944</ele>
        <time>2021-08-17T00:30:16.276Z</time>
      </trkpt>
      <trkpt lat="41.57473" lon="43.22347">
        <ele>1216.984311</ele>
        <time>2021-08-17T00:30:17.965Z</time>
      </trkpt>
      <trkpt lat="41.5741" lon="43.22413">
        <ele>1212.121367</ele>
        <time>2021-08-17T00:30:30.128Z</time>
      </trkpt>
      <trkpt lat="41.57395" lon="43.22446">
        <ele>1210.357875</ele>
        <time>2021-08-17T00:30:34.607Z</time>
      </trkpt>
      <trkpt lat="41.57392" lon="43.2248">
        <ele>1208.782579</ele>
        <time>2021-08-17T00:30:38.738Z</time>
      </trkpt>
      <trkpt lat="41.57394" lon="43.22512">
        <ele>1207.186182</ele>
        <time>2021-08-17T00:30:42.563Z</time>
      </trkpt>
      <trkpt lat="41.574" lon="43.22536">
        <ele>1205.90446</ele>
        <time>2021-08-17T00:30:45.563Z</time>
      </trkpt>
      <trkpt lat="41.57424" lon="43.22577">
        <ele>1203.313414</ele>
        <time>2021-08-17T00:30:51.534Z</time>
      </trkpt>
      <trkpt lat="41.57588" lon="43.22698">
        <ele>1187.930012</ele>
        <time>2021-08-17T00:31:19.238Z</time>
      </trkpt>
      <trkpt lat="41.57636" lon="43.22773">
        <ele>1180.725169</ele>
        <time>2021-08-17T00:31:29.425Z</time>
      </trkpt>
      <trkpt lat="41.57647" lon="43.22805">
        <ele>1177.959179</ele>
        <time>2021-08-17T00:31:33.140Z</time>
      </trkpt>
      <trkpt lat="41.57668" lon="43.22931">
        <ele>1166.484794</ele>
        <time>2021-08-17T00:31:46.417Z</time>
      </trkpt>
      <trkpt lat="41.57664" lon="43.22949">
        <ele>1164.852088</ele>
        <time>2021-08-17T00:31:48.317Z</time>
      </trkpt>
      <trkpt lat="41.57624" lon="43.22995">
        <ele>1158.599859</ele>
        <time>2021-08-17T00:31:55.645Z</time>
      </trkpt>
      <trkpt lat="41.57612" lon="43.23039">
        <ele>1155.616687</ele>
        <time>2021-08-17T00:32:00.627Z</time>
      </trkpt>
      <trkpt lat="41.57609" lon="43.23075">
        <ele>1153.706944</ele>
        <time>2021-08-17T00:32:04.608Z</time>
      </trkpt>
      <trkpt lat="41.57612" lon="43.23093">
        <ele>1152.739832</ele>
        <time>2021-08-17T00:32:06.657Z</time>
      </trkpt>
      <trkpt lat="41.5763" lon="43.23129">
        <ele>1150.511972</ele>
        <time>2021-08-17T00:32:11.458Z</time>
      </trkpt>
      <trkpt lat="41.57645" lon="43.23145">
        <ele>1149.178949</ele>
        <time>2021-08-17T00:32:14.418Z</time>
      </trkpt>
      <trkpt lat="41.57676" lon="43.23148">
        <ele>1147.022172</ele>
        <time>2021-08-17T00:32:19.331Z</time>
      </trkpt>
      <trkpt lat="41.57686" lon="43.23146">
        <ele>1146.317043</ele>
        <time>2021-08-17T00:32:20.973Z</time>
      </trkpt>
      <trkpt lat="41.57711" lon="43.23123">
        <ele>1144.382982</ele>
        <time>2021-08-17T00:32:26.078Z</time>
      </trkpt>
      <trkpt lat="41.57739" lon="43.23107">
        <ele>1143.030813</ele>
        <time>2021-08-17T00:32:31.162Z</time>
      </trkpt>
      <trkpt lat="41.57788" lon="43.23098">
        <ele>1140.847179</ele>
        <time>2021-08-17T00:32:39.318Z</time>
      </trkpt>
      <trkpt lat="41.5781" lon="43.23101">
        <ele>1139.864009</ele>
        <time>2021-08-17T00:32:42.943Z</time>
      </trkpt>
      <trkpt lat="41.57819" lon="43.23113">
        <ele>1139.298504</ele>
        <time>2021-08-17T00:32:44.996Z</time>
      </trkpt>
      <trkpt lat="41.57827" lon="43.23138">
        <ele>1138.391046</ele>
        <time>2021-08-17T00:32:48.314Z</time>
      </trkpt>
      <trkpt lat="41.5781" lon="43.23241">
        <ele>1134.651995</ele>
        <time>2021-08-17T00:33:00.796Z</time>
      </trkpt>
      <trkpt lat="41.57808" lon="43.23263">
        <ele>1133.800793</ele>
        <time>2021-08-17T00:33:03.444Z</time>
      </trkpt>
      <trkpt lat="41.57814" lon="43.23286">
        <ele>1132.901178</ele>
        <time>2021-08-17T00:33:06.260Z</time>
      </trkpt>
      <trkpt lat="41.57822" lon="43.23307">
        <ele>1131.996818</ele>
        <time>2021-08-17T00:33:09.050Z</time>
      </trkpt>
      <trkpt lat="41.57875" lon="43.23393">
        <ele>1127.846292</ele>
        <time>2021-08-17T00:33:22.078Z</time>
      </trkpt>
      <trkpt lat="41.57914" lon="43.23444">
        <ele>1125.92307</ele>
        <time>2021-08-17T00:33:31.171Z</time>
      </trkpt>
      <trkpt lat="41.5793" lon="43.23451">
        <ele>1125.364882</ele>
        <time>2021-08-17T00:33:33.939Z</time>
      </trkpt>
      <trkpt lat="41.57958" lon="43.23452">
        <ele>1124.402801</ele>
        <time>2021-08-17T00:33:38.773Z</time>
      </trkpt>
      <trkpt lat="41.57971" lon="43.23443">
        <ele>1123.888779</ele>
        <time>2021-08-17T00:33:41.392Z</time>
      </trkpt>
      <trkpt lat="41.57992" lon="43.23393">
        <ele>1122.436576</ele>
        <time>2021-08-17T00:33:48.881Z</time>
      </trkpt>
      <trkpt lat="41.58018" lon="43.23366">
        <ele>1121.254187</ele>
        <time>2021-08-17T00:33:54.641Z</time>
      </trkpt>
      <trkpt lat="41.58034" lon="43.23338">
        <ele>1120.130039</ele>
        <time>2021-08-17T00:33:59.284Z</time>
      </trkpt>
      <trkpt lat="41.58034" lon="43.23316">
        <ele>1119.417021</ele>
        <time>2021-08-17T00:34:02.201Z</time>
      </trkpt>
      <trkpt lat="41.58018" lon="43.2326">
        <ele>1117.523806</ele>
        <time>2021-08-17T00:34:09.722Z</time>
      </trkpt>
      <trkpt lat="41.58015" lon="43.23235">
        <ele>1116.729641</ele>
        <time>2021-08-17T00:34:12.786Z</time>
      </trkpt>
      <trkpt lat="41.58017" lon="43.23209">
        <ele>1115.874532</ele>
        <time>2021-08-17T00:34:16.021Z</time>
      </trkpt>
      <trkpt lat="41.58026" lon="43.23185">
        <ele>1115.039121</ele>
        <time>2021-08-17T00:34:19.131Z</time>
      </trkpt>
      <trkpt lat="41.58052" lon="43.23154">
        <ele>1113.188135</ele>
        <time>2021-08-17T00:34:24.520Z</time>
      </trkpt>
      <trkpt lat="41.58066" lon="43.23154">
        <ele>1112.088765</ele>
        <time>2021-08-17T00:34:26.643Z</time>
      </trkpt>
      <trkpt lat="41.58087" lon="43.23164">
        <ele>1110.403173</ele>
        <time>2021-08-17T00:34:29.860Z</time>
      </trkpt>
      <trkpt lat="41.5811" lon="43.23235">
        <ele>1105.84863</ele>
        <time>2021-08-17T00:34:38.408Z</time>
      </trkpt>
      <trkpt lat="41.58121" lon="43.23245">
        <ele>1104.827288</ele>
        <time>2021-08-17T00:34:40.298Z</time>
      </trkpt>
      <trkpt lat="41.58141" lon="43.2325">
        <ele>1103.24254</ele>
        <time>2021-08-17T00:34:43.208Z</time>
      </trkpt>
      <trkpt lat="41.58175" lon="43.2324">
        <ele>1100.493001</ele>
        <time>2021-08-17T00:34:48.249Z</time>
      </trkpt>
      <trkpt lat="41.58236" lon="43.2325">
        <ele>1095.434179</ele>
        <time>2021-08-17T00:34:57.146Z</time>
      </trkpt>
      <trkpt lat="41.58257" lon="43.23259">
        <ele>1093.665462</ele>
        <time>2021-08-17T00:35:00.269Z</time>
      </trkpt>
      <trkpt lat="41.58266" lon="43.23269">
        <ele>1092.650483</ele>
        <time>2021-08-17T00:35:02.051Z</time>
      </trkpt>
      <trkpt lat="41.58273" lon="43.23291">
        <ele>1091.198319</ele>
        <time>2021-08-17T00:35:04.634Z</time>
      </trkpt>
      <trkpt lat="41.58273" lon="43.23307">
        <ele>1090.207869</ele>
        <time>2021-08-17T00:35:06.393Z</time>
      </trkpt>
      <trkpt lat="41.58266" lon="43.23326">
        <ele>1088.937173</ele>
        <time>2021-08-17T00:35:08.666Z</time>
      </trkpt>
      <trkpt lat="41.58252" lon="43.23352">
        <ele>1086.956814</ele>
        <time>2021-08-17T00:35:12.215Z</time>
      </trkpt>
      <trkpt lat="41.58145" lon="43.2348">
        <ele>1077.533123</ele>
        <time>2021-08-17T00:35:34.013Z</time>
      </trkpt>
      <trkpt lat="41.58052" lon="43.23627">
        <ele>1069.234396</ele>
        <time>2021-08-17T00:35:56.660Z</time>
      </trkpt>
      <trkpt lat="41.57907" lon="43.23772">
        <ele>1059.895232</ele>
        <time>2021-08-17T00:36:25.023Z</time>
      </trkpt>
      <trkpt lat="41.57878" lon="43.23797">
        <ele>1058.213306</ele>
        <time>2021-08-17T00:36:30.447Z</time>
      </trkpt>
      <trkpt lat="41.57837" lon="43.23818">
        <ele>1056.076595</ele>
        <time>2021-08-17T00:36:37.436Z</time>
      </trkpt>
      <trkpt lat="41.57792" lon="43.23817">
        <ele>1054.575982</ele>
        <time>2021-08-17T00:36:44.869Z</time>
      </trkpt>
      <trkpt lat="41.57723" lon="43.23803">
        <ele>1052.865633</ele>
        <time>2021-08-17T00:36:56.842Z</time>
      </trkpt>
      <trkpt lat="41.57653" lon="43.23809">
        <ele>1051.135024</ele>
        <time>2021-08-17T00:37:09.973Z</time>
      </trkpt>
      <trkpt lat="41.57436" lon="43.23868">
        <ele>1051.218639</ele>
        <time>2021-08-17T00:38:01.082Z</time>
      </trkpt>
      <trkpt lat="41.57254" lon="43.23934">
        <ele>1053.074637</ele>
        <time>2021-08-17T00:38:53.309Z</time>
      </trkpt>
      <trkpt lat="41.57206" lon="43.23944">
        <ele>1053.702051</ele>
        <time>2021-08-17T00:39:07.351Z</time>
      </trkpt>
      <trkpt lat="41.57156" lon="43.23939">
        <ele>1054.348344</ele>
        <time>2021-08-17T00:39:21.875Z</time>
      </trkpt>
      <trkpt lat="41.57121" lon="43.23923">
        <ele>1054.81827</ele>
        <time>2021-08-17T00:39:32.465Z</time>
      </trkpt>
      <trkpt lat="41.57052" lon="43.23859">
        <ele>1056.033224</ele>
        <time>2021-08-17T00:39:56.916Z</time>
      </trkpt>
      <trkpt lat="41.57027" lon="43.23829">
        <ele>1056.531002</ele>
        <time>2021-08-17T00:40:07.107Z</time>
      </trkpt>
      <trkpt lat="41.57007" lon="43.23819">
        <ele>1056.846874</ele>
        <time>2021-08-17T00:40:13.630Z</time>
      </trkpt>
      <trkpt lat="41.5693" lon="43.23821">
        <ele>1058.008565</ele>
        <time>2021-08-17T00:40:36.599Z</time>
      </trkpt>
      <trkpt lat="41.56865" lon="43.23839">
        <ele>1059.052169</ele>
        <time>2021-08-17T00:40:56.292Z</time>
      </trkpt>
      <trkpt lat="41.56759" lon="43.23884">
        <ele>1060.797771</ele>
        <time>2021-08-17T00:41:30.014Z</time>
      </trkpt>
      <trkpt lat="41.56727" lon="43.23907">
        <ele>1061.381079</ele>
        <time>2021-08-17T00:41:41.149Z</time>
      </trkpt>
      <trkpt lat="41.56707" lon="43.23934">
        <ele>1061.847424</ele>
        <time>2021-08-17T00:41:49.841Z</time>
      </trkpt>
      <trkpt lat="41.56697" lon="43.23951">
        <ele>1062.104314</ele>
        <time>2021-08-17T00:41:54.904Z</time>
      </trkpt>
      <trkpt lat="41.56654" lon="43.23988">
        <ele>1062.927871</ele>
        <time>2021-08-17T00:42:10.194Z</time>
      </trkpt>
      <trkpt lat="41.56621" lon="43.24024">
        <ele>1063.48722</ele>
        <time>2021-08-17T00:42:22.660Z</time>
      </trkpt>
      <trkpt lat="41.56562" lon="43.24103">
        <ele>1064.418521</ele>
        <time>2021-08-17T00:42:47.034Z</time>
      </trkpt>
      <trkpt lat="41.5646" lon="43.24254">
        <ele>1066.039103</ele>
        <time>2021-08-17T00:43:26.154Z</time>
      </trkpt>
      <trkpt lat="41.56412" lon="43.24299">
        <ele>1066.636144</ele>
        <time>2021-08-17T00:43:41.482Z</time>
      </trkpt>
      <trkpt lat="41.56331" lon="43.24344">
        <ele>1068.319336</ele>
        <time>2021-08-17T00:44:08.903Z</time>
      </trkpt>
      <trkpt lat="41.56302" lon="43.24366">
        <ele>1069.201077</ele>
        <time>2021-08-17T00:44:20.286Z</time>
      </trkpt>
      <trkpt lat="41.56262" lon="43.24405">
        <ele>1070.548642</ele>
        <time>2021-08-17T00:44:38.989Z</time>
      </trkpt>
      <trkpt lat="41.56201" lon="43.24461">
        <ele>1072.508623</ele>
        <time>2021-08-17T00:45:08.435Z</time>
      </trkpt>
      <trkpt lat="41.56184" lon="43.24487">
        <ele>1073.177267</ele>
        <time>2021-08-17T00:45:19.001Z</time>
      </trkpt>
      <trkpt lat="41.56153" lon="43.24581">
        <ele>1075.168757</ele>
        <time>2021-08-17T00:45:48.000Z</time>
      </trkpt>
      <trkpt lat="41.56142" lon="43.24629">
        <ele>1076.132563</ele>
        <time>2021-08-17T00:45:59.392Z</time>
      </trkpt>
      <trkpt lat="41.56132" lon="43.24734">
        <ele>1076.842331</ele>
        <time>2021-08-17T00:46:19.375Z</time>
      </trkpt>
      <trkpt lat="41.56124" lon="43.24763">
        <ele>1076.947771</ele>
        <time>2021-08-17T00:46:24.305Z</time>
      </trkpt>
      <trkpt lat="41.56135" lon="43.2487">
        <ele>1077.322416</ele>
        <time>2021-08-17T00:46:47.718Z</time>
      </trkpt>
      <trkpt lat="41.56166" lon="43.24967">
        <ele>1079.659748</ele>
        <time>2021-08-17T00:47:15.606Z</time>
      </trkpt>
      <trkpt lat="41.56173" lon="43.25008">
        <ele>1080.738246</ele>
        <time>2021-08-17T00:47:29.376Z</time>
      </trkpt>
      <trkpt lat="41.5617" lon="43.25045">
        <ele>1081.689452</ele>
        <time>2021-08-17T00:47:43.084Z</time>
      </trkpt>
      <trkpt lat="41.56139" lon="43.25213">
        <ele>1088.521666</ele>
        <time>2021-08-17T00:49:03.825Z</time>
      </trkpt>
      <trkpt lat="41.56141" lon="43.25326">
        <ele>1094.065343</ele>
        <time>2021-08-17T00:50:00.045Z</time>
      </trkpt>
      <trkpt lat="41.56135" lon="43.25422">
        <ele>1096.720481</ele>
        <time>2021-08-17T00:50:40.583Z</time>
      </trkpt>
      <trkpt lat="41.56143" lon="43.25532">
        <ele>1098.828668</ele>
        <time>2021-08-17T00:51:14.770Z</time>
      </trkpt>
      <trkpt lat="41.56188" lon="43.2575">
        <ele>1098.861677</ele>
        <time>2021-08-17T00:52:00.433Z</time>
      </trkpt>
      <trkpt lat="41.56209" lon="43.25824">
        <ele>1098.186365</ele>
        <time>2021-08-17T00:52:16.617Z</time>
      </trkpt>
      <trkpt lat="41.56206" lon="43.25872">
        <ele>1096.458869</ele>
        <time>2021-08-17T00:52:27.340Z</time>
      </trkpt>
      <trkpt lat="41.56219" lon="43.25918">
        <ele>1094.697526</ele>
        <time>2021-08-17T00:52:35.345Z</time>
      </trkpt>
      <trkpt lat="41.56223" lon="43.25967">
        <ele>1092.914679</ele>
        <time>2021-08-17T00:52:43.067Z</time>
      </trkpt>
      <trkpt lat="41.56221" lon="43.26003">
        <ele>1091.630158</ele>
        <time>2021-08-17T00:52:48.682Z</time>
      </trkpt>
      <trkpt lat="41.56226" lon="43.26037">
        <ele>1090.412186</ele>
        <time>2021-08-17T00:52:53.871Z</time>
      </trkpt>
      <trkpt lat="41.5623" lon="43.26045">
        <ele>1090.032877</ele>
        <time>2021-08-17T00:52:55.652Z</time>
      </trkpt>
      <trkpt lat="41.56236" lon="43.26048">
        <ele>1089.739518</ele>
        <time>2021-08-17T00:52:57.246Z</time>
      </trkpt>
      <trkpt lat="41.56284" lon="43.26062">
        <ele>1087.304287</ele>
        <time>2021-08-17T00:53:07.377Z</time>
      </trkpt>
      <trkpt lat="41.56288" lon="43.26071">
        <ele>1086.886696</ele>
        <time>2021-08-17T00:53:09.151Z</time>
      </trkpt>
      <trkpt lat="41.56291" lon="43.26113">
        <ele>1085.350874</ele>
        <time>2021-08-17T00:53:15.779Z</time>
      </trkpt>
      <trkpt lat="41.56296" lon="43.26132">
        <ele>1084.596954</ele>
        <time>2021-08-17T00:53:19.211Z</time>
      </trkpt>
      <trkpt lat="41.56307" lon="43.26162">
        <ele>1083.359968</ele>
        <time>2021-08-17T00:53:24.409Z</time>
      </trkpt>
      <trkpt lat="41.56325" lon="43.26174">
        <ele>1082.344797</ele>
        <time>2021-08-17T00:53:29.005Z</time>
      </trkpt>
      <trkpt lat="41.56346" lon="43.26181">
        <ele>1081.261683</ele>
        <time>2021-08-17T00:53:33.573Z</time>
      </trkpt>
      <trkpt lat="41.564" lon="43.26176">
        <ele>1081.005073</ele>
        <time>2021-08-17T00:53:50.812Z</time>
      </trkpt>
      <trkpt lat="41.56444" lon="43.26165">
        <ele>1081.197209</ele>
        <time>2021-08-17T00:54:09.632Z</time>
      </trkpt>
      <trkpt lat="41.56471" lon="43.26166">
        <ele>1081.308978</ele>
        <time>2021-08-17T00:54:20.136Z</time>
      </trkpt>
      <trkpt lat="41.56484" lon="43.26192">
        <ele>1081.407765</ele>
        <time>2021-08-17T00:54:27.797Z</time>
      </trkpt>
      <trkpt lat="41.56485" lon="43.26258">
        <ele>1081.412977</ele>
        <time>2021-08-17T00:54:43.590Z</time>
      </trkpt>
      <trkpt lat="41.56472" lon="43.26301">
        <ele>1080.751841</ele>
        <time>2021-08-17T00:54:50.897Z</time>
      </trkpt>
      <trkpt lat="41.56457" lon="43.26348">
        <ele>1080.037929</ele>
        <time>2021-08-17T00:54:58.194Z</time>
      </trkpt>
      <trkpt lat="41.56442" lon="43.26394">
        <ele>1079.325855</ele>
        <time>2021-08-17T00:55:05.036Z</time>
      </trkpt>
      <trkpt lat="41.56391" lon="43.26542">
        <ele>1077.036998</ele>
        <time>2021-08-17T00:55:25.425Z</time>
      </trkpt>
      <trkpt lat="41.56368" lon="43.26715">
        <ele>1075.001086</ele>
        <time>2021-08-17T00:55:50.991Z</time>
      </trkpt>
      <trkpt lat="41.56346" lon="43.2682">
        <ele>1076.176538</ele>
        <time>2021-08-17T00:56:13.720Z</time>
      </trkpt>
      <trkpt lat="41.56347" lon="43.26906">
        <ele>1077.095744</ele>
        <time>2021-08-17T00:56:35.661Z</time>
      </trkpt>
      <trkpt lat="41.56339" lon="43.26945">
        <ele>1077.633925</ele>
        <time>2021-08-17T00:56:47.268Z</time>
      </trkpt>
      <trkpt lat="41.56329" lon="43.26964">
        <ele>1078.066594</ele>
        <time>2021-08-17T00:56:53.659Z</time>
      </trkpt>
      <trkpt lat="41.56249" lon="43.2709">
        <ele>1081.207824</ele>
        <time>2021-08-17T00:57:38.669Z</time>
      </trkpt>
      <trkpt lat="41.56153" lon="43.27184">
        <ele>1083.443015</ele>
        <time>2021-08-17T00:58:14.313Z</time>
      </trkpt>
      <trkpt lat="41.56067" lon="43.27241">
        <ele>1085.177766</ele>
        <time>2021-08-17T00:58:41.569Z</time>
      </trkpt>
      <trkpt lat="41.56026" lon="43.2725">
        <ele>1086.946398</ele>
        <time>2021-08-17T00:58:56.548Z</time>
      </trkpt>
      <trkpt lat="41.55987" lon="43.27248">
        <ele>1088.602687</ele>
        <time>2021-08-17T00:59:12.000Z</time>
      </trkpt>
      <trkpt lat="41.55973" lon="43.27244">
        <ele>1089.205722</ele>
        <time>2021-08-17T00:59:17.238Z</time>
      </trkpt>
      <trkpt lat="41.55959" lon="43.27236">
        <ele>1089.842439</ele>
        <time>2021-08-17T00:59:25.073Z</time>
      </trkpt>
      <trkpt lat="41.55812" lon="43.27127">
        <ele>1098.605031</ele>
        <time>2021-08-17T01:00:55.699Z</time>
      </trkpt>
      <trkpt lat="41.55654" lon="43.26966">
        <ele>1107.552454</ele>
        <time>2021-08-17T01:02:31.316Z</time>
      </trkpt>
      <trkpt lat="41.55592" lon="43.26888">
        <ele>1109.172446</ele>
        <time>2021-08-17T01:02:54.625Z</time>
      </trkpt>
      <trkpt lat="41.5557" lon="43.26869">
        <ele>1108.727613</ele>
        <time>2021-08-17T01:03:00.201Z</time>
      </trkpt>
      <trkpt lat="41.55494" lon="43.26834">
        <ele>1107.394589</ele>
        <time>2021-08-17T01:03:14.796Z</time>
      </trkpt>
      <trkpt lat="41.55427" lon="43.26769">
        <ele>1105.185434</ele>
        <time>2021-08-17T01:03:28.592Z</time>
      </trkpt>
      <trkpt lat="41.55362" lon="43.26692">
        <ele>1101.85137</ele>
        <time>2021-08-17T01:03:42.829Z</time>
      </trkpt>
      <trkpt lat="41.55343" lon="43.26669">
        <ele>1100.870276</ele>
        <time>2021-08-17T01:03:47.008Z</time>
      </trkpt>
      <trkpt lat="41.55285" lon="43.26595">
        <ele>1098.288283</ele>
        <time>2021-08-17T01:04:00.525Z</time>
      </trkpt>
      <trkpt lat="41.55202" lon="43.26488">
        <ele>1095.014106</ele>
        <time>2021-08-17T01:04:20.675Z</time>
      </trkpt>
      <trkpt lat="41.55091" lon="43.26193">
        <ele>1091.449169</ele>
        <time>2021-08-17T01:05:08.198Z</time>
      </trkpt>
      <trkpt lat="41.5504" lon="43.26101">
        <ele>1090.753507</ele>
        <time>2021-08-17T01:05:25.909Z</time>
      </trkpt>
      <trkpt lat="41.55023" lon="43.2608">
        <ele>1090.568859</ele>
        <time>2021-08-17T01:05:30.679Z</time>
      </trkpt>
      <trkpt lat="41.5499" lon="43.26051">
        <ele>1090.419366</ele>
        <time>2021-08-17T01:05:39.172Z</time>
      </trkpt>
      <trkpt lat="41.54856" lon="43.25975">
        <ele>1090.39089</ele>
        <time>2021-08-17T01:06:11.244Z</time>
      </trkpt>
      <trkpt lat="41.54818" lon="43.25959">
        <ele>1090.760048</ele>
        <time>2021-08-17T01:06:20.729Z</time>
      </trkpt>
      <trkpt lat="41.54766" lon="43.25957">
        <ele>1091.470876</ele>
        <time>2021-08-17T01:06:34.345Z</time>
      </trkpt>
      <trkpt lat="41.54727" lon="43.25971">
        <ele>1092.020813</ele>
        <time>2021-08-17T01:06:45.896Z</time>
      </trkpt>
      <trkpt lat="41.54603" lon="43.26047">
        <ele>1095.699095</ele>
        <time>2021-08-17T01:07:33.132Z</time>
      </trkpt>
      <trkpt lat="41.54461" lon="43.261">
        <ele>1102.2136</ele>
        <time>2021-08-17T01:08:40.122Z</time>
      </trkpt>
      <trkpt lat="41.54325" lon="43.26175">
        <ele>1110.747366</ele>
        <time>2021-08-17T01:10:00.935Z</time>
      </trkpt>
      <trkpt lat="41.54276" lon="43.26184">
        <ele>1112.767495</ele>
        <time>2021-08-17T01:10:28.133Z</time>
      </trkpt>
      <trkpt lat="41.54204" lon="43.26182">
        <ele>1115.659898</ele>
        <time>2021-08-17T01:10:59.781Z</time>
      </trkpt>
      <trkpt lat="41.54126" lon="43.26151">
        <ele>1116.623792</ele>
        <time>2021-08-17T01:11:22.212Z</time>
      </trkpt>
      <trkpt lat="41.54094" lon="43.26124">
        <ele>1115.655158</ele>
        <time>2021-08-17T01:11:29.236Z</time>
      </trkpt>
      <trkpt lat="41.53967" lon="43.25931">
        <ele>1109.65739</ele>
        <time>2021-08-17T01:12:00.422Z</time>
      </trkpt>
      <trkpt lat="41.53937" lon="43.25871">
        <ele>1107.65411</ele>
        <time>2021-08-17T01:12:09.366Z</time>
      </trkpt>
      <trkpt lat="41.53919" lon="43.25844">
        <ele>1106.641034</ele>
        <time>2021-08-17T01:12:14.074Z</time>
      </trkpt>
      <trkpt lat="41.53888" lon="43.25828">
        <ele>1105.911296</ele>
        <time>2021-08-17T01:12:20.035Z</time>
      </trkpt>
      <trkpt lat="41.53856" lon="43.25832">
        <ele>1105.560036</ele>
        <time>2021-08-17T01:12:26.063Z</time>
      </trkpt>
      <trkpt lat="41.53721" lon="43.25886">
        <ele>1104.037729</ele>
        <time>2021-08-17T01:12:55.253Z</time>
      </trkpt>
      <trkpt lat="41.5361" lon="43.25909">
        <ele>1103.038104</ele>
        <time>2021-08-17T01:13:18.299Z</time>
      </trkpt>
      <trkpt lat="41.53578" lon="43.25922">
        <ele>1102.741371</ele>
        <time>2021-08-17T01:13:24.839Z</time>
      </trkpt>
      <trkpt lat="41.53248" lon="43.26127">
        <ele>1098.971901</ele>
        <time>2021-08-17T01:14:35.756Z</time>
      </trkpt>
      <trkpt lat="41.5322" lon="43.26138">
        <ele>1098.99084</ele>
        <time>2021-08-17T01:14:42.725Z</time>
      </trkpt>
      <trkpt lat="41.53186" lon="43.26143">
        <ele>1099.495851</ele>
        <time>2021-08-17T01:14:51.939Z</time>
      </trkpt>
      <trkpt lat="41.53137" lon="43.26137">
        <ele>1100.202421</ele>
        <time>2021-08-17T01:15:05.965Z</time>
      </trkpt>
      <trkpt lat="41.53105" lon="43.26123">
        <ele>1100.695706</ele>
        <time>2021-08-17T01:15:16.667Z</time>
      </trkpt>
      <trkpt lat="41.53031" lon="43.2608">
        <ele>1102.485882</ele>
        <time>2021-08-17T01:15:44.533Z</time>
      </trkpt>
      <trkpt lat="41.52979" lon="43.26057">
        <ele>1104.400727</ele>
        <time>2021-08-17T01:16:04.552Z</time>
      </trkpt>
      <trkpt lat="41.5292" lon="43.2605">
        <ele>1106.45376</ele>
        <time>2021-08-17T01:16:27.821Z</time>
      </trkpt>
      <trkpt lat="41.5285" lon="43.26062">
        <ele>1109.760759</ele>
        <time>2021-08-17T01:17:01.264Z</time>
      </trkpt>
      <trkpt lat="41.52816" lon="43.26062">
        <ele>1111.67952</ele>
        <time>2021-08-17T01:17:18.986Z</time>
      </trkpt>
      <trkpt lat="41.52771" lon="43.26047">
        <ele>1114.412061</ele>
        <time>2021-08-17T01:17:45.284Z</time>
      </trkpt>
      <trkpt lat="41.52654" lon="43.25993">
        <ele>1119.639304</ele>
        <time>2021-08-17T01:18:49.667Z</time>
      </trkpt>
      <trkpt lat="41.52393" lon="43.25917">
        <ele>1122.065908</ele>
        <time>2021-08-17T01:19:58.357Z</time>
      </trkpt>
      <trkpt lat="41.5233" lon="43.25931">
        <ele>1120.905946</ele>
        <time>2021-08-17T01:20:08.848Z</time>
      </trkpt>
      <trkpt lat="41.52256" lon="43.2597">
        <ele>1118.161131</ele>
        <time>2021-08-17T01:20:21.826Z</time>
      </trkpt>
      <trkpt lat="41.52218" lon="43.25979">
        <ele>1116.841668</ele>
        <time>2021-08-17T01:20:28.041Z</time>
      </trkpt>
      <trkpt lat="41.5218" lon="43.25979">
        <ele>1115.715909</ele>
        <time>2021-08-17T01:20:34.634Z</time>
      </trkpt>
      <trkpt lat="41.52088" lon="43.25966">
        <ele>1115.464313</ele>
        <time>2021-08-17T01:20:53.250Z</time>
      </trkpt>
      <trkpt lat="41.51941" lon="43.25964">
        <ele>1115.815016</ele>
        <time>2021-08-17T01:21:35.250Z</time>
      </trkpt>
      <trkpt lat="41.51848" lon="43.25925">
        <ele>1116.662478</ele>
        <time>2021-08-17T01:22:01.076Z</time>
      </trkpt>
      <trkpt lat="41.5179" lon="43.2591">
        <ele>1116.805428</ele>
        <time>2021-08-17T01:22:14.416Z</time>
      </trkpt>
      <trkpt lat="41.51747" lon="43.25905">
        <ele>1116.805487</ele>
        <time>2021-08-17T01:22:23.880Z</time>
      </trkpt>
      <trkpt lat="41.51724" lon="43.25909">
        <ele>1116.805518</ele>
        <time>2021-08-17T01:22:28.725Z</time>
      </trkpt>
      <trkpt lat="41.51694" lon="43.25924">
        <ele>1116.805561</ele>
        <time>2021-08-17T01:22:35.546Z</time>
      </trkpt>
      <trkpt lat="41.5166" lon="43.25954">
        <ele>1116.826948</ele>
        <time>2021-08-17T01:22:44.534Z</time>
      </trkpt>
      <trkpt lat="41.51641" lon="43.25993">
        <ele>1117.185917</ele>
        <time>2021-08-17T01:22:53.109Z</time>
      </trkpt>
      <trkpt lat="41.51632" lon="43.26066">
        <ele>1117.761087</ele>
        <time>2021-08-17T01:23:09.184Z</time>
      </trkpt>
      <trkpt lat="41.5162" lon="43.26086">
        <ele>1117.956908</ele>
        <time>2021-08-17T01:23:14.781Z</time>
      </trkpt>
      <trkpt lat="41.51568" lon="43.26116">
        <ele>1118.543511</ele>
        <time>2021-08-17T01:23:31.177Z</time>
      </trkpt>
      <trkpt lat="41.51504" lon="43.26168">
        <ele>1119.258015</ele>
        <time>2021-08-17T01:23:52.586Z</time>
      </trkpt>
      <trkpt lat="41.5147" lon="43.26177">
        <ele>1119.577118</ele>
        <time>2021-08-17T01:24:02.231Z</time>
      </trkpt>
      <trkpt lat="41.51419" lon="43.26176">
        <ele>1120.058261</ele>
        <time>2021-08-17T01:24:15.901Z</time>
      </trkpt>
      <trkpt lat="41.51396" lon="43.26175">
        <ele>1120.266692</ele>
        <time>2021-08-17T01:24:21.500Z</time>
      </trkpt>
      <trkpt lat="41.51324" lon="43.26206">
        <ele>1120.270261</ele>
        <time>2021-08-17T01:24:39.328Z</time>
      </trkpt>
      <trkpt lat="41.51278" lon="43.26229">
        <ele>1120.215362</ele>
        <time>2021-08-17T01:24:50.765Z</time>
      </trkpt>
      <trkpt lat="41.51252" lon="43.26266">
        <ele>1120.172414</ele>
        <time>2021-08-17T01:24:59.163Z</time>
      </trkpt>
      <trkpt lat="41.51233" lon="43.26284">
        <ele>1120.146773</ele>
        <time>2021-08-17T01:25:04.037Z</time>
      </trkpt>
      <trkpt lat="41.51191" lon="43.26289">
        <ele>1119.525401</ele>
        <time>2021-08-17T01:25:13.229Z</time>
      </trkpt>
      <trkpt lat="41.51162" lon="43.26304">
        <ele>1119.063704</ele>
        <time>2021-08-17T01:25:19.670Z</time>
      </trkpt>
      <trkpt lat="41.51156" lon="43.26278">
        <ele>1118.758673</ele>
        <time>2021-08-17T01:25:23.895Z</time>
      </trkpt>
      <trkpt lat="41.5115" lon="43.26261">
        <ele>1118.540392</ele>
        <time>2021-08-17T01:25:26.671Z</time>
      </trkpt>
      <trkpt lat="41.51133" lon="43.26246">
        <ele>1118.231427</ele>
        <time>2021-08-17T01:25:30.680Z</time>
      </trkpt>
      <trkpt lat="41.51087" lon="43.2623">
        <ele>1117.506288</ele>
        <time>2021-08-17T01:25:39.622Z</time>
      </trkpt>
      <trkpt lat="41.51067" lon="43.26234">
        <ele>1116.997395</ele>
        <time>2021-08-17T01:25:43.412Z</time>
      </trkpt>
      <trkpt lat="41.51045" lon="43.26257">
        <ele>1116.207676</ele>
        <time>2021-08-17T01:25:48.315Z</time>
      </trkpt>
      <trkpt lat="41.51036" lon="43.26228">
        <ele>1115.520074</ele>
        <time>2021-08-17T01:25:52.541Z</time>
      </trkpt>
      <trkpt lat="41.51021" lon="43.2622">
        <ele>1115.054468</ele>
        <time>2021-08-17T01:25:55.416Z</time>
      </trkpt>
      <trkpt lat="41.50994" lon="43.26179">
        <ele>1113.883462</ele>
        <time>2021-08-17T01:26:02.788Z</time>
      </trkpt>
      <trkpt lat="41.50974" lon="43.26154">
        <ele>1113.072996</ele>
        <time>2021-08-17T01:26:07.890Z</time>
      </trkpt>
      <trkpt lat="41.50977" lon="43.26131">
        <ele>1112.557108</ele>
        <time>2021-08-17T01:26:11.086Z</time>
      </trkpt>
      <trkpt lat="41.50961" lon="43.26133">
        <ele>1112.118338</ele>
        <time>2021-08-17T01:26:13.914Z</time>
      </trkpt>
      <trkpt lat="41.50843" lon="43.26153">
        <ele>1109.740882</ele>
        <time>2021-08-17T01:26:34.902Z</time>
      </trkpt>
      <trkpt lat="41.5082" lon="43.26151">
        <ele>1109.263566</ele>
        <time>2021-08-17T01:26:39.514Z</time>
      </trkpt>
      <trkpt lat="41.50725" lon="43.2612">
        <ele>1108.713669</ele>
        <time>2021-08-17T01:26:59.852Z</time>
      </trkpt>
      <trkpt lat="41.50596" lon="43.26108">
        <ele>1109.050785</ele>
        <time>2021-08-17T01:27:32.673Z</time>
      </trkpt>
      <trkpt lat="41.50564" lon="43.26118">
        <ele>1109.34311</ele>
        <time>2021-08-17T01:27:41.821Z</time>
      </trkpt>
      <trkpt lat="41.50501" lon="43.26173">
        <ele>1110.015532</ele>
        <time>2021-08-17T01:28:02.511Z</time>
      </trkpt>
      <trkpt lat="41.50466" lon="43.26195">
        <ele>1110.358023</ele>
        <time>2021-08-17T01:28:12.572Z</time>
      </trkpt>
      <trkpt lat="41.50435" lon="43.26211">
        <ele>1110.592992</ele>
        <time>2021-08-17T01:28:21.241Z</time>
      </trkpt>
      <trkpt lat="41.50372" lon="43.26244">
        <ele>1110.876554</ele>
        <time>2021-08-17T01:28:38.369Z</time>
      </trkpt>
      <trkpt lat="41.5035" lon="43.26261">
        <ele>1110.984026</ele>
        <time>2021-08-17T01:28:44.679Z</time>
      </trkpt>
      <trkpt lat="41.50332" lon="43.26273">
        <ele>1111.068492</ele>
        <time>2021-08-17T01:28:49.493Z</time>
      </trkpt>
      <trkpt lat="41.50312" lon="43.26291">
        <ele>1111.169077</ele>
        <time>2021-08-17T01:28:54.765Z</time>
      </trkpt>
      <trkpt lat="41.50294" lon="43.26303">
        <ele>1111.251906</ele>
        <time>2021-08-17T01:28:59.382Z</time>
      </trkpt>
      <trkpt lat="41.50237" lon="43.26345">
        <ele>1111.418222</ele>
        <time>2021-08-17T01:29:14.177Z</time>
      </trkpt>
      <trkpt lat="41.50199" lon="43.2636">
        <ele>1111.508099</ele>
        <time>2021-08-17T01:29:23.298Z</time>
      </trkpt>
      <trkpt lat="41.50162" lon="43.26352">
        <ele>1111.593676</ele>
        <time>2021-08-17T01:29:32.197Z</time>
      </trkpt>
      <trkpt lat="41.50064" lon="43.26302">
        <ele>1112.358228</ele>
        <time>2021-08-17T01:29:57.303Z</time>
      </trkpt>
      <trkpt lat="41.50021" lon="43.26301">
        <ele>1112.856509</ele>
        <time>2021-08-17T01:30:09.081Z</time>
      </trkpt>
      <trkpt lat="41.49936" lon="43.2631">
        <ele>1113.928226</ele>
        <time>2021-08-17T01:30:34.464Z</time>
      </trkpt>
      <trkpt lat="41.49816" lon="43.26333">
        <ele>1117.190212</ele>
        <time>2021-08-17T01:31:17.947Z</time>
      </trkpt>
      <trkpt lat="41.4976" lon="43.26355">
        <ele>1118.784901</ele>
        <time>2021-08-17T01:31:40.077Z</time>
      </trkpt>
      <trkpt lat="41.49731" lon="43.26376">
        <ele>1119.677247</ele>
        <time>2021-08-17T01:31:52.247Z</time>
      </trkpt>
      <trkpt lat="41.49718" lon="43.2639">
        <ele>1120.13266</ele>
        <time>2021-08-17T01:31:59.074Z</time>
      </trkpt>
      <trkpt lat="41.49692" lon="43.26419">
        <ele>1121.053546</ele>
        <time>2021-08-17T01:32:11.322Z</time>
      </trkpt>
      <trkpt lat="41.4967" lon="43.2645">
        <ele>1121.939095</ele>
        <time>2021-08-17T01:32:22.764Z</time>
      </trkpt>
      <trkpt lat="41.49617" lon="43.26541">
        <ele>1124.053183</ele>
        <time>2021-08-17T01:32:52.484Z</time>
      </trkpt>
      <trkpt lat="41.49607" lon="43.26551">
        <ele>1124.300693</ele>
        <time>2021-08-17T01:32:56.443Z</time>
      </trkpt>
      <trkpt lat="41.49437" lon="43.26624">
        <ele>1127.701009</ele>
        <time>2021-08-17T01:33:51.881Z</time>
      </trkpt>
      <trkpt lat="41.49257" lon="43.26675">
        <ele>1131.616966</ele>
        <time>2021-08-17T01:34:50.874Z</time>
      </trkpt>
      <trkpt lat="41.49195" lon="43.26683">
        <ele>1133.299586</ele>
        <time>2021-08-17T01:35:11.512Z</time>
      </trkpt>
      <trkpt lat="41.49105" lon="43.26684">
        <ele>1136.055076</ele>
        <time>2021-08-17T01:35:46.183Z</time>
      </trkpt>
      <trkpt lat="41.48995" lon="43.26711">
        <ele>1141.267101</ele>
        <time>2021-08-17T01:36:38.674Z</time>
      </trkpt>
      <trkpt lat="41.48972" lon="43.26719">
        <ele>1142.373793</ele>
        <time>2021-08-17T01:36:50.803Z</time>
      </trkpt>
      <trkpt lat="41.48955" lon="43.26735">
        <ele>1143.3284</ele>
        <time>2021-08-17T01:37:01.121Z</time>
      </trkpt>
      <trkpt lat="41.48922" lon="43.26779">
        <ele>1144.108789</ele>
        <time>2021-08-17T01:37:22.692Z</time>
      </trkpt>
      <trkpt lat="41.48898" lon="43.26799">
        <ele>1144.435497</ele>
        <time>2021-08-17T01:37:33.271Z</time>
      </trkpt>
      <trkpt lat="41.48854" lon="43.26817">
        <ele>1144.965538</ele>
        <time>2021-08-17T01:37:46.986Z</time>
      </trkpt>
      <trkpt lat="41.4881" lon="43.26822">
        <ele>1145.480918</ele>
        <time>2021-08-17T01:37:55.946Z</time>
      </trkpt>
      <trkpt lat="41.48711" lon="43.268">
        <ele>1142.595371</ele>
        <time>2021-08-17T01:38:12.627Z</time>
      </trkpt>
      <trkpt lat="41.48635" lon="43.26795">
        <ele>1139.572047</ele>
        <time>2021-08-17T01:38:24.813Z</time>
      </trkpt>
      <trkpt lat="41.48583" lon="43.2682">
        <ele>1137.782363</ele>
        <time>2021-08-17T01:38:33.680Z</time>
      </trkpt>
      <trkpt lat="41.48555" lon="43.26846">
        <ele>1136.844068</ele>
        <time>2021-08-17T01:38:39.524Z</time>
      </trkpt>
      <trkpt lat="41.48509" lon="43.26893">
        <ele>1135.283339</ele>
        <time>2021-08-17T01:38:49.809Z</time>
      </trkpt>
      <trkpt lat="41.48467" lon="43.26937">
        <ele>1133.851584</ele>
        <time>2021-08-17T01:38:59.691Z</time>
      </trkpt>
      <trkpt lat="41.48441" lon="43.26978">
        <ele>1133.350382</ele>
        <time>2021-08-17T01:39:07.924Z</time>
      </trkpt>
      <trkpt lat="41.48425" lon="43.2702">
        <ele>1132.992502</ele>
        <time>2021-08-17T01:39:14.908Z</time>
      </trkpt>
      <trkpt lat="41.48417" lon="43.27109">
        <ele>1132.29604</ele>
        <time>2021-08-17T01:39:27.945Z</time>
      </trkpt>
      <trkpt lat="41.48401" lon="43.27196">
        <ele>1131.850188</ele>
        <time>2021-08-17T01:39:41.742Z</time>
      </trkpt>
      <trkpt lat="41.48406" lon="43.2738">
        <ele>1131.740834</ele>
        <time>2021-08-17T01:40:12.763Z</time>
      </trkpt>
      <trkpt lat="41.48381" lon="43.27507">
        <ele>1132.456375</ele>
        <time>2021-08-17T01:40:36.751Z</time>
      </trkpt>
      <trkpt lat="41.48347" lon="43.27624">
        <ele>1133.287705</ele>
        <time>2021-08-17T01:41:02.664Z</time>
      </trkpt>
      <trkpt lat="41.48239" lon="43.27846">
        <ele>1137.552348</ele>
        <time>2021-08-17T01:42:08.843Z</time>
      </trkpt>
      <trkpt lat="41.48227" lon="43.2787">
        <ele>1138.10632</ele>
        <time>2021-08-17T01:42:17.086Z</time>
      </trkpt>
      <trkpt lat="41.48164" lon="43.28009">
        <ele>1141.138075</ele>
        <time>2021-08-17T01:43:00.429Z</time>
      </trkpt>
      <trkpt lat="41.48123" lon="43.28097">
        <ele>1142.33491</ele>
        <time>2021-08-17T01:43:25.485Z</time>
      </trkpt>
      <trkpt lat="41.48092" lon="43.28184">
        <ele>1143.162394</ele>
        <time>2021-08-17T01:43:45.288Z</time>
      </trkpt>
      <trkpt lat="41.48073" lon="43.28295">
        <ele>1143.864796</ele>
        <time>2021-08-17T01:44:05.725Z</time>
      </trkpt>
      <trkpt lat="41.48072" lon="43.28378">
        <ele>1144.070992</ele>
        <time>2021-08-17T01:44:20.227Z</time>
      </trkpt>
      <trkpt lat="41.48162" lon="43.28668">
        <ele>1144.983495</ele>
        <time>2021-08-17T01:45:16.509Z</time>
      </trkpt>
      <trkpt lat="41.48226" lon="43.29017">
        <ele>1147.549155</ele>
        <time>2021-08-17T01:46:27.997Z</time>
      </trkpt>
      <trkpt lat="41.48225" lon="43.29107">
        <ele>1148.597747</ele>
        <time>2021-08-17T01:46:48.899Z</time>
      </trkpt>
      <trkpt lat="41.48231" lon="43.29157">
        <ele>1149.195415</ele>
        <time>2021-08-17T01:47:01.361Z</time>
      </trkpt>
      <trkpt lat="41.48244" lon="43.29216">
        <ele>1149.975193</ele>
        <time>2021-08-17T01:47:16.480Z</time>
      </trkpt>
      <trkpt lat="41.48248" lon="43.29263">
        <ele>1150.611257</ele>
        <time>2021-08-17T01:47:28.180Z</time>
      </trkpt>
      <trkpt lat="41.48247" lon="43.29289">
        <ele>1150.951672</ele>
        <time>2021-08-17T01:47:34.269Z</time>
      </trkpt>
      <trkpt lat="41.48233" lon="43.29354">
        <ele>1151.854905</ele>
        <time>2021-08-17T01:47:49.664Z</time>
      </trkpt>
      <trkpt lat="41.48232" lon="43.2939">
        <ele>1152.33583</ele>
        <time>2021-08-17T01:47:57.744Z</time>
      </trkpt>
      <trkpt lat="41.48256" lon="43.29479">
        <ele>1153.530112</ele>
        <time>2021-08-17T01:48:18.391Z</time>
      </trkpt>
      <trkpt lat="41.48274" lon="43.29635">
        <ele>1155.510936</ele>
        <time>2021-08-17T01:48:53.634Z</time>
      </trkpt>
      <trkpt lat="41.48316" lon="43.29884">
        <ele>1160.702694</ele>
        <time>2021-08-17T01:50:02.870Z</time>
      </trkpt>
      <trkpt lat="41.48319" lon="43.30085">
        <ele>1165.906193</ele>
        <time>2021-08-17T01:51:03.488Z</time>
      </trkpt>
      <trkpt lat="41.48341" lon="43.30172">
        <ele>1168.135953</ele>
        <time>2021-08-17T01:51:31.177Z</time>
      </trkpt>
      <trkpt lat="41.48374" lon="43.30363">
        <ele>1172.73465</ele>
        <time>2021-08-17T01:52:25.465Z</time>
      </trkpt>
      <trkpt lat="41.48381" lon="43.30482">
        <ele>1175.668433</ele>
        <time>2021-08-17T01:52:58.329Z</time>
      </trkpt>
      <trkpt lat="41.4839" lon="43.30548">
        <ele>1177.330254</ele>
        <time>2021-08-17T01:53:18.158Z</time>
      </trkpt>
      <trkpt lat="41.48404" lon="43.30616">
        <ele>1179.507274</ele>
        <time>2021-08-17T01:53:40.254Z</time>
      </trkpt>
      <trkpt lat="41.48445" lon="43.30728">
        <ele>1184.216138</ele>
        <time>2021-08-17T01:54:23.783Z</time>
      </trkpt>
      <trkpt lat="41.48544" lon="43.30968">
        <ele>1195.624399</ele>
        <time>2021-08-17T01:56:11.461Z</time>
      </trkpt>
      <trkpt lat="41.48603" lon="43.31092">
        <ele>1200.590182</ele>
        <time>2021-08-17T01:57:03.701Z</time>
      </trkpt>
      <trkpt lat="41.48621" lon="43.31139">
        <ele>1202.100736</ele>
        <time>2021-08-17T01:57:20.315Z</time>
      </trkpt>
      <trkpt lat="41.48639" lon="43.31448">
        <ele>1208.274895</ele>
        <time>2021-08-17T01:58:40.092Z</time>
      </trkpt>
      <trkpt lat="41.48673" lon="43.31518">
        <ele>1208.933439</ele>
        <time>2021-08-17T01:58:57.191Z</time>
      </trkpt>
      <trkpt lat="41.48725" lon="43.31593">
        <ele>1209.465543</ele>
        <time>2021-08-17T01:59:16.772Z</time>
      </trkpt>
      <trkpt lat="41.48738" lon="43.31629">
        <ele>1209.66937</ele>
        <time>2021-08-17T01:59:23.771Z</time>
      </trkpt>
      <trkpt lat="41.48808" lon="43.31768">
        <ele>1209.510033</ele>
        <time>2021-08-17T01:59:52.097Z</time>
      </trkpt>
      <trkpt lat="41.48818" lon="43.31803">
        <ele>1209.413894</ele>
        <time>2021-08-17T01:59:57.997Z</time>
      </trkpt>
      <trkpt lat="41.48816" lon="43.31858">
        <ele>1209.271595</ele>
        <time>2021-08-17T02:00:06.481Z</time>
      </trkpt>
      <trkpt lat="41.48791" lon="43.31965">
        <ele>1208.176838</ele>
        <time>2021-08-17T02:00:22.638Z</time>
      </trkpt>
      <trkpt lat="41.48785" lon="43.32011">
        <ele>1207.669915</ele>
        <time>2021-08-17T02:00:29.164Z</time>
      </trkpt>
      <trkpt lat="41.48778" lon="43.32114">
        <ele>1206.637718</ele>
        <time>2021-08-17T02:00:43.752Z</time>
      </trkpt>
      <trkpt lat="41.48782" lon="43.32158">
        <ele>1206.693978</ele>
        <time>2021-08-17T02:00:50.106Z</time>
      </trkpt>
      <trkpt lat="41.48803" lon="43.32201">
        <ele>1206.760913</ele>
        <time>2021-08-17T02:00:58.113Z</time>
      </trkpt>
      <trkpt lat="41.4884" lon="43.32257">
        <ele>1206.85811</ele>
        <time>2021-08-17T02:01:11.729Z</time>
      </trkpt>
      <trkpt lat="41.48855" lon="43.32331">
        <ele>1207.280888</ele>
        <time>2021-08-17T02:01:28.776Z</time>
      </trkpt>
      <trkpt lat="41.48848" lon="43.32465">
        <ele>1210.521707</ele>
        <time>2021-08-17T02:02:06.573Z</time>
      </trkpt>
      <trkpt lat="41.48832" lon="43.32585">
        <ele>1213.612872</ele>
        <time>2021-08-17T02:02:45.866Z</time>
      </trkpt>
      <trkpt lat="41.48833" lon="43.32649">
        <ele>1215.523726</ele>
        <time>2021-08-17T02:03:07.246Z</time>
      </trkpt>
      <trkpt lat="41.48848" lon="43.32685">
        <ele>1216.744595</ele>
        <time>2021-08-17T02:03:20.565Z</time>
      </trkpt>
      <trkpt lat="41.48866" lon="43.32713">
        <ele>1217.848274</ele>
        <time>2021-08-17T02:03:32.272Z</time>
      </trkpt>
      <trkpt lat="41.48895" lon="43.32742">
        <ele>1219.280095</ele>
        <time>2021-08-17T02:03:46.962Z</time>
      </trkpt>
      <trkpt lat="41.48947" lon="43.32771">
        <ele>1220.728237</ele>
        <time>2021-08-17T02:04:08.372Z</time>
      </trkpt>
      <trkpt lat="41.48967" lon="43.32794">
        <ele>1221.289702</ele>
        <time>2021-08-17T02:04:17.738Z</time>
      </trkpt>
      <trkpt lat="41.48974" lon="43.32818">
        <ele>1221.705184</ele>
        <time>2021-08-17T02:04:24.479Z</time>
      </trkpt>
      <trkpt lat="41.48979" lon="43.32852">
        <ele>1222.258503</ele>
        <time>2021-08-17T02:04:33.131Z</time>
      </trkpt>
      <trkpt lat="41.4897" lon="43.32998">
        <ele>1223.828115</ele>
        <time>2021-08-17T02:05:03.221Z</time>
      </trkpt>
      <trkpt lat="41.48973" lon="43.33035">
        <ele>1223.932362</ele>
        <time>2021-08-17T02:05:09.886Z</time>
      </trkpt>
      <trkpt lat="41.48989" lon="43.33107">
        <ele>1224.14329</ele>
        <time>2021-08-17T02:05:22.870Z</time>
      </trkpt>
      <trkpt lat="41.49031" lon="43.33221">
        <ele>1224.384839</ele>
        <time>2021-08-17T02:05:44.048Z</time>
      </trkpt>
      <trkpt lat="41.4904" lon="43.33258">
        <ele>1224.414431</ele>
        <time>2021-08-17T02:05:50.349Z</time>
      </trkpt>
      <trkpt lat="41.49058" lon="43.33389">
        <ele>1224.51709</ele>
        <time>2021-08-17T02:06:12.925Z</time>
      </trkpt>
      <trkpt lat="41.49104" lon="43.33518">
        <ele>1225.826864</ele>
        <time>2021-08-17T02:06:41.173Z</time>
      </trkpt>
      <trkpt lat="41.49121" lon="43.33649">
        <ele>1227.44176</ele>
        <time>2021-08-17T02:07:12.890Z</time>
      </trkpt>
      <trkpt lat="41.49122" lon="43.33699">
        <ele>1228.535123</ele>
        <time>2021-08-17T02:07:26.413Z</time>
      </trkpt>
      <trkpt lat="41.49114" lon="43.33788">
        <ele>1230.494474</ele>
        <time>2021-08-17T02:07:52.238Z</time>
      </trkpt>
      <trkpt lat="41.49078" lon="43.33913">
        <ele>1233.420397</ele>
        <time>2021-08-17T02:08:30.931Z</time>
      </trkpt>
      <trkpt lat="41.49064" lon="43.33984">
        <ele>1235.012634</ele>
        <time>2021-08-17T02:08:51.343Z</time>
      </trkpt>
      <trkpt lat="41.49063" lon="43.34066">
        <ele>1236.795625</ele>
        <time>2021-08-17T02:09:13.340Z</time>
      </trkpt>
      <trkpt lat="41.49058" lon="43.34093">
        <ele>1237.415478</ele>
        <time>2021-08-17T02:09:20.883Z</time>
      </trkpt>
      <trkpt lat="41.49003" lon="43.34214">
        <ele>1240.388456</ele>
        <time>2021-08-17T02:09:58.199Z</time>
      </trkpt>
      <trkpt lat="41.48973" lon="43.34357">
        <ele>1243.616432</ele>
        <time>2021-08-17T02:10:40.121Z</time>
      </trkpt>
      <trkpt lat="41.48947" lon="43.34442">
        <ele>1245.697138</ele>
        <time>2021-08-17T02:11:06.654Z</time>
      </trkpt>
      <trkpt lat="41.48917" lon="43.34512">
        <ele>1247.536156</ele>
        <time>2021-08-17T02:11:29.176Z</time>
      </trkpt>
      <trkpt lat="41.48868" lon="43.34594">
        <ele>1249.293971</ele>
        <time>2021-08-17T02:11:56.252Z</time>
      </trkpt>
      <trkpt lat="41.48858" lon="43.3462">
        <ele>1249.762822</ele>
        <time>2021-08-17T02:12:03.938Z</time>
      </trkpt>
      <trkpt lat="41.48856" lon="43.34645">
        <ele>1250.167983</ele>
        <time>2021-08-17T02:12:10.031Z</time>
      </trkpt>
      <trkpt lat="41.48871" lon="43.34742">
        <ele>1251.72856</ele>
        <time>2021-08-17T02:12:32.565Z</time>
      </trkpt>
      <trkpt lat="41.4887" lon="43.34817">
        <ele>1252.826321</ele>
        <time>2021-08-17T02:12:49.769Z</time>
      </trkpt>
      <trkpt lat="41.48864" lon="43.34841">
        <ele>1253.203811</ele>
        <time>2021-08-17T02:12:55.599Z</time>
      </trkpt>
      <trkpt lat="41.48818" lon="43.3494">
        <ele>1254.891593</ele>
        <time>2021-08-17T02:13:23.844Z</time>
      </trkpt>
      <trkpt lat="41.4881" lon="43.34976">
        <ele>1255.591646</ele>
        <time>2021-08-17T02:13:33.422Z</time>
      </trkpt>
      <trkpt lat="41.48804" lon="43.35048">
        <ele>1257.322606</ele>
        <time>2021-08-17T02:13:52.674Z</time>
      </trkpt>
      <trkpt lat="41.48777" lon="43.35175">
        <ele>1260.46261</ele>
        <time>2021-08-17T02:14:31.774Z</time>
      </trkpt>
      <trkpt lat="41.48765" lon="43.35267">
        <ele>1263.161248</ele>
        <time>2021-08-17T02:15:01.468Z</time>
      </trkpt>
      <trkpt lat="41.48753" lon="43.35323">
        <ele>1264.951648</ele>
        <time>2021-08-17T02:15:20.741Z</time>
      </trkpt>
      <trkpt lat="41.48754" lon="43.35375">
        <ele>1266.521856</ele>
        <time>2021-08-17T02:15:37.588Z</time>
      </trkpt>
      <trkpt lat="41.48766" lon="43.35448">
        <ele>1268.674589</ele>
        <time>2021-08-17T02:16:01.416Z</time>
      </trkpt>
      <trkpt lat="41.4876" lon="43.35481">
        <ele>1269.488905</ele>
        <time>2021-08-17T02:16:11.973Z</time>
      </trkpt>
      <trkpt lat="41.48718" lon="43.35548">
        <ele>1271.583527</ele>
        <time>2021-08-17T02:16:37.702Z</time>
      </trkpt>
      <trkpt lat="41.48618" lon="43.35652">
        <ele>1275.14159</ele>
        <time>2021-08-17T02:17:22.233Z</time>
      </trkpt>
      <trkpt lat="41.4857" lon="43.35716">
        <ele>1276.701841</ele>
        <time>2021-08-17T02:17:44.275Z</time>
      </trkpt>
      <trkpt lat="41.48496" lon="43.35904">
        <ele>1280.823409</ele>
        <time>2021-08-17T02:18:37.378Z</time>
      </trkpt>
      <trkpt lat="41.48429" lon="43.36034">
        <ele>1284.503923</ele>
        <time>2021-08-17T02:19:23.747Z</time>
      </trkpt>
      <trkpt lat="41.48422" lon="43.3606">
        <ele>1285.30506</ele>
        <time>2021-08-17T02:19:32.541Z</time>
      </trkpt>
      <trkpt lat="41.48429" lon="43.3613">
        <ele>1287.317085</ele>
        <time>2021-08-17T02:19:55.324Z</time>
      </trkpt>
      <trkpt lat="41.48478" lon="43.36252">
        <ele>1290.921584</ele>
        <time>2021-08-17T02:20:38.847Z</time>
      </trkpt>
      <trkpt lat="41.48487" lon="43.3632">
        <ele>1292.347106</ele>
        <time>2021-08-17T02:20:58.652Z</time>
      </trkpt>
      <trkpt lat="41.4848" lon="43.36376">
        <ele>1293.539322</ele>
        <time>2021-08-17T02:21:14.000Z</time>
      </trkpt>
      <trkpt lat="41.48422" lon="43.36545">
        <ele>1295.992997</ele>
        <time>2021-08-17T02:21:55.819Z</time>
      </trkpt>
      <trkpt lat="41.48417" lon="43.36607">
        <ele>1296.54172</ele>
        <time>2021-08-17T02:22:07.828Z</time>
      </trkpt>
      <trkpt lat="41.48422" lon="43.3668">
        <ele>1297.208018</ele>
        <time>2021-08-17T02:22:21.582Z</time>
      </trkpt>
      <trkpt lat="41.48467" lon="43.36857">
        <ele>1299.098887</ele>
        <time>2021-08-17T02:23:01.823Z</time>
      </trkpt>
      <trkpt lat="41.48472" lon="43.36887">
        <ele>1299.419829</ele>
        <time>2021-08-17T02:23:09.359Z</time>
      </trkpt>
      <trkpt lat="41.48475" lon="43.36936">
        <ele>1300.209619</ele>
        <time>2021-08-17T02:23:21.406Z</time>
      </trkpt>
      <trkpt lat="41.48483" lon="43.37176">
        <ele>1304.300927</ele>
        <time>2021-08-17T02:24:24.173Z</time>
      </trkpt>
      <trkpt lat="41.48481" lon="43.37229">
        <ele>1305.089249</ele>
        <time>2021-08-17T02:24:36.918Z</time>
      </trkpt>
      <trkpt lat="41.4847" lon="43.37337">
        <ele>1306.731086</ele>
        <time>2021-08-17T02:25:02.633Z</time>
      </trkpt>
      <trkpt lat="41.48464" lon="43.37373">
        <ele>1307.278597</ele>
        <time>2021-08-17T02:25:11.058Z</time>
      </trkpt>
      <trkpt lat="41.48439" lon="43.37451">
        <ele>1308.555449</ele>
        <time>2021-08-17T02:25:30.550Z</time>
      </trkpt>
      <trkpt lat="41.48417" lon="43.37503">
        <ele>1309.45772</ele>
        <time>2021-08-17T02:25:44.767Z</time>
      </trkpt>
      <trkpt lat="41.48382" lon="43.37569">
        <ele>1310.672754</ele>
        <time>2021-08-17T02:26:04.346Z</time>
      </trkpt>
      <trkpt lat="41.4837" lon="43.37615">
        <ele>1311.784465</ele>
        <time>2021-08-17T02:26:16.775Z</time>
      </trkpt>
      <trkpt lat="41.48361" lon="43.37833">
        <ele>1317.553769</ele>
        <time>2021-08-17T02:27:23.152Z</time>
      </trkpt>
      <trkpt lat="41.48348" lon="43.37907">
        <ele>1320.002626</ele>
        <time>2021-08-17T02:27:49.685Z</time>
      </trkpt>
      <trkpt lat="41.48325" lon="43.37958">
        <ele>1321.920306</ele>
        <time>2021-08-17T02:28:10.682Z</time>
      </trkpt>
      <trkpt lat="41.483" lon="43.37998">
        <ele>1323.620953</ele>
        <time>2021-08-17T02:28:28.840Z</time>
      </trkpt>
      <trkpt lat="41.48202" lon="43.38174">
        <ele>1328.295671</ele>
        <time>2021-08-17T02:29:32.003Z</time>
      </trkpt>
      <trkpt lat="41.48148" lon="43.38252">
        <ele>1329.569266</ele>
        <time>2021-08-17T02:29:51.667Z</time>
      </trkpt>
      <trkpt lat="41.48137" lon="43.38334">
        <ele>1329.787175</ele>
        <time>2021-08-17T02:30:05.997Z</time>
      </trkpt>
      <trkpt lat="41.48132" lon="43.38361">
        <ele>1329.859699</ele>
        <time>2021-08-17T02:30:10.540Z</time>
      </trkpt>
      <trkpt lat="41.48122" lon="43.38391">
        <ele>1329.944441</ele>
        <time>2021-08-17T02:30:15.973Z</time>
      </trkpt>
      <trkpt lat="41.48094" lon="43.38435">
        <ele>1330.164662</ele>
        <time>2021-08-17T02:30:25.724Z</time>
      </trkpt>
      <trkpt lat="41.4807" lon="43.38488">
        <ele>1331.002031</ele>
        <time>2021-08-17T02:30:37.548Z</time>
      </trkpt>
      <trkpt lat="41.48058" lon="43.38606">
        <ele>1332.612991</ele>
        <time>2021-08-17T02:31:05.405Z</time>
      </trkpt>
      <trkpt lat="41.4803" lon="43.38779">
        <ele>1336.898647</ele>
        <time>2021-08-17T02:31:58.568Z</time>
      </trkpt>
      <trkpt lat="41.48008" lon="43.38846">
        <ele>1339.006179</ele>
        <time>2021-08-17T02:32:23.012Z</time>
      </trkpt>
      <trkpt lat="41.47984" lon="43.38905">
        <ele>1340.897594</ele>
        <time>2021-08-17T02:32:45.265Z</time>
      </trkpt>
      <trkpt lat="41.47965" lon="43.38939">
        <ele>1342.036736</ele>
        <time>2021-08-17T02:32:58.909Z</time>
      </trkpt>
      <trkpt lat="41.47921" lon="43.38987">
        <ele>1344.057194</ele>
        <time>2021-08-17T02:33:21.974Z</time>
      </trkpt>
      <trkpt lat="41.47886" lon="43.39043">
        <ele>1346.01274</ele>
        <time>2021-08-17T02:33:42.577Z</time>
      </trkpt>
      <trkpt lat="41.47876" lon="43.39067">
        <ele>1346.723904</ele>
        <time>2021-08-17T02:33:49.784Z</time>
      </trkpt>
      <trkpt lat="41.47834" lon="43.39244">
        <ele>1350.864504</ele>
        <time>2021-08-17T02:34:40.090Z</time>
      </trkpt>
      <trkpt lat="41.47817" lon="43.39282">
        <ele>1351.854104</ele>
        <time>2021-08-17T02:34:52.833Z</time>
      </trkpt>
      <trkpt lat="41.47713" lon="43.39454">
        <ele>1357.635151</ele>
        <time>2021-08-17T02:36:00.678Z</time>
      </trkpt>
      <trkpt lat="41.47685" lon="43.39484">
        <ele>1358.73232</ele>
        <time>2021-08-17T02:36:15.150Z</time>
      </trkpt>
      <trkpt lat="41.47505" lon="43.39531">
        <ele>1363.349017</ele>
        <time>2021-08-17T02:37:17.306Z</time>
      </trkpt>
      <trkpt lat="41.47476" lon="43.39554">
        <ele>1364.093474</ele>
        <time>2021-08-17T02:37:27.757Z</time>
      </trkpt>
      <trkpt lat="41.47424" lon="43.39623">
        <ele>1365.69701</ele>
        <time>2021-08-17T02:37:50.908Z</time>
      </trkpt>
      <trkpt lat="41.47265" lon="43.39791">
        <ele>1371.031586</ele>
        <time>2021-08-17T02:39:03.649Z</time>
      </trkpt>
      <trkpt lat="41.47174" lon="43.3992">
        <ele>1374.698276</ele>
        <time>2021-08-17T02:39:53.605Z</time>
      </trkpt>
      <trkpt lat="41.47066" lon="43.40054">
        <ele>1378.364396</ele>
        <time>2021-08-17T02:40:43.902Z</time>
      </trkpt>
      <trkpt lat="41.47026" lon="43.40121">
        <ele>1379.753202</ele>
        <time>2021-08-17T02:41:04.221Z</time>
      </trkpt>
      <trkpt lat="41.46997" lon="43.40187">
        <ele>1381.080047</ele>
        <time>2021-08-17T02:41:22.925Z</time>
      </trkpt>
      <trkpt lat="41.46932" lon="43.40448">
        <ele>1386.968891</ele>
        <time>2021-08-17T02:42:36.692Z</time>
      </trkpt>
      <trkpt lat="41.46877" lon="43.40599">
        <ele>1391.817247</ele>
        <time>2021-08-17T02:43:30.483Z</time>
      </trkpt>
      <trkpt lat="41.46869" lon="43.40647">
        <ele>1393.335384</ele>
        <time>2021-08-17T02:43:47.700Z</time>
      </trkpt>
      <trkpt lat="41.4687" lon="43.40765">
        <ele>1397.016205</ele>
        <time>2021-08-17T02:44:27.201Z</time>
      </trkpt>
      <trkpt lat="41.46865" lon="43.40801">
        <ele>1398.176845</ele>
        <time>2021-08-17T02:44:38.970Z</time>
      </trkpt>
      <trkpt lat="41.46846" lon="43.40863">
        <ele>1400.230796</ele>
        <time>2021-08-17T02:44:59.544Z</time>
      </trkpt>
      <trkpt lat="41.46815" lon="43.40922">
        <ele>1402.026562</ele>
        <time>2021-08-17T02:45:20.662Z</time>
      </trkpt>
      <trkpt lat="41.46752" lon="43.4099">
        <ele>1404.704086</ele>
        <time>2021-08-17T02:45:50.949Z</time>
      </trkpt>
      <trkpt lat="41.46732" lon="43.4102">
        <ele>1405.71228</ele>
        <time>2021-08-17T02:46:02.395Z</time>
      </trkpt>
      <trkpt lat="41.46717" lon="43.41053">
        <ele>1406.891387</ele>
        <time>2021-08-17T02:46:13.600Z</time>
      </trkpt>
      <trkpt lat="41.46705" lon="43.41119">
        <ele>1409.159012</ele>
        <time>2021-08-17T02:46:35.222Z</time>
      </trkpt>
      <trkpt lat="41.467" lon="43.41182">
        <ele>1411.247286</ele>
        <time>2021-08-17T02:46:56.701Z</time>
      </trkpt>
      <trkpt lat="41.46671" lon="43.41274">
        <ele>1414.582973</ele>
        <time>2021-08-17T02:47:32.629Z</time>
      </trkpt>
      <trkpt lat="41.46658" lon="43.41304">
        <ele>1415.82853</ele>
        <time>2021-08-17T02:47:45.450Z</time>
      </trkpt>
      <trkpt lat="41.46589" lon="43.4142">
        <ele>1421.121675</ele>
        <time>2021-08-17T02:48:38.313Z</time>
      </trkpt>
      <trkpt lat="41.4655" lon="43.41532">
        <ele>1424.205359</ele>
        <time>2021-08-17T02:49:15.793Z</time>
      </trkpt>
      <trkpt lat="41.46518" lon="43.41598">
        <ele>1425.781998</ele>
        <time>2021-08-17T02:49:36.027Z</time>
      </trkpt>
      <trkpt lat="41.46463" lon="43.4178">
        <ele>1428.677713</ele>
        <time>2021-08-17T02:50:19.917Z</time>
      </trkpt>
      <trkpt lat="41.46427" lon="43.41863">
        <ele>1429.754116</ele>
        <time>2021-08-17T02:50:40.703Z</time>
      </trkpt>
      <trkpt lat="41.46423" lon="43.41895">
        <ele>1430.158852</ele>
        <time>2021-08-17T02:50:48.207Z</time>
      </trkpt>
      <trkpt lat="41.46438" lon="43.42025">
        <ele>1432.213789</ele>
        <time>2021-08-17T02:51:20.247Z</time>
      </trkpt>
      <trkpt lat="41.46465" lon="43.42157">
        <ele>1434.58686</ele>
        <time>2021-08-17T02:51:54.357Z</time>
      </trkpt>
      <trkpt lat="41.46468" lon="43.42301">
        <ele>1437.80628</ele>
        <time>2021-08-17T02:52:34.905Z</time>
      </trkpt>
      <trkpt lat="41.46486" lon="43.42367">
        <ele>1439.463836</ele>
        <time>2021-08-17T02:52:55.467Z</time>
      </trkpt>
      <trkpt lat="41.46545" lon="43.42434">
        <ele>1442.546662</ele>
        <time>2021-08-17T02:53:26.118Z</time>
      </trkpt>
      <trkpt lat="41.46561" lon="43.42463">
        <ele>1443.631149</ele>
        <time>2021-08-17T02:53:37.834Z</time>
      </trkpt>
      <trkpt lat="41.46601" lon="43.4259">
        <ele>1447.981653</ele>
        <time>2021-08-17T02:54:24.787Z</time>
      </trkpt>
      <trkpt lat="41.46623" lon="43.42721">
        <ele>1452.608414</ele>
        <time>2021-08-17T02:55:09.986Z</time>
      </trkpt>
      <trkpt lat="41.46661" lon="43.42845">
        <ele>1456.999925</ele>
        <time>2021-08-17T02:55:56.827Z</time>
      </trkpt>
      <trkpt lat="41.46672" lon="43.42914">
        <ele>1459.202178</ele>
        <time>2021-08-17T02:56:19.947Z</time>
      </trkpt>
      <trkpt lat="41.46678" lon="43.43072">
        <ele>1463.705418</ele>
        <time>2021-08-17T02:57:07.294Z</time>
      </trkpt>
      <trkpt lat="41.4669" lon="43.43127">
        <ele>1465.099406</ele>
        <time>2021-08-17T02:57:23.480Z</time>
      </trkpt>
      <trkpt lat="41.46736" lon="43.43251">
        <ele>1468.532897</ele>
        <time>2021-08-17T02:58:03.170Z</time>
      </trkpt>
      <trkpt lat="41.4674" lon="43.43295">
        <ele>1469.625571</ele>
        <time>2021-08-17T02:58:15.933Z</time>
      </trkpt>
      <trkpt lat="41.46731" lon="43.43335">
        <ele>1470.637917</ele>
        <time>2021-08-17T02:58:27.996Z</time>
      </trkpt>
      <trkpt lat="41.46672" lon="43.43432">
        <ele>1473.704695</ele>
        <time>2021-08-17T02:59:04.325Z</time>
      </trkpt>
      <trkpt lat="41.4665" lon="43.43507">
        <ele>1475.778056</ele>
        <time>2021-08-17T02:59:27.693Z</time>
      </trkpt>
      <trkpt lat="41.46637" lon="43.43594">
        <ele>1478.095534</ele>
        <time>2021-08-17T02:59:54.002Z</time>
      </trkpt>
      <trkpt lat="41.46642" lon="43.43713">
        <ele>1481.419293</ele>
        <time>2021-08-17T03:00:30.382Z</time>
      </trkpt>
      <trkpt lat="41.46641" lon="43.43781">
        <ele>1483.597124</ele>
        <time>2021-08-17T03:00:52.089Z</time>
      </trkpt>
      <trkpt lat="41.46623" lon="43.43837">
        <ele>1485.533708</ele>
        <time>2021-08-17T03:01:12.615Z</time>
      </trkpt>
      <trkpt lat="41.46601" lon="43.43871">
        <ele>1486.985481</ele>
        <time>2021-08-17T03:01:28.185Z</time>
      </trkpt>
      <trkpt lat="41.4657" lon="43.43896">
        <ele>1488.507753</ele>
        <time>2021-08-17T03:01:44.067Z</time>
      </trkpt>
      <trkpt lat="41.46497" lon="43.43917">
        <ele>1491.770152</ele>
        <time>2021-08-17T03:02:17.143Z</time>
      </trkpt>
      <trkpt lat="41.46471" lon="43.43941">
        <ele>1493.121542</ele>
        <time>2021-08-17T03:02:30.820Z</time>
      </trkpt>
      <trkpt lat="41.46466" lon="43.43958">
        <ele>1493.746764</ele>
        <time>2021-08-17T03:02:36.940Z</time>
      </trkpt>
      <trkpt lat="41.46463" lon="43.43981">
        <ele>1494.485598</ele>
        <time>2021-08-17T03:02:44.609Z</time>
      </trkpt>
      <trkpt lat="41.46474" lon="43.44006">
        <ele>1495.440895</ele>
        <time>2021-08-17T03:02:54.194Z</time>
      </trkpt>
      <trkpt lat="41.46484" lon="43.44065">
        <ele>1497.177168</ele>
        <time>2021-08-17T03:03:14.158Z</time>
      </trkpt>
      <trkpt lat="41.46487" lon="43.44099">
        <ele>1498.143673</ele>
        <time>2021-08-17T03:03:24.854Z</time>
      </trkpt>
      <trkpt lat="41.46481" lon="43.44117">
        <ele>1498.702083</ele>
        <time>2021-08-17T03:03:31.134Z</time>
      </trkpt>
      <trkpt lat="41.46466" lon="43.44135">
        <ele>1499.451668</ele>
        <time>2021-08-17T03:03:38.947Z</time>
      </trkpt>
      <trkpt lat="41.46439" lon="43.44153">
        <ele>1500.59946</ele>
        <time>2021-08-17T03:03:51.232Z</time>
      </trkpt>
      <trkpt lat="41.4642" lon="43.44188">
        <ele>1501.813152</ele>
        <time>2021-08-17T03:04:04.179Z</time>
      </trkpt>
      <trkpt lat="41.46407" lon="43.44228">
        <ele>1502.806577</ele>
        <time>2021-08-17T03:04:17.081Z</time>
      </trkpt>
      <trkpt lat="41.46385" lon="43.44258">
        <ele>1503.580158</ele>
        <time>2021-08-17T03:04:29.252Z</time>
      </trkpt>
      <trkpt lat="41.4627" lon="43.44356">
        <ele>1506.828923</ele>
        <time>2021-08-17T03:05:14.811Z</time>
      </trkpt>
      <trkpt lat="41.46182" lon="43.44479">
        <ele>1508.465693</ele>
        <time>2021-08-17T03:05:50.144Z</time>
      </trkpt>
      <trkpt lat="41.46095" lon="43.4455">
        <ele>1510.090716</ele>
        <time>2021-08-17T03:06:18.535Z</time>
      </trkpt>
      <trkpt lat="41.46059" lon="43.44568">
        <ele>1510.804998</ele>
        <time>2021-08-17T03:06:30.263Z</time>
      </trkpt>
      <trkpt lat="41.46048" lon="43.44573">
        <ele>1511.012089</ele>
        <time>2021-08-17T03:06:34.041Z</time>
      </trkpt>
      <trkpt lat="41.46029" lon="43.44586">
        <ele>1511.402138</ele>
        <time>2021-08-17T03:06:40.673Z</time>
      </trkpt>
      <trkpt lat="41.45983" lon="43.44637">
        <ele>1512.582932</ele>
        <time>2021-08-17T03:07:01.354Z</time>
      </trkpt>
      <trkpt lat="41.45949" lon="43.44693">
        <ele>1514.177422</ele>
        <time>2021-08-17T03:07:21.626Z</time>
      </trkpt>
      <trkpt lat="41.45836" lon="43.44852">
        <ele>1518.742742</ele>
        <time>2021-08-17T03:08:23.471Z</time>
      </trkpt>
      <trkpt lat="41.4578" lon="43.4495">
        <ele>1520.94461</ele>
        <time>2021-08-17T03:08:54.117Z</time>
      </trkpt>
      <trkpt lat="41.45765" lon="43.44999">
        <ele>1521.888235</ele>
        <time>2021-08-17T03:09:06.902Z</time>
      </trkpt>
      <trkpt lat="41.45757" lon="43.45054">
        <ele>1523.019752</ele>
        <time>2021-08-17T03:09:20.179Z</time>
      </trkpt>
      <trkpt lat="41.4576" lon="43.45106">
        <ele>1524.091508</ele>
        <time>2021-08-17T03:09:33.273Z</time>
      </trkpt>
      <trkpt lat="41.45799" lon="43.45243">
        <ele>1527.203683</ele>
        <time>2021-08-17T03:10:13.954Z</time>
      </trkpt>
      <trkpt lat="41.45835" lon="43.45403">
        <ele>1532.536474</ele>
        <time>2021-08-17T03:11:09.530Z</time>
      </trkpt>
      <trkpt lat="41.45847" lon="43.45509">
        <ele>1536.126682</ele>
        <time>2021-08-17T03:11:46.266Z</time>
      </trkpt>
      <trkpt lat="41.45853" lon="43.45566">
        <ele>1538.154877</ele>
        <time>2021-08-17T03:12:05.569Z</time>
      </trkpt>
      <trkpt lat="41.45863" lon="43.45806">
        <ele>1547.782085</ele>
        <time>2021-08-17T03:13:28.993Z</time>
      </trkpt>
      <trkpt lat="41.45857" lon="43.45857">
        <ele>1550.182697</ele>
        <time>2021-08-17T03:13:50.688Z</time>
      </trkpt>
      <trkpt lat="41.45845" lon="43.45893">
        <ele>1551.978597</ele>
        <time>2021-08-17T03:14:07.630Z</time>
      </trkpt>
      <trkpt lat="41.45791" lon="43.46005">
        <ele>1558.312563</ele>
        <time>2021-08-17T03:15:09.209Z</time>
      </trkpt>
      <trkpt lat="41.45755" lon="43.46121">
        <ele>1564.351952</ele>
        <time>2021-08-17T03:16:01.676Z</time>
      </trkpt>
      <trkpt lat="41.45754" lon="43.46158">
        <ele>1565.785854</ele>
        <time>2021-08-17T03:16:14.396Z</time>
      </trkpt>
      <trkpt lat="41.45823" lon="43.46424">
        <ele>1572.998296</ele>
        <time>2021-08-17T03:17:19.457Z</time>
      </trkpt>
      <trkpt lat="41.4584" lon="43.46494">
        <ele>1577.198636</ele>
        <time>2021-08-17T03:17:48.149Z</time>
      </trkpt>
      <trkpt lat="41.45844" lon="43.46519">
        <ele>1578.679582</ele>
        <time>2021-08-17T03:18:01.354Z</time>
      </trkpt>
      <trkpt lat="41.45844" lon="43.4653">
        <ele>1579.308461</ele>
        <time>2021-08-17T03:18:06.942Z</time>
      </trkpt>
      <trkpt lat="41.45842" lon="43.46545">
        <ele>1580.13487</ele>
        <time>2021-08-17T03:18:14.283Z</time>
      </trkpt>
      <trkpt lat="41.4592" lon="43.46543">
        <ele>1588.874319</ele>
        <time>2021-08-17T03:19:21.031Z</time>
      </trkpt>
      <trkpt lat="41.4594" lon="43.46556">
        <ele>1592.758759</ele>
        <time>2021-08-17T03:19:44.677Z</time>
      </trkpt>
      <trkpt lat="41.4592" lon="43.46585">
        <ele>1597.785481</ele>
        <time>2021-08-17T03:20:17.873Z</time>
      </trkpt>
      <trkpt lat="41.4589" lon="43.46604">
        <ele>1603.358948</ele>
        <time>2021-08-17T03:20:57.015Z</time>
      </trkpt>
      <trkpt lat="41.45889" lon="43.46616">
        <ele>1604.804512</ele>
        <time>2021-08-17T03:21:07.758Z</time>
      </trkpt>
      <trkpt lat="41.45907" lon="43.46609">
        <ele>1608.018184</ele>
        <time>2021-08-17T03:21:30.440Z</time>
      </trkpt>
      <trkpt lat="41.45951" lon="43.46612">
        <ele>1615.361599</ele>
        <time>2021-08-17T03:22:22.343Z</time>
      </trkpt>
      <trkpt lat="41.45994" lon="43.46627">
        <ele>1622.634406</ele>
        <time>2021-08-17T03:23:13.589Z</time>
      </trkpt>
      <trkpt lat="41.45948" lon="43.46662">
        <ele>1631.260838</ele>
        <time>2021-08-17T03:24:09.164Z</time>
      </trkpt>
      <trkpt lat="41.45943" lon="43.46673">
        <ele>1632.840234</ele>
        <time>2021-08-17T03:24:19.060Z</time>
      </trkpt>
      <trkpt lat="41.45992" lon="43.46673">
        <ele>1640.697078</ele>
        <time>2021-08-17T03:25:05.921Z</time>
      </trkpt>
      <trkpt lat="41.4603" lon="43.46652">
        <ele>1646.012826</ele>
        <time>2021-08-17T03:25:45.236Z</time>
      </trkpt>
      <trkpt lat="41.46058" lon="43.46657">
        <ele>1649.078669</ele>
        <time>2021-08-17T03:26:09.874Z</time>
      </trkpt>
      <trkpt lat="41.46074" lon="43.46676">
        <ele>1651.436581</ele>
        <time>2021-08-17T03:26:28.496Z</time>
      </trkpt>
      <trkpt lat="41.46101" lon="43.46681">
        <ele>1654.383648</ele>
        <time>2021-08-17T03:26:49.822Z</time>
      </trkpt>
      <trkpt lat="41.46116" lon="43.4671">
        <ele>1657.273495</ele>
        <time>2021-08-17T03:27:08.075Z</time>
      </trkpt>
      <trkpt lat="41.46118" lon="43.4673">
        <ele>1658.850752</ele>
        <time>2021-08-17T03:27:18.665Z</time>
      </trkpt>
      <trkpt lat="41.46109" lon="43.4674">
        <ele>1660.086774</ele>
        <time>2021-08-17T03:27:24.936Z</time>
      </trkpt>
      <trkpt lat="41.46102" lon="43.46743">
        <ele>1660.920463</ele>
        <time>2021-08-17T03:27:29.595Z</time>
      </trkpt>
      <trkpt lat="41.46086" lon="43.46748">
        <ele>1662.699437</ele>
        <time>2021-08-17T03:27:40.862Z</time>
      </trkpt>
      <trkpt lat="41.46081" lon="43.46777">
        <ele>1663.90001</ele>
        <time>2021-08-17T03:27:53.314Z</time>
      </trkpt>
      <trkpt lat="41.46082" lon="43.46799">
        <ele>1664.741015</ele>
        <time>2021-08-17T03:28:03.792Z</time>
      </trkpt>
      <trkpt lat="41.46075" lon="43.46833">
        <ele>1666.07743</ele>
        <time>2021-08-17T03:28:18.026Z</time>
      </trkpt>
      <trkpt lat="41.46089" lon="43.46854">
        <ele>1667.141171</ele>
        <time>2021-08-17T03:28:28.130Z</time>
      </trkpt>
      <trkpt lat="41.46085" lon="43.46867">
        <ele>1667.669229</ele>
        <time>2021-08-17T03:28:33.371Z</time>
      </trkpt>
      <trkpt lat="41.46084" lon="43.46887">
        <ele>1668.446838</ele>
        <time>2021-08-17T03:28:41.309Z</time>
      </trkpt>
      <trkpt lat="41.46094" lon="43.46915">
        <ele>1669.646939</ele>
        <time>2021-08-17T03:28:50.845Z</time>
      </trkpt>
      <trkpt lat="41.46078" lon="43.46927">
        <ele>1670.546599</ele>
        <time>2021-08-17T03:28:56.977Z</time>
      </trkpt>
      <trkpt lat="41.4606" lon="43.4696">
        <ele>1672.079694</ele>
        <time>2021-08-17T03:29:08.784Z</time>
      </trkpt>
      <trkpt lat="41.46054" lon="43.46972">
        <ele>1672.311254</ele>
        <time>2021-08-17T03:29:12.428Z</time>
      </trkpt>
      <trkpt lat="41.46046" lon="43.46986">
        <ele>1672.588357</ele>
        <time>2021-08-17T03:29:17.581Z</time>
      </trkpt>
      <trkpt lat="41.46019" lon="43.47058">
        <ele>1673.912907</ele>
        <time>2021-08-17T03:29:38.172Z</time>
      </trkpt>
      <trkpt lat="41.46014" lon="43.47064">
        <ele>1674.049061</ele>
        <time>2021-08-17T03:29:40.341Z</time>
      </trkpt>
      <trkpt lat="41.45998" lon="43.47088">
        <ele>1674.581292</ele>
        <time>2021-08-17T03:29:48.291Z</time>
      </trkpt>
      <trkpt lat="41.45979" lon="43.47117">
        <ele>1675.197136</ele>
        <time>2021-08-17T03:29:57.162Z</time>
      </trkpt>
      <trkpt lat="41.45945" lon="43.47179">
        <ele>1676.372255</ele>
        <time>2021-08-17T03:30:14.761Z</time>
      </trkpt>
      <trkpt lat="41.45921" lon="43.47222">
        <ele>1677.086196</ele>
        <time>2021-08-17T03:30:27.197Z</time>
      </trkpt>
      <trkpt lat="41.45896" lon="43.47269">
        <ele>1677.880556</ele>
        <time>2021-08-17T03:30:41.304Z</time>
      </trkpt>
      <trkpt lat="41.45873" lon="43.47305">
        <ele>1678.513814</ele>
        <time>2021-08-17T03:30:52.425Z</time>
      </trkpt>
      <trkpt lat="41.45812" lon="43.47403">
        <ele>1679.69683</ele>
        <time>2021-08-17T03:31:21.661Z</time>
      </trkpt>
      <trkpt lat="41.45792" lon="43.47435">
        <ele>1679.978094</ele>
        <time>2021-08-17T03:31:30.726Z</time>
      </trkpt>
      <trkpt lat="41.4575" lon="43.47503">
        <ele>1680.554236</ele>
        <time>2021-08-17T03:31:47.714Z</time>
      </trkpt>
      <trkpt lat="41.45679" lon="43.4762">
        <ele>1680.026886</ele>
        <time>2021-08-17T03:32:11.336Z</time>
      </trkpt>
      <trkpt lat="41.45665" lon="43.47644">
        <ele>1679.837738</ele>
        <time>2021-08-17T03:32:15.675Z</time>
      </trkpt>
      <trkpt lat="41.45662" lon="43.47654">
        <ele>1679.76708</ele>
        <time>2021-08-17T03:32:17.281Z</time>
      </trkpt>
      <trkpt lat="41.45557" lon="43.47956">
        <ele>1677.853463</ele>
        <time>2021-08-17T03:33:05.676Z</time>
      </trkpt>
      <trkpt lat="41.45535" lon="43.48001">
        <ele>1678.922594</ele>
        <time>2021-08-17T03:33:18.776Z</time>
      </trkpt>
      <trkpt lat="41.45526" lon="43.4802">
        <ele>1679.366835</ele>
        <time>2021-08-17T03:33:24.723Z</time>
      </trkpt>
      <trkpt lat="41.45518" lon="43.48079">
        <ele>1680.548145</ele>
        <time>2021-08-17T03:33:41.610Z</time>
      </trkpt>
      <trkpt lat="41.45503" lon="43.48132">
        <ele>1681.666645</ele>
        <time>2021-08-17T03:33:59.608Z</time>
      </trkpt>
      <trkpt lat="41.45494" lon="43.48169">
        <ele>1682.451968</ele>
        <time>2021-08-17T03:34:13.514Z</time>
      </trkpt>
      <trkpt lat="41.45484" lon="43.48214">
        <ele>1683.547755</ele>
        <time>2021-08-17T03:34:30.525Z</time>
      </trkpt>
      <trkpt lat="41.45456" lon="43.4829">
        <ele>1685.505495</ele>
        <time>2021-08-17T03:34:56.723Z</time>
      </trkpt>
      <trkpt lat="41.45455" lon="43.48294">
        <ele>1685.591656</ele>
        <time>2021-08-17T03:34:58.725Z</time>
      </trkpt>
      <trkpt lat="41.45449" lon="43.48327">
        <ele>1686.378327</ele>
        <time>2021-08-17T03:35:07.283Z</time>
      </trkpt>
      <trkpt lat="41.45456" lon="43.48369">
        <ele>1687.381885</ele>
        <time>2021-08-17T03:35:17.842Z</time>
      </trkpt>
      <trkpt lat="41.45457" lon="43.48399">
        <ele>1687.939061</ele>
        <time>2021-08-17T03:35:24.784Z</time>
      </trkpt>
      <trkpt lat="41.45442" lon="43.48417">
        <ele>1687.969941</ele>
        <time>2021-08-17T03:35:29.804Z</time>
      </trkpt>
      <trkpt lat="41.45426" lon="43.48524">
        <ele>1688.093591</ele>
        <time>2021-08-17T03:35:52.595Z</time>
      </trkpt>
      <trkpt lat="41.45408" lon="43.48582">
        <ele>1688.164564</ele>
        <time>2021-08-17T03:36:02.635Z</time>
      </trkpt>
      <trkpt lat="41.45394" lon="43.48618">
        <ele>1688.127682</ele>
        <time>2021-08-17T03:36:08.811Z</time>
      </trkpt>
      <trkpt lat="41.4536" lon="43.48703">
        <ele>1687.055773</ele>
        <time>2021-08-17T03:36:22.919Z</time>
      </trkpt>
      <trkpt lat="41.45355" lon="43.48717">
        <ele>1686.890636</ele>
        <time>2021-08-17T03:36:25.133Z</time>
      </trkpt>
      <trkpt lat="41.45349" lon="43.48723">
        <ele>1686.782477</ele>
        <time>2021-08-17T03:36:26.590Z</time>
      </trkpt>
      <trkpt lat="41.45342" lon="43.48731">
        <ele>1686.637647</ele>
        <time>2021-08-17T03:36:28.372Z</time>
      </trkpt>
      <trkpt lat="41.45327" lon="43.48781">
        <ele>1686.043408</ele>
        <time>2021-08-17T03:36:36.456Z</time>
      </trkpt>
      <trkpt lat="41.45277" lon="43.48816">
        <ele>1685.442511</ele>
        <time>2021-08-17T03:36:47.946Z</time>
      </trkpt>
      <trkpt lat="41.45257" lon="43.48825">
        <ele>1685.356061</ele>
        <time>2021-08-17T03:36:52.254Z</time>
      </trkpt>
      <trkpt lat="41.45248" lon="43.48973">
        <ele>1684.915166</ele>
        <time>2021-08-17T03:37:15.468Z</time>
      </trkpt>
      <trkpt lat="41.45212" lon="43.48965">
        <ele>1684.94067</ele>
        <time>2021-08-17T03:37:25.233Z</time>
      </trkpt>
      <trkpt lat="41.44952" lon="43.48939">
        <ele>1687.883944</ele>
        <time>2021-08-17T03:38:40.703Z</time>
      </trkpt>
      <trkpt lat="41.44263" lon="43.48872">
        <ele>1692.684991</ele>
        <time>2021-08-17T03:41:36.418Z</time>
      </trkpt>
      <trkpt lat="41.43105" lon="43.48746">
        <ele>1701.599908</ele>
        <time>2021-08-17T03:46:39.297Z</time>
      </trkpt>
      <trkpt lat="41.42744" lon="43.48712">
        <ele>1703.82584</ele>
        <time>2021-08-17T03:48:13.490Z</time>
      </trkpt>
      <trkpt lat="41.42559" lon="43.48687">
        <ele>1702.283226</ele>
        <time>2021-08-17T03:48:50.806Z</time>
      </trkpt>
      <trkpt lat="41.4199" lon="43.48558">
        <ele>1689.709992</ele>
        <time>2021-08-17T03:50:35.524Z</time>
      </trkpt>
      <trkpt lat="41.41809" lon="43.48516">
        <ele>1682.59692</ele>
        <time>2021-08-17T03:51:05.323Z</time>
      </trkpt>
      <trkpt lat="41.41739" lon="43.48497">
        <ele>1680.846194</ele>
        <time>2021-08-17T03:51:16.920Z</time>
      </trkpt>
      <trkpt lat="41.41721" lon="43.48487">
        <ele>1680.366105</ele>
        <time>2021-08-17T03:51:19.972Z</time>
      </trkpt>
      <trkpt lat="41.41719" lon="43.48521">
        <ele>1679.740757</ele>
        <time>2021-08-17T03:51:25.304Z</time>
      </trkpt>
      <trkpt lat="41.41746" lon="43.48793">
        <ele>1681.739804</ele>
        <time>2021-08-17T03:52:32.881Z</time>
      </trkpt>
      <trkpt lat="41.41754" lon="43.4888">
        <ele>1683.825009</ele>
        <time>2021-08-17T03:53:02.803Z</time>
      </trkpt>
      <trkpt lat="41.41764" lon="43.48987">
        <ele>1686.916662</ele>
        <time>2021-08-17T03:53:40.232Z</time>
      </trkpt>
      <trkpt lat="41.4177" lon="43.49039">
        <ele>1688.410822</ele>
        <time>2021-08-17T03:53:57.378Z</time>
      </trkpt>
      <trkpt lat="41.41775" lon="43.49101">
        <ele>1690.048054</ele>
        <time>2021-08-17T03:54:16.406Z</time>
      </trkpt>
      <trkpt lat="41.41777" lon="43.49125">
        <ele>1690.63715</ele>
        <time>2021-08-17T03:54:23.756Z</time>
      </trkpt>
      <trkpt lat="41.41801" lon="43.49376">
        <ele>1696.801062</ele>
        <time>2021-08-17T03:55:41.874Z</time>
      </trkpt>
      <trkpt lat="41.41801" lon="43.49386">
        <ele>1697.047855</ele>
        <time>2021-08-17T03:55:45.439Z</time>
      </trkpt>
      <trkpt lat="41.4179" lon="43.49408">
        <ele>1697.654633</ele>
        <time>2021-08-17T03:55:53.904Z</time>
      </trkpt>
      <trkpt lat="41.41761" lon="43.4944">
        <ele>1698.796078</ele>
        <time>2021-08-17T03:56:08.528Z</time>
      </trkpt>
      <trkpt lat="41.41735" lon="43.49478">
        <ele>1699.98401</ele>
        <time>2021-08-17T03:56:23.151Z</time>
      </trkpt>
      <trkpt lat="41.41711" lon="43.49529">
        <ele>1700.321351</ele>
        <time>2021-08-17T03:56:39.185Z</time>
      </trkpt>
      <trkpt lat="41.41698" lon="43.49554">
        <ele>1700.15688</ele>
        <time>2021-08-17T03:56:47.094Z</time>
      </trkpt>
      <trkpt lat="41.41694" lon="43.49553">
        <ele>1700.131828</ele>
        <time>2021-08-17T03:56:47.877Z</time>
      </trkpt>
      <trkpt lat="41.41685" lon="43.4956">
        <ele>1700.058438</ele>
        <time>2021-08-17T03:56:50.187Z</time>
      </trkpt>
      <trkpt lat="41.41633" lon="43.49578">
        <ele>1699.669505</ele>
        <time>2021-08-17T03:57:01.971Z</time>
      </trkpt>
      <trkpt lat="41.41628" lon="43.49593">
        <ele>1699.580639</ele>
        <time>2021-08-17T03:57:04.502Z</time>
      </trkpt>
      <trkpt lat="41.41627" lon="43.49613">
        <ele>1699.468888</ele>
        <time>2021-08-17T03:57:07.486Z</time>
      </trkpt>
      <trkpt lat="41.41614" lon="43.4963">
        <ele>1699.33981</ele>
        <time>2021-08-17T03:57:10.436Z</time>
      </trkpt>
      <trkpt lat="41.41602" lon="43.4965">
        <ele>1698.996727</ele>
        <time>2021-08-17T03:57:13.977Z</time>
      </trkpt>
      <trkpt lat="41.41579" lon="43.4968">
        <ele>1697.137237</ele>
        <time>2021-08-17T03:57:19.310Z</time>
      </trkpt>
      <trkpt lat="41.41563" lon="43.49724">
        <ele>1694.99101</ele>
        <time>2021-08-17T03:57:25.335Z</time>
      </trkpt>
      <trkpt lat="41.41554" lon="43.4972">
        <ele>1694.423297</ele>
        <time>2021-08-17T03:57:26.768Z</time>
      </trkpt>
      <trkpt lat="41.41539" lon="43.49717">
        <ele>1693.554978</ele>
        <time>2021-08-17T03:57:29.335Z</time>
      </trkpt>
      <trkpt lat="41.41526" lon="43.4972">
        <ele>1692.775779</ele>
        <time>2021-08-17T03:57:31.527Z</time>
      </trkpt>
      <trkpt lat="41.41518" lon="43.49721">
        <ele>1692.33022</ele>
        <time>2021-08-17T03:57:32.634Z</time>
      </trkpt>
      <trkpt lat="41.41475" lon="43.4972">
        <ele>1689.831105</ele>
        <time>2021-08-17T03:57:39.465Z</time>
      </trkpt>
      <trkpt lat="41.41449" lon="43.49729">
        <ele>1688.750356</ele>
        <time>2021-08-17T03:57:43.613Z</time>
      </trkpt>
      <trkpt lat="41.41423" lon="43.49742">
        <ele>1688.510378</ele>
        <time>2021-08-17T03:57:48.570Z</time>
      </trkpt>
      <trkpt lat="41.41356" lon="43.49795">
        <ele>1687.846691</ele>
        <time>2021-08-17T03:58:02.884Z</time>
      </trkpt>
      <trkpt lat="41.4134" lon="43.498">
        <ele>1687.7047</ele>
        <time>2021-08-17T03:58:10.432Z</time>
      </trkpt>
      <trkpt lat="41.41323" lon="43.49815">
        <ele>1687.532233</ele>
        <time>2021-08-17T03:58:17.269Z</time>
      </trkpt>
      <trkpt lat="41.41316" lon="43.49825">
        <ele>1687.444429</ele>
        <time>2021-08-17T03:58:23.520Z</time>
      </trkpt>
      <trkpt lat="41.41297" lon="43.49849">
        <ele>1687.773074</ele>
        <time>2021-08-17T03:58:33.230Z</time>
      </trkpt>
      <trkpt lat="41.41265" lon="43.49915">
        <ele>1691.314294</ele>
        <time>2021-08-17T03:59:03.301Z</time>
      </trkpt>
      <trkpt lat="41.41248" lon="43.49933">
        <ele>1692.626043</ele>
        <time>2021-08-17T03:59:18.351Z</time>
      </trkpt>
      <trkpt lat="41.41223" lon="43.49944">
        <ele>1694.180942</ele>
        <time>2021-08-17T03:59:32.956Z</time>
      </trkpt>
      <trkpt lat="41.41206" lon="43.49955">
        <ele>1695.302337</ele>
        <time>2021-08-17T03:59:45.550Z</time>
      </trkpt>
      <trkpt lat="41.4119" lon="43.49973">
        <ele>1696.550878</ele>
        <time>2021-08-17T03:59:58.573Z</time>
      </trkpt>
      <trkpt lat="41.4117" lon="43.50013">
        <ele>1697.994359</ele>
        <time>2021-08-17T04:00:18.170Z</time>
      </trkpt>
      <trkpt lat="41.41155" lon="43.50027">
        <ele>1697.952608</ele>
        <time>2021-08-17T04:00:24.534Z</time>
      </trkpt>
      <trkpt lat="41.41146" lon="43.50034">
        <ele>1697.92889</ele>
        <time>2021-08-17T04:00:29.260Z</time>
      </trkpt>
      <trkpt lat="41.41126" lon="43.50049">
        <ele>1697.875867</ele>
        <time>2021-08-17T04:00:37.379Z</time>
      </trkpt>
      <trkpt lat="41.41101" lon="43.50067">
        <ele>1697.810902</ele>
        <time>2021-08-17T04:00:44.235Z</time>
      </trkpt>
      <trkpt lat="41.41094" lon="43.50078">
        <ele>1697.784676</ele>
        <time>2021-08-17T04:00:46.307Z</time>
      </trkpt>
      <trkpt lat="41.41084" lon="43.50083">
        <ele>1697.760797</ele>
        <time>2021-08-17T04:00:48.364Z</time>
      </trkpt>
      <trkpt lat="41.41052" lon="43.50097">
        <ele>1697.68237</ele>
        <time>2021-08-17T04:00:54.624Z</time>
      </trkpt>
      <trkpt lat="41.41035" lon="43.501">
        <ele>1697.642313</ele>
        <time>2021-08-17T04:00:57.840Z</time>
      </trkpt>
      <trkpt lat="41.41019" lon="43.50113">
        <ele>1697.426981</ele>
        <time>2021-08-17T04:01:01.004Z</time>
      </trkpt>
      <trkpt lat="41.40891" lon="43.50196">
        <ele>1688.203894</ele>
        <time>2021-08-17T04:01:23.182Z</time>
      </trkpt>
      <trkpt lat="41.40867" lon="43.50206">
        <ele>1686.575811</ele>
        <time>2021-08-17T04:01:27.200Z</time>
      </trkpt>
      <trkpt lat="41.40824" lon="43.50223">
        <ele>1684.649249</ele>
        <time>2021-08-17T04:01:34.502Z</time>
      </trkpt>
      <trkpt lat="41.4079" lon="43.50235">
        <ele>1683.286701</ele>
        <time>2021-08-17T04:01:40.571Z</time>
      </trkpt>
      <trkpt lat="41.40749" lon="43.5024">
        <ele>1681.749503</ele>
        <time>2021-08-17T04:01:47.629Z</time>
      </trkpt>
      <trkpt lat="41.40662" lon="43.50269">
        <ele>1678.751681</ele>
        <time>2021-08-17T04:02:04.410Z</time>
      </trkpt>
      <trkpt lat="41.40613" lon="43.50274">
        <ele>1677.7947</ele>
        <time>2021-08-17T04:02:14.481Z</time>
      </trkpt>
      <trkpt lat="41.40585" lon="43.50257">
        <ele>1677.214661</ele>
        <time>2021-08-17T04:02:20.908Z</time>
      </trkpt>
      <trkpt lat="41.40591" lon="43.50238">
        <ele>1676.918246</ele>
        <time>2021-08-17T04:02:24.029Z</time>
      </trkpt>
      <trkpt lat="41.40577" lon="43.50212">
        <ele>1676.463463</ele>
        <time>2021-08-17T04:02:28.304Z</time>
      </trkpt>
      <trkpt lat="41.4056" lon="43.50195">
        <ele>1676.041382</ele>
        <time>2021-08-17T04:02:32.274Z</time>
      </trkpt>
      <trkpt lat="41.40511" lon="43.50171">
        <ele>1675.355206</ele>
        <time>2021-08-17T04:02:41.731Z</time>
      </trkpt>
      <trkpt lat="41.40493" lon="43.50148">
        <ele>1675.105005</ele>
        <time>2021-08-17T04:02:46.305Z</time>
      </trkpt>
      <trkpt lat="41.40488" lon="43.5012">
        <ele>1674.889241</ele>
        <time>2021-08-17T04:02:50.330Z</time>
      </trkpt>
      <trkpt lat="41.40478" lon="43.50101">
        <ele>1674.717236</ele>
        <time>2021-08-17T04:02:53.511Z</time>
      </trkpt>
      <trkpt lat="41.40435" lon="43.50079">
        <ele>1674.251815</ele>
        <time>2021-08-17T04:03:03.045Z</time>
      </trkpt>
      <trkpt lat="41.40414" lon="43.50062">
        <ele>1674.006587</ele>
        <time>2021-08-17T04:03:08.228Z</time>
      </trkpt>
      <trkpt lat="41.40362" lon="43.49995">
        <ele>1676.604064</ele>
        <time>2021-08-17T04:03:27.964Z</time>
      </trkpt>
      <trkpt lat="41.40288" lon="43.49913">
        <ele>1680.911467</ele>
        <time>2021-08-17T04:04:18.364Z</time>
      </trkpt>
      <trkpt lat="41.40268" lon="43.49877">
        <ele>1682.789867</ele>
        <time>2021-08-17T04:04:38.447Z</time>
      </trkpt>
      <trkpt lat="41.40258" lon="43.49843">
        <ele>1684.941717</ele>
        <time>2021-08-17T04:04:55.885Z</time>
      </trkpt>
      <trkpt lat="41.40248" lon="43.49807">
        <ele>1687.19303</ele>
        <time>2021-08-17T04:05:14.637Z</time>
      </trkpt>
      <trkpt lat="41.40241" lon="43.49775">
        <ele>1689.158382</ele>
        <time>2021-08-17T04:05:30.179Z</time>
      </trkpt>
      <trkpt lat="41.40235" lon="43.49691">
        <ele>1694.142256</ele>
        <time>2021-08-17T04:06:10.651Z</time>
      </trkpt>
      <trkpt lat="41.40219" lon="43.49623">
        <ele>1697.643855</ele>
        <time>2021-08-17T04:06:44.371Z</time>
      </trkpt>
      <trkpt lat="41.40218" lon="43.49546">
        <ele>1700.713822</ele>
        <time>2021-08-17T04:07:12.709Z</time>
      </trkpt>
      <trkpt lat="41.40211" lon="43.49473">
        <ele>1703.69774</ele>
        <time>2021-08-17T04:07:38.006Z</time>
      </trkpt>
      <trkpt lat="41.40204" lon="43.4944">
        <ele>1705.063383</ele>
        <time>2021-08-17T04:07:48.630Z</time>
      </trkpt>
      <trkpt lat="41.40199" lon="43.49419">
        <ele>1705.882115</ele>
        <time>2021-08-17T04:07:55.844Z</time>
      </trkpt>
      <trkpt lat="41.40169" lon="43.49372">
        <ele>1707.510865</ele>
        <time>2021-08-17T04:08:13.867Z</time>
      </trkpt>
      <trkpt lat="41.40083" lon="43.4932">
        <ele>1710.779809</ele>
        <time>2021-08-17T04:08:51.250Z</time>
      </trkpt>
      <trkpt lat="41.40019" lon="43.49262">
        <ele>1713.368788</ele>
        <time>2021-08-17T04:09:20.531Z</time>
      </trkpt>
      <trkpt lat="41.39994" lon="43.49271">
        <ele>1714.213297</ele>
        <time>2021-08-17T04:09:31.326Z</time>
      </trkpt>
      <trkpt lat="41.39967" lon="43.49275">
        <ele>1715.116486</ele>
        <time>2021-08-17T04:09:42.987Z</time>
      </trkpt>
      <trkpt lat="41.399" lon="43.49259">
        <ele>1717.300845</ele>
        <time>2021-08-17T04:10:10.938Z</time>
      </trkpt>
      <trkpt lat="41.39889" lon="43.49265">
        <ele>1717.688452</ele>
        <time>2021-08-17T04:10:14.721Z</time>
      </trkpt>
      <trkpt lat="41.39852" lon="43.49258">
        <ele>1718.097098</ele>
        <time>2021-08-17T04:10:27.872Z</time>
      </trkpt>
      <trkpt lat="41.39791" lon="43.49265">
        <ele>1718.577488</ele>
        <time>2021-08-17T04:10:45.616Z</time>
      </trkpt>
      <trkpt lat="41.39787" lon="43.49256">
        <ele>1718.639862</ele>
        <time>2021-08-17T04:10:47.096Z</time>
      </trkpt>
      <trkpt lat="41.39769" lon="43.4921">
        <ele>1718.947369</ele>
        <time>2021-08-17T04:10:56.505Z</time>
      </trkpt>
      <trkpt lat="41.39765" lon="43.49188">
        <ele>1719.08047</ele>
        <time>2021-08-17T04:11:01.248Z</time>
      </trkpt>
      <trkpt lat="41.3977" lon="43.49156">
        <ele>1719.241368</ele>
        <time>2021-08-17T04:11:06.388Z</time>
      </trkpt>
      <trkpt lat="41.39758" lon="43.49077">
        <ele>1718.986255</ele>
        <time>2021-08-17T04:11:18.298Z</time>
      </trkpt>
      <trkpt lat="41.39743" lon="43.48955">
        <ele>1718.592416</ele>
        <time>2021-08-17T04:11:37.356Z</time>
      </trkpt>
      <trkpt lat="41.39734" lon="43.48889">
        <ele>1718.630908</ele>
        <time>2021-08-17T04:11:50.247Z</time>
      </trkpt>
      <trkpt lat="41.39668" lon="43.48901">
        <ele>1718.985448</ele>
        <time>2021-08-17T04:12:07.969Z</time>
      </trkpt>
      <trkpt lat="41.39625" lon="43.48909">
        <ele>1719.218741</ele>
        <time>2021-08-17T04:12:18.903Z</time>
      </trkpt>
      <trkpt lat="41.39592" lon="43.48915">
        <ele>1719.395926</ele>
        <time>2021-08-17T04:12:26.905Z</time>
      </trkpt>
      <trkpt lat="41.39496" lon="43.48935">
        <ele>1719.531538</ele>
        <time>2021-08-17T04:12:50.421Z</time>
      </trkpt>
      <trkpt lat="41.39448" lon="43.48944">
        <ele>1719.574948</ele>
        <time>2021-08-17T04:13:00.782Z</time>
      </trkpt>
      <trkpt lat="41.39392" lon="43.48956">
        <ele>1719.614129</ele>
        <time>2021-08-17T04:13:13.059Z</time>
      </trkpt>
      <trkpt lat="41.39315" lon="43.48973">
        <ele>1719.606251</ele>
        <time>2021-08-17T04:13:30.562Z</time>
      </trkpt>
      <trkpt lat="41.3917" lon="43.49002">
        <ele>1719.57093</ele>
        <time>2021-08-17T04:14:03.218Z</time>
      </trkpt>
      <trkpt lat="41.39066" lon="43.49022">
        <ele>1719.521926</ele>
        <time>2021-08-17T04:14:26.451Z</time>
      </trkpt>
      <trkpt lat="41.39054" lon="43.49025">
        <ele>1719.516491</ele>
        <time>2021-08-17T04:14:29.055Z</time>
      </trkpt>
      <trkpt lat="41.39001" lon="43.49032">
        <ele>1719.504824</ele>
        <time>2021-08-17T04:14:40.671Z</time>
      </trkpt>
      <trkpt lat="41.38892" lon="43.49057">
        <ele>1719.483968</ele>
        <time>2021-08-17T04:15:05.678Z</time>
      </trkpt>
      <trkpt lat="41.38866" lon="43.49062">
        <ele>1719.46701</ele>
        <time>2021-08-17T04:15:11.607Z</time>
      </trkpt>
      <trkpt lat="41.38517" lon="43.49129">
        <ele>1718.495499</ele>
        <time>2021-08-17T04:16:26.504Z</time>
      </trkpt>
      <trkpt lat="41.38451" lon="43.49137">
        <ele>1718.857753</ele>
        <time>2021-08-17T04:16:42.489Z</time>
      </trkpt>
      <trkpt lat="41.38385" lon="43.49149">
        <ele>1719.241852</ele>
        <time>2021-08-17T04:16:59.403Z</time>
      </trkpt>
      <trkpt lat="41.38364" lon="43.49153">
        <ele>1719.365999</ele>
        <time>2021-08-17T04:17:05.305Z</time>
      </trkpt>
      <trkpt lat="41.38338" lon="43.49158">
        <ele>1719.518689</ele>
        <time>2021-08-17T04:17:12.667Z</time>
      </trkpt>
      <trkpt lat="41.38324" lon="43.49161">
        <ele>1719.629603</ele>
        <time>2021-08-17T04:17:16.465Z</time>
      </trkpt>
      <trkpt lat="41.38314" lon="43.49163">
        <ele>1719.723882</ele>
        <time>2021-08-17T04:17:19.381Z</time>
      </trkpt>
      <trkpt lat="41.38306" lon="43.49164">
        <ele>1719.78614</ele>
        <time>2021-08-17T04:17:21.311Z</time>
      </trkpt>
      <trkpt lat="41.3829" lon="43.49167">
        <ele>1719.927815</ele>
        <time>2021-08-17T04:17:25.803Z</time>
      </trkpt>
      <trkpt lat="41.38276" lon="43.49169">
        <ele>1720.050464</ele>
        <time>2021-08-17T04:17:29.526Z</time>
      </trkpt>
      <trkpt lat="41.38258" lon="43.49173">
        <ele>1720.200305</ele>
        <time>2021-08-17T04:17:34.167Z</time>
      </trkpt>
      <trkpt lat="41.38184" lon="43.49187">
        <ele>1720.841297</ele>
        <time>2021-08-17T04:17:53.323Z</time>
      </trkpt>
      <trkpt lat="41.3815" lon="43.49194">
        <ele>1721.133717</ele>
        <time>2021-08-17T04:18:02.647Z</time>
      </trkpt>
      <trkpt lat="41.37994" lon="43.49225">
        <ele>1722.422457</ele>
        <time>2021-08-17T04:18:44.914Z</time>
      </trkpt>
      <trkpt lat="41.37897" lon="43.4924">
        <ele>1722.656056</ele>
        <time>2021-08-17T04:19:08.411Z</time>
      </trkpt>
      <trkpt lat="41.37834" lon="43.49252">
        <ele>1722.741654</ele>
        <time>2021-08-17T04:19:22.485Z</time>
      </trkpt>
      <trkpt lat="41.37825" lon="43.49254">
        <ele>1722.75409</ele>
        <time>2021-08-17T04:19:24.497Z</time>
      </trkpt>
      <trkpt lat="41.37789" lon="43.49261">
        <ele>1722.705788</ele>
        <time>2021-08-17T04:19:32.368Z</time>
      </trkpt>
      <trkpt lat="41.37757" lon="43.49266">
        <ele>1722.497474</ele>
        <time>2021-08-17T04:19:39.282Z</time>
      </trkpt>
      <trkpt lat="41.37746" lon="43.49269">
        <ele>1722.428184</ele>
        <time>2021-08-17T04:19:41.574Z</time>
      </trkpt>
      <trkpt lat="41.37601" lon="43.49298">
        <ele>1721.224306</ele>
        <time>2021-08-17T04:20:11.532Z</time>
      </trkpt>
      <trkpt lat="41.37553" lon="43.49316">
        <ele>1720.364685</ele>
        <time>2021-08-17T04:20:20.988Z</time>
      </trkpt>
      <trkpt lat="41.37454" lon="43.4938">
        <ele>1718.402449</ele>
        <time>2021-08-17T04:20:41.187Z</time>
      </trkpt>
      <trkpt lat="41.37406" lon="43.49412">
        <ele>1717.132149</ele>
        <time>2021-08-17T04:20:50.341Z</time>
      </trkpt>
      <trkpt lat="41.37339" lon="43.49456">
        <ele>1715.316603</ele>
        <time>2021-08-17T04:21:03.585Z</time>
      </trkpt>
      <trkpt lat="41.37273" lon="43.49495">
        <ele>1714.023389</ele>
        <time>2021-08-17T04:21:16.708Z</time>
      </trkpt>
      <trkpt lat="41.37153" lon="43.49574">
        <ele>1713.283355</ele>
        <time>2021-08-17T04:21:44.469Z</time>
      </trkpt>
      <trkpt lat="41.37102" lon="43.49605">
        <ele>1713.617933</ele>
        <time>2021-08-17T04:21:59.668Z</time>
      </trkpt>
      <trkpt lat="41.37064" lon="43.49623">
        <ele>1714.17115</ele>
        <time>2021-08-17T04:22:10.990Z</time>
      </trkpt>
      <trkpt lat="41.37039" lon="43.49626">
        <ele>1714.519305</ele>
        <time>2021-08-17T04:22:18.340Z</time>
      </trkpt>
      <trkpt lat="41.37007" lon="43.49624">
        <ele>1714.957551</ele>
        <time>2021-08-17T04:22:28.042Z</time>
      </trkpt>
      <trkpt lat="41.3695" lon="43.49617">
        <ele>1715.860232</ele>
        <time>2021-08-17T04:22:46.051Z</time>
      </trkpt>
      <trkpt lat="41.36914" lon="43.49618">
        <ele>1716.880865</ele>
        <time>2021-08-17T04:22:57.993Z</time>
      </trkpt>
      <trkpt lat="41.3684" lon="43.49624">
        <ele>1718.962133</ele>
        <time>2021-08-17T04:23:24.430Z</time>
      </trkpt>
      <trkpt lat="41.36787" lon="43.49633">
        <ele>1720.443083</ele>
        <time>2021-08-17T04:23:45.044Z</time>
      </trkpt>
      <trkpt lat="41.36771" lon="43.49636">
        <ele>1721.008263</ele>
        <time>2021-08-17T04:23:51.912Z</time>
      </trkpt>
      <trkpt lat="41.3675" lon="43.49638">
        <ele>1721.848874</ele>
        <time>2021-08-17T04:24:00.840Z</time>
      </trkpt>
      <trkpt lat="41.36575" lon="43.49671">
        <ele>1728.731792</ele>
        <time>2021-08-17T04:25:16.291Z</time>
      </trkpt>
      <trkpt lat="41.36459" lon="43.49698">
        <ele>1732.714652</ele>
        <time>2021-08-17T04:26:03.066Z</time>
      </trkpt>
      <trkpt lat="41.36432" lon="43.497">
        <ele>1733.654838</ele>
        <time>2021-08-17T04:26:13.192Z</time>
      </trkpt>
      <trkpt lat="41.36404" lon="43.49701">
        <ele>1734.357049</ele>
        <time>2021-08-17T04:26:22.945Z</time>
      </trkpt>
      <trkpt lat="41.36305" lon="43.49662">
        <ele>1736.511588</ele>
        <time>2021-08-17T04:26:56.980Z</time>
      </trkpt>
      <trkpt lat="41.3622" lon="43.49627">
        <ele>1738.238906</ele>
        <time>2021-08-17T04:27:23.988Z</time>
      </trkpt>
      <trkpt lat="41.36157" lon="43.49601">
        <ele>1739.300073</ele>
        <time>2021-08-17T04:27:43.303Z</time>
      </trkpt>
      <trkpt lat="41.36062" lon="43.49561">
        <ele>1740.946284</ele>
        <time>2021-08-17T04:28:14.017Z</time>
      </trkpt>
      <trkpt lat="41.35954" lon="43.49545">
        <ele>1742.887028</ele>
        <time>2021-08-17T04:28:48.539Z</time>
      </trkpt>
      <trkpt lat="41.35803" lon="43.49527">
        <ele>1745.236559</ele>
        <time>2021-08-17T04:29:34.133Z</time>
      </trkpt>
      <trkpt lat="41.35681" lon="43.49507">
        <ele>1746.988696</ele>
        <time>2021-08-17T04:30:08.901Z</time>
      </trkpt>
      <trkpt lat="41.34982" lon="43.49424">
        <ele>1757.078852</ele>
        <time>2021-08-17T04:33:35.146Z</time>
      </trkpt>
      <trkpt lat="41.34828" lon="43.49403">
        <ele>1760.00225</ele>
        <time>2021-08-17T04:34:25.073Z</time>
      </trkpt>
      <trkpt lat="41.3433" lon="43.49344">
        <ele>1769.840102</ele>
        <time>2021-08-17T04:37:05.912Z</time>
      </trkpt>
      <trkpt lat="41.33988" lon="43.49301">
        <ele>1775.498526</ele>
        <time>2021-08-17T04:38:49.175Z</time>
      </trkpt>
      <trkpt lat="41.33969" lon="43.49303">
        <ele>1775.814752</ele>
        <time>2021-08-17T04:38:55.186Z</time>
      </trkpt>
      <trkpt lat="41.33947" lon="43.49313">
        <ele>1776.195309</ele>
        <time>2021-08-17T04:39:02.326Z</time>
      </trkpt>
      <trkpt lat="41.33833" lon="43.49389">
        <ele>1778.884654</ele>
        <time>2021-08-17T04:39:43.164Z</time>
      </trkpt>
      <trkpt lat="41.3369" lon="43.49483">
        <ele>1782.972168</ele>
        <time>2021-08-17T04:40:38.611Z</time>
      </trkpt>
      <trkpt lat="41.33641" lon="43.49514">
        <ele>1784.537146</ele>
        <time>2021-08-17T04:40:58.919Z</time>
      </trkpt>
      <trkpt lat="41.33586" lon="43.49557">
        <ele>1786.338654</ele>
        <time>2021-08-17T04:41:24.089Z</time>
      </trkpt>
      <trkpt lat="41.33563" lon="43.49579">
        <ele>1787.140884</ele>
        <time>2021-08-17T04:41:35.356Z</time>
      </trkpt>
      <trkpt lat="41.33518" lon="43.49648">
        <ele>1789.04606</ele>
        <time>2021-08-17T04:42:01.355Z</time>
      </trkpt>
      <trkpt lat="41.33492" lon="43.49697">
        <ele>1790.296346</ele>
        <time>2021-08-17T04:42:17.335Z</time>
      </trkpt>
      <trkpt lat="41.33143" lon="43.50333">
        <ele>1795.86598</ele>
        <time>2021-08-17T04:44:55.503Z</time>
      </trkpt>
      <trkpt lat="41.33084" lon="43.50437">
        <ele>1796.279967</ele>
        <time>2021-08-17T04:45:19.344Z</time>
      </trkpt>
      <trkpt lat="41.32981" lon="43.50625">
        <ele>1796.513826</ele>
        <time>2021-08-17T04:45:57.962Z</time>
      </trkpt>
      <trkpt lat="41.32912" lon="43.50753">
        <ele>1797.20842</ele>
        <time>2021-08-17T04:46:26.082Z</time>
      </trkpt>
      <trkpt lat="41.32884" lon="43.50802">
        <ele>1797.623858</ele>
        <time>2021-08-17T04:46:38.926Z</time>
      </trkpt>
      <trkpt lat="41.32837" lon="43.5087">
        <ele>1798.334717</ele>
        <time>2021-08-17T04:46:59.269Z</time>
      </trkpt>
      <trkpt lat="41.32569" lon="43.51129">
        <ele>1804.357791</ele>
        <time>2021-08-17T04:48:42.983Z</time>
      </trkpt>
      <trkpt lat="41.32493" lon="43.51228">
        <ele>1806.618722</ele>
        <time>2021-08-17T04:49:18.758Z</time>
      </trkpt>
      <trkpt lat="41.32411" lon="43.51347">
        <ele>1809.115763</ele>
        <time>2021-08-17T04:49:58.885Z</time>
      </trkpt>
      <trkpt lat="41.32212" lon="43.51639">
        <ele>1813.925208</ele>
        <time>2021-08-17T04:51:28.169Z</time>
      </trkpt>
      <trkpt lat="41.32183" lon="43.51681">
        <ele>1814.554645</ele>
        <time>2021-08-17T04:51:41.062Z</time>
      </trkpt>
      <trkpt lat="41.32124" lon="43.5177">
        <ele>1815.608904</ele>
        <time>2021-08-17T04:52:07.022Z</time>
      </trkpt>
      <trkpt lat="41.32066" lon="43.51849">
        <ele>1816.580697</ele>
        <time>2021-08-17T04:52:29.564Z</time>
      </trkpt>
      <trkpt lat="41.31948" lon="43.52023">
        <ele>1817.733602</ele>
        <time>2021-08-17T04:53:13.751Z</time>
      </trkpt>
      <trkpt lat="41.31826" lon="43.52201">
        <ele>1819.034658</ele>
        <time>2021-08-17T04:54:00.640Z</time>
      </trkpt>
      <trkpt lat="41.31702" lon="43.52382">
        <ele>1820.883847</ele>
        <time>2021-08-17T04:54:49.986Z</time>
      </trkpt>
      <trkpt lat="41.3158" lon="43.52558">
        <ele>1824.295308</ele>
        <time>2021-08-17T04:55:48.173Z</time>
      </trkpt>
      <trkpt lat="41.3146" lon="43.52737">
        <ele>1827.895845</ele>
        <time>2021-08-17T04:56:46.571Z</time>
      </trkpt>
      <trkpt lat="41.31275" lon="43.53004">
        <ele>1832.201794</ele>
        <time>2021-08-17T04:58:09.756Z</time>
      </trkpt>
      <trkpt lat="41.30969" lon="43.53452">
        <ele>1837.622552</ele>
        <time>2021-08-17T05:00:17.136Z</time>
      </trkpt>
      <trkpt lat="41.30893" lon="43.53562">
        <ele>1838.624222</ele>
        <time>2021-08-17T05:00:47.028Z</time>
      </trkpt>
      <trkpt lat="41.30859" lon="43.53621">
        <ele>1839.131129</ele>
        <time>2021-08-17T05:01:01.866Z</time>
      </trkpt>
      <trkpt lat="41.30553" lon="43.54196">
        <ele>1844.000392</ele>
        <time>2021-08-17T05:03:22.686Z</time>
      </trkpt>
      <trkpt lat="41.30532" lon="43.54237">
        <ele>1844.646945</ele>
        <time>2021-08-17T05:03:34.566Z</time>
      </trkpt>
      <trkpt lat="41.30466" lon="43.54359">
        <ele>1846.911071</ele>
        <time>2021-08-17T05:04:12.329Z</time>
      </trkpt>
      <trkpt lat="41.30415" lon="43.54458">
        <ele>1848.351878</ele>
        <time>2021-08-17T05:04:41.801Z</time>
      </trkpt>
      <trkpt lat="41.30436" lon="43.54502">
        <ele>1848.855426</ele>
        <time>2021-08-17T05:04:53.546Z</time>
      </trkpt>
      <trkpt lat="41.3047" lon="43.54568">
        <ele>1849.626107</ele>
        <time>2021-08-17T05:05:09.907Z</time>
      </trkpt>
      <trkpt lat="41.30491" lon="43.54627">
        <ele>1850.095143</ele>
        <time>2021-08-17T05:05:21.634Z</time>
      </trkpt>
      <trkpt lat="41.3047" lon="43.54568">
        <ele>1850.312742</ele>
        <time>2021-08-17T05:05:32.753Z</time>
      </trkpt>
      <trkpt lat="41.30436" lon="43.54502">
        <ele>1850.582587</ele>
        <time>2021-08-17T05:05:46.790Z</time>
      </trkpt>
      <trkpt lat="41.30415" lon="43.54458">
        <ele>1850.758899</ele>
        <time>2021-08-17T05:05:56.335Z</time>
      </trkpt>
      <trkpt lat="41.30219" lon="43.54792">
        <ele>1854.35932</ele>
        <time>2021-08-17T05:07:26.669Z</time>
      </trkpt>
      <trkpt lat="41.29855" lon="43.55404">
        <ele>1861.308771</ele>
        <time>2021-08-17T05:10:10.123Z</time>
      </trkpt>
      <trkpt lat="41.29821" lon="43.55453">
        <ele>1862.691271</ele>
        <time>2021-08-17T05:10:26.558Z</time>
      </trkpt>
      <trkpt lat="41.2976" lon="43.55503">
        <ele>1864.859092</ele>
        <time>2021-08-17T05:10:52.494Z</time>
      </trkpt>
      <trkpt lat="41.29729" lon="43.55517">
        <ele>1865.854348</ele>
        <time>2021-08-17T05:11:05.420Z</time>
      </trkpt>
      <trkpt lat="41.29603" lon="43.55557">
        <ele>1871.664623</ele>
        <time>2021-08-17T05:12:04.093Z</time>
      </trkpt>
      <trkpt lat="41.29558" lon="43.55584">
        <ele>1874.109905</ele>
        <time>2021-08-17T05:12:29.358Z</time>
      </trkpt>
      <trkpt lat="41.29523" lon="43.55615">
        <ele>1876.087124</ele>
        <time>2021-08-17T05:12:50.443Z</time>
      </trkpt>
      <trkpt lat="41.29504" lon="43.5564">
        <ele>1877.038539</ele>
        <time>2021-08-17T05:13:03.165Z</time>
      </trkpt>
      <trkpt lat="41.29486" lon="43.55666">
        <ele>1877.996335</ele>
        <time>2021-08-17T05:13:16.184Z</time>
      </trkpt>
      <trkpt lat="41.29461" lon="43.55718">
        <ele>1879.656904</ele>
        <time>2021-08-17T05:13:36.304Z</time>
      </trkpt>
      <trkpt lat="41.29332" lon="43.56023">
        <ele>1884.754584</ele>
        <time>2021-08-17T05:14:55.874Z</time>
      </trkpt>
      <trkpt lat="41.29163" lon="43.56381">
        <ele>1883.911115</ele>
        <time>2021-08-17T05:16:02.692Z</time>
      </trkpt>
      <trkpt lat="41.29103" lon="43.56461">
        <ele>1884.13208</ele>
        <time>2021-08-17T05:16:21.165Z</time>
      </trkpt>
      <trkpt lat="41.28712" lon="43.56911">
        <ele>1888.289614</ele>
        <time>2021-08-17T05:18:37.077Z</time>
      </trkpt>
      <trkpt lat="41.28531" lon="43.57122">
        <ele>1893.265479</ele>
        <time>2021-08-17T05:19:58.300Z</time>
      </trkpt>
      <trkpt lat="41.28294" lon="43.57395">
        <ele>1900.834866</ele>
        <time>2021-08-17T05:21:42.535Z</time>
      </trkpt>
      <trkpt lat="41.2808" lon="43.57661">
        <ele>1911.49152</ele>
        <time>2021-08-17T05:23:43.853Z</time>
      </trkpt>
      <trkpt lat="41.27951" lon="43.57802">
        <ele>1917.730898</ele>
        <time>2021-08-17T05:24:53.332Z</time>
      </trkpt>
      <trkpt lat="41.27875" lon="43.5788">
        <ele>1920.593533</ele>
        <time>2021-08-17T05:25:31.286Z</time>
      </trkpt>
      <trkpt lat="41.27615" lon="43.58199">
        <ele>1927.11506</ele>
        <time>2021-08-17T05:27:25.573Z</time>
      </trkpt>
      <trkpt lat="41.27579" lon="43.58244">
        <ele>1927.055506</ele>
        <time>2021-08-17T05:27:35.748Z</time>
      </trkpt>
      <trkpt lat="41.27585" lon="43.58253">
        <ele>1927.044877</ele>
        <time>2021-08-17T05:27:37.495Z</time>
      </trkpt>
      <trkpt lat="41.27584" lon="43.58268">
        <ele>1927.030346</ele>
        <time>2021-08-17T05:27:40.012Z</time>
      </trkpt>
      <trkpt lat="41.27583" lon="43.58281">
        <ele>1927.01847</ele>
        <time>2021-08-17T05:27:41.983Z</time>
      </trkpt>
      <trkpt lat="41.27582" lon="43.58307">
        <ele>1926.995087</ele>
        <time>2021-08-17T05:27:45.818Z</time>
      </trkpt>
      <trkpt lat="41.2755" lon="43.58449">
        <ele>1926.498854</ele>
        <time>2021-08-17T05:28:07.851Z</time>
      </trkpt>
      <trkpt lat="41.27548" lon="43.58464">
        <ele>1926.435462</ele>
        <time>2021-08-17T05:28:10.350Z</time>
      </trkpt>
      <trkpt lat="41.27548" lon="43.58486">
        <ele>1926.347693</ele>
        <time>2021-08-17T05:28:13.845Z</time>
      </trkpt>
      <trkpt lat="41.27542" lon="43.58548">
        <ele>1926.092878</ele>
        <time>2021-08-17T05:28:26.313Z</time>
      </trkpt>
      <trkpt lat="41.27527" lon="43.58581">
        <ele>1926.120279</ele>
        <time>2021-08-17T05:28:34.134Z</time>
      </trkpt>
      <trkpt lat="41.2751" lon="43.58603">
        <ele>1926.452308</ele>
        <time>2021-08-17T05:28:40.546Z</time>
      </trkpt>
      <trkpt lat="41.27504" lon="43.58608">
        <ele>1926.564076</ele>
        <time>2021-08-17T05:28:42.571Z</time>
      </trkpt>
      <trkpt lat="41.27481" lon="43.58629">
        <ele>1926.951146</ele>
        <time>2021-08-17T05:28:50.944Z</time>
      </trkpt>
      <trkpt lat="41.27441" lon="43.58657">
        <ele>1927.585088</ele>
        <time>2021-08-17T05:29:04.583Z</time>
      </trkpt>
      <trkpt lat="41.27435" lon="43.58661">
        <ele>1927.681897</ele>
        <time>2021-08-17T05:29:07.421Z</time>
      </trkpt>
      <trkpt lat="41.27428" lon="43.58668">
        <ele>1927.802519</ele>
        <time>2021-08-17T05:29:09.842Z</time>
      </trkpt>
      <trkpt lat="41.27393" lon="43.58708">
        <ele>1928.463399</ele>
        <time>2021-08-17T05:29:24.888Z</time>
      </trkpt>
      <trkpt lat="41.2739" lon="43.58708">
        <ele>1928.495969</ele>
        <time>2021-08-17T05:29:25.541Z</time>
      </trkpt>
      <trkpt lat="41.27385" lon="43.58711">
        <ele>1928.57904</ele>
        <time>2021-08-17T05:29:27.280Z</time>
      </trkpt>
      <trkpt lat="41.27367" lon="43.58722">
        <ele>1928.859411</ele>
        <time>2021-08-17T05:29:33.980Z</time>
      </trkpt>
      <trkpt lat="41.27366" lon="43.58728">
        <ele>1928.922546</ele>
        <time>2021-08-17T05:29:35.588Z</time>
      </trkpt>
      <trkpt lat="41.27364" lon="43.58722">
        <ele>1928.990436</ele>
        <time>2021-08-17T05:29:37.244Z</time>
      </trkpt>
      <trkpt lat="41.27339" lon="43.58728">
        <ele>1929.35766</ele>
        <time>2021-08-17T05:29:45.166Z</time>
      </trkpt>
      <trkpt lat="41.27332" lon="43.58731">
        <ele>1929.463939</ele>
        <time>2021-08-17T05:29:47.528Z</time>
      </trkpt>
      <trkpt lat="41.27319" lon="43.58736">
        <ele>1929.660137</ele>
        <time>2021-08-17T05:29:51.771Z</time>
      </trkpt>
      <trkpt lat="41.27302" lon="43.58741">
        <ele>1929.908375</ele>
        <time>2021-08-17T05:29:56.889Z</time>
      </trkpt>
      <trkpt lat="41.27272" lon="43.58718">
        <ele>1930.407075</ele>
        <time>2021-08-17T05:30:06.520Z</time>
      </trkpt>
      <trkpt lat="41.27263" lon="43.58719">
        <ele>1930.533537</ele>
        <time>2021-08-17T05:30:09.220Z</time>
      </trkpt>
      <trkpt lat="41.27265" lon="43.58712">
        <ele>1930.608301</ele>
        <time>2021-08-17T05:30:10.610Z</time>
      </trkpt>
      <trkpt lat="41.27244" lon="43.58714">
        <ele>1930.904334</ele>
        <time>2021-08-17T05:30:15.862Z</time>
      </trkpt>
      <trkpt lat="41.27227" lon="43.58716">
        <ele>1931.154228</ele>
        <time>2021-08-17T05:30:21.261Z</time>
      </trkpt>
      <trkpt lat="41.27223" lon="43.58717">
        <ele>1931.21258</ele>
        <time>2021-08-17T05:30:22.442Z</time>
      </trkpt>
      <trkpt lat="41.27205" lon="43.58726">
        <ele>1931.510732</ele>
        <time>2021-08-17T05:30:28.000Z</time>
      </trkpt>
      <trkpt lat="41.27201" lon="43.58728">
        <ele>1931.570805</ele>
        <time>2021-08-17T05:30:29.395Z</time>
      </trkpt>
      <trkpt lat="41.27157" lon="43.58744">
        <ele>1932.275007</ele>
        <time>2021-08-17T05:30:44.136Z</time>
      </trkpt>
      <trkpt lat="41.27146" lon="43.58744">
        <ele>1932.442743</ele>
        <time>2021-08-17T05:30:47.618Z</time>
      </trkpt>
      <trkpt lat="41.2713" lon="43.58798">
        <ele>1933.10322</ele>
        <time>2021-08-17T05:31:01.534Z</time>
      </trkpt>
      <trkpt lat="41.27125" lon="43.58814">
        <ele>1933.304914</ele>
        <time>2021-08-17T05:31:05.966Z</time>
      </trkpt>
      <trkpt lat="41.27107" lon="43.58879">
        <ele>1933.982615</ele>
        <time>2021-08-17T05:31:21.428Z</time>
      </trkpt>
      <trkpt lat="41.27096" lon="43.58914">
        <ele>1934.227598</ele>
        <time>2021-08-17T05:31:30.085Z</time>
      </trkpt>
      <trkpt lat="41.27075" lon="43.58963">
        <ele>1934.578453</ele>
        <time>2021-08-17T05:31:42.038Z</time>
      </trkpt>
      <trkpt lat="41.27066" lon="43.58978">
        <ele>1934.701454</ele>
        <time>2021-08-17T05:31:46.588Z</time>
      </trkpt>
      <trkpt lat="41.27083" lon="43.58976">
        <ele>1934.839249</ele>
        <time>2021-08-17T05:31:51.166Z</time>
      </trkpt>
      <trkpt lat="41.27206" lon="43.59043">
        <ele>1934.706948</ele>
        <time>2021-08-17T05:32:22.426Z</time>
      </trkpt>
      <trkpt lat="41.27268" lon="43.59084">
        <ele>1934.074988</ele>
        <time>2021-08-17T05:32:36.298Z</time>
      </trkpt>
      <trkpt lat="41.27284" lon="43.59098">
        <ele>1933.896672</ele>
        <time>2021-08-17T05:32:40.027Z</time>
      </trkpt>
      <trkpt lat="41.27287" lon="43.59109">
        <ele>1933.817479</ele>
        <time>2021-08-17T05:32:41.796Z</time>
      </trkpt>
      <trkpt lat="41.27286" lon="43.5912">
        <ele>1933.739792</ele>
        <time>2021-08-17T05:32:43.520Z</time>
      </trkpt>
      <trkpt lat="41.27276" lon="43.59155">
        <ele>1933.274621</ele>
        <time>2021-08-17T05:32:48.912Z</time>
      </trkpt>
      <trkpt lat="41.27334" lon="43.59185">
        <ele>1932.186074</ele>
        <time>2021-08-17T05:33:00.835Z</time>
      </trkpt>
      <trkpt lat="41.27373" lon="43.59217">
        <ele>1931.380304</ele>
        <time>2021-08-17T05:33:09.804Z</time>
      </trkpt>
      <trkpt lat="41.2739" lon="43.59296">
        <ele>1930.283314</ele>
        <time>2021-08-17T05:33:21.967Z</time>
      </trkpt>
      <trkpt lat="41.27395" lon="43.59345">
        <ele>1929.587052</ele>
        <time>2021-08-17T05:33:29.430Z</time>
      </trkpt>
      <trkpt lat="41.27391" lon="43.59366">
        <ele>1929.287868</ele>
        <time>2021-08-17T05:33:32.723Z</time>
      </trkpt>
      <trkpt lat="41.27379" lon="43.59383">
        <ele>1928.960542</ele>
        <time>2021-08-17T05:33:36.139Z</time>
      </trkpt>
      <trkpt lat="41.27356" lon="43.59391">
        <ele>1928.501436</ele>
        <time>2021-08-17T05:33:40.943Z</time>
      </trkpt>
      <trkpt lat="41.27342" lon="43.59463">
        <ele>1927.467255</ele>
        <time>2021-08-17T05:33:51.099Z</time>
      </trkpt>
      <trkpt lat="41.27339" lon="43.59531">
        <ele>1926.123457</ele>
        <time>2021-08-17T05:34:00.332Z</time>
      </trkpt>
      <trkpt lat="41.2736" lon="43.5956">
        <ele>1925.23358</ele>
        <time>2021-08-17T05:34:05.720Z</time>
      </trkpt>
      <trkpt lat="41.27722" lon="43.59767">
        <ele>1914.166652</ele>
        <time>2021-08-17T05:35:13.445Z</time>
      </trkpt>
      <trkpt lat="41.27927" lon="43.59873">
        <ele>1910.070881</ele>
        <time>2021-08-17T05:35:54.419Z</time>
      </trkpt>
      <trkpt lat="41.28001" lon="43.59906">
        <ele>1909.189888</ele>
        <time>2021-08-17T05:36:10.116Z</time>
      </trkpt>
      <trkpt lat="41.28088" lon="43.59956">
        <ele>1908.474115</ele>
        <time>2021-08-17T05:36:29.757Z</time>
      </trkpt>
      <trkpt lat="41.28156" lon="43.60027">
        <ele>1907.580714</ele>
        <time>2021-08-17T05:36:47.379Z</time>
      </trkpt>
      <trkpt lat="41.28563" lon="43.60555">
        <ele>1899.996444</ele>
        <time>2021-08-17T05:38:36.213Z</time>
      </trkpt>
      <trkpt lat="41.28795" lon="43.60813">
        <ele>1897.369977</ele>
        <time>2021-08-17T05:39:37.792Z</time>
      </trkpt>
      <trkpt lat="41.28812" lon="43.60835">
        <ele>1897.166918</ele>
        <time>2021-08-17T05:39:42.649Z</time>
      </trkpt>
      <trkpt lat="41.28897" lon="43.6091">
        <ele>1896.293734</ele>
        <time>2021-08-17T05:40:03.093Z</time>
      </trkpt>
      <trkpt lat="41.28997" lon="43.60981">
        <ele>1895.597851</ele>
        <time>2021-08-17T05:40:25.787Z</time>
      </trkpt>
      <trkpt lat="41.29062" lon="43.61044">
        <ele>1895.218758</ele>
        <time>2021-08-17T05:40:42.754Z</time>
      </trkpt>
      <trkpt lat="41.29069" lon="43.6105">
        <ele>1895.181064</ele>
        <time>2021-08-17T05:40:44.606Z</time>
      </trkpt>
      <trkpt lat="41.29185" lon="43.6116">
        <ele>1895.330337</ele>
        <time>2021-08-17T05:41:18.223Z</time>
      </trkpt>
      <trkpt lat="41.29221" lon="43.61195">
        <ele>1895.419351</ele>
        <time>2021-08-17T05:41:29.552Z</time>
      </trkpt>
      <trkpt lat="41.29331" lon="43.61332">
        <ele>1895.091496</ele>
        <time>2021-08-17T05:42:02.193Z</time>
      </trkpt>
      <trkpt lat="41.2935" lon="43.61362">
        <ele>1895.01455</ele>
        <time>2021-08-17T05:42:08.370Z</time>
      </trkpt>
      <trkpt lat="41.29391" lon="43.61426">
        <ele>1894.301455</ele>
        <time>2021-08-17T05:42:21.177Z</time>
      </trkpt>
      <trkpt lat="41.29416" lon="43.61451">
        <ele>1893.887221</ele>
        <time>2021-08-17T05:42:27.368Z</time>
      </trkpt>
      <trkpt lat="41.29435" lon="43.61467">
        <ele>1893.584782</ele>
        <time>2021-08-17T05:42:31.695Z</time>
      </trkpt>
      <trkpt lat="41.29509" lon="43.61515">
        <ele>1892.37813</ele>
        <time>2021-08-17T05:42:47.024Z</time>
      </trkpt>
      <trkpt lat="41.29537" lon="43.61532">
        <ele>1891.560107</ele>
        <time>2021-08-17T05:42:52.692Z</time>
      </trkpt>
      <trkpt lat="41.29592" lon="43.61566">
        <ele>1889.957606</ele>
        <time>2021-08-17T05:43:03.248Z</time>
      </trkpt>
      <trkpt lat="41.29618" lon="43.61581">
        <ele>1889.203894</ele>
        <time>2021-08-17T05:43:08.271Z</time>
      </trkpt>
      <trkpt lat="41.2963" lon="43.61586">
        <ele>1888.888608</ele>
        <time>2021-08-17T05:43:10.296Z</time>
      </trkpt>
      <trkpt lat="41.2967" lon="43.61591">
        <ele>1887.818431</ele>
        <time>2021-08-17T05:43:17.249Z</time>
      </trkpt>
      <trkpt lat="41.29681" lon="43.61596">
        <ele>1887.531221</ele>
        <time>2021-08-17T05:43:19.330Z</time>
      </trkpt>
      <trkpt lat="41.29687" lon="43.61613">
        <ele>1887.198827</ele>
        <time>2021-08-17T05:43:21.612Z</time>
      </trkpt>
      <trkpt lat="41.29688" lon="43.61804">
        <ele>1883.785679</ele>
        <time>2021-08-17T05:43:46.939Z</time>
      </trkpt>
      <trkpt lat="41.29691" lon="43.61843">
        <ele>1883.529451</ele>
        <time>2021-08-17T05:43:53.151Z</time>
      </trkpt>
      <trkpt lat="41.29692" lon="43.6185">
        <ele>1883.532015</ele>
        <time>2021-08-17T05:43:54.314Z</time>
      </trkpt>
      <trkpt lat="41.29694" lon="43.61875">
        <ele>1883.541344</ele>
        <time>2021-08-17T05:43:58.574Z</time>
      </trkpt>
      <trkpt lat="41.29704" lon="43.61883">
        <ele>1883.5475</ele>
        <time>2021-08-17T05:44:01.280Z</time>
      </trkpt>
      <trkpt lat="41.29723" lon="43.61921">
        <ele>1883.564549</ele>
        <time>2021-08-17T05:44:09.643Z</time>
      </trkpt>
      <trkpt lat="41.29726" lon="43.6193">
        <ele>1883.568443</ele>
        <time>2021-08-17T05:44:11.706Z</time>
      </trkpt>
      <trkpt lat="41.29751" lon="43.62001">
        <ele>1883.597587</ele>
        <time>2021-08-17T05:44:25.767Z</time>
      </trkpt>
      <trkpt lat="41.29754" lon="43.62046">
        <ele>1883.593797</ele>
        <time>2021-08-17T05:44:34.677Z</time>
      </trkpt>
      <trkpt lat="41.29769" lon="43.62115">
        <ele>1883.503829</ele>
        <time>2021-08-17T05:44:48.245Z</time>
      </trkpt>
      <trkpt lat="41.29777" lon="43.62159">
        <ele>1883.447456</ele>
        <time>2021-08-17T05:44:56.462Z</time>
      </trkpt>
      <trkpt lat="41.29777" lon="43.62194">
        <ele>1883.403432</ele>
        <time>2021-08-17T05:45:02.374Z</time>
      </trkpt>
      <trkpt lat="41.29788" lon="43.6225">
        <ele>1883.330389</ele>
        <time>2021-08-17T05:45:11.610Z</time>
      </trkpt>
      <trkpt lat="41.29806" lon="43.62302">
        <ele>1882.951195</ele>
        <time>2021-08-17T05:45:20.262Z</time>
      </trkpt>
      <trkpt lat="41.29829" lon="43.62345">
        <ele>1882.496382</ele>
        <time>2021-08-17T05:45:27.996Z</time>
      </trkpt>
      <trkpt lat="41.29864" lon="43.62387">
        <ele>1881.938023</ele>
        <time>2021-08-17T05:45:37.908Z</time>
      </trkpt>
      <trkpt lat="41.29893" lon="43.62413">
        <ele>1881.527613</ele>
        <time>2021-08-17T05:45:45.202Z</time>
      </trkpt>
      <trkpt lat="41.29915" lon="43.62427">
        <ele>1881.252304</ele>
        <time>2021-08-17T05:45:50.057Z</time>
      </trkpt>
      <trkpt lat="41.29917" lon="43.62455">
        <ele>1880.964886</ele>
        <time>2021-08-17T05:45:54.597Z</time>
      </trkpt>
      <trkpt lat="41.29913" lon="43.62479">
        <ele>1880.721507</ele>
        <time>2021-08-17T05:45:58.340Z</time>
      </trkpt>
      <trkpt lat="41.29912" lon="43.62482">
        <ele>1880.685153</ele>
        <time>2021-08-17T05:45:58.878Z</time>
      </trkpt>
      <trkpt lat="41.29897" lon="43.62511">
        <ele>1880.33783</ele>
        <time>2021-08-17T05:46:03.881Z</time>
      </trkpt>
      <trkpt lat="41.29894" lon="43.62517">
        <ele>1880.26001</ele>
        <time>2021-08-17T05:46:05.015Z</time>
      </trkpt>
      <trkpt lat="41.29893" lon="43.6252">
        <ele>1880.225072</ele>
        <time>2021-08-17T05:46:05.521Z</time>
      </trkpt>
      <trkpt lat="41.29884" lon="43.62541">
        <ele>1879.982621</ele>
        <time>2021-08-17T05:46:08.994Z</time>
      </trkpt>
      <trkpt lat="41.29876" lon="43.62552">
        <ele>1879.823024</ele>
        <time>2021-08-17T05:46:11.276Z</time>
      </trkpt>
      <trkpt lat="41.29818" lon="43.62637">
        <ele>1878.651131</ele>
        <time>2021-08-17T05:46:27.819Z</time>
      </trkpt>
      <trkpt lat="41.29792" lon="43.62675">
        <ele>1878.07895</ele>
        <time>2021-08-17T05:46:34.967Z</time>
      </trkpt>
      <trkpt lat="41.29733" lon="43.62761">
        <ele>1876.756563</ele>
        <time>2021-08-17T05:46:51.381Z</time>
      </trkpt>
      <trkpt lat="41.2972" lon="43.62782">
        <ele>1876.446043</ele>
        <time>2021-08-17T05:46:55.299Z</time>
      </trkpt>
      <trkpt lat="41.29718" lon="43.62802">
        <ele>1876.221464</ele>
        <time>2021-08-17T05:46:58.184Z</time>
      </trkpt>
      <trkpt lat="41.29735" lon="43.62845">
        <ele>1876.02339</ele>
        <time>2021-08-17T05:47:05.368Z</time>
      </trkpt>
      <trkpt lat="41.29737" lon="43.62961">
        <ele>1875.823379</ele>
        <time>2021-08-17T05:47:23.764Z</time>
      </trkpt>
      <trkpt lat="41.29747" lon="43.63048">
        <ele>1875.680232</ele>
        <time>2021-08-17T05:47:39.785Z</time>
      </trkpt>
      <trkpt lat="41.29701" lon="43.63229">
        <ele>1876.942307</ele>
        <time>2021-08-17T05:48:19.272Z</time>
      </trkpt>
      <trkpt lat="41.29616" lon="43.63439">
        <ele>1878.157094</ele>
        <time>2021-08-17T05:49:06.388Z</time>
      </trkpt>
      <trkpt lat="41.29601" lon="43.63503">
        <ele>1878.392043</ele>
        <time>2021-08-17T05:49:17.717Z</time>
      </trkpt>
      <trkpt lat="41.29588" lon="43.63712">
        <ele>1878.494876</ele>
        <time>2021-08-17T05:49:52.609Z</time>
      </trkpt>
      <trkpt lat="41.2958" lon="43.63759">
        <ele>1878.652124</ele>
        <time>2021-08-17T05:50:01.165Z</time>
      </trkpt>
      <trkpt lat="41.29544" lon="43.63843">
        <ele>1879.040382</ele>
        <time>2021-08-17T05:50:19.009Z</time>
      </trkpt>
      <trkpt lat="41.29503" lon="43.63923">
        <ele>1879.434301</ele>
        <time>2021-08-17T05:50:38.141Z</time>
      </trkpt>
      <trkpt lat="41.29492" lon="43.6396">
        <ele>1879.643878</ele>
        <time>2021-08-17T05:50:46.176Z</time>
      </trkpt>
      <trkpt lat="41.29398" lon="43.64178">
        <ele>1880.899082</ele>
        <time>2021-08-17T05:51:35.500Z</time>
      </trkpt>
      <trkpt lat="41.29294" lon="43.64407">
        <ele>1881.813785</ele>
        <time>2021-08-17T05:52:21.744Z</time>
      </trkpt>
      <trkpt lat="41.29277" lon="43.64441">
        <ele>1882.094272</ele>
        <time>2021-08-17T05:52:29.007Z</time>
      </trkpt>
      <trkpt lat="41.29307" lon="43.64473">
        <ele>1882.445295</ele>
        <time>2021-08-17T05:52:38.916Z</time>
      </trkpt>
      <trkpt lat="41.29334" lon="43.64498">
        <ele>1882.740533</ele>
        <time>2021-08-17T05:52:48.123Z</time>
      </trkpt>
      <trkpt lat="41.29351" lon="43.64514">
        <ele>1882.9369</ele>
        <time>2021-08-17T05:52:54.810Z</time>
      </trkpt>
      <trkpt lat="41.29374" lon="43.64538">
        <ele>1884.091395</ele>
        <time>2021-08-17T05:53:05.352Z</time>
      </trkpt>
      <trkpt lat="41.29409" lon="43.64573">
        <ele>1885.957686</ele>
        <time>2021-08-17T05:53:21.962Z</time>
      </trkpt>
      <trkpt lat="41.29436" lon="43.646">
        <ele>1887.407567</ele>
        <time>2021-08-17T05:53:37.045Z</time>
      </trkpt>
      <trkpt lat="41.29472" lon="43.64635">
        <ele>1889.322131</ele>
        <time>2021-08-17T05:53:58.784Z</time>
      </trkpt>
      <trkpt lat="41.2948" lon="43.6465">
        <ele>1889.919796</ele>
        <time>2021-08-17T05:54:06.815Z</time>
      </trkpt>
      <trkpt lat="41.2949" lon="43.64689">
        <ele>1891.404623</ele>
        <time>2021-08-17T05:54:22.895Z</time>
      </trkpt>
      <trkpt lat="41.295" lon="43.64895">
        <ele>1900.248577</ele>
        <time>2021-08-17T05:55:45.552Z</time>
      </trkpt>
      <trkpt lat="41.29527" lon="43.65428">
        <ele>1914.024718</ele>
        <time>2021-08-17T05:58:22.152Z</time>
      </trkpt>
      <trkpt lat="41.29555" lon="43.65926">
        <ele>1922.303251</ele>
        <time>2021-08-17T06:00:27.040Z</time>
      </trkpt>
      <trkpt lat="41.29558" lon="43.65996">
        <ele>1923.072969</ele>
        <time>2021-08-17T06:00:42.232Z</time>
      </trkpt>
      <trkpt lat="41.29588" lon="43.66376">
        <ele>1927.004993</ele>
        <time>2021-08-17T06:02:01.235Z</time>
      </trkpt>
      <trkpt lat="41.29684" lon="43.67318">
        <ele>1946.852108</ele>
        <time>2021-08-17T06:06:19.779Z</time>
      </trkpt>
      <trkpt lat="41.29674" lon="43.67371">
        <ele>1948.805499</ele>
        <time>2021-08-17T06:06:37.560Z</time>
      </trkpt>
      <trkpt lat="41.29552" lon="43.6755">
        <ele>1958.383075</ele>
        <time>2021-08-17T06:08:07.831Z</time>
      </trkpt>
      <trkpt lat="41.29501" lon="43.67656">
        <ele>1964.205004</ele>
        <time>2021-08-17T06:08:59.589Z</time>
      </trkpt>
      <trkpt lat="41.2948" lon="43.67719">
        <ele>1967.422174</ele>
        <time>2021-08-17T06:09:28.687Z</time>
      </trkpt>
      <trkpt lat="41.29476" lon="43.67762">
        <ele>1969.391929</ele>
        <time>2021-08-17T06:09:46.598Z</time>
      </trkpt>
      <trkpt lat="41.29481" lon="43.67816">
        <ele>1971.921581</ele>
        <time>2021-08-17T06:10:09.084Z</time>
      </trkpt>
      <trkpt lat="41.29534" lon="43.67963">
        <ele>1978.827409</ele>
        <time>2021-08-17T06:11:10.830Z</time>
      </trkpt>
      <trkpt lat="41.2955" lon="43.68024">
        <ele>1981.126304</ele>
        <time>2021-08-17T06:11:33.426Z</time>
      </trkpt>
      <trkpt lat="41.29552" lon="43.68057">
        <ele>1982.302542</ele>
        <time>2021-08-17T06:11:44.688Z</time>
      </trkpt>
      <trkpt lat="41.29542" lon="43.68121">
        <ele>1984.608576</ele>
        <time>2021-08-17T06:12:06.179Z</time>
      </trkpt>
      <trkpt lat="41.29456" lon="43.68543">
        <ele>1996.854975</ele>
        <time>2021-08-17T06:14:21.639Z</time>
      </trkpt>
      <trkpt lat="41.29362" lon="43.69004">
        <ele>2006.710366</ele>
        <time>2021-08-17T06:16:28.651Z</time>
      </trkpt>
      <trkpt lat="41.2931" lon="43.69256">
        <ele>2011.468176</ele>
        <time>2021-08-17T06:17:38.656Z</time>
      </trkpt>
      <trkpt lat="41.29169" lon="43.69768">
        <ele>2018.178458</ele>
        <time>2021-08-17T06:19:36.768Z</time>
      </trkpt>
      <trkpt lat="41.29154" lon="43.69838">
        <ele>2020.390631</ele>
        <time>2021-08-17T06:19:58.383Z</time>
      </trkpt>
      <trkpt lat="41.29151" lon="43.69907">
        <ele>2022.485774</ele>
        <time>2021-08-17T06:20:21.592Z</time>
      </trkpt>
      <trkpt lat="41.29162" lon="43.70026">
        <ele>2026.656654</ele>
        <time>2021-08-17T06:21:08.141Z</time>
      </trkpt>
      <trkpt lat="41.29177" lon="43.70207">
        <ele>2034.086281</ele>
        <time>2021-08-17T06:22:16.932Z</time>
      </trkpt>
      <trkpt lat="41.29188" lon="43.70335">
        <ele>2037.790613</ele>
        <time>2021-08-17T06:22:58.708Z</time>
      </trkpt>
      <trkpt lat="41.29209" lon="43.70913">
        <ele>2051.323665</ele>
        <time>2021-08-17T06:25:40.182Z</time>
      </trkpt>
      <trkpt lat="41.29203" lon="43.71026">
        <ele>2052.937875</ele>
        <time>2021-08-17T06:26:10.696Z</time>
      </trkpt>
      <trkpt lat="41.29144" lon="43.7167">
        <ele>2060.015757</ele>
        <time>2021-08-17T06:28:35.537Z</time>
      </trkpt>
      <trkpt lat="41.29202" lon="43.72419">
        <ele>2052.657866</ele>
        <time>2021-08-17T06:30:25.644Z</time>
      </trkpt>
      <trkpt lat="41.29193" lon="43.72492">
        <ele>2050.749081</ele>
        <time>2021-08-17T06:30:35.030Z</time>
      </trkpt>
      <trkpt lat="41.29148" lon="43.7269">
        <ele>2044.89869</ele>
        <time>2021-08-17T06:30:59.974Z</time>
      </trkpt>
      <trkpt lat="41.29146" lon="43.72749">
        <ele>2043.064403</ele>
        <time>2021-08-17T06:31:07.184Z</time>
      </trkpt>
      <trkpt lat="41.29149" lon="43.72787">
        <ele>2041.879601</ele>
        <time>2021-08-17T06:31:11.947Z</time>
      </trkpt>
      <trkpt lat="41.2918" lon="43.72901">
        <ele>2039.641706</ele>
        <time>2021-08-17T06:31:27.779Z</time>
      </trkpt>
      <trkpt lat="41.29231" lon="43.73047">
        <ele>2037.673905</ele>
        <time>2021-08-17T06:31:51.588Z</time>
      </trkpt>
      <trkpt lat="41.29243" lon="43.73106">
        <ele>2037.989727</ele>
        <time>2021-08-17T06:32:02.053Z</time>
      </trkpt>
      <trkpt lat="41.29249" lon="43.73186">
        <ele>2038.407581</ele>
        <time>2021-08-17T06:32:17.453Z</time>
      </trkpt>
      <trkpt lat="41.29249" lon="43.7336">
        <ele>2039.991129</ele>
        <time>2021-08-17T06:32:56.559Z</time>
      </trkpt>
      <trkpt lat="41.2926" lon="43.7345">
        <ele>2041.229937</ele>
        <time>2021-08-17T06:33:19.287Z</time>
      </trkpt>
      <trkpt lat="41.29271" lon="43.73473">
        <ele>2041.605673</ele>
        <time>2021-08-17T06:33:26.331Z</time>
      </trkpt>
      <trkpt lat="41.29404" lon="43.73632">
        <ele>2043.753162</ele>
        <time>2021-08-17T06:34:20.615Z</time>
      </trkpt>
      <trkpt lat="41.29472" lon="43.73761">
        <ele>2042.026695</ele>
        <time>2021-08-17T06:34:44.136Z</time>
      </trkpt>
      <trkpt lat="41.29486" lon="43.73803">
        <ele>2041.226337</ele>
        <time>2021-08-17T06:34:50.026Z</time>
      </trkpt>
      <trkpt lat="41.29488" lon="43.73827">
        <ele>2040.794982</ele>
        <time>2021-08-17T06:34:53.098Z</time>
      </trkpt>
      <trkpt lat="41.2948" lon="43.73919">
        <ele>2038.319081</ele>
        <time>2021-08-17T06:35:04.515Z</time>
      </trkpt>
      <trkpt lat="41.29422" lon="43.74326">
        <ele>2021.735187</ele>
        <time>2021-08-17T06:35:53.304Z</time>
      </trkpt>
      <trkpt lat="41.29369" lon="43.74576">
        <ele>2011.462829</ele>
        <time>2021-08-17T06:36:24.019Z</time>
      </trkpt>
      <trkpt lat="41.29372" lon="43.74621">
        <ele>2010.321694</ele>
        <time>2021-08-17T06:36:29.491Z</time>
      </trkpt>
      <trkpt lat="41.29383" lon="43.74667">
        <ele>2009.154745</ele>
        <time>2021-08-17T06:36:35.511Z</time>
      </trkpt>
      <trkpt lat="41.29414" lon="43.74744">
        <ele>2007.057289</ele>
        <time>2021-08-17T06:36:46.687Z</time>
      </trkpt>
      <trkpt lat="41.29635" lon="43.75187">
        <ele>2000.992442</ele>
        <time>2021-08-17T06:38:03.672Z</time>
      </trkpt>
      <trkpt lat="41.29672" lon="43.75264">
        <ele>2001.0638</ele>
        <time>2021-08-17T06:38:19.430Z</time>
      </trkpt>
      <trkpt lat="41.29685" lon="43.75288">
        <ele>2001.120455</ele>
        <time>2021-08-17T06:38:24.958Z</time>
      </trkpt>
      <trkpt lat="41.29722" lon="43.75359">
        <ele>2001.289348</ele>
        <time>2021-08-17T06:38:41.360Z</time>
      </trkpt>
      <trkpt lat="41.29751" lon="43.75389">
        <ele>2001.389206</ele>
        <time>2021-08-17T06:38:50.983Z</time>
      </trkpt>
      <trkpt lat="41.30119" lon="43.7567">
        <ele>2002.823413</ele>
        <time>2021-08-17T06:40:31.422Z</time>
      </trkpt>
      <trkpt lat="41.3027" lon="43.75797">
        <ele>2003.904998</ele>
        <time>2021-08-17T06:41:16.133Z</time>
      </trkpt>
      <trkpt lat="41.30553" lon="43.76017">
        <ele>2007.252937</ele>
        <time>2021-08-17T06:42:46.266Z</time>
      </trkpt>
      <trkpt lat="41.3062" lon="43.76064">
        <ele>2008.291859</ele>
        <time>2021-08-17T06:43:08.194Z</time>
      </trkpt>
      <trkpt lat="41.30643" lon="43.76071">
        <ele>2008.606541</ele>
        <time>2021-08-17T06:43:15.015Z</time>
      </trkpt>
      <trkpt lat="41.30689" lon="43.7607">
        <ele>2009.235799</ele>
        <time>2021-08-17T06:43:28.769Z</time>
      </trkpt>
      <trkpt lat="41.30814" lon="43.76044">
        <ele>2010.863154</ele>
        <time>2021-08-17T06:44:07.491Z</time>
      </trkpt>
      <trkpt lat="41.30846" lon="43.76051">
        <ele>2011.275274</ele>
        <time>2021-08-17T06:44:15.678Z</time>
      </trkpt>
      <trkpt lat="41.30868" lon="43.7606">
        <ele>2011.520618</ele>
        <time>2021-08-17T06:44:22.221Z</time>
      </trkpt>
      <trkpt lat="41.30872" lon="43.76062">
        <ele>2011.522124</ele>
        <time>2021-08-17T06:44:23.083Z</time>
      </trkpt>
      <trkpt lat="41.30889" lon="43.76069">
        <ele>2011.528173</ele>
        <time>2021-08-17T06:44:27.168Z</time>
      </trkpt>
      <trkpt lat="41.30942" lon="43.76072">
        <ele>2011.546043</ele>
        <time>2021-08-17T06:44:38.798Z</time>
      </trkpt>
      <trkpt lat="41.3095" lon="43.7607">
        <ele>2011.548992</ele>
        <time>2021-08-17T06:44:40.420Z</time>
      </trkpt>
      <trkpt lat="41.30971" lon="43.76069">
        <ele>2011.556189</ele>
        <time>2021-08-17T06:44:45.797Z</time>
      </trkpt>
      <trkpt lat="41.30997" lon="43.76068">
        <ele>2011.565052</ele>
        <time>2021-08-17T06:44:51.283Z</time>
      </trkpt>
      <trkpt lat="41.31036" lon="43.76052">
        <ele>2011.578808</ele>
        <time>2021-08-17T06:45:00.041Z</time>
      </trkpt>
      <trkpt lat="41.31048" lon="43.76046">
        <ele>2011.699293</ele>
        <time>2021-08-17T06:45:02.679Z</time>
      </trkpt>
      <trkpt lat="41.31058" lon="43.76039">
        <ele>2011.870084</ele>
        <time>2021-08-17T06:45:05.026Z</time>
      </trkpt>
      <trkpt lat="41.31061" lon="43.76037">
        <ele>2011.922599</ele>
        <time>2021-08-17T06:45:05.908Z</time>
      </trkpt>
      <trkpt lat="41.31069" lon="43.76031">
        <ele>2012.048129</ele>
        <time>2021-08-17T06:45:08.278Z</time>
      </trkpt>
      <trkpt lat="41.31096" lon="43.76012">
        <ele>2012.508689</ele>
        <time>2021-08-17T06:45:15.788Z</time>
      </trkpt>
      <trkpt lat="41.31109" lon="43.76006">
        <ele>2012.711417</ele>
        <time>2021-08-17T06:45:19.502Z</time>
      </trkpt>
      <trkpt lat="41.31159" lon="43.75991">
        <ele>2013.477177</ele>
        <time>2021-08-17T06:45:35.898Z</time>
      </trkpt>
      <trkpt lat="41.31178" lon="43.75986">
        <ele>2013.761914</ele>
        <time>2021-08-17T06:45:43.105Z</time>
      </trkpt>
      <trkpt lat="41.31195" lon="43.7598">
        <ele>2014.022238</ele>
        <time>2021-08-17T06:45:49.279Z</time>
      </trkpt>
      <trkpt lat="41.31202" lon="43.75979">
        <ele>2014.121098</ele>
        <time>2021-08-17T06:45:51.728Z</time>
      </trkpt>
      <trkpt lat="41.31232" lon="43.7597">
        <ele>2014.803937</ele>
        <time>2021-08-17T06:46:03.473Z</time>
      </trkpt>
      <trkpt lat="41.31275" lon="43.75975">
        <ele>2015.884884</ele>
        <time>2021-08-17T06:46:18.791Z</time>
      </trkpt>
      <trkpt lat="41.31299" lon="43.75986">
        <ele>2016.50638</ele>
        <time>2021-08-17T06:46:27.063Z</time>
      </trkpt>
      <trkpt lat="41.31309" lon="43.75991">
        <ele>2016.761694</ele>
        <time>2021-08-17T06:46:30.405Z</time>
      </trkpt>
      <trkpt lat="41.31327" lon="43.75997">
        <ele>2017.227724</ele>
        <time>2021-08-17T06:46:36.552Z</time>
      </trkpt>
      <trkpt lat="41.31341" lon="43.75997">
        <ele>2017.590612</ele>
        <time>2021-08-17T06:46:40.979Z</time>
      </trkpt>
      <trkpt lat="41.31354" lon="43.75995">
        <ele>2017.904728</ele>
        <time>2021-08-17T06:46:45.482Z</time>
      </trkpt>
      <trkpt lat="41.31389" lon="43.75973">
        <ele>2018.850601</ele>
        <time>2021-08-17T06:46:59.167Z</time>
      </trkpt>
      <trkpt lat="41.31396" lon="43.75968">
        <ele>2019.011214</ele>
        <time>2021-08-17T06:47:01.827Z</time>
      </trkpt>
      <trkpt lat="41.3142" lon="43.75948">
        <ele>2019.598145</ele>
        <time>2021-08-17T06:47:12.415Z</time>
      </trkpt>
      <trkpt lat="41.31424" lon="43.75944">
        <ele>2019.706674</ele>
        <time>2021-08-17T06:47:14.441Z</time>
      </trkpt>
      <trkpt lat="41.31444" lon="43.75927">
        <ele>2020.20186</ele>
        <time>2021-08-17T06:47:22.420Z</time>
      </trkpt>
      <trkpt lat="41.31466" lon="43.75908">
        <ele>2020.747832</ele>
        <time>2021-08-17T06:47:30.781Z</time>
      </trkpt>
      <trkpt lat="41.31478" lon="43.75901">
        <ele>2021.022342</ele>
        <time>2021-08-17T06:47:34.330Z</time>
      </trkpt>
      <trkpt lat="41.31486" lon="43.75897">
        <ele>2021.203455</ele>
        <time>2021-08-17T06:47:37.296Z</time>
      </trkpt>
      <trkpt lat="41.31524" lon="43.75888">
        <ele>2022.002202</ele>
        <time>2021-08-17T06:47:48.618Z</time>
      </trkpt>
      <trkpt lat="41.31538" lon="43.75886">
        <ele>2022.292906</ele>
        <time>2021-08-17T06:47:53.198Z</time>
      </trkpt>
      <trkpt lat="41.31557" lon="43.75887">
        <ele>2022.587378</ele>
        <time>2021-08-17T06:47:58.982Z</time>
      </trkpt>
      <trkpt lat="41.31638" lon="43.75887">
        <ele>2023.489369</ele>
        <time>2021-08-17T06:48:25.141Z</time>
      </trkpt>
      <trkpt lat="41.31672" lon="43.75882">
        <ele>2023.867153</ele>
        <time>2021-08-17T06:48:34.149Z</time>
      </trkpt>
      <trkpt lat="41.31736" lon="43.75859">
        <ele>2024.45512</ele>
        <time>2021-08-17T06:48:49.223Z</time>
      </trkpt>
      <trkpt lat="41.3179" lon="43.75853">
        <ele>2024.389455</ele>
        <time>2021-08-17T06:49:00.913Z</time>
      </trkpt>
      <trkpt lat="41.3182" lon="43.75862">
        <ele>2024.352359</ele>
        <time>2021-08-17T06:49:07.622Z</time>
      </trkpt>
      <trkpt lat="41.31896" lon="43.75863">
        <ele>2024.262166</ele>
        <time>2021-08-17T06:49:24.013Z</time>
      </trkpt>
      <trkpt lat="41.31931" lon="43.75864">
        <ele>2024.216626</ele>
        <time>2021-08-17T06:49:31.876Z</time>
      </trkpt>
      <trkpt lat="41.31953" lon="43.75866">
        <ele>2024.188258</ele>
        <time>2021-08-17T06:49:36.899Z</time>
      </trkpt>
      <trkpt lat="41.31982" lon="43.75882">
        <ele>2024.146423</ele>
        <time>2021-08-17T06:49:44.425Z</time>
      </trkpt>
      <trkpt lat="41.32057" lon="43.75959">
        <ele>2024.022808</ele>
        <time>2021-08-17T06:50:04.982Z</time>
      </trkpt>
      <trkpt lat="41.32076" lon="43.75975">
        <ele>2023.785348</ele>
        <time>2021-08-17T06:50:09.669Z</time>
      </trkpt>
      <trkpt lat="41.32101" lon="43.75997">
        <ele>2023.427106</ele>
        <time>2021-08-17T06:50:15.645Z</time>
      </trkpt>
      <trkpt lat="41.32188" lon="43.76064">
        <ele>2022.207984</ele>
        <time>2021-08-17T06:50:34.954Z</time>
      </trkpt>
      <trkpt lat="41.32211" lon="43.76073">
        <ele>2021.92051</ele>
        <time>2021-08-17T06:50:39.325Z</time>
      </trkpt>
      <trkpt lat="41.32439" lon="43.761">
        <ele>2019.100514</ele>
        <time>2021-08-17T06:51:22.827Z</time>
      </trkpt>
      <trkpt lat="41.32484" lon="43.76104">
        <ele>2019.048664</ele>
        <time>2021-08-17T06:51:32.964Z</time>
      </trkpt>
      <trkpt lat="41.32547" lon="43.76112">
        <ele>2018.976477</ele>
        <time>2021-08-17T06:51:48.714Z</time>
      </trkpt>
      <trkpt lat="41.32858" lon="43.76191">
        <ele>2020.497076</ele>
        <time>2021-08-17T06:53:07.423Z</time>
      </trkpt>
      <trkpt lat="41.32952" lon="43.76222">
        <ele>2021.272975</ele>
        <time>2021-08-17T06:53:30.329Z</time>
      </trkpt>
      <trkpt lat="41.33626" lon="43.76409">
        <ele>2032.033064</ele>
        <time>2021-08-17T06:57:00.942Z</time>
      </trkpt>
      <trkpt lat="41.33823" lon="43.76478">
        <ele>2032.955986</ele>
        <time>2021-08-17T06:57:52.415Z</time>
      </trkpt>
      <trkpt lat="41.33875" lon="43.76484">
        <ele>2032.385695</ele>
        <time>2021-08-17T06:58:02.664Z</time>
      </trkpt>
      <trkpt lat="41.33901" lon="43.76467">
        <ele>2032.071659</ele>
        <time>2021-08-17T06:58:08.488Z</time>
      </trkpt>
      <trkpt lat="41.33906" lon="43.76458">
        <ele>2031.981281</ele>
        <time>2021-08-17T06:58:09.883Z</time>
      </trkpt>
      <trkpt lat="41.33935" lon="43.76397">
        <ele>2031.393034</ele>
        <time>2021-08-17T06:58:20.159Z</time>
      </trkpt>
      <trkpt lat="41.34051" lon="43.7619">
        <ele>2029.149759</ele>
        <time>2021-08-17T06:58:57.436Z</time>
      </trkpt>
      <trkpt lat="41.34065" lon="43.76166">
        <ele>2029.231728</ele>
        <time>2021-08-17T06:59:02.587Z</time>
      </trkpt>
      <trkpt lat="41.34143" lon="43.76028">
        <ele>2030.092787</ele>
        <time>2021-08-17T06:59:36.721Z</time>
      </trkpt>
      <trkpt lat="41.3428" lon="43.75769">
        <ele>2033.07682</ele>
        <time>2021-08-17T07:00:46.665Z</time>
      </trkpt>
      <trkpt lat="41.34289" lon="43.7575">
        <ele>2033.267981</ele>
        <time>2021-08-17T07:00:51.483Z</time>
      </trkpt>
      <trkpt lat="41.34321" lon="43.757">
        <ele>2033.83157</ele>
        <time>2021-08-17T07:01:04.302Z</time>
      </trkpt>
      <trkpt lat="41.34356" lon="43.75635">
        <ele>2034.526632</ele>
        <time>2021-08-17T07:01:20.976Z</time>
      </trkpt>
      <trkpt lat="41.34427" lon="43.75543">
        <ele>2036.698836</ele>
        <time>2021-08-17T07:01:49.879Z</time>
      </trkpt>
      <trkpt lat="41.34493" lon="43.7548">
        <ele>2038.773564</ele>
        <time>2021-08-17T07:02:18.146Z</time>
      </trkpt>
      <trkpt lat="41.34624" lon="43.75386">
        <ele>2045.705601</ele>
        <time>2021-08-17T07:03:27.874Z</time>
      </trkpt>
      <trkpt lat="41.3463" lon="43.75382">
        <ele>2046.059668</ele>
        <time>2021-08-17T07:03:32.272Z</time>
      </trkpt>
      <trkpt lat="41.34632" lon="43.75381">
        <ele>2046.168397</ele>
        <time>2021-08-17T07:03:34.589Z</time>
      </trkpt>
      <trkpt lat="41.34721" lon="43.7532">
        <ele>2051.177704</ele>
        <time>2021-08-17T07:04:23.452Z</time>
      </trkpt>
      <trkpt lat="41.34746" lon="43.75303">
        <ele>2052.545405</ele>
        <time>2021-08-17T07:04:38.295Z</time>
      </trkpt>
      <trkpt lat="41.34752" lon="43.75299">
        <ele>2052.899599</ele>
        <time>2021-08-17T07:04:41.331Z</time>
      </trkpt>
      <trkpt lat="41.34761" lon="43.75293">
        <ele>2053.366541</ele>
        <time>2021-08-17T07:04:48.388Z</time>
      </trkpt>
      <trkpt lat="41.34769" lon="43.75287">
        <ele>2053.820197</ele>
        <time>2021-08-17T07:04:52.442Z</time>
      </trkpt>
      <trkpt lat="41.34793" lon="43.75271">
        <ele>2055.149677</ele>
        <time>2021-08-17T07:05:03.773Z</time>
      </trkpt>
      <trkpt lat="41.34798" lon="43.75268">
        <ele>2055.417576</ele>
        <time>2021-08-17T07:05:06.116Z</time>
      </trkpt>
      <trkpt lat="41.34805" lon="43.75263">
        <ele>2055.845103</ele>
        <time>2021-08-17T07:05:09.794Z</time>
      </trkpt>
      <trkpt lat="41.34825" lon="43.75248">
        <ele>2056.962059</ele>
        <time>2021-08-17T07:05:19.025Z</time>
      </trkpt>
      <trkpt lat="41.34837" lon="43.75241">
        <ele>2057.551997</ele>
        <time>2021-08-17T07:05:24.336Z</time>
      </trkpt>
      <trkpt lat="41.34846" lon="43.75234">
        <ele>2057.754709</ele>
        <time>2021-08-17T07:05:27.814Z</time>
      </trkpt>
      <trkpt lat="41.34875" lon="43.75216">
        <ele>2058.401029</ele>
        <time>2021-08-17T07:05:40.131Z</time>
      </trkpt>
      <trkpt lat="41.34889" lon="43.75208">
        <ele>2058.712092</ele>
        <time>2021-08-17T07:05:45.445Z</time>
      </trkpt>
      <trkpt lat="41.34901" lon="43.75206">
        <ele>2058.961006</ele>
        <time>2021-08-17T07:05:49.747Z</time>
      </trkpt>
      <trkpt lat="41.34959" lon="43.75211">
        <ele>2060.132395</ele>
        <time>2021-08-17T07:06:07.363Z</time>
      </trkpt>
      <trkpt lat="41.34971" lon="43.75216">
        <ele>2060.397359</ele>
        <time>2021-08-17T07:06:11.309Z</time>
      </trkpt>
      <trkpt lat="41.34984" lon="43.7522">
        <ele>2060.672057</ele>
        <time>2021-08-17T07:06:14.589Z</time>
      </trkpt>
      <trkpt lat="41.35004" lon="43.75232">
        <ele>2061.10262</ele>
        <time>2021-08-17T07:06:20.645Z</time>
      </trkpt>
      <trkpt lat="41.35098" lon="43.75318">
        <ele>2062.473862</ele>
        <time>2021-08-17T07:06:49.029Z</time>
      </trkpt>
      <trkpt lat="41.3517" lon="43.75383">
        <ele>2063.827612</ele>
        <time>2021-08-17T07:07:16.231Z</time>
      </trkpt>
      <trkpt lat="41.35214" lon="43.75423">
        <ele>2065.358023</ele>
        <time>2021-08-17T07:07:35.725Z</time>
      </trkpt>
      <trkpt lat="41.35224" lon="43.75431">
        <ele>2065.703208</ele>
        <time>2021-08-17T07:07:40.266Z</time>
      </trkpt>
      <trkpt lat="41.35237" lon="43.75443">
        <ele>2066.174072</ele>
        <time>2021-08-17T07:07:46.507Z</time>
      </trkpt>
      <trkpt lat="41.35304" lon="43.75504">
        <ele>2068.522823</ele>
        <time>2021-08-17T07:08:18.623Z</time>
      </trkpt>
      <trkpt lat="41.35693" lon="43.75863">
        <ele>2080.408158</ele>
        <time>2021-08-17T07:11:07.180Z</time>
      </trkpt>
      <trkpt lat="41.35699" lon="43.7587">
        <ele>2080.556207</ele>
        <time>2021-08-17T07:11:09.357Z</time>
      </trkpt>
      <trkpt lat="41.35739" lon="43.75906">
        <ele>2081.42404</ele>
        <time>2021-08-17T07:11:22.283Z</time>
      </trkpt>
      <trkpt lat="41.36367" lon="43.76481">
        <ele>2078.853526</ele>
        <time>2021-08-17T07:14:03.190Z</time>
      </trkpt>
      <trkpt lat="41.36802" lon="43.76875">
        <ele>2078.882587</ele>
        <time>2021-08-17T07:15:59.768Z</time>
      </trkpt>
      <trkpt lat="41.36852" lon="43.76911">
        <ele>2079.401781</ele>
        <time>2021-08-17T07:16:14.482Z</time>
      </trkpt>
      <trkpt lat="41.36977" lon="43.76952">
        <ele>2080.76532</ele>
        <time>2021-08-17T07:16:51.230Z</time>
      </trkpt>
      <trkpt lat="41.37283" lon="43.77031">
        <ele>2085.976533</ele>
        <time>2021-08-17T07:18:27.788Z</time>
      </trkpt>
      <trkpt lat="41.37419" lon="43.77076">
        <ele>2087.726177</ele>
        <time>2021-08-17T07:19:08.719Z</time>
      </trkpt>
      <trkpt lat="41.37452" lon="43.77095">
        <ele>2088.148442</ele>
        <time>2021-08-17T07:19:18.445Z</time>
      </trkpt>
      <trkpt lat="41.37491" lon="43.77137">
        <ele>2088.468755</ele>
        <time>2021-08-17T07:19:31.161Z</time>
      </trkpt>
      <trkpt lat="41.3754" lon="43.77212">
        <ele>2088.516768</ele>
        <time>2021-08-17T07:19:48.928Z</time>
      </trkpt>
      <trkpt lat="41.37711" lon="43.77532">
        <ele>2087.736742</ele>
        <time>2021-08-17T07:20:51.167Z</time>
      </trkpt>
      <trkpt lat="41.3795" lon="43.77956">
        <ele>2086.544704</ele>
        <time>2021-08-17T07:22:16.621Z</time>
      </trkpt>
      <trkpt lat="41.38135" lon="43.78183">
        <ele>2085.576094</ele>
        <time>2021-08-17T07:23:11.000Z</time>
      </trkpt>
      <trkpt lat="41.38177" lon="43.78251">
        <ele>2084.863545</ele>
        <time>2021-08-17T07:23:23.965Z</time>
      </trkpt>
      <trkpt lat="41.38315" lon="43.7854">
        <ele>2080.047567</ele>
        <time>2021-08-17T07:24:11.061Z</time>
      </trkpt>
      <trkpt lat="41.38357" lon="43.78598">
        <ele>2078.847371</ele>
        <time>2021-08-17T07:24:22.212Z</time>
      </trkpt>
      <trkpt lat="41.38439" lon="43.78672">
        <ele>2077.847968</ele>
        <time>2021-08-17T07:24:40.690Z</time>
      </trkpt>
      <trkpt lat="41.38569" lon="43.78791">
        <ele>2078.136429</ele>
        <time>2021-08-17T07:25:15.704Z</time>
      </trkpt>
      <trkpt lat="41.38616" lon="43.78831">
        <ele>2079.090624</ele>
        <time>2021-08-17T07:25:33.391Z</time>
      </trkpt>
      <trkpt lat="41.38834" lon="43.7902">
        <ele>2086.221148</ele>
        <time>2021-08-17T07:27:14.252Z</time>
      </trkpt>
      <trkpt lat="41.38961" lon="43.79086">
        <ele>2088.861142</ele>
        <time>2021-08-17T07:27:57.295Z</time>
      </trkpt>
      <trkpt lat="41.3897" lon="43.79091">
        <ele>2089.042223</ele>
        <time>2021-08-17T07:28:00.356Z</time>
      </trkpt>
      <trkpt lat="41.38993" lon="43.79102">
        <ele>2089.34346</ele>
        <time>2021-08-17T07:28:06.762Z</time>
      </trkpt>
      <trkpt lat="41.39048" lon="43.79129">
        <ele>2089.530819</ele>
        <time>2021-08-17T07:28:21.618Z</time>
      </trkpt>
      <trkpt lat="41.39109" lon="43.7916">
        <ele>2089.743552</ele>
        <time>2021-08-17T07:28:36.960Z</time>
      </trkpt>
      <trkpt lat="41.39134" lon="43.79173">
        <ele>2089.831424</ele>
        <time>2021-08-17T07:28:42.653Z</time>
      </trkpt>
      <trkpt lat="41.39164" lon="43.79188">
        <ele>2089.839797</ele>
        <time>2021-08-17T07:28:49.448Z</time>
      </trkpt>
      <trkpt lat="41.39175" lon="43.79193">
        <ele>2089.802897</ele>
        <time>2021-08-17T07:28:51.700Z</time>
      </trkpt>
      <trkpt lat="41.39198" lon="43.79206">
        <ele>2089.714111</ele>
        <time>2021-08-17T07:28:57.137Z</time>
      </trkpt>
      <trkpt lat="41.39213" lon="43.79218">
        <ele>2089.655378</ele>
        <time>2021-08-17T07:29:00.710Z</time>
      </trkpt>
      <trkpt lat="41.39227" lon="43.7923">
        <ele>2089.59625</ele>
        <time>2021-08-17T07:29:04.206Z</time>
      </trkpt>
      <trkpt lat="41.39266" lon="43.79268">
        <ele>2089.430813</ele>
        <time>2021-08-17T07:29:13.982Z</time>
      </trkpt>
      <trkpt lat="41.39292" lon="43.79296">
        <ele>2089.315093</ele>
        <time>2021-08-17T07:29:21.029Z</time>
      </trkpt>
      <trkpt lat="41.39312" lon="43.79315">
        <ele>2089.4209</ele>
        <time>2021-08-17T07:29:26.753Z</time>
      </trkpt>
      <trkpt lat="41.39326" lon="43.79328">
        <ele>2089.643383</ele>
        <time>2021-08-17T07:29:31.107Z</time>
      </trkpt>
      <trkpt lat="41.39352" lon="43.79351">
        <ele>2090.05982</ele>
        <time>2021-08-17T07:29:38.981Z</time>
      </trkpt>
      <trkpt lat="41.3936" lon="43.79359">
        <ele>2090.197873</ele>
        <time>2021-08-17T07:29:41.874Z</time>
      </trkpt>
      <trkpt lat="41.39362" lon="43.79361">
        <ele>2090.232542</ele>
        <time>2021-08-17T07:29:42.485Z</time>
      </trkpt>
      <trkpt lat="41.39416" lon="43.7941">
        <ele>2091.109002</ele>
        <time>2021-08-17T07:30:01.827Z</time>
      </trkpt>
      <trkpt lat="41.39439" lon="43.79432">
        <ele>2091.494128</ele>
        <time>2021-08-17T07:30:10.968Z</time>
      </trkpt>
      <trkpt lat="41.39446" lon="43.79438">
        <ele>2091.602013</ele>
        <time>2021-08-17T07:30:14.109Z</time>
      </trkpt>
      <trkpt lat="41.39505" lon="43.79492">
        <ele>2093.714773</ele>
        <time>2021-08-17T07:30:40.932Z</time>
      </trkpt>
      <trkpt lat="41.39508" lon="43.79495">
        <ele>2093.817927</ele>
        <time>2021-08-17T07:30:42.371Z</time>
      </trkpt>
      <trkpt lat="41.39523" lon="43.79509">
        <ele>2094.383604</ele>
        <time>2021-08-17T07:30:48.994Z</time>
      </trkpt>
      <trkpt lat="41.39537" lon="43.79522">
        <ele>2094.921236</ele>
        <time>2021-08-17T07:30:56.244Z</time>
      </trkpt>
      <trkpt lat="41.39588" lon="43.79571">
        <ele>2096.868816</ele>
        <time>2021-08-17T07:31:20.498Z</time>
      </trkpt>
      <trkpt lat="41.39667" lon="43.79644">
        <ele>2099.748966</ele>
        <time>2021-08-17T07:31:57.000Z</time>
      </trkpt>
      <trkpt lat="41.39671" lon="43.79648">
        <ele>2099.90016</ele>
        <time>2021-08-17T07:31:59.299Z</time>
      </trkpt>
      <trkpt lat="41.39713" lon="43.79687">
        <ele>2101.440497</ele>
        <time>2021-08-17T07:32:18.055Z</time>
      </trkpt>
      <trkpt lat="41.39725" lon="43.79701">
        <ele>2101.920788</ele>
        <time>2021-08-17T07:32:23.683Z</time>
      </trkpt>
      <trkpt lat="41.39762" lon="43.79745">
        <ele>2103.136178</ele>
        <time>2021-08-17T07:32:41.793Z</time>
      </trkpt>
      <trkpt lat="41.39804" lon="43.79804">
        <ele>2104.304578</ele>
        <time>2021-08-17T07:33:02.626Z</time>
      </trkpt>
      <trkpt lat="41.39903" lon="43.79945">
        <ele>2106.366888</ele>
        <time>2021-08-17T07:33:44.297Z</time>
      </trkpt>
      <trkpt lat="41.39923" lon="43.79974">
        <ele>2106.52562</ele>
        <time>2021-08-17T07:33:51.619Z</time>
      </trkpt>
      <trkpt lat="41.3993" lon="43.79984">
        <ele>2106.584277</ele>
        <time>2021-08-17T07:33:54.249Z</time>
      </trkpt>
      <trkpt lat="41.39981" lon="43.80056">
        <ele>2106.989054</ele>
        <time>2021-08-17T07:34:11.665Z</time>
      </trkpt>
      <trkpt lat="41.40373" lon="43.80605">
        <ele>2105.600872</ele>
        <time>2021-08-17T07:36:13.619Z</time>
      </trkpt>
      <trkpt lat="41.40445" lon="43.8071">
        <ele>2105.566608</ele>
        <time>2021-08-17T07:36:37.561Z</time>
      </trkpt>
      <trkpt lat="41.40498" lon="43.80792">
        <ele>2105.450123</ele>
        <time>2021-08-17T07:36:55.685Z</time>
      </trkpt>
      <trkpt lat="41.40507" lon="43.80819">
        <ele>2105.353458</ele>
        <time>2021-08-17T07:37:00.563Z</time>
      </trkpt>
      <trkpt lat="41.40515" lon="43.80899">
        <ele>2105.093815</ele>
        <time>2021-08-17T07:37:13.323Z</time>
      </trkpt>
      <trkpt lat="41.40515" lon="43.81164">
        <ele>2103.93552</ele>
        <time>2021-08-17T07:37:54.222Z</time>
      </trkpt>
      <trkpt lat="41.40535" lon="43.81292">
        <ele>2103.292947</ele>
        <time>2021-08-17T07:38:14.565Z</time>
      </trkpt>
      <trkpt lat="41.4055" lon="43.81348">
        <ele>2103.015581</ele>
        <time>2021-08-17T07:38:23.812Z</time>
      </trkpt>
      <trkpt lat="41.40657" lon="43.8167">
        <ele>2101.374731</ele>
        <time>2021-08-17T07:39:18.439Z</time>
      </trkpt>
      <trkpt lat="41.40792" lon="43.82087">
        <ele>2099.325946</ele>
        <time>2021-08-17T07:40:28.250Z</time>
      </trkpt>
      <trkpt lat="41.40802" lon="43.82117">
        <ele>2099.205562</ele>
        <time>2021-08-17T07:40:33.686Z</time>
      </trkpt>
      <trkpt lat="41.40823" lon="43.82167">
        <ele>2099.560232</ele>
        <time>2021-08-17T07:40:43.998Z</time>
      </trkpt>
      <trkpt lat="41.41068" lon="43.82696">
        <ele>2103.622272</ele>
        <time>2021-08-17T07:42:52.725Z</time>
      </trkpt>
      <trkpt lat="41.4118" lon="43.82948">
        <ele>2103.431119</ele>
        <time>2021-08-17T07:43:39.818Z</time>
      </trkpt>
      <trkpt lat="41.41222" lon="43.83024">
        <ele>2103.456696</ele>
        <time>2021-08-17T07:43:54.764Z</time>
      </trkpt>
      <trkpt lat="41.41264" lon="43.83072">
        <ele>2103.47703</ele>
        <time>2021-08-17T07:44:07.290Z</time>
      </trkpt>
      <trkpt lat="41.41319" lon="43.83102">
        <ele>2103.606596</ele>
        <time>2021-08-17T07:44:21.720Z</time>
      </trkpt>
      <trkpt lat="41.41543" lon="43.83171">
        <ele>2105.519269</ele>
        <time>2021-08-17T07:45:24.900Z</time>
      </trkpt>
      <trkpt lat="41.41601" lon="43.83224">
        <ele>2105.94425</ele>
        <time>2021-08-17T07:45:42.724Z</time>
      </trkpt>
      <trkpt lat="41.41645" lon="43.83294">
        <ele>2106.03347</ele>
        <time>2021-08-17T07:45:58.303Z</time>
      </trkpt>
      <trkpt lat="41.41659" lon="43.8331">
        <ele>2105.867684</ele>
        <time>2021-08-17T07:46:02.239Z</time>
      </trkpt>
      <trkpt lat="41.417" lon="43.83325">
        <ele>2105.487033</ele>
        <time>2021-08-17T07:46:11.033Z</time>
      </trkpt>
      <trkpt lat="41.42239" lon="43.83361">
        <ele>2099.790873</ele>
        <time>2021-08-17T07:47:57.071Z</time>
      </trkpt>
      <trkpt lat="41.42299" lon="43.83381">
        <ele>2098.937718</ele>
        <time>2021-08-17T07:48:08.679Z</time>
      </trkpt>
      <trkpt lat="41.42995" lon="43.83743">
        <ele>2087.418705</ele>
        <time>2021-08-17T07:50:29.884Z</time>
      </trkpt>
      <trkpt lat="41.43122" lon="43.83802">
        <ele>2086.262261</ele>
        <time>2021-08-17T07:50:56.507Z</time>
      </trkpt>
      <trkpt lat="41.43225" lon="43.83851">
        <ele>2086.47136</ele>
        <time>2021-08-17T07:51:20.455Z</time>
      </trkpt>
      <trkpt lat="41.43299" lon="43.83901">
        <ele>2087.424</ele>
        <time>2021-08-17T07:51:43.837Z</time>
      </trkpt>
      <trkpt lat="41.43322" lon="43.83933">
        <ele>2087.808808</ele>
        <time>2021-08-17T07:51:54.272Z</time>
      </trkpt>
      <trkpt lat="41.43427" lon="43.84263">
        <ele>2097.841163</ele>
        <time>2021-08-17T07:53:39.552Z</time>
      </trkpt>
      <trkpt lat="41.43446" lon="43.84308">
        <ele>2099.805304</ele>
        <time>2021-08-17T07:53:59.444Z</time>
      </trkpt>
      <trkpt lat="41.43476" lon="43.84346">
        <ele>2101.940213</ele>
        <time>2021-08-17T07:54:22.633Z</time>
      </trkpt>
      <trkpt lat="41.4369" lon="43.84503">
        <ele>2116.94772</ele>
        <time>2021-08-17T07:56:47.430Z</time>
      </trkpt>
      <trkpt lat="41.44098" lon="43.8485">
        <ele>2126.886431</ele>
        <time>2021-08-17T07:59:16.115Z</time>
      </trkpt>
      <trkpt lat="41.44168" lon="43.84889">
        <ele>2125.61724</ele>
        <time>2021-08-17T07:59:30.634Z</time>
      </trkpt>
      <trkpt lat="41.44269" lon="43.84906">
        <ele>2123.460338</ele>
        <time>2021-08-17T07:59:48.336Z</time>
      </trkpt>
      <trkpt lat="41.44304" lon="43.84904">
        <ele>2122.720138</ele>
        <time>2021-08-17T07:59:54.181Z</time>
      </trkpt>
      <trkpt lat="41.44335" lon="43.84883">
        <ele>2121.966983</ele>
        <time>2021-08-17T08:00:00.092Z</time>
      </trkpt>
      <trkpt lat="41.44352" lon="43.84859">
        <ele>2121.432549</ele>
        <time>2021-08-17T08:00:04.317Z</time>
      </trkpt>
      <trkpt lat="41.44417" lon="43.84698">
        <ele>2119.967919</ele>
        <time>2021-08-17T08:00:30.591Z</time>
      </trkpt>
      <trkpt lat="41.44446" lon="43.84667">
        <ele>2120.577051</ele>
        <time>2021-08-17T08:00:41.137Z</time>
      </trkpt>
      <trkpt lat="41.4448" lon="43.84657">
        <ele>2121.139039</ele>
        <time>2021-08-17T08:00:52.359Z</time>
      </trkpt>
      <trkpt lat="41.44508" lon="43.84663">
        <ele>2121.599178</ele>
        <time>2021-08-17T08:01:02.660Z</time>
      </trkpt>
      <trkpt lat="41.44567" lon="43.84711">
        <ele>2123.566206</ele>
        <time>2021-08-17T08:01:31.565Z</time>
      </trkpt>
      <trkpt lat="41.44644" lon="43.84792">
        <ele>2127.970406</ele>
        <time>2021-08-17T08:02:17.176Z</time>
      </trkpt>
      <trkpt lat="41.44708" lon="43.84878">
        <ele>2131.730669</ele>
        <time>2021-08-17T08:02:58.031Z</time>
      </trkpt>
      <trkpt lat="41.44737" lon="43.84924">
        <ele>2133.38182</ele>
        <time>2021-08-17T08:03:17.281Z</time>
      </trkpt>
      <trkpt lat="41.44867" lon="43.8517">
        <ele>2140.136402</ele>
        <time>2021-08-17T08:04:41.645Z</time>
      </trkpt>
      <trkpt lat="41.44914" lon="43.85241">
        <ele>2141.433717</ele>
        <time>2021-08-17T08:05:03.488Z</time>
      </trkpt>
      <trkpt lat="41.44993" lon="43.85341">
        <ele>2141.531483</ele>
        <time>2021-08-17T08:05:29.455Z</time>
      </trkpt>
      <trkpt lat="41.45155" lon="43.85462">
        <ele>2140.354945</ele>
        <time>2021-08-17T08:06:05.318Z</time>
      </trkpt>
      <trkpt lat="41.45188" lon="43.85463">
        <ele>2140.054972</ele>
        <time>2021-08-17T08:06:11.968Z</time>
      </trkpt>
      <trkpt lat="41.45206" lon="43.85453">
        <ele>2140.093063</ele>
        <time>2021-08-17T08:06:16.080Z</time>
      </trkpt>
      <trkpt lat="41.4522" lon="43.85439">
        <ele>2140.420077</ele>
        <time>2021-08-17T08:06:21.093Z</time>
      </trkpt>
      <trkpt lat="41.45246" lon="43.85394">
        <ele>2141.237949</ele>
        <time>2021-08-17T08:06:33.032Z</time>
      </trkpt>
      <trkpt lat="41.45255" lon="43.85383">
        <ele>2141.45501</ele>
        <time>2021-08-17T08:06:36.001Z</time>
      </trkpt>
      <trkpt lat="41.45264" lon="43.85375">
        <ele>2141.665608</ele>
        <time>2021-08-17T08:06:40.568Z</time>
      </trkpt>
      <trkpt lat="41.45279" lon="43.85367">
        <ele>2141.979896</ele>
        <time>2021-08-17T08:06:45.937Z</time>
      </trkpt>
      <trkpt lat="41.45308" lon="43.85364">
        <ele>2142.530982</ele>
        <time>2021-08-17T08:06:56.341Z</time>
      </trkpt>
      <trkpt lat="41.45326" lon="43.85367">
        <ele>2142.870185</ele>
        <time>2021-08-17T08:07:03.089Z</time>
      </trkpt>
      <trkpt lat="41.45411" lon="43.85382">
        <ele>2144.473935</ele>
        <time>2021-08-17T08:07:37.409Z</time>
      </trkpt>
      <trkpt lat="41.45425" lon="43.85385">
        <ele>2144.720489</ele>
        <time>2021-08-17T08:07:43.083Z</time>
      </trkpt>
      <trkpt lat="41.45453" lon="43.8539">
        <ele>2145.235792</ele>
        <time>2021-08-17T08:07:52.218Z</time>
      </trkpt>
      <trkpt lat="41.45481" lon="43.85402">
        <ele>2145.790582</ele>
        <time>2021-08-17T08:08:01.930Z</time>
      </trkpt>
      <trkpt lat="41.45507" lon="43.85418">
        <ele>2146.31226</ele>
        <time>2021-08-17T08:08:09.495Z</time>
      </trkpt>
      <trkpt lat="41.45507" lon="43.85418">
        <ele>2146.316181</ele>
        <time>2021-08-17T08:08:09.540Z</time>
      </trkpt>
      <trkpt lat="41.45526" lon="43.85429">
        <ele>2146.633614</ele>
        <time>2021-08-17T08:08:14.459Z</time>
      </trkpt>
      <trkpt lat="41.45983" lon="43.85799">
        <ele>2132.835384</ele>
        <time>2021-08-17T08:09:48.148Z</time>
      </trkpt>
      <trkpt lat="41.46097" lon="43.859">
        <ele>2128.803513</ele>
        <time>2021-08-17T08:10:11.701Z</time>
      </trkpt>
      <trkpt lat="41.46133" lon="43.85948">
        <ele>2127.285776</ele>
        <time>2021-08-17T08:10:20.615Z</time>
      </trkpt>
      <trkpt lat="41.4618" lon="43.8607">
        <ele>2124.383152</ele>
        <time>2021-08-17T08:10:38.418Z</time>
      </trkpt>
      <trkpt lat="41.46206" lon="43.86106">
        <ele>2123.332467</ele>
        <time>2021-08-17T08:10:44.896Z</time>
      </trkpt>
      <trkpt lat="41.46243" lon="43.86127">
        <ele>2122.226576</ele>
        <time>2021-08-17T08:10:52.032Z</time>
      </trkpt>
      <trkpt lat="41.46291" lon="43.86135">
        <ele>2121.271388</ele>
        <time>2021-08-17T08:11:00.663Z</time>
      </trkpt>
      <trkpt lat="41.46341" lon="43.86107">
        <ele>2120.200722</ele>
        <time>2021-08-17T08:11:10.494Z</time>
      </trkpt>
      <trkpt lat="41.46759" lon="43.85771">
        <ele>2113.613594</ele>
        <time>2021-08-17T08:12:43.842Z</time>
      </trkpt>
      <trkpt lat="41.47302" lon="43.8528">
        <ele>2113.558701</ele>
        <time>2021-08-17T08:15:13.531Z</time>
      </trkpt>
      <trkpt lat="41.47433" lon="43.85187">
        <ele>2114.262392</ele>
        <time>2021-08-17T08:15:48.509Z</time>
      </trkpt>
      <trkpt lat="41.47634" lon="43.8506">
        <ele>2116.535249</ele>
        <time>2021-08-17T08:16:49.944Z</time>
      </trkpt>
      <trkpt lat="41.47742" lon="43.85036">
        <ele>2118.801439</ele>
        <time>2021-08-17T08:17:24.999Z</time>
      </trkpt>
      <trkpt lat="41.47817" lon="43.85033">
        <ele>2120.404592</ele>
        <time>2021-08-17T08:17:50.871Z</time>
      </trkpt>
      <trkpt lat="41.47928" lon="43.85052">
        <ele>2123.418554</ele>
        <time>2021-08-17T08:18:30.869Z</time>
      </trkpt>
      <trkpt lat="41.48012" lon="43.85093">
        <ele>2125.7797</ele>
        <time>2021-08-17T08:19:03.500Z</time>
      </trkpt>
      <trkpt lat="41.48104" lon="43.85164">
        <ele>2128.4049</ele>
        <time>2021-08-17T08:19:40.746Z</time>
      </trkpt>
      <trkpt lat="41.48421" lon="43.855">
        <ele>2136.93567</ele>
        <time>2021-08-17T08:21:52.773Z</time>
      </trkpt>
      <trkpt lat="41.48513" lon="43.85607">
        <ele>2138.943247</ele>
        <time>2021-08-17T08:22:30.736Z</time>
      </trkpt>
      <trkpt lat="41.48572" lon="43.8568">
        <ele>2140.068325</ele>
        <time>2021-08-17T08:22:54.271Z</time>
      </trkpt>
      <trkpt lat="41.4869" lon="43.85882">
        <ele>2141.351821</ele>
        <time>2021-08-17T08:23:43.523Z</time>
      </trkpt>
      <trkpt lat="41.49096" lon="43.86646">
        <ele>2143.169607</ele>
        <time>2021-08-17T08:26:22.500Z</time>
      </trkpt>
      <trkpt lat="41.49119" lon="43.86671">
        <ele>2144.249707</ele>
        <time>2021-08-17T08:26:33.003Z</time>
      </trkpt>
      <trkpt lat="41.4915" lon="43.86691">
        <ele>2145.514409</ele>
        <time>2021-08-17T08:26:46.398Z</time>
      </trkpt>
      <trkpt lat="41.49352" lon="43.86724">
        <ele>2154.262034</ele>
        <time>2021-08-17T08:28:23.742Z</time>
      </trkpt>
      <trkpt lat="41.49394" lon="43.86752">
        <ele>2156.559647</ele>
        <time>2021-08-17T08:28:46.199Z</time>
      </trkpt>
      <trkpt lat="41.49431" lon="43.86788">
        <ele>2158.214419</ele>
        <time>2021-08-17T08:29:06.394Z</time>
      </trkpt>
      <trkpt lat="41.49468" lon="43.86853">
        <ele>2159.265272</ele>
        <time>2021-08-17T08:29:31.246Z</time>
      </trkpt>
      <trkpt lat="41.49726" lon="43.87302">
        <ele>2163.88831</ele>
        <time>2021-08-17T08:31:27.769Z</time>
      </trkpt>
      <trkpt lat="41.49836" lon="43.87492">
        <ele>2158.29209</ele>
        <time>2021-08-17T08:31:57.688Z</time>
      </trkpt>
      <trkpt lat="41.49953" lon="43.87692">
        <ele>2149.653016</ele>
        <time>2021-08-17T08:32:27.938Z</time>
      </trkpt>
      <trkpt lat="41.50029" lon="43.87779">
        <ele>2146.764761</ele>
        <time>2021-08-17T08:32:44.528Z</time>
      </trkpt>
      <trkpt lat="41.50618" lon="43.88286">
        <ele>2132.353796</ele>
        <time>2021-08-17T08:34:53.644Z</time>
      </trkpt>
      <trkpt lat="41.50692" lon="43.88349">
        <ele>2131.457533</ele>
        <time>2021-08-17T08:35:11.831Z</time>
      </trkpt>
      <trkpt lat="41.50806" lon="43.88447">
        <ele>2130.143689</ele>
        <time>2021-08-17T08:35:39.790Z</time>
      </trkpt>
      <trkpt lat="41.51004" lon="43.88621">
        <ele>2127.183129</ele>
        <time>2021-08-17T08:36:25.522Z</time>
      </trkpt>
      <trkpt lat="41.51054" lon="43.88658">
        <ele>2126.261903</ele>
        <time>2021-08-17T08:36:36.399Z</time>
      </trkpt>
      <trkpt lat="41.51091" lon="43.88679">
        <ele>2125.547549</ele>
        <time>2021-08-17T08:36:43.981Z</time>
      </trkpt>
      <trkpt lat="41.5118" lon="43.88714">
        <ele>2123.890666</ele>
        <time>2021-08-17T08:37:01.172Z</time>
      </trkpt>
      <trkpt lat="41.5127" lon="43.88736">
        <ele>2121.158698</ele>
        <time>2021-08-17T08:37:17.502Z</time>
      </trkpt>
      <trkpt lat="41.5131" lon="43.88737">
        <ele>2119.905826</ele>
        <time>2021-08-17T08:37:24.205Z</time>
      </trkpt>
      <trkpt lat="41.51407" lon="43.88706">
        <ele>2116.117148</ele>
        <time>2021-08-17T08:37:40.593Z</time>
      </trkpt>
      <trkpt lat="41.51461" lon="43.88686">
        <ele>2113.428074</ele>
        <time>2021-08-17T08:37:49.494Z</time>
      </trkpt>
      <trkpt lat="41.51567" lon="43.88644">
        <ele>2108.093045</ele>
        <time>2021-08-17T08:38:06.958Z</time>
      </trkpt>
      <trkpt lat="41.51727" lon="43.8859">
        <ele>2100.37817</ele>
        <time>2021-08-17T08:38:33.298Z</time>
      </trkpt>
      <trkpt lat="41.52039" lon="43.88529">
        <ele>2090.813261</ele>
        <time>2021-08-17T08:39:27.539Z</time>
      </trkpt>
      <trkpt lat="41.52096" lon="43.88525">
        <ele>2089.491419</ele>
        <time>2021-08-17T08:39:38.032Z</time>
      </trkpt>
      <trkpt lat="41.52308" lon="43.88588">
        <ele>2085.451842</ele>
        <time>2021-08-17T08:40:19.192Z</time>
      </trkpt>
      <trkpt lat="41.5263" lon="43.88647">
        <ele>2076.893022</ele>
        <time>2021-08-17T08:41:16.374Z</time>
      </trkpt>
      <trkpt lat="41.53089" lon="43.88778">
        <ele>2058.891652</ele>
        <time>2021-08-17T08:42:34.061Z</time>
      </trkpt>
      <trkpt lat="41.53259" lon="43.88867">
        <ele>2049.983561</ele>
        <time>2021-08-17T08:43:03.211Z</time>
      </trkpt>
      <trkpt lat="41.5364" lon="43.89089">
        <ele>2026.897845</ele>
        <time>2021-08-17T08:44:07.714Z</time>
      </trkpt>
      <trkpt lat="41.53678" lon="43.89106">
        <ele>2025.240687</ele>
        <time>2021-08-17T08:44:14.031Z</time>
      </trkpt>
      <trkpt lat="41.53713" lon="43.89113">
        <ele>2023.720285</ele>
        <time>2021-08-17T08:44:19.917Z</time>
      </trkpt>
      <trkpt lat="41.53743" lon="43.89109">
        <ele>2022.474682</ele>
        <time>2021-08-17T08:44:24.788Z</time>
      </trkpt>
      <trkpt lat="41.53779" lon="43.89092">
        <ele>2020.868974</ele>
        <time>2021-08-17T08:44:31.174Z</time>
      </trkpt>
      <trkpt lat="41.53886" lon="43.89015">
        <ele>2016.079742</ele>
        <time>2021-08-17T08:44:51.974Z</time>
      </trkpt>
      <trkpt lat="41.53956" lon="43.88957">
        <ele>2012.918586</ele>
        <time>2021-08-17T08:45:05.388Z</time>
      </trkpt>
      <trkpt lat="41.54031" lon="43.88868">
        <ele>2006.645345</ele>
        <time>2021-08-17T08:45:21.063Z</time>
      </trkpt>
      <trkpt lat="41.54074" lon="43.88837">
        <ele>2003.619786</ele>
        <time>2021-08-17T08:45:28.327Z</time>
      </trkpt>
      <trkpt lat="41.54117" lon="43.88823">
        <ele>2000.485412</ele>
        <time>2021-08-17T08:45:34.895Z</time>
      </trkpt>
      <trkpt lat="41.54167" lon="43.88826">
        <ele>1996.171554</ele>
        <time>2021-08-17T08:45:42.206Z</time>
      </trkpt>
      <trkpt lat="41.54388" lon="43.88872">
        <ele>1976.514157</ele>
        <time>2021-08-17T08:46:14.469Z</time>
      </trkpt>
      <trkpt lat="41.54426" lon="43.88885">
        <ele>1972.991626</ele>
        <time>2021-08-17T08:46:20.150Z</time>
      </trkpt>
      <trkpt lat="41.5449" lon="43.88918">
        <ele>1966.75171</ele>
        <time>2021-08-17T08:46:29.962Z</time>
      </trkpt>
      <trkpt lat="41.54531" lon="43.88915">
        <ele>1962.929347</ele>
        <time>2021-08-17T08:46:35.869Z</time>
      </trkpt>
      <trkpt lat="41.54564" lon="43.88901">
        <ele>1959.705848</ele>
        <time>2021-08-17T08:46:40.815Z</time>
      </trkpt>
      <trkpt lat="41.546" lon="43.88895">
        <ele>1956.268721</ele>
        <time>2021-08-17T08:46:46.070Z</time>
      </trkpt>
      <trkpt lat="41.54629" lon="43.88901">
        <ele>1953.569984</ele>
        <time>2021-08-17T08:46:50.172Z</time>
      </trkpt>
      <trkpt lat="41.54659" lon="43.88918">
        <ele>1950.498993</ele>
        <time>2021-08-17T08:46:54.729Z</time>
      </trkpt>
      <trkpt lat="41.54747" lon="43.89009">
        <ele>1939.837078</ele>
        <time>2021-08-17T08:47:10.556Z</time>
      </trkpt>
      <trkpt lat="41.54829" lon="43.89078">
        <ele>1933.110533</ele>
        <time>2021-08-17T08:47:24.744Z</time>
      </trkpt>
      <trkpt lat="41.54863" lon="43.89092">
        <ele>1931.235745</ele>
        <time>2021-08-17T08:47:30.226Z</time>
      </trkpt>
      <trkpt lat="41.54958" lon="43.89103">
        <ele>1926.766076</ele>
        <time>2021-08-17T08:47:46.496Z</time>
      </trkpt>
      <trkpt lat="41.55012" lon="43.89098">
        <ele>1926.771321</ele>
        <time>2021-08-17T08:47:58.085Z</time>
      </trkpt>
      <trkpt lat="41.55032" lon="43.8908">
        <ele>1926.77361</ele>
        <time>2021-08-17T08:48:04.067Z</time>
      </trkpt>
      <trkpt lat="41.55043" lon="43.89059">
        <ele>1926.775527</ele>
        <time>2021-08-17T08:48:09.408Z</time>
      </trkpt>
      <trkpt lat="41.55052" lon="43.89034">
        <ele>1926.777523</ele>
        <time>2021-08-17T08:48:15.015Z</time>
      </trkpt>
      <trkpt lat="41.55056" lon="43.89">
        <ele>1926.780014</ele>
        <time>2021-08-17T08:48:22.192Z</time>
      </trkpt>
      <trkpt lat="41.55042" lon="43.88928">
        <ele>1926.506957</ele>
        <time>2021-08-17T08:48:38.636Z</time>
      </trkpt>
      <trkpt lat="41.54976" lon="43.88759">
        <ele>1925.189223</ele>
        <time>2021-08-17T08:49:07.421Z</time>
      </trkpt>
      <trkpt lat="41.54975" lon="43.88743">
        <ele>1924.852471</ele>
        <time>2021-08-17T08:49:09.380Z</time>
      </trkpt>
      <trkpt lat="41.54979" lon="43.88731">
        <ele>1924.233581</ele>
        <time>2021-08-17T08:49:10.993Z</time>
      </trkpt>
      <trkpt lat="41.54988" lon="43.88728">
        <ele>1923.633915</ele>
        <time>2021-08-17T08:49:12.537Z</time>
      </trkpt>
      <trkpt lat="41.55001" lon="43.88743">
        <ele>1922.500794</ele>
        <time>2021-08-17T08:49:15.406Z</time>
      </trkpt>
      <trkpt lat="41.55014" lon="43.8879">
        <ele>1920.188618</ele>
        <time>2021-08-17T08:49:21.146Z</time>
      </trkpt>
      <trkpt lat="41.5505" lon="43.88852">
        <ele>1916.510818</ele>
        <time>2021-08-17T08:49:29.918Z</time>
      </trkpt>
      <trkpt lat="41.55087" lon="43.8889">
        <ele>1913.370722</ele>
        <time>2021-08-17T08:49:36.809Z</time>
      </trkpt>
      <trkpt lat="41.55148" lon="43.88937">
        <ele>1906.700853</ele>
        <time>2021-08-17T08:49:46.768Z</time>
      </trkpt>
      <trkpt lat="41.55249" lon="43.89005">
        <ele>1895.920831</ele>
        <time>2021-08-17T08:50:02.837Z</time>
      </trkpt>
      <trkpt lat="41.55481" lon="43.89086">
        <ele>1874.28196</ele>
        <time>2021-08-17T08:50:37.351Z</time>
      </trkpt>
      <trkpt lat="41.55505" lon="43.89099">
        <ele>1872.118223</ele>
        <time>2021-08-17T08:50:41.105Z</time>
      </trkpt>
      <trkpt lat="41.55542" lon="43.89134">
        <ele>1868.328721</ele>
        <time>2021-08-17T08:50:47.712Z</time>
      </trkpt>
      <trkpt lat="41.55571" lon="43.89177">
        <ele>1864.611701</ele>
        <time>2021-08-17T08:50:54.210Z</time>
      </trkpt>
      <trkpt lat="41.55618" lon="43.89267">
        <ele>1857.966138</ele>
        <time>2021-08-17T08:51:06.213Z</time>
      </trkpt>
      <trkpt lat="41.55725" lon="43.89425">
        <ele>1844.542647</ele>
        <time>2021-08-17T08:51:29.516Z</time>
      </trkpt>
      <trkpt lat="41.55743" lon="43.89464">
        <ele>1841.552403</ele>
        <time>2021-08-17T08:51:34.442Z</time>
      </trkpt>
      <trkpt lat="41.55858" lon="43.89772">
        <ele>1818.116178</ele>
        <time>2021-08-17T08:52:11.608Z</time>
      </trkpt>
      <trkpt lat="41.55925" lon="43.89994">
        <ele>1799.727428</ele>
        <time>2021-08-17T08:52:37.008Z</time>
      </trkpt>
      <trkpt lat="41.55952" lon="43.90054">
        <ele>1793.52246</ele>
        <time>2021-08-17T08:52:44.327Z</time>
      </trkpt>
      <trkpt lat="41.55987" lon="43.90105">
        <ele>1787.267251</ele>
        <time>2021-08-17T08:52:51.539Z</time>
      </trkpt>
      <trkpt lat="41.56068" lon="43.90186">
        <ele>1775.128912</ele>
        <time>2021-08-17T08:53:05.360Z</time>
      </trkpt>
      <trkpt lat="41.56167" lon="43.90268">
        <ele>1760.859654</ele>
        <time>2021-08-17T08:53:21.345Z</time>
      </trkpt>
      <trkpt lat="41.5643" lon="43.90324">
        <ele>1734.707889</ele>
        <time>2021-08-17T08:53:59.026Z</time>
      </trkpt>
      <trkpt lat="41.56465" lon="43.90322">
        <ele>1732.501007</ele>
        <time>2021-08-17T08:54:04.385Z</time>
      </trkpt>
      <trkpt lat="41.56517" lon="43.90297">
        <ele>1728.929707</ele>
        <time>2021-08-17T08:54:13.419Z</time>
      </trkpt>
      <trkpt lat="41.56613" lon="43.9022">
        <ele>1721.768852</ele>
        <time>2021-08-17T08:54:31.223Z</time>
      </trkpt>
      <trkpt lat="41.5665" lon="43.90191">
        <ele>1719.036059</ele>
        <time>2021-08-17T08:54:37.813Z</time>
      </trkpt>
      <trkpt lat="41.5668" lon="43.90168">
        <ele>1716.77827</ele>
        <time>2021-08-17T08:54:43.106Z</time>
      </trkpt>
      <trkpt lat="41.56785" lon="43.90125">
        <ele>1707.24039</ele>
        <time>2021-08-17T08:54:58.952Z</time>
      </trkpt>
      <trkpt lat="41.56896" lon="43.90095">
        <ele>1696.126654</ele>
        <time>2021-08-17T08:55:14.898Z</time>
      </trkpt>
      <trkpt lat="41.57169" lon="43.90072">
        <ele>1667.589629</ele>
        <time>2021-08-17T08:55:53.269Z</time>
      </trkpt>
      <trkpt lat="41.57392" lon="43.90032">
        <ele>1646.659557</ele>
        <time>2021-08-17T08:56:25.541Z</time>
      </trkpt>
      <trkpt lat="41.57508" lon="43.90005">
        <ele>1636.68766</ele>
        <time>2021-08-17T08:56:42.803Z</time>
      </trkpt>
      <trkpt lat="41.57751" lon="43.89922">
        <ele>1615.853334</ele>
        <time>2021-08-17T08:57:19.391Z</time>
      </trkpt>
      <trkpt lat="41.57777" lon="43.89922">
        <ele>1613.738753</ele>
        <time>2021-08-17T08:57:23.059Z</time>
      </trkpt>
      <trkpt lat="41.57813" lon="43.89948">
        <ele>1610.23086</ele>
        <time>2021-08-17T08:57:29.101Z</time>
      </trkpt>
      <trkpt lat="41.57816" lon="43.89951">
        <ele>1609.933159</ele>
        <time>2021-08-17T08:57:29.572Z</time>
      </trkpt>
      <trkpt lat="41.57829" lon="43.89971">
        <ele>1608.243749</ele>
        <time>2021-08-17T08:57:32.480Z</time>
      </trkpt>
      <trkpt lat="41.5796" lon="43.90314">
        <ele>1584.559364</ele>
        <time>2021-08-17T08:58:14.752Z</time>
      </trkpt>
      <trkpt lat="41.57967" lon="43.9033">
        <ele>1583.517902</ele>
        <time>2021-08-17T08:58:16.710Z</time>
      </trkpt>
      <trkpt lat="41.58001" lon="43.90416">
        <ele>1578.090177</ele>
        <time>2021-08-17T08:58:27.558Z</time>
      </trkpt>
      <trkpt lat="41.58031" lon="43.9051">
        <ele>1572.414117</ele>
        <time>2021-08-17T08:58:38.954Z</time>
      </trkpt>
      <trkpt lat="41.58069" lon="43.90601">
        <ele>1567.577643</ele>
        <time>2021-08-17T08:58:50.715Z</time>
      </trkpt>
      <trkpt lat="41.58102" lon="43.90708">
        <ele>1562.657966</ele>
        <time>2021-08-17T08:59:04.251Z</time>
      </trkpt>
      <trkpt lat="41.58104" lon="43.90724">
        <ele>1561.987401</ele>
        <time>2021-08-17T08:59:06.015Z</time>
      </trkpt>
      <trkpt lat="41.5811" lon="43.90762">
        <ele>1560.385265</ele>
        <time>2021-08-17T08:59:10.920Z</time>
      </trkpt>
      <trkpt lat="41.58111" lon="43.90778">
        <ele>1560.058866</ele>
        <time>2021-08-17T08:59:12.814Z</time>
      </trkpt>
      <trkpt lat="41.58112" lon="43.90814">
        <ele>1559.308657</ele>
        <time>2021-08-17T08:59:17.310Z</time>
      </trkpt>
      <trkpt lat="41.58102" lon="43.90913">
        <ele>1557.229907</ele>
        <time>2021-08-17T08:59:30.249Z</time>
      </trkpt>
      <trkpt lat="41.58069" lon="43.91057">
        <ele>1554.392238</ele>
        <time>2021-08-17T08:59:51.799Z</time>
      </trkpt>
      <trkpt lat="41.58063" lon="43.911">
        <ele>1553.679765</ele>
        <time>2021-08-17T08:59:57.916Z</time>
      </trkpt>
      <trkpt lat="41.58063" lon="43.91139">
        <ele>1553.055025</ele>
        <time>2021-08-17T09:00:03.196Z</time>
      </trkpt>
      <trkpt lat="41.58067" lon="43.91181">
        <ele>1552.37662</ele>
        <time>2021-08-17T09:00:08.873Z</time>
      </trkpt>
      <trkpt lat="41.58074" lon="43.91253">
        <ele>1550.98194</ele>
        <time>2021-08-17T09:00:18.506Z</time>
      </trkpt>
      <trkpt lat="41.58087" lon="43.91373">
        <ele>1547.811038</ele>
        <time>2021-08-17T09:00:33.758Z</time>
      </trkpt>
      <trkpt lat="41.581" lon="43.91444">
        <ele>1545.896327</ele>
        <time>2021-08-17T09:00:42.823Z</time>
      </trkpt>
      <trkpt lat="41.58108" lon="43.91466">
        <ele>1545.275859</ele>
        <time>2021-08-17T09:00:45.862Z</time>
      </trkpt>
      <trkpt lat="41.58116" lon="43.91477">
        <ele>1544.879917</ele>
        <time>2021-08-17T09:00:47.826Z</time>
      </trkpt>
      <trkpt lat="41.58127" lon="43.91495">
        <ele>1544.289985</ele>
        <time>2021-08-17T09:00:50.788Z</time>
      </trkpt>
      <trkpt lat="41.58161" lon="43.91533">
        <ele>1542.82918</ele>
        <time>2021-08-17T09:00:58.229Z</time>
      </trkpt>
      <trkpt lat="41.58246" lon="43.9161">
        <ele>1539.393168</ele>
        <time>2021-08-17T09:01:15.763Z</time>
      </trkpt>
      <trkpt lat="41.58324" lon="43.91726">
        <ele>1536.205346</ele>
        <time>2021-08-17T09:01:36.301Z</time>
      </trkpt>
      <trkpt lat="41.58353" lon="43.91773">
        <ele>1534.94906</ele>
        <time>2021-08-17T09:01:44.436Z</time>
      </trkpt>
      <trkpt lat="41.5837" lon="43.91796">
        <ele>1534.295521</ele>
        <time>2021-08-17T09:01:48.624Z</time>
      </trkpt>
      <trkpt lat="41.58457" lon="43.9191">
        <ele>1531.17105</ele>
        <time>2021-08-17T09:02:09.961Z</time>
      </trkpt>
      <trkpt lat="41.58593" lon="43.92069">
        <ele>1527.751037</ele>
        <time>2021-08-17T09:02:42.938Z</time>
      </trkpt>
      <trkpt lat="41.58774" lon="43.92234">
        <ele>1526.183945</ele>
        <time>2021-08-17T09:03:28.648Z</time>
      </trkpt>
      <trkpt lat="41.58817" lon="43.9228">
        <ele>1526.529278</ele>
        <time>2021-08-17T09:03:41.068Z</time>
      </trkpt>
      <trkpt lat="41.58875" lon="43.92353">
        <ele>1527.329043</ele>
        <time>2021-08-17T09:04:01.227Z</time>
      </trkpt>
      <trkpt lat="41.58898" lon="43.92386">
        <ele>1527.670207</ele>
        <time>2021-08-17T09:04:11.859Z</time>
      </trkpt>
      <trkpt lat="41.58931" lon="43.92439">
        <ele>1528.81438</ele>
        <time>2021-08-17T09:04:29.274Z</time>
      </trkpt>
      <trkpt lat="41.58954" lon="43.92479">
        <ele>1530.096301</ele>
        <time>2021-08-17T09:04:43.870Z</time>
      </trkpt>
      <trkpt lat="41.58965" lon="43.92504">
        <ele>1530.832003</ele>
        <time>2021-08-17T09:04:52.094Z</time>
      </trkpt>
      <trkpt lat="41.58972" lon="43.92523">
        <ele>1531.368434</ele>
        <time>2021-08-17T09:04:58.716Z</time>
      </trkpt>
      <trkpt lat="41.58984" lon="43.92555">
        <ele>1532.257614</ele>
        <time>2021-08-17T09:05:09.418Z</time>
      </trkpt>
      <trkpt lat="41.58997" lon="43.92616">
        <ele>1533.884531</ele>
        <time>2021-08-17T09:05:29.774Z</time>
      </trkpt>
      <trkpt lat="41.58995" lon="43.92639">
        <ele>1534.487532</ele>
        <time>2021-08-17T09:05:36.600Z</time>
      </trkpt>
      <trkpt lat="41.58995" lon="43.92645">
        <ele>1534.672298</ele>
        <time>2021-08-17T09:05:39.294Z</time>
      </trkpt>
      <trkpt lat="41.58992" lon="43.92714">
        <ele>1536.570133</ele>
        <time>2021-08-17T09:06:02.354Z</time>
      </trkpt>
      <trkpt lat="41.58998" lon="43.92762">
        <ele>1537.922576</ele>
        <time>2021-08-17T09:06:17.000Z</time>
      </trkpt>
      <trkpt lat="41.59" lon="43.92795">
        <ele>1538.832103</ele>
        <time>2021-08-17T09:06:26.937Z</time>
      </trkpt>
      <trkpt lat="41.59" lon="43.92802">
        <ele>1539.016979</ele>
        <time>2021-08-17T09:06:29.264Z</time>
      </trkpt>
      <trkpt lat="41.58997" lon="43.92844">
        <ele>1540.193942</ele>
        <time>2021-08-17T09:06:41.562Z</time>
      </trkpt>
      <trkpt lat="41.58991" lon="43.92891">
        <ele>1541.141219</ele>
        <time>2021-08-17T09:06:53.593Z</time>
      </trkpt>
      <trkpt lat="41.58987" lon="43.92924">
        <ele>1541.667595</ele>
        <time>2021-08-17T09:07:03.059Z</time>
      </trkpt>
      <trkpt lat="41.5896" lon="43.93001">
        <ele>1542.986235</ele>
        <time>2021-08-17T09:07:26.040Z</time>
      </trkpt>
      <trkpt lat="41.58957" lon="43.93017">
        <ele>1543.241153</ele>
        <time>2021-08-17T09:07:29.886Z</time>
      </trkpt>
      <trkpt lat="41.58962" lon="43.93046">
        <ele>1543.700804</ele>
        <time>2021-08-17T09:07:36.316Z</time>
      </trkpt>
      <trkpt lat="41.58965" lon="43.93053">
        <ele>1543.843045</ele>
        <time>2021-08-17T09:07:38.270Z</time>
      </trkpt>
      <trkpt lat="41.58974" lon="43.93071">
        <ele>1544.172577</ele>
        <time>2021-08-17T09:07:42.355Z</time>
      </trkpt>
      <trkpt lat="41.58989" lon="43.93086">
        <ele>1544.45671</ele>
        <time>2021-08-17T09:07:47.331Z</time>
      </trkpt>
      <trkpt lat="41.58995" lon="43.93093">
        <ele>1544.505522</ele>
        <time>2021-08-17T09:07:49.450Z</time>
      </trkpt>
      <trkpt lat="41.59008" lon="43.93105">
        <ele>1544.59479</ele>
        <time>2021-08-17T09:07:52.642Z</time>
      </trkpt>
      <trkpt lat="41.59013" lon="43.93105">
        <ele>1544.622644</ele>
        <time>2021-08-17T09:07:54.190Z</time>
      </trkpt>
      <trkpt lat="41.59016" lon="43.93105">
        <ele>1544.640101</ele>
        <time>2021-08-17T09:07:54.892Z</time>
      </trkpt>
      <trkpt lat="41.59036" lon="43.93099">
        <ele>1544.758873</ele>
        <time>2021-08-17T09:07:59.252Z</time>
      </trkpt>
      <trkpt lat="41.59067" lon="43.93088">
        <ele>1544.946223</ele>
        <time>2021-08-17T09:08:07.126Z</time>
      </trkpt>
      <trkpt lat="41.59103" lon="43.93073">
        <ele>1545.166403</ele>
        <time>2021-08-17T09:08:16.269Z</time>
      </trkpt>
      <trkpt lat="41.59133" lon="43.93057">
        <ele>1545.35296</ele>
        <time>2021-08-17T09:08:25.252Z</time>
      </trkpt>
      <trkpt lat="41.59138" lon="43.93054">
        <ele>1545.386706</ele>
        <time>2021-08-17T09:08:26.407Z</time>
      </trkpt>
      <trkpt lat="41.5915" lon="43.93048">
        <ele>1545.459499</ele>
        <time>2021-08-17T09:08:30.080Z</time>
      </trkpt>
      <trkpt lat="41.59174" lon="43.93043">
        <ele>1545.780068</ele>
        <time>2021-08-17T09:08:36.168Z</time>
      </trkpt>
      <trkpt lat="41.592" lon="43.93053">
        <ele>1546.13199</ele>
        <time>2021-08-17T09:08:43.632Z</time>
      </trkpt>
      <trkpt lat="41.59206" lon="43.93057">
        <ele>1546.216241</ele>
        <time>2021-08-17T09:08:45.031Z</time>
      </trkpt>
      <trkpt lat="41.59219" lon="43.93067">
        <ele>1546.407177</ele>
        <time>2021-08-17T09:08:49.059Z</time>
      </trkpt>
      <trkpt lat="41.59237" lon="43.93088">
        <ele>1546.719133</ele>
        <time>2021-08-17T09:08:56.074Z</time>
      </trkpt>
      <trkpt lat="41.59259" lon="43.93117">
        <ele>1547.12665</ele>
        <time>2021-08-17T09:09:06.129Z</time>
      </trkpt>
      <trkpt lat="41.59284" lon="43.93146">
        <ele>1547.551851</ele>
        <time>2021-08-17T09:09:16.633Z</time>
      </trkpt>
      <trkpt lat="41.5932" lon="43.93208">
        <ele>1547.670376</ele>
        <time>2021-08-17T09:09:34.129Z</time>
      </trkpt>
      <trkpt lat="41.59322" lon="43.93213">
        <ele>1547.656123</ele>
        <time>2021-08-17T09:09:35.924Z</time>
      </trkpt>
      <trkpt lat="41.59326" lon="43.93226">
        <ele>1547.620212</ele>
        <time>2021-08-17T09:09:38.643Z</time>
      </trkpt>
      <trkpt lat="41.59329" lon="43.93232">
        <ele>1547.600638</ele>
        <time>2021-08-17T09:09:39.959Z</time>
      </trkpt>
      <trkpt lat="41.59346" lon="43.93327">
        <ele>1547.346951</ele>
        <time>2021-08-17T09:09:55.276Z</time>
      </trkpt>
      <trkpt lat="41.59347" lon="43.9334">
        <ele>1547.31134</ele>
        <time>2021-08-17T09:09:57.178Z</time>
      </trkpt>
      <trkpt lat="41.59354" lon="43.93395">
        <ele>1547.078733</ele>
        <time>2021-08-17T09:10:04.723Z</time>
      </trkpt>
      <trkpt lat="41.59359" lon="43.9347">
        <ele>1545.470224</ele>
        <time>2021-08-17T09:10:14.551Z</time>
      </trkpt>
      <trkpt lat="41.5936" lon="43.93488">
        <ele>1545.085692</ele>
        <time>2021-08-17T09:10:16.919Z</time>
      </trkpt>
      <trkpt lat="41.5936" lon="43.93514">
        <ele>1544.536916</ele>
        <time>2021-08-17T09:10:20.199Z</time>
      </trkpt>
      <trkpt lat="41.59353" lon="43.9358">
        <ele>1543.130866</ele>
        <time>2021-08-17T09:10:28.729Z</time>
      </trkpt>
      <trkpt lat="41.59347" lon="43.93624">
        <ele>1542.183764</ele>
        <time>2021-08-17T09:10:34.446Z</time>
      </trkpt>
      <trkpt lat="41.59345" lon="43.93645">
        <ele>1541.878445</ele>
        <time>2021-08-17T09:10:37.215Z</time>
      </trkpt>
      <trkpt lat="41.59346" lon="43.93743">
        <ele>1540.645914</ele>
        <time>2021-08-17T09:10:50.532Z</time>
      </trkpt>
      <trkpt lat="41.59347" lon="43.93753">
        <ele>1540.518401</ele>
        <time>2021-08-17T09:10:51.956Z</time>
      </trkpt>
      <trkpt lat="41.59354" lon="43.93815">
        <ele>1539.730302</ele>
        <time>2021-08-17T09:11:00.982Z</time>
      </trkpt>
      <trkpt lat="41.5936" lon="43.93868">
        <ele>1539.065063</ele>
        <time>2021-08-17T09:11:09.172Z</time>
      </trkpt>
      <trkpt lat="41.59406" lon="43.9407">
        <ele>1538.199248</ele>
        <time>2021-08-17T09:11:43.591Z</time>
      </trkpt>
      <trkpt lat="41.59412" lon="43.94095">
        <ele>1538.091613</ele>
        <time>2021-08-17T09:11:47.506Z</time>
      </trkpt>
      <trkpt lat="41.59423" lon="43.94134">
        <ele>1537.397649</ele>
        <time>2021-08-17T09:11:53.354Z</time>
      </trkpt>
      <trkpt lat="41.59436" lon="43.94189">
        <ele>1536.395218</ele>
        <time>2021-08-17T09:12:01.217Z</time>
      </trkpt>
      <trkpt lat="41.59448" lon="43.94238">
        <ele>1535.485512</ele>
        <time>2021-08-17T09:12:08.201Z</time>
      </trkpt>
      <trkpt lat="41.59453" lon="43.94266">
        <ele>1534.998876</ele>
        <time>2021-08-17T09:12:11.889Z</time>
      </trkpt>
      <trkpt lat="41.59451" lon="43.94291">
        <ele>1534.557305</ele>
        <time>2021-08-17T09:12:15.136Z</time>
      </trkpt>
      <trkpt lat="41.59443" lon="43.94315">
        <ele>1534.089429</ele>
        <time>2021-08-17T09:12:18.605Z</time>
      </trkpt>
      <trkpt lat="41.59425" lon="43.94348">
        <ele>1533.339694</ele>
        <time>2021-08-17T09:12:23.570Z</time>
      </trkpt>
      <trkpt lat="41.59354" lon="43.94453">
        <ele>1530.571965</ele>
        <time>2021-08-17T09:12:41.731Z</time>
      </trkpt>
      <trkpt lat="41.59276" lon="43.9462">
        <ele>1529.034096</ele>
        <time>2021-08-17T09:13:10.846Z</time>
      </trkpt>
      <trkpt lat="41.59238" lon="43.94755">
        <ele>1529.25674</ele>
        <time>2021-08-17T09:13:39.080Z</time>
      </trkpt>
      <trkpt lat="41.5923" lon="43.94801">
        <ele>1529.854147</ele>
        <time>2021-08-17T09:13:49.760Z</time>
      </trkpt>
      <trkpt lat="41.59228" lon="43.94843">
        <ele>1530.391497</ele>
        <time>2021-08-17T09:14:00.039Z</time>
      </trkpt>
      <trkpt lat="41.59291" lon="43.95217">
        <ele>1535.102957</ele>
        <time>2021-08-17T09:15:31.751Z</time>
      </trkpt>
      <trkpt lat="41.59305" lon="43.95265">
        <ele>1535.093447</ele>
        <time>2021-08-17T09:15:40.659Z</time>
      </trkpt>
      <trkpt lat="41.59359" lon="43.95361">
        <ele>1535.07131</ele>
        <time>2021-08-17T09:15:59.629Z</time>
      </trkpt>
      <trkpt lat="41.59389" lon="43.95403">
        <ele>1535.007161</ele>
        <time>2021-08-17T09:16:08.382Z</time>
      </trkpt>
      <trkpt lat="41.59509" lon="43.95493">
        <ele>1534.140907</ele>
        <time>2021-08-17T09:16:36.292Z</time>
      </trkpt>
      <trkpt lat="41.59526" lon="43.95532">
        <ele>1533.936034</ele>
        <time>2021-08-17T09:16:43.521Z</time>
      </trkpt>
      <trkpt lat="41.59527" lon="43.95579">
        <ele>1534.134651</ele>
        <time>2021-08-17T09:16:51.439Z</time>
      </trkpt>
      <trkpt lat="41.59527" lon="43.95596">
        <ele>1534.209613</ele>
        <time>2021-08-17T09:16:54.537Z</time>
      </trkpt>
      <trkpt lat="41.59524" lon="43.95658">
        <ele>1534.472734</ele>
        <time>2021-08-17T09:17:06.030Z</time>
      </trkpt>
      <trkpt lat="41.59523" lon="43.95726">
        <ele>1534.758106</ele>
        <time>2021-08-17T09:17:19.229Z</time>
      </trkpt>
      <trkpt lat="41.59523" lon="43.95752">
        <ele>1534.87071</ele>
        <time>2021-08-17T09:17:24.987Z</time>
      </trkpt>
      <trkpt lat="41.59525" lon="43.95778">
        <ele>1535.037155</ele>
        <time>2021-08-17T09:17:30.405Z</time>
      </trkpt>
      <trkpt lat="41.59532" lon="43.95832">
        <ele>1535.691952</ele>
        <time>2021-08-17T09:17:42.403Z</time>
      </trkpt>
      <trkpt lat="41.59544" lon="43.95949">
        <ele>1537.125997</ele>
        <time>2021-08-17T09:18:11.057Z</time>
      </trkpt>
      <trkpt lat="41.59547" lon="43.9598">
        <ele>1537.503416</ele>
        <time>2021-08-17T09:18:18.093Z</time>
      </trkpt>
      <trkpt lat="41.59546" lon="43.96022">
        <ele>1537.960205</ele>
        <time>2021-08-17T09:18:26.995Z</time>
      </trkpt>
      <trkpt lat="41.59541" lon="43.9604">
        <ele>1538.1196</ele>
        <time>2021-08-17T09:18:31.257Z</time>
      </trkpt>
      <trkpt lat="41.59537" lon="43.9605">
        <ele>1538.220402</ele>
        <time>2021-08-17T09:18:33.651Z</time>
      </trkpt>
      <trkpt lat="41.59534" lon="43.96061">
        <ele>1538.316582</ele>
        <time>2021-08-17T09:18:36.019Z</time>
      </trkpt>
      <trkpt lat="41.59523" lon="43.96099">
        <ele>1538.652433</ele>
        <time>2021-08-17T09:18:44.655Z</time>
      </trkpt>
      <trkpt lat="41.59518" lon="43.96126">
        <ele>1538.87828</ele>
        <time>2021-08-17T09:18:50.345Z</time>
      </trkpt>
      <trkpt lat="41.59515" lon="43.96138">
        <ele>1538.982743</ele>
        <time>2021-08-17T09:18:52.961Z</time>
      </trkpt>
      <trkpt lat="41.59508" lon="43.96164">
        <ele>1539.215452</ele>
        <time>2021-08-17T09:18:58.743Z</time>
      </trkpt>
      <trkpt lat="41.59499" lon="43.96189">
        <ele>1539.441072</ele>
        <time>2021-08-17T09:19:05.017Z</time>
      </trkpt>
      <trkpt lat="41.59492" lon="43.96202">
        <ele>1539.576389</ele>
        <time>2021-08-17T09:19:08.236Z</time>
      </trkpt>
      <trkpt lat="41.59486" lon="43.96212">
        <ele>1539.681184</ele>
        <time>2021-08-17T09:19:11.007Z</time>
      </trkpt>
      <trkpt lat="41.59463" lon="43.96248">
        <ele>1539.813803</ele>
        <time>2021-08-17T09:19:20.055Z</time>
      </trkpt>
      <trkpt lat="41.59448" lon="43.96271">
        <ele>1539.772497</ele>
        <time>2021-08-17T09:19:25.594Z</time>
      </trkpt>
      <trkpt lat="41.59418" lon="43.96321">
        <ele>1539.684709</ele>
        <time>2021-08-17T09:19:36.095Z</time>
      </trkpt>
      <trkpt lat="41.59411" lon="43.96339">
        <ele>1539.656615</ele>
        <time>2021-08-17T09:19:40.027Z</time>
      </trkpt>
      <trkpt lat="41.59403" lon="43.96356">
        <ele>1539.629175</ele>
        <time>2021-08-17T09:19:43.106Z</time>
      </trkpt>
      <trkpt lat="41.59401" lon="43.96363">
        <ele>1539.619379</ele>
        <time>2021-08-17T09:19:44.228Z</time>
      </trkpt>
      <trkpt lat="41.59386" lon="43.96407">
        <ele>1539.553057</ele>
        <time>2021-08-17T09:19:51.735Z</time>
      </trkpt>
      <trkpt lat="41.59367" lon="43.96461">
        <ele>1538.8306</ele>
        <time>2021-08-17T09:20:00.535Z</time>
      </trkpt>
      <trkpt lat="41.59341" lon="43.96536">
        <ele>1537.305491</ele>
        <time>2021-08-17T09:20:11.684Z</time>
      </trkpt>
      <trkpt lat="41.59329" lon="43.96573">
        <ele>1536.559162</ele>
        <time>2021-08-17T09:20:16.810Z</time>
      </trkpt>
      <trkpt lat="41.59305" lon="43.96654">
        <ele>1534.992905</ele>
        <time>2021-08-17T09:20:27.879Z</time>
      </trkpt>
      <trkpt lat="41.59272" lon="43.96765">
        <ele>1533.750278</ele>
        <time>2021-08-17T09:20:43.705Z</time>
      </trkpt>
      <trkpt lat="41.59271" lon="43.96785">
        <ele>1533.546653</ele>
        <time>2021-08-17T09:20:46.500Z</time>
      </trkpt>
      <trkpt lat="41.59273" lon="43.968">
        <ele>1533.387944</ele>
        <time>2021-08-17T09:20:48.818Z</time>
      </trkpt>
      <trkpt lat="41.59277" lon="43.96816">
        <ele>1533.207937</ele>
        <time>2021-08-17T09:20:52.148Z</time>
      </trkpt>
      <trkpt lat="41.59283" lon="43.96829">
        <ele>1533.055972</ele>
        <time>2021-08-17T09:20:54.479Z</time>
      </trkpt>
      <trkpt lat="41.59296" lon="43.9685">
        <ele>1532.765548</ele>
        <time>2021-08-17T09:20:59.799Z</time>
      </trkpt>
      <trkpt lat="41.59314" lon="43.96883">
        <ele>1532.797593</ele>
        <time>2021-08-17T09:21:07.605Z</time>
      </trkpt>
      <trkpt lat="41.59329" lon="43.96906">
        <ele>1533.131907</ele>
        <time>2021-08-17T09:21:14.172Z</time>
      </trkpt>
      <trkpt lat="41.59351" lon="43.96956">
        <ele>1533.745956</ele>
        <time>2021-08-17T09:21:26.037Z</time>
      </trkpt>
      <trkpt lat="41.59353" lon="43.9697">
        <ele>1533.903099</ele>
        <time>2021-08-17T09:21:29.822Z</time>
      </trkpt>
      <trkpt lat="41.59356" lon="43.96984">
        <ele>1534.064077</ele>
        <time>2021-08-17T09:21:33.628Z</time>
      </trkpt>
      <trkpt lat="41.59366" lon="43.97035">
        <ele>1534.638204</ele>
        <time>2021-08-17T09:21:46.733Z</time>
      </trkpt>
      <trkpt lat="41.59377" lon="43.97085">
        <ele>1535.185324</ele>
        <time>2021-08-17T09:21:59.575Z</time>
      </trkpt>
      <trkpt lat="41.59424" lon="43.9724">
        <ele>1536.015989</ele>
        <time>2021-08-17T09:22:32.463Z</time>
      </trkpt>
      <trkpt lat="41.59442" lon="43.97294">
        <ele>1536.310305</ele>
        <time>2021-08-17T09:22:41.707Z</time>
      </trkpt>
      <trkpt lat="41.59448" lon="43.97314">
        <ele>1536.367341</ele>
        <time>2021-08-17T09:22:45.229Z</time>
      </trkpt>
      <trkpt lat="41.59459" lon="43.97346">
        <ele>1536.376865</ele>
        <time>2021-08-17T09:22:51.045Z</time>
      </trkpt>
      <trkpt lat="41.59474" lon="43.9739">
        <ele>1536.390092</ele>
        <time>2021-08-17T09:22:59.822Z</time>
      </trkpt>
      <trkpt lat="41.59484" lon="43.97421">
        <ele>1536.399232</ele>
        <time>2021-08-17T09:23:06.457Z</time>
      </trkpt>
      <trkpt lat="41.5949" lon="43.9744">
        <ele>1536.404829</ele>
        <time>2021-08-17T09:23:10.469Z</time>
      </trkpt>
      <trkpt lat="41.595" lon="43.97471">
        <ele>1536.413977</ele>
        <time>2021-08-17T09:23:16.424Z</time>
      </trkpt>
      <trkpt lat="41.59537" lon="43.97577">
        <ele>1536.147673</ele>
        <time>2021-08-17T09:23:34.551Z</time>
      </trkpt>
      <trkpt lat="41.59539" lon="43.97581">
        <ele>1536.126791</ele>
        <time>2021-08-17T09:23:35.287Z</time>
      </trkpt>
      <trkpt lat="41.59553" lon="43.97624">
        <ele>1535.900667</ele>
        <time>2021-08-17T09:23:42.294Z</time>
      </trkpt>
      <trkpt lat="41.5957" lon="43.97676">
        <ele>1535.621541</ele>
        <time>2021-08-17T09:23:51.324Z</time>
      </trkpt>
      <trkpt lat="41.59595" lon="43.97762">
        <ele>1535.264718</ele>
        <time>2021-08-17T09:24:05.383Z</time>
      </trkpt>
      <trkpt lat="41.59611" lon="43.97813">
        <ele>1535.251918</ele>
        <time>2021-08-17T09:24:13.467Z</time>
      </trkpt>
      <trkpt lat="41.59749" lon="43.98263">
        <ele>1535.904249</ele>
        <time>2021-08-17T09:25:42.059Z</time>
      </trkpt>
      <trkpt lat="41.59781" lon="43.98404">
        <ele>1535.841936</ele>
        <time>2021-08-17T09:26:05.920Z</time>
      </trkpt>
      <trkpt lat="41.59851" lon="43.98995">
        <ele>1534.817046</ele>
        <time>2021-08-17T09:27:40.755Z</time>
      </trkpt>
      <trkpt lat="41.59884" lon="43.99311">
        <ele>1536.91417</ele>
        <time>2021-08-17T09:28:48.151Z</time>
      </trkpt>
      <trkpt lat="41.59916" lon="43.99551">
        <ele>1538.45708</ele>
        <time>2021-08-17T09:29:38.019Z</time>
      </trkpt>
      <trkpt lat="41.59923" lon="43.99594">
        <ele>1538.700478</ele>
        <time>2021-08-17T09:29:45.699Z</time>
      </trkpt>
      <trkpt lat="41.59926" lon="43.99615">
        <ele>1538.773905</ele>
        <time>2021-08-17T09:29:49.184Z</time>
      </trkpt>
      <trkpt lat="41.59977" lon="43.99915">
        <ele>1539.486124</ele>
        <time>2021-08-17T09:30:41.166Z</time>
      </trkpt>
      <trkpt lat="41.59994" lon="44.00016">
        <ele>1540.159838</ele>
        <time>2021-08-17T09:31:03.369Z</time>
      </trkpt>
      <trkpt lat="41.59996" lon="44.00042">
        <ele>1540.332784</ele>
        <time>2021-08-17T09:31:09.874Z</time>
      </trkpt>
      <trkpt lat="41.6" lon="44.00118">
        <ele>1540.664151</ele>
        <time>2021-08-17T09:31:26.090Z</time>
      </trkpt>
      <trkpt lat="41.59996" lon="44.00388">
        <ele>1540.705102</ele>
        <time>2021-08-17T09:32:12.217Z</time>
      </trkpt>
      <trkpt lat="41.59995" lon="44.00393">
        <ele>1540.671195</ele>
        <time>2021-08-17T09:32:12.830Z</time>
      </trkpt>
      <trkpt lat="41.59989" lon="44.00461">
        <ele>1540.20707</ele>
        <time>2021-08-17T09:32:22.977Z</time>
      </trkpt>
      <trkpt lat="41.59973" lon="44.00616">
        <ele>1538.935684</ele>
        <time>2021-08-17T09:32:45.392Z</time>
      </trkpt>
      <trkpt lat="41.59955" lon="44.00833">
        <ele>1536.666018</ele>
        <time>2021-08-17T09:33:16.917Z</time>
      </trkpt>
      <trkpt lat="41.59942" lon="44.00978">
        <ele>1535.146257</ele>
        <time>2021-08-17T09:33:37.700Z</time>
      </trkpt>
      <trkpt lat="41.59928" lon="44.01092">
        <ele>1534.242588</ele>
        <time>2021-08-17T09:33:54.780Z</time>
      </trkpt>
      <trkpt lat="41.59923" lon="44.01127">
        <ele>1534.053275</ele>
        <time>2021-08-17T09:34:00.048Z</time>
      </trkpt>
      <trkpt lat="41.59913" lon="44.01193">
        <ele>1533.685024</ele>
        <time>2021-08-17T09:34:10.495Z</time>
      </trkpt>
      <trkpt lat="41.59892" lon="44.01456">
        <ele>1533.274666</ele>
        <time>2021-08-17T09:34:53.056Z</time>
      </trkpt>
      <trkpt lat="41.59886" lon="44.01505">
        <ele>1533.275569</ele>
        <time>2021-08-17T09:35:02.477Z</time>
      </trkpt>
      <trkpt lat="41.5988" lon="44.01586">
        <ele>1533.984666</ele>
        <time>2021-08-17T09:35:18.797Z</time>
      </trkpt>
      <trkpt lat="41.59879" lon="44.016">
        <ele>1534.11676</ele>
        <time>2021-08-17T09:35:21.893Z</time>
      </trkpt>
      <trkpt lat="41.59875" lon="44.01634">
        <ele>1534.420918</ele>
        <time>2021-08-17T09:35:29.087Z</time>
      </trkpt>
      <trkpt lat="41.59869" lon="44.017">
        <ele>1535.024337</ele>
        <time>2021-08-17T09:35:44.133Z</time>
      </trkpt>
      <trkpt lat="41.59839" lon="44.01995">
        <ele>1537.883219</ele>
        <time>2021-08-17T09:36:51.063Z</time>
      </trkpt>
      <trkpt lat="41.59781" lon="44.02381">
        <ele>1536.963656</ele>
        <time>2021-08-17T09:37:53.001Z</time>
      </trkpt>
      <trkpt lat="41.5978" lon="44.024">
        <ele>1536.88815</ele>
        <time>2021-08-17T09:37:55.886Z</time>
      </trkpt>
      <trkpt lat="41.59782" lon="44.02455">
        <ele>1536.679616</ele>
        <time>2021-08-17T09:38:04.544Z</time>
      </trkpt>
      <trkpt lat="41.59799" lon="44.02543">
        <ele>1536.708362</ele>
        <time>2021-08-17T09:38:18.943Z</time>
      </trkpt>
      <trkpt lat="41.59832" lon="44.02636">
        <ele>1536.75495</ele>
        <time>2021-08-17T09:38:36.913Z</time>
      </trkpt>
      <trkpt lat="41.60138" lon="44.03317">
        <ele>1540.364309</ele>
        <time>2021-08-17T09:41:07.828Z</time>
      </trkpt>
      <trkpt lat="41.60243" lon="44.03524">
        <ele>1541.971423</ele>
        <time>2021-08-17T09:41:57.834Z</time>
      </trkpt>
      <trkpt lat="41.60381" lon="44.03755">
        <ele>1543.994962</ele>
        <time>2021-08-17T09:42:59.029Z</time>
      </trkpt>
      <trkpt lat="41.60455" lon="44.03869">
        <ele>1544.712655</ele>
        <time>2021-08-17T09:43:27.281Z</time>
      </trkpt>
      <trkpt lat="41.60485" lon="44.03917">
        <ele>1544.16929</ele>
        <time>2021-08-17T09:43:37.837Z</time>
      </trkpt>
      <trkpt lat="41.60541" lon="44.04003">
        <ele>1543.143182</ele>
        <time>2021-08-17T09:43:54.478Z</time>
      </trkpt>
      <trkpt lat="41.60593" lon="44.04075">
        <ele>1541.882249</ele>
        <time>2021-08-17T09:44:07.683Z</time>
      </trkpt>
      <trkpt lat="41.606" lon="44.04087">
        <ele>1541.582601</ele>
        <time>2021-08-17T09:44:09.722Z</time>
      </trkpt>
      <trkpt lat="41.60601" lon="44.04091">
        <ele>1541.487571</ele>
        <time>2021-08-17T09:44:10.361Z</time>
      </trkpt>
      <trkpt lat="41.60602" lon="44.04099">
        <ele>1541.347428</ele>
        <time>2021-08-17T09:44:11.187Z</time>
      </trkpt>
      <trkpt lat="41.606" lon="44.04113">
        <ele>1541.062449</ele>
        <time>2021-08-17T09:44:13.153Z</time>
      </trkpt>
      <trkpt lat="41.60577" lon="44.04181">
        <ele>1539.583238</ele>
        <time>2021-08-17T09:44:23.007Z</time>
      </trkpt>
      <trkpt lat="41.60533" lon="44.04312">
        <ele>1537.351637</ele>
        <time>2021-08-17T09:44:41.838Z</time>
      </trkpt>
      <trkpt lat="41.60468" lon="44.04509">
        <ele>1535.779971</ele>
        <time>2021-08-17T09:45:14.599Z</time>
      </trkpt>
      <trkpt lat="41.60446" lon="44.04578">
        <ele>1535.981863</ele>
        <time>2021-08-17T09:45:28.356Z</time>
      </trkpt>
      <trkpt lat="41.60405" lon="44.04702">
        <ele>1536.345743</ele>
        <time>2021-08-17T09:45:54.498Z</time>
      </trkpt>
      <trkpt lat="41.60391" lon="44.04742">
        <ele>1536.578608</ele>
        <time>2021-08-17T09:46:03.297Z</time>
      </trkpt>
      <trkpt lat="41.60347" lon="44.04874">
        <ele>1537.348786</ele>
        <time>2021-08-17T09:46:31.748Z</time>
      </trkpt>
      <trkpt lat="41.60297" lon="44.05024">
        <ele>1537.482888</ele>
        <time>2021-08-17T09:47:01.643Z</time>
      </trkpt>
      <trkpt lat="41.60276" lon="44.05085">
        <ele>1537.39433</ele>
        <time>2021-08-17T09:47:12.888Z</time>
      </trkpt>
      <trkpt lat="41.60185" lon="44.05363">
        <ele>1534.697517</ele>
        <time>2021-08-17T09:47:56.867Z</time>
      </trkpt>
      <trkpt lat="41.60182" lon="44.05371">
        <ele>1534.540329</ele>
        <time>2021-08-17T09:47:58.062Z</time>
      </trkpt>
      <trkpt lat="41.60182" lon="44.05385">
        <ele>1534.31567</ele>
        <time>2021-08-17T09:47:59.791Z</time>
      </trkpt>
      <trkpt lat="41.60186" lon="44.05391">
        <ele>1534.182738</ele>
        <time>2021-08-17T09:48:00.863Z</time>
      </trkpt>
      <trkpt lat="41.60209" lon="44.05408">
        <ele>1533.583853</ele>
        <time>2021-08-17T09:48:05.613Z</time>
      </trkpt>
      <trkpt lat="41.60252" lon="44.05433">
        <ele>1532.541161</ele>
        <time>2021-08-17T09:48:13.744Z</time>
      </trkpt>
      <trkpt lat="41.603" lon="44.05454">
        <ele>1531.409376</ele>
        <time>2021-08-17T09:48:22.744Z</time>
      </trkpt>
      <trkpt lat="41.60329" lon="44.05484">
        <ele>1530.647302</ele>
        <time>2021-08-17T09:48:29.306Z</time>
      </trkpt>
      <trkpt lat="41.60332" lon="44.055">
        <ele>1530.574155</ele>
        <time>2021-08-17T09:48:31.623Z</time>
      </trkpt>
      <trkpt lat="41.60331" lon="44.05531">
        <ele>1530.432156</ele>
        <time>2021-08-17T09:48:36.238Z</time>
      </trkpt>
      <trkpt lat="41.60277" lon="44.06124">
        <ele>1528.05834</ele>
        <time>2021-08-17T09:50:10.709Z</time>
      </trkpt>
      <trkpt lat="41.60272" lon="44.06179">
        <ele>1527.910463</ele>
        <time>2021-08-17T09:50:19.525Z</time>
      </trkpt>
      <trkpt lat="41.60271" lon="44.06194">
        <ele>1527.870195</ele>
        <time>2021-08-17T09:50:21.959Z</time>
      </trkpt>
      <trkpt lat="41.60269" lon="44.06218">
        <ele>1527.977769</ele>
        <time>2021-08-17T09:50:25.695Z</time>
      </trkpt>
      <trkpt lat="41.60263" lon="44.06288">
        <ele>1528.320932</ele>
        <time>2021-08-17T09:50:38.068Z</time>
      </trkpt>
      <trkpt lat="41.6026" lon="44.06343">
        <ele>1528.588042</ele>
        <time>2021-08-17T09:50:48.704Z</time>
      </trkpt>
      <trkpt lat="41.60259" lon="44.06382">
        <ele>1528.779014</ele>
        <time>2021-08-17T09:50:56.755Z</time>
      </trkpt>
      <trkpt lat="41.6026" lon="44.06411">
        <ele>1528.92041</ele>
        <time>2021-08-17T09:51:02.487Z</time>
      </trkpt>
      <trkpt lat="41.60263" lon="44.06562">
        <ele>1531.046324</ele>
        <time>2021-08-17T09:51:38.025Z</time>
      </trkpt>
      <trkpt lat="41.60251" lon="44.06804">
        <ele>1535.136909</ele>
        <time>2021-08-17T09:52:42.290Z</time>
      </trkpt>
      <trkpt lat="41.60243" lon="44.06869">
        <ele>1536.298958</ele>
        <time>2021-08-17T09:52:58.755Z</time>
      </trkpt>
      <trkpt lat="41.60235" lon="44.06922">
        <ele>1537.205917</ele>
        <time>2021-08-17T09:53:12.044Z</time>
      </trkpt>
      <trkpt lat="41.60222" lon="44.07003">
        <ele>1538.125409</ele>
        <time>2021-08-17T09:53:30.801Z</time>
      </trkpt>
      <trkpt lat="41.60203" lon="44.0711">
        <ele>1539.365049</ele>
        <time>2021-08-17T09:53:54.727Z</time>
      </trkpt>
      <trkpt lat="41.60177" lon="44.07229">
        <ele>1540.828764</ele>
        <time>2021-08-17T09:54:20.606Z</time>
      </trkpt>
      <trkpt lat="41.6017" lon="44.07254">
        <ele>1541.141506</ele>
        <time>2021-08-17T09:54:26.904Z</time>
      </trkpt>
      <trkpt lat="41.60162" lon="44.07273">
        <ele>1541.407603</ele>
        <time>2021-08-17T09:54:31.512Z</time>
      </trkpt>
      <trkpt lat="41.60156" lon="44.07282">
        <ele>1541.551217</ele>
        <time>2021-08-17T09:54:35.086Z</time>
      </trkpt>
      <trkpt lat="41.60138" lon="44.07303">
        <ele>1541.923674</ele>
        <time>2021-08-17T09:54:42.012Z</time>
      </trkpt>
      <trkpt lat="41.60058" lon="44.0736">
        <ele>1542.606004</ele>
        <time>2021-08-17T09:55:12.219Z</time>
      </trkpt>
      <trkpt lat="41.59982" lon="44.07408">
        <ele>1542.44368</ele>
        <time>2021-08-17T09:55:33.987Z</time>
      </trkpt>
      <trkpt lat="41.59953" lon="44.07427">
        <ele>1542.381852</ele>
        <time>2021-08-17T09:55:39.870Z</time>
      </trkpt>
      <trkpt lat="41.59885" lon="44.07466">
        <ele>1538.456779</ele>
        <time>2021-08-17T09:55:52.137Z</time>
      </trkpt>
      <trkpt lat="41.59813" lon="44.07505">
        <ele>1532.93162</ele>
        <time>2021-08-17T09:56:03.396Z</time>
      </trkpt>
      <trkpt lat="41.59759" lon="44.07535">
        <ele>1528.693752</ele>
        <time>2021-08-17T09:56:11.684Z</time>
      </trkpt>
      <trkpt lat="41.59745" lon="44.07545">
        <ele>1527.506549</ele>
        <time>2021-08-17T09:56:14.070Z</time>
      </trkpt>
      <trkpt lat="41.59736" lon="44.07567">
        <ele>1526.181239</ele>
        <time>2021-08-17T09:56:16.607Z</time>
      </trkpt>
      <trkpt lat="41.59733" lon="44.07581">
        <ele>1525.354726</ele>
        <time>2021-08-17T09:56:18.274Z</time>
      </trkpt>
      <trkpt lat="41.59734" lon="44.076">
        <ele>1524.337156</ele>
        <time>2021-08-17T09:56:20.303Z</time>
      </trkpt>
      <trkpt lat="41.59744" lon="44.07662">
        <ele>1520.8885</ele>
        <time>2021-08-17T09:56:27.189Z</time>
      </trkpt>
      <trkpt lat="41.59827" lon="44.08139">
        <ele>1505.419987</ele>
        <time>2021-08-17T09:57:29.073Z</time>
      </trkpt>
      <trkpt lat="41.59867" lon="44.08381">
        <ele>1496.432098</ele>
        <time>2021-08-17T09:57:59.555Z</time>
      </trkpt>
      <trkpt lat="41.59917" lon="44.08663">
        <ele>1481.270621</ele>
        <time>2021-08-17T09:58:31.430Z</time>
      </trkpt>
      <trkpt lat="41.59956" lon="44.08883">
        <ele>1473.170205</ele>
        <time>2021-08-17T09:58:58.451Z</time>
      </trkpt>
      <trkpt lat="41.59958" lon="44.08893">
        <ele>1472.843218</ele>
        <time>2021-08-17T09:58:59.770Z</time>
      </trkpt>
      <trkpt lat="41.59973" lon="44.08987">
        <ele>1471.279583</ele>
        <time>2021-08-17T09:59:13.307Z</time>
      </trkpt>
      <trkpt lat="41.59982" lon="44.09033">
        <ele>1470.7758</ele>
        <time>2021-08-17T09:59:20.200Z</time>
      </trkpt>
      <trkpt lat="41.59989" lon="44.09071">
        <ele>1470.365036</ele>
        <time>2021-08-17T09:59:25.955Z</time>
      </trkpt>
      <trkpt lat="41.60025" lon="44.09245">
        <ele>1468.972826</ele>
        <time>2021-08-17T09:59:53.769Z</time>
      </trkpt>
      <trkpt lat="41.60037" lon="44.09315">
        <ele>1468.589842</ele>
        <time>2021-08-17T10:00:04.672Z</time>
      </trkpt>
      <trkpt lat="41.60052" lon="44.09403">
        <ele>1468.121816</ele>
        <time>2021-08-17T10:00:18.424Z</time>
      </trkpt>
      <trkpt lat="41.60056" lon="44.09421">
        <ele>1468.031863</ele>
        <time>2021-08-17T10:00:21.266Z</time>
      </trkpt>
      <trkpt lat="41.60074" lon="44.09532">
        <ele>1467.483442</ele>
        <time>2021-08-17T10:00:38.748Z</time>
      </trkpt>
      <trkpt lat="41.60092" lon="44.09629">
        <ele>1466.984413</ele>
        <time>2021-08-17T10:00:54.624Z</time>
      </trkpt>
      <trkpt lat="41.60101" lon="44.09684">
        <ele>1466.635607</ele>
        <time>2021-08-17T10:01:03.246Z</time>
      </trkpt>
      <trkpt lat="41.60104" lon="44.09701">
        <ele>1466.525411</ele>
        <time>2021-08-17T10:01:05.896Z</time>
      </trkpt>
      <trkpt lat="41.60116" lon="44.09765">
        <ele>1466.118343</ele>
        <time>2021-08-17T10:01:15.707Z</time>
      </trkpt>
      <trkpt lat="41.60153" lon="44.09993">
        <ele>1464.780409</ele>
        <time>2021-08-17T10:01:51.007Z</time>
      </trkpt>
      <trkpt lat="41.6016" lon="44.10027">
        <ele>1464.586886</ele>
        <time>2021-08-17T10:01:56.235Z</time>
      </trkpt>
      <trkpt lat="41.60169" lon="44.10071">
        <ele>1464.335725</ele>
        <time>2021-08-17T10:02:03.207Z</time>
      </trkpt>
      <trkpt lat="41.60186" lon="44.10163">
        <ele>1464.417878</ele>
        <time>2021-08-17T10:02:18.482Z</time>
      </trkpt>
      <trkpt lat="41.6019" lon="44.10187">
        <ele>1464.464995</ele>
        <time>2021-08-17T10:02:22.829Z</time>
      </trkpt>
      <trkpt lat="41.6019" lon="44.10213">
        <ele>1464.513878</ele>
        <time>2021-08-17T10:02:27.385Z</time>
      </trkpt>
      <trkpt lat="41.60176" lon="44.1037">
        <ele>1465.03927</ele>
        <time>2021-08-17T10:02:58.246Z</time>
      </trkpt>
      <trkpt lat="41.60171" lon="44.10418">
        <ele>1465.354198</ele>
        <time>2021-08-17T10:03:07.941Z</time>
      </trkpt>
      <trkpt lat="41.60171" lon="44.1046">
        <ele>1465.628159</ele>
        <time>2021-08-17T10:03:15.627Z</time>
      </trkpt>
      <trkpt lat="41.60174" lon="44.10481">
        <ele>1465.768868</ele>
        <time>2021-08-17T10:03:20.277Z</time>
      </trkpt>
      <trkpt lat="41.60183" lon="44.10497">
        <ele>1465.896983</ele>
        <time>2021-08-17T10:03:23.538Z</time>
      </trkpt>
      <trkpt lat="41.6019" lon="44.10509">
        <ele>1465.997675</ele>
        <time>2021-08-17T10:03:26.659Z</time>
      </trkpt>
      <trkpt lat="41.60208" lon="44.10529">
        <ele>1466.194807</ele>
        <time>2021-08-17T10:03:32.539Z</time>
      </trkpt>
      <trkpt lat="41.6022" lon="44.10534">
        <ele>1466.39022</ele>
        <time>2021-08-17T10:03:36.396Z</time>
      </trkpt>
      <trkpt lat="41.60232" lon="44.10539">
        <ele>1466.762579</ele>
        <time>2021-08-17T10:03:40.232Z</time>
      </trkpt>
      <trkpt lat="41.60261" lon="44.10539">
        <ele>1467.660582</ele>
        <time>2021-08-17T10:03:49.120Z</time>
      </trkpt>
      <trkpt lat="41.60286" lon="44.10535">
        <ele>1468.435864</ele>
        <time>2021-08-17T10:03:57.693Z</time>
      </trkpt>
      <trkpt lat="41.60331" lon="44.10534">
        <ele>1469.835768</ele>
        <time>2021-08-17T10:04:16.088Z</time>
      </trkpt>
      <trkpt lat="41.60351" lon="44.10538">
        <ele>1470.468085</ele>
        <time>2021-08-17T10:04:24.175Z</time>
      </trkpt>
      <trkpt lat="41.60378" lon="44.10552">
        <ele>1471.368514</ele>
        <time>2021-08-17T10:04:36.163Z</time>
      </trkpt>
      <trkpt lat="41.60393" lon="44.10563">
        <ele>1471.932589</ele>
        <time>2021-08-17T10:04:42.637Z</time>
      </trkpt>
      <trkpt lat="41.60402" lon="44.10575">
        <ele>1472.66616</ele>
        <time>2021-08-17T10:04:49.248Z</time>
      </trkpt>
      <trkpt lat="41.60422" lon="44.10618">
        <ele>1474.828188</ele>
        <time>2021-08-17T10:05:07.727Z</time>
      </trkpt>
      <trkpt lat="41.60447" lon="44.10697">
        <ele>1478.516096</ele>
        <time>2021-08-17T10:05:42.308Z</time>
      </trkpt>
      <trkpt lat="41.60482" lon="44.10791">
        <ele>1483.060976</ele>
        <time>2021-08-17T10:06:25.050Z</time>
      </trkpt>
      <trkpt lat="41.60486" lon="44.10801">
        <ele>1483.585172</ele>
        <time>2021-08-17T10:06:29.330Z</time>
      </trkpt>
      <trkpt lat="41.60501" lon="44.10844">
        <ele>1485.759977</ele>
        <time>2021-08-17T10:06:46.692Z</time>
      </trkpt>
      <trkpt lat="41.60507" lon="44.10862">
        <ele>1486.67365</ele>
        <time>2021-08-17T10:06:53.956Z</time>
      </trkpt>
      <trkpt lat="41.6051" lon="44.10871">
        <ele>1487.123909</ele>
        <time>2021-08-17T10:06:58.034Z</time>
      </trkpt>
      <trkpt lat="41.60518" lon="44.10963">
        <ele>1491.345132</ele>
        <time>2021-08-17T10:07:34.214Z</time>
      </trkpt>
      <trkpt lat="41.60527" lon="44.10999">
        <ele>1493.099909</ele>
        <time>2021-08-17T10:07:49.480Z</time>
      </trkpt>
      <trkpt lat="41.60609" lon="44.11273">
        <ele>1509.448371</ele>
        <time>2021-08-17T10:09:59.100Z</time>
      </trkpt>
      <trkpt lat="41.60641" lon="44.11328">
        <ele>1513.845647</ele>
        <time>2021-08-17T10:10:32.936Z</time>
      </trkpt>
      <trkpt lat="41.6077" lon="44.1152">
        <ele>1530.440476</ele>
        <time>2021-08-17T10:12:42.618Z</time>
      </trkpt>
      <trkpt lat="41.6078" lon="44.11574">
        <ele>1534.079061</ele>
        <time>2021-08-17T10:13:09.558Z</time>
      </trkpt>
      <trkpt lat="41.60782" lon="44.11663">
        <ele>1539.490388</ele>
        <time>2021-08-17T10:13:52.679Z</time>
      </trkpt>
      <trkpt lat="41.60789" lon="44.11712">
        <ele>1542.292214</ele>
        <time>2021-08-17T10:14:16.221Z</time>
      </trkpt>
      <trkpt lat="41.60811" lon="44.11767">
        <ele>1545.769229</ele>
        <time>2021-08-17T10:14:44.088Z</time>
      </trkpt>
      <trkpt lat="41.60857" lon="44.1184">
        <ele>1551.015337</ele>
        <time>2021-08-17T10:15:25.143Z</time>
      </trkpt>
      <trkpt lat="41.61034" lon="44.12136">
        <ele>1566.659019</ele>
        <time>2021-08-17T10:17:46.056Z</time>
      </trkpt>
      <trkpt lat="41.61098" lon="44.12239">
        <ele>1571.67933</ele>
        <time>2021-08-17T10:18:32.805Z</time>
      </trkpt>
      <trkpt lat="41.61342" lon="44.12558">
        <ele>1586.603003</ele>
        <time>2021-08-17T10:21:04.212Z</time>
      </trkpt>
      <trkpt lat="41.61444" lon="44.12713">
        <ele>1592.034561</ele>
        <time>2021-08-17T10:22:04.672Z</time>
      </trkpt>
      <trkpt lat="41.61484" lon="44.12793">
        <ele>1594.292994</ele>
        <time>2021-08-17T10:22:31.887Z</time>
      </trkpt>
      <trkpt lat="41.61498" lon="44.12825">
        <ele>1595.146558</ele>
        <time>2021-08-17T10:22:42.514Z</time>
      </trkpt>
      <trkpt lat="41.61554" lon="44.12959">
        <ele>1598.566143</ele>
        <time>2021-08-17T10:23:25.184Z</time>
      </trkpt>
      <trkpt lat="41.61648" lon="44.1319">
        <ele>1603.191844</ele>
        <time>2021-08-17T10:24:34.003Z</time>
      </trkpt>
      <trkpt lat="41.61687" lon="44.1329">
        <ele>1604.390509</ele>
        <time>2021-08-17T10:24:59.928Z</time>
      </trkpt>
      <trkpt lat="41.61728" lon="44.13387">
        <ele>1604.899183</ele>
        <time>2021-08-17T10:25:20.353Z</time>
      </trkpt>
      <trkpt lat="41.61769" lon="44.13482">
        <ele>1604.034766</ele>
        <time>2021-08-17T10:25:36.883Z</time>
      </trkpt>
      <trkpt lat="41.6182" lon="44.13606">
        <ele>1602.475084</ele>
        <time>2021-08-17T10:25:56.236Z</time>
      </trkpt>
      <trkpt lat="41.61909" lon="44.13899">
        <ele>1597.202257</ele>
        <time>2021-08-17T10:26:38.656Z</time>
      </trkpt>
      <trkpt lat="41.61935" lon="44.13973">
        <ele>1595.935536</ele>
        <time>2021-08-17T10:26:49.869Z</time>
      </trkpt>
      <trkpt lat="41.61937" lon="44.13979">
        <ele>1595.833954</ele>
        <time>2021-08-17T10:26:50.698Z</time>
      </trkpt>
      <trkpt lat="41.61989" lon="44.14107">
        <ele>1595.013175</ele>
        <time>2021-08-17T10:27:11.812Z</time>
      </trkpt>
      <trkpt lat="41.62001" lon="44.14129">
        <ele>1594.929454</ele>
        <time>2021-08-17T10:27:16.150Z</time>
      </trkpt>
      <trkpt lat="41.62023" lon="44.14155">
        <ele>1594.80922</ele>
        <time>2021-08-17T10:27:22.557Z</time>
      </trkpt>
      <trkpt lat="41.62038" lon="44.14173">
        <ele>1594.725031</ele>
        <time>2021-08-17T10:27:27.779Z</time>
      </trkpt>
      <trkpt lat="41.62079" lon="44.14201">
        <ele>1595.071218</ele>
        <time>2021-08-17T10:27:40.239Z</time>
      </trkpt>
      <trkpt lat="41.62286" lon="44.14291">
        <ele>1599.365158</ele>
        <time>2021-08-17T10:28:52.682Z</time>
      </trkpt>
      <trkpt lat="41.6259" lon="44.14476">
        <ele>1605.789954</ele>
        <time>2021-08-17T10:30:42.354Z</time>
      </trkpt>
      <trkpt lat="41.62627" lon="44.14499">
        <ele>1605.966885</ele>
        <time>2021-08-17T10:30:53.082Z</time>
      </trkpt>
      <trkpt lat="41.62696" lon="44.14575">
        <ele>1606.349978</ele>
        <time>2021-08-17T10:31:12.690Z</time>
      </trkpt>
      <trkpt lat="41.62765" lon="44.14613">
        <ele>1605.281552</ele>
        <time>2021-08-17T10:31:27.229Z</time>
      </trkpt>
      <trkpt lat="41.62825" lon="44.14676">
        <ele>1603.814373</ele>
        <time>2021-08-17T10:31:41.564Z</time>
      </trkpt>
      <trkpt lat="41.62905" lon="44.14709">
        <ele>1600.586435</ele>
        <time>2021-08-17T10:31:55.876Z</time>
      </trkpt>
      <trkpt lat="41.62944" lon="44.14736">
        <ele>1597.958964</ele>
        <time>2021-08-17T10:32:03.084Z</time>
      </trkpt>
      <trkpt lat="41.63353" lon="44.15231">
        <ele>1565.494736</ele>
        <time>2021-08-17T10:33:26.988Z</time>
      </trkpt>
      <trkpt lat="41.63456" lon="44.15373">
        <ele>1558.906666</ele>
        <time>2021-08-17T10:33:50.928Z</time>
      </trkpt>
      <trkpt lat="41.6353" lon="44.15502">
        <ele>1555.192772</ele>
        <time>2021-08-17T10:34:12.615Z</time>
      </trkpt>
      <trkpt lat="41.63597" lon="44.15635">
        <ele>1553.017109</ele>
        <time>2021-08-17T10:34:35.155Z</time>
      </trkpt>
      <trkpt lat="41.63727" lon="44.15951">
        <ele>1548.074989</ele>
        <time>2021-08-17T10:35:25.508Z</time>
      </trkpt>
      <trkpt lat="41.63775" lon="44.16033">
        <ele>1546.509147</ele>
        <time>2021-08-17T10:35:39.565Z</time>
      </trkpt>
      <trkpt lat="41.63827" lon="44.16097">
        <ele>1545.176698</ele>
        <time>2021-08-17T10:35:52.413Z</time>
      </trkpt>
      <trkpt lat="41.63853" lon="44.16122">
        <ele>1545.24014</ele>
        <time>2021-08-17T10:35:58.468Z</time>
      </trkpt>
      <trkpt lat="41.63882" lon="44.1615">
        <ele>1545.310344</ele>
        <time>2021-08-17T10:36:05.620Z</time>
      </trkpt>
      <trkpt lat="41.63908" lon="44.16179">
        <ele>1545.377765</ele>
        <time>2021-08-17T10:36:13.076Z</time>
      </trkpt>
      <trkpt lat="41.63921" lon="44.162">
        <ele>1545.418028</ele>
        <time>2021-08-17T10:36:18.148Z</time>
      </trkpt>
      <trkpt lat="41.63945" lon="44.16264">
        <ele>1545.52401</ele>
        <time>2021-08-17T10:36:33.319Z</time>
      </trkpt>
      <trkpt lat="41.63983" lon="44.1641">
        <ele>1550.646452</ele>
        <time>2021-08-17T10:37:22.884Z</time>
      </trkpt>
      <trkpt lat="41.63991" lon="44.16523">
        <ele>1554.644412</ele>
        <time>2021-08-17T10:38:07.390Z</time>
      </trkpt>
      <trkpt lat="41.64002" lon="44.16599">
        <ele>1557.814847</ele>
        <time>2021-08-17T10:38:37.616Z</time>
      </trkpt>
      <trkpt lat="41.64002" lon="44.16644">
        <ele>1559.653097</ele>
        <time>2021-08-17T10:38:54.926Z</time>
      </trkpt>
      <trkpt lat="41.63997" lon="44.16704">
        <ele>1562.16979</ele>
        <time>2021-08-17T10:39:17.799Z</time>
      </trkpt>
      <trkpt lat="41.64023" lon="44.1703">
        <ele>1572.403958</ele>
        <time>2021-08-17T10:41:02.704Z</time>
      </trkpt>
      <trkpt lat="41.64056" lon="44.17259">
        <ele>1578.182759</ele>
        <time>2021-08-17T10:42:10.200Z</time>
      </trkpt>
      <trkpt lat="41.64057" lon="44.17403">
        <ele>1580.995767</ele>
        <time>2021-08-17T10:42:48.305Z</time>
      </trkpt>
      <trkpt lat="41.64064" lon="44.1749">
        <ele>1582.429099</ele>
        <time>2021-08-17T10:43:09.646Z</time>
      </trkpt>
      <trkpt lat="41.64062" lon="44.17554">
        <ele>1583.235763</ele>
        <time>2021-08-17T10:43:24.395Z</time>
      </trkpt>
      <trkpt lat="41.64044" lon="44.177">
        <ele>1585.135252</ele>
        <time>2021-08-17T10:43:56.846Z</time>
      </trkpt>
      <trkpt lat="41.64042" lon="44.17822">
        <ele>1587.177006</ele>
        <time>2021-08-17T10:44:25.595Z</time>
      </trkpt>
      <trkpt lat="41.64051" lon="44.17911">
        <ele>1588.672934</ele>
        <time>2021-08-17T10:44:48.642Z</time>
      </trkpt>
      <trkpt lat="41.64066" lon="44.17998">
        <ele>1591.086419</ele>
        <time>2021-08-17T10:45:15.172Z</time>
      </trkpt>
      <trkpt lat="41.6409" lon="44.18082">
        <ele>1593.707845</ele>
        <time>2021-08-17T10:45:44.726Z</time>
      </trkpt>
      <trkpt lat="41.6411" lon="44.18133">
        <ele>1595.431296</ele>
        <time>2021-08-17T10:46:04.085Z</time>
      </trkpt>
      <trkpt lat="41.64128" lon="44.18174">
        <ele>1596.612961</ele>
        <time>2021-08-17T10:46:19.124Z</time>
      </trkpt>
      <trkpt lat="41.64136" lon="44.18192">
        <ele>1597.076253</ele>
        <time>2021-08-17T10:46:26.235Z</time>
      </trkpt>
      <trkpt lat="41.64131" lon="44.18267">
        <ele>1598.668792</ele>
        <time>2021-08-17T10:46:49.023Z</time>
      </trkpt>
      <trkpt lat="41.6412" lon="44.18436">
        <ele>1601.755394</ele>
        <time>2021-08-17T10:47:30.549Z</time>
      </trkpt>
      <trkpt lat="41.64118" lon="44.18482">
        <ele>1602.254692</ele>
        <time>2021-08-17T10:47:40.267Z</time>
      </trkpt>
      <trkpt lat="41.64117" lon="44.18512">
        <ele>1602.574161</ele>
        <time>2021-08-17T10:47:46.333Z</time>
      </trkpt>
      <trkpt lat="41.64116" lon="44.18574">
        <ele>1603.252338</ele>
        <time>2021-08-17T10:47:59.677Z</time>
      </trkpt>
      <trkpt lat="41.64151" lon="44.1857">
        <ele>1603.756413</ele>
        <time>2021-08-17T10:48:10.883Z</time>
      </trkpt>
      <trkpt lat="41.64165" lon="44.18569">
        <ele>1604.052092</ele>
        <time>2021-08-17T10:48:15.461Z</time>
      </trkpt>
      <trkpt lat="41.64168" lon="44.18577">
        <ele>1604.20252</ele>
        <time>2021-08-17T10:48:17.638Z</time>
      </trkpt>
      <trkpt lat="41.64184" lon="44.1864">
        <ele>1605.351645</ele>
        <time>2021-08-17T10:48:34.673Z</time>
      </trkpt>
      <trkpt lat="41.64193" lon="44.18709">
        <ele>1606.556725</ele>
        <time>2021-08-17T10:48:53.888Z</time>
      </trkpt>
      <trkpt lat="41.64199" lon="44.18723">
        <ele>1606.834898</ele>
        <time>2021-08-17T10:48:58.655Z</time>
      </trkpt>
      <trkpt lat="41.64205" lon="44.18745">
        <ele>1607.227486</ele>
        <time>2021-08-17T10:49:04.371Z</time>
      </trkpt>
      <trkpt lat="41.64221" lon="44.1882">
        <ele>1608.514837</ele>
        <time>2021-08-17T10:49:24.837Z</time>
      </trkpt>
      <trkpt lat="41.64225" lon="44.18887">
        <ele>1609.564884</ele>
        <time>2021-08-17T10:49:41.721Z</time>
      </trkpt>
      <trkpt lat="41.64226" lon="44.18906">
        <ele>1609.850366</ele>
        <time>2021-08-17T10:49:46.780Z</time>
      </trkpt>
      <trkpt lat="41.64229" lon="44.18937">
        <ele>1610.339333</ele>
        <time>2021-08-17T10:49:54.329Z</time>
      </trkpt>
      <trkpt lat="41.64233" lon="44.18969">
        <ele>1610.8512</ele>
        <time>2021-08-17T10:50:02.396Z</time>
      </trkpt>
      <trkpt lat="41.64242" lon="44.19122">
        <ele>1613.130909</ele>
        <time>2021-08-17T10:50:39.974Z</time>
      </trkpt>
      <trkpt lat="41.64246" lon="44.19175">
        <ele>1613.901286</ele>
        <time>2021-08-17T10:50:53.643Z</time>
      </trkpt>
      <trkpt lat="41.64247" lon="44.19182">
        <ele>1614.012342</ele>
        <time>2021-08-17T10:50:55.548Z</time>
      </trkpt>
      <trkpt lat="41.64248" lon="44.19189">
        <ele>1614.114127</ele>
        <time>2021-08-17T10:50:57.289Z</time>
      </trkpt>
      <trkpt lat="41.64287" lon="44.19182">
        <ele>1614.886815</ele>
        <time>2021-08-17T10:51:10.342Z</time>
      </trkpt>
      <trkpt lat="41.64351" lon="44.19176">
        <ele>1615.709397</ele>
        <time>2021-08-17T10:51:30.449Z</time>
      </trkpt>
      <trkpt lat="41.64451" lon="44.19155">
        <ele>1616.821579</ele>
        <time>2021-08-17T10:51:59.315Z</time>
      </trkpt>
      <trkpt lat="41.64484" lon="44.19145">
        <ele>1617.135543</ele>
        <time>2021-08-17T10:52:07.936Z</time>
      </trkpt>
      <trkpt lat="41.64502" lon="44.19212">
        <ele>1617.07657</ele>
        <time>2021-08-17T10:52:20.266Z</time>
      </trkpt>
      <trkpt lat="41.64519" lon="44.19293">
        <ele>1617.005904</ele>
        <time>2021-08-17T10:52:34.229Z</time>
      </trkpt>
      <trkpt lat="41.64553" lon="44.1945">
        <ele>1616.230231</ele>
        <time>2021-08-17T10:52:59.673Z</time>
      </trkpt>
      <trkpt lat="41.64696" lon="44.20349">
        <ele>1608.72103</ele>
        <time>2021-08-17T10:55:14.060Z</time>
      </trkpt>
      <trkpt lat="41.64721" lon="44.20502">
        <ele>1608.233227</ele>
        <time>2021-08-17T10:55:39.171Z</time>
      </trkpt>
      <trkpt lat="41.64745" lon="44.20658">
        <ele>1608.397498</ele>
        <time>2021-08-17T10:56:06.365Z</time>
      </trkpt>
      <trkpt lat="41.64779" lon="44.20944">
        <ele>1609.511056</ele>
        <time>2021-08-17T10:57:00.647Z</time>
      </trkpt>
      <trkpt lat="41.6481" lon="44.21282">
        <ele>1611.278499</ele>
        <time>2021-08-17T10:58:07.905Z</time>
      </trkpt>
      <trkpt lat="41.64859" lon="44.21672">
        <ele>1611.402991</ele>
        <time>2021-08-17T10:59:14.891Z</time>
      </trkpt>
      <trkpt lat="41.6493" lon="44.22097">
        <ele>1609.328496</ele>
        <time>2021-08-17T11:00:21.570Z</time>
      </trkpt>
      <trkpt lat="41.65004" lon="44.22454">
        <ele>1607.271748</ele>
        <time>2021-08-17T11:01:17.507Z</time>
      </trkpt>
      <trkpt lat="41.65018" lon="44.22512">
        <ele>1607.270776</ele>
        <time>2021-08-17T11:01:27.564Z</time>
      </trkpt>
      <trkpt lat="41.65026" lon="44.22541">
        <ele>1607.270288</ele>
        <time>2021-08-17T11:01:33.016Z</time>
      </trkpt>
      <trkpt lat="41.6505" lon="44.22624">
        <ele>1607.268884</ele>
        <time>2021-08-17T11:01:48.524Z</time>
      </trkpt>
      <trkpt lat="41.65076" lon="44.22705">
        <ele>1607.319298</ele>
        <time>2021-08-17T11:02:04.422Z</time>
      </trkpt>
      <trkpt lat="41.65136" lon="44.22867">
        <ele>1607.503028</ele>
        <time>2021-08-17T11:02:35.148Z</time>
      </trkpt>
      <trkpt lat="41.65185" lon="44.22979">
        <ele>1607.590083</ele>
        <time>2021-08-17T11:02:57.088Z</time>
      </trkpt>
      <trkpt lat="41.65267" lon="44.23147">
        <ele>1607.862764</ele>
        <time>2021-08-17T11:03:30.875Z</time>
      </trkpt>
      <trkpt lat="41.65296" lon="44.23216">
        <ele>1608.054513</ele>
        <time>2021-08-17T11:03:45.029Z</time>
      </trkpt>
      <trkpt lat="41.65318" lon="44.2328">
        <ele>1608.226407</ele>
        <time>2021-08-17T11:03:58.074Z</time>
      </trkpt>
      <trkpt lat="41.6533" lon="44.23314">
        <ele>1608.433327</ele>
        <time>2021-08-17T11:04:05.474Z</time>
      </trkpt>
      <trkpt lat="41.65375" lon="44.235">
        <ele>1609.72866</ele>
        <time>2021-08-17T11:04:44.892Z</time>
      </trkpt>
      <trkpt lat="41.65396" lon="44.23641">
        <ele>1610.807</ele>
        <time>2021-08-17T11:05:14.240Z</time>
      </trkpt>
      <trkpt lat="41.65502" lon="44.24765">
        <ele>1619.576006</ele>
        <time>2021-08-17T11:09:06.725Z</time>
      </trkpt>
      <trkpt lat="41.65507" lon="44.24969">
        <ele>1621.351777</ele>
        <time>2021-08-17T11:09:49.740Z</time>
      </trkpt>
      <trkpt lat="41.65498" lon="44.25139">
        <ele>1622.708162</ele>
        <time>2021-08-17T11:10:25.222Z</time>
      </trkpt>
      <trkpt lat="41.65483" lon="44.2529">
        <ele>1623.723477</ele>
        <time>2021-08-17T11:10:55.637Z</time>
      </trkpt>
      <trkpt lat="41.65436" lon="44.2556">
        <ele>1625.554527</ele>
        <time>2021-08-17T11:11:49.546Z</time>
      </trkpt>
      <trkpt lat="41.65422" lon="44.25665">
        <ele>1626.3478</ele>
        <time>2021-08-17T11:12:12.016Z</time>
      </trkpt>
      <trkpt lat="41.65347" lon="44.26383">
        <ele>1633.715892</ele>
        <time>2021-08-17T11:14:51.968Z</time>
      </trkpt>
      <trkpt lat="41.6534" lon="44.26479">
        <ele>1633.349553</ele>
        <time>2021-08-17T11:15:07.972Z</time>
      </trkpt>
      <trkpt lat="41.65341" lon="44.26521">
        <ele>1633.18969</ele>
        <time>2021-08-17T11:15:14.322Z</time>
      </trkpt>
      <trkpt lat="41.65356" lon="44.26599">
        <ele>1632.886191</ele>
        <time>2021-08-17T11:15:25.976Z</time>
      </trkpt>
      <trkpt lat="41.65374" lon="44.26652">
        <ele>1632.44807</ele>
        <time>2021-08-17T11:15:34.357Z</time>
      </trkpt>
      <trkpt lat="41.6539" lon="44.26689">
        <ele>1632.070608</ele>
        <time>2021-08-17T11:15:40.352Z</time>
      </trkpt>
      <trkpt lat="41.65546" lon="44.26991">
        <ele>1629.920348</ele>
        <time>2021-08-17T11:16:35.115Z</time>
      </trkpt>
      <trkpt lat="41.65701" lon="44.27308">
        <ele>1632.842294</ele>
        <time>2021-08-17T11:17:58.435Z</time>
      </trkpt>
      <trkpt lat="41.65838" lon="44.27607">
        <ele>1634.342484</ele>
        <time>2021-08-17T11:19:04.459Z</time>
      </trkpt>
      <trkpt lat="41.65859" lon="44.27663">
        <ele>1633.978659</ele>
        <time>2021-08-17T11:19:13.891Z</time>
      </trkpt>
      <trkpt lat="41.65878" lon="44.27721">
        <ele>1633.307978</ele>
        <time>2021-08-17T11:19:23.289Z</time>
      </trkpt>
      <trkpt lat="41.65896" lon="44.27778">
        <ele>1632.664259</ele>
        <time>2021-08-17T11:19:32.010Z</time>
      </trkpt>
      <trkpt lat="41.65917" lon="44.27827">
        <ele>1632.080427</ele>
        <time>2021-08-17T11:19:39.719Z</time>
      </trkpt>
      <trkpt lat="41.66001" lon="44.27903">
        <ele>1629.336769</ele>
        <time>2021-08-17T11:19:57.897Z</time>
      </trkpt>
      <trkpt lat="41.66033" lon="44.27944">
        <ele>1628.059481</ele>
        <time>2021-08-17T11:20:05.552Z</time>
      </trkpt>
      <trkpt lat="41.66052" lon="44.27985">
        <ele>1626.998388</ele>
        <time>2021-08-17T11:20:11.734Z</time>
      </trkpt>
      <trkpt lat="41.66069" lon="44.28051">
        <ele>1624.533373</ele>
        <time>2021-08-17T11:20:20.315Z</time>
      </trkpt>
      <trkpt lat="41.66097" lon="44.28374">
        <ele>1610.543713</ele>
        <time>2021-08-17T11:20:58.074Z</time>
      </trkpt>
      <trkpt lat="41.66091" lon="44.2846">
        <ele>1606.441195</ele>
        <time>2021-08-17T11:21:07.764Z</time>
      </trkpt>
      <trkpt lat="41.66078" lon="44.28556">
        <ele>1601.169836</ele>
        <time>2021-08-17T11:21:18.713Z</time>
      </trkpt>
      <trkpt lat="41.66084" lon="44.28695">
        <ele>1593.55343</ele>
        <time>2021-08-17T11:21:34.094Z</time>
      </trkpt>
      <trkpt lat="41.66075" lon="44.2879">
        <ele>1588.89123</ele>
        <time>2021-08-17T11:21:44.799Z</time>
      </trkpt>
      <trkpt lat="41.66081" lon="44.28898">
        <ele>1583.78523</ele>
        <time>2021-08-17T11:21:57.248Z</time>
      </trkpt>
      <trkpt lat="41.66079" lon="44.28949">
        <ele>1581.39083</ele>
        <time>2021-08-17T11:22:03.264Z</time>
      </trkpt>
      <trkpt lat="41.66065" lon="44.29034">
        <ele>1579.086491</ele>
        <time>2021-08-17T11:22:13.807Z</time>
      </trkpt>
      <trkpt lat="41.66064" lon="44.29068">
        <ele>1578.227933</ele>
        <time>2021-08-17T11:22:18.124Z</time>
      </trkpt>
      <trkpt lat="41.66081" lon="44.2912">
        <ele>1576.775232</ele>
        <time>2021-08-17T11:22:25.623Z</time>
      </trkpt>
      <trkpt lat="41.66117" lon="44.29171">
        <ele>1575.01989</ele>
        <time>2021-08-17T11:22:34.903Z</time>
      </trkpt>
      <trkpt lat="41.66136" lon="44.29219">
        <ele>1573.868123</ele>
        <time>2021-08-17T11:22:42.275Z</time>
      </trkpt>
      <trkpt lat="41.66141" lon="44.29243">
        <ele>1573.338843</ele>
        <time>2021-08-17T11:22:45.687Z</time>
      </trkpt>
      <trkpt lat="41.66169" lon="44.29578">
        <ele>1565.732222</ele>
        <time>2021-08-17T11:23:29.072Z</time>
      </trkpt>
      <trkpt lat="41.66176" lon="44.29622">
        <ele>1564.663884</ele>
        <time>2021-08-17T11:23:34.710Z</time>
      </trkpt>
      <trkpt lat="41.66187" lon="44.29649">
        <ele>1564.021121</ele>
        <time>2021-08-17T11:23:38.579Z</time>
      </trkpt>
      <trkpt lat="41.66204" lon="44.29671">
        <ele>1563.487743</ele>
        <time>2021-08-17T11:23:42.672Z</time>
      </trkpt>
      <trkpt lat="41.66316" lon="44.29747">
        <ele>1560.697585</ele>
        <time>2021-08-17T11:24:05.304Z</time>
      </trkpt>
      <trkpt lat="41.66452" lon="44.29906">
        <ele>1558.561261</ele>
        <time>2021-08-17T11:24:42.149Z</time>
      </trkpt>
      <trkpt lat="41.6649" lon="44.29962">
        <ele>1557.435661</ele>
        <time>2021-08-17T11:24:52.909Z</time>
      </trkpt>
      <trkpt lat="41.66496" lon="44.29986">
        <ele>1556.953028</ele>
        <time>2021-08-17T11:24:56.411Z</time>
      </trkpt>
      <trkpt lat="41.66486" lon="44.30085">
        <ele>1555.058781</ele>
        <time>2021-08-17T11:25:09.489Z</time>
      </trkpt>
      <trkpt lat="41.66536" lon="44.3025">
        <ele>1550.946054</ele>
        <time>2021-08-17T11:25:31.884Z</time>
      </trkpt>
      <trkpt lat="41.66545" lon="44.30302">
        <ele>1549.572132</ele>
        <time>2021-08-17T11:25:38.617Z</time>
      </trkpt>
      <trkpt lat="41.66549" lon="44.30373">
        <ele>1547.741446</ele>
        <time>2021-08-17T11:25:47.651Z</time>
      </trkpt>
      <trkpt lat="41.66543" lon="44.30538">
        <ele>1543.693638</ele>
        <time>2021-08-17T11:26:08.760Z</time>
      </trkpt>
      <trkpt lat="41.6655" lon="44.306">
        <ele>1542.155495</ele>
        <time>2021-08-17T11:26:16.860Z</time>
      </trkpt>
      <trkpt lat="41.66574" lon="44.30674">
        <ele>1540.03737</ele>
        <time>2021-08-17T11:26:27.023Z</time>
      </trkpt>
      <trkpt lat="41.66633" lon="44.30797">
        <ele>1536.066104</ele>
        <time>2021-08-17T11:26:45.494Z</time>
      </trkpt>
      <trkpt lat="41.66642" lon="44.30822">
        <ele>1535.317043</ele>
        <time>2021-08-17T11:26:48.992Z</time>
      </trkpt>
      <trkpt lat="41.66653" lon="44.30858">
        <ele>1533.887748</ele>
        <time>2021-08-17T11:26:53.767Z</time>
      </trkpt>
      <trkpt lat="41.6666" lon="44.30931">
        <ele>1531.067938</ele>
        <time>2021-08-17T11:27:02.486Z</time>
      </trkpt>
      <trkpt lat="41.66654" lon="44.3101">
        <ele>1528.065292</ele>
        <time>2021-08-17T11:27:11.676Z</time>
      </trkpt>
      <trkpt lat="41.6665" lon="44.31046">
        <ele>1526.654465</ele>
        <time>2021-08-17T11:27:16.085Z</time>
      </trkpt>
      <trkpt lat="41.66647" lon="44.31061">
        <ele>1526.087947</ele>
        <time>2021-08-17T11:27:17.738Z</time>
      </trkpt>
      <trkpt lat="41.66643" lon="44.31109">
        <ele>1524.086562</ele>
        <time>2021-08-17T11:27:23.404Z</time>
      </trkpt>
      <trkpt lat="41.66646" lon="44.31136">
        <ele>1522.960678</ele>
        <time>2021-08-17T11:27:26.666Z</time>
      </trkpt>
      <trkpt lat="41.66691" lon="44.31254">
        <ele>1517.428578</ele>
        <time>2021-08-17T11:27:41.960Z</time>
      </trkpt>
      <trkpt lat="41.66701" lon="44.31337">
        <ele>1514.284507</ele>
        <time>2021-08-17T11:27:52.097Z</time>
      </trkpt>
      <trkpt lat="41.66713" lon="44.31391">
        <ele>1512.34624</ele>
        <time>2021-08-17T11:27:58.914Z</time>
      </trkpt>
      <trkpt lat="41.6673" lon="44.31421">
        <ele>1511.071541</ele>
        <time>2021-08-17T11:28:03.394Z</time>
      </trkpt>
      <trkpt lat="41.66825" lon="44.31525">
        <ele>1505.72179</ele>
        <time>2021-08-17T11:28:23.384Z</time>
      </trkpt>
      <trkpt lat="41.66843" lon="44.31557">
        <ele>1504.545477</ele>
        <time>2021-08-17T11:28:28.225Z</time>
      </trkpt>
      <trkpt lat="41.66848" lon="44.31592">
        <ele>1503.475826</ele>
        <time>2021-08-17T11:28:32.639Z</time>
      </trkpt>
      <trkpt lat="41.66842" lon="44.31649">
        <ele>1501.781495</ele>
        <time>2021-08-17T11:28:39.673Z</time>
      </trkpt>
      <trkpt lat="41.66843" lon="44.31706">
        <ele>1500.26408</ele>
        <time>2021-08-17T11:28:46.875Z</time>
      </trkpt>
      <trkpt lat="41.66862" lon="44.31829">
        <ele>1497.979157</ele>
        <time>2021-08-17T11:29:03.381Z</time>
      </trkpt>
      <trkpt lat="41.66879" lon="44.31879">
        <ele>1496.990239</ele>
        <time>2021-08-17T11:29:10.959Z</time>
      </trkpt>
      <trkpt lat="41.66919" lon="44.3196">
        <ele>1495.235054</ele>
        <time>2021-08-17T11:29:24.973Z</time>
      </trkpt>
      <trkpt lat="41.66937" lon="44.3201">
        <ele>1494.254731</ele>
        <time>2021-08-17T11:29:32.803Z</time>
      </trkpt>
      <trkpt lat="41.6694" lon="44.32073">
        <ele>1493.140328</ele>
        <time>2021-08-17T11:29:41.446Z</time>
      </trkpt>
      <trkpt lat="41.66936" lon="44.32113">
        <ele>1492.428823</ele>
        <time>2021-08-17T11:29:46.734Z</time>
      </trkpt>
      <trkpt lat="41.66918" lon="44.3215">
        <ele>1491.263027</ele>
        <time>2021-08-17T11:29:52.308Z</time>
      </trkpt>
      <trkpt lat="41.66857" lon="44.32219">
        <ele>1486.919238</ele>
        <time>2021-08-17T11:30:04.854Z</time>
      </trkpt>
      <trkpt lat="41.66846" lon="44.32245">
        <ele>1485.671731</ele>
        <time>2021-08-17T11:30:08.352Z</time>
      </trkpt>
      <trkpt lat="41.66843" lon="44.32269">
        <ele>1484.711826</ele>
        <time>2021-08-17T11:30:11.022Z</time>
      </trkpt>
      <trkpt lat="41.66844" lon="44.32297">
        <ele>1483.541781</ele>
        <time>2021-08-17T11:30:14.269Z</time>
      </trkpt>
      <trkpt lat="41.66857" lon="44.32352">
        <ele>1481.103445</ele>
        <time>2021-08-17T11:30:20.750Z</time>
      </trkpt>
      <trkpt lat="41.6687" lon="44.32442">
        <ele>1476.934624</ele>
        <time>2021-08-17T11:30:31.162Z</time>
      </trkpt>
      <trkpt lat="41.66858" lon="44.3262">
        <ele>1469.13378</ele>
        <time>2021-08-17T11:30:51.939Z</time>
      </trkpt>
      <trkpt lat="41.66878" lon="44.32703">
        <ele>1465.748831</ele>
        <time>2021-08-17T11:31:02.289Z</time>
      </trkpt>
      <trkpt lat="41.66883" lon="44.3275">
        <ele>1463.875225</ele>
        <time>2021-08-17T11:31:08.013Z</time>
      </trkpt>
      <trkpt lat="41.66876" lon="44.32805">
        <ele>1461.682197</ele>
        <time>2021-08-17T11:31:14.654Z</time>
      </trkpt>
      <trkpt lat="41.66843" lon="44.3288">
        <ele>1457.83439</ele>
        <time>2021-08-17T11:31:24.743Z</time>
      </trkpt>
      <trkpt lat="41.66826" lon="44.32946">
        <ele>1454.72752</ele>
        <time>2021-08-17T11:31:32.767Z</time>
      </trkpt>
      <trkpt lat="41.6683" lon="44.3301">
        <ele>1451.836438</ele>
        <time>2021-08-17T11:31:40.195Z</time>
      </trkpt>
      <trkpt lat="41.66841" lon="44.3306">
        <ele>1449.40704</ele>
        <time>2021-08-17T11:31:46.070Z</time>
      </trkpt>
      <trkpt lat="41.66847" lon="44.33118">
        <ele>1446.553023</ele>
        <time>2021-08-17T11:31:52.736Z</time>
      </trkpt>
      <trkpt lat="41.66835" lon="44.33218">
        <ele>1441.638133</ele>
        <time>2021-08-17T11:32:04.192Z</time>
      </trkpt>
      <trkpt lat="41.66841" lon="44.33241">
        <ele>1440.432792</ele>
        <time>2021-08-17T11:32:07.006Z</time>
      </trkpt>
      <trkpt lat="41.66876" lon="44.33289">
        <ele>1437.631212</ele>
        <time>2021-08-17T11:32:14.584Z</time>
      </trkpt>
      <trkpt lat="41.6689" lon="44.33318">
        <ele>1436.265918</ele>
        <time>2021-08-17T11:32:18.629Z</time>
      </trkpt>
      <trkpt lat="41.66925" lon="44.33442">
        <ele>1431.111642</ele>
        <time>2021-08-17T11:32:34.193Z</time>
      </trkpt>
      <trkpt lat="41.66974" lon="44.33565">
        <ele>1428.611652</ele>
        <time>2021-08-17T11:32:51.890Z</time>
      </trkpt>
      <trkpt lat="41.67006" lon="44.33623">
        <ele>1427.75831</ele>
        <time>2021-08-17T11:33:03.133Z</time>
      </trkpt>
      <trkpt lat="41.67018" lon="44.33636">
        <ele>1427.512028</ele>
        <time>2021-08-17T11:33:06.313Z</time>
      </trkpt>
      <trkpt lat="41.67049" lon="44.33652">
        <ele>1427.091814</ele>
        <time>2021-08-17T11:33:15.100Z</time>
      </trkpt>
      <trkpt lat="41.67059" lon="44.33651">
        <ele>1427.194528</ele>
        <time>2021-08-17T11:33:17.242Z</time>
      </trkpt>
      <trkpt lat="41.67072" lon="44.33646">
        <ele>1427.337807</ele>
        <time>2021-08-17T11:33:22.202Z</time>
      </trkpt>
      <trkpt lat="41.67169" lon="44.33556">
        <ele>1428.572165</ele>
        <time>2021-08-17T11:33:58.064Z</time>
      </trkpt>
      <trkpt lat="41.67235" lon="44.33509">
        <ele>1427.87647</ele>
        <time>2021-08-17T11:34:15.731Z</time>
      </trkpt>
      <trkpt lat="41.6725" lon="44.33491">
        <ele>1427.373602</ele>
        <time>2021-08-17T11:34:19.414Z</time>
      </trkpt>
      <trkpt lat="41.67277" lon="44.3344">
        <ele>1426.163053</ele>
        <time>2021-08-17T11:34:27.746Z</time>
      </trkpt>
      <trkpt lat="41.67288" lon="44.33438">
        <ele>1425.875539</ele>
        <time>2021-08-17T11:34:29.597Z</time>
      </trkpt>
      <trkpt lat="41.67298" lon="44.33444">
        <ele>1425.569697</ele>
        <time>2021-08-17T11:34:31.559Z</time>
      </trkpt>
      <trkpt lat="41.67312" lon="44.33487">
        <ele>1424.670462</ele>
        <time>2021-08-17T11:34:37.212Z</time>
      </trkpt>
      <trkpt lat="41.67303" lon="44.33647">
        <ele>1418.540883</ele>
        <time>2021-08-17T11:34:55.842Z</time>
      </trkpt>
      <trkpt lat="41.67317" lon="44.33684">
        <ele>1416.843159</ele>
        <time>2021-08-17T11:35:00.619Z</time>
      </trkpt>
      <trkpt lat="41.67359" lon="44.33731">
        <ele>1413.949639</ele>
        <time>2021-08-17T11:35:09.289Z</time>
      </trkpt>
      <trkpt lat="41.67364" lon="44.33739">
        <ele>1413.601698</ele>
        <time>2021-08-17T11:35:10.511Z</time>
      </trkpt>
      <trkpt lat="41.67369" lon="44.33751">
        <ele>1413.161287</ele>
        <time>2021-08-17T11:35:12.006Z</time>
      </trkpt>
      <trkpt lat="41.67371" lon="44.33785">
        <ele>1412.024366</ele>
        <time>2021-08-17T11:35:16.210Z</time>
      </trkpt>
      <trkpt lat="41.67344" lon="44.33954">
        <ele>1406.309953</ele>
        <time>2021-08-17T11:35:37.349Z</time>
      </trkpt>
      <trkpt lat="41.67345" lon="44.33992">
        <ele>1405.07936</ele>
        <time>2021-08-17T11:35:42.106Z</time>
      </trkpt>
      <trkpt lat="41.67355" lon="44.34018">
        <ele>1404.127234</ele>
        <time>2021-08-17T11:35:45.748Z</time>
      </trkpt>
      <trkpt lat="41.67415" lon="44.3408">
        <ele>1400.871608</ele>
        <time>2021-08-17T11:35:58.127Z</time>
      </trkpt>
      <trkpt lat="41.6743" lon="44.34115">
        <ele>1399.580209</ele>
        <time>2021-08-17T11:36:03.041Z</time>
      </trkpt>
      <trkpt lat="41.67432" lon="44.34126">
        <ele>1399.199981</ele>
        <time>2021-08-17T11:36:04.425Z</time>
      </trkpt>
      <trkpt lat="41.67434" lon="44.34156">
        <ele>1398.101864</ele>
        <time>2021-08-17T11:36:08.075Z</time>
      </trkpt>
      <trkpt lat="41.67442" lon="44.34192">
        <ele>1396.607135</ele>
        <time>2021-08-17T11:36:12.460Z</time>
      </trkpt>
      <trkpt lat="41.67452" lon="44.3421">
        <ele>1395.674935</ele>
        <time>2021-08-17T11:36:15.204Z</time>
      </trkpt>
      <trkpt lat="41.67476" lon="44.34235">
        <ele>1394.029841</ele>
        <time>2021-08-17T11:36:19.958Z</time>
      </trkpt>
      <trkpt lat="41.67507" lon="44.34245">
        <ele>1392.283601</ele>
        <time>2021-08-17T11:36:24.911Z</time>
      </trkpt>
      <trkpt lat="41.67529" lon="44.34242">
        <ele>1391.116637</ele>
        <time>2021-08-17T11:36:28.195Z</time>
      </trkpt>
      <trkpt lat="41.67571" lon="44.34223">
        <ele>1388.655616</ele>
        <time>2021-08-17T11:36:35.184Z</time>
      </trkpt>
      <trkpt lat="41.67586" lon="44.34231">
        <ele>1387.685722</ele>
        <time>2021-08-17T11:36:37.664Z</time>
      </trkpt>
      <trkpt lat="41.67594" lon="44.34245">
        <ele>1386.850826</ele>
        <time>2021-08-17T11:36:39.777Z</time>
      </trkpt>
      <trkpt lat="41.67621" lon="44.3438">
        <ele>1380.463398</ele>
        <time>2021-08-17T11:36:55.730Z</time>
      </trkpt>
      <trkpt lat="41.67629" lon="44.34449">
        <ele>1377.363364</ele>
        <time>2021-08-17T11:37:03.685Z</time>
      </trkpt>
      <trkpt lat="41.67628" lon="44.34477">
        <ele>1376.232475</ele>
        <time>2021-08-17T11:37:06.882Z</time>
      </trkpt>
      <trkpt lat="41.67613" lon="44.3456">
        <ele>1372.72294</ele>
        <time>2021-08-17T11:37:16.909Z</time>
      </trkpt>
      <trkpt lat="41.67612" lon="44.34708">
        <ele>1366.780642</ele>
        <time>2021-08-17T11:37:34.377Z</time>
      </trkpt>
      <trkpt lat="41.67617" lon="44.34747">
        <ele>1365.210869</ele>
        <time>2021-08-17T11:37:39.209Z</time>
      </trkpt>
      <trkpt lat="41.67638" lon="44.34781">
        <ele>1363.514583</ele>
        <time>2021-08-17T11:37:44.427Z</time>
      </trkpt>
      <trkpt lat="41.67742" lon="44.34856">
        <ele>1356.805964</ele>
        <time>2021-08-17T11:38:02.872Z</time>
      </trkpt>
      <trkpt lat="41.67756" lon="44.34888">
        <ele>1354.767055</ele>
        <time>2021-08-17T11:38:07.116Z</time>
      </trkpt>
      <trkpt lat="41.67754" lon="44.34924">
        <ele>1352.812782</ele>
        <time>2021-08-17T11:38:11.153Z</time>
      </trkpt>
      <trkpt lat="41.67708" lon="44.35039">
        <ele>1345.673558</ele>
        <time>2021-08-17T11:38:25.576Z</time>
      </trkpt>
      <trkpt lat="41.67617" lon="44.35227">
        <ele>1331.259783</ele>
        <time>2021-08-17T11:38:49.720Z</time>
      </trkpt>
      <trkpt lat="41.67548" lon="44.35358">
        <ele>1322.4925</ele>
        <time>2021-08-17T11:39:07.383Z</time>
      </trkpt>
      <trkpt lat="41.67363" lon="44.35682">
        <ele>1304.419366</ele>
        <time>2021-08-17T11:39:54.556Z</time>
      </trkpt>
      <trkpt lat="41.67269" lon="44.35929">
        <ele>1294.920534</ele>
        <time>2021-08-17T11:40:28.450Z</time>
      </trkpt>
      <trkpt lat="41.6722" lon="44.35999">
        <ele>1291.794411</ele>
        <time>2021-08-17T11:40:40.186Z</time>
      </trkpt>
      <trkpt lat="41.67193" lon="44.36051">
        <ele>1289.648039</ele>
        <time>2021-08-17T11:40:47.822Z</time>
      </trkpt>
      <trkpt lat="41.67167" lon="44.36158">
        <ele>1285.554454</ele>
        <time>2021-08-17T11:41:01.260Z</time>
      </trkpt>
      <trkpt lat="41.67157" lon="44.36178">
        <ele>1284.68774</ele>
        <time>2021-08-17T11:41:04.095Z</time>
      </trkpt>
      <trkpt lat="41.67089" lon="44.36252">
        <ele>1280.306072</ele>
        <time>2021-08-17T11:41:18.050Z</time>
      </trkpt>
      <trkpt lat="41.67069" lon="44.36279">
        <ele>1278.806954</ele>
        <time>2021-08-17T11:41:22.547Z</time>
      </trkpt>
      <trkpt lat="41.67033" lon="44.36351">
        <ele>1275.444802</ele>
        <time>2021-08-17T11:41:32.604Z</time>
      </trkpt>
      <trkpt lat="41.6701" lon="44.36416">
        <ele>1272.618644</ele>
        <time>2021-08-17T11:41:41.141Z</time>
      </trkpt>
      <trkpt lat="41.66999" lon="44.3645">
        <ele>1271.255379</ele>
        <time>2021-08-17T11:41:45.531Z</time>
      </trkpt>
      <trkpt lat="41.66975" lon="44.36531">
        <ele>1268.101131</ele>
        <time>2021-08-17T11:41:55.972Z</time>
      </trkpt>
      <trkpt lat="41.66892" lon="44.36862">
        <ele>1255.610361</ele>
        <time>2021-08-17T11:42:37.931Z</time>
      </trkpt>
      <trkpt lat="41.66861" lon="44.36907">
        <ele>1253.006481</ele>
        <time>2021-08-17T11:42:45.104Z</time>
      </trkpt>
      <trkpt lat="41.6684" lon="44.36925">
        <ele>1251.508093</ele>
        <time>2021-08-17T11:42:48.977Z</time>
      </trkpt>
      <trkpt lat="41.6682" lon="44.36931">
        <ele>1250.255872</ele>
        <time>2021-08-17T11:42:52.181Z</time>
      </trkpt>
      <trkpt lat="41.66793" lon="44.36923">
        <ele>1248.620609</ele>
        <time>2021-08-17T11:42:56.379Z</time>
      </trkpt>
      <trkpt lat="41.66766" lon="44.36925">
        <ele>1246.991765</ele>
        <time>2021-08-17T11:43:00.525Z</time>
      </trkpt>
      <trkpt lat="41.66748" lon="44.36941">
        <ele>1245.749035</ele>
        <time>2021-08-17T11:43:03.681Z</time>
      </trkpt>
      <trkpt lat="41.66734" lon="44.36971">
        <ele>1244.157959</ele>
        <time>2021-08-17T11:43:07.757Z</time>
      </trkpt>
      <trkpt lat="41.66719" lon="44.3703">
        <ele>1241.452793</ele>
        <time>2021-08-17T11:43:14.856Z</time>
      </trkpt>
      <trkpt lat="41.667" lon="44.37166">
        <ele>1235.385206</ele>
        <time>2021-08-17T11:43:30.986Z</time>
      </trkpt>
      <trkpt lat="41.66616" lon="44.37368">
        <ele>1225.690495</ele>
        <time>2021-08-17T11:43:58.066Z</time>
      </trkpt>
      <trkpt lat="41.66552" lon="44.37554">
        <ele>1215.934127</ele>
        <time>2021-08-17T11:44:21.574Z</time>
      </trkpt>
      <trkpt lat="41.66525" lon="44.37632">
        <ele>1211.738694</ele>
        <time>2021-08-17T11:44:31.069Z</time>
      </trkpt>
      <trkpt lat="41.66509" lon="44.37679">
        <ele>1208.850889</ele>
        <time>2021-08-17T11:44:36.914Z</time>
      </trkpt>
      <trkpt lat="41.66467" lon="44.378">
        <ele>1201.515732</ele>
        <time>2021-08-17T11:44:51.759Z</time>
      </trkpt>
      <trkpt lat="41.66458" lon="44.37841">
        <ele>1199.232183</ele>
        <time>2021-08-17T11:44:56.359Z</time>
      </trkpt>
      <trkpt lat="41.66454" lon="44.37899">
        <ele>1196.31643</ele>
        <time>2021-08-17T11:45:02.988Z</time>
      </trkpt>
      <trkpt lat="41.66461" lon="44.3794">
        <ele>1194.266516</ele>
        <time>2021-08-17T11:45:07.815Z</time>
      </trkpt>
      <trkpt lat="41.66471" lon="44.37965">
        <ele>1192.906521</ele>
        <time>2021-08-17T11:45:11.013Z</time>
      </trkpt>
      <trkpt lat="41.66506" lon="44.38011">
        <ele>1189.698918</ele>
        <time>2021-08-17T11:45:18.591Z</time>
      </trkpt>
      <trkpt lat="41.66527" lon="44.38047">
        <ele>1187.478848</ele>
        <time>2021-08-17T11:45:23.811Z</time>
      </trkpt>
      <trkpt lat="41.66531" lon="44.38062">
        <ele>1186.763678</ele>
        <time>2021-08-17T11:45:25.558Z</time>
      </trkpt>
      <trkpt lat="41.6652" lon="44.38176">
        <ele>1181.733196</ele>
        <time>2021-08-17T11:45:38.735Z</time>
      </trkpt>
      <trkpt lat="41.66521" lon="44.38266">
        <ele>1177.792293</ele>
        <time>2021-08-17T11:45:49.174Z</time>
      </trkpt>
      <trkpt lat="41.66497" lon="44.38395">
        <ele>1174.009475</ele>
        <time>2021-08-17T11:46:05.013Z</time>
      </trkpt>
      <trkpt lat="41.66498" lon="44.38431">
        <ele>1173.152456</ele>
        <time>2021-08-17T11:46:09.541Z</time>
      </trkpt>
      <trkpt lat="41.66513" lon="44.38511">
        <ele>1171.183079</ele>
        <time>2021-08-17T11:46:20.689Z</time>
      </trkpt>
      <trkpt lat="41.66516" lon="44.38649">
        <ele>1172.039525</ele>
        <time>2021-08-17T11:46:46.175Z</time>
      </trkpt>
      <trkpt lat="41.66529" lon="44.38673">
        <ele>1172.367793</ele>
        <time>2021-08-17T11:46:53.746Z</time>
      </trkpt>
      <trkpt lat="41.6655" lon="44.38677">
        <ele>1172.69516</ele>
        <time>2021-08-17T11:47:01.535Z</time>
      </trkpt>
      <trkpt lat="41.66563" lon="44.3867">
        <ele>1172.902934</ele>
        <time>2021-08-17T11:47:06.853Z</time>
      </trkpt>
      <trkpt lat="41.66647" lon="44.38566">
        <ele>1175.414665</ele>
        <time>2021-08-17T11:47:51.711Z</time>
      </trkpt>
      <trkpt lat="41.66758" lon="44.38354">
        <ele>1177.599098</ele>
        <time>2021-08-17T11:48:51.927Z</time>
      </trkpt>
      <trkpt lat="41.66823" lon="44.38268">
        <ele>1177.041364</ele>
        <time>2021-08-17T11:49:08.834Z</time>
      </trkpt>
      <trkpt lat="41.66886" lon="44.38134">
        <ele>1170.86493</ele>
        <time>2021-08-17T11:49:27.730Z</time>
      </trkpt>
      <trkpt lat="41.66953" lon="44.38042">
        <ele>1164.737467</ele>
        <time>2021-08-17T11:49:42.182Z</time>
      </trkpt>
      <trkpt lat="41.67055" lon="44.37927">
        <ele>1154.143612</ele>
        <time>2021-08-17T11:50:01.615Z</time>
      </trkpt>
      <trkpt lat="41.67123" lon="44.37834">
        <ele>1146.736427</ele>
        <time>2021-08-17T11:50:15.760Z</time>
      </trkpt>
      <trkpt lat="41.67138" lon="44.37845">
        <ele>1145.398855</ele>
        <time>2021-08-17T11:50:18.357Z</time>
      </trkpt>
      <trkpt lat="41.67134" lon="44.37869">
        <ele>1144.028468</ele>
        <time>2021-08-17T11:50:21.035Z</time>
      </trkpt>
      <trkpt lat="41.67095" lon="44.37944">
        <ele>1139.136067</ele>
        <time>2021-08-17T11:50:31.391Z</time>
      </trkpt>
      <trkpt lat="41.66992" lon="44.38094">
        <ele>1131.106387</ele>
        <time>2021-08-17T11:50:55.444Z</time>
      </trkpt>
      <trkpt lat="41.6697" lon="44.3814">
        <ele>1129.189276</ele>
        <time>2021-08-17T11:51:02.085Z</time>
      </trkpt>
      <trkpt lat="41.66944" lon="44.3821">
        <ele>1126.595879</ele>
        <time>2021-08-17T11:51:11.581Z</time>
      </trkpt>
      <trkpt lat="41.66892" lon="44.38386">
        <ele>1120.788525</ele>
        <time>2021-08-17T11:51:34.671Z</time>
      </trkpt>
      <trkpt lat="41.66869" lon="44.38445">
        <ele>1119.023481</ele>
        <time>2021-08-17T11:51:43.116Z</time>
      </trkpt>
      <trkpt lat="41.66856" lon="44.38461">
        <ele>1118.385147</ele>
        <time>2021-08-17T11:51:46.233Z</time>
      </trkpt>
      <trkpt lat="41.66796" lon="44.38495">
        <ele>1116.094402</ele>
        <time>2021-08-17T11:51:57.607Z</time>
      </trkpt>
      <trkpt lat="41.66781" lon="44.38516">
        <ele>1114.673613</ele>
        <time>2021-08-17T11:52:01.240Z</time>
      </trkpt>
      <trkpt lat="41.66766" lon="44.38547">
        <ele>1112.843369</ele>
        <time>2021-08-17T11:52:05.733Z</time>
      </trkpt>
      <trkpt lat="41.66736" lon="44.38648">
        <ele>1107.475984</ele>
        <time>2021-08-17T11:52:18.084Z</time>
      </trkpt>
      <trkpt lat="41.66736" lon="44.38656">
        <ele>1107.103624</ele>
        <time>2021-08-17T11:52:18.910Z</time>
      </trkpt>
      <trkpt lat="41.66744" lon="44.38657">
        <ele>1106.574979</ele>
        <time>2021-08-17T11:52:20.068Z</time>
      </trkpt>
      <trkpt lat="41.66781" lon="44.38562">
        <ele>1099.651017</ele>
        <time>2021-08-17T11:52:31.503Z</time>
      </trkpt>
      <trkpt lat="41.66811" lon="44.38529">
        <ele>1095.600974</ele>
        <time>2021-08-17T11:52:36.982Z</time>
      </trkpt>
      <trkpt lat="41.66844" lon="44.38528">
        <ele>1092.158904</ele>
        <time>2021-08-17T11:52:41.588Z</time>
      </trkpt>
      <trkpt lat="41.6686" lon="44.38536">
        <ele>1090.431173</ele>
        <time>2021-08-17T11:52:43.889Z</time>
      </trkpt>
      <trkpt lat="41.6689" lon="44.38571">
        <ele>1086.343005</ele>
        <time>2021-08-17T11:52:49.411Z</time>
      </trkpt>
      <trkpt lat="41.66915" lon="44.38567">
        <ele>1083.959318</ele>
        <time>2021-08-17T11:52:53.013Z</time>
      </trkpt>
      <trkpt lat="41.6693" lon="44.38556">
        <ele>1082.411785</ele>
        <time>2021-08-17T11:52:55.505Z</time>
      </trkpt>
      <trkpt lat="41.66951" lon="44.38513">
        <ele>1078.980258</ele>
        <time>2021-08-17T11:53:01.146Z</time>
      </trkpt>
      <trkpt lat="41.6696" lon="44.38442">
        <ele>1074.157416</ele>
        <time>2021-08-17T11:53:09.068Z</time>
      </trkpt>
      <trkpt lat="41.66972" lon="44.38407">
        <ele>1071.521693</ele>
        <time>2021-08-17T11:53:13.278Z</time>
      </trkpt>
      <trkpt lat="41.67062" lon="44.38347">
        <ele>1062.161785</ele>
        <time>2021-08-17T11:53:27.524Z</time>
      </trkpt>
      <trkpt lat="41.67076" lon="44.38339">
        <ele>1060.726569</ele>
        <time>2021-08-17T11:53:29.600Z</time>
      </trkpt>
      <trkpt lat="41.67113" lon="44.38316">
        <ele>1056.862054</ele>
        <time>2021-08-17T11:53:35.575Z</time>
      </trkpt>
      <trkpt lat="41.67146" lon="44.38303">
        <ele>1053.635807</ele>
        <time>2021-08-17T11:53:40.550Z</time>
      </trkpt>
      <trkpt lat="41.67175" lon="44.38294">
        <ele>1051.486881</ele>
        <time>2021-08-17T11:53:44.911Z</time>
      </trkpt>
      <trkpt lat="41.67201" lon="44.3828">
        <ele>1049.933813</ele>
        <time>2021-08-17T11:53:49.020Z</time>
      </trkpt>
      <trkpt lat="41.67221" lon="44.38261">
        <ele>1048.565074</ele>
        <time>2021-08-17T11:53:52.558Z</time>
      </trkpt>
      <trkpt lat="41.67253" lon="44.38203">
        <ele>1045.504893</ele>
        <time>2021-08-17T11:54:01.327Z</time>
      </trkpt>
      <trkpt lat="41.67443" lon="44.37937">
        <ele>1034.045697</ele>
        <time>2021-08-17T11:54:47.975Z</time>
      </trkpt>
      <trkpt lat="41.67486" lon="44.37874">
        <ele>1030.605486</ele>
        <time>2021-08-17T11:54:57.914Z</time>
      </trkpt>
      <trkpt lat="41.67497" lon="44.37878">
        <ele>1030.028062</ele>
        <time>2021-08-17T11:54:59.482Z</time>
      </trkpt>
      <trkpt lat="41.67506" lon="44.37886">
        <ele>1029.440418</ele>
        <time>2021-08-17T11:55:01.322Z</time>
      </trkpt>
      <trkpt lat="41.67506" lon="44.37925">
        <ele>1027.865203</ele>
        <time>2021-08-17T11:55:05.944Z</time>
      </trkpt>
      <trkpt lat="41.6751" lon="44.37941">
        <ele>1027.185492</ele>
        <time>2021-08-17T11:55:08.087Z</time>
      </trkpt>
      <trkpt lat="41.67549" lon="44.3795">
        <ele>1025.585115</ele>
        <time>2021-08-17T11:55:14.507Z</time>
      </trkpt>
      <trkpt lat="41.67561" lon="44.37966">
        <ele>1025.032756</ele>
        <time>2021-08-17T11:55:17.016Z</time>
      </trkpt>
      <trkpt lat="41.6757" lon="44.38003">
        <ele>1024.058389</ele>
        <time>2021-08-17T11:55:22.049Z</time>
      </trkpt>
      <trkpt lat="41.67574" lon="44.38048">
        <ele>1022.91958</ele>
        <time>2021-08-17T11:55:28.021Z</time>
      </trkpt>
      <trkpt lat="41.67568" lon="44.38113">
        <ele>1021.276139</ele>
        <time>2021-08-17T11:55:37.533Z</time>
      </trkpt>
      <trkpt lat="41.67571" lon="44.3812">
        <ele>1021.072339</ele>
        <time>2021-08-17T11:55:38.755Z</time>
      </trkpt>
      <trkpt lat="41.67577" lon="44.38117">
        <ele>1020.872379</ele>
        <time>2021-08-17T11:55:39.947Z</time>
      </trkpt>
      <trkpt lat="41.67579" lon="44.38116">
        <ele>1020.793484</ele>
        <time>2021-08-17T11:55:41.151Z</time>
      </trkpt>
      <trkpt lat="41.67521" lon="44.38276">
        <ele>1020.522331</ele>
        <time>2021-08-17T11:56:10.675Z</time>
      </trkpt>
      <trkpt lat="41.67457" lon="44.38453">
        <ele>1021.205838</ele>
        <time>2021-08-17T11:56:48.298Z</time>
      </trkpt>
      <trkpt lat="41.67383" lon="44.38656">
        <ele>1021.528385</ele>
        <time>2021-08-17T11:57:32.713Z</time>
      </trkpt>
      <trkpt lat="41.67376" lon="44.38674">
        <ele>1021.465439</ele>
        <time>2021-08-17T11:57:36.337Z</time>
      </trkpt>
      <trkpt lat="41.67372" lon="44.38685">
        <ele>1021.431093</ele>
        <time>2021-08-17T11:57:39.036Z</time>
      </trkpt>
      <trkpt lat="41.67324" lon="44.38814">
        <ele>1020.143276</ele>
        <time>2021-08-17T11:57:59.380Z</time>
      </trkpt>
      <trkpt lat="41.67306" lon="44.38844">
        <ele>1019.245439</ele>
        <time>2021-08-17T11:58:04.116Z</time>
      </trkpt>
      <trkpt lat="41.67294" lon="44.38854">
        <ele>1018.800045</ele>
        <time>2021-08-17T11:58:06.497Z</time>
      </trkpt>
      <trkpt lat="41.67283" lon="44.38861">
        <ele>1018.399926</ele>
        <time>2021-08-17T11:58:08.327Z</time>
      </trkpt>
      <trkpt lat="41.67207" lon="44.38882">
        <ele>1015.938136</ele>
        <time>2021-08-17T11:58:21.521Z</time>
      </trkpt>
      <trkpt lat="41.67187" lon="44.38896">
        <ele>1015.252161</ele>
        <time>2021-08-17T11:58:25.585Z</time>
      </trkpt>
      <trkpt lat="41.67172" lon="44.38917">
        <ele>1014.703849</ele>
        <time>2021-08-17T11:58:29.402Z</time>
      </trkpt>
      <trkpt lat="41.67164" lon="44.38937">
        <ele>1014.278447</ele>
        <time>2021-08-17T11:58:32.180Z</time>
      </trkpt>
      <trkpt lat="41.6716" lon="44.38953">
        <ele>1013.97392</ele>
        <time>2021-08-17T11:58:34.187Z</time>
      </trkpt>
      <trkpt lat="41.67156" lon="44.38987">
        <ele>1013.347128</ele>
        <time>2021-08-17T11:58:38.907Z</time>
      </trkpt>
      <trkpt lat="41.67155" lon="44.39041">
        <ele>1012.348719</ele>
        <time>2021-08-17T11:58:46.314Z</time>
      </trkpt>
      <trkpt lat="41.67148" lon="44.39065">
        <ele>1011.859477</ele>
        <time>2021-08-17T11:58:50.130Z</time>
      </trkpt>
      <trkpt lat="41.67139" lon="44.39076">
        <ele>1011.565129</ele>
        <time>2021-08-17T11:58:52.332Z</time>
      </trkpt>
      <trkpt lat="41.66988" lon="44.39078">
        <ele>1007.359585</ele>
        <time>2021-08-17T11:59:19.452Z</time>
      </trkpt>
      <trkpt lat="41.6694" lon="44.39096">
        <ele>1005.915179</ele>
        <time>2021-08-17T11:59:27.659Z</time>
      </trkpt>
      <trkpt lat="41.66927" lon="44.39111">
        <ele>1005.335299</ele>
        <time>2021-08-17T11:59:30.435Z</time>
      </trkpt>
      <trkpt lat="41.66869" lon="44.39273">
        <ele>1000.492208</ele>
        <time>2021-08-17T11:59:52.635Z</time>
      </trkpt>
      <trkpt lat="41.66833" lon="44.39301">
        <ele>999.149361</ele>
        <time>2021-08-17T11:59:59.873Z</time>
      </trkpt>
      <trkpt lat="41.66811" lon="44.3933">
        <ele>998.665563</ele>
        <time>2021-08-17T12:00:05.434Z</time>
      </trkpt>
      <trkpt lat="41.66806" lon="44.39348">
        <ele>998.440392</ele>
        <time>2021-08-17T12:00:08.115Z</time>
      </trkpt>
      <trkpt lat="41.66796" lon="44.39455">
        <ele>997.177449</ele>
        <time>2021-08-17T12:00:23.970Z</time>
      </trkpt>
      <trkpt lat="41.6679" lon="44.39478">
        <ele>996.90265</ele>
        <time>2021-08-17T12:00:27.589Z</time>
      </trkpt>
      <trkpt lat="41.66716" lon="44.39655">
        <ele>995.389185</ele>
        <time>2021-08-17T12:00:58.812Z</time>
      </trkpt>
      <trkpt lat="41.66691" lon="44.39734">
        <ele>994.694851</ele>
        <time>2021-08-17T12:01:11.690Z</time>
      </trkpt>
      <trkpt lat="41.66664" lon="44.39775">
        <ele>993.759579</ele>
        <time>2021-08-17T12:01:19.434Z</time>
      </trkpt>
      <trkpt lat="41.66586" lon="44.39824">
        <ele>991.798467</ele>
        <time>2021-08-17T12:01:34.811Z</time>
      </trkpt>
      <trkpt lat="41.66449" lon="44.40048">
        <ele>985.532091</ele>
        <time>2021-08-17T12:02:11.874Z</time>
      </trkpt>
      <trkpt lat="41.66427" lon="44.40107">
        <ele>984.177839</ele>
        <time>2021-08-17T12:02:20.422Z</time>
      </trkpt>
      <trkpt lat="41.66414" lon="44.40167">
        <ele>982.921513</ele>
        <time>2021-08-17T12:02:28.594Z</time>
      </trkpt>
      <trkpt lat="41.66382" lon="44.40455">
        <ele>977.540189</ele>
        <time>2021-08-17T12:03:07.375Z</time>
      </trkpt>
      <trkpt lat="41.66369" lon="44.40524">
        <ele>976.302798</ele>
        <time>2021-08-17T12:03:17.085Z</time>
      </trkpt>
      <trkpt lat="41.66344" lon="44.40582">
        <ele>975.325776</ele>
        <time>2021-08-17T12:03:26.296Z</time>
      </trkpt>
      <trkpt lat="41.66286" lon="44.40666">
        <ele>973.673928</ele>
        <time>2021-08-17T12:03:42.014Z</time>
      </trkpt>
      <trkpt lat="41.66192" lon="44.40772">
        <ele>971.554179</ele>
        <time>2021-08-17T12:04:04.953Z</time>
      </trkpt>
      <trkpt lat="41.6615" lon="44.40801">
        <ele>970.798854</ele>
        <time>2021-08-17T12:04:13.906Z</time>
      </trkpt>
      <trkpt lat="41.66133" lon="44.40825">
        <ele>970.404663</ele>
        <time>2021-08-17T12:04:18.628Z</time>
      </trkpt>
      <trkpt lat="41.66135" lon="44.40902">
        <ele>969.605813</ele>
        <time>2021-08-17T12:04:29.777Z</time>
      </trkpt>
      <trkpt lat="41.66111" lon="44.41022">
        <ele>968.526061</ele>
        <time>2021-08-17T12:04:48.128Z</time>
      </trkpt>
      <trkpt lat="41.66101" lon="44.41149">
        <ele>967.23281</ele>
        <time>2021-08-17T12:05:06.770Z</time>
      </trkpt>
      <trkpt lat="41.66081" lon="44.41219">
        <ele>966.298961</ele>
        <time>2021-08-17T12:05:17.586Z</time>
      </trkpt>
      <trkpt lat="41.66057" lon="44.41253">
        <ele>965.707286</ele>
        <time>2021-08-17T12:05:24.245Z</time>
      </trkpt>
      <trkpt lat="41.66048" lon="44.41261">
        <ele>965.52906</ele>
        <time>2021-08-17T12:05:26.209Z</time>
      </trkpt>
      <trkpt lat="41.66045" lon="44.41263">
        <ele>965.479164</ele>
        <time>2021-08-17T12:05:26.676Z</time>
      </trkpt>
      <trkpt lat="41.65919" lon="44.41334">
        <ele>962.454111</ele>
        <time>2021-08-17T12:05:51.559Z</time>
      </trkpt>
      <trkpt lat="41.6591" lon="44.41347">
        <ele>962.149243</ele>
        <time>2021-08-17T12:05:53.684Z</time>
      </trkpt>
      <trkpt lat="41.65901" lon="44.41458">
        <ele>960.124402</ele>
        <time>2021-08-17T12:06:08.543Z</time>
      </trkpt>
      <trkpt lat="41.65895" lon="44.4148">
        <ele>959.711922</ele>
        <time>2021-08-17T12:06:11.572Z</time>
      </trkpt>
      <trkpt lat="41.65837" lon="44.41609">
        <ele>957.017343</ele>
        <time>2021-08-17T12:06:31.434Z</time>
      </trkpt>
      <trkpt lat="41.65816" lon="44.4167">
        <ele>955.997816</ele>
        <time>2021-08-17T12:06:40.643Z</time>
      </trkpt>
      <trkpt lat="41.65744" lon="44.42078">
        <ele>953.156986</ele>
        <time>2021-08-17T12:07:43.906Z</time>
      </trkpt>
      <trkpt lat="41.65732" lon="44.42116">
        <ele>952.941601</ele>
        <time>2021-08-17T12:07:50.871Z</time>
      </trkpt>
      <trkpt lat="41.65679" lon="44.42238">
        <ele>952.242773</ele>
        <time>2021-08-17T12:08:13.730Z</time>
      </trkpt>
      <trkpt lat="41.65676" lon="44.42269">
        <ele>952.085686</ele>
        <time>2021-08-17T12:08:18.608Z</time>
      </trkpt>
      <trkpt lat="41.65683" lon="44.42341">
        <ele>951.672534</ele>
        <time>2021-08-17T12:08:29.278Z</time>
      </trkpt>
      <trkpt lat="41.65677" lon="44.42372">
        <ele>950.932442</ele>
        <time>2021-08-17T12:08:33.748Z</time>
      </trkpt>
      <trkpt lat="41.65664" lon="44.42399">
        <ele>950.204886</ele>
        <time>2021-08-17T12:08:38.029Z</time>
      </trkpt>
      <trkpt lat="41.65618" lon="44.42464">
        <ele>948.135068</ele>
        <time>2021-08-17T12:08:49.605Z</time>
      </trkpt>
      <trkpt lat="41.65522" lon="44.42523">
        <ele>944.571646</ele>
        <time>2021-08-17T12:09:06.756Z</time>
      </trkpt>
      <trkpt lat="41.65433" lon="44.42601">
        <ele>940.472751</ele>
        <time>2021-08-17T12:09:24.313Z</time>
      </trkpt>
      <trkpt lat="41.6533" lon="44.4272">
        <ele>937.031987</ele>
        <time>2021-08-17T12:09:48.010Z</time>
      </trkpt>
      <trkpt lat="41.65142" lon="44.42924">
        <ele>933.669534</ele>
        <time>2021-08-17T12:10:35.419Z</time>
      </trkpt>
      <trkpt lat="41.65102" lon="44.42979">
        <ele>933.313372</ele>
        <time>2021-08-17T12:10:47.652Z</time>
      </trkpt>
      <trkpt lat="41.65085" lon="44.43012">
        <ele>933.158777</ele>
        <time>2021-08-17T12:10:54.274Z</time>
      </trkpt>
      <trkpt lat="41.65031" lon="44.43154">
        <ele>932.432095</ele>
        <time>2021-08-17T12:11:19.286Z</time>
      </trkpt>
      <trkpt lat="41.65011" lon="44.43179">
        <ele>932.046148</ele>
        <time>2021-08-17T12:11:24.701Z</time>
      </trkpt>
      <trkpt lat="41.64961" lon="44.43215">
        <ele>931.237771</ele>
        <time>2021-08-17T12:11:35.550Z</time>
      </trkpt>
      <trkpt lat="41.64928" lon="44.43267">
        <ele>930.513694</ele>
        <time>2021-08-17T12:11:45.071Z</time>
      </trkpt>
      <trkpt lat="41.64899" lon="44.43324">
        <ele>929.777469</ele>
        <time>2021-08-17T12:11:54.513Z</time>
      </trkpt>
      <trkpt lat="41.64836" lon="44.43467">
        <ele>927.998414</ele>
        <time>2021-08-17T12:12:17.991Z</time>
      </trkpt>
      <trkpt lat="41.64751" lon="44.43683">
        <ele>926.644568</ele>
        <time>2021-08-17T12:12:56.031Z</time>
      </trkpt>
      <trkpt lat="41.6471" lon="44.43754">
        <ele>926.381019</ele>
        <time>2021-08-17T12:13:10.110Z</time>
      </trkpt>
      <trkpt lat="41.64694" lon="44.43792">
        <ele>926.313442</ele>
        <time>2021-08-17T12:13:16.738Z</time>
      </trkpt>
      <trkpt lat="41.64676" lon="44.43893">
        <ele>926.150033</ele>
        <time>2021-08-17T12:13:33.479Z</time>
      </trkpt>
      <trkpt lat="41.64647" lon="44.43974">
        <ele>926.325881</ele>
        <time>2021-08-17T12:13:49.148Z</time>
      </trkpt>
      <trkpt lat="41.64608" lon="44.44214">
        <ele>927.52053</ele>
        <time>2021-08-17T12:14:40.076Z</time>
      </trkpt>
      <trkpt lat="41.64504" lon="44.44623">
        <ele>926.772908</ele>
        <time>2021-08-17T12:15:49.594Z</time>
      </trkpt>
      <trkpt lat="41.645" lon="44.44633">
        <ele>926.666504</ele>
        <time>2021-08-17T12:15:51.322Z</time>
      </trkpt>
      <trkpt lat="41.64493" lon="44.44653">
        <ele>926.438103</ele>
        <time>2021-08-17T12:15:54.109Z</time>
      </trkpt>
      <trkpt lat="41.64331" lon="44.45088">
        <ele>921.60701</ele>
        <time>2021-08-17T12:17:03.531Z</time>
      </trkpt>
      <trkpt lat="41.64303" lon="44.45174">
        <ele>921.266393</ele>
        <time>2021-08-17T12:17:21.108Z</time>
      </trkpt>
      <trkpt lat="41.64277" lon="44.45298">
        <ele>920.515344</ele>
        <time>2021-08-17T12:17:41.486Z</time>
      </trkpt>
      <trkpt lat="41.64269" lon="44.45314">
        <ele>920.13974</ele>
        <time>2021-08-17T12:17:43.939Z</time>
      </trkpt>
      <trkpt lat="41.6426" lon="44.45321">
        <ele>919.863474</ele>
        <time>2021-08-17T12:17:45.820Z</time>
      </trkpt>
      <trkpt lat="41.64254" lon="44.45322">
        <ele>919.704257</ele>
        <time>2021-08-17T12:17:48.623Z</time>
      </trkpt>
      <trkpt lat="41.64228" lon="44.45321">
        <ele>919.028242</ele>
        <time>2021-08-17T12:17:52.917Z</time>
      </trkpt>
      <trkpt lat="41.64199" lon="44.45322">
        <ele>918.278753</ele>
        <time>2021-08-17T12:17:58.111Z</time>
      </trkpt>
      <trkpt lat="41.64185" lon="44.4533">
        <ele>917.874684</ele>
        <time>2021-08-17T12:18:00.970Z</time>
      </trkpt>
      <trkpt lat="41.64156" lon="44.45353">
        <ele>916.986364</ele>
        <time>2021-08-17T12:18:06.596Z</time>
      </trkpt>
      <trkpt lat="41.64132" lon="44.45384">
        <ele>916.101646</ele>
        <time>2021-08-17T12:18:11.982Z</time>
      </trkpt>
      <trkpt lat="41.64044" lon="44.45515">
        <ele>910.942376</ele>
        <time>2021-08-17T12:18:33.744Z</time>
      </trkpt>
      <trkpt lat="41.64017" lon="44.45573">
        <ele>908.975064</ele>
        <time>2021-08-17T12:18:42.295Z</time>
      </trkpt>
      <trkpt lat="41.63994" lon="44.45639">
        <ele>906.796609</ele>
        <time>2021-08-17T12:18:51.427Z</time>
      </trkpt>
      <trkpt lat="41.63977" lon="44.45664">
        <ele>905.756688</ele>
        <time>2021-08-17T12:18:55.715Z</time>
      </trkpt>
      <trkpt lat="41.63942" lon="44.45681">
        <ele>904.270218</ele>
        <time>2021-08-17T12:19:01.757Z</time>
      </trkpt>
      <trkpt lat="41.6387" lon="44.45683">
        <ele>901.476259</ele>
        <time>2021-08-17T12:19:13.366Z</time>
      </trkpt>
      <trkpt lat="41.6386" lon="44.45686">
        <ele>901.108323</ele>
        <time>2021-08-17T12:19:15.130Z</time>
      </trkpt>
      <trkpt lat="41.63841" lon="44.45707">
        <ele>900.310499</ele>
        <time>2021-08-17T12:19:18.969Z</time>
      </trkpt>
      <trkpt lat="41.6383" lon="44.45738">
        <ele>899.422227</ele>
        <time>2021-08-17T12:19:23.317Z</time>
      </trkpt>
      <trkpt lat="41.63793" lon="44.45896">
        <ele>895.584324</ele>
        <time>2021-08-17T12:19:44.847Z</time>
      </trkpt>
      <trkpt lat="41.63779" lon="44.45981">
        <ele>894.579314</ele>
        <time>2021-08-17T12:19:57.440Z</time>
      </trkpt>
      <trkpt lat="41.63769" lon="44.46013">
        <ele>894.171315</ele>
        <time>2021-08-17T12:20:02.740Z</time>
      </trkpt>
      <trkpt lat="41.63751" lon="44.46041">
        <ele>893.740977</ele>
        <time>2021-08-17T12:20:08.276Z</time>
      </trkpt>
      <trkpt lat="41.63732" lon="44.46059">
        <ele>893.379028</ele>
        <time>2021-08-17T12:20:12.882Z</time>
      </trkpt>
      <trkpt lat="41.63681" lon="44.46077">
        <ele>892.111679</ele>
        <time>2021-08-17T12:20:22.840Z</time>
      </trkpt>
      <trkpt lat="41.63632" lon="44.46083">
        <ele>890.692303</ele>
        <time>2021-08-17T12:20:31.367Z</time>
      </trkpt>
      <trkpt lat="41.63607" lon="44.46111">
        <ele>889.73313</ele>
        <time>2021-08-17T12:20:37.020Z</time>
      </trkpt>
      <trkpt lat="41.636" lon="44.46128">
        <ele>889.315184</ele>
        <time>2021-08-17T12:20:39.440Z</time>
      </trkpt>
      <trkpt lat="41.63588" lon="44.46212">
        <ele>887.312917</ele>
        <time>2021-08-17T12:20:50.111Z</time>
      </trkpt>
      <trkpt lat="41.63577" lon="44.46254">
        <ele>885.976988</ele>
        <time>2021-08-17T12:20:55.519Z</time>
      </trkpt>
      <trkpt lat="41.63556" lon="44.46291">
        <ele>884.567957</ele>
        <time>2021-08-17T12:21:01.160Z</time>
      </trkpt>
      <trkpt lat="41.63494" lon="44.46362">
        <ele>881.263734</ele>
        <time>2021-08-17T12:21:14.501Z</time>
      </trkpt>
      <trkpt lat="41.63476" lon="44.464">
        <ele>880.068569</ele>
        <time>2021-08-17T12:21:20.210Z</time>
      </trkpt>
      <trkpt lat="41.63434" lon="44.46558">
        <ele>876.370989</ele>
        <time>2021-08-17T12:21:41.829Z</time>
      </trkpt>
      <trkpt lat="41.63409" lon="44.46681">
        <ele>874.535056</ele>
        <time>2021-08-17T12:21:59.212Z</time>
      </trkpt>
      <trkpt lat="41.63366" lon="44.4682">
        <ele>873.11353</ele>
        <time>2021-08-17T12:22:21.718Z</time>
      </trkpt>
      <trkpt lat="41.63354" lon="44.4684">
        <ele>872.958639</ele>
        <time>2021-08-17T12:22:25.781Z</time>
      </trkpt>
      <trkpt lat="41.63344" lon="44.46849">
        <ele>872.931617</ele>
        <time>2021-08-17T12:22:28.263Z</time>
      </trkpt>
      <trkpt lat="41.63286" lon="44.46867">
        <ele>872.79669</ele>
        <time>2021-08-17T12:22:41.335Z</time>
      </trkpt>
      <trkpt lat="41.63274" lon="44.46879">
        <ele>872.762199</ele>
        <time>2021-08-17T12:22:44.549Z</time>
      </trkpt>
      <trkpt lat="41.63262" lon="44.4691">
        <ele>872.702596</ele>
        <time>2021-08-17T12:22:50.391Z</time>
      </trkpt>
      <trkpt lat="41.63247" lon="44.46968">
        <ele>872.597182</ele>
        <time>2021-08-17T12:23:00.435Z</time>
      </trkpt>
      <trkpt lat="41.63243" lon="44.46985">
        <ele>872.569645</ele>
        <time>2021-08-17T12:23:03.536Z</time>
      </trkpt>
      <trkpt lat="41.63222" lon="44.47053">
        <ele>872.674643</ele>
        <time>2021-08-17T12:23:15.257Z</time>
      </trkpt>
      <trkpt lat="41.63197" lon="44.47101">
        <ele>872.758438</ele>
        <time>2021-08-17T12:23:25.078Z</time>
      </trkpt>
      <trkpt lat="41.63176" lon="44.47125">
        <ele>872.812194</ele>
        <time>2021-08-17T12:23:32.320Z</time>
      </trkpt>
      <trkpt lat="41.6313" lon="44.47162">
        <ele>872.919636</ele>
        <time>2021-08-17T12:23:44.898Z</time>
      </trkpt>
      <trkpt lat="41.63119" lon="44.47178">
        <ele>873.103128</ele>
        <time>2021-08-17T12:23:49.653Z</time>
      </trkpt>
      <trkpt lat="41.63112" lon="44.47196">
        <ele>873.268857</ele>
        <time>2021-08-17T12:23:52.666Z</time>
      </trkpt>
      <trkpt lat="41.63108" lon="44.47214">
        <ele>873.424376</ele>
        <time>2021-08-17T12:23:57.646Z</time>
      </trkpt>
      <trkpt lat="41.63094" lon="44.47288">
        <ele>874.058421</ele>
        <time>2021-08-17T12:24:12.101Z</time>
      </trkpt>
      <trkpt lat="41.63046" lon="44.47358">
        <ele>874.836764</ele>
        <time>2021-08-17T12:24:33.283Z</time>
      </trkpt>
      <trkpt lat="41.63034" lon="44.47392">
        <ele>875.223511</ele>
        <time>2021-08-17T12:24:43.280Z</time>
      </trkpt>
      <trkpt lat="41.63018" lon="44.47606">
        <ele>877.407734</ele>
        <time>2021-08-17T12:25:31.010Z</time>
      </trkpt>
      <trkpt lat="41.63013" lon="44.47624">
        <ele>877.272592</ele>
        <time>2021-08-17T12:25:35.921Z</time>
      </trkpt>
      <trkpt lat="41.63007" lon="44.4764">
        <ele>877.143836</ele>
        <time>2021-08-17T12:25:38.317Z</time>
      </trkpt>
      <trkpt lat="41.62993" lon="44.47664">
        <ele>876.916795</ele>
        <time>2021-08-17T12:25:44.083Z</time>
      </trkpt>
      <trkpt lat="41.62959" lon="44.47684">
        <ele>876.560521</ele>
        <time>2021-08-17T12:25:51.245Z</time>
      </trkpt>
      <trkpt lat="41.62939" lon="44.47706">
        <ele>876.306526</ele>
        <time>2021-08-17T12:25:55.940Z</time>
      </trkpt>
      <trkpt lat="41.62858" lon="44.47847">
        <ele>875.74181</ele>
        <time>2021-08-17T12:26:20.532Z</time>
      </trkpt>
      <trkpt lat="41.62852" lon="44.47865">
        <ele>875.750968</ele>
        <time>2021-08-17T12:26:23.421Z</time>
      </trkpt>
      <trkpt lat="41.62855" lon="44.47895">
        <ele>875.765117</ele>
        <time>2021-08-17T12:26:28.161Z</time>
      </trkpt>
      <trkpt lat="41.62881" lon="44.47963">
        <ele>875.801244</ele>
        <time>2021-08-17T12:26:43.058Z</time>
      </trkpt>
      <trkpt lat="41.6288" lon="44.47994">
        <ele>876.299684</ele>
        <time>2021-08-17T12:26:50.371Z</time>
      </trkpt>
      <trkpt lat="41.62871" lon="44.48018">
        <ele>877.495293</ele>
        <time>2021-08-17T12:26:58.754Z</time>
      </trkpt>
      <trkpt lat="41.6285" lon="44.48046">
        <ele>879.349364</ele>
        <time>2021-08-17T12:27:15.163Z</time>
      </trkpt>
      <trkpt lat="41.62833" lon="44.48058">
        <ele>880.51643</ele>
        <time>2021-08-17T12:27:29.079Z</time>
      </trkpt>
      <trkpt lat="41.62806" lon="44.48054">
        <ele>882.213432</ele>
        <time>2021-08-17T12:27:45.568Z</time>
      </trkpt>
      <trkpt lat="41.62772" lon="44.48037">
        <ele>884.489404</ele>
        <time>2021-08-17T12:28:08.167Z</time>
      </trkpt>
      <trkpt lat="41.62765" lon="44.48039">
        <ele>884.887723</ele>
        <time>2021-08-17T12:28:12.023Z</time>
      </trkpt>
      <trkpt lat="41.62758" lon="44.48055">
        <ele>885.748778</ele>
        <time>2021-08-17T12:28:17.870Z</time>
      </trkpt>
      <trkpt lat="41.62759" lon="44.48067">
        <ele>886.293731</ele>
        <time>2021-08-17T12:28:21.852Z</time>
      </trkpt>
      <trkpt lat="41.62763" lon="44.48077">
        <ele>886.82112</ele>
        <time>2021-08-17T12:28:31.230Z</time>
      </trkpt>
      <trkpt lat="41.62793" lon="44.48159">
        <ele>887.586212</ele>
        <time>2021-08-17T12:29:03.589Z</time>
      </trkpt>
      <trkpt lat="41.62809" lon="44.48228">
        <ele>888.11145</ele>
        <time>2021-08-17T12:29:20.840Z</time>
      </trkpt>
      <trkpt lat="41.62808" lon="44.48305">
        <ele>888.661954</ele>
        <time>2021-08-17T12:29:30.808Z</time>
      </trkpt>
      <trkpt lat="41.62798" lon="44.48352">
        <ele>885.535307</ele>
        <time>2021-08-17T12:29:36.175Z</time>
      </trkpt>
      <trkpt lat="41.62786" lon="44.48383">
        <ele>883.189693</ele>
        <time>2021-08-17T12:29:39.801Z</time>
      </trkpt>
      <trkpt lat="41.62751" lon="44.4843">
        <ele>878.651647</ele>
        <time>2021-08-17T12:29:46.728Z</time>
      </trkpt>
      <trkpt lat="41.6272" lon="44.48444">
        <ele>875.650843</ele>
        <time>2021-08-17T12:29:51.297Z</time>
      </trkpt>
      <trkpt lat="41.627" lon="44.48438">
        <ele>873.740484</ele>
        <time>2021-08-17T12:29:54.238Z</time>
      </trkpt>
      <trkpt lat="41.62667" lon="44.4841">
        <ele>871.841492</ele>
        <time>2021-08-17T12:29:59.763Z</time>
      </trkpt>
      <trkpt lat="41.62658" lon="44.48417">
        <ele>871.643144</ele>
        <time>2021-08-17T12:30:01.365Z</time>
      </trkpt>
      <trkpt lat="41.6266" lon="44.48435">
        <ele>871.3946</ele>
        <time>2021-08-17T12:30:03.449Z</time>
      </trkpt>
      <trkpt lat="41.62705" lon="44.48493">
        <ele>870.274691</ele>
        <time>2021-08-17T12:30:13.702Z</time>
      </trkpt>
      <trkpt lat="41.62718" lon="44.48515">
        <ele>869.90059</ele>
        <time>2021-08-17T12:30:18.236Z</time>
      </trkpt>
      <trkpt lat="41.6272" lon="44.4853">
        <ele>869.69385</ele>
        <time>2021-08-17T12:30:20.919Z</time>
      </trkpt>
      <trkpt lat="41.62716" lon="44.48555">
        <ele>869.345732</ele>
        <time>2021-08-17T12:30:32.226Z</time>
      </trkpt>
      <trkpt lat="41.62703" lon="44.4858">
        <ele>869.340438</ele>
        <time>2021-08-17T12:30:43.608Z</time>
      </trkpt>
      <trkpt lat="41.62695" lon="44.4861">
        <ele>871.690949</ele>
        <time>2021-08-17T12:31:02.383Z</time>
      </trkpt>
      <trkpt lat="41.6269" lon="44.48723">
        <ele>879.911188</ele>
        <time>2021-08-17T12:32:02.646Z</time>
      </trkpt>
      <trkpt lat="41.6269" lon="44.48742">
        <ele>881.355798</ele>
        <time>2021-08-17T12:32:16.879Z</time>
      </trkpt>
      <trkpt lat="41.6269" lon="44.48756">
        <ele>882.311428</ele>
        <time>2021-08-17T12:32:24.652Z</time>
      </trkpt>
      <trkpt lat="41.62678" lon="44.48861">
        <ele>889.764339</ele>
        <time>2021-08-17T12:33:24.421Z</time>
      </trkpt>
      <trkpt lat="41.6269" lon="44.48958">
        <ele>896.311995</ele>
        <time>2021-08-17T12:34:18.238Z</time>
      </trkpt>
      <trkpt lat="41.62689" lon="44.48986">
        <ele>898.200353</ele>
        <time>2021-08-17T12:34:29.417Z</time>
      </trkpt>
      <trkpt lat="41.62662" lon="44.49064">
        <ele>903.845727</ele>
        <time>2021-08-17T12:35:05.209Z</time>
      </trkpt>
      <trkpt lat="41.62656" lon="44.49137">
        <ele>908.414013</ele>
        <time>2021-08-17T12:35:36.987Z</time>
      </trkpt>
      <trkpt lat="41.62635" lon="44.49195">
        <ele>912.44238</ele>
        <time>2021-08-17T12:36:09.657Z</time>
      </trkpt>
      <trkpt lat="41.62635" lon="44.4924">
        <ele>915.29204</ele>
        <time>2021-08-17T12:36:33.602Z</time>
      </trkpt>
      <trkpt lat="41.6263" lon="44.49262">
        <ele>916.689536</ele>
        <time>2021-08-17T12:36:44.371Z</time>
      </trkpt>
      <trkpt lat="41.62613" lon="44.49289">
        <ele>919.220254</ele>
        <time>2021-08-17T12:37:03.188Z</time>
      </trkpt>
      <trkpt lat="41.6258" lon="44.49322">
        <ele>923.206537</ele>
        <time>2021-08-17T12:37:30.230Z</time>
      </trkpt>
      <trkpt lat="41.6257" lon="44.49334">
        <ele>924.549315</ele>
        <time>2021-08-17T12:37:44.091Z</time>
      </trkpt>
      <trkpt lat="41.6256" lon="44.49349">
        <ele>926.026967</ele>
        <time>2021-08-17T12:37:53.267Z</time>
      </trkpt>
      <trkpt lat="41.62557" lon="44.49377">
        <ele>928.106258</ele>
        <time>2021-08-17T12:38:11.343Z</time>
      </trkpt>
      <trkpt lat="41.6256" lon="44.49392">
        <ele>929.240263</ele>
        <time>2021-08-17T12:38:18.172Z</time>
      </trkpt>
      <trkpt lat="41.62589" lon="44.49447">
        <ele>934.236493</ele>
        <time>2021-08-17T12:38:53.725Z</time>
      </trkpt>
      <trkpt lat="41.62599" lon="44.49478">
        <ele>936.181971</ele>
        <time>2021-08-17T12:39:11.582Z</time>
      </trkpt>
      <trkpt lat="41.62599" lon="44.49492">
        <ele>936.851665</ele>
        <time>2021-08-17T12:39:18.636Z</time>
      </trkpt>
      <trkpt lat="41.62596" lon="44.49507">
        <ele>937.553421</ele>
        <time>2021-08-17T12:39:29.472Z</time>
      </trkpt>
      <trkpt lat="41.62581" lon="44.49523">
        <ele>938.752571</ele>
        <time>2021-08-17T12:39:39.506Z</time>
      </trkpt>
      <trkpt lat="41.62524" lon="44.49532">
        <ele>942.365918</ele>
        <time>2021-08-17T12:40:11.412Z</time>
      </trkpt>
      <trkpt lat="41.62495" lon="44.49544">
        <ele>944.237754</ele>
        <time>2021-08-17T12:40:26.201Z</time>
      </trkpt>
      <trkpt lat="41.62461" lon="44.49581">
        <ele>946.596693</ele>
        <time>2021-08-17T12:40:43.728Z</time>
      </trkpt>
      <trkpt lat="41.62434" lon="44.49632">
        <ele>946.667898</ele>
        <time>2021-08-17T12:40:55.776Z</time>
      </trkpt>
      <trkpt lat="41.62427" lon="44.4965">
        <ele>946.691714</ele>
        <time>2021-08-17T12:41:00.523Z</time>
      </trkpt>
      <trkpt lat="41.62422" lon="44.49669">
        <ele>946.714479</ele>
        <time>2021-08-17T12:41:03.210Z</time>
      </trkpt>
      <trkpt lat="41.62422" lon="44.49716">
        <ele>946.767716</ele>
        <time>2021-08-17T12:41:10.672Z</time>
      </trkpt>
      <trkpt lat="41.62439" lon="44.49771">
        <ele>946.834402</ele>
        <time>2021-08-17T12:41:19.512Z</time>
      </trkpt>
      <trkpt lat="41.62455" lon="44.49809">
        <ele>946.867443</ele>
        <time>2021-08-17T12:41:25.710Z</time>
      </trkpt>
      <trkpt lat="41.62466" lon="44.49854">
        <ele>946.883248</ele>
        <time>2021-08-17T12:41:32.323Z</time>
      </trkpt>
      <trkpt lat="41.62467" lon="44.4987">
        <ele>946.888924</ele>
        <time>2021-08-17T12:41:35.010Z</time>
      </trkpt>
      <trkpt lat="41.62466" lon="44.49885">
        <ele>946.893711</ele>
        <time>2021-08-17T12:41:37.545Z</time>
      </trkpt>
      <trkpt lat="41.6245" lon="44.49905">
        <ele>946.903523</ele>
        <time>2021-08-17T12:41:42.295Z</time>
      </trkpt>
      <trkpt lat="41.62422" lon="44.49922">
        <ele>946.917405</ele>
        <time>2021-08-17T12:41:49.947Z</time>
      </trkpt>
      <trkpt lat="41.62366" lon="44.49969">
        <ele>947.11363</ele>
        <time>2021-08-17T12:42:08.891Z</time>
      </trkpt>
      <trkpt lat="41.62342" lon="44.50001">
        <ele>947.541916</ele>
        <time>2021-08-17T12:42:19.746Z</time>
      </trkpt>
      <trkpt lat="41.62272" lon="44.50147">
        <ele>949.1989</ele>
        <time>2021-08-17T12:42:58.174Z</time>
      </trkpt>
      <trkpt lat="41.62168" lon="44.50316">
        <ele>948.857501</ele>
        <time>2021-08-17T12:43:33.611Z</time>
      </trkpt>
      <trkpt lat="41.62156" lon="44.50354">
        <ele>948.8352</ele>
        <time>2021-08-17T12:43:39.519Z</time>
      </trkpt>
      <trkpt lat="41.62154" lon="44.50426">
        <ele>948.934041</ele>
        <time>2021-08-17T12:43:49.914Z</time>
      </trkpt>
      <trkpt lat="41.62166" lon="44.50552">
        <ele>949.107698</ele>
        <time>2021-08-17T12:44:14.755Z</time>
      </trkpt>
      <trkpt lat="41.62188" lon="44.50616">
        <ele>949.829126</ele>
        <time>2021-08-17T12:44:29.728Z</time>
      </trkpt>
      <trkpt lat="41.62193" lon="44.50631">
        <ele>950.075037</ele>
        <time>2021-08-17T12:44:33.375Z</time>
      </trkpt>
      <trkpt lat="41.62197" lon="44.5065">
        <ele>950.371572</ele>
        <time>2021-08-17T12:44:38.495Z</time>
      </trkpt>
      <trkpt lat="41.62196" lon="44.50665">
        <ele>950.610901</ele>
        <time>2021-08-17T12:44:42.171Z</time>
      </trkpt>
      <trkpt lat="41.62185" lon="44.50694">
        <ele>951.098218</ele>
        <time>2021-08-17T12:44:50.629Z</time>
      </trkpt>
      <trkpt lat="41.62174" lon="44.50703">
        <ele>951.364484</ele>
        <time>2021-08-17T12:44:54.844Z</time>
      </trkpt>
      <trkpt lat="41.62096" lon="44.50722">
        <ele>953.063494</ele>
        <time>2021-08-17T12:45:22.685Z</time>
      </trkpt>
      <trkpt lat="41.62055" lon="44.50752">
        <ele>954.49201</ele>
        <time>2021-08-17T12:45:38.233Z</time>
      </trkpt>
      <trkpt lat="41.62045" lon="44.50766">
        <ele>954.931616</ele>
        <time>2021-08-17T12:45:42.545Z</time>
      </trkpt>
      <trkpt lat="41.62024" lon="44.50827">
        <ele>956.462274</ele>
        <time>2021-08-17T12:46:00.878Z</time>
      </trkpt>
      <trkpt lat="41.62011" lon="44.50849">
        <ele>957.122548</ele>
        <time>2021-08-17T12:46:09.522Z</time>
      </trkpt>
      <trkpt lat="41.61982" lon="44.50857">
        <ele>958.011845</ele>
        <time>2021-08-17T12:46:21.728Z</time>
      </trkpt>
      <trkpt lat="41.61957" lon="44.5083">
        <ele>959.676342</ele>
        <time>2021-08-17T12:46:36.039Z</time>
      </trkpt>
      <trkpt lat="41.61921" lon="44.50752">
        <ele>963.690581</ele>
        <time>2021-08-17T12:47:08.232Z</time>
      </trkpt>
      <trkpt lat="41.61909" lon="44.50677">
        <ele>967.051514</ele>
        <time>2021-08-17T12:47:40.258Z</time>
      </trkpt>
      <trkpt lat="41.6191" lon="44.50631">
        <ele>969.156793</ele>
        <time>2021-08-17T12:48:01.102Z</time>
      </trkpt>
      <trkpt lat="41.61906" lon="44.50621">
        <ele>969.839842</ele>
        <time>2021-08-17T12:48:06.483Z</time>
      </trkpt>
      <trkpt lat="41.61897" lon="44.50619">
        <ele>970.517291</ele>
        <time>2021-08-17T12:48:11.828Z</time>
      </trkpt>
      <trkpt lat="41.61827" lon="44.50806">
        <ele>982.793443</ele>
        <time>2021-08-17T12:49:49.382Z</time>
      </trkpt>
      <trkpt lat="41.61824" lon="44.50832">
        <ele>984.137285</ele>
        <time>2021-08-17T12:50:02.084Z</time>
      </trkpt>
      <trkpt lat="41.61845" lon="44.50897">
        <ele>987.487261</ele>
        <time>2021-08-17T12:50:33.444Z</time>
      </trkpt>
      <trkpt lat="41.61845" lon="44.50919">
        <ele>988.535107</ele>
        <time>2021-08-17T12:50:42.657Z</time>
      </trkpt>
      <trkpt lat="41.61831" lon="44.50935">
        <ele>989.733292</ele>
        <time>2021-08-17T12:50:53.027Z</time>
      </trkpt>
      <trkpt lat="41.61821" lon="44.50935">
        <ele>990.411865</ele>
        <time>2021-08-17T12:50:58.600Z</time>
      </trkpt>
      <trkpt lat="41.61804" lon="44.50918">
        <ele>991.750593</ele>
        <time>2021-08-17T12:51:09.340Z</time>
      </trkpt>
      <trkpt lat="41.61768" lon="44.50847">
        <ele>995.37032</ele>
        <time>2021-08-17T12:51:39.071Z</time>
      </trkpt>
      <trkpt lat="41.6176" lon="44.50819">
        <ele>996.280993</ele>
        <time>2021-08-17T12:51:48.383Z</time>
      </trkpt>
      <trkpt lat="41.61765" lon="44.50787">
        <ele>997.288962</ele>
        <time>2021-08-17T12:51:57.997Z</time>
      </trkpt>
      <trkpt lat="41.61831" lon="44.50594">
        <ele>1004.235459</ele>
        <time>2021-08-17T12:53:04.554Z</time>
      </trkpt>
      <trkpt lat="41.6183" lon="44.50583">
        <ele>1004.646243</ele>
        <time>2021-08-17T12:53:09.240Z</time>
      </trkpt>
      <trkpt lat="41.61825" lon="44.50581">
        <ele>1004.898547</ele>
        <time>2021-08-17T12:53:11.389Z</time>
      </trkpt>
      <trkpt lat="41.61809" lon="44.50599">
        <ele>1005.902108</ele>
        <time>2021-08-17T12:53:19.670Z</time>
      </trkpt>
      <trkpt lat="41.61804" lon="44.50609">
        <ele>1006.387319</ele>
        <time>2021-08-17T12:53:25.651Z</time>
      </trkpt>
      <trkpt lat="41.6179" lon="44.50636">
        <ele>1007.61136</ele>
        <time>2021-08-17T12:53:36.407Z</time>
      </trkpt>
      <trkpt lat="41.61758" lon="44.5068">
        <ele>1009.920932</ele>
        <time>2021-08-17T12:54:00.722Z</time>
      </trkpt>
      <trkpt lat="41.61727" lon="44.50704">
        <ele>1011.460735</ele>
        <time>2021-08-17T12:54:18.921Z</time>
      </trkpt>
      <trkpt lat="41.6168" lon="44.50723">
        <ele>1013.249961</ele>
        <time>2021-08-17T12:54:43.994Z</time>
      </trkpt>
      <trkpt lat="41.61587" lon="44.50742">
        <ele>1016.64039</ele>
        <time>2021-08-17T12:55:19.891Z</time>
      </trkpt>
      <trkpt lat="41.61515" lon="44.50748">
        <ele>1016.632637</ele>
        <time>2021-08-17T12:55:38.343Z</time>
      </trkpt>
      <trkpt lat="41.6143" lon="44.50746">
        <ele>1015.359358</ele>
        <time>2021-08-17T12:55:53.849Z</time>
      </trkpt>
      <trkpt lat="41.61383" lon="44.50756">
        <ele>1014.595225</ele>
        <time>2021-08-17T12:56:01.818Z</time>
      </trkpt>
      <trkpt lat="41.61353" lon="44.50774">
        <ele>1013.692706</ele>
        <time>2021-08-17T12:56:07.268Z</time>
      </trkpt>
      <trkpt lat="41.61293" lon="44.50825">
        <ele>1011.77494</ele>
        <time>2021-08-17T12:56:18.858Z</time>
      </trkpt>
      <trkpt lat="41.61204" lon="44.50866">
        <ele>1010.591017</ele>
        <time>2021-08-17T12:56:36.457Z</time>
      </trkpt>
      <trkpt lat="41.61172" lon="44.50878">
        <ele>1011.778119</ele>
        <time>2021-08-17T12:56:47.558Z</time>
      </trkpt>
      <trkpt lat="41.61182" lon="44.5089">
        <ele>1012.246308</ele>
        <time>2021-08-17T12:56:53.439Z</time>
      </trkpt>
      <trkpt lat="41.612" lon="44.50893">
        <ele>1012.894273</ele>
        <time>2021-08-17T12:57:00.215Z</time>
      </trkpt>
      <trkpt lat="41.61243" lon="44.50886">
        <ele>1014.380707</ele>
        <time>2021-08-17T12:57:19.949Z</time>
      </trkpt>
      <trkpt lat="41.613" lon="44.50891">
        <ele>1016.666271</ele>
        <time>2021-08-17T12:57:50.032Z</time>
      </trkpt>
      <trkpt lat="41.61316" lon="44.50893">
        <ele>1017.826346</ele>
        <time>2021-08-17T12:58:00.060Z</time>
      </trkpt>
      <trkpt lat="41.61337" lon="44.50893">
        <ele>1019.327532</ele>
        <time>2021-08-17T12:58:13.179Z</time>
      </trkpt>
      <trkpt lat="41.61408" lon="44.50869">
        <ele>1024.487006</ele>
        <time>2021-08-17T12:58:58.551Z</time>
      </trkpt>
      <trkpt lat="41.61439" lon="44.50869">
        <ele>1026.667974</ele>
        <time>2021-08-17T12:59:16.767Z</time>
      </trkpt>
      <trkpt lat="41.61459" lon="44.50875">
        <ele>1028.112463</ele>
        <time>2021-08-17T12:59:28.665Z</time>
      </trkpt>
      <trkpt lat="41.61468" lon="44.50886">
        <ele>1028.919891</ele>
        <time>2021-08-17T12:59:34.764Z</time>
      </trkpt>
      <trkpt lat="41.61473" lon="44.50901">
        <ele>1029.475081</ele>
        <time>2021-08-17T12:59:41.030Z</time>
      </trkpt>
      <trkpt lat="41.61469" lon="44.50916">
        <ele>1029.99281</ele>
        <time>2021-08-17T12:59:46.901Z</time>
      </trkpt>
      <trkpt lat="41.61418" lon="44.51001">
        <ele>1033.578221</ele>
        <time>2021-08-17T13:00:23.853Z</time>
      </trkpt>
      <trkpt lat="41.61411" lon="44.5102">
        <ele>1034.24631</ele>
        <time>2021-08-17T13:00:30.139Z</time>
      </trkpt>
      <trkpt lat="41.61413" lon="44.51039">
        <ele>1034.897516</ele>
        <time>2021-08-17T13:00:36.204Z</time>
      </trkpt>
      <trkpt lat="41.6144" lon="44.51069">
        <ele>1036.436714</ele>
        <time>2021-08-17T13:00:49.394Z</time>
      </trkpt>
      <trkpt lat="41.61504" lon="44.51076">
        <ele>1038.937835</ele>
        <time>2021-08-17T13:01:11.988Z</time>
      </trkpt>
      <trkpt lat="41.61527" lon="44.51092">
        <ele>1039.919818</ele>
        <time>2021-08-17T13:01:21.424Z</time>
      </trkpt>
      <trkpt lat="41.61565" lon="44.51151">
        <ele>1042.15375</ele>
        <time>2021-08-17T13:01:46.024Z</time>
      </trkpt>
      <trkpt lat="41.61583" lon="44.51198">
        <ele>1043.694478</ele>
        <time>2021-08-17T13:02:05.510Z</time>
      </trkpt>
      <trkpt lat="41.61597" lon="44.51243">
        <ele>1045.549264</ele>
        <time>2021-08-17T13:02:23.739Z</time>
      </trkpt>
      <trkpt lat="41.61613" lon="44.51292">
        <ele>1047.623206</ele>
        <time>2021-08-17T13:02:44.197Z</time>
      </trkpt>
      <trkpt lat="41.61628" lon="44.51338">
        <ele>1049.518162</ele>
        <time>2021-08-17T13:03:02.917Z</time>
      </trkpt>
      <trkpt lat="41.61632" lon="44.51349">
        <ele>1050.003462</ele>
        <time>2021-08-17T13:03:08.615Z</time>
      </trkpt>
      <trkpt lat="41.61655" lon="44.51405">
        <ele>1052.426779</ele>
        <time>2021-08-17T13:03:32.012Z</time>
      </trkpt>
      <trkpt lat="41.61793" lon="44.51654">
        <ele>1058.929743</ele>
        <time>2021-08-17T13:04:52.242Z</time>
      </trkpt>
      <trkpt lat="41.61819" lon="44.51716">
        <ele>1060.250558</ele>
        <time>2021-08-17T13:05:08.448Z</time>
      </trkpt>
      <trkpt lat="41.61831" lon="44.51765">
        <ele>1061.202533</ele>
        <time>2021-08-17T13:05:21.148Z</time>
      </trkpt>
      <trkpt lat="41.61834" lon="44.51808">
        <ele>1062.00719</ele>
        <time>2021-08-17T13:05:32.432Z</time>
      </trkpt>
      <trkpt lat="41.61838" lon="44.52055">
        <ele>1069.831355</ele>
        <time>2021-08-17T13:06:53.010Z</time>
      </trkpt>
      <trkpt lat="41.61852" lon="44.52145">
        <ele>1074.013001</ele>
        <time>2021-08-17T13:07:29.323Z</time>
      </trkpt>
      <trkpt lat="41.61884" lon="44.5223">
        <ele>1078.43284</ele>
        <time>2021-08-17T13:08:08.064Z</time>
      </trkpt>
      <trkpt lat="41.61904" lon="44.52315">
        <ele>1082.765446</ele>
        <time>2021-08-17T13:08:45.422Z</time>
      </trkpt>
      <trkpt lat="41.62069" lon="44.5265">
        <ele>1104.433773</ele>
        <time>2021-08-17T13:11:41.191Z</time>
      </trkpt>
      <trkpt lat="41.62073" lon="44.52657">
        <ele>1104.880145</ele>
        <time>2021-08-17T13:11:46.331Z</time>
      </trkpt>
      <trkpt lat="41.62103" lon="44.52726">
        <ele>1108.88633</ele>
        <time>2021-08-17T13:12:20.451Z</time>
      </trkpt>
      <trkpt lat="41.62119" lon="44.52788">
        <ele>1111.726466</ele>
        <time>2021-08-17T13:12:48.795Z</time>
      </trkpt>
      <trkpt lat="41.62138" lon="44.53029">
        <ele>1121.654491</ele>
        <time>2021-08-17T13:14:13.715Z</time>
      </trkpt>
      <trkpt lat="41.62143" lon="44.53046">
        <ele>1122.348502</ele>
        <time>2021-08-17T13:14:19.744Z</time>
      </trkpt>
      <trkpt lat="41.6215" lon="44.53056">
        <ele>1122.821848</ele>
        <time>2021-08-17T13:14:23.997Z</time>
      </trkpt>
      <trkpt lat="41.62185" lon="44.53071">
        <ele>1124.643679</ele>
        <time>2021-08-17T13:14:39.657Z</time>
      </trkpt>
      <trkpt lat="41.62208" lon="44.5306">
        <ele>1125.817854</ele>
        <time>2021-08-17T13:14:50.231Z</time>
      </trkpt>
      <trkpt lat="41.62236" lon="44.53035">
        <ele>1128.069529</ele>
        <time>2021-08-17T13:15:07.909Z</time>
      </trkpt>
      <trkpt lat="41.62322" lon="44.52965">
        <ele>1136.492889</ele>
        <time>2021-08-17T13:16:08.045Z</time>
      </trkpt>
      <trkpt lat="41.62376" lon="44.52925">
        <ele>1141.642838</ele>
        <time>2021-08-17T13:16:53.376Z</time>
      </trkpt>
      <trkpt lat="41.62414" lon="44.52888">
        <ele>1147.728968</ele>
        <time>2021-08-17T13:17:32.794Z</time>
      </trkpt>
      <trkpt lat="41.62439" lon="44.52884">
        <ele>1150.940704</ele>
        <time>2021-08-17T13:17:54.943Z</time>
      </trkpt>
      <trkpt lat="41.62501" lon="44.52906">
        <ele>1159.319657</ele>
        <time>2021-08-17T13:18:54.451Z</time>
      </trkpt>
      <trkpt lat="41.62544" lon="44.52893">
        <ele>1165.031002</ele>
        <time>2021-08-17T13:19:34.003Z</time>
      </trkpt>
      <trkpt lat="41.62578" lon="44.52872">
        <ele>1169.830664</ele>
        <time>2021-08-17T13:20:07.763Z</time>
      </trkpt>
      <trkpt lat="41.62617" lon="44.5287">
        <ele>1174.744824</ele>
        <time>2021-08-17T13:20:42.408Z</time>
      </trkpt>
      <trkpt lat="41.62633" lon="44.5288">
        <ele>1177.009983</ele>
        <time>2021-08-17T13:20:58.134Z</time>
      </trkpt>
      <trkpt lat="41.62665" lon="44.52884">
        <ele>1181.160848</ele>
        <time>2021-08-17T13:21:26.253Z</time>
      </trkpt>
      <trkpt lat="41.62703" lon="44.52853">
        <ele>1186.820413</ele>
        <time>2021-08-17T13:22:02.755Z</time>
      </trkpt>
      <trkpt lat="41.62752" lon="44.52825">
        <ele>1192.205619</ele>
        <time>2021-08-17T13:22:44.767Z</time>
      </trkpt>
      <trkpt lat="41.62781" lon="44.52819">
        <ele>1194.886549</ele>
        <time>2021-08-17T13:23:06.135Z</time>
      </trkpt>
      <trkpt lat="41.62813" lon="44.5282">
        <ele>1197.902731</ele>
        <time>2021-08-17T13:23:29.063Z</time>
      </trkpt>
      <trkpt lat="41.62836" lon="44.52832">
        <ele>1200.229319</ele>
        <time>2021-08-17T13:23:45.935Z</time>
      </trkpt>
      <trkpt lat="41.62851" lon="44.52853">
        <ele>1202.273964</ele>
        <time>2021-08-17T13:24:00.221Z</time>
      </trkpt>
      <trkpt lat="41.62878" lon="44.52866">
        <ele>1204.956916</ele>
        <time>2021-08-17T13:24:17.268Z</time>
      </trkpt>
      <trkpt lat="41.62915" lon="44.52842">
        <ele>1206.056005</ele>
        <time>2021-08-17T13:24:38.381Z</time>
      </trkpt>
      <trkpt lat="41.62931" lon="44.5284">
        <ele>1206.457234</ele>
        <time>2021-08-17T13:24:45.112Z</time>
      </trkpt>
      <trkpt lat="41.62953" lon="44.52817">
        <ele>1207.193356</ele>
        <time>2021-08-17T13:24:56.378Z</time>
      </trkpt>
      <trkpt lat="41.62956" lon="44.52781">
        <ele>1207.896947</ele>
        <time>2021-08-17T13:25:05.700Z</time>
      </trkpt>
      <trkpt lat="41.62967" lon="44.52756">
        <ele>1208.455451</ele>
        <time>2021-08-17T13:25:12.018Z</time>
      </trkpt>
      <trkpt lat="41.63015" lon="44.52749">
        <ele>1209.554856</ele>
        <time>2021-08-17T13:25:23.206Z</time>
      </trkpt>
      <trkpt lat="41.63048" lon="44.52723">
        <ele>1207.931776</ele>
        <time>2021-08-17T13:25:29.582Z</time>
      </trkpt>
      <trkpt lat="41.63059" lon="44.52688">
        <ele>1206.726528</ele>
        <time>2021-08-17T13:25:34.060Z</time>
      </trkpt>
      <trkpt lat="41.6307" lon="44.52682">
        <ele>1206.254535</ele>
        <time>2021-08-17T13:25:35.784Z</time>
      </trkpt>
      <trkpt lat="41.63074" lon="44.52698">
        <ele>1205.702116</ele>
        <time>2021-08-17T13:25:37.794Z</time>
      </trkpt>
      <trkpt lat="41.63074" lon="44.52741">
        <ele>1204.342184</ele>
        <time>2021-08-17T13:25:42.704Z</time>
      </trkpt>
      <trkpt lat="41.63087" lon="44.52764">
        <ele>1203.445781</ele>
        <time>2021-08-17T13:25:45.959Z</time>
      </trkpt>
      <trkpt lat="41.63111" lon="44.52773">
        <ele>1202.397393</ele>
        <time>2021-08-17T13:25:49.860Z</time>
      </trkpt>
      <trkpt lat="41.6313" lon="44.52773">
        <ele>1201.957024</ele>
        <time>2021-08-17T13:25:52.998Z</time>
      </trkpt>
      <trkpt lat="41.63231" lon="44.52769">
        <ele>1201.216199</ele>
        <time>2021-08-17T13:26:11.293Z</time>
      </trkpt>
      <trkpt lat="41.63276" lon="44.52767">
        <ele>1200.887574</ele>
        <time>2021-08-17T13:26:22.582Z</time>
      </trkpt>
      <trkpt lat="41.63306" lon="44.52758">
        <ele>1201.14035</ele>
        <time>2021-08-17T13:26:35.811Z</time>
      </trkpt>
      <trkpt lat="41.63332" lon="44.52733">
        <ele>1202.825077</ele>
        <time>2021-08-17T13:26:50.679Z</time>
      </trkpt>
      <trkpt lat="41.63352" lon="44.52704">
        <ele>1204.414496</ele>
        <time>2021-08-17T13:27:05.652Z</time>
      </trkpt>
      <trkpt lat="41.63373" lon="44.52661">
        <ele>1206.497456</ele>
        <time>2021-08-17T13:27:26.639Z</time>
      </trkpt>
      <trkpt lat="41.63402" lon="44.52569">
        <ele>1210.474877</ele>
        <time>2021-08-17T13:28:06.376Z</time>
      </trkpt>
      <trkpt lat="41.63427" lon="44.52492">
        <ele>1213.393447</ele>
        <time>2021-08-17T13:28:37.570Z</time>
      </trkpt>
      <trkpt lat="41.63439" lon="44.52454">
        <ele>1214.839083</ele>
        <time>2021-08-17T13:28:52.704Z</time>
      </trkpt>
      <trkpt lat="41.63455" lon="44.52425">
        <ele>1216.07474</ele>
        <time>2021-08-17T13:29:04.669Z</time>
      </trkpt>
      <trkpt lat="41.63464" lon="44.52428">
        <ele>1216.49914</ele>
        <time>2021-08-17T13:29:08.633Z</time>
      </trkpt>
      <trkpt lat="41.63473" lon="44.5244">
        <ele>1217.091079</ele>
        <time>2021-08-17T13:29:13.895Z</time>
      </trkpt>
      <trkpt lat="41.63513" lon="44.52513">
        <ele>1219.037243</ele>
        <time>2021-08-17T13:29:39.520Z</time>
      </trkpt>
      <trkpt lat="41.63537" lon="44.52538">
        <ele>1219.297629</ele>
        <time>2021-08-17T13:29:50.189Z</time>
      </trkpt>
      <trkpt lat="41.63546" lon="44.52559">
        <ele>1219.452039</ele>
        <time>2021-08-17T13:29:54.985Z</time>
      </trkpt>
      <trkpt lat="41.63562" lon="44.52621">
        <ele>1219.8724</ele>
        <time>2021-08-17T13:30:06.366Z</time>
      </trkpt>
      <trkpt lat="41.63588" lon="44.5267">
        <ele>1220.253297</ele>
        <time>2021-08-17T13:30:15.431Z</time>
      </trkpt>
      <trkpt lat="41.63603" lon="44.5275">
        <ele>1219.429517</ele>
        <time>2021-08-17T13:30:27.054Z</time>
      </trkpt>
      <trkpt lat="41.63614" lon="44.52854">
        <ele>1218.209116</ele>
        <time>2021-08-17T13:30:41.241Z</time>
      </trkpt>
      <trkpt lat="41.63659" lon="44.53056">
        <ele>1216.899406</ele>
        <time>2021-08-17T13:31:12.694Z</time>
      </trkpt>
      <trkpt lat="41.63706" lon="44.53178">
        <ele>1216.093415</ele>
        <time>2021-08-17T13:31:37.191Z</time>
      </trkpt>
      <trkpt lat="41.63719" lon="44.5319">
        <ele>1215.890216</ele>
        <time>2021-08-17T13:31:41.192Z</time>
      </trkpt>
      <trkpt lat="41.63732" lon="44.53194">
        <ele>1215.731081</ele>
        <time>2021-08-17T13:31:44.346Z</time>
      </trkpt>
      <trkpt lat="41.6375" lon="44.53185">
        <ele>1215.490233</ele>
        <time>2021-08-17T13:31:48.969Z</time>
      </trkpt>
      <trkpt lat="41.6377" lon="44.53159">
        <ele>1215.136629</ele>
        <time>2021-08-17T13:31:55.434Z</time>
      </trkpt>
      <trkpt lat="41.63798" lon="44.53091">
        <ele>1214.407534</ele>
        <time>2021-08-17T13:32:05.435Z</time>
      </trkpt>
      <trkpt lat="41.63819" lon="44.53055">
        <ele>1213.119839</ele>
        <time>2021-08-17T13:32:11.052Z</time>
      </trkpt>
      <trkpt lat="41.63835" lon="44.53036">
        <ele>1212.049315</ele>
        <time>2021-08-17T13:32:14.412Z</time>
      </trkpt>
      <trkpt lat="41.63863" lon="44.53025">
        <ele>1210.607931</ele>
        <time>2021-08-17T13:32:19.206Z</time>
      </trkpt>
      <trkpt lat="41.6387" lon="44.53022">
        <ele>1210.279194</ele>
        <time>2021-08-17T13:32:20.116Z</time>
      </trkpt>
      <trkpt lat="41.6398" lon="44.52972">
        <ele>1205.594309</ele>
        <time>2021-08-17T13:32:38.390Z</time>
      </trkpt>
      <trkpt lat="41.64029" lon="44.52962">
        <ele>1206.057931</ele>
        <time>2021-08-17T13:32:46.698Z</time>
      </trkpt>
      <trkpt lat="41.64298" lon="44.52902">
        <ele>1214.305765</ele>
        <time>2021-08-17T13:34:44.066Z</time>
      </trkpt>
      <trkpt lat="41.64332" lon="44.52882">
        <ele>1216.157569</ele>
        <time>2021-08-17T13:35:03.688Z</time>
      </trkpt>
      <trkpt lat="41.64362" lon="44.52866">
        <ele>1217.892238</ele>
        <time>2021-08-17T13:35:20.311Z</time>
      </trkpt>
      <trkpt lat="41.64398" lon="44.5283">
        <ele>1220.322046</ele>
        <time>2021-08-17T13:35:42.977Z</time>
      </trkpt>
      <trkpt lat="41.64415" lon="44.5283">
        <ele>1221.26521</ele>
        <time>2021-08-17T13:35:51.816Z</time>
      </trkpt>
      <trkpt lat="41.64454" lon="44.52872">
        <ele>1223.993959</ele>
        <time>2021-08-17T13:36:16.939Z</time>
      </trkpt>
      <trkpt lat="41.64475" lon="44.52932">
        <ele>1226.945958</ele>
        <time>2021-08-17T13:36:39.232Z</time>
      </trkpt>
      <trkpt lat="41.64498" lon="44.53019">
        <ele>1231.24048</ele>
        <time>2021-08-17T13:37:11.886Z</time>
      </trkpt>
      <trkpt lat="41.64531" lon="44.53051">
        <ele>1233.818591</ele>
        <time>2021-08-17T13:37:34.763Z</time>
      </trkpt>
      <trkpt lat="41.64556" lon="44.53059">
        <ele>1235.403938</ele>
        <time>2021-08-17T13:37:52.057Z</time>
      </trkpt>
      <trkpt lat="41.64594" lon="44.53052">
        <ele>1238.470353</ele>
        <time>2021-08-17T13:38:16.934Z</time>
      </trkpt>
      <trkpt lat="41.6469" lon="44.53004">
        <ele>1247.520419</ele>
        <time>2021-08-17T13:39:23.226Z</time>
      </trkpt>
      <trkpt lat="41.6469" lon="44.53004">
        <ele>1247.520419</ele>
        <time>2021-08-17T13:39:23.774Z</time>
      </trkpt>
      <trkpt lat="41.64775" lon="44.52961">
        <ele>1255.504629</ele>
        <time>2021-08-17T13:40:25.858Z</time>
      </trkpt>
      <trkpt lat="41.64854" lon="44.52908">
        <ele>1263.16152</ele>
        <time>2021-08-17T13:41:24.996Z</time>
      </trkpt>
      <trkpt lat="41.64911" lon="44.52881">
        <ele>1268.282984</ele>
        <time>2021-08-17T13:42:02.914Z</time>
      </trkpt>
      <trkpt lat="41.65021" lon="44.52848">
        <ele>1275.758216</ele>
        <time>2021-08-17T13:43:09.486Z</time>
      </trkpt>
      <trkpt lat="41.6546" lon="44.52673">
        <ele>1298.837661</ele>
        <time>2021-08-17T13:46:41.978Z</time>
      </trkpt>
      <trkpt lat="41.65543" lon="44.52623">
        <ele>1302.908352</ele>
        <time>2021-08-17T13:47:21.980Z</time>
      </trkpt>
      <trkpt lat="41.65611" lon="44.52558">
        <ele>1306.639798</ele>
        <time>2021-08-17T13:47:59.123Z</time>
      </trkpt>
      <trkpt lat="41.65699" lon="44.52453">
        <ele>1311.767268</ele>
        <time>2021-08-17T13:48:51.725Z</time>
      </trkpt>
      <trkpt lat="41.65795" lon="44.52307">
        <ele>1316.649635</ele>
        <time>2021-08-17T13:49:53.657Z</time>
      </trkpt>
      <trkpt lat="41.65841" lon="44.52219">
        <ele>1318.314346</ele>
        <time>2021-08-17T13:50:19.525Z</time>
      </trkpt>
      <trkpt lat="41.65892" lon="44.52151">
        <ele>1317.164851</ele>
        <time>2021-08-17T13:50:34.130Z</time>
      </trkpt>
      <trkpt lat="41.65909" lon="44.52139">
        <ele>1316.862291</ele>
        <time>2021-08-17T13:50:37.405Z</time>
      </trkpt>
      <trkpt lat="41.65927" lon="44.52136">
        <ele>1316.578176</ele>
        <time>2021-08-17T13:50:40.795Z</time>
      </trkpt>
      <trkpt lat="41.65946" lon="44.52141">
        <ele>1316.264967</ele>
        <time>2021-08-17T13:50:44.017Z</time>
      </trkpt>
      <trkpt lat="41.66146" lon="44.52343">
        <ele>1308.049008</ele>
        <time>2021-08-17T13:51:25.062Z</time>
      </trkpt>
      <trkpt lat="41.66179" lon="44.52395">
        <ele>1307.288087</ele>
        <time>2021-08-17T13:51:34.631Z</time>
      </trkpt>
      <trkpt lat="41.66183" lon="44.52408">
        <ele>1307.134265</ele>
        <time>2021-08-17T13:51:36.625Z</time>
      </trkpt>
      <trkpt lat="41.6621" lon="44.52573">
        <ele>1306.146239</ele>
        <time>2021-08-17T13:52:05.164Z</time>
      </trkpt>
      <trkpt lat="41.66219" lon="44.52595">
        <ele>1306.241286</ele>
        <time>2021-08-17T13:52:10.171Z</time>
      </trkpt>
      <trkpt lat="41.6628" lon="44.52742">
        <ele>1306.792592</ele>
        <time>2021-08-17T13:52:43.388Z</time>
      </trkpt>
      <trkpt lat="41.66299" lon="44.52836">
        <ele>1306.458635</ele>
        <time>2021-08-17T13:52:58.949Z</time>
      </trkpt>
      <trkpt lat="41.66297" lon="44.52891">
        <ele>1306.268961</ele>
        <time>2021-08-17T13:53:07.482Z</time>
      </trkpt>
      <trkpt lat="41.66293" lon="44.52931">
        <ele>1306.130806</ele>
        <time>2021-08-17T13:53:13.500Z</time>
      </trkpt>
      <trkpt lat="41.66298" lon="44.52973">
        <ele>1305.995307</ele>
        <time>2021-08-17T13:53:19.691Z</time>
      </trkpt>
      <trkpt lat="41.66312" lon="44.52994">
        <ele>1305.934771</ele>
        <time>2021-08-17T13:53:23.895Z</time>
      </trkpt>
      <trkpt lat="41.66346" lon="44.53031">
        <ele>1305.808306</ele>
        <time>2021-08-17T13:53:32.487Z</time>
      </trkpt>
      <trkpt lat="41.66437" lon="44.53095">
        <ele>1305.515562</ele>
        <time>2021-08-17T13:53:54.903Z</time>
      </trkpt>
      <trkpt lat="41.66467" lon="44.53137">
        <ele>1305.997475</ele>
        <time>2021-08-17T13:54:06.784Z</time>
      </trkpt>
      <trkpt lat="41.66484" lon="44.5316">
        <ele>1306.349643</ele>
        <time>2021-08-17T13:54:14.654Z</time>
      </trkpt>
      <trkpt lat="41.66505" lon="44.53243">
        <ele>1307.286351</ele>
        <time>2021-08-17T13:54:35.474Z</time>
      </trkpt>
      <trkpt lat="41.66523" lon="44.53272">
        <ele>1307.687708</ele>
        <time>2021-08-17T13:54:44.349Z</time>
      </trkpt>
      <trkpt lat="41.66498" lon="44.53341">
        <ele>1307.788342</ele>
        <time>2021-08-17T13:55:01.639Z</time>
      </trkpt>
      <trkpt lat="41.66476" lon="44.5343">
        <ele>1307.167611</ele>
        <time>2021-08-17T13:55:17.942Z</time>
      </trkpt>
      <trkpt lat="41.66459" lon="44.53673">
        <ele>1302.503239</ele>
        <time>2021-08-17T13:55:49.393Z</time>
      </trkpt>
      <trkpt lat="41.6646" lon="44.53725">
        <ele>1301.024009</ele>
        <time>2021-08-17T13:55:55.552Z</time>
      </trkpt>
      <trkpt lat="41.66494" lon="44.5383">
        <ele>1297.249147</ele>
        <time>2021-08-17T13:56:09.359Z</time>
      </trkpt>
      <trkpt lat="41.66507" lon="44.53906">
        <ele>1294.447266</ele>
        <time>2021-08-17T13:56:18.754Z</time>
      </trkpt>
      <trkpt lat="41.66511" lon="44.54036">
        <ele>1289.777478</ele>
        <time>2021-08-17T13:56:34.130Z</time>
      </trkpt>
      <trkpt lat="41.66508" lon="44.54054">
        <ele>1289.156994</ele>
        <time>2021-08-17T13:56:36.303Z</time>
      </trkpt>
      <trkpt lat="41.66503" lon="44.54075">
        <ele>1288.384314</ele>
        <time>2021-08-17T13:56:38.978Z</time>
      </trkpt>
      <trkpt lat="41.6648" lon="44.54071">
        <ele>1287.30277</ele>
        <time>2021-08-17T13:56:42.884Z</time>
      </trkpt>
      <trkpt lat="41.66442" lon="44.54062">
        <ele>1285.53697</ele>
        <time>2021-08-17T13:56:49.289Z</time>
      </trkpt>
      <trkpt lat="41.66424" lon="44.54062">
        <ele>1284.705881</ele>
        <time>2021-08-17T13:56:52.207Z</time>
      </trkpt>
      <trkpt lat="41.66393" lon="44.54082">
        <ele>1283.119246</ele>
        <time>2021-08-17T13:56:57.923Z</time>
      </trkpt>
      <trkpt lat="41.6638" lon="44.54101">
        <ele>1282.650048</ele>
        <time>2021-08-17T13:57:01.406Z</time>
      </trkpt>
      <trkpt lat="41.66354" lon="44.54173">
        <ele>1283.231613</ele>
        <time>2021-08-17T13:57:12.802Z</time>
      </trkpt>
      <trkpt lat="41.66344" lon="44.54247">
        <ele>1283.78303</ele>
        <time>2021-08-17T13:57:29.596Z</time>
      </trkpt>
      <trkpt lat="41.66337" lon="44.54263">
        <ele>1283.919997</ele>
        <time>2021-08-17T13:57:35.413Z</time>
      </trkpt>
      <trkpt lat="41.66338" lon="44.54281">
        <ele>1284.053983</ele>
        <time>2021-08-17T13:57:40.872Z</time>
      </trkpt>
      <trkpt lat="41.66343" lon="44.54307">
        <ele>1284.252372</ele>
        <time>2021-08-17T13:57:51.118Z</time>
      </trkpt>
      <trkpt lat="41.66331" lon="44.54337">
        <ele>1285.623939</ele>
        <time>2021-08-17T13:58:03.983Z</time>
      </trkpt>
      <trkpt lat="41.66328" lon="44.54376">
        <ele>1287.878351</ele>
        <time>2021-08-17T13:58:19.955Z</time>
      </trkpt>
      <trkpt lat="41.66346" lon="44.5445">
        <ele>1292.392785</ele>
        <time>2021-08-17T13:58:57.520Z</time>
      </trkpt>
      <trkpt lat="41.66371" lon="44.54496">
        <ele>1295.732978</ele>
        <time>2021-08-17T13:59:29.331Z</time>
      </trkpt>
      <trkpt lat="41.66389" lon="44.54615">
        <ele>1302.450841</ele>
        <time>2021-08-17T14:00:28.074Z</time>
      </trkpt>
      <trkpt lat="41.66391" lon="44.54682">
        <ele>1306.056904</ele>
        <time>2021-08-17T14:00:57.940Z</time>
      </trkpt>
      <trkpt lat="41.66386" lon="44.54688">
        <ele>1306.571512</ele>
        <time>2021-08-17T14:01:01.893Z</time>
      </trkpt>
      <trkpt lat="41.66336" lon="44.54745">
        <ele>1311.302796</ele>
        <time>2021-08-17T14:01:36.972Z</time>
      </trkpt>
      <trkpt lat="41.66305" lon="44.5482">
        <ele>1314.566667</ele>
        <time>2021-08-17T14:02:08.518Z</time>
      </trkpt>
      <trkpt lat="41.66258" lon="44.55005">
        <ele>1322.017857</ele>
        <time>2021-08-17T14:03:15.752Z</time>
      </trkpt>
      <trkpt lat="41.66219" lon="44.55105">
        <ele>1326.239412</ele>
        <time>2021-08-17T14:03:56.463Z</time>
      </trkpt>
      <trkpt lat="41.66194" lon="44.55188">
        <ele>1329.570378</ele>
        <time>2021-08-17T14:04:27.939Z</time>
      </trkpt>
      <trkpt lat="41.6614" lon="44.55437">
        <ele>1339.646456</ele>
        <time>2021-08-17T14:05:59.480Z</time>
      </trkpt>
      <trkpt lat="41.66132" lon="44.55548">
        <ele>1345.007703</ele>
        <time>2021-08-17T14:06:44.318Z</time>
      </trkpt>
      <trkpt lat="41.66142" lon="44.55674">
        <ele>1350.938256</ele>
        <time>2021-08-17T14:07:39.300Z</time>
      </trkpt>
      <trkpt lat="41.66142" lon="44.55692">
        <ele>1351.653401</ele>
        <time>2021-08-17T14:07:47.378Z</time>
      </trkpt>
      <trkpt lat="41.66135" lon="44.55711">
        <ele>1352.430564</ele>
        <time>2021-08-17T14:07:56.183Z</time>
      </trkpt>
      <trkpt lat="41.66116" lon="44.55732">
        <ele>1353.709252</ele>
        <time>2021-08-17T14:08:10.193Z</time>
      </trkpt>
      <trkpt lat="41.66049" lon="44.55776">
        <ele>1357.458978</ele>
        <time>2021-08-17T14:08:46.084Z</time>
      </trkpt>
      <trkpt lat="41.6599" lon="44.55805">
        <ele>1359.22863</ele>
        <time>2021-08-17T14:09:08.424Z</time>
      </trkpt>
      <trkpt lat="41.65965" lon="44.55826">
        <ele>1359.005444</ele>
        <time>2021-08-17T14:09:16.094Z</time>
      </trkpt>
      <trkpt lat="41.65938" lon="44.55863">
        <ele>1358.721537</ele>
        <time>2021-08-17T14:09:24.083Z</time>
      </trkpt>
      <trkpt lat="41.65874" lon="44.55992">
        <ele>1357.154956</ele>
        <time>2021-08-17T14:09:44.337Z</time>
      </trkpt>
      <trkpt lat="41.65855" lon="44.56044">
        <ele>1355.7867</ele>
        <time>2021-08-17T14:09:51.451Z</time>
      </trkpt>
      <trkpt lat="41.65837" lon="44.56111">
        <ele>1354.06269</ele>
        <time>2021-08-17T14:10:00.521Z</time>
      </trkpt>
      <trkpt lat="41.65834" lon="44.56147">
        <ele>1353.197987</ele>
        <time>2021-08-17T14:10:05.179Z</time>
      </trkpt>
      <trkpt lat="41.65839" lon="44.56247">
        <ele>1351.586813</ele>
        <time>2021-08-17T14:10:18.424Z</time>
      </trkpt>
      <trkpt lat="41.65829" lon="44.56276">
        <ele>1351.220825</ele>
        <time>2021-08-17T14:10:22.742Z</time>
      </trkpt>
      <trkpt lat="41.65799" lon="44.56329">
        <ele>1350.444679</ele>
        <time>2021-08-17T14:10:32.150Z</time>
      </trkpt>
      <trkpt lat="41.65754" lon="44.56368">
        <ele>1349.610847</ele>
        <time>2021-08-17T14:10:42.949Z</time>
      </trkpt>
      <trkpt lat="41.65712" lon="44.56391">
        <ele>1350.455333</ele>
        <time>2021-08-17T14:10:53.292Z</time>
      </trkpt>
      <trkpt lat="41.65664" lon="44.56406">
        <ele>1351.60405</ele>
        <time>2021-08-17T14:11:07.119Z</time>
      </trkpt>
      <trkpt lat="41.65644" lon="44.56424">
        <ele>1352.1708</ele>
        <time>2021-08-17T14:11:14.792Z</time>
      </trkpt>
      <trkpt lat="41.65626" lon="44.56457">
        <ele>1352.878358</ele>
        <time>2021-08-17T14:11:25.485Z</time>
      </trkpt>
      <trkpt lat="41.65564" lon="44.56608">
        <ele>1360.405127</ele>
        <time>2021-08-17T14:12:34.948Z</time>
      </trkpt>
      <trkpt lat="41.65546" lon="44.56619">
        <ele>1361.85298</ele>
        <time>2021-08-17T14:12:48.524Z</time>
      </trkpt>
      <trkpt lat="41.65505" lon="44.56603">
        <ele>1364.983345</ele>
        <time>2021-08-17T14:13:16.278Z</time>
      </trkpt>
      <trkpt lat="41.65483" lon="44.56578">
        <ele>1367.001956</ele>
        <time>2021-08-17T14:13:35.203Z</time>
      </trkpt>
      <trkpt lat="41.65468" lon="44.56552">
        <ele>1368.841739</ele>
        <time>2021-08-17T14:13:51.221Z</time>
      </trkpt>
      <trkpt lat="41.65434" lon="44.56474">
        <ele>1373.736201</ele>
        <time>2021-08-17T14:14:32.422Z</time>
      </trkpt>
      <trkpt lat="41.65416" lon="44.56443">
        <ele>1375.86676</ele>
        <time>2021-08-17T14:14:49.117Z</time>
      </trkpt>
      <trkpt lat="41.65358" lon="44.564">
        <ele>1380.615937</ele>
        <time>2021-08-17T14:15:23.883Z</time>
      </trkpt>
      <trkpt lat="41.65298" lon="44.56316">
        <ele>1386.614124</ele>
        <time>2021-08-17T14:16:08.285Z</time>
      </trkpt>
      <trkpt lat="41.65285" lon="44.56304">
        <ele>1387.687705</ele>
        <time>2021-08-17T14:16:19.521Z</time>
      </trkpt>
      <trkpt lat="41.65277" lon="44.56303">
        <ele>1388.275935</ele>
        <time>2021-08-17T14:16:23.516Z</time>
      </trkpt>
      <trkpt lat="41.65269" lon="44.56313">
        <ele>1388.977942</ele>
        <time>2021-08-17T14:16:28.467Z</time>
      </trkpt>
      <trkpt lat="41.65268" lon="44.56324">
        <ele>1389.568012</ele>
        <time>2021-08-17T14:16:32.295Z</time>
      </trkpt>
      <trkpt lat="41.6527" lon="44.56331">
        <ele>1389.948813</ele>
        <time>2021-08-17T14:16:39.426Z</time>
      </trkpt>
      <trkpt lat="41.65312" lon="44.56424">
        <ele>1395.814911</ele>
        <time>2021-08-17T14:17:29.580Z</time>
      </trkpt>
      <trkpt lat="41.6534" lon="44.5652">
        <ele>1401.539357</ele>
        <time>2021-08-17T14:18:19.096Z</time>
      </trkpt>
      <trkpt lat="41.65344" lon="44.56621">
        <ele>1406.623065</ele>
        <time>2021-08-17T14:18:58.824Z</time>
      </trkpt>
      <trkpt lat="41.65351" lon="44.5665">
        <ele>1407.722566</ele>
        <time>2021-08-17T14:19:09.841Z</time>
      </trkpt>
      <trkpt lat="41.65366" lon="44.56673">
        <ele>1408.842447</ele>
        <time>2021-08-17T14:19:20.689Z</time>
      </trkpt>
      <trkpt lat="41.65403" lon="44.56696">
        <ele>1410.81107</ele>
        <time>2021-08-17T14:19:38.648Z</time>
      </trkpt>
      <trkpt lat="41.65419" lon="44.56719">
        <ele>1411.943062</ele>
        <time>2021-08-17T14:19:48.601Z</time>
      </trkpt>
      <trkpt lat="41.65424" lon="44.56747">
        <ele>1413.00591</ele>
        <time>2021-08-17T14:19:57.956Z</time>
      </trkpt>
      <trkpt lat="41.65425" lon="44.56774">
        <ele>1413.983564</ele>
        <time>2021-08-17T14:20:06.660Z</time>
      </trkpt>
      <trkpt lat="41.65421" lon="44.56802">
        <ele>1415.050785</ele>
        <time>2021-08-17T14:20:16.053Z</time>
      </trkpt>
      <trkpt lat="41.65378" lon="44.56899">
        <ele>1419.23077</ele>
        <time>2021-08-17T14:20:54.855Z</time>
      </trkpt>
      <trkpt lat="41.65352" lon="44.57033">
        <ele>1424.244769</ele>
        <time>2021-08-17T14:21:46.238Z</time>
      </trkpt>
      <trkpt lat="41.65347" lon="44.57093">
        <ele>1426.155334</ele>
        <time>2021-08-17T14:22:08.706Z</time>
      </trkpt>
      <trkpt lat="41.65354" lon="44.57153">
        <ele>1428.065794</ele>
        <time>2021-08-17T14:22:29.823Z</time>
      </trkpt>
      <trkpt lat="41.65379" lon="44.57274">
        <ele>1430.474913</ele>
        <time>2021-08-17T14:23:06.413Z</time>
      </trkpt>
      <trkpt lat="41.65442" lon="44.57417">
        <ele>1428.510689</ele>
        <time>2021-08-17T14:23:30.633Z</time>
      </trkpt>
      <trkpt lat="41.65509" lon="44.57596">
        <ele>1417.646841</ele>
        <time>2021-08-17T14:23:52.974Z</time>
      </trkpt>
      <trkpt lat="41.6557" lon="44.57807">
        <ele>1400.031664</ele>
        <time>2021-08-17T14:24:16.424Z</time>
      </trkpt>
      <trkpt lat="41.65576" lon="44.57854">
        <ele>1396.053416</ele>
        <time>2021-08-17T14:24:21.343Z</time>
      </trkpt>
      <trkpt lat="41.65581" lon="44.57856">
        <ele>1395.463823</ele>
        <time>2021-08-17T14:24:22.074Z</time>
      </trkpt>
      <trkpt lat="41.65589" lon="44.57869">
        <ele>1394.013555</ele>
        <time>2021-08-17T14:24:24.000Z</time>
      </trkpt>
      <trkpt lat="41.65614" lon="44.57996">
        <ele>1387.125831</ele>
        <time>2021-08-17T14:24:38.932Z</time>
      </trkpt>
      <trkpt lat="41.65617" lon="44.58054">
        <ele>1384.500424</ele>
        <time>2021-08-17T14:24:45.889Z</time>
      </trkpt>
      <trkpt lat="41.65614" lon="44.5814">
        <ele>1381.004229</ele>
        <time>2021-08-17T14:24:58.679Z</time>
      </trkpt>
      <trkpt lat="41.6562" lon="44.58193">
        <ele>1380.356075</ele>
        <time>2021-08-17T14:25:06.995Z</time>
      </trkpt>
      <trkpt lat="41.65613" lon="44.58208">
        <ele>1380.140129</ele>
        <time>2021-08-17T14:25:09.692Z</time>
      </trkpt>
      <trkpt lat="41.65604" lon="44.58216">
        <ele>1379.971102</ele>
        <time>2021-08-17T14:25:11.560Z</time>
      </trkpt>
      <trkpt lat="41.65612" lon="44.58325">
        <ele>1378.642794</ele>
        <time>2021-08-17T14:25:27.317Z</time>
      </trkpt>
      <trkpt lat="41.65622" lon="44.58461">
        <ele>1375.858528</ele>
        <time>2021-08-17T14:25:46.193Z</time>
      </trkpt>
      <trkpt lat="41.65618" lon="44.58513">
        <ele>1374.668861</ele>
        <time>2021-08-17T14:25:52.781Z</time>
      </trkpt>
      <trkpt lat="41.65608" lon="44.5856">
        <ele>1373.541287</ele>
        <time>2021-08-17T14:25:58.629Z</time>
      </trkpt>
      <trkpt lat="41.65578" lon="44.58638">
        <ele>1371.555564</ele>
        <time>2021-08-17T14:26:09.375Z</time>
      </trkpt>
      <trkpt lat="41.65525" lon="44.58832">
        <ele>1366.852641</ele>
        <time>2021-08-17T14:26:36.691Z</time>
      </trkpt>
      <trkpt lat="41.65518" lon="44.58882">
        <ele>1365.370999</ele>
        <time>2021-08-17T14:26:43.656Z</time>
      </trkpt>
      <trkpt lat="41.65522" lon="44.58932">
        <ele>1363.927482</ele>
        <time>2021-08-17T14:26:50.155Z</time>
      </trkpt>
      <trkpt lat="41.65552" lon="44.59053">
        <ele>1360.173886</ele>
        <time>2021-08-17T14:27:05.534Z</time>
      </trkpt>
      <trkpt lat="41.6556" lon="44.59118">
        <ele>1356.466584</ele>
        <time>2021-08-17T14:27:13.140Z</time>
      </trkpt>
      <trkpt lat="41.65565" lon="44.59288">
        <ele>1347.012821</ele>
        <time>2021-08-17T14:27:31.699Z</time>
      </trkpt>
      <trkpt lat="41.65575" lon="44.59363">
        <ele>1342.753589</ele>
        <time>2021-08-17T14:27:39.950Z</time>
      </trkpt>
      <trkpt lat="41.65581" lon="44.59417">
        <ele>1339.655495</ele>
        <time>2021-08-17T14:27:46.004Z</time>
      </trkpt>
      <trkpt lat="41.65639" lon="44.59616">
        <ele>1329.119758</ele>
        <time>2021-08-17T14:28:10.119Z</time>
      </trkpt>
      <trkpt lat="41.65656" lon="44.5968">
        <ele>1326.282877</ele>
        <time>2021-08-17T14:28:18.158Z</time>
      </trkpt>
      <trkpt lat="41.65708" lon="44.59858">
        <ele>1320.736087</ele>
        <time>2021-08-17T14:28:41.481Z</time>
      </trkpt>
      <trkpt lat="41.65711" lon="44.59869">
        <ele>1320.489263</ele>
        <time>2021-08-17T14:28:42.857Z</time>
      </trkpt>
      <trkpt lat="41.65713" lon="44.5988">
        <ele>1320.252765</ele>
        <time>2021-08-17T14:28:44.383Z</time>
      </trkpt>
      <trkpt lat="41.65754" lon="44.60054">
        <ele>1318.413697</ele>
        <time>2021-08-17T14:29:11.308Z</time>
      </trkpt>
      <trkpt lat="41.65772" lon="44.60152">
        <ele>1318.719014</ele>
        <time>2021-08-17T14:29:32.600Z</time>
      </trkpt>
      <trkpt lat="41.65781" lon="44.60182">
        <ele>1318.816308</ele>
        <time>2021-08-17T14:29:39.464Z</time>
      </trkpt>
      <trkpt lat="41.6579" lon="44.60201">
        <ele>1318.894058</ele>
        <time>2021-08-17T14:29:44.568Z</time>
      </trkpt>
      <trkpt lat="41.65803" lon="44.60225">
        <ele>1319.34252</ele>
        <time>2021-08-17T14:29:50.893Z</time>
      </trkpt>
      <trkpt lat="41.65811" lon="44.60237">
        <ele>1319.587348</ele>
        <time>2021-08-17T14:29:54.584Z</time>
      </trkpt>
      <trkpt lat="41.65816" lon="44.60244">
        <ele>1319.749073</ele>
        <time>2021-08-17T14:29:57.247Z</time>
      </trkpt>
      <trkpt lat="41.65831" lon="44.60262">
        <ele>1320.155663</ele>
        <time>2021-08-17T14:30:03.408Z</time>
      </trkpt>
      <trkpt lat="41.65923" lon="44.60359">
        <ele>1322.534689</ele>
        <time>2021-08-17T14:30:40.265Z</time>
      </trkpt>
      <trkpt lat="41.65925" lon="44.60389">
        <ele>1323.772041</ele>
        <time>2021-08-17T14:30:48.936Z</time>
      </trkpt>
      <trkpt lat="41.6594" lon="44.60538">
        <ele>1329.982822</ele>
        <time>2021-08-17T14:31:44.390Z</time>
      </trkpt>
      <trkpt lat="41.65941" lon="44.60549">
        <ele>1330.401236</ele>
        <time>2021-08-17T14:31:48.974Z</time>
      </trkpt>
      <trkpt lat="41.65963" lon="44.60528">
        <ele>1331.865445</ele>
        <time>2021-08-17T14:32:05.115Z</time>
      </trkpt>
      <trkpt lat="41.65965" lon="44.60547">
        <ele>1332.776379</ele>
        <time>2021-08-17T14:32:13.777Z</time>
      </trkpt>
      <trkpt lat="41.65975" lon="44.60606">
        <ele>1337.263959</ele>
        <time>2021-08-17T14:32:44.300Z</time>
      </trkpt>
      <trkpt lat="41.66003" lon="44.60712">
        <ele>1345.548739</ele>
        <time>2021-08-17T14:33:48.578Z</time>
      </trkpt>
      <trkpt lat="41.66005" lon="44.60757">
        <ele>1348.843163</ele>
        <time>2021-08-17T14:34:14.262Z</time>
      </trkpt>
      <trkpt lat="41.65972" lon="44.60882">
        <ele>1357.641139</ele>
        <time>2021-08-17T14:35:25.363Z</time>
      </trkpt>
      <trkpt lat="41.6589" lon="44.61111">
        <ele>1372.634511</ele>
        <time>2021-08-17T14:37:18.454Z</time>
      </trkpt>
      <trkpt lat="41.65882" lon="44.61143">
        <ele>1374.414369</ele>
        <time>2021-08-17T14:37:31.993Z</time>
      </trkpt>
      <trkpt lat="41.65875" lon="44.61184">
        <ele>1376.691294</ele>
        <time>2021-08-17T14:37:49.270Z</time>
      </trkpt>
      <trkpt lat="41.65885" lon="44.61241">
        <ele>1379.967876</ele>
        <time>2021-08-17T14:38:13.966Z</time>
      </trkpt>
      <trkpt lat="41.65938" lon="44.61386">
        <ele>1389.601526</ele>
        <time>2021-08-17T14:39:28.432Z</time>
      </trkpt>
      <trkpt lat="41.6596" lon="44.61497">
        <ele>1396.351914</ele>
        <time>2021-08-17T14:40:26.422Z</time>
      </trkpt>
      <trkpt lat="41.65964" lon="44.61538">
        <ele>1398.764628</ele>
        <time>2021-08-17T14:40:47.001Z</time>
      </trkpt>
      <trkpt lat="41.65956" lon="44.61609">
        <ele>1402.940136</ele>
        <time>2021-08-17T14:41:21.210Z</time>
      </trkpt>
      <trkpt lat="41.65924" lon="44.61707">
        <ele>1408.254609</ele>
        <time>2021-08-17T14:42:04.401Z</time>
      </trkpt>
      <trkpt lat="41.65909" lon="44.61795">
        <ele>1411.235365</ele>
        <time>2021-08-17T14:42:33.659Z</time>
      </trkpt>
      <trkpt lat="41.65909" lon="44.61818">
        <ele>1411.995927</ele>
        <time>2021-08-17T14:42:40.222Z</time>
      </trkpt>
      <trkpt lat="41.65907" lon="44.61949">
        <ele>1416.522737</ele>
        <time>2021-08-17T14:43:20.059Z</time>
      </trkpt>
      <trkpt lat="41.65904" lon="44.62015">
        <ele>1419.069312</ele>
        <time>2021-08-17T14:43:41.834Z</time>
      </trkpt>
      <trkpt lat="41.65891" lon="44.62291">
        <ele>1429.564529</ele>
        <time>2021-08-17T14:45:30.127Z</time>
      </trkpt>
      <trkpt lat="41.65888" lon="44.62351">
        <ele>1431.794609</ele>
        <time>2021-08-17T14:45:50.530Z</time>
      </trkpt>
      <trkpt lat="41.6589" lon="44.62427">
        <ele>1433.586669</ele>
        <time>2021-08-17T14:46:13.359Z</time>
      </trkpt>
      <trkpt lat="41.65922" lon="44.62642">
        <ele>1435.156612</ele>
        <time>2021-08-17T14:46:54.261Z</time>
      </trkpt>
      <trkpt lat="41.6593" lon="44.6267">
        <ele>1434.955082</ele>
        <time>2021-08-17T14:46:58.656Z</time>
      </trkpt>
      <trkpt lat="41.65989" lon="44.62794">
        <ele>1433.973648</ele>
        <time>2021-08-17T14:47:20.048Z</time>
      </trkpt>
      <trkpt lat="41.6601" lon="44.62859">
        <ele>1433.472647</ele>
        <time>2021-08-17T14:47:30.439Z</time>
      </trkpt>
      <trkpt lat="41.66043" lon="44.63085">
        <ele>1431.306206</ele>
        <time>2021-08-17T14:48:05.585Z</time>
      </trkpt>
      <trkpt lat="41.66064" lon="44.63145">
        <ele>1428.883278</ele>
        <time>2021-08-17T14:48:14.308Z</time>
      </trkpt>
      <trkpt lat="41.66095" lon="44.63214">
        <ele>1425.88683</ele>
        <time>2021-08-17T14:48:24.232Z</time>
      </trkpt>
      <trkpt lat="41.66104" lon="44.63248">
        <ele>1424.528623</ele>
        <time>2021-08-17T14:48:28.521Z</time>
      </trkpt>
      <trkpt lat="41.66135" lon="44.63438">
        <ele>1410.844467</ele>
        <time>2021-08-17T14:48:49.041Z</time>
      </trkpt>
      <trkpt lat="41.6616" lon="44.63529">
        <ele>1403.165024</ele>
        <time>2021-08-17T14:48:58.958Z</time>
      </trkpt>
      <trkpt lat="41.66178" lon="44.63579">
        <ele>1399.416616</ele>
        <time>2021-08-17T14:49:04.821Z</time>
      </trkpt>
      <trkpt lat="41.66191" lon="44.63612">
        <ele>1396.940327</ele>
        <time>2021-08-17T14:49:08.733Z</time>
      </trkpt>
      <trkpt lat="41.66217" lon="44.6365">
        <ele>1393.533985</ele>
        <time>2021-08-17T14:49:14.167Z</time>
      </trkpt>
      <trkpt lat="41.66297" lon="44.63712">
        <ele>1386.328449</ele>
        <time>2021-08-17T14:49:28.321Z</time>
      </trkpt>
      <trkpt lat="41.66379" lon="44.63807">
        <ele>1381.514367</ele>
        <time>2021-08-17T14:49:46.291Z</time>
      </trkpt>
      <trkpt lat="41.66421" lon="44.63827">
        <ele>1379.520651</ele>
        <time>2021-08-17T14:49:53.752Z</time>
      </trkpt>
      <trkpt lat="41.66454" lon="44.63835">
        <ele>1377.690478</ele>
        <time>2021-08-17T14:49:59.291Z</time>
      </trkpt>
      <trkpt lat="41.66597" lon="44.63844">
        <ele>1369.662261</ele>
        <time>2021-08-17T14:50:21.557Z</time>
      </trkpt>
      <trkpt lat="41.66614" lon="44.63854">
        <ele>1368.285473</ele>
        <time>2021-08-17T14:50:24.266Z</time>
      </trkpt>
      <trkpt lat="41.66637" lon="44.63881">
        <ele>1365.665786</ele>
        <time>2021-08-17T14:50:28.814Z</time>
      </trkpt>
      <trkpt lat="41.6665" lon="44.63922">
        <ele>1362.861115</ele>
        <time>2021-08-17T14:50:33.659Z</time>
      </trkpt>
      <trkpt lat="41.66648" lon="44.63965">
        <ele>1360.108449</ele>
        <time>2021-08-17T14:50:38.374Z</time>
      </trkpt>
      <trkpt lat="41.66562" lon="44.64302">
        <ele>1336.01048</ele>
        <time>2021-08-17T14:51:16.535Z</time>
      </trkpt>
      <trkpt lat="41.66527" lon="44.64373">
        <ele>1330.766432</ele>
        <time>2021-08-17T14:51:25.800Z</time>
      </trkpt>
      <trkpt lat="41.66516" lon="44.64411">
        <ele>1328.265868</ele>
        <time>2021-08-17T14:51:30.264Z</time>
      </trkpt>
      <trkpt lat="41.66507" lon="44.64554">
        <ele>1320.174045</ele>
        <time>2021-08-17T14:51:46.206Z</time>
      </trkpt>
      <trkpt lat="41.6651" lon="44.64583">
        <ele>1318.82392</ele>
        <time>2021-08-17T14:51:49.472Z</time>
      </trkpt>
      <trkpt lat="41.6654" lon="44.64657">
        <ele>1314.873861</ele>
        <time>2021-08-17T14:51:59.130Z</time>
      </trkpt>
      <trkpt lat="41.66556" lon="44.64678">
        <ele>1313.523528</ele>
        <time>2021-08-17T14:52:02.492Z</time>
      </trkpt>
      <trkpt lat="41.66629" lon="44.64743">
        <ele>1309.523166</ele>
        <time>2021-08-17T14:52:16.498Z</time>
      </trkpt>
      <trkpt lat="41.66711" lon="44.64831">
        <ele>1306.002771</ele>
        <time>2021-08-17T14:52:34.841Z</time>
      </trkpt>
      <trkpt lat="41.66728" lon="44.64839">
        <ele>1305.382808</ele>
        <time>2021-08-17T14:52:38.229Z</time>
      </trkpt>
      <trkpt lat="41.66777" lon="44.64837">
        <ele>1303.932108</ele>
        <time>2021-08-17T14:52:47.149Z</time>
      </trkpt>
      <trkpt lat="41.66804" lon="44.64831">
        <ele>1303.154353</ele>
        <time>2021-08-17T14:52:51.981Z</time>
      </trkpt>
      <trkpt lat="41.66841" lon="44.64811">
        <ele>1301.993783</ele>
        <time>2021-08-17T14:52:59.081Z</time>
      </trkpt>
      <trkpt lat="41.66857" lon="44.64801">
        <ele>1301.464035</ele>
        <time>2021-08-17T14:53:02.340Z</time>
      </trkpt>
      <trkpt lat="41.66888" lon="44.64779">
        <ele>1300.45501</ele>
        <time>2021-08-17T14:53:08.397Z</time>
      </trkpt>
      <trkpt lat="41.66995" lon="44.64713">
        <ele>1294.929533</ele>
        <time>2021-08-17T14:53:27.110Z</time>
      </trkpt>
      <trkpt lat="41.67031" lon="44.64707">
        <ele>1293.121777</ele>
        <time>2021-08-17T14:53:32.666Z</time>
      </trkpt>
      <trkpt lat="41.67038" lon="44.6471">
        <ele>1292.743863</ele>
        <time>2021-08-17T14:53:33.841Z</time>
      </trkpt>
      <trkpt lat="41.67052" lon="44.6473">
        <ele>1291.76615</ele>
        <time>2021-08-17T14:53:37.002Z</time>
      </trkpt>
      <trkpt lat="41.67054" lon="44.64743">
        <ele>1291.262271</ele>
        <time>2021-08-17T14:53:38.486Z</time>
      </trkpt>
      <trkpt lat="41.67053" lon="44.64759">
        <ele>1290.768556</ele>
        <time>2021-08-17T14:53:40.468Z</time>
      </trkpt>
      <trkpt lat="41.67045" lon="44.64941">
        <ele>1286.118291</ele>
        <time>2021-08-17T14:54:02.733Z</time>
      </trkpt>
      <trkpt lat="41.67044" lon="44.65021">
        <ele>1285.301175</ele>
        <time>2021-08-17T14:54:14.676Z</time>
      </trkpt>
      <trkpt lat="41.67038" lon="44.65418">
        <ele>1293.278057</ele>
        <time>2021-08-17T14:55:58.715Z</time>
      </trkpt>
      <trkpt lat="41.67044" lon="44.65482">
        <ele>1295.583951</ele>
        <time>2021-08-17T14:56:25.337Z</time>
      </trkpt>
      <trkpt lat="41.67054" lon="44.65538">
        <ele>1299.621053</ele>
        <time>2021-08-17T14:56:52.133Z</time>
      </trkpt>
      <trkpt lat="41.67061" lon="44.65584">
        <ele>1302.915293</ele>
        <time>2021-08-17T14:57:15.981Z</time>
      </trkpt>
      <trkpt lat="41.6708" lon="44.6602">
        <ele>1335.311953</ele>
        <time>2021-08-17T15:01:28.744Z</time>
      </trkpt>
      <trkpt lat="41.67083" lon="44.66097">
        <ele>1339.644059</ele>
        <time>2021-08-17T15:02:04.750Z</time>
      </trkpt>
      <trkpt lat="41.67071" lon="44.66216">
        <ele>1344.829005</ele>
        <time>2021-08-17T15:02:46.778Z</time>
      </trkpt>
      <trkpt lat="41.67072" lon="44.66241">
        <ele>1344.865252</ele>
        <time>2021-08-17T15:02:53.349Z</time>
      </trkpt>
      <trkpt lat="41.671" lon="44.66321">
        <ele>1344.987701</ele>
        <time>2021-08-17T15:03:09.675Z</time>
      </trkpt>
      <trkpt lat="41.67128" lon="44.66461">
        <ele>1344.119378</ele>
        <time>2021-08-17T15:03:29.099Z</time>
      </trkpt>
      <trkpt lat="41.6717" lon="44.66594">
        <ele>1340.892845</ele>
        <time>2021-08-17T15:03:46.791Z</time>
      </trkpt>
      <trkpt lat="41.67203" lon="44.66743">
        <ele>1340.810392</ele>
        <time>2021-08-17T15:04:09.677Z</time>
      </trkpt>
      <trkpt lat="41.67216" lon="44.66805">
        <ele>1341.461625</ele>
        <time>2021-08-17T15:04:25.064Z</time>
      </trkpt>
      <trkpt lat="41.67228" lon="44.66846">
        <ele>1341.911336</ele>
        <time>2021-08-17T15:04:38.321Z</time>
      </trkpt>
      <trkpt lat="41.67315" lon="44.67061">
        <ele>1349.674637</ele>
        <time>2021-08-17T15:06:07.570Z</time>
      </trkpt>
      <trkpt lat="41.67362" lon="44.67151">
        <ele>1350.491452</ele>
        <time>2021-08-17T15:06:35.875Z</time>
      </trkpt>
      <trkpt lat="41.67372" lon="44.67176">
        <ele>1350.490576</ele>
        <time>2021-08-17T15:06:41.381Z</time>
      </trkpt>
      <trkpt lat="41.67392" lon="44.6728">
        <ele>1350.487312</ele>
        <time>2021-08-17T15:06:57.132Z</time>
      </trkpt>
      <trkpt lat="41.67496" lon="44.6746">
        <ele>1342.880653</ele>
        <time>2021-08-17T15:07:24.272Z</time>
      </trkpt>
      <trkpt lat="41.67507" lon="44.67513">
        <ele>1340.563293</ele>
        <time>2021-08-17T15:07:30.570Z</time>
      </trkpt>
      <trkpt lat="41.67512" lon="44.67561">
        <ele>1338.174487</ele>
        <time>2021-08-17T15:07:36.041Z</time>
      </trkpt>
      <trkpt lat="41.67515" lon="44.67584">
        <ele>1336.994267</ele>
        <time>2021-08-17T15:07:38.734Z</time>
      </trkpt>
      <trkpt lat="41.67526" lon="44.67655">
        <ele>1333.39807</ele>
        <time>2021-08-17T15:07:46.930Z</time>
      </trkpt>
      <trkpt lat="41.67541" lon="44.67708">
        <ele>1330.614978</ele>
        <time>2021-08-17T15:07:53.251Z</time>
      </trkpt>
      <trkpt lat="41.67613" lon="44.67897">
        <ele>1319.160261</ele>
        <time>2021-08-17T15:08:17.120Z</time>
      </trkpt>
      <trkpt lat="41.67642" lon="44.67949">
        <ele>1315.305492</ele>
        <time>2021-08-17T15:08:24.144Z</time>
      </trkpt>
      <trkpt lat="41.67658" lon="44.67971">
        <ele>1312.889035</ele>
        <time>2021-08-17T15:08:27.646Z</time>
      </trkpt>
      <trkpt lat="41.67678" lon="44.68003">
        <ele>1309.684614</ele>
        <time>2021-08-17T15:08:32.240Z</time>
      </trkpt>
      <trkpt lat="41.67754" lon="44.68062">
        <ele>1300.786397</ele>
        <time>2021-08-17T15:08:44.557Z</time>
      </trkpt>
      <trkpt lat="41.67797" lon="44.68168">
        <ele>1289.380755</ele>
        <time>2021-08-17T15:08:56.741Z</time>
      </trkpt>
      <trkpt lat="41.67811" lon="44.68185">
        <ele>1286.852643</ele>
        <time>2021-08-17T15:08:59.423Z</time>
      </trkpt>
      <trkpt lat="41.67818" lon="44.68188">
        <ele>1285.752715</ele>
        <time>2021-08-17T15:09:00.526Z</time>
      </trkpt>
      <trkpt lat="41.67828" lon="44.68188">
        <ele>1284.447852</ele>
        <time>2021-08-17T15:09:01.775Z</time>
      </trkpt>
      <trkpt lat="41.67923" lon="44.68149">
        <ele>1271.627561</ele>
        <time>2021-08-17T15:09:15.368Z</time>
      </trkpt>
      <trkpt lat="41.67948" lon="44.68153">
        <ele>1269.046434</ele>
        <time>2021-08-17T15:09:18.700Z</time>
      </trkpt>
      <trkpt lat="41.67958" lon="44.6817">
        <ele>1267.327254</ele>
        <time>2021-08-17T15:09:20.901Z</time>
      </trkpt>
      <trkpt lat="41.6796" lon="44.68197">
        <ele>1265.212009</ele>
        <time>2021-08-17T15:09:23.721Z</time>
      </trkpt>
      <trkpt lat="41.67957" lon="44.68217">
        <ele>1263.566777</ele>
        <time>2021-08-17T15:09:26.033Z</time>
      </trkpt>
      <trkpt lat="41.67912" lon="44.68463">
        <ele>1245.22924</ele>
        <time>2021-08-17T15:09:53.735Z</time>
      </trkpt>
      <trkpt lat="41.67907" lon="44.68501">
        <ele>1242.613363</ele>
        <time>2021-08-17T15:09:57.772Z</time>
      </trkpt>
      <trkpt lat="41.67908" lon="44.68574">
        <ele>1237.733547</ele>
        <time>2021-08-17T15:10:05.571Z</time>
      </trkpt>
      <trkpt lat="41.67905" lon="44.68662">
        <ele>1232.063509</ele>
        <time>2021-08-17T15:10:14.932Z</time>
      </trkpt>
      <trkpt lat="41.67909" lon="44.68672">
        <ele>1231.317533</ele>
        <time>2021-08-17T15:10:16.201Z</time>
      </trkpt>
      <trkpt lat="41.67911" lon="44.68676">
        <ele>1231.027701</ele>
        <time>2021-08-17T15:10:16.652Z</time>
      </trkpt>
      <trkpt lat="41.67916" lon="44.68678">
        <ele>1230.545318</ele>
        <time>2021-08-17T15:10:17.475Z</time>
      </trkpt>
      <trkpt lat="41.67925" lon="44.68678">
        <ele>1229.809131</ele>
        <time>2021-08-17T15:10:18.760Z</time>
      </trkpt>
      <trkpt lat="41.67937" lon="44.68664">
        <ele>1228.387112</ele>
        <time>2021-08-17T15:10:21.224Z</time>
      </trkpt>
      <trkpt lat="41.67959" lon="44.68571">
        <ele>1222.431981</ele>
        <time>2021-08-17T15:10:32.129Z</time>
      </trkpt>
      <trkpt lat="41.67976" lon="44.68523">
        <ele>1220.049851</ele>
        <time>2021-08-17T15:10:38.060Z</time>
      </trkpt>
      <trkpt lat="41.68062" lon="44.6833">
        <ele>1210.039087</ele>
        <time>2021-08-17T15:11:04.345Z</time>
      </trkpt>
      <trkpt lat="41.68066" lon="44.68324">
        <ele>1209.629909</ele>
        <time>2021-08-17T15:11:05.326Z</time>
      </trkpt>
      <trkpt lat="41.68078" lon="44.68321">
        <ele>1208.884964</ele>
        <time>2021-08-17T15:11:07.251Z</time>
      </trkpt>
      <trkpt lat="41.68082" lon="44.68328">
        <ele>1208.498858</ele>
        <time>2021-08-17T15:11:08.304Z</time>
      </trkpt>
      <trkpt lat="41.68082" lon="44.68343">
        <ele>1207.84032</ele>
        <time>2021-08-17T15:11:10.051Z</time>
      </trkpt>
      <trkpt lat="41.68079" lon="44.68355">
        <ele>1207.277591</ele>
        <time>2021-08-17T15:11:11.388Z</time>
      </trkpt>
      <trkpt lat="41.68059" lon="44.68427">
        <ele>1203.815763</ele>
        <time>2021-08-17T15:11:20.385Z</time>
      </trkpt>
      <trkpt lat="41.68058" lon="44.68434">
        <ele>1203.483518</ele>
        <time>2021-08-17T15:11:21.221Z</time>
      </trkpt>
      <trkpt lat="41.68041" lon="44.6853">
        <ele>1198.315343</ele>
        <time>2021-08-17T15:11:32.383Z</time>
      </trkpt>
      <trkpt lat="41.68028" lon="44.68667">
        <ele>1190.391558</ele>
        <time>2021-08-17T15:11:47.789Z</time>
      </trkpt>
      <trkpt lat="41.68041" lon="44.68821">
        <ele>1178.326302</ele>
        <time>2021-08-17T15:12:04.319Z</time>
      </trkpt>
      <trkpt lat="41.68035" lon="44.68924">
        <ele>1169.523001</ele>
        <time>2021-08-17T15:12:14.869Z</time>
      </trkpt>
      <trkpt lat="41.6803" lon="44.6896">
        <ele>1166.284274</ele>
        <time>2021-08-17T15:12:18.592Z</time>
      </trkpt>
      <trkpt lat="41.68028" lon="44.68973">
        <ele>1164.929658</ele>
        <time>2021-08-17T15:12:20.032Z</time>
      </trkpt>
      <trkpt lat="41.68025" lon="44.68988">
        <ele>1163.411379</ele>
        <time>2021-08-17T15:12:21.554Z</time>
      </trkpt>
      <trkpt lat="41.68019" lon="44.69041">
        <ele>1158.107901</ele>
        <time>2021-08-17T15:12:27.054Z</time>
      </trkpt>
      <trkpt lat="41.68019" lon="44.69173">
        <ele>1144.940607</ele>
        <time>2021-08-17T15:12:40.514Z</time>
      </trkpt>
      <trkpt lat="41.68028" lon="44.69222">
        <ele>1140.785734</ele>
        <time>2021-08-17T15:12:45.750Z</time>
      </trkpt>
      <trkpt lat="41.68035" lon="44.69239">
        <ele>1139.365152</ele>
        <time>2021-08-17T15:12:47.785Z</time>
      </trkpt>
      <trkpt lat="41.68049" lon="44.69255">
        <ele>1137.591556</ele>
        <time>2021-08-17T15:12:50.474Z</time>
      </trkpt>
      <trkpt lat="41.68058" lon="44.69262">
        <ele>1136.563951</ele>
        <time>2021-08-17T15:12:51.900Z</time>
      </trkpt>
      <trkpt lat="41.68063" lon="44.69265">
        <ele>1136.094155</ele>
        <time>2021-08-17T15:12:52.609Z</time>
      </trkpt>
      <trkpt lat="41.68072" lon="44.69271">
        <ele>1135.096758</ele>
        <time>2021-08-17T15:12:54.147Z</time>
      </trkpt>
      <trkpt lat="41.68077" lon="44.69273">
        <ele>1134.555114</ele>
        <time>2021-08-17T15:12:54.976Z</time>
      </trkpt>
      <trkpt lat="41.68101" lon="44.69283">
        <ele>1132.170714</ele>
        <time>2021-08-17T15:12:58.427Z</time>
      </trkpt>
      <trkpt lat="41.6811" lon="44.69285">
        <ele>1131.200838</ele>
        <time>2021-08-17T15:12:59.957Z</time>
      </trkpt>
      <trkpt lat="41.68133" lon="44.69289">
        <ele>1128.945088</ele>
        <time>2021-08-17T15:13:03.242Z</time>
      </trkpt>
      <trkpt lat="41.6815" lon="44.69288">
        <ele>1127.306006</ele>
        <time>2021-08-17T15:13:05.837Z</time>
      </trkpt>
      <trkpt lat="41.68165" lon="44.69281">
        <ele>1125.791627</ele>
        <time>2021-08-17T15:13:08.012Z</time>
      </trkpt>
      <trkpt lat="41.68178" lon="44.69269">
        <ele>1124.716101</ele>
        <time>2021-08-17T15:13:10.482Z</time>
      </trkpt>
      <trkpt lat="41.68191" lon="44.6925">
        <ele>1123.487263</ele>
        <time>2021-08-17T15:13:13.196Z</time>
      </trkpt>
      <trkpt lat="41.68275" lon="44.69062">
        <ele>1112.849098</ele>
        <time>2021-08-17T15:13:38.659Z</time>
      </trkpt>
      <trkpt lat="41.68286" lon="44.6905">
        <ele>1111.890801</ele>
        <time>2021-08-17T15:13:40.838Z</time>
      </trkpt>
      <trkpt lat="41.68318" lon="44.69037">
        <ele>1109.611782</ele>
        <time>2021-08-17T15:13:45.941Z</time>
      </trkpt>
      <trkpt lat="41.68326" lon="44.69041">
        <ele>1109.011076</ele>
        <time>2021-08-17T15:13:47.176Z</time>
      </trkpt>
      <trkpt lat="41.68333" lon="44.69045">
        <ele>1108.520454</ele>
        <time>2021-08-17T15:13:48.260Z</time>
      </trkpt>
      <trkpt lat="41.68356" lon="44.69067">
        <ele>1106.604019</ele>
        <time>2021-08-17T15:13:52.492Z</time>
      </trkpt>
      <trkpt lat="41.68363" lon="44.69088">
        <ele>1105.421959</ele>
        <time>2021-08-17T15:13:55.134Z</time>
      </trkpt>
      <trkpt lat="41.68375" lon="44.6917">
        <ele>1101.075135</ele>
        <time>2021-08-17T15:14:04.427Z</time>
      </trkpt>
      <trkpt lat="41.68384" lon="44.69184">
        <ele>1100.024558</ele>
        <time>2021-08-17T15:14:06.506Z</time>
      </trkpt>
      <trkpt lat="41.68391" lon="44.69194">
        <ele>1099.20629</ele>
        <time>2021-08-17T15:14:08.055Z</time>
      </trkpt>
      <trkpt lat="41.68413" lon="44.69202">
        <ele>1097.442738</ele>
        <time>2021-08-17T15:14:11.403Z</time>
      </trkpt>
      <trkpt lat="41.68442" lon="44.69191">
        <ele>1095.129403</ele>
        <time>2021-08-17T15:14:15.747Z</time>
      </trkpt>
      <trkpt lat="41.68456" lon="44.69164">
        <ele>1093.203071</ele>
        <time>2021-08-17T15:14:19.406Z</time>
      </trkpt>
      <trkpt lat="41.68477" lon="44.69076">
        <ele>1087.862218</ele>
        <time>2021-08-17T15:14:29.649Z</time>
      </trkpt>
      <trkpt lat="41.68492" lon="44.6906">
        <ele>1086.639045</ele>
        <time>2021-08-17T15:14:32.469Z</time>
      </trkpt>
      <trkpt lat="41.68503" lon="44.6906">
        <ele>1085.94708</ele>
        <time>2021-08-17T15:14:34.165Z</time>
      </trkpt>
      <trkpt lat="41.68512" lon="44.69063">
        <ele>1085.341531</ele>
        <time>2021-08-17T15:14:35.507Z</time>
      </trkpt>
      <trkpt lat="41.68519" lon="44.69071">
        <ele>1084.748788</ele>
        <time>2021-08-17T15:14:36.900Z</time>
      </trkpt>
      <trkpt lat="41.68525" lon="44.69082">
        <ele>1084.112383</ele>
        <time>2021-08-17T15:14:38.488Z</time>
      </trkpt>
      <trkpt lat="41.68529" lon="44.69108">
        <ele>1082.808129</ele>
        <time>2021-08-17T15:14:41.538Z</time>
      </trkpt>
      <trkpt lat="41.68493" lon="44.69406">
        <ele>1067.538557</ele>
        <time>2021-08-17T15:15:16.523Z</time>
      </trkpt>
      <trkpt lat="41.68498" lon="44.69452">
        <ele>1065.090359</ele>
        <time>2021-08-17T15:15:21.593Z</time>
      </trkpt>
      <trkpt lat="41.68506" lon="44.69474">
        <ele>1063.792201</ele>
        <time>2021-08-17T15:15:24.240Z</time>
      </trkpt>
      <trkpt lat="41.68517" lon="44.69495">
        <ele>1061.681461</ele>
        <time>2021-08-17T15:15:26.926Z</time>
      </trkpt>
      <trkpt lat="41.68528" lon="44.69509">
        <ele>1059.979363</ele>
        <time>2021-08-17T15:15:28.940Z</time>
      </trkpt>
      <trkpt lat="41.68538" lon="44.69524">
        <ele>1058.153261</ele>
        <time>2021-08-17T15:15:31.108Z</time>
      </trkpt>
      <trkpt lat="41.68572" lon="44.69564">
        <ele>1052.767512</ele>
        <time>2021-08-17T15:15:37.437Z</time>
      </trkpt>
      <trkpt lat="41.68605" lon="44.69612">
        <ele>1047.041003</ele>
        <time>2021-08-17T15:15:44.079Z</time>
      </trkpt>
      <trkpt lat="41.68618" lon="44.69628">
        <ele>1045.002959</ele>
        <time>2021-08-17T15:15:46.446Z</time>
      </trkpt>
      <trkpt lat="41.68629" lon="44.69636">
        <ele>1043.559999</ele>
        <time>2021-08-17T15:15:48.097Z</time>
      </trkpt>
      <trkpt lat="41.68676" lon="44.6965">
        <ele>1038.008329</ele>
        <time>2021-08-17T15:15:54.807Z</time>
      </trkpt>
      <trkpt lat="41.68733" lon="44.69657">
        <ele>1031.54677</ele>
        <time>2021-08-17T15:16:02.732Z</time>
      </trkpt>
      <trkpt lat="41.68738" lon="44.69658">
        <ele>1031.003864</ele>
        <time>2021-08-17T15:16:03.368Z</time>
      </trkpt>
      <trkpt lat="41.68817" lon="44.69664">
        <ele>1022.035686</ele>
        <time>2021-08-17T15:16:14.586Z</time>
      </trkpt>
      <trkpt lat="41.68822" lon="44.69664">
        <ele>1021.612435</ele>
        <time>2021-08-17T15:16:15.258Z</time>
      </trkpt>
      <trkpt lat="41.69021" lon="44.69682">
        <ele>1005.990309</ele>
        <time>2021-08-17T15:16:44.619Z</time>
      </trkpt>
      <trkpt lat="41.69055" lon="44.69677">
        <ele>1003.977288</ele>
        <time>2021-08-17T15:16:50.036Z</time>
      </trkpt>
      <trkpt lat="41.69071" lon="44.6967">
        <ele>1003.015164</ele>
        <time>2021-08-17T15:16:52.549Z</time>
      </trkpt>
      <trkpt lat="41.6908" lon="44.69664">
        <ele>1002.401372</ele>
        <time>2021-08-17T15:16:54.228Z</time>
      </trkpt>
      <trkpt lat="41.69185" lon="44.69577">
        <ele>994.82364</ele>
        <time>2021-08-17T15:17:13.511Z</time>
      </trkpt>
      <trkpt lat="41.69258" lon="44.69518">
        <ele>988.725251</ele>
        <time>2021-08-17T15:17:26.455Z</time>
      </trkpt>
      <trkpt lat="41.69317" lon="44.69471">
        <ele>983.719314</ele>
        <time>2021-08-17T15:17:36.684Z</time>
      </trkpt>
      <trkpt lat="41.69331" lon="44.6946">
        <ele>982.08856</ele>
        <time>2021-08-17T15:17:38.866Z</time>
      </trkpt>
      <trkpt lat="41.69341" lon="44.69452">
        <ele>980.96697</ele>
        <time>2021-08-17T15:17:40.538Z</time>
      </trkpt>
      <trkpt lat="41.69363" lon="44.69434">
        <ele>978.345747</ele>
        <time>2021-08-17T15:17:44.165Z</time>
      </trkpt>
      <trkpt lat="41.69378" lon="44.69421">
        <ele>976.548761</ele>
        <time>2021-08-17T15:17:46.788Z</time>
      </trkpt>
      <trkpt lat="41.69399" lon="44.69414">
        <ele>974.30052</ele>
        <time>2021-08-17T15:17:49.872Z</time>
      </trkpt>
      <trkpt lat="41.69426" lon="44.6942">
        <ele>971.621915</ele>
        <time>2021-08-17T15:17:53.611Z</time>
      </trkpt>
      <trkpt lat="41.69454" lon="44.69434">
        <ele>968.51158</ele>
        <time>2021-08-17T15:17:57.981Z</time>
      </trkpt>
      <trkpt lat="41.69461" lon="44.6944">
        <ele>967.696668</ele>
        <time>2021-08-17T15:17:59.054Z</time>
      </trkpt>
      <trkpt lat="41.69461" lon="44.6944">
        <ele>967.696668</ele>
        <time>2021-08-17T15:17:59.073Z</time>
      </trkpt>
      <trkpt lat="41.69471" lon="44.69448">
        <ele>966.512936</ele>
        <time>2021-08-17T15:18:00.795Z</time>
      </trkpt>
      <trkpt lat="41.69492" lon="44.69482">
        <ele>963.613633</ele>
        <time>2021-08-17T15:18:05.405Z</time>
      </trkpt>
      <trkpt lat="41.69496" lon="44.69499">
        <ele>962.516977</ele>
        <time>2021-08-17T15:18:07.275Z</time>
      </trkpt>
      <trkpt lat="41.69509" lon="44.69563">
        <ele>958.245065</ele>
        <time>2021-08-17T15:18:14.419Z</time>
      </trkpt>
      <trkpt lat="41.69538" lon="44.69712">
        <ele>949.388866</ele>
        <time>2021-08-17T15:18:31.553Z</time>
      </trkpt>
      <trkpt lat="41.6954" lon="44.69717">
        <ele>949.190744</ele>
        <time>2021-08-17T15:18:32.257Z</time>
      </trkpt>
      <trkpt lat="41.69543" lon="44.69734">
        <ele>948.602202</ele>
        <time>2021-08-17T15:18:34.297Z</time>
      </trkpt>
      <trkpt lat="41.69545" lon="44.69742">
        <ele>948.305618</ele>
        <time>2021-08-17T15:18:35.314Z</time>
      </trkpt>
      <trkpt lat="41.69551" lon="44.69774">
        <ele>947.198904</ele>
        <time>2021-08-17T15:18:39.217Z</time>
      </trkpt>
      <trkpt lat="41.69564" lon="44.69829">
        <ele>945.244428</ele>
        <time>2021-08-17T15:18:46.190Z</time>
      </trkpt>
      <trkpt lat="41.69567" lon="44.69841">
        <ele>944.82198</ele>
        <time>2021-08-17T15:18:47.741Z</time>
      </trkpt>
      <trkpt lat="41.69569" lon="44.6985">
        <ele>944.490233</ele>
        <time>2021-08-17T15:18:48.942Z</time>
      </trkpt>
      <trkpt lat="41.69571" lon="44.69854">
        <ele>944.316631</ele>
        <time>2021-08-17T15:18:49.609Z</time>
      </trkpt>
      <trkpt lat="41.69574" lon="44.69866">
        <ele>943.893924</ele>
        <time>2021-08-17T15:18:51.213Z</time>
      </trkpt>
      <trkpt lat="41.69578" lon="44.69874">
        <ele>943.569545</ele>
        <time>2021-08-17T15:18:52.399Z</time>
      </trkpt>
      <trkpt lat="41.69601" lon="44.69914">
        <ele>942.148203</ele>
        <time>2021-08-17T15:18:59.042Z</time>
      </trkpt>
      <trkpt lat="41.69617" lon="44.69938">
        <ele>941.773998</ele>
        <time>2021-08-17T15:19:03.390Z</time>
      </trkpt>
      <trkpt lat="41.69642" lon="44.6997">
        <ele>941.246808</ele>
        <time>2021-08-17T15:19:09.652Z</time>
      </trkpt>
      <trkpt lat="41.69666" lon="44.70005">
        <ele>940.69592</ele>
        <time>2021-08-17T15:19:16.376Z</time>
      </trkpt>
      <trkpt lat="41.69704" lon="44.70053">
        <ele>939.874267</ele>
        <time>2021-08-17T15:19:27.047Z</time>
      </trkpt>
      <trkpt lat="41.6971" lon="44.70058">
        <ele>939.769017</ele>
        <time>2021-08-17T15:19:28.338Z</time>
      </trkpt>
      <trkpt lat="41.69716" lon="44.70062">
        <ele>939.66417</ele>
        <time>2021-08-17T15:19:29.699Z</time>
      </trkpt>
      <trkpt lat="41.69718" lon="44.70064">
        <ele>939.629133</ele>
        <time>2021-08-17T15:19:30.180Z</time>
      </trkpt>
      <trkpt lat="41.69726" lon="44.70069">
        <ele>939.496851</ele>
        <time>2021-08-17T15:19:32.147Z</time>
      </trkpt>
      <trkpt lat="41.69753" lon="44.70087">
        <ele>939.246128</ele>
        <time>2021-08-17T15:19:38.434Z</time>
      </trkpt>
      <trkpt lat="41.69807" lon="44.70119">
        <ele>938.753504</ele>
        <time>2021-08-17T15:19:50.784Z</time>
      </trkpt>
      <trkpt lat="41.69835" lon="44.70135">
        <ele>938.49928</ele>
        <time>2021-08-17T15:19:57.130Z</time>
      </trkpt>
      <trkpt lat="41.69851" lon="44.70147">
        <ele>938.342268</ele>
        <time>2021-08-17T15:20:00.872Z</time>
      </trkpt>
      <trkpt lat="41.69866" lon="44.70162">
        <ele>938.184719</ele>
        <time>2021-08-17T15:20:04.685Z</time>
      </trkpt>
      <trkpt lat="41.69879" lon="44.70177">
        <ele>938.044135</ele>
        <time>2021-08-17T15:20:07.980Z</time>
      </trkpt>
      <trkpt lat="41.69885" lon="44.70191">
        <ele>937.720425</ele>
        <time>2021-08-17T15:20:10.515Z</time>
      </trkpt>
      <trkpt lat="41.69888" lon="44.70203">
        <ele>937.398677</ele>
        <time>2021-08-17T15:20:12.254Z</time>
      </trkpt>
      <trkpt lat="41.69903" lon="44.70245">
        <ele>936.169356</ele>
        <time>2021-08-17T15:20:18.544Z</time>
      </trkpt>
      <trkpt lat="41.69934" lon="44.7034">
        <ele>933.430317</ele>
        <time>2021-08-17T15:20:31.512Z</time>
      </trkpt>
      <trkpt lat="41.6995" lon="44.70378">
        <ele>932.269312</ele>
        <time>2021-08-17T15:20:36.726Z</time>
      </trkpt>
      <trkpt lat="41.69973" lon="44.7044">
        <ele>929.461386</ele>
        <time>2021-08-17T15:20:44.798Z</time>
      </trkpt>
      <trkpt lat="41.69984" lon="44.70473">
        <ele>927.700333</ele>
        <time>2021-08-17T15:20:49.001Z</time>
      </trkpt>
      <trkpt lat="41.69993" lon="44.70494">
        <ele>926.587544</ele>
        <time>2021-08-17T15:20:51.628Z</time>
      </trkpt>
      <trkpt lat="41.69998" lon="44.705">
        <ele>926.107679</ele>
        <time>2021-08-17T15:20:52.748Z</time>
      </trkpt>
      <trkpt lat="41.70016" lon="44.70502">
        <ele>924.942366</ele>
        <time>2021-08-17T15:20:55.516Z</time>
      </trkpt>
      <trkpt lat="41.70031" lon="44.70496">
        <ele>923.978819</ele>
        <time>2021-08-17T15:20:57.756Z</time>
      </trkpt>
      <trkpt lat="41.70057" lon="44.70481">
        <ele>922.13627</ele>
        <time>2021-08-17T15:21:02.036Z</time>
      </trkpt>
      <trkpt lat="41.70161" lon="44.70371">
        <ele>913.727611</ele>
        <time>2021-08-17T15:21:21.932Z</time>
      </trkpt>
      <trkpt lat="41.70216" lon="44.70302">
        <ele>908.95303</ele>
        <time>2021-08-17T15:21:33.677Z</time>
      </trkpt>
      <trkpt lat="41.70236" lon="44.70263">
        <ele>906.578894</ele>
        <time>2021-08-17T15:21:39.264Z</time>
      </trkpt>
      <trkpt lat="41.70247" lon="44.70224">
        <ele>904.466698</ele>
        <time>2021-08-17T15:21:44.027Z</time>
      </trkpt>
      <trkpt lat="41.7026" lon="44.70149">
        <ele>900.524367</ele>
        <time>2021-08-17T15:21:52.547Z</time>
      </trkpt>
      <trkpt lat="41.70263" lon="44.70099">
        <ele>897.942044</ele>
        <time>2021-08-17T15:21:58.185Z</time>
      </trkpt>
      <trkpt lat="41.70272" lon="44.70081">
        <ele>896.862999</ele>
        <time>2021-08-17T15:22:00.776Z</time>
      </trkpt>
      <trkpt lat="41.70282" lon="44.70071">
        <ele>895.881697</ele>
        <time>2021-08-17T15:22:02.639Z</time>
      </trkpt>
      <trkpt lat="41.70282" lon="44.70071">
        <ele>895.881697</ele>
        <time>2021-08-17T15:22:02.856Z</time>
      </trkpt>
      <trkpt lat="41.70282" lon="44.70071">
        <ele>895.881697</ele>
        <time>2021-08-17T15:22:02.878Z</time>
      </trkpt>
      <trkpt lat="41.70291" lon="44.70069">
        <ele>895.050561</ele>
        <time>2021-08-17T15:22:04.132Z</time>
      </trkpt>
      <trkpt lat="41.70313" lon="44.7008">
        <ele>892.9367</ele>
        <time>2021-08-17T15:22:07.908Z</time>
      </trkpt>
      <trkpt lat="41.70315" lon="44.70085">
        <ele>892.493432</ele>
        <time>2021-08-17T15:22:08.580Z</time>
      </trkpt>
      <trkpt lat="41.70319" lon="44.70092">
        <ele>891.929867</ele>
        <time>2021-08-17T15:22:09.412Z</time>
      </trkpt>
      <trkpt lat="41.70342" lon="44.70205">
        <ele>883.877851</ele>
        <time>2021-08-17T15:22:22.054Z</time>
      </trkpt>
      <trkpt lat="41.70361" lon="44.70242">
        <ele>880.845265</ele>
        <time>2021-08-17T15:22:26.707Z</time>
      </trkpt>
      <trkpt lat="41.70376" lon="44.70253">
        <ele>879.129552</ele>
        <time>2021-08-17T15:22:29.160Z</time>
      </trkpt>
      <trkpt lat="41.70394" lon="44.70263">
        <ele>876.916161</ele>
        <time>2021-08-17T15:22:31.901Z</time>
      </trkpt>
      <trkpt lat="41.70401" lon="44.70264">
        <ele>876.132253</ele>
        <time>2021-08-17T15:22:32.962Z</time>
      </trkpt>
      <trkpt lat="41.70422" lon="44.70262">
        <ele>873.758956</ele>
        <time>2021-08-17T15:22:35.807Z</time>
      </trkpt>
      <trkpt lat="41.70516" lon="44.70241">
        <ele>862.803586</ele>
        <time>2021-08-17T15:22:49.132Z</time>
      </trkpt>
      <trkpt lat="41.70545" lon="44.7024">
        <ele>859.466137</ele>
        <time>2021-08-17T15:22:53.141Z</time>
      </trkpt>
      <trkpt lat="41.70554" lon="44.70248">
        <ele>858.2968</ele>
        <time>2021-08-17T15:22:54.506Z</time>
      </trkpt>
      <trkpt lat="41.70563" lon="44.7026">
        <ele>856.845466</ele>
        <time>2021-08-17T15:22:56.231Z</time>
      </trkpt>
      <trkpt lat="41.70627" lon="44.70443">
        <ele>839.51699</ele>
        <time>2021-08-17T15:23:17.226Z</time>
      </trkpt>
      <trkpt lat="41.70652" lon="44.70569">
        <ele>830.557897</ele>
        <time>2021-08-17T15:23:31.289Z</time>
      </trkpt>
      <trkpt lat="41.70666" lon="44.706">
        <ele>828.158546</ele>
        <time>2021-08-17T15:23:35.176Z</time>
      </trkpt>
      <trkpt lat="41.70725" lon="44.70616">
        <ele>822.740594</ele>
        <time>2021-08-17T15:23:43.974Z</time>
      </trkpt>
      <trkpt lat="41.70754" lon="44.70608">
        <ele>820.270831</ele>
        <time>2021-08-17T15:23:48.386Z</time>
      </trkpt>
      <trkpt lat="41.70812" lon="44.70575">
        <ele>815.125862</ele>
        <time>2021-08-17T15:23:57.635Z</time>
      </trkpt>
      <trkpt lat="41.70836" lon="44.70586">
        <ele>813.01567</ele>
        <time>2021-08-17T15:24:01.403Z</time>
      </trkpt>
      <trkpt lat="41.70852" lon="44.70611">
        <ele>811.045969</ele>
        <time>2021-08-17T15:24:04.923Z</time>
      </trkpt>
      <trkpt lat="41.70856" lon="44.70626">
        <ele>810.06118</ele>
        <time>2021-08-17T15:24:06.671Z</time>
      </trkpt>
      <trkpt lat="41.70852" lon="44.70663">
        <ele>807.747411</ele>
        <time>2021-08-17T15:24:10.792Z</time>
      </trkpt>
      <trkpt lat="41.7079" lon="44.7082">
        <ele>796.880705</ele>
        <time>2021-08-17T15:24:30.147Z</time>
      </trkpt>
      <trkpt lat="41.70785" lon="44.70857">
        <ele>794.565819</ele>
        <time>2021-08-17T15:24:34.354Z</time>
      </trkpt>
      <trkpt lat="41.7079" lon="44.70882">
        <ele>792.994638</ele>
        <time>2021-08-17T15:24:37.209Z</time>
      </trkpt>
      <trkpt lat="41.7081" lon="44.70894">
        <ele>791.341334</ele>
        <time>2021-08-17T15:24:40.471Z</time>
      </trkpt>
      <trkpt lat="41.70827" lon="44.70894">
        <ele>790.009862</ele>
        <time>2021-08-17T15:24:42.999Z</time>
      </trkpt>
      <trkpt lat="41.70878" lon="44.70864">
        <ele>785.828301</ele>
        <time>2021-08-17T15:24:51.124Z</time>
      </trkpt>
      <trkpt lat="41.70905" lon="44.70857">
        <ele>783.727427</ele>
        <time>2021-08-17T15:24:55.234Z</time>
      </trkpt>
      <trkpt lat="41.70921" lon="44.70859">
        <ele>782.471212</ele>
        <time>2021-08-17T15:24:57.796Z</time>
      </trkpt>
      <trkpt lat="41.70928" lon="44.7087">
        <ele>781.646265</ele>
        <time>2021-08-17T15:24:59.373Z</time>
      </trkpt>
      <trkpt lat="41.70935" lon="44.70887">
        <ele>780.60806</ele>
        <time>2021-08-17T15:25:01.473Z</time>
      </trkpt>
      <trkpt lat="41.70936" lon="44.70905">
        <ele>779.573088</ele>
        <time>2021-08-17T15:25:03.550Z</time>
      </trkpt>
      <trkpt lat="41.70936" lon="44.70931">
        <ele>778.305189</ele>
        <time>2021-08-17T15:25:06.378Z</time>
      </trkpt>
      <trkpt lat="41.70925" lon="44.7101">
        <ele>774.380367</ele>
        <time>2021-08-17T15:25:15.444Z</time>
      </trkpt>
      <trkpt lat="41.70913" lon="44.7106">
        <ele>771.81166</ele>
        <time>2021-08-17T15:25:21.402Z</time>
      </trkpt>
      <trkpt lat="41.70898" lon="44.71112">
        <ele>769.122647</ele>
        <time>2021-08-17T15:25:27.642Z</time>
      </trkpt>
      <trkpt lat="41.70885" lon="44.71149">
        <ele>767.420474</ele>
        <time>2021-08-17T15:25:32.609Z</time>
      </trkpt>
      <trkpt lat="41.70863" lon="44.71197">
        <ele>765.981201</ele>
        <time>2021-08-17T15:25:39.381Z</time>
      </trkpt>
      <trkpt lat="41.70865" lon="44.71228">
        <ele>765.156026</ele>
        <time>2021-08-17T15:25:43.328Z</time>
      </trkpt>
      <trkpt lat="41.70871" lon="44.71249">
        <ele>764.586005</ele>
        <time>2021-08-17T15:25:46.061Z</time>
      </trkpt>
      <trkpt lat="41.70883" lon="44.7126">
        <ele>764.053587</ele>
        <time>2021-08-17T15:25:48.622Z</time>
      </trkpt>
      <trkpt lat="41.70898" lon="44.71267">
        <ele>763.51555</ele>
        <time>2021-08-17T15:25:51.305Z</time>
      </trkpt>
      <trkpt lat="41.70913" lon="44.71267">
        <ele>762.986227</ele>
        <time>2021-08-17T15:25:54.008Z</time>
      </trkpt>
      <trkpt lat="41.70927" lon="44.71264">
        <ele>762.505371</ele>
        <time>2021-08-17T15:25:56.519Z</time>
      </trkpt>
      <trkpt lat="41.7094" lon="44.71252">
        <ele>761.93817</ele>
        <time>2021-08-17T15:25:59.476Z</time>
      </trkpt>
      <trkpt lat="41.70963" lon="44.71212">
        <ele>761.124493</ele>
        <time>2021-08-17T15:26:06.568Z</time>
      </trkpt>
      <trkpt lat="41.70966" lon="44.71206">
        <ele>761.050315</ele>
        <time>2021-08-17T15:26:07.479Z</time>
      </trkpt>
      <trkpt lat="41.70985" lon="44.71152">
        <ele>760.39512</ele>
        <time>2021-08-17T15:26:15.956Z</time>
      </trkpt>
      <trkpt lat="41.70997" lon="44.71107">
        <ele>759.870869</ele>
        <time>2021-08-17T15:26:23.253Z</time>
      </trkpt>
      <trkpt lat="41.71006" lon="44.71067">
        <ele>759.417416</ele>
        <time>2021-08-17T15:26:29.497Z</time>
      </trkpt>
      <trkpt lat="41.71028" lon="44.70959">
        <ele>757.330716</ele>
        <time>2021-08-17T15:26:45.508Z</time>
      </trkpt>
      <trkpt lat="41.71038" lon="44.70853">
        <ele>754.705414</ele>
        <time>2021-08-17T15:26:59.152Z</time>
      </trkpt>
      <trkpt lat="41.71074" lon="44.70687">
        <ele>748.644241</ele>
        <time>2021-08-17T15:27:19.591Z</time>
      </trkpt>
      <trkpt lat="41.7109" lon="44.70653">
        <ele>746.926461</ele>
        <time>2021-08-17T15:27:24.204Z</time>
      </trkpt>
      <trkpt lat="41.71118" lon="44.7063">
        <ele>745.061763</ele>
        <time>2021-08-17T15:27:29.171Z</time>
      </trkpt>
      <trkpt lat="41.71143" lon="44.70596">
        <ele>743.033741</ele>
        <time>2021-08-17T15:27:34.619Z</time>
      </trkpt>
      <trkpt lat="41.7118" lon="44.70389">
        <ele>734.463079</ele>
        <time>2021-08-17T15:27:59.661Z</time>
      </trkpt>
      <trkpt lat="41.71208" lon="44.70293">
        <ele>730.65738</ele>
        <time>2021-08-17T15:28:11.772Z</time>
      </trkpt>
      <trkpt lat="41.71218" lon="44.70231">
        <ele>728.381297</ele>
        <time>2021-08-17T15:28:19.481Z</time>
      </trkpt>
      <trkpt lat="41.71219" lon="44.7022">
        <ele>727.999048</ele>
        <time>2021-08-17T15:28:20.671Z</time>
      </trkpt>
      <trkpt lat="41.71225" lon="44.70168">
        <ele>726.099091</ele>
        <time>2021-08-17T15:28:27.144Z</time>
      </trkpt>
      <trkpt lat="41.71232" lon="44.7011">
        <ele>723.969934</ele>
        <time>2021-08-17T15:28:34.286Z</time>
      </trkpt>
      <trkpt lat="41.71248" lon="44.69908">
        <ele>715.970911</ele>
        <time>2021-08-17T15:28:58.698Z</time>
      </trkpt>
      <trkpt lat="41.71255" lon="44.69876">
        <ele>714.488648</ele>
        <time>2021-08-17T15:29:02.505Z</time>
      </trkpt>
      <trkpt lat="41.71291" lon="44.6976">
        <ele>705.860007</ele>
        <time>2021-08-17T15:29:16.024Z</time>
      </trkpt>
      <trkpt lat="41.7131" lon="44.69725">
        <ele>702.931353</ele>
        <time>2021-08-17T15:29:20.536Z</time>
      </trkpt>
      <trkpt lat="41.71322" lon="44.69717">
        <ele>701.726114</ele>
        <time>2021-08-17T15:29:22.522Z</time>
      </trkpt>
      <trkpt lat="41.71329" lon="44.69715">
        <ele>701.096539</ele>
        <time>2021-08-17T15:29:23.447Z</time>
      </trkpt>
      <trkpt lat="41.71338" lon="44.69713">
        <ele>700.243633</ele>
        <time>2021-08-17T15:29:24.720Z</time>
      </trkpt>
      <trkpt lat="41.71367" lon="44.69725">
        <ele>697.649817</ele>
        <time>2021-08-17T15:29:29.066Z</time>
      </trkpt>
      <trkpt lat="41.71379" lon="44.69744">
        <ele>696.248012</ele>
        <time>2021-08-17T15:29:31.770Z</time>
      </trkpt>
      <trkpt lat="41.7139" lon="44.69765">
        <ele>694.835735</ele>
        <time>2021-08-17T15:29:34.433Z</time>
      </trkpt>
      <trkpt lat="41.71401" lon="44.69816">
        <ele>691.832556</ele>
        <time>2021-08-17T15:29:40.147Z</time>
      </trkpt>
      <trkpt lat="41.71401" lon="44.69976">
        <ele>683.756688</ele>
        <time>2021-08-17T15:29:58.689Z</time>
      </trkpt>
      <trkpt lat="41.71401" lon="44.69987">
        <ele>683.383836</ele>
        <time>2021-08-17T15:30:00.091Z</time>
      </trkpt>
      <trkpt lat="41.7141" lon="44.7008">
        <ele>680.353219</ele>
        <time>2021-08-17T15:30:12.228Z</time>
      </trkpt>
      <trkpt lat="41.71386" lon="44.70166">
        <ele>677.349303</ele>
        <time>2021-08-17T15:30:23.663Z</time>
      </trkpt>
      <trkpt lat="41.71365" lon="44.70484">
        <ele>661.518841</ele>
        <time>2021-08-17T15:30:59.877Z</time>
      </trkpt>
      <trkpt lat="41.71381" lon="44.70595">
        <ele>654.728036</ele>
        <time>2021-08-17T15:31:12.090Z</time>
      </trkpt>
      <trkpt lat="41.71379" lon="44.70665">
        <ele>650.467411</ele>
        <time>2021-08-17T15:31:19.704Z</time>
      </trkpt>
      <trkpt lat="41.71366" lon="44.70738">
        <ele>645.860819</ele>
        <time>2021-08-17T15:31:27.805Z</time>
      </trkpt>
      <trkpt lat="41.71332" lon="44.70837">
        <ele>639.142235</ele>
        <time>2021-08-17T15:31:39.807Z</time>
      </trkpt>
      <trkpt lat="41.7132" lon="44.70888">
        <ele>635.922705</ele>
        <time>2021-08-17T15:31:45.648Z</time>
      </trkpt>
      <trkpt lat="41.71304" lon="44.71035">
        <ele>627.081965</ele>
        <time>2021-08-17T15:32:02.140Z</time>
      </trkpt>
      <trkpt lat="41.71299" lon="44.71337">
        <ele>607.995671</ele>
        <time>2021-08-17T15:32:35.019Z</time>
      </trkpt>
      <trkpt lat="41.71305" lon="44.71505">
        <ele>596.814886</ele>
        <time>2021-08-17T15:32:53.119Z</time>
      </trkpt>
      <trkpt lat="41.71305" lon="44.71737">
        <ele>581.170156</ele>
        <time>2021-08-17T15:33:18.205Z</time>
      </trkpt>
      <trkpt lat="41.71302" lon="44.71771">
        <ele>578.904081</ele>
        <time>2021-08-17T15:33:21.833Z</time>
      </trkpt>
      <trkpt lat="41.71273" lon="44.71994">
        <ele>563.588837</ele>
        <time>2021-08-17T15:33:46.366Z</time>
      </trkpt>
      <trkpt lat="41.7126" lon="44.72098">
        <ele>556.557247</ele>
        <time>2021-08-17T15:33:57.663Z</time>
      </trkpt>
      <trkpt lat="41.71259" lon="44.72118">
        <ele>555.266149</ele>
        <time>2021-08-17T15:33:59.765Z</time>
      </trkpt>
      <trkpt lat="41.71257" lon="44.72136">
        <ele>554.073948</ele>
        <time>2021-08-17T15:34:01.801Z</time>
      </trkpt>
      <trkpt lat="41.71256" lon="44.72153">
        <ele>552.958551</ele>
        <time>2021-08-17T15:34:03.668Z</time>
      </trkpt>
      <trkpt lat="41.71255" lon="44.72168">
        <ele>552.03647</ele>
        <time>2021-08-17T15:34:05.180Z</time>
      </trkpt>
      <trkpt lat="41.71253" lon="44.7227">
        <ele>545.411819</ele>
        <time>2021-08-17T15:34:16.314Z</time>
      </trkpt>
      <trkpt lat="41.7125" lon="44.72311">
        <ele>542.806394</ele>
        <time>2021-08-17T15:34:20.706Z</time>
      </trkpt>
      <trkpt lat="41.71243" lon="44.72345">
        <ele>541.824711</ele>
        <time>2021-08-17T15:34:24.727Z</time>
      </trkpt>
      <trkpt lat="41.71232" lon="44.72378">
        <ele>541.097976</ele>
        <time>2021-08-17T15:34:29.000Z</time>
      </trkpt>
      <trkpt lat="41.71213" lon="44.72416">
        <ele>540.192018</ele>
        <time>2021-08-17T15:34:34.608Z</time>
      </trkpt>
      <trkpt lat="41.71192" lon="44.72462">
        <ele>539.12498</ele>
        <time>2021-08-17T15:34:41.710Z</time>
      </trkpt>
      <trkpt lat="41.71094" lon="44.72669">
        <ele>539.863246</ele>
        <time>2021-08-17T15:35:39.834Z</time>
      </trkpt>
      <trkpt lat="41.71079" lon="44.72704">
        <ele>540.393612</ele>
        <time>2021-08-17T15:35:50.229Z</time>
      </trkpt>
      <trkpt lat="41.71058" lon="44.72748">
        <ele>540.577665</ele>
        <time>2021-08-17T15:36:02.629Z</time>
      </trkpt>
      <trkpt lat="41.71051" lon="44.72767">
        <ele>540.330097</ele>
        <time>2021-08-17T15:36:07.038Z</time>
      </trkpt>
      <trkpt lat="41.71044" lon="44.72801">
        <ele>539.934866</ele>
        <time>2021-08-17T15:36:14.029Z</time>
      </trkpt>
      <trkpt lat="41.71039" lon="44.72823">
        <ele>539.671655</ele>
        <time>2021-08-17T15:36:17.425Z</time>
      </trkpt>
      <trkpt lat="41.71024" lon="44.73016">
        <ele>536.519618</ele>
        <time>2021-08-17T15:36:42.145Z</time>
      </trkpt>
      <trkpt lat="41.71021" lon="44.73052">
        <ele>535.470861</ele>
        <time>2021-08-17T15:36:46.554Z</time>
      </trkpt>
      <trkpt lat="41.71016" lon="44.73087">
        <ele>534.440513</ele>
        <time>2021-08-17T15:36:51.026Z</time>
      </trkpt>
      <trkpt lat="41.71013" lon="44.73107">
        <ele>533.830853</ele>
        <time>2021-08-17T15:36:53.630Z</time>
      </trkpt>
      <trkpt lat="41.71008" lon="44.73155">
        <ele>532.434974</ele>
        <time>2021-08-17T15:36:59.390Z</time>
      </trkpt>
      <trkpt lat="41.71003" lon="44.73195">
        <ele>531.256454</ele>
        <time>2021-08-17T15:37:04.236Z</time>
      </trkpt>
      <trkpt lat="41.71002" lon="44.73206">
        <ele>531.009862</ele>
        <time>2021-08-17T15:37:05.583Z</time>
      </trkpt>
      <trkpt lat="41.70995" lon="44.73263">
        <ele>530.342731</ele>
        <time>2021-08-17T15:37:12.873Z</time>
      </trkpt>
      <trkpt lat="41.70989" lon="44.73293">
        <ele>529.980453</ele>
        <time>2021-08-17T15:37:17.077Z</time>
      </trkpt>
      <trkpt lat="41.70982" lon="44.73319">
        <ele>529.671271</ele>
        <time>2021-08-17T15:37:21.748Z</time>
      </trkpt>
      <trkpt lat="41.70977" lon="44.7333">
        <ele>529.527036</ele>
        <time>2021-08-17T15:37:23.533Z</time>
      </trkpt>
      <trkpt lat="41.70971" lon="44.73344">
        <ele>529.337142</ele>
        <time>2021-08-17T15:37:25.817Z</time>
      </trkpt>
      <trkpt lat="41.70954" lon="44.73364">
        <ele>528.992857</ele>
        <time>2021-08-17T15:37:31.465Z</time>
      </trkpt>
      <trkpt lat="41.70939" lon="44.7337">
        <ele>528.739895</ele>
        <time>2021-08-17T15:37:34.583Z</time>
      </trkpt>
      <trkpt lat="41.7092" lon="44.73371">
        <ele>528.451337</ele>
        <time>2021-08-17T15:37:39.599Z</time>
      </trkpt>
      <trkpt lat="41.70894" lon="44.73371">
        <ele>528.68424</ele>
        <time>2021-08-17T15:37:45.506Z</time>
      </trkpt>
      <trkpt lat="41.70875" lon="44.73371">
        <ele>529.145453</ele>
        <time>2021-08-17T15:37:49.338Z</time>
      </trkpt>
      <trkpt lat="41.70866" lon="44.73373">
        <ele>529.35337</ele>
        <time>2021-08-17T15:37:51.156Z</time>
      </trkpt>
      <trkpt lat="41.70838" lon="44.73385">
        <ele>530.083808</ele>
        <time>2021-08-17T15:38:01.153Z</time>
      </trkpt>
      <trkpt lat="41.7076" lon="44.7343">
        <ele>532.158029</ele>
        <time>2021-08-17T15:38:35.736Z</time>
      </trkpt>
      <trkpt lat="41.7074" lon="44.73461">
        <ele>533.028914</ele>
        <time>2021-08-17T15:38:49.023Z</time>
      </trkpt>
      <trkpt lat="41.70727" lon="44.73492">
        <ele>533.995701</ele>
        <time>2021-08-17T15:39:00.506Z</time>
      </trkpt>
      <trkpt lat="41.70721" lon="44.73497">
        <ele>534.237926</ele>
        <time>2021-08-17T15:39:02.760Z</time>
      </trkpt>
      <trkpt lat="41.70697" lon="44.7353">
        <ele>535.489959</ele>
        <time>2021-08-17T15:39:14.929Z</time>
      </trkpt>
      <trkpt lat="41.70627" lon="44.73547">
        <ele>538.066094</ele>
        <time>2021-08-17T15:39:42.515Z</time>
      </trkpt>
      <trkpt lat="41.70586" lon="44.73574">
        <ele>539.825942</ele>
        <time>2021-08-17T15:40:02.732Z</time>
      </trkpt>
      <trkpt lat="41.7058" lon="44.73585">
        <ele>540.264386</ele>
        <time>2021-08-17T15:40:07.536Z</time>
      </trkpt>
      <trkpt lat="41.70578" lon="44.73595">
        <ele>540.606738</ele>
        <time>2021-08-17T15:40:11.091Z</time>
      </trkpt>
      <trkpt lat="41.70578" lon="44.73613">
        <ele>541.196433</ele>
        <time>2021-08-17T15:40:16.958Z</time>
      </trkpt>
      <trkpt lat="41.70581" lon="44.73626">
        <ele>541.65201</ele>
        <time>2021-08-17T15:40:21.500Z</time>
      </trkpt>
      <trkpt lat="41.70599" lon="44.73662">
        <ele>543.047327</ele>
        <time>2021-08-17T15:40:36.151Z</time>
      </trkpt>
      <trkpt lat="41.70618" lon="44.7368">
        <ele>544.080473</ele>
        <time>2021-08-17T15:40:47.413Z</time>
      </trkpt>
      <trkpt lat="41.70674" lon="44.73718">
        <ele>546.833875</ele>
        <time>2021-08-17T15:41:15.880Z</time>
      </trkpt>
      <trkpt lat="41.70721" lon="44.73748">
        <ele>547.074171</ele>
        <time>2021-08-17T15:41:36.842Z</time>
      </trkpt>
      <trkpt lat="41.70756" lon="44.73781">
        <ele>547.049899</ele>
        <time>2021-08-17T15:41:50.202Z</time>
      </trkpt>
      <trkpt lat="41.70779" lon="44.73821">
        <ele>547.02866</ele>
        <time>2021-08-17T15:41:58.024Z</time>
      </trkpt>
      <trkpt lat="41.70806" lon="44.73883">
        <ele>546.991865</ele>
        <time>2021-08-17T15:42:07.523Z</time>
      </trkpt>
      <trkpt lat="41.70917" lon="44.74064">
        <ele>534.476978</ele>
        <time>2021-08-17T15:42:33.539Z</time>
      </trkpt>
      <trkpt lat="41.70927" lon="44.74081">
        <ele>533.068172</ele>
        <time>2021-08-17T15:42:35.682Z</time>
      </trkpt>
      <trkpt lat="41.70943" lon="44.74112">
        <ele>530.169807</ele>
        <time>2021-08-17T15:42:39.831Z</time>
      </trkpt>
      <trkpt lat="41.7096" lon="44.74143">
        <ele>527.361571</ele>
        <time>2021-08-17T15:42:43.829Z</time>
      </trkpt>
      <trkpt lat="41.70974" lon="44.74166">
        <ele>525.145702</ele>
        <time>2021-08-17T15:42:46.931Z</time>
      </trkpt>
      <trkpt lat="41.70985" lon="44.74186">
        <ele>523.235877</ele>
        <time>2021-08-17T15:42:49.686Z</time>
      </trkpt>
      <trkpt lat="41.71007" lon="44.74226">
        <ele>519.535817</ele>
        <time>2021-08-17T15:42:54.855Z</time>
      </trkpt>
      <trkpt lat="41.71014" lon="44.74238">
        <ele>518.433542</ele>
        <time>2021-08-17T15:42:56.366Z</time>
      </trkpt>
      <trkpt lat="41.7102" lon="44.74249">
        <ele>517.385005</ele>
        <time>2021-08-17T15:42:57.890Z</time>
      </trkpt>
      <trkpt lat="41.71076" lon="44.74347">
        <ele>509.303429</ele>
        <time>2021-08-17T15:43:10.966Z</time>
      </trkpt>
      <trkpt lat="41.71083" lon="44.7436">
        <ele>508.210465</ele>
        <time>2021-08-17T15:43:12.865Z</time>
      </trkpt>
      <trkpt lat="41.71095" lon="44.74381">
        <ele>506.509031</ele>
        <time>2021-08-17T15:43:15.707Z</time>
      </trkpt>
      <trkpt lat="41.71113" lon="44.74428">
        <ele>503.1645</ele>
        <time>2021-08-17T15:43:21.462Z</time>
      </trkpt>
      <trkpt lat="41.71121" lon="44.74468">
        <ele>500.537752</ele>
        <time>2021-08-17T15:43:26.066Z</time>
      </trkpt>
      <trkpt lat="41.71139" lon="44.7465">
        <ele>492.551111</ele>
        <time>2021-08-17T15:43:47.050Z</time>
      </trkpt>
      <trkpt lat="41.71141" lon="44.7467">
        <ele>491.682911</ele>
        <time>2021-08-17T15:43:49.457Z</time>
      </trkpt>
      <trkpt lat="41.71144" lon="44.74702">
        <ele>490.273301</ele>
        <time>2021-08-17T15:43:53.504Z</time>
      </trkpt>
      <trkpt lat="41.71154" lon="44.74799">
        <ele>488.431912</ele>
        <time>2021-08-17T15:44:06.297Z</time>
      </trkpt>
      <trkpt lat="41.71159" lon="44.74836">
        <ele>487.759033</ele>
        <time>2021-08-17T15:44:11.304Z</time>
      </trkpt>
      <trkpt lat="41.71164" lon="44.74905">
        <ele>486.509483</ele>
        <time>2021-08-17T15:44:20.681Z</time>
      </trkpt>
      <trkpt lat="41.71164" lon="44.74907">
        <ele>486.478347</ele>
        <time>2021-08-17T15:44:21.136Z</time>
      </trkpt>
      <trkpt lat="41.71169" lon="44.74958">
        <ele>485.697072</ele>
        <time>2021-08-17T15:44:28.666Z</time>
      </trkpt>
      <trkpt lat="41.71174" lon="44.75012">
        <ele>485.302263</ele>
        <time>2021-08-17T15:44:36.921Z</time>
      </trkpt>
      <trkpt lat="41.71181" lon="44.75102">
        <ele>484.643071</ele>
        <time>2021-08-17T15:44:50.865Z</time>
      </trkpt>
      <trkpt lat="41.71179" lon="44.75184">
        <ele>484.04518</ele>
        <time>2021-08-17T15:45:03.380Z</time>
      </trkpt>
      <trkpt lat="41.71177" lon="44.75317">
        <ele>483.502002</ele>
        <time>2021-08-17T15:45:24.822Z</time>
      </trkpt>
      <trkpt lat="41.71171" lon="44.75358">
        <ele>483.331719</ele>
        <time>2021-08-17T15:45:32.006Z</time>
      </trkpt>
      <trkpt lat="41.71168" lon="44.75365">
        <ele>483.30099</ele>
        <time>2021-08-17T15:45:33.220Z</time>
      </trkpt>
      <trkpt lat="41.71167" lon="44.75372">
        <ele>483.272857</ele>
        <time>2021-08-17T15:45:34.222Z</time>
      </trkpt>
      <trkpt lat="41.71163" lon="44.75397">
        <ele>483.165596</ele>
        <time>2021-08-17T15:45:38.473Z</time>
      </trkpt>
      <trkpt lat="41.71161" lon="44.75397">
        <ele>483.156262</ele>
        <time>2021-08-17T15:45:38.815Z</time>
      </trkpt>
      <trkpt lat="41.71159" lon="44.75413">
        <ele>483.090535</ele>
        <time>2021-08-17T15:45:41.489Z</time>
      </trkpt>
      <trkpt lat="41.71155" lon="44.75433">
        <ele>483.017782</ele>
        <time>2021-08-17T15:45:44.861Z</time>
      </trkpt>
      <trkpt lat="41.71138" lon="44.75547">
        <ele>482.632349</ele>
        <time>2021-08-17T15:46:04.108Z</time>
      </trkpt>
      <trkpt lat="41.71138" lon="44.75552">
        <ele>482.618094</ele>
        <time>2021-08-17T15:46:04.800Z</time>
      </trkpt>
      <trkpt lat="41.71137" lon="44.75559">
        <ele>482.593188</ele>
        <time>2021-08-17T15:46:05.932Z</time>
      </trkpt>
      <trkpt lat="41.71086" lon="44.75876">
        <ele>481.502005</ele>
        <time>2021-08-17T15:46:59.126Z</time>
      </trkpt>
      <trkpt lat="41.71082" lon="44.759">
        <ele>481.396691</ele>
        <time>2021-08-17T15:47:03.338Z</time>
      </trkpt>
      <trkpt lat="41.7108" lon="44.7591">
        <ele>481.340018</ele>
        <time>2021-08-17T15:47:05.015Z</time>
      </trkpt>
      <trkpt lat="41.71069" lon="44.75972">
        <ele>480.996384</ele>
        <time>2021-08-17T15:47:15.563Z</time>
      </trkpt>
      <trkpt lat="41.71041" lon="44.76128">
        <ele>480.121991</ele>
        <time>2021-08-17T15:47:40.635Z</time>
      </trkpt>
      <trkpt lat="41.71035" lon="44.76145">
        <ele>480.001783</ele>
        <time>2021-08-17T15:47:43.586Z</time>
      </trkpt>
      <trkpt lat="41.71033" lon="44.76152">
        <ele>479.95741</ele>
        <time>2021-08-17T15:47:44.913Z</time>
      </trkpt>
      <trkpt lat="41.71027" lon="44.76185">
        <ele>479.754992</ele>
        <time>2021-08-17T15:47:50.422Z</time>
      </trkpt>
      <trkpt lat="41.71027" lon="44.76189">
        <ele>479.730881</ele>
        <time>2021-08-17T15:47:50.939Z</time>
      </trkpt>
      <trkpt lat="41.71027" lon="44.76194">
        <ele>479.70098</ele>
        <time>2021-08-17T15:47:51.655Z</time>
      </trkpt>
      <trkpt lat="41.71023" lon="44.76233">
        <ele>479.458979</ele>
        <time>2021-08-17T15:47:58.388Z</time>
      </trkpt>
      <trkpt lat="41.71024" lon="44.76235">
        <ele>479.449196</ele>
        <time>2021-08-17T15:47:58.570Z</time>
      </trkpt>
      <trkpt lat="41.71022" lon="44.76246">
        <ele>479.380366</ele>
        <time>2021-08-17T15:48:00.345Z</time>
      </trkpt>
      <trkpt lat="41.71021" lon="44.76264">
        <ele>479.266982</ele>
        <time>2021-08-17T15:48:03.550Z</time>
      </trkpt>
      <trkpt lat="41.71021" lon="44.76269">
        <ele>479.241379</ele>
        <time>2021-08-17T15:48:04.193Z</time>
      </trkpt>
      <trkpt lat="41.71022" lon="44.7627">
        <ele>479.228469</ele>
        <time>2021-08-17T15:48:04.577Z</time>
      </trkpt>
      <trkpt lat="41.71023" lon="44.76309">
        <ele>478.994354</ele>
        <time>2021-08-17T15:48:10.603Z</time>
      </trkpt>
      <trkpt lat="41.71022" lon="44.7633">
        <ele>478.866234</ele>
        <time>2021-08-17T15:48:13.843Z</time>
      </trkpt>
      <trkpt lat="41.71019" lon="44.76354">
        <ele>478.720394</ele>
        <time>2021-08-17T15:48:17.600Z</time>
      </trkpt>
      <trkpt lat="41.7101" lon="44.76449">
        <ele>477.667745</ele>
        <time>2021-08-17T15:48:32.550Z</time>
      </trkpt>
      <trkpt lat="41.71005" lon="44.76492">
        <ele>477.181919</ele>
        <time>2021-08-17T15:48:39.152Z</time>
      </trkpt>
      <trkpt lat="41.71004" lon="44.76502">
        <ele>477.061175</ele>
        <time>2021-08-17T15:48:40.646Z</time>
      </trkpt>
      <trkpt lat="41.70987" lon="44.76639">
        <ele>475.374107</ele>
        <time>2021-08-17T15:49:00.681Z</time>
      </trkpt>
      <trkpt lat="41.70985" lon="44.76663">
        <ele>475.033701</ele>
        <time>2021-08-17T15:49:03.991Z</time>
      </trkpt>
      <trkpt lat="41.70978" lon="44.7672">
        <ele>474.205877</ele>
        <time>2021-08-17T15:49:12.221Z</time>
      </trkpt>
      <trkpt lat="41.70976" lon="44.76732">
        <ele>474.038027</ele>
        <time>2021-08-17T15:49:13.879Z</time>
      </trkpt>
      <trkpt lat="41.70973" lon="44.76753">
        <ele>473.729669</ele>
        <time>2021-08-17T15:49:16.938Z</time>
      </trkpt>
      <trkpt lat="41.70965" lon="44.768">
        <ele>473.045671</ele>
        <time>2021-08-17T15:49:23.928Z</time>
      </trkpt>
      <trkpt lat="41.7096" lon="44.76828">
        <ele>472.627828</ele>
        <time>2021-08-17T15:49:28.376Z</time>
      </trkpt>
      <trkpt lat="41.70954" lon="44.76863">
        <ele>472.34075</ele>
        <time>2021-08-17T15:49:33.655Z</time>
      </trkpt>
      <trkpt lat="41.70953" lon="44.76865">
        <ele>472.322464</ele>
        <time>2021-08-17T15:49:34.080Z</time>
      </trkpt>
      <trkpt lat="41.70947" lon="44.7688">
        <ele>472.21936</ele>
        <time>2021-08-17T15:49:36.648Z</time>
      </trkpt>
      <trkpt lat="41.70936" lon="44.76943">
        <ele>471.810896</ele>
        <time>2021-08-17T15:49:47.042Z</time>
      </trkpt>
      <trkpt lat="41.70935" lon="44.76949">
        <ele>471.772174</ele>
        <time>2021-08-17T15:49:48.042Z</time>
      </trkpt>
      <trkpt lat="41.70935" lon="44.76953">
        <ele>471.7488</ele>
        <time>2021-08-17T15:49:48.661Z</time>
      </trkpt>
      <trkpt lat="41.70936" lon="44.76955">
        <ele>471.732936</ele>
        <time>2021-08-17T15:49:49.063Z</time>
      </trkpt>
      <trkpt lat="41.70937" lon="44.76959">
        <ele>471.704159</ele>
        <time>2021-08-17T15:49:49.919Z</time>
      </trkpt>
      <trkpt lat="41.70934" lon="44.76977">
        <ele>471.593532</ele>
        <time>2021-08-17T15:49:52.888Z</time>
      </trkpt>
      <trkpt lat="41.70932" lon="44.76988">
        <ele>471.522333</ele>
        <time>2021-08-17T15:49:54.797Z</time>
      </trkpt>
      <trkpt lat="41.70927" lon="44.77022">
        <ele>471.301944</ele>
        <time>2021-08-17T15:50:00.777Z</time>
      </trkpt>
      <trkpt lat="41.70923" lon="44.77046">
        <ele>471.152653</ele>
        <time>2021-08-17T15:50:04.742Z</time>
      </trkpt>
      <trkpt lat="41.70881" lon="44.77286">
        <ele>468.70776</ele>
        <time>2021-08-17T15:50:42.333Z</time>
      </trkpt>
      <trkpt lat="41.70881" lon="44.77288">
        <ele>468.693311</ele>
        <time>2021-08-17T15:50:42.489Z</time>
      </trkpt>
      <trkpt lat="41.70881" lon="44.77299">
        <ele>468.577955</ele>
        <time>2021-08-17T15:50:44.148Z</time>
      </trkpt>
      <trkpt lat="41.7088" lon="44.77337">
        <ele>467.998865</ele>
        <time>2021-08-17T15:50:49.438Z</time>
      </trkpt>
      <trkpt lat="41.70882" lon="44.77372">
        <ele>467.43722</ele>
        <time>2021-08-17T15:50:54.481Z</time>
      </trkpt>
      <trkpt lat="41.70908" lon="44.7749">
        <ele>465.47551</ele>
        <time>2021-08-17T15:51:11.967Z</time>
      </trkpt>
      <trkpt lat="41.70911" lon="44.77496">
        <ele>465.364224</ele>
        <time>2021-08-17T15:51:12.870Z</time>
      </trkpt>
      <trkpt lat="41.70916" lon="44.77526">
        <ele>464.8721</ele>
        <time>2021-08-17T15:51:17.238Z</time>
      </trkpt>
      <trkpt lat="41.7094" lon="44.77697">
        <ele>462.507481</ele>
        <time>2021-08-17T15:51:42.312Z</time>
      </trkpt>
      <trkpt lat="41.70941" lon="44.77707">
        <ele>462.377562</ele>
        <time>2021-08-17T15:51:43.817Z</time>
      </trkpt>
      <trkpt lat="41.70942" lon="44.7772">
        <ele>462.196807</ele>
        <time>2021-08-17T15:51:45.764Z</time>
      </trkpt>
      <trkpt lat="41.70939" lon="44.77767">
        <ele>461.570986</ele>
        <time>2021-08-17T15:51:52.918Z</time>
      </trkpt>
      <trkpt lat="41.70937" lon="44.77778">
        <ele>461.443178</ele>
        <time>2021-08-17T15:51:54.516Z</time>
      </trkpt>
      <trkpt lat="41.70934" lon="44.77793">
        <ele>461.345049</ele>
        <time>2021-08-17T15:51:57.076Z</time>
      </trkpt>
      <trkpt lat="41.70919" lon="44.77847">
        <ele>460.983495</ele>
        <time>2021-08-17T15:52:05.900Z</time>
      </trkpt>
      <trkpt lat="41.70918" lon="44.7785">
        <ele>460.964369</ele>
        <time>2021-08-17T15:52:06.301Z</time>
      </trkpt>
      <trkpt lat="41.70917" lon="44.77857">
        <ele>460.913609</ele>
        <time>2021-08-17T15:52:07.566Z</time>
      </trkpt>
      <trkpt lat="41.70903" lon="44.77916">
        <ele>460.529625</ele>
        <time>2021-08-17T15:52:16.768Z</time>
      </trkpt>
      <trkpt lat="41.70908" lon="44.77923">
        <ele>460.468178</ele>
        <time>2021-08-17T15:52:18.321Z</time>
      </trkpt>
      <trkpt lat="41.70904" lon="44.77945">
        <ele>460.330541</ele>
        <time>2021-08-17T15:52:22.046Z</time>
      </trkpt>
      <trkpt lat="41.70898" lon="44.77975">
        <ele>460.132228</ele>
        <time>2021-08-17T15:52:26.999Z</time>
      </trkpt>
      <trkpt lat="41.70897" lon="44.77988">
        <ele>460.05003</ele>
        <time>2021-08-17T15:52:29.027Z</time>
      </trkpt>
      <trkpt lat="41.70859" lon="44.78135">
        <ele>460.129586</ele>
        <time>2021-08-17T15:52:58.208Z</time>
      </trkpt>
      <trkpt lat="41.70847" lon="44.78171">
        <ele>460.180511</ele>
        <time>2021-08-17T15:53:05.547Z</time>
      </trkpt>
      <trkpt lat="41.70839" lon="44.78194">
        <ele>460.213899</ele>
        <time>2021-08-17T15:53:09.980Z</time>
      </trkpt>
      <trkpt lat="41.70825" lon="44.78232">
        <ele>460.197108</ele>
        <time>2021-08-17T15:53:16.841Z</time>
      </trkpt>
      <trkpt lat="41.70822" lon="44.78242">
        <ele>460.051999</ele>
        <time>2021-08-17T15:53:18.678Z</time>
      </trkpt>
      <trkpt lat="41.70818" lon="44.78252">
        <ele>459.9193</ele>
        <time>2021-08-17T15:53:20.312Z</time>
      </trkpt>
      <trkpt lat="41.70792" lon="44.78325">
        <ele>458.902142</ele>
        <time>2021-08-17T15:53:32.216Z</time>
      </trkpt>
      <trkpt lat="41.70767" lon="44.78394">
        <ele>457.93535</ele>
        <time>2021-08-17T15:53:42.920Z</time>
      </trkpt>
      <trkpt lat="41.70744" lon="44.78454">
        <ele>456.955131</ele>
        <time>2021-08-17T15:53:51.626Z</time>
      </trkpt>
      <trkpt lat="41.70733" lon="44.78485">
        <ele>456.07935</ele>
        <time>2021-08-17T15:53:55.963Z</time>
      </trkpt>
      <trkpt lat="41.70708" lon="44.7855">
        <ele>454.25008</ele>
        <time>2021-08-17T15:54:05.025Z</time>
      </trkpt>
      <trkpt lat="41.70692" lon="44.7859">
        <ele>453.123551</ele>
        <time>2021-08-17T15:54:10.673Z</time>
      </trkpt>
      <trkpt lat="41.70685" lon="44.78609">
        <ele>452.588512</ele>
        <time>2021-08-17T15:54:13.354Z</time>
      </trkpt>
      <trkpt lat="41.70664" lon="44.7866">
        <ele>451.137925</ele>
        <time>2021-08-17T15:54:20.966Z</time>
      </trkpt>
      <trkpt lat="41.70654" lon="44.78682">
        <ele>450.692465</ele>
        <time>2021-08-17T15:54:24.339Z</time>
      </trkpt>
      <trkpt lat="41.70648" lon="44.78698">
        <ele>450.369875</ele>
        <time>2021-08-17T15:54:26.684Z</time>
      </trkpt>
      <trkpt lat="41.70644" lon="44.78704">
        <ele>450.240053</ele>
        <time>2021-08-17T15:54:27.679Z</time>
      </trkpt>
      <trkpt lat="41.70639" lon="44.78714">
        <ele>450.025619</ele>
        <time>2021-08-17T15:54:29.307Z</time>
      </trkpt>
      <trkpt lat="41.70631" lon="44.78728">
        <ele>449.713794</ele>
        <time>2021-08-17T15:54:31.619Z</time>
      </trkpt>
      <trkpt lat="41.70614" lon="44.78755">
        <ele>449.084326</ele>
        <time>2021-08-17T15:54:36.275Z</time>
      </trkpt>
      <trkpt lat="41.7061" lon="44.7876">
        <ele>448.96283</ele>
        <time>2021-08-17T15:54:37.238Z</time>
      </trkpt>
      <trkpt lat="41.70602" lon="44.78773">
        <ele>448.656785</ele>
        <time>2021-08-17T15:54:39.470Z</time>
      </trkpt>
      <trkpt lat="41.70566" lon="44.7883">
        <ele>447.353116</ele>
        <time>2021-08-17T15:54:49.821Z</time>
      </trkpt>
      <trkpt lat="41.70536" lon="44.78875">
        <ele>446.293316</ele>
        <time>2021-08-17T15:54:58.234Z</time>
      </trkpt>
      <trkpt lat="41.70528" lon="44.78887">
        <ele>446.022691</ele>
        <time>2021-08-17T15:55:00.308Z</time>
      </trkpt>
      <trkpt lat="41.70488" lon="44.78948">
        <ele>444.607694</ele>
        <time>2021-08-17T15:55:12.652Z</time>
      </trkpt>
      <trkpt lat="41.70435" lon="44.78999">
        <ele>443.095244</ele>
        <time>2021-08-17T15:55:23.984Z</time>
      </trkpt>
      <trkpt lat="41.70422" lon="44.79009">
        <ele>442.706728</ele>
        <time>2021-08-17T15:55:26.452Z</time>
      </trkpt>
      <trkpt lat="41.70403" lon="44.79023">
        <ele>441.2613</ele>
        <time>2021-08-17T15:55:29.919Z</time>
      </trkpt>
      <trkpt lat="41.70391" lon="44.79031">
        <ele>440.331381</ele>
        <time>2021-08-17T15:55:32.321Z</time>
      </trkpt>
      <trkpt lat="41.70387" lon="44.79035">
        <ele>440.049942</ele>
        <time>2021-08-17T15:55:33.039Z</time>
      </trkpt>
      <trkpt lat="41.70385" lon="44.79041">
        <ele>439.743695</ele>
        <time>2021-08-17T15:55:33.813Z</time>
      </trkpt>
      <trkpt lat="41.70385" lon="44.7905">
        <ele>439.284179</ele>
        <time>2021-08-17T15:55:34.838Z</time>
      </trkpt>
      <trkpt lat="41.70387" lon="44.79052">
        <ele>439.125724</ele>
        <time>2021-08-17T15:55:35.171Z</time>
      </trkpt>
      <trkpt lat="41.70388" lon="44.79055">
        <ele>438.955417</ele>
        <time>2021-08-17T15:55:35.531Z</time>
      </trkpt>
      <trkpt lat="41.70417" lon="44.79105">
        <ele>435.863317</ele>
        <time>2021-08-17T15:55:42.603Z</time>
      </trkpt>
      <trkpt lat="41.70449" lon="44.79161">
        <ele>432.3472</ele>
        <time>2021-08-17T15:55:50.916Z</time>
      </trkpt>
      <trkpt lat="41.70456" lon="44.79167">
        <ele>431.844104</ele>
        <time>2021-08-17T15:55:52.022Z</time>
      </trkpt>
      <trkpt lat="41.70476" lon="44.79183">
        <ele>430.111501</ele>
        <time>2021-08-17T15:55:55.688Z</time>
      </trkpt>
      <trkpt lat="41.70489" lon="44.79182">
        <ele>428.969233</ele>
        <time>2021-08-17T15:55:57.623Z</time>
      </trkpt>
      <trkpt lat="41.70495" lon="44.79182">
        <ele>428.449792</ele>
        <time>2021-08-17T15:55:58.496Z</time>
      </trkpt>
      <trkpt lat="41.70502" lon="44.79181">
        <ele>427.870643</ele>
        <time>2021-08-17T15:55:59.466Z</time>
      </trkpt>
      <trkpt lat="41.70504" lon="44.7918">
        <ele>427.650915</ele>
        <time>2021-08-17T15:55:59.805Z</time>
      </trkpt>
      <trkpt lat="41.7061" lon="44.79138">
        <ele>418.127319</ele>
        <time>2021-08-17T15:56:15.623Z</time>
      </trkpt>
      <trkpt lat="41.70649" lon="44.79128">
        <ele>415.013195</ele>
        <time>2021-08-17T15:56:21.413Z</time>
      </trkpt>
      <trkpt lat="41.7068" lon="44.79107">
        <ele>413.630419</ele>
        <time>2021-08-17T15:56:26.798Z</time>
      </trkpt>
      <trkpt lat="41.70704" lon="44.79103">
        <ele>412.678051</ele>
        <time>2021-08-17T15:56:30.781Z</time>
      </trkpt>
      <trkpt lat="41.70711" lon="44.79109">
        <ele>412.346293</ele>
        <time>2021-08-17T15:56:32.018Z</time>
      </trkpt>
      <trkpt lat="41.70718" lon="44.79118">
        <ele>411.979262</ele>
        <time>2021-08-17T15:56:33.517Z</time>
      </trkpt>
      <trkpt lat="41.70726" lon="44.79134">
        <ele>411.393366</ele>
        <time>2021-08-17T15:56:36.162Z</time>
      </trkpt>
      <trkpt lat="41.70733" lon="44.7915">
        <ele>410.867925</ele>
        <time>2021-08-17T15:56:38.282Z</time>
      </trkpt>
      <trkpt lat="41.7073" lon="44.79152">
        <ele>410.739971</ele>
        <time>2021-08-17T15:56:38.820Z</time>
      </trkpt>
      <trkpt lat="41.70728" lon="44.79155">
        <ele>410.616572</ele>
        <time>2021-08-17T15:56:39.352Z</time>
      </trkpt>
      <trkpt lat="41.70727" lon="44.79159">
        <ele>410.490523</ele>
        <time>2021-08-17T15:56:39.894Z</time>
      </trkpt>
      <trkpt lat="41.70726" lon="44.79163">
        <ele>410.365598</ele>
        <time>2021-08-17T15:56:40.520Z</time>
      </trkpt>
      <trkpt lat="41.70726" lon="44.79168">
        <ele>410.224044</ele>
        <time>2021-08-17T15:56:41.152Z</time>
      </trkpt>
      <trkpt lat="41.70735" lon="44.79182">
        <ele>409.686785</ele>
        <time>2021-08-17T15:56:43.734Z</time>
      </trkpt>
      <trkpt lat="41.70738" lon="44.79182">
        <ele>409.542689</ele>
        <time>2021-08-17T15:56:44.272Z</time>
      </trkpt>
      <trkpt lat="41.7074" lon="44.79182">
        <ele>409.495305</ele>
        <time>2021-08-17T15:56:44.483Z</time>
      </trkpt>
      <trkpt lat="41.70741" lon="44.79182">
        <ele>409.443634</ele>
        <time>2021-08-17T15:56:44.723Z</time>
      </trkpt>
      <trkpt lat="41.70742" lon="44.79182">
        <ele>409.394805</ele>
        <time>2021-08-17T15:56:44.982Z</time>
      </trkpt>
      <trkpt lat="41.70746" lon="44.79191">
        <ele>409.082926</ele>
        <time>2021-08-17T15:56:46.496Z</time>
      </trkpt>
      <trkpt lat="41.70808" lon="44.79347">
        <ele>409.696791</ele>
        <time>2021-08-17T15:57:18.837Z</time>
      </trkpt>
      <trkpt lat="41.70815" lon="44.79364">
        <ele>409.894451</ele>
        <time>2021-08-17T15:57:24.528Z</time>
      </trkpt>
      <trkpt lat="41.70821" lon="44.79379">
        <ele>410.06734</ele>
        <time>2021-08-17T15:57:29.638Z</time>
      </trkpt>
      <trkpt lat="41.70825" lon="44.79389">
        <ele>410.184015</ele>
        <time>2021-08-17T15:57:33.137Z</time>
      </trkpt>
      <trkpt lat="41.70846" lon="44.79444">
        <ele>410.876239</ele>
        <time>2021-08-17T15:57:51.365Z</time>
      </trkpt>
      <trkpt lat="41.70847" lon="44.79445">
        <ele>410.889918</ele>
        <time>2021-08-17T15:57:51.662Z</time>
      </trkpt>
      <trkpt lat="41.70867" lon="44.79498">
        <ele>411.707178</ele>
        <time>2021-08-17T15:58:07.472Z</time>
      </trkpt>
      <trkpt lat="41.70872" lon="44.79511">
        <ele>411.919248</ele>
        <time>2021-08-17T15:58:11.409Z</time>
      </trkpt>
      <trkpt lat="41.70875" lon="44.79518">
        <ele>412.027938</ele>
        <time>2021-08-17T15:58:13.409Z</time>
      </trkpt>
      <trkpt lat="41.7088" lon="44.7953">
        <ele>412.215975</ele>
        <time>2021-08-17T15:58:16.970Z</time>
      </trkpt>
      <trkpt lat="41.70933" lon="44.79662">
        <ele>414.059219</ele>
        <time>2021-08-17T15:58:47.895Z</time>
      </trkpt>
      <trkpt lat="41.7095" lon="44.79706">
        <ele>414.191831</ele>
        <time>2021-08-17T15:58:57.262Z</time>
      </trkpt>
      <trkpt lat="41.7095" lon="44.79711">
        <ele>414.205505</ele>
        <time>2021-08-17T15:58:58.129Z</time>
      </trkpt>
      <trkpt lat="41.70946" lon="44.79727">
        <ele>414.251743</ele>
        <time>2021-08-17T15:59:01.374Z</time>
      </trkpt>
      <trkpt lat="41.70941" lon="44.79735">
        <ele>414.281727</ele>
        <time>2021-08-17T15:59:03.358Z</time>
      </trkpt>
      <trkpt lat="41.70936" lon="44.79738">
        <ele>414.302434</ele>
        <time>2021-08-17T15:59:04.572Z</time>
      </trkpt>
      <trkpt lat="41.7092" lon="44.79752">
        <ele>414.372374</ele>
        <time>2021-08-17T15:59:09.100Z</time>
      </trkpt>
      <trkpt lat="41.70918" lon="44.79755">
        <ele>414.381414</ele>
        <time>2021-08-17T15:59:09.588Z</time>
      </trkpt>
      <trkpt lat="41.70918" lon="44.79758">
        <ele>414.391336</ele>
        <time>2021-08-17T15:59:10.351Z</time>
      </trkpt>
      <trkpt lat="41.70923" lon="44.79768">
        <ele>414.42477</ele>
        <time>2021-08-17T15:59:12.252Z</time>
      </trkpt>
      <trkpt lat="41.70933" lon="44.79766">
        <ele>414.462543</ele>
        <time>2021-08-17T15:59:14.446Z</time>
      </trkpt>
      <trkpt lat="41.70941" lon="44.79761">
        <ele>414.492035</ele>
        <time>2021-08-17T15:59:16.528Z</time>
      </trkpt>
      <trkpt lat="41.70945" lon="44.79758">
        <ele>414.508596</ele>
        <time>2021-08-17T15:59:17.498Z</time>
      </trkpt>
      <trkpt lat="41.70949" lon="44.79757">
        <ele>414.524175</ele>
        <time>2021-08-17T15:59:18.583Z</time>
      </trkpt>
      <trkpt lat="41.70968" lon="44.79763">
        <ele>414.597062</ele>
        <time>2021-08-17T15:59:22.844Z</time>
      </trkpt>
      <trkpt lat="41.70972" lon="44.79769">
        <ele>414.618908</ele>
        <time>2021-08-17T15:59:24.499Z</time>
      </trkpt>
      <trkpt lat="41.71022" lon="44.79885">
        <ele>415.438777</ele>
        <time>2021-08-17T15:59:47.615Z</time>
      </trkpt>
      <trkpt lat="41.71064" lon="44.79982">
        <ele>416.171962</ele>
        <time>2021-08-17T16:00:11.795Z</time>
      </trkpt>
      <trkpt lat="41.71096" lon="44.80056">
        <ele>417.483115</ele>
        <time>2021-08-17T16:00:33.111Z</time>
      </trkpt>
      <trkpt lat="41.711" lon="44.80068">
        <ele>417.699515</ele>
        <time>2021-08-17T16:00:36.839Z</time>
      </trkpt>
      <trkpt lat="41.71137" lon="44.80151">
        <ele>419.275122</ele>
        <time>2021-08-17T16:01:02.097Z</time>
      </trkpt>
      <trkpt lat="41.71143" lon="44.80163">
        <ele>419.504049</ele>
        <time>2021-08-17T16:01:06.074Z</time>
      </trkpt>
      <trkpt lat="41.71008" lon="44.8026">
        <ele>420.149133</ele>
        <time>2021-08-17T16:01:51.966Z</time>
      </trkpt>
      <trkpt lat="41.70962" lon="44.80292">
        <ele>420.149133</ele>
        <time>2021-08-17T16:02:04.121Z</time>
      </trkpt>
    </trkseg>
  </trk>
  <trk>
    <name><![CDATA[Tbilissi à Arménie]]></name>
    <extensions>
      <line xmlns="http://www.topografix.com/GPX/gpx_style/0/2">
        <color>00FF00</color>
        <width>4</width>
      </line>
    </extensions>
    <trkseg>
      <trkpt lat="41.70962" lon="44.80292">
        <ele>420.371898</ele>
        <time>2021-08-11T21:07:58.980Z</time>
      </trkpt>
      <trkpt lat="41.70962" lon="44.80292">
        <ele>420.371898</ele>
        <time>2021-08-11T21:07:58.980Z</time>
      </trkpt>
      <trkpt lat="41.70942" lon="44.80306">
        <ele>420.371898</ele>
        <time>2021-08-11T21:08:04.825Z</time>
      </trkpt>
      <trkpt lat="41.70914" lon="44.80326">
        <ele>420.371898</ele>
        <time>2021-08-11T21:08:12.756Z</time>
      </trkpt>
      <trkpt lat="41.70894" lon="44.8034">
        <ele>420.371898</ele>
        <time>2021-08-11T21:08:18.595Z</time>
      </trkpt>
      <trkpt lat="41.70839" lon="44.80314">
        <ele>420.139005</ele>
        <time>2021-08-11T21:08:33.667Z</time>
      </trkpt>
      <trkpt lat="41.7079" lon="44.80288">
        <ele>419.871663</ele>
        <time>2021-08-11T21:08:47.353Z</time>
      </trkpt>
      <trkpt lat="41.70968" lon="44.80162">
        <ele>420.896157</ele>
        <time>2021-08-11T21:09:56.292Z</time>
      </trkpt>
      <trkpt lat="41.71008" lon="44.8026">
        <ele>422.167896</ele>
        <time>2021-08-11T21:10:34.217Z</time>
      </trkpt>
      <trkpt lat="41.71048" lon="44.80365">
        <ele>424.271526</ele>
        <time>2021-08-11T21:11:15.604Z</time>
      </trkpt>
      <trkpt lat="41.71039" lon="44.80372">
        <ele>424.529806</ele>
        <time>2021-08-11T21:11:20.617Z</time>
      </trkpt>
      <trkpt lat="41.71035" lon="44.80373">
        <ele>424.619045</ele>
        <time>2021-08-11T21:11:22.275Z</time>
      </trkpt>
      <trkpt lat="41.71032" lon="44.80376">
        <ele>424.707845</ele>
        <time>2021-08-11T21:11:23.946Z</time>
      </trkpt>
      <trkpt lat="41.71031" lon="44.8038">
        <ele>424.787357</ele>
        <time>2021-08-11T21:11:25.523Z</time>
      </trkpt>
      <trkpt lat="41.71036" lon="44.80395">
        <ele>425.078605</ele>
        <time>2021-08-11T21:11:31.053Z</time>
      </trkpt>
      <trkpt lat="41.71039" lon="44.80396">
        <ele>425.159583</ele>
        <time>2021-08-11T21:11:32.656Z</time>
      </trkpt>
      <trkpt lat="41.71066" lon="44.80392">
        <ele>425.82224</ele>
        <time>2021-08-11T21:11:44.583Z</time>
      </trkpt>
      <trkpt lat="41.71075" lon="44.8039">
        <ele>426.007608</ele>
        <time>2021-08-11T21:11:48.785Z</time>
      </trkpt>
      <trkpt lat="41.71111" lon="44.80381">
        <ele>426.576513</ele>
        <time>2021-08-11T21:12:04.043Z</time>
      </trkpt>
      <trkpt lat="41.71153" lon="44.80371">
        <ele>427.238693</ele>
        <time>2021-08-11T21:12:20.850Z</time>
      </trkpt>
      <trkpt lat="41.71156" lon="44.80371">
        <ele>427.283031</ele>
        <time>2021-08-11T21:12:21.913Z</time>
      </trkpt>
      <trkpt lat="41.71184" lon="44.80364">
        <ele>427.727768</ele>
        <time>2021-08-11T21:12:32.995Z</time>
      </trkpt>
      <trkpt lat="41.71211" lon="44.80357">
        <ele>428.166142</ele>
        <time>2021-08-11T21:12:43.694Z</time>
      </trkpt>
      <trkpt lat="41.71222" lon="44.80355">
        <ele>428.334234</ele>
        <time>2021-08-11T21:12:48.138Z</time>
      </trkpt>
      <trkpt lat="41.71284" lon="44.80335">
        <ele>429.162857</ele>
        <time>2021-08-11T21:13:11.880Z</time>
      </trkpt>
      <trkpt lat="41.71348" lon="44.80315">
        <ele>429.893035</ele>
        <time>2021-08-11T21:13:36.542Z</time>
      </trkpt>
      <trkpt lat="41.71407" lon="44.80295">
        <ele>430.574289</ele>
        <time>2021-08-11T21:13:58.728Z</time>
      </trkpt>
      <trkpt lat="41.71466" lon="44.80273">
        <ele>431.569291</ele>
        <time>2021-08-11T21:14:21.849Z</time>
      </trkpt>
      <trkpt lat="41.71504" lon="44.80259">
        <ele>432.279063</ele>
        <time>2021-08-11T21:14:37.349Z</time>
      </trkpt>
      <trkpt lat="41.71508" lon="44.80258">
        <ele>432.358129</ele>
        <time>2021-08-11T21:14:39.017Z</time>
      </trkpt>
      <trkpt lat="41.71518" lon="44.80254">
        <ele>432.549474</ele>
        <time>2021-08-11T21:14:43.078Z</time>
      </trkpt>
      <trkpt lat="41.71571" lon="44.8023">
        <ele>433.560381</ele>
        <time>2021-08-11T21:15:08.489Z</time>
      </trkpt>
      <trkpt lat="41.71589" lon="44.80222">
        <ele>433.91022</ele>
        <time>2021-08-11T21:15:16.659Z</time>
      </trkpt>
      <trkpt lat="41.7159" lon="44.80221">
        <ele>433.928377</ele>
        <time>2021-08-11T21:15:17.073Z</time>
      </trkpt>
      <trkpt lat="41.71592" lon="44.80221">
        <ele>433.948478</ele>
        <time>2021-08-11T21:15:17.549Z</time>
      </trkpt>
      <trkpt lat="41.716" lon="44.80225">
        <ele>434.11198</ele>
        <time>2021-08-11T21:15:22.230Z</time>
      </trkpt>
      <trkpt lat="41.71623" lon="44.80241">
        <ele>434.644732</ele>
        <time>2021-08-11T21:15:33.010Z</time>
      </trkpt>
      <trkpt lat="41.71675" lon="44.80278">
        <ele>435.839939</ele>
        <time>2021-08-11T21:15:59.025Z</time>
      </trkpt>
      <trkpt lat="41.71698" lon="44.80291">
        <ele>436.353119</ele>
        <time>2021-08-11T21:16:10.063Z</time>
      </trkpt>
      <trkpt lat="41.71713" lon="44.80292">
        <ele>436.65761</ele>
        <time>2021-08-11T21:16:15.924Z</time>
      </trkpt>
      <trkpt lat="41.71721" lon="44.8029">
        <ele>436.836776</ele>
        <time>2021-08-11T21:16:19.374Z</time>
      </trkpt>
      <trkpt lat="41.7173" lon="44.80287">
        <ele>437.028179</ele>
        <time>2021-08-11T21:16:23.995Z</time>
      </trkpt>
      <trkpt lat="41.71793" lon="44.80263">
        <ele>438.279283</ele>
        <time>2021-08-11T21:16:49.490Z</time>
      </trkpt>
      <trkpt lat="41.71829" lon="44.80248">
        <ele>438.972889</ele>
        <time>2021-08-11T21:17:03.368Z</time>
      </trkpt>
      <trkpt lat="41.71848" lon="44.80238">
        <ele>439.340881</ele>
        <time>2021-08-11T21:17:10.622Z</time>
      </trkpt>
      <trkpt lat="41.71956" lon="44.80176">
        <ele>442.201279</ele>
        <time>2021-08-11T21:18:01.943Z</time>
      </trkpt>
      <trkpt lat="41.71991" lon="44.80158">
        <ele>443.819848</ele>
        <time>2021-08-11T21:18:20.404Z</time>
      </trkpt>
      <trkpt lat="41.71997" lon="44.80173">
        <ele>444.375559</ele>
        <time>2021-08-11T21:18:27.503Z</time>
      </trkpt>
      <trkpt lat="41.72015" lon="44.80216">
        <ele>445.979042</ele>
        <time>2021-08-11T21:18:50.029Z</time>
      </trkpt>
      <trkpt lat="41.72022" lon="44.8023">
        <ele>446.509776</ele>
        <time>2021-08-11T21:18:58.545Z</time>
      </trkpt>
      <trkpt lat="41.72026" lon="44.80225">
        <ele>446.7599</ele>
        <time>2021-08-11T21:19:02.129Z</time>
      </trkpt>
      <trkpt lat="41.72076" lon="44.80196">
        <ele>449.087901</ele>
        <time>2021-08-11T21:19:36.720Z</time>
      </trkpt>
      <trkpt lat="41.72112" lon="44.80175">
        <ele>450.658063</ele>
        <time>2021-08-11T21:20:02.142Z</time>
      </trkpt>
      <trkpt lat="41.72128" lon="44.80225">
        <ele>452.255059</ele>
        <time>2021-08-11T21:20:25.959Z</time>
      </trkpt>
      <trkpt lat="41.72163" lon="44.80195">
        <ele>453.915152</ele>
        <time>2021-08-11T21:20:47.641Z</time>
      </trkpt>
      <trkpt lat="41.72222" lon="44.80151">
        <ele>456.004238</ele>
        <time>2021-08-11T21:21:19.087Z</time>
      </trkpt>
      <trkpt lat="41.72269" lon="44.80139">
        <ele>456.286119</ele>
        <time>2021-08-11T21:21:38.525Z</time>
      </trkpt>
      <trkpt lat="41.72309" lon="44.80114">
        <ele>456.546415</ele>
        <time>2021-08-11T21:21:52.249Z</time>
      </trkpt>
      <trkpt lat="41.72343" lon="44.80101">
        <ele>456.756106</ele>
        <time>2021-08-11T21:22:06.691Z</time>
      </trkpt>
      <trkpt lat="41.72424" lon="44.80073">
        <ele>455.937353</ele>
        <time>2021-08-11T21:22:29.704Z</time>
      </trkpt>
      <trkpt lat="41.7245" lon="44.80065">
        <ele>455.382037</ele>
        <time>2021-08-11T21:22:36.318Z</time>
      </trkpt>
      <trkpt lat="41.72457" lon="44.80083">
        <ele>455.063903</ele>
        <time>2021-08-11T21:22:39.927Z</time>
      </trkpt>
      <trkpt lat="41.72464" lon="44.80103">
        <ele>454.714751</ele>
        <time>2021-08-11T21:22:44.073Z</time>
      </trkpt>
      <trkpt lat="41.72516" lon="44.80077">
        <ele>453.535683</ele>
        <time>2021-08-11T21:22:57.634Z</time>
      </trkpt>
      <trkpt lat="41.72548" lon="44.80064">
        <ele>452.800095</ele>
        <time>2021-08-11T21:23:05.718Z</time>
      </trkpt>
      <trkpt lat="41.72621" lon="44.80034">
        <ele>450.977354</ele>
        <time>2021-08-11T21:23:24.029Z</time>
      </trkpt>
      <trkpt lat="41.72752" lon="44.79974">
        <ele>448.466909</ele>
        <time>2021-08-11T21:24:00.521Z</time>
      </trkpt>
      <trkpt lat="41.72756" lon="44.79972">
        <ele>448.439842</ele>
        <time>2021-08-11T21:24:01.470Z</time>
      </trkpt>
      <trkpt lat="41.72763" lon="44.79969">
        <ele>448.382578</ele>
        <time>2021-08-11T21:24:03.496Z</time>
      </trkpt>
      <trkpt lat="41.72804" lon="44.79948">
        <ele>448.036459</ele>
        <time>2021-08-11T21:24:17.028Z</time>
      </trkpt>
      <trkpt lat="41.72824" lon="44.80019">
        <ele>447.594369</ele>
        <time>2021-08-11T21:24:34.904Z</time>
      </trkpt>
      <trkpt lat="41.72883" lon="44.7999">
        <ele>447.823808</ele>
        <time>2021-08-11T21:24:53.561Z</time>
      </trkpt>
      <trkpt lat="41.72911" lon="44.79973">
        <ele>448.063845</ele>
        <time>2021-08-11T21:25:03.634Z</time>
      </trkpt>
      <trkpt lat="41.72998" lon="44.79928">
        <ele>448.784521</ele>
        <time>2021-08-11T21:25:38.809Z</time>
      </trkpt>
      <trkpt lat="41.73016" lon="44.79917">
        <ele>449.049587</ele>
        <time>2021-08-11T21:25:47.296Z</time>
      </trkpt>
      <trkpt lat="41.73037" lon="44.79905">
        <ele>449.471389</ele>
        <time>2021-08-11T21:25:56.928Z</time>
      </trkpt>
      <trkpt lat="41.73089" lon="44.79958">
        <ele>450.68834</ele>
        <time>2021-08-11T21:26:25.405Z</time>
      </trkpt>
      <trkpt lat="41.73151" lon="44.80005">
        <ele>452.016601</ele>
        <time>2021-08-11T21:26:55.788Z</time>
      </trkpt>
      <trkpt lat="41.73161" lon="44.79985">
        <ele>452.314348</ele>
        <time>2021-08-11T21:27:03.264Z</time>
      </trkpt>
      <trkpt lat="41.73202" lon="44.79933">
        <ele>453.094129</ele>
        <time>2021-08-11T21:27:28.244Z</time>
      </trkpt>
      <trkpt lat="41.73211" lon="44.7992">
        <ele>453.281172</ele>
        <time>2021-08-11T21:27:33.498Z</time>
      </trkpt>
      <trkpt lat="41.73219" lon="44.79912">
        <ele>453.422085</ele>
        <time>2021-08-11T21:27:37.603Z</time>
      </trkpt>
      <trkpt lat="41.73274" lon="44.7988">
        <ele>454.235279</ele>
        <time>2021-08-11T21:27:59.170Z</time>
      </trkpt>
      <trkpt lat="41.73334" lon="44.79848">
        <ele>455.216581</ele>
        <time>2021-08-11T21:28:24.162Z</time>
      </trkpt>
      <trkpt lat="41.73403" lon="44.79807">
        <ele>456.470011</ele>
        <time>2021-08-11T21:28:57.463Z</time>
      </trkpt>
      <trkpt lat="41.73462" lon="44.79778">
        <ele>457.511145</ele>
        <time>2021-08-11T21:29:24.272Z</time>
      </trkpt>
      <trkpt lat="41.73529" lon="44.79743">
        <ele>458.889602</ele>
        <time>2021-08-11T21:29:52.926Z</time>
      </trkpt>
      <trkpt lat="41.7357" lon="44.79722">
        <ele>459.753649</ele>
        <time>2021-08-11T21:30:11.335Z</time>
      </trkpt>
      <trkpt lat="41.73644" lon="44.79687">
        <ele>461.428712</ele>
        <time>2021-08-11T21:30:46.053Z</time>
      </trkpt>
      <trkpt lat="41.7366" lon="44.79717">
        <ele>462.700006</ele>
        <time>2021-08-11T21:31:00.121Z</time>
      </trkpt>
      <trkpt lat="41.73671" lon="44.79729">
        <ele>463.316675</ele>
        <time>2021-08-11T21:31:07.150Z</time>
      </trkpt>
      <trkpt lat="41.73696" lon="44.79741">
        <ele>464.55101</ele>
        <time>2021-08-11T21:31:22.527Z</time>
      </trkpt>
      <trkpt lat="41.73716" lon="44.79749">
        <ele>465.506673</ele>
        <time>2021-08-11T21:31:35.335Z</time>
      </trkpt>
      <trkpt lat="41.73739" lon="44.79755">
        <ele>466.575856</ele>
        <time>2021-08-11T21:31:50.837Z</time>
      </trkpt>
      <trkpt lat="41.73889" lon="44.79799">
        <ele>472.699908</ele>
        <time>2021-08-11T21:33:27.750Z</time>
      </trkpt>
      <trkpt lat="41.73908" lon="44.79793">
        <ele>473.388146</ele>
        <time>2021-08-11T21:33:37.598Z</time>
      </trkpt>
      <trkpt lat="41.74044" lon="44.79745">
        <ele>475.886151</ele>
        <time>2021-08-11T21:34:29.923Z</time>
      </trkpt>
      <trkpt lat="41.74297" lon="44.79659">
        <ele>475.152659</ele>
        <time>2021-08-11T21:35:43.350Z</time>
      </trkpt>
      <trkpt lat="41.74401" lon="44.7962">
        <ele>474.775683</ele>
        <time>2021-08-11T21:36:17.496Z</time>
      </trkpt>
      <trkpt lat="41.74538" lon="44.79585">
        <ele>474.23943</ele>
        <time>2021-08-11T21:36:57.453Z</time>
      </trkpt>
      <trkpt lat="41.74561" lon="44.79578">
        <ele>474.090788</ele>
        <time>2021-08-11T21:37:04.090Z</time>
      </trkpt>
      <trkpt lat="41.74597" lon="44.79556">
        <ele>473.845137</ele>
        <time>2021-08-11T21:37:15.772Z</time>
      </trkpt>
      <trkpt lat="41.74615" lon="44.79528">
        <ele>473.674753</ele>
        <time>2021-08-11T21:37:23.379Z</time>
      </trkpt>
      <trkpt lat="41.74677" lon="44.79471">
        <ele>473.066966</ele>
        <time>2021-08-11T21:37:44.323Z</time>
      </trkpt>
      <trkpt lat="41.74689" lon="44.79461">
        <ele>472.904052</ele>
        <time>2021-08-11T21:37:48.283Z</time>
      </trkpt>
      <trkpt lat="41.74715" lon="44.79442">
        <ele>472.563819</ele>
        <time>2021-08-11T21:37:55.904Z</time>
      </trkpt>
      <trkpt lat="41.74791" lon="44.79373">
        <ele>471.496081</ele>
        <time>2021-08-11T21:38:21.163Z</time>
      </trkpt>
      <trkpt lat="41.74808" lon="44.79357">
        <ele>471.270759</ele>
        <time>2021-08-11T21:38:27.015Z</time>
      </trkpt>
      <trkpt lat="41.74887" lon="44.79286">
        <ele>470.714817</ele>
        <time>2021-08-11T21:38:52.710Z</time>
      </trkpt>
      <trkpt lat="41.74955" lon="44.79251">
        <ele>470.28425</ele>
        <time>2021-08-11T21:39:15.023Z</time>
      </trkpt>
      <trkpt lat="41.74976" lon="44.79239">
        <ele>470.511856</ele>
        <time>2021-08-11T21:39:22.970Z</time>
      </trkpt>
      <trkpt lat="41.75122" lon="44.79175">
        <ele>473.757824</ele>
        <time>2021-08-11T21:40:34.186Z</time>
      </trkpt>
      <trkpt lat="41.75134" lon="44.79233">
        <ele>474.589655</ele>
        <time>2021-08-11T21:40:56.292Z</time>
      </trkpt>
      <trkpt lat="41.75192" lon="44.79204">
        <ele>475.655568</ele>
        <time>2021-08-11T21:41:23.881Z</time>
      </trkpt>
      <trkpt lat="41.7521" lon="44.79194">
        <ele>475.9973</ele>
        <time>2021-08-11T21:41:32.019Z</time>
      </trkpt>
      <trkpt lat="41.75244" lon="44.79179">
        <ele>476.626291</ele>
        <time>2021-08-11T21:41:45.318Z</time>
      </trkpt>
      <trkpt lat="41.75307" lon="44.79152">
        <ele>477.967937</ele>
        <time>2021-08-11T21:42:09.656Z</time>
      </trkpt>
      <trkpt lat="41.75343" lon="44.79144">
        <ele>478.810679</ele>
        <time>2021-08-11T21:42:22.237Z</time>
      </trkpt>
      <trkpt lat="41.75372" lon="44.79136">
        <ele>479.507496</ele>
        <time>2021-08-11T21:42:35.094Z</time>
      </trkpt>
      <trkpt lat="41.75374" lon="44.79138">
        <ele>479.565713</ele>
        <time>2021-08-11T21:42:36.291Z</time>
      </trkpt>
      <trkpt lat="41.75394" lon="44.79133">
        <ele>480.031841</ele>
        <time>2021-08-11T21:42:44.800Z</time>
      </trkpt>
      <trkpt lat="41.75399" lon="44.79149">
        <ele>480.329371</ele>
        <time>2021-08-11T21:42:52.514Z</time>
      </trkpt>
      <trkpt lat="41.75415" lon="44.79173">
        <ele>480.873984</ele>
        <time>2021-08-11T21:43:04.056Z</time>
      </trkpt>
      <trkpt lat="41.75425" lon="44.79178">
        <ele>481.126698</ele>
        <time>2021-08-11T21:43:11.371Z</time>
      </trkpt>
      <trkpt lat="41.75452" lon="44.79185">
        <ele>482.320462</ele>
        <time>2021-08-11T21:43:26.660Z</time>
      </trkpt>
      <trkpt lat="41.75468" lon="44.79185">
        <ele>483.176678</ele>
        <time>2021-08-11T21:43:37.804Z</time>
      </trkpt>
      <trkpt lat="41.75484" lon="44.79249">
        <ele>485.876335</ele>
        <time>2021-08-11T21:44:12.792Z</time>
      </trkpt>
      <trkpt lat="41.75559" lon="44.79233">
        <ele>489.8646</ele>
        <time>2021-08-11T21:45:03.667Z</time>
      </trkpt>
      <trkpt lat="41.75564" lon="44.79231">
        <ele>490.138267</ele>
        <time>2021-08-11T21:45:06.894Z</time>
      </trkpt>
      <trkpt lat="41.75585" lon="44.7924">
        <ele>490.700708</ele>
        <time>2021-08-11T21:45:19.149Z</time>
      </trkpt>
      <trkpt lat="41.75591" lon="44.79242">
        <ele>490.600843</ele>
        <time>2021-08-11T21:45:23.548Z</time>
      </trkpt>
      <trkpt lat="41.75595" lon="44.79244">
        <ele>490.549102</ele>
        <time>2021-08-11T21:45:24.489Z</time>
      </trkpt>
      <trkpt lat="41.756" lon="44.79245">
        <ele>490.48107</ele>
        <time>2021-08-11T21:45:26.087Z</time>
      </trkpt>
      <trkpt lat="41.75623" lon="44.79245">
        <ele>490.154277</ele>
        <time>2021-08-11T21:45:37.529Z</time>
      </trkpt>
      <trkpt lat="41.75675" lon="44.79232">
        <ele>489.410371</ele>
        <time>2021-08-11T21:45:52.291Z</time>
      </trkpt>
      <trkpt lat="41.75735" lon="44.79223">
        <ele>488.554741</ele>
        <time>2021-08-11T21:46:06.909Z</time>
      </trkpt>
      <trkpt lat="41.75736" lon="44.79216">
        <ele>488.474168</ele>
        <time>2021-08-11T21:46:08.048Z</time>
      </trkpt>
      <trkpt lat="41.75747" lon="44.79202">
        <ele>488.166289</ele>
        <time>2021-08-11T21:46:11.101Z</time>
      </trkpt>
      <trkpt lat="41.75798" lon="44.79162">
        <ele>483.78303</ele>
        <time>2021-08-11T21:46:23.365Z</time>
      </trkpt>
      <trkpt lat="41.75802" lon="44.7916">
        <ele>483.468756</ele>
        <time>2021-08-11T21:46:24.177Z</time>
      </trkpt>
      <trkpt lat="41.75815" lon="44.7915">
        <ele>482.390325</ele>
        <time>2021-08-11T21:46:27.338Z</time>
      </trkpt>
      <trkpt lat="41.75854" lon="44.7912">
        <ele>479.025867</ele>
        <time>2021-08-11T21:46:36.660Z</time>
      </trkpt>
      <trkpt lat="41.75872" lon="44.79109">
        <ele>477.591496</ele>
        <time>2021-08-11T21:46:40.456Z</time>
      </trkpt>
      <trkpt lat="41.75895" lon="44.79077">
        <ele>475.161808</ele>
        <time>2021-08-11T21:46:47.339Z</time>
      </trkpt>
      <trkpt lat="41.75903" lon="44.7905">
        <ele>474.478447</ele>
        <time>2021-08-11T21:46:52.268Z</time>
      </trkpt>
      <trkpt lat="41.75905" lon="44.79006">
        <ele>473.620472</ele>
        <time>2021-08-11T21:46:59.396Z</time>
      </trkpt>
      <trkpt lat="41.75907" lon="44.78965">
        <ele>472.801493</ele>
        <time>2021-08-11T21:47:06.805Z</time>
      </trkpt>
      <trkpt lat="41.75909" lon="44.78932">
        <ele>472.154998</ele>
        <time>2021-08-11T21:47:12.948Z</time>
      </trkpt>
      <trkpt lat="41.75946" lon="44.78933">
        <ele>471.195346</ele>
        <time>2021-08-11T21:47:26.490Z</time>
      </trkpt>
      <trkpt lat="41.75955" lon="44.78934">
        <ele>470.946251</ele>
        <time>2021-08-11T21:47:30.894Z</time>
      </trkpt>
      <trkpt lat="41.75962" lon="44.78934">
        <ele>470.752211</ele>
        <time>2021-08-11T21:47:34.528Z</time>
      </trkpt>
      <trkpt lat="41.75994" lon="44.78936">
        <ele>470.634475</ele>
        <time>2021-08-11T21:47:49.367Z</time>
      </trkpt>
      <trkpt lat="41.76013" lon="44.78941">
        <ele>471.169596</ele>
        <time>2021-08-11T21:48:02.810Z</time>
      </trkpt>
      <trkpt lat="41.76023" lon="44.78943">
        <ele>471.460098</ele>
        <time>2021-08-11T21:48:07.340Z</time>
      </trkpt>
      <trkpt lat="41.76045" lon="44.78947">
        <ele>472.083359</ele>
        <time>2021-08-11T21:48:18.592Z</time>
      </trkpt>
      <trkpt lat="41.76062" lon="44.78949">
        <ele>472.554173</ele>
        <time>2021-08-11T21:48:27.634Z</time>
      </trkpt>
      <trkpt lat="41.76115" lon="44.78958">
        <ele>474.031034</ele>
        <time>2021-08-11T21:48:57.328Z</time>
      </trkpt>
      <trkpt lat="41.76177" lon="44.7897">
        <ele>475.423977</ele>
        <time>2021-08-11T21:49:28.224Z</time>
      </trkpt>
      <trkpt lat="41.76206" lon="44.78976">
        <ele>475.697486</ele>
        <time>2021-08-11T21:49:41.882Z</time>
      </trkpt>
      <trkpt lat="41.76239" lon="44.78981">
        <ele>476.005715</ele>
        <time>2021-08-11T21:49:55.572Z</time>
      </trkpt>
      <trkpt lat="41.7625" lon="44.78933">
        <ele>476.355334</ele>
        <time>2021-08-11T21:50:08.373Z</time>
      </trkpt>
      <trkpt lat="41.7626" lon="44.78884">
        <ele>476.707837</ele>
        <time>2021-08-11T21:50:19.630Z</time>
      </trkpt>
      <trkpt lat="41.76263" lon="44.78865">
        <ele>476.844972</ele>
        <time>2021-08-11T21:50:23.423Z</time>
      </trkpt>
      <trkpt lat="41.7628" lon="44.78872">
        <ele>476.787544</ele>
        <time>2021-08-11T21:50:28.761Z</time>
      </trkpt>
      <trkpt lat="41.76331" lon="44.78893">
        <ele>475.920171</ele>
        <time>2021-08-11T21:50:42.344Z</time>
      </trkpt>
      <trkpt lat="41.76433" lon="44.78935">
        <ele>474.201092</ele>
        <time>2021-08-11T21:51:08.925Z</time>
      </trkpt>
      <trkpt lat="41.76455" lon="44.78945">
        <ele>473.912768</ele>
        <time>2021-08-11T21:51:14.606Z</time>
      </trkpt>
      <trkpt lat="41.76482" lon="44.78956">
        <ele>473.668029</ele>
        <time>2021-08-11T21:51:21.362Z</time>
      </trkpt>
      <trkpt lat="41.76504" lon="44.78965">
        <ele>473.458658</ele>
        <time>2021-08-11T21:51:27.081Z</time>
      </trkpt>
      <trkpt lat="41.76514" lon="44.78969">
        <ele>473.365162</ele>
        <time>2021-08-11T21:51:29.936Z</time>
      </trkpt>
      <trkpt lat="41.76522" lon="44.78973">
        <ele>473.28942</ele>
        <time>2021-08-11T21:51:32.239Z</time>
      </trkpt>
      <trkpt lat="41.76524" lon="44.78975">
        <ele>473.267495</ele>
        <time>2021-08-11T21:51:32.910Z</time>
      </trkpt>
      <trkpt lat="41.76553" lon="44.7899">
        <ele>472.989666</ele>
        <time>2021-08-11T21:51:41.725Z</time>
      </trkpt>
      <trkpt lat="41.76626" lon="44.79042">
        <ele>472.449536</ele>
        <time>2021-08-11T21:52:08.344Z</time>
      </trkpt>
      <trkpt lat="41.7663" lon="44.79045">
        <ele>472.455431</ele>
        <time>2021-08-11T21:52:09.388Z</time>
      </trkpt>
      <trkpt lat="41.76634" lon="44.79048">
        <ele>472.461703</ele>
        <time>2021-08-11T21:52:11.041Z</time>
      </trkpt>
      <trkpt lat="41.76643" lon="44.79055">
        <ele>472.475091</ele>
        <time>2021-08-11T21:52:14.478Z</time>
      </trkpt>
      <trkpt lat="41.76652" lon="44.79062">
        <ele>472.489666</ele>
        <time>2021-08-11T21:52:18.201Z</time>
      </trkpt>
      <trkpt lat="41.76675" lon="44.79079">
        <ele>472.523626</ele>
        <time>2021-08-11T21:52:26.054Z</time>
      </trkpt>
      <trkpt lat="41.76702" lon="44.79096">
        <ele>472.563586</ele>
        <time>2021-08-11T21:52:35.817Z</time>
      </trkpt>
      <trkpt lat="41.76718" lon="44.79108">
        <ele>472.587823</ele>
        <time>2021-08-11T21:52:42.202Z</time>
      </trkpt>
      <trkpt lat="41.76789" lon="44.79156">
        <ele>472.484266</ele>
        <time>2021-08-11T21:53:08.299Z</time>
      </trkpt>
      <trkpt lat="41.76913" lon="44.79228">
        <ele>471.394276</ele>
        <time>2021-08-11T21:53:44.340Z</time>
      </trkpt>
      <trkpt lat="41.76967" lon="44.79257">
        <ele>471.075916</ele>
        <time>2021-08-11T21:53:59.986Z</time>
      </trkpt>
      <trkpt lat="41.76969" lon="44.79258">
        <ele>471.067757</ele>
        <time>2021-08-11T21:54:00.556Z</time>
      </trkpt>
      <trkpt lat="41.7697" lon="44.79258">
        <ele>471.061784</ele>
        <time>2021-08-11T21:54:00.989Z</time>
      </trkpt>
      <trkpt lat="41.76987" lon="44.79267">
        <ele>470.989048</ele>
        <time>2021-08-11T21:54:05.992Z</time>
      </trkpt>
      <trkpt lat="41.77004" lon="44.79274">
        <ele>470.91713</ele>
        <time>2021-08-11T21:54:11.514Z</time>
      </trkpt>
      <trkpt lat="41.77135" lon="44.7934">
        <ele>470.324148</ele>
        <time>2021-08-11T21:54:54.032Z</time>
      </trkpt>
      <trkpt lat="41.77141" lon="44.79342">
        <ele>470.295045</ele>
        <time>2021-08-11T21:54:56.362Z</time>
      </trkpt>
      <trkpt lat="41.7721" lon="44.79376">
        <ele>469.930659</ele>
        <time>2021-08-11T21:55:19.277Z</time>
      </trkpt>
      <trkpt lat="41.77266" lon="44.79405">
        <ele>469.631369</ele>
        <time>2021-08-11T21:55:35.561Z</time>
      </trkpt>
      <trkpt lat="41.77279" lon="44.79412">
        <ele>469.305356</ele>
        <time>2021-08-11T21:55:39.448Z</time>
      </trkpt>
      <trkpt lat="41.77283" lon="44.79414">
        <ele>469.179531</ele>
        <time>2021-08-11T21:55:40.349Z</time>
      </trkpt>
      <trkpt lat="41.7734" lon="44.79442">
        <ele>467.171101</ele>
        <time>2021-08-11T21:55:54.776Z</time>
      </trkpt>
      <trkpt lat="41.77358" lon="44.79451">
        <ele>466.549815</ele>
        <time>2021-08-11T21:55:59.047Z</time>
      </trkpt>
      <trkpt lat="41.77391" lon="44.79465">
        <ele>465.425671</ele>
        <time>2021-08-11T21:56:06.583Z</time>
      </trkpt>
      <trkpt lat="41.77425" lon="44.79478">
        <ele>464.267162</ele>
        <time>2021-08-11T21:56:14.292Z</time>
      </trkpt>
      <trkpt lat="41.77459" lon="44.79489">
        <ele>462.899112</ele>
        <time>2021-08-11T21:56:21.903Z</time>
      </trkpt>
      <trkpt lat="41.77531" lon="44.7951">
        <ele>459.633822</ele>
        <time>2021-08-11T21:56:37.421Z</time>
      </trkpt>
      <trkpt lat="41.77616" lon="44.79535">
        <ele>455.773469</ele>
        <time>2021-08-11T21:56:56.216Z</time>
      </trkpt>
      <trkpt lat="41.77675" lon="44.79553">
        <ele>454.339133</ele>
        <time>2021-08-11T21:57:09.864Z</time>
      </trkpt>
      <trkpt lat="41.77792" lon="44.79583">
        <ele>451.519061</ele>
        <time>2021-08-11T21:57:39.313Z</time>
      </trkpt>
      <trkpt lat="41.77877" lon="44.79606">
        <ele>450.958882</ele>
        <time>2021-08-11T21:58:03.943Z</time>
      </trkpt>
      <trkpt lat="41.77949" lon="44.79627">
        <ele>450.508675</ele>
        <time>2021-08-11T21:58:24.412Z</time>
      </trkpt>
      <trkpt lat="41.77997" lon="44.79649">
        <ele>450.476562</ele>
        <time>2021-08-11T21:58:40.440Z</time>
      </trkpt>
      <trkpt lat="41.78075" lon="44.79707">
        <ele>450.764181</ele>
        <time>2021-08-11T21:59:12.783Z</time>
      </trkpt>
      <trkpt lat="41.78079" lon="44.7971">
        <ele>450.77971</ele>
        <time>2021-08-11T21:59:14.185Z</time>
      </trkpt>
      <trkpt lat="41.78091" lon="44.7972">
        <ele>450.824706</ele>
        <time>2021-08-11T21:59:18.217Z</time>
      </trkpt>
      <trkpt lat="41.78094" lon="44.79742">
        <ele>450.87978</ele>
        <time>2021-08-11T21:59:25.372Z</time>
      </trkpt>
      <trkpt lat="41.78096" lon="44.79756">
        <ele>450.914214</ele>
        <time>2021-08-11T21:59:28.577Z</time>
      </trkpt>
      <trkpt lat="41.78093" lon="44.79773">
        <ele>450.955085</ele>
        <time>2021-08-11T21:59:32.745Z</time>
      </trkpt>
      <trkpt lat="41.78102" lon="44.79783">
        <ele>450.844281</ele>
        <time>2021-08-11T21:59:36.815Z</time>
      </trkpt>
      <trkpt lat="41.78193" lon="44.7985">
        <ele>449.716729</ele>
        <time>2021-08-11T22:00:07.024Z</time>
      </trkpt>
      <trkpt lat="41.78218" lon="44.79845">
        <ele>449.445895</ele>
        <time>2021-08-11T22:00:13.943Z</time>
      </trkpt>
      <trkpt lat="41.78235" lon="44.79828">
        <ele>449.212987</ele>
        <time>2021-08-11T22:00:19.302Z</time>
      </trkpt>
      <trkpt lat="41.78262" lon="44.79845">
        <ele>448.661726</ele>
        <time>2021-08-11T22:00:26.371Z</time>
      </trkpt>
      <trkpt lat="41.78297" lon="44.79867">
        <ele>447.360585</ele>
        <time>2021-08-11T22:00:35.668Z</time>
      </trkpt>
      <trkpt lat="41.78305" lon="44.79871">
        <ele>447.098126</ele>
        <time>2021-08-11T22:00:37.513Z</time>
      </trkpt>
      <trkpt lat="41.78321" lon="44.79883">
        <ele>446.490178</ele>
        <time>2021-08-11T22:00:41.779Z</time>
      </trkpt>
      <trkpt lat="41.78343" lon="44.79898">
        <ele>445.67314</ele>
        <time>2021-08-11T22:00:47.321Z</time>
      </trkpt>
      <trkpt lat="41.78355" lon="44.79911">
        <ele>445.148513</ele>
        <time>2021-08-11T22:00:50.731Z</time>
      </trkpt>
      <trkpt lat="41.78361" lon="44.79917">
        <ele>444.903445</ele>
        <time>2021-08-11T22:00:52.319Z</time>
      </trkpt>
      <trkpt lat="41.78373" lon="44.79931">
        <ele>444.389631</ele>
        <time>2021-08-11T22:00:55.739Z</time>
      </trkpt>
      <trkpt lat="41.78383" lon="44.7994">
        <ele>443.987598</ele>
        <time>2021-08-11T22:00:58.407Z</time>
      </trkpt>
      <trkpt lat="41.7841" lon="44.79964">
        <ele>442.937482</ele>
        <time>2021-08-11T22:01:05.491Z</time>
      </trkpt>
      <trkpt lat="41.78441" lon="44.79989">
        <ele>441.859185</ele>
        <time>2021-08-11T22:01:13.554Z</time>
      </trkpt>
      <trkpt lat="41.78443" lon="44.79991">
        <ele>441.764541</ele>
        <time>2021-08-11T22:01:14.266Z</time>
      </trkpt>
      <trkpt lat="41.78483" lon="44.80005">
        <ele>440.53178</ele>
        <time>2021-08-11T22:01:23.606Z</time>
      </trkpt>
      <trkpt lat="41.78537" lon="44.80023">
        <ele>438.874946</ele>
        <time>2021-08-11T22:01:36.387Z</time>
      </trkpt>
      <trkpt lat="41.78631" lon="44.80056">
        <ele>437.580463</ele>
        <time>2021-08-11T22:02:00.215Z</time>
      </trkpt>
      <trkpt lat="41.78661" lon="44.80065">
        <ele>437.528091</ele>
        <time>2021-08-11T22:02:08.968Z</time>
      </trkpt>
      <trkpt lat="41.78687" lon="44.80072">
        <ele>437.482532</ele>
        <time>2021-08-11T22:02:17.743Z</time>
      </trkpt>
      <trkpt lat="41.78728" lon="44.80078">
        <ele>437.411974</ele>
        <time>2021-08-11T22:02:33.094Z</time>
      </trkpt>
      <trkpt lat="41.78743" lon="44.80077">
        <ele>437.386359</ele>
        <time>2021-08-11T22:02:39.064Z</time>
      </trkpt>
      <trkpt lat="41.78777" lon="44.80081">
        <ele>438.042219</ele>
        <time>2021-08-11T22:02:53.081Z</time>
      </trkpt>
      <trkpt lat="41.78783" lon="44.80082">
        <ele>438.210601</ele>
        <time>2021-08-11T22:02:55.907Z</time>
      </trkpt>
      <trkpt lat="41.78795" lon="44.80095">
        <ele>438.62879</ele>
        <time>2021-08-11T22:03:02.770Z</time>
      </trkpt>
      <trkpt lat="41.78816" lon="44.80119">
        <ele>439.357122</ele>
        <time>2021-08-11T22:03:15.161Z</time>
      </trkpt>
      <trkpt lat="41.78824" lon="44.80128">
        <ele>439.651211</ele>
        <time>2021-08-11T22:03:20.126Z</time>
      </trkpt>
      <trkpt lat="41.78869" lon="44.80182">
        <ele>441.287119</ele>
        <time>2021-08-11T22:03:49.124Z</time>
      </trkpt>
      <trkpt lat="41.78917" lon="44.80244">
        <ele>443.467945</ele>
        <time>2021-08-11T22:04:22.707Z</time>
      </trkpt>
      <trkpt lat="41.78972" lon="44.80312">
        <ele>446.394758</ele>
        <time>2021-08-11T22:05:02.050Z</time>
      </trkpt>
      <trkpt lat="41.78975" lon="44.80317">
        <ele>446.590075</ele>
        <time>2021-08-11T22:05:05.242Z</time>
      </trkpt>
      <trkpt lat="41.78979" lon="44.80321">
        <ele>446.798019</ele>
        <time>2021-08-11T22:05:08.337Z</time>
      </trkpt>
      <trkpt lat="41.79019" lon="44.80369">
        <ele>448.907549</ele>
        <time>2021-08-11T22:05:37.045Z</time>
      </trkpt>
      <trkpt lat="41.79078" lon="44.80433">
        <ele>452.223262</ele>
        <time>2021-08-11T22:06:19.088Z</time>
      </trkpt>
      <trkpt lat="41.79142" lon="44.80502">
        <ele>455.887971</ele>
        <time>2021-08-11T22:07:06.091Z</time>
      </trkpt>
      <trkpt lat="41.79243" lon="44.80611">
        <ele>461.541955</ele>
        <time>2021-08-11T22:08:18.689Z</time>
      </trkpt>
      <trkpt lat="41.79284" lon="44.80655">
        <ele>463.801651</ele>
        <time>2021-08-11T22:08:47.033Z</time>
      </trkpt>
      <trkpt lat="41.79309" lon="44.80684">
        <ele>465.267598</ele>
        <time>2021-08-11T22:09:05.234Z</time>
      </trkpt>
      <trkpt lat="41.79375" lon="44.80753">
        <ele>469.437619</ele>
        <time>2021-08-11T22:09:51.301Z</time>
      </trkpt>
      <trkpt lat="41.79399" lon="44.80778">
        <ele>470.940075</ele>
        <time>2021-08-11T22:10:08.158Z</time>
      </trkpt>
      <trkpt lat="41.79501" lon="44.80884">
        <ele>478.105509</ele>
        <time>2021-08-11T22:11:33.636Z</time>
      </trkpt>
      <trkpt lat="41.79512" lon="44.80895">
        <ele>478.95995</ele>
        <time>2021-08-11T22:11:42.399Z</time>
      </trkpt>
      <trkpt lat="41.7952" lon="44.80904">
        <ele>479.576867</ele>
        <time>2021-08-11T22:11:50.298Z</time>
      </trkpt>
      <trkpt lat="41.7953" lon="44.80914">
        <ele>480.305387</ele>
        <time>2021-08-11T22:11:57.782Z</time>
      </trkpt>
      <trkpt lat="41.79535" lon="44.80919">
        <ele>480.706787</ele>
        <time>2021-08-11T22:12:01.868Z</time>
      </trkpt>
      <trkpt lat="41.79545" lon="44.80931">
        <ele>481.522352</ele>
        <time>2021-08-11T22:12:11.207Z</time>
      </trkpt>
      <trkpt lat="41.79587" lon="44.80977">
        <ele>484.829237</ele>
        <time>2021-08-11T22:12:46.599Z</time>
      </trkpt>
      <trkpt lat="41.79679" lon="44.81061">
        <ele>489.909799</ele>
        <time>2021-08-11T22:13:52.223Z</time>
      </trkpt>
      <trkpt lat="41.79684" lon="44.81065">
        <ele>490.182229</ele>
        <time>2021-08-11T22:13:55.364Z</time>
      </trkpt>
      <trkpt lat="41.79785" lon="44.81156">
        <ele>495.644439</ele>
        <time>2021-08-11T22:14:57.292Z</time>
      </trkpt>
      <trkpt lat="41.79846" lon="44.81202">
        <ele>498.720609</ele>
        <time>2021-08-11T22:15:36.380Z</time>
      </trkpt>
      <trkpt lat="41.7987" lon="44.81222">
        <ele>499.991739</ele>
        <time>2021-08-11T22:15:52.951Z</time>
      </trkpt>
      <trkpt lat="41.79923" lon="44.81265">
        <ele>502.959232</ele>
        <time>2021-08-11T22:16:30.744Z</time>
      </trkpt>
      <trkpt lat="41.79934" lon="44.81272">
        <ele>503.606172</ele>
        <time>2021-08-11T22:16:39.303Z</time>
      </trkpt>
      <trkpt lat="41.80002" lon="44.81317">
        <ele>507.509755</ele>
        <time>2021-08-11T22:17:26.708Z</time>
      </trkpt>
      <trkpt lat="41.80016" lon="44.81326">
        <ele>508.316595</ele>
        <time>2021-08-11T22:17:36.098Z</time>
      </trkpt>
      <trkpt lat="41.80035" lon="44.81337">
        <ele>509.404788</ele>
        <time>2021-08-11T22:17:48.571Z</time>
      </trkpt>
      <trkpt lat="41.80061" lon="44.81351">
        <ele>510.568904</ele>
        <time>2021-08-11T22:18:03.782Z</time>
      </trkpt>
      <trkpt lat="41.80073" lon="44.81358">
        <ele>510.880298</ele>
        <time>2021-08-11T22:18:11.471Z</time>
      </trkpt>
      <trkpt lat="41.80153" lon="44.81404">
        <ele>512.822043</ele>
        <time>2021-08-11T22:18:51.515Z</time>
      </trkpt>
      <trkpt lat="41.80266" lon="44.8147">
        <ele>514.925926</ele>
        <time>2021-08-11T22:19:33.972Z</time>
      </trkpt>
      <trkpt lat="41.80273" lon="44.81474">
        <ele>515.000121</ele>
        <time>2021-08-11T22:19:36.363Z</time>
      </trkpt>
      <trkpt lat="41.80336" lon="44.81511">
        <ele>515.698283</ele>
        <time>2021-08-11T22:20:00.717Z</time>
      </trkpt>
      <trkpt lat="41.80358" lon="44.81524">
        <ele>515.940134</ele>
        <time>2021-08-11T22:20:10.007Z</time>
      </trkpt>
      <trkpt lat="41.80367" lon="44.81529">
        <ele>516.036744</ele>
        <time>2021-08-11T22:20:13.690Z</time>
      </trkpt>
      <trkpt lat="41.80406" lon="44.81552">
        <ele>516.943402</ele>
        <time>2021-08-11T22:20:31.509Z</time>
      </trkpt>
      <trkpt lat="41.80452" lon="44.81578">
        <ele>518.364379</ele>
        <time>2021-08-11T22:20:53.709Z</time>
      </trkpt>
      <trkpt lat="41.80481" lon="44.81595">
        <ele>519.261842</ele>
        <time>2021-08-11T22:21:09.137Z</time>
      </trkpt>
      <trkpt lat="41.80484" lon="44.81597">
        <ele>519.371231</ele>
        <time>2021-08-11T22:21:10.973Z</time>
      </trkpt>
      <trkpt lat="41.8049" lon="44.81599">
        <ele>519.549905</ele>
        <time>2021-08-11T22:21:13.961Z</time>
      </trkpt>
      <trkpt lat="41.80498" lon="44.81603">
        <ele>519.79315</ele>
        <time>2021-08-11T22:21:18.200Z</time>
      </trkpt>
      <trkpt lat="41.8054" lon="44.81623">
        <ele>521.070416</ele>
        <time>2021-08-11T22:21:41.357Z</time>
      </trkpt>
      <trkpt lat="41.80593" lon="44.81651">
        <ele>523.074829</ele>
        <time>2021-08-11T22:22:10.384Z</time>
      </trkpt>
      <trkpt lat="41.80615" lon="44.81663">
        <ele>523.969305</ele>
        <time>2021-08-11T22:22:23.191Z</time>
      </trkpt>
      <trkpt lat="41.80727" lon="44.81736">
        <ele>528.572568</ele>
        <time>2021-08-11T22:23:27.680Z</time>
      </trkpt>
      <trkpt lat="41.80819" lon="44.81788">
        <ele>532.114634</ele>
        <time>2021-08-11T22:24:19.036Z</time>
      </trkpt>
      <trkpt lat="41.809" lon="44.81835">
        <ele>535.199698</ele>
        <time>2021-08-11T22:25:04.010Z</time>
      </trkpt>
      <trkpt lat="41.80938" lon="44.81856">
        <ele>536.520234</ele>
        <time>2021-08-11T22:25:24.047Z</time>
      </trkpt>
      <trkpt lat="41.8101" lon="44.81898">
        <ele>539.062532</ele>
        <time>2021-08-11T22:26:03.043Z</time>
      </trkpt>
      <trkpt lat="41.81071" lon="44.8193">
        <ele>541.045138</ele>
        <time>2021-08-11T22:26:34.606Z</time>
      </trkpt>
      <trkpt lat="41.81087" lon="44.81938">
        <ele>541.508321</ele>
        <time>2021-08-11T22:26:42.414Z</time>
      </trkpt>
      <trkpt lat="41.81165" lon="44.81982">
        <ele>543.831582</ele>
        <time>2021-08-11T22:27:21.114Z</time>
      </trkpt>
      <trkpt lat="41.81168" lon="44.81984">
        <ele>543.933878</ele>
        <time>2021-08-11T22:27:22.718Z</time>
      </trkpt>
      <trkpt lat="41.81172" lon="44.81986">
        <ele>544.041243</ele>
        <time>2021-08-11T22:27:25.023Z</time>
      </trkpt>
      <trkpt lat="41.81234" lon="44.8202">
        <ele>545.768707</ele>
        <time>2021-08-11T22:27:55.691Z</time>
      </trkpt>
      <trkpt lat="41.81243" lon="44.82025">
        <ele>546.002993</ele>
        <time>2021-08-11T22:28:00.771Z</time>
      </trkpt>
      <trkpt lat="41.81322" lon="44.8207">
        <ele>547.952024</ele>
        <time>2021-08-11T22:28:37.719Z</time>
      </trkpt>
      <trkpt lat="41.81391" lon="44.82116">
        <ele>549.836017</ele>
        <time>2021-08-11T22:29:10.458Z</time>
      </trkpt>
      <trkpt lat="41.81402" lon="44.82123">
        <ele>550.203669</ele>
        <time>2021-08-11T22:29:15.875Z</time>
      </trkpt>
      <trkpt lat="41.81475" lon="44.82179">
        <ele>552.699338</ele>
        <time>2021-08-11T22:29:52.904Z</time>
      </trkpt>
      <trkpt lat="41.81491" lon="44.82191">
        <ele>553.23917</ele>
        <time>2021-08-11T22:30:01.849Z</time>
      </trkpt>
      <trkpt lat="41.81529" lon="44.82218">
        <ele>554.494748</ele>
        <time>2021-08-11T22:30:24.376Z</time>
      </trkpt>
      <trkpt lat="41.81554" lon="44.82232">
        <ele>555.906873</ele>
        <time>2021-08-11T22:30:40.274Z</time>
      </trkpt>
      <trkpt lat="41.81559" lon="44.82235">
        <ele>556.231039</ele>
        <time>2021-08-11T22:30:43.754Z</time>
      </trkpt>
      <trkpt lat="41.81578" lon="44.82246">
        <ele>557.375044</ele>
        <time>2021-08-11T22:30:56.149Z</time>
      </trkpt>
      <trkpt lat="41.81613" lon="44.82256">
        <ele>559.397057</ele>
        <time>2021-08-11T22:31:18.708Z</time>
      </trkpt>
      <trkpt lat="41.8163" lon="44.82258">
        <ele>560.363673</ele>
        <time>2021-08-11T22:31:29.715Z</time>
      </trkpt>
      <trkpt lat="41.81655" lon="44.82259">
        <ele>561.778316</ele>
        <time>2021-08-11T22:31:45.901Z</time>
      </trkpt>
      <trkpt lat="41.81682" lon="44.82258">
        <ele>563.294712</ele>
        <time>2021-08-11T22:32:04.416Z</time>
      </trkpt>
      <trkpt lat="41.81745" lon="44.82276">
        <ele>566.80296</ele>
        <time>2021-08-11T22:32:48.329Z</time>
      </trkpt>
      <trkpt lat="41.81893" lon="44.82371">
        <ele>574.938367</ele>
        <time>2021-08-11T22:34:27.229Z</time>
      </trkpt>
      <trkpt lat="41.81983" lon="44.82454">
        <ele>577.510506</ele>
        <time>2021-08-11T22:35:17.010Z</time>
      </trkpt>
      <trkpt lat="41.82174" lon="44.82675">
        <ele>578.506905</ele>
        <time>2021-08-11T22:36:36.784Z</time>
      </trkpt>
      <trkpt lat="41.82189" lon="44.82687">
        <ele>578.315988</ele>
        <time>2021-08-11T22:36:41.287Z</time>
      </trkpt>
      <trkpt lat="41.82235" lon="44.82717">
        <ele>577.741503</ele>
        <time>2021-08-11T22:36:54.574Z</time>
      </trkpt>
      <trkpt lat="41.82252" lon="44.82731">
        <ele>577.524833</ele>
        <time>2021-08-11T22:36:59.483Z</time>
      </trkpt>
      <trkpt lat="41.82294" lon="44.82789">
        <ele>576.85742</ele>
        <time>2021-08-11T22:37:14.981Z</time>
      </trkpt>
      <trkpt lat="41.82326" lon="44.82818">
        <ele>577.665642</ele>
        <time>2021-08-11T22:37:25.013Z</time>
      </trkpt>
      <trkpt lat="41.82336" lon="44.82823">
        <ele>577.956291</ele>
        <time>2021-08-11T22:37:27.641Z</time>
      </trkpt>
      <trkpt lat="41.82354" lon="44.82833">
        <ele>578.507463</ele>
        <time>2021-08-11T22:37:33.469Z</time>
      </trkpt>
      <trkpt lat="41.82389" lon="44.82849">
        <ele>579.575457</ele>
        <time>2021-08-11T22:37:50.929Z</time>
      </trkpt>
      <trkpt lat="41.82401" lon="44.82853">
        <ele>579.908129</ele>
        <time>2021-08-11T22:37:57.967Z</time>
      </trkpt>
      <trkpt lat="41.82416" lon="44.82857">
        <ele>580.333162</ele>
        <time>2021-08-11T22:38:03.568Z</time>
      </trkpt>
      <trkpt lat="41.82435" lon="44.82858">
        <ele>580.875901</ele>
        <time>2021-08-11T22:38:19.093Z</time>
      </trkpt>
      <trkpt lat="41.82494" lon="44.82846">
        <ele>583.533945</ele>
        <time>2021-08-11T22:38:58.533Z</time>
      </trkpt>
      <trkpt lat="41.82497" lon="44.82857">
        <ele>584.115881</ele>
        <time>2021-08-11T22:39:06.942Z</time>
      </trkpt>
      <trkpt lat="41.82512" lon="44.82891">
        <ele>586.119061</ele>
        <time>2021-08-11T22:39:27.695Z</time>
      </trkpt>
      <trkpt lat="41.82533" lon="44.82918">
        <ele>588.091695</ele>
        <time>2021-08-11T22:39:46.659Z</time>
      </trkpt>
      <trkpt lat="41.82537" lon="44.82922">
        <ele>588.448613</ele>
        <time>2021-08-11T22:39:54.626Z</time>
      </trkpt>
      <trkpt lat="41.82549" lon="44.82922">
        <ele>589.274985</ele>
        <time>2021-08-11T22:40:03.720Z</time>
      </trkpt>
      <trkpt lat="41.82557" lon="44.82928">
        <ele>589.885829</ele>
        <time>2021-08-11T22:40:07.746Z</time>
      </trkpt>
      <trkpt lat="41.82559" lon="44.82929">
        <ele>590.00803</ele>
        <time>2021-08-11T22:40:08.617Z</time>
      </trkpt>
      <trkpt lat="41.82572" lon="44.82993">
        <ele>593.376202</ele>
        <time>2021-08-11T22:40:47.887Z</time>
      </trkpt>
      <trkpt lat="41.82595" lon="44.8306">
        <ele>594.581388</ele>
        <time>2021-08-11T22:41:19.030Z</time>
      </trkpt>
      <trkpt lat="41.82602" lon="44.83077">
        <ele>594.72929</ele>
        <time>2021-08-11T22:41:28.942Z</time>
      </trkpt>
      <trkpt lat="41.82615" lon="44.83112">
        <ele>595.035489</ele>
        <time>2021-08-11T22:41:39.407Z</time>
      </trkpt>
      <trkpt lat="41.82659" lon="44.83233">
        <ele>595.86971</ele>
        <time>2021-08-11T22:42:05.689Z</time>
      </trkpt>
      <trkpt lat="41.82668" lon="44.83283">
        <ele>595.309168</ele>
        <time>2021-08-11T22:42:15.104Z</time>
      </trkpt>
      <trkpt lat="41.82669" lon="44.83295">
        <ele>595.172029</ele>
        <time>2021-08-11T22:42:17.174Z</time>
      </trkpt>
      <trkpt lat="41.82675" lon="44.83338">
        <ele>594.686074</ele>
        <time>2021-08-11T22:42:26.010Z</time>
      </trkpt>
      <trkpt lat="41.82682" lon="44.83364">
        <ele>594.382633</ele>
        <time>2021-08-11T22:42:31.478Z</time>
      </trkpt>
      <trkpt lat="41.82685" lon="44.8338">
        <ele>594.19571</ele>
        <time>2021-08-11T22:42:35.196Z</time>
      </trkpt>
      <trkpt lat="41.82681" lon="44.83401">
        <ele>593.966001</ele>
        <time>2021-08-11T22:42:39.209Z</time>
      </trkpt>
      <trkpt lat="41.82673" lon="44.83436">
        <ele>593.557097</ele>
        <time>2021-08-11T22:42:47.068Z</time>
      </trkpt>
      <trkpt lat="41.82657" lon="44.83487">
        <ele>593.665954</ele>
        <time>2021-08-11T22:42:59.489Z</time>
      </trkpt>
      <trkpt lat="41.82654" lon="44.83498">
        <ele>593.791651</ele>
        <time>2021-08-11T22:43:02.819Z</time>
      </trkpt>
      <trkpt lat="41.8265" lon="44.83521">
        <ele>594.028452</ele>
        <time>2021-08-11T22:43:09.502Z</time>
      </trkpt>
      <trkpt lat="41.8265" lon="44.8355">
        <ele>594.327922</ele>
        <time>2021-08-11T22:43:17.649Z</time>
      </trkpt>
      <trkpt lat="41.8264" lon="44.83583">
        <ele>594.687286</ele>
        <time>2021-08-11T22:43:28.999Z</time>
      </trkpt>
      <trkpt lat="41.82646" lon="44.83629">
        <ele>595.169397</ele>
        <time>2021-08-11T22:43:45.392Z</time>
      </trkpt>
      <trkpt lat="41.82649" lon="44.83749">
        <ele>597.00561</ele>
        <time>2021-08-11T22:44:25.765Z</time>
      </trkpt>
      <trkpt lat="41.82654" lon="44.83791">
        <ele>597.878912</ele>
        <time>2021-08-11T22:44:39.779Z</time>
      </trkpt>
      <trkpt lat="41.82655" lon="44.83802">
        <ele>598.099373</ele>
        <time>2021-08-11T22:44:44.324Z</time>
      </trkpt>
      <trkpt lat="41.82672" lon="44.83927">
        <ele>600.716134</ele>
        <time>2021-08-11T22:45:30.583Z</time>
      </trkpt>
      <trkpt lat="41.82678" lon="44.84007">
        <ele>602.965931</ele>
        <time>2021-08-11T22:46:02.827Z</time>
      </trkpt>
      <trkpt lat="41.82678" lon="44.84053">
        <ele>604.254333</ele>
        <time>2021-08-11T22:46:19.983Z</time>
      </trkpt>
      <trkpt lat="41.82669" lon="44.84087">
        <ele>605.28914</ele>
        <time>2021-08-11T22:46:34.694Z</time>
      </trkpt>
      <trkpt lat="41.82666" lon="44.84135">
        <ele>606.653157</ele>
        <time>2021-08-11T22:46:55.369Z</time>
      </trkpt>
      <trkpt lat="41.82677" lon="44.84222">
        <ele>609.422263</ele>
        <time>2021-08-11T22:47:32.596Z</time>
      </trkpt>
      <trkpt lat="41.82693" lon="44.84259">
        <ele>610.860259</ele>
        <time>2021-08-11T22:47:50.596Z</time>
      </trkpt>
      <trkpt lat="41.82693" lon="44.84273">
        <ele>611.297844</ele>
        <time>2021-08-11T22:47:56.454Z</time>
      </trkpt>
      <trkpt lat="41.82697" lon="44.84294">
        <ele>612.027786</ele>
        <time>2021-08-11T22:48:05.727Z</time>
      </trkpt>
      <trkpt lat="41.82759" lon="44.84454">
        <ele>618.42745</ele>
        <time>2021-08-11T22:49:22.264Z</time>
      </trkpt>
      <trkpt lat="41.82777" lon="44.84509">
        <ele>620.716926</ele>
        <time>2021-08-11T22:49:49.726Z</time>
      </trkpt>
      <trkpt lat="41.82786" lon="44.84558">
        <ele>622.665155</ele>
        <time>2021-08-11T22:50:12.677Z</time>
      </trkpt>
      <trkpt lat="41.82784" lon="44.84601">
        <ele>624.31273</ele>
        <time>2021-08-11T22:50:32.326Z</time>
      </trkpt>
      <trkpt lat="41.82783" lon="44.84652">
        <ele>626.218824</ele>
        <time>2021-08-11T22:50:55.984Z</time>
      </trkpt>
      <trkpt lat="41.82781" lon="44.84728">
        <ele>629.048635</ele>
        <time>2021-08-11T22:51:31.748Z</time>
      </trkpt>
      <trkpt lat="41.82797" lon="44.84881">
        <ele>634.378503</ele>
        <time>2021-08-11T22:52:38.522Z</time>
      </trkpt>
      <trkpt lat="41.82809" lon="44.84954">
        <ele>635.939751</ele>
        <time>2021-08-11T22:53:04.668Z</time>
      </trkpt>
      <trkpt lat="41.82815" lon="44.84986">
        <ele>636.629011</ele>
        <time>2021-08-11T22:53:15.343Z</time>
      </trkpt>
      <trkpt lat="41.82881" lon="44.85155">
        <ele>640.77227</ele>
        <time>2021-08-11T22:54:16.768Z</time>
      </trkpt>
      <trkpt lat="41.82928" lon="44.85249">
        <ele>643.35345</ele>
        <time>2021-08-11T22:54:57.843Z</time>
      </trkpt>
      <trkpt lat="41.82977" lon="44.8536">
        <ele>647.188089</ele>
        <time>2021-08-11T22:55:50.989Z</time>
      </trkpt>
      <trkpt lat="41.83024" lon="44.85483">
        <ele>651.808521</ele>
        <time>2021-08-11T22:56:50.763Z</time>
      </trkpt>
      <trkpt lat="41.83118" lon="44.85799">
        <ele>662.946771</ele>
        <time>2021-08-11T22:59:10.631Z</time>
      </trkpt>
      <trkpt lat="41.83136" lon="44.85861">
        <ele>665.227904</ele>
        <time>2021-08-11T22:59:39.467Z</time>
      </trkpt>
      <trkpt lat="41.83176" lon="44.85997">
        <ele>670.031122</ele>
        <time>2021-08-11T23:00:42.819Z</time>
      </trkpt>
      <trkpt lat="41.83216" lon="44.86141">
        <ele>674.792834</ele>
        <time>2021-08-11T23:01:45.421Z</time>
      </trkpt>
      <trkpt lat="41.83229" lon="44.86189">
        <ele>676.296746</ele>
        <time>2021-08-11T23:02:04.572Z</time>
      </trkpt>
      <trkpt lat="41.83251" lon="44.86252">
        <ele>678.061797</ele>
        <time>2021-08-11T23:02:29.421Z</time>
      </trkpt>
      <trkpt lat="41.8327" lon="44.86289">
        <ele>679.194499</ele>
        <time>2021-08-11T23:02:45.884Z</time>
      </trkpt>
      <trkpt lat="41.83338" lon="44.8639">
        <ele>682.762111</ele>
        <time>2021-08-11T23:03:37.176Z</time>
      </trkpt>
      <trkpt lat="41.83352" lon="44.86409">
        <ele>683.592061</ele>
        <time>2021-08-11T23:03:47.702Z</time>
      </trkpt>
      <trkpt lat="41.83381" lon="44.86453">
        <ele>685.376305</ele>
        <time>2021-08-11T23:04:11.271Z</time>
      </trkpt>
      <trkpt lat="41.83423" lon="44.86507">
        <ele>687.736303</ele>
        <time>2021-08-11T23:04:43.040Z</time>
      </trkpt>
      <trkpt lat="41.83505" lon="44.86557">
        <ele>691.269312</ele>
        <time>2021-08-11T23:05:34.196Z</time>
      </trkpt>
      <trkpt lat="41.83569" lon="44.86611">
        <ele>694.056588</ele>
        <time>2021-08-11T23:06:12.492Z</time>
      </trkpt>
      <trkpt lat="41.8359" lon="44.86612">
        <ele>694.826743</ele>
        <time>2021-08-11T23:06:22.957Z</time>
      </trkpt>
      <trkpt lat="41.83614" lon="44.86621">
        <ele>695.786297</ele>
        <time>2021-08-11T23:06:35.818Z</time>
      </trkpt>
      <trkpt lat="41.83658" lon="44.86664">
        <ele>697.516053</ele>
        <time>2021-08-11T23:07:02.484Z</time>
      </trkpt>
      <trkpt lat="41.83687" lon="44.86676">
        <ele>698.425533</ele>
        <time>2021-08-11T23:07:16.663Z</time>
      </trkpt>
      <trkpt lat="41.83733" lon="44.86668">
        <ele>699.886079</ele>
        <time>2021-08-11T23:07:38.735Z</time>
      </trkpt>
      <trkpt lat="41.83745" lon="44.8668">
        <ele>700.352719</ele>
        <time>2021-08-11T23:07:45.547Z</time>
      </trkpt>
      <trkpt lat="41.83768" lon="44.8672">
        <ele>701.50769</ele>
        <time>2021-08-11T23:08:03.829Z</time>
      </trkpt>
      <trkpt lat="41.8381" lon="44.86759">
        <ele>703.340678</ele>
        <time>2021-08-11T23:08:29.556Z</time>
      </trkpt>
      <trkpt lat="41.83849" lon="44.86852">
        <ele>706.217361</ele>
        <time>2021-08-11T23:09:09.960Z</time>
      </trkpt>
      <trkpt lat="41.8385" lon="44.86859">
        <ele>706.400696</ele>
        <time>2021-08-11T23:09:13.531Z</time>
      </trkpt>
      <trkpt lat="41.83859" lon="44.86892">
        <ele>707.352856</ele>
        <time>2021-08-11T23:09:26.845Z</time>
      </trkpt>
      <trkpt lat="41.83887" lon="44.87064">
        <ele>712.367674</ele>
        <time>2021-08-11T23:10:37.813Z</time>
      </trkpt>
      <trkpt lat="41.8389" lon="44.87085">
        <ele>713.000031</ele>
        <time>2021-08-11T23:10:46.792Z</time>
      </trkpt>
      <trkpt lat="41.83909" lon="44.87146">
        <ele>714.902119</ele>
        <time>2021-08-11T23:11:11.404Z</time>
      </trkpt>
      <trkpt lat="41.83972" lon="44.87228">
        <ele>717.790992</ele>
        <time>2021-08-11T23:11:55.808Z</time>
      </trkpt>
      <trkpt lat="41.8398" lon="44.87249">
        <ele>718.37205</ele>
        <time>2021-08-11T23:12:04.908Z</time>
      </trkpt>
      <trkpt lat="41.84005" lon="44.87368">
        <ele>721.300214</ele>
        <time>2021-08-11T23:12:49.173Z</time>
      </trkpt>
      <trkpt lat="41.84022" lon="44.87405">
        <ele>722.194236</ele>
        <time>2021-08-11T23:13:04.400Z</time>
      </trkpt>
      <trkpt lat="41.8403" lon="44.87417">
        <ele>722.524222</ele>
        <time>2021-08-11T23:13:10.130Z</time>
      </trkpt>
      <trkpt lat="41.84062" lon="44.87491">
        <ele>724.269921</ele>
        <time>2021-08-11T23:13:39.151Z</time>
      </trkpt>
      <trkpt lat="41.8412" lon="44.87576">
        <ele>726.867489</ele>
        <time>2021-08-11T23:14:17.839Z</time>
      </trkpt>
      <trkpt lat="41.84189" lon="44.8771">
        <ele>731.370773</ele>
        <time>2021-08-11T23:15:20.754Z</time>
      </trkpt>
      <trkpt lat="41.84202" lon="44.87753">
        <ele>732.686251</ele>
        <time>2021-08-11T23:15:40.385Z</time>
      </trkpt>
      <trkpt lat="41.84223" lon="44.8784">
        <ele>736.240581</ele>
        <time>2021-08-11T23:16:21.119Z</time>
      </trkpt>
      <trkpt lat="41.84244" lon="44.87973">
        <ele>741.528417</ele>
        <time>2021-08-11T23:17:25.028Z</time>
      </trkpt>
      <trkpt lat="41.84251" lon="44.88103">
        <ele>746.006844</ele>
        <time>2021-08-11T23:18:22.170Z</time>
      </trkpt>
      <trkpt lat="41.84243" lon="44.88222">
        <ele>750.067588</ele>
        <time>2021-08-11T23:19:11.019Z</time>
      </trkpt>
      <trkpt lat="41.8426" lon="44.88328">
        <ele>753.684838</ele>
        <time>2021-08-11T23:19:52.419Z</time>
      </trkpt>
      <trkpt lat="41.84316" lon="44.88511">
        <ele>760.975846</ele>
        <time>2021-08-11T23:21:19.753Z</time>
      </trkpt>
      <trkpt lat="41.84332" lon="44.88532">
        <ele>762.304717</ele>
        <time>2021-08-11T23:21:34.367Z</time>
      </trkpt>
      <trkpt lat="41.8436" lon="44.88561">
        <ele>764.389693</ele>
        <time>2021-08-11T23:21:56.886Z</time>
      </trkpt>
      <trkpt lat="41.84428" lon="44.8864">
        <ele>769.764781</ele>
        <time>2021-08-11T23:22:57.805Z</time>
      </trkpt>
      <trkpt lat="41.84485" lon="44.88685">
        <ele>773.816134</ele>
        <time>2021-08-11T23:23:43.072Z</time>
      </trkpt>
      <trkpt lat="41.84522" lon="44.88704">
        <ele>776.258572</ele>
        <time>2021-08-11T23:24:08.284Z</time>
      </trkpt>
      <trkpt lat="41.84564" lon="44.88736">
        <ele>779.255113</ele>
        <time>2021-08-11T23:24:39.524Z</time>
      </trkpt>
      <trkpt lat="41.84585" lon="44.88738">
        <ele>780.405494</ele>
        <time>2021-08-11T23:24:52.666Z</time>
      </trkpt>
      <trkpt lat="41.84612" lon="44.88721">
        <ele>781.863728</ele>
        <time>2021-08-11T23:25:11.609Z</time>
      </trkpt>
      <trkpt lat="41.84695" lon="44.88728">
        <ele>785.881131</ele>
        <time>2021-08-11T23:26:00.817Z</time>
      </trkpt>
      <trkpt lat="41.8478" lon="44.88721">
        <ele>789.684638</ele>
        <time>2021-08-11T23:26:46.789Z</time>
      </trkpt>
      <trkpt lat="41.8482" lon="44.88731">
        <ele>791.192856</ele>
        <time>2021-08-11T23:27:07.663Z</time>
      </trkpt>
      <trkpt lat="41.84853" lon="44.88765">
        <ele>792.706538</ele>
        <time>2021-08-11T23:27:28.280Z</time>
      </trkpt>
      <trkpt lat="41.84924" lon="44.88787">
        <ele>795.428459</ele>
        <time>2021-08-11T23:28:05.397Z</time>
      </trkpt>
      <trkpt lat="41.8495" lon="44.88801">
        <ele>796.721301</ele>
        <time>2021-08-11T23:28:20.213Z</time>
      </trkpt>
      <trkpt lat="41.84996" lon="44.88851">
        <ele>799.427222</ele>
        <time>2021-08-11T23:28:52.490Z</time>
      </trkpt>
      <trkpt lat="41.85054" lon="44.88887">
        <ele>802.354202</ele>
        <time>2021-08-11T23:29:29.341Z</time>
      </trkpt>
      <trkpt lat="41.85106" lon="44.88895">
        <ele>804.69175</ele>
        <time>2021-08-11T23:30:04.049Z</time>
      </trkpt>
      <trkpt lat="41.85207" lon="44.88891">
        <ele>809.076624</ele>
        <time>2021-08-11T23:31:03.707Z</time>
      </trkpt>
      <trkpt lat="41.8523" lon="44.88895">
        <ele>810.081392</ele>
        <time>2021-08-11T23:31:15.303Z</time>
      </trkpt>
      <trkpt lat="41.85243" lon="44.88904">
        <ele>810.748416</ele>
        <time>2021-08-11T23:31:20.589Z</time>
      </trkpt>
      <trkpt lat="41.85253" lon="44.88926">
        <ele>811.48156</ele>
        <time>2021-08-11T23:31:30.586Z</time>
      </trkpt>
      <trkpt lat="41.85254" lon="44.88944">
        <ele>811.814856</ele>
        <time>2021-08-11T23:31:34.529Z</time>
      </trkpt>
      <trkpt lat="41.8525" lon="44.88961">
        <ele>812.144637</ele>
        <time>2021-08-11T23:31:42.566Z</time>
      </trkpt>
      <trkpt lat="41.8524" lon="44.88976">
        <ele>812.513715</ele>
        <time>2021-08-11T23:31:47.322Z</time>
      </trkpt>
      <trkpt lat="41.85202" lon="44.89008">
        <ele>813.627031</ele>
        <time>2021-08-11T23:32:06.185Z</time>
      </trkpt>
      <trkpt lat="41.8519" lon="44.8903">
        <ele>814.140375</ele>
        <time>2021-08-11T23:32:17.321Z</time>
      </trkpt>
      <trkpt lat="41.85185" lon="44.89052">
        <ele>814.555564</ele>
        <time>2021-08-11T23:32:22.798Z</time>
      </trkpt>
      <trkpt lat="41.85187" lon="44.89084">
        <ele>815.14891</ele>
        <time>2021-08-11T23:32:32.564Z</time>
      </trkpt>
      <trkpt lat="41.85201" lon="44.89116">
        <ele>815.849519</ele>
        <time>2021-08-11T23:32:44.366Z</time>
      </trkpt>
      <trkpt lat="41.85406" lon="44.89317">
        <ele>827.074014</ele>
        <time>2021-08-11T23:35:10.681Z</time>
      </trkpt>
      <trkpt lat="41.85444" lon="44.89402">
        <ele>830.475557</ele>
        <time>2021-08-11T23:35:52.746Z</time>
      </trkpt>
      <trkpt lat="41.85464" lon="44.89492">
        <ele>833.580496</ele>
        <time>2021-08-11T23:36:31.471Z</time>
      </trkpt>
      <trkpt lat="41.85491" lon="44.89539">
        <ele>835.488742</ele>
        <time>2021-08-11T23:36:54.970Z</time>
      </trkpt>
      <trkpt lat="41.85513" lon="44.89602">
        <ele>837.742558</ele>
        <time>2021-08-11T23:37:22.935Z</time>
      </trkpt>
      <trkpt lat="41.85536" lon="44.89647">
        <ele>839.522271</ele>
        <time>2021-08-11T23:37:46.230Z</time>
      </trkpt>
      <trkpt lat="41.85555" lon="44.89665">
        <ele>840.769215</ele>
        <time>2021-08-11T23:37:59.642Z</time>
      </trkpt>
      <trkpt lat="41.85603" lon="44.89684">
        <ele>843.564061</ele>
        <time>2021-08-11T23:38:30.973Z</time>
      </trkpt>
      <trkpt lat="41.85611" lon="44.89694">
        <ele>844.144465</ele>
        <time>2021-08-11T23:38:37.563Z</time>
      </trkpt>
      <trkpt lat="41.85617" lon="44.89704">
        <ele>844.709763</ele>
        <time>2021-08-11T23:38:43.932Z</time>
      </trkpt>
      <trkpt lat="41.85643" lon="44.89795">
        <ele>848.757303</ele>
        <time>2021-08-11T23:39:30.468Z</time>
      </trkpt>
      <trkpt lat="41.85667" lon="44.89817">
        <ele>850.415487</ele>
        <time>2021-08-11T23:39:48.793Z</time>
      </trkpt>
      <trkpt lat="41.85698" lon="44.89831">
        <ele>852.449491</ele>
        <time>2021-08-11T23:40:10.058Z</time>
      </trkpt>
      <trkpt lat="41.85764" lon="44.89846">
        <ele>856.595948</ele>
        <time>2021-08-11T23:40:54.376Z</time>
      </trkpt>
      <trkpt lat="41.85802" lon="44.89872">
        <ele>859.251013</ele>
        <time>2021-08-11T23:41:22.848Z</time>
      </trkpt>
      <trkpt lat="41.85835" lon="44.89913">
        <ele>862.154014</ele>
        <time>2021-08-11T23:41:52.788Z</time>
      </trkpt>
      <trkpt lat="41.85858" lon="44.89962">
        <ele>865.02938</ele>
        <time>2021-08-11T23:42:21.712Z</time>
      </trkpt>
      <trkpt lat="41.85884" lon="44.89994">
        <ele>867.425323</ele>
        <time>2021-08-11T23:42:46.510Z</time>
      </trkpt>
      <trkpt lat="41.85904" lon="44.90039">
        <ele>870.057652</ele>
        <time>2021-08-11T23:43:14.157Z</time>
      </trkpt>
      <trkpt lat="41.85919" lon="44.90055">
        <ele>871.340697</ele>
        <time>2021-08-11T23:43:27.632Z</time>
      </trkpt>
      <trkpt lat="41.86024" lon="44.90063">
        <ele>877.617368</ele>
        <time>2021-08-11T23:44:40.586Z</time>
      </trkpt>
      <trkpt lat="41.86067" lon="44.90053">
        <ele>880.093907</ele>
        <time>2021-08-11T23:45:07.961Z</time>
      </trkpt>
      <trkpt lat="41.86082" lon="44.90059">
        <ele>880.993109</ele>
        <time>2021-08-11T23:45:17.451Z</time>
      </trkpt>
      <trkpt lat="41.86093" lon="44.90075">
        <ele>881.896496</ele>
        <time>2021-08-11T23:45:26.714Z</time>
      </trkpt>
      <trkpt lat="41.86096" lon="44.90095">
        <ele>882.752072</ele>
        <time>2021-08-11T23:45:35.158Z</time>
      </trkpt>
      <trkpt lat="41.8609" lon="44.90115">
        <ele>883.376237</ele>
        <time>2021-08-11T23:45:44.186Z</time>
      </trkpt>
      <trkpt lat="41.86052" lon="44.90154">
        <ele>884.302873</ele>
        <time>2021-08-11T23:46:07.609Z</time>
      </trkpt>
      <trkpt lat="41.8602" lon="44.90235">
        <ele>885.621715</ele>
        <time>2021-08-11T23:46:35.018Z</time>
      </trkpt>
      <trkpt lat="41.85989" lon="44.90305">
        <ele>886.734833</ele>
        <time>2021-08-11T23:46:55.238Z</time>
      </trkpt>
      <trkpt lat="41.85974" lon="44.90341">
        <ele>886.99089</ele>
        <time>2021-08-11T23:47:05.087Z</time>
      </trkpt>
      <trkpt lat="41.85946" lon="44.90432">
        <ele>887.589383</ele>
        <time>2021-08-11T23:47:29.035Z</time>
      </trkpt>
      <trkpt lat="41.85942" lon="44.9046">
        <ele>887.759679</ele>
        <time>2021-08-11T23:47:36.395Z</time>
      </trkpt>
      <trkpt lat="41.85946" lon="44.90478">
        <ele>887.874845</ele>
        <time>2021-08-11T23:47:41.454Z</time>
      </trkpt>
      <trkpt lat="41.85974" lon="44.90522">
        <ele>888.419251</ele>
        <time>2021-08-11T23:47:58.380Z</time>
      </trkpt>
      <trkpt lat="41.85999" lon="44.90586">
        <ele>890.368131</ele>
        <time>2021-08-11T23:48:23.626Z</time>
      </trkpt>
      <trkpt lat="41.86045" lon="44.90645">
        <ele>892.638096</ele>
        <time>2021-08-11T23:48:57.140Z</time>
      </trkpt>
      <trkpt lat="41.86078" lon="44.90671">
        <ele>894.00212</ele>
        <time>2021-08-11T23:49:18.925Z</time>
      </trkpt>
      <trkpt lat="41.8611" lon="44.90706">
        <ele>896.086784</ele>
        <time>2021-08-11T23:49:43.065Z</time>
      </trkpt>
      <trkpt lat="41.86131" lon="44.90737">
        <ele>898.061835</ele>
        <time>2021-08-11T23:50:02.241Z</time>
      </trkpt>
      <trkpt lat="41.86159" lon="44.90755">
        <ele>899.927131</ele>
        <time>2021-08-11T23:50:21.012Z</time>
      </trkpt>
      <trkpt lat="41.86175" lon="44.90785">
        <ele>901.648047</ele>
        <time>2021-08-11T23:50:40.238Z</time>
      </trkpt>
      <trkpt lat="41.86177" lon="44.90849">
        <ele>904.560787</ele>
        <time>2021-08-11T23:51:13.380Z</time>
      </trkpt>
      <trkpt lat="41.86202" lon="44.90906">
        <ele>908.466391</ele>
        <time>2021-08-11T23:51:50.037Z</time>
      </trkpt>
      <trkpt lat="41.86207" lon="44.90925">
        <ele>909.790449</ele>
        <time>2021-08-11T23:52:00.866Z</time>
      </trkpt>
      <trkpt lat="41.86218" lon="44.90953">
        <ele>911.870632</ele>
        <time>2021-08-11T23:52:19.725Z</time>
      </trkpt>
      <trkpt lat="41.86266" lon="44.91008">
        <ele>917.45234</ele>
        <time>2021-08-11T23:53:11.479Z</time>
      </trkpt>
      <trkpt lat="41.86279" lon="44.91012">
        <ele>918.71421</ele>
        <time>2021-08-11T23:53:23.870Z</time>
      </trkpt>
      <trkpt lat="41.86338" lon="44.91005">
        <ele>923.649883</ele>
        <time>2021-08-11T23:54:16.378Z</time>
      </trkpt>
      <trkpt lat="41.86382" lon="44.91024">
        <ele>927.323472</ele>
        <time>2021-08-11T23:54:55.070Z</time>
      </trkpt>
      <trkpt lat="41.86472" lon="44.91016">
        <ele>934.48067</ele>
        <time>2021-08-11T23:56:00.935Z</time>
      </trkpt>
      <trkpt lat="41.86481" lon="44.91019">
        <ele>935.217887</ele>
        <time>2021-08-11T23:56:07.055Z</time>
      </trkpt>
      <trkpt lat="41.86493" lon="44.91038">
        <ele>936.219472</ele>
        <time>2021-08-11T23:56:18.335Z</time>
      </trkpt>
      <trkpt lat="41.8649" lon="44.91065">
        <ele>936.91352</ele>
        <time>2021-08-11T23:56:30.590Z</time>
      </trkpt>
      <trkpt lat="41.86447" lon="44.9109">
        <ele>938.515291</ele>
        <time>2021-08-11T23:56:54.215Z</time>
      </trkpt>
      <trkpt lat="41.86401" lon="44.91134">
        <ele>940.415606</ele>
        <time>2021-08-11T23:57:18.648Z</time>
      </trkpt>
      <trkpt lat="41.86395" lon="44.91137">
        <ele>940.640206</ele>
        <time>2021-08-11T23:57:21.307Z</time>
      </trkpt>
      <trkpt lat="41.86364" lon="44.9115">
        <ele>941.762438</ele>
        <time>2021-08-11T23:57:35.071Z</time>
      </trkpt>
      <trkpt lat="41.86358" lon="44.91162">
        <ele>942.164082</ele>
        <time>2021-08-11T23:57:39.334Z</time>
      </trkpt>
      <trkpt lat="41.86359" lon="44.91176">
        <ele>942.691435</ele>
        <time>2021-08-11T23:57:43.966Z</time>
      </trkpt>
      <trkpt lat="41.86382" lon="44.91213">
        <ele>944.489138</ele>
        <time>2021-08-11T23:58:01.618Z</time>
      </trkpt>
      <trkpt lat="41.86394" lon="44.91253">
        <ele>946.09946</ele>
        <time>2021-08-11T23:58:19.130Z</time>
      </trkpt>
      <trkpt lat="41.86371" lon="44.91371">
        <ele>950.674984</ele>
        <time>2021-08-11T23:59:17.298Z</time>
      </trkpt>
      <trkpt lat="41.86371" lon="44.91397">
        <ele>952.114641</ele>
        <time>2021-08-11T23:59:31.484Z</time>
      </trkpt>
      <trkpt lat="41.86379" lon="44.91416">
        <ele>953.621974</ele>
        <time>2021-08-11T23:59:44.782Z</time>
      </trkpt>
      <trkpt lat="41.86411" lon="44.91433">
        <ele>956.80065</ele>
        <time>2021-08-12T00:00:14.080Z</time>
      </trkpt>
      <trkpt lat="41.86436" lon="44.91431">
        <ele>959.051376</ele>
        <time>2021-08-12T00:00:35.781Z</time>
      </trkpt>
      <trkpt lat="41.86485" lon="44.91413">
        <ele>963.739007</ele>
        <time>2021-08-12T00:01:21.207Z</time>
      </trkpt>
      <trkpt lat="41.86519" lon="44.91412">
        <ele>966.914545</ele>
        <time>2021-08-12T00:01:51.150Z</time>
      </trkpt>
      <trkpt lat="41.86563" lon="44.91469">
        <ele>971.234809</ele>
        <time>2021-08-12T00:02:39.338Z</time>
      </trkpt>
      <trkpt lat="41.86578" lon="44.91508">
        <ele>973.411205</ele>
        <time>2021-08-12T00:03:02.889Z</time>
      </trkpt>
      <trkpt lat="41.86579" lon="44.91523">
        <ele>974.193591</ele>
        <time>2021-08-12T00:03:11.116Z</time>
      </trkpt>
      <trkpt lat="41.8657" lon="44.91552">
        <ele>975.764436</ele>
        <time>2021-08-12T00:03:26.528Z</time>
      </trkpt>
      <trkpt lat="41.86562" lon="44.91565">
        <ele>976.634382</ele>
        <time>2021-08-12T00:03:34.863Z</time>
      </trkpt>
      <trkpt lat="41.8652" lon="44.91594">
        <ele>979.775428</ele>
        <time>2021-08-12T00:04:01.843Z</time>
      </trkpt>
      <trkpt lat="41.86503" lon="44.91622">
        <ele>980.70871</ele>
        <time>2021-08-12T00:04:16.192Z</time>
      </trkpt>
      <trkpt lat="41.86486" lon="44.9164">
        <ele>981.447047</ele>
        <time>2021-08-12T00:04:26.634Z</time>
      </trkpt>
      <trkpt lat="41.86463" lon="44.91654">
        <ele>982.326671</ele>
        <time>2021-08-12T00:04:38.593Z</time>
      </trkpt>
      <trkpt lat="41.86421" lon="44.91657">
        <ele>983.762958</ele>
        <time>2021-08-12T00:04:57.916Z</time>
      </trkpt>
      <trkpt lat="41.86414" lon="44.91665">
        <ele>984.086436</ele>
        <time>2021-08-12T00:05:02.361Z</time>
      </trkpt>
      <trkpt lat="41.86416" lon="44.91682">
        <ele>984.533727</ele>
        <time>2021-08-12T00:05:08.624Z</time>
      </trkpt>
      <trkpt lat="41.86438" lon="44.91691">
        <ele>985.326386</ele>
        <time>2021-08-12T00:05:20.034Z</time>
      </trkpt>
      <trkpt lat="41.86476" lon="44.9169">
        <ele>986.904045</ele>
        <time>2021-08-12T00:05:39.340Z</time>
      </trkpt>
      <trkpt lat="41.86485" lon="44.91697">
        <ele>987.411351</ele>
        <time>2021-08-12T00:05:44.773Z</time>
      </trkpt>
      <trkpt lat="41.86511" lon="44.91722">
        <ele>988.998126</ele>
        <time>2021-08-12T00:06:02.275Z</time>
      </trkpt>
      <trkpt lat="41.86566" lon="44.91807">
        <ele>993.1365</ele>
        <time>2021-08-12T00:06:51.944Z</time>
      </trkpt>
      <trkpt lat="41.86581" lon="44.91813">
        <ele>993.897022</ele>
        <time>2021-08-12T00:07:01.767Z</time>
      </trkpt>
      <trkpt lat="41.86586" lon="44.91803">
        <ele>994.378462</ele>
        <time>2021-08-12T00:07:08.090Z</time>
      </trkpt>
      <trkpt lat="41.86584" lon="44.91793">
        <ele>994.752916</ele>
        <time>2021-08-12T00:07:12.978Z</time>
      </trkpt>
      <trkpt lat="41.86527" lon="44.91701">
        <ele>1001.809223</ele>
        <time>2021-08-12T00:08:17.258Z</time>
      </trkpt>
      <trkpt lat="41.86522" lon="44.91683">
        <ele>1002.992531</ele>
        <time>2021-08-12T00:08:28.821Z</time>
      </trkpt>
      <trkpt lat="41.86525" lon="44.91665">
        <ele>1004.051204</ele>
        <time>2021-08-12T00:08:39.450Z</time>
      </trkpt>
      <trkpt lat="41.86534" lon="44.91657">
        <ele>1004.913574</ele>
        <time>2021-08-12T00:08:48.177Z</time>
      </trkpt>
      <trkpt lat="41.8655" lon="44.91656">
        <ele>1006.181472</ele>
        <time>2021-08-12T00:09:00.997Z</time>
      </trkpt>
      <trkpt lat="41.8667" lon="44.91653">
        <ele>1015.18172</ele>
        <time>2021-08-12T00:10:41.434Z</time>
      </trkpt>
      <trkpt lat="41.86766" lon="44.91613">
        <ele>1022.26842</ele>
        <time>2021-08-12T00:11:48.857Z</time>
      </trkpt>
      <trkpt lat="41.86787" lon="44.9161">
        <ele>1022.521747</ele>
        <time>2021-08-12T00:11:59.268Z</time>
      </trkpt>
      <trkpt lat="41.86791" lon="44.91622">
        <ele>1022.649593</ele>
        <time>2021-08-12T00:12:04.495Z</time>
      </trkpt>
      <trkpt lat="41.86777" lon="44.91638">
        <ele>1022.871397</ele>
        <time>2021-08-12T00:12:12.184Z</time>
      </trkpt>
      <trkpt lat="41.86606" lon="44.91705">
        <ele>1025.550523</ele>
        <time>2021-08-12T00:13:05.207Z</time>
      </trkpt>
      <trkpt lat="41.866" lon="44.91721">
        <ele>1025.843904</ele>
        <time>2021-08-12T00:13:09.787Z</time>
      </trkpt>
      <trkpt lat="41.86605" lon="44.91736">
        <ele>1026.109827</ele>
        <time>2021-08-12T00:13:14.198Z</time>
      </trkpt>
      <trkpt lat="41.86616" lon="44.9174">
        <ele>1026.362136</ele>
        <time>2021-08-12T00:13:18.698Z</time>
      </trkpt>
      <trkpt lat="41.86673" lon="44.91739">
        <ele>1027.615543</ele>
        <time>2021-08-12T00:13:44.529Z</time>
      </trkpt>
      <trkpt lat="41.86772" lon="44.91773">
        <ele>1033.8185</ele>
        <time>2021-08-12T00:14:50.659Z</time>
      </trkpt>
      <trkpt lat="41.86778" lon="44.91808">
        <ele>1035.971918</ele>
        <time>2021-08-12T00:15:11.597Z</time>
      </trkpt>
      <trkpt lat="41.86762" lon="44.91845">
        <ele>1038.522241</ele>
        <time>2021-08-12T00:15:35.915Z</time>
      </trkpt>
      <trkpt lat="41.86762" lon="44.91859">
        <ele>1039.339178</ele>
        <time>2021-08-12T00:15:43.000Z</time>
      </trkpt>
      <trkpt lat="41.86767" lon="44.91866">
        <ele>1039.941387</ele>
        <time>2021-08-12T00:15:49.488Z</time>
      </trkpt>
      <trkpt lat="41.86774" lon="44.91867">
        <ele>1040.433847</ele>
        <time>2021-08-12T00:15:55.380Z</time>
      </trkpt>
      <trkpt lat="41.86781" lon="44.9186">
        <ele>1041.124773</ele>
        <time>2021-08-12T00:16:04.916Z</time>
      </trkpt>
      <trkpt lat="41.86799" lon="44.91792">
        <ele>1046.492124</ele>
        <time>2021-08-12T00:16:54.785Z</time>
      </trkpt>
      <trkpt lat="41.86796" lon="44.91736">
        <ele>1051.258601</ele>
        <time>2021-08-12T00:17:36.343Z</time>
      </trkpt>
      <trkpt lat="41.86801" lon="44.91718">
        <ele>1052.795601</ele>
        <time>2021-08-12T00:17:51.666Z</time>
      </trkpt>
      <trkpt lat="41.86809" lon="44.91711">
        <ele>1053.891931</ele>
        <time>2021-08-12T00:17:59.122Z</time>
      </trkpt>
      <trkpt lat="41.86824" lon="44.91712">
        <ele>1055.602383</ele>
        <time>2021-08-12T00:18:14.450Z</time>
      </trkpt>
      <trkpt lat="41.8687" lon="44.91728">
        <ele>1060.974465</ele>
        <time>2021-08-12T00:18:59.912Z</time>
      </trkpt>
      <trkpt lat="41.8692" lon="44.91732">
        <ele>1065.523821</ele>
        <time>2021-08-12T00:19:44.287Z</time>
      </trkpt>
      <trkpt lat="41.8694" lon="44.91721">
        <ele>1067.173506</ele>
        <time>2021-08-12T00:20:03.483Z</time>
      </trkpt>
      <trkpt lat="41.86963" lon="44.91695">
        <ele>1069.560369</ele>
        <time>2021-08-12T00:20:29.546Z</time>
      </trkpt>
      <trkpt lat="41.8703" lon="44.91598">
        <ele>1077.220308</ele>
        <time>2021-08-12T00:21:32.476Z</time>
      </trkpt>
      <trkpt lat="41.87065" lon="44.91558">
        <ele>1079.611314</ele>
        <time>2021-08-12T00:21:59.583Z</time>
      </trkpt>
      <trkpt lat="41.87083" lon="44.91521">
        <ele>1081.325645</ele>
        <time>2021-08-12T00:22:18.984Z</time>
      </trkpt>
      <trkpt lat="41.8709" lon="44.91479">
        <ele>1083.022729</ele>
        <time>2021-08-12T00:22:38.445Z</time>
      </trkpt>
      <trkpt lat="41.87088" lon="44.91425">
        <ele>1085.095356</ele>
        <time>2021-08-12T00:23:02.177Z</time>
      </trkpt>
      <trkpt lat="41.87063" lon="44.9139">
        <ele>1087.014682</ele>
        <time>2021-08-12T00:23:24.254Z</time>
      </trkpt>
      <trkpt lat="41.87058" lon="44.91377">
        <ele>1087.544454</ele>
        <time>2021-08-12T00:23:30.726Z</time>
      </trkpt>
      <trkpt lat="41.87063" lon="44.91361">
        <ele>1088.208327</ele>
        <time>2021-08-12T00:23:39.009Z</time>
      </trkpt>
      <trkpt lat="41.87123" lon="44.91309">
        <ele>1091.844826</ele>
        <time>2021-08-12T00:24:24.995Z</time>
      </trkpt>
      <trkpt lat="41.872" lon="44.91212">
        <ele>1096.926346</ele>
        <time>2021-08-12T00:25:24.295Z</time>
      </trkpt>
      <trkpt lat="41.87207" lon="44.91193">
        <ele>1097.601977</ele>
        <time>2021-08-12T00:25:31.887Z</time>
      </trkpt>
      <trkpt lat="41.87211" lon="44.91169">
        <ele>1098.345482</ele>
        <time>2021-08-12T00:25:40.146Z</time>
      </trkpt>
      <trkpt lat="41.87207" lon="44.9114">
        <ele>1099.264752</ele>
        <time>2021-08-12T00:25:49.605Z</time>
      </trkpt>
      <trkpt lat="41.87184" lon="44.91061">
        <ele>1101.912841</ele>
        <time>2021-08-12T00:26:24.161Z</time>
      </trkpt>
      <trkpt lat="41.87191" lon="44.90985">
        <ele>1104.8352</ele>
        <time>2021-08-12T00:27:00.089Z</time>
      </trkpt>
      <trkpt lat="41.87203" lon="44.90937">
        <ele>1107.16384</ele>
        <time>2021-08-12T00:27:25.254Z</time>
      </trkpt>
      <trkpt lat="41.87213" lon="44.90913">
        <ele>1108.421939</ele>
        <time>2021-08-12T00:27:39.422Z</time>
      </trkpt>
      <trkpt lat="41.87223" lon="44.90893">
        <ele>1109.534471</ele>
        <time>2021-08-12T00:27:51.312Z</time>
      </trkpt>
      <trkpt lat="41.87229" lon="44.90887">
        <ele>1110.01244</ele>
        <time>2021-08-12T00:27:56.056Z</time>
      </trkpt>
      <trkpt lat="41.87243" lon="44.90888">
        <ele>1110.863337</ele>
        <time>2021-08-12T00:28:06.554Z</time>
      </trkpt>
      <trkpt lat="41.87265" lon="44.90906">
        <ele>1112.457622</ele>
        <time>2021-08-12T00:28:22.368Z</time>
      </trkpt>
      <trkpt lat="41.8727" lon="44.90918">
        <ele>1113.063421</ele>
        <time>2021-08-12T00:28:30.986Z</time>
      </trkpt>
      <trkpt lat="41.87278" lon="44.90946">
        <ele>1114.326069</ele>
        <time>2021-08-12T00:28:45.686Z</time>
      </trkpt>
      <trkpt lat="41.87299" lon="44.91042">
        <ele>1116.26502</ele>
        <time>2021-08-12T00:29:33.427Z</time>
      </trkpt>
      <trkpt lat="41.87317" lon="44.91093">
        <ele>1117.350015</ele>
        <time>2021-08-12T00:29:52.085Z</time>
      </trkpt>
      <trkpt lat="41.87321" lon="44.91102">
        <ele>1117.554978</ele>
        <time>2021-08-12T00:29:56.033Z</time>
      </trkpt>
      <trkpt lat="41.87324" lon="44.91111">
        <ele>1117.753608</ele>
        <time>2021-08-12T00:29:58.862Z</time>
      </trkpt>
      <trkpt lat="41.87332" lon="44.91129">
        <ele>1118.161864</ele>
        <time>2021-08-12T00:30:02.979Z</time>
      </trkpt>
      <trkpt lat="41.87344" lon="44.91181">
        <ele>1118.225492</ele>
        <time>2021-08-12T00:30:12.764Z</time>
      </trkpt>
      <trkpt lat="41.87348" lon="44.91226">
        <ele>1116.200835</ele>
        <time>2021-08-12T00:30:20.409Z</time>
      </trkpt>
      <trkpt lat="41.87354" lon="44.91243">
        <ele>1115.352682</ele>
        <time>2021-08-12T00:30:23.562Z</time>
      </trkpt>
      <trkpt lat="41.87373" lon="44.91262">
        <ele>1113.960732</ele>
        <time>2021-08-12T00:30:28.429Z</time>
      </trkpt>
      <trkpt lat="41.87385" lon="44.91263">
        <ele>1113.200311</ele>
        <time>2021-08-12T00:30:31.143Z</time>
      </trkpt>
      <trkpt lat="41.87398" lon="44.91248">
        <ele>1112.196342</ele>
        <time>2021-08-12T00:30:34.567Z</time>
      </trkpt>
      <trkpt lat="41.87422" lon="44.91089">
        <ele>1102.866455</ele>
        <time>2021-08-12T00:30:57.878Z</time>
      </trkpt>
      <trkpt lat="41.87455" lon="44.91009">
        <ele>1096.134659</ele>
        <time>2021-08-12T00:31:10.764Z</time>
      </trkpt>
      <trkpt lat="41.87465" lon="44.90999">
        <ele>1094.884449</ele>
        <time>2021-08-12T00:31:13.075Z</time>
      </trkpt>
      <trkpt lat="41.87485" lon="44.9098">
        <ele>1092.429556</ele>
        <time>2021-08-12T00:31:17.871Z</time>
      </trkpt>
      <trkpt lat="41.87512" lon="44.9097">
        <ele>1089.798074</ele>
        <time>2021-08-12T00:31:23.097Z</time>
      </trkpt>
      <trkpt lat="41.87535" lon="44.90975">
        <ele>1087.734955</ele>
        <time>2021-08-12T00:31:27.648Z</time>
      </trkpt>
      <trkpt lat="41.87551" lon="44.90988">
        <ele>1086.143244</ele>
        <time>2021-08-12T00:31:31.375Z</time>
      </trkpt>
      <trkpt lat="41.87558" lon="44.91009">
        <ele>1084.618488</ele>
        <time>2021-08-12T00:31:34.717Z</time>
      </trkpt>
      <trkpt lat="41.87559" lon="44.91024">
        <ele>1083.663256</ele>
        <time>2021-08-12T00:31:36.963Z</time>
      </trkpt>
      <trkpt lat="41.87548" lon="44.91127">
        <ele>1076.974735</ele>
        <time>2021-08-12T00:31:52.110Z</time>
      </trkpt>
      <trkpt lat="41.87548" lon="44.91163">
        <ele>1074.644495</ele>
        <time>2021-08-12T00:31:57.429Z</time>
      </trkpt>
      <trkpt lat="41.8756" lon="44.91192">
        <ele>1072.359248</ele>
        <time>2021-08-12T00:32:02.215Z</time>
      </trkpt>
      <trkpt lat="41.87571" lon="44.91204">
        <ele>1071.061718</ele>
        <time>2021-08-12T00:32:04.944Z</time>
      </trkpt>
      <trkpt lat="41.87582" lon="44.91204">
        <ele>1069.963732</ele>
        <time>2021-08-12T00:32:07.153Z</time>
      </trkpt>
      <trkpt lat="41.87592" lon="44.91198">
        <ele>1068.910398</ele>
        <time>2021-08-12T00:32:09.340Z</time>
      </trkpt>
      <trkpt lat="41.87597" lon="44.91189">
        <ele>1068.132617</ele>
        <time>2021-08-12T00:32:10.939Z</time>
      </trkpt>
      <trkpt lat="41.87669" lon="44.91136">
        <ele>1060.483177</ele>
        <time>2021-08-12T00:32:39.040Z</time>
      </trkpt>
      <trkpt lat="41.87685" lon="44.91114">
        <ele>1058.296154</ele>
        <time>2021-08-12T00:32:47.033Z</time>
      </trkpt>
      <trkpt lat="41.87684" lon="44.91092">
        <ele>1057.021267</ele>
        <time>2021-08-12T00:32:52.535Z</time>
      </trkpt>
      <trkpt lat="41.87705" lon="44.91092">
        <ele>1055.420035</ele>
        <time>2021-08-12T00:32:56.615Z</time>
      </trkpt>
      <trkpt lat="41.87729" lon="44.91085">
        <ele>1053.593315</ele>
        <time>2021-08-12T00:33:01.357Z</time>
      </trkpt>
      <trkpt lat="41.87764" lon="44.91052">
        <ele>1050.427339</ele>
        <time>2021-08-12T00:33:09.687Z</time>
      </trkpt>
      <trkpt lat="41.87782" lon="44.91048">
        <ele>1049.068579</ele>
        <time>2021-08-12T00:33:13.334Z</time>
      </trkpt>
      <trkpt lat="41.87805" lon="44.91067">
        <ele>1047.089218</ele>
        <time>2021-08-12T00:33:18.695Z</time>
      </trkpt>
      <trkpt lat="41.87831" lon="44.91108">
        <ele>1044.492631</ele>
        <time>2021-08-12T00:33:27.052Z</time>
      </trkpt>
      <trkpt lat="41.87837" lon="44.91136">
        <ele>1044.184588</ele>
        <time>2021-08-12T00:33:32.266Z</time>
      </trkpt>
      <trkpt lat="41.87829" lon="44.91236">
        <ele>1043.133676</ele>
        <time>2021-08-12T00:33:51.572Z</time>
      </trkpt>
      <trkpt lat="41.87829" lon="44.91288">
        <ele>1042.588035</ele>
        <time>2021-08-12T00:34:03.324Z</time>
      </trkpt>
      <trkpt lat="41.87835" lon="44.9132">
        <ele>1042.230865</ele>
        <time>2021-08-12T00:34:11.790Z</time>
      </trkpt>
      <trkpt lat="41.8787" lon="44.91397">
        <ele>1042.165352</ele>
        <time>2021-08-12T00:34:34.763Z</time>
      </trkpt>
      <trkpt lat="41.87892" lon="44.91469">
        <ele>1042.297513</ele>
        <time>2021-08-12T00:34:54.698Z</time>
      </trkpt>
      <trkpt lat="41.87913" lon="44.91601">
        <ele>1042.729516</ele>
        <time>2021-08-12T00:35:24.538Z</time>
      </trkpt>
      <trkpt lat="41.87931" lon="44.91665">
        <ele>1043.171556</ele>
        <time>2021-08-12T00:35:41.421Z</time>
      </trkpt>
      <trkpt lat="41.87944" lon="44.91731">
        <ele>1043.610819</ele>
        <time>2021-08-12T00:36:01.136Z</time>
      </trkpt>
      <trkpt lat="41.87945" lon="44.91752">
        <ele>1043.743377</ele>
        <time>2021-08-12T00:36:06.113Z</time>
      </trkpt>
      <trkpt lat="41.87946" lon="44.91781">
        <ele>1043.936098</ele>
        <time>2021-08-12T00:36:16.251Z</time>
      </trkpt>
      <trkpt lat="41.87919" lon="44.91939">
        <ele>1045.144353</ele>
        <time>2021-08-12T00:37:07.816Z</time>
      </trkpt>
      <trkpt lat="41.87906" lon="44.921">
        <ele>1043.402714</ele>
        <time>2021-08-12T00:37:43.992Z</time>
      </trkpt>
      <trkpt lat="41.8791" lon="44.92164">
        <ele>1041.203417</ele>
        <time>2021-08-12T00:37:53.858Z</time>
      </trkpt>
      <trkpt lat="41.87923" lon="44.92204">
        <ele>1039.713589</ele>
        <time>2021-08-12T00:38:00.400Z</time>
      </trkpt>
      <trkpt lat="41.87934" lon="44.92218">
        <ele>1039.019045</ele>
        <time>2021-08-12T00:38:03.347Z</time>
      </trkpt>
      <trkpt lat="41.8794" lon="44.92225">
        <ele>1038.660353</ele>
        <time>2021-08-12T00:38:04.893Z</time>
      </trkpt>
      <trkpt lat="41.88001" lon="44.92286">
        <ele>1035.675192</ele>
        <time>2021-08-12T00:38:20.183Z</time>
      </trkpt>
      <trkpt lat="41.88022" lon="44.9231">
        <ele>1034.680479</ele>
        <time>2021-08-12T00:38:25.806Z</time>
      </trkpt>
      <trkpt lat="41.88032" lon="44.92327">
        <ele>1034.091299</ele>
        <time>2021-08-12T00:38:29.333Z</time>
      </trkpt>
      <trkpt lat="41.88037" lon="44.92357">
        <ele>1033.288553</ele>
        <time>2021-08-12T00:38:33.937Z</time>
      </trkpt>
      <trkpt lat="41.88038" lon="44.92429">
        <ele>1031.344953</ele>
        <time>2021-08-12T00:38:48.740Z</time>
      </trkpt>
      <trkpt lat="41.88039" lon="44.92539">
        <ele>1035.302518</ele>
        <time>2021-08-12T00:39:32.851Z</time>
      </trkpt>
      <trkpt lat="41.88053" lon="44.9251">
        <ele>1036.765047</ele>
        <time>2021-08-12T00:39:50.863Z</time>
      </trkpt>
      <trkpt lat="41.88074" lon="44.92456">
        <ele>1039.345632</ele>
        <time>2021-08-12T00:40:24.079Z</time>
      </trkpt>
      <trkpt lat="41.88081" lon="44.92458">
        <ele>1039.752789</ele>
        <time>2021-08-12T00:40:29.802Z</time>
      </trkpt>
      <trkpt lat="41.88089" lon="44.92495">
        <ele>1041.490785</ele>
        <time>2021-08-12T00:40:52.735Z</time>
      </trkpt>
      <trkpt lat="41.881" lon="44.92513">
        <ele>1043.354208</ele>
        <time>2021-08-12T00:41:07.025Z</time>
      </trkpt>
      <trkpt lat="41.88111" lon="44.92521">
        <ele>1044.639545</ele>
        <time>2021-08-12T00:41:16.616Z</time>
      </trkpt>
      <trkpt lat="41.88166" lon="44.92531">
        <ele>1050.695634</ele>
        <time>2021-08-12T00:42:10.492Z</time>
      </trkpt>
      <trkpt lat="41.88208" lon="44.92546">
        <ele>1055.355756</ele>
        <time>2021-08-12T00:42:50.731Z</time>
      </trkpt>
      <trkpt lat="41.88225" lon="44.92559">
        <ele>1057.46415</ele>
        <time>2021-08-12T00:43:10.688Z</time>
      </trkpt>
      <trkpt lat="41.88251" lon="44.92565">
        <ele>1060.284464</ele>
        <time>2021-08-12T00:43:33.074Z</time>
      </trkpt>
      <trkpt lat="41.88255" lon="44.92564">
        <ele>1060.718043</ele>
        <time>2021-08-12T00:43:39.505Z</time>
      </trkpt>
      <trkpt lat="41.88274" lon="44.92556">
        <ele>1063.271558</ele>
        <time>2021-08-12T00:43:59.391Z</time>
      </trkpt>
      <trkpt lat="41.88306" lon="44.92553">
        <ele>1067.32294</ele>
        <time>2021-08-12T00:44:33.912Z</time>
      </trkpt>
      <trkpt lat="41.88325" lon="44.92535">
        <ele>1070.228186</ele>
        <time>2021-08-12T00:44:58.029Z</time>
      </trkpt>
      <trkpt lat="41.88381" lon="44.92476">
        <ele>1079.35568</ele>
        <time>2021-08-12T00:46:17.305Z</time>
      </trkpt>
      <trkpt lat="41.88395" lon="44.9247">
        <ele>1081.147147</ele>
        <time>2021-08-12T00:46:32.303Z</time>
      </trkpt>
      <trkpt lat="41.88425" lon="44.92454">
        <ele>1084.783541</ele>
        <time>2021-08-12T00:47:02.736Z</time>
      </trkpt>
      <trkpt lat="41.88448" lon="44.92419">
        <ele>1087.923831</ele>
        <time>2021-08-12T00:47:34.741Z</time>
      </trkpt>
      <trkpt lat="41.88479" lon="44.92392">
        <ele>1091.207845</ele>
        <time>2021-08-12T00:48:06.299Z</time>
      </trkpt>
      <trkpt lat="41.88497" lon="44.92398">
        <ele>1092.868529</ele>
        <time>2021-08-12T00:48:21.652Z</time>
      </trkpt>
      <trkpt lat="41.8849" lon="44.9239">
        <ele>1093.622497</ele>
        <time>2021-08-12T00:48:27.905Z</time>
      </trkpt>
      <trkpt lat="41.88465" lon="44.92364">
        <ele>1096.479015</ele>
        <time>2021-08-12T00:48:53.318Z</time>
      </trkpt>
      <trkpt lat="41.88451" lon="44.92339">
        <ele>1098.592432</ele>
        <time>2021-08-12T00:49:09.063Z</time>
      </trkpt>
      <trkpt lat="41.88442" lon="44.92306">
        <ele>1100.449411</ele>
        <time>2021-08-12T00:49:26.598Z</time>
      </trkpt>
      <trkpt lat="41.88418" lon="44.92198">
        <ele>1105.079766</ele>
        <time>2021-08-12T00:50:17.882Z</time>
      </trkpt>
      <trkpt lat="41.88415" lon="44.92184">
        <ele>1105.665406</ele>
        <time>2021-08-12T00:50:24.775Z</time>
      </trkpt>
      <trkpt lat="41.88411" lon="44.92154">
        <ele>1106.904172</ele>
        <time>2021-08-12T00:50:36.600Z</time>
      </trkpt>
      <trkpt lat="41.88423" lon="44.92165">
        <ele>1107.672634</ele>
        <time>2021-08-12T00:50:46.224Z</time>
      </trkpt>
      <trkpt lat="41.88445" lon="44.92223">
        <ele>1110.716056</ele>
        <time>2021-08-12T00:51:15.499Z</time>
      </trkpt>
      <trkpt lat="41.8846" lon="44.92238">
        <ele>1112.172006</ele>
        <time>2021-08-12T00:51:27.574Z</time>
      </trkpt>
      <trkpt lat="41.88476" lon="44.92238">
        <ele>1113.426647</ele>
        <time>2021-08-12T00:51:36.900Z</time>
      </trkpt>
      <trkpt lat="41.88496" lon="44.92225">
        <ele>1115.150289</ele>
        <time>2021-08-12T00:51:52.249Z</time>
      </trkpt>
      <trkpt lat="41.88484" lon="44.92214">
        <ele>1116.29305</ele>
        <time>2021-08-12T00:52:02.452Z</time>
      </trkpt>
      <trkpt lat="41.88474" lon="44.9218">
        <ele>1118.456822</ele>
        <time>2021-08-12T00:52:24.945Z</time>
      </trkpt>
      <trkpt lat="41.8848" lon="44.92162">
        <ele>1119.593336</ele>
        <time>2021-08-12T00:52:38.028Z</time>
      </trkpt>
      <trkpt lat="41.88488" lon="44.92159">
        <ele>1120.227944</ele>
        <time>2021-08-12T00:52:45.270Z</time>
      </trkpt>
      <trkpt lat="41.88498" lon="44.9216">
        <ele>1120.998172</ele>
        <time>2021-08-12T00:52:53.454Z</time>
      </trkpt>
      <trkpt lat="41.8851" lon="44.9217">
        <ele>1122.138314</ele>
        <time>2021-08-12T00:53:06.220Z</time>
      </trkpt>
      <trkpt lat="41.8854" lon="44.92219">
        <ele>1127.212188</ele>
        <time>2021-08-12T00:53:48.835Z</time>
      </trkpt>
      <trkpt lat="41.88544" lon="44.92226">
        <ele>1128.047325</ele>
        <time>2021-08-12T00:53:54.456Z</time>
      </trkpt>
      <trkpt lat="41.88558" lon="44.92228">
        <ele>1129.835362</ele>
        <time>2021-08-12T00:54:06.444Z</time>
      </trkpt>
      <trkpt lat="41.88582" lon="44.92223">
        <ele>1132.873367</ele>
        <time>2021-08-12T00:54:33.826Z</time>
      </trkpt>
      <trkpt lat="41.88592" lon="44.92214">
        <ele>1134.430129</ele>
        <time>2021-08-12T00:54:44.838Z</time>
      </trkpt>
      <trkpt lat="41.88596" lon="44.92198">
        <ele>1136.063561</ele>
        <time>2021-08-12T00:55:02.851Z</time>
      </trkpt>
      <trkpt lat="41.88616" lon="44.92177">
        <ele>1139.211732</ele>
        <time>2021-08-12T00:55:25.163Z</time>
      </trkpt>
      <trkpt lat="41.88627" lon="44.92174">
        <ele>1140.715412</ele>
        <time>2021-08-12T00:55:43.733Z</time>
      </trkpt>
      <trkpt lat="41.88663" lon="44.92208">
        <ele>1146.231171</ele>
        <time>2021-08-12T00:56:30.734Z</time>
      </trkpt>
      <trkpt lat="41.88678" lon="44.92205">
        <ele>1147.969556</ele>
        <time>2021-08-12T00:56:44.332Z</time>
      </trkpt>
      <trkpt lat="41.88682" lon="44.92199">
        <ele>1148.600445</ele>
        <time>2021-08-12T00:56:53.616Z</time>
      </trkpt>
      <trkpt lat="41.88683" lon="44.92197">
        <ele>1148.826032</ele>
        <time>2021-08-12T00:56:57.010Z</time>
      </trkpt>
      <trkpt lat="41.8871" lon="44.92193">
        <ele>1151.860973</ele>
        <time>2021-08-12T00:57:19.065Z</time>
      </trkpt>
      <trkpt lat="41.88717" lon="44.92217">
        <ele>1153.982887</ele>
        <time>2021-08-12T00:57:43.077Z</time>
      </trkpt>
      <trkpt lat="41.88723" lon="44.92227">
        <ele>1154.96358</ele>
        <time>2021-08-12T00:57:48.601Z</time>
      </trkpt>
      <trkpt lat="41.88732" lon="44.92229">
        <ele>1156.044074</ele>
        <time>2021-08-12T00:57:55.318Z</time>
      </trkpt>
      <trkpt lat="41.88736" lon="44.92226">
        <ele>1156.527892</ele>
        <time>2021-08-12T00:58:01.377Z</time>
      </trkpt>
      <trkpt lat="41.88738" lon="44.92223">
        <ele>1156.852598</ele>
        <time>2021-08-12T00:58:06.013Z</time>
      </trkpt>
      <trkpt lat="41.88734" lon="44.92149">
        <ele>1162.942162</ele>
        <time>2021-08-12T00:58:53.357Z</time>
      </trkpt>
      <trkpt lat="41.88747" lon="44.92021">
        <ele>1171.232907</ele>
        <time>2021-08-12T01:00:06.306Z</time>
      </trkpt>
      <trkpt lat="41.88747" lon="44.92008">
        <ele>1171.974906</ele>
        <time>2021-08-12T01:00:15.447Z</time>
      </trkpt>
      <trkpt lat="41.88744" lon="44.91998">
        <ele>1172.510401</ele>
        <time>2021-08-12T01:00:18.699Z</time>
      </trkpt>
      <trkpt lat="41.8873" lon="44.91982">
        <ele>1173.923509</ele>
        <time>2021-08-12T01:00:30.206Z</time>
      </trkpt>
      <trkpt lat="41.88644" lon="44.91952">
        <ele>1180.588523</ele>
        <time>2021-08-12T01:01:32.735Z</time>
      </trkpt>
      <trkpt lat="41.88633" lon="44.9194">
        <ele>1181.809987</ele>
        <time>2021-08-12T01:01:42.380Z</time>
      </trkpt>
      <trkpt lat="41.88631" lon="44.91928">
        <ele>1182.5937</ele>
        <time>2021-08-12T01:01:50.057Z</time>
      </trkpt>
      <trkpt lat="41.88633" lon="44.91914">
        <ele>1183.528637</ele>
        <time>2021-08-12T01:01:59.091Z</time>
      </trkpt>
      <trkpt lat="41.88639" lon="44.91904">
        <ele>1184.378764</ele>
        <time>2021-08-12T01:02:05.973Z</time>
      </trkpt>
      <trkpt lat="41.88685" lon="44.91858">
        <ele>1189.331272</ele>
        <time>2021-08-12T01:02:50.343Z</time>
      </trkpt>
      <trkpt lat="41.88704" lon="44.91824">
        <ele>1192.107469</ele>
        <time>2021-08-12T01:03:17.153Z</time>
      </trkpt>
      <trkpt lat="41.88747" lon="44.91778">
        <ele>1196.943894</ele>
        <time>2021-08-12T01:04:05.196Z</time>
      </trkpt>
      <trkpt lat="41.88768" lon="44.91775">
        <ele>1198.927229</ele>
        <time>2021-08-12T01:04:24.557Z</time>
      </trkpt>
      <trkpt lat="41.88779" lon="44.91788">
        <ele>1200.257734</ele>
        <time>2021-08-12T01:04:37.655Z</time>
      </trkpt>
      <trkpt lat="41.88797" lon="44.91826">
        <ele>1203.294632</ele>
        <time>2021-08-12T01:05:06.579Z</time>
      </trkpt>
      <trkpt lat="41.88804" lon="44.9183">
        <ele>1204.014257</ele>
        <time>2021-08-12T01:05:13.133Z</time>
      </trkpt>
      <trkpt lat="41.88817" lon="44.91831">
        <ele>1205.136938</ele>
        <time>2021-08-12T01:05:23.424Z</time>
      </trkpt>
      <trkpt lat="41.8883" lon="44.91823">
        <ele>1206.487243</ele>
        <time>2021-08-12T01:05:35.723Z</time>
      </trkpt>
      <trkpt lat="41.88884" lon="44.91755">
        <ele>1212.790811</ele>
        <time>2021-08-12T01:06:32.056Z</time>
      </trkpt>
      <trkpt lat="41.88944" lon="44.91717">
        <ele>1217.183924</ele>
        <time>2021-08-12T01:07:17.546Z</time>
      </trkpt>
      <trkpt lat="41.89007" lon="44.91565">
        <ele>1225.59456</ele>
        <time>2021-08-12T01:08:41.912Z</time>
      </trkpt>
      <trkpt lat="41.89047" lon="44.91519">
        <ele>1228.790804</ele>
        <time>2021-08-12T01:09:17.196Z</time>
      </trkpt>
      <trkpt lat="41.89094" lon="44.91486">
        <ele>1232.093239</ele>
        <time>2021-08-12T01:09:54.412Z</time>
      </trkpt>
      <trkpt lat="41.8922" lon="44.91458">
        <ele>1237.890318</ele>
        <time>2021-08-12T01:11:11.384Z</time>
      </trkpt>
      <trkpt lat="41.89264" lon="44.91426">
        <ele>1239.786452</ele>
        <time>2021-08-12T01:11:35.196Z</time>
      </trkpt>
      <trkpt lat="41.89277" lon="44.91382">
        <ele>1241.106114</ele>
        <time>2021-08-12T01:11:50.340Z</time>
      </trkpt>
      <trkpt lat="41.8928" lon="44.91347">
        <ele>1241.78187</ele>
        <time>2021-08-12T01:12:00.964Z</time>
      </trkpt>
      <trkpt lat="41.89293" lon="44.91314">
        <ele>1242.298003</ele>
        <time>2021-08-12T01:12:13.244Z</time>
      </trkpt>
      <trkpt lat="41.89294" lon="44.91299">
        <ele>1242.509212</ele>
        <time>2021-08-12T01:12:15.986Z</time>
      </trkpt>
      <trkpt lat="41.89296" lon="44.91285">
        <ele>1242.696896</ele>
        <time>2021-08-12T01:12:21.373Z</time>
      </trkpt>
      <trkpt lat="41.89292" lon="44.91264">
        <ele>1242.988175</ele>
        <time>2021-08-12T01:12:27.036Z</time>
      </trkpt>
      <trkpt lat="41.89274" lon="44.91236">
        <ele>1243.505046</ele>
        <time>2021-08-12T01:12:37.215Z</time>
      </trkpt>
      <trkpt lat="41.89168" lon="44.9118">
        <ele>1247.267641</ele>
        <time>2021-08-12T01:13:27.135Z</time>
      </trkpt>
      <trkpt lat="41.89105" lon="44.91158">
        <ele>1250.859457</ele>
        <time>2021-08-12T01:14:05.902Z</time>
      </trkpt>
      <trkpt lat="41.89075" lon="44.91156">
        <ele>1252.510502</ele>
        <time>2021-08-12T01:14:26.175Z</time>
      </trkpt>
      <trkpt lat="41.89044" lon="44.91142">
        <ele>1254.293895</ele>
        <time>2021-08-12T01:14:50.619Z</time>
      </trkpt>
      <trkpt lat="41.89024" lon="44.91119">
        <ele>1256.837511</ele>
        <time>2021-08-12T01:15:12.257Z</time>
      </trkpt>
      <trkpt lat="41.89008" lon="44.91077">
        <ele>1260.939299</ele>
        <time>2021-08-12T01:15:44.241Z</time>
      </trkpt>
      <trkpt lat="41.89009" lon="44.91055">
        <ele>1262.817823</ele>
        <time>2021-08-12T01:15:59.453Z</time>
      </trkpt>
      <trkpt lat="41.89041" lon="44.9101">
        <ele>1268.123292</ele>
        <time>2021-08-12T01:16:45.180Z</time>
      </trkpt>
      <trkpt lat="41.89084" lon="44.9093">
        <ele>1276.818915</ele>
        <time>2021-08-12T01:18:02.850Z</time>
      </trkpt>
      <trkpt lat="41.8911" lon="44.90915">
        <ele>1280.477882</ele>
        <time>2021-08-12T01:18:33.114Z</time>
      </trkpt>
      <trkpt lat="41.89177" lon="44.90903">
        <ele>1289.388245</ele>
        <time>2021-08-12T01:19:46.635Z</time>
      </trkpt>
      <trkpt lat="41.89243" lon="44.90852">
        <ele>1299.31996</ele>
        <time>2021-08-12T01:21:04.544Z</time>
      </trkpt>
      <trkpt lat="41.89303" lon="44.90827">
        <ele>1306.570008</ele>
        <time>2021-08-12T01:22:07.036Z</time>
      </trkpt>
      <trkpt lat="41.89381" lon="44.90856">
        <ele>1315.773203</ele>
        <time>2021-08-12T01:23:24.237Z</time>
      </trkpt>
      <trkpt lat="41.89406" lon="44.90859">
        <ele>1318.709344</ele>
        <time>2021-08-12T01:23:47.381Z</time>
      </trkpt>
      <trkpt lat="41.89443" lon="44.90849">
        <ele>1321.982417</ele>
        <time>2021-08-12T01:24:19.460Z</time>
      </trkpt>
      <trkpt lat="41.89467" lon="44.90857">
        <ele>1324.030759</ele>
        <time>2021-08-12T01:24:40.881Z</time>
      </trkpt>
      <trkpt lat="41.89518" lon="44.90923">
        <ele>1329.762232</ele>
        <time>2021-08-12T01:25:37.325Z</time>
      </trkpt>
      <trkpt lat="41.89543" lon="44.9094">
        <ele>1331.998327</ele>
        <time>2021-08-12T01:25:56.768Z</time>
      </trkpt>
      <trkpt lat="41.89623" lon="44.90975">
        <ele>1335.375656</ele>
        <time>2021-08-12T01:26:45.392Z</time>
      </trkpt>
      <trkpt lat="41.89664" lon="44.90979">
        <ele>1336.239953</ele>
        <time>2021-08-12T01:27:03.449Z</time>
      </trkpt>
      <trkpt lat="41.89775" lon="44.91022">
        <ele>1337.618697</ele>
        <time>2021-08-12T01:27:38.428Z</time>
      </trkpt>
      <trkpt lat="41.89801" lon="44.91019">
        <ele>1337.384739</ele>
        <time>2021-08-12T01:27:44.879Z</time>
      </trkpt>
      <trkpt lat="41.89854" lon="44.90977">
        <ele>1336.823393</ele>
        <time>2021-08-12T01:28:00.445Z</time>
      </trkpt>
      <trkpt lat="41.89872" lon="44.90943">
        <ele>1336.538396</ele>
        <time>2021-08-12T01:28:08.951Z</time>
      </trkpt>
      <trkpt lat="41.89878" lon="44.90903">
        <ele>1336.308818</ele>
        <time>2021-08-12T01:28:17.612Z</time>
      </trkpt>
      <trkpt lat="41.89868" lon="44.90863">
        <ele>1336.505255</ele>
        <time>2021-08-12T01:28:27.126Z</time>
      </trkpt>
      <trkpt lat="41.8987" lon="44.9084">
        <ele>1336.612933</ele>
        <time>2021-08-12T01:28:33.031Z</time>
      </trkpt>
      <trkpt lat="41.89882" lon="44.90823">
        <ele>1336.721594</ele>
        <time>2021-08-12T01:28:39.137Z</time>
      </trkpt>
      <trkpt lat="41.89902" lon="44.9081">
        <ele>1336.861893</ele>
        <time>2021-08-12T01:28:47.677Z</time>
      </trkpt>
      <trkpt lat="41.89924" lon="44.90772">
        <ele>1337.082243</ele>
        <time>2021-08-12T01:29:01.391Z</time>
      </trkpt>
      <trkpt lat="41.89946" lon="44.90722">
        <ele>1337.356159</ele>
        <time>2021-08-12T01:29:18.202Z</time>
      </trkpt>
      <trkpt lat="41.89958" lon="44.9067">
        <ele>1337.510502</ele>
        <time>2021-08-12T01:29:31.213Z</time>
      </trkpt>
      <trkpt lat="41.8996" lon="44.90642">
        <ele>1337.575455</ele>
        <time>2021-08-12T01:29:38.902Z</time>
      </trkpt>
      <trkpt lat="41.89945" lon="44.90611">
        <ele>1337.657657</ele>
        <time>2021-08-12T01:29:47.844Z</time>
      </trkpt>
      <trkpt lat="41.89926" lon="44.90599">
        <ele>1337.721268</ele>
        <time>2021-08-12T01:29:53.629Z</time>
      </trkpt>
      <trkpt lat="41.89874" lon="44.90579">
        <ele>1337.885811</ele>
        <time>2021-08-12T01:30:11.998Z</time>
      </trkpt>
      <trkpt lat="41.89859" lon="44.90567">
        <ele>1337.938457</ele>
        <time>2021-08-12T01:30:16.512Z</time>
      </trkpt>
      <trkpt lat="41.89787" lon="44.90516">
        <ele>1339.348071</ele>
        <time>2021-08-12T01:30:44.287Z</time>
      </trkpt>
      <trkpt lat="41.89734" lon="44.90435">
        <ele>1340.855608</ele>
        <time>2021-08-12T01:31:18.493Z</time>
      </trkpt>
      <trkpt lat="41.89714" lon="44.90418">
        <ele>1341.300188</ele>
        <time>2021-08-12T01:31:31.184Z</time>
      </trkpt>
      <trkpt lat="41.89701" lon="44.90397">
        <ele>1342.490601</ele>
        <time>2021-08-12T01:31:42.530Z</time>
      </trkpt>
      <trkpt lat="41.8969" lon="44.9031">
        <ele>1346.823532</ele>
        <time>2021-08-12T01:32:22.561Z</time>
      </trkpt>
      <trkpt lat="41.89665" lon="44.90246">
        <ele>1350.357539</ele>
        <time>2021-08-12T01:33:00.476Z</time>
      </trkpt>
      <trkpt lat="41.89675" lon="44.90165">
        <ele>1355.291534</ele>
        <time>2021-08-12T01:33:50.566Z</time>
      </trkpt>
      <trkpt lat="41.89676" lon="44.90112">
        <ele>1359.838923</ele>
        <time>2021-08-12T01:34:25.492Z</time>
      </trkpt>
      <trkpt lat="41.89664" lon="44.90046">
        <ele>1365.639766</ele>
        <time>2021-08-12T01:35:13.893Z</time>
      </trkpt>
      <trkpt lat="41.89667" lon="44.90032">
        <ele>1366.963454</ele>
        <time>2021-08-12T01:35:25.706Z</time>
      </trkpt>
      <trkpt lat="41.89686" lon="44.90007">
        <ele>1369.991517</ele>
        <time>2021-08-12T01:35:53.079Z</time>
      </trkpt>
      <trkpt lat="41.89734" lon="44.89967">
        <ele>1376.5516</ele>
        <time>2021-08-12T01:36:54.435Z</time>
      </trkpt>
      <trkpt lat="41.89762" lon="44.89958">
        <ele>1379.879067</ele>
        <time>2021-08-12T01:37:25.783Z</time>
      </trkpt>
      <trkpt lat="41.89834" lon="44.89965">
        <ele>1388.216405</ele>
        <time>2021-08-12T01:38:38.797Z</time>
      </trkpt>
      <trkpt lat="41.89858" lon="44.8998">
        <ele>1391.30265</ele>
        <time>2021-08-12T01:39:03.006Z</time>
      </trkpt>
      <trkpt lat="41.8987" lon="44.90026">
        <ele>1395.005272</ele>
        <time>2021-08-12T01:39:32.534Z</time>
      </trkpt>
      <trkpt lat="41.89875" lon="44.9011">
        <ele>1397.574269</ele>
        <time>2021-08-12T01:40:14.520Z</time>
      </trkpt>
      <trkpt lat="41.89861" lon="44.90207">
        <ele>1400.584927</ele>
        <time>2021-08-12T01:40:48.938Z</time>
      </trkpt>
      <trkpt lat="41.89867" lon="44.90235">
        <ele>1401.467882</ele>
        <time>2021-08-12T01:40:56.555Z</time>
      </trkpt>
      <trkpt lat="41.8988" lon="44.90264">
        <ele>1402.252505</ele>
        <time>2021-08-12T01:41:05.172Z</time>
      </trkpt>
      <trkpt lat="41.89898" lon="44.90353">
        <ele>1403.148967</ele>
        <time>2021-08-12T01:41:27.502Z</time>
      </trkpt>
      <trkpt lat="41.89914" lon="44.90375">
        <ele>1403.444031</ele>
        <time>2021-08-12T01:41:35.275Z</time>
      </trkpt>
      <trkpt lat="41.89952" lon="44.90396">
        <ele>1403.973254</ele>
        <time>2021-08-12T01:41:50.524Z</time>
      </trkpt>
      <trkpt lat="41.90057" lon="44.90403">
        <ele>1406.783236</ele>
        <time>2021-08-12T01:42:41.227Z</time>
      </trkpt>
      <trkpt lat="41.9008" lon="44.90416">
        <ele>1407.620706</ele>
        <time>2021-08-12T01:42:54.667Z</time>
      </trkpt>
      <trkpt lat="41.90115" lon="44.90453">
        <ele>1409.149728</ele>
        <time>2021-08-12T01:43:19.569Z</time>
      </trkpt>
      <trkpt lat="41.90141" lon="44.90515">
        <ele>1410.858405</ele>
        <time>2021-08-12T01:43:47.197Z</time>
      </trkpt>
      <trkpt lat="41.90154" lon="44.90653">
        <ele>1413.362509</ele>
        <time>2021-08-12T01:44:31.992Z</time>
      </trkpt>
      <trkpt lat="41.90138" lon="44.90737">
        <ele>1414.916232</ele>
        <time>2021-08-12T01:44:57.683Z</time>
      </trkpt>
      <trkpt lat="41.90108" lon="44.90808">
        <ele>1418.481033</ele>
        <time>2021-08-12T01:45:26.031Z</time>
      </trkpt>
      <trkpt lat="41.90076" lon="44.90855">
        <ele>1421.38489</ele>
        <time>2021-08-12T01:45:53.610Z</time>
      </trkpt>
      <trkpt lat="41.90056" lon="44.909">
        <ele>1423.711632</ele>
        <time>2021-08-12T01:46:21.465Z</time>
      </trkpt>
      <trkpt lat="41.90059" lon="44.90924">
        <ele>1424.80803</ele>
        <time>2021-08-12T01:46:36.548Z</time>
      </trkpt>
      <trkpt lat="41.90102" lon="44.91003">
        <ele>1433.085917</ele>
        <time>2021-08-12T01:47:50.646Z</time>
      </trkpt>
      <trkpt lat="41.90126" lon="44.91021">
        <ele>1436.575019</ele>
        <time>2021-08-12T01:48:20.958Z</time>
      </trkpt>
      <trkpt lat="41.90171" lon="44.91034">
        <ele>1442.57842</ele>
        <time>2021-08-12T01:49:13.014Z</time>
      </trkpt>
      <trkpt lat="41.902" lon="44.9105">
        <ele>1446.61725</ele>
        <time>2021-08-12T01:49:47.857Z</time>
      </trkpt>
      <trkpt lat="41.9023" lon="44.91082">
        <ele>1450.515037</ele>
        <time>2021-08-12T01:50:27.665Z</time>
      </trkpt>
      <trkpt lat="41.90248" lon="44.91095">
        <ele>1452.057246</ele>
        <time>2021-08-12T01:50:47.817Z</time>
      </trkpt>
      <trkpt lat="41.90331" lon="44.91116">
        <ele>1458.323923</ele>
        <time>2021-08-12T01:51:54.132Z</time>
      </trkpt>
      <trkpt lat="41.90369" lon="44.91139">
        <ele>1461.420105</ele>
        <time>2021-08-12T01:52:15.791Z</time>
      </trkpt>
      <trkpt lat="41.90406" lon="44.91141">
        <ele>1461.752794</ele>
        <time>2021-08-12T01:52:28.826Z</time>
      </trkpt>
      <trkpt lat="41.9044" lon="44.9113">
        <ele>1460.621544</ele>
        <time>2021-08-12T01:52:38.232Z</time>
      </trkpt>
      <trkpt lat="41.90517" lon="44.91132">
        <ele>1458.215461</ele>
        <time>2021-08-12T01:52:54.953Z</time>
      </trkpt>
      <trkpt lat="41.90552" lon="44.91127">
        <ele>1457.097552</ele>
        <time>2021-08-12T01:53:02.185Z</time>
      </trkpt>
      <trkpt lat="41.90633" lon="44.91168">
        <ele>1450.734322</ele>
        <time>2021-08-12T01:53:19.230Z</time>
      </trkpt>
      <trkpt lat="41.90677" lon="44.91209">
        <ele>1446.470766</ele>
        <time>2021-08-12T01:53:29.699Z</time>
      </trkpt>
      <trkpt lat="41.90698" lon="44.91239">
        <ele>1444.071898</ele>
        <time>2021-08-12T01:53:35.562Z</time>
      </trkpt>
      <trkpt lat="41.90721" lon="44.91251">
        <ele>1442.082185</ele>
        <time>2021-08-12T01:53:40.494Z</time>
      </trkpt>
      <trkpt lat="41.90759" lon="44.91249">
        <ele>1439.266231</ele>
        <time>2021-08-12T01:53:47.768Z</time>
      </trkpt>
      <trkpt lat="41.90772" lon="44.91242">
        <ele>1438.217134</ele>
        <time>2021-08-12T01:53:50.475Z</time>
      </trkpt>
      <trkpt lat="41.90781" lon="44.91218">
        <ele>1436.699311</ele>
        <time>2021-08-12T01:53:54.447Z</time>
      </trkpt>
      <trkpt lat="41.90782" lon="44.91103">
        <ele>1430.24756</ele>
        <time>2021-08-12T01:54:11.545Z</time>
      </trkpt>
      <trkpt lat="41.90816" lon="44.90988">
        <ele>1426.044111</ele>
        <time>2021-08-12T01:54:30.368Z</time>
      </trkpt>
      <trkpt lat="41.90823" lon="44.90916">
        <ele>1423.964838</ele>
        <time>2021-08-12T01:54:43.060Z</time>
      </trkpt>
      <trkpt lat="41.90833" lon="44.90801">
        <ele>1421.885054</ele>
        <time>2021-08-12T01:55:04.641Z</time>
      </trkpt>
      <trkpt lat="41.90839" lon="44.90788">
        <ele>1421.850288</ele>
        <time>2021-08-12T01:55:11.174Z</time>
      </trkpt>
      <trkpt lat="41.90848" lon="44.90781">
        <ele>1421.819377</ele>
        <time>2021-08-12T01:55:13.647Z</time>
      </trkpt>
      <trkpt lat="41.90922" lon="44.90784">
        <ele>1421.593248</ele>
        <time>2021-08-12T01:55:37.754Z</time>
      </trkpt>
      <trkpt lat="41.90962" lon="44.90769">
        <ele>1421.466592</ele>
        <time>2021-08-12T01:55:51.397Z</time>
      </trkpt>
      <trkpt lat="41.90979" lon="44.90752">
        <ele>1421.075128</ele>
        <time>2021-08-12T01:56:00.482Z</time>
      </trkpt>
      <trkpt lat="41.91005" lon="44.90709">
        <ele>1419.936462</ele>
        <time>2021-08-12T01:56:10.725Z</time>
      </trkpt>
      <trkpt lat="41.91028" lon="44.90653">
        <ele>1418.639997</ele>
        <time>2021-08-12T01:56:21.558Z</time>
      </trkpt>
      <trkpt lat="41.91049" lon="44.9063">
        <ele>1417.895739</ele>
        <time>2021-08-12T01:56:27.621Z</time>
      </trkpt>
      <trkpt lat="41.91094" lon="44.90637">
        <ele>1416.643427</ele>
        <time>2021-08-12T01:56:37.237Z</time>
      </trkpt>
      <trkpt lat="41.91136" lon="44.90654">
        <ele>1415.146676</ele>
        <time>2021-08-12T01:56:46.921Z</time>
      </trkpt>
      <trkpt lat="41.91146" lon="44.90651">
        <ele>1414.796115</ele>
        <time>2021-08-12T01:56:49.134Z</time>
      </trkpt>
      <trkpt lat="41.91163" lon="44.90624">
        <ele>1413.848603</ele>
        <time>2021-08-12T01:56:54.968Z</time>
      </trkpt>
      <trkpt lat="41.91177" lon="44.90568">
        <ele>1412.287258</ele>
        <time>2021-08-12T01:57:04.925Z</time>
      </trkpt>
      <trkpt lat="41.91185" lon="44.90558">
        <ele>1411.920449</ele>
        <time>2021-08-12T01:57:07.387Z</time>
      </trkpt>
      <trkpt lat="41.91193" lon="44.90558">
        <ele>1411.631307</ele>
        <time>2021-08-12T01:57:08.965Z</time>
      </trkpt>
      <trkpt lat="41.91201" lon="44.90564">
        <ele>1411.325879</ele>
        <time>2021-08-12T01:57:12.550Z</time>
      </trkpt>
      <trkpt lat="41.91241" lon="44.90671">
        <ele>1408.075502</ele>
        <time>2021-08-12T01:57:34.009Z</time>
      </trkpt>
      <trkpt lat="41.91273" lon="44.90787">
        <ele>1404.647378</ele>
        <time>2021-08-12T01:57:54.994Z</time>
      </trkpt>
      <trkpt lat="41.91313" lon="44.91036">
        <ele>1392.651642</ele>
        <time>2021-08-12T01:58:33.592Z</time>
      </trkpt>
      <trkpt lat="41.91319" lon="44.91175">
        <ele>1383.342473</ele>
        <time>2021-08-12T01:58:53.615Z</time>
      </trkpt>
      <trkpt lat="41.91333" lon="44.91249">
        <ele>1377.964377</ele>
        <time>2021-08-12T01:59:04.392Z</time>
      </trkpt>
      <trkpt lat="41.91354" lon="44.91314">
        <ele>1373.052872</ele>
        <time>2021-08-12T01:59:14.484Z</time>
      </trkpt>
      <trkpt lat="41.91378" lon="44.91343">
        <ele>1370.325249</ele>
        <time>2021-08-12T01:59:20.601Z</time>
      </trkpt>
      <trkpt lat="41.91472" lon="44.91409">
        <ele>1361.264089</ele>
        <time>2021-08-12T01:59:41.322Z</time>
      </trkpt>
      <trkpt lat="41.91507" lon="44.91441">
        <ele>1357.993714</ele>
        <time>2021-08-12T01:59:49.894Z</time>
      </trkpt>
      <trkpt lat="41.91536" lon="44.91484">
        <ele>1355.467594</ele>
        <time>2021-08-12T01:59:58.711Z</time>
      </trkpt>
      <trkpt lat="41.91586" lon="44.91604">
        <ele>1349.495396</ele>
        <time>2021-08-12T02:00:20.029Z</time>
      </trkpt>
      <trkpt lat="41.91613" lon="44.91682">
        <ele>1345.806453</ele>
        <time>2021-08-12T02:00:33.421Z</time>
      </trkpt>
      <trkpt lat="41.91636" lon="44.91764">
        <ele>1342.080188</ele>
        <time>2021-08-12T02:00:46.853Z</time>
      </trkpt>
      <trkpt lat="41.91679" lon="44.91873">
        <ele>1337.069726</ele>
        <time>2021-08-12T02:01:05.793Z</time>
      </trkpt>
      <trkpt lat="41.91742" lon="44.92">
        <ele>1332.175082</ele>
        <time>2021-08-12T02:01:30.092Z</time>
      </trkpt>
      <trkpt lat="41.91753" lon="44.9201">
        <ele>1331.607125</ele>
        <time>2021-08-12T02:01:33.110Z</time>
      </trkpt>
      <trkpt lat="41.91793" lon="44.92007">
        <ele>1330.006414</ele>
        <time>2021-08-12T02:01:42.621Z</time>
      </trkpt>
      <trkpt lat="41.91818" lon="44.91988">
        <ele>1329.341934</ele>
        <time>2021-08-12T02:01:49.767Z</time>
      </trkpt>
      <trkpt lat="41.91828" lon="44.91975">
        <ele>1329.033085</ele>
        <time>2021-08-12T02:01:53.137Z</time>
      </trkpt>
      <trkpt lat="41.91835" lon="44.91956">
        <ele>1328.666046</ele>
        <time>2021-08-12T02:01:57.207Z</time>
      </trkpt>
      <trkpt lat="41.91817" lon="44.91874">
        <ele>1327.221886</ele>
        <time>2021-08-12T02:02:13.379Z</time>
      </trkpt>
      <trkpt lat="41.9178" lon="44.91817">
        <ele>1325.744616</ele>
        <time>2021-08-12T02:02:27.012Z</time>
      </trkpt>
      <trkpt lat="41.91782" lon="44.91805">
        <ele>1325.246056</ele>
        <time>2021-08-12T02:02:29.101Z</time>
      </trkpt>
      <trkpt lat="41.91789" lon="44.91803">
        <ele>1324.856162</ele>
        <time>2021-08-12T02:02:30.712Z</time>
      </trkpt>
      <trkpt lat="41.91838" lon="44.91856">
        <ele>1321.386976</ele>
        <time>2021-08-12T02:02:44.311Z</time>
      </trkpt>
      <trkpt lat="41.91898" lon="44.91956">
        <ele>1316.088708</ele>
        <time>2021-08-12T02:03:03.589Z</time>
      </trkpt>
      <trkpt lat="41.91909" lon="44.91984">
        <ele>1313.823446</ele>
        <time>2021-08-12T02:03:08.210Z</time>
      </trkpt>
      <trkpt lat="41.9192" lon="44.92047">
        <ele>1309.212462</ele>
        <time>2021-08-12T02:03:17.534Z</time>
      </trkpt>
      <trkpt lat="41.91928" lon="44.9216">
        <ele>1301.177992</ele>
        <time>2021-08-12T02:03:33.544Z</time>
      </trkpt>
      <trkpt lat="41.91922" lon="44.92291">
        <ele>1291.925821</ele>
        <time>2021-08-12T02:03:52.068Z</time>
      </trkpt>
      <trkpt lat="41.91912" lon="44.92317">
        <ele>1289.88989</ele>
        <time>2021-08-12T02:03:56.171Z</time>
      </trkpt>
      <trkpt lat="41.91889" lon="44.92347">
        <ele>1286.848962</ele>
        <time>2021-08-12T02:04:02.359Z</time>
      </trkpt>
      <trkpt lat="41.91856" lon="44.92375">
        <ele>1283.076068</ele>
        <time>2021-08-12T02:04:10.091Z</time>
      </trkpt>
      <trkpt lat="41.91853" lon="44.92389">
        <ele>1282.105307</ele>
        <time>2021-08-12T02:04:12.120Z</time>
      </trkpt>
      <trkpt lat="41.91859" lon="44.92401">
        <ele>1281.280793</ele>
        <time>2021-08-12T02:04:14.330Z</time>
      </trkpt>
      <trkpt lat="41.91871" lon="44.92405">
        <ele>1280.443055</ele>
        <time>2021-08-12T02:04:16.727Z</time>
      </trkpt>
      <trkpt lat="41.91948" lon="44.92417">
        <ele>1275.150897</ele>
        <time>2021-08-12T02:04:32.143Z</time>
      </trkpt>
      <trkpt lat="41.91966" lon="44.92408">
        <ele>1273.805014</ele>
        <time>2021-08-12T02:04:36.137Z</time>
      </trkpt>
      <trkpt lat="41.92017" lon="44.92354">
        <ele>1269.337189</ele>
        <time>2021-08-12T02:04:49.453Z</time>
      </trkpt>
      <trkpt lat="41.9203" lon="44.92349">
        <ele>1268.409459</ele>
        <time>2021-08-12T02:04:52.227Z</time>
      </trkpt>
      <trkpt lat="41.92044" lon="44.92354">
        <ele>1267.401689</ele>
        <time>2021-08-12T02:04:55.217Z</time>
      </trkpt>
      <trkpt lat="41.92057" lon="44.92365">
        <ele>1266.365493</ele>
        <time>2021-08-12T02:04:58.299Z</time>
      </trkpt>
      <trkpt lat="41.92084" lon="44.92415">
        <ele>1263.229849</ele>
        <time>2021-08-12T02:05:07.533Z</time>
      </trkpt>
      <trkpt lat="41.921" lon="44.92436">
        <ele>1261.692603</ele>
        <time>2021-08-12T02:05:12.003Z</time>
      </trkpt>
      <trkpt lat="41.92104" lon="44.92452">
        <ele>1260.842767</ele>
        <time>2021-08-12T02:05:14.499Z</time>
      </trkpt>
      <trkpt lat="41.92105" lon="44.92513">
        <ele>1257.707153</ele>
        <time>2021-08-12T02:05:23.667Z</time>
      </trkpt>
      <trkpt lat="41.92096" lon="44.92607">
        <ele>1253.601481</ele>
        <time>2021-08-12T02:05:37.776Z</time>
      </trkpt>
      <trkpt lat="41.92097" lon="44.92635">
        <ele>1252.404381</ele>
        <time>2021-08-12T02:05:41.961Z</time>
      </trkpt>
      <trkpt lat="41.92134" lon="44.92844">
        <ele>1245.317168</ele>
        <time>2021-08-12T02:06:16.262Z</time>
      </trkpt>
      <trkpt lat="41.92146" lon="44.9285">
        <ele>1245.0056</ele>
        <time>2021-08-12T02:06:19.412Z</time>
      </trkpt>
      <trkpt lat="41.92155" lon="44.92843">
        <ele>1244.755656</ele>
        <time>2021-08-12T02:06:21.960Z</time>
      </trkpt>
      <trkpt lat="41.92162" lon="44.92829">
        <ele>1244.427696</ele>
        <time>2021-08-12T02:06:25.288Z</time>
      </trkpt>
      <trkpt lat="41.92177" lon="44.92775">
        <ele>1243.349495</ele>
        <time>2021-08-12T02:06:36.665Z</time>
      </trkpt>
      <trkpt lat="41.92186" lon="44.92759">
        <ele>1242.970262</ele>
        <time>2021-08-12T02:06:40.833Z</time>
      </trkpt>
      <trkpt lat="41.9221" lon="44.92731">
        <ele>1242.152346</ele>
        <time>2021-08-12T02:06:49.161Z</time>
      </trkpt>
      <trkpt lat="41.92234" lon="44.92717">
        <ele>1241.39723</ele>
        <time>2021-08-12T02:06:56.141Z</time>
      </trkpt>
      <trkpt lat="41.92259" lon="44.92693">
        <ele>1240.536547</ele>
        <time>2021-08-12T02:07:04.019Z</time>
      </trkpt>
      <trkpt lat="41.92297" lon="44.92637">
        <ele>1238.937335</ele>
        <time>2021-08-12T02:07:17.582Z</time>
      </trkpt>
      <trkpt lat="41.92341" lon="44.92547">
        <ele>1235.851893</ele>
        <time>2021-08-12T02:07:34.854Z</time>
      </trkpt>
      <trkpt lat="41.92352" lon="44.92539">
        <ele>1235.106583</ele>
        <time>2021-08-12T02:07:37.239Z</time>
      </trkpt>
      <trkpt lat="41.92359" lon="44.92543">
        <ele>1234.575777</ele>
        <time>2021-08-12T02:07:38.912Z</time>
      </trkpt>
      <trkpt lat="41.92372" lon="44.92566">
        <ele>1233.228454</ele>
        <time>2021-08-12T02:07:43.163Z</time>
      </trkpt>
      <trkpt lat="41.92384" lon="44.92599">
        <ele>1231.466943</ele>
        <time>2021-08-12T02:07:48.663Z</time>
      </trkpt>
      <trkpt lat="41.92406" lon="44.92855">
        <ele>1219.322189</ele>
        <time>2021-08-12T02:08:27.063Z</time>
      </trkpt>
      <trkpt lat="41.92417" lon="44.92909">
        <ele>1216.694572</ele>
        <time>2021-08-12T02:08:35.815Z</time>
      </trkpt>
      <trkpt lat="41.92428" lon="44.92937">
        <ele>1215.213625</ele>
        <time>2021-08-12T02:08:40.837Z</time>
      </trkpt>
      <trkpt lat="41.9244" lon="44.92948">
        <ele>1214.395937</ele>
        <time>2021-08-12T02:08:43.877Z</time>
      </trkpt>
      <trkpt lat="41.92454" lon="44.92946">
        <ele>1213.841929</ele>
        <time>2021-08-12T02:08:46.818Z</time>
      </trkpt>
      <trkpt lat="41.92475" lon="44.92919">
        <ele>1212.653677</ele>
        <time>2021-08-12T02:08:53.213Z</time>
      </trkpt>
      <trkpt lat="41.92531" lon="44.92713">
        <ele>1205.835542</ele>
        <time>2021-08-12T02:09:29.630Z</time>
      </trkpt>
      <trkpt lat="41.92541" lon="44.927">
        <ele>1205.215955</ele>
        <time>2021-08-12T02:09:32.493Z</time>
      </trkpt>
      <trkpt lat="41.92568" lon="44.92699">
        <ele>1203.961232</ele>
        <time>2021-08-12T02:09:38.227Z</time>
      </trkpt>
      <trkpt lat="41.92591" lon="44.92729">
        <ele>1202.449901</ele>
        <time>2021-08-12T02:09:45.079Z</time>
      </trkpt>
      <trkpt lat="41.92605" lon="44.92763">
        <ele>1201.078868</ele>
        <time>2021-08-12T02:09:51.261Z</time>
      </trkpt>
      <trkpt lat="41.92615" lon="44.92816">
        <ele>1199.174203</ele>
        <time>2021-08-12T02:09:59.844Z</time>
      </trkpt>
      <trkpt lat="41.92619" lon="44.92923">
        <ele>1195.89469</ele>
        <time>2021-08-12T02:10:16.724Z</time>
      </trkpt>
      <trkpt lat="41.92628" lon="44.92954">
        <ele>1194.906957</ele>
        <time>2021-08-12T02:10:22.034Z</time>
      </trkpt>
      <trkpt lat="41.92645" lon="44.92975">
        <ele>1193.956147</ele>
        <time>2021-08-12T02:10:27.183Z</time>
      </trkpt>
      <trkpt lat="41.92655" lon="44.92972">
        <ele>1193.528758</ele>
        <time>2021-08-12T02:10:29.538Z</time>
      </trkpt>
      <trkpt lat="41.92662" lon="44.9296">
        <ele>1193.085397</ele>
        <time>2021-08-12T02:10:31.989Z</time>
      </trkpt>
      <trkpt lat="41.92679" lon="44.92913">
        <ele>1191.505472</ele>
        <time>2021-08-12T02:10:41.159Z</time>
      </trkpt>
      <trkpt lat="41.92715" lon="44.92768">
        <ele>1188.73611</ele>
        <time>2021-08-12T02:11:08.864Z</time>
      </trkpt>
      <trkpt lat="41.92723" lon="44.92724">
        <ele>1187.912433</ele>
        <time>2021-08-12T02:11:17.066Z</time>
      </trkpt>
      <trkpt lat="41.92717" lon="44.92683">
        <ele>1187.161476</ele>
        <time>2021-08-12T02:11:24.473Z</time>
      </trkpt>
      <trkpt lat="41.92695" lon="44.92619">
        <ele>1185.209316</ele>
        <time>2021-08-12T02:11:36.720Z</time>
      </trkpt>
      <trkpt lat="41.92646" lon="44.9255">
        <ele>1182.567812</ele>
        <time>2021-08-12T02:11:52.575Z</time>
      </trkpt>
      <trkpt lat="41.92645" lon="44.92521">
        <ele>1181.768871</ele>
        <time>2021-08-12T02:11:57.262Z</time>
      </trkpt>
      <trkpt lat="41.92653" lon="44.92506">
        <ele>1181.266401</ele>
        <time>2021-08-12T02:12:00.167Z</time>
      </trkpt>
      <trkpt lat="41.92673" lon="44.925">
        <ele>1180.511935</ele>
        <time>2021-08-12T02:12:04.528Z</time>
      </trkpt>
      <trkpt lat="41.92684" lon="44.925">
        <ele>1179.876668</ele>
        <time>2021-08-12T02:12:06.826Z</time>
      </trkpt>
      <trkpt lat="41.92693" lon="44.92508">
        <ele>1179.162678</ele>
        <time>2021-08-12T02:12:09.240Z</time>
      </trkpt>
      <trkpt lat="41.92756" lon="44.92645">
        <ele>1171.517647</ele>
        <time>2021-08-12T02:12:33.792Z</time>
      </trkpt>
      <trkpt lat="41.92772" lon="44.92681">
        <ele>1169.504355</ele>
        <time>2021-08-12T02:12:40.035Z</time>
      </trkpt>
      <trkpt lat="41.92805" lon="44.92749">
        <ele>1163.46623</ele>
        <time>2021-08-12T02:12:51.678Z</time>
      </trkpt>
      <trkpt lat="41.92878" lon="44.92922">
        <ele>1147.079211</ele>
        <time>2021-08-12T02:13:19.347Z</time>
      </trkpt>
      <trkpt lat="41.92902" lon="44.92971">
        <ele>1141.230944</ele>
        <time>2021-08-12T02:13:27.457Z</time>
      </trkpt>
      <trkpt lat="41.92914" lon="44.92988">
        <ele>1139.011687</ele>
        <time>2021-08-12T02:13:30.580Z</time>
      </trkpt>
      <trkpt lat="41.9294" lon="44.93008">
        <ele>1135.06281</ele>
        <time>2021-08-12T02:13:36.106Z</time>
      </trkpt>
      <trkpt lat="41.92953" lon="44.93013">
        <ele>1133.174263</ele>
        <time>2021-08-12T02:13:38.676Z</time>
      </trkpt>
      <trkpt lat="41.92957" lon="44.93034">
        <ele>1131.091756</ele>
        <time>2021-08-12T02:13:41.670Z</time>
      </trkpt>
      <trkpt lat="41.92966" lon="44.93044">
        <ele>1129.516504</ele>
        <time>2021-08-12T02:13:43.986Z</time>
      </trkpt>
      <trkpt lat="41.92983" lon="44.93053">
        <ele>1127.086414</ele>
        <time>2021-08-12T02:13:47.459Z</time>
      </trkpt>
      <trkpt lat="41.93077" lon="44.93062">
        <ele>1116.128356</ele>
        <time>2021-08-12T02:14:05.668Z</time>
      </trkpt>
      <trkpt lat="41.93087" lon="44.93062">
        <ele>1114.99582</ele>
        <time>2021-08-12T02:14:07.515Z</time>
      </trkpt>
      <trkpt lat="41.93106" lon="44.93064">
        <ele>1112.87936</ele>
        <time>2021-08-12T02:14:11.259Z</time>
      </trkpt>
      <trkpt lat="41.93157" lon="44.93071">
        <ele>1106.997381</ele>
        <time>2021-08-12T02:14:21.669Z</time>
      </trkpt>
      <trkpt lat="41.93186" lon="44.93076">
        <ele>1104.318818</ele>
        <time>2021-08-12T02:14:27.777Z</time>
      </trkpt>
      <trkpt lat="41.9319" lon="44.93077">
        <ele>1104.043454</ele>
        <time>2021-08-12T02:14:28.572Z</time>
      </trkpt>
      <trkpt lat="41.9327" lon="44.93085">
        <ele>1098.697147</ele>
        <time>2021-08-12T02:14:45.259Z</time>
      </trkpt>
      <trkpt lat="41.93284" lon="44.93083">
        <ele>1097.765687</ele>
        <time>2021-08-12T02:14:48.363Z</time>
      </trkpt>
      <trkpt lat="41.93289" lon="44.93082">
        <ele>1097.443564</ele>
        <time>2021-08-12T02:14:49.374Z</time>
      </trkpt>
      <trkpt lat="41.93327" lon="44.93086">
        <ele>1094.911953</ele>
        <time>2021-08-12T02:14:57.679Z</time>
      </trkpt>
      <trkpt lat="41.93353" lon="44.93077">
        <ele>1093.196037</ele>
        <time>2021-08-12T02:15:03.698Z</time>
      </trkpt>
      <trkpt lat="41.93369" lon="44.9307">
        <ele>1092.47695</ele>
        <time>2021-08-12T02:15:07.575Z</time>
      </trkpt>
      <trkpt lat="41.93377" lon="44.93071">
        <ele>1092.175276</ele>
        <time>2021-08-12T02:15:09.150Z</time>
      </trkpt>
      <trkpt lat="41.93484" lon="44.93086">
        <ele>1087.688077</ele>
        <time>2021-08-12T02:15:32.574Z</time>
      </trkpt>
      <trkpt lat="41.93519" lon="44.93091">
        <ele>1086.195111</ele>
        <time>2021-08-12T02:15:40.517Z</time>
      </trkpt>
      <trkpt lat="41.93669" lon="44.93113">
        <ele>1080.7951</ele>
        <time>2021-08-12T02:16:14.281Z</time>
      </trkpt>
      <trkpt lat="41.93693" lon="44.93116">
        <ele>1079.938444</ele>
        <time>2021-08-12T02:16:19.711Z</time>
      </trkpt>
      <trkpt lat="41.93695" lon="44.93116">
        <ele>1079.863618</ele>
        <time>2021-08-12T02:16:20.206Z</time>
      </trkpt>
      <trkpt lat="41.93807" lon="44.93134">
        <ele>1076.032158</ele>
        <time>2021-08-12T02:16:45.495Z</time>
      </trkpt>
      <trkpt lat="41.93914" lon="44.93147">
        <ele>1072.227025</ele>
        <time>2021-08-12T02:17:10.008Z</time>
      </trkpt>
      <trkpt lat="41.94005" lon="44.93175">
        <ele>1068.68209</ele>
        <time>2021-08-12T02:17:30.395Z</time>
      </trkpt>
      <trkpt lat="41.94068" lon="44.93199">
        <ele>1066.202374</ele>
        <time>2021-08-12T02:17:44.941Z</time>
      </trkpt>
      <trkpt lat="41.94074" lon="44.93201">
        <ele>1065.994131</ele>
        <time>2021-08-12T02:17:46.093Z</time>
      </trkpt>
      <trkpt lat="41.94185" lon="44.93239">
        <ele>1061.791381</ele>
        <time>2021-08-12T02:18:11.590Z</time>
      </trkpt>
      <trkpt lat="41.94627" lon="44.93354">
        <ele>1047.671678</ele>
        <time>2021-08-12T02:19:54.487Z</time>
      </trkpt>
      <trkpt lat="41.94634" lon="44.93357">
        <ele>1047.50262</ele>
        <time>2021-08-12T02:19:56.017Z</time>
      </trkpt>
      <trkpt lat="41.94657" lon="44.93364">
        <ele>1046.914052</ele>
        <time>2021-08-12T02:20:01.675Z</time>
      </trkpt>
      <trkpt lat="41.94686" lon="44.93374">
        <ele>1046.189112</ele>
        <time>2021-08-12T02:20:08.590Z</time>
      </trkpt>
      <trkpt lat="41.95667" lon="44.93634">
        <ele>1027.469626</ele>
        <time>2021-08-12T02:24:17.590Z</time>
      </trkpt>
      <trkpt lat="41.95767" lon="44.93649">
        <ele>1026.454864</ele>
        <time>2021-08-12T02:24:44.630Z</time>
      </trkpt>
      <trkpt lat="41.96129" lon="44.93742">
        <ele>1024.533892</ele>
        <time>2021-08-12T02:26:31.441Z</time>
      </trkpt>
      <trkpt lat="41.9621" lon="44.93755">
        <ele>1024.291155</ele>
        <time>2021-08-12T02:26:55.310Z</time>
      </trkpt>
      <trkpt lat="41.96246" lon="44.9376">
        <ele>1024.247849</ele>
        <time>2021-08-12T02:27:06.042Z</time>
      </trkpt>
      <trkpt lat="41.96355" lon="44.93777">
        <ele>1024.115364</ele>
        <time>2021-08-12T02:27:39.752Z</time>
      </trkpt>
      <trkpt lat="41.97178" lon="44.93909">
        <ele>1027.521805</ele>
        <time>2021-08-12T02:32:15.386Z</time>
      </trkpt>
      <trkpt lat="41.97247" lon="44.9392">
        <ele>1027.995725</ele>
        <time>2021-08-12T02:32:40.653Z</time>
      </trkpt>
      <trkpt lat="41.97322" lon="44.9394">
        <ele>1029.269819</ele>
        <time>2021-08-12T02:33:10.187Z</time>
      </trkpt>
      <trkpt lat="41.98005" lon="44.94037">
        <ele>1041.32854</ele>
        <time>2021-08-12T02:37:53.323Z</time>
      </trkpt>
      <trkpt lat="41.9818" lon="44.94067">
        <ele>1044.888364</ele>
        <time>2021-08-12T02:39:06.589Z</time>
      </trkpt>
      <trkpt lat="41.98217" lon="44.94074">
        <ele>1045.84083</ele>
        <time>2021-08-12T02:39:22.876Z</time>
      </trkpt>
      <trkpt lat="41.9826" lon="44.94082">
        <ele>1046.965671</ele>
        <time>2021-08-12T02:39:42.469Z</time>
      </trkpt>
      <trkpt lat="41.98306" lon="44.9409">
        <ele>1048.153173</ele>
        <time>2021-08-12T02:40:04.035Z</time>
      </trkpt>
      <trkpt lat="41.98432" lon="44.94109">
        <ele>1052.771171</ele>
        <time>2021-08-12T02:41:10.415Z</time>
      </trkpt>
      <trkpt lat="41.98465" lon="44.94113">
        <ele>1054.050633</ele>
        <time>2021-08-12T02:41:28.364Z</time>
      </trkpt>
      <trkpt lat="41.98507" lon="44.94119">
        <ele>1055.685149</ele>
        <time>2021-08-12T02:41:50.822Z</time>
      </trkpt>
      <trkpt lat="41.9858" lon="44.94128">
        <ele>1058.883575</ele>
        <time>2021-08-12T02:42:31.084Z</time>
      </trkpt>
      <trkpt lat="41.98698" lon="44.94149">
        <ele>1064.128373</ele>
        <time>2021-08-12T02:43:37.516Z</time>
      </trkpt>
      <trkpt lat="41.98758" lon="44.94159">
        <ele>1067.144172</ele>
        <time>2021-08-12T02:44:12.339Z</time>
      </trkpt>
      <trkpt lat="41.98818" lon="44.94168">
        <ele>1070.144766</ele>
        <time>2021-08-12T02:44:47.645Z</time>
      </trkpt>
      <trkpt lat="41.98825" lon="44.94169">
        <ele>1070.498848</ele>
        <time>2021-08-12T02:44:52.425Z</time>
      </trkpt>
      <trkpt lat="41.98865" lon="44.94179">
        <ele>1072.531512</ele>
        <time>2021-08-12T02:45:17.475Z</time>
      </trkpt>
      <trkpt lat="41.98874" lon="44.94182">
        <ele>1073.048948</ele>
        <time>2021-08-12T02:45:22.829Z</time>
      </trkpt>
      <trkpt lat="41.98894" lon="44.94189">
        <ele>1074.177766</ele>
        <time>2021-08-12T02:45:36.537Z</time>
      </trkpt>
      <trkpt lat="41.98955" lon="44.94221">
        <ele>1077.679099</ele>
        <time>2021-08-12T02:46:17.738Z</time>
      </trkpt>
      <trkpt lat="41.98997" lon="44.94245">
        <ele>1080.154553</ele>
        <time>2021-08-12T02:46:45.769Z</time>
      </trkpt>
      <trkpt lat="41.99033" lon="44.94267">
        <ele>1082.160019</ele>
        <time>2021-08-12T02:47:09.412Z</time>
      </trkpt>
      <trkpt lat="41.99036" lon="44.94268">
        <ele>1082.274479</ele>
        <time>2021-08-12T02:47:11.454Z</time>
      </trkpt>
      <trkpt lat="41.99053" lon="44.94276">
        <ele>1082.964734</ele>
        <time>2021-08-12T02:47:21.933Z</time>
      </trkpt>
      <trkpt lat="41.99153" lon="44.94239">
        <ele>1086.819215</ele>
        <time>2021-08-12T02:48:18.154Z</time>
      </trkpt>
      <trkpt lat="41.99206" lon="44.94237">
        <ele>1088.589335</ele>
        <time>2021-08-12T02:48:42.413Z</time>
      </trkpt>
      <trkpt lat="41.99257" lon="44.94236">
        <ele>1088.834654</ele>
        <time>2021-08-12T02:49:01.499Z</time>
      </trkpt>
      <trkpt lat="41.99274" lon="44.94235">
        <ele>1088.913542</ele>
        <time>2021-08-12T02:49:07.148Z</time>
      </trkpt>
      <trkpt lat="41.99301" lon="44.94235">
        <ele>1089.042918</ele>
        <time>2021-08-12T02:49:15.989Z</time>
      </trkpt>
      <trkpt lat="41.99311" lon="44.94239">
        <ele>1089.095585</ele>
        <time>2021-08-12T02:49:19.500Z</time>
      </trkpt>
      <trkpt lat="41.99327" lon="44.94244">
        <ele>1089.173611</ele>
        <time>2021-08-12T02:49:24.452Z</time>
      </trkpt>
      <trkpt lat="41.9935" lon="44.94258">
        <ele>1089.294145</ele>
        <time>2021-08-12T02:49:31.759Z</time>
      </trkpt>
      <trkpt lat="41.99385" lon="44.94299">
        <ele>1089.431373</ele>
        <time>2021-08-12T02:49:44.419Z</time>
      </trkpt>
      <trkpt lat="41.99396" lon="44.94305">
        <ele>1089.435668</ele>
        <time>2021-08-12T02:49:47.395Z</time>
      </trkpt>
      <trkpt lat="41.9944" lon="44.94303">
        <ele>1089.452138</ele>
        <time>2021-08-12T02:49:59.361Z</time>
      </trkpt>
      <trkpt lat="41.99453" lon="44.94288">
        <ele>1089.458434</ele>
        <time>2021-08-12T02:50:03.938Z</time>
      </trkpt>
      <trkpt lat="41.99461" lon="44.94197">
        <ele>1089.483898</ele>
        <time>2021-08-12T02:50:26.834Z</time>
      </trkpt>
      <trkpt lat="41.99466" lon="44.94177">
        <ele>1089.489626</ele>
        <time>2021-08-12T02:50:32.644Z</time>
      </trkpt>
      <trkpt lat="41.99477" lon="44.94159">
        <ele>1089.93385</ele>
        <time>2021-08-12T02:50:39.740Z</time>
      </trkpt>
      <trkpt lat="41.99489" lon="44.94151">
        <ele>1090.373041</ele>
        <time>2021-08-12T02:50:44.644Z</time>
      </trkpt>
      <trkpt lat="41.99502" lon="44.94142">
        <ele>1090.866408</ele>
        <time>2021-08-12T02:50:52.138Z</time>
      </trkpt>
      <trkpt lat="41.9965" lon="44.94101">
        <ele>1096.050395</ele>
        <time>2021-08-12T02:52:11.564Z</time>
      </trkpt>
      <trkpt lat="41.99692" lon="44.94117">
        <ele>1098.163813</ele>
        <time>2021-08-12T02:52:37.680Z</time>
      </trkpt>
      <trkpt lat="41.99745" lon="44.94154">
        <ele>1101.009194</ele>
        <time>2021-08-12T02:53:11.410Z</time>
      </trkpt>
      <trkpt lat="41.9975" lon="44.94157">
        <ele>1101.296776</ele>
        <time>2021-08-12T02:53:16.403Z</time>
      </trkpt>
      <trkpt lat="41.99758" lon="44.94161">
        <ele>1101.682136</ele>
        <time>2021-08-12T02:53:21.169Z</time>
      </trkpt>
      <trkpt lat="41.99779" lon="44.94168">
        <ele>1102.7297</ele>
        <time>2021-08-12T02:53:32.693Z</time>
      </trkpt>
      <trkpt lat="41.99783" lon="44.94169">
        <ele>1102.929403</ele>
        <time>2021-08-12T02:53:36.285Z</time>
      </trkpt>
      <trkpt lat="41.99792" lon="44.94169">
        <ele>1103.352122</ele>
        <time>2021-08-12T02:53:41.867Z</time>
      </trkpt>
      <trkpt lat="41.998" lon="44.94167">
        <ele>1103.718673</ele>
        <time>2021-08-12T02:53:45.814Z</time>
      </trkpt>
      <trkpt lat="41.99802" lon="44.94166">
        <ele>1103.825125</ele>
        <time>2021-08-12T02:53:47.119Z</time>
      </trkpt>
      <trkpt lat="41.9983" lon="44.94142">
        <ele>1105.560401</ele>
        <time>2021-08-12T02:54:07.134Z</time>
      </trkpt>
      <trkpt lat="41.99948" lon="44.9393">
        <ele>1116.188549</ele>
        <time>2021-08-12T02:56:05.994Z</time>
      </trkpt>
      <trkpt lat="41.99995" lon="44.93828">
        <ele>1121.585063</ele>
        <time>2021-08-12T02:57:03.853Z</time>
      </trkpt>
      <trkpt lat="42.00058" lon="44.93755">
        <ele>1127.050183</ele>
        <time>2021-08-12T02:58:01.703Z</time>
      </trkpt>
      <trkpt lat="42.00158" lon="44.93677">
        <ele>1135.453154</ele>
        <time>2021-08-12T02:59:25.968Z</time>
      </trkpt>
      <trkpt lat="42.00176" lon="44.9367">
        <ele>1136.814903</ele>
        <time>2021-08-12T02:59:39.815Z</time>
      </trkpt>
      <trkpt lat="42.00209" lon="44.93669">
        <ele>1139.087193</ele>
        <time>2021-08-12T03:00:04.099Z</time>
      </trkpt>
      <trkpt lat="42.00245" lon="44.93684">
        <ele>1141.60097</ele>
        <time>2021-08-12T03:00:31.037Z</time>
      </trkpt>
      <trkpt lat="42.00319" lon="44.93734">
        <ele>1147.174662</ele>
        <time>2021-08-12T03:01:28.252Z</time>
      </trkpt>
      <trkpt lat="42.00397" lon="44.93774">
        <ele>1151.823355</ele>
        <time>2021-08-12T03:02:20.536Z</time>
      </trkpt>
      <trkpt lat="42.005" lon="44.93844">
        <ele>1157.445631</ele>
        <time>2021-08-12T03:03:26.140Z</time>
      </trkpt>
      <trkpt lat="42.00514" lon="44.93867">
        <ele>1158.463711</ele>
        <time>2021-08-12T03:03:37.965Z</time>
      </trkpt>
      <trkpt lat="42.00516" lon="44.93881">
        <ele>1158.894924</ele>
        <time>2021-08-12T03:03:43.559Z</time>
      </trkpt>
      <trkpt lat="42.00498" lon="44.94005">
        <ele>1162.770139</ele>
        <time>2021-08-12T03:04:33.270Z</time>
      </trkpt>
      <trkpt lat="42.00496" lon="44.94046">
        <ele>1164.025584</ele>
        <time>2021-08-12T03:04:49.666Z</time>
      </trkpt>
      <trkpt lat="42.00503" lon="44.94065">
        <ele>1164.689041</ele>
        <time>2021-08-12T03:04:58.381Z</time>
      </trkpt>
      <trkpt lat="42.00514" lon="44.94078">
        <ele>1165.267003</ele>
        <time>2021-08-12T03:05:06.081Z</time>
      </trkpt>
      <trkpt lat="42.0054" lon="44.94071">
        <ele>1166.58348</ele>
        <time>2021-08-12T03:05:20.850Z</time>
      </trkpt>
      <trkpt lat="42.00698" lon="44.93953">
        <ele>1176.062002</ele>
        <time>2021-08-12T03:07:10.914Z</time>
      </trkpt>
      <trkpt lat="42.00773" lon="44.93948">
        <ele>1180.350258</ele>
        <time>2021-08-12T03:08:00.846Z</time>
      </trkpt>
      <trkpt lat="42.00792" lon="44.93952">
        <ele>1181.40019</ele>
        <time>2021-08-12T03:08:13.059Z</time>
      </trkpt>
      <trkpt lat="42.00809" lon="44.93964">
        <ele>1182.494811</ele>
        <time>2021-08-12T03:08:25.180Z</time>
      </trkpt>
      <trkpt lat="42.00808" lon="44.93983">
        <ele>1183.328821</ele>
        <time>2021-08-12T03:08:34.777Z</time>
      </trkpt>
      <trkpt lat="42.00774" lon="44.93995">
        <ele>1185.236193</ele>
        <time>2021-08-12T03:08:55.827Z</time>
      </trkpt>
      <trkpt lat="42.00737" lon="44.94035">
        <ele>1187.114228</ele>
        <time>2021-08-12T03:09:23.285Z</time>
      </trkpt>
      <trkpt lat="42.00697" lon="44.94108">
        <ele>1189.722524</ele>
        <time>2021-08-12T03:09:58.736Z</time>
      </trkpt>
      <trkpt lat="42.00671" lon="44.94175">
        <ele>1191.91884</ele>
        <time>2021-08-12T03:10:25.963Z</time>
      </trkpt>
      <trkpt lat="42.0066" lon="44.9421">
        <ele>1192.934866</ele>
        <time>2021-08-12T03:10:38.973Z</time>
      </trkpt>
      <trkpt lat="42.00644" lon="44.94299">
        <ele>1195.348469</ele>
        <time>2021-08-12T03:11:11.204Z</time>
      </trkpt>
      <trkpt lat="42.00643" lon="44.94368">
        <ele>1197.150756</ele>
        <time>2021-08-12T03:11:37.533Z</time>
      </trkpt>
      <trkpt lat="42.0065" lon="44.94409">
        <ele>1198.258128</ele>
        <time>2021-08-12T03:11:54.804Z</time>
      </trkpt>
      <trkpt lat="42.00662" lon="44.94475">
        <ele>1201.120761</ele>
        <time>2021-08-12T03:12:24.400Z</time>
      </trkpt>
      <trkpt lat="42.0068" lon="44.94551">
        <ele>1204.654459</ele>
        <time>2021-08-12T03:13:01.034Z</time>
      </trkpt>
      <trkpt lat="42.00691" lon="44.94586">
        <ele>1206.379281</ele>
        <time>2021-08-12T03:13:19.750Z</time>
      </trkpt>
      <trkpt lat="42.0073" lon="44.9464">
        <ele>1209.888587</ele>
        <time>2021-08-12T03:13:59.881Z</time>
      </trkpt>
      <trkpt lat="42.00757" lon="44.94694">
        <ele>1213.999332</ele>
        <time>2021-08-12T03:14:38.460Z</time>
      </trkpt>
      <trkpt lat="42.00787" lon="44.9474">
        <ele>1217.821739</ele>
        <time>2021-08-12T03:15:14.451Z</time>
      </trkpt>
      <trkpt lat="42.00812" lon="44.94769">
        <ele>1220.676155</ele>
        <time>2021-08-12T03:15:41.535Z</time>
      </trkpt>
      <trkpt lat="42.00828" lon="44.94779">
        <ele>1222.121508</ele>
        <time>2021-08-12T03:15:56.396Z</time>
      </trkpt>
      <trkpt lat="42.00872" lon="44.94807">
        <ele>1226.20927</ele>
        <time>2021-08-12T03:16:34.409Z</time>
      </trkpt>
      <trkpt lat="42.00971" lon="44.94854">
        <ele>1234.946013</ele>
        <time>2021-08-12T03:17:57.893Z</time>
      </trkpt>
      <trkpt lat="42.01039" lon="44.94838">
        <ele>1240.53881</ele>
        <time>2021-08-12T03:18:49.145Z</time>
      </trkpt>
      <trkpt lat="42.01082" lon="44.94852">
        <ele>1243.839767</ele>
        <time>2021-08-12T03:19:21.065Z</time>
      </trkpt>
      <trkpt lat="42.01093" lon="44.94858">
        <ele>1244.741996</ele>
        <time>2021-08-12T03:19:29.751Z</time>
      </trkpt>
      <trkpt lat="42.01114" lon="44.94871">
        <ele>1246.448481</ele>
        <time>2021-08-12T03:19:46.768Z</time>
      </trkpt>
      <trkpt lat="42.01161" lon="44.94901">
        <ele>1250.361669</ele>
        <time>2021-08-12T03:20:24.981Z</time>
      </trkpt>
      <trkpt lat="42.01164" lon="44.9491">
        <ele>1250.897028</ele>
        <time>2021-08-12T03:20:30.325Z</time>
      </trkpt>
      <trkpt lat="42.01167" lon="44.94935">
        <ele>1252.302318</ele>
        <time>2021-08-12T03:20:43.983Z</time>
      </trkpt>
      <trkpt lat="42.01162" lon="44.95032">
        <ele>1256.301128</ele>
        <time>2021-08-12T03:21:35.514Z</time>
      </trkpt>
      <trkpt lat="42.01169" lon="44.95087">
        <ele>1258.499071</ele>
        <time>2021-08-12T03:21:59.999Z</time>
      </trkpt>
      <trkpt lat="42.01185" lon="44.95144">
        <ele>1260.913894</ele>
        <time>2021-08-12T03:22:25.561Z</time>
      </trkpt>
      <trkpt lat="42.0122" lon="44.95192">
        <ele>1262.846487</ele>
        <time>2021-08-12T03:22:51.846Z</time>
      </trkpt>
      <trkpt lat="42.01351" lon="44.95329">
        <ele>1265.58327</ele>
        <time>2021-08-12T03:23:59.375Z</time>
      </trkpt>
      <trkpt lat="42.01372" lon="44.95346">
        <ele>1264.986586</ele>
        <time>2021-08-12T03:24:06.359Z</time>
      </trkpt>
      <trkpt lat="42.01379" lon="44.95347">
        <ele>1264.829699</ele>
        <time>2021-08-12T03:24:08.065Z</time>
      </trkpt>
      <trkpt lat="42.01387" lon="44.95348">
        <ele>1264.619124</ele>
        <time>2021-08-12T03:24:10.417Z</time>
      </trkpt>
      <trkpt lat="42.01399" lon="44.95346">
        <ele>1264.333977</ele>
        <time>2021-08-12T03:24:13.235Z</time>
      </trkpt>
      <trkpt lat="42.01417" lon="44.95326">
        <ele>1263.767345</ele>
        <time>2021-08-12T03:24:19.233Z</time>
      </trkpt>
      <trkpt lat="42.01424" lon="44.95301">
        <ele>1263.286201</ele>
        <time>2021-08-12T03:24:23.923Z</time>
      </trkpt>
      <trkpt lat="42.01434" lon="44.95193">
        <ele>1261.249501</ele>
        <time>2021-08-12T03:24:41.698Z</time>
      </trkpt>
      <trkpt lat="42.01441" lon="44.95167">
        <ele>1259.96857</ele>
        <time>2021-08-12T03:24:45.982Z</time>
      </trkpt>
      <trkpt lat="42.01471" lon="44.95123">
        <ele>1257.293435</ele>
        <time>2021-08-12T03:24:55.053Z</time>
      </trkpt>
      <trkpt lat="42.01527" lon="44.95015">
        <ele>1251.321307</ele>
        <time>2021-08-12T03:25:14.960Z</time>
      </trkpt>
      <trkpt lat="42.01624" lon="44.94786">
        <ele>1237.333904</ele>
        <time>2021-08-12T03:25:54.161Z</time>
      </trkpt>
      <trkpt lat="42.01683" lon="44.94657">
        <ele>1228.344142</ele>
        <time>2021-08-12T03:26:16.368Z</time>
      </trkpt>
      <trkpt lat="42.01696" lon="44.94639">
        <ele>1226.856569</ele>
        <time>2021-08-12T03:26:20.008Z</time>
      </trkpt>
      <trkpt lat="42.01726" lon="44.94617">
        <ele>1224.146299</ele>
        <time>2021-08-12T03:26:26.638Z</time>
      </trkpt>
      <trkpt lat="42.01792" lon="44.94596">
        <ele>1218.954004</ele>
        <time>2021-08-12T03:26:39.994Z</time>
      </trkpt>
      <trkpt lat="42.0181" lon="44.94596">
        <ele>1217.611181</ele>
        <time>2021-08-12T03:26:43.485Z</time>
      </trkpt>
      <trkpt lat="42.01827" lon="44.9461">
        <ele>1216.108003</ele>
        <time>2021-08-12T03:26:47.423Z</time>
      </trkpt>
      <trkpt lat="42.01901" lon="44.94755">
        <ele>1207.335185</ele>
        <time>2021-08-12T03:27:13.686Z</time>
      </trkpt>
      <trkpt lat="42.01917" lon="44.9477">
        <ele>1206.306016</ele>
        <time>2021-08-12T03:27:17.869Z</time>
      </trkpt>
      <trkpt lat="42.01933" lon="44.94775">
        <ele>1205.477103</ele>
        <time>2021-08-12T03:27:21.247Z</time>
      </trkpt>
      <trkpt lat="42.01952" lon="44.9477">
        <ele>1204.493538</ele>
        <time>2021-08-12T03:27:25.313Z</time>
      </trkpt>
      <trkpt lat="42.01977" lon="44.94748">
        <ele>1202.928356</ele>
        <time>2021-08-12T03:27:31.774Z</time>
      </trkpt>
      <trkpt lat="42.01997" lon="44.94686">
        <ele>1200.302219</ele>
        <time>2021-08-12T03:27:42.751Z</time>
      </trkpt>
      <trkpt lat="42.02" lon="44.94654">
        <ele>1199.030164</ele>
        <time>2021-08-12T03:27:47.985Z</time>
      </trkpt>
      <trkpt lat="42.0201" lon="44.94176">
        <ele>1178.373685</ele>
        <time>2021-08-12T03:29:01.934Z</time>
      </trkpt>
      <trkpt lat="42.02022" lon="44.94119">
        <ele>1174.667239</ele>
        <time>2021-08-12T03:29:10.466Z</time>
      </trkpt>
      <trkpt lat="42.02039" lon="44.94069">
        <ele>1171.217313</ele>
        <time>2021-08-12T03:29:18.346Z</time>
      </trkpt>
      <trkpt lat="42.02055" lon="44.94039">
        <ele>1168.863221</ele>
        <time>2021-08-12T03:29:23.701Z</time>
      </trkpt>
      <trkpt lat="42.02069" lon="44.94027">
        <ele>1167.468105</ele>
        <time>2021-08-12T03:29:26.842Z</time>
      </trkpt>
      <trkpt lat="42.02083" lon="44.94021">
        <ele>1166.20114</ele>
        <time>2021-08-12T03:29:29.716Z</time>
      </trkpt>
      <trkpt lat="42.021" lon="44.94023">
        <ele>1164.79137</ele>
        <time>2021-08-12T03:29:32.870Z</time>
      </trkpt>
      <trkpt lat="42.0217" lon="44.94054">
        <ele>1159.268292</ele>
        <time>2021-08-12T03:29:47.018Z</time>
      </trkpt>
      <trkpt lat="42.02249" lon="44.94069">
        <ele>1153.238673</ele>
        <time>2021-08-12T03:30:02.933Z</time>
      </trkpt>
      <trkpt lat="42.02375" lon="44.94081">
        <ele>1148.129439</ele>
        <time>2021-08-12T03:30:30.149Z</time>
      </trkpt>
      <trkpt lat="42.02444" lon="44.94066">
        <ele>1145.983127</ele>
        <time>2021-08-12T03:30:48.078Z</time>
      </trkpt>
      <trkpt lat="42.02468" lon="44.94073">
        <ele>1145.873525</ele>
        <time>2021-08-12T03:30:55.265Z</time>
      </trkpt>
      <trkpt lat="42.02484" lon="44.94102">
        <ele>1146.277425</ele>
        <time>2021-08-12T03:31:03.868Z</time>
      </trkpt>
      <trkpt lat="42.0251" lon="44.94203">
        <ele>1147.469116</ele>
        <time>2021-08-12T03:31:35.306Z</time>
      </trkpt>
      <trkpt lat="42.02566" lon="44.94365">
        <ele>1151.263053</ele>
        <time>2021-08-12T03:32:39.768Z</time>
      </trkpt>
      <trkpt lat="42.02572" lon="44.94382">
        <ele>1151.81314</ele>
        <time>2021-08-12T03:32:49.593Z</time>
      </trkpt>
      <trkpt lat="42.02601" lon="44.94487">
        <ele>1155.136415</ele>
        <time>2021-08-12T03:33:36.828Z</time>
      </trkpt>
      <trkpt lat="42.02619" lon="44.94518">
        <ele>1155.816508</ele>
        <time>2021-08-12T03:33:53.071Z</time>
      </trkpt>
      <trkpt lat="42.02639" lon="44.94526">
        <ele>1156.162024</ele>
        <time>2021-08-12T03:34:02.186Z</time>
      </trkpt>
      <trkpt lat="42.02647" lon="44.94525">
        <ele>1156.279597</ele>
        <time>2021-08-12T03:34:07.211Z</time>
      </trkpt>
      <trkpt lat="42.02654" lon="44.94521">
        <ele>1156.406501</ele>
        <time>2021-08-12T03:34:12.270Z</time>
      </trkpt>
      <trkpt lat="42.0267" lon="44.94501">
        <ele>1156.757999</ele>
        <time>2021-08-12T03:34:20.290Z</time>
      </trkpt>
      <trkpt lat="42.0273" lon="44.94371">
        <ele>1157.896888</ele>
        <time>2021-08-12T03:35:02.151Z</time>
      </trkpt>
      <trkpt lat="42.02753" lon="44.94306">
        <ele>1155.696419</ele>
        <time>2021-08-12T03:35:14.022Z</time>
      </trkpt>
      <trkpt lat="42.02809" lon="44.94219">
        <ele>1152.181398</ele>
        <time>2021-08-12T03:35:31.955Z</time>
      </trkpt>
      <trkpt lat="42.02824" lon="44.94196">
        <ele>1151.264142</ele>
        <time>2021-08-12T03:35:36.545Z</time>
      </trkpt>
      <trkpt lat="42.02831" lon="44.94188">
        <ele>1150.913353</ele>
        <time>2021-08-12T03:35:38.494Z</time>
      </trkpt>
      <trkpt lat="42.02839" lon="44.94182">
        <ele>1150.635193</ele>
        <time>2021-08-12T03:35:40.538Z</time>
      </trkpt>
      <trkpt lat="42.02847" lon="44.9418">
        <ele>1150.381126</ele>
        <time>2021-08-12T03:35:42.171Z</time>
      </trkpt>
      <trkpt lat="42.02859" lon="44.94182">
        <ele>1149.987152</ele>
        <time>2021-08-12T03:35:44.733Z</time>
      </trkpt>
      <trkpt lat="42.02876" lon="44.94198">
        <ele>1149.357893</ele>
        <time>2021-08-12T03:35:49.109Z</time>
      </trkpt>
      <trkpt lat="42.02882" lon="44.94219">
        <ele>1148.821732</ele>
        <time>2021-08-12T03:35:52.634Z</time>
      </trkpt>
      <trkpt lat="42.02937" lon="44.9444">
        <ele>1145.993749</ele>
        <time>2021-08-12T03:36:36.556Z</time>
      </trkpt>
      <trkpt lat="42.02952" lon="44.94521">
        <ele>1146.581149</ele>
        <time>2021-08-12T03:37:02.225Z</time>
      </trkpt>
      <trkpt lat="42.02958" lon="44.9456">
        <ele>1146.863381</ele>
        <time>2021-08-12T03:37:15.200Z</time>
      </trkpt>
      <trkpt lat="42.02959" lon="44.9459">
        <ele>1147.075521</ele>
        <time>2021-08-12T03:37:25.364Z</time>
      </trkpt>
      <trkpt lat="42.02959" lon="44.94717">
        <ele>1150.723938</ele>
        <time>2021-08-12T03:38:15.089Z</time>
      </trkpt>
      <trkpt lat="42.02979" lon="44.94818">
        <ele>1153.81107</ele>
        <time>2021-08-12T03:39:00.923Z</time>
      </trkpt>
      <trkpt lat="42.02985" lon="44.94836">
        <ele>1154.325876</ele>
        <time>2021-08-12T03:39:08.498Z</time>
      </trkpt>
      <trkpt lat="42.02999" lon="44.94867">
        <ele>1155.028537</ele>
        <time>2021-08-12T03:39:22.311Z</time>
      </trkpt>
      <trkpt lat="42.03008" lon="44.94888">
        <ele>1155.469462</ele>
        <time>2021-08-12T03:39:31.463Z</time>
      </trkpt>
      <trkpt lat="42.03011" lon="44.94902">
        <ele>1155.753073</ele>
        <time>2021-08-12T03:39:36.770Z</time>
      </trkpt>
      <trkpt lat="42.03013" lon="44.94922">
        <ele>1156.150541</ele>
        <time>2021-08-12T03:39:43.863Z</time>
      </trkpt>
      <trkpt lat="42.03008" lon="44.94964">
        <ele>1156.954086</ele>
        <time>2021-08-12T03:39:58.184Z</time>
      </trkpt>
      <trkpt lat="42.03" lon="44.94979">
        <ele>1157.303924</ele>
        <time>2021-08-12T03:40:05.024Z</time>
      </trkpt>
      <trkpt lat="42.02995" lon="44.94988">
        <ele>1157.526757</ele>
        <time>2021-08-12T03:40:08.836Z</time>
      </trkpt>
      <trkpt lat="42.02977" lon="44.95014">
        <ele>1158.199704</ele>
        <time>2021-08-12T03:40:20.155Z</time>
      </trkpt>
      <trkpt lat="42.02941" lon="44.95077">
        <ele>1158.702678</ele>
        <time>2021-08-12T03:40:40.696Z</time>
      </trkpt>
      <trkpt lat="42.02894" lon="44.95176">
        <ele>1158.375583</ele>
        <time>2021-08-12T03:41:04.064Z</time>
      </trkpt>
      <trkpt lat="42.02881" lon="44.95229">
        <ele>1158.21877</ele>
        <time>2021-08-12T03:41:15.572Z</time>
      </trkpt>
      <trkpt lat="42.02842" lon="44.95513">
        <ele>1157.347957</ele>
        <time>2021-08-12T03:42:19.155Z</time>
      </trkpt>
      <trkpt lat="42.02822" lon="44.95619">
        <ele>1156.718008</ele>
        <time>2021-08-12T03:42:42.272Z</time>
      </trkpt>
      <trkpt lat="42.02813" lon="44.95666">
        <ele>1156.438504</ele>
        <time>2021-08-12T03:42:52.174Z</time>
      </trkpt>
      <trkpt lat="42.0281" lon="44.95681">
        <ele>1156.352252</ele>
        <time>2021-08-12T03:42:55.127Z</time>
      </trkpt>
      <trkpt lat="42.02808" lon="44.95696">
        <ele>1156.266562</ele>
        <time>2021-08-12T03:42:58.105Z</time>
      </trkpt>
      <trkpt lat="42.02799" lon="44.95775">
        <ele>1156.07675</ele>
        <time>2021-08-12T03:43:14.170Z</time>
      </trkpt>
      <trkpt lat="42.02793" lon="44.95826">
        <ele>1156.056008</ele>
        <time>2021-08-12T03:43:24.376Z</time>
      </trkpt>
      <trkpt lat="42.02792" lon="44.95849">
        <ele>1156.046477</ele>
        <time>2021-08-12T03:43:30.019Z</time>
      </trkpt>
      <trkpt lat="42.02792" lon="44.95849">
        <ele>1156.046477</ele>
        <time>2021-08-12T03:43:30.043Z</time>
      </trkpt>
      <trkpt lat="42.02792" lon="44.95849">
        <ele>1156.046477</ele>
        <time>2021-08-12T03:43:30.046Z</time>
      </trkpt>
      <trkpt lat="42.02791" lon="44.95871">
        <ele>1156.037629</ele>
        <time>2021-08-12T03:43:34.585Z</time>
      </trkpt>
      <trkpt lat="42.02791" lon="44.95965">
        <ele>1155.999877</ele>
        <time>2021-08-12T03:43:59.200Z</time>
      </trkpt>
      <trkpt lat="42.02795" lon="44.96018">
        <ele>1156.888106</ele>
        <time>2021-08-12T03:44:15.221Z</time>
      </trkpt>
      <trkpt lat="42.02799" lon="44.96028">
        <ele>1157.074715</ele>
        <time>2021-08-12T03:44:18.436Z</time>
      </trkpt>
      <trkpt lat="42.02799" lon="44.96029">
        <ele>1157.095505</ele>
        <time>2021-08-12T03:44:19.853Z</time>
      </trkpt>
      <trkpt lat="42.02821" lon="44.9606">
        <ele>1157.825083</ele>
        <time>2021-08-12T03:44:32.981Z</time>
      </trkpt>
      <trkpt lat="42.02858" lon="44.96087">
        <ele>1158.780819</ele>
        <time>2021-08-12T03:44:53.321Z</time>
      </trkpt>
      <trkpt lat="42.02893" lon="44.96096">
        <ele>1159.602156</ele>
        <time>2021-08-12T03:45:10.637Z</time>
      </trkpt>
      <trkpt lat="42.02923" lon="44.96086">
        <ele>1160.180914</ele>
        <time>2021-08-12T03:45:24.623Z</time>
      </trkpt>
      <trkpt lat="42.02937" lon="44.96067">
        <ele>1160.337137</ele>
        <time>2021-08-12T03:45:34.456Z</time>
      </trkpt>
      <trkpt lat="42.02986" lon="44.9595">
        <ele>1161.131559</ele>
        <time>2021-08-12T03:46:13.387Z</time>
      </trkpt>
      <trkpt lat="42.03044" lon="44.95841">
        <ele>1159.980742</ele>
        <time>2021-08-12T03:46:39.485Z</time>
      </trkpt>
      <trkpt lat="42.03058" lon="44.95825">
        <ele>1159.386396</ele>
        <time>2021-08-12T03:46:43.400Z</time>
      </trkpt>
      <trkpt lat="42.03079" lon="44.95815">
        <ele>1158.67474</ele>
        <time>2021-08-12T03:46:48.890Z</time>
      </trkpt>
      <trkpt lat="42.03151" lon="44.95825">
        <ele>1156.333101</ele>
        <time>2021-08-12T03:47:04.755Z</time>
      </trkpt>
      <trkpt lat="42.03157" lon="44.95826">
        <ele>1156.129639</ele>
        <time>2021-08-12T03:47:05.974Z</time>
      </trkpt>
      <trkpt lat="42.03161" lon="44.95827">
        <ele>1156.018321</ele>
        <time>2021-08-12T03:47:06.637Z</time>
      </trkpt>
      <trkpt lat="42.03212" lon="44.95837">
        <ele>1153.457811</ele>
        <time>2021-08-12T03:47:17.753Z</time>
      </trkpt>
      <trkpt lat="42.03269" lon="44.95822">
        <ele>1150.318327</ele>
        <time>2021-08-12T03:47:29.904Z</time>
      </trkpt>
      <trkpt lat="42.03293" lon="44.95802">
        <ele>1148.846449</ele>
        <time>2021-08-12T03:47:35.745Z</time>
      </trkpt>
      <trkpt lat="42.03334" lon="44.95743">
        <ele>1145.518914</ele>
        <time>2021-08-12T03:47:48.334Z</time>
      </trkpt>
      <trkpt lat="42.0335" lon="44.95734">
        <ele>1144.390299</ele>
        <time>2021-08-12T03:47:51.847Z</time>
      </trkpt>
      <trkpt lat="42.03422" lon="44.95767">
        <ele>1139.303345</ele>
        <time>2021-08-12T03:48:07.286Z</time>
      </trkpt>
      <trkpt lat="42.03453" lon="44.95763">
        <ele>1137.215339</ele>
        <time>2021-08-12T03:48:13.530Z</time>
      </trkpt>
      <trkpt lat="42.03496" lon="44.95748">
        <ele>1134.23894</ele>
        <time>2021-08-12T03:48:22.424Z</time>
      </trkpt>
      <trkpt lat="42.03606" lon="44.95682">
        <ele>1127.624389</ele>
        <time>2021-08-12T03:48:46.449Z</time>
      </trkpt>
      <trkpt lat="42.03645" lon="44.95673">
        <ele>1125.456801</ele>
        <time>2021-08-12T03:48:54.663Z</time>
      </trkpt>
      <trkpt lat="42.03709" lon="44.95676">
        <ele>1125.55119</ele>
        <time>2021-08-12T03:49:14.191Z</time>
      </trkpt>
      <trkpt lat="42.03716" lon="44.95672">
        <ele>1125.778555</ele>
        <time>2021-08-12T03:49:15.817Z</time>
      </trkpt>
      <trkpt lat="42.03722" lon="44.95667">
        <ele>1125.978544</ele>
        <time>2021-08-12T03:49:20.805Z</time>
      </trkpt>
      <trkpt lat="42.03751" lon="44.95625">
        <ele>1127.228209</ele>
        <time>2021-08-12T03:49:42.114Z</time>
      </trkpt>
      <trkpt lat="42.03762" lon="44.95625">
        <ele>1127.558076</ele>
        <time>2021-08-12T03:49:46.941Z</time>
      </trkpt>
      <trkpt lat="42.03767" lon="44.95635">
        <ele>1127.831896</ele>
        <time>2021-08-12T03:49:49.500Z</time>
      </trkpt>
      <trkpt lat="42.03769" lon="44.95645">
        <ele>1128.048829</ele>
        <time>2021-08-12T03:49:55.265Z</time>
      </trkpt>
      <trkpt lat="42.03769" lon="44.95654">
        <ele>1128.252708</ele>
        <time>2021-08-12T03:50:01.899Z</time>
      </trkpt>
      <trkpt lat="42.03765" lon="44.9574">
        <ele>1131.151881</ele>
        <time>2021-08-12T03:50:42.838Z</time>
      </trkpt>
      <trkpt lat="42.03745" lon="44.9583">
        <ele>1136.913029</ele>
        <time>2021-08-12T03:51:40.260Z</time>
      </trkpt>
      <trkpt lat="42.03726" lon="44.95875">
        <ele>1140.072245</ele>
        <time>2021-08-12T03:52:11.899Z</time>
      </trkpt>
      <trkpt lat="42.03697" lon="44.95929">
        <ele>1144.21618</ele>
        <time>2021-08-12T03:52:50.609Z</time>
      </trkpt>
      <trkpt lat="42.03603" lon="44.96045">
        <ele>1154.468252</ele>
        <time>2021-08-12T03:54:29.944Z</time>
      </trkpt>
      <trkpt lat="42.03595" lon="44.96063">
        <ele>1155.7104</ele>
        <time>2021-08-12T03:54:41.176Z</time>
      </trkpt>
      <trkpt lat="42.03591" lon="44.96081">
        <ele>1156.825144</ele>
        <time>2021-08-12T03:54:51.527Z</time>
      </trkpt>
      <trkpt lat="42.03583" lon="44.96114">
        <ele>1158.942872</ele>
        <time>2021-08-12T03:55:10.349Z</time>
      </trkpt>
      <trkpt lat="42.03577" lon="44.96135">
        <ele>1160.039688</ele>
        <time>2021-08-12T03:55:22.972Z</time>
      </trkpt>
      <trkpt lat="42.03562" lon="44.96208">
        <ele>1163.823279</ele>
        <time>2021-08-12T03:56:02.616Z</time>
      </trkpt>
      <trkpt lat="42.03554" lon="44.96262">
        <ele>1166.568191</ele>
        <time>2021-08-12T03:56:31.998Z</time>
      </trkpt>
      <trkpt lat="42.03546" lon="44.96297">
        <ele>1168.425753</ele>
        <time>2021-08-12T03:56:49.970Z</time>
      </trkpt>
      <trkpt lat="42.0354" lon="44.96322">
        <ele>1169.723723</ele>
        <time>2021-08-12T03:57:03.397Z</time>
      </trkpt>
      <trkpt lat="42.03517" lon="44.96392">
        <ele>1173.00325</ele>
        <time>2021-08-12T03:57:37.103Z</time>
      </trkpt>
      <trkpt lat="42.03506" lon="44.96428">
        <ele>1174.510177</ele>
        <time>2021-08-12T03:57:55.707Z</time>
      </trkpt>
      <trkpt lat="42.03494" lon="44.96465">
        <ele>1176.090581</ele>
        <time>2021-08-12T03:58:15.348Z</time>
      </trkpt>
      <trkpt lat="42.03474" lon="44.96529">
        <ele>1178.776506</ele>
        <time>2021-08-12T03:58:45.290Z</time>
      </trkpt>
      <trkpt lat="42.03471" lon="44.96558">
        <ele>1179.937806</ele>
        <time>2021-08-12T03:58:57.870Z</time>
      </trkpt>
      <trkpt lat="42.03479" lon="44.96569">
        <ele>1180.521569</ele>
        <time>2021-08-12T03:59:03.396Z</time>
      </trkpt>
      <trkpt lat="42.03485" lon="44.96569">
        <ele>1180.70886</ele>
        <time>2021-08-12T03:59:08.103Z</time>
      </trkpt>
      <trkpt lat="42.03489" lon="44.96568">
        <ele>1180.867633</ele>
        <time>2021-08-12T03:59:10.714Z</time>
      </trkpt>
      <trkpt lat="42.03523" lon="44.96509">
        <ele>1182.881391</ele>
        <time>2021-08-12T03:59:40.179Z</time>
      </trkpt>
      <trkpt lat="42.03695" lon="44.96274">
        <ele>1191.783246</ele>
        <time>2021-08-12T04:01:39.992Z</time>
      </trkpt>
      <trkpt lat="42.03715" lon="44.96241">
        <ele>1192.951804</ele>
        <time>2021-08-12T04:01:55.903Z</time>
      </trkpt>
      <trkpt lat="42.03715" lon="44.96241">
        <ele>1192.951804</ele>
        <time>2021-08-12T04:01:55.943Z</time>
      </trkpt>
      <trkpt lat="42.03719" lon="44.96235">
        <ele>1193.14848</ele>
        <time>2021-08-12T04:02:00.111Z</time>
      </trkpt>
      <trkpt lat="42.03792" lon="44.96096">
        <ele>1200.610545</ele>
        <time>2021-08-12T04:03:18.817Z</time>
      </trkpt>
      <trkpt lat="42.03845" lon="44.96026">
        <ele>1205.204098</ele>
        <time>2021-08-12T04:04:12.376Z</time>
      </trkpt>
      <trkpt lat="42.03871" lon="44.96001">
        <ele>1207.324155</ele>
        <time>2021-08-12T04:04:37.141Z</time>
      </trkpt>
      <trkpt lat="42.03894" lon="44.95983">
        <ele>1209.110302</ele>
        <time>2021-08-12T04:04:56.929Z</time>
      </trkpt>
      <trkpt lat="42.03938" lon="44.9597">
        <ele>1212.081281</ele>
        <time>2021-08-12T04:05:30.383Z</time>
      </trkpt>
      <trkpt lat="42.03998" lon="44.96001">
        <ele>1216.361827</ele>
        <time>2021-08-12T04:06:10.495Z</time>
      </trkpt>
      <trkpt lat="42.04012" lon="44.96012">
        <ele>1216.708364</ele>
        <time>2021-08-12T04:06:22.017Z</time>
      </trkpt>
      <trkpt lat="42.04019" lon="44.96016">
        <ele>1216.817898</ele>
        <time>2021-08-12T04:06:24.531Z</time>
      </trkpt>
      <trkpt lat="42.04066" lon="44.96043">
        <ele>1217.563033</ele>
        <time>2021-08-12T04:06:48.351Z</time>
      </trkpt>
      <trkpt lat="42.04114" lon="44.96045">
        <ele>1218.265273</ele>
        <time>2021-08-12T04:07:07.860Z</time>
      </trkpt>
      <trkpt lat="42.04138" lon="44.96038">
        <ele>1218.616044</ele>
        <time>2021-08-12T04:07:14.220Z</time>
      </trkpt>
      <trkpt lat="42.04201" lon="44.95999">
        <ele>1218.269354</ele>
        <time>2021-08-12T04:07:31.613Z</time>
      </trkpt>
      <trkpt lat="42.04248" lon="44.9596">
        <ele>1216.937875</ele>
        <time>2021-08-12T04:07:44.634Z</time>
      </trkpt>
      <trkpt lat="42.04262" lon="44.95923">
        <ele>1216.1932</ele>
        <time>2021-08-12T04:07:51.849Z</time>
      </trkpt>
      <trkpt lat="42.04265" lon="44.95829">
        <ele>1214.5163</ele>
        <time>2021-08-12T04:08:08.197Z</time>
      </trkpt>
      <trkpt lat="42.04273" lon="44.95775">
        <ele>1213.539638</ele>
        <time>2021-08-12T04:08:17.843Z</time>
      </trkpt>
      <trkpt lat="42.04283" lon="44.95734">
        <ele>1212.7874</ele>
        <time>2021-08-12T04:08:25.274Z</time>
      </trkpt>
      <trkpt lat="42.04329" lon="44.95621">
        <ele>1210.511316</ele>
        <time>2021-08-12T04:08:48.677Z</time>
      </trkpt>
      <trkpt lat="42.04346" lon="44.95591">
        <ele>1210.326352</ele>
        <time>2021-08-12T04:08:55.722Z</time>
      </trkpt>
      <trkpt lat="42.04357" lon="44.95572">
        <ele>1210.205823</ele>
        <time>2021-08-12T04:09:00.471Z</time>
      </trkpt>
      <trkpt lat="42.04446" lon="44.95468">
        <ele>1209.41949</ele>
        <time>2021-08-12T04:09:34.423Z</time>
      </trkpt>
      <trkpt lat="42.04486" lon="44.95435">
        <ele>1209.498232</ele>
        <time>2021-08-12T04:09:50.394Z</time>
      </trkpt>
      <trkpt lat="42.04633" lon="44.95355">
        <ele>1210.780674</ele>
        <time>2021-08-12T04:10:44.612Z</time>
      </trkpt>
      <trkpt lat="42.04646" lon="44.9535">
        <ele>1211.33942</ele>
        <time>2021-08-12T04:10:49.896Z</time>
      </trkpt>
      <trkpt lat="42.04665" lon="44.95343">
        <ele>1212.145885</ele>
        <time>2021-08-12T04:10:58.537Z</time>
      </trkpt>
      <trkpt lat="42.04669" lon="44.95339">
        <ele>1212.358729</ele>
        <time>2021-08-12T04:11:00.521Z</time>
      </trkpt>
      <trkpt lat="42.04687" lon="44.95319">
        <ele>1213.283608</ele>
        <time>2021-08-12T04:11:10.969Z</time>
      </trkpt>
      <trkpt lat="42.04712" lon="44.95292">
        <ele>1214.596191</ele>
        <time>2021-08-12T04:11:27.249Z</time>
      </trkpt>
      <trkpt lat="42.04741" lon="44.95273">
        <ele>1215.877086</ele>
        <time>2021-08-12T04:11:45.481Z</time>
      </trkpt>
      <trkpt lat="42.04806" lon="44.95244">
        <ele>1220.2202</ele>
        <time>2021-08-12T04:12:33.576Z</time>
      </trkpt>
      <trkpt lat="42.04831" lon="44.95221">
        <ele>1223.398134</ele>
        <time>2021-08-12T04:12:59.119Z</time>
      </trkpt>
      <trkpt lat="42.04853" lon="44.95212">
        <ele>1225.848603</ele>
        <time>2021-08-12T04:13:20.213Z</time>
      </trkpt>
      <trkpt lat="42.0496" lon="44.95183">
        <ele>1237.43052</ele>
        <time>2021-08-12T04:15:08.842Z</time>
      </trkpt>
      <trkpt lat="42.04992" lon="44.95184">
        <ele>1240.766261</ele>
        <time>2021-08-12T04:15:42.302Z</time>
      </trkpt>
      <trkpt lat="42.05028" lon="44.95198">
        <ele>1244.554738</ele>
        <time>2021-08-12T04:16:19.000Z</time>
      </trkpt>
      <trkpt lat="42.05077" lon="44.95234">
        <ele>1250.227802</ele>
        <time>2021-08-12T04:17:09.397Z</time>
      </trkpt>
      <trkpt lat="42.05097" lon="44.95265">
        <ele>1253.322151</ele>
        <time>2021-08-12T04:17:34.130Z</time>
      </trkpt>
      <trkpt lat="42.05108" lon="44.95318">
        <ele>1255.822839</ele>
        <time>2021-08-12T04:18:03.825Z</time>
      </trkpt>
      <trkpt lat="42.05118" lon="44.95432">
        <ele>1258.257875</ele>
        <time>2021-08-12T04:18:44.307Z</time>
      </trkpt>
      <trkpt lat="42.05131" lon="44.95505">
        <ele>1259.862333</ele>
        <time>2021-08-12T04:19:05.328Z</time>
      </trkpt>
      <trkpt lat="42.05133" lon="44.95508">
        <ele>1259.938459</ele>
        <time>2021-08-12T04:19:05.940Z</time>
      </trkpt>
      <trkpt lat="42.05135" lon="44.95511">
        <ele>1260.02376</ele>
        <time>2021-08-12T04:19:06.498Z</time>
      </trkpt>
      <trkpt lat="42.05158" lon="44.95515">
        <ele>1260.325731</ele>
        <time>2021-08-12T04:19:14.749Z</time>
      </trkpt>
      <trkpt lat="42.05181" lon="44.9551">
        <ele>1260.354231</ele>
        <time>2021-08-12T04:19:20.517Z</time>
      </trkpt>
      <trkpt lat="42.05243" lon="44.95489">
        <ele>1260.43491</ele>
        <time>2021-08-12T04:19:37.799Z</time>
      </trkpt>
      <trkpt lat="42.05313" lon="44.95495">
        <ele>1260.52359</ele>
        <time>2021-08-12T04:20:01.346Z</time>
      </trkpt>
      <trkpt lat="42.05368" lon="44.95506">
        <ele>1262.120303</ele>
        <time>2021-08-12T04:20:26.041Z</time>
      </trkpt>
      <trkpt lat="42.05421" lon="44.95498">
        <ele>1263.962842</ele>
        <time>2021-08-12T04:20:52.913Z</time>
      </trkpt>
      <trkpt lat="42.05556" lon="44.95473">
        <ele>1269.168196</ele>
        <time>2021-08-12T04:22:09.722Z</time>
      </trkpt>
      <trkpt lat="42.05623" lon="44.95453">
        <ele>1272.208153</ele>
        <time>2021-08-12T04:22:49.870Z</time>
      </trkpt>
      <trkpt lat="42.05681" lon="44.95427">
        <ele>1274.817297</ele>
        <time>2021-08-12T04:23:22.959Z</time>
      </trkpt>
      <trkpt lat="42.05714" lon="44.95405">
        <ele>1275.812917</ele>
        <time>2021-08-12T04:23:41.533Z</time>
      </trkpt>
      <trkpt lat="42.05729" lon="44.95394">
        <ele>1276.254844</ele>
        <time>2021-08-12T04:23:49.830Z</time>
      </trkpt>
      <trkpt lat="42.05741" lon="44.95386">
        <ele>1276.62367</ele>
        <time>2021-08-12T04:23:56.132Z</time>
      </trkpt>
      <trkpt lat="42.05864" lon="44.95301">
        <ele>1280.046212</ele>
        <time>2021-08-12T04:24:56.286Z</time>
      </trkpt>
      <trkpt lat="42.05916" lon="44.95272">
        <ele>1281.029474</ele>
        <time>2021-08-12T04:25:17.713Z</time>
      </trkpt>
      <trkpt lat="42.06012" lon="44.95239">
        <ele>1282.826101</ele>
        <time>2021-08-12T04:25:56.826Z</time>
      </trkpt>
      <trkpt lat="42.06268" lon="44.95132">
        <ele>1291.356299</ele>
        <time>2021-08-12T04:28:02.588Z</time>
      </trkpt>
      <trkpt lat="42.06333" lon="44.95132">
        <ele>1294.096646</ele>
        <time>2021-08-12T04:28:43.226Z</time>
      </trkpt>
      <trkpt lat="42.06339" lon="44.95133">
        <ele>1294.369108</ele>
        <time>2021-08-12T04:28:47.549Z</time>
      </trkpt>
      <trkpt lat="42.06362" lon="44.95154">
        <ele>1295.586619</ele>
        <time>2021-08-12T04:29:05.779Z</time>
      </trkpt>
      <trkpt lat="42.06387" lon="44.95183">
        <ele>1297.047599</ele>
        <time>2021-08-12T04:29:27.124Z</time>
      </trkpt>
      <trkpt lat="42.0641" lon="44.95226">
        <ele>1298.783524</ele>
        <time>2021-08-12T04:29:51.642Z</time>
      </trkpt>
      <trkpt lat="42.06456" lon="44.95335">
        <ele>1302.883487</ele>
        <time>2021-08-12T04:30:42.781Z</time>
      </trkpt>
      <trkpt lat="42.06498" lon="44.95474">
        <ele>1302.158864</ele>
        <time>2021-08-12T04:31:16.081Z</time>
      </trkpt>
      <trkpt lat="42.06513" lon="44.95594">
        <ele>1301.156499</ele>
        <time>2021-08-12T04:31:37.301Z</time>
      </trkpt>
      <trkpt lat="42.06527" lon="44.95644">
        <ele>1300.124896</ele>
        <time>2021-08-12T04:31:46.561Z</time>
      </trkpt>
      <trkpt lat="42.0656" lon="44.95729">
        <ele>1298.313832</ele>
        <time>2021-08-12T04:32:03.062Z</time>
      </trkpt>
      <trkpt lat="42.06591" lon="44.95765">
        <ele>1297.268424</ele>
        <time>2021-08-12T04:32:12.951Z</time>
      </trkpt>
      <trkpt lat="42.06615" lon="44.95777">
        <ele>1296.800043</ele>
        <time>2021-08-12T04:32:19.301Z</time>
      </trkpt>
      <trkpt lat="42.06856" lon="44.9571">
        <ele>1291.68571</ele>
        <time>2021-08-12T04:33:22.656Z</time>
      </trkpt>
      <trkpt lat="42.06863" lon="44.95709">
        <ele>1291.48101</ele>
        <time>2021-08-12T04:33:24.182Z</time>
      </trkpt>
      <trkpt lat="42.06889" lon="44.95702">
        <ele>1290.686641</ele>
        <time>2021-08-12T04:33:30.006Z</time>
      </trkpt>
      <trkpt lat="42.06912" lon="44.95699">
        <ele>1289.973788</ele>
        <time>2021-08-12T04:33:35.204Z</time>
      </trkpt>
      <trkpt lat="42.06929" lon="44.9571">
        <ele>1289.410669</ele>
        <time>2021-08-12T04:33:39.259Z</time>
      </trkpt>
      <trkpt lat="42.06941" lon="44.9573">
        <ele>1288.841099</ele>
        <time>2021-08-12T04:33:43.367Z</time>
      </trkpt>
      <trkpt lat="42.06945" lon="44.95746">
        <ele>1288.195243</ele>
        <time>2021-08-12T04:33:46.049Z</time>
      </trkpt>
      <trkpt lat="42.06946" lon="44.95764">
        <ele>1287.50647</ele>
        <time>2021-08-12T04:33:48.823Z</time>
      </trkpt>
      <trkpt lat="42.06954" lon="44.95873">
        <ele>1283.32075</ele>
        <time>2021-08-12T04:34:06.014Z</time>
      </trkpt>
      <trkpt lat="42.06967" lon="44.95917">
        <ele>1281.509538</ele>
        <time>2021-08-12T04:34:13.318Z</time>
      </trkpt>
      <trkpt lat="42.06984" lon="44.95947">
        <ele>1280.100959</ele>
        <time>2021-08-12T04:34:18.867Z</time>
      </trkpt>
      <trkpt lat="42.07001" lon="44.95965">
        <ele>1278.960741</ele>
        <time>2021-08-12T04:34:23.717Z</time>
      </trkpt>
      <trkpt lat="42.07016" lon="44.95962">
        <ele>1278.17462</ele>
        <time>2021-08-12T04:34:27.044Z</time>
      </trkpt>
      <trkpt lat="42.07061" lon="44.95905">
        <ele>1274.913499</ele>
        <time>2021-08-12T04:34:40.623Z</time>
      </trkpt>
      <trkpt lat="42.07079" lon="44.95892">
        <ele>1273.902382</ele>
        <time>2021-08-12T04:34:44.716Z</time>
      </trkpt>
      <trkpt lat="42.07109" lon="44.95883">
        <ele>1272.282742</ele>
        <time>2021-08-12T04:34:51.198Z</time>
      </trkpt>
      <trkpt lat="42.0714" lon="44.95887">
        <ele>1270.633904</ele>
        <time>2021-08-12T04:34:57.652Z</time>
      </trkpt>
      <trkpt lat="42.07166" lon="44.95905">
        <ele>1268.538246</ele>
        <time>2021-08-12T04:35:03.425Z</time>
      </trkpt>
      <trkpt lat="42.07206" lon="44.95948">
        <ele>1264.295738</ele>
        <time>2021-08-12T04:35:13.723Z</time>
      </trkpt>
      <trkpt lat="42.07303" lon="44.95985">
        <ele>1255.975591</ele>
        <time>2021-08-12T04:35:33.306Z</time>
      </trkpt>
      <trkpt lat="42.07336" lon="44.96014">
        <ele>1251.865755</ele>
        <time>2021-08-12T04:35:40.817Z</time>
      </trkpt>
      <trkpt lat="42.07331" lon="44.96195">
        <ele>1237.303321</ele>
        <time>2021-08-12T04:36:06.066Z</time>
      </trkpt>
      <trkpt lat="42.07339" lon="44.96232">
        <ele>1234.232812</ele>
        <time>2021-08-12T04:36:11.414Z</time>
      </trkpt>
      <trkpt lat="42.07412" lon="44.96331">
        <ele>1223.153916</ele>
        <time>2021-08-12T04:36:30.907Z</time>
      </trkpt>
      <trkpt lat="42.07457" lon="44.96446">
        <ele>1213.531962</ele>
        <time>2021-08-12T04:36:49.442Z</time>
      </trkpt>
      <trkpt lat="42.07463" lon="44.96475">
        <ele>1211.612582</ele>
        <time>2021-08-12T04:36:53.722Z</time>
      </trkpt>
      <trkpt lat="42.07461" lon="44.9649">
        <ele>1210.628393</ele>
        <time>2021-08-12T04:36:55.920Z</time>
      </trkpt>
      <trkpt lat="42.07455" lon="44.96497">
        <ele>1209.962262</ele>
        <time>2021-08-12T04:36:57.415Z</time>
      </trkpt>
      <trkpt lat="42.07436" lon="44.96489">
        <ele>1208.255445</ele>
        <time>2021-08-12T04:37:01.247Z</time>
      </trkpt>
      <trkpt lat="42.07415" lon="44.96455">
        <ele>1205.389224</ele>
        <time>2021-08-12T04:37:07.725Z</time>
      </trkpt>
      <trkpt lat="42.0736" lon="44.96444">
        <ele>1200.55214</ele>
        <time>2021-08-12T04:37:18.666Z</time>
      </trkpt>
      <trkpt lat="42.07334" lon="44.96454">
        <ele>1198.253261</ele>
        <time>2021-08-12T04:37:23.984Z</time>
      </trkpt>
      <trkpt lat="42.07326" lon="44.96469">
        <ele>1197.121832</ele>
        <time>2021-08-12T04:37:26.584Z</time>
      </trkpt>
      <trkpt lat="42.07328" lon="44.96484">
        <ele>1196.186608</ele>
        <time>2021-08-12T04:37:28.749Z</time>
      </trkpt>
      <trkpt lat="42.07365" lon="44.96516">
        <ele>1192.423467</ele>
        <time>2021-08-12T04:37:37.409Z</time>
      </trkpt>
      <trkpt lat="42.07378" lon="44.96561">
        <ele>1189.395748</ele>
        <time>2021-08-12T04:37:44.362Z</time>
      </trkpt>
      <trkpt lat="42.07378" lon="44.96581">
        <ele>1188.150342</ele>
        <time>2021-08-12T04:37:47.225Z</time>
      </trkpt>
      <trkpt lat="42.07366" lon="44.96608">
        <ele>1186.15181</ele>
        <time>2021-08-12T04:37:51.801Z</time>
      </trkpt>
      <trkpt lat="42.07286" lon="44.9664">
        <ele>1179.05027</ele>
        <time>2021-08-12T04:38:07.878Z</time>
      </trkpt>
      <trkpt lat="42.07234" lon="44.96675">
        <ele>1174.080255</ele>
        <time>2021-08-12T04:38:19.147Z</time>
      </trkpt>
      <trkpt lat="42.07189" lon="44.96681">
        <ele>1170.230037</ele>
        <time>2021-08-12T04:38:27.962Z</time>
      </trkpt>
      <trkpt lat="42.07148" lon="44.96677">
        <ele>1166.948489</ele>
        <time>2021-08-12T04:38:35.962Z</time>
      </trkpt>
      <trkpt lat="42.07116" lon="44.96699">
        <ele>1164.063005</ele>
        <time>2021-08-12T04:38:43.012Z</time>
      </trkpt>
      <trkpt lat="42.07065" lon="44.96758">
        <ele>1158.66033</ele>
        <time>2021-08-12T04:38:56.219Z</time>
      </trkpt>
      <trkpt lat="42.07065" lon="44.96778">
        <ele>1157.454861</ele>
        <time>2021-08-12T04:38:59.170Z</time>
      </trkpt>
      <trkpt lat="42.07078" lon="44.96796">
        <ele>1155.979549</ele>
        <time>2021-08-12T04:39:02.781Z</time>
      </trkpt>
      <trkpt lat="42.07111" lon="44.96813">
        <ele>1153.330926</ele>
        <time>2021-08-12T04:39:09.679Z</time>
      </trkpt>
      <trkpt lat="42.07138" lon="44.96841">
        <ele>1150.69994</ele>
        <time>2021-08-12T04:39:16.533Z</time>
      </trkpt>
      <trkpt lat="42.07251" lon="44.96984">
        <ele>1139.772305</ele>
        <time>2021-08-12T04:39:47.338Z</time>
      </trkpt>
      <trkpt lat="42.0726" lon="44.9701">
        <ele>1138.571165</ele>
        <time>2021-08-12T04:39:51.648Z</time>
      </trkpt>
      <trkpt lat="42.07261" lon="44.97049">
        <ele>1136.905591</ele>
        <time>2021-08-12T04:39:57.628Z</time>
      </trkpt>
      <trkpt lat="42.07252" lon="44.97139">
        <ele>1132.993085</ele>
        <time>2021-08-12T04:40:12.080Z</time>
      </trkpt>
      <trkpt lat="42.0726" lon="44.97149">
        <ele>1132.369681</ele>
        <time>2021-08-12T04:40:14.487Z</time>
      </trkpt>
      <trkpt lat="42.07266" lon="44.9715">
        <ele>1132.047879</ele>
        <time>2021-08-12T04:40:15.539Z</time>
      </trkpt>
      <trkpt lat="42.0727" lon="44.97151">
        <ele>1131.857973</ele>
        <time>2021-08-12T04:40:17.366Z</time>
      </trkpt>
      <trkpt lat="42.07277" lon="44.97152">
        <ele>1131.555909</ele>
        <time>2021-08-12T04:40:19.018Z</time>
      </trkpt>
      <trkpt lat="42.07296" lon="44.97135">
        <ele>1130.611055</ele>
        <time>2021-08-12T04:40:23.902Z</time>
      </trkpt>
      <trkpt lat="42.07318" lon="44.97102">
        <ele>1129.276823</ele>
        <time>2021-08-12T04:40:31.377Z</time>
      </trkpt>
      <trkpt lat="42.07359" lon="44.97019">
        <ele>1126.214927</ele>
        <time>2021-08-12T04:40:47.669Z</time>
      </trkpt>
      <trkpt lat="42.07373" lon="44.9701">
        <ele>1125.57299</ele>
        <time>2021-08-12T04:40:51.201Z</time>
      </trkpt>
      <trkpt lat="42.07387" lon="44.97009">
        <ele>1124.998878</ele>
        <time>2021-08-12T04:40:54.290Z</time>
      </trkpt>
      <trkpt lat="42.07415" lon="44.97056">
        <ele>1122.533424</ele>
        <time>2021-08-12T04:41:03.907Z</time>
      </trkpt>
      <trkpt lat="42.07429" lon="44.97068">
        <ele>1121.54433</ele>
        <time>2021-08-12T04:41:07.411Z</time>
      </trkpt>
      <trkpt lat="42.07452" lon="44.97059">
        <ele>1120.152468</ele>
        <time>2021-08-12T04:41:12.326Z</time>
      </trkpt>
      <trkpt lat="42.07476" lon="44.97028">
        <ele>1118.204952</ele>
        <time>2021-08-12T04:41:19.117Z</time>
      </trkpt>
      <trkpt lat="42.0749" lon="44.97025">
        <ele>1117.358437</ele>
        <time>2021-08-12T04:41:22.046Z</time>
      </trkpt>
      <trkpt lat="42.07529" lon="44.97054">
        <ele>1114.724304</ele>
        <time>2021-08-12T04:41:31.028Z</time>
      </trkpt>
      <trkpt lat="42.076" lon="44.97071">
        <ele>1109.459757</ele>
        <time>2021-08-12T04:41:45.345Z</time>
      </trkpt>
      <trkpt lat="42.0763" lon="44.97073">
        <ele>1107.226652</ele>
        <time>2021-08-12T04:41:51.175Z</time>
      </trkpt>
      <trkpt lat="42.0774" lon="44.97042">
        <ele>1098.860083</ele>
        <time>2021-08-12T04:42:13.291Z</time>
      </trkpt>
      <trkpt lat="42.07829" lon="44.97032">
        <ele>1092.783692</ele>
        <time>2021-08-12T04:42:30.964Z</time>
      </trkpt>
      <trkpt lat="42.07885" lon="44.97039">
        <ele>1088.976578</ele>
        <time>2021-08-12T04:42:42.478Z</time>
      </trkpt>
      <trkpt lat="42.07914" lon="44.97043">
        <ele>1087.902801</ele>
        <time>2021-08-12T04:42:48.709Z</time>
      </trkpt>
      <trkpt lat="42.07927" lon="44.97043">
        <ele>1087.700347</ele>
        <time>2021-08-12T04:42:51.606Z</time>
      </trkpt>
      <trkpt lat="42.0794" lon="44.97043">
        <ele>1087.502519</ele>
        <time>2021-08-12T04:42:54.552Z</time>
      </trkpt>
      <trkpt lat="42.07963" lon="44.97038">
        <ele>1087.13456</ele>
        <time>2021-08-12T04:43:00.060Z</time>
      </trkpt>
      <trkpt lat="42.07972" lon="44.9703">
        <ele>1086.971037</ele>
        <time>2021-08-12T04:43:02.646Z</time>
      </trkpt>
      <trkpt lat="42.07989" lon="44.97013">
        <ele>1086.650277</ele>
        <time>2021-08-12T04:43:07.724Z</time>
      </trkpt>
      <trkpt lat="42.08092" lon="44.96907">
        <ele>1086.052301</ele>
        <time>2021-08-12T04:43:54.616Z</time>
      </trkpt>
      <trkpt lat="42.08129" lon="44.96877">
        <ele>1086.630574</ele>
        <time>2021-08-12T04:44:12.968Z</time>
      </trkpt>
      <trkpt lat="42.08269" lon="44.96814">
        <ele>1088.031031</ele>
        <time>2021-08-12T04:45:10.401Z</time>
      </trkpt>
      <trkpt lat="42.08526" lon="44.9672">
        <ele>1087.742735</ele>
        <time>2021-08-12T04:46:30.276Z</time>
      </trkpt>
      <trkpt lat="42.08585" lon="44.9671">
        <ele>1087.436799</ele>
        <time>2021-08-12T04:46:45.561Z</time>
      </trkpt>
      <trkpt lat="42.086" lon="44.96708">
        <ele>1087.358167</ele>
        <time>2021-08-12T04:46:49.407Z</time>
      </trkpt>
      <trkpt lat="42.08607" lon="44.96707">
        <ele>1087.321749</ele>
        <time>2021-08-12T04:46:51.030Z</time>
      </trkpt>
      <trkpt lat="42.08627" lon="44.96714">
        <ele>1087.210248</ele>
        <time>2021-08-12T04:46:57.323Z</time>
      </trkpt>
      <trkpt lat="42.08639" lon="44.96735">
        <ele>1087.107976</ele>
        <time>2021-08-12T04:47:02.225Z</time>
      </trkpt>
      <trkpt lat="42.08661" lon="44.9678">
        <ele>1086.897028</ele>
        <time>2021-08-12T04:47:13.659Z</time>
      </trkpt>
      <trkpt lat="42.08686" lon="44.9683">
        <ele>1086.660383</ele>
        <time>2021-08-12T04:47:27.391Z</time>
      </trkpt>
      <trkpt lat="42.08843" lon="44.96782">
        <ele>1089.192521</ele>
        <time>2021-08-12T04:48:33.776Z</time>
      </trkpt>
      <trkpt lat="42.08977" lon="44.96695">
        <ele>1091.819301</ele>
        <time>2021-08-12T04:49:38.400Z</time>
      </trkpt>
      <trkpt lat="42.09019" lon="44.96681">
        <ele>1092.601742</ele>
        <time>2021-08-12T04:49:55.270Z</time>
      </trkpt>
      <trkpt lat="42.09083" lon="44.96683">
        <ele>1092.853518</ele>
        <time>2021-08-12T04:50:17.901Z</time>
      </trkpt>
      <trkpt lat="42.09171" lon="44.96697">
        <ele>1092.86718</ele>
        <time>2021-08-12T04:50:44.654Z</time>
      </trkpt>
      <trkpt lat="42.0927" lon="44.96717">
        <ele>1092.302519</ele>
        <time>2021-08-12T04:51:11.846Z</time>
      </trkpt>
      <trkpt lat="42.09348" lon="44.96742">
        <ele>1091.5231</ele>
        <time>2021-08-12T04:51:33.323Z</time>
      </trkpt>
      <trkpt lat="42.09373" lon="44.96744">
        <ele>1091.279701</ele>
        <time>2021-08-12T04:51:40.073Z</time>
      </trkpt>
      <trkpt lat="42.09423" lon="44.96748">
        <ele>1090.993661</ele>
        <time>2021-08-12T04:51:53.430Z</time>
      </trkpt>
      <trkpt lat="42.09605" lon="44.96746">
        <ele>1090.687614</ele>
        <time>2021-08-12T04:52:47.703Z</time>
      </trkpt>
      <trkpt lat="42.09707" lon="44.96745">
        <ele>1091.481255</ele>
        <time>2021-08-12T04:53:24.894Z</time>
      </trkpt>
      <trkpt lat="42.09864" lon="44.96743">
        <ele>1093.280658</ele>
        <time>2021-08-12T04:54:25.951Z</time>
      </trkpt>
      <trkpt lat="42.1002" lon="44.96739">
        <ele>1095.179852</ele>
        <time>2021-08-12T04:55:23.896Z</time>
      </trkpt>
      <trkpt lat="42.10022" lon="44.96739">
        <ele>1095.205914</ele>
        <time>2021-08-12T04:55:24.746Z</time>
      </trkpt>
      <trkpt lat="42.10049" lon="44.96739">
        <ele>1095.516156</ele>
        <time>2021-08-12T04:55:34.243Z</time>
      </trkpt>
      <trkpt lat="42.1022" lon="44.96743">
        <ele>1097.994157</ele>
        <time>2021-08-12T04:56:41.763Z</time>
      </trkpt>
      <trkpt lat="42.10254" lon="44.96744">
        <ele>1098.528612</ele>
        <time>2021-08-12T04:56:56.105Z</time>
      </trkpt>
      <trkpt lat="42.10265" lon="44.96744">
        <ele>1098.70727</ele>
        <time>2021-08-12T04:57:00.630Z</time>
      </trkpt>
      <trkpt lat="42.10327" lon="44.96745">
        <ele>1099.424126</ele>
        <time>2021-08-12T04:57:25.523Z</time>
      </trkpt>
      <trkpt lat="42.10395" lon="44.96758">
        <ele>1100.066895</ele>
        <time>2021-08-12T04:57:51.931Z</time>
      </trkpt>
      <trkpt lat="42.10533" lon="44.96774">
        <ele>1100.534464</ele>
        <time>2021-08-12T04:58:36.454Z</time>
      </trkpt>
      <trkpt lat="42.10577" lon="44.96771">
        <ele>1100.402135</ele>
        <time>2021-08-12T04:58:48.815Z</time>
      </trkpt>
      <trkpt lat="42.10577" lon="44.96771">
        <ele>1100.402135</ele>
        <time>2021-08-12T04:58:48.821Z</time>
      </trkpt>
      <trkpt lat="42.10577" lon="44.96797">
        <ele>1100.344011</ele>
        <time>2021-08-12T04:58:54.537Z</time>
      </trkpt>
      <trkpt lat="42.10571" lon="44.96908">
        <ele>1100.088</ele>
        <time>2021-08-12T04:59:19.369Z</time>
      </trkpt>
      <trkpt lat="42.10571" lon="44.96996">
        <ele>1099.874962</ele>
        <time>2021-08-12T04:59:39.342Z</time>
      </trkpt>
      <trkpt lat="42.10617" lon="44.97007">
        <ele>1099.720595</ele>
        <time>2021-08-12T04:59:53.248Z</time>
      </trkpt>
      <trkpt lat="42.1064" lon="44.97013">
        <ele>1099.644067</ele>
        <time>2021-08-12T04:59:59.961Z</time>
      </trkpt>
      <trkpt lat="42.10687" lon="44.97022">
        <ele>1099.684557</ele>
        <time>2021-08-12T05:00:14.552Z</time>
      </trkpt>
      <trkpt lat="42.10675" lon="44.97035">
        <ele>1099.718502</ele>
        <time>2021-08-12T05:00:19.507Z</time>
      </trkpt>
      <trkpt lat="42.10666" lon="44.97055">
        <ele>1099.757795</ele>
        <time>2021-08-12T05:00:25.131Z</time>
      </trkpt>
      <trkpt lat="42.10656" lon="44.97077">
        <ele>1099.800519</ele>
        <time>2021-08-12T05:00:31.611Z</time>
      </trkpt>
      <trkpt lat="42.10637" lon="44.97135">
        <ele>1099.905756</ele>
        <time>2021-08-12T05:00:47.284Z</time>
      </trkpt>
      <trkpt lat="42.10613" lon="44.9721">
        <ele>1100.001702</ele>
        <time>2021-08-12T05:01:07.753Z</time>
      </trkpt>
      <trkpt lat="42.1057" lon="44.97346">
        <ele>1099.946289</ele>
        <time>2021-08-12T05:01:42.608Z</time>
      </trkpt>
      <trkpt lat="42.10553" lon="44.97398">
        <ele>1099.925102</ele>
        <time>2021-08-12T05:01:54.796Z</time>
      </trkpt>
      <trkpt lat="42.10495" lon="44.9758">
        <ele>1099.456447</ele>
        <time>2021-08-12T05:02:37.181Z</time>
      </trkpt>
      <trkpt lat="42.10491" lon="44.97591">
        <ele>1099.426688</ele>
        <time>2021-08-12T05:02:39.724Z</time>
      </trkpt>
      <trkpt lat="42.10484" lon="44.97612">
        <ele>1099.367463</ele>
        <time>2021-08-12T05:02:44.803Z</time>
      </trkpt>
      <trkpt lat="42.1045" lon="44.97714">
        <ele>1099.249139</ele>
        <time>2021-08-12T05:03:10.920Z</time>
      </trkpt>
      <trkpt lat="42.10443" lon="44.97731">
        <ele>1099.237355</ele>
        <time>2021-08-12T05:03:15.474Z</time>
      </trkpt>
      <trkpt lat="42.10438" lon="44.97746">
        <ele>1099.228028</ele>
        <time>2021-08-12T05:03:19.241Z</time>
      </trkpt>
      <trkpt lat="42.10392" lon="44.97882">
        <ele>1099.018032</ele>
        <time>2021-08-12T05:03:53.799Z</time>
      </trkpt>
      <trkpt lat="42.10351" lon="44.98011">
        <ele>1098.298062</ele>
        <time>2021-08-12T05:04:22.014Z</time>
      </trkpt>
      <trkpt lat="42.10329" lon="44.98065">
        <ele>1097.980169</ele>
        <time>2021-08-12T05:04:34.898Z</time>
      </trkpt>
      <trkpt lat="42.10325" lon="44.9808">
        <ele>1097.909712</ele>
        <time>2021-08-12T05:04:38.213Z</time>
      </trkpt>
      <trkpt lat="42.1031" lon="44.98126">
        <ele>1097.805556</ele>
        <time>2021-08-12T05:04:49.034Z</time>
      </trkpt>
      <trkpt lat="42.10305" lon="44.98142">
        <ele>1097.768981</ele>
        <time>2021-08-12T05:04:52.884Z</time>
      </trkpt>
      <trkpt lat="42.10301" lon="44.98156">
        <ele>1097.73654</ele>
        <time>2021-08-12T05:04:56.449Z</time>
      </trkpt>
      <trkpt lat="42.10287" lon="44.98189">
        <ele>1097.657617</ele>
        <time>2021-08-12T05:05:05.120Z</time>
      </trkpt>
      <trkpt lat="42.10275" lon="44.98222">
        <ele>1097.580292</ele>
        <time>2021-08-12T05:05:13.587Z</time>
      </trkpt>
      <trkpt lat="42.10263" lon="44.98252">
        <ele>1097.509585</ele>
        <time>2021-08-12T05:05:21.061Z</time>
      </trkpt>
      <trkpt lat="42.10253" lon="44.98277">
        <ele>1097.449513</ele>
        <time>2021-08-12T05:05:27.411Z</time>
      </trkpt>
      <trkpt lat="42.10227" lon="44.98335">
        <ele>1097.268471</ele>
        <time>2021-08-12T05:05:41.967Z</time>
      </trkpt>
      <trkpt lat="42.10217" lon="44.98362">
        <ele>1097.181745</ele>
        <time>2021-08-12T05:05:48.426Z</time>
      </trkpt>
      <trkpt lat="42.10192" lon="44.98429">
        <ele>1096.96242</ele>
        <time>2021-08-12T05:06:04.610Z</time>
      </trkpt>
      <trkpt lat="42.10176" lon="44.98475">
        <ele>1096.815479</ele>
        <time>2021-08-12T05:06:15.584Z</time>
      </trkpt>
      <trkpt lat="42.10151" lon="44.98534">
        <ele>1096.773237</ele>
        <time>2021-08-12T05:06:30.562Z</time>
      </trkpt>
      <trkpt lat="42.10129" lon="44.98585">
        <ele>1096.910898</ele>
        <time>2021-08-12T05:06:43.697Z</time>
      </trkpt>
      <trkpt lat="42.10115" lon="44.98602">
        <ele>1096.971514</ele>
        <time>2021-08-12T05:06:49.741Z</time>
      </trkpt>
      <trkpt lat="42.10096" lon="44.98625">
        <ele>1097.051943</ele>
        <time>2021-08-12T05:06:58.137Z</time>
      </trkpt>
      <trkpt lat="42.10044" lon="44.98687">
        <ele>1097.270365</ele>
        <time>2021-08-12T05:07:22.737Z</time>
      </trkpt>
      <trkpt lat="42.09982" lon="44.9876">
        <ele>1098.318608</ele>
        <time>2021-08-12T05:07:55.158Z</time>
      </trkpt>
      <trkpt lat="42.09949" lon="44.98798">
        <ele>1098.868334</ele>
        <time>2021-08-12T05:08:11.802Z</time>
      </trkpt>
      <trkpt lat="42.0991" lon="44.98847">
        <ele>1099.54311</ele>
        <time>2021-08-12T05:08:32.127Z</time>
      </trkpt>
      <trkpt lat="42.09836" lon="44.9894">
        <ele>1100.5812</ele>
        <time>2021-08-12T05:09:09.997Z</time>
      </trkpt>
      <trkpt lat="42.09729" lon="44.99061">
        <ele>1102.17052</ele>
        <time>2021-08-12T05:10:00.588Z</time>
      </trkpt>
      <trkpt lat="42.0968" lon="44.99126">
        <ele>1103.044885</ele>
        <time>2021-08-12T05:10:26.676Z</time>
      </trkpt>
      <trkpt lat="42.09532" lon="44.99322">
        <ele>1106.181475</ele>
        <time>2021-08-12T05:11:51.340Z</time>
      </trkpt>
      <trkpt lat="42.09425" lon="44.9946">
        <ele>1107.511567</ele>
        <time>2021-08-12T05:12:45.790Z</time>
      </trkpt>
      <trkpt lat="42.09264" lon="44.99681">
        <ele>1108.137699</ele>
        <time>2021-08-12T05:13:59.186Z</time>
      </trkpt>
      <trkpt lat="42.0924" lon="44.99714">
        <ele>1108.1921</ele>
        <time>2021-08-12T05:14:09.723Z</time>
      </trkpt>
      <trkpt lat="42.09134" lon="44.99869">
        <ele>1108.492822</ele>
        <time>2021-08-12T05:14:59.511Z</time>
      </trkpt>
      <trkpt lat="42.08978" lon="45.00121">
        <ele>1111.343664</ele>
        <time>2021-08-12T05:16:27.533Z</time>
      </trkpt>
      <trkpt lat="42.08617" lon="45.00786">
        <ele>1125.17539</ele>
        <time>2021-08-12T05:20:55.850Z</time>
      </trkpt>
      <trkpt lat="42.08592" lon="45.00848">
        <ele>1127.022164</ele>
        <time>2021-08-12T05:21:24.570Z</time>
      </trkpt>
      <trkpt lat="42.08568" lon="45.00928">
        <ele>1130.46158</ele>
        <time>2021-08-12T05:22:02.160Z</time>
      </trkpt>
      <trkpt lat="42.08548" lon="45.01041">
        <ele>1135.111324</ele>
        <time>2021-08-12T05:22:58.070Z</time>
      </trkpt>
      <trkpt lat="42.08542" lon="45.01184">
        <ele>1141.349766</ele>
        <time>2021-08-12T05:24:09.434Z</time>
      </trkpt>
      <trkpt lat="42.08526" lon="45.01262">
        <ele>1144.877395</ele>
        <time>2021-08-12T05:24:47.911Z</time>
      </trkpt>
      <trkpt lat="42.08492" lon="45.01387">
        <ele>1149.580279</ele>
        <time>2021-08-12T05:25:47.175Z</time>
      </trkpt>
      <trkpt lat="42.08487" lon="45.01445">
        <ele>1151.416793</ele>
        <time>2021-08-12T05:26:11.206Z</time>
      </trkpt>
      <trkpt lat="42.08486" lon="45.01696">
        <ele>1157.329718</ele>
        <time>2021-08-12T05:27:42.579Z</time>
      </trkpt>
      <trkpt lat="42.08499" lon="45.01784">
        <ele>1158.827861</ele>
        <time>2021-08-12T05:28:10.078Z</time>
      </trkpt>
      <trkpt lat="42.08519" lon="45.01861">
        <ele>1157.922864</ele>
        <time>2021-08-12T05:28:31.586Z</time>
      </trkpt>
      <trkpt lat="42.08546" lon="45.02024">
        <ele>1155.67321</ele>
        <time>2021-08-12T05:29:00.563Z</time>
      </trkpt>
      <trkpt lat="42.08554" lon="45.0204">
        <ele>1154.851627</ele>
        <time>2021-08-12T05:29:03.886Z</time>
      </trkpt>
      <trkpt lat="42.08567" lon="45.02054">
        <ele>1153.993277</ele>
        <time>2021-08-12T05:29:07.186Z</time>
      </trkpt>
      <trkpt lat="42.08602" lon="45.02061">
        <ele>1152.073728</ele>
        <time>2021-08-12T05:29:20.637Z</time>
      </trkpt>
      <trkpt lat="42.08632" lon="45.02062">
        <ele>1150.434281</ele>
        <time>2021-08-12T05:29:31.942Z</time>
      </trkpt>
      <trkpt lat="42.0865" lon="45.0207">
        <ele>1149.407006</ele>
        <time>2021-08-12T05:29:38.983Z</time>
      </trkpt>
      <trkpt lat="42.0874" lon="45.0215">
        <ele>1143.624459</ele>
        <time>2021-08-12T05:30:18.635Z</time>
      </trkpt>
      <trkpt lat="42.08747" lon="45.02167">
        <ele>1142.869389</ele>
        <time>2021-08-12T05:30:24.086Z</time>
      </trkpt>
      <trkpt lat="42.08766" lon="45.02256">
        <ele>1139.252051</ele>
        <time>2021-08-12T05:30:50.431Z</time>
      </trkpt>
      <trkpt lat="42.08794" lon="45.02342">
        <ele>1136.119216</ele>
        <time>2021-08-12T05:31:18.011Z</time>
      </trkpt>
      <trkpt lat="42.08811" lon="45.02369">
        <ele>1135.281735</ele>
        <time>2021-08-12T05:31:28.711Z</time>
      </trkpt>
      <trkpt lat="42.08825" lon="45.02378">
        <ele>1134.78898</ele>
        <time>2021-08-12T05:31:35.036Z</time>
      </trkpt>
      <trkpt lat="42.08862" lon="45.02373">
        <ele>1133.620946</ele>
        <time>2021-08-12T05:31:50.383Z</time>
      </trkpt>
      <trkpt lat="42.089" lon="45.02359">
        <ele>1132.344315</ele>
        <time>2021-08-12T05:32:07.454Z</time>
      </trkpt>
      <trkpt lat="42.08978" lon="45.02371">
        <ele>1130.532747</ele>
        <time>2021-08-12T05:32:41.417Z</time>
      </trkpt>
      <trkpt lat="42.08984" lon="45.02378">
        <ele>1130.414018</ele>
        <time>2021-08-12T05:32:44.286Z</time>
      </trkpt>
      <trkpt lat="42.0899" lon="45.02402">
        <ele>1130.109002</ele>
        <time>2021-08-12T05:32:53.250Z</time>
      </trkpt>
      <trkpt lat="42.08991" lon="45.02425">
        <ele>1129.825407</ele>
        <time>2021-08-12T05:33:00.625Z</time>
      </trkpt>
      <trkpt lat="42.08986" lon="45.02444">
        <ele>1129.58769</ele>
        <time>2021-08-12T05:33:07.778Z</time>
      </trkpt>
      <trkpt lat="42.08974" lon="45.02458">
        <ele>1129.32409</ele>
        <time>2021-08-12T05:33:15.056Z</time>
      </trkpt>
      <trkpt lat="42.08883" lon="45.02515">
        <ele>1128.345791</ele>
        <time>2021-08-12T05:34:02.203Z</time>
      </trkpt>
      <trkpt lat="42.08871" lon="45.02528">
        <ele>1128.354892</ele>
        <time>2021-08-12T05:34:09.742Z</time>
      </trkpt>
      <trkpt lat="42.0885" lon="45.0265">
        <ele>1128.408846</ele>
        <time>2021-08-12T05:34:58.789Z</time>
      </trkpt>
      <trkpt lat="42.08842" lon="45.0267">
        <ele>1128.418479</ele>
        <time>2021-08-12T05:35:08.369Z</time>
      </trkpt>
      <trkpt lat="42.08808" lon="45.02715">
        <ele>1128.925835</ele>
        <time>2021-08-12T05:35:37.156Z</time>
      </trkpt>
      <trkpt lat="42.08794" lon="45.02772">
        <ele>1129.627438</ele>
        <time>2021-08-12T05:36:05.219Z</time>
      </trkpt>
      <trkpt lat="42.08765" lon="45.02801">
        <ele>1130.194346</ele>
        <time>2021-08-12T05:36:27.988Z</time>
      </trkpt>
      <trkpt lat="42.08734" lon="45.02817">
        <ele>1130.725516</ele>
        <time>2021-08-12T05:36:49.080Z</time>
      </trkpt>
      <trkpt lat="42.08723" lon="45.02837">
        <ele>1131.009647</ele>
        <time>2021-08-12T05:37:00.229Z</time>
      </trkpt>
      <trkpt lat="42.08719" lon="45.02927">
        <ele>1130.49484</ele>
        <time>2021-08-12T05:37:38.832Z</time>
      </trkpt>
      <trkpt lat="42.08697" lon="45.02972">
        <ele>1129.892575</ele>
        <time>2021-08-12T05:37:58.781Z</time>
      </trkpt>
      <trkpt lat="42.08683" lon="45.02989">
        <ele>1129.602857</ele>
        <time>2021-08-12T05:38:07.432Z</time>
      </trkpt>
      <trkpt lat="42.08636" lon="45.0302">
        <ele>1128.828936</ele>
        <time>2021-08-12T05:38:28.994Z</time>
      </trkpt>
      <trkpt lat="42.08588" lon="45.03025">
        <ele>1126.423437</ele>
        <time>2021-08-12T05:38:47.530Z</time>
      </trkpt>
      <trkpt lat="42.08571" lon="45.03033">
        <ele>1125.178994</ele>
        <time>2021-08-12T05:38:54.118Z</time>
      </trkpt>
      <trkpt lat="42.08539" lon="45.03067">
        <ele>1122.313336</ele>
        <time>2021-08-12T05:39:08.942Z</time>
      </trkpt>
      <trkpt lat="42.08532" lon="45.03095">
        <ele>1120.756308</ele>
        <time>2021-08-12T05:39:16.888Z</time>
      </trkpt>
      <trkpt lat="42.08527" lon="45.03178">
        <ele>1116.431546</ele>
        <time>2021-08-12T05:39:38.688Z</time>
      </trkpt>
      <trkpt lat="42.08539" lon="45.03245">
        <ele>1112.822016</ele>
        <time>2021-08-12T05:39:56.790Z</time>
      </trkpt>
      <trkpt lat="42.08586" lon="45.03338">
        <ele>1106.980124</ele>
        <time>2021-08-12T05:40:26.775Z</time>
      </trkpt>
      <trkpt lat="42.08586" lon="45.03346">
        <ele>1106.529646</ele>
        <time>2021-08-12T05:40:29.151Z</time>
      </trkpt>
      <trkpt lat="42.08571" lon="45.03352">
        <ele>1105.477873</ele>
        <time>2021-08-12T05:40:34.681Z</time>
      </trkpt>
      <trkpt lat="42.08507" lon="45.03309">
        <ele>1101.414079</ele>
        <time>2021-08-12T05:41:02.258Z</time>
      </trkpt>
      <trkpt lat="42.08482" lon="45.03286">
        <ele>1100.051881</ele>
        <time>2021-08-12T05:41:14.020Z</time>
      </trkpt>
      <trkpt lat="42.0845" lon="45.03231">
        <ele>1097.656753</ele>
        <time>2021-08-12T05:41:34.942Z</time>
      </trkpt>
      <trkpt lat="42.08438" lon="45.03221">
        <ele>1097.024745</ele>
        <time>2021-08-12T05:41:40.529Z</time>
      </trkpt>
      <trkpt lat="42.0842" lon="45.0322">
        <ele>1096.19118</ele>
        <time>2021-08-12T05:41:47.680Z</time>
      </trkpt>
      <trkpt lat="42.084" lon="45.03239">
        <ele>1095.082527</ele>
        <time>2021-08-12T05:41:57.107Z</time>
      </trkpt>
      <trkpt lat="42.08358" lon="45.0331">
        <ele>1090.576868</ele>
        <time>2021-08-12T05:42:22.607Z</time>
      </trkpt>
      <trkpt lat="42.08359" lon="45.03319">
        <ele>1090.105037</ele>
        <time>2021-08-12T05:42:25.158Z</time>
      </trkpt>
      <trkpt lat="42.0837" lon="45.03323">
        <ele>1089.366722</ele>
        <time>2021-08-12T05:42:29.148Z</time>
      </trkpt>
      <trkpt lat="42.08398" lon="45.03299">
        <ele>1087.080828</ele>
        <time>2021-08-12T05:42:41.436Z</time>
      </trkpt>
      <trkpt lat="42.08415" lon="45.03295">
        <ele>1085.93781</ele>
        <time>2021-08-12T05:42:47.496Z</time>
      </trkpt>
      <trkpt lat="42.08437" lon="45.03305">
        <ele>1084.414343</ele>
        <time>2021-08-12T05:42:55.547Z</time>
      </trkpt>
      <trkpt lat="42.08443" lon="45.03316">
        <ele>1083.745601</ele>
        <time>2021-08-12T05:42:59.061Z</time>
      </trkpt>
      <trkpt lat="42.0846" lon="45.03403">
        <ele>1079.102299</ele>
        <time>2021-08-12T05:43:22.822Z</time>
      </trkpt>
      <trkpt lat="42.08468" lon="45.03465">
        <ele>1075.831812</ele>
        <time>2021-08-12T05:43:39.656Z</time>
      </trkpt>
      <trkpt lat="42.08483" lon="45.03505">
        <ele>1073.502938</ele>
        <time>2021-08-12T05:43:51.872Z</time>
      </trkpt>
      <trkpt lat="42.08494" lon="45.0352">
        <ele>1072.38355</ele>
        <time>2021-08-12T05:43:57.855Z</time>
      </trkpt>
      <trkpt lat="42.08518" lon="45.0353">
        <ele>1070.666029</ele>
        <time>2021-08-12T05:44:07.148Z</time>
      </trkpt>
      <trkpt lat="42.08522" lon="45.03537">
        <ele>1070.218402</ele>
        <time>2021-08-12T05:44:09.683Z</time>
      </trkpt>
      <trkpt lat="42.08518" lon="45.03547">
        <ele>1069.725022</ele>
        <time>2021-08-12T05:44:12.791Z</time>
      </trkpt>
      <trkpt lat="42.08504" lon="45.03548">
        <ele>1068.863207</ele>
        <time>2021-08-12T05:44:18.260Z</time>
      </trkpt>
      <trkpt lat="42.08439" lon="45.03513">
        <ele>1064.611692</ele>
        <time>2021-08-12T05:44:45.356Z</time>
      </trkpt>
      <trkpt lat="42.08429" lon="45.03514">
        <ele>1064.047726</ele>
        <time>2021-08-12T05:44:48.919Z</time>
      </trkpt>
      <trkpt lat="42.08417" lon="45.03527">
        <ele>1063.067802</ele>
        <time>2021-08-12T05:44:54.996Z</time>
      </trkpt>
      <trkpt lat="42.08415" lon="45.03548">
        <ele>1062.097723</ele>
        <time>2021-08-12T05:45:01.053Z</time>
      </trkpt>
      <trkpt lat="42.0844" lon="45.03599">
        <ele>1059.33977</ele>
        <time>2021-08-12T05:45:17.483Z</time>
      </trkpt>
      <trkpt lat="42.08446" lon="45.03623">
        <ele>1057.346494</ele>
        <time>2021-08-12T05:45:24.264Z</time>
      </trkpt>
      <trkpt lat="42.08446" lon="45.03728">
        <ele>1049.080597</ele>
        <time>2021-08-12T05:45:50.477Z</time>
      </trkpt>
      <trkpt lat="42.08438" lon="45.03824">
        <ele>1041.485838</ele>
        <time>2021-08-12T05:46:14.573Z</time>
      </trkpt>
      <trkpt lat="42.0843" lon="45.0387">
        <ele>1038.698165</ele>
        <time>2021-08-12T05:46:26.472Z</time>
      </trkpt>
      <trkpt lat="42.08424" lon="45.03879">
        <ele>1038.100004</ele>
        <time>2021-08-12T05:46:29.426Z</time>
      </trkpt>
      <trkpt lat="42.08416" lon="45.03884">
        <ele>1037.498142</ele>
        <time>2021-08-12T05:46:32.486Z</time>
      </trkpt>
      <trkpt lat="42.08366" lon="45.0388">
        <ele>1034.022484</ele>
        <time>2021-08-12T05:46:50.302Z</time>
      </trkpt>
      <trkpt lat="42.0833" lon="45.0386">
        <ele>1031.361706</ele>
        <time>2021-08-12T05:47:04.501Z</time>
      </trkpt>
      <trkpt lat="42.08298" lon="45.03854">
        <ele>1029.119362</ele>
        <time>2021-08-12T05:47:16.963Z</time>
      </trkpt>
      <trkpt lat="42.08245" lon="45.0386">
        <ele>1029.302953</ele>
        <time>2021-08-12T05:47:43.776Z</time>
      </trkpt>
      <trkpt lat="42.08243" lon="45.03872">
        <ele>1029.610145</ele>
        <time>2021-08-12T05:47:48.988Z</time>
      </trkpt>
      <trkpt lat="42.08255" lon="45.03882">
        <ele>1030.093009</ele>
        <time>2021-08-12T05:47:58.445Z</time>
      </trkpt>
      <trkpt lat="42.08294" lon="45.03879">
        <ele>1031.432718</ele>
        <time>2021-08-12T05:48:26.438Z</time>
      </trkpt>
      <trkpt lat="42.08313" lon="45.03891">
        <ele>1032.141697</ele>
        <time>2021-08-12T05:48:42.638Z</time>
      </trkpt>
      <trkpt lat="42.08324" lon="45.03911">
        <ele>1032.755615</ele>
        <time>2021-08-12T05:48:58.156Z</time>
      </trkpt>
      <trkpt lat="42.08332" lon="45.03939">
        <ele>1033.523409</ele>
        <time>2021-08-12T05:49:17.732Z</time>
      </trkpt>
      <trkpt lat="42.08333" lon="45.03945">
        <ele>1033.684896</ele>
        <time>2021-08-12T05:49:22.468Z</time>
      </trkpt>
      <trkpt lat="42.0835" lon="45.03968">
        <ele>1035.033556</ele>
        <time>2021-08-12T05:49:44.250Z</time>
      </trkpt>
      <trkpt lat="42.08426" lon="45.04015">
        <ele>1042.699224</ele>
        <time>2021-08-12T05:51:11.253Z</time>
      </trkpt>
      <trkpt lat="42.08437" lon="45.04026">
        <ele>1043.946085</ele>
        <time>2021-08-12T05:51:28.327Z</time>
      </trkpt>
      <trkpt lat="42.08454" lon="45.04098">
        <ele>1049.030097</ele>
        <time>2021-08-12T05:52:28.723Z</time>
      </trkpt>
      <trkpt lat="42.085" lon="45.04146">
        <ele>1053.111782</ele>
        <time>2021-08-12T05:53:27.863Z</time>
      </trkpt>
      <trkpt lat="42.08499" lon="45.04155">
        <ele>1053.562295</ele>
        <time>2021-08-12T05:53:33.805Z</time>
      </trkpt>
      <trkpt lat="42.08493" lon="45.0416">
        <ele>1053.9673</ele>
        <time>2021-08-12T05:53:39.300Z</time>
      </trkpt>
      <trkpt lat="42.08484" lon="45.04159">
        <ele>1054.536789</ele>
        <time>2021-08-12T05:53:50.548Z</time>
      </trkpt>
      <trkpt lat="42.08403" lon="45.041">
        <ele>1060.152755</ele>
        <time>2021-08-12T05:55:01.936Z</time>
      </trkpt>
      <trkpt lat="42.08393" lon="45.04092">
        <ele>1060.861128</ele>
        <time>2021-08-12T05:55:11.979Z</time>
      </trkpt>
      <trkpt lat="42.0837" lon="45.04088">
        <ele>1062.144231</ele>
        <time>2021-08-12T05:55:28.387Z</time>
      </trkpt>
      <trkpt lat="42.08342" lon="45.04103">
        <ele>1063.62324</ele>
        <time>2021-08-12T05:55:51.560Z</time>
      </trkpt>
      <trkpt lat="42.08299" lon="45.0411">
        <ele>1065.751127</ele>
        <time>2021-08-12T05:56:20.574Z</time>
      </trkpt>
      <trkpt lat="42.08291" lon="45.04117">
        <ele>1066.185225</ele>
        <time>2021-08-12T05:56:27.296Z</time>
      </trkpt>
      <trkpt lat="42.08282" lon="45.0414">
        <ele>1067.140785</ele>
        <time>2021-08-12T05:56:42.533Z</time>
      </trkpt>
      <trkpt lat="42.08285" lon="45.04157">
        <ele>1067.747082</ele>
        <time>2021-08-12T05:56:52.578Z</time>
      </trkpt>
      <trkpt lat="42.08302" lon="45.04185">
        <ele>1069.080124</ele>
        <time>2021-08-12T05:57:16.174Z</time>
      </trkpt>
      <trkpt lat="42.08312" lon="45.04217">
        <ele>1070.319155</ele>
        <time>2021-08-12T05:57:39.243Z</time>
      </trkpt>
      <trkpt lat="42.08311" lon="45.04283">
        <ele>1074.180638</ele>
        <time>2021-08-12T05:58:25.511Z</time>
      </trkpt>
      <trkpt lat="42.08307" lon="45.043">
        <ele>1075.219301</ele>
        <time>2021-08-12T05:58:38.199Z</time>
      </trkpt>
      <trkpt lat="42.08299" lon="45.04307">
        <ele>1075.978131</ele>
        <time>2021-08-12T05:58:47.500Z</time>
      </trkpt>
      <trkpt lat="42.08262" lon="45.04308">
        <ele>1078.869553</ele>
        <time>2021-08-12T05:59:22.992Z</time>
      </trkpt>
      <trkpt lat="42.08202" lon="45.04325">
        <ele>1083.775533</ele>
        <time>2021-08-12T06:00:24.273Z</time>
      </trkpt>
      <trkpt lat="42.08155" lon="45.04367">
        <ele>1088.531353</ele>
        <time>2021-08-12T06:01:20.814Z</time>
      </trkpt>
      <trkpt lat="42.0813" lon="45.04402">
        <ele>1091.575085</ele>
        <time>2021-08-12T06:01:56.376Z</time>
      </trkpt>
      <trkpt lat="42.08139" lon="45.04415">
        <ele>1092.680838</ele>
        <time>2021-08-12T06:02:09.284Z</time>
      </trkpt>
      <trkpt lat="42.08158" lon="45.04401">
        <ele>1094.527984</ele>
        <time>2021-08-12T06:02:30.747Z</time>
      </trkpt>
      <trkpt lat="42.0817" lon="45.04397">
        <ele>1095.583585</ele>
        <time>2021-08-12T06:02:43.067Z</time>
      </trkpt>
      <trkpt lat="42.08185" lon="45.04401">
        <ele>1096.911767</ele>
        <time>2021-08-12T06:02:58.597Z</time>
      </trkpt>
      <trkpt lat="42.0821" lon="45.0442">
        <ele>1099.366258</ele>
        <time>2021-08-12T06:03:27.344Z</time>
      </trkpt>
      <trkpt lat="42.08237" lon="45.04427">
        <ele>1101.802817</ele>
        <time>2021-08-12T06:03:54.867Z</time>
      </trkpt>
      <trkpt lat="42.08262" lon="45.04458">
        <ele>1104.792923</ele>
        <time>2021-08-12T06:04:29.242Z</time>
      </trkpt>
      <trkpt lat="42.08281" lon="45.04525">
        <ele>1109.615245</ele>
        <time>2021-08-12T06:05:25.900Z</time>
      </trkpt>
      <trkpt lat="42.08298" lon="45.04557">
        <ele>1112.200012</ele>
        <time>2021-08-12T06:05:55.963Z</time>
      </trkpt>
      <trkpt lat="42.08301" lon="45.04574">
        <ele>1113.322835</ele>
        <time>2021-08-12T06:06:08.878Z</time>
      </trkpt>
      <trkpt lat="42.083" lon="45.04595">
        <ele>1114.711159</ele>
        <time>2021-08-12T06:06:24.568Z</time>
      </trkpt>
      <trkpt lat="42.08279" lon="45.0466">
        <ele>1118.605553</ele>
        <time>2021-08-12T06:07:17.158Z</time>
      </trkpt>
      <trkpt lat="42.08287" lon="45.047">
        <ele>1120.711488</ele>
        <time>2021-08-12T06:07:46.498Z</time>
      </trkpt>
      <trkpt lat="42.08301" lon="45.04743">
        <ele>1123.113381</ele>
        <time>2021-08-12T06:08:18.487Z</time>
      </trkpt>
      <trkpt lat="42.08302" lon="45.04773">
        <ele>1124.595727</ele>
        <time>2021-08-12T06:08:37.242Z</time>
      </trkpt>
      <trkpt lat="42.08297" lon="45.0479">
        <ele>1125.543414</ele>
        <time>2021-08-12T06:08:49.544Z</time>
      </trkpt>
      <trkpt lat="42.0829" lon="45.04798">
        <ele>1126.128624</ele>
        <time>2021-08-12T06:08:56.841Z</time>
      </trkpt>
      <trkpt lat="42.08277" lon="45.04798">
        <ele>1127.039222</ele>
        <time>2021-08-12T06:09:07.822Z</time>
      </trkpt>
      <trkpt lat="42.08262" lon="45.04789">
        <ele>1128.131775</ele>
        <time>2021-08-12T06:09:21.210Z</time>
      </trkpt>
      <trkpt lat="42.08244" lon="45.04745">
        <ele>1129.889055</ele>
        <time>2021-08-12T06:09:49.690Z</time>
      </trkpt>
      <trkpt lat="42.08235" lon="45.04706">
        <ele>1131.313402</ele>
        <time>2021-08-12T06:10:11.986Z</time>
      </trkpt>
      <trkpt lat="42.08228" lon="45.04635">
        <ele>1133.781439</ele>
        <time>2021-08-12T06:10:51.362Z</time>
      </trkpt>
      <trkpt lat="42.08219" lon="45.0462">
        <ele>1134.416914</ele>
        <time>2021-08-12T06:11:01.750Z</time>
      </trkpt>
      <trkpt lat="42.08209" lon="45.04613">
        <ele>1134.955483</ele>
        <time>2021-08-12T06:11:10.749Z</time>
      </trkpt>
      <trkpt lat="42.08171" lon="45.04603">
        <ele>1136.863875</ele>
        <time>2021-08-12T06:11:42.013Z</time>
      </trkpt>
      <trkpt lat="42.08155" lon="45.04602">
        <ele>1137.983019</ele>
        <time>2021-08-12T06:11:54.977Z</time>
      </trkpt>
      <trkpt lat="42.08139" lon="45.04609">
        <ele>1139.221039</ele>
        <time>2021-08-12T06:12:09.670Z</time>
      </trkpt>
      <trkpt lat="42.08049" lon="45.04695">
        <ele>1147.12857</ele>
        <time>2021-08-12T06:13:52.492Z</time>
      </trkpt>
      <trkpt lat="42.07997" lon="45.04764">
        <ele>1151.973239</ele>
        <time>2021-08-12T06:15:06.726Z</time>
      </trkpt>
      <trkpt lat="42.07987" lon="45.04785">
        <ele>1153.152439</ele>
        <time>2021-08-12T06:15:25.402Z</time>
      </trkpt>
      <trkpt lat="42.07956" lon="45.04806">
        <ele>1155.291686</ele>
        <time>2021-08-12T06:15:57.518Z</time>
      </trkpt>
      <trkpt lat="42.07941" lon="45.04787">
        <ele>1156.568318</ele>
        <time>2021-08-12T06:16:15.346Z</time>
      </trkpt>
      <trkpt lat="42.07925" lon="45.0474">
        <ele>1158.903917</ele>
        <time>2021-08-12T06:16:45.352Z</time>
      </trkpt>
      <trkpt lat="42.07917" lon="45.04728">
        <ele>1159.652722</ele>
        <time>2021-08-12T06:16:54.295Z</time>
      </trkpt>
      <trkpt lat="42.07898" lon="45.04721">
        <ele>1160.639004</ele>
        <time>2021-08-12T06:17:07.988Z</time>
      </trkpt>
      <trkpt lat="42.07851" lon="45.04732">
        <ele>1160.623469</ele>
        <time>2021-08-12T06:17:38.457Z</time>
      </trkpt>
      <trkpt lat="42.07824" lon="45.04726">
        <ele>1160.614573</ele>
        <time>2021-08-12T06:17:53.340Z</time>
      </trkpt>
      <trkpt lat="42.07795" lon="45.04706">
        <ele>1160.603876</ele>
        <time>2021-08-12T06:18:09.308Z</time>
      </trkpt>
      <trkpt lat="42.0779" lon="45.04682">
        <ele>1160.597919</ele>
        <time>2021-08-12T06:18:17.706Z</time>
      </trkpt>
      <trkpt lat="42.07797" lon="45.04639">
        <ele>1160.587388</ele>
        <time>2021-08-12T06:18:31.833Z</time>
      </trkpt>
      <trkpt lat="42.07795" lon="45.04606">
        <ele>1160.467951</ele>
        <time>2021-08-12T06:18:42.058Z</time>
      </trkpt>
      <trkpt lat="42.07786" lon="45.04594">
        <ele>1160.272141</ele>
        <time>2021-08-12T06:18:47.183Z</time>
      </trkpt>
      <trkpt lat="42.07767" lon="45.04598">
        <ele>1159.962118</ele>
        <time>2021-08-12T06:18:55.147Z</time>
      </trkpt>
      <trkpt lat="42.07683" lon="45.04746">
        <ele>1157.736935</ele>
        <time>2021-08-12T06:19:57.283Z</time>
      </trkpt>
      <trkpt lat="42.07645" lon="45.0485">
        <ele>1159.597422</ele>
        <time>2021-08-12T06:20:46.995Z</time>
      </trkpt>
      <trkpt lat="42.07615" lon="45.04905">
        <ele>1160.74724</ele>
        <time>2021-08-12T06:21:21.363Z</time>
      </trkpt>
      <trkpt lat="42.07607" lon="45.04929">
        <ele>1161.189543</ele>
        <time>2021-08-12T06:21:35.780Z</time>
      </trkpt>
      <trkpt lat="42.07609" lon="45.04952">
        <ele>1161.580462</ele>
        <time>2021-08-12T06:21:49.166Z</time>
      </trkpt>
      <trkpt lat="42.07616" lon="45.04968">
        <ele>1162.05182</ele>
        <time>2021-08-12T06:22:00.507Z</time>
      </trkpt>
      <trkpt lat="42.07663" lon="45.05051">
        <ele>1166.279499</ele>
        <time>2021-08-12T06:23:05.484Z</time>
      </trkpt>
      <trkpt lat="42.07663" lon="45.05078">
        <ele>1167.399244</ele>
        <time>2021-08-12T06:23:23.128Z</time>
      </trkpt>
      <trkpt lat="42.07653" lon="45.05099">
        <ele>1168.421132</ele>
        <time>2021-08-12T06:23:39.117Z</time>
      </trkpt>
      <trkpt lat="42.07615" lon="45.05138">
        <ele>1171.031845</ele>
        <time>2021-08-12T06:24:19.097Z</time>
      </trkpt>
      <trkpt lat="42.0757" lon="45.05156">
        <ele>1173.044073</ele>
        <time>2021-08-12T06:24:56.429Z</time>
      </trkpt>
      <trkpt lat="42.07547" lon="45.05175">
        <ele>1174.114674</ele>
        <time>2021-08-12T06:25:17.696Z</time>
      </trkpt>
      <trkpt lat="42.07526" lon="45.05206">
        <ele>1175.365313</ele>
        <time>2021-08-12T06:25:41.975Z</time>
      </trkpt>
      <trkpt lat="42.07503" lon="45.05274">
        <ele>1177.542149</ele>
        <time>2021-08-12T06:26:21.975Z</time>
      </trkpt>
      <trkpt lat="42.07481" lon="45.05298">
        <ele>1178.669515</ele>
        <time>2021-08-12T06:26:41.363Z</time>
      </trkpt>
      <trkpt lat="42.07409" lon="45.05344">
        <ele>1179.478964</ele>
        <time>2021-08-12T06:27:29.233Z</time>
      </trkpt>
      <trkpt lat="42.07336" lon="45.0537">
        <ele>1180.161876</ele>
        <time>2021-08-12T06:28:10.106Z</time>
      </trkpt>
      <trkpt lat="42.07309" lon="45.05391">
        <ele>1180.364435</ele>
        <time>2021-08-12T06:28:26.063Z</time>
      </trkpt>
      <trkpt lat="42.07261" lon="45.0545">
        <ele>1179.438802</ele>
        <time>2021-08-12T06:28:58.174Z</time>
      </trkpt>
      <trkpt lat="42.0716" lon="45.05592">
        <ele>1176.566148</ele>
        <time>2021-08-12T06:30:02.346Z</time>
      </trkpt>
      <trkpt lat="42.071" lon="45.05631">
        <ele>1174.039825</ele>
        <time>2021-08-12T06:30:29.813Z</time>
      </trkpt>
      <trkpt lat="42.0709" lon="45.05651">
        <ele>1173.379766</ele>
        <time>2021-08-12T06:30:36.716Z</time>
      </trkpt>
      <trkpt lat="42.07059" lon="45.05753">
        <ele>1169.987071</ele>
        <time>2021-08-12T06:31:08.131Z</time>
      </trkpt>
      <trkpt lat="42.07002" lon="45.05853">
        <ele>1165.032339</ele>
        <time>2021-08-12T06:31:43.812Z</time>
      </trkpt>
      <trkpt lat="42.06967" lon="45.0588">
        <ele>1162.89045</ele>
        <time>2021-08-12T06:31:59.298Z</time>
      </trkpt>
      <trkpt lat="42.06933" lon="45.05949">
        <ele>1159.047778</ele>
        <time>2021-08-12T06:32:22.631Z</time>
      </trkpt>
      <trkpt lat="42.06914" lon="45.05968">
        <ele>1157.411444</ele>
        <time>2021-08-12T06:32:31.582Z</time>
      </trkpt>
      <trkpt lat="42.06875" lon="45.05991">
        <ele>1154.507752</ele>
        <time>2021-08-12T06:32:47.286Z</time>
      </trkpt>
      <trkpt lat="42.06836" lon="45.06038">
        <ele>1150.892354</ele>
        <time>2021-08-12T06:33:06.289Z</time>
      </trkpt>
      <trkpt lat="42.06821" lon="45.06071">
        <ele>1148.736226</ele>
        <time>2021-08-12T06:33:16.266Z</time>
      </trkpt>
      <trkpt lat="42.06822" lon="45.06124">
        <ele>1143.816604</ele>
        <time>2021-08-12T06:33:29.905Z</time>
      </trkpt>
      <trkpt lat="42.0675" lon="45.06298">
        <ele>1125.019777</ele>
        <time>2021-08-12T06:34:18.875Z</time>
      </trkpt>
      <trkpt lat="42.06711" lon="45.06423">
        <ele>1110.185305</ele>
        <time>2021-08-12T06:34:50.793Z</time>
      </trkpt>
      <trkpt lat="42.06678" lon="45.06489">
        <ele>1101.371617</ele>
        <time>2021-08-12T06:35:10.357Z</time>
      </trkpt>
      <trkpt lat="42.06671" lon="45.06494">
        <ele>1100.24362</ele>
        <time>2021-08-12T06:35:13.039Z</time>
      </trkpt>
      <trkpt lat="42.06662" lon="45.06495">
        <ele>1099.658828</ele>
        <time>2021-08-12T06:35:15.881Z</time>
      </trkpt>
      <trkpt lat="42.06652" lon="45.06488">
        <ele>1099.040513</ele>
        <time>2021-08-12T06:35:20.034Z</time>
      </trkpt>
      <trkpt lat="42.06635" lon="45.06457">
        <ele>1097.512041</ele>
        <time>2021-08-12T06:35:29.759Z</time>
      </trkpt>
      <trkpt lat="42.06582" lon="45.06217">
        <ele>1089.689418</ele>
        <time>2021-08-12T06:36:49.197Z</time>
      </trkpt>
      <trkpt lat="42.06556" lon="45.06138">
        <ele>1088.756983</ele>
        <time>2021-08-12T06:37:23.371Z</time>
      </trkpt>
      <trkpt lat="42.0655" lon="45.06085">
        <ele>1088.180637</ele>
        <time>2021-08-12T06:37:42.040Z</time>
      </trkpt>
      <trkpt lat="42.06536" lon="45.06059">
        <ele>1087.789459</ele>
        <time>2021-08-12T06:37:52.509Z</time>
      </trkpt>
      <trkpt lat="42.06472" lon="45.06031">
        <ele>1084.814651</ele>
        <time>2021-08-12T06:38:20.543Z</time>
      </trkpt>
      <trkpt lat="42.06448" lon="45.06026">
        <ele>1083.764251</ele>
        <time>2021-08-12T06:38:29.871Z</time>
      </trkpt>
      <trkpt lat="42.06433" lon="45.06034">
        <ele>1083.071617</ele>
        <time>2021-08-12T06:38:35.917Z</time>
      </trkpt>
      <trkpt lat="42.06396" lon="45.06105">
        <ele>1080.228797</ele>
        <time>2021-08-12T06:39:00.040Z</time>
      </trkpt>
      <trkpt lat="42.06375" lon="45.06124">
        <ele>1078.901962</ele>
        <time>2021-08-12T06:39:09.156Z</time>
      </trkpt>
      <trkpt lat="42.06349" lon="45.06123">
        <ele>1077.404151</ele>
        <time>2021-08-12T06:39:18.903Z</time>
      </trkpt>
      <trkpt lat="42.06332" lon="45.06102">
        <ele>1076.096403</ele>
        <time>2021-08-12T06:39:27.520Z</time>
      </trkpt>
      <trkpt lat="42.0632" lon="45.06074">
        <ele>1074.701613</ele>
        <time>2021-08-12T06:39:36.704Z</time>
      </trkpt>
      <trkpt lat="42.06308" lon="45.06013">
        <ele>1072.00554</ele>
        <time>2021-08-12T06:39:54.517Z</time>
      </trkpt>
      <trkpt lat="42.06291" lon="45.0599">
        <ele>1070.617014</ele>
        <time>2021-08-12T06:40:03.625Z</time>
      </trkpt>
      <trkpt lat="42.06277" lon="45.05982">
        <ele>1069.782985</ele>
        <time>2021-08-12T06:40:09.076Z</time>
      </trkpt>
      <trkpt lat="42.06241" lon="45.05979">
        <ele>1067.878464</ele>
        <time>2021-08-12T06:40:22.831Z</time>
      </trkpt>
      <trkpt lat="42.06218" lon="45.0599">
        <ele>1066.655126</ele>
        <time>2021-08-12T06:40:31.893Z</time>
      </trkpt>
      <trkpt lat="42.06216" lon="45.06007">
        <ele>1066.004452</ele>
        <time>2021-08-12T06:40:36.762Z</time>
      </trkpt>
      <trkpt lat="42.06223" lon="45.06022">
        <ele>1065.350299</ele>
        <time>2021-08-12T06:40:41.701Z</time>
      </trkpt>
      <trkpt lat="42.06267" lon="45.06048">
        <ele>1062.888074</ele>
        <time>2021-08-12T06:41:00.362Z</time>
      </trkpt>
      <trkpt lat="42.06275" lon="45.06064">
        <ele>1062.149661</ele>
        <time>2021-08-12T06:41:05.948Z</time>
      </trkpt>
      <trkpt lat="42.06283" lon="45.06103">
        <ele>1060.574628</ele>
        <time>2021-08-12T06:41:17.762Z</time>
      </trkpt>
      <trkpt lat="42.06309" lon="45.06185">
        <ele>1056.997751</ele>
        <time>2021-08-12T06:41:43.006Z</time>
      </trkpt>
      <trkpt lat="42.0632" lon="45.06205">
        <ele>1055.991233</ele>
        <time>2021-08-12T06:41:50.133Z</time>
      </trkpt>
      <trkpt lat="42.06326" lon="45.06244">
        <ele>1054.37949</ele>
        <time>2021-08-12T06:42:01.632Z</time>
      </trkpt>
      <trkpt lat="42.06331" lon="45.06254">
        <ele>1053.892407</ele>
        <time>2021-08-12T06:42:04.899Z</time>
      </trkpt>
      <trkpt lat="42.06351" lon="45.06265">
        <ele>1052.717827</ele>
        <time>2021-08-12T06:42:12.945Z</time>
      </trkpt>
      <trkpt lat="42.06371" lon="45.06257">
        <ele>1051.570621</ele>
        <time>2021-08-12T06:42:20.787Z</time>
      </trkpt>
      <trkpt lat="42.06389" lon="45.06243">
        <ele>1050.403133</ele>
        <time>2021-08-12T06:42:28.637Z</time>
      </trkpt>
      <trkpt lat="42.06417" lon="45.06239">
        <ele>1048.614994</ele>
        <time>2021-08-12T06:42:38.987Z</time>
      </trkpt>
      <trkpt lat="42.06423" lon="45.06247">
        <ele>1048.094119</ele>
        <time>2021-08-12T06:42:41.985Z</time>
      </trkpt>
      <trkpt lat="42.06429" lon="45.06271">
        <ele>1046.88622</ele>
        <time>2021-08-12T06:42:48.841Z</time>
      </trkpt>
      <trkpt lat="42.06428" lon="45.06292">
        <ele>1045.884247</ele>
        <time>2021-08-12T06:42:54.733Z</time>
      </trkpt>
      <trkpt lat="42.06427" lon="45.0631">
        <ele>1045.021997</ele>
        <time>2021-08-12T06:42:59.527Z</time>
      </trkpt>
      <trkpt lat="42.06438" lon="45.06339">
        <ele>1043.427902</ele>
        <time>2021-08-12T06:43:08.812Z</time>
      </trkpt>
      <trkpt lat="42.06454" lon="45.06365">
        <ele>1041.879857</ele>
        <time>2021-08-12T06:43:17.641Z</time>
      </trkpt>
      <trkpt lat="42.0647" lon="45.06415">
        <ele>1039.249279</ele>
        <time>2021-08-12T06:43:32.836Z</time>
      </trkpt>
      <trkpt lat="42.06476" lon="45.06423">
        <ele>1038.762489</ele>
        <time>2021-08-12T06:43:35.879Z</time>
      </trkpt>
      <trkpt lat="42.06477" lon="45.06424">
        <ele>1038.671876</ele>
        <time>2021-08-12T06:43:36.402Z</time>
      </trkpt>
      <trkpt lat="42.06507" lon="45.06438">
        <ele>1036.882705</ele>
        <time>2021-08-12T06:43:48.296Z</time>
      </trkpt>
      <trkpt lat="42.0651" lon="45.06444">
        <ele>1036.58067</ele>
        <time>2021-08-12T06:43:50.158Z</time>
      </trkpt>
      <trkpt lat="42.06508" lon="45.06456">
        <ele>1036.089015</ele>
        <time>2021-08-12T06:43:53.333Z</time>
      </trkpt>
      <trkpt lat="42.06502" lon="45.06457">
        <ele>1035.739145</ele>
        <time>2021-08-12T06:43:55.473Z</time>
      </trkpt>
      <trkpt lat="42.06478" lon="45.06442">
        <ele>1034.244502</ele>
        <time>2021-08-12T06:44:05.565Z</time>
      </trkpt>
      <trkpt lat="42.0643" lon="45.06425">
        <ele>1031.502477</ele>
        <time>2021-08-12T06:44:24.070Z</time>
      </trkpt>
      <trkpt lat="42.06377" lon="45.06428">
        <ele>1028.609052</ele>
        <time>2021-08-12T06:44:45.335Z</time>
      </trkpt>
      <trkpt lat="42.0637" lon="45.06424">
        <ele>1028.328232</ele>
        <time>2021-08-12T06:44:48.143Z</time>
      </trkpt>
      <trkpt lat="42.06363" lon="45.06416">
        <ele>1027.966932</ele>
        <time>2021-08-12T06:44:51.383Z</time>
      </trkpt>
      <trkpt lat="42.06356" lon="45.06389">
        <ele>1027.12201</ele>
        <time>2021-08-12T06:45:00.204Z</time>
      </trkpt>
      <trkpt lat="42.06345" lon="45.06372">
        <ele>1026.424754</ele>
        <time>2021-08-12T06:45:06.862Z</time>
      </trkpt>
      <trkpt lat="42.06313" lon="45.06373">
        <ele>1025.152886</ele>
        <time>2021-08-12T06:45:19.574Z</time>
      </trkpt>
      <trkpt lat="42.0629" lon="45.06353">
        <ele>1024.061459</ele>
        <time>2021-08-12T06:45:31.001Z</time>
      </trkpt>
      <trkpt lat="42.06249" lon="45.06346">
        <ele>1022.408126</ele>
        <time>2021-08-12T06:45:47.379Z</time>
      </trkpt>
      <trkpt lat="42.0623" lon="45.06353">
        <ele>1021.644369</ele>
        <time>2021-08-12T06:45:55.136Z</time>
      </trkpt>
      <trkpt lat="42.06179" lon="45.06389">
        <ele>1019.49659</ele>
        <time>2021-08-12T06:46:18.628Z</time>
      </trkpt>
      <trkpt lat="42.06152" lon="45.06398">
        <ele>1018.427765</ele>
        <time>2021-08-12T06:46:30.225Z</time>
      </trkpt>
      <trkpt lat="42.06132" lon="45.06396">
        <ele>1017.69535</ele>
        <time>2021-08-12T06:46:38.154Z</time>
      </trkpt>
      <trkpt lat="42.06104" lon="45.0637">
        <ele>1016.43531</ele>
        <time>2021-08-12T06:46:51.765Z</time>
      </trkpt>
      <trkpt lat="42.06065" lon="45.06392">
        <ele>1014.836067</ele>
        <time>2021-08-12T06:47:08.631Z</time>
      </trkpt>
      <trkpt lat="42.06028" lon="45.06377">
        <ele>1013.266723</ele>
        <time>2021-08-12T06:47:23.953Z</time>
      </trkpt>
      <trkpt lat="42.06015" lon="45.06388">
        <ele>1012.645416</ele>
        <time>2021-08-12T06:47:30.000Z</time>
      </trkpt>
      <trkpt lat="42.05997" lon="45.06442">
        <ele>1010.858085</ele>
        <time>2021-08-12T06:47:47.345Z</time>
      </trkpt>
      <trkpt lat="42.05984" lon="45.06449">
        <ele>1010.312909</ele>
        <time>2021-08-12T06:47:52.679Z</time>
      </trkpt>
      <trkpt lat="42.05962" lon="45.06436">
        <ele>1009.316993</ele>
        <time>2021-08-12T06:48:02.490Z</time>
      </trkpt>
      <trkpt lat="42.05947" lon="45.06437">
        <ele>1008.717561</ele>
        <time>2021-08-12T06:48:08.446Z</time>
      </trkpt>
      <trkpt lat="42.05908" lon="45.06515">
        <ele>1006.364597</ele>
        <time>2021-08-12T06:48:36.680Z</time>
      </trkpt>
      <trkpt lat="42.05893" lon="45.06533">
        <ele>1005.754683</ele>
        <time>2021-08-12T06:48:44.929Z</time>
      </trkpt>
      <trkpt lat="42.05875" lon="45.06544">
        <ele>1005.130148</ele>
        <time>2021-08-12T06:48:53.437Z</time>
      </trkpt>
      <trkpt lat="42.05818" lon="45.06548">
        <ele>1003.404163</ele>
        <time>2021-08-12T06:49:17.496Z</time>
      </trkpt>
      <trkpt lat="42.05761" lon="45.0656">
        <ele>1001.551472</ele>
        <time>2021-08-12T06:49:41.972Z</time>
      </trkpt>
      <trkpt lat="42.0568" lon="45.06595">
        <ele>998.600885</ele>
        <time>2021-08-12T06:50:17.753Z</time>
      </trkpt>
      <trkpt lat="42.05677" lon="45.06617">
        <ele>998.026635</ele>
        <time>2021-08-12T06:50:24.571Z</time>
      </trkpt>
      <trkpt lat="42.05677" lon="45.06622">
        <ele>997.897316</ele>
        <time>2021-08-12T06:50:25.942Z</time>
      </trkpt>
      <trkpt lat="42.05679" lon="45.06675">
        <ele>996.518648</ele>
        <time>2021-08-12T06:50:41.775Z</time>
      </trkpt>
      <trkpt lat="42.05659" lon="45.06747">
        <ele>993.416381</ele>
        <time>2021-08-12T06:51:03.842Z</time>
      </trkpt>
      <trkpt lat="42.05641" lon="45.06834">
        <ele>989.337647</ele>
        <time>2021-08-12T06:51:28.620Z</time>
      </trkpt>
      <trkpt lat="42.0563" lon="45.0685">
        <ele>988.371226</ele>
        <time>2021-08-12T06:51:34.481Z</time>
      </trkpt>
      <trkpt lat="42.0561" lon="45.0686">
        <ele>987.080947</ele>
        <time>2021-08-12T06:51:42.297Z</time>
      </trkpt>
      <trkpt lat="42.05545" lon="45.06877">
        <ele>982.719985</ele>
        <time>2021-08-12T06:52:06.390Z</time>
      </trkpt>
      <trkpt lat="42.05537" lon="45.06908">
        <ele>980.960561</ele>
        <time>2021-08-12T06:52:15.358Z</time>
      </trkpt>
      <trkpt lat="42.05538" lon="45.06924">
        <ele>980.1335</ele>
        <time>2021-08-12T06:52:19.569Z</time>
      </trkpt>
      <trkpt lat="42.05532" lon="45.06963">
        <ele>978.008795</ele>
        <time>2021-08-12T06:52:30.363Z</time>
      </trkpt>
      <trkpt lat="42.05501" lon="45.07044">
        <ele>973.212264</ele>
        <time>2021-08-12T06:52:54.844Z</time>
      </trkpt>
      <trkpt lat="42.05486" lon="45.07068">
        <ele>971.619381</ele>
        <time>2021-08-12T06:53:03.352Z</time>
      </trkpt>
      <trkpt lat="42.0545" lon="45.07065">
        <ele>969.290957</ele>
        <time>2021-08-12T06:53:16.430Z</time>
      </trkpt>
      <trkpt lat="42.05443" lon="45.07078">
        <ele>968.485988</ele>
        <time>2021-08-12T06:53:20.960Z</time>
      </trkpt>
      <trkpt lat="42.0542" lon="45.07153">
        <ele>964.537046</ele>
        <time>2021-08-12T06:53:43.193Z</time>
      </trkpt>
      <trkpt lat="42.05406" lon="45.07165">
        <ele>963.449715</ele>
        <time>2021-08-12T06:53:49.292Z</time>
      </trkpt>
      <trkpt lat="42.05391" lon="45.07169">
        <ele>962.460021</ele>
        <time>2021-08-12T06:53:54.872Z</time>
      </trkpt>
      <trkpt lat="42.05375" lon="45.07185">
        <ele>961.171516</ele>
        <time>2021-08-12T06:54:02.113Z</time>
      </trkpt>
      <trkpt lat="42.05353" lon="45.07253">
        <ele>957.485579</ele>
        <time>2021-08-12T06:54:22.630Z</time>
      </trkpt>
      <trkpt lat="42.0535" lon="45.07283">
        <ele>955.977434</ele>
        <time>2021-08-12T06:54:30.965Z</time>
      </trkpt>
      <trkpt lat="42.05354" lon="45.07307">
        <ele>954.788132</ele>
        <time>2021-08-12T06:54:37.532Z</time>
      </trkpt>
      <trkpt lat="42.05375" lon="45.07346">
        <ele>952.382606</ele>
        <time>2021-08-12T06:54:50.756Z</time>
      </trkpt>
      <trkpt lat="42.05401" lon="45.07507">
        <ele>944.129136</ele>
        <time>2021-08-12T06:55:35.242Z</time>
      </trkpt>
      <trkpt lat="42.05424" lon="45.07559">
        <ele>941.043689</ele>
        <time>2021-08-12T06:55:51.792Z</time>
      </trkpt>
      <trkpt lat="42.05447" lon="45.07634">
        <ele>936.917024</ele>
        <time>2021-08-12T06:56:13.982Z</time>
      </trkpt>
      <trkpt lat="42.05446" lon="45.07717">
        <ele>932.97059</ele>
        <time>2021-08-12T06:56:36.619Z</time>
      </trkpt>
      <trkpt lat="42.0544" lon="45.07725">
        <ele>932.425065</ele>
        <time>2021-08-12T06:56:39.602Z</time>
      </trkpt>
      <trkpt lat="42.05426" lon="45.07729">
        <ele>931.513759</ele>
        <time>2021-08-12T06:56:44.930Z</time>
      </trkpt>
      <trkpt lat="42.05413" lon="45.0774">
        <ele>930.551411</ele>
        <time>2021-08-12T06:56:50.535Z</time>
      </trkpt>
      <trkpt lat="42.05411" lon="45.07747">
        <ele>930.169276</ele>
        <time>2021-08-12T06:56:52.613Z</time>
      </trkpt>
      <trkpt lat="42.0541" lon="45.07754">
        <ele>929.822644</ele>
        <time>2021-08-12T06:56:54.678Z</time>
      </trkpt>
      <trkpt lat="42.05405" lon="45.0781">
        <ele>927.187884</ele>
        <time>2021-08-12T06:57:10.262Z</time>
      </trkpt>
      <trkpt lat="42.05414" lon="45.07818">
        <ele>926.494933</ele>
        <time>2021-08-12T06:57:14.292Z</time>
      </trkpt>
      <trkpt lat="42.05429" lon="45.07822">
        <ele>925.517521</ele>
        <time>2021-08-12T06:57:19.922Z</time>
      </trkpt>
      <trkpt lat="42.05445" lon="45.07813">
        <ele>924.390225</ele>
        <time>2021-08-12T06:57:26.712Z</time>
      </trkpt>
      <trkpt lat="42.05454" lon="45.07814">
        <ele>923.882805</ele>
        <time>2021-08-12T06:57:29.878Z</time>
      </trkpt>
      <trkpt lat="42.05462" lon="45.07816">
        <ele>923.348389</ele>
        <time>2021-08-12T06:57:32.946Z</time>
      </trkpt>
      <trkpt lat="42.05494" lon="45.0781">
        <ele>921.363336</ele>
        <time>2021-08-12T06:57:45.079Z</time>
      </trkpt>
      <trkpt lat="42.05512" lon="45.07796">
        <ele>920.072025</ele>
        <time>2021-08-12T06:57:52.870Z</time>
      </trkpt>
      <trkpt lat="42.05528" lon="45.07773">
        <ele>918.640511</ele>
        <time>2021-08-12T06:58:01.597Z</time>
      </trkpt>
      <trkpt lat="42.05595" lon="45.07577">
        <ele>907.622245</ele>
        <time>2021-08-12T06:59:00.978Z</time>
      </trkpt>
      <trkpt lat="42.05644" lon="45.07518">
        <ele>902.648329</ele>
        <time>2021-08-12T06:59:24.276Z</time>
      </trkpt>
      <trkpt lat="42.05664" lon="45.07501">
        <ele>900.8704</ele>
        <time>2021-08-12T06:59:32.535Z</time>
      </trkpt>
      <trkpt lat="42.05702" lon="45.07447">
        <ele>896.057863</ele>
        <time>2021-08-12T06:59:51.782Z</time>
      </trkpt>
      <trkpt lat="42.05719" lon="45.07441">
        <ele>894.449029</ele>
        <time>2021-08-12T06:59:57.942Z</time>
      </trkpt>
      <trkpt lat="42.05766" lon="45.07467">
        <ele>889.875377</ele>
        <time>2021-08-12T07:00:15.514Z</time>
      </trkpt>
      <trkpt lat="42.05781" lon="45.07511">
        <ele>886.619181</ele>
        <time>2021-08-12T07:00:28.095Z</time>
      </trkpt>
      <trkpt lat="42.05795" lon="45.07536">
        <ele>884.509053</ele>
        <time>2021-08-12T07:00:36.261Z</time>
      </trkpt>
      <trkpt lat="42.05806" lon="45.07541">
        <ele>883.483612</ele>
        <time>2021-08-12T07:00:40.297Z</time>
      </trkpt>
      <trkpt lat="42.05818" lon="45.07542">
        <ele>882.420768</ele>
        <time>2021-08-12T07:00:44.547Z</time>
      </trkpt>
      <trkpt lat="42.05827" lon="45.07532">
        <ele>881.428501</ele>
        <time>2021-08-12T07:00:48.533Z</time>
      </trkpt>
      <trkpt lat="42.05848" lon="45.07481">
        <ele>877.597015</ele>
        <time>2021-08-12T07:01:03.955Z</time>
      </trkpt>
      <trkpt lat="42.05856" lon="45.07474">
        <ele>876.741295</ele>
        <time>2021-08-12T07:01:07.380Z</time>
      </trkpt>
      <trkpt lat="42.05873" lon="45.07481">
        <ele>875.225537</ele>
        <time>2021-08-12T07:01:13.472Z</time>
      </trkpt>
      <trkpt lat="42.05876" lon="45.07493">
        <ele>874.394994</ele>
        <time>2021-08-12T07:01:16.828Z</time>
      </trkpt>
      <trkpt lat="42.05872" lon="45.07556">
        <ele>870.240763</ele>
        <time>2021-08-12T07:01:33.468Z</time>
      </trkpt>
      <trkpt lat="42.05898" lon="45.07601">
        <ele>866.430338</ele>
        <time>2021-08-12T07:01:48.354Z</time>
      </trkpt>
      <trkpt lat="42.05907" lon="45.07627">
        <ele>864.49474</ele>
        <time>2021-08-12T07:01:55.708Z</time>
      </trkpt>
      <trkpt lat="42.0587" lon="45.07845">
        <ele>849.464681</ele>
        <time>2021-08-12T07:02:53.488Z</time>
      </trkpt>
      <trkpt lat="42.05869" lon="45.07864">
        <ele>848.295606</ele>
        <time>2021-08-12T07:02:58.460Z</time>
      </trkpt>
      <trkpt lat="42.05873" lon="45.07884">
        <ele>846.981685</ele>
        <time>2021-08-12T07:03:04.083Z</time>
      </trkpt>
      <trkpt lat="42.0589" lon="45.07897">
        <ele>845.399456</ele>
        <time>2021-08-12T07:03:10.835Z</time>
      </trkpt>
      <trkpt lat="42.05919" lon="45.079">
        <ele>842.975239</ele>
        <time>2021-08-12T07:03:21.259Z</time>
      </trkpt>
      <trkpt lat="42.05934" lon="45.07911">
        <ele>841.540502</ele>
        <time>2021-08-12T07:03:27.441Z</time>
      </trkpt>
      <trkpt lat="42.05945" lon="45.07928">
        <ele>840.159728</ele>
        <time>2021-08-12T07:03:33.415Z</time>
      </trkpt>
      <trkpt lat="42.05983" lon="45.08065">
        <ele>831.446507</ele>
        <time>2021-08-12T07:04:12.288Z</time>
      </trkpt>
      <trkpt lat="42.06016" lon="45.08113">
        <ele>827.525662</ele>
        <time>2021-08-12T07:04:30.018Z</time>
      </trkpt>
      <trkpt lat="42.06021" lon="45.08138">
        <ele>826.017599</ele>
        <time>2021-08-12T07:04:36.795Z</time>
      </trkpt>
      <trkpt lat="42.06023" lon="45.0817">
        <ele>824.146098</ele>
        <time>2021-08-12T07:04:45.200Z</time>
      </trkpt>
      <trkpt lat="42.06006" lon="45.08251">
        <ele>819.080041</ele>
        <time>2021-08-12T07:05:07.119Z</time>
      </trkpt>
      <trkpt lat="42.06016" lon="45.08341">
        <ele>813.483479</ele>
        <time>2021-08-12T07:05:31.004Z</time>
      </trkpt>
      <trkpt lat="42.05993" lon="45.08447">
        <ele>806.765883</ele>
        <time>2021-08-12T07:06:00.356Z</time>
      </trkpt>
      <trkpt lat="42.05988" lon="45.08662">
        <ele>795.224024</ele>
        <time>2021-08-12T07:06:57.842Z</time>
      </trkpt>
      <trkpt lat="42.05983" lon="45.08696">
        <ele>794.066477</ele>
        <time>2021-08-12T07:07:07.621Z</time>
      </trkpt>
      <trkpt lat="42.05969" lon="45.08731">
        <ele>793.296829</ele>
        <time>2021-08-12T07:07:18.784Z</time>
      </trkpt>
      <trkpt lat="42.05963" lon="45.08753">
        <ele>792.827354</ele>
        <time>2021-08-12T07:07:25.642Z</time>
      </trkpt>
      <trkpt lat="42.05943" lon="45.08833">
        <ele>791.164068</ele>
        <time>2021-08-12T07:07:51.844Z</time>
      </trkpt>
      <trkpt lat="42.05937" lon="45.08887">
        <ele>790.088853</ele>
        <time>2021-08-12T07:08:11.946Z</time>
      </trkpt>
      <trkpt lat="42.05936" lon="45.08956">
        <ele>791.195375</ele>
        <time>2021-08-12T07:08:44.616Z</time>
      </trkpt>
      <trkpt lat="42.05936" lon="45.09027">
        <ele>793.312808</ele>
        <time>2021-08-12T07:09:23.602Z</time>
      </trkpt>
      <trkpt lat="42.0594" lon="45.09126">
        <ele>796.271055</ele>
        <time>2021-08-12T07:10:24.223Z</time>
      </trkpt>
      <trkpt lat="42.05934" lon="45.09254">
        <ele>800.352029</ele>
        <time>2021-08-12T07:11:45.119Z</time>
      </trkpt>
      <trkpt lat="42.05925" lon="45.0929">
        <ele>801.56242</ele>
        <time>2021-08-12T07:12:07.137Z</time>
      </trkpt>
      <trkpt lat="42.0593" lon="45.09334">
        <ele>803.009815</ele>
        <time>2021-08-12T07:12:31.623Z</time>
      </trkpt>
      <trkpt lat="42.05944" lon="45.09382">
        <ele>804.656564</ele>
        <time>2021-08-12T07:12:57.419Z</time>
      </trkpt>
      <trkpt lat="42.05953" lon="45.09462">
        <ele>804.184294</ele>
        <time>2021-08-12T07:13:33.792Z</time>
      </trkpt>
      <trkpt lat="42.05975" lon="45.09571">
        <ele>803.38087</ele>
        <time>2021-08-12T07:14:12.975Z</time>
      </trkpt>
      <trkpt lat="42.05985" lon="45.09647">
        <ele>801.573677</ele>
        <time>2021-08-12T07:14:36.284Z</time>
      </trkpt>
      <trkpt lat="42.05995" lon="45.09806">
        <ele>792.829815</ele>
        <time>2021-08-12T07:15:19.343Z</time>
      </trkpt>
      <trkpt lat="42.05963" lon="45.0989">
        <ele>786.29531</ele>
        <time>2021-08-12T07:15:43.397Z</time>
      </trkpt>
      <trkpt lat="42.05958" lon="45.09922">
        <ele>783.307692</ele>
        <time>2021-08-12T07:15:51.606Z</time>
      </trkpt>
      <trkpt lat="42.05966" lon="45.09946">
        <ele>780.849661</ele>
        <time>2021-08-12T07:15:58.314Z</time>
      </trkpt>
      <trkpt lat="42.05994" lon="45.09984">
        <ele>776.045771</ele>
        <time>2021-08-12T07:16:11.276Z</time>
      </trkpt>
      <trkpt lat="42.06003" lon="45.10008">
        <ele>773.579515</ele>
        <time>2021-08-12T07:16:17.888Z</time>
      </trkpt>
      <trkpt lat="42.06007" lon="45.1006">
        <ele>768.828674</ele>
        <time>2021-08-12T07:16:30.668Z</time>
      </trkpt>
      <trkpt lat="42.06007" lon="45.10145">
        <ele>760.956583</ele>
        <time>2021-08-12T07:16:51.518Z</time>
      </trkpt>
      <trkpt lat="42.06011" lon="45.10166">
        <ele>758.960224</ele>
        <time>2021-08-12T07:16:56.827Z</time>
      </trkpt>
      <trkpt lat="42.06029" lon="45.10182">
        <ele>756.279672</ele>
        <time>2021-08-12T07:17:03.905Z</time>
      </trkpt>
      <trkpt lat="42.06061" lon="45.10195">
        <ele>752.061396</ele>
        <time>2021-08-12T07:17:15.107Z</time>
      </trkpt>
      <trkpt lat="42.06064" lon="45.10211">
        <ele>750.51766</ele>
        <time>2021-08-12T07:17:19.247Z</time>
      </trkpt>
      <trkpt lat="42.06066" lon="45.10222">
        <ele>749.465497</ele>
        <time>2021-08-12T07:17:22.050Z</time>
      </trkpt>
      <trkpt lat="42.06054" lon="45.10327">
        <ele>741.009666</ele>
        <time>2021-08-12T07:17:48.741Z</time>
      </trkpt>
      <trkpt lat="42.06046" lon="45.10351">
        <ele>739.115305</ele>
        <time>2021-08-12T07:17:55.647Z</time>
      </trkpt>
      <trkpt lat="42.06015" lon="45.10401">
        <ele>734.551217</ele>
        <time>2021-08-12T07:18:12.373Z</time>
      </trkpt>
      <trkpt lat="42.05996" lon="45.1045">
        <ele>730.625278</ele>
        <time>2021-08-12T07:18:26.857Z</time>
      </trkpt>
      <trkpt lat="42.05992" lon="45.10478">
        <ele>728.641286</ele>
        <time>2021-08-12T07:18:34.170Z</time>
      </trkpt>
      <trkpt lat="42.05994" lon="45.1058">
        <ele>722.452773</ele>
        <time>2021-08-12T07:19:00.836Z</time>
      </trkpt>
      <trkpt lat="42.05987" lon="45.10617">
        <ele>720.170142</ele>
        <time>2021-08-12T07:19:10.836Z</time>
      </trkpt>
      <trkpt lat="42.0596" lon="45.10693">
        <ele>715.081677</ele>
        <time>2021-08-12T07:19:33.340Z</time>
      </trkpt>
      <trkpt lat="42.0593" lon="45.10742">
        <ele>711.826526</ele>
        <time>2021-08-12T07:19:50.379Z</time>
      </trkpt>
      <trkpt lat="42.05796" lon="45.1082">
        <ele>702.764877</ele>
        <time>2021-08-12T07:20:44.814Z</time>
      </trkpt>
      <trkpt lat="42.0578" lon="45.10828">
        <ele>701.703912</ele>
        <time>2021-08-12T07:20:51.569Z</time>
      </trkpt>
      <trkpt lat="42.05775" lon="45.1083">
        <ele>701.393379</ele>
        <time>2021-08-12T07:20:53.309Z</time>
      </trkpt>
      <trkpt lat="42.05761" lon="45.10841">
        <ele>700.360183</ele>
        <time>2021-08-12T07:20:59.671Z</time>
      </trkpt>
      <trkpt lat="42.0575" lon="45.10858">
        <ele>699.285794</ele>
        <time>2021-08-12T07:21:06.225Z</time>
      </trkpt>
      <trkpt lat="42.0575" lon="45.10898">
        <ele>697.453495</ele>
        <time>2021-08-12T07:21:17.324Z</time>
      </trkpt>
      <trkpt lat="42.05756" lon="45.10923">
        <ele>696.216896</ele>
        <time>2021-08-12T07:21:24.556Z</time>
      </trkpt>
      <trkpt lat="42.05752" lon="45.10963">
        <ele>694.327886</ele>
        <time>2021-08-12T07:21:35.671Z</time>
      </trkpt>
      <trkpt lat="42.05743" lon="45.11005">
        <ele>692.272348</ele>
        <time>2021-08-12T07:21:47.558Z</time>
      </trkpt>
      <trkpt lat="42.05705" lon="45.11116">
        <ele>684.869846</ele>
        <time>2021-08-12T07:22:19.999Z</time>
      </trkpt>
      <trkpt lat="42.05694" lon="45.11246">
        <ele>676.506024</ele>
        <time>2021-08-12T07:22:53.799Z</time>
      </trkpt>
      <trkpt lat="42.05683" lon="45.11282">
        <ele>674.413861</ele>
        <time>2021-08-12T07:23:03.667Z</time>
      </trkpt>
      <trkpt lat="42.05669" lon="45.11304">
        <ele>672.967539</ele>
        <time>2021-08-12T07:23:11.258Z</time>
      </trkpt>
      <trkpt lat="42.05653" lon="45.11316">
        <ele>671.73594</ele>
        <time>2021-08-12T07:23:17.709Z</time>
      </trkpt>
      <trkpt lat="42.05632" lon="45.1132">
        <ele>670.328601</ele>
        <time>2021-08-12T07:23:25.241Z</time>
      </trkpt>
      <trkpt lat="42.05628" lon="45.11319">
        <ele>670.098675</ele>
        <time>2021-08-12T07:23:26.443Z</time>
      </trkpt>
      <trkpt lat="42.05615" lon="45.11316">
        <ele>669.196502</ele>
        <time>2021-08-12T07:23:31.316Z</time>
      </trkpt>
      <trkpt lat="42.05584" lon="45.1129">
        <ele>666.794883</ele>
        <time>2021-08-12T07:23:44.456Z</time>
      </trkpt>
      <trkpt lat="42.05551" lon="45.11259">
        <ele>664.122602</ele>
        <time>2021-08-12T07:24:00.179Z</time>
      </trkpt>
      <trkpt lat="42.05531" lon="45.11237">
        <ele>664.401755</ele>
        <time>2021-08-12T07:24:11.902Z</time>
      </trkpt>
      <trkpt lat="42.05505" lon="45.11215">
        <ele>665.421261</ele>
        <time>2021-08-12T07:24:29.919Z</time>
      </trkpt>
      <trkpt lat="42.05481" lon="45.11223">
        <ele>666.251215</ele>
        <time>2021-08-12T07:24:47.743Z</time>
      </trkpt>
      <trkpt lat="42.05455" lon="45.11246">
        <ele>667.289504</ele>
        <time>2021-08-12T07:25:12.085Z</time>
      </trkpt>
      <trkpt lat="42.05398" lon="45.11303">
        <ele>669.649479</ele>
        <time>2021-08-12T07:26:14.157Z</time>
      </trkpt>
      <trkpt lat="42.05375" lon="45.11332">
        <ele>670.723777</ele>
        <time>2021-08-12T07:26:43.578Z</time>
      </trkpt>
      <trkpt lat="42.0536" lon="45.11378">
        <ele>671.975726</ele>
        <time>2021-08-12T07:27:16.527Z</time>
      </trkpt>
      <trkpt lat="42.05364" lon="45.11403">
        <ele>672.619161</ele>
        <time>2021-08-12T07:27:34.052Z</time>
      </trkpt>
      <trkpt lat="42.05473" lon="45.11642">
        <ele>673.250823</ele>
        <time>2021-08-12T07:29:25.671Z</time>
      </trkpt>
      <trkpt lat="42.0553" lon="45.11766">
        <ele>669.467539</ele>
        <time>2021-08-12T07:30:05.447Z</time>
      </trkpt>
      <trkpt lat="42.05567" lon="45.11855">
        <ele>665.224484</ele>
        <time>2021-08-12T07:30:33.888Z</time>
      </trkpt>
      <trkpt lat="42.05568" lon="45.11865">
        <ele>664.822569</ele>
        <time>2021-08-12T07:30:36.546Z</time>
      </trkpt>
      <trkpt lat="42.05563" lon="45.11908">
        <ele>663.022198</ele>
        <time>2021-08-12T07:30:48.979Z</time>
      </trkpt>
      <trkpt lat="42.05539" lon="45.11957">
        <ele>661.649555</ele>
        <time>2021-08-12T07:31:06.145Z</time>
      </trkpt>
      <trkpt lat="42.05512" lon="45.12009">
        <ele>661.36952</ele>
        <time>2021-08-12T07:31:25.693Z</time>
      </trkpt>
      <trkpt lat="42.05488" lon="45.12055">
        <ele>661.120556</ele>
        <time>2021-08-12T07:31:47.784Z</time>
      </trkpt>
      <trkpt lat="42.05454" lon="45.12115">
        <ele>660.784905</ele>
        <time>2021-08-12T07:32:22.867Z</time>
      </trkpt>
      <trkpt lat="42.05413" lon="45.1217">
        <ele>662.203509</ele>
        <time>2021-08-12T07:33:00.800Z</time>
      </trkpt>
      <trkpt lat="42.05398" lon="45.12183">
        <ele>662.799186</ele>
        <time>2021-08-12T07:33:13.831Z</time>
      </trkpt>
      <trkpt lat="42.05348" lon="45.12212">
        <ele>664.668847</ele>
        <time>2021-08-12T07:33:52.551Z</time>
      </trkpt>
      <trkpt lat="42.05346" lon="45.12217">
        <ele>664.831921</ele>
        <time>2021-08-12T07:33:56.296Z</time>
      </trkpt>
      <trkpt lat="42.05345" lon="45.12247">
        <ele>665.585298</ele>
        <time>2021-08-12T07:34:12.881Z</time>
      </trkpt>
      <trkpt lat="42.05357" lon="45.12317">
        <ele>667.161325</ele>
        <time>2021-08-12T07:34:53.616Z</time>
      </trkpt>
      <trkpt lat="42.05347" lon="45.1234">
        <ele>667.572131</ele>
        <time>2021-08-12T07:35:09.106Z</time>
      </trkpt>
      <trkpt lat="42.05323" lon="45.12354">
        <ele>668.114562</ele>
        <time>2021-08-12T07:35:28.129Z</time>
      </trkpt>
      <trkpt lat="42.05327" lon="45.12395">
        <ele>668.728299</ele>
        <time>2021-08-12T07:35:48.712Z</time>
      </trkpt>
      <trkpt lat="42.05322" lon="45.12453">
        <ele>669.621114</ele>
        <time>2021-08-12T07:36:15.885Z</time>
      </trkpt>
      <trkpt lat="42.05322" lon="45.12497">
        <ele>670.28025</ele>
        <time>2021-08-12T07:36:32.678Z</time>
      </trkpt>
      <trkpt lat="42.05325" lon="45.1255">
        <ele>669.124341</ele>
        <time>2021-08-12T07:36:51.675Z</time>
      </trkpt>
      <trkpt lat="42.05326" lon="45.12611">
        <ele>667.087551</ele>
        <time>2021-08-12T07:37:10.714Z</time>
      </trkpt>
      <trkpt lat="42.05324" lon="45.12627">
        <ele>666.540742</ele>
        <time>2021-08-12T07:37:15.162Z</time>
      </trkpt>
      <trkpt lat="42.05322" lon="45.12643">
        <ele>666.014498</ele>
        <time>2021-08-12T07:37:20.342Z</time>
      </trkpt>
      <trkpt lat="42.05318" lon="45.12667">
        <ele>665.193989</ele>
        <time>2021-08-12T07:37:26.959Z</time>
      </trkpt>
      <trkpt lat="42.05316" lon="45.12674">
        <ele>664.931688</ele>
        <time>2021-08-12T07:37:29.034Z</time>
      </trkpt>
      <trkpt lat="42.05284" lon="45.12782">
        <ele>660.04948</ele>
        <time>2021-08-12T07:38:00.530Z</time>
      </trkpt>
      <trkpt lat="42.05283" lon="45.12786">
        <ele>659.8219</ele>
        <time>2021-08-12T07:38:01.487Z</time>
      </trkpt>
      <trkpt lat="42.05283" lon="45.12804">
        <ele>658.794268</ele>
        <time>2021-08-12T07:38:05.999Z</time>
      </trkpt>
      <trkpt lat="42.05271" lon="45.12871">
        <ele>654.755821</ele>
        <time>2021-08-12T07:38:24.425Z</time>
      </trkpt>
      <trkpt lat="42.0525" lon="45.12943">
        <ele>650.283181</ele>
        <time>2021-08-12T07:38:44.635Z</time>
      </trkpt>
      <trkpt lat="42.05222" lon="45.13002">
        <ele>647.149351</ele>
        <time>2021-08-12T07:39:03.341Z</time>
      </trkpt>
      <trkpt lat="42.05205" lon="45.13075">
        <ele>644.636629</ele>
        <time>2021-08-12T07:39:25.488Z</time>
      </trkpt>
      <trkpt lat="42.05163" lon="45.13139">
        <ele>641.834185</ele>
        <time>2021-08-12T07:39:51.426Z</time>
      </trkpt>
      <trkpt lat="42.05138" lon="45.13188">
        <ele>640.222274</ele>
        <time>2021-08-12T07:40:10.176Z</time>
      </trkpt>
      <trkpt lat="42.05116" lon="45.13325">
        <ele>638.498971</ele>
        <time>2021-08-12T07:40:57.936Z</time>
      </trkpt>
      <trkpt lat="42.05111" lon="45.13375">
        <ele>637.888389</ele>
        <time>2021-08-12T07:41:15.226Z</time>
      </trkpt>
      <trkpt lat="42.05109" lon="45.13401">
        <ele>637.56019</ele>
        <time>2021-08-12T07:41:24.540Z</time>
      </trkpt>
      <trkpt lat="42.05073" lon="45.13513">
        <ele>635.941904</ele>
        <time>2021-08-12T07:42:05.403Z</time>
      </trkpt>
      <trkpt lat="42.05038" lon="45.13648">
        <ele>634.02622</ele>
        <time>2021-08-12T07:42:52.215Z</time>
      </trkpt>
      <trkpt lat="42.04914" lon="45.13817">
        <ele>631.091885</ele>
        <time>2021-08-12T07:44:11.494Z</time>
      </trkpt>
      <trkpt lat="42.04882" lon="45.13908">
        <ele>630.3651</ele>
        <time>2021-08-12T07:44:46.705Z</time>
      </trkpt>
      <trkpt lat="42.04865" lon="45.13971">
        <ele>629.86793</ele>
        <time>2021-08-12T07:45:11.118Z</time>
      </trkpt>
      <trkpt lat="42.04846" lon="45.14101">
        <ele>628.526036</ele>
        <time>2021-08-12T07:45:58.186Z</time>
      </trkpt>
      <trkpt lat="42.04842" lon="45.14312">
        <ele>625.380871</ele>
        <time>2021-08-12T07:47:07.178Z</time>
      </trkpt>
      <trkpt lat="42.04833" lon="45.14364">
        <ele>624.107818</ele>
        <time>2021-08-12T07:47:23.606Z</time>
      </trkpt>
      <trkpt lat="42.04803" lon="45.14475">
        <ele>621.301493</ele>
        <time>2021-08-12T07:47:59.328Z</time>
      </trkpt>
      <trkpt lat="42.04726" lon="45.14642">
        <ele>616.947276</ele>
        <time>2021-08-12T07:48:58.838Z</time>
      </trkpt>
      <trkpt lat="42.04707" lon="45.14695">
        <ele>615.66982</ele>
        <time>2021-08-12T07:49:17.985Z</time>
      </trkpt>
      <trkpt lat="42.04693" lon="45.14805">
        <ele>614.612336</ele>
        <time>2021-08-12T07:49:55.991Z</time>
      </trkpt>
      <trkpt lat="42.04692" lon="45.1481">
        <ele>614.582081</ele>
        <time>2021-08-12T07:49:57.310Z</time>
      </trkpt>
      <trkpt lat="42.04671" lon="45.14859">
        <ele>614.229198</ele>
        <time>2021-08-12T07:50:17.865Z</time>
      </trkpt>
      <trkpt lat="42.04541" lon="45.15044">
        <ele>613.253605</ele>
        <time>2021-08-12T07:51:56.429Z</time>
      </trkpt>
      <trkpt lat="42.04521" lon="45.15099">
        <ele>613.107315</ele>
        <time>2021-08-12T07:52:18.890Z</time>
      </trkpt>
      <trkpt lat="42.0452" lon="45.15125">
        <ele>612.982023</ele>
        <time>2021-08-12T07:52:27.924Z</time>
      </trkpt>
      <trkpt lat="42.04495" lon="45.15449">
        <ele>608.378481</ele>
        <time>2021-08-12T07:54:17.106Z</time>
      </trkpt>
      <trkpt lat="42.04482" lon="45.15557">
        <ele>606.168955</ele>
        <time>2021-08-12T07:54:50.901Z</time>
      </trkpt>
      <trkpt lat="42.04451" lon="45.15708">
        <ele>602.214633</ele>
        <time>2021-08-12T07:55:37.616Z</time>
      </trkpt>
      <trkpt lat="42.04448" lon="45.15767">
        <ele>600.617626</ele>
        <time>2021-08-12T07:55:55.196Z</time>
      </trkpt>
      <trkpt lat="42.04449" lon="45.15858">
        <ele>598.306746</ele>
        <time>2021-08-12T07:56:22.786Z</time>
      </trkpt>
      <trkpt lat="42.04473" lon="45.16166">
        <ele>592.416902</ele>
        <time>2021-08-12T07:58:01.480Z</time>
      </trkpt>
      <trkpt lat="42.04472" lon="45.16235">
        <ele>591.291833</ele>
        <time>2021-08-12T07:58:23.898Z</time>
      </trkpt>
      <trkpt lat="42.04461" lon="45.16306">
        <ele>590.094969</ele>
        <time>2021-08-12T07:58:47.805Z</time>
      </trkpt>
      <trkpt lat="42.04425" lon="45.1647">
        <ele>588.145176</ele>
        <time>2021-08-12T07:59:44.776Z</time>
      </trkpt>
      <trkpt lat="42.04295" lon="45.17051">
        <ele>583.899949</ele>
        <time>2021-08-12T08:03:19.337Z</time>
      </trkpt>
      <trkpt lat="42.04165" lon="45.17641">
        <ele>584.586029</ele>
        <time>2021-08-12T08:07:20.579Z</time>
      </trkpt>
      <trkpt lat="42.04131" lon="45.17794">
        <ele>585.770849</ele>
        <time>2021-08-12T08:08:06.242Z</time>
      </trkpt>
      <trkpt lat="42.04038" lon="45.18206">
        <ele>590.291787</ele>
        <time>2021-08-12T08:10:11.730Z</time>
      </trkpt>
      <trkpt lat="42.03966" lon="45.18524">
        <ele>593.721936</ele>
        <time>2021-08-12T08:11:48.764Z</time>
      </trkpt>
      <trkpt lat="42.03948" lon="45.18604">
        <ele>594.547016</ele>
        <time>2021-08-12T08:12:12.784Z</time>
      </trkpt>
      <trkpt lat="42.03878" lon="45.1893">
        <ele>596.879359</ele>
        <time>2021-08-12T08:13:44.966Z</time>
      </trkpt>
      <trkpt lat="42.03864" lon="45.18981">
        <ele>597.097248</ele>
        <time>2021-08-12T08:13:58.736Z</time>
      </trkpt>
      <trkpt lat="42.03827" lon="45.19129">
        <ele>597.636971</ele>
        <time>2021-08-12T08:14:37.153Z</time>
      </trkpt>
      <trkpt lat="42.03821" lon="45.19153">
        <ele>597.673765</ele>
        <time>2021-08-12T08:14:43.175Z</time>
      </trkpt>
      <trkpt lat="42.03793" lon="45.19261">
        <ele>597.838347</ele>
        <time>2021-08-12T08:15:10.518Z</time>
      </trkpt>
      <trkpt lat="42.03785" lon="45.19292">
        <ele>597.886511</ele>
        <time>2021-08-12T08:15:18.430Z</time>
      </trkpt>
      <trkpt lat="42.03741" lon="45.19492">
        <ele>597.75219</ele>
        <time>2021-08-12T08:16:07.495Z</time>
      </trkpt>
      <trkpt lat="42.0373" lon="45.19527">
        <ele>597.709419</ele>
        <time>2021-08-12T08:16:15.847Z</time>
      </trkpt>
      <trkpt lat="42.03709" lon="45.19567">
        <ele>597.451938</ele>
        <time>2021-08-12T08:16:26.047Z</time>
      </trkpt>
      <trkpt lat="42.03693" lon="45.19586">
        <ele>597.053233</ele>
        <time>2021-08-12T08:16:31.948Z</time>
      </trkpt>
      <trkpt lat="42.03675" lon="45.19609">
        <ele>596.588607</ele>
        <time>2021-08-12T08:16:38.617Z</time>
      </trkpt>
      <trkpt lat="42.03706" lon="45.19629">
        <ele>595.943292</ele>
        <time>2021-08-12T08:16:47.865Z</time>
      </trkpt>
      <trkpt lat="42.03766" lon="45.19694">
        <ele>594.520039</ele>
        <time>2021-08-12T08:17:07.075Z</time>
      </trkpt>
      <trkpt lat="42.03794" lon="45.19722">
        <ele>593.442401</ele>
        <time>2021-08-12T08:17:15.537Z</time>
      </trkpt>
      <trkpt lat="42.03898" lon="45.19818">
        <ele>588.992305</ele>
        <time>2021-08-12T08:17:44.907Z</time>
      </trkpt>
      <trkpt lat="42.04044" lon="45.19941">
        <ele>583.060231</ele>
        <time>2021-08-12T08:18:25.278Z</time>
      </trkpt>
      <trkpt lat="42.04087" lon="45.19982">
        <ele>581.374749</ele>
        <time>2021-08-12T08:18:37.981Z</time>
      </trkpt>
      <trkpt lat="42.0413" lon="45.20022">
        <ele>579.987165</ele>
        <time>2021-08-12T08:18:50.962Z</time>
      </trkpt>
      <trkpt lat="42.04144" lon="45.20033">
        <ele>579.550709</ele>
        <time>2021-08-12T08:18:54.847Z</time>
      </trkpt>
      <trkpt lat="42.04162" lon="45.20048">
        <ele>578.964734</ele>
        <time>2021-08-12T08:19:00.476Z</time>
      </trkpt>
      <trkpt lat="42.04168" lon="45.20054">
        <ele>578.765413</ele>
        <time>2021-08-12T08:19:02.179Z</time>
      </trkpt>
      <trkpt lat="42.04241" lon="45.20137">
        <ele>576.307944</ele>
        <time>2021-08-12T08:19:25.807Z</time>
      </trkpt>
      <trkpt lat="42.04256" lon="45.20155">
        <ele>575.82051</ele>
        <time>2021-08-12T08:19:30.714Z</time>
      </trkpt>
      <trkpt lat="42.04304" lon="45.20207">
        <ele>574.380071</ele>
        <time>2021-08-12T08:19:46.022Z</time>
      </trkpt>
      <trkpt lat="42.04333" lon="45.20249">
        <ele>573.370214</ele>
        <time>2021-08-12T08:19:57.117Z</time>
      </trkpt>
      <trkpt lat="42.04333" lon="45.20283">
        <ele>572.760556</ele>
        <time>2021-08-12T08:20:03.829Z</time>
      </trkpt>
      <trkpt lat="42.04321" lon="45.20372">
        <ele>571.640821</ele>
        <time>2021-08-12T08:20:21.175Z</time>
      </trkpt>
      <trkpt lat="42.04315" lon="45.20371">
        <ele>571.540312</ele>
        <time>2021-08-12T08:20:22.874Z</time>
      </trkpt>
      <trkpt lat="42.04271" lon="45.20391">
        <ele>570.765451</ele>
        <time>2021-08-12T08:20:34.762Z</time>
      </trkpt>
      <trkpt lat="42.04269" lon="45.20392">
        <ele>570.733298</ele>
        <time>2021-08-12T08:20:35.281Z</time>
      </trkpt>
      <trkpt lat="42.04268" lon="45.20393">
        <ele>570.699717</ele>
        <time>2021-08-12T08:20:35.799Z</time>
      </trkpt>
      <trkpt lat="42.04266" lon="45.20395">
        <ele>570.65779</ele>
        <time>2021-08-12T08:20:36.425Z</time>
      </trkpt>
      <trkpt lat="42.04266" lon="45.20401">
        <ele>570.594112</ele>
        <time>2021-08-12T08:20:37.407Z</time>
      </trkpt>
      <trkpt lat="42.04267" lon="45.20404">
        <ele>570.548489</ele>
        <time>2021-08-12T08:20:38.086Z</time>
      </trkpt>
      <trkpt lat="42.04268" lon="45.20405">
        <ele>570.516494</ele>
        <time>2021-08-12T08:20:38.565Z</time>
      </trkpt>
      <trkpt lat="42.0427" lon="45.20406">
        <ele>570.482819</ele>
        <time>2021-08-12T08:20:39.080Z</time>
      </trkpt>
      <trkpt lat="42.04272" lon="45.20406">
        <ele>570.451027</ele>
        <time>2021-08-12T08:20:39.562Z</time>
      </trkpt>
      <trkpt lat="42.04288" lon="45.2044">
        <ele>569.952572</ele>
        <time>2021-08-12T08:20:47.289Z</time>
      </trkpt>
      <trkpt lat="42.04325" lon="45.20542">
        <ele>568.20867</ele>
        <time>2021-08-12T08:21:08.635Z</time>
      </trkpt>
      <trkpt lat="42.04325" lon="45.20544">
        <ele>568.173421</ele>
        <time>2021-08-12T08:21:08.994Z</time>
      </trkpt>
      <trkpt lat="42.0437" lon="45.20662">
        <ele>566.059663</ele>
        <time>2021-08-12T08:21:32.646Z</time>
      </trkpt>
      <trkpt lat="42.04408" lon="45.20749">
        <ele>563.969211</ele>
        <time>2021-08-12T08:21:50.141Z</time>
      </trkpt>
      <trkpt lat="42.04414" lon="45.20763">
        <ele>563.614327</ele>
        <time>2021-08-12T08:21:53.029Z</time>
      </trkpt>
      <trkpt lat="42.04576" lon="45.21005">
        <ele>556.315232</ele>
        <time>2021-08-12T08:22:48.641Z</time>
      </trkpt>
      <trkpt lat="42.04644" lon="45.2111">
        <ele>553.090963</ele>
        <time>2021-08-12T08:23:12.097Z</time>
      </trkpt>
      <trkpt lat="42.04668" lon="45.21148">
        <ele>551.905069</ele>
        <time>2021-08-12T08:23:20.732Z</time>
      </trkpt>
      <trkpt lat="42.0473" lon="45.21245">
        <ele>549.009014</ele>
        <time>2021-08-12T08:23:42.466Z</time>
      </trkpt>
      <trkpt lat="42.04806" lon="45.2138">
        <ele>545.549563</ele>
        <time>2021-08-12T08:24:12.056Z</time>
      </trkpt>
      <trkpt lat="42.0487" lon="45.21549">
        <ele>541.964609</ele>
        <time>2021-08-12T08:24:45.206Z</time>
      </trkpt>
      <trkpt lat="42.04903" lon="45.21669">
        <ele>539.65744</ele>
        <time>2021-08-12T08:25:08.265Z</time>
      </trkpt>
      <trkpt lat="42.04935" lon="45.21916">
        <ele>535.634166</ele>
        <time>2021-08-12T08:25:53.863Z</time>
      </trkpt>
      <trkpt lat="42.04984" lon="45.22371">
        <ele>527.840119</ele>
        <time>2021-08-12T08:27:16.373Z</time>
      </trkpt>
      <trkpt lat="42.04984" lon="45.22373">
        <ele>527.81553</ele>
        <time>2021-08-12T08:27:16.619Z</time>
      </trkpt>
      <trkpt lat="42.05056" lon="45.23151">
        <ele>515.968039</ele>
        <time>2021-08-12T08:29:40.365Z</time>
      </trkpt>
      <trkpt lat="42.05073" lon="45.23408">
        <ele>512.398241</ele>
        <time>2021-08-12T08:30:27.205Z</time>
      </trkpt>
      <trkpt lat="42.05077" lon="45.23462">
        <ele>511.813571</ele>
        <time>2021-08-12T08:30:37.332Z</time>
      </trkpt>
      <trkpt lat="42.05096" lon="45.23723">
        <ele>510.703485</ele>
        <time>2021-08-12T08:31:32.151Z</time>
      </trkpt>
      <trkpt lat="42.05106" lon="45.23862">
        <ele>511.312084</ele>
        <time>2021-08-12T08:32:11.474Z</time>
      </trkpt>
      <trkpt lat="42.05116" lon="45.23971">
        <ele>512.521148</ele>
        <time>2021-08-12T08:32:45.475Z</time>
      </trkpt>
      <trkpt lat="42.05114" lon="45.2401">
        <ele>512.950638</ele>
        <time>2021-08-12T08:32:57.132Z</time>
      </trkpt>
      <trkpt lat="42.05103" lon="45.24063">
        <ele>513.354997</ele>
        <time>2021-08-12T08:33:13.008Z</time>
      </trkpt>
      <trkpt lat="42.05083" lon="45.24116">
        <ele>513.280896</ele>
        <time>2021-08-12T08:33:29.642Z</time>
      </trkpt>
      <trkpt lat="42.04994" lon="45.24313">
        <ele>511.876274</ele>
        <time>2021-08-12T08:34:17.145Z</time>
      </trkpt>
      <trkpt lat="42.04949" lon="45.2444">
        <ele>509.26073</ele>
        <time>2021-08-12T08:34:41.104Z</time>
      </trkpt>
      <trkpt lat="42.04905" lon="45.24574">
        <ele>506.722171</ele>
        <time>2021-08-12T08:35:05.708Z</time>
      </trkpt>
      <trkpt lat="42.04899" lon="45.24592">
        <ele>506.382906</ele>
        <time>2021-08-12T08:35:09.173Z</time>
      </trkpt>
      <trkpt lat="42.04898" lon="45.24594">
        <ele>506.337401</ele>
        <time>2021-08-12T08:35:09.597Z</time>
      </trkpt>
      <trkpt lat="42.04287" lon="45.26412">
        <ele>490.262609</ele>
        <time>2021-08-12T08:41:49.703Z</time>
      </trkpt>
      <trkpt lat="42.04266" lon="45.26516">
        <ele>489.573405</ele>
        <time>2021-08-12T08:42:11.891Z</time>
      </trkpt>
      <trkpt lat="42.04264" lon="45.2661">
        <ele>489.058303</ele>
        <time>2021-08-12T08:42:31.200Z</time>
      </trkpt>
      <trkpt lat="42.04296" lon="45.27223">
        <ele>485.97433</ele>
        <time>2021-08-12T08:44:40.401Z</time>
      </trkpt>
      <trkpt lat="42.04299" lon="45.27278">
        <ele>485.651475</ele>
        <time>2021-08-12T08:44:51.819Z</time>
      </trkpt>
      <trkpt lat="42.04327" lon="45.278">
        <ele>482.523086</ele>
        <time>2021-08-12T08:46:39.077Z</time>
      </trkpt>
      <trkpt lat="42.04333" lon="45.2788">
        <ele>482.035034</ele>
        <time>2021-08-12T08:46:55.426Z</time>
      </trkpt>
      <trkpt lat="42.0435" lon="45.28246">
        <ele>480.123877</ele>
        <time>2021-08-12T08:48:11.667Z</time>
      </trkpt>
      <trkpt lat="42.04375" lon="45.28793">
        <ele>477.814741</ele>
        <time>2021-08-12T08:50:08.817Z</time>
      </trkpt>
      <trkpt lat="42.04406" lon="45.29354">
        <ele>474.927206</ele>
        <time>2021-08-12T08:52:06.146Z</time>
      </trkpt>
      <trkpt lat="42.04432" lon="45.29908">
        <ele>472.294955</ele>
        <time>2021-08-12T08:54:03.201Z</time>
      </trkpt>
      <trkpt lat="42.04432" lon="45.29916">
        <ele>472.247152</ele>
        <time>2021-08-12T08:54:04.868Z</time>
      </trkpt>
      <trkpt lat="42.04463" lon="45.3047">
        <ele>468.658912</ele>
        <time>2021-08-12T08:55:58.539Z</time>
      </trkpt>
      <trkpt lat="42.04491" lon="45.31022">
        <ele>464.051995</ele>
        <time>2021-08-12T08:57:47.518Z</time>
      </trkpt>
      <trkpt lat="42.04519" lon="45.31579">
        <ele>460.845655</ele>
        <time>2021-08-12T08:59:43.967Z</time>
      </trkpt>
      <trkpt lat="42.04547" lon="45.32139">
        <ele>456.581839</ele>
        <time>2021-08-12T09:01:34.962Z</time>
      </trkpt>
      <trkpt lat="42.04575" lon="45.32692">
        <ele>453.76494</ele>
        <time>2021-08-12T09:03:32.396Z</time>
      </trkpt>
      <trkpt lat="42.0459" lon="45.32988">
        <ele>452.25366</ele>
        <time>2021-08-12T09:04:34.512Z</time>
      </trkpt>
      <trkpt lat="42.046" lon="45.33142">
        <ele>451.170644</ele>
        <time>2021-08-12T09:05:06.043Z</time>
      </trkpt>
      <trkpt lat="42.04603" lon="45.33193">
        <ele>450.81581</ele>
        <time>2021-08-12T09:05:16.257Z</time>
      </trkpt>
      <trkpt lat="42.04611" lon="45.33316">
        <ele>449.854115</ele>
        <time>2021-08-12T09:05:40.379Z</time>
      </trkpt>
      <trkpt lat="42.04616" lon="45.33388">
        <ele>449.264795</ele>
        <time>2021-08-12T09:05:54.820Z</time>
      </trkpt>
      <trkpt lat="42.04616" lon="45.33394">
        <ele>449.214322</ele>
        <time>2021-08-12T09:05:55.922Z</time>
      </trkpt>
      <trkpt lat="42.04651" lon="45.33511">
        <ele>448.3554</ele>
        <time>2021-08-12T09:06:21.493Z</time>
      </trkpt>
      <trkpt lat="42.04775" lon="45.33856">
        <ele>446.667052</ele>
        <time>2021-08-12T09:07:42.913Z</time>
      </trkpt>
      <trkpt lat="42.04822" lon="45.33986">
        <ele>446.187576</ele>
        <time>2021-08-12T09:08:14.098Z</time>
      </trkpt>
      <trkpt lat="42.04983" lon="45.34414">
        <ele>444.614002</ele>
        <time>2021-08-12T09:09:58.129Z</time>
      </trkpt>
      <trkpt lat="42.05143" lon="45.34839">
        <ele>442.523086</ele>
        <time>2021-08-12T09:11:38.621Z</time>
      </trkpt>
      <trkpt lat="42.05302" lon="45.35264">
        <ele>440.629156</ele>
        <time>2021-08-12T09:13:19.072Z</time>
      </trkpt>
      <trkpt lat="42.05448" lon="45.35652">
        <ele>439.557144</ele>
        <time>2021-08-12T09:14:55.804Z</time>
      </trkpt>
      <trkpt lat="42.05449" lon="45.35666">
        <ele>439.483145</ele>
        <time>2021-08-12T09:14:58.765Z</time>
      </trkpt>
      <trkpt lat="42.05459" lon="45.35693">
        <ele>439.318907</ele>
        <time>2021-08-12T09:15:05.308Z</time>
      </trkpt>
      <trkpt lat="42.05459" lon="45.35695">
        <ele>439.308303</ele>
        <time>2021-08-12T09:15:05.730Z</time>
      </trkpt>
      <trkpt lat="42.05459" lon="45.35697">
        <ele>439.296925</ele>
        <time>2021-08-12T09:15:06.156Z</time>
      </trkpt>
      <trkpt lat="42.05459" lon="45.357">
        <ele>439.28119</ele>
        <time>2021-08-12T09:15:06.783Z</time>
      </trkpt>
      <trkpt lat="42.0546" lon="45.35703">
        <ele>439.264975</ele>
        <time>2021-08-12T09:15:07.418Z</time>
      </trkpt>
      <trkpt lat="42.05462" lon="45.35705">
        <ele>439.248638</ele>
        <time>2021-08-12T09:15:08.045Z</time>
      </trkpt>
      <trkpt lat="42.05463" lon="45.35706">
        <ele>439.236524</ele>
        <time>2021-08-12T09:15:08.521Z</time>
      </trkpt>
      <trkpt lat="42.05465" lon="45.35706">
        <ele>439.224746</ele>
        <time>2021-08-12T09:15:09.001Z</time>
      </trkpt>
      <trkpt lat="42.05476" lon="45.35734">
        <ele>439.054704</ele>
        <time>2021-08-12T09:15:15.687Z</time>
      </trkpt>
      <trkpt lat="42.05482" lon="45.35742">
        <ele>438.99293</ele>
        <time>2021-08-12T09:15:18.073Z</time>
      </trkpt>
      <trkpt lat="42.05627" lon="45.36125">
        <ele>436.16188</ele>
        <time>2021-08-12T09:16:44.667Z</time>
      </trkpt>
      <trkpt lat="42.05786" lon="45.3655">
        <ele>433.376419</ele>
        <time>2021-08-12T09:18:22.498Z</time>
      </trkpt>
      <trkpt lat="42.05945" lon="45.36973">
        <ele>431.964133</ele>
        <time>2021-08-12T09:20:05.591Z</time>
      </trkpt>
      <trkpt lat="42.05999" lon="45.37125">
        <ele>431.669139</ele>
        <time>2021-08-12T09:20:43.401Z</time>
      </trkpt>
      <trkpt lat="42.06013" lon="45.37167">
        <ele>431.609447</ele>
        <time>2021-08-12T09:20:53.915Z</time>
      </trkpt>
      <trkpt lat="42.06031" lon="45.37235">
        <ele>431.536234</ele>
        <time>2021-08-12T09:21:10.393Z</time>
      </trkpt>
      <trkpt lat="42.06048" lon="45.37309">
        <ele>431.457489</ele>
        <time>2021-08-12T09:21:28.199Z</time>
      </trkpt>
      <trkpt lat="42.06105" lon="45.37541">
        <ele>430.908573</ele>
        <time>2021-08-12T09:22:22.302Z</time>
      </trkpt>
      <trkpt lat="42.06166" lon="45.37809">
        <ele>429.593558</ele>
        <time>2021-08-12T09:23:20.910Z</time>
      </trkpt>
      <trkpt lat="42.062" lon="45.37949">
        <ele>428.8501</ele>
        <time>2021-08-12T09:23:51.400Z</time>
      </trkpt>
      <trkpt lat="42.06386" lon="45.38806">
        <ele>424.690709</ele>
        <time>2021-08-12T09:26:59.609Z</time>
      </trkpt>
      <trkpt lat="42.06473" lon="45.39185">
        <ele>423.080053</ele>
        <time>2021-08-12T09:28:22.812Z</time>
      </trkpt>
      <trkpt lat="42.06479" lon="45.39211">
        <ele>422.987283</ele>
        <time>2021-08-12T09:28:28.829Z</time>
      </trkpt>
      <trkpt lat="42.06551" lon="45.39536">
        <ele>423.565108</ele>
        <time>2021-08-12T09:29:51.636Z</time>
      </trkpt>
      <trkpt lat="42.0656" lon="45.39584">
        <ele>423.70445</ele>
        <time>2021-08-12T09:30:04.118Z</time>
      </trkpt>
      <trkpt lat="42.0656" lon="45.39615">
        <ele>423.789071</ele>
        <time>2021-08-12T09:30:11.645Z</time>
      </trkpt>
      <trkpt lat="42.06512" lon="45.39945">
        <ele>424.640193</ele>
        <time>2021-08-12T09:31:34.621Z</time>
      </trkpt>
      <trkpt lat="42.06475" lon="45.40046">
        <ele>424.805312</ele>
        <time>2021-08-12T09:32:01.652Z</time>
      </trkpt>
      <trkpt lat="42.06469" lon="45.40195">
        <ele>425.161229</ele>
        <time>2021-08-12T09:32:37.365Z</time>
      </trkpt>
      <trkpt lat="42.0646" lon="45.40271">
        <ele>425.571585</ele>
        <time>2021-08-12T09:32:56.366Z</time>
      </trkpt>
      <trkpt lat="42.06462" lon="45.40318">
        <ele>425.82382</ele>
        <time>2021-08-12T09:33:08.571Z</time>
      </trkpt>
      <trkpt lat="42.06507" lon="45.40484">
        <ele>427.233029</ele>
        <time>2021-08-12T09:33:58.761Z</time>
      </trkpt>
      <trkpt lat="42.06542" lon="45.40573">
        <ele>428.279205</ele>
        <time>2021-08-12T09:34:28.608Z</time>
      </trkpt>
      <trkpt lat="42.06605" lon="45.40736">
        <ele>430.048591</ele>
        <time>2021-08-12T09:35:21.905Z</time>
      </trkpt>
      <trkpt lat="42.06709" lon="45.40991">
        <ele>432.460649</ele>
        <time>2021-08-12T09:36:41.888Z</time>
      </trkpt>
      <trkpt lat="42.06754" lon="45.41098">
        <ele>433.326317</ele>
        <time>2021-08-12T09:37:15.656Z</time>
      </trkpt>
      <trkpt lat="42.06763" lon="45.41117">
        <ele>433.472258</ele>
        <time>2021-08-12T09:37:21.642Z</time>
      </trkpt>
      <trkpt lat="42.06784" lon="45.41159">
        <ele>433.795399</ele>
        <time>2021-08-12T09:37:35.205Z</time>
      </trkpt>
      <trkpt lat="42.07066" lon="45.41611">
        <ele>437.12614</ele>
        <time>2021-08-12T09:40:09.735Z</time>
      </trkpt>
      <trkpt lat="42.07142" lon="45.41736">
        <ele>438.220883</ele>
        <time>2021-08-12T09:40:53.014Z</time>
      </trkpt>
      <trkpt lat="42.0719" lon="45.41816">
        <ele>438.988604</ele>
        <time>2021-08-12T09:41:20.982Z</time>
      </trkpt>
      <trkpt lat="42.07274" lon="45.41948">
        <ele>440.653468</ele>
        <time>2021-08-12T09:42:11.087Z</time>
      </trkpt>
      <trkpt lat="42.07293" lon="45.41982">
        <ele>441.059479</ele>
        <time>2021-08-12T09:42:23.565Z</time>
      </trkpt>
      <trkpt lat="42.07307" lon="45.4201">
        <ele>441.380907</ele>
        <time>2021-08-12T09:42:33.252Z</time>
      </trkpt>
      <trkpt lat="42.07345" lon="45.42116">
        <ele>442.50151</ele>
        <time>2021-08-12T09:43:07.210Z</time>
      </trkpt>
      <trkpt lat="42.07397" lon="45.42263">
        <ele>443.926565</ele>
        <time>2021-08-12T09:43:52.586Z</time>
      </trkpt>
      <trkpt lat="42.0742" lon="45.42337">
        <ele>444.555657</ele>
        <time>2021-08-12T09:44:14.076Z</time>
      </trkpt>
      <trkpt lat="42.07432" lon="45.42372">
        <ele>444.861106</ele>
        <time>2021-08-12T09:44:24.635Z</time>
      </trkpt>
      <trkpt lat="42.07559" lon="45.42645">
        <ele>447.748592</ele>
        <time>2021-08-12T09:45:54.961Z</time>
      </trkpt>
      <trkpt lat="42.07564" lon="45.42654">
        <ele>447.875232</ele>
        <time>2021-08-12T09:45:58.506Z</time>
      </trkpt>
      <trkpt lat="42.07568" lon="45.42659">
        <ele>447.956992</ele>
        <time>2021-08-12T09:46:00.672Z</time>
      </trkpt>
      <trkpt lat="42.07608" lon="45.42747">
        <ele>449.112945</ele>
        <time>2021-08-12T09:46:31.166Z</time>
      </trkpt>
      <trkpt lat="42.07676" lon="45.42886">
        <ele>450.77211</ele>
        <time>2021-08-12T09:47:20.385Z</time>
      </trkpt>
      <trkpt lat="42.07725" lon="45.42994">
        <ele>451.833319</ele>
        <time>2021-08-12T09:47:56.304Z</time>
      </trkpt>
      <trkpt lat="42.07758" lon="45.43061">
        <ele>452.143593</ele>
        <time>2021-08-12T09:48:16.374Z</time>
      </trkpt>
      <trkpt lat="42.07766" lon="45.43079">
        <ele>452.11001</ele>
        <time>2021-08-12T09:48:21.516Z</time>
      </trkpt>
      <trkpt lat="42.07767" lon="45.43084">
        <ele>452.101997</ele>
        <time>2021-08-12T09:48:22.578Z</time>
      </trkpt>
      <trkpt lat="42.07785" lon="45.43126">
        <ele>452.024519</ele>
        <time>2021-08-12T09:48:33.406Z</time>
      </trkpt>
      <trkpt lat="42.07821" lon="45.43199">
        <ele>451.884712</ele>
        <time>2021-08-12T09:48:52.209Z</time>
      </trkpt>
      <trkpt lat="42.07834" lon="45.43231">
        <ele>451.826839</ele>
        <time>2021-08-12T09:48:59.586Z</time>
      </trkpt>
      <trkpt lat="42.07838" lon="45.43243">
        <ele>451.803798</ele>
        <time>2021-08-12T09:49:02.465Z</time>
      </trkpt>
      <trkpt lat="42.07842" lon="45.43256">
        <ele>451.776834</ele>
        <time>2021-08-12T09:49:05.187Z</time>
      </trkpt>
      <trkpt lat="42.07864" lon="45.43356">
        <ele>451.57473</ele>
        <time>2021-08-12T09:49:27.251Z</time>
      </trkpt>
      <trkpt lat="42.07885" lon="45.43457">
        <ele>451.372021</ele>
        <time>2021-08-12T09:49:51.530Z</time>
      </trkpt>
      <trkpt lat="42.07904" lon="45.43536">
        <ele>451.680148</ele>
        <time>2021-08-12T09:50:12.726Z</time>
      </trkpt>
      <trkpt lat="42.07922" lon="45.43618">
        <ele>452.086769</ele>
        <time>2021-08-12T09:50:35.122Z</time>
      </trkpt>
      <trkpt lat="42.07949" lon="45.43756">
        <ele>452.567095</ele>
        <time>2021-08-12T09:51:13.196Z</time>
      </trkpt>
      <trkpt lat="42.07954" lon="45.43858">
        <ele>452.685307</ele>
        <time>2021-08-12T09:51:37.366Z</time>
      </trkpt>
      <trkpt lat="42.07956" lon="45.43895">
        <ele>452.728938</ele>
        <time>2021-08-12T09:51:45.948Z</time>
      </trkpt>
      <trkpt lat="42.07925" lon="45.43912">
        <ele>452.779929</ele>
        <time>2021-08-12T09:51:56.024Z</time>
      </trkpt>
      <trkpt lat="42.07793" lon="45.43964">
        <ele>451.922529</ele>
        <time>2021-08-12T09:52:36.754Z</time>
      </trkpt>
      <trkpt lat="42.07689" lon="45.44026">
        <ele>451.03455</ele>
        <time>2021-08-12T09:53:09.702Z</time>
      </trkpt>
      <trkpt lat="42.07686" lon="45.44062">
        <ele>450.802206</ele>
        <time>2021-08-12T09:53:17.460Z</time>
      </trkpt>
      <trkpt lat="42.07659" lon="45.44063">
        <ele>450.563131</ele>
        <time>2021-08-12T09:53:25.309Z</time>
      </trkpt>
      <trkpt lat="42.07643" lon="45.44066">
        <ele>450.424139</ele>
        <time>2021-08-12T09:53:29.808Z</time>
      </trkpt>
      <trkpt lat="42.07563" lon="45.44134">
        <ele>449.548974</ele>
        <time>2021-08-12T09:53:56.189Z</time>
      </trkpt>
      <trkpt lat="42.07511" lon="45.44171">
        <ele>448.981787</ele>
        <time>2021-08-12T09:54:12.773Z</time>
      </trkpt>
      <trkpt lat="42.07509" lon="45.44173">
        <ele>448.960888</ele>
        <time>2021-08-12T09:54:13.276Z</time>
      </trkpt>
      <trkpt lat="42.07446" lon="45.44192">
        <ele>448.332645</ele>
        <time>2021-08-12T09:54:32.091Z</time>
      </trkpt>
      <trkpt lat="42.07434" lon="45.44194">
        <ele>448.290644</ele>
        <time>2021-08-12T09:54:35.385Z</time>
      </trkpt>
      <trkpt lat="42.07436" lon="45.44269">
        <ele>448.097171</ele>
        <time>2021-08-12T09:54:51.953Z</time>
      </trkpt>
      <trkpt lat="42.07435" lon="45.44306">
        <ele>447.99845</ele>
        <time>2021-08-12T09:55:00.513Z</time>
      </trkpt>
      <trkpt lat="42.0743" lon="45.44476">
        <ele>447.466368</ele>
        <time>2021-08-12T09:55:41.270Z</time>
      </trkpt>
      <trkpt lat="42.07427" lon="45.44618">
        <ele>446.861229</ele>
        <time>2021-08-12T09:56:12.941Z</time>
      </trkpt>
      <trkpt lat="42.07361" lon="45.4462">
        <ele>446.255523</ele>
        <time>2021-08-12T09:56:30.462Z</time>
      </trkpt>
      <trkpt lat="42.07277" lon="45.44624">
        <ele>445.208715</ele>
        <time>2021-08-12T09:56:51.981Z</time>
      </trkpt>
      <trkpt lat="42.07236" lon="45.44645">
        <ele>444.656725</ele>
        <time>2021-08-12T09:57:03.376Z</time>
      </trkpt>
      <trkpt lat="42.07222" lon="45.44657">
        <ele>444.445224</ele>
        <time>2021-08-12T09:57:07.687Z</time>
      </trkpt>
      <trkpt lat="42.0722" lon="45.44659">
        <ele>444.416575</ele>
        <time>2021-08-12T09:57:08.323Z</time>
      </trkpt>
      <trkpt lat="42.07204" lon="45.44673">
        <ele>444.256502</ele>
        <time>2021-08-12T09:57:13.670Z</time>
      </trkpt>
      <trkpt lat="42.07181" lon="45.44705">
        <ele>443.984868</ele>
        <time>2021-08-12T09:57:22.784Z</time>
      </trkpt>
      <trkpt lat="42.07142" lon="45.44779">
        <ele>443.435297</ele>
        <time>2021-08-12T09:57:41.360Z</time>
      </trkpt>
      <trkpt lat="42.07112" lon="45.44871">
        <ele>442.839816</ele>
        <time>2021-08-12T09:58:02.556Z</time>
      </trkpt>
      <trkpt lat="42.07012" lon="45.45192">
        <ele>440.810701</ele>
        <time>2021-08-12T09:59:14.717Z</time>
      </trkpt>
      <trkpt lat="42.06966" lon="45.45391">
        <ele>439.439045</ele>
        <time>2021-08-12T09:59:56.631Z</time>
      </trkpt>
      <trkpt lat="42.06911" lon="45.45591">
        <ele>438.033981</ele>
        <time>2021-08-12T10:00:40.153Z</time>
      </trkpt>
      <trkpt lat="42.06891" lon="45.45646">
        <ele>437.664045</ele>
        <time>2021-08-12T10:00:52.827Z</time>
      </trkpt>
      <trkpt lat="42.06854" lon="45.45709">
        <ele>437.182233</ele>
        <time>2021-08-12T10:01:09.319Z</time>
      </trkpt>
      <trkpt lat="42.06686" lon="45.459">
        <ele>435.396271</ele>
        <time>2021-08-12T10:02:10.192Z</time>
      </trkpt>
      <trkpt lat="42.06644" lon="45.45955">
        <ele>434.935851</ele>
        <time>2021-08-12T10:02:26.250Z</time>
      </trkpt>
      <trkpt lat="42.06453" lon="45.46269">
        <ele>432.568905</ele>
        <time>2021-08-12T10:03:50.185Z</time>
      </trkpt>
      <trkpt lat="42.06429" lon="45.4633">
        <ele>432.209332</ele>
        <time>2021-08-12T10:04:03.979Z</time>
      </trkpt>
      <trkpt lat="42.06424" lon="45.46355">
        <ele>432.074756</ele>
        <time>2021-08-12T10:04:09.023Z</time>
      </trkpt>
      <trkpt lat="42.06408" lon="45.465">
        <ele>431.414504</ele>
        <time>2021-08-12T10:04:40.029Z</time>
      </trkpt>
      <trkpt lat="42.06404" lon="45.4655">
        <ele>431.521961</ele>
        <time>2021-08-12T10:04:51.417Z</time>
      </trkpt>
      <trkpt lat="42.06402" lon="45.46573">
        <ele>431.569801</ele>
        <time>2021-08-12T10:04:56.753Z</time>
      </trkpt>
      <trkpt lat="42.06401" lon="45.46589">
        <ele>431.604741</ele>
        <time>2021-08-12T10:05:00.652Z</time>
      </trkpt>
      <trkpt lat="42.06397" lon="45.46635">
        <ele>431.702783</ele>
        <time>2021-08-12T10:05:11.906Z</time>
      </trkpt>
      <trkpt lat="42.06354" lon="45.47161">
        <ele>434.568936</ele>
        <time>2021-08-12T10:07:33.661Z</time>
      </trkpt>
      <trkpt lat="42.06343" lon="45.47215">
        <ele>434.870143</ele>
        <time>2021-08-12T10:07:47.884Z</time>
      </trkpt>
      <trkpt lat="42.06319" lon="45.4728">
        <ele>435.113677</ele>
        <time>2021-08-12T10:08:05.947Z</time>
      </trkpt>
      <trkpt lat="42.06312" lon="45.473">
        <ele>435.189243</ele>
        <time>2021-08-12T10:08:11.588Z</time>
      </trkpt>
      <trkpt lat="42.06305" lon="45.47319">
        <ele>435.2607</ele>
        <time>2021-08-12T10:08:16.824Z</time>
      </trkpt>
      <trkpt lat="42.06249" lon="45.47439">
        <ele>435.744869</ele>
        <time>2021-08-12T10:08:51.732Z</time>
      </trkpt>
      <trkpt lat="42.06208" lon="45.47496">
        <ele>436.055671</ele>
        <time>2021-08-12T10:09:11.840Z</time>
      </trkpt>
      <trkpt lat="42.062" lon="45.47507">
        <ele>436.118987</ele>
        <time>2021-08-12T10:09:15.940Z</time>
      </trkpt>
      <trkpt lat="42.06192" lon="45.4752">
        <ele>436.184734</ele>
        <time>2021-08-12T10:09:20.216Z</time>
      </trkpt>
      <trkpt lat="42.0614" lon="45.47594">
        <ele>436.581939</ele>
        <time>2021-08-12T10:09:46.238Z</time>
      </trkpt>
      <trkpt lat="42.0608" lon="45.47678">
        <ele>436.838328</ele>
        <time>2021-08-12T10:10:15.326Z</time>
      </trkpt>
      <trkpt lat="42.0607" lon="45.47694">
        <ele>436.883058</ele>
        <time>2021-08-12T10:10:20.532Z</time>
      </trkpt>
      <trkpt lat="42.05977" lon="45.47825">
        <ele>437.131433</ele>
        <time>2021-08-12T10:11:03.471Z</time>
      </trkpt>
      <trkpt lat="42.05883" lon="45.47918">
        <ele>437.166318</ele>
        <time>2021-08-12T10:11:39.755Z</time>
      </trkpt>
      <trkpt lat="42.05807" lon="45.4798">
        <ele>437.110107</ele>
        <time>2021-08-12T10:12:06.990Z</time>
      </trkpt>
      <trkpt lat="42.0576" lon="45.48016">
        <ele>437.069418</ele>
        <time>2021-08-12T10:12:23.548Z</time>
      </trkpt>
      <trkpt lat="42.05747" lon="45.48025">
        <ele>437.058088</ele>
        <time>2021-08-12T10:12:28.116Z</time>
      </trkpt>
      <trkpt lat="42.05713" lon="45.48055">
        <ele>437.014054</ele>
        <time>2021-08-12T10:12:40.201Z</time>
      </trkpt>
      <trkpt lat="42.0567" lon="45.48093">
        <ele>436.881074</ele>
        <time>2021-08-12T10:12:56.042Z</time>
      </trkpt>
      <trkpt lat="42.05477" lon="45.48247">
        <ele>436.007861</ele>
        <time>2021-08-12T10:14:02.133Z</time>
      </trkpt>
      <trkpt lat="42.05472" lon="45.48253">
        <ele>435.973349</ele>
        <time>2021-08-12T10:14:04.117Z</time>
      </trkpt>
      <trkpt lat="42.05467" lon="45.48257">
        <ele>435.941093</ele>
        <time>2021-08-12T10:14:05.868Z</time>
      </trkpt>
      <trkpt lat="42.05432" lon="45.48293">
        <ele>435.702675</ele>
        <time>2021-08-12T10:14:18.064Z</time>
      </trkpt>
      <trkpt lat="42.05426" lon="45.48299">
        <ele>435.666575</ele>
        <time>2021-08-12T10:14:19.669Z</time>
      </trkpt>
      <trkpt lat="42.05388" lon="45.48351">
        <ele>435.333806</ele>
        <time>2021-08-12T10:14:34.983Z</time>
      </trkpt>
      <trkpt lat="42.0538" lon="45.48368">
        <ele>435.235833</ele>
        <time>2021-08-12T10:14:38.988Z</time>
      </trkpt>
      <trkpt lat="42.05366" lon="45.48396">
        <ele>435.078461</ele>
        <time>2021-08-12T10:14:46.149Z</time>
      </trkpt>
      <trkpt lat="42.05345" lon="45.48451">
        <ele>434.787264</ele>
        <time>2021-08-12T10:14:58.675Z</time>
      </trkpt>
      <trkpt lat="42.05333" lon="45.48483">
        <ele>434.620563</ele>
        <time>2021-08-12T10:15:06.361Z</time>
      </trkpt>
      <trkpt lat="42.05324" lon="45.48513">
        <ele>434.466847</ele>
        <time>2021-08-12T10:15:13.604Z</time>
      </trkpt>
      <trkpt lat="42.05324" lon="45.48514">
        <ele>434.461365</ele>
        <time>2021-08-12T10:15:13.912Z</time>
      </trkpt>
      <trkpt lat="42.05297" lon="45.48589">
        <ele>434.658024</ele>
        <time>2021-08-12T10:15:33.572Z</time>
      </trkpt>
      <trkpt lat="42.05296" lon="45.48594">
        <ele>434.671374</ele>
        <time>2021-08-12T10:15:35.139Z</time>
      </trkpt>
      <trkpt lat="42.05255" lon="45.48715">
        <ele>434.983097</ele>
        <time>2021-08-12T10:16:08.418Z</time>
      </trkpt>
      <trkpt lat="42.05243" lon="45.48744">
        <ele>435.057946</ele>
        <time>2021-08-12T10:16:17.220Z</time>
      </trkpt>
      <trkpt lat="42.0524" lon="45.48752">
        <ele>435.075212</ele>
        <time>2021-08-12T10:16:19.494Z</time>
      </trkpt>
      <trkpt lat="42.05229" lon="45.48779">
        <ele>435.134131</ele>
        <time>2021-08-12T10:16:27.459Z</time>
      </trkpt>
      <trkpt lat="42.05133" lon="45.48933">
        <ele>435.470514</ele>
        <time>2021-08-12T10:17:15.786Z</time>
      </trkpt>
      <trkpt lat="42.0512" lon="45.48957">
        <ele>435.38926</ele>
        <time>2021-08-12T10:17:22.511Z</time>
      </trkpt>
      <trkpt lat="42.05117" lon="45.48962">
        <ele>435.374506</ele>
        <time>2021-08-12T10:17:23.735Z</time>
      </trkpt>
      <trkpt lat="42.05099" lon="45.48997">
        <ele>435.259189</ele>
        <time>2021-08-12T10:17:33.151Z</time>
      </trkpt>
      <trkpt lat="42.0508" lon="45.49037">
        <ele>435.133316</ele>
        <time>2021-08-12T10:17:43.334Z</time>
      </trkpt>
      <trkpt lat="42.05055" lon="45.49073">
        <ele>435.003325</ele>
        <time>2021-08-12T10:17:53.777Z</time>
      </trkpt>
      <trkpt lat="42.05041" lon="45.49095">
        <ele>434.926262</ele>
        <time>2021-08-12T10:17:59.932Z</time>
      </trkpt>
      <trkpt lat="42.05009" lon="45.49138">
        <ele>434.65671</ele>
        <time>2021-08-12T10:18:12.884Z</time>
      </trkpt>
      <trkpt lat="42.04979" lon="45.49194">
        <ele>434.264364</ele>
        <time>2021-08-12T10:18:27.319Z</time>
      </trkpt>
      <trkpt lat="42.04963" lon="45.49228">
        <ele>434.035356</ele>
        <time>2021-08-12T10:18:35.647Z</time>
      </trkpt>
      <trkpt lat="42.04958" lon="45.49239">
        <ele>433.961797</ele>
        <time>2021-08-12T10:18:38.342Z</time>
      </trkpt>
      <trkpt lat="42.04938" lon="45.49275">
        <ele>433.702556</ele>
        <time>2021-08-12T10:18:47.662Z</time>
      </trkpt>
      <trkpt lat="42.04891" lon="45.49371">
        <ele>432.995192</ele>
        <time>2021-08-12T10:19:10.638Z</time>
      </trkpt>
      <trkpt lat="42.04857" lon="45.49448">
        <ele>432.420547</ele>
        <time>2021-08-12T10:19:28.599Z</time>
      </trkpt>
      <trkpt lat="42.04838" lon="45.49487">
        <ele>432.124602</ele>
        <time>2021-08-12T10:19:38.096Z</time>
      </trkpt>
      <trkpt lat="42.0481" lon="45.49566">
        <ele>431.892352</ele>
        <time>2021-08-12T10:19:56.658Z</time>
      </trkpt>
      <trkpt lat="42.04772" lon="45.49674">
        <ele>431.836596</ele>
        <time>2021-08-12T10:20:23.578Z</time>
      </trkpt>
      <trkpt lat="42.04751" lon="45.4973">
        <ele>431.806937</ele>
        <time>2021-08-12T10:20:39.654Z</time>
      </trkpt>
      <trkpt lat="42.04706" lon="45.49849">
        <ele>432.494962</ele>
        <time>2021-08-12T10:21:14.577Z</time>
      </trkpt>
      <trkpt lat="42.04698" lon="45.4987">
        <ele>432.619887</ele>
        <time>2021-08-12T10:21:20.878Z</time>
      </trkpt>
      <trkpt lat="42.04679" lon="45.49916">
        <ele>432.902016</ele>
        <time>2021-08-12T10:21:34.731Z</time>
      </trkpt>
      <trkpt lat="42.04673" lon="45.4993">
        <ele>432.984772</ele>
        <time>2021-08-12T10:21:38.725Z</time>
      </trkpt>
      <trkpt lat="42.04657" lon="45.49973">
        <ele>433.244127</ele>
        <time>2021-08-12T10:21:51.513Z</time>
      </trkpt>
      <trkpt lat="42.04629" lon="45.5004">
        <ele>433.662685</ele>
        <time>2021-08-12T10:22:12.484Z</time>
      </trkpt>
      <trkpt lat="42.04615" lon="45.50117">
        <ele>434.094192</ele>
        <time>2021-08-12T10:22:33.523Z</time>
      </trkpt>
      <trkpt lat="42.04611" lon="45.50129">
        <ele>434.163025</ele>
        <time>2021-08-12T10:22:36.827Z</time>
      </trkpt>
      <trkpt lat="42.04607" lon="45.50133">
        <ele>434.199066</ele>
        <time>2021-08-12T10:22:38.529Z</time>
      </trkpt>
      <trkpt lat="42.04611" lon="45.50204">
        <ele>434.447735</ele>
        <time>2021-08-12T10:22:56.517Z</time>
      </trkpt>
      <trkpt lat="42.04597" lon="45.50266">
        <ele>434.52487</ele>
        <time>2021-08-12T10:23:12.478Z</time>
      </trkpt>
      <trkpt lat="42.04573" lon="45.50311">
        <ele>434.589084</ele>
        <time>2021-08-12T10:23:25.789Z</time>
      </trkpt>
      <trkpt lat="42.04518" lon="45.50382">
        <ele>434.703439</ele>
        <time>2021-08-12T10:23:50.067Z</time>
      </trkpt>
      <trkpt lat="42.04507" lon="45.50425">
        <ele>434.735034</ele>
        <time>2021-08-12T10:24:00.704Z</time>
      </trkpt>
      <trkpt lat="42.04482" lon="45.50421">
        <ele>434.758192</ele>
        <time>2021-08-12T10:24:08.526Z</time>
      </trkpt>
      <trkpt lat="42.04488" lon="45.50519">
        <ele>434.825151</ele>
        <time>2021-08-12T10:24:32.469Z</time>
      </trkpt>
      <trkpt lat="42.04493" lon="45.50593">
        <ele>434.93086</ele>
        <time>2021-08-12T10:24:51.906Z</time>
      </trkpt>
      <trkpt lat="42.04502" lon="45.50652">
        <ele>435.123686</ele>
        <time>2021-08-12T10:25:08.183Z</time>
      </trkpt>
      <trkpt lat="42.04502" lon="45.50693">
        <ele>435.251733</ele>
        <time>2021-08-12T10:25:18.763Z</time>
      </trkpt>
      <trkpt lat="42.04497" lon="45.50717">
        <ele>435.329935</ele>
        <time>2021-08-12T10:25:25.149Z</time>
      </trkpt>
      <trkpt lat="42.04491" lon="45.50753">
        <ele>435.446775</ele>
        <time>2021-08-12T10:25:34.844Z</time>
      </trkpt>
      <trkpt lat="42.04483" lon="45.50792">
        <ele>435.57456</ele>
        <time>2021-08-12T10:25:45.173Z</time>
      </trkpt>
      <trkpt lat="42.04471" lon="45.50883">
        <ele>435.745886</ele>
        <time>2021-08-12T10:26:08.620Z</time>
      </trkpt>
      <trkpt lat="42.04496" lon="45.50894">
        <ele>435.802396</ele>
        <time>2021-08-12T10:26:17.579Z</time>
      </trkpt>
      <trkpt lat="42.04545" lon="45.50921">
        <ele>435.912946</ele>
        <time>2021-08-12T10:26:34.806Z</time>
      </trkpt>
      <trkpt lat="42.04542" lon="45.51008">
        <ele>436.06098</ele>
        <time>2021-08-12T10:26:56.623Z</time>
      </trkpt>
      <trkpt lat="42.04544" lon="45.51116">
        <ele>436.271399</ele>
        <time>2021-08-12T10:27:24.267Z</time>
      </trkpt>
      <trkpt lat="42.04545" lon="45.51219">
        <ele>436.471948</ele>
        <time>2021-08-12T10:27:50.361Z</time>
      </trkpt>
      <trkpt lat="42.04541" lon="45.51259">
        <ele>436.353051</ele>
        <time>2021-08-12T10:28:00.173Z</time>
      </trkpt>
      <trkpt lat="42.04537" lon="45.51299">
        <ele>436.214038</ele>
        <time>2021-08-12T10:28:09.715Z</time>
      </trkpt>
      <trkpt lat="42.04517" lon="45.51404">
        <ele>435.838277</ele>
        <time>2021-08-12T10:28:34.230Z</time>
      </trkpt>
      <trkpt lat="42.04392" lon="45.51721">
        <ele>432.905071</ele>
        <time>2021-08-12T10:29:48.318Z</time>
      </trkpt>
      <trkpt lat="42.04336" lon="45.51834">
        <ele>431.50675</ele>
        <time>2021-08-12T10:30:15.609Z</time>
      </trkpt>
      <trkpt lat="42.04296" lon="45.51897">
        <ele>430.571161</ele>
        <time>2021-08-12T10:30:32.156Z</time>
      </trkpt>
      <trkpt lat="42.04281" lon="45.51937">
        <ele>430.016519</ele>
        <time>2021-08-12T10:30:40.937Z</time>
      </trkpt>
      <trkpt lat="42.04235" lon="45.52029">
        <ele>428.635762</ele>
        <time>2021-08-12T10:31:02.725Z</time>
      </trkpt>
      <trkpt lat="42.04177" lon="45.52203">
        <ele>426.348588</ele>
        <time>2021-08-12T10:31:40.121Z</time>
      </trkpt>
      <trkpt lat="42.04167" lon="45.52216">
        <ele>426.129956</ele>
        <time>2021-08-12T10:31:43.707Z</time>
      </trkpt>
      <trkpt lat="42.04158" lon="45.52228">
        <ele>425.936072</ele>
        <time>2021-08-12T10:31:47.134Z</time>
      </trkpt>
      <trkpt lat="42.0414" lon="45.52233">
        <ele>425.637273</ele>
        <time>2021-08-12T10:31:52.287Z</time>
      </trkpt>
      <trkpt lat="42.04109" lon="45.52228">
        <ele>425.149952</ele>
        <time>2021-08-12T10:32:00.948Z</time>
      </trkpt>
      <trkpt lat="42.03973" lon="45.52188">
        <ele>423.551906</ele>
        <time>2021-08-12T10:32:39.994Z</time>
      </trkpt>
      <trkpt lat="42.03946" lon="45.52182">
        <ele>423.244177</ele>
        <time>2021-08-12T10:32:47.440Z</time>
      </trkpt>
      <trkpt lat="42.03905" lon="45.52235">
        <ele>422.452687</ele>
        <time>2021-08-12T10:33:02.251Z</time>
      </trkpt>
      <trkpt lat="42.03837" lon="45.52321">
        <ele>421.078581</ele>
        <time>2021-08-12T10:33:26.116Z</time>
      </trkpt>
      <trkpt lat="42.03503" lon="45.52753">
        <ele>414.033211</ele>
        <time>2021-08-12T10:35:24.944Z</time>
      </trkpt>
      <trkpt lat="42.03492" lon="45.52766">
        <ele>413.822536</ele>
        <time>2021-08-12T10:35:28.493Z</time>
      </trkpt>
      <trkpt lat="42.02902" lon="45.53529">
        <ele>401.73256</ele>
        <time>2021-08-12T10:38:59.478Z</time>
      </trkpt>
      <trkpt lat="42.02462" lon="45.54112">
        <ele>393.528184</ele>
        <time>2021-08-12T10:41:40.436Z</time>
      </trkpt>
      <trkpt lat="42.02434" lon="45.54148">
        <ele>393.080341</ele>
        <time>2021-08-12T10:41:50.651Z</time>
      </trkpt>
      <trkpt lat="42.02415" lon="45.54172">
        <ele>392.777616</ele>
        <time>2021-08-12T10:41:57.578Z</time>
      </trkpt>
      <trkpt lat="42.02273" lon="45.54351">
        <ele>390.719747</ele>
        <time>2021-08-12T10:42:50.454Z</time>
      </trkpt>
      <trkpt lat="42.01477" lon="45.5539">
        <ele>377.348912</ele>
        <time>2021-08-12T10:47:43.204Z</time>
      </trkpt>
      <trkpt lat="42.00731" lon="45.56331">
        <ele>366.911651</ele>
        <time>2021-08-12T10:52:19.760Z</time>
      </trkpt>
      <trkpt lat="42.00016" lon="45.57249">
        <ele>355.130382</ele>
        <time>2021-08-12T10:56:40.468Z</time>
      </trkpt>
      <trkpt lat="41.99953" lon="45.57336">
        <ele>354.482618</ele>
        <time>2021-08-12T10:57:06.210Z</time>
      </trkpt>
      <trkpt lat="41.99936" lon="45.57358">
        <ele>354.313314</ele>
        <time>2021-08-12T10:57:13.038Z</time>
      </trkpt>
      <trkpt lat="41.99716" lon="45.57638">
        <ele>352.380333</ele>
        <time>2021-08-12T10:58:38.765Z</time>
      </trkpt>
      <trkpt lat="41.99499" lon="45.57912">
        <ele>350.510658</ele>
        <time>2021-08-12T11:00:02.372Z</time>
      </trkpt>
      <trkpt lat="41.99159" lon="45.58341">
        <ele>348.760167</ele>
        <time>2021-08-12T11:02:19.181Z</time>
      </trkpt>
      <trkpt lat="41.99083" lon="45.58434">
        <ele>348.557498</ele>
        <time>2021-08-12T11:02:49.951Z</time>
      </trkpt>
      <trkpt lat="41.99063" lon="45.58457">
        <ele>348.529816</ele>
        <time>2021-08-12T11:02:58.150Z</time>
      </trkpt>
      <trkpt lat="41.9906" lon="45.58458">
        <ele>348.52707</ele>
        <time>2021-08-12T11:02:58.933Z</time>
      </trkpt>
      <trkpt lat="41.99058" lon="45.5846">
        <ele>348.524384</ele>
        <time>2021-08-12T11:02:59.621Z</time>
      </trkpt>
      <trkpt lat="41.99056" lon="45.58469">
        <ele>348.516589</ele>
        <time>2021-08-12T11:03:01.981Z</time>
      </trkpt>
      <trkpt lat="41.99057" lon="45.58473">
        <ele>348.513862</ele>
        <time>2021-08-12T11:03:02.680Z</time>
      </trkpt>
      <trkpt lat="41.99059" lon="45.58475">
        <ele>348.511117</ele>
        <time>2021-08-12T11:03:03.519Z</time>
      </trkpt>
      <trkpt lat="41.99061" lon="45.58477">
        <ele>348.508299</ele>
        <time>2021-08-12T11:03:04.358Z</time>
      </trkpt>
      <trkpt lat="41.99063" lon="45.58478">
        <ele>348.505531</ele>
        <time>2021-08-12T11:03:05.204Z</time>
      </trkpt>
      <trkpt lat="41.99086" lon="45.58493">
        <ele>348.479108</ele>
        <time>2021-08-12T11:03:13.095Z</time>
      </trkpt>
      <trkpt lat="42.00149" lon="45.59297">
        <ele>348.834025</ele>
        <time>2021-08-12T11:09:36.677Z</time>
      </trkpt>
      <trkpt lat="42.0023" lon="45.59367">
        <ele>348.569652</ele>
        <time>2021-08-12T11:10:04.506Z</time>
      </trkpt>
      <trkpt lat="42.00252" lon="45.59402">
        <ele>348.343978</ele>
        <time>2021-08-12T11:10:14.134Z</time>
      </trkpt>
      <trkpt lat="42.00258" lon="45.59426">
        <ele>348.223506</ele>
        <time>2021-08-12T11:10:19.332Z</time>
      </trkpt>
      <trkpt lat="42.00261" lon="45.59442">
        <ele>348.138945</ele>
        <time>2021-08-12T11:10:22.798Z</time>
      </trkpt>
      <trkpt lat="42.00253" lon="45.59489">
        <ele>347.903552</ele>
        <time>2021-08-12T11:10:32.707Z</time>
      </trkpt>
      <trkpt lat="42.00214" lon="45.59686">
        <ele>347.049554</ele>
        <time>2021-08-12T11:11:15.369Z</time>
      </trkpt>
      <trkpt lat="42.00196" lon="45.59786">
        <ele>346.680527</ele>
        <time>2021-08-12T11:11:37.748Z</time>
      </trkpt>
      <trkpt lat="42.00147" lon="45.60029">
        <ele>346.260715</ele>
        <time>2021-08-12T11:12:34.122Z</time>
      </trkpt>
      <trkpt lat="42.00119" lon="45.60173">
        <ele>346.355299</ele>
        <time>2021-08-12T11:13:08.951Z</time>
      </trkpt>
      <trkpt lat="42.00086" lon="45.60344">
        <ele>346.699487</ele>
        <time>2021-08-12T11:13:52.029Z</time>
      </trkpt>
      <trkpt lat="42.00079" lon="45.60409">
        <ele>346.942132</ele>
        <time>2021-08-12T11:14:07.996Z</time>
      </trkpt>
      <trkpt lat="42.00017" lon="45.6155">
        <ele>352.773173</ele>
        <time>2021-08-12T11:19:05.428Z</time>
      </trkpt>
      <trkpt lat="41.99982" lon="45.62226">
        <ele>359.070363</ele>
        <time>2021-08-12T11:22:18.624Z</time>
      </trkpt>
      <trkpt lat="41.99975" lon="45.62348">
        <ele>360.779927</ele>
        <time>2021-08-12T11:22:56.656Z</time>
      </trkpt>
      <trkpt lat="41.99892" lon="45.64133">
        <ele>388.719125</ele>
        <time>2021-08-12T11:32:28.440Z</time>
      </trkpt>
      <trkpt lat="41.99892" lon="45.64138">
        <ele>388.800243</ele>
        <time>2021-08-12T11:32:30.600Z</time>
      </trkpt>
      <trkpt lat="41.99896" lon="45.64195">
        <ele>389.823404</ele>
        <time>2021-08-12T11:32:49.603Z</time>
      </trkpt>
      <trkpt lat="41.99947" lon="45.64499">
        <ele>395.502341</ele>
        <time>2021-08-12T11:34:33.069Z</time>
      </trkpt>
      <trkpt lat="41.99985" lon="45.64739">
        <ele>400.375846</ele>
        <time>2021-08-12T11:35:56.638Z</time>
      </trkpt>
      <trkpt lat="42.00023" lon="45.64964">
        <ele>405.430934</ele>
        <time>2021-08-12T11:37:19.368Z</time>
      </trkpt>
      <trkpt lat="42.00067" lon="45.65226">
        <ele>411.376568</ele>
        <time>2021-08-12T11:38:56.765Z</time>
      </trkpt>
      <trkpt lat="42.00075" lon="45.65298">
        <ele>412.938853</ele>
        <time>2021-08-12T11:39:21.964Z</time>
      </trkpt>
      <trkpt lat="42.00067" lon="45.65344">
        <ele>413.839183</ele>
        <time>2021-08-12T11:39:37.946Z</time>
      </trkpt>
      <trkpt lat="42.00027" lon="45.65434">
        <ele>415.442018</ele>
        <time>2021-08-12T11:40:11.470Z</time>
      </trkpt>
      <trkpt lat="42" lon="45.65493">
        <ele>416.50393</ele>
        <time>2021-08-12T11:40:32.713Z</time>
      </trkpt>
      <trkpt lat="41.99984" lon="45.65555">
        <ele>417.500929</ele>
        <time>2021-08-12T11:40:52.590Z</time>
      </trkpt>
      <trkpt lat="41.99987" lon="45.65609">
        <ele>418.329088</ele>
        <time>2021-08-12T11:41:09.574Z</time>
      </trkpt>
      <trkpt lat="42.00011" lon="45.65709">
        <ele>419.942786</ele>
        <time>2021-08-12T11:41:42.805Z</time>
      </trkpt>
      <trkpt lat="42.00027" lon="45.65774">
        <ele>421.002091</ele>
        <time>2021-08-12T11:42:05.261Z</time>
      </trkpt>
      <trkpt lat="42.00051" lon="45.65863">
        <ele>422.821266</ele>
        <time>2021-08-12T11:42:37.143Z</time>
      </trkpt>
      <trkpt lat="42.0008" lon="45.65926">
        <ele>424.247447</ele>
        <time>2021-08-12T11:43:02.466Z</time>
      </trkpt>
      <trkpt lat="42.00115" lon="45.65984">
        <ele>425.689081</ele>
        <time>2021-08-12T11:43:27.880Z</time>
      </trkpt>
      <trkpt lat="42.00203" lon="45.66091">
        <ele>429.034308</ele>
        <time>2021-08-12T11:44:24.242Z</time>
      </trkpt>
      <trkpt lat="42.0021" lon="45.661">
        <ele>429.288616</ele>
        <time>2021-08-12T11:44:28.613Z</time>
      </trkpt>
      <trkpt lat="42.00215" lon="45.66105">
        <ele>429.468142</ele>
        <time>2021-08-12T11:44:31.183Z</time>
      </trkpt>
      <trkpt lat="42.00241" lon="45.66137">
        <ele>430.474023</ele>
        <time>2021-08-12T11:44:47.532Z</time>
      </trkpt>
      <trkpt lat="42.00248" lon="45.66145">
        <ele>430.732748</ele>
        <time>2021-08-12T11:44:51.587Z</time>
      </trkpt>
      <trkpt lat="42.00258" lon="45.6616">
        <ele>431.207233</ele>
        <time>2021-08-12T11:44:59.131Z</time>
      </trkpt>
      <trkpt lat="42.00267" lon="45.66177">
        <ele>431.679677</ele>
        <time>2021-08-12T11:45:05.646Z</time>
      </trkpt>
      <trkpt lat="42.00271" lon="45.66187">
        <ele>431.957334</ele>
        <time>2021-08-12T11:45:10.027Z</time>
      </trkpt>
      <trkpt lat="42.00274" lon="45.66194">
        <ele>432.128272</ele>
        <time>2021-08-12T11:45:12.993Z</time>
      </trkpt>
      <trkpt lat="42.00282" lon="45.66242">
        <ele>433.298898</ele>
        <time>2021-08-12T11:45:31.171Z</time>
      </trkpt>
      <trkpt lat="42.00281" lon="45.66282">
        <ele>434.21741</ele>
        <time>2021-08-12T11:45:45.613Z</time>
      </trkpt>
      <trkpt lat="42.00274" lon="45.66318">
        <ele>435.091822</ele>
        <time>2021-08-12T11:45:59.297Z</time>
      </trkpt>
      <trkpt lat="42.00262" lon="45.66344">
        <ele>435.792103</ele>
        <time>2021-08-12T11:46:11.088Z</time>
      </trkpt>
      <trkpt lat="42.00233" lon="45.66405">
        <ele>437.505227</ele>
        <time>2021-08-12T11:46:37.590Z</time>
      </trkpt>
      <trkpt lat="42.00232" lon="45.66407">
        <ele>437.565589</ele>
        <time>2021-08-12T11:46:38.547Z</time>
      </trkpt>
      <trkpt lat="42.00192" lon="45.66489">
        <ele>439.866608</ele>
        <time>2021-08-12T11:47:14.424Z</time>
      </trkpt>
      <trkpt lat="42.00157" lon="45.66563">
        <ele>441.929134</ele>
        <time>2021-08-12T11:47:46.550Z</time>
      </trkpt>
      <trkpt lat="42.00104" lon="45.66677">
        <ele>444.384026</ele>
        <time>2021-08-12T11:48:31.798Z</time>
      </trkpt>
      <trkpt lat="42.00093" lon="45.66713">
        <ele>445.084139</ele>
        <time>2021-08-12T11:48:44.062Z</time>
      </trkpt>
      <trkpt lat="42.00087" lon="45.66737">
        <ele>445.536826</ele>
        <time>2021-08-12T11:48:52.635Z</time>
      </trkpt>
      <trkpt lat="42.00066" lon="45.66844">
        <ele>447.195886</ele>
        <time>2021-08-12T11:49:28.065Z</time>
      </trkpt>
      <trkpt lat="42.00061" lon="45.66872">
        <ele>447.555496</ele>
        <time>2021-08-12T11:49:37.730Z</time>
      </trkpt>
      <trkpt lat="42.0006" lon="45.66878">
        <ele>447.62515</ele>
        <time>2021-08-12T11:49:39.351Z</time>
      </trkpt>
      <trkpt lat="42.0006" lon="45.66893">
        <ele>447.822935</ele>
        <time>2021-08-12T11:49:43.635Z</time>
      </trkpt>
      <trkpt lat="42.00061" lon="45.66903">
        <ele>447.951716</ele>
        <time>2021-08-12T11:49:46.630Z</time>
      </trkpt>
      <trkpt lat="42.00062" lon="45.66909">
        <ele>448.026238</ele>
        <time>2021-08-12T11:49:48.936Z</time>
      </trkpt>
      <trkpt lat="42.00084" lon="45.66985">
        <ele>449.045787</ele>
        <time>2021-08-12T11:50:13.089Z</time>
      </trkpt>
      <trkpt lat="42.00084" lon="45.67">
        <ele>449.233718</ele>
        <time>2021-08-12T11:50:17.810Z</time>
      </trkpt>
      <trkpt lat="42.00082" lon="45.67011">
        <ele>449.374008</ele>
        <time>2021-08-12T11:50:21.084Z</time>
      </trkpt>
      <trkpt lat="42.00074" lon="45.67038">
        <ele>449.402359</ele>
        <time>2021-08-12T11:50:28.230Z</time>
      </trkpt>
      <trkpt lat="42.00053" lon="45.67088">
        <ele>449.343414</ele>
        <time>2021-08-12T11:50:43.406Z</time>
      </trkpt>
      <trkpt lat="42.00013" lon="45.67166">
        <ele>449.246038</ele>
        <time>2021-08-12T11:51:03.947Z</time>
      </trkpt>
      <trkpt lat="41.99999" lon="45.67176">
        <ele>449.224347</ele>
        <time>2021-08-12T11:51:08.369Z</time>
      </trkpt>
      <trkpt lat="41.9997" lon="45.67192">
        <ele>449.182112</ele>
        <time>2021-08-12T11:51:16.691Z</time>
      </trkpt>
      <trkpt lat="41.99917" lon="45.67219">
        <ele>448.519503</ele>
        <time>2021-08-12T11:51:31.620Z</time>
      </trkpt>
      <trkpt lat="41.99899" lon="45.67228">
        <ele>448.288158</ele>
        <time>2021-08-12T11:51:36.516Z</time>
      </trkpt>
      <trkpt lat="41.99875" lon="45.6724">
        <ele>447.979088</ele>
        <time>2021-08-12T11:51:43.272Z</time>
      </trkpt>
      <trkpt lat="41.9985" lon="45.67257">
        <ele>447.63949</ele>
        <time>2021-08-12T11:51:50.501Z</time>
      </trkpt>
      <trkpt lat="41.99815" lon="45.67291">
        <ele>447.122066</ele>
        <time>2021-08-12T11:52:01.958Z</time>
      </trkpt>
      <trkpt lat="41.998" lon="45.67306">
        <ele>446.902459</ele>
        <time>2021-08-12T11:52:06.954Z</time>
      </trkpt>
      <trkpt lat="41.99746" lon="45.67355">
        <ele>446.170546</ele>
        <time>2021-08-12T11:52:24.846Z</time>
      </trkpt>
      <trkpt lat="41.99573" lon="45.67468">
        <ele>443.460909</ele>
        <time>2021-08-12T11:53:15.392Z</time>
      </trkpt>
      <trkpt lat="41.99525" lon="45.67499">
        <ele>442.536824</ele>
        <time>2021-08-12T11:53:28.445Z</time>
      </trkpt>
      <trkpt lat="41.99254" lon="45.67671">
        <ele>435.81078</ele>
        <time>2021-08-12T11:54:40.173Z</time>
      </trkpt>
      <trkpt lat="41.99116" lon="45.67756">
        <ele>432.391091</ele>
        <time>2021-08-12T11:55:17.180Z</time>
      </trkpt>
      <trkpt lat="41.98823" lon="45.67938">
        <ele>424.8911</ele>
        <time>2021-08-12T11:56:34.551Z</time>
      </trkpt>
      <trkpt lat="41.98669" lon="45.68041">
        <ele>421.35246</ele>
        <time>2021-08-12T11:57:16.673Z</time>
      </trkpt>
      <trkpt lat="41.98635" lon="45.68064">
        <ele>420.80359</ele>
        <time>2021-08-12T11:57:26.218Z</time>
      </trkpt>
      <trkpt lat="41.98598" lon="45.68105">
        <ele>420.099432</ele>
        <time>2021-08-12T11:57:38.605Z</time>
      </trkpt>
      <trkpt lat="41.98453" lon="45.68314">
        <ele>417.470245</ele>
        <time>2021-08-12T11:58:34.595Z</time>
      </trkpt>
      <trkpt lat="41.98425" lon="45.68355">
        <ele>417.017868</ele>
        <time>2021-08-12T11:58:45.872Z</time>
      </trkpt>
      <trkpt lat="41.98405" lon="45.68382">
        <ele>416.83464</ele>
        <time>2021-08-12T11:58:53.630Z</time>
      </trkpt>
      <trkpt lat="41.98264" lon="45.68561">
        <ele>416.568443</ele>
        <time>2021-08-12T11:59:51.488Z</time>
      </trkpt>
      <trkpt lat="41.98215" lon="45.68623">
        <ele>417.151179</ele>
        <time>2021-08-12T12:00:15.996Z</time>
      </trkpt>
      <trkpt lat="41.98134" lon="45.68724">
        <ele>418.138564</ele>
        <time>2021-08-12T12:00:58.670Z</time>
      </trkpt>
      <trkpt lat="41.98106" lon="45.68755">
        <ele>418.491411</ele>
        <time>2021-08-12T12:01:12.757Z</time>
      </trkpt>
      <trkpt lat="41.98098" lon="45.68769">
        <ele>418.619707</ele>
        <time>2021-08-12T12:01:18.283Z</time>
      </trkpt>
      <trkpt lat="41.98063" lon="45.68816">
        <ele>419.098236</ele>
        <time>2021-08-12T12:01:36.577Z</time>
      </trkpt>
      <trkpt lat="41.97887" lon="45.69158">
        <ele>419.954362</ele>
        <time>2021-08-12T12:03:17.577Z</time>
      </trkpt>
      <trkpt lat="41.97702" lon="45.69519">
        <ele>418.602393</ele>
        <time>2021-08-12T12:04:51.342Z</time>
      </trkpt>
      <trkpt lat="41.97692" lon="45.69538">
        <ele>418.507596</ele>
        <time>2021-08-12T12:04:56.234Z</time>
      </trkpt>
      <trkpt lat="41.97381" lon="45.70166">
        <ele>415.04221</ele>
        <time>2021-08-12T12:07:36.330Z</time>
      </trkpt>
      <trkpt lat="41.9728" lon="45.70368">
        <ele>412.936603</ele>
        <time>2021-08-12T12:08:24.249Z</time>
      </trkpt>
      <trkpt lat="41.97126" lon="45.70672">
        <ele>408.368117</ele>
        <time>2021-08-12T12:09:33.152Z</time>
      </trkpt>
      <trkpt lat="41.96664" lon="45.71603">
        <ele>392.712216</ele>
        <time>2021-08-12T12:13:00.306Z</time>
      </trkpt>
      <trkpt lat="41.96589" lon="45.71753">
        <ele>390.155912</ele>
        <time>2021-08-12T12:13:33.954Z</time>
      </trkpt>
      <trkpt lat="41.96497" lon="45.71936">
        <ele>386.892432</ele>
        <time>2021-08-12T12:14:14.437Z</time>
      </trkpt>
      <trkpt lat="41.96246" lon="45.72436">
        <ele>377.231206</ele>
        <time>2021-08-12T12:16:03.586Z</time>
      </trkpt>
      <trkpt lat="41.95645" lon="45.73651">
        <ele>354.595879</ele>
        <time>2021-08-12T12:20:29.196Z</time>
      </trkpt>
      <trkpt lat="41.95527" lon="45.73889">
        <ele>351.100454</ele>
        <time>2021-08-12T12:21:23.857Z</time>
      </trkpt>
      <trkpt lat="41.9547" lon="45.74004">
        <ele>349.459688</ele>
        <time>2021-08-12T12:21:50.184Z</time>
      </trkpt>
      <trkpt lat="41.95195" lon="45.74565">
        <ele>341.528552</ele>
        <time>2021-08-12T12:23:56.882Z</time>
      </trkpt>
      <trkpt lat="41.95009" lon="45.74932">
        <ele>337.82478</ele>
        <time>2021-08-12T12:25:25.317Z</time>
      </trkpt>
      <trkpt lat="41.94996" lon="45.74961">
        <ele>337.655811</ele>
        <time>2021-08-12T12:25:32.215Z</time>
      </trkpt>
      <trkpt lat="41.94989" lon="45.74976">
        <ele>337.56898</ele>
        <time>2021-08-12T12:25:35.785Z</time>
      </trkpt>
      <trkpt lat="41.94986" lon="45.74981">
        <ele>337.5416</ele>
        <time>2021-08-12T12:25:36.913Z</time>
      </trkpt>
      <trkpt lat="41.94977" lon="45.75">
        <ele>337.43018</ele>
        <time>2021-08-12T12:25:41.475Z</time>
      </trkpt>
      <trkpt lat="41.94973" lon="45.75009">
        <ele>337.377854</ele>
        <time>2021-08-12T12:25:43.614Z</time>
      </trkpt>
      <trkpt lat="41.94685" lon="45.75598">
        <ele>336.871268</ele>
        <time>2021-08-12T12:28:21.205Z</time>
      </trkpt>
      <trkpt lat="41.94529" lon="45.7591">
        <ele>341.40847</ele>
        <time>2021-08-12T12:30:19.636Z</time>
      </trkpt>
      <trkpt lat="41.94339" lon="45.7629">
        <ele>348.110118</ele>
        <time>2021-08-12T12:32:43.614Z</time>
      </trkpt>
      <trkpt lat="41.94142" lon="45.76695">
        <ele>354.0627</ele>
        <time>2021-08-12T12:35:10.205Z</time>
      </trkpt>
      <trkpt lat="41.9412" lon="45.76739">
        <ele>354.4709</ele>
        <time>2021-08-12T12:35:24.398Z</time>
      </trkpt>
      <trkpt lat="41.94085" lon="45.76809">
        <ele>354.886591</ele>
        <time>2021-08-12T12:35:46.827Z</time>
      </trkpt>
      <trkpt lat="41.94028" lon="45.76929">
        <ele>355.544599</ele>
        <time>2021-08-12T12:36:22.209Z</time>
      </trkpt>
      <trkpt lat="41.93823" lon="45.77417">
        <ele>356.722421</ele>
        <time>2021-08-12T12:38:38.385Z</time>
      </trkpt>
      <trkpt lat="41.93807" lon="45.77456">
        <ele>356.822438</ele>
        <time>2021-08-12T12:38:49.478Z</time>
      </trkpt>
      <trkpt lat="41.93717" lon="45.77674">
        <ele>357.478462</ele>
        <time>2021-08-12T12:39:50.728Z</time>
      </trkpt>
      <trkpt lat="41.93649" lon="45.77838">
        <ele>358.182832</ele>
        <time>2021-08-12T12:40:38.364Z</time>
      </trkpt>
      <trkpt lat="41.93551" lon="45.78077">
        <ele>359.454789</ele>
        <time>2021-08-12T12:41:49.467Z</time>
      </trkpt>
      <trkpt lat="41.93529" lon="45.78131">
        <ele>359.749829</ele>
        <time>2021-08-12T12:42:05.271Z</time>
      </trkpt>
      <trkpt lat="41.93447" lon="45.78326">
        <ele>360.774193</ele>
        <time>2021-08-12T12:43:02.240Z</time>
      </trkpt>
      <trkpt lat="41.93433" lon="45.78368">
        <ele>360.984581</ele>
        <time>2021-08-12T12:43:14.345Z</time>
      </trkpt>
      <trkpt lat="41.93393" lon="45.78485">
        <ele>361.644772</ele>
        <time>2021-08-12T12:43:48.269Z</time>
      </trkpt>
      <trkpt lat="41.9335" lon="45.78648">
        <ele>362.502121</ele>
        <time>2021-08-12T12:44:33.822Z</time>
      </trkpt>
      <trkpt lat="41.9331" lon="45.7884">
        <ele>363.128648</ele>
        <time>2021-08-12T12:45:23.440Z</time>
      </trkpt>
      <trkpt lat="41.93292" lon="45.78924">
        <ele>363.303247</ele>
        <time>2021-08-12T12:45:44.324Z</time>
      </trkpt>
      <trkpt lat="41.93272" lon="45.7901">
        <ele>363.463763</ele>
        <time>2021-08-12T12:46:05.751Z</time>
      </trkpt>
      <trkpt lat="41.9327" lon="45.79018">
        <ele>363.47961</ele>
        <time>2021-08-12T12:46:07.873Z</time>
      </trkpt>
      <trkpt lat="41.93249" lon="45.79122">
        <ele>363.680376</ele>
        <time>2021-08-12T12:46:33.927Z</time>
      </trkpt>
      <trkpt lat="41.93245" lon="45.79138">
        <ele>363.71409</ele>
        <time>2021-08-12T12:46:38.032Z</time>
      </trkpt>
      <trkpt lat="41.93241" lon="45.79156">
        <ele>363.752244</ele>
        <time>2021-08-12T12:46:42.694Z</time>
      </trkpt>
      <trkpt lat="41.93228" lon="45.79217">
        <ele>363.879563</ele>
        <time>2021-08-12T12:46:58.509Z</time>
      </trkpt>
      <trkpt lat="41.93203" lon="45.79327">
        <ele>364.075885</ele>
        <time>2021-08-12T12:47:26.452Z</time>
      </trkpt>
      <trkpt lat="41.93192" lon="45.79388">
        <ele>363.978754</ele>
        <time>2021-08-12T12:47:41.145Z</time>
      </trkpt>
      <trkpt lat="41.93187" lon="45.79414">
        <ele>363.938506</ele>
        <time>2021-08-12T12:47:46.953Z</time>
      </trkpt>
      <trkpt lat="41.93166" lon="45.79507">
        <ele>363.788855</ele>
        <time>2021-08-12T12:48:08.475Z</time>
      </trkpt>
      <trkpt lat="41.93162" lon="45.79524">
        <ele>363.762023</ele>
        <time>2021-08-12T12:48:12.319Z</time>
      </trkpt>
      <trkpt lat="41.93148" lon="45.79598">
        <ele>363.664072</ele>
        <time>2021-08-12T12:48:28.632Z</time>
      </trkpt>
      <trkpt lat="41.93081" lon="45.79914">
        <ele>363.773943</ele>
        <time>2021-08-12T12:49:44.283Z</time>
      </trkpt>
      <trkpt lat="41.93068" lon="45.79969">
        <ele>363.914895</ele>
        <time>2021-08-12T12:49:59.325Z</time>
      </trkpt>
      <trkpt lat="41.93061" lon="45.79997">
        <ele>363.986965</ele>
        <time>2021-08-12T12:50:07.514Z</time>
      </trkpt>
      <trkpt lat="41.93046" lon="45.80104">
        <ele>364.610828</ele>
        <time>2021-08-12T12:50:36.678Z</time>
      </trkpt>
      <trkpt lat="41.93033" lon="45.80194">
        <ele>365.19656</ele>
        <time>2021-08-12T12:51:01.742Z</time>
      </trkpt>
      <trkpt lat="41.93021" lon="45.80332">
        <ele>365.829446</ele>
        <time>2021-08-12T12:51:38.056Z</time>
      </trkpt>
      <trkpt lat="41.93022" lon="45.80391">
        <ele>366.020421</ele>
        <time>2021-08-12T12:51:52.903Z</time>
      </trkpt>
      <trkpt lat="41.9303" lon="45.80585">
        <ele>366.406507</ele>
        <time>2021-08-12T12:52:39.487Z</time>
      </trkpt>
      <trkpt lat="41.9303" lon="45.80618">
        <ele>366.424818</ele>
        <time>2021-08-12T12:52:46.884Z</time>
      </trkpt>
      <trkpt lat="41.93031" lon="45.80673">
        <ele>366.455991</ele>
        <time>2021-08-12T12:52:59.740Z</time>
      </trkpt>
      <trkpt lat="41.93035" lon="45.80768">
        <ele>366.549749</ele>
        <time>2021-08-12T12:53:21.783Z</time>
      </trkpt>
      <trkpt lat="41.9304" lon="45.80841">
        <ele>366.682818</ele>
        <time>2021-08-12T12:53:39.483Z</time>
      </trkpt>
      <trkpt lat="41.93041" lon="45.80846">
        <ele>366.691564</ele>
        <time>2021-08-12T12:53:40.765Z</time>
      </trkpt>
      <trkpt lat="41.93047" lon="45.80985">
        <ele>366.922064</ele>
        <time>2021-08-12T12:54:15.576Z</time>
      </trkpt>
      <trkpt lat="41.93052" lon="45.81074">
        <ele>366.853059</ele>
        <time>2021-08-12T12:54:36.749Z</time>
      </trkpt>
      <trkpt lat="41.93052" lon="45.81076">
        <ele>366.851194</ele>
        <time>2021-08-12T12:54:37.349Z</time>
      </trkpt>
      <trkpt lat="41.93054" lon="45.81125">
        <ele>366.813073</ele>
        <time>2021-08-12T12:54:48.711Z</time>
      </trkpt>
      <trkpt lat="41.93054" lon="45.81133">
        <ele>366.807408</ele>
        <time>2021-08-12T12:54:50.414Z</time>
      </trkpt>
      <trkpt lat="41.93056" lon="45.81171">
        <ele>366.777905</ele>
        <time>2021-08-12T12:54:58.874Z</time>
      </trkpt>
      <trkpt lat="41.93064" lon="45.81357">
        <ele>366.152025</ele>
        <time>2021-08-12T12:55:38.065Z</time>
      </trkpt>
      <trkpt lat="41.93065" lon="45.81388">
        <ele>366.022477</ele>
        <time>2021-08-12T12:55:44.497Z</time>
      </trkpt>
      <trkpt lat="41.93068" lon="45.81476">
        <ele>365.721171</ele>
        <time>2021-08-12T12:56:03.628Z</time>
      </trkpt>
      <trkpt lat="41.93071" lon="45.81534">
        <ele>365.716962</ele>
        <time>2021-08-12T12:56:16.435Z</time>
      </trkpt>
      <trkpt lat="41.93077" lon="45.81709">
        <ele>365.726311</ele>
        <time>2021-08-12T12:56:57.847Z</time>
      </trkpt>
      <trkpt lat="41.93078" lon="45.81731">
        <ele>365.780799</ele>
        <time>2021-08-12T12:57:03.175Z</time>
      </trkpt>
      <trkpt lat="41.93083" lon="45.81808">
        <ele>365.976253</ele>
        <time>2021-08-12T12:57:22.270Z</time>
      </trkpt>
      <trkpt lat="41.93083" lon="45.8183">
        <ele>366.031243</ele>
        <time>2021-08-12T12:57:27.834Z</time>
      </trkpt>
      <trkpt lat="41.93083" lon="45.81833">
        <ele>366.037016</ele>
        <time>2021-08-12T12:57:28.396Z</time>
      </trkpt>
      <trkpt lat="41.93083" lon="45.8184">
        <ele>366.055102</ele>
        <time>2021-08-12T12:57:30.255Z</time>
      </trkpt>
      <trkpt lat="41.93072" lon="45.8199">
        <ele>366.084612</ele>
        <time>2021-08-12T12:58:07.884Z</time>
      </trkpt>
      <trkpt lat="41.9307" lon="45.82006">
        <ele>366.00891</ele>
        <time>2021-08-12T12:58:11.845Z</time>
      </trkpt>
      <trkpt lat="41.93066" lon="45.82038">
        <ele>365.852199</ele>
        <time>2021-08-12T12:58:20.156Z</time>
      </trkpt>
      <trkpt lat="41.93039" lon="45.82228">
        <ele>364.431179</ele>
        <time>2021-08-12T12:58:58.206Z</time>
      </trkpt>
      <trkpt lat="41.93034" lon="45.82257">
        <ele>363.975966</ele>
        <time>2021-08-12T12:59:03.247Z</time>
      </trkpt>
      <trkpt lat="41.93027" lon="45.82285">
        <ele>363.52717</ele>
        <time>2021-08-12T12:59:08.445Z</time>
      </trkpt>
      <trkpt lat="41.9301" lon="45.82376">
        <ele>362.1036</ele>
        <time>2021-08-12T12:59:25.176Z</time>
      </trkpt>
      <trkpt lat="41.93009" lon="45.82377">
        <ele>362.080431</ele>
        <time>2021-08-12T12:59:25.438Z</time>
      </trkpt>
      <trkpt lat="41.93008" lon="45.82381">
        <ele>362.019841</ele>
        <time>2021-08-12T12:59:26.257Z</time>
      </trkpt>
      <trkpt lat="41.93008" lon="45.82385">
        <ele>361.957547</ele>
        <time>2021-08-12T12:59:27.016Z</time>
      </trkpt>
      <trkpt lat="41.93006" lon="45.82399">
        <ele>361.739783</ele>
        <time>2021-08-12T12:59:29.541Z</time>
      </trkpt>
      <trkpt lat="41.92994" lon="45.82447">
        <ele>361.300045</ele>
        <time>2021-08-12T12:59:39.118Z</time>
      </trkpt>
      <trkpt lat="41.92993" lon="45.82451">
        <ele>361.274617</ele>
        <time>2021-08-12T12:59:39.945Z</time>
      </trkpt>
      <trkpt lat="41.9297" lon="45.82567">
        <ele>360.587605</ele>
        <time>2021-08-12T13:00:04.101Z</time>
      </trkpt>
      <trkpt lat="41.92964" lon="45.82597">
        <ele>360.403123</ele>
        <time>2021-08-12T13:00:11.156Z</time>
      </trkpt>
      <trkpt lat="41.92951" lon="45.82631">
        <ele>360.182852</ele>
        <time>2021-08-12T13:00:21.080Z</time>
      </trkpt>
      <trkpt lat="41.92938" lon="45.82644">
        <ele>360.069863</ele>
        <time>2021-08-12T13:00:26.959Z</time>
      </trkpt>
      <trkpt lat="41.92931" lon="45.82648">
        <ele>360.019574</ele>
        <time>2021-08-12T13:00:30.044Z</time>
      </trkpt>
      <trkpt lat="41.92923" lon="45.82648">
        <ele>359.969345</ele>
        <time>2021-08-12T13:00:32.287Z</time>
      </trkpt>
      <trkpt lat="41.92789" lon="45.82636">
        <ele>359.131223</ele>
        <time>2021-08-12T13:01:10.352Z</time>
      </trkpt>
      <trkpt lat="41.92786" lon="45.82635">
        <ele>359.107919</ele>
        <time>2021-08-12T13:01:11.174Z</time>
      </trkpt>
      <trkpt lat="41.92768" lon="45.82633">
        <ele>358.999528</ele>
        <time>2021-08-12T13:01:15.450Z</time>
      </trkpt>
      <trkpt lat="41.92754" lon="45.8263">
        <ele>358.817376</ele>
        <time>2021-08-12T13:01:19.347Z</time>
      </trkpt>
      <trkpt lat="41.92737" lon="45.82627">
        <ele>358.566228</ele>
        <time>2021-08-12T13:01:23.604Z</time>
      </trkpt>
      <trkpt lat="41.92662" lon="45.82603">
        <ele>357.470992</ele>
        <time>2021-08-12T13:01:42.831Z</time>
      </trkpt>
      <trkpt lat="41.9258" lon="45.82565">
        <ele>356.3084</ele>
        <time>2021-08-12T13:02:05.440Z</time>
      </trkpt>
      <trkpt lat="41.92572" lon="45.82562">
        <ele>356.24612</ele>
        <time>2021-08-12T13:02:07.656Z</time>
      </trkpt>
      <trkpt lat="41.92543" lon="45.82547">
        <ele>356.01246</ele>
        <time>2021-08-12T13:02:16.795Z</time>
      </trkpt>
      <trkpt lat="41.92531" lon="45.8254">
        <ele>355.913381</ele>
        <time>2021-08-12T13:02:20.731Z</time>
      </trkpt>
      <trkpt lat="41.92527" lon="45.82537">
        <ele>355.879456</ele>
        <time>2021-08-12T13:02:21.871Z</time>
      </trkpt>
      <trkpt lat="41.92524" lon="45.82534">
        <ele>355.849921</ele>
        <time>2021-08-12T13:02:22.894Z</time>
      </trkpt>
      <trkpt lat="41.92512" lon="45.82531">
        <ele>355.76325</ele>
        <time>2021-08-12T13:02:26.555Z</time>
      </trkpt>
      <trkpt lat="41.92509" lon="45.82532">
        <ele>355.734314</ele>
        <time>2021-08-12T13:02:27.523Z</time>
      </trkpt>
      <trkpt lat="41.92504" lon="45.82537">
        <ele>355.689259</ele>
        <time>2021-08-12T13:02:29.405Z</time>
      </trkpt>
      <trkpt lat="41.92499" lon="45.82559">
        <ele>355.560143</ele>
        <time>2021-08-12T13:02:34.121Z</time>
      </trkpt>
      <trkpt lat="41.92502" lon="45.82566">
        <ele>355.515057</ele>
        <time>2021-08-12T13:02:36.054Z</time>
      </trkpt>
      <trkpt lat="41.92503" lon="45.82569">
        <ele>355.499407</ele>
        <time>2021-08-12T13:02:36.728Z</time>
      </trkpt>
      <trkpt lat="41.92505" lon="45.82656">
        <ele>355.002981</ele>
        <time>2021-08-12T13:02:54.985Z</time>
      </trkpt>
      <trkpt lat="41.92505" lon="45.82658">
        <ele>354.989516</ele>
        <time>2021-08-12T13:02:55.474Z</time>
      </trkpt>
      <trkpt lat="41.92505" lon="45.8268">
        <ele>354.844657</ele>
        <time>2021-08-12T13:03:00.364Z</time>
      </trkpt>
      <trkpt lat="41.92505" lon="45.82685">
        <ele>354.807916</ele>
        <time>2021-08-12T13:03:01.688Z</time>
      </trkpt>
      <trkpt lat="41.92506" lon="45.8269">
        <ele>354.779211</ele>
        <time>2021-08-12T13:03:02.430Z</time>
      </trkpt>
      <trkpt lat="41.92519" lon="45.82993">
        <ele>352.675707</ele>
        <time>2021-08-12T13:04:03.836Z</time>
      </trkpt>
      <trkpt lat="41.92519" lon="45.82995">
        <ele>352.659381</ele>
        <time>2021-08-12T13:04:04.170Z</time>
      </trkpt>
      <trkpt lat="41.92519" lon="45.83008">
        <ele>352.563647</ele>
        <time>2021-08-12T13:04:06.729Z</time>
      </trkpt>
      <trkpt lat="41.92508" lon="45.83059">
        <ele>352.173283</ele>
        <time>2021-08-12T13:04:17.313Z</time>
      </trkpt>
      <trkpt lat="41.92472" lon="45.83137">
        <ele>351.489723</ele>
        <time>2021-08-12T13:04:36.000Z</time>
      </trkpt>
      <trkpt lat="41.92403" lon="45.83284">
        <ele>350.200102</ele>
        <time>2021-08-12T13:05:11.625Z</time>
      </trkpt>
      <trkpt lat="41.91952" lon="45.84223">
        <ele>338.719772</ele>
        <time>2021-08-12T13:08:46.861Z</time>
      </trkpt>
      <trkpt lat="41.9188" lon="45.84373">
        <ele>337.141051</ele>
        <time>2021-08-12T13:09:23.350Z</time>
      </trkpt>
      <trkpt lat="41.91811" lon="45.84515">
        <ele>335.504792</ele>
        <time>2021-08-12T13:09:56.546Z</time>
      </trkpt>
      <trkpt lat="41.91755" lon="45.84632">
        <ele>333.668164</ele>
        <time>2021-08-12T13:10:22.409Z</time>
      </trkpt>
      <trkpt lat="41.91652" lon="45.84832">
        <ele>330.114081</ele>
        <time>2021-08-12T13:11:06.897Z</time>
      </trkpt>
      <trkpt lat="41.91501" lon="45.85122">
        <ele>324.93105</ele>
        <time>2021-08-12T13:12:11.804Z</time>
      </trkpt>
      <trkpt lat="41.91357" lon="45.8541">
        <ele>320.920293</ele>
        <time>2021-08-12T13:13:17.938Z</time>
      </trkpt>
      <trkpt lat="41.91112" lon="45.85898">
        <ele>315.047512</ele>
        <time>2021-08-12T13:15:12.628Z</time>
      </trkpt>
      <trkpt lat="41.90975" lon="45.86168">
        <ele>311.867453</ele>
        <time>2021-08-12T13:16:16.979Z</time>
      </trkpt>
      <trkpt lat="41.90967" lon="45.86186">
        <ele>311.592574</ele>
        <time>2021-08-12T13:16:20.863Z</time>
      </trkpt>
      <trkpt lat="41.90964" lon="45.86195">
        <ele>311.454242</ele>
        <time>2021-08-12T13:16:22.810Z</time>
      </trkpt>
      <trkpt lat="41.90954" lon="45.86218">
        <ele>311.097834</ele>
        <time>2021-08-12T13:16:27.675Z</time>
      </trkpt>
      <trkpt lat="41.90946" lon="45.86263">
        <ele>310.468352</ele>
        <time>2021-08-12T13:16:36.301Z</time>
      </trkpt>
      <trkpt lat="41.9095" lon="45.86328">
        <ele>309.593785</ele>
        <time>2021-08-12T13:16:48.184Z</time>
      </trkpt>
      <trkpt lat="41.90963" lon="45.8649">
        <ele>307.320813</ele>
        <time>2021-08-12T13:17:17.824Z</time>
      </trkpt>
      <trkpt lat="41.90987" lon="45.86758">
        <ele>304.055266</ele>
        <time>2021-08-12T13:18:08.969Z</time>
      </trkpt>
      <trkpt lat="41.91004" lon="45.86923">
        <ele>302.46682</ele>
        <time>2021-08-12T13:18:42.237Z</time>
      </trkpt>
      <trkpt lat="41.91014" lon="45.87072">
        <ele>301.221279</ele>
        <time>2021-08-12T13:19:12.187Z</time>
      </trkpt>
      <trkpt lat="41.90982" lon="45.87413">
        <ele>297.74041</ele>
        <time>2021-08-12T13:20:18.801Z</time>
      </trkpt>
      <trkpt lat="41.90942" lon="45.87845">
        <ele>293.026911</ele>
        <time>2021-08-12T13:21:42.297Z</time>
      </trkpt>
      <trkpt lat="41.90905" lon="45.88012">
        <ele>291.471158</ele>
        <time>2021-08-12T13:22:16.812Z</time>
      </trkpt>
      <trkpt lat="41.90749" lon="45.8874">
        <ele>285.793845</ele>
        <time>2021-08-12T13:24:50.185Z</time>
      </trkpt>
      <trkpt lat="41.90747" lon="45.88749">
        <ele>285.706412</ele>
        <time>2021-08-12T13:24:51.883Z</time>
      </trkpt>
      <trkpt lat="41.90722" lon="45.88857">
        <ele>284.605921</ele>
        <time>2021-08-12T13:25:13.840Z</time>
      </trkpt>
      <trkpt lat="41.90703" lon="45.88955">
        <ele>283.622861</ele>
        <time>2021-08-12T13:25:33.392Z</time>
      </trkpt>
      <trkpt lat="41.90697" lon="45.89001">
        <ele>283.307124</ele>
        <time>2021-08-12T13:25:42.440Z</time>
      </trkpt>
      <trkpt lat="41.90693" lon="45.8907">
        <ele>282.915165</ele>
        <time>2021-08-12T13:25:56.243Z</time>
      </trkpt>
      <trkpt lat="41.9069" lon="45.89452">
        <ele>281.566767</ele>
        <time>2021-08-12T13:27:19.033Z</time>
      </trkpt>
      <trkpt lat="41.90687" lon="45.89495">
        <ele>281.776526</ele>
        <time>2021-08-12T13:27:29.800Z</time>
      </trkpt>
      <trkpt lat="41.90666" lon="45.89605">
        <ele>282.340022</ele>
        <time>2021-08-12T13:28:00.025Z</time>
      </trkpt>
      <trkpt lat="41.90597" lon="45.89972">
        <ele>284.654306</ele>
        <time>2021-08-12T13:29:42.166Z</time>
      </trkpt>
      <trkpt lat="41.90596" lon="45.89979">
        <ele>284.694238</ele>
        <time>2021-08-12T13:29:43.977Z</time>
      </trkpt>
      <trkpt lat="41.90557" lon="45.90193">
        <ele>286.133445</ele>
        <time>2021-08-12T13:30:42.361Z</time>
      </trkpt>
      <trkpt lat="41.90536" lon="45.90296">
        <ele>287.070052</ele>
        <time>2021-08-12T13:31:11.685Z</time>
      </trkpt>
      <trkpt lat="41.9036" lon="45.91058">
        <ele>296.201702</ele>
        <time>2021-08-12T13:35:08.632Z</time>
      </trkpt>
      <trkpt lat="41.90262" lon="45.91463">
        <ele>303.343257</ele>
        <time>2021-08-12T13:37:27.296Z</time>
      </trkpt>
      <trkpt lat="41.90187" lon="45.91765">
        <ele>309.790572</ele>
        <time>2021-08-12T13:39:18.847Z</time>
      </trkpt>
      <trkpt lat="41.90129" lon="45.92024">
        <ele>315.21031</ele>
        <time>2021-08-12T13:40:52.587Z</time>
      </trkpt>
      <trkpt lat="41.90113" lon="45.92094">
        <ele>316.403465</ele>
        <time>2021-08-12T13:41:16.701Z</time>
      </trkpt>
      <trkpt lat="41.90109" lon="45.92115">
        <ele>316.761225</ele>
        <time>2021-08-12T13:41:23.709Z</time>
      </trkpt>
      <trkpt lat="41.90047" lon="45.92338">
        <ele>320.342636</ele>
        <time>2021-08-12T13:42:38.233Z</time>
      </trkpt>
      <trkpt lat="41.90012" lon="45.92449">
        <ele>322.002656</ele>
        <time>2021-08-12T13:43:15.078Z</time>
      </trkpt>
      <trkpt lat="41.90007" lon="45.92464">
        <ele>322.234408</ele>
        <time>2021-08-12T13:43:20.254Z</time>
      </trkpt>
      <trkpt lat="41.89975" lon="45.9257">
        <ele>323.795351</ele>
        <time>2021-08-12T13:43:55.540Z</time>
      </trkpt>
      <trkpt lat="41.89969" lon="45.92607">
        <ele>324.306916</ele>
        <time>2021-08-12T13:44:06.791Z</time>
      </trkpt>
      <trkpt lat="41.89954" lon="45.92685">
        <ele>325.40809</ele>
        <time>2021-08-12T13:44:31.924Z</time>
      </trkpt>
      <trkpt lat="41.8994" lon="45.92806">
        <ele>327.399378</ele>
        <time>2021-08-12T13:45:10.601Z</time>
      </trkpt>
      <trkpt lat="41.89939" lon="45.92818">
        <ele>327.588263</ele>
        <time>2021-08-12T13:45:14.869Z</time>
      </trkpt>
      <trkpt lat="41.89924" lon="45.93075">
        <ele>332.032926</ele>
        <time>2021-08-12T13:46:39.622Z</time>
      </trkpt>
      <trkpt lat="41.89914" lon="45.93275">
        <ele>335.915698</ele>
        <time>2021-08-12T13:47:48.196Z</time>
      </trkpt>
      <trkpt lat="41.8991" lon="45.93343">
        <ele>337.305575</ele>
        <time>2021-08-12T13:48:11.761Z</time>
      </trkpt>
      <trkpt lat="41.89902" lon="45.93516">
        <ele>340.978575</ele>
        <time>2021-08-12T13:49:13.254Z</time>
      </trkpt>
      <trkpt lat="41.89899" lon="45.93578">
        <ele>342.328793</ele>
        <time>2021-08-12T13:49:35.261Z</time>
      </trkpt>
      <trkpt lat="41.89897" lon="45.93617">
        <ele>343.158181</ele>
        <time>2021-08-12T13:49:48.894Z</time>
      </trkpt>
      <trkpt lat="41.89896" lon="45.93624">
        <ele>343.312164</ele>
        <time>2021-08-12T13:49:51.353Z</time>
      </trkpt>
      <trkpt lat="41.89882" lon="45.93902">
        <ele>349.418938</ele>
        <time>2021-08-12T13:51:30.269Z</time>
      </trkpt>
      <trkpt lat="41.89875" lon="45.9404">
        <ele>352.458168</ele>
        <time>2021-08-12T13:52:19.793Z</time>
      </trkpt>
      <trkpt lat="41.89875" lon="45.94045">
        <ele>352.573197</ele>
        <time>2021-08-12T13:52:21.662Z</time>
      </trkpt>
      <trkpt lat="41.89872" lon="45.94099">
        <ele>353.769045</ele>
        <time>2021-08-12T13:52:40.970Z</time>
      </trkpt>
      <trkpt lat="41.89869" lon="45.9417">
        <ele>355.229722</ele>
        <time>2021-08-12T13:53:06.177Z</time>
      </trkpt>
      <trkpt lat="41.89857" lon="45.94455">
        <ele>360.652599</ele>
        <time>2021-08-12T13:54:42.562Z</time>
      </trkpt>
      <trkpt lat="41.8984" lon="45.94849">
        <ele>367.713671</ele>
        <time>2021-08-12T13:56:53.088Z</time>
      </trkpt>
      <trkpt lat="41.89823" lon="45.9525">
        <ele>374.943541</ele>
        <time>2021-08-12T13:59:07.535Z</time>
      </trkpt>
      <trkpt lat="41.89809" lon="45.95528">
        <ele>379.571202</ele>
        <time>2021-08-12T14:00:39.096Z</time>
      </trkpt>
      <trkpt lat="41.89807" lon="45.95555">
        <ele>380.003475</ele>
        <time>2021-08-12T14:00:47.484Z</time>
      </trkpt>
      <trkpt lat="41.89801" lon="45.95679">
        <ele>381.357875</ele>
        <time>2021-08-12T14:01:24.247Z</time>
      </trkpt>
      <trkpt lat="41.89799" lon="45.95711">
        <ele>381.680289</ele>
        <time>2021-08-12T14:01:33.550Z</time>
      </trkpt>
      <trkpt lat="41.89795" lon="45.95783">
        <ele>382.398</ele>
        <time>2021-08-12T14:01:53.412Z</time>
      </trkpt>
      <trkpt lat="41.89793" lon="45.95817">
        <ele>382.746571</ele>
        <time>2021-08-12T14:02:03.054Z</time>
      </trkpt>
      <trkpt lat="41.89787" lon="45.95925">
        <ele>384.292991</ele>
        <time>2021-08-12T14:02:32.443Z</time>
      </trkpt>
      <trkpt lat="41.89778" lon="45.95967">
        <ele>384.917997</ele>
        <time>2021-08-12T14:02:45.654Z</time>
      </trkpt>
      <trkpt lat="41.89771" lon="45.95987">
        <ele>385.23474</ele>
        <time>2021-08-12T14:02:52.904Z</time>
      </trkpt>
      <trkpt lat="41.89738" lon="45.96074">
        <ele>387.090114</ele>
        <time>2021-08-12T14:03:28.223Z</time>
      </trkpt>
      <trkpt lat="41.89668" lon="45.96252">
        <ele>392.88767</ele>
        <time>2021-08-12T14:04:50.880Z</time>
      </trkpt>
      <trkpt lat="41.89635" lon="45.96335">
        <ele>394.545546</ele>
        <time>2021-08-12T14:05:26.018Z</time>
      </trkpt>
      <trkpt lat="41.89627" lon="45.96353">
        <ele>394.888619</ele>
        <time>2021-08-12T14:05:32.981Z</time>
      </trkpt>
      <trkpt lat="41.89562" lon="45.96489">
        <ele>397.144862</ele>
        <time>2021-08-12T14:06:20.120Z</time>
      </trkpt>
      <trkpt lat="41.89552" lon="45.9651">
        <ele>397.159919</ele>
        <time>2021-08-12T14:06:25.984Z</time>
      </trkpt>
      <trkpt lat="41.89543" lon="45.9653">
        <ele>397.173963</ele>
        <time>2021-08-12T14:06:31.129Z</time>
      </trkpt>
      <trkpt lat="41.89495" lon="45.9665">
        <ele>397.257011</ele>
        <time>2021-08-12T14:07:02.283Z</time>
      </trkpt>
      <trkpt lat="41.89488" lon="45.96666">
        <ele>397.268106</ele>
        <time>2021-08-12T14:07:06.450Z</time>
      </trkpt>
      <trkpt lat="41.89413" lon="45.96839">
        <ele>396.313226</ele>
        <time>2021-08-12T14:07:49.011Z</time>
      </trkpt>
      <trkpt lat="41.89321" lon="45.97048">
        <ele>394.109388</ele>
        <time>2021-08-12T14:08:36.511Z</time>
      </trkpt>
      <trkpt lat="41.89246" lon="45.97227">
        <ele>391.349487</ele>
        <time>2021-08-12T14:09:14.871Z</time>
      </trkpt>
      <trkpt lat="41.89244" lon="45.97231">
        <ele>391.274048</ele>
        <time>2021-08-12T14:09:15.735Z</time>
      </trkpt>
      <trkpt lat="41.89138" lon="45.97484">
        <ele>386.778545</ele>
        <time>2021-08-12T14:10:08.365Z</time>
      </trkpt>
      <trkpt lat="41.89104" lon="45.97562">
        <ele>385.679204</ele>
        <time>2021-08-12T14:10:24.963Z</time>
      </trkpt>
      <trkpt lat="41.89089" lon="45.976">
        <ele>385.262623</ele>
        <time>2021-08-12T14:10:32.878Z</time>
      </trkpt>
      <trkpt lat="41.8908" lon="45.97619">
        <ele>385.042554</ele>
        <time>2021-08-12T14:10:37.029Z</time>
      </trkpt>
      <trkpt lat="41.89042" lon="45.97727">
        <ele>383.878455</ele>
        <time>2021-08-12T14:11:01.241Z</time>
      </trkpt>
      <trkpt lat="41.89013" lon="45.97807">
        <ele>384.553148</ele>
        <time>2021-08-12T14:11:22.514Z</time>
      </trkpt>
      <trkpt lat="41.88976" lon="45.97917">
        <ele>385.525887</ele>
        <time>2021-08-12T14:12:00.388Z</time>
      </trkpt>
      <trkpt lat="41.88931" lon="45.98043">
        <ele>386.982311</ele>
        <time>2021-08-12T14:12:46.519Z</time>
      </trkpt>
      <trkpt lat="41.88926" lon="45.98053">
        <ele>387.117838</ele>
        <time>2021-08-12T14:12:51.439Z</time>
      </trkpt>
      <trkpt lat="41.88909" lon="45.98075">
        <ele>387.473912</ele>
        <time>2021-08-12T14:13:00.137Z</time>
      </trkpt>
      <trkpt lat="41.88899" lon="45.98092">
        <ele>387.713425</ele>
        <time>2021-08-12T14:13:07.234Z</time>
      </trkpt>
      <trkpt lat="41.88878" lon="45.98123">
        <ele>388.18507</ele>
        <time>2021-08-12T14:13:19.108Z</time>
      </trkpt>
      <trkpt lat="41.88816" lon="45.98219">
        <ele>388.229648</ele>
        <time>2021-08-12T14:13:49.625Z</time>
      </trkpt>
      <trkpt lat="41.88648" lon="45.98463">
        <ele>386.193149</ele>
        <time>2021-08-12T14:14:57.022Z</time>
      </trkpt>
      <trkpt lat="41.88596" lon="45.98539">
        <ele>384.842602</ele>
        <time>2021-08-12T14:15:16.621Z</time>
      </trkpt>
      <trkpt lat="41.88547" lon="45.9861">
        <ele>383.131745</ele>
        <time>2021-08-12T14:15:33.923Z</time>
      </trkpt>
      <trkpt lat="41.88443" lon="45.98763">
        <ele>378.998048</ele>
        <time>2021-08-12T14:16:09.563Z</time>
      </trkpt>
      <trkpt lat="41.88339" lon="45.98915">
        <ele>374.616122</ele>
        <time>2021-08-12T14:16:45.357Z</time>
      </trkpt>
      <trkpt lat="41.88244" lon="45.9906">
        <ele>370.619667</ele>
        <time>2021-08-12T14:17:19.056Z</time>
      </trkpt>
      <trkpt lat="41.88234" lon="45.99077">
        <ele>370.178311</ele>
        <time>2021-08-12T14:17:22.942Z</time>
      </trkpt>
      <trkpt lat="41.88228" lon="45.99086">
        <ele>369.928892</ele>
        <time>2021-08-12T14:17:24.947Z</time>
      </trkpt>
      <trkpt lat="41.88157" lon="45.9919">
        <ele>367.056191</ele>
        <time>2021-08-12T14:17:49.451Z</time>
      </trkpt>
      <trkpt lat="41.87807" lon="45.99711">
        <ele>353.508791</ele>
        <time>2021-08-12T14:19:53.082Z</time>
      </trkpt>
      <trkpt lat="41.87765" lon="45.99773">
        <ele>352.020678</ele>
        <time>2021-08-12T14:20:08.049Z</time>
      </trkpt>
      <trkpt lat="41.87345" lon="46.00388">
        <ele>339.010398</ele>
        <time>2021-08-12T14:22:40.440Z</time>
      </trkpt>
      <trkpt lat="41.87341" lon="46.00394">
        <ele>338.880825</ele>
        <time>2021-08-12T14:22:41.874Z</time>
      </trkpt>
      <trkpt lat="41.87289" lon="46.00471">
        <ele>337.208442</ele>
        <time>2021-08-12T14:23:00.654Z</time>
      </trkpt>
      <trkpt lat="41.86666" lon="46.0139">
        <ele>316.172778</ele>
        <time>2021-08-12T14:26:44.159Z</time>
      </trkpt>
      <trkpt lat="41.86658" lon="46.014">
        <ele>315.920335</ele>
        <time>2021-08-12T14:26:46.764Z</time>
      </trkpt>
      <trkpt lat="41.86507" lon="46.01618">
        <ele>310.997296</ele>
        <time>2021-08-12T14:27:40.400Z</time>
      </trkpt>
      <trkpt lat="41.86444" lon="46.01711">
        <ele>309.090064</ele>
        <time>2021-08-12T14:28:03.596Z</time>
      </trkpt>
      <trkpt lat="41.86264" lon="46.01979">
        <ele>304.574038</ele>
        <time>2021-08-12T14:29:12.196Z</time>
      </trkpt>
      <trkpt lat="41.86235" lon="46.02022">
        <ele>303.820567</ele>
        <time>2021-08-12T14:29:22.890Z</time>
      </trkpt>
      <trkpt lat="41.86076" lon="46.02259">
        <ele>299.592837</ele>
        <time>2021-08-12T14:30:21.879Z</time>
      </trkpt>
      <trkpt lat="41.85817" lon="46.02631">
        <ele>295.195719</ele>
        <time>2021-08-12T14:32:03.453Z</time>
      </trkpt>
      <trkpt lat="41.85756" lon="46.02717">
        <ele>294.220246</ele>
        <time>2021-08-12T14:32:26.853Z</time>
      </trkpt>
      <trkpt lat="41.85643" lon="46.02824">
        <ele>292.93</ele>
        <time>2021-08-12T14:33:03.695Z</time>
      </trkpt>
      <trkpt lat="41.8556" lon="46.029">
        <ele>292.154652</ele>
        <time>2021-08-12T14:33:31.925Z</time>
      </trkpt>
      <trkpt lat="41.85515" lon="46.02959">
        <ele>292.459325</ele>
        <time>2021-08-12T14:33:51.541Z</time>
      </trkpt>
      <trkpt lat="41.85498" lon="46.02993">
        <ele>292.657104</ele>
        <time>2021-08-12T14:34:01.753Z</time>
      </trkpt>
      <trkpt lat="41.85487" lon="46.03018">
        <ele>292.800444</ele>
        <time>2021-08-12T14:34:09.406Z</time>
      </trkpt>
      <trkpt lat="41.85483" lon="46.03028">
        <ele>292.855206</ele>
        <time>2021-08-12T14:34:12.506Z</time>
      </trkpt>
      <trkpt lat="41.85467" lon="46.03078">
        <ele>293.121113</ele>
        <time>2021-08-12T14:34:27.502Z</time>
      </trkpt>
      <trkpt lat="41.8518" lon="46.04008">
        <ele>305.183302</ele>
        <time>2021-08-12T14:39:33.154Z</time>
      </trkpt>
      <trkpt lat="41.85093" lon="46.04298">
        <ele>305.579853</ele>
        <time>2021-08-12T14:40:46.537Z</time>
      </trkpt>
      <trkpt lat="41.85011" lon="46.04607">
        <ele>305.117992</ele>
        <time>2021-08-12T14:41:59.483Z</time>
      </trkpt>
      <trkpt lat="41.84918" lon="46.04986">
        <ele>304.40809</ele>
        <time>2021-08-12T14:43:29.362Z</time>
      </trkpt>
      <trkpt lat="41.84909" lon="46.05024">
        <ele>304.305783</ele>
        <time>2021-08-12T14:43:38.261Z</time>
      </trkpt>
      <trkpt lat="41.84902" lon="46.05054">
        <ele>304.224498</ele>
        <time>2021-08-12T14:43:45.301Z</time>
      </trkpt>
      <trkpt lat="41.84857" lon="46.05247">
        <ele>303.386186</ele>
        <time>2021-08-12T14:44:28.212Z</time>
      </trkpt>
      <trkpt lat="41.84833" lon="46.05351">
        <ele>302.798287</ele>
        <time>2021-08-12T14:44:50.715Z</time>
      </trkpt>
      <trkpt lat="41.84774" lon="46.05607">
        <ele>301.237892</ele>
        <time>2021-08-12T14:45:45.903Z</time>
      </trkpt>
      <trkpt lat="41.84759" lon="46.05686">
        <ele>300.829486</ele>
        <time>2021-08-12T14:46:03.106Z</time>
      </trkpt>
      <trkpt lat="41.84748" lon="46.05731">
        <ele>300.592887</ele>
        <time>2021-08-12T14:46:13.054Z</time>
      </trkpt>
      <trkpt lat="41.84734" lon="46.05799">
        <ele>300.237679</ele>
        <time>2021-08-12T14:46:27.870Z</time>
      </trkpt>
      <trkpt lat="41.84713" lon="46.05882">
        <ele>299.870286</ele>
        <time>2021-08-12T14:46:46.194Z</time>
      </trkpt>
      <trkpt lat="41.84681" lon="46.06007">
        <ele>299.381427</ele>
        <time>2021-08-12T14:47:14.690Z</time>
      </trkpt>
      <trkpt lat="41.84677" lon="46.06035">
        <ele>299.27311</ele>
        <time>2021-08-12T14:47:21.088Z</time>
      </trkpt>
      <trkpt lat="41.84668" lon="46.06147">
        <ele>298.91739</ele>
        <time>2021-08-12T14:47:45.621Z</time>
      </trkpt>
      <trkpt lat="41.84662" lon="46.06357">
        <ele>298.294358</ele>
        <time>2021-08-12T14:48:31.221Z</time>
      </trkpt>
      <trkpt lat="41.84654" lon="46.06504">
        <ele>297.869696</ele>
        <time>2021-08-12T14:49:03.086Z</time>
      </trkpt>
      <trkpt lat="41.84646" lon="46.06681">
        <ele>297.589005</ele>
        <time>2021-08-12T14:49:42.729Z</time>
      </trkpt>
      <trkpt lat="41.84632" lon="46.06954">
        <ele>297.087198</ele>
        <time>2021-08-12T14:50:45.936Z</time>
      </trkpt>
      <trkpt lat="41.84621" lon="46.07212">
        <ele>295.685176</ele>
        <time>2021-08-12T14:51:39.132Z</time>
      </trkpt>
      <trkpt lat="41.84614" lon="46.07332">
        <ele>294.759981</ele>
        <time>2021-08-12T14:52:03.124Z</time>
      </trkpt>
      <trkpt lat="41.84607" lon="46.07386">
        <ele>294.288685</ele>
        <time>2021-08-12T14:52:14.071Z</time>
      </trkpt>
      <trkpt lat="41.84597" lon="46.07429">
        <ele>293.899579</ele>
        <time>2021-08-12T14:52:22.999Z</time>
      </trkpt>
      <trkpt lat="41.84575" lon="46.07517">
        <ele>293.120975</ele>
        <time>2021-08-12T14:52:41.185Z</time>
      </trkpt>
      <trkpt lat="41.84517" lon="46.07718">
        <ele>291.416941</ele>
        <time>2021-08-12T14:53:24.241Z</time>
      </trkpt>
      <trkpt lat="41.84474" lon="46.07872">
        <ele>290.652033</ele>
        <time>2021-08-12T14:53:58.642Z</time>
      </trkpt>
      <trkpt lat="41.84417" lon="46.08076">
        <ele>290.006042</ele>
        <time>2021-08-12T14:54:46.619Z</time>
      </trkpt>
      <trkpt lat="41.84412" lon="46.08096">
        <ele>289.96392</ele>
        <time>2021-08-12T14:54:51.367Z</time>
      </trkpt>
      <trkpt lat="41.84406" lon="46.08126">
        <ele>289.902045</ele>
        <time>2021-08-12T14:54:58.247Z</time>
      </trkpt>
      <trkpt lat="41.84335" lon="46.08525">
        <ele>289.92008</ele>
        <time>2021-08-12T14:56:32.053Z</time>
      </trkpt>
      <trkpt lat="41.84309" lon="46.08609">
        <ele>290.137816</ele>
        <time>2021-08-12T14:56:55.067Z</time>
      </trkpt>
      <trkpt lat="41.84247" lon="46.08694">
        <ele>291.079027</ele>
        <time>2021-08-12T14:57:27.179Z</time>
      </trkpt>
      <trkpt lat="41.84008" lon="46.08972">
        <ele>296.136578</ele>
        <time>2021-08-12T14:59:36.331Z</time>
      </trkpt>
      <trkpt lat="41.83921" lon="46.09092">
        <ele>298.080477</ele>
        <time>2021-08-12T15:00:25.928Z</time>
      </trkpt>
      <trkpt lat="41.83856" lon="46.09194">
        <ele>299.568081</ele>
        <time>2021-08-12T15:01:05.306Z</time>
      </trkpt>
      <trkpt lat="41.83848" lon="46.09207">
        <ele>299.755259</ele>
        <time>2021-08-12T15:01:10.495Z</time>
      </trkpt>
      <trkpt lat="41.83734" lon="46.09388">
        <ele>302.066981</ele>
        <time>2021-08-12T15:02:19.710Z</time>
      </trkpt>
      <trkpt lat="41.83711" lon="46.09427">
        <ele>302.467782</ele>
        <time>2021-08-12T15:02:33.414Z</time>
      </trkpt>
      <trkpt lat="41.837" lon="46.09464">
        <ele>302.788764</ele>
        <time>2021-08-12T15:02:44.146Z</time>
      </trkpt>
      <trkpt lat="41.83688" lon="46.09512">
        <ele>303.201386</ele>
        <time>2021-08-12T15:02:57.563Z</time>
      </trkpt>
      <trkpt lat="41.83684" lon="46.09532">
        <ele>303.319143</ele>
        <time>2021-08-12T15:03:03.075Z</time>
      </trkpt>
      <trkpt lat="41.83659" lon="46.09729">
        <ele>304.176626</ele>
        <time>2021-08-12T15:03:53.889Z</time>
      </trkpt>
      <trkpt lat="41.83659" lon="46.09762">
        <ele>304.329726</ele>
        <time>2021-08-12T15:04:02.398Z</time>
      </trkpt>
      <trkpt lat="41.83668" lon="46.09795">
        <ele>304.566224</ele>
        <time>2021-08-12T15:04:11.680Z</time>
      </trkpt>
      <trkpt lat="41.83702" lon="46.0986">
        <ele>305.091098</ele>
        <time>2021-08-12T15:04:32.355Z</time>
      </trkpt>
      <trkpt lat="41.83816" lon="46.10018">
        <ele>306.857747</ele>
        <time>2021-08-12T15:05:33.448Z</time>
      </trkpt>
      <trkpt lat="41.83828" lon="46.10035">
        <ele>307.091399</ele>
        <time>2021-08-12T15:05:40.337Z</time>
      </trkpt>
      <trkpt lat="41.83859" lon="46.10077">
        <ele>307.665361</ele>
        <time>2021-08-12T15:05:57.440Z</time>
      </trkpt>
      <trkpt lat="41.83977" lon="46.10246">
        <ele>309.976622</ele>
        <time>2021-08-12T15:07:05.206Z</time>
      </trkpt>
      <trkpt lat="41.84003" lon="46.10316">
        <ele>310.754422</ele>
        <time>2021-08-12T15:07:27.125Z</time>
      </trkpt>
      <trkpt lat="41.84004" lon="46.10377">
        <ele>311.327391</ele>
        <time>2021-08-12T15:07:44.780Z</time>
      </trkpt>
      <trkpt lat="41.83997" lon="46.10426">
        <ele>311.796155</ele>
        <time>2021-08-12T15:07:59.234Z</time>
      </trkpt>
      <trkpt lat="41.8399" lon="46.10453">
        <ele>312.06025</ele>
        <time>2021-08-12T15:08:07.198Z</time>
      </trkpt>
      <trkpt lat="41.83957" lon="46.10577">
        <ele>313.228974</ele>
        <time>2021-08-12T15:08:44.422Z</time>
      </trkpt>
      <trkpt lat="41.83948" lon="46.10611">
        <ele>313.506023</ele>
        <time>2021-08-12T15:08:54.544Z</time>
      </trkpt>
      <trkpt lat="41.83926" lon="46.10695">
        <ele>314.187192</ele>
        <time>2021-08-12T15:09:19.287Z</time>
      </trkpt>
      <trkpt lat="41.83888" lon="46.10846">
        <ele>315.341448</ele>
        <time>2021-08-12T15:10:01.734Z</time>
      </trkpt>
      <trkpt lat="41.83886" lon="46.10889">
        <ele>315.639136</ele>
        <time>2021-08-12T15:10:13.512Z</time>
      </trkpt>
      <trkpt lat="41.8389" lon="46.10919">
        <ele>315.848566</ele>
        <time>2021-08-12T15:10:21.675Z</time>
      </trkpt>
      <trkpt lat="41.83933" lon="46.11048">
        <ele>316.92698</ele>
        <time>2021-08-12T15:11:00.266Z</time>
      </trkpt>
      <trkpt lat="41.83935" lon="46.11055">
        <ele>316.992205</ele>
        <time>2021-08-12T15:11:02.466Z</time>
      </trkpt>
      <trkpt lat="41.83936" lon="46.11057">
        <ele>317.015741</ele>
        <time>2021-08-12T15:11:03.439Z</time>
      </trkpt>
      <trkpt lat="41.83942" lon="46.11076">
        <ele>317.200971</ele>
        <time>2021-08-12T15:11:08.956Z</time>
      </trkpt>
      <trkpt lat="41.83997" lon="46.11228">
        <ele>318.741158</ele>
        <time>2021-08-12T15:11:56.955Z</time>
      </trkpt>
      <trkpt lat="41.84013" lon="46.11276">
        <ele>319.356259</ele>
        <time>2021-08-12T15:12:12.400Z</time>
      </trkpt>
      <trkpt lat="41.84028" lon="46.11322">
        <ele>319.941165</ele>
        <time>2021-08-12T15:12:27.100Z</time>
      </trkpt>
      <trkpt lat="41.84094" lon="46.11515">
        <ele>322.643293</ele>
        <time>2021-08-12T15:13:31.796Z</time>
      </trkpt>
      <trkpt lat="41.84152" lon="46.11687">
        <ele>325.349368</ele>
        <time>2021-08-12T15:14:31.921Z</time>
      </trkpt>
      <trkpt lat="41.84179" lon="46.11762">
        <ele>326.531201</ele>
        <time>2021-08-12T15:14:58.276Z</time>
      </trkpt>
      <trkpt lat="41.84286" lon="46.12067">
        <ele>331.154145</ele>
        <time>2021-08-12T15:16:41.906Z</time>
      </trkpt>
      <trkpt lat="41.84352" lon="46.12271">
        <ele>334.037224</ele>
        <time>2021-08-12T15:17:49.802Z</time>
      </trkpt>
      <trkpt lat="41.84361" lon="46.12298">
        <ele>334.408405</ele>
        <time>2021-08-12T15:17:58.695Z</time>
      </trkpt>
      <trkpt lat="41.84376" lon="46.12346">
        <ele>335.062558</ele>
        <time>2021-08-12T15:18:14.880Z</time>
      </trkpt>
      <trkpt lat="41.84392" lon="46.12394">
        <ele>335.6951</ele>
        <time>2021-08-12T15:18:30.780Z</time>
      </trkpt>
      <trkpt lat="41.84406" lon="46.12438">
        <ele>336.269031</ele>
        <time>2021-08-12T15:18:45.219Z</time>
      </trkpt>
      <trkpt lat="41.84409" lon="46.12449">
        <ele>336.410518</ele>
        <time>2021-08-12T15:18:48.753Z</time>
      </trkpt>
      <trkpt lat="41.84446" lon="46.12631">
        <ele>338.440356</ele>
        <time>2021-08-12T15:19:44.208Z</time>
      </trkpt>
      <trkpt lat="41.84449" lon="46.12649">
        <ele>338.611665</ele>
        <time>2021-08-12T15:19:49.432Z</time>
      </trkpt>
      <trkpt lat="41.84458" lon="46.12698">
        <ele>339.092657</ele>
        <time>2021-08-12T15:20:03.824Z</time>
      </trkpt>
      <trkpt lat="41.84457" lon="46.12758">
        <ele>339.655343</ele>
        <time>2021-08-12T15:20:20.537Z</time>
      </trkpt>
      <trkpt lat="41.84441" lon="46.12822">
        <ele>340.086851</ele>
        <time>2021-08-12T15:20:39.173Z</time>
      </trkpt>
      <trkpt lat="41.84385" lon="46.13011">
        <ele>341.098505</ele>
        <time>2021-08-12T15:21:31.923Z</time>
      </trkpt>
      <trkpt lat="41.8436" lon="46.13096">
        <ele>341.125907</ele>
        <time>2021-08-12T15:21:54.091Z</time>
      </trkpt>
      <trkpt lat="41.84284" lon="46.13312">
        <ele>341.143638</ele>
        <time>2021-08-12T15:22:47.542Z</time>
      </trkpt>
      <trkpt lat="41.84272" lon="46.13367">
        <ele>341.129748</ele>
        <time>2021-08-12T15:23:00.840Z</time>
      </trkpt>
      <trkpt lat="41.84262" lon="46.13407">
        <ele>341.119531</ele>
        <time>2021-08-12T15:23:10.864Z</time>
      </trkpt>
      <trkpt lat="41.84254" lon="46.13445">
        <ele>341.109847</ele>
        <time>2021-08-12T15:23:20.512Z</time>
      </trkpt>
      <trkpt lat="41.84223" lon="46.13566">
        <ele>341.195261</ele>
        <time>2021-08-12T15:23:51.359Z</time>
      </trkpt>
      <trkpt lat="41.8421" lon="46.13611">
        <ele>341.228014</ele>
        <time>2021-08-12T15:24:02.780Z</time>
      </trkpt>
      <trkpt lat="41.84201" lon="46.13644">
        <ele>341.252681</ele>
        <time>2021-08-12T15:24:11.190Z</time>
      </trkpt>
      <trkpt lat="41.84185" lon="46.13704">
        <ele>341.183199</ele>
        <time>2021-08-12T15:24:25.544Z</time>
      </trkpt>
      <trkpt lat="41.84184" lon="46.13707">
        <ele>341.17075</ele>
        <time>2021-08-12T15:24:26.402Z</time>
      </trkpt>
      <trkpt lat="41.84122" lon="46.1392">
        <ele>340.494875</ele>
        <time>2021-08-12T15:25:15.347Z</time>
      </trkpt>
      <trkpt lat="41.84095" lon="46.14013">
        <ele>340.367429</ele>
        <time>2021-08-12T15:25:37.347Z</time>
      </trkpt>
      <trkpt lat="41.84056" lon="46.1415">
        <ele>340.227897</ele>
        <time>2021-08-12T15:26:11.224Z</time>
      </trkpt>
      <trkpt lat="41.84053" lon="46.1416">
        <ele>340.234662</ele>
        <time>2021-08-12T15:26:13.867Z</time>
      </trkpt>
      <trkpt lat="41.83979" lon="46.14377">
        <ele>340.363026</ele>
        <time>2021-08-12T15:27:10.349Z</time>
      </trkpt>
      <trkpt lat="41.83897" lon="46.14624">
        <ele>340.307467</ele>
        <time>2021-08-12T15:28:13.387Z</time>
      </trkpt>
      <trkpt lat="41.83529" lon="46.15715">
        <ele>338.766991</ele>
        <time>2021-08-12T15:32:42.849Z</time>
      </trkpt>
      <trkpt lat="41.83496" lon="46.15839">
        <ele>338.730732</ele>
        <time>2021-08-12T15:33:13.049Z</time>
      </trkpt>
      <trkpt lat="41.83475" lon="46.15908">
        <ele>338.75184</ele>
        <time>2021-08-12T15:33:30.565Z</time>
      </trkpt>
      <trkpt lat="41.83428" lon="46.16068">
        <ele>339.098157</ele>
        <time>2021-08-12T15:34:12.906Z</time>
      </trkpt>
      <trkpt lat="41.83413" lon="46.16114">
        <ele>339.199082</ele>
        <time>2021-08-12T15:34:25.238Z</time>
      </trkpt>
      <trkpt lat="41.83405" lon="46.16138">
        <ele>339.218351</ele>
        <time>2021-08-12T15:34:31.830Z</time>
      </trkpt>
      <trkpt lat="41.83398" lon="46.16161">
        <ele>339.234093</ele>
        <time>2021-08-12T15:34:37.915Z</time>
      </trkpt>
      <trkpt lat="41.83384" lon="46.16203">
        <ele>339.263137</ele>
        <time>2021-08-12T15:34:49.049Z</time>
      </trkpt>
      <trkpt lat="41.83294" lon="46.16499">
        <ele>339.437226</ele>
        <time>2021-08-12T15:36:02.450Z</time>
      </trkpt>
      <trkpt lat="41.83269" lon="46.16588">
        <ele>339.53105</ele>
        <time>2021-08-12T15:36:26.105Z</time>
      </trkpt>
      <trkpt lat="41.83224" lon="46.16714">
        <ele>339.837444</ele>
        <time>2021-08-12T15:37:00.291Z</time>
      </trkpt>
      <trkpt lat="41.832" lon="46.16772">
        <ele>339.982983</ele>
        <time>2021-08-12T15:37:16.598Z</time>
      </trkpt>
      <trkpt lat="41.83182" lon="46.16817">
        <ele>340.032118</ele>
        <time>2021-08-12T15:37:29.173Z</time>
      </trkpt>
      <trkpt lat="41.83088" lon="46.17093">
        <ele>341.424623</ele>
        <time>2021-08-12T15:38:40.504Z</time>
      </trkpt>
      <trkpt lat="41.83028" lon="46.17305">
        <ele>347.129416</ele>
        <time>2021-08-12T15:39:58.749Z</time>
      </trkpt>
      <trkpt lat="41.82967" lon="46.17523">
        <ele>359.964605</ele>
        <time>2021-08-12T15:42:11.288Z</time>
      </trkpt>
      <trkpt lat="41.82961" lon="46.17555">
        <ele>362.375889</ele>
        <time>2021-08-12T15:42:34.117Z</time>
      </trkpt>
      <trkpt lat="41.82965" lon="46.17588">
        <ele>364.785594</ele>
        <time>2021-08-12T15:42:55.616Z</time>
      </trkpt>
      <trkpt lat="41.82991" lon="46.17623">
        <ele>368.425082</ele>
        <time>2021-08-12T15:43:29.569Z</time>
      </trkpt>
      <trkpt lat="41.83098" lon="46.17686">
        <ele>380.874239</ele>
        <time>2021-08-12T15:45:19.098Z</time>
      </trkpt>
      <trkpt lat="41.83101" lon="46.177">
        <ele>382.082334</ele>
        <time>2021-08-12T15:45:29.114Z</time>
      </trkpt>
      <trkpt lat="41.83094" lon="46.17713">
        <ele>383.385507</ele>
        <time>2021-08-12T15:45:39.928Z</time>
      </trkpt>
      <trkpt lat="41.83025" lon="46.1772">
        <ele>390.900223</ele>
        <time>2021-08-12T15:46:42.664Z</time>
      </trkpt>
      <trkpt lat="41.82976" lon="46.17762">
        <ele>397.248008</ele>
        <time>2021-08-12T15:47:37.246Z</time>
      </trkpt>
      <trkpt lat="41.82948" lon="46.1777">
        <ele>400.388211</ele>
        <time>2021-08-12T15:48:04.609Z</time>
      </trkpt>
      <trkpt lat="41.82927" lon="46.1777">
        <ele>402.734271</ele>
        <time>2021-08-12T15:48:24.988Z</time>
      </trkpt>
      <trkpt lat="41.82831" lon="46.17737">
        <ele>412.968232</ele>
        <time>2021-08-12T15:49:54.971Z</time>
      </trkpt>
      <trkpt lat="41.82784" lon="46.17731">
        <ele>417.145346</ele>
        <time>2021-08-12T15:50:36.407Z</time>
      </trkpt>
      <trkpt lat="41.82711" lon="46.17742">
        <ele>423.657776</ele>
        <time>2021-08-12T15:51:37.919Z</time>
      </trkpt>
      <trkpt lat="41.82685" lon="46.17754">
        <ele>426.018928</ele>
        <time>2021-08-12T15:51:57.394Z</time>
      </trkpt>
      <trkpt lat="41.82684" lon="46.17764">
        <ele>426.663382</ele>
        <time>2021-08-12T15:52:02.673Z</time>
      </trkpt>
      <trkpt lat="41.82694" lon="46.17775">
        <ele>426.824621</ele>
        <time>2021-08-12T15:52:10.712Z</time>
      </trkpt>
      <trkpt lat="41.82793" lon="46.17794">
        <ele>428.083737</ele>
        <time>2021-08-12T15:52:57.617Z</time>
      </trkpt>
      <trkpt lat="41.82822" lon="46.17817">
        <ele>428.509979</ele>
        <time>2021-08-12T15:53:07.773Z</time>
      </trkpt>
      <trkpt lat="41.82829" lon="46.17882">
        <ele>427.777174</ele>
        <time>2021-08-12T15:53:18.342Z</time>
      </trkpt>
      <trkpt lat="41.82813" lon="46.1792">
        <ele>425.254568</ele>
        <time>2021-08-12T15:53:24.936Z</time>
      </trkpt>
      <trkpt lat="41.82803" lon="46.17971">
        <ele>422.193371</ele>
        <time>2021-08-12T15:53:32.789Z</time>
      </trkpt>
      <trkpt lat="41.82803" lon="46.18039">
        <ele>418.309634</ele>
        <time>2021-08-12T15:53:42.622Z</time>
      </trkpt>
      <trkpt lat="41.82806" lon="46.18051">
        <ele>417.6091</ele>
        <time>2021-08-12T15:53:44.255Z</time>
      </trkpt>
      <trkpt lat="41.82839" lon="46.18189">
        <ele>408.77398</ele>
        <time>2021-08-12T15:54:05.235Z</time>
      </trkpt>
      <trkpt lat="41.82862" lon="46.18265">
        <ele>403.716222</ele>
        <time>2021-08-12T15:54:17.198Z</time>
      </trkpt>
      <trkpt lat="41.82904" lon="46.18306">
        <ele>399.531538</ele>
        <time>2021-08-12T15:54:27.653Z</time>
      </trkpt>
      <trkpt lat="41.82938" lon="46.18323">
        <ele>397.014773</ele>
        <time>2021-08-12T15:54:34.928Z</time>
      </trkpt>
      <trkpt lat="41.82955" lon="46.1834">
        <ele>395.52737</ele>
        <time>2021-08-12T15:54:39.232Z</time>
      </trkpt>
      <trkpt lat="41.82966" lon="46.18354">
        <ele>394.482337</ele>
        <time>2021-08-12T15:54:42.253Z</time>
      </trkpt>
      <trkpt lat="41.82975" lon="46.1838">
        <ele>392.992239</ele>
        <time>2021-08-12T15:54:46.544Z</time>
      </trkpt>
      <trkpt lat="41.82986" lon="46.18594">
        <ele>382.156646</ele>
        <time>2021-08-12T15:55:18.634Z</time>
      </trkpt>
      <trkpt lat="41.83012" lon="46.18661">
        <ele>378.477582</ele>
        <time>2021-08-12T15:55:30.015Z</time>
      </trkpt>
      <trkpt lat="41.83024" lon="46.18729">
        <ele>375.242634</ele>
        <time>2021-08-12T15:55:40.689Z</time>
      </trkpt>
      <trkpt lat="41.83016" lon="46.18974">
        <ele>366.249275</ele>
        <time>2021-08-12T15:56:19.742Z</time>
      </trkpt>
      <trkpt lat="41.82999" lon="46.19017">
        <ele>364.813305</ele>
        <time>2021-08-12T15:56:27.602Z</time>
      </trkpt>
      <trkpt lat="41.82889" lon="46.19112">
        <ele>359.634545</ele>
        <time>2021-08-12T15:56:56.503Z</time>
      </trkpt>
      <trkpt lat="41.8286" lon="46.19173">
        <ele>358.465561</ele>
        <time>2021-08-12T15:57:08.825Z</time>
      </trkpt>
      <trkpt lat="41.82738" lon="46.19465">
        <ele>354.459207</ele>
        <time>2021-08-12T15:58:12.720Z</time>
      </trkpt>
      <trkpt lat="41.82724" lon="46.19531">
        <ele>353.925569</ele>
        <time>2021-08-12T15:58:28.190Z</time>
      </trkpt>
      <trkpt lat="41.82736" lon="46.19792">
        <ele>354.664975</ele>
        <time>2021-08-12T15:59:33.159Z</time>
      </trkpt>
      <trkpt lat="41.82658" lon="46.20443">
        <ele>359.500655</ele>
        <time>2021-08-12T16:02:34.924Z</time>
      </trkpt>
      <trkpt lat="41.82593" lon="46.20976">
        <ele>363.559216</ele>
        <time>2021-08-12T16:05:03.097Z</time>
      </trkpt>
      <trkpt lat="41.82583" lon="46.21068">
        <ele>364.130408</ele>
        <time>2021-08-12T16:05:28.497Z</time>
      </trkpt>
      <trkpt lat="41.82577" lon="46.21133">
        <ele>364.534806</ele>
        <time>2021-08-12T16:05:45.974Z</time>
      </trkpt>
      <trkpt lat="41.82571" lon="46.21197">
        <ele>364.929446</ele>
        <time>2021-08-12T16:06:02.940Z</time>
      </trkpt>
      <trkpt lat="41.82571" lon="46.21245">
        <ele>365.169703</ele>
        <time>2021-08-12T16:06:15.582Z</time>
      </trkpt>
      <trkpt lat="41.82564" lon="46.21471">
        <ele>366.209933</ele>
        <time>2021-08-12T16:07:13.319Z</time>
      </trkpt>
      <trkpt lat="41.82559" lon="46.21633">
        <ele>367.027548</ele>
        <time>2021-08-12T16:07:55.467Z</time>
      </trkpt>
      <trkpt lat="41.82558" lon="46.21659">
        <ele>367.156855</ele>
        <time>2021-08-12T16:08:02.453Z</time>
      </trkpt>
      <trkpt lat="41.82547" lon="46.2204">
        <ele>369.33482</ele>
        <time>2021-08-12T16:09:45.118Z</time>
      </trkpt>
      <trkpt lat="41.82546" lon="46.22066">
        <ele>369.439977</ele>
        <time>2021-08-12T16:09:51.492Z</time>
      </trkpt>
      <trkpt lat="41.82528" lon="46.22714">
        <ele>370.855917</ele>
        <time>2021-08-12T16:12:28.747Z</time>
      </trkpt>
      <trkpt lat="41.82521" lon="46.22975">
        <ele>371.95119</ele>
        <time>2021-08-12T16:13:33.634Z</time>
      </trkpt>
      <trkpt lat="41.82519" lon="46.23669">
        <ele>378.444799</ele>
        <time>2021-08-12T16:16:50.420Z</time>
      </trkpt>
      <trkpt lat="41.82518" lon="46.23858">
        <ele>381.866468</ele>
        <time>2021-08-12T16:17:56.103Z</time>
      </trkpt>
      <trkpt lat="41.82518" lon="46.24114">
        <ele>388.111083</ele>
        <time>2021-08-12T16:19:31.085Z</time>
      </trkpt>
      <trkpt lat="41.82518" lon="46.24275">
        <ele>392.12871</ele>
        <time>2021-08-12T16:20:31.837Z</time>
      </trkpt>
      <trkpt lat="41.82517" lon="46.24495">
        <ele>397.510654</ele>
        <time>2021-08-12T16:21:52.410Z</time>
      </trkpt>
      <trkpt lat="41.82518" lon="46.24636">
        <ele>401.036351</ele>
        <time>2021-08-12T16:22:44.420Z</time>
      </trkpt>
      <trkpt lat="41.82517" lon="46.24788">
        <ele>405.054161</ele>
        <time>2021-08-12T16:23:41.611Z</time>
      </trkpt>
      <trkpt lat="41.82516" lon="46.24965">
        <ele>410.228225</ele>
        <time>2021-08-12T16:24:53.854Z</time>
      </trkpt>
      <trkpt lat="41.82516" lon="46.25075">
        <ele>413.515306</ele>
        <time>2021-08-12T16:25:37.734Z</time>
      </trkpt>
      <trkpt lat="41.82516" lon="46.25212">
        <ele>417.171759</ele>
        <time>2021-08-12T16:26:30.908Z</time>
      </trkpt>
      <trkpt lat="41.82516" lon="46.25223">
        <ele>417.44548</ele>
        <time>2021-08-12T16:26:35.581Z</time>
      </trkpt>
      <trkpt lat="41.82515" lon="46.2546">
        <ele>423.048649</ele>
        <time>2021-08-12T16:28:01.152Z</time>
      </trkpt>
      <trkpt lat="41.82514" lon="46.25715">
        <ele>428.418153</ele>
        <time>2021-08-12T16:29:29.637Z</time>
      </trkpt>
      <trkpt lat="41.82514" lon="46.25841">
        <ele>430.969338</ele>
        <time>2021-08-12T16:30:13.697Z</time>
      </trkpt>
      <trkpt lat="41.82513" lon="46.25935">
        <ele>432.825859</ele>
        <time>2021-08-12T16:30:46.692Z</time>
      </trkpt>
      <trkpt lat="41.82513" lon="46.25979">
        <ele>433.698696</ele>
        <time>2021-08-12T16:31:01.899Z</time>
      </trkpt>
      <trkpt lat="41.82513" lon="46.26122">
        <ele>436.177407</ele>
        <time>2021-08-12T16:31:48.359Z</time>
      </trkpt>
      <trkpt lat="41.82499" lon="46.26344">
        <ele>439.814026</ele>
        <time>2021-08-12T16:32:58.897Z</time>
      </trkpt>
      <trkpt lat="41.82496" lon="46.26371">
        <ele>440.296293</ele>
        <time>2021-08-12T16:33:08.466Z</time>
      </trkpt>
      <trkpt lat="41.82494" lon="46.26393">
        <ele>440.676238</ele>
        <time>2021-08-12T16:33:16.050Z</time>
      </trkpt>
      <trkpt lat="41.82478" lon="46.2652">
        <ele>442.911616</ele>
        <time>2021-08-12T16:33:59.568Z</time>
      </trkpt>
      <trkpt lat="41.82467" lon="46.26606">
        <ele>444.206677</ele>
        <time>2021-08-12T16:34:27.588Z</time>
      </trkpt>
      <trkpt lat="41.82462" lon="46.26647">
        <ele>444.827438</ele>
        <time>2021-08-12T16:34:41.199Z</time>
      </trkpt>
      <trkpt lat="41.82457" lon="46.26705">
        <ele>445.708514</ele>
        <time>2021-08-12T16:34:59.531Z</time>
      </trkpt>
      <trkpt lat="41.82449" lon="46.26786">
        <ele>446.832945</ele>
        <time>2021-08-12T16:35:23.487Z</time>
      </trkpt>
      <trkpt lat="41.82446" lon="46.26819">
        <ele>447.243993</ele>
        <time>2021-08-12T16:35:33.126Z</time>
      </trkpt>
      <trkpt lat="41.8244" lon="46.26857">
        <ele>447.72391</ele>
        <time>2021-08-12T16:35:44.824Z</time>
      </trkpt>
      <trkpt lat="41.82431" lon="46.26904">
        <ele>448.324645</ele>
        <time>2021-08-12T16:35:59.590Z</time>
      </trkpt>
      <trkpt lat="41.82417" lon="46.26967">
        <ele>449.140101</ele>
        <time>2021-08-12T16:36:19.853Z</time>
      </trkpt>
      <trkpt lat="41.82414" lon="46.26975">
        <ele>449.249569</ele>
        <time>2021-08-12T16:36:22.493Z</time>
      </trkpt>
      <trkpt lat="41.82396" lon="46.27046">
        <ele>449.739241</ele>
        <time>2021-08-12T16:36:45.002Z</time>
      </trkpt>
      <trkpt lat="41.8238" lon="46.27108">
        <ele>450.097463</ele>
        <time>2021-08-12T16:37:03.752Z</time>
      </trkpt>
      <trkpt lat="41.82363" lon="46.27174">
        <ele>450.476769</ele>
        <time>2021-08-12T16:37:21.706Z</time>
      </trkpt>
      <trkpt lat="41.82363" lon="46.27174">
        <ele>450.476769</ele>
        <time>2021-08-12T16:37:21.733Z</time>
      </trkpt>
      <trkpt lat="41.82363" lon="46.27174">
        <ele>450.476769</ele>
        <time>2021-08-12T16:37:21.964Z</time>
      </trkpt>
      <trkpt lat="41.8238" lon="46.27108">
        <ele>450.45228</ele>
        <time>2021-08-12T16:37:36.768Z</time>
      </trkpt>
      <trkpt lat="41.82396" lon="46.27046">
        <ele>449.801449</ele>
        <time>2021-08-12T16:37:49.681Z</time>
      </trkpt>
      <trkpt lat="41.82414" lon="46.26975">
        <ele>449.064707</ele>
        <time>2021-08-12T16:38:03.783Z</time>
      </trkpt>
      <trkpt lat="41.82417" lon="46.26967">
        <ele>448.977152</ele>
        <time>2021-08-12T16:38:05.468Z</time>
      </trkpt>
      <trkpt lat="41.82431" lon="46.26904">
        <ele>448.324187</ele>
        <time>2021-08-12T16:38:17.828Z</time>
      </trkpt>
      <trkpt lat="41.8244" lon="46.26857">
        <ele>447.708164</ele>
        <time>2021-08-12T16:38:26.988Z</time>
      </trkpt>
      <trkpt lat="41.82446" lon="46.26819">
        <ele>447.216034</ele>
        <time>2021-08-12T16:38:34.374Z</time>
      </trkpt>
      <trkpt lat="41.82449" lon="46.26786">
        <ele>446.794525</ele>
        <time>2021-08-12T16:38:40.827Z</time>
      </trkpt>
      <trkpt lat="41.82457" lon="46.26705">
        <ele>445.767081</ele>
        <time>2021-08-12T16:38:56.385Z</time>
      </trkpt>
      <trkpt lat="41.82462" lon="46.26647">
        <ele>444.9415</ele>
        <time>2021-08-12T16:39:07.358Z</time>
      </trkpt>
      <trkpt lat="41.82467" lon="46.26606">
        <ele>444.250324</ele>
        <time>2021-08-12T16:39:14.867Z</time>
      </trkpt>
      <trkpt lat="41.82478" lon="46.2652">
        <ele>442.80836</ele>
        <time>2021-08-12T16:39:30.617Z</time>
      </trkpt>
      <trkpt lat="41.82494" lon="46.26393">
        <ele>440.664585</ele>
        <time>2021-08-12T16:39:53.568Z</time>
      </trkpt>
      <trkpt lat="41.82496" lon="46.26371">
        <ele>440.304998</ele>
        <time>2021-08-12T16:39:57.384Z</time>
      </trkpt>
      <trkpt lat="41.82499" lon="46.26344">
        <ele>439.848571</ele>
        <time>2021-08-12T16:40:02.248Z</time>
      </trkpt>
      <trkpt lat="41.82513" lon="46.26122">
        <ele>436.141571</ele>
        <time>2021-08-12T16:40:43.178Z</time>
      </trkpt>
      <trkpt lat="41.82513" lon="46.25979">
        <ele>433.711053</ele>
        <time>2021-08-12T16:41:09.018Z</time>
      </trkpt>
      <trkpt lat="41.82513" lon="46.25935">
        <ele>432.918178</ele>
        <time>2021-08-12T16:41:16.778Z</time>
      </trkpt>
      <trkpt lat="41.82514" lon="46.25841">
        <ele>430.99524</ele>
        <time>2021-08-12T16:41:33.076Z</time>
      </trkpt>
      <trkpt lat="41.82514" lon="46.25715">
        <ele>428.408091</ele>
        <time>2021-08-12T16:41:55.100Z</time>
      </trkpt>
      <trkpt lat="41.82515" lon="46.2546">
        <ele>423.117342</ele>
        <time>2021-08-12T16:42:39.889Z</time>
      </trkpt>
      <trkpt lat="41.82516" lon="46.25223">
        <ele>417.597815</ele>
        <time>2021-08-12T16:43:20.544Z</time>
      </trkpt>
      <trkpt lat="41.82516" lon="46.25212">
        <ele>417.306568</ele>
        <time>2021-08-12T16:43:22.169Z</time>
      </trkpt>
      <trkpt lat="41.82516" lon="46.25075">
        <ele>413.416</ele>
        <time>2021-08-12T16:43:45.081Z</time>
      </trkpt>
      <trkpt lat="41.82516" lon="46.24965">
        <ele>410.277675</ele>
        <time>2021-08-12T16:44:03.193Z</time>
      </trkpt>
      <trkpt lat="41.82517" lon="46.24788">
        <ele>405.042378</ele>
        <time>2021-08-12T16:44:32.006Z</time>
      </trkpt>
      <trkpt lat="41.82518" lon="46.24636">
        <ele>401.030683</ele>
        <time>2021-08-12T16:44:57.527Z</time>
      </trkpt>
      <trkpt lat="41.82517" lon="46.24495">
        <ele>397.500773</ele>
        <time>2021-08-12T16:45:21.496Z</time>
      </trkpt>
      <trkpt lat="41.82518" lon="46.24275">
        <ele>392.148219</ele>
        <time>2021-08-12T16:45:59.083Z</time>
      </trkpt>
      <trkpt lat="41.82518" lon="46.24114">
        <ele>388.114356</ele>
        <time>2021-08-12T16:46:26.145Z</time>
      </trkpt>
      <trkpt lat="41.82518" lon="46.23858">
        <ele>381.982045</ele>
        <time>2021-08-12T16:47:09.508Z</time>
      </trkpt>
      <trkpt lat="41.82519" lon="46.23669">
        <ele>378.814448</ele>
        <time>2021-08-12T16:47:42.632Z</time>
      </trkpt>
      <trkpt lat="41.82521" lon="46.22975">
        <ele>371.859478</ele>
        <time>2021-08-12T16:49:59.383Z</time>
      </trkpt>
      <trkpt lat="41.82528" lon="46.22714">
        <ele>370.876724</ele>
        <time>2021-08-12T16:50:56.351Z</time>
      </trkpt>
      <trkpt lat="41.82546" lon="46.22066">
        <ele>369.545064</ele>
        <time>2021-08-12T16:53:21.543Z</time>
      </trkpt>
      <trkpt lat="41.82547" lon="46.2204">
        <ele>369.403471</ele>
        <time>2021-08-12T16:53:27.124Z</time>
      </trkpt>
      <trkpt lat="41.82558" lon="46.21659">
        <ele>367.164252</ele>
        <time>2021-08-12T16:54:45.404Z</time>
      </trkpt>
      <trkpt lat="41.82559" lon="46.21633">
        <ele>367.00472</ele>
        <time>2021-08-12T16:54:50.605Z</time>
      </trkpt>
      <trkpt lat="41.82564" lon="46.21471">
        <ele>366.214151</ele>
        <time>2021-08-12T16:55:24.946Z</time>
      </trkpt>
      <trkpt lat="41.82571" lon="46.21245">
        <ele>365.138042</ele>
        <time>2021-08-12T16:56:12.984Z</time>
      </trkpt>
      <trkpt lat="41.82571" lon="46.21197">
        <ele>364.896883</ele>
        <time>2021-08-12T16:56:23.214Z</time>
      </trkpt>
      <trkpt lat="41.82577" lon="46.21133">
        <ele>364.578693</ele>
        <time>2021-08-12T16:56:36.537Z</time>
      </trkpt>
      <trkpt lat="41.82583" lon="46.21068">
        <ele>364.153015</ele>
        <time>2021-08-12T16:56:50.098Z</time>
      </trkpt>
      <trkpt lat="41.82593" lon="46.20976">
        <ele>363.522908</ele>
        <time>2021-08-12T16:57:08.901Z</time>
      </trkpt>
      <trkpt lat="41.82658" lon="46.20443">
        <ele>359.500596</ele>
        <time>2021-08-12T16:58:57.937Z</time>
      </trkpt>
      <trkpt lat="41.82736" lon="46.19792">
        <ele>354.766974</ele>
        <time>2021-08-12T17:01:10.721Z</time>
      </trkpt>
      <trkpt lat="41.82724" lon="46.19531">
        <ele>354.202192</ele>
        <time>2021-08-12T17:02:07.584Z</time>
      </trkpt>
      <trkpt lat="41.82738" lon="46.19465">
        <ele>354.205813</ele>
        <time>2021-08-12T17:02:24.401Z</time>
      </trkpt>
      <trkpt lat="41.8286" lon="46.19173">
        <ele>358.534199</ele>
        <time>2021-08-12T17:04:03.793Z</time>
      </trkpt>
      <trkpt lat="41.82889" lon="46.19112">
        <ele>360.082238</ele>
        <time>2021-08-12T17:04:29.940Z</time>
      </trkpt>
      <trkpt lat="41.82999" lon="46.19017">
        <ele>364.81908</ele>
        <time>2021-08-12T17:05:39.307Z</time>
      </trkpt>
      <trkpt lat="41.83016" lon="46.18974">
        <ele>366.395681</ele>
        <time>2021-08-12T17:05:59.397Z</time>
      </trkpt>
      <trkpt lat="41.83024" lon="46.18729">
        <ele>375.552329</ele>
        <time>2021-08-12T17:07:46.414Z</time>
      </trkpt>
      <trkpt lat="41.83012" lon="46.18661">
        <ele>378.392953</ele>
        <time>2021-08-12T17:08:19.929Z</time>
      </trkpt>
      <trkpt lat="41.82986" lon="46.18594">
        <ele>381.938006</ele>
        <time>2021-08-12T17:08:57.864Z</time>
      </trkpt>
      <trkpt lat="41.82975" lon="46.1838">
        <ele>393.066966</ele>
        <time>2021-08-12T17:10:51.961Z</time>
      </trkpt>
      <trkpt lat="41.82966" lon="46.18354">
        <ele>394.586216</ele>
        <time>2021-08-12T17:11:07.016Z</time>
      </trkpt>
      <trkpt lat="41.82955" lon="46.1834">
        <ele>395.651693</ele>
        <time>2021-08-12T17:11:17.394Z</time>
      </trkpt>
      <trkpt lat="41.82938" lon="46.18323">
        <ele>397.168195</ele>
        <time>2021-08-12T17:11:32.148Z</time>
      </trkpt>
      <trkpt lat="41.82904" lon="46.18306">
        <ele>399.734197</ele>
        <time>2021-08-12T17:11:56.912Z</time>
      </trkpt>
      <trkpt lat="41.82862" lon="46.18265">
        <ele>403.417441</ele>
        <time>2021-08-12T17:12:32.245Z</time>
      </trkpt>
      <trkpt lat="41.82839" lon="46.18189">
        <ele>408.473297</ele>
        <time>2021-08-12T17:13:19.203Z</time>
      </trkpt>
      <trkpt lat="41.82806" lon="46.18051">
        <ele>418.201099</ele>
        <time>2021-08-12T17:14:49.556Z</time>
      </trkpt>
      <trkpt lat="41.82803" lon="46.18039">
        <ele>419.013633</ele>
        <time>2021-08-12T17:15:01.508Z</time>
      </trkpt>
      <trkpt lat="41.82803" lon="46.17971">
        <ele>422.444753</ele>
        <time>2021-08-12T17:15:41.417Z</time>
      </trkpt>
      <trkpt lat="41.82813" lon="46.1792">
        <ele>424.464328</ele>
        <time>2021-08-12T17:16:11.197Z</time>
      </trkpt>
      <trkpt lat="41.82829" lon="46.17882">
        <ele>426.128576</ele>
        <time>2021-08-12T17:16:33.734Z</time>
      </trkpt>
      <trkpt lat="41.82822" lon="46.17817">
        <ele>428.581926</ele>
        <time>2021-08-12T17:16:59.912Z</time>
      </trkpt>
      <trkpt lat="41.82793" lon="46.17794">
        <ele>430.06761</ele>
        <time>2021-08-12T17:17:10.871Z</time>
      </trkpt>
      <trkpt lat="41.82694" lon="46.17775">
        <ele>425.561203</ele>
        <time>2021-08-12T17:17:34.100Z</time>
      </trkpt>
      <trkpt lat="41.82684" lon="46.17764">
        <ele>424.984125</ele>
        <time>2021-08-12T17:17:36.737Z</time>
      </trkpt>
      <trkpt lat="41.82685" lon="46.17754">
        <ele>424.649443</ele>
        <time>2021-08-12T17:17:38.227Z</time>
      </trkpt>
      <trkpt lat="41.82711" lon="46.17742">
        <ele>423.438367</ele>
        <time>2021-08-12T17:17:43.557Z</time>
      </trkpt>
      <trkpt lat="41.82784" lon="46.17731">
        <ele>417.666981</ele>
        <time>2021-08-12T17:17:57.787Z</time>
      </trkpt>
      <trkpt lat="41.82831" lon="46.17737">
        <ele>412.872384</ele>
        <time>2021-08-12T17:18:06.801Z</time>
      </trkpt>
      <trkpt lat="41.82927" lon="46.1777">
        <ele>402.844979</ele>
        <time>2021-08-12T17:18:25.369Z</time>
      </trkpt>
      <trkpt lat="41.82948" lon="46.1777">
        <ele>400.486813</ele>
        <time>2021-08-12T17:18:29.404Z</time>
      </trkpt>
      <trkpt lat="41.82976" lon="46.17762">
        <ele>397.330406</ele>
        <time>2021-08-12T17:18:34.787Z</time>
      </trkpt>
      <trkpt lat="41.83025" lon="46.1772">
        <ele>390.949346</ele>
        <time>2021-08-12T17:18:45.707Z</time>
      </trkpt>
      <trkpt lat="41.83094" lon="46.17713">
        <ele>383.392724</ele>
        <time>2021-08-12T17:18:58.718Z</time>
      </trkpt>
      <trkpt lat="41.83101" lon="46.177">
        <ele>382.096211</ele>
        <time>2021-08-12T17:19:00.983Z</time>
      </trkpt>
      <trkpt lat="41.83098" lon="46.17686">
        <ele>380.894288</ele>
        <time>2021-08-12T17:19:03.079Z</time>
      </trkpt>
      <trkpt lat="41.82991" lon="46.17623">
        <ele>368.173422</ele>
        <time>2021-08-12T17:19:25.112Z</time>
      </trkpt>
      <trkpt lat="41.82965" lon="46.17588">
        <ele>364.26675</ele>
        <time>2021-08-12T17:19:32.080Z</time>
      </trkpt>
      <trkpt lat="41.82961" lon="46.17555">
        <ele>362.119113</ele>
        <time>2021-08-12T17:19:36.748Z</time>
      </trkpt>
      <trkpt lat="41.82967" lon="46.17523">
        <ele>359.97007</ele>
        <time>2021-08-12T17:19:41.359Z</time>
      </trkpt>
      <trkpt lat="41.83028" lon="46.17305">
        <ele>346.917764</ele>
        <time>2021-08-12T17:20:15.483Z</time>
      </trkpt>
      <trkpt lat="41.83088" lon="46.17093">
        <ele>341.14659</ele>
        <time>2021-08-12T17:20:55.181Z</time>
      </trkpt>
      <trkpt lat="41.83182" lon="46.16817">
        <ele>339.996475</ele>
        <time>2021-08-12T17:22:05.132Z</time>
      </trkpt>
      <trkpt lat="41.832" lon="46.16772">
        <ele>339.931364</ele>
        <time>2021-08-12T17:22:16.668Z</time>
      </trkpt>
      <trkpt lat="41.83224" lon="46.16714">
        <ele>339.848202</ele>
        <time>2021-08-12T17:22:31.171Z</time>
      </trkpt>
      <trkpt lat="41.83269" lon="46.16588">
        <ele>339.583409</ele>
        <time>2021-08-12T17:23:01.802Z</time>
      </trkpt>
      <trkpt lat="41.83294" lon="46.16499">
        <ele>339.395933</ele>
        <time>2021-08-12T17:23:22.648Z</time>
      </trkpt>
      <trkpt lat="41.83384" lon="46.16203">
        <ele>339.279331</ele>
        <time>2021-08-12T17:24:37.752Z</time>
      </trkpt>
      <trkpt lat="41.83398" lon="46.16161">
        <ele>339.213284</ele>
        <time>2021-08-12T17:24:48.097Z</time>
      </trkpt>
      <trkpt lat="41.83405" lon="46.16138">
        <ele>339.177486</ele>
        <time>2021-08-12T17:24:53.627Z</time>
      </trkpt>
      <trkpt lat="41.83413" lon="46.16114">
        <ele>339.13901</ele>
        <time>2021-08-12T17:24:59.580Z</time>
      </trkpt>
      <trkpt lat="41.83428" lon="46.16068">
        <ele>339.067381</ele>
        <time>2021-08-12T17:25:10.560Z</time>
      </trkpt>
      <trkpt lat="41.83475" lon="46.15908">
        <ele>338.814932</ele>
        <time>2021-08-12T17:25:48.243Z</time>
      </trkpt>
      <trkpt lat="41.83496" lon="46.15839">
        <ele>338.704429</ele>
        <time>2021-08-12T17:26:05.448Z</time>
      </trkpt>
      <trkpt lat="41.83529" lon="46.15715">
        <ele>338.792876</ele>
        <time>2021-08-12T17:26:36.613Z</time>
      </trkpt>
      <trkpt lat="41.83897" lon="46.14624">
        <ele>340.317694</ele>
        <time>2021-08-12T17:31:24.319Z</time>
      </trkpt>
      <trkpt lat="41.83979" lon="46.14377">
        <ele>340.349246</ele>
        <time>2021-08-12T17:32:27.186Z</time>
      </trkpt>
      <trkpt lat="41.84053" lon="46.1416">
        <ele>340.26584</ele>
        <time>2021-08-12T17:33:21.283Z</time>
      </trkpt>
      <trkpt lat="41.84056" lon="46.1415">
        <ele>340.262695</ele>
        <time>2021-08-12T17:33:23.816Z</time>
      </trkpt>
      <trkpt lat="41.84095" lon="46.14013">
        <ele>340.315602</ele>
        <time>2021-08-12T17:33:58.337Z</time>
      </trkpt>
      <trkpt lat="41.84122" lon="46.1392">
        <ele>340.560106</ele>
        <time>2021-08-12T17:34:22.707Z</time>
      </trkpt>
      <trkpt lat="41.84184" lon="46.13707">
        <ele>341.068035</ele>
        <time>2021-08-12T17:35:20.775Z</time>
      </trkpt>
      <trkpt lat="41.84185" lon="46.13704">
        <ele>341.076073</ele>
        <time>2021-08-12T17:35:21.779Z</time>
      </trkpt>
      <trkpt lat="41.84201" lon="46.13644">
        <ele>341.203055</ele>
        <time>2021-08-12T17:35:36.661Z</time>
      </trkpt>
      <trkpt lat="41.8421" lon="46.13611">
        <ele>341.275199</ele>
        <time>2021-08-12T17:35:44.894Z</time>
      </trkpt>
      <trkpt lat="41.84223" lon="46.13566">
        <ele>341.277814</ele>
        <time>2021-08-12T17:35:55.592Z</time>
      </trkpt>
      <trkpt lat="41.84254" lon="46.13445">
        <ele>341.135758</ele>
        <time>2021-08-12T17:36:24.266Z</time>
      </trkpt>
      <trkpt lat="41.84262" lon="46.13407">
        <ele>341.091336</ele>
        <time>2021-08-12T17:36:33.219Z</time>
      </trkpt>
      <trkpt lat="41.84272" lon="46.13367">
        <ele>341.044466</ele>
        <time>2021-08-12T17:36:42.814Z</time>
      </trkpt>
      <trkpt lat="41.84284" lon="46.13312">
        <ele>341.096224</ele>
        <time>2021-08-12T17:36:56.179Z</time>
      </trkpt>
      <trkpt lat="41.8436" lon="46.13096">
        <ele>341.16369</ele>
        <time>2021-08-12T17:37:53.705Z</time>
      </trkpt>
      <trkpt lat="41.84385" lon="46.13011">
        <ele>340.970786</ele>
        <time>2021-08-12T17:38:14.224Z</time>
      </trkpt>
      <trkpt lat="41.84441" lon="46.12822">
        <ele>340.038331</ele>
        <time>2021-08-12T17:38:57.142Z</time>
      </trkpt>
      <trkpt lat="41.84457" lon="46.12758">
        <ele>339.57854</ele>
        <time>2021-08-12T17:39:10.606Z</time>
      </trkpt>
      <trkpt lat="41.84458" lon="46.12698">
        <ele>339.169671</ele>
        <time>2021-08-12T17:39:22.541Z</time>
      </trkpt>
      <trkpt lat="41.84449" lon="46.12649">
        <ele>338.659984</ele>
        <time>2021-08-12T17:39:32.678Z</time>
      </trkpt>
      <trkpt lat="41.84446" lon="46.12631">
        <ele>338.46832</ele>
        <time>2021-08-12T17:39:36.252Z</time>
      </trkpt>
      <trkpt lat="41.84409" lon="46.12449">
        <ele>336.464658</ele>
        <time>2021-08-12T17:40:12.509Z</time>
      </trkpt>
      <trkpt lat="41.84406" lon="46.12438">
        <ele>336.316526</ele>
        <time>2021-08-12T17:40:14.731Z</time>
      </trkpt>
      <trkpt lat="41.84392" lon="46.12394">
        <ele>335.715641</ele>
        <time>2021-08-12T17:40:23.683Z</time>
      </trkpt>
      <trkpt lat="41.84376" lon="46.12346">
        <ele>335.053393</ele>
        <time>2021-08-12T17:40:33.513Z</time>
      </trkpt>
      <trkpt lat="41.84361" lon="46.12298">
        <ele>334.383508</ele>
        <time>2021-08-12T17:40:43.465Z</time>
      </trkpt>
      <trkpt lat="41.84352" lon="46.12271">
        <ele>334.017976</ele>
        <time>2021-08-12T17:40:48.858Z</time>
      </trkpt>
      <trkpt lat="41.84286" lon="46.12067">
        <ele>331.147312</ele>
        <time>2021-08-12T17:41:30.825Z</time>
      </trkpt>
      <trkpt lat="41.84179" lon="46.11762">
        <ele>326.552023</ele>
        <time>2021-08-12T17:42:33.629Z</time>
      </trkpt>
      <trkpt lat="41.84152" lon="46.11687">
        <ele>325.334573</ele>
        <time>2021-08-12T17:42:48.890Z</time>
      </trkpt>
      <trkpt lat="41.84094" lon="46.11515">
        <ele>322.642617</ele>
        <time>2021-08-12T17:43:23.599Z</time>
      </trkpt>
      <trkpt lat="41.84028" lon="46.11322">
        <ele>319.899606</ele>
        <time>2021-08-12T17:44:03.491Z</time>
      </trkpt>
      <trkpt lat="41.84013" lon="46.11276">
        <ele>319.367994</ele>
        <time>2021-08-12T17:44:13.193Z</time>
      </trkpt>
      <trkpt lat="41.83997" lon="46.11228">
        <ele>318.808938</ele>
        <time>2021-08-12T17:44:23.347Z</time>
      </trkpt>
      <trkpt lat="41.83942" lon="46.11076">
        <ele>317.200313</ele>
        <time>2021-08-12T17:44:56.433Z</time>
      </trkpt>
      <trkpt lat="41.83936" lon="46.11057">
        <ele>317.033135</ele>
        <time>2021-08-12T17:45:00.685Z</time>
      </trkpt>
      <trkpt lat="41.83935" lon="46.11055">
        <ele>317.011893</ele>
        <time>2021-08-12T17:45:01.126Z</time>
      </trkpt>
      <trkpt lat="41.83933" lon="46.11048">
        <ele>316.953024</ele>
        <time>2021-08-12T17:45:02.513Z</time>
      </trkpt>
      <trkpt lat="41.8389" lon="46.10919">
        <ele>315.814035</ele>
        <time>2021-08-12T17:45:30.983Z</time>
      </trkpt>
      <trkpt lat="41.83886" lon="46.10889">
        <ele>315.608343</ele>
        <time>2021-08-12T17:45:37.307Z</time>
      </trkpt>
      <trkpt lat="41.83888" lon="46.10846">
        <ele>315.31626</ele>
        <time>2021-08-12T17:45:46.176Z</time>
      </trkpt>
      <trkpt lat="41.83926" lon="46.10695">
        <ele>314.247386</ele>
        <time>2021-08-12T17:46:19.081Z</time>
      </trkpt>
      <trkpt lat="41.83948" lon="46.10611">
        <ele>313.503477</ele>
        <time>2021-08-12T17:46:36.852Z</time>
      </trkpt>
      <trkpt lat="41.83957" lon="46.10577">
        <ele>313.195053</ele>
        <time>2021-08-12T17:46:44.057Z</time>
      </trkpt>
      <trkpt lat="41.8399" lon="46.10453">
        <ele>312.067234</ele>
        <time>2021-08-12T17:47:09.993Z</time>
      </trkpt>
      <trkpt lat="41.83997" lon="46.10426">
        <ele>311.800916</ele>
        <time>2021-08-12T17:47:15.566Z</time>
      </trkpt>
      <trkpt lat="41.84004" lon="46.10377">
        <ele>311.328205</ele>
        <time>2021-08-12T17:47:25.293Z</time>
      </trkpt>
      <trkpt lat="41.84003" lon="46.10316">
        <ele>310.750413</ele>
        <time>2021-08-12T17:47:37.189Z</time>
      </trkpt>
      <trkpt lat="41.83977" lon="46.10246">
        <ele>310.011898</ele>
        <time>2021-08-12T17:47:52.676Z</time>
      </trkpt>
      <trkpt lat="41.83859" lon="46.10077">
        <ele>307.614719</ele>
        <time>2021-08-12T17:48:37.442Z</time>
      </trkpt>
      <trkpt lat="41.83828" lon="46.10035">
        <ele>307.057981</ele>
        <time>2021-08-12T17:48:48.790Z</time>
      </trkpt>
      <trkpt lat="41.83816" lon="46.10018">
        <ele>306.848646</ele>
        <time>2021-08-12T17:48:53.442Z</time>
      </trkpt>
      <trkpt lat="41.83702" lon="46.0986">
        <ele>305.013187</ele>
        <time>2021-08-12T17:49:37.211Z</time>
      </trkpt>
      <trkpt lat="41.83668" lon="46.09795">
        <ele>304.515864</ele>
        <time>2021-08-12T17:49:53.572Z</time>
      </trkpt>
      <trkpt lat="41.83659" lon="46.09762">
        <ele>304.29178</ele>
        <time>2021-08-12T17:50:01.012Z</time>
      </trkpt>
      <trkpt lat="41.83659" lon="46.09729">
        <ele>304.085175</ele>
        <time>2021-08-12T17:50:07.877Z</time>
      </trkpt>
      <trkpt lat="41.83684" lon="46.09532">
        <ele>302.492448</ele>
        <time>2021-08-12T17:50:48.710Z</time>
      </trkpt>
      <trkpt lat="41.83688" lon="46.09512">
        <ele>302.308755</ele>
        <time>2021-08-12T17:50:52.905Z</time>
      </trkpt>
      <trkpt lat="41.835" lon="46.09241">
        <ele>298.090698</ele>
        <time>2021-08-12T17:52:02.782Z</time>
      </trkpt>
      <trkpt lat="41.83442" lon="46.09155">
        <ele>296.6855</ele>
        <time>2021-08-12T17:52:24.419Z</time>
      </trkpt>
      <trkpt lat="41.83221" lon="46.08785">
        <ele>291.063795</ele>
        <time>2021-08-12T17:53:55.370Z</time>
      </trkpt>
      <trkpt lat="41.83059" lon="46.08515">
        <ele>286.175156</ele>
        <time>2021-08-12T17:54:58.743Z</time>
      </trkpt>
      <trkpt lat="41.83039" lon="46.08482">
        <ele>285.732683</ele>
        <time>2021-08-12T17:55:06.860Z</time>
      </trkpt>
      <trkpt lat="41.83012" lon="46.08435">
        <ele>285.119675</ele>
        <time>2021-08-12T17:55:18.285Z</time>
      </trkpt>
      <trkpt lat="41.82828" lon="46.08127">
        <ele>281.695085</ele>
        <time>2021-08-12T17:56:37.784Z</time>
      </trkpt>
      <trkpt lat="41.82433" lon="46.07466">
        <ele>273.526852</ele>
        <time>2021-08-12T17:59:22.844Z</time>
      </trkpt>
      <trkpt lat="41.82094" lon="46.06898">
        <ele>266.66522</ele>
        <time>2021-08-12T18:01:45.739Z</time>
      </trkpt>
      <trkpt lat="41.81907" lon="46.06584">
        <ele>263.146189</ele>
        <time>2021-08-12T18:03:03.809Z</time>
      </trkpt>
      <trkpt lat="41.81997" lon="46.06453">
        <ele>262.352569</ele>
        <time>2021-08-12T18:03:43.387Z</time>
      </trkpt>
      <trkpt lat="41.8206" lon="46.0632">
        <ele>262.02893</ele>
        <time>2021-08-12T18:04:19.700Z</time>
      </trkpt>
      <trkpt lat="41.82094" lon="46.06253">
        <ele>261.784405</ele>
        <time>2021-08-12T18:04:37.079Z</time>
      </trkpt>
      <trkpt lat="41.82015" lon="46.06181">
        <ele>260.811795</ele>
        <time>2021-08-12T18:05:04.202Z</time>
      </trkpt>
      <trkpt lat="41.81978" lon="46.06115">
        <ele>260.182511</ele>
        <time>2021-08-12T18:05:21.219Z</time>
      </trkpt>
      <trkpt lat="41.81931" lon="46.06013">
        <ele>259.225942</ele>
        <time>2021-08-12T18:05:45.784Z</time>
      </trkpt>
      <trkpt lat="41.81884" lon="46.05876">
        <ele>258.044184</ele>
        <time>2021-08-12T18:06:17.471Z</time>
      </trkpt>
      <trkpt lat="41.81834" lon="46.05837">
        <ele>257.596398</ele>
        <time>2021-08-12T18:06:34.390Z</time>
      </trkpt>
      <trkpt lat="41.81755" lon="46.05771">
        <ele>256.888332</ele>
        <time>2021-08-12T18:07:01.369Z</time>
      </trkpt>
      <trkpt lat="41.81728" lon="46.0573">
        <ele>256.62105</ele>
        <time>2021-08-12T18:07:13.497Z</time>
      </trkpt>
      <trkpt lat="41.81716" lon="46.05577">
        <ele>256.006432</ele>
        <time>2021-08-12T18:07:47.936Z</time>
      </trkpt>
      <trkpt lat="41.81703" lon="46.05531">
        <ele>255.810133</ele>
        <time>2021-08-12T18:07:59.039Z</time>
      </trkpt>
      <trkpt lat="41.81672" lon="46.05465">
        <ele>255.531112</ele>
        <time>2021-08-12T18:08:16.637Z</time>
      </trkpt>
      <trkpt lat="41.81659" lon="46.05401">
        <ele>255.298695</ele>
        <time>2021-08-12T18:08:31.450Z</time>
      </trkpt>
      <trkpt lat="41.81657" lon="46.05313">
        <ele>254.986917</ele>
        <time>2021-08-12T18:08:51.320Z</time>
      </trkpt>
      <trkpt lat="41.81672" lon="46.05182">
        <ele>254.55817</ele>
        <time>2021-08-12T18:09:21.185Z</time>
      </trkpt>
      <trkpt lat="41.81662" lon="46.0515">
        <ele>254.446169</ele>
        <time>2021-08-12T18:09:29.167Z</time>
      </trkpt>
      <trkpt lat="41.81623" lon="46.05086">
        <ele>254.182607</ele>
        <time>2021-08-12T18:09:47.974Z</time>
      </trkpt>
      <trkpt lat="41.81553" lon="46.04959">
        <ele>253.786975</ele>
        <time>2021-08-12T18:10:24.097Z</time>
      </trkpt>
      <trkpt lat="41.81674" lon="46.04856">
        <ele>253.450469</ele>
        <time>2021-08-12T18:11:09.003Z</time>
      </trkpt>
      <trkpt lat="41.81828" lon="46.04673">
        <ele>252.999648</ele>
        <time>2021-08-12T18:12:14.568Z</time>
      </trkpt>
      <trkpt lat="41.8174" lon="46.04515">
        <ele>252.300955</ele>
        <time>2021-08-12T18:12:58.708Z</time>
      </trkpt>
      <trkpt lat="41.8145" lon="46.04014">
        <ele>249.030632</ele>
        <time>2021-08-12T18:15:16.750Z</time>
      </trkpt>
      <trkpt lat="41.81297" lon="46.03737">
        <ele>247.547092</ele>
        <time>2021-08-12T18:16:33.331Z</time>
      </trkpt>
      <trkpt lat="41.81271" lon="46.03689">
        <ele>247.315281</ele>
        <time>2021-08-12T18:16:46.632Z</time>
      </trkpt>
      <trkpt lat="41.81102" lon="46.03385">
        <ele>245.967523</ele>
        <time>2021-08-12T18:18:11.801Z</time>
      </trkpt>
      <trkpt lat="41.80747" lon="46.02761">
        <ele>243.67894</ele>
        <time>2021-08-12T18:21:11.539Z</time>
      </trkpt>
      <trkpt lat="41.80726" lon="46.02719">
        <ele>243.45551</ele>
        <time>2021-08-12T18:21:22.625Z</time>
      </trkpt>
      <trkpt lat="41.80512" lon="46.0235">
        <ele>240.869699</ele>
        <time>2021-08-12T18:23:03.147Z</time>
      </trkpt>
      <trkpt lat="41.80346" lon="46.02063">
        <ele>240.207143</ele>
        <time>2021-08-12T18:24:27.600Z</time>
      </trkpt>
      <trkpt lat="41.80332" lon="46.02039">
        <ele>240.274494</ele>
        <time>2021-08-12T18:24:35.357Z</time>
      </trkpt>
      <trkpt lat="41.80355" lon="46.02014">
        <ele>240.361513</ele>
        <time>2021-08-12T18:24:45.629Z</time>
      </trkpt>
      <trkpt lat="41.80481" lon="46.01895">
        <ele>240.792055</ele>
        <time>2021-08-12T18:25:40.081Z</time>
      </trkpt>
      <trkpt lat="41.80498" lon="46.0188">
        <ele>240.842874</ele>
        <time>2021-08-12T18:25:47.043Z</time>
      </trkpt>
      <trkpt lat="41.80396" lon="46.01699">
        <ele>240.898927</ele>
        <time>2021-08-12T18:26:42.607Z</time>
      </trkpt>
      <trkpt lat="41.80013" lon="46.01043">
        <ele>239.00496</ele>
        <time>2021-08-12T18:29:52.083Z</time>
      </trkpt>
      <trkpt lat="41.80106" lon="46.00972">
        <ele>239.474703</ele>
        <time>2021-08-12T18:30:29.688Z</time>
      </trkpt>
      <trkpt lat="41.80172" lon="46.00897">
        <ele>240.113085</ele>
        <time>2021-08-12T18:31:02.270Z</time>
      </trkpt>
      <trkpt lat="41.80292" lon="46.00779">
        <ele>241.643049</ele>
        <time>2021-08-12T18:32:00.041Z</time>
      </trkpt>
      <trkpt lat="41.8032" lon="46.00729">
        <ele>242.142191</ele>
        <time>2021-08-12T18:32:17.957Z</time>
      </trkpt>
      <trkpt lat="41.80422" lon="46.00625">
        <ele>243.083873</ele>
        <time>2021-08-12T18:33:05.940Z</time>
      </trkpt>
      <trkpt lat="41.80638" lon="46.00405">
        <ele>244.055638</ele>
        <time>2021-08-12T18:34:39.191Z</time>
      </trkpt>
      <trkpt lat="41.80422" lon="46.00025">
        <ele>243.112392</ele>
        <time>2021-08-12T18:36:24.312Z</time>
      </trkpt>
      <trkpt lat="41.80279" lon="45.99778">
        <ele>242.294448</ele>
        <time>2021-08-12T18:37:33.447Z</time>
      </trkpt>
      <trkpt lat="41.80106" lon="45.99482">
        <ele>240.944489</ele>
        <time>2021-08-12T18:38:53.554Z</time>
      </trkpt>
      <trkpt lat="41.79745" lon="45.98848">
        <ele>238.753455</ele>
        <time>2021-08-12T18:41:48.605Z</time>
      </trkpt>
      <trkpt lat="41.7958" lon="45.98545">
        <ele>237.518764</ele>
        <time>2021-08-12T18:43:09.590Z</time>
      </trkpt>
      <trkpt lat="41.79561" lon="45.98505">
        <ele>237.385617</ele>
        <time>2021-08-12T18:43:19.985Z</time>
      </trkpt>
      <trkpt lat="41.79303" lon="45.98062">
        <ele>236.398274</ele>
        <time>2021-08-12T18:45:25.952Z</time>
      </trkpt>
      <trkpt lat="41.78869" lon="45.97265">
        <ele>234.744857</ele>
        <time>2021-08-12T18:49:06.757Z</time>
      </trkpt>
      <trkpt lat="41.78542" lon="45.96657">
        <ele>232.876059</ele>
        <time>2021-08-12T18:51:51.536Z</time>
      </trkpt>
      <trkpt lat="41.78472" lon="45.96527">
        <ele>232.524885</ele>
        <time>2021-08-12T18:52:26.595Z</time>
      </trkpt>
      <trkpt lat="41.78463" lon="45.96509">
        <ele>232.49362</ele>
        <time>2021-08-12T18:52:31.320Z</time>
      </trkpt>
      <trkpt lat="41.78146" lon="45.95917">
        <ele>231.527324</ele>
        <time>2021-08-12T18:55:16.383Z</time>
      </trkpt>
      <trkpt lat="41.77801" lon="45.95297">
        <ele>230.741361</ele>
        <time>2021-08-12T18:58:12.234Z</time>
      </trkpt>
      <trkpt lat="41.77655" lon="45.9505">
        <ele>230.237298</ele>
        <time>2021-08-12T18:59:22.340Z</time>
      </trkpt>
      <trkpt lat="41.7764" lon="45.95024">
        <ele>230.200534</ele>
        <time>2021-08-12T18:59:29.728Z</time>
      </trkpt>
      <trkpt lat="41.77169" lon="45.94231">
        <ele>230.590701</ele>
        <time>2021-08-12T19:03:28.095Z</time>
      </trkpt>
      <trkpt lat="41.77157" lon="45.9421">
        <ele>230.600827</ele>
        <time>2021-08-12T19:03:34.339Z</time>
      </trkpt>
      <trkpt lat="41.76932" lon="45.93794">
        <ele>230.632951</ele>
        <time>2021-08-12T19:05:35.043Z</time>
      </trkpt>
      <trkpt lat="41.76669" lon="45.93309">
        <ele>229.949301</ele>
        <time>2021-08-12T19:07:49.454Z</time>
      </trkpt>
      <trkpt lat="41.76514" lon="45.93023">
        <ele>229.847885</ele>
        <time>2021-08-12T19:09:11.517Z</time>
      </trkpt>
      <trkpt lat="41.76413" lon="45.92837">
        <ele>229.653341</ele>
        <time>2021-08-12T19:10:04.415Z</time>
      </trkpt>
      <trkpt lat="41.76371" lon="45.92661">
        <ele>229.394073</ele>
        <time>2021-08-12T19:10:45.567Z</time>
      </trkpt>
      <trkpt lat="41.76367" lon="45.92617">
        <ele>229.323823</ele>
        <time>2021-08-12T19:10:55.286Z</time>
      </trkpt>
      <trkpt lat="41.76366" lon="45.92607">
        <ele>229.307801</ele>
        <time>2021-08-12T19:10:57.565Z</time>
      </trkpt>
      <trkpt lat="41.76359" lon="45.92528">
        <ele>229.18024</ele>
        <time>2021-08-12T19:11:15.354Z</time>
      </trkpt>
      <trkpt lat="41.7636" lon="45.92507">
        <ele>229.146006</ele>
        <time>2021-08-12T19:11:20.216Z</time>
      </trkpt>
      <trkpt lat="41.7637" lon="45.92118">
        <ele>229.039973</ele>
        <time>2021-08-12T19:12:49.378Z</time>
      </trkpt>
      <trkpt lat="41.76372" lon="45.91918">
        <ele>229.674258</ele>
        <time>2021-08-12T19:13:39.141Z</time>
      </trkpt>
      <trkpt lat="41.76374" lon="45.91784">
        <ele>230.606517</ele>
        <time>2021-08-12T19:14:16.178Z</time>
      </trkpt>
      <trkpt lat="41.76377" lon="45.91686">
        <ele>231.284995</ele>
        <time>2021-08-12T19:14:44.193Z</time>
      </trkpt>
      <trkpt lat="41.76378" lon="45.91639">
        <ele>231.604634</ele>
        <time>2021-08-12T19:14:57.402Z</time>
      </trkpt>
      <trkpt lat="41.76368" lon="45.91507">
        <ele>232.509908</ele>
        <time>2021-08-12T19:15:32.952Z</time>
      </trkpt>
      <trkpt lat="41.76335" lon="45.91356">
        <ele>233.165562</ele>
        <time>2021-08-12T19:16:12.631Z</time>
      </trkpt>
      <trkpt lat="41.76174" lon="45.90842">
        <ele>235.217521</ele>
        <time>2021-08-12T19:18:33.500Z</time>
      </trkpt>
      <trkpt lat="41.7614" lon="45.90575">
        <ele>236.28213</ele>
        <time>2021-08-12T19:19:43.306Z</time>
      </trkpt>
      <trkpt lat="41.7613" lon="45.90262">
        <ele>237.324632</ele>
        <time>2021-08-12T19:21:02.270Z</time>
      </trkpt>
      <trkpt lat="41.76129" lon="45.90247">
        <ele>237.362511</ele>
        <time>2021-08-12T19:21:06.029Z</time>
      </trkpt>
      <trkpt lat="41.76122" lon="45.90157">
        <ele>237.591111</ele>
        <time>2021-08-12T19:21:28.265Z</time>
      </trkpt>
      <trkpt lat="41.76093" lon="45.89381">
        <ele>238.451865</ele>
        <time>2021-08-12T19:24:32.957Z</time>
      </trkpt>
      <trkpt lat="41.76268" lon="45.88676">
        <ele>242.564985</ele>
        <time>2021-08-12T19:27:49.813Z</time>
      </trkpt>
      <trkpt lat="41.7642" lon="45.88054">
        <ele>245.927308</ele>
        <time>2021-08-12T19:30:40.068Z</time>
      </trkpt>
      <trkpt lat="41.76577" lon="45.8744">
        <ele>250.691629</ele>
        <time>2021-08-12T19:33:38.586Z</time>
      </trkpt>
      <trkpt lat="41.76577" lon="45.8739">
        <ele>251.068824</ele>
        <time>2021-08-12T19:33:52.297Z</time>
      </trkpt>
      <trkpt lat="41.76573" lon="45.87207">
        <ele>252.408519</ele>
        <time>2021-08-12T19:34:42.453Z</time>
      </trkpt>
      <trkpt lat="41.76578" lon="45.87121">
        <ele>253.030763</ele>
        <time>2021-08-12T19:35:05.856Z</time>
      </trkpt>
      <trkpt lat="41.7658" lon="45.87102">
        <ele>253.170663</ele>
        <time>2021-08-12T19:35:11.252Z</time>
      </trkpt>
      <trkpt lat="41.76571" lon="45.87058">
        <ele>253.497638</ele>
        <time>2021-08-12T19:35:23.601Z</time>
      </trkpt>
      <trkpt lat="41.76529" lon="45.86981">
        <ele>254.19186</ele>
        <time>2021-08-12T19:35:49.965Z</time>
      </trkpt>
      <trkpt lat="41.76497" lon="45.86623">
        <ele>256.786831</ele>
        <time>2021-08-12T19:37:28.305Z</time>
      </trkpt>
      <trkpt lat="41.7647" lon="45.86272">
        <ele>259.319333</ele>
        <time>2021-08-12T19:39:04.003Z</time>
      </trkpt>
      <trkpt lat="41.76473" lon="45.86246">
        <ele>259.524026</ele>
        <time>2021-08-12T19:39:11.301Z</time>
      </trkpt>
      <trkpt lat="41.76487" lon="45.86214">
        <ele>259.81764</ele>
        <time>2021-08-12T19:39:21.571Z</time>
      </trkpt>
      <trkpt lat="41.76641" lon="45.85932">
        <ele>263.038398</ele>
        <time>2021-08-12T19:41:01.314Z</time>
      </trkpt>
      <trkpt lat="41.76654" lon="45.85904">
        <ele>263.367376</ele>
        <time>2021-08-12T19:41:10.931Z</time>
      </trkpt>
      <trkpt lat="41.76678" lon="45.85813">
        <ele>264.318492</ele>
        <time>2021-08-12T19:41:38.722Z</time>
      </trkpt>
      <trkpt lat="41.76721" lon="45.85541">
        <ele>267.058071</ele>
        <time>2021-08-12T19:42:58.999Z</time>
      </trkpt>
      <trkpt lat="41.76744" lon="45.85335">
        <ele>268.973632</ele>
        <time>2021-08-12T19:43:58.063Z</time>
      </trkpt>
      <trkpt lat="41.76738" lon="45.8526">
        <ele>269.655895</ele>
        <time>2021-08-12T19:44:19.243Z</time>
      </trkpt>
      <trkpt lat="41.76721" lon="45.85206">
        <ele>270.195791</ele>
        <time>2021-08-12T19:44:35.721Z</time>
      </trkpt>
      <trkpt lat="41.76568" lon="45.84822">
        <ele>274.237872</ele>
        <time>2021-08-12T19:46:39.607Z</time>
      </trkpt>
      <trkpt lat="41.76549" lon="45.8477">
        <ele>274.8174</ele>
        <time>2021-08-12T19:46:56.362Z</time>
      </trkpt>
      <trkpt lat="41.76448" lon="45.84506">
        <ele>277.639524</ele>
        <time>2021-08-12T19:48:22.114Z</time>
      </trkpt>
      <trkpt lat="41.7642" lon="45.84444">
        <ele>278.281037</ele>
        <time>2021-08-12T19:48:42.391Z</time>
      </trkpt>
      <trkpt lat="41.76238" lon="45.8411">
        <ele>281.243486</ele>
        <time>2021-08-12T19:50:34.043Z</time>
      </trkpt>
      <trkpt lat="41.76186" lon="45.83993">
        <ele>282.509006</ele>
        <time>2021-08-12T19:51:11.737Z</time>
      </trkpt>
      <trkpt lat="41.76169" lon="45.83955">
        <ele>283.238461</ele>
        <time>2021-08-12T19:51:24.722Z</time>
      </trkpt>
      <trkpt lat="41.75976" lon="45.83485">
        <ele>292.338418</ele>
        <time>2021-08-12T19:54:22.995Z</time>
      </trkpt>
      <trkpt lat="41.7593" lon="45.83364">
        <ele>294.947289</ele>
        <time>2021-08-12T19:55:09.450Z</time>
      </trkpt>
      <trkpt lat="41.75895" lon="45.83252">
        <ele>297.602282</ele>
        <time>2021-08-12T19:55:52.272Z</time>
      </trkpt>
      <trkpt lat="41.75856" lon="45.8313">
        <ele>300.575276</ele>
        <time>2021-08-12T19:56:40.317Z</time>
      </trkpt>
      <trkpt lat="41.75819" lon="45.83016">
        <ele>303.693876</ele>
        <time>2021-08-12T19:57:26.502Z</time>
      </trkpt>
      <trkpt lat="41.75788" lon="45.82916">
        <ele>306.438106</ele>
        <time>2021-08-12T19:58:07.491Z</time>
      </trkpt>
      <trkpt lat="41.75781" lon="45.829">
        <ele>306.93662</ele>
        <time>2021-08-12T19:58:14.503Z</time>
      </trkpt>
      <trkpt lat="41.75777" lon="45.8289">
        <ele>307.227027</ele>
        <time>2021-08-12T19:58:19.216Z</time>
      </trkpt>
      <trkpt lat="41.7577" lon="45.82876">
        <ele>307.656877</ele>
        <time>2021-08-12T19:58:25.156Z</time>
      </trkpt>
      <trkpt lat="41.75757" lon="45.82853">
        <ele>308.408765</ele>
        <time>2021-08-12T19:58:36.001Z</time>
      </trkpt>
      <trkpt lat="41.75752" lon="45.8284">
        <ele>308.792963</ele>
        <time>2021-08-12T19:58:41.420Z</time>
      </trkpt>
      <trkpt lat="41.75713" lon="45.82728">
        <ele>312.042277</ele>
        <time>2021-08-12T19:59:28.167Z</time>
      </trkpt>
      <trkpt lat="41.75683" lon="45.82617">
        <ele>315.730354</ele>
        <time>2021-08-12T20:00:15.297Z</time>
      </trkpt>
      <trkpt lat="41.75663" lon="45.82562">
        <ele>317.637603</ele>
        <time>2021-08-12T20:00:40.149Z</time>
      </trkpt>
      <trkpt lat="41.75578" lon="45.82401">
        <ele>324.083583</ele>
        <time>2021-08-12T20:02:05.284Z</time>
      </trkpt>
      <trkpt lat="41.75528" lon="45.82314">
        <ele>327.741257</ele>
        <time>2021-08-12T20:02:51.168Z</time>
      </trkpt>
      <trkpt lat="41.75392" lon="45.82051">
        <ele>335.946516</ele>
        <time>2021-08-12T20:04:49.509Z</time>
      </trkpt>
      <trkpt lat="41.75358" lon="45.81991">
        <ele>337.928436</ele>
        <time>2021-08-12T20:05:17.391Z</time>
      </trkpt>
      <trkpt lat="41.75345" lon="45.81968">
        <ele>338.673751</ele>
        <time>2021-08-12T20:05:28.269Z</time>
      </trkpt>
      <trkpt lat="41.75224" lon="45.81736">
        <ele>347.014122</ele>
        <time>2021-08-12T20:07:21.868Z</time>
      </trkpt>
      <trkpt lat="41.75199" lon="45.81698">
        <ele>348.506268</ele>
        <time>2021-08-12T20:07:43.112Z</time>
      </trkpt>
      <trkpt lat="41.75111" lon="45.81542">
        <ele>354.200468</ele>
        <time>2021-08-12T20:09:01.181Z</time>
      </trkpt>
      <trkpt lat="41.75099" lon="45.81522">
        <ele>354.859979</ele>
        <time>2021-08-12T20:09:10.918Z</time>
      </trkpt>
      <trkpt lat="41.74954" lon="45.81282">
        <ele>361.856659</ele>
        <time>2021-08-12T20:11:00.911Z</time>
      </trkpt>
      <trkpt lat="41.74926" lon="45.81227">
        <ele>363.285148</ele>
        <time>2021-08-12T20:11:23.782Z</time>
      </trkpt>
      <trkpt lat="41.7487" lon="45.81113">
        <ele>366.360669</ele>
        <time>2021-08-12T20:12:11.797Z</time>
      </trkpt>
      <trkpt lat="41.74767" lon="45.8092">
        <ele>372.313766</ele>
        <time>2021-08-12T20:13:41.192Z</time>
      </trkpt>
      <trkpt lat="41.74749" lon="45.80842">
        <ele>374.501404</ele>
        <time>2021-08-12T20:14:13.369Z</time>
      </trkpt>
      <trkpt lat="41.74749" lon="45.80824">
        <ele>374.974264</ele>
        <time>2021-08-12T20:14:20.045Z</time>
      </trkpt>
      <trkpt lat="41.74729" lon="45.80747">
        <ele>377.14757</ele>
        <time>2021-08-12T20:14:50.988Z</time>
      </trkpt>
      <trkpt lat="41.74718" lon="45.80714">
        <ele>378.110079</ele>
        <time>2021-08-12T20:15:05.129Z</time>
      </trkpt>
      <trkpt lat="41.74706" lon="45.80672">
        <ele>379.246808</ele>
        <time>2021-08-12T20:15:21.585Z</time>
      </trkpt>
      <trkpt lat="41.74691" lon="45.80618">
        <ele>380.74952</ele>
        <time>2021-08-12T20:15:42.821Z</time>
      </trkpt>
      <trkpt lat="41.74683" lon="45.80601">
        <ele>381.273198</ele>
        <time>2021-08-12T20:15:50.474Z</time>
      </trkpt>
      <trkpt lat="41.7468" lon="45.80588">
        <ele>381.624102</ele>
        <time>2021-08-12T20:15:55.644Z</time>
      </trkpt>
      <trkpt lat="41.74675" lon="45.80577">
        <ele>381.952078</ele>
        <time>2021-08-12T20:16:00.265Z</time>
      </trkpt>
      <trkpt lat="41.74652" lon="45.8055">
        <ele>383.01218</ele>
        <time>2021-08-12T20:16:15.977Z</time>
      </trkpt>
      <trkpt lat="41.74611" lon="45.80503">
        <ele>385.154401</ele>
        <time>2021-08-12T20:16:43.330Z</time>
      </trkpt>
      <trkpt lat="41.74518" lon="45.80423">
        <ele>390.015848</ele>
        <time>2021-08-12T20:17:44.508Z</time>
      </trkpt>
      <trkpt lat="41.74497" lon="45.80411">
        <ele>391.029358</ele>
        <time>2021-08-12T20:17:59.022Z</time>
      </trkpt>
      <trkpt lat="41.74481" lon="45.80402">
        <ele>391.814018</ele>
        <time>2021-08-12T20:18:09.522Z</time>
      </trkpt>
      <trkpt lat="41.74456" lon="45.80399">
        <ele>392.962602</ele>
        <time>2021-08-12T20:18:24.616Z</time>
      </trkpt>
      <trkpt lat="41.74434" lon="45.80398">
        <ele>393.9741</ele>
        <time>2021-08-12T20:18:38.125Z</time>
      </trkpt>
      <trkpt lat="41.7442" lon="45.80396">
        <ele>394.593816</ele>
        <time>2021-08-12T20:18:45.760Z</time>
      </trkpt>
      <trkpt lat="41.74414" lon="45.80393">
        <ele>394.917289</ele>
        <time>2021-08-12T20:18:49.620Z</time>
      </trkpt>
      <trkpt lat="41.74408" lon="45.80385">
        <ele>395.294029</ele>
        <time>2021-08-12T20:18:54.954Z</time>
      </trkpt>
      <trkpt lat="41.74399" lon="45.80364">
        <ele>396.106522</ele>
        <time>2021-08-12T20:19:04.946Z</time>
      </trkpt>
      <trkpt lat="41.74397" lon="45.80356">
        <ele>396.404009</ele>
        <time>2021-08-12T20:19:08.552Z</time>
      </trkpt>
      <trkpt lat="41.7438" lon="45.80375">
        <ele>397.395193</ele>
        <time>2021-08-12T20:19:21.534Z</time>
      </trkpt>
      <trkpt lat="41.74343" lon="45.80414">
        <ele>399.562809</ele>
        <time>2021-08-12T20:19:47.314Z</time>
      </trkpt>
      <trkpt lat="41.74291" lon="45.80445">
        <ele>401.655108</ele>
        <time>2021-08-12T20:20:17.890Z</time>
      </trkpt>
      <trkpt lat="41.74092" lon="45.80547">
        <ele>410.560199</ele>
        <time>2021-08-12T20:22:07.304Z</time>
      </trkpt>
      <trkpt lat="41.7405" lon="45.80461">
        <ele>414.586554</ele>
        <time>2021-08-12T20:22:58.058Z</time>
      </trkpt>
      <trkpt lat="41.74005" lon="45.80481">
        <ele>417.923353</ele>
        <time>2021-08-12T20:23:33.275Z</time>
      </trkpt>
      <trkpt lat="41.73874" lon="45.80198">
        <ele>440.040935</ele>
        <time>2021-08-12T20:27:03.776Z</time>
      </trkpt>
      <trkpt lat="41.73834" lon="45.8011">
        <ele>446.963427</ele>
        <time>2021-08-12T20:28:06.764Z</time>
      </trkpt>
      <trkpt lat="41.73764" lon="45.79926">
        <ele>460.372597</ele>
        <time>2021-08-12T20:30:09.889Z</time>
      </trkpt>
      <trkpt lat="41.73684" lon="45.79742">
        <ele>474.392034</ele>
        <time>2021-08-12T20:32:23.634Z</time>
      </trkpt>
      <trkpt lat="41.73686" lon="45.79723">
        <ele>475.619985</ele>
        <time>2021-08-12T20:32:36.563Z</time>
      </trkpt>
      <trkpt lat="41.73682" lon="45.79691">
        <ele>477.802577</ele>
        <time>2021-08-12T20:32:55.486Z</time>
      </trkpt>
      <trkpt lat="41.73673" lon="45.79666">
        <ele>479.524972</ele>
        <time>2021-08-12T20:33:12.463Z</time>
      </trkpt>
      <trkpt lat="41.73641" lon="45.79618">
        <ele>481.68864</ele>
        <time>2021-08-12T20:33:46.012Z</time>
      </trkpt>
      <trkpt lat="41.73634" lon="45.7961">
        <ele>482.125383</ele>
        <time>2021-08-12T20:33:54.490Z</time>
      </trkpt>
      <trkpt lat="41.73638" lon="45.79602">
        <ele>482.458452</ele>
        <time>2021-08-12T20:33:59.165Z</time>
      </trkpt>
      <trkpt lat="41.73652" lon="45.79579">
        <ele>483.449087</ele>
        <time>2021-08-12T20:34:11.669Z</time>
      </trkpt>
      <trkpt lat="41.73662" lon="45.79552">
        <ele>484.47709</ele>
        <time>2021-08-12T20:34:25.635Z</time>
      </trkpt>
      <trkpt lat="41.73676" lon="45.79529">
        <ele>485.439747</ele>
        <time>2021-08-12T20:34:38.168Z</time>
      </trkpt>
      <trkpt lat="41.73683" lon="45.79508">
        <ele>486.21291</ele>
        <time>2021-08-12T20:34:45.549Z</time>
      </trkpt>
      <trkpt lat="41.73682" lon="45.79474">
        <ele>487.365723</ele>
        <time>2021-08-12T20:34:57.063Z</time>
      </trkpt>
      <trkpt lat="41.73676" lon="45.79454">
        <ele>487.175809</ele>
        <time>2021-08-12T20:35:01.829Z</time>
      </trkpt>
      <trkpt lat="41.73631" lon="45.7938">
        <ele>485.22714</ele>
        <time>2021-08-12T20:35:19.292Z</time>
      </trkpt>
      <trkpt lat="41.73603" lon="45.79309">
        <ele>483.562946</ele>
        <time>2021-08-12T20:35:32.904Z</time>
      </trkpt>
      <trkpt lat="41.73605" lon="45.79294">
        <ele>483.24189</ele>
        <time>2021-08-12T20:35:35.982Z</time>
      </trkpt>
      <trkpt lat="41.7361" lon="45.79285">
        <ele>483.027582</ele>
        <time>2021-08-12T20:35:37.579Z</time>
      </trkpt>
      <trkpt lat="41.73618" lon="45.79272">
        <ele>482.664459</ele>
        <time>2021-08-12T20:35:40.565Z</time>
      </trkpt>
      <trkpt lat="41.7366" lon="45.7925">
        <ele>482.309098</ele>
        <time>2021-08-12T20:35:51.281Z</time>
      </trkpt>
      <trkpt lat="41.73687" lon="45.79221">
        <ele>482.090352</ele>
        <time>2021-08-12T20:35:59.725Z</time>
      </trkpt>
      <trkpt lat="41.73709" lon="45.79206">
        <ele>481.935964</ele>
        <time>2021-08-12T20:36:06.046Z</time>
      </trkpt>
      <trkpt lat="41.73737" lon="45.79201">
        <ele>481.763706</ele>
        <time>2021-08-12T20:36:14.581Z</time>
      </trkpt>
      <trkpt lat="41.738" lon="45.79226">
        <ele>482.441699</ele>
        <time>2021-08-12T20:36:48.282Z</time>
      </trkpt>
      <trkpt lat="41.73829" lon="45.79224">
        <ele>484.329523</ele>
        <time>2021-08-12T20:37:06.297Z</time>
      </trkpt>
      <trkpt lat="41.73862" lon="45.79202">
        <ele>486.712295</ele>
        <time>2021-08-12T20:37:31.094Z</time>
      </trkpt>
      <trkpt lat="41.7388" lon="45.79181">
        <ele>488.26534</ele>
        <time>2021-08-12T20:37:48.264Z</time>
      </trkpt>
      <trkpt lat="41.73854" lon="45.79117">
        <ele>491.851574</ele>
        <time>2021-08-12T20:38:29.764Z</time>
      </trkpt>
      <trkpt lat="41.73763" lon="45.78975">
        <ele>504.140969</ele>
        <time>2021-08-12T20:40:24.909Z</time>
      </trkpt>
      <trkpt lat="41.73709" lon="45.78893">
        <ele>512.160836</ele>
        <time>2021-08-12T20:41:36.003Z</time>
      </trkpt>
      <trkpt lat="41.73695" lon="45.78876">
        <ele>514.418962</ele>
        <time>2021-08-12T20:41:53.075Z</time>
      </trkpt>
      <trkpt lat="41.73659" lon="45.78833">
        <ele>520.137836</ele>
        <time>2021-08-12T20:42:40.353Z</time>
      </trkpt>
      <trkpt lat="41.7364" lon="45.78812">
        <ele>522.985164</ele>
        <time>2021-08-12T20:43:06.557Z</time>
      </trkpt>
      <trkpt lat="41.73619" lon="45.78793">
        <ele>525.972492</ele>
        <time>2021-08-12T20:43:32.068Z</time>
      </trkpt>
      <trkpt lat="41.73595" lon="45.78775">
        <ele>529.296241</ele>
        <time>2021-08-12T20:44:00.143Z</time>
      </trkpt>
      <trkpt lat="41.7357" lon="45.78761">
        <ele>532.478646</ele>
        <time>2021-08-12T20:44:28.207Z</time>
      </trkpt>
      <trkpt lat="41.7356" lon="45.78755">
        <ele>533.933174</ele>
        <time>2021-08-12T20:44:40.172Z</time>
      </trkpt>
      <trkpt lat="41.73549" lon="45.78748">
        <ele>535.395699</ele>
        <time>2021-08-12T20:44:54.099Z</time>
      </trkpt>
      <trkpt lat="41.73515" lon="45.78715">
        <ele>540.661624</ele>
        <time>2021-08-12T20:45:36.553Z</time>
      </trkpt>
      <trkpt lat="41.73497" lon="45.78683">
        <ele>544.328389</ele>
        <time>2021-08-12T20:46:07.575Z</time>
      </trkpt>
      <trkpt lat="41.73413" lon="45.78445">
        <ele>567.335051</ele>
        <time>2021-08-12T20:49:16.632Z</time>
      </trkpt>
      <trkpt lat="41.73386" lon="45.78388">
        <ele>573.162518</ele>
        <time>2021-08-12T20:50:04.521Z</time>
      </trkpt>
      <trkpt lat="41.73349" lon="45.78336">
        <ele>578.821134</ele>
        <time>2021-08-12T20:50:51.667Z</time>
      </trkpt>
      <trkpt lat="41.73305" lon="45.7826">
        <ele>586.503158</ele>
        <time>2021-08-12T20:51:57.314Z</time>
      </trkpt>
      <trkpt lat="41.73266" lon="45.78189">
        <ele>593.413225</ele>
        <time>2021-08-12T20:52:57.043Z</time>
      </trkpt>
      <trkpt lat="41.73249" lon="45.78156">
        <ele>596.245808</ele>
        <time>2021-08-12T20:53:23.338Z</time>
      </trkpt>
      <trkpt lat="41.73242" lon="45.78141">
        <ele>597.567587</ele>
        <time>2021-08-12T20:53:36.151Z</time>
      </trkpt>
      <trkpt lat="41.73237" lon="45.78125">
        <ele>598.789091</ele>
        <time>2021-08-12T20:53:47.974Z</time>
      </trkpt>
      <trkpt lat="41.73205" lon="45.77754">
        <ele>624.199226</ele>
        <time>2021-08-12T20:57:38.052Z</time>
      </trkpt>
      <trkpt lat="41.73195" lon="45.77687">
        <ele>627.572814</ele>
        <time>2021-08-12T20:58:13.964Z</time>
      </trkpt>
      <trkpt lat="41.73184" lon="45.77661">
        <ele>628.76629</ele>
        <time>2021-08-12T20:58:28.674Z</time>
      </trkpt>
      <trkpt lat="41.73122" lon="45.77565">
        <ele>633.875519</ele>
        <time>2021-08-12T20:59:25.293Z</time>
      </trkpt>
      <trkpt lat="41.73066" lon="45.77486">
        <ele>637.047272</ele>
        <time>2021-08-12T21:00:06.403Z</time>
      </trkpt>
      <trkpt lat="41.73002" lon="45.77409">
        <ele>639.531843</ele>
        <time>2021-08-12T21:00:44.611Z</time>
      </trkpt>
      <trkpt lat="41.72979" lon="45.77365">
        <ele>640.704256</ele>
        <time>2021-08-12T21:01:02.807Z</time>
      </trkpt>
      <trkpt lat="41.72943" lon="45.77263">
        <ele>643.791517</ele>
        <time>2021-08-12T21:01:43.218Z</time>
      </trkpt>
      <trkpt lat="41.72849" lon="45.77147">
        <ele>649.988805</ele>
        <time>2021-08-12T21:02:51.287Z</time>
      </trkpt>
      <trkpt lat="41.7282" lon="45.77072">
        <ele>655.663324</ele>
        <time>2021-08-12T21:03:37.897Z</time>
      </trkpt>
      <trkpt lat="41.72794" lon="45.77018">
        <ele>659.948166</ele>
        <time>2021-08-12T21:04:18.977Z</time>
      </trkpt>
      <trkpt lat="41.72779" lon="45.76992">
        <ele>662.167553</ele>
        <time>2021-08-12T21:04:38.256Z</time>
      </trkpt>
      <trkpt lat="41.72769" lon="45.76978">
        <ele>663.425042</ele>
        <time>2021-08-12T21:05:00.724Z</time>
      </trkpt>
      <trkpt lat="41.7276" lon="45.76953">
        <ele>666.469711</ele>
        <time>2021-08-12T21:05:16.661Z</time>
      </trkpt>
      <trkpt lat="41.72754" lon="45.76917">
        <ele>670.595504</ele>
        <time>2021-08-12T21:05:52.901Z</time>
      </trkpt>
      <trkpt lat="41.72766" lon="45.76846">
        <ele>678.701586</ele>
        <time>2021-08-12T21:07:04.429Z</time>
      </trkpt>
      <trkpt lat="41.72778" lon="45.76812">
        <ele>682.811032</ele>
        <time>2021-08-12T21:07:30.372Z</time>
      </trkpt>
      <trkpt lat="41.72781" lon="45.76805">
        <ele>683.784828</ele>
        <time>2021-08-12T21:07:40.968Z</time>
      </trkpt>
      <trkpt lat="41.72782" lon="45.76802">
        <ele>684.064073</ele>
        <time>2021-08-12T21:07:44.187Z</time>
      </trkpt>
      <trkpt lat="41.72816" lon="45.76694">
        <ele>694.45315</ele>
        <time>2021-08-12T21:09:10.135Z</time>
      </trkpt>
      <trkpt lat="41.72817" lon="45.76663">
        <ele>696.539375</ele>
        <time>2021-08-12T21:09:34.160Z</time>
      </trkpt>
      <trkpt lat="41.72813" lon="45.76654">
        <ele>697.230781</ele>
        <time>2021-08-12T21:09:38.604Z</time>
      </trkpt>
      <trkpt lat="41.72802" lon="45.76654">
        <ele>698.233334</ele>
        <time>2021-08-12T21:09:48.850Z</time>
      </trkpt>
      <trkpt lat="41.72798" lon="45.76657">
        <ele>698.639162</ele>
        <time>2021-08-12T21:09:49.803Z</time>
      </trkpt>
      <trkpt lat="41.72786" lon="45.76695">
        <ele>701.410909</ele>
        <time>2021-08-12T21:10:20.617Z</time>
      </trkpt>
      <trkpt lat="41.72764" lon="45.76717">
        <ele>703.823901</ele>
        <time>2021-08-12T21:10:32.928Z</time>
      </trkpt>
      <trkpt lat="41.72737" lon="45.7672">
        <ele>706.221826</ele>
        <time>2021-08-12T21:10:48.114Z</time>
      </trkpt>
      <trkpt lat="41.72703" lon="45.76705">
        <ele>708.812704</ele>
        <time>2021-08-12T21:11:09.640Z</time>
      </trkpt>
      <trkpt lat="41.72663" lon="45.76668">
        <ele>712.183594</ele>
        <time>2021-08-12T21:11:39.805Z</time>
      </trkpt>
      <trkpt lat="41.72645" lon="45.76642">
        <ele>714.029687</ele>
        <time>2021-08-12T21:11:57.431Z</time>
      </trkpt>
      <trkpt lat="41.72648" lon="45.76621">
        <ele>715.111769</ele>
        <time>2021-08-12T21:12:08.677Z</time>
      </trkpt>
      <trkpt lat="41.72662" lon="45.7659">
        <ele>716.961891</ele>
        <time>2021-08-12T21:12:28.990Z</time>
      </trkpt>
      <trkpt lat="41.72663" lon="45.76557">
        <ele>718.708815</ele>
        <time>2021-08-12T21:12:49.654Z</time>
      </trkpt>
      <trkpt lat="41.72629" lon="45.76496">
        <ele>725.192872</ele>
        <time>2021-08-12T21:13:40.387Z</time>
      </trkpt>
      <trkpt lat="41.72606" lon="45.76472">
        <ele>728.670319</ele>
        <time>2021-08-12T21:14:08.880Z</time>
      </trkpt>
      <trkpt lat="41.72544" lon="45.76432">
        <ele>736.913497</ele>
        <time>2021-08-12T21:15:20.513Z</time>
      </trkpt>
      <trkpt lat="41.72441" lon="45.76327">
        <ele>752.936616</ele>
        <time>2021-08-12T21:17:40.153Z</time>
      </trkpt>
      <trkpt lat="41.72405" lon="45.76282">
        <ele>759.096794</ele>
        <time>2021-08-12T21:18:30.924Z</time>
      </trkpt>
      <trkpt lat="41.72296" lon="45.7622">
        <ele>769.001525</ele>
        <time>2021-08-12T21:20:11.784Z</time>
      </trkpt>
      <trkpt lat="41.72259" lon="45.76154">
        <ele>773.290081</ele>
        <time>2021-08-12T21:20:49.495Z</time>
      </trkpt>
      <trkpt lat="41.72237" lon="45.76146">
        <ele>774.860595</ele>
        <time>2021-08-12T21:21:00.899Z</time>
      </trkpt>
      <trkpt lat="41.72162" lon="45.76164">
        <ele>776.343435</ele>
        <time>2021-08-12T21:21:31.794Z</time>
      </trkpt>
      <trkpt lat="41.72083" lon="45.76143">
        <ele>777.450389</ele>
        <time>2021-08-12T21:21:58.542Z</time>
      </trkpt>
      <trkpt lat="41.72022" lon="45.76109">
        <ele>778.724688</ele>
        <time>2021-08-12T21:22:22.918Z</time>
      </trkpt>
      <trkpt lat="41.71948" lon="45.7609">
        <ele>780.55286</ele>
        <time>2021-08-12T21:22:55.689Z</time>
      </trkpt>
      <trkpt lat="41.7185" lon="45.76033">
        <ele>783.527259</ele>
        <time>2021-08-12T21:23:49.993Z</time>
      </trkpt>
      <trkpt lat="41.71809" lon="45.7599">
        <ele>785.358886</ele>
        <time>2021-08-12T21:24:17.778Z</time>
      </trkpt>
      <trkpt lat="41.71798" lon="45.75959">
        <ele>786.263269</ele>
        <time>2021-08-12T21:24:31.285Z</time>
      </trkpt>
      <trkpt lat="41.71794" lon="45.75912">
        <ele>787.490286</ele>
        <time>2021-08-12T21:24:48.829Z</time>
      </trkpt>
      <trkpt lat="41.71794" lon="45.75885">
        <ele>788.201212</ele>
        <time>2021-08-12T21:24:58.707Z</time>
      </trkpt>
      <trkpt lat="41.71809" lon="45.75788">
        <ele>790.49867</ele>
        <time>2021-08-12T21:25:32.864Z</time>
      </trkpt>
      <trkpt lat="41.71806" lon="45.75638">
        <ele>793.946424</ele>
        <time>2021-08-12T21:26:27.359Z</time>
      </trkpt>
      <trkpt lat="41.71843" lon="45.75569">
        <ele>797.393411</ele>
        <time>2021-08-12T21:26:59.521Z</time>
      </trkpt>
      <trkpt lat="41.71849" lon="45.75526">
        <ele>799.21122</ele>
        <time>2021-08-12T21:27:18.549Z</time>
      </trkpt>
      <trkpt lat="41.71861" lon="45.75484">
        <ele>801.079828</ele>
        <time>2021-08-12T21:27:40.203Z</time>
      </trkpt>
      <trkpt lat="41.71863" lon="45.75447">
        <ele>802.627754</ele>
        <time>2021-08-12T21:27:59.821Z</time>
      </trkpt>
      <trkpt lat="41.71859" lon="45.75413">
        <ele>804.059035</ele>
        <time>2021-08-12T21:28:19.308Z</time>
      </trkpt>
      <trkpt lat="41.71854" lon="45.75399">
        <ele>805.17956</ele>
        <time>2021-08-12T21:28:28.805Z</time>
      </trkpt>
      <trkpt lat="41.71849" lon="45.75394">
        <ele>805.810614</ele>
        <time>2021-08-12T21:28:33.908Z</time>
      </trkpt>
      <trkpt lat="41.71841" lon="45.75399">
        <ele>806.667811</ele>
        <time>2021-08-12T21:28:40.698Z</time>
      </trkpt>
      <trkpt lat="41.71813" lon="45.75518">
        <ele>815.83333</ele>
        <time>2021-08-12T21:29:59.736Z</time>
      </trkpt>
      <trkpt lat="41.71806" lon="45.75538">
        <ele>817.48529</ele>
        <time>2021-08-12T21:30:14.774Z</time>
      </trkpt>
      <trkpt lat="41.71796" lon="45.75545">
        <ele>818.572193</ele>
        <time>2021-08-12T21:30:25.131Z</time>
      </trkpt>
      <trkpt lat="41.71793" lon="45.75533">
        <ele>819.543426</ele>
        <time>2021-08-12T21:30:34.758Z</time>
      </trkpt>
      <trkpt lat="41.71798" lon="45.75483">
        <ele>823.261946</ele>
        <time>2021-08-12T21:31:11.449Z</time>
      </trkpt>
      <trkpt lat="41.71792" lon="45.75461">
        <ele>824.963203</ele>
        <time>2021-08-12T21:31:27.923Z</time>
      </trkpt>
      <trkpt lat="41.71759" lon="45.7543">
        <ele>828.950986</ele>
        <time>2021-08-12T21:32:05.818Z</time>
      </trkpt>
      <trkpt lat="41.71751" lon="45.75411">
        <ele>830.60289</ele>
        <time>2021-08-12T21:32:21.225Z</time>
      </trkpt>
      <trkpt lat="41.71774" lon="45.75305">
        <ele>838.807606</ele>
        <time>2021-08-12T21:33:30.042Z</time>
      </trkpt>
      <trkpt lat="41.71778" lon="45.75269">
        <ele>840.850952</ele>
        <time>2021-08-12T21:33:51.271Z</time>
      </trkpt>
      <trkpt lat="41.71782" lon="45.75064">
        <ele>850.047172</ele>
        <time>2021-08-12T21:35:30.259Z</time>
      </trkpt>
      <trkpt lat="41.71782" lon="45.74936">
        <ele>851.86306</ele>
        <time>2021-08-12T21:36:15.278Z</time>
      </trkpt>
      <trkpt lat="41.71758" lon="45.74821">
        <ele>853.176334</ele>
        <time>2021-08-12T21:36:45.417Z</time>
      </trkpt>
      <trkpt lat="41.71746" lon="45.74791">
        <ele>852.329283</ele>
        <time>2021-08-12T21:36:51.639Z</time>
      </trkpt>
      <trkpt lat="41.71741" lon="45.74776">
        <ele>851.792919</ele>
        <time>2021-08-12T21:36:54.734Z</time>
      </trkpt>
      <trkpt lat="41.7172" lon="45.74715">
        <ele>849.563167</ele>
        <time>2021-08-12T21:37:05.809Z</time>
      </trkpt>
      <trkpt lat="41.71718" lon="45.7471">
        <ele>849.359883</ele>
        <time>2021-08-12T21:37:06.798Z</time>
      </trkpt>
      <trkpt lat="41.71708" lon="45.74687">
        <ele>848.49035</ele>
        <time>2021-08-12T21:37:11.172Z</time>
      </trkpt>
      <trkpt lat="41.71707" lon="45.74684">
        <ele>848.380402</ele>
        <time>2021-08-12T21:37:11.608Z</time>
      </trkpt>
      <trkpt lat="41.71685" lon="45.74659">
        <ele>847.086082</ele>
        <time>2021-08-12T21:37:17.871Z</time>
      </trkpt>
      <trkpt lat="41.71646" lon="45.74638">
        <ele>845.20353</ele>
        <time>2021-08-12T21:37:26.246Z</time>
      </trkpt>
      <trkpt lat="41.71572" lon="45.74623">
        <ele>839.062111</ele>
        <time>2021-08-12T21:37:40.820Z</time>
      </trkpt>
      <trkpt lat="41.71526" lon="45.74633">
        <ele>835.283115</ele>
        <time>2021-08-12T21:37:49.737Z</time>
      </trkpt>
      <trkpt lat="41.71497" lon="45.74648">
        <ele>832.674702</ele>
        <time>2021-08-12T21:37:56.025Z</time>
      </trkpt>
      <trkpt lat="41.71464" lon="45.74674">
        <ele>829.682072</ele>
        <time>2021-08-12T21:38:03.464Z</time>
      </trkpt>
      <trkpt lat="41.71461" lon="45.74677">
        <ele>829.380764</ele>
        <time>2021-08-12T21:38:04.194Z</time>
      </trkpt>
      <trkpt lat="41.71428" lon="45.74702">
        <ele>826.68422</ele>
        <time>2021-08-12T21:38:11.569Z</time>
      </trkpt>
      <trkpt lat="41.71321" lon="45.74788">
        <ele>817.61021</ele>
        <time>2021-08-12T21:38:36.659Z</time>
      </trkpt>
      <trkpt lat="41.71271" lon="45.74851">
        <ele>812.081198</ele>
        <time>2021-08-12T21:38:50.960Z</time>
      </trkpt>
      <trkpt lat="41.71248" lon="45.74862">
        <ele>810.08923</ele>
        <time>2021-08-12T21:38:55.616Z</time>
      </trkpt>
      <trkpt lat="41.71208" lon="45.74853">
        <ele>806.799976</ele>
        <time>2021-08-12T21:39:03.494Z</time>
      </trkpt>
      <trkpt lat="41.71128" lon="45.74869">
        <ele>799.445043</ele>
        <time>2021-08-12T21:39:18.997Z</time>
      </trkpt>
      <trkpt lat="41.71122" lon="45.74864">
        <ele>798.726057</ele>
        <time>2021-08-12T21:39:20.239Z</time>
      </trkpt>
      <trkpt lat="41.71118" lon="45.7486">
        <ele>798.138818</ele>
        <time>2021-08-12T21:39:21.237Z</time>
      </trkpt>
      <trkpt lat="41.71034" lon="45.74754">
        <ele>785.966624</ele>
        <time>2021-08-12T21:39:43.069Z</time>
      </trkpt>
      <trkpt lat="41.70942" lon="45.74658">
        <ele>774.248134</ele>
        <time>2021-08-12T21:40:05.051Z</time>
      </trkpt>
      <trkpt lat="41.70921" lon="45.74632">
        <ele>771.357971</ele>
        <time>2021-08-12T21:40:10.593Z</time>
      </trkpt>
      <trkpt lat="41.70913" lon="45.74622">
        <ele>770.313548</ele>
        <time>2021-08-12T21:40:12.639Z</time>
      </trkpt>
      <trkpt lat="41.70874" lon="45.74567">
        <ele>765.001598</ele>
        <time>2021-08-12T21:40:23.547Z</time>
      </trkpt>
      <trkpt lat="41.70842" lon="45.74538">
        <ele>762.168156</ele>
        <time>2021-08-12T21:40:30.996Z</time>
      </trkpt>
      <trkpt lat="41.70821" lon="45.74529">
        <ele>760.542271</ele>
        <time>2021-08-12T21:40:35.297Z</time>
      </trkpt>
      <trkpt lat="41.70738" lon="45.74539">
        <ele>754.365014</ele>
        <time>2021-08-12T21:40:52.026Z</time>
      </trkpt>
      <trkpt lat="41.70682" lon="45.74557">
        <ele>750.776521</ele>
        <time>2021-08-12T21:41:04.130Z</time>
      </trkpt>
      <trkpt lat="41.70639" lon="45.74558">
        <ele>748.468773</ele>
        <time>2021-08-12T21:41:13.027Z</time>
      </trkpt>
      <trkpt lat="41.70622" lon="45.74551">
        <ele>747.526981</ele>
        <time>2021-08-12T21:41:16.682Z</time>
      </trkpt>
      <trkpt lat="41.70565" lon="45.74508">
        <ele>743.987458</ele>
        <time>2021-08-12T21:41:30.503Z</time>
      </trkpt>
      <trkpt lat="41.70539" lon="45.74475">
        <ele>742.148541</ele>
        <time>2021-08-12T21:41:38.085Z</time>
      </trkpt>
      <trkpt lat="41.70487" lon="45.74425">
        <ele>739.116</ele>
        <time>2021-08-12T21:41:51.369Z</time>
      </trkpt>
      <trkpt lat="41.70429" lon="45.74398">
        <ele>736.20399</ele>
        <time>2021-08-12T21:42:04.371Z</time>
      </trkpt>
      <trkpt lat="41.704" lon="45.74389">
        <ele>734.791682</ele>
        <time>2021-08-12T21:42:10.674Z</time>
      </trkpt>
      <trkpt lat="41.70372" lon="45.74389">
        <ele>734.18856</ele>
        <time>2021-08-12T21:42:17.180Z</time>
      </trkpt>
      <trkpt lat="41.70264" lon="45.74385">
        <ele>732.894278</ele>
        <time>2021-08-12T21:42:44.473Z</time>
      </trkpt>
      <trkpt lat="41.70256" lon="45.74382">
        <ele>732.792839</ele>
        <time>2021-08-12T21:42:46.576Z</time>
      </trkpt>
      <trkpt lat="41.70235" lon="45.74371">
        <ele>732.529219</ele>
        <time>2021-08-12T21:42:55.089Z</time>
      </trkpt>
      <trkpt lat="41.69905" lon="45.74132">
        <ele>739.816842</ele>
        <time>2021-08-12T21:45:39.537Z</time>
      </trkpt>
      <trkpt lat="41.69641" lon="45.7395">
        <ele>745.118939</ele>
        <time>2021-08-12T21:47:37.236Z</time>
      </trkpt>
      <trkpt lat="41.69591" lon="45.73918">
        <ele>746.256922</ele>
        <time>2021-08-12T21:48:01.590Z</time>
      </trkpt>
      <trkpt lat="41.6958" lon="45.73909">
        <ele>746.554429</ele>
        <time>2021-08-12T21:48:08.507Z</time>
      </trkpt>
      <trkpt lat="41.69563" lon="45.73892">
        <ele>747.512249</ele>
        <time>2021-08-12T21:48:18.267Z</time>
      </trkpt>
      <trkpt lat="41.6949" lon="45.73768">
        <ele>752.90706</ele>
        <time>2021-08-12T21:49:24.244Z</time>
      </trkpt>
      <trkpt lat="41.69379" lon="45.73599">
        <ele>763.693544</ele>
        <time>2021-08-12T21:51:15.420Z</time>
      </trkpt>
      <trkpt lat="41.69284" lon="45.73491">
        <ele>773.736023</ele>
        <time>2021-08-12T21:52:56.545Z</time>
      </trkpt>
      <trkpt lat="41.69224" lon="45.73415">
        <ele>780.996874</ele>
        <time>2021-08-12T21:54:05.718Z</time>
      </trkpt>
      <trkpt lat="41.69163" lon="45.73345">
        <ele>786.441054</ele>
        <time>2021-08-12T21:55:06.389Z</time>
      </trkpt>
      <trkpt lat="41.69161" lon="45.73343">
        <ele>786.598272</ele>
        <time>2021-08-12T21:55:08.949Z</time>
      </trkpt>
      <trkpt lat="41.69091" lon="45.73252">
        <ele>792.234252</ele>
        <time>2021-08-12T21:56:08.265Z</time>
      </trkpt>
      <trkpt lat="41.68862" lon="45.72886">
        <ele>802.48257</ele>
        <time>2021-08-12T21:58:53.295Z</time>
      </trkpt>
      <trkpt lat="41.68837" lon="45.72862">
        <ele>803.17182</ele>
        <time>2021-08-12T21:59:05.587Z</time>
      </trkpt>
      <trkpt lat="41.68822" lon="45.72861">
        <ele>803.367206</ele>
        <time>2021-08-12T21:59:11.290Z</time>
      </trkpt>
      <trkpt lat="41.6882" lon="45.72862">
        <ele>803.397748</ele>
        <time>2021-08-12T21:59:12.986Z</time>
      </trkpt>
      <trkpt lat="41.68819" lon="45.72831">
        <ele>803.699355</ele>
        <time>2021-08-12T21:59:21.247Z</time>
      </trkpt>
      <trkpt lat="41.68799" lon="45.72735">
        <ele>804.65447</ele>
        <time>2021-08-12T21:59:48.432Z</time>
      </trkpt>
      <trkpt lat="41.68759" lon="45.72611">
        <ele>806.293067</ele>
        <time>2021-08-12T22:00:27.326Z</time>
      </trkpt>
      <trkpt lat="41.68755" lon="45.72575">
        <ele>806.873993</ele>
        <time>2021-08-12T22:00:38.326Z</time>
      </trkpt>
      <trkpt lat="41.68749" lon="45.7254">
        <ele>807.459666</ele>
        <time>2021-08-12T22:00:50.314Z</time>
      </trkpt>
      <trkpt lat="41.68733" lon="45.7251">
        <ele>808.034108</ele>
        <time>2021-08-12T22:01:02.119Z</time>
      </trkpt>
      <trkpt lat="41.68645" lon="45.72398">
        <ele>810.500896</ele>
        <time>2021-08-12T22:01:59.581Z</time>
      </trkpt>
      <trkpt lat="41.68632" lon="45.72371">
        <ele>810.962215</ele>
        <time>2021-08-12T22:02:10.320Z</time>
      </trkpt>
      <trkpt lat="41.68608" lon="45.72292">
        <ele>812.164688</ele>
        <time>2021-08-12T22:02:36.224Z</time>
      </trkpt>
      <trkpt lat="41.68583" lon="45.72269">
        <ele>812.705029</ele>
        <time>2021-08-12T22:02:47.521Z</time>
      </trkpt>
      <trkpt lat="41.68542" lon="45.72213">
        <ele>811.972981</ele>
        <time>2021-08-12T22:03:05.391Z</time>
      </trkpt>
      <trkpt lat="41.6848" lon="45.72147">
        <ele>810.971362</ele>
        <time>2021-08-12T22:03:25.805Z</time>
      </trkpt>
      <trkpt lat="41.68458" lon="45.72123">
        <ele>810.619102</ele>
        <time>2021-08-12T22:03:32.421Z</time>
      </trkpt>
      <trkpt lat="41.68433" lon="45.72086">
        <ele>809.530052</ele>
        <time>2021-08-12T22:03:41.016Z</time>
      </trkpt>
      <trkpt lat="41.68426" lon="45.72053">
        <ele>808.55729</ele>
        <time>2021-08-12T22:03:46.774Z</time>
      </trkpt>
      <trkpt lat="41.68429" lon="45.71872">
        <ele>803.543373</ele>
        <time>2021-08-12T22:04:16.249Z</time>
      </trkpt>
      <trkpt lat="41.68425" lon="45.71814">
        <ele>802.560898</ele>
        <time>2021-08-12T22:04:25.937Z</time>
      </trkpt>
      <trkpt lat="41.6843" lon="45.71777">
        <ele>801.913984</ele>
        <time>2021-08-12T22:04:32.515Z</time>
      </trkpt>
      <trkpt lat="41.6846" lon="45.7169">
        <ele>800.300732</ele>
        <time>2021-08-12T22:04:50.137Z</time>
      </trkpt>
      <trkpt lat="41.68483" lon="45.71646">
        <ele>799.705791</ele>
        <time>2021-08-12T22:05:01.495Z</time>
      </trkpt>
      <trkpt lat="41.68485" lon="45.71622">
        <ele>799.929895</ele>
        <time>2021-08-12T22:05:07.208Z</time>
      </trkpt>
      <trkpt lat="41.68476" lon="45.71597">
        <ele>800.189256</ele>
        <time>2021-08-12T22:05:14.543Z</time>
      </trkpt>
      <trkpt lat="41.6846" lon="45.71584">
        <ele>800.419028</ele>
        <time>2021-08-12T22:05:21.721Z</time>
      </trkpt>
      <trkpt lat="41.68436" lon="45.71587">
        <ele>800.711225</ele>
        <time>2021-08-12T22:05:31.617Z</time>
      </trkpt>
      <trkpt lat="41.68399" lon="45.71606">
        <ele>801.209976</ele>
        <time>2021-08-12T22:05:48.923Z</time>
      </trkpt>
      <trkpt lat="41.68369" lon="45.71597">
        <ele>801.58904</ele>
        <time>2021-08-12T22:06:02.029Z</time>
      </trkpt>
      <trkpt lat="41.68354" lon="45.71574">
        <ele>801.84043</ele>
        <time>2021-08-12T22:06:11.726Z</time>
      </trkpt>
      <trkpt lat="41.68328" lon="45.715">
        <ele>801.988387</ele>
        <time>2021-08-12T22:06:36.454Z</time>
      </trkpt>
      <trkpt lat="41.68301" lon="45.7142">
        <ele>802.14731</ele>
        <time>2021-08-12T22:06:58.515Z</time>
      </trkpt>
      <trkpt lat="41.68295" lon="45.71401">
        <ele>802.183507</ele>
        <time>2021-08-12T22:07:02.712Z</time>
      </trkpt>
      <trkpt lat="41.68265" lon="45.71292">
        <ele>800.273726</ele>
        <time>2021-08-12T22:07:24.200Z</time>
      </trkpt>
      <trkpt lat="41.68261" lon="45.71282">
        <ele>799.931511</ele>
        <time>2021-08-12T22:07:26.158Z</time>
      </trkpt>
      <trkpt lat="41.68244" lon="45.7124">
        <ele>798.563307</ele>
        <time>2021-08-12T22:07:33.947Z</time>
      </trkpt>
      <trkpt lat="41.68209" lon="45.7117">
        <ele>796.163299</ele>
        <time>2021-08-12T22:07:47.345Z</time>
      </trkpt>
      <trkpt lat="41.68188" lon="45.71129">
        <ele>794.454829</ele>
        <time>2021-08-12T22:07:55.102Z</time>
      </trkpt>
      <trkpt lat="41.68176" lon="45.71106">
        <ele>793.271162</ele>
        <time>2021-08-12T22:07:59.455Z</time>
      </trkpt>
      <trkpt lat="41.68154" lon="45.71062">
        <ele>791.043186</ele>
        <time>2021-08-12T22:08:07.710Z</time>
      </trkpt>
      <trkpt lat="41.68118" lon="45.70997">
        <ele>787.679416</ele>
        <time>2021-08-12T22:08:20.144Z</time>
      </trkpt>
      <trkpt lat="41.68047" lon="45.70916">
        <ele>782.600602</ele>
        <time>2021-08-12T22:08:39.533Z</time>
      </trkpt>
      <trkpt lat="41.68002" lon="45.70864">
        <ele>779.410368</ele>
        <time>2021-08-12T22:08:52.094Z</time>
      </trkpt>
      <trkpt lat="41.6798" lon="45.70842">
        <ele>777.968969</ele>
        <time>2021-08-12T22:08:57.734Z</time>
      </trkpt>
      <trkpt lat="41.67944" lon="45.70799">
        <ele>775.399961</ele>
        <time>2021-08-12T22:09:07.841Z</time>
      </trkpt>
      <trkpt lat="41.67797" lon="45.70636">
        <ele>766.144646</ele>
        <time>2021-08-12T22:09:48.293Z</time>
      </trkpt>
      <trkpt lat="41.67727" lon="45.70561">
        <ele>762.824133</ele>
        <time>2021-08-12T22:10:08.425Z</time>
      </trkpt>
      <trkpt lat="41.6755" lon="45.70363">
        <ele>753.915917</ele>
        <time>2021-08-12T22:11:00.825Z</time>
      </trkpt>
      <trkpt lat="41.67535" lon="45.70348">
        <ele>753.174449</ele>
        <time>2021-08-12T22:11:04.692Z</time>
      </trkpt>
      <trkpt lat="41.67522" lon="45.70338">
        <ele>752.083466</ele>
        <time>2021-08-12T22:11:07.677Z</time>
      </trkpt>
      <trkpt lat="41.67482" lon="45.70306">
        <ele>748.198418</ele>
        <time>2021-08-12T22:11:16.974Z</time>
      </trkpt>
      <trkpt lat="41.67441" lon="45.70269">
        <ele>744.051628</ele>
        <time>2021-08-12T22:11:26.763Z</time>
      </trkpt>
      <trkpt lat="41.67405" lon="45.70244">
        <ele>740.70653</ele>
        <time>2021-08-12T22:11:34.430Z</time>
      </trkpt>
      <trkpt lat="41.67394" lon="45.70229">
        <ele>739.401537</ele>
        <time>2021-08-12T22:11:37.358Z</time>
      </trkpt>
      <trkpt lat="41.67386" lon="45.70206">
        <ele>737.870548</ele>
        <time>2021-08-12T22:11:40.995Z</time>
      </trkpt>
      <trkpt lat="41.67387" lon="45.70175">
        <ele>736.210584</ele>
        <time>2021-08-12T22:11:45.438Z</time>
      </trkpt>
      <trkpt lat="41.67391" lon="45.70134">
        <ele>734.046482</ele>
        <time>2021-08-12T22:11:51.275Z</time>
      </trkpt>
      <trkpt lat="41.67393" lon="45.701">
        <ele>732.219965</ele>
        <time>2021-08-12T22:11:56.338Z</time>
      </trkpt>
      <trkpt lat="41.67392" lon="45.70054">
        <ele>729.809202</ele>
        <time>2021-08-12T22:12:03.156Z</time>
      </trkpt>
      <trkpt lat="41.67381" lon="45.69991">
        <ele>726.372279</ele>
        <time>2021-08-12T22:12:13.578Z</time>
      </trkpt>
      <trkpt lat="41.6738" lon="45.69974">
        <ele>725.484851</ele>
        <time>2021-08-12T22:12:16.353Z</time>
      </trkpt>
      <trkpt lat="41.67379" lon="45.69957">
        <ele>725.353234</ele>
        <time>2021-08-12T22:12:19.158Z</time>
      </trkpt>
      <trkpt lat="41.67377" lon="45.69932">
        <ele>725.320771</ele>
        <time>2021-08-12T22:12:23.586Z</time>
      </trkpt>
      <trkpt lat="41.67378" lon="45.69891">
        <ele>725.26749</ele>
        <time>2021-08-12T22:12:31.776Z</time>
      </trkpt>
      <trkpt lat="41.67364" lon="45.69856">
        <ele>725.216301</ele>
        <time>2021-08-12T22:12:41.843Z</time>
      </trkpt>
      <trkpt lat="41.67342" lon="45.69834">
        <ele>725.167871</ele>
        <time>2021-08-12T22:12:52.491Z</time>
      </trkpt>
      <trkpt lat="41.67266" lon="45.69793">
        <ele>724.814099</ele>
        <time>2021-08-12T22:13:27.092Z</time>
      </trkpt>
      <trkpt lat="41.67229" lon="45.69769">
        <ele>724.296538</ele>
        <time>2021-08-12T22:13:41.244Z</time>
      </trkpt>
      <trkpt lat="41.67174" lon="45.69749">
        <ele>723.579736</ele>
        <time>2021-08-12T22:13:56.671Z</time>
      </trkpt>
      <trkpt lat="41.66999" lon="45.69672">
        <ele>717.212137</ele>
        <time>2021-08-12T22:14:36.901Z</time>
      </trkpt>
      <trkpt lat="41.66923" lon="45.69635">
        <ele>713.087385</ele>
        <time>2021-08-12T22:14:53.819Z</time>
      </trkpt>
      <trkpt lat="41.66845" lon="45.69607">
        <ele>708.033447</ele>
        <time>2021-08-12T22:15:10.216Z</time>
      </trkpt>
      <trkpt lat="41.66802" lon="45.69587">
        <ele>705.180946</ele>
        <time>2021-08-12T22:15:19.408Z</time>
      </trkpt>
      <trkpt lat="41.66767" lon="45.69567">
        <ele>702.782568</ele>
        <time>2021-08-12T22:15:27.072Z</time>
      </trkpt>
      <trkpt lat="41.66711" lon="45.69539">
        <ele>698.852989</ele>
        <time>2021-08-12T22:15:39.107Z</time>
      </trkpt>
      <trkpt lat="41.6659" lon="45.69486">
        <ele>690.548127</ele>
        <time>2021-08-12T22:16:04.771Z</time>
      </trkpt>
      <trkpt lat="41.66426" lon="45.69388">
        <ele>679.651169</ele>
        <time>2021-08-12T22:16:41.644Z</time>
      </trkpt>
      <trkpt lat="41.66404" lon="45.69381">
        <ele>678.491863</ele>
        <time>2021-08-12T22:16:46.291Z</time>
      </trkpt>
      <trkpt lat="41.6638" lon="45.69365">
        <ele>677.115197</ele>
        <time>2021-08-12T22:16:51.901Z</time>
      </trkpt>
      <trkpt lat="41.66308" lon="45.69338">
        <ele>673.23478</ele>
        <time>2021-08-12T22:17:07.712Z</time>
      </trkpt>
      <trkpt lat="41.66289" lon="45.69323">
        <ele>672.116949</ele>
        <time>2021-08-12T22:17:12.354Z</time>
      </trkpt>
      <trkpt lat="41.66275" lon="45.69302">
        <ele>671.029949</ele>
        <time>2021-08-12T22:17:16.814Z</time>
      </trkpt>
      <trkpt lat="41.66107" lon="45.69305">
        <ele>663.369637</ele>
        <time>2021-08-12T22:17:52.913Z</time>
      </trkpt>
      <trkpt lat="41.66075" lon="45.69313">
        <ele>661.814293</ele>
        <time>2021-08-12T22:17:59.786Z</time>
      </trkpt>
      <trkpt lat="41.6591" lon="45.69323">
        <ele>653.61702</ele>
        <time>2021-08-12T22:18:34.904Z</time>
      </trkpt>
      <trkpt lat="41.65851" lon="45.69321">
        <ele>650.341986</ele>
        <time>2021-08-12T22:18:47.270Z</time>
      </trkpt>
      <trkpt lat="41.658" lon="45.69315">
        <ele>647.495595</ele>
        <time>2021-08-12T22:18:57.907Z</time>
      </trkpt>
      <trkpt lat="41.65698" lon="45.69299">
        <ele>641.430419</ele>
        <time>2021-08-12T22:19:18.887Z</time>
      </trkpt>
      <trkpt lat="41.65583" lon="45.69287">
        <ele>633.998716</ele>
        <time>2021-08-12T22:19:42.105Z</time>
      </trkpt>
      <trkpt lat="41.65535" lon="45.69282">
        <ele>630.868615</ele>
        <time>2021-08-12T22:19:51.961Z</time>
      </trkpt>
      <trkpt lat="41.65341" lon="45.6928">
        <ele>618.29998</ele>
        <time>2021-08-12T22:20:31.255Z</time>
      </trkpt>
      <trkpt lat="41.65287" lon="45.69287">
        <ele>614.588489</ele>
        <time>2021-08-12T22:20:42.226Z</time>
      </trkpt>
      <trkpt lat="41.65236" lon="45.69298">
        <ele>611.07651</ele>
        <time>2021-08-12T22:20:52.498Z</time>
      </trkpt>
      <trkpt lat="41.65172" lon="45.69302">
        <ele>606.60097</ele>
        <time>2021-08-12T22:21:05.260Z</time>
      </trkpt>
      <trkpt lat="41.64984" lon="45.69278">
        <ele>593.386202</ele>
        <time>2021-08-12T22:21:43.073Z</time>
      </trkpt>
      <trkpt lat="41.64771" lon="45.69237">
        <ele>579.835255</ele>
        <time>2021-08-12T22:22:26.821Z</time>
      </trkpt>
      <trkpt lat="41.64678" lon="45.69222">
        <ele>574.266067</ele>
        <time>2021-08-12T22:22:46.027Z</time>
      </trkpt>
      <trkpt lat="41.64516" lon="45.69189">
        <ele>565.293308</ele>
        <time>2021-08-12T22:23:20.177Z</time>
      </trkpt>
      <trkpt lat="41.64322" lon="45.69144">
        <ele>554.464105</ele>
        <time>2021-08-12T22:24:01.238Z</time>
      </trkpt>
      <trkpt lat="41.64295" lon="45.69137">
        <ele>552.911456</ele>
        <time>2021-08-12T22:24:07.009Z</time>
      </trkpt>
      <trkpt lat="41.64226" lon="45.69119">
        <ele>549.045115</ele>
        <time>2021-08-12T22:24:21.517Z</time>
      </trkpt>
      <trkpt lat="41.64179" lon="45.69107">
        <ele>546.410906</ele>
        <time>2021-08-12T22:24:31.421Z</time>
      </trkpt>
      <trkpt lat="41.64039" lon="45.69071">
        <ele>539.719826</ele>
        <time>2021-08-12T22:25:01.520Z</time>
      </trkpt>
      <trkpt lat="41.63977" lon="45.6906">
        <ele>537.038052</ele>
        <time>2021-08-12T22:25:15.360Z</time>
      </trkpt>
      <trkpt lat="41.63922" lon="45.69047">
        <ele>534.990992</ele>
        <time>2021-08-12T22:25:27.979Z</time>
      </trkpt>
      <trkpt lat="41.63892" lon="45.69039">
        <ele>533.974165</ele>
        <time>2021-08-12T22:25:35.069Z</time>
      </trkpt>
      <trkpt lat="41.63717" lon="45.68993">
        <ele>528.408625</ele>
        <time>2021-08-12T22:26:15.924Z</time>
      </trkpt>
      <trkpt lat="41.63643" lon="45.68974">
        <ele>526.22644</ele>
        <time>2021-08-12T22:26:33.063Z</time>
      </trkpt>
      <trkpt lat="41.63425" lon="45.68914">
        <ele>520.907006</ele>
        <time>2021-08-12T22:27:26.014Z</time>
      </trkpt>
      <trkpt lat="41.63386" lon="45.68892">
        <ele>520.768721</ele>
        <time>2021-08-12T22:27:37.227Z</time>
      </trkpt>
      <trkpt lat="41.63386" lon="45.68892">
        <ele>520.768721</ele>
        <time>2021-08-12T22:27:37.443Z</time>
      </trkpt>
      <trkpt lat="41.6351" lon="45.68533">
        <ele>520.708513</ele>
        <time>2021-08-12T22:29:12.320Z</time>
      </trkpt>
      <trkpt lat="41.63536" lon="45.68458">
        <ele>521.005208</ele>
        <time>2021-08-12T22:29:33.762Z</time>
      </trkpt>
      <trkpt lat="41.63564" lon="45.68395">
        <ele>521.328792</ele>
        <time>2021-08-12T22:29:52.847Z</time>
      </trkpt>
      <trkpt lat="41.63592" lon="45.68333">
        <ele>521.654937</ele>
        <time>2021-08-12T22:30:11.897Z</time>
      </trkpt>
      <trkpt lat="41.63614" lon="45.68286">
        <ele>521.870021</ele>
        <time>2021-08-12T22:30:26.246Z</time>
      </trkpt>
      <trkpt lat="41.63642" lon="45.68228">
        <ele>522.046544</ele>
        <time>2021-08-12T22:30:43.755Z</time>
      </trkpt>
      <trkpt lat="41.63697" lon="45.68113">
        <ele>522.397055</ele>
        <time>2021-08-12T22:31:17.916Z</time>
      </trkpt>
      <trkpt lat="41.63711" lon="45.68085">
        <ele>522.341532</ele>
        <time>2021-08-12T22:31:25.769Z</time>
      </trkpt>
      <trkpt lat="41.63743" lon="45.68023">
        <ele>521.867651</ele>
        <time>2021-08-12T22:31:41.862Z</time>
      </trkpt>
      <trkpt lat="41.6376" lon="45.67985">
        <ele>521.578353</ele>
        <time>2021-08-12T22:31:51.188Z</time>
      </trkpt>
      <trkpt lat="41.63761" lon="45.67981">
        <ele>521.549697</ele>
        <time>2021-08-12T22:31:52.139Z</time>
      </trkpt>
      <trkpt lat="41.63776" lon="45.67941">
        <ele>521.268679</ele>
        <time>2021-08-12T22:32:00.915Z</time>
      </trkpt>
      <trkpt lat="41.63792" lon="45.67879">
        <ele>520.759904</ele>
        <time>2021-08-12T22:32:13.711Z</time>
      </trkpt>
      <trkpt lat="41.63935" lon="45.67097">
        <ele>507.770948</ele>
        <time>2021-08-12T22:34:39.425Z</time>
      </trkpt>
      <trkpt lat="41.63956" lon="45.66984">
        <ele>506.259049</ele>
        <time>2021-08-12T22:35:01.593Z</time>
      </trkpt>
      <trkpt lat="41.64013" lon="45.66644">
        <ele>504.015967</ele>
        <time>2021-08-12T22:36:14.354Z</time>
      </trkpt>
      <trkpt lat="41.64039" lon="45.66484">
        <ele>503.145796</ele>
        <time>2021-08-12T22:36:48.990Z</time>
      </trkpt>
      <trkpt lat="41.64044" lon="45.66455">
        <ele>502.90357</ele>
        <time>2021-08-12T22:36:55.036Z</time>
      </trkpt>
      <trkpt lat="41.64079" lon="45.66186">
        <ele>500.715758</ele>
        <time>2021-08-12T22:37:49.180Z</time>
      </trkpt>
      <trkpt lat="41.64147" lon="45.65719">
        <ele>497.610359</ele>
        <time>2021-08-12T22:39:27.002Z</time>
      </trkpt>
      <trkpt lat="41.64167" lon="45.65507">
        <ele>496.378916</ele>
        <time>2021-08-12T22:40:12.916Z</time>
      </trkpt>
      <trkpt lat="41.64165" lon="45.65371">
        <ele>494.894322</ele>
        <time>2021-08-12T22:40:39.520Z</time>
      </trkpt>
      <trkpt lat="41.6416" lon="45.65315">
        <ele>494.269089</ele>
        <time>2021-08-12T22:40:50.122Z</time>
      </trkpt>
      <trkpt lat="41.64155" lon="45.65228">
        <ele>492.702125</ele>
        <time>2021-08-12T22:41:05.695Z</time>
      </trkpt>
      <trkpt lat="41.64066" lon="45.64517">
        <ele>478.228449</ele>
        <time>2021-08-12T22:43:11.904Z</time>
      </trkpt>
      <trkpt lat="41.6404" lon="45.64269">
        <ele>474.531654</ele>
        <time>2021-08-12T22:43:58.185Z</time>
      </trkpt>
      <trkpt lat="41.64044" lon="45.64134">
        <ele>473.088654</ele>
        <time>2021-08-12T22:44:24.649Z</time>
      </trkpt>
      <trkpt lat="41.64093" lon="45.63789">
        <ele>470.801484</ele>
        <time>2021-08-12T22:45:36.903Z</time>
      </trkpt>
      <trkpt lat="41.64098" lon="45.63743">
        <ele>470.567908</ele>
        <time>2021-08-12T22:45:46.672Z</time>
      </trkpt>
      <trkpt lat="41.64101" lon="45.63706">
        <ele>470.382339</ele>
        <time>2021-08-12T22:45:54.442Z</time>
      </trkpt>
      <trkpt lat="41.64111" lon="45.63571">
        <ele>469.908714</ele>
        <time>2021-08-12T22:46:23.824Z</time>
      </trkpt>
      <trkpt lat="41.64119" lon="45.6336">
        <ele>469.600152</ele>
        <time>2021-08-12T22:47:12.461Z</time>
      </trkpt>
      <trkpt lat="41.64139" lon="45.62831">
        <ele>469.379366</ele>
        <time>2021-08-12T22:49:13.193Z</time>
      </trkpt>
      <trkpt lat="41.64159" lon="45.62189">
        <ele>470.908008</ele>
        <time>2021-08-12T22:51:54.153Z</time>
      </trkpt>
      <trkpt lat="41.64164" lon="45.62062">
        <ele>470.253905</ele>
        <time>2021-08-12T22:52:21.807Z</time>
      </trkpt>
      <trkpt lat="41.64166" lon="45.61985">
        <ele>469.849429</ele>
        <time>2021-08-12T22:52:37.532Z</time>
      </trkpt>
      <trkpt lat="41.64177" lon="45.61623">
        <ele>466.371845</ele>
        <time>2021-08-12T22:53:47.579Z</time>
      </trkpt>
      <trkpt lat="41.64217" lon="45.60826">
        <ele>460.543537</ele>
        <time>2021-08-12T22:56:26.844Z</time>
      </trkpt>
      <trkpt lat="41.64219" lon="45.60761">
        <ele>460.452007</ele>
        <time>2021-08-12T22:56:45.121Z</time>
      </trkpt>
      <trkpt lat="41.6424" lon="45.60277">
        <ele>468.04715</ele>
        <time>2021-08-12T22:59:25.123Z</time>
      </trkpt>
      <trkpt lat="41.64246" lon="45.60056">
        <ele>470.27077</ele>
        <time>2021-08-12T23:00:28.824Z</time>
      </trkpt>
      <trkpt lat="41.64248" lon="45.59937">
        <ele>471.025516</ele>
        <time>2021-08-12T23:01:00.147Z</time>
      </trkpt>
      <trkpt lat="41.64249" lon="45.59696">
        <ele>472.408676</ele>
        <time>2021-08-12T23:02:02.706Z</time>
      </trkpt>
      <trkpt lat="41.64241" lon="45.59344">
        <ele>475.377783</ele>
        <time>2021-08-12T23:03:41.218Z</time>
      </trkpt>
      <trkpt lat="41.6423" lon="45.59102">
        <ele>478.957146</ele>
        <time>2021-08-12T23:04:57.020Z</time>
      </trkpt>
      <trkpt lat="41.64225" lon="45.58986">
        <ele>481.695676</ele>
        <time>2021-08-12T23:05:38.415Z</time>
      </trkpt>
      <trkpt lat="41.64217" lon="45.58475">
        <ele>497.018997</ele>
        <time>2021-08-12T23:09:06.381Z</time>
      </trkpt>
      <trkpt lat="41.64222" lon="45.58318">
        <ele>501.722687</ele>
        <time>2021-08-12T23:10:12.015Z</time>
      </trkpt>
      <trkpt lat="41.64234" lon="45.58191">
        <ele>504.528127</ele>
        <time>2021-08-12T23:11:00.319Z</time>
      </trkpt>
      <trkpt lat="41.64253" lon="45.58029">
        <ele>506.997218</ele>
        <time>2021-08-12T23:11:50.075Z</time>
      </trkpt>
      <trkpt lat="41.64288" lon="45.57805">
        <ele>508.440958</ele>
        <time>2021-08-12T23:12:48.660Z</time>
      </trkpt>
      <trkpt lat="41.64305" lon="45.57695">
        <ele>508.960949</ele>
        <time>2021-08-12T23:13:16.999Z</time>
      </trkpt>
      <trkpt lat="41.64346" lon="45.57481">
        <ele>510.940772</ele>
        <time>2021-08-12T23:14:17.132Z</time>
      </trkpt>
      <trkpt lat="41.64376" lon="45.57374">
        <ele>512.364651</ele>
        <time>2021-08-12T23:14:54.728Z</time>
      </trkpt>
      <trkpt lat="41.64389" lon="45.57336">
        <ele>513.09834</ele>
        <time>2021-08-12T23:15:09.199Z</time>
      </trkpt>
      <trkpt lat="41.64421" lon="45.57254">
        <ele>514.727485</ele>
        <time>2021-08-12T23:15:41.420Z</time>
      </trkpt>
      <trkpt lat="41.64469" lon="45.57146">
        <ele>516.18058</ele>
        <time>2021-08-12T23:16:21.845Z</time>
      </trkpt>
      <trkpt lat="41.64495" lon="45.57093">
        <ele>516.292982</ele>
        <time>2021-08-12T23:16:38.231Z</time>
      </trkpt>
      <trkpt lat="41.64507" lon="45.57066">
        <ele>516.348222</ele>
        <time>2021-08-12T23:16:45.083Z</time>
      </trkpt>
      <trkpt lat="41.64531" lon="45.57014">
        <ele>516.456097</ele>
        <time>2021-08-12T23:16:57.522Z</time>
      </trkpt>
      <trkpt lat="41.64566" lon="45.56932">
        <ele>516.336882</ele>
        <time>2021-08-12T23:17:16.691Z</time>
      </trkpt>
      <trkpt lat="41.64578" lon="45.56901">
        <ele>516.222612</ele>
        <time>2021-08-12T23:17:24.007Z</time>
      </trkpt>
      <trkpt lat="41.64587" lon="45.56878">
        <ele>516.138455</ele>
        <time>2021-08-12T23:17:29.235Z</time>
      </trkpt>
      <trkpt lat="41.64612" lon="45.56791">
        <ele>515.842289</ele>
        <time>2021-08-12T23:17:49.469Z</time>
      </trkpt>
      <trkpt lat="41.6464" lon="45.56653">
        <ele>516.58552</ele>
        <time>2021-08-12T23:18:27.542Z</time>
      </trkpt>
      <trkpt lat="41.64654" lon="45.56511">
        <ele>517.659587</ele>
        <time>2021-08-12T23:19:09.094Z</time>
      </trkpt>
      <trkpt lat="41.64656" lon="45.56492">
        <ele>517.823768</ele>
        <time>2021-08-12T23:19:14.467Z</time>
      </trkpt>
      <trkpt lat="41.64657" lon="45.56476">
        <ele>517.960062</ele>
        <time>2021-08-12T23:19:19.129Z</time>
      </trkpt>
      <trkpt lat="41.64663" lon="45.56388">
        <ele>518.716961</ele>
        <time>2021-08-12T23:19:44.201Z</time>
      </trkpt>
      <trkpt lat="41.64667" lon="45.5634">
        <ele>519.127989</ele>
        <time>2021-08-12T23:19:57.656Z</time>
      </trkpt>
      <trkpt lat="41.6467" lon="45.5628">
        <ele>519.620126</ele>
        <time>2021-08-12T23:20:14.176Z</time>
      </trkpt>
      <trkpt lat="41.6467" lon="45.56278">
        <ele>519.635862</ele>
        <time>2021-08-12T23:20:14.966Z</time>
      </trkpt>
      <trkpt lat="41.64671" lon="45.56265">
        <ele>519.716555</ele>
        <time>2021-08-12T23:20:18.426Z</time>
      </trkpt>
      <trkpt lat="41.64694" lon="45.55889">
        <ele>522.019327</ele>
        <time>2021-08-12T23:21:59.154Z</time>
      </trkpt>
      <trkpt lat="41.647" lon="45.55792">
        <ele>522.671091</ele>
        <time>2021-08-12T23:22:24.846Z</time>
      </trkpt>
      <trkpt lat="41.64706" lon="45.55708">
        <ele>523.5482</ele>
        <time>2021-08-12T23:22:47.163Z</time>
      </trkpt>
      <trkpt lat="41.64706" lon="45.55608">
        <ele>524.604468</ele>
        <time>2021-08-12T23:23:17.044Z</time>
      </trkpt>
      <trkpt lat="41.647" lon="45.55543">
        <ele>525.541541</ele>
        <time>2021-08-12T23:23:38.956Z</time>
      </trkpt>
      <trkpt lat="41.64693" lon="45.55513">
        <ele>526.170597</ele>
        <time>2021-08-12T23:23:49.058Z</time>
      </trkpt>
      <trkpt lat="41.64706" lon="45.55506">
        <ele>526.546042</ele>
        <time>2021-08-12T23:23:58.698Z</time>
      </trkpt>
      <trkpt lat="41.64706" lon="45.55474">
        <ele>527.182577</ele>
        <time>2021-08-12T23:24:14.024Z</time>
      </trkpt>
      <trkpt lat="41.64713" lon="45.55455">
        <ele>527.620927</ele>
        <time>2021-08-12T23:24:25.361Z</time>
      </trkpt>
      <trkpt lat="41.64726" lon="45.5543">
        <ele>528.220373</ele>
        <time>2021-08-12T23:24:40.084Z</time>
      </trkpt>
      <trkpt lat="41.64722" lon="45.55413">
        <ele>528.591253</ele>
        <time>2021-08-12T23:24:47.007Z</time>
      </trkpt>
      <trkpt lat="41.64737" lon="45.55117">
        <ele>535.162179</ele>
        <time>2021-08-12T23:26:34.257Z</time>
      </trkpt>
      <trkpt lat="41.64738" lon="45.55076">
        <ele>536.025476</ele>
        <time>2021-08-12T23:26:48.925Z</time>
      </trkpt>
      <trkpt lat="41.64738" lon="45.55032">
        <ele>536.922751</ele>
        <time>2021-08-12T23:27:04.444Z</time>
      </trkpt>
      <trkpt lat="41.64763" lon="45.54759">
        <ele>542.01387</ele>
        <time>2021-08-12T23:28:38.535Z</time>
      </trkpt>
      <trkpt lat="41.64766" lon="45.54731">
        <ele>542.476558</ele>
        <time>2021-08-12T23:28:47.757Z</time>
      </trkpt>
      <trkpt lat="41.64771" lon="45.54696">
        <ele>543.031128</ele>
        <time>2021-08-12T23:28:58.436Z</time>
      </trkpt>
      <trkpt lat="41.64793" lon="45.5452">
        <ele>545.10962</ele>
        <time>2021-08-12T23:29:51.926Z</time>
      </trkpt>
      <trkpt lat="41.64794" lon="45.54511">
        <ele>545.195382</ele>
        <time>2021-08-12T23:29:54.506Z</time>
      </trkpt>
      <trkpt lat="41.64797" lon="45.54492">
        <ele>545.371837</ele>
        <time>2021-08-12T23:29:59.530Z</time>
      </trkpt>
      <trkpt lat="41.64799" lon="45.54478">
        <ele>545.503099</ele>
        <time>2021-08-12T23:30:03.633Z</time>
      </trkpt>
      <trkpt lat="41.64828" lon="45.54294">
        <ele>546.86847</ele>
        <time>2021-08-12T23:30:54.332Z</time>
      </trkpt>
      <trkpt lat="41.64852" lon="45.54179">
        <ele>547.542598</ele>
        <time>2021-08-12T23:31:24.723Z</time>
      </trkpt>
      <trkpt lat="41.64853" lon="45.54172">
        <ele>547.583897</ele>
        <time>2021-08-12T23:31:26.840Z</time>
      </trkpt>
      <trkpt lat="41.64861" lon="45.54138">
        <ele>547.828589</ele>
        <time>2021-08-12T23:31:36.378Z</time>
      </trkpt>
      <trkpt lat="41.64871" lon="45.54114">
        <ele>548.034674</ele>
        <time>2021-08-12T23:31:44.083Z</time>
      </trkpt>
      <trkpt lat="41.64878" lon="45.54095">
        <ele>548.187056</ele>
        <time>2021-08-12T23:31:49.585Z</time>
      </trkpt>
      <trkpt lat="41.64888" lon="45.54076">
        <ele>548.362735</ele>
        <time>2021-08-12T23:31:56.188Z</time>
      </trkpt>
      <trkpt lat="41.64908" lon="45.54038">
        <ele>548.718797</ele>
        <time>2021-08-12T23:32:09.349Z</time>
      </trkpt>
      <trkpt lat="41.64917" lon="45.54022">
        <ele>548.862639</ele>
        <time>2021-08-12T23:32:14.631Z</time>
      </trkpt>
      <trkpt lat="41.6495" lon="45.54001">
        <ele>549.22916</ele>
        <time>2021-08-12T23:32:28.162Z</time>
      </trkpt>
      <trkpt lat="41.6501" lon="45.53932">
        <ele>549.85251</ele>
        <time>2021-08-12T23:32:57.824Z</time>
      </trkpt>
      <trkpt lat="41.65076" lon="45.53819">
        <ele>550.615678</ele>
        <time>2021-08-12T23:33:35.484Z</time>
      </trkpt>
      <trkpt lat="41.65148" lon="45.53676">
        <ele>550.83763</ele>
        <time>2021-08-12T23:34:15.988Z</time>
      </trkpt>
      <trkpt lat="41.65225" lon="45.53565">
        <ele>550.976759</ele>
        <time>2021-08-12T23:34:51.303Z</time>
      </trkpt>
      <trkpt lat="41.65285" lon="45.5349">
        <ele>551.10086</ele>
        <time>2021-08-12T23:35:17.665Z</time>
      </trkpt>
      <trkpt lat="41.65639" lon="45.53189">
        <ele>552.48775</ele>
        <time>2021-08-12T23:37:36.226Z</time>
      </trkpt>
      <trkpt lat="41.65846" lon="45.53024">
        <ele>554.497372</ele>
        <time>2021-08-12T23:38:59.833Z</time>
      </trkpt>
      <trkpt lat="41.66003" lon="45.52913">
        <ele>557.528639</ele>
        <time>2021-08-12T23:40:12.794Z</time>
      </trkpt>
      <trkpt lat="41.66127" lon="45.52851">
        <ele>560.655782</ele>
        <time>2021-08-12T23:41:12.813Z</time>
      </trkpt>
      <trkpt lat="41.66167" lon="45.52836">
        <ele>561.887636</ele>
        <time>2021-08-12T23:41:32.750Z</time>
      </trkpt>
      <trkpt lat="41.66243" lon="45.52829">
        <ele>564.101942</ele>
        <time>2021-08-12T23:42:09.120Z</time>
      </trkpt>
      <trkpt lat="41.66346" lon="45.5284">
        <ele>567.308322</ele>
        <time>2021-08-12T23:42:59.114Z</time>
      </trkpt>
      <trkpt lat="41.66559" lon="45.52882">
        <ele>574.306549</ele>
        <time>2021-08-12T23:44:46.336Z</time>
      </trkpt>
      <trkpt lat="41.66654" lon="45.52921">
        <ele>577.395091</ele>
        <time>2021-08-12T23:45:35.595Z</time>
      </trkpt>
      <trkpt lat="41.66943" lon="45.53098">
        <ele>583.776028</ele>
        <time>2021-08-12T23:47:55.248Z</time>
      </trkpt>
      <trkpt lat="41.66999" lon="45.53125">
        <ele>583.292952</ele>
        <time>2021-08-12T23:48:11.259Z</time>
      </trkpt>
      <trkpt lat="41.66963" lon="45.52992">
        <ele>580.623094</ele>
        <time>2021-08-12T23:48:55.765Z</time>
      </trkpt>
      <trkpt lat="41.66712" lon="45.52039">
        <ele>548.583248</ele>
        <time>2021-08-12T23:53:53.165Z</time>
      </trkpt>
      <trkpt lat="41.66697" lon="45.51996">
        <ele>547.769934</ele>
        <time>2021-08-12T23:54:07.900Z</time>
      </trkpt>
      <trkpt lat="41.66684" lon="45.51974">
        <ele>547.335</ele>
        <time>2021-08-12T23:54:16.965Z</time>
      </trkpt>
      <trkpt lat="41.66621" lon="45.51887">
        <ele>545.464684</ele>
        <time>2021-08-12T23:54:57.318Z</time>
      </trkpt>
      <trkpt lat="41.66619" lon="45.51844">
        <ele>544.799983</ele>
        <time>2021-08-12T23:55:12.368Z</time>
      </trkpt>
      <trkpt lat="41.66628" lon="45.51763">
        <ele>544.052225</ele>
        <time>2021-08-12T23:55:41.276Z</time>
      </trkpt>
      <trkpt lat="41.66626" lon="45.5174">
        <ele>543.856628</ele>
        <time>2021-08-12T23:55:49.480Z</time>
      </trkpt>
      <trkpt lat="41.65748" lon="45.48556">
        <ele>514.968434</ele>
        <time>2021-08-13T00:15:39.200Z</time>
      </trkpt>
      <trkpt lat="41.65728" lon="45.48452">
        <ele>513.854933</ele>
        <time>2021-08-13T00:16:15.932Z</time>
      </trkpt>
      <trkpt lat="41.65713" lon="45.48294">
        <ele>510.82496</ele>
        <time>2021-08-13T00:17:07.910Z</time>
      </trkpt>
      <trkpt lat="41.65715" lon="45.4826">
        <ele>510.1585</ele>
        <time>2021-08-13T00:17:18.455Z</time>
      </trkpt>
      <trkpt lat="41.65736" lon="45.48157">
        <ele>507.65733</ele>
        <time>2021-08-13T00:17:51.335Z</time>
      </trkpt>
      <trkpt lat="41.6574" lon="45.48075">
        <ele>505.392583</ele>
        <time>2021-08-13T00:18:15.804Z</time>
      </trkpt>
      <trkpt lat="41.65768" lon="45.47895">
        <ele>501.167153</ele>
        <time>2021-08-13T00:19:11.508Z</time>
      </trkpt>
      <trkpt lat="41.65776" lon="45.47781">
        <ele>499.380851</ele>
        <time>2021-08-13T00:19:48.606Z</time>
      </trkpt>
      <trkpt lat="41.66012" lon="45.45889">
        <ele>500.791667</ele>
        <time>2021-08-13T00:32:27.856Z</time>
      </trkpt>
      <trkpt lat="41.66049" lon="45.45542">
        <ele>501.284798</ele>
        <time>2021-08-13T00:34:46.431Z</time>
      </trkpt>
      <trkpt lat="41.66144" lon="45.44696">
        <ele>503.620297</ele>
        <time>2021-08-13T00:40:31.936Z</time>
      </trkpt>
      <trkpt lat="41.66247" lon="45.43818">
        <ele>507.950446</ele>
        <time>2021-08-13T00:46:42.666Z</time>
      </trkpt>
      <trkpt lat="41.66521" lon="45.41464">
        <ele>519.062458</ele>
        <time>2021-08-13T01:03:09.752Z</time>
      </trkpt>
      <trkpt lat="41.66659" lon="45.40225">
        <ele>527.070556</ele>
        <time>2021-08-13T01:12:02.544Z</time>
      </trkpt>
      <trkpt lat="41.66779" lon="45.39073">
        <ele>532.048759</ele>
        <time>2021-08-13T01:20:03.917Z</time>
      </trkpt>
      <trkpt lat="41.66785" lon="45.39006">
        <ele>532.09747</ele>
        <time>2021-08-13T01:20:29.321Z</time>
      </trkpt>
      <trkpt lat="41.66783" lon="45.39">
        <ele>532.10204</ele>
        <time>2021-08-13T01:20:30.595Z</time>
      </trkpt>
      <trkpt lat="41.66778" lon="45.3898">
        <ele>532.117575</ele>
        <time>2021-08-13T01:20:35.483Z</time>
      </trkpt>
      <trkpt lat="41.66777" lon="45.38968">
        <ele>532.12635</ele>
        <time>2021-08-13T01:20:38.234Z</time>
      </trkpt>
      <trkpt lat="41.66775" lon="45.38885">
        <ele>532.317654</ele>
        <time>2021-08-13T01:20:57.987Z</time>
      </trkpt>
      <trkpt lat="41.66772" lon="45.38845">
        <ele>532.475475</ele>
        <time>2021-08-13T01:21:07.170Z</time>
      </trkpt>
      <trkpt lat="41.66755" lon="45.38795">
        <ele>532.697179</ele>
        <time>2021-08-13T01:21:20.492Z</time>
      </trkpt>
      <trkpt lat="41.6662" lon="45.38478">
        <ele>535.491946</ele>
        <time>2021-08-13T01:23:05.049Z</time>
      </trkpt>
      <trkpt lat="41.66505" lon="45.38185">
        <ele>537.850782</ele>
        <time>2021-08-13T01:24:34.590Z</time>
      </trkpt>
      <trkpt lat="41.66453" lon="45.38068">
        <ele>538.828123</ele>
        <time>2021-08-13T01:25:11.480Z</time>
      </trkpt>
      <trkpt lat="41.66363" lon="45.37868">
        <ele>540.851061</ele>
        <time>2021-08-13T01:26:16.991Z</time>
      </trkpt>
      <trkpt lat="41.66103" lon="45.37338">
        <ele>549.271403</ele>
        <time>2021-08-13T01:29:30.282Z</time>
      </trkpt>
      <trkpt lat="41.6604" lon="45.37213">
        <ele>551.985742</ele>
        <time>2021-08-13T01:30:21.507Z</time>
      </trkpt>
      <trkpt lat="41.66028" lon="45.37186">
        <ele>552.684563</ele>
        <time>2021-08-13T01:30:32.633Z</time>
      </trkpt>
      <trkpt lat="41.65972" lon="45.37082">
        <ele>555.516037</ele>
        <time>2021-08-13T01:31:18.941Z</time>
      </trkpt>
      <trkpt lat="41.65501" lon="45.36237">
        <ele>582.419477</ele>
        <time>2021-08-13T01:37:55.324Z</time>
      </trkpt>
      <trkpt lat="41.65481" lon="45.36209">
        <ele>583.452197</ele>
        <time>2021-08-13T01:38:10.700Z</time>
      </trkpt>
      <trkpt lat="41.65451" lon="45.36191">
        <ele>584.633459</ele>
        <time>2021-08-13T01:38:28.240Z</time>
      </trkpt>
      <trkpt lat="41.6498" lon="45.36021">
        <ele>601.824712</ele>
        <time>2021-08-13T01:42:36.431Z</time>
      </trkpt>
      <trkpt lat="41.6493" lon="45.36013">
        <ele>603.533533</ele>
        <time>2021-08-13T01:43:01.120Z</time>
      </trkpt>
      <trkpt lat="41.64864" lon="45.36011">
        <ele>605.78781</ele>
        <time>2021-08-13T01:43:34.406Z</time>
      </trkpt>
      <trkpt lat="41.64825" lon="45.36015">
        <ele>607.119781</ele>
        <time>2021-08-13T01:43:53.674Z</time>
      </trkpt>
      <trkpt lat="41.64765" lon="45.36016">
        <ele>609.190098</ele>
        <time>2021-08-13T01:44:23.994Z</time>
      </trkpt>
      <trkpt lat="41.64577" lon="45.36051">
        <ele>615.719125</ele>
        <time>2021-08-13T01:45:59.477Z</time>
      </trkpt>
      <trkpt lat="41.64523" lon="45.36052">
        <ele>617.603436</ele>
        <time>2021-08-13T01:46:26.620Z</time>
      </trkpt>
      <trkpt lat="41.64456" lon="45.36046">
        <ele>620.393038</ele>
        <time>2021-08-13T01:47:01.055Z</time>
      </trkpt>
      <trkpt lat="41.64341" lon="45.36009">
        <ele>625.625427</ele>
        <time>2021-08-13T01:48:07.520Z</time>
      </trkpt>
      <trkpt lat="41.64223" lon="45.35966">
        <ele>632.691243</ele>
        <time>2021-08-13T01:49:25.568Z</time>
      </trkpt>
      <trkpt lat="41.64198" lon="45.35957">
        <ele>634.257807</ele>
        <time>2021-08-13T01:49:43.487Z</time>
      </trkpt>
      <trkpt lat="41.63953" lon="45.35856">
        <ele>650.369943</ele>
        <time>2021-08-13T01:52:34.373Z</time>
      </trkpt>
      <trkpt lat="41.63775" lon="45.35791">
        <ele>662.321729</ele>
        <time>2021-08-13T01:54:38.920Z</time>
      </trkpt>
      <trkpt lat="41.6357" lon="45.35744">
        <ele>675.089925</ele>
        <time>2021-08-13T01:57:00.269Z</time>
      </trkpt>
      <trkpt lat="41.63538" lon="45.3573">
        <ele>676.837376</ele>
        <time>2021-08-13T01:57:20.539Z</time>
      </trkpt>
      <trkpt lat="41.63494" lon="45.35699">
        <ele>679.455203</ele>
        <time>2021-08-13T01:57:49.219Z</time>
      </trkpt>
      <trkpt lat="41.6335" lon="45.35555">
        <ele>686.536829</ele>
        <time>2021-08-13T01:59:20.685Z</time>
      </trkpt>
      <trkpt lat="41.63294" lon="45.35507">
        <ele>689.184691</ele>
        <time>2021-08-13T01:59:54.948Z</time>
      </trkpt>
      <trkpt lat="41.6306" lon="45.35354">
        <ele>701.306615</ele>
        <time>2021-08-13T02:02:22.946Z</time>
      </trkpt>
      <trkpt lat="41.62965" lon="45.35273">
        <ele>707.589205</ele>
        <time>2021-08-13T02:03:33.684Z</time>
      </trkpt>
      <trkpt lat="41.62953" lon="45.35259">
        <ele>708.612551</ele>
        <time>2021-08-13T02:03:44.694Z</time>
      </trkpt>
      <trkpt lat="41.62893" lon="45.3519">
        <ele>713.667</ele>
        <time>2021-08-13T02:04:38.018Z</time>
      </trkpt>
      <trkpt lat="41.62681" lon="45.34947">
        <ele>732.818788</ele>
        <time>2021-08-13T02:07:55.176Z</time>
      </trkpt>
      <trkpt lat="41.62609" lon="45.34873">
        <ele>738.983648</ele>
        <time>2021-08-13T02:08:57.651Z</time>
      </trkpt>
      <trkpt lat="41.62513" lon="45.34791">
        <ele>746.124793</ele>
        <time>2021-08-13T02:10:14.147Z</time>
      </trkpt>
      <trkpt lat="41.62142" lon="45.34472">
        <ele>772.570125</ele>
        <time>2021-08-13T02:15:00.520Z</time>
      </trkpt>
      <trkpt lat="41.62122" lon="45.34455">
        <ele>773.777324</ele>
        <time>2021-08-13T02:15:14.049Z</time>
      </trkpt>
      <trkpt lat="41.62035" lon="45.34382">
        <ele>778.349484</ele>
        <time>2021-08-13T02:16:10.538Z</time>
      </trkpt>
      <trkpt lat="41.6198" lon="45.34357">
        <ele>780.900554</ele>
        <time>2021-08-13T02:16:41.043Z</time>
      </trkpt>
      <trkpt lat="41.61806" lon="45.34301">
        <ele>789.531856</ele>
        <time>2021-08-13T02:18:24.916Z</time>
      </trkpt>
      <trkpt lat="41.61683" lon="45.34272">
        <ele>796.342005</ele>
        <time>2021-08-13T02:19:43.418Z</time>
      </trkpt>
      <trkpt lat="41.61578" lon="45.34261">
        <ele>801.684079</ele>
        <time>2021-08-13T02:20:48.658Z</time>
      </trkpt>
      <trkpt lat="41.61452" lon="45.34261">
        <ele>807.325534</ele>
        <time>2021-08-13T02:21:58.665Z</time>
      </trkpt>
      <trkpt lat="41.61373" lon="45.34251">
        <ele>809.824729</ele>
        <time>2021-08-13T02:22:37.434Z</time>
      </trkpt>
      <trkpt lat="41.61191" lon="45.34172">
        <ele>815.492078</ele>
        <time>2021-08-13T02:24:04.337Z</time>
      </trkpt>
      <trkpt lat="41.6113" lon="45.34168">
        <ele>817.358284</ele>
        <time>2021-08-13T02:24:34.733Z</time>
      </trkpt>
      <trkpt lat="41.60723" lon="45.34226">
        <ele>830.64055</ele>
        <time>2021-08-13T02:28:05.459Z</time>
      </trkpt>
      <trkpt lat="41.60661" lon="45.34224">
        <ele>829.369356</ele>
        <time>2021-08-13T02:28:23.058Z</time>
      </trkpt>
      <trkpt lat="41.60577" lon="45.34194">
        <ele>827.590182</ele>
        <time>2021-08-13T02:28:42.785Z</time>
      </trkpt>
      <trkpt lat="41.6054" lon="45.3417">
        <ele>825.901793</ele>
        <time>2021-08-13T02:28:51.303Z</time>
      </trkpt>
      <trkpt lat="41.60509" lon="45.34137">
        <ele>823.491008</ele>
        <time>2021-08-13T02:28:59.324Z</time>
      </trkpt>
      <trkpt lat="41.60475" lon="45.34081">
        <ele>820.1911</ele>
        <time>2021-08-13T02:29:10.184Z</time>
      </trkpt>
      <trkpt lat="41.60414" lon="45.33934">
        <ele>813.029473</ele>
        <time>2021-08-13T02:29:35.761Z</time>
      </trkpt>
      <trkpt lat="41.60365" lon="45.33837">
        <ele>808.469364</ele>
        <time>2021-08-13T02:29:54.383Z</time>
      </trkpt>
      <trkpt lat="41.60311" lon="45.33753">
        <ele>805.341934</ele>
        <time>2021-08-13T02:30:12.972Z</time>
      </trkpt>
      <trkpt lat="41.60241" lon="45.33665">
        <ele>802.553175</ele>
        <time>2021-08-13T02:30:35.702Z</time>
      </trkpt>
      <trkpt lat="41.6022" lon="45.33638">
        <ele>801.710628</ele>
        <time>2021-08-13T02:30:42.668Z</time>
      </trkpt>
      <trkpt lat="41.60014" lon="45.33423">
        <ele>795.844954</ele>
        <time>2021-08-13T02:31:44.590Z</time>
      </trkpt>
      <trkpt lat="41.59983" lon="45.33392">
        <ele>795.227042</ele>
        <time>2021-08-13T02:31:54.939Z</time>
      </trkpt>
      <trkpt lat="41.59953" lon="45.33345">
        <ele>794.506707</ele>
        <time>2021-08-13T02:32:08.165Z</time>
      </trkpt>
      <trkpt lat="41.59947" lon="45.33315">
        <ele>794.161051</ele>
        <time>2021-08-13T02:32:15.393Z</time>
      </trkpt>
      <trkpt lat="41.59948" lon="45.33287">
        <ele>793.875669</ele>
        <time>2021-08-13T02:32:20.959Z</time>
      </trkpt>
      <trkpt lat="41.59959" lon="45.33245">
        <ele>793.43391</ele>
        <time>2021-08-13T02:32:30.027Z</time>
      </trkpt>
      <trkpt lat="41.59986" lon="45.3316">
        <ele>792.513593</ele>
        <time>2021-08-13T02:32:48.547Z</time>
      </trkpt>
      <trkpt lat="41.59987" lon="45.33135">
        <ele>792.258029</ele>
        <time>2021-08-13T02:32:53.732Z</time>
      </trkpt>
      <trkpt lat="41.59987" lon="45.33118">
        <ele>792.08486</ele>
        <time>2021-08-13T02:32:57.280Z</time>
      </trkpt>
      <trkpt lat="41.59983" lon="45.33102">
        <ele>791.922095</ele>
        <time>2021-08-13T02:33:00.077Z</time>
      </trkpt>
      <trkpt lat="41.59769" lon="45.32599">
        <ele>778.577177</ele>
        <time>2021-08-13T02:34:38.316Z</time>
      </trkpt>
      <trkpt lat="41.59678" lon="45.32384">
        <ele>775.655302</ele>
        <time>2021-08-13T02:35:24.700Z</time>
      </trkpt>
      <trkpt lat="41.59565" lon="45.3213">
        <ele>776.938677</ele>
        <time>2021-08-13T02:36:41.375Z</time>
      </trkpt>
      <trkpt lat="41.5925" lon="45.31379">
        <ele>796.22394</ele>
        <time>2021-08-13T02:41:43.630Z</time>
      </trkpt>
      <trkpt lat="41.59117" lon="45.3106">
        <ele>818.963021</ele>
        <time>2021-08-13T02:45:24.035Z</time>
      </trkpt>
      <trkpt lat="41.59103" lon="45.31028">
        <ele>821.559117</ele>
        <time>2021-08-13T02:45:48.509Z</time>
      </trkpt>
      <trkpt lat="41.59092" lon="45.30978">
        <ele>825.20992</ele>
        <time>2021-08-13T02:46:24.761Z</time>
      </trkpt>
      <trkpt lat="41.59092" lon="45.30948">
        <ele>827.304265</ele>
        <time>2021-08-13T02:46:46.855Z</time>
      </trkpt>
      <trkpt lat="41.59105" lon="45.3085">
        <ele>834.098924</ele>
        <time>2021-08-13T02:47:53.961Z</time>
      </trkpt>
      <trkpt lat="41.591" lon="45.30838">
        <ele>835.064872</ele>
        <time>2021-08-13T02:48:01.717Z</time>
      </trkpt>
      <trkpt lat="41.5909" lon="45.30833">
        <ele>836.03679</ele>
        <time>2021-08-13T02:48:11.826Z</time>
      </trkpt>
      <trkpt lat="41.59026" lon="45.30869">
        <ele>840.781271</ele>
        <time>2021-08-13T02:48:57.662Z</time>
      </trkpt>
      <trkpt lat="41.59003" lon="45.30864">
        <ele>841.327118</ele>
        <time>2021-08-13T02:49:10.068Z</time>
      </trkpt>
      <trkpt lat="41.5898" lon="45.30845">
        <ele>841.949329</ele>
        <time>2021-08-13T02:49:26.009Z</time>
      </trkpt>
      <trkpt lat="41.58951" lon="45.30842">
        <ele>842.62933</ele>
        <time>2021-08-13T02:49:40.723Z</time>
      </trkpt>
      <trkpt lat="41.58742" lon="45.30844">
        <ele>842.403176</ele>
        <time>2021-08-13T02:50:35.047Z</time>
      </trkpt>
      <trkpt lat="41.58706" lon="45.3086">
        <ele>841.822107</ele>
        <time>2021-08-13T02:50:44.445Z</time>
      </trkpt>
      <trkpt lat="41.58624" lon="45.30938">
        <ele>840.425813</ele>
        <time>2021-08-13T02:51:09.843Z</time>
      </trkpt>
      <trkpt lat="41.58548" lon="45.31009">
        <ele>839.177743</ele>
        <time>2021-08-13T02:51:34.708Z</time>
      </trkpt>
      <trkpt lat="41.58266" lon="45.31274">
        <ele>836.295122</ele>
        <time>2021-08-13T02:53:10.315Z</time>
      </trkpt>
      <trkpt lat="41.57873" lon="45.31655">
        <ele>829.127186</ele>
        <time>2021-08-13T02:55:14.698Z</time>
      </trkpt>
      <trkpt lat="41.57807" lon="45.31692">
        <ele>828.085409</ele>
        <time>2021-08-13T02:55:33.132Z</time>
      </trkpt>
      <trkpt lat="41.57733" lon="45.31721">
        <ele>827.364348</ele>
        <time>2021-08-13T02:55:53.458Z</time>
      </trkpt>
      <trkpt lat="41.57622" lon="45.31789">
        <ele>826.583014</ele>
        <time>2021-08-13T02:56:27.606Z</time>
      </trkpt>
      <trkpt lat="41.5755" lon="45.31861">
        <ele>826.984547</ele>
        <time>2021-08-13T02:56:56.924Z</time>
      </trkpt>
      <trkpt lat="41.57498" lon="45.31931">
        <ele>827.481024</ele>
        <time>2021-08-13T02:57:23.827Z</time>
      </trkpt>
      <trkpt lat="41.56946" lon="45.32621">
        <ele>846.195595</ele>
        <time>2021-08-13T03:02:56.909Z</time>
      </trkpt>
      <trkpt lat="41.56937" lon="45.32632">
        <ele>846.912071</ele>
        <time>2021-08-13T03:03:03.728Z</time>
      </trkpt>
      <trkpt lat="41.56512" lon="45.33163">
        <ele>879.578441</ele>
        <time>2021-08-13T03:09:16.733Z</time>
      </trkpt>
      <trkpt lat="41.56399" lon="45.33323">
        <ele>889.638458</ele>
        <time>2021-08-13T03:11:08.310Z</time>
      </trkpt>
      <trkpt lat="41.56292" lon="45.33493">
        <ele>898.266259</ele>
        <time>2021-08-13T03:12:52.974Z</time>
      </trkpt>
      <trkpt lat="41.55991" lon="45.34013">
        <ele>916.951277</ele>
        <time>2021-08-13T03:17:05.860Z</time>
      </trkpt>
      <trkpt lat="41.55648" lon="45.34556">
        <ele>932.630831</ele>
        <time>2021-08-13T03:21:16.514Z</time>
      </trkpt>
      <trkpt lat="41.55388" lon="45.34978">
        <ele>947.071788</ele>
        <time>2021-08-13T03:24:47.895Z</time>
      </trkpt>
      <trkpt lat="41.55312" lon="45.35112">
        <ele>951.000282</ele>
        <time>2021-08-13T03:25:48.443Z</time>
      </trkpt>
      <trkpt lat="41.55095" lon="45.3553">
        <ele>960.242892</ele>
        <time>2021-08-13T03:28:35.543Z</time>
      </trkpt>
      <trkpt lat="41.54913" lon="45.35908">
        <ele>971.314818</ele>
        <time>2021-08-13T03:31:27.390Z</time>
      </trkpt>
      <trkpt lat="41.54782" lon="45.36172">
        <ele>974.270663</ele>
        <time>2021-08-13T03:33:03.895Z</time>
      </trkpt>
      <trkpt lat="41.54478" lon="45.36654">
        <ele>970.541695</ele>
        <time>2021-08-13T03:35:10.314Z</time>
      </trkpt>
      <trkpt lat="41.54371" lon="45.368">
        <ele>967.912162</ele>
        <time>2021-08-13T03:35:48.701Z</time>
      </trkpt>
      <trkpt lat="41.54266" lon="45.3693">
        <ele>965.153667</ele>
        <time>2021-08-13T03:36:24.099Z</time>
      </trkpt>
      <trkpt lat="41.54169" lon="45.3704">
        <ele>962.264367</ele>
        <time>2021-08-13T03:36:55.509Z</time>
      </trkpt>
      <trkpt lat="41.5409" lon="45.37092">
        <ele>960.013746</ele>
        <time>2021-08-13T03:37:16.362Z</time>
      </trkpt>
      <trkpt lat="41.53984" lon="45.3712">
        <ele>956.258736</ele>
        <time>2021-08-13T03:37:40.723Z</time>
      </trkpt>
      <trkpt lat="41.53906" lon="45.37149">
        <ele>953.202566</ele>
        <time>2021-08-13T03:37:58.185Z</time>
      </trkpt>
      <trkpt lat="41.53835" lon="45.37195">
        <ele>950.380292</ele>
        <time>2021-08-13T03:38:15.445Z</time>
      </trkpt>
      <trkpt lat="41.53242" lon="45.37731">
        <ele>927.62921</ele>
        <time>2021-08-13T03:40:57.359Z</time>
      </trkpt>
      <trkpt lat="41.52786" lon="45.38152">
        <ele>927.76196</ele>
        <time>2021-08-13T03:44:01.044Z</time>
      </trkpt>
      <trkpt lat="41.52664" lon="45.38237">
        <ele>928.122825</ele>
        <time>2021-08-13T03:44:47.885Z</time>
      </trkpt>
      <trkpt lat="41.52541" lon="45.38343">
        <ele>927.521746</ele>
        <time>2021-08-13T03:45:30.640Z</time>
      </trkpt>
      <trkpt lat="41.5244" lon="45.38345">
        <ele>925.119189</ele>
        <time>2021-08-13T03:45:55.765Z</time>
      </trkpt>
      <trkpt lat="41.52415" lon="45.38361">
        <ele>924.433008</ele>
        <time>2021-08-13T03:46:02.246Z</time>
      </trkpt>
      <trkpt lat="41.52389" lon="45.38401">
        <ele>923.437495</ele>
        <time>2021-08-13T03:46:11.475Z</time>
      </trkpt>
      <trkpt lat="41.52258" lon="45.3864">
        <ele>912.28103</ele>
        <time>2021-08-13T03:46:58.607Z</time>
      </trkpt>
      <trkpt lat="41.52231" lon="45.3869">
        <ele>908.853781</ele>
        <time>2021-08-13T03:47:07.682Z</time>
      </trkpt>
      <trkpt lat="41.52007" lon="45.38915">
        <ele>886.499127</ele>
        <time>2021-08-13T03:48:02.371Z</time>
      </trkpt>
      <trkpt lat="41.51957" lon="45.38974">
        <ele>881.161607</ele>
        <time>2021-08-13T03:48:15.628Z</time>
      </trkpt>
      <trkpt lat="41.51492" lon="45.396">
        <ele>829.499044</ele>
        <time>2021-08-13T03:50:25.867Z</time>
      </trkpt>
      <trkpt lat="41.51425" lon="45.39678">
        <ele>822.991145</ele>
        <time>2021-08-13T03:50:43.323Z</time>
      </trkpt>
      <trkpt lat="41.51416" lon="45.39687">
        <ele>822.147053</ele>
        <time>2021-08-13T03:50:45.606Z</time>
      </trkpt>
      <trkpt lat="41.51402" lon="45.39688">
        <ele>821.122243</ele>
        <time>2021-08-13T03:50:48.348Z</time>
      </trkpt>
      <trkpt lat="41.5139" lon="45.39682">
        <ele>820.162196</ele>
        <time>2021-08-13T03:50:50.937Z</time>
      </trkpt>
      <trkpt lat="41.51306" lon="45.39538">
        <ele>812.492484</ele>
        <time>2021-08-13T03:51:18.585Z</time>
      </trkpt>
      <trkpt lat="41.50749" lon="45.38574">
        <ele>774.852524</ele>
        <time>2021-08-13T03:54:37.322Z</time>
      </trkpt>
      <trkpt lat="41.50747" lon="45.38545">
        <ele>774.567795</ele>
        <time>2021-08-13T03:54:44.669Z</time>
      </trkpt>
      <trkpt lat="41.5073" lon="45.38473">
        <ele>773.816326</ele>
        <time>2021-08-13T03:55:07.308Z</time>
      </trkpt>
      <trkpt lat="41.50665" lon="45.38182">
        <ele>781.153772</ele>
        <time>2021-08-13T03:57:12.031Z</time>
      </trkpt>
      <trkpt lat="41.50665" lon="45.38153">
        <ele>781.594777</ele>
        <time>2021-08-13T03:57:23.098Z</time>
      </trkpt>
      <trkpt lat="41.50662" lon="45.38154">
        <ele>781.656173</ele>
        <time>2021-08-13T03:57:24.436Z</time>
      </trkpt>
      <trkpt lat="41.50647" lon="45.38159">
        <ele>781.9628</ele>
        <time>2021-08-13T03:57:30.672Z</time>
      </trkpt>
      <trkpt lat="41.50604" lon="45.38166">
        <ele>782.873472</ele>
        <time>2021-08-13T03:57:49.579Z</time>
      </trkpt>
      <trkpt lat="41.50595" lon="45.38155">
        <ele>783.121282</ele>
        <time>2021-08-13T03:57:55.024Z</time>
      </trkpt>
      <trkpt lat="41.50554" lon="45.38077">
        <ele>783.656564</ele>
        <time>2021-08-13T03:58:19.863Z</time>
      </trkpt>
      <trkpt lat="41.50454" lon="45.37917">
        <ele>781.389404</ele>
        <time>2021-08-13T03:59:00.657Z</time>
      </trkpt>
      <trkpt lat="41.50448" lon="45.37912">
        <ele>781.186751</ele>
        <time>2021-08-13T03:59:02.368Z</time>
      </trkpt>
      <trkpt lat="41.50355" lon="45.37835">
        <ele>778.227185</ele>
        <time>2021-08-13T03:59:29.252Z</time>
      </trkpt>
      <trkpt lat="41.50292" lon="45.37784">
        <ele>776.380241</ele>
        <time>2021-08-13T03:59:47.055Z</time>
      </trkpt>
      <trkpt lat="41.50228" lon="45.37738">
        <ele>775.067984</ele>
        <time>2021-08-13T04:00:05.021Z</time>
      </trkpt>
      <trkpt lat="41.50158" lon="45.3767">
        <ele>773.507126</ele>
        <time>2021-08-13T04:00:28.348Z</time>
      </trkpt>
      <trkpt lat="41.50154" lon="45.37666">
        <ele>773.40255</ele>
        <time>2021-08-13T04:00:29.816Z</time>
      </trkpt>
      <trkpt lat="41.50148" lon="45.37664">
        <ele>773.394602</ele>
        <time>2021-08-13T04:00:31.545Z</time>
      </trkpt>
      <trkpt lat="41.50144" lon="45.37652">
        <ele>773.475438</ele>
        <time>2021-08-13T04:00:34.356Z</time>
      </trkpt>
      <trkpt lat="41.50136" lon="45.37637">
        <ele>773.597567</ele>
        <time>2021-08-13T04:00:38.637Z</time>
      </trkpt>
      <trkpt lat="41.49981" lon="45.37403">
        <ele>776.995111</ele>
        <time>2021-08-13T04:02:08.961Z</time>
      </trkpt>
      <trkpt lat="41.49882" lon="45.37255">
        <ele>781.596819</ele>
        <time>2021-08-13T04:03:25.185Z</time>
      </trkpt>
      <trkpt lat="41.49764" lon="45.37069">
        <ele>789.019554</ele>
        <time>2021-08-13T04:05:06.545Z</time>
      </trkpt>
      <trkpt lat="41.4964" lon="45.36872">
        <ele>796.190959</ele>
        <time>2021-08-13T04:06:48.659Z</time>
      </trkpt>
      <trkpt lat="41.4905" lon="45.36029">
        <ele>823.635317</ele>
        <time>2021-08-13T04:13:45.510Z</time>
      </trkpt>
      <trkpt lat="41.48933" lon="45.35869">
        <ele>830.987865</ele>
        <time>2021-08-13T04:15:21.563Z</time>
      </trkpt>
      <trkpt lat="41.4881" lon="45.35697">
        <ele>839.41547</ele>
        <time>2021-08-13T04:17:07.221Z</time>
      </trkpt>
      <trkpt lat="41.48693" lon="45.3554">
        <ele>845.693303</ele>
        <time>2021-08-13T04:18:33.613Z</time>
      </trkpt>
      <trkpt lat="41.48686" lon="45.35527">
        <ele>845.884016</ele>
        <time>2021-08-13T04:18:38.955Z</time>
      </trkpt>
      <trkpt lat="41.4868" lon="45.35477">
        <ele>846.514376</ele>
        <time>2021-08-13T04:18:56.301Z</time>
      </trkpt>
      <trkpt lat="41.48695" lon="45.354">
        <ele>847.484322</ele>
        <time>2021-08-13T04:19:21.845Z</time>
      </trkpt>
      <trkpt lat="41.48847" lon="45.34895">
        <ele>847.248812</ele>
        <time>2021-08-13T04:21:30.532Z</time>
      </trkpt>
      <trkpt lat="41.48852" lon="45.34861">
        <ele>846.733943</ele>
        <time>2021-08-13T04:21:36.220Z</time>
      </trkpt>
      <trkpt lat="41.4885" lon="45.34839">
        <ele>845.775247</ele>
        <time>2021-08-13T04:21:39.493Z</time>
      </trkpt>
      <trkpt lat="41.48832" lon="45.34736">
        <ele>841.031866</ele>
        <time>2021-08-13T04:21:55.969Z</time>
      </trkpt>
      <trkpt lat="41.48836" lon="45.347">
        <ele>839.422654</ele>
        <time>2021-08-13T04:22:01.350Z</time>
      </trkpt>
      <trkpt lat="41.48847" lon="45.34658">
        <ele>837.421229</ele>
        <time>2021-08-13T04:22:07.967Z</time>
      </trkpt>
      <trkpt lat="41.48894" lon="45.34489">
        <ele>828.84897</ele>
        <time>2021-08-13T04:22:35.350Z</time>
      </trkpt>
      <trkpt lat="41.48901" lon="45.34465">
        <ele>827.666413</ele>
        <time>2021-08-13T04:22:39.082Z</time>
      </trkpt>
      <trkpt lat="41.48904" lon="45.34413">
        <ele>825.164941</ele>
        <time>2021-08-13T04:22:47.268Z</time>
      </trkpt>
      <trkpt lat="41.48895" lon="45.34316">
        <ele>822.414446</ele>
        <time>2021-08-13T04:23:02.885Z</time>
      </trkpt>
      <trkpt lat="41.48889" lon="45.34286">
        <ele>821.56751</ele>
        <time>2021-08-13T04:23:08.104Z</time>
      </trkpt>
      <trkpt lat="41.48847" lon="45.34166">
        <ele>818.304965</ele>
        <time>2021-08-13T04:23:31.749Z</time>
      </trkpt>
      <trkpt lat="41.4883" lon="45.3409">
        <ele>817.603665</ele>
        <time>2021-08-13T04:23:47.049Z</time>
      </trkpt>
      <trkpt lat="41.48807" lon="45.33944">
        <ele>816.268556</ele>
        <time>2021-08-13T04:24:18.252Z</time>
      </trkpt>
      <trkpt lat="41.48809" lon="45.33894">
        <ele>815.748347</ele>
        <time>2021-08-13T04:24:28.939Z</time>
      </trkpt>
      <trkpt lat="41.48805" lon="45.33839">
        <ele>815.169464</ele>
        <time>2021-08-13T04:24:40.693Z</time>
      </trkpt>
      <trkpt lat="41.48786" lon="45.33812">
        <ele>814.793153</ele>
        <time>2021-08-13T04:24:47.901Z</time>
      </trkpt>
      <trkpt lat="41.48774" lon="45.33806">
        <ele>814.609067</ele>
        <time>2021-08-13T04:24:51.404Z</time>
      </trkpt>
      <trkpt lat="41.48743" lon="45.33803">
        <ele>814.175456</ele>
        <time>2021-08-13T04:24:59.299Z</time>
      </trkpt>
      <trkpt lat="41.48705" lon="45.33786">
        <ele>813.09931</ele>
        <time>2021-08-13T04:25:08.876Z</time>
      </trkpt>
      <trkpt lat="41.48684" lon="45.33745">
        <ele>811.062218</ele>
        <time>2021-08-13T04:25:17.393Z</time>
      </trkpt>
      <trkpt lat="41.48632" lon="45.33605">
        <ele>804.671215</ele>
        <time>2021-08-13T04:25:41.593Z</time>
      </trkpt>
      <trkpt lat="41.48566" lon="45.33373">
        <ele>788.586091</ele>
        <time>2021-08-13T04:26:17.378Z</time>
      </trkpt>
      <trkpt lat="41.48486" lon="45.33141">
        <ele>772.339499</ele>
        <time>2021-08-13T04:26:54.656Z</time>
      </trkpt>
      <trkpt lat="41.48489" lon="45.33086">
        <ele>768.963432</ele>
        <time>2021-08-13T04:27:02.933Z</time>
      </trkpt>
      <trkpt lat="41.48503" lon="45.33014">
        <ele>764.466098</ele>
        <time>2021-08-13T04:27:13.923Z</time>
      </trkpt>
      <trkpt lat="41.4851" lon="45.32843">
        <ele>754.341434</ele>
        <time>2021-08-13T04:27:39.119Z</time>
      </trkpt>
      <trkpt lat="41.48522" lon="45.32703">
        <ele>746.28257</ele>
        <time>2021-08-13T04:27:59.884Z</time>
      </trkpt>
      <trkpt lat="41.48522" lon="45.32639">
        <ele>743.190617</ele>
        <time>2021-08-13T04:28:09.747Z</time>
      </trkpt>
      <trkpt lat="41.4852" lon="45.32619">
        <ele>742.378293</ele>
        <time>2021-08-13T04:28:12.764Z</time>
      </trkpt>
      <trkpt lat="41.48519" lon="45.32606">
        <ele>741.812367</ele>
        <time>2021-08-13T04:28:15.112Z</time>
      </trkpt>
      <trkpt lat="41.48465" lon="45.32405">
        <ele>733.035217</ele>
        <time>2021-08-13T04:28:48.852Z</time>
      </trkpt>
      <trkpt lat="41.48456" lon="45.32387">
        <ele>732.120627</ele>
        <time>2021-08-13T04:28:52.508Z</time>
      </trkpt>
      <trkpt lat="41.48454" lon="45.32386">
        <ele>731.955036</ele>
        <time>2021-08-13T04:28:53.214Z</time>
      </trkpt>
      <trkpt lat="41.48447" lon="45.3238">
        <ele>731.504531</ele>
        <time>2021-08-13T04:28:54.690Z</time>
      </trkpt>
      <trkpt lat="41.48412" lon="45.32378">
        <ele>729.515976</ele>
        <time>2021-08-13T04:29:01.909Z</time>
      </trkpt>
      <trkpt lat="41.48143" lon="45.32401">
        <ele>714.037694</ele>
        <time>2021-08-13T04:29:56.840Z</time>
      </trkpt>
      <trkpt lat="41.48091" lon="45.32396">
        <ele>714.016265</ele>
        <time>2021-08-13T04:30:09.543Z</time>
      </trkpt>
      <trkpt lat="41.48072" lon="45.32388">
        <ele>714.007914</ele>
        <time>2021-08-13T04:30:15.058Z</time>
      </trkpt>
      <trkpt lat="41.48008" lon="45.32312">
        <ele>713.97271</ele>
        <time>2021-08-13T04:30:47.827Z</time>
      </trkpt>
      <trkpt lat="41.47992" lon="45.32287">
        <ele>714.123306</ele>
        <time>2021-08-13T04:30:59.855Z</time>
      </trkpt>
      <trkpt lat="41.47978" lon="45.3223">
        <ele>716.275874</ele>
        <time>2021-08-13T04:31:24.125Z</time>
      </trkpt>
      <trkpt lat="41.47958" lon="45.32088">
        <ele>721.451476</ele>
        <time>2021-08-13T04:32:29.808Z</time>
      </trkpt>
      <trkpt lat="41.47945" lon="45.32053">
        <ele>722.952767</ele>
        <time>2021-08-13T04:32:48.616Z</time>
      </trkpt>
      <trkpt lat="41.47914" lon="45.32034">
        <ele>725.118969</ele>
        <time>2021-08-13T04:33:10.677Z</time>
      </trkpt>
      <trkpt lat="41.47819" lon="45.32011">
        <ele>731.204214</ele>
        <time>2021-08-13T04:34:15.189Z</time>
      </trkpt>
      <trkpt lat="41.4778" lon="45.31986">
        <ele>733.982753</ele>
        <time>2021-08-13T04:34:45.312Z</time>
      </trkpt>
      <trkpt lat="41.4775" lon="45.31947">
        <ele>736.727563</ele>
        <time>2021-08-13T04:35:13.530Z</time>
      </trkpt>
      <trkpt lat="41.47739" lon="45.31923">
        <ele>738.135733</ele>
        <time>2021-08-13T04:35:27.874Z</time>
      </trkpt>
      <trkpt lat="41.47726" lon="45.31891">
        <ele>739.962625</ele>
        <time>2021-08-13T04:35:48.870Z</time>
      </trkpt>
      <trkpt lat="41.4771" lon="45.31822">
        <ele>743.549937</ele>
        <time>2021-08-13T04:36:25.505Z</time>
      </trkpt>
      <trkpt lat="41.4769" lon="45.31765">
        <ele>746.444539</ele>
        <time>2021-08-13T04:36:58.181Z</time>
      </trkpt>
      <trkpt lat="41.47681" lon="45.3175">
        <ele>747.082228</ele>
        <time>2021-08-13T04:37:05.775Z</time>
      </trkpt>
      <trkpt lat="41.47672" lon="45.31745">
        <ele>747.520945</ele>
        <time>2021-08-13T04:37:10.889Z</time>
      </trkpt>
      <trkpt lat="41.47665" lon="45.31743">
        <ele>747.837208</ele>
        <time>2021-08-13T04:37:17.305Z</time>
      </trkpt>
      <trkpt lat="41.4766" lon="45.31749">
        <ele>748.177815</ele>
        <time>2021-08-13T04:37:21.257Z</time>
      </trkpt>
      <trkpt lat="41.47668" lon="45.31825">
        <ele>750.79774</ele>
        <time>2021-08-13T04:37:52.437Z</time>
      </trkpt>
      <trkpt lat="41.47663" lon="45.31843">
        <ele>751.455605</ele>
        <time>2021-08-13T04:38:02.065Z</time>
      </trkpt>
      <trkpt lat="41.47622" lon="45.31918">
        <ele>754.343469</ele>
        <time>2021-08-13T04:38:39.005Z</time>
      </trkpt>
      <trkpt lat="41.47503" lon="45.32018">
        <ele>757.067395</ele>
        <time>2021-08-13T04:39:35.690Z</time>
      </trkpt>
      <trkpt lat="41.47487" lon="45.32026">
        <ele>757.402561</ele>
        <time>2021-08-13T04:39:42.370Z</time>
      </trkpt>
      <trkpt lat="41.47445" lon="45.32019">
        <ele>757.957281</ele>
        <time>2021-08-13T04:39:58.520Z</time>
      </trkpt>
      <trkpt lat="41.47416" lon="45.32027">
        <ele>758.27991</ele>
        <time>2021-08-13T04:40:09.337Z</time>
      </trkpt>
      <trkpt lat="41.47379" lon="45.32055">
        <ele>758.756479</ele>
        <time>2021-08-13T04:40:25.045Z</time>
      </trkpt>
      <trkpt lat="41.47333" lon="45.3211">
        <ele>759.439857</ele>
        <time>2021-08-13T04:40:47.326Z</time>
      </trkpt>
      <trkpt lat="41.47318" lon="45.32116">
        <ele>759.621952</ele>
        <time>2021-08-13T04:40:53.411Z</time>
      </trkpt>
      <trkpt lat="41.473" lon="45.32111">
        <ele>759.846371</ele>
        <time>2021-08-13T04:41:00.087Z</time>
      </trkpt>
      <trkpt lat="41.47276" lon="45.32071">
        <ele>760.329149</ele>
        <time>2021-08-13T04:41:15.354Z</time>
      </trkpt>
      <trkpt lat="41.47255" lon="45.31916">
        <ele>761.806445</ele>
        <time>2021-08-13T04:42:02.107Z</time>
      </trkpt>
      <trkpt lat="41.47244" lon="45.31888">
        <ele>761.787507</ele>
        <time>2021-08-13T04:42:09.918Z</time>
      </trkpt>
      <trkpt lat="41.47211" lon="45.31841">
        <ele>761.637873</ele>
        <time>2021-08-13T04:42:25.432Z</time>
      </trkpt>
      <trkpt lat="41.47201" lon="45.31805">
        <ele>761.55071</ele>
        <time>2021-08-13T04:42:33.827Z</time>
      </trkpt>
      <trkpt lat="41.47203" lon="45.31788">
        <ele>761.510002</ele>
        <time>2021-08-13T04:42:37.613Z</time>
      </trkpt>
      <trkpt lat="41.47165" lon="45.31758">
        <ele>761.374655</ele>
        <time>2021-08-13T04:42:58.521Z</time>
      </trkpt>
      <trkpt lat="41.47135" lon="45.31743">
        <ele>761.224918</ele>
        <time>2021-08-13T04:43:13.201Z</time>
      </trkpt>
      <trkpt lat="41.4712" lon="45.31744">
        <ele>761.031602</ele>
        <time>2021-08-13T04:43:20.301Z</time>
      </trkpt>
      <trkpt lat="41.47103" lon="45.31749">
        <ele>760.8135</ele>
        <time>2021-08-13T04:43:28.351Z</time>
      </trkpt>
      <trkpt lat="41.4705" lon="45.31789">
        <ele>760.060062</ele>
        <time>2021-08-13T04:43:55.509Z</time>
      </trkpt>
      <trkpt lat="41.47023" lon="45.31817">
        <ele>759.632316</ele>
        <time>2021-08-13T04:44:11.435Z</time>
      </trkpt>
      <trkpt lat="41.46983" lon="45.31881">
        <ele>758.922658</ele>
        <time>2021-08-13T04:44:28.700Z</time>
      </trkpt>
      <trkpt lat="41.4692" lon="45.31993">
        <ele>758.053257</ele>
        <time>2021-08-13T04:44:58.006Z</time>
      </trkpt>
      <trkpt lat="41.46849" lon="45.32336">
        <ele>756.200164</ele>
        <time>2021-08-13T04:46:10.968Z</time>
      </trkpt>
      <trkpt lat="41.46706" lon="45.32954">
        <ele>758.849496</ele>
        <time>2021-08-13T04:48:55.385Z</time>
      </trkpt>
      <trkpt lat="41.46698" lon="45.33024">
        <ele>759.833002</ele>
        <time>2021-08-13T04:49:20.224Z</time>
      </trkpt>
      <trkpt lat="41.4667" lon="45.33102">
        <ele>761.591055</ele>
        <time>2021-08-13T04:49:52.137Z</time>
      </trkpt>
      <trkpt lat="41.46607" lon="45.33332">
        <ele>765.163287</ele>
        <time>2021-08-13T04:51:17.358Z</time>
      </trkpt>
      <trkpt lat="41.46542" lon="45.33461">
        <ele>765.570743</ele>
        <time>2021-08-13T04:51:51.964Z</time>
      </trkpt>
      <trkpt lat="41.46503" lon="45.33561">
        <ele>763.902215</ele>
        <time>2021-08-13T04:52:12.554Z</time>
      </trkpt>
      <trkpt lat="41.46474" lon="45.33619">
        <ele>762.86336</ele>
        <time>2021-08-13T04:52:24.956Z</time>
      </trkpt>
      <trkpt lat="41.46298" lon="45.33874">
        <ele>754.483264</ele>
        <time>2021-08-13T04:53:24.694Z</time>
      </trkpt>
      <trkpt lat="41.46275" lon="45.33916">
        <ele>752.940262</ele>
        <time>2021-08-13T04:53:33.268Z</time>
      </trkpt>
      <trkpt lat="41.46162" lon="45.34305">
        <ele>738.935812</ele>
        <time>2021-08-13T04:54:40.263Z</time>
      </trkpt>
      <trkpt lat="41.4614" lon="45.34409">
        <ele>735.436352</ele>
        <time>2021-08-13T04:54:57.766Z</time>
      </trkpt>
      <trkpt lat="41.46067" lon="45.34696">
        <ele>725.945277</ele>
        <time>2021-08-13T04:55:47.797Z</time>
      </trkpt>
      <trkpt lat="41.45976" lon="45.35104">
        <ele>710.953658</ele>
        <time>2021-08-13T04:56:56.262Z</time>
      </trkpt>
      <trkpt lat="41.45974" lon="45.35129">
        <ele>710.029507</ele>
        <time>2021-08-13T04:57:00.145Z</time>
      </trkpt>
      <trkpt lat="41.45976" lon="45.3528">
        <ele>704.655142</ele>
        <time>2021-08-13T04:57:23.865Z</time>
      </trkpt>
      <trkpt lat="41.45973" lon="45.35335">
        <ele>702.689358</ele>
        <time>2021-08-13T04:57:32.757Z</time>
      </trkpt>
      <trkpt lat="41.45955" lon="45.35427">
        <ele>700.072657</ele>
        <time>2021-08-13T04:57:48.669Z</time>
      </trkpt>
      <trkpt lat="41.4588" lon="45.35648">
        <ele>695.794559</ele>
        <time>2021-08-13T04:58:33.192Z</time>
      </trkpt>
      <trkpt lat="41.45881" lon="45.3572">
        <ele>694.797747</ele>
        <time>2021-08-13T04:58:46.745Z</time>
      </trkpt>
      <trkpt lat="41.45872" lon="45.35769">
        <ele>694.114849</ele>
        <time>2021-08-13T04:58:55.972Z</time>
      </trkpt>
      <trkpt lat="41.45858" lon="45.35818">
        <ele>693.397799</ele>
        <time>2021-08-13T04:59:05.831Z</time>
      </trkpt>
      <trkpt lat="41.45806" lon="45.35949">
        <ele>692.263509</ele>
        <time>2021-08-13T04:59:35.340Z</time>
      </trkpt>
      <trkpt lat="41.45768" lon="45.36014">
        <ele>691.709101</ele>
        <time>2021-08-13T04:59:53.297Z</time>
      </trkpt>
      <trkpt lat="41.45725" lon="45.36129">
        <ele>690.703805</ele>
        <time>2021-08-13T05:00:21.275Z</time>
      </trkpt>
      <trkpt lat="41.45716" lon="45.36161">
        <ele>690.42532</ele>
        <time>2021-08-13T05:00:28.340Z</time>
      </trkpt>
      <trkpt lat="41.45699" lon="45.36289">
        <ele>689.259304</ele>
        <time>2021-08-13T05:00:52.946Z</time>
      </trkpt>
      <trkpt lat="41.45655" lon="45.36429">
        <ele>687.383885</ele>
        <time>2021-08-13T05:01:20.831Z</time>
      </trkpt>
      <trkpt lat="41.45588" lon="45.36569">
        <ele>686.714402</ele>
        <time>2021-08-13T05:01:55.408Z</time>
      </trkpt>
      <trkpt lat="41.45482" lon="45.3666">
        <ele>686.802568</ele>
        <time>2021-08-13T05:02:41.467Z</time>
      </trkpt>
      <trkpt lat="41.45462" lon="45.3676">
        <ele>686.51868</ele>
        <time>2021-08-13T05:03:07.801Z</time>
      </trkpt>
      <trkpt lat="41.4542" lon="45.36854">
        <ele>686.152815</ele>
        <time>2021-08-13T05:03:29.911Z</time>
      </trkpt>
      <trkpt lat="41.45333" lon="45.37025">
        <ele>681.163646</ele>
        <time>2021-08-13T05:04:05.356Z</time>
      </trkpt>
      <trkpt lat="41.45291" lon="45.37127">
        <ele>678.136957</ele>
        <time>2021-08-13T05:04:23.958Z</time>
      </trkpt>
      <trkpt lat="41.45273" lon="45.37154">
        <ele>677.162872</ele>
        <time>2021-08-13T05:04:29.944Z</time>
      </trkpt>
      <trkpt lat="41.45229" lon="45.37209">
        <ele>674.975858</ele>
        <time>2021-08-13T05:04:43.588Z</time>
      </trkpt>
      <trkpt lat="41.45193" lon="45.37256">
        <ele>673.953707</ele>
        <time>2021-08-13T05:04:55.389Z</time>
      </trkpt>
      <trkpt lat="41.45163" lon="45.37286">
        <ele>673.900378</ele>
        <time>2021-08-13T05:05:04.380Z</time>
      </trkpt>
      <trkpt lat="41.45071" lon="45.37407">
        <ele>674.083459</ele>
        <time>2021-08-13T05:05:50.862Z</time>
      </trkpt>
      <trkpt lat="41.45035" lon="45.37447">
        <ele>675.805321</ele>
        <time>2021-08-13T05:06:10.935Z</time>
      </trkpt>
      <trkpt lat="41.45028" lon="45.37455">
        <ele>676.161651</ele>
        <time>2021-08-13T05:06:21.084Z</time>
      </trkpt>
      <trkpt lat="41.44986" lon="45.37482">
        <ele>677.857439</ele>
        <time>2021-08-13T05:06:43.931Z</time>
      </trkpt>
      <trkpt lat="41.44976" lon="45.37496">
        <ele>678.389173</ele>
        <time>2021-08-13T05:06:48.705Z</time>
      </trkpt>
      <trkpt lat="41.44969" lon="45.37509">
        <ele>678.829247</ele>
        <time>2021-08-13T05:07:00.994Z</time>
      </trkpt>
      <trkpt lat="41.44935" lon="45.37575">
        <ele>680.97493</ele>
        <time>2021-08-13T05:07:44.108Z</time>
      </trkpt>
      <trkpt lat="41.44928" lon="45.37581">
        <ele>681.243495</ele>
        <time>2021-08-13T05:07:56.188Z</time>
      </trkpt>
      <trkpt lat="41.4487" lon="45.37605">
        <ele>683.183955</ele>
        <time>2021-08-13T05:08:38.615Z</time>
      </trkpt>
      <trkpt lat="41.44829" lon="45.37611">
        <ele>684.53037</ele>
        <time>2021-08-13T05:09:07.957Z</time>
      </trkpt>
      <trkpt lat="41.44819" lon="45.37613">
        <ele>684.838333</ele>
        <time>2021-08-13T05:09:17.986Z</time>
      </trkpt>
      <trkpt lat="41.448" lon="45.37639">
        <ele>685.726847</ele>
        <time>2021-08-13T05:09:31.279Z</time>
      </trkpt>
      <trkpt lat="41.44796" lon="45.37643">
        <ele>685.899481</ele>
        <time>2021-08-13T05:09:36.861Z</time>
      </trkpt>
      <trkpt lat="41.44785" lon="45.37659">
        <ele>686.028024</ele>
        <time>2021-08-13T05:09:44.147Z</time>
      </trkpt>
      <trkpt lat="41.4477" lon="45.37667">
        <ele>685.741305</ele>
        <time>2021-08-13T05:09:53.698Z</time>
      </trkpt>
      <trkpt lat="41.44763" lon="45.37663">
        <ele>685.615323</ele>
        <time>2021-08-13T05:10:00.286Z</time>
      </trkpt>
      <trkpt lat="41.4477" lon="45.37667">
        <ele>685.489341</ele>
        <time>2021-08-13T05:10:03.044Z</time>
      </trkpt>
      <trkpt lat="41.44785" lon="45.37659">
        <ele>685.202622</ele>
        <time>2021-08-13T05:10:11.115Z</time>
      </trkpt>
      <trkpt lat="41.44796" lon="45.37643">
        <ele>684.940093</ele>
        <time>2021-08-13T05:10:20.121Z</time>
      </trkpt>
      <trkpt lat="41.448" lon="45.37639">
        <ele>684.849249</ele>
        <time>2021-08-13T05:10:21.980Z</time>
      </trkpt>
      <trkpt lat="41.44819" lon="45.37613">
        <ele>684.381689</ele>
        <time>2021-08-13T05:10:37.460Z</time>
      </trkpt>
      <trkpt lat="41.44829" lon="45.37611">
        <ele>684.219631</ele>
        <time>2021-08-13T05:10:40.794Z</time>
      </trkpt>
      <trkpt lat="41.4487" lon="45.37605">
        <ele>683.511112</ele>
        <time>2021-08-13T05:10:57.926Z</time>
      </trkpt>
      <trkpt lat="41.44928" lon="45.37581">
        <ele>681.557053</ele>
        <time>2021-08-13T05:11:22.647Z</time>
      </trkpt>
      <trkpt lat="41.44935" lon="45.37575">
        <ele>681.201578</ele>
        <time>2021-08-13T05:11:25.307Z</time>
      </trkpt>
      <trkpt lat="41.44969" lon="45.37509">
        <ele>678.616191</ele>
        <time>2021-08-13T05:11:50.156Z</time>
      </trkpt>
      <trkpt lat="41.44976" lon="45.37496">
        <ele>678.106932</ele>
        <time>2021-08-13T05:11:52.365Z</time>
      </trkpt>
      <trkpt lat="41.44986" lon="45.37482">
        <ele>677.491603</ele>
        <time>2021-08-13T05:11:56.621Z</time>
      </trkpt>
      <trkpt lat="41.45028" lon="45.37455">
        <ele>675.529218</ele>
        <time>2021-08-13T05:12:07.059Z</time>
      </trkpt>
      <trkpt lat="41.45035" lon="45.37447">
        <ele>675.334087</ele>
        <time>2021-08-13T05:12:08.831Z</time>
      </trkpt>
      <trkpt lat="41.45071" lon="45.37407">
        <ele>674.706453</ele>
        <time>2021-08-13T05:12:20.252Z</time>
      </trkpt>
      <trkpt lat="41.45163" lon="45.37286">
        <ele>673.11317</ele>
        <time>2021-08-13T05:12:55.775Z</time>
      </trkpt>
      <trkpt lat="41.45193" lon="45.37256">
        <ele>674.131178</ele>
        <time>2021-08-13T05:13:12.439Z</time>
      </trkpt>
      <trkpt lat="41.45229" lon="45.37209">
        <ele>675.494453</ele>
        <time>2021-08-13T05:13:35.676Z</time>
      </trkpt>
      <trkpt lat="41.45273" lon="45.37154">
        <ele>677.143545</ele>
        <time>2021-08-13T05:14:06.513Z</time>
      </trkpt>
      <trkpt lat="41.45291" lon="45.37127">
        <ele>677.878043</ele>
        <time>2021-08-13T05:14:20.814Z</time>
      </trkpt>
      <trkpt lat="41.45333" lon="45.37025">
        <ele>681.106707</ele>
        <time>2021-08-13T05:15:09.963Z</time>
      </trkpt>
      <trkpt lat="41.4542" lon="45.36854">
        <ele>685.514271</ele>
        <time>2021-08-13T05:16:26.900Z</time>
      </trkpt>
      <trkpt lat="41.45462" lon="45.3676">
        <ele>686.683418</ele>
        <time>2021-08-13T05:16:57.050Z</time>
      </trkpt>
      <trkpt lat="41.45482" lon="45.3666">
        <ele>687.001826</ele>
        <time>2021-08-13T05:17:19.616Z</time>
      </trkpt>
      <trkpt lat="41.45588" lon="45.36569">
        <ele>686.371368</ele>
        <time>2021-08-13T05:17:53.635Z</time>
      </trkpt>
      <trkpt lat="41.45655" lon="45.36429">
        <ele>687.569266</ele>
        <time>2021-08-13T05:18:38.131Z</time>
      </trkpt>
      <trkpt lat="41.45699" lon="45.36289">
        <ele>689.035441</ele>
        <time>2021-08-13T05:19:26.455Z</time>
      </trkpt>
      <trkpt lat="41.45716" lon="45.36161">
        <ele>690.540032</ele>
        <time>2021-08-13T05:20:06.426Z</time>
      </trkpt>
      <trkpt lat="41.45725" lon="45.36129">
        <ele>690.934876</ele>
        <time>2021-08-13T05:20:15.633Z</time>
      </trkpt>
      <trkpt lat="41.45768" lon="45.36014">
        <ele>691.69465</ele>
        <time>2021-08-13T05:20:47.989Z</time>
      </trkpt>
      <trkpt lat="41.45806" lon="45.35949">
        <ele>692.121485</ele>
        <time>2021-08-13T05:21:08.894Z</time>
      </trkpt>
      <trkpt lat="41.45858" lon="45.35818">
        <ele>693.560864</ele>
        <time>2021-08-13T05:21:51.132Z</time>
      </trkpt>
      <trkpt lat="41.45872" lon="45.35769">
        <ele>694.166818</ele>
        <time>2021-08-13T05:22:07.245Z</time>
      </trkpt>
      <trkpt lat="41.45881" lon="45.3572">
        <ele>694.743912</ele>
        <time>2021-08-13T05:22:22.989Z</time>
      </trkpt>
      <trkpt lat="41.4588" lon="45.35648">
        <ele>695.761142</ele>
        <time>2021-08-13T05:22:45.873Z</time>
      </trkpt>
      <trkpt lat="41.45955" lon="45.35427">
        <ele>700.211286</ele>
        <time>2021-08-13T05:24:04.145Z</time>
      </trkpt>
      <trkpt lat="41.45973" lon="45.35335">
        <ele>702.969467</ele>
        <time>2021-08-13T05:24:40.124Z</time>
      </trkpt>
      <trkpt lat="41.45976" lon="45.3528">
        <ele>704.591681</ele>
        <time>2021-08-13T05:25:04.221Z</time>
      </trkpt>
      <trkpt lat="41.45974" lon="45.35129">
        <ele>709.940113</ele>
        <time>2021-08-13T05:26:13.777Z</time>
      </trkpt>
      <trkpt lat="41.45976" lon="45.35104">
        <ele>710.908014</ele>
        <time>2021-08-13T05:26:26.229Z</time>
      </trkpt>
      <trkpt lat="41.46067" lon="45.34696">
        <ele>725.85609</ele>
        <time>2021-08-13T05:29:28.609Z</time>
      </trkpt>
      <trkpt lat="41.4614" lon="45.34409">
        <ele>735.443228</ele>
        <time>2021-08-13T05:31:31.201Z</time>
      </trkpt>
      <trkpt lat="41.46162" lon="45.34305">
        <ele>738.818014</ele>
        <time>2021-08-13T05:32:15.375Z</time>
      </trkpt>
      <trkpt lat="41.46275" lon="45.33916">
        <ele>753.075658</ele>
        <time>2021-08-13T05:35:16.349Z</time>
      </trkpt>
      <trkpt lat="41.46298" lon="45.33874">
        <ele>754.794241</ele>
        <time>2021-08-13T05:35:37.218Z</time>
      </trkpt>
      <trkpt lat="41.46474" lon="45.33619">
        <ele>762.704272</ele>
        <time>2021-08-13T05:37:42.940Z</time>
      </trkpt>
      <trkpt lat="41.46503" lon="45.33561">
        <ele>764.049049</ele>
        <time>2021-08-13T05:38:07.041Z</time>
      </trkpt>
      <trkpt lat="41.46542" lon="45.33461">
        <ele>765.392743</ele>
        <time>2021-08-13T05:38:43.510Z</time>
      </trkpt>
      <trkpt lat="41.46607" lon="45.33332">
        <ele>765.455923</ele>
        <time>2021-08-13T05:39:21.690Z</time>
      </trkpt>
      <trkpt lat="41.4667" lon="45.33102">
        <ele>761.424072</ele>
        <time>2021-08-13T05:40:04.961Z</time>
      </trkpt>
      <trkpt lat="41.46698" lon="45.33024">
        <ele>760.076073</ele>
        <time>2021-08-13T05:40:19.622Z</time>
      </trkpt>
      <trkpt lat="41.46706" lon="45.32954">
        <ele>759.168033</ele>
        <time>2021-08-13T05:40:32.186Z</time>
      </trkpt>
      <trkpt lat="41.46849" lon="45.32336">
        <ele>756.189532</ele>
        <time>2021-08-13T05:42:51.822Z</time>
      </trkpt>
      <trkpt lat="41.4692" lon="45.31993">
        <ele>758.044001</ele>
        <time>2021-08-13T05:44:28.638Z</time>
      </trkpt>
      <trkpt lat="41.46983" lon="45.31881">
        <ele>759.014179</ele>
        <time>2021-08-13T05:45:06.062Z</time>
      </trkpt>
      <trkpt lat="41.47023" lon="45.31817">
        <ele>759.642162</ele>
        <time>2021-08-13T05:45:28.386Z</time>
      </trkpt>
      <trkpt lat="41.47114" lon="45.31659">
        <ele>761.787532</ele>
        <time>2021-08-13T05:46:25.816Z</time>
      </trkpt>
      <trkpt lat="41.472" lon="45.31517">
        <ele>764.480267</ele>
        <time>2021-08-13T05:47:25.076Z</time>
      </trkpt>
      <trkpt lat="41.47207" lon="45.31496">
        <ele>764.903373</ele>
        <time>2021-08-13T05:47:36.788Z</time>
      </trkpt>
      <trkpt lat="41.4721" lon="45.31481">
        <ele>765.189939</ele>
        <time>2021-08-13T05:47:44.261Z</time>
      </trkpt>
      <trkpt lat="41.47208" lon="45.31459">
        <ele>765.58063</ele>
        <time>2021-08-13T05:47:55.134Z</time>
      </trkpt>
      <trkpt lat="41.47206" lon="45.31445">
        <ele>765.849492</ele>
        <time>2021-08-13T05:48:02.485Z</time>
      </trkpt>
      <trkpt lat="41.47207" lon="45.31419">
        <ele>766.311893</ele>
        <time>2021-08-13T05:48:14.980Z</time>
      </trkpt>
      <trkpt lat="41.47214" lon="45.31394">
        <ele>766.797093</ele>
        <time>2021-08-13T05:48:28.324Z</time>
      </trkpt>
      <trkpt lat="41.47253" lon="45.31318">
        <ele>768.4977</ele>
        <time>2021-08-13T05:49:14.402Z</time>
      </trkpt>
      <trkpt lat="41.47349" lon="45.3109">
        <ele>772.809358</ele>
        <time>2021-08-13T05:51:24.560Z</time>
      </trkpt>
      <trkpt lat="41.4736" lon="45.31051">
        <ele>773.031937</ele>
        <time>2021-08-13T05:51:43.888Z</time>
      </trkpt>
      <trkpt lat="41.47361" lon="45.31022">
        <ele>773.191959</ele>
        <time>2021-08-13T05:51:57.114Z</time>
      </trkpt>
      <trkpt lat="41.47346" lon="45.30949">
        <ele>773.594301</ele>
        <time>2021-08-13T05:52:27.596Z</time>
      </trkpt>
      <trkpt lat="41.47346" lon="45.30904">
        <ele>773.777752</ele>
        <time>2021-08-13T05:52:43.707Z</time>
      </trkpt>
      <trkpt lat="41.47351" lon="45.3086">
        <ele>772.32413</ele>
        <time>2021-08-13T05:52:58.562Z</time>
      </trkpt>
      <trkpt lat="41.47371" lon="45.30771">
        <ele>769.256561</ele>
        <time>2021-08-13T05:53:26.562Z</time>
      </trkpt>
      <trkpt lat="41.47408" lon="45.30662">
        <ele>764.785069</ele>
        <time>2021-08-13T05:53:59.940Z</time>
      </trkpt>
      <trkpt lat="41.47409" lon="45.30625">
        <ele>762.535002</ele>
        <time>2021-08-13T05:54:09.898Z</time>
      </trkpt>
      <trkpt lat="41.47404" lon="45.30588">
        <ele>760.258781</ele>
        <time>2021-08-13T05:54:19.883Z</time>
      </trkpt>
      <trkpt lat="41.4741" lon="45.30531">
        <ele>756.751494</ele>
        <time>2021-08-13T05:54:35.078Z</time>
      </trkpt>
      <trkpt lat="41.47439" lon="45.3041">
        <ele>748.546303</ele>
        <time>2021-08-13T05:55:08.439Z</time>
      </trkpt>
      <trkpt lat="41.47471" lon="45.30354">
        <ele>743.495463</ele>
        <time>2021-08-13T05:55:26.788Z</time>
      </trkpt>
      <trkpt lat="41.47515" lon="45.3029">
        <ele>737.21957</ele>
        <time>2021-08-13T05:55:49.373Z</time>
      </trkpt>
      <trkpt lat="41.47525" lon="45.3026">
        <ele>734.838496</ele>
        <time>2021-08-13T05:55:57.845Z</time>
      </trkpt>
      <trkpt lat="41.47525" lon="45.30242">
        <ele>733.589854</ele>
        <time>2021-08-13T05:56:02.406Z</time>
      </trkpt>
      <trkpt lat="41.47516" lon="45.30217">
        <ele>731.716283</ele>
        <time>2021-08-13T05:56:09.520Z</time>
      </trkpt>
      <trkpt lat="41.47488" lon="45.30158">
        <ele>727.040429</ele>
        <time>2021-08-13T05:56:27.484Z</time>
      </trkpt>
      <trkpt lat="41.47462" lon="45.3012">
        <ele>723.569464</ele>
        <time>2021-08-13T05:56:40.967Z</time>
      </trkpt>
      <trkpt lat="41.47422" lon="45.30057">
        <ele>717.986814</ele>
        <time>2021-08-13T05:57:03.129Z</time>
      </trkpt>
      <trkpt lat="41.47405" lon="45.30017">
        <ele>716.216421</ele>
        <time>2021-08-13T05:57:15.316Z</time>
      </trkpt>
      <trkpt lat="41.47397" lon="45.29959">
        <ele>713.9347</ele>
        <time>2021-08-13T05:57:31.626Z</time>
      </trkpt>
      <trkpt lat="41.47414" lon="45.29649">
        <ele>704.521096</ele>
        <time>2021-08-13T05:59:06.708Z</time>
      </trkpt>
      <trkpt lat="41.47412" lon="45.29615">
        <ele>703.723106</ele>
        <time>2021-08-13T05:59:17.390Z</time>
      </trkpt>
      <trkpt lat="41.47386" lon="45.29476">
        <ele>701.843895</ele>
        <time>2021-08-13T06:00:05.049Z</time>
      </trkpt>
      <trkpt lat="41.47375" lon="45.29436">
        <ele>701.414789</ele>
        <time>2021-08-13T06:00:20.009Z</time>
      </trkpt>
      <trkpt lat="41.47371" lon="45.29298">
        <ele>700.351063</ele>
        <time>2021-08-13T06:01:11.244Z</time>
      </trkpt>
      <trkpt lat="41.47354" lon="45.29002">
        <ele>698.522066</ele>
        <time>2021-08-13T06:03:01.665Z</time>
      </trkpt>
      <trkpt lat="41.47354" lon="45.28803">
        <ele>695.705125</ele>
        <time>2021-08-13T06:04:06.865Z</time>
      </trkpt>
      <trkpt lat="41.4737" lon="45.28725">
        <ele>693.949611</ele>
        <time>2021-08-13T06:04:32.459Z</time>
      </trkpt>
      <trkpt lat="41.47427" lon="45.28551">
        <ele>689.416745</ele>
        <time>2021-08-13T06:05:30.942Z</time>
      </trkpt>
      <trkpt lat="41.47495" lon="45.28371">
        <ele>684.189439</ele>
        <time>2021-08-13T06:06:32.498Z</time>
      </trkpt>
      <trkpt lat="41.47644" lon="45.27924">
        <ele>672.613509</ele>
        <time>2021-08-13T06:09:03.132Z</time>
      </trkpt>
      <trkpt lat="41.47883" lon="45.27296">
        <ele>662.204171</ele>
        <time>2021-08-13T06:12:58.918Z</time>
      </trkpt>
      <trkpt lat="41.47951" lon="45.27146">
        <ele>659.786822</ele>
        <time>2021-08-13T06:13:57.681Z</time>
      </trkpt>
      <trkpt lat="41.48041" lon="45.27026">
        <ele>656.816644</ele>
        <time>2021-08-13T06:14:53.246Z</time>
      </trkpt>
      <trkpt lat="41.48467" lon="45.26331">
        <ele>638.396546</ele>
        <time>2021-08-13T06:19:36.813Z</time>
      </trkpt>
      <trkpt lat="41.48739" lon="45.25917">
        <ele>628.051288</ele>
        <time>2021-08-13T06:22:33.955Z</time>
      </trkpt>
      <trkpt lat="41.48919" lon="45.25607">
        <ele>621.436948</ele>
        <time>2021-08-13T06:24:41.082Z</time>
      </trkpt>
      <trkpt lat="41.49076" lon="45.25373">
        <ele>617.628015</ele>
        <time>2021-08-13T06:26:27.842Z</time>
      </trkpt>
      <trkpt lat="41.49095" lon="45.25328">
        <ele>617.072779</ele>
        <time>2021-08-13T06:26:46.142Z</time>
      </trkpt>
      <trkpt lat="41.49179" lon="45.25198">
        <ele>614.800165</ele>
        <time>2021-08-13T06:27:45.482Z</time>
      </trkpt>
      <trkpt lat="41.49217" lon="45.25165">
        <ele>613.967391</ele>
        <time>2021-08-13T06:28:05.241Z</time>
      </trkpt>
      <trkpt lat="41.49234" lon="45.25122">
        <ele>613.228888</ele>
        <time>2021-08-13T06:28:21.086Z</time>
      </trkpt>
      <trkpt lat="41.49317" lon="45.24817">
        <ele>604.24266</ele>
        <time>2021-08-13T06:29:59.679Z</time>
      </trkpt>
      <trkpt lat="41.49347" lon="45.24589">
        <ele>596.44028</ele>
        <time>2021-08-13T06:31:07.331Z</time>
      </trkpt>
      <trkpt lat="41.49376" lon="45.24471">
        <ele>591.954662</ele>
        <time>2021-08-13T06:31:43.364Z</time>
      </trkpt>
      <trkpt lat="41.49379" lon="45.24426">
        <ele>590.344173</ele>
        <time>2021-08-13T06:31:56.324Z</time>
      </trkpt>
      <trkpt lat="41.49376" lon="45.24374">
        <ele>588.442969</ele>
        <time>2021-08-13T06:32:11.642Z</time>
      </trkpt>
      <trkpt lat="41.49358" lon="45.24251">
        <ele>583.94751</ele>
        <time>2021-08-13T06:32:47.915Z</time>
      </trkpt>
      <trkpt lat="41.49318" lon="45.24008">
        <ele>575.235986</ele>
        <time>2021-08-13T06:34:00.653Z</time>
      </trkpt>
      <trkpt lat="41.49301" lon="45.23936">
        <ele>572.858335</ele>
        <time>2021-08-13T06:34:22.813Z</time>
      </trkpt>
      <trkpt lat="41.49292" lon="45.23834">
        <ele>570.028415</ele>
        <time>2021-08-13T06:34:53.779Z</time>
      </trkpt>
      <trkpt lat="41.4929" lon="45.23818">
        <ele>569.602765</ele>
        <time>2021-08-13T06:34:58.323Z</time>
      </trkpt>
      <trkpt lat="41.49294" lon="45.23766">
        <ele>568.151364</ele>
        <time>2021-08-13T06:35:14.727Z</time>
      </trkpt>
      <trkpt lat="41.49335" lon="45.23634">
        <ele>565.497514</ele>
        <time>2021-08-13T06:36:00.588Z</time>
      </trkpt>
      <trkpt lat="41.49385" lon="45.23518">
        <ele>563.428816</ele>
        <time>2021-08-13T06:36:45.969Z</time>
      </trkpt>
      <trkpt lat="41.49401" lon="45.2346">
        <ele>562.591325</ele>
        <time>2021-08-13T06:37:07.028Z</time>
      </trkpt>
      <trkpt lat="41.49419" lon="45.23314">
        <ele>560.600873</ele>
        <time>2021-08-13T06:37:56.513Z</time>
      </trkpt>
      <trkpt lat="41.49431" lon="45.23271">
        <ele>559.917745</ele>
        <time>2021-08-13T06:38:11.790Z</time>
      </trkpt>
      <trkpt lat="41.49486" lon="45.22975">
        <ele>554.179077</ele>
        <time>2021-08-13T06:39:50.243Z</time>
      </trkpt>
      <trkpt lat="41.49505" lon="45.22767">
        <ele>549.593043</ele>
        <time>2021-08-13T06:40:55.056Z</time>
      </trkpt>
      <trkpt lat="41.49534" lon="45.22546">
        <ele>544.854695</ele>
        <time>2021-08-13T06:42:06.458Z</time>
      </trkpt>
      <trkpt lat="41.49572" lon="45.22358">
        <ele>540.959371</ele>
        <time>2021-08-13T06:43:09.240Z</time>
      </trkpt>
      <trkpt lat="41.4966" lon="45.2207">
        <ele>532.054005</ele>
        <time>2021-08-13T06:44:43.379Z</time>
      </trkpt>
      <trkpt lat="41.49707" lon="45.21985">
        <ele>528.236773</ele>
        <time>2021-08-13T06:45:13.906Z</time>
      </trkpt>
      <trkpt lat="41.49727" lon="45.21924">
        <ele>525.839671</ele>
        <time>2021-08-13T06:45:32.907Z</time>
      </trkpt>
      <trkpt lat="41.49737" lon="45.21836">
        <ele>522.253108</ele>
        <time>2021-08-13T06:45:58.120Z</time>
      </trkpt>
      <trkpt lat="41.49736" lon="45.21761">
        <ele>519.167061</ele>
        <time>2021-08-13T06:46:19.423Z</time>
      </trkpt>
      <trkpt lat="41.49725" lon="45.21688">
        <ele>516.0895</ele>
        <time>2021-08-13T06:46:40.716Z</time>
      </trkpt>
      <trkpt lat="41.49731" lon="45.21623">
        <ele>513.404978</ele>
        <time>2021-08-13T06:46:59.170Z</time>
      </trkpt>
      <trkpt lat="41.49747" lon="45.21471">
        <ele>507.065675</ele>
        <time>2021-08-13T06:47:42.746Z</time>
      </trkpt>
      <trkpt lat="41.49761" lon="45.20983">
        <ele>487.538577</ele>
        <time>2021-08-13T06:50:02.375Z</time>
      </trkpt>
      <trkpt lat="41.49783" lon="45.20916">
        <ele>484.83328</ele>
        <time>2021-08-13T06:50:23.653Z</time>
      </trkpt>
      <trkpt lat="41.49793" lon="45.20857">
        <ele>482.677144</ele>
        <time>2021-08-13T06:50:41.313Z</time>
      </trkpt>
      <trkpt lat="41.49808" lon="45.20593">
        <ele>473.808457</ele>
        <time>2021-08-13T06:51:58.864Z</time>
      </trkpt>
      <trkpt lat="41.4983" lon="45.20437">
        <ele>469.819935</ele>
        <time>2021-08-13T06:52:46.331Z</time>
      </trkpt>
      <trkpt lat="41.49866" lon="45.20365">
        <ele>468.800125</ele>
        <time>2021-08-13T06:53:15.204Z</time>
      </trkpt>
      <trkpt lat="41.49874" lon="45.20354">
        <ele>468.617466</ele>
        <time>2021-08-13T06:53:20.270Z</time>
      </trkpt>
      <trkpt lat="41.49912" lon="45.20307">
        <ele>467.811052</ele>
        <time>2021-08-13T06:53:46.367Z</time>
      </trkpt>
      <trkpt lat="41.49893" lon="45.20305">
        <ele>467.825583</ele>
        <time>2021-08-13T06:53:57.081Z</time>
      </trkpt>
      <trkpt lat="41.49812" lon="45.20228">
        <ele>470.747501</ele>
        <time>2021-08-13T06:55:02.024Z</time>
      </trkpt>
      <trkpt lat="41.49719" lon="45.20108">
        <ele>476.08738</ele>
        <time>2021-08-13T06:56:42.196Z</time>
      </trkpt>
      <trkpt lat="41.49613" lon="45.20019">
        <ele>483.178149</ele>
        <time>2021-08-13T06:58:28.501Z</time>
      </trkpt>
      <trkpt lat="41.49564" lon="45.19996">
        <ele>486.656305</ele>
        <time>2021-08-13T06:59:17.232Z</time>
      </trkpt>
      <trkpt lat="41.49539" lon="45.19953">
        <ele>489.43551</ele>
        <time>2021-08-13T06:59:56.312Z</time>
      </trkpt>
      <trkpt lat="41.49545" lon="45.19897">
        <ele>492.291445</ele>
        <time>2021-08-13T07:00:36.410Z</time>
      </trkpt>
      <trkpt lat="41.49574" lon="45.19843">
        <ele>495.253213</ele>
        <time>2021-08-13T07:01:22.538Z</time>
      </trkpt>
      <trkpt lat="41.49651" lon="45.197">
        <ele>495.57445</ele>
        <time>2021-08-13T07:02:47.120Z</time>
      </trkpt>
      <trkpt lat="41.49696" lon="45.19678">
        <ele>494.913335</ele>
        <time>2021-08-13T07:03:04.993Z</time>
      </trkpt>
      <trkpt lat="41.49728" lon="45.19588">
        <ele>485.806076</ele>
        <time>2021-08-13T07:03:30.564Z</time>
      </trkpt>
      <trkpt lat="41.49761" lon="45.19545">
        <ele>480.267326</ele>
        <time>2021-08-13T07:03:45.412Z</time>
      </trkpt>
      <trkpt lat="41.49863" lon="45.1952">
        <ele>466.3482</ele>
        <time>2021-08-13T07:04:18.933Z</time>
      </trkpt>
      <trkpt lat="41.49915" lon="45.19528">
        <ele>458.843718</ele>
        <time>2021-08-13T07:04:35.740Z</time>
      </trkpt>
      <trkpt lat="41.49966" lon="45.19468">
        <ele>448.934892</ele>
        <time>2021-08-13T07:04:58.157Z</time>
      </trkpt>
      <trkpt lat="41.49969" lon="45.19438">
        <ele>445.940606</ele>
        <time>2021-08-13T07:05:05.711Z</time>
      </trkpt>
      <trkpt lat="41.49905" lon="45.19399">
        <ele>437.220127</ele>
        <time>2021-08-13T07:05:29.381Z</time>
      </trkpt>
      <trkpt lat="41.49822" lon="45.19378">
        <ele>426.690939</ele>
        <time>2021-08-13T07:05:57.703Z</time>
      </trkpt>
      <trkpt lat="41.4977" lon="45.19344">
        <ele>419.240491</ele>
        <time>2021-08-13T07:06:16.593Z</time>
      </trkpt>
      <trkpt lat="41.4972" lon="45.19273">
        <ele>409.749879</ele>
        <time>2021-08-13T07:06:40.472Z</time>
      </trkpt>
      <trkpt lat="41.49719" lon="45.1923">
        <ele>405.536208</ele>
        <time>2021-08-13T07:06:51.078Z</time>
      </trkpt>
      <trkpt lat="41.49734" lon="45.19045">
        <ele>389.383886</ele>
        <time>2021-08-13T07:07:37.552Z</time>
      </trkpt>
      <trkpt lat="41.49729" lon="45.19021">
        <ele>387.25299</ele>
        <time>2021-08-13T07:07:44.135Z</time>
      </trkpt>
      <trkpt lat="41.49709" lon="45.18987">
        <ele>383.655722</ele>
        <time>2021-08-13T07:07:55.205Z</time>
      </trkpt>
      <trkpt lat="41.49626" lon="45.18899">
        <ele>376.053688</ele>
        <time>2021-08-13T07:08:32.905Z</time>
      </trkpt>
      <trkpt lat="41.49595" lon="45.18878">
        <ele>373.870599</ele>
        <time>2021-08-13T07:08:45.446Z</time>
      </trkpt>
      <trkpt lat="41.49592" lon="45.18876">
        <ele>373.640258</ele>
        <time>2021-08-13T07:08:46.215Z</time>
      </trkpt>
      <trkpt lat="41.49185" lon="45.18485">
        <ele>356.707719</ele>
        <time>2021-08-13T07:10:46.653Z</time>
      </trkpt>
      <trkpt lat="41.49103" lon="45.18421">
        <ele>354.423289</ele>
        <time>2021-08-13T07:11:11.523Z</time>
      </trkpt>
      <trkpt lat="41.48848" lon="45.18262">
        <ele>350.205038</ele>
        <time>2021-08-13T07:12:28.202Z</time>
      </trkpt>
      <trkpt lat="41.48656" lon="45.18154">
        <ele>346.42721</ele>
        <time>2021-08-13T07:13:22.565Z</time>
      </trkpt>
      <trkpt lat="41.48475" lon="45.18064">
        <ele>342.12383</ele>
        <time>2021-08-13T07:14:11.349Z</time>
      </trkpt>
      <trkpt lat="41.48356" lon="45.17928">
        <ele>338.330667</ele>
        <time>2021-08-13T07:14:50.408Z</time>
      </trkpt>
      <trkpt lat="41.48182" lon="45.17704">
        <ele>332.548404</ele>
        <time>2021-08-13T07:15:51.013Z</time>
      </trkpt>
      <trkpt lat="41.48111" lon="45.17605">
        <ele>330.356169</ele>
        <time>2021-08-13T07:16:17.220Z</time>
      </trkpt>
      <trkpt lat="41.4777" lon="45.17322">
        <ele>322.585318</ele>
        <time>2021-08-13T07:18:01.366Z</time>
      </trkpt>
      <trkpt lat="41.47633" lon="45.17221">
        <ele>319.98855</ele>
        <time>2021-08-13T07:18:42.997Z</time>
      </trkpt>
      <trkpt lat="41.47299" lon="45.17004">
        <ele>314.528848</ele>
        <time>2021-08-13T07:20:23.299Z</time>
      </trkpt>
      <trkpt lat="41.47257" lon="45.16976">
        <ele>313.875872</ele>
        <time>2021-08-13T07:20:35.987Z</time>
      </trkpt>
      <trkpt lat="41.47261" lon="45.16802">
        <ele>312.519771</ele>
        <time>2021-08-13T07:21:10.423Z</time>
      </trkpt>
      <trkpt lat="41.47269" lon="45.16677">
        <ele>312.090603</ele>
        <time>2021-08-13T07:21:37.495Z</time>
      </trkpt>
      <trkpt lat="41.47291" lon="45.16638">
        <ele>312.103487</ele>
        <time>2021-08-13T07:21:48.909Z</time>
      </trkpt>
      <trkpt lat="41.47395" lon="45.16494">
        <ele>312.479985</ele>
        <time>2021-08-13T07:22:39.128Z</time>
      </trkpt>
      <trkpt lat="41.47507" lon="45.16277">
        <ele>313.790301</ele>
        <time>2021-08-13T07:23:48.279Z</time>
      </trkpt>
      <trkpt lat="41.47538" lon="45.16232">
        <ele>314.149156</ele>
        <time>2021-08-13T07:24:04.879Z</time>
      </trkpt>
      <trkpt lat="41.47715" lon="45.16032">
        <ele>315.961874</ele>
        <time>2021-08-13T07:25:27.907Z</time>
      </trkpt>
      <trkpt lat="41.47729" lon="45.15981">
        <ele>316.087374</ele>
        <time>2021-08-13T07:25:41.656Z</time>
      </trkpt>
      <trkpt lat="41.47732" lon="45.15923">
        <ele>316.180505</ele>
        <time>2021-08-13T07:25:55.890Z</time>
      </trkpt>
      <trkpt lat="41.47744" lon="45.15564">
        <ele>316.372474</ele>
        <time>2021-08-13T07:27:20.057Z</time>
      </trkpt>
      <trkpt lat="41.47755" lon="45.15433">
        <ele>316.269641</ele>
        <time>2021-08-13T07:27:50.630Z</time>
      </trkpt>
      <trkpt lat="41.47851" lon="45.15098">
        <ele>315.965061</ele>
        <time>2021-08-13T07:29:12.256Z</time>
      </trkpt>
      <trkpt lat="41.48116" lon="45.14503">
        <ele>316.520643</ele>
        <time>2021-08-13T07:31:57.000Z</time>
      </trkpt>
      <trkpt lat="41.48144" lon="45.14423">
        <ele>316.658038</ele>
        <time>2021-08-13T07:32:18.314Z</time>
      </trkpt>
      <trkpt lat="41.48188" lon="45.14075">
        <ele>317.317821</ele>
        <time>2021-08-13T07:33:45.277Z</time>
      </trkpt>
      <trkpt lat="41.48211" lon="45.14016">
        <ele>317.436809</ele>
        <time>2021-08-13T07:34:01.553Z</time>
      </trkpt>
      <trkpt lat="41.48447" lon="45.13716">
        <ele>317.310301</ele>
        <time>2021-08-13T07:35:42.560Z</time>
      </trkpt>
      <trkpt lat="41.48591" lon="45.13383">
        <ele>316.592063</ele>
        <time>2021-08-13T07:37:08.263Z</time>
      </trkpt>
      <trkpt lat="41.4861" lon="45.1316">
        <ele>316.143449</ele>
        <time>2021-08-13T07:37:58.292Z</time>
      </trkpt>
      <trkpt lat="41.48621" lon="45.131">
        <ele>316.040113</ele>
        <time>2021-08-13T07:38:12.053Z</time>
      </trkpt>
      <trkpt lat="41.48692" lon="45.1289">
        <ele>315.703063</ele>
        <time>2021-08-13T07:39:04.276Z</time>
      </trkpt>
      <trkpt lat="41.487" lon="45.12844">
        <ele>315.642378</ele>
        <time>2021-08-13T07:39:15.036Z</time>
      </trkpt>
      <trkpt lat="41.48728" lon="45.12583">
        <ele>315.459366</ele>
        <time>2021-08-13T07:40:15.435Z</time>
      </trkpt>
      <trkpt lat="41.48743" lon="45.12543">
        <ele>315.44166</ele>
        <time>2021-08-13T07:40:25.523Z</time>
      </trkpt>
      <trkpt lat="41.48889" lon="45.12322">
        <ele>315.750067</ele>
        <time>2021-08-13T07:41:36.620Z</time>
      </trkpt>
      <trkpt lat="41.48917" lon="45.12278">
        <ele>315.838764</ele>
        <time>2021-08-13T07:41:50.696Z</time>
      </trkpt>
      <trkpt lat="41.48989" lon="45.12216">
        <ele>316.014533</ele>
        <time>2021-08-13T07:42:18.323Z</time>
      </trkpt>
      <trkpt lat="41.49116" lon="45.12105">
        <ele>316.320276</ele>
        <time>2021-08-13T07:43:07.075Z</time>
      </trkpt>
      <trkpt lat="41.49138" lon="45.12077">
        <ele>316.380772</ele>
        <time>2021-08-13T07:43:16.861Z</time>
      </trkpt>
      <trkpt lat="41.49211" lon="45.1197">
        <ele>316.577885</ele>
        <time>2021-08-13T07:43:52.198Z</time>
      </trkpt>
      <trkpt lat="41.49273" lon="45.1185">
        <ele>316.709683</ele>
        <time>2021-08-13T07:44:27.072Z</time>
      </trkpt>
      <trkpt lat="41.49408" lon="45.11576">
        <ele>316.614276</ele>
        <time>2021-08-13T07:45:42.658Z</time>
      </trkpt>
      <trkpt lat="41.49473" lon="45.1132">
        <ele>316.495826</ele>
        <time>2021-08-13T07:46:45.377Z</time>
      </trkpt>
      <trkpt lat="41.49663" lon="45.10951">
        <ele>316.348599</ele>
        <time>2021-08-13T07:48:28.816Z</time>
      </trkpt>
      <trkpt lat="41.49704" lon="45.10848">
        <ele>316.346218</ele>
        <time>2021-08-13T07:48:56.242Z</time>
      </trkpt>
      <trkpt lat="41.49739" lon="45.10723">
        <ele>316.47445</ele>
        <time>2021-08-13T07:49:28.383Z</time>
      </trkpt>
      <trkpt lat="41.4976" lon="45.10588">
        <ele>316.581522</ele>
        <time>2021-08-13T07:50:01.285Z</time>
      </trkpt>
      <trkpt lat="41.49769" lon="45.1057">
        <ele>316.587896</ele>
        <time>2021-08-13T07:50:06.440Z</time>
      </trkpt>
      <trkpt lat="41.49819" lon="45.10507">
        <ele>316.614912</ele>
        <time>2021-08-13T07:50:28.097Z</time>
      </trkpt>
      <trkpt lat="41.49908" lon="45.10413">
        <ele>316.598294</ele>
        <time>2021-08-13T07:51:02.865Z</time>
      </trkpt>
      <trkpt lat="41.4993" lon="45.1038">
        <ele>316.566571</ele>
        <time>2021-08-13T07:51:13.197Z</time>
      </trkpt>
      <trkpt lat="41.49963" lon="45.10323">
        <ele>316.515577</ele>
        <time>2021-08-13T07:51:29.783Z</time>
      </trkpt>
      <trkpt lat="41.50033" lon="45.10167">
        <ele>316.415649</ele>
        <time>2021-08-13T07:52:11.421Z</time>
      </trkpt>
      <trkpt lat="41.50051" lon="45.10122">
        <ele>316.391734</ele>
        <time>2021-08-13T07:52:23.236Z</time>
      </trkpt>
      <trkpt lat="41.50065" lon="45.1009">
        <ele>316.374348</ele>
        <time>2021-08-13T07:52:31.872Z</time>
      </trkpt>
      <trkpt lat="41.50084" lon="45.10013">
        <ele>316.369164</ele>
        <time>2021-08-13T07:52:50.595Z</time>
      </trkpt>
      <trkpt lat="41.5009" lon="45.09829">
        <ele>316.407883</ele>
        <time>2021-08-13T07:53:34.048Z</time>
      </trkpt>
      <trkpt lat="41.501" lon="45.09686">
        <ele>316.559503</ele>
        <time>2021-08-13T07:54:08.289Z</time>
      </trkpt>
      <trkpt lat="41.50149" lon="45.09572">
        <ele>316.733511</ele>
        <time>2021-08-13T07:54:39.972Z</time>
      </trkpt>
      <trkpt lat="41.50364" lon="45.09261">
        <ele>317.619047</ele>
        <time>2021-08-13T07:56:24.248Z</time>
      </trkpt>
      <trkpt lat="41.50495" lon="45.09068">
        <ele>317.728031</ele>
        <time>2021-08-13T07:57:25.939Z</time>
      </trkpt>
      <trkpt lat="41.50551" lon="45.08976">
        <ele>317.434688</ele>
        <time>2021-08-13T07:57:52.154Z</time>
      </trkpt>
      <trkpt lat="41.50636" lon="45.08849">
        <ele>316.992435</ele>
        <time>2021-08-13T07:58:28.846Z</time>
      </trkpt>
      <trkpt lat="41.50668" lon="45.08796">
        <ele>316.846955</ele>
        <time>2021-08-13T07:58:43.664Z</time>
      </trkpt>
      <trkpt lat="41.50697" lon="45.08736">
        <ele>316.693307</ele>
        <time>2021-08-13T07:58:59.645Z</time>
      </trkpt>
      <trkpt lat="41.50733" lon="45.08657">
        <ele>316.563385</ele>
        <time>2021-08-13T07:59:21.036Z</time>
      </trkpt>
      <trkpt lat="41.50906" lon="45.08225">
        <ele>316.566161</ele>
        <time>2021-08-13T08:01:16.239Z</time>
      </trkpt>
      <trkpt lat="41.51012" lon="45.07953">
        <ele>316.295981</ele>
        <time>2021-08-13T08:02:23.884Z</time>
      </trkpt>
      <trkpt lat="41.51106" lon="45.07712">
        <ele>316.883953</ele>
        <time>2021-08-13T08:03:33.649Z</time>
      </trkpt>
      <trkpt lat="41.51114" lon="45.07691">
        <ele>316.960477</ele>
        <time>2021-08-13T08:03:39.576Z</time>
      </trkpt>
      <trkpt lat="41.51148" lon="45.07608">
        <ele>317.209642</ele>
        <time>2021-08-13T08:04:02.965Z</time>
      </trkpt>
      <trkpt lat="41.51185" lon="45.07542">
        <ele>317.204096</ele>
        <time>2021-08-13T08:04:22.699Z</time>
      </trkpt>
      <trkpt lat="41.51271" lon="45.07429">
        <ele>317.148685</ele>
        <time>2021-08-13T08:04:59.333Z</time>
      </trkpt>
      <trkpt lat="41.5143" lon="45.07213">
        <ele>316.580766</ele>
        <time>2021-08-13T08:06:06.176Z</time>
      </trkpt>
      <trkpt lat="41.51506" lon="45.07108">
        <ele>316.502442</ele>
        <time>2021-08-13T08:06:40.170Z</time>
      </trkpt>
      <trkpt lat="41.5154" lon="45.07053">
        <ele>316.71843</ele>
        <time>2021-08-13T08:06:57.617Z</time>
      </trkpt>
      <trkpt lat="41.51561" lon="45.07011">
        <ele>316.908452</ele>
        <time>2021-08-13T08:07:10.432Z</time>
      </trkpt>
      <trkpt lat="41.51583" lon="45.06949">
        <ele>317.165243</ele>
        <time>2021-08-13T08:07:28.137Z</time>
      </trkpt>
      <trkpt lat="41.51612" lon="45.06854">
        <ele>317.577996</ele>
        <time>2021-08-13T08:07:55.476Z</time>
      </trkpt>
      <trkpt lat="41.51617" lon="45.0682">
        <ele>317.725424</ele>
        <time>2021-08-13T08:08:04.497Z</time>
      </trkpt>
      <trkpt lat="41.51637" lon="45.06565">
        <ele>318.549737</ele>
        <time>2021-08-13T08:09:09.972Z</time>
      </trkpt>
      <trkpt lat="41.51638" lon="45.0654">
        <ele>318.579328</ele>
        <time>2021-08-13T08:09:16.223Z</time>
      </trkpt>
      <trkpt lat="41.5164" lon="45.06523">
        <ele>318.599266</ele>
        <time>2021-08-13T08:09:20.015Z</time>
      </trkpt>
      <trkpt lat="41.51644" lon="45.06454">
        <ele>318.679978</ele>
        <time>2021-08-13T08:09:36.146Z</time>
      </trkpt>
      <trkpt lat="41.51663" lon="45.06324">
        <ele>318.532689</ele>
        <time>2021-08-13T08:10:06.062Z</time>
      </trkpt>
      <trkpt lat="41.51697" lon="45.06165">
        <ele>318.1865</ele>
        <time>2021-08-13T08:10:42.590Z</time>
      </trkpt>
      <trkpt lat="41.51711" lon="45.06091">
        <ele>317.97021</ele>
        <time>2021-08-13T08:10:59.483Z</time>
      </trkpt>
      <trkpt lat="41.51717" lon="45.06066">
        <ele>317.894355</ele>
        <time>2021-08-13T08:11:05.239Z</time>
      </trkpt>
      <trkpt lat="41.51734" lon="45.05984">
        <ele>317.654329</ele>
        <time>2021-08-13T08:11:23.929Z</time>
      </trkpt>
      <trkpt lat="41.51737" lon="45.05978">
        <ele>317.634125</ele>
        <time>2021-08-13T08:11:25.389Z</time>
      </trkpt>
      <trkpt lat="41.51756" lon="45.0592">
        <ele>317.542136</ele>
        <time>2021-08-13T08:11:39.264Z</time>
      </trkpt>
      <trkpt lat="41.51786" lon="45.05857">
        <ele>317.500641</ele>
        <time>2021-08-13T08:11:55.746Z</time>
      </trkpt>
      <trkpt lat="41.51834" lon="45.05801">
        <ele>317.45385</ele>
        <time>2021-08-13T08:12:15.359Z</time>
      </trkpt>
      <trkpt lat="41.51867" lon="45.05765">
        <ele>317.489813</ele>
        <time>2021-08-13T08:12:29.348Z</time>
      </trkpt>
      <trkpt lat="41.51924" lon="45.0571">
        <ele>317.872353</ele>
        <time>2021-08-13T08:12:53.048Z</time>
      </trkpt>
      <trkpt lat="41.51948" lon="45.05686">
        <ele>318.033341</ele>
        <time>2021-08-13T08:13:03.330Z</time>
      </trkpt>
      <trkpt lat="41.52058" lon="45.05579">
        <ele>318.952494</ele>
        <time>2021-08-13T08:13:51.666Z</time>
      </trkpt>
      <trkpt lat="41.52127" lon="45.0551">
        <ele>319.655469</ele>
        <time>2021-08-13T08:14:22.432Z</time>
      </trkpt>
      <trkpt lat="41.52212" lon="45.05427">
        <ele>320.548474</ele>
        <time>2021-08-13T08:15:00.415Z</time>
      </trkpt>
      <trkpt lat="41.5236" lon="45.05285">
        <ele>321.816661</ele>
        <time>2021-08-13T08:16:05.869Z</time>
      </trkpt>
      <trkpt lat="41.52491" lon="45.05161">
        <ele>322.415858</ele>
        <time>2021-08-13T08:16:57.383Z</time>
      </trkpt>
      <trkpt lat="41.5267" lon="45.04985">
        <ele>322.942345</ele>
        <time>2021-08-13T08:18:09.686Z</time>
      </trkpt>
      <trkpt lat="41.52756" lon="45.04908">
        <ele>323.288346</ele>
        <time>2021-08-13T08:18:43.295Z</time>
      </trkpt>
      <trkpt lat="41.52881" lon="45.04787">
        <ele>324.085333</ele>
        <time>2021-08-13T08:19:35.886Z</time>
      </trkpt>
      <trkpt lat="41.529" lon="45.04767">
        <ele>324.283598</ele>
        <time>2021-08-13T08:19:44.895Z</time>
      </trkpt>
      <trkpt lat="41.5302" lon="45.04655">
        <ele>325.459526</ele>
        <time>2021-08-13T08:20:38.316Z</time>
      </trkpt>
      <trkpt lat="41.53345" lon="45.04347">
        <ele>327.169282</ele>
        <time>2021-08-13T08:22:50.258Z</time>
      </trkpt>
      <trkpt lat="41.53435" lon="45.04284">
        <ele>327.710496</ele>
        <time>2021-08-13T08:23:25.472Z</time>
      </trkpt>
      <trkpt lat="41.53466" lon="45.04254">
        <ele>327.911099</ele>
        <time>2021-08-13T08:23:38.436Z</time>
      </trkpt>
      <trkpt lat="41.53475" lon="45.04244">
        <ele>327.968782</ele>
        <time>2021-08-13T08:23:42.996Z</time>
      </trkpt>
      <trkpt lat="41.53503" lon="45.04216">
        <ele>328.093069</ele>
        <time>2021-08-13T08:23:54.866Z</time>
      </trkpt>
      <trkpt lat="41.53575" lon="45.04122">
        <ele>328.451302</ele>
        <time>2021-08-13T08:24:28.430Z</time>
      </trkpt>
      <trkpt lat="41.53917" lon="45.03793">
        <ele>328.926613</ele>
        <time>2021-08-13T08:26:40.696Z</time>
      </trkpt>
      <trkpt lat="41.53971" lon="45.03753">
        <ele>329.210267</ele>
        <time>2021-08-13T08:27:00.795Z</time>
      </trkpt>
      <trkpt lat="41.54152" lon="45.03621">
        <ele>330.612389</ele>
        <time>2021-08-13T08:28:12.793Z</time>
      </trkpt>
      <trkpt lat="41.54303" lon="45.03513">
        <ele>332.278154</ele>
        <time>2021-08-13T08:29:17.497Z</time>
      </trkpt>
      <trkpt lat="41.54419" lon="45.03429">
        <ele>333.379053</ele>
        <time>2021-08-13T08:30:05.357Z</time>
      </trkpt>
      <trkpt lat="41.54437" lon="45.03416">
        <ele>333.488217</ele>
        <time>2021-08-13T08:30:12.509Z</time>
      </trkpt>
      <trkpt lat="41.54652" lon="45.03262">
        <ele>334.632952</ele>
        <time>2021-08-13T08:31:32.735Z</time>
      </trkpt>
      <trkpt lat="41.54791" lon="45.03155">
        <ele>335.686716</ele>
        <time>2021-08-13T08:32:28.885Z</time>
      </trkpt>
      <trkpt lat="41.54823" lon="45.03118">
        <ele>335.998553</ele>
        <time>2021-08-13T08:32:44.284Z</time>
      </trkpt>
      <trkpt lat="41.54857" lon="45.03079">
        <ele>336.213563</ele>
        <time>2021-08-13T08:33:00.347Z</time>
      </trkpt>
      <trkpt lat="41.54901" lon="45.03017">
        <ele>336.401336</ele>
        <time>2021-08-13T08:33:22.726Z</time>
      </trkpt>
      <trkpt lat="41.54945" lon="45.02955">
        <ele>336.587159</ele>
        <time>2021-08-13T08:33:42.925Z</time>
      </trkpt>
      <trkpt lat="41.5496" lon="45.02935">
        <ele>336.649055</ele>
        <time>2021-08-13T08:33:49.019Z</time>
      </trkpt>
      <trkpt lat="41.54993" lon="45.02885">
        <ele>336.428394</ele>
        <time>2021-08-13T08:34:03.442Z</time>
      </trkpt>
      <trkpt lat="41.54987" lon="45.02862">
        <ele>336.332852</ele>
        <time>2021-08-13T08:34:08.439Z</time>
      </trkpt>
      <trkpt lat="41.54977" lon="45.02841">
        <ele>336.23337</ele>
        <time>2021-08-13T08:34:13.853Z</time>
      </trkpt>
      <trkpt lat="41.54942" lon="45.02771">
        <ele>335.9029</ele>
        <time>2021-08-13T08:34:31.311Z</time>
      </trkpt>
      <trkpt lat="41.5484" lon="45.02582">
        <ele>335.371544</ele>
        <time>2021-08-13T08:35:22.681Z</time>
      </trkpt>
      <trkpt lat="41.54787" lon="45.02482">
        <ele>335.377046</ele>
        <time>2021-08-13T08:35:53.004Z</time>
      </trkpt>
      <trkpt lat="41.54769" lon="45.02451">
        <ele>335.438199</ele>
        <time>2021-08-13T08:36:02.842Z</time>
      </trkpt>
      <trkpt lat="41.54775" lon="45.02443">
        <ele>335.455037</ele>
        <time>2021-08-13T08:36:05.483Z</time>
      </trkpt>
      <trkpt lat="41.54776" lon="45.02418">
        <ele>335.493338</ele>
        <time>2021-08-13T08:36:11.733Z</time>
      </trkpt>
      <trkpt lat="41.54773" lon="45.02414">
        <ele>335.502758</ele>
        <time>2021-08-13T08:36:13.194Z</time>
      </trkpt>
      <trkpt lat="41.54798" lon="45.02394">
        <ele>335.562333</ele>
        <time>2021-08-13T08:36:22.402Z</time>
      </trkpt>
      <trkpt lat="41.54819" lon="45.02377">
        <ele>335.614322</ele>
        <time>2021-08-13T08:36:30.496Z</time>
      </trkpt>
      <trkpt lat="41.54837" lon="45.0236">
        <ele>335.679452</ele>
        <time>2021-08-13T08:36:37.906Z</time>
      </trkpt>
      <trkpt lat="41.54903" lon="45.02296">
        <ele>336.087428</ele>
        <time>2021-08-13T08:37:05.825Z</time>
      </trkpt>
      <trkpt lat="41.54916" lon="45.02284">
        <ele>336.165852</ele>
        <time>2021-08-13T08:37:11.201Z</time>
      </trkpt>
      <trkpt lat="41.54937" lon="45.02264">
        <ele>336.291216</ele>
        <time>2021-08-13T08:37:19.861Z</time>
      </trkpt>
      <trkpt lat="41.54992" lon="45.02211">
        <ele>336.655851</ele>
        <time>2021-08-13T08:37:43.174Z</time>
      </trkpt>
      <trkpt lat="41.55078" lon="45.02129">
        <ele>337.322241</ele>
        <time>2021-08-13T08:38:19.412Z</time>
      </trkpt>
      <trkpt lat="41.55132" lon="45.02075">
        <ele>337.768921</ele>
        <time>2021-08-13T08:38:42.995Z</time>
      </trkpt>
      <trkpt lat="41.55161" lon="45.02047">
        <ele>338.04947</ele>
        <time>2021-08-13T08:38:55.503Z</time>
      </trkpt>
      <trkpt lat="41.5517" lon="45.02038">
        <ele>338.145409</ele>
        <time>2021-08-13T08:38:59.877Z</time>
      </trkpt>
      <trkpt lat="41.55214" lon="45.01998">
        <ele>338.573314</ele>
        <time>2021-08-13T08:39:19.478Z</time>
      </trkpt>
      <trkpt lat="41.55243" lon="45.01968">
        <ele>338.867381</ele>
        <time>2021-08-13T08:39:32.902Z</time>
      </trkpt>
      <trkpt lat="41.55303" lon="45.01908">
        <ele>339.286717</ele>
        <time>2021-08-13T08:39:58.762Z</time>
      </trkpt>
      <trkpt lat="41.55345" lon="45.01867">
        <ele>339.482387</ele>
        <time>2021-08-13T08:40:16.186Z</time>
      </trkpt>
      <trkpt lat="41.55345" lon="45.01867">
        <ele>339.482387</ele>
        <time>2021-08-13T08:40:16.240Z</time>
      </trkpt>
      <trkpt lat="41.55345" lon="45.01867">
        <ele>339.482387</ele>
        <time>2021-08-13T08:40:16.246Z</time>
      </trkpt>
      <trkpt lat="41.55326" lon="45.0183">
        <ele>339.60973</ele>
        <time>2021-08-13T08:40:30.583Z</time>
      </trkpt>
      <trkpt lat="41.55325" lon="45.01825">
        <ele>339.624927</ele>
        <time>2021-08-13T08:40:32.090Z</time>
      </trkpt>
      <trkpt lat="41.55323" lon="45.0181">
        <ele>339.66941</ele>
        <time>2021-08-13T08:40:36.944Z</time>
      </trkpt>
      <trkpt lat="41.55321" lon="45.01771">
        <ele>339.780908</ele>
        <time>2021-08-13T08:40:48.983Z</time>
      </trkpt>
      <trkpt lat="41.55332" lon="45.01742">
        <ele>339.840848</ele>
        <time>2021-08-13T08:40:59.066Z</time>
      </trkpt>
      <trkpt lat="41.55341" lon="45.01735">
        <ele>339.860191</ele>
        <time>2021-08-13T08:41:02.986Z</time>
      </trkpt>
      <trkpt lat="41.55237" lon="45.01671">
        <ele>340.082456</ele>
        <time>2021-08-13T08:41:39.905Z</time>
      </trkpt>
      <trkpt lat="41.55199" lon="45.01645">
        <ele>340.157757</ele>
        <time>2021-08-13T08:41:54.502Z</time>
      </trkpt>
      <trkpt lat="41.55128" lon="45.01601">
        <ele>340.168551</ele>
        <time>2021-08-13T08:42:19.621Z</time>
      </trkpt>
      <trkpt lat="41.55061" lon="45.01558">
        <ele>340.1788</ele>
        <time>2021-08-13T08:42:42.381Z</time>
      </trkpt>
      <trkpt lat="41.55051" lon="45.01551">
        <ele>340.180442</ele>
        <time>2021-08-13T08:42:45.952Z</time>
      </trkpt>
      <trkpt lat="41.54988" lon="45.01509">
        <ele>339.837853</ele>
        <time>2021-08-13T08:43:06.263Z</time>
      </trkpt>
      <trkpt lat="41.5495" lon="45.01485">
        <ele>339.593803</ele>
        <time>2021-08-13T08:43:17.937Z</time>
      </trkpt>
      <trkpt lat="41.54915" lon="45.01463">
        <ele>339.371846</ele>
        <time>2021-08-13T08:43:28.531Z</time>
      </trkpt>
      <trkpt lat="41.54885" lon="45.01444">
        <ele>339.180439</ele>
        <time>2021-08-13T08:43:37.720Z</time>
      </trkpt>
      <trkpt lat="41.54846" lon="45.01419">
        <ele>338.984204</ele>
        <time>2021-08-13T08:43:50.530Z</time>
      </trkpt>
      <trkpt lat="41.54739" lon="45.01344">
        <ele>338.481314</ele>
        <time>2021-08-13T08:44:25.942Z</time>
      </trkpt>
      <trkpt lat="41.54708" lon="45.01323">
        <ele>338.328149</ele>
        <time>2021-08-13T08:44:35.910Z</time>
      </trkpt>
      <trkpt lat="41.54682" lon="45.01306">
        <ele>338.181724</ele>
        <time>2021-08-13T08:44:44.494Z</time>
      </trkpt>
      <trkpt lat="41.54645" lon="45.01283">
        <ele>337.983881</ele>
        <time>2021-08-13T08:44:56.084Z</time>
      </trkpt>
      <trkpt lat="41.54577" lon="45.01241">
        <ele>337.613682</ele>
        <time>2021-08-13T08:45:18.001Z</time>
      </trkpt>
      <trkpt lat="41.54524" lon="45.01206">
        <ele>337.156918</ele>
        <time>2021-08-13T08:45:34.386Z</time>
      </trkpt>
      <trkpt lat="41.54489" lon="45.01183">
        <ele>336.782747</ele>
        <time>2021-08-13T08:45:44.791Z</time>
      </trkpt>
      <trkpt lat="41.54473" lon="45.01172">
        <ele>336.616037</ele>
        <time>2021-08-13T08:45:49.472Z</time>
      </trkpt>
      <trkpt lat="41.54466" lon="45.01168">
        <ele>336.543131</ele>
        <time>2021-08-13T08:45:51.458Z</time>
      </trkpt>
      <trkpt lat="41.54436" lon="45.01143">
        <ele>336.206651</ele>
        <time>2021-08-13T08:46:01.030Z</time>
      </trkpt>
      <trkpt lat="41.54352" lon="45.01091">
        <ele>335.615145</ele>
        <time>2021-08-13T08:46:26.651Z</time>
      </trkpt>
      <trkpt lat="41.54352" lon="45.01091">
        <ele>335.615145</ele>
        <time>2021-08-13T08:46:26.653Z</time>
      </trkpt>
      <trkpt lat="41.54338" lon="45.01079">
        <ele>335.555221</ele>
        <time>2021-08-13T08:46:31.244Z</time>
      </trkpt>
      <trkpt lat="41.54343" lon="45.01069">
        <ele>335.522864</ele>
        <time>2021-08-13T08:46:33.979Z</time>
      </trkpt>
      <trkpt lat="41.54413" lon="45.0089">
        <ele>335.21655</ele>
        <time>2021-08-13T08:47:22.434Z</time>
      </trkpt>
      <trkpt lat="41.54418" lon="45.00873">
        <ele>335.237839</ele>
        <time>2021-08-13T08:47:27.331Z</time>
      </trkpt>
      <trkpt lat="41.54428" lon="45.00854">
        <ele>335.264127</ele>
        <time>2021-08-13T08:47:33.159Z</time>
      </trkpt>
      <trkpt lat="41.5445" lon="45.00793">
        <ele>335.341379</ele>
        <time>2021-08-13T08:47:49.855Z</time>
      </trkpt>
      <trkpt lat="41.54461" lon="45.0076">
        <ele>335.381787</ele>
        <time>2021-08-13T08:47:58.548Z</time>
      </trkpt>
      <trkpt lat="41.5449" lon="45.00679">
        <ele>335.19956</ele>
        <time>2021-08-13T08:48:20.396Z</time>
      </trkpt>
      <trkpt lat="41.54492" lon="45.00667">
        <ele>335.150832</ele>
        <time>2021-08-13T08:48:23.297Z</time>
      </trkpt>
      <trkpt lat="41.54576" lon="45.00438">
        <ele>332.985733</ele>
        <time>2021-08-13T08:49:15.820Z</time>
      </trkpt>
      <trkpt lat="41.54587" lon="45.00405">
        <ele>332.33919</ele>
        <time>2021-08-13T08:49:22.183Z</time>
      </trkpt>
      <trkpt lat="41.54613" lon="45.00334">
        <ele>330.904831</ele>
        <time>2021-08-13T08:49:35.584Z</time>
      </trkpt>
      <trkpt lat="41.54614" lon="45.00331">
        <ele>330.83769</ele>
        <time>2021-08-13T08:49:36.183Z</time>
      </trkpt>
      <trkpt lat="41.54616" lon="45.00327">
        <ele>330.763508</ele>
        <time>2021-08-13T08:49:36.851Z</time>
      </trkpt>
      <trkpt lat="41.54679" lon="45.00153">
        <ele>327.595296</ele>
        <time>2021-08-13T08:50:10.063Z</time>
      </trkpt>
      <trkpt lat="41.54687" lon="45.00133">
        <ele>327.246135</ele>
        <time>2021-08-13T08:50:14.440Z</time>
      </trkpt>
      <trkpt lat="41.54763" lon="44.99929">
        <ele>327.138102</ele>
        <time>2021-08-13T08:51:13.208Z</time>
      </trkpt>
      <trkpt lat="41.5484" lon="44.99725">
        <ele>329.571028</ele>
        <time>2021-08-13T08:52:24.086Z</time>
      </trkpt>
      <trkpt lat="41.54982" lon="44.99335">
        <ele>336.576043</ele>
        <time>2021-08-13T08:54:49.024Z</time>
      </trkpt>
      <trkpt lat="41.54995" lon="44.99313">
        <ele>337.070754</ele>
        <time>2021-08-13T08:54:58.963Z</time>
      </trkpt>
      <trkpt lat="41.55006" lon="44.99298">
        <ele>337.454208</ele>
        <time>2021-08-13T08:55:07.106Z</time>
      </trkpt>
      <trkpt lat="41.55019" lon="44.99278">
        <ele>337.922276</ele>
        <time>2021-08-13T08:55:16.079Z</time>
      </trkpt>
      <trkpt lat="41.55023" lon="44.99272">
        <ele>338.064051</ele>
        <time>2021-08-13T08:55:19.119Z</time>
      </trkpt>
      <trkpt lat="41.55027" lon="44.99262">
        <ele>338.271052</ele>
        <time>2021-08-13T08:55:23.378Z</time>
      </trkpt>
      <trkpt lat="41.55039" lon="44.99229">
        <ele>338.906275</ele>
        <time>2021-08-13T08:55:35.951Z</time>
      </trkpt>
      <trkpt lat="41.55026" lon="44.9922">
        <ele>339.087426</ele>
        <time>2021-08-13T08:55:42.411Z</time>
      </trkpt>
      <trkpt lat="41.55017" lon="44.99215">
        <ele>339.214939</ele>
        <time>2021-08-13T08:55:46.634Z</time>
      </trkpt>
      <trkpt lat="41.55008" lon="44.99208">
        <ele>339.348002</ele>
        <time>2021-08-13T08:55:51.363Z</time>
      </trkpt>
      <trkpt lat="41.54992" lon="44.99194">
        <ele>339.587516</ele>
        <time>2021-08-13T08:55:59.567Z</time>
      </trkpt>
      <trkpt lat="41.54986" lon="44.9919">
        <ele>339.677386</ele>
        <time>2021-08-13T08:56:02.423Z</time>
      </trkpt>
      <trkpt lat="41.54978" lon="44.99185">
        <ele>339.800799</ele>
        <time>2021-08-13T08:56:06.507Z</time>
      </trkpt>
      <trkpt lat="41.54948" lon="44.99164">
        <ele>340.232845</ele>
        <time>2021-08-13T08:56:19.532Z</time>
      </trkpt>
      <trkpt lat="41.54912" lon="44.9914">
        <ele>340.742872</ele>
        <time>2021-08-13T08:56:33.702Z</time>
      </trkpt>
      <trkpt lat="41.5484" lon="44.99093">
        <ele>341.852934</ele>
        <time>2021-08-13T08:56:57.848Z</time>
      </trkpt>
      <trkpt lat="41.54783" lon="44.99054">
        <ele>342.779055</ele>
        <time>2021-08-13T08:57:21.724Z</time>
      </trkpt>
      <trkpt lat="41.54777" lon="44.99075">
        <ele>343.020348</ele>
        <time>2021-08-13T08:57:33.350Z</time>
      </trkpt>
      <trkpt lat="41.54775" lon="44.99073">
        <ele>343.049942</ele>
        <time>2021-08-13T08:57:34.796Z</time>
      </trkpt>
      <trkpt lat="41.54775" lon="44.99076">
        <ele>343.076818</ele>
        <time>2021-08-13T08:57:36.111Z</time>
      </trkpt>
      <trkpt lat="41.54758" lon="44.99066">
        <ele>343.336249</ele>
        <time>2021-08-13T08:57:48.564Z</time>
      </trkpt>
      <trkpt lat="41.54767" lon="44.99042">
        <ele>343.626511</ele>
        <time>2021-08-13T08:57:57.538Z</time>
      </trkpt>
      <trkpt lat="41.54767" lon="44.99042">
        <ele>343.626511</ele>
        <time>2021-08-13T08:57:57.639Z</time>
      </trkpt>
      <trkpt lat="41.54815" lon="44.9891">
        <ele>347.547044</ele>
        <time>2021-08-13T08:58:54.257Z</time>
      </trkpt>
      <trkpt lat="41.54845" lon="44.98825">
        <ele>350.234786</ele>
        <time>2021-08-13T08:59:34.175Z</time>
      </trkpt>
      <trkpt lat="41.54873" lon="44.98747">
        <ele>352.298746</ele>
        <time>2021-08-13T09:00:08.593Z</time>
      </trkpt>
      <trkpt lat="41.54902" lon="44.9867">
        <ele>354.271124</ele>
        <time>2021-08-13T09:00:39.801Z</time>
      </trkpt>
      <trkpt lat="41.5493" lon="44.98593">
        <ele>356.198897</ele>
        <time>2021-08-13T09:01:07.785Z</time>
      </trkpt>
      <trkpt lat="41.55013" lon="44.98371">
        <ele>360.017433</ele>
        <time>2021-08-13T09:02:24.855Z</time>
      </trkpt>
      <trkpt lat="41.55066" lon="44.98224">
        <ele>363.822411</ele>
        <time>2021-08-13T09:03:24.005Z</time>
      </trkpt>
      <trkpt lat="41.55075" lon="44.98199">
        <ele>364.452171</ele>
        <time>2021-08-13T09:03:34.833Z</time>
      </trkpt>
      <trkpt lat="41.55101" lon="44.98127">
        <ele>366.46696</ele>
        <time>2021-08-13T09:04:05.388Z</time>
      </trkpt>
      <trkpt lat="41.55124" lon="44.98066">
        <ele>368.304357</ele>
        <time>2021-08-13T09:04:33.366Z</time>
      </trkpt>
      <trkpt lat="41.5515" lon="44.97993">
        <ele>370.519392</ele>
        <time>2021-08-13T09:05:06.237Z</time>
      </trkpt>
      <trkpt lat="41.55195" lon="44.97867">
        <ele>373.136146</ele>
        <time>2021-08-13T09:05:54.403Z</time>
      </trkpt>
      <trkpt lat="41.55251" lon="44.97721">
        <ele>375.263576</ele>
        <time>2021-08-13T09:06:42.948Z</time>
      </trkpt>
      <trkpt lat="41.5526" lon="44.97698">
        <ele>375.287778</ele>
        <time>2021-08-13T09:06:49.445Z</time>
      </trkpt>
      <trkpt lat="41.55264" lon="44.97688">
        <ele>375.29916</ele>
        <time>2021-08-13T09:06:52.401Z</time>
      </trkpt>
      <trkpt lat="41.55281" lon="44.97636">
        <ele>375.352763</ele>
        <time>2021-08-13T09:07:05.862Z</time>
      </trkpt>
      <trkpt lat="41.55306" lon="44.97566">
        <ele>375.426757</ele>
        <time>2021-08-13T09:07:23.209Z</time>
      </trkpt>
      <trkpt lat="41.55348" lon="44.97456">
        <ele>375.711287</ele>
        <time>2021-08-13T09:07:50.183Z</time>
      </trkpt>
      <trkpt lat="41.55381" lon="44.97365">
        <ele>376.061002</ele>
        <time>2021-08-13T09:08:13.774Z</time>
      </trkpt>
      <trkpt lat="41.55439" lon="44.97208">
        <ele>378.111662</ele>
        <time>2021-08-13T09:09:07.459Z</time>
      </trkpt>
      <trkpt lat="41.55448" lon="44.9718">
        <ele>378.655174</ele>
        <time>2021-08-13T09:09:17.618Z</time>
      </trkpt>
      <trkpt lat="41.55453" lon="44.97167">
        <ele>378.892836</ele>
        <time>2021-08-13T09:09:23.164Z</time>
      </trkpt>
      <trkpt lat="41.55464" lon="44.97138">
        <ele>379.46657</ele>
        <time>2021-08-13T09:09:34.316Z</time>
      </trkpt>
      <trkpt lat="41.55471" lon="44.97123">
        <ele>379.774931</ele>
        <time>2021-08-13T09:09:41.020Z</time>
      </trkpt>
      <trkpt lat="41.55471" lon="44.97123">
        <ele>379.774931</ele>
        <time>2021-08-13T09:09:41.088Z</time>
      </trkpt>
      <trkpt lat="41.55471" lon="44.97117">
        <ele>379.886778</ele>
        <time>2021-08-13T09:09:43.956Z</time>
      </trkpt>
      <trkpt lat="41.55459" lon="44.97097">
        <ele>380.330311</ele>
        <time>2021-08-13T09:09:51.643Z</time>
      </trkpt>
      <trkpt lat="41.55454" lon="44.97095">
        <ele>380.447122</ele>
        <time>2021-08-13T09:09:54.803Z</time>
      </trkpt>
      <trkpt lat="41.55451" lon="44.97097">
        <ele>380.524262</ele>
        <time>2021-08-13T09:09:56.234Z</time>
      </trkpt>
      <trkpt lat="41.5541" lon="44.97129">
        <ele>381.700556</ele>
        <time>2021-08-13T09:10:19.197Z</time>
      </trkpt>
      <trkpt lat="41.5535" lon="44.97175">
        <ele>383.392532</ele>
        <time>2021-08-13T09:10:50.635Z</time>
      </trkpt>
      <trkpt lat="41.55243" lon="44.97257">
        <ele>386.660865</ele>
        <time>2021-08-13T09:11:41.889Z</time>
      </trkpt>
      <trkpt lat="41.5516" lon="44.97321">
        <ele>389.372428</ele>
        <time>2021-08-13T09:12:27.968Z</time>
      </trkpt>
      <trkpt lat="41.55073" lon="44.97387">
        <ele>393.15283</ele>
        <time>2021-08-13T09:13:22.021Z</time>
      </trkpt>
      <trkpt lat="41.54985" lon="44.97458">
        <ele>397.287733</ele>
        <time>2021-08-13T09:14:17.804Z</time>
      </trkpt>
      <trkpt lat="41.54958" lon="44.9748">
        <ele>398.640633</ele>
        <time>2021-08-13T09:14:35.790Z</time>
      </trkpt>
      <trkpt lat="41.54896" lon="44.97536">
        <ele>401.722247</ele>
        <time>2021-08-13T09:15:14.782Z</time>
      </trkpt>
      <trkpt lat="41.54839" lon="44.97594">
        <ele>404.750028</ele>
        <time>2021-08-13T09:15:56.415Z</time>
      </trkpt>
      <trkpt lat="41.54783" lon="44.97656">
        <ele>406.814393</ele>
        <time>2021-08-13T09:16:33.275Z</time>
      </trkpt>
      <trkpt lat="41.54779" lon="44.97661">
        <ele>406.96147</ele>
        <time>2021-08-13T09:16:37.427Z</time>
      </trkpt>
      <trkpt lat="41.54765" lon="44.97678">
        <ele>407.498227</ele>
        <time>2021-08-13T09:16:46.485Z</time>
      </trkpt>
      <trkpt lat="41.54652" lon="44.9781">
        <ele>410.62748</ele>
        <time>2021-08-13T09:17:47.094Z</time>
      </trkpt>
      <trkpt lat="41.5464" lon="44.97821">
        <ele>410.794046</ele>
        <time>2021-08-13T09:17:51.527Z</time>
      </trkpt>
      <trkpt lat="41.54627" lon="44.97828">
        <ele>410.950643</ele>
        <time>2021-08-13T09:17:55.984Z</time>
      </trkpt>
      <trkpt lat="41.54611" lon="44.97834">
        <ele>411.141271</ele>
        <time>2021-08-13T09:18:01.165Z</time>
      </trkpt>
      <trkpt lat="41.54593" lon="44.97836">
        <ele>411.350535</ele>
        <time>2021-08-13T09:18:07.482Z</time>
      </trkpt>
      <trkpt lat="41.54565" lon="44.97827">
        <ele>411.682349</ele>
        <time>2021-08-13T09:18:17.592Z</time>
      </trkpt>
      <trkpt lat="41.54524" lon="44.97793">
        <ele>412.973381</ele>
        <time>2021-08-13T09:18:35.859Z</time>
      </trkpt>
      <trkpt lat="41.54472" lon="44.97723">
        <ele>415.921288</ele>
        <time>2021-08-13T09:19:14.114Z</time>
      </trkpt>
      <trkpt lat="41.5443" lon="44.97652">
        <ele>418.640084</ele>
        <time>2021-08-13T09:19:55.254Z</time>
      </trkpt>
      <trkpt lat="41.54415" lon="44.97636">
        <ele>419.582802</ele>
        <time>2021-08-13T09:20:08.041Z</time>
      </trkpt>
      <trkpt lat="41.54391" lon="44.97615">
        <ele>421.423645</ele>
        <time>2021-08-13T09:20:26.888Z</time>
      </trkpt>
      <trkpt lat="41.54343" lon="44.97591">
        <ele>424.662174</ele>
        <time>2021-08-13T09:21:00.989Z</time>
      </trkpt>
      <trkpt lat="41.54285" lon="44.97581">
        <ele>428.413964</ele>
        <time>2021-08-13T09:21:42.399Z</time>
      </trkpt>
      <trkpt lat="41.54232" lon="44.97581">
        <ele>431.627406</ele>
        <time>2021-08-13T09:22:17.926Z</time>
      </trkpt>
      <trkpt lat="41.54205" lon="44.97587">
        <ele>433.094794</ele>
        <time>2021-08-13T09:22:34.861Z</time>
      </trkpt>
      <trkpt lat="41.54096" lon="44.97634">
        <ele>439.357398</ele>
        <time>2021-08-13T09:23:44.716Z</time>
      </trkpt>
      <trkpt lat="41.54065" lon="44.97654">
        <ele>441.09917</ele>
        <time>2021-08-13T09:24:04.896Z</time>
      </trkpt>
      <trkpt lat="41.5399" lon="44.97726">
        <ele>445.271949</ele>
        <time>2021-08-13T09:24:57.289Z</time>
      </trkpt>
      <trkpt lat="41.53958" lon="44.97744">
        <ele>446.784398</ele>
        <time>2021-08-13T09:25:15.824Z</time>
      </trkpt>
      <trkpt lat="41.53777" lon="44.9777">
        <ele>454.041803</ele>
        <time>2021-08-13T09:26:55.824Z</time>
      </trkpt>
      <trkpt lat="41.53675" lon="44.97801">
        <ele>455.778979</ele>
        <time>2021-08-13T09:27:44.056Z</time>
      </trkpt>
      <trkpt lat="41.53657" lon="44.97815">
        <ele>455.890512</ele>
        <time>2021-08-13T09:27:52.487Z</time>
      </trkpt>
      <trkpt lat="41.53638" lon="44.9783">
        <ele>456.008633</ele>
        <time>2021-08-13T09:27:59.803Z</time>
      </trkpt>
      <trkpt lat="41.5362" lon="44.97845">
        <ele>456.121103</ele>
        <time>2021-08-13T09:28:06.686Z</time>
      </trkpt>
      <trkpt lat="41.53204" lon="44.98358">
        <ele>441.755632</ele>
        <time>2021-08-13T09:30:18.062Z</time>
      </trkpt>
      <trkpt lat="41.53147" lon="44.98421">
        <ele>440.93452</ele>
        <time>2021-08-13T09:30:36.159Z</time>
      </trkpt>
      <trkpt lat="41.5277" lon="44.98724">
        <ele>439.974284</ele>
        <time>2021-08-13T09:32:48.331Z</time>
      </trkpt>
      <trkpt lat="41.52736" lon="44.98744">
        <ele>440.158219</ele>
        <time>2021-08-13T09:33:03.420Z</time>
      </trkpt>
      <trkpt lat="41.52656" lon="44.98772">
        <ele>442.87634</ele>
        <time>2021-08-13T09:33:41.477Z</time>
      </trkpt>
      <trkpt lat="41.52208" lon="44.98852">
        <ele>459.288656</ele>
        <time>2021-08-13T09:37:43.347Z</time>
      </trkpt>
      <trkpt lat="41.52193" lon="44.98852">
        <ele>459.785031</ele>
        <time>2021-08-13T09:37:49.957Z</time>
      </trkpt>
      <trkpt lat="41.52167" lon="44.98848">
        <ele>460.21407</ele>
        <time>2021-08-13T09:37:59.899Z</time>
      </trkpt>
      <trkpt lat="41.52145" lon="44.98839">
        <ele>460.59801</ele>
        <time>2021-08-13T09:38:09.221Z</time>
      </trkpt>
      <trkpt lat="41.52126" lon="44.98817">
        <ele>461.012967</ele>
        <time>2021-08-13T09:38:19.490Z</time>
      </trkpt>
      <trkpt lat="41.52124" lon="44.98785">
        <ele>461.409289</ele>
        <time>2021-08-13T09:38:28.342Z</time>
      </trkpt>
      <trkpt lat="41.52131" lon="44.98758">
        <ele>461.755968</ele>
        <time>2021-08-13T09:38:36.320Z</time>
      </trkpt>
      <trkpt lat="41.52182" lon="44.98682">
        <ele>463.303739</ele>
        <time>2021-08-13T09:39:04.287Z</time>
      </trkpt>
      <trkpt lat="41.52204" lon="44.98648">
        <ele>464.428084</ele>
        <time>2021-08-13T09:39:19.632Z</time>
      </trkpt>
      <trkpt lat="41.52218" lon="44.98618">
        <ele>465.330022</ele>
        <time>2021-08-13T09:39:32.747Z</time>
      </trkpt>
      <trkpt lat="41.5223" lon="44.98586">
        <ele>466.24211</ele>
        <time>2021-08-13T09:39:46.736Z</time>
      </trkpt>
      <trkpt lat="41.52253" lon="44.98529">
        <ele>467.87428</ele>
        <time>2021-08-13T09:40:12.988Z</time>
      </trkpt>
      <trkpt lat="41.5228" lon="44.98481">
        <ele>469.691915</ele>
        <time>2021-08-13T09:40:39.135Z</time>
      </trkpt>
      <trkpt lat="41.52353" lon="44.98353">
        <ele>475.766566</ele>
        <time>2021-08-13T09:41:52.844Z</time>
      </trkpt>
      <trkpt lat="41.52398" lon="44.98295">
        <ele>478.643694</ele>
        <time>2021-08-13T09:42:29.768Z</time>
      </trkpt>
      <trkpt lat="41.53265" lon="44.97672">
        <ele>517.741391</ele>
        <time>2021-08-13T09:51:06.833Z</time>
      </trkpt>
      <trkpt lat="41.53279" lon="44.97656">
        <ele>518.624667</ele>
        <time>2021-08-13T09:51:17.842Z</time>
      </trkpt>
      <trkpt lat="41.53295" lon="44.97634">
        <ele>519.74109</ele>
        <time>2021-08-13T09:51:33.227Z</time>
      </trkpt>
      <trkpt lat="41.53336" lon="44.97549">
        <ele>524.254107</ele>
        <time>2021-08-13T09:52:24.276Z</time>
      </trkpt>
      <trkpt lat="41.53419" lon="44.97313">
        <ele>536.592755</ele>
        <time>2021-08-13T09:54:42.697Z</time>
      </trkpt>
      <trkpt lat="41.53446" lon="44.97219">
        <ele>540.448814</ele>
        <time>2021-08-13T09:55:28.245Z</time>
      </trkpt>
      <trkpt lat="41.5349" lon="44.97012">
        <ele>545.146317</ele>
        <time>2021-08-13T09:56:42.588Z</time>
      </trkpt>
      <trkpt lat="41.53548" lon="44.96656">
        <ele>547.873488</ele>
        <time>2021-08-13T09:58:19.208Z</time>
      </trkpt>
      <trkpt lat="41.53552" lon="44.96624">
        <ele>547.910931</ele>
        <time>2021-08-13T09:58:27.637Z</time>
      </trkpt>
      <trkpt lat="41.53555" lon="44.966">
        <ele>547.938836</ele>
        <time>2021-08-13T09:58:32.991Z</time>
      </trkpt>
      <trkpt lat="41.53558" lon="44.96529">
        <ele>548.020371</ele>
        <time>2021-08-13T09:58:50.075Z</time>
      </trkpt>
      <trkpt lat="41.53546" lon="44.96374">
        <ele>548.219667</ele>
        <time>2021-08-13T09:59:24.999Z</time>
      </trkpt>
      <trkpt lat="41.53524" lon="44.96196">
        <ele>548.671535</ele>
        <time>2021-08-13T10:00:09.422Z</time>
      </trkpt>
      <trkpt lat="41.535" lon="44.95998">
        <ele>550.849416</ele>
        <time>2021-08-13T10:01:09.260Z</time>
      </trkpt>
      <trkpt lat="41.53456" lon="44.95642">
        <ele>556.949761</ele>
        <time>2021-08-13T10:03:08.491Z</time>
      </trkpt>
      <trkpt lat="41.53447" lon="44.95567">
        <ele>558.304271</ele>
        <time>2021-08-13T10:03:34.062Z</time>
      </trkpt>
      <trkpt lat="41.53435" lon="44.95467">
        <ele>560.038831</ele>
        <time>2021-08-13T10:04:08.100Z</time>
      </trkpt>
      <trkpt lat="41.53372" lon="44.94945">
        <ele>567.705579</ele>
        <time>2021-08-13T10:06:56.955Z</time>
      </trkpt>
      <trkpt lat="41.53322" lon="44.94547">
        <ele>570.194806</ele>
        <time>2021-08-13T10:08:45.578Z</time>
      </trkpt>
      <trkpt lat="41.53308" lon="44.94478">
        <ele>569.295074</ele>
        <time>2021-08-13T10:08:59.877Z</time>
      </trkpt>
      <trkpt lat="41.53288" lon="44.94426">
        <ele>568.576434</ele>
        <time>2021-08-13T10:09:10.828Z</time>
      </trkpt>
      <trkpt lat="41.53283" lon="44.94412">
        <ele>568.384348</ele>
        <time>2021-08-13T10:09:13.839Z</time>
      </trkpt>
      <trkpt lat="41.53273" lon="44.94388">
        <ele>568.033552</ele>
        <time>2021-08-13T10:09:18.776Z</time>
      </trkpt>
      <trkpt lat="41.53258" lon="44.9436">
        <ele>567.611788</ele>
        <time>2021-08-13T10:09:24.842Z</time>
      </trkpt>
      <trkpt lat="41.53171" lon="44.94235">
        <ele>563.374764</ele>
        <time>2021-08-13T10:09:53.608Z</time>
      </trkpt>
      <trkpt lat="41.52913" lon="44.93903">
        <ele>549.488376</ele>
        <time>2021-08-13T10:11:12.756Z</time>
      </trkpt>
      <trkpt lat="41.52867" lon="44.93869">
        <ele>547.358859</ele>
        <time>2021-08-13T10:11:24.059Z</time>
      </trkpt>
      <trkpt lat="41.52671" lon="44.93767">
        <ele>537.783652</ele>
        <time>2021-08-13T10:12:09.249Z</time>
      </trkpt>
      <trkpt lat="41.5246" lon="44.93637">
        <ele>525.779606</ele>
        <time>2021-08-13T10:12:58.502Z</time>
      </trkpt>
      <trkpt lat="41.52434" lon="44.93634">
        <ele>524.286478</ele>
        <time>2021-08-13T10:13:03.838Z</time>
      </trkpt>
      <trkpt lat="41.52413" lon="44.93637">
        <ele>523.097458</ele>
        <time>2021-08-13T10:13:08.083Z</time>
      </trkpt>
      <trkpt lat="41.52383" lon="44.9365">
        <ele>521.288996</ele>
        <time>2021-08-13T10:13:14.499Z</time>
      </trkpt>
      <trkpt lat="41.52324" lon="44.9369">
        <ele>517.297747</ele>
        <time>2021-08-13T10:13:27.930Z</time>
      </trkpt>
      <trkpt lat="41.52173" lon="44.93805">
        <ele>506.6899</ele>
        <time>2021-08-13T10:14:03.164Z</time>
      </trkpt>
      <trkpt lat="41.521" lon="44.9389">
        <ele>502.392043</ele>
        <time>2021-08-13T10:14:23.801Z</time>
      </trkpt>
      <trkpt lat="41.52077" lon="44.9392">
        <ele>500.956386</ele>
        <time>2021-08-13T10:14:31.070Z</time>
      </trkpt>
      <trkpt lat="41.52041" lon="44.93964">
        <ele>499.394436</ele>
        <time>2021-08-13T10:14:42.540Z</time>
      </trkpt>
      <trkpt lat="41.51937" lon="44.94095">
        <ele>496.943735</ele>
        <time>2021-08-13T10:15:19.697Z</time>
      </trkpt>
      <trkpt lat="41.51899" lon="44.94134">
        <ele>495.988478</ele>
        <time>2021-08-13T10:15:32.410Z</time>
      </trkpt>
      <trkpt lat="41.51401" lon="44.94603">
        <ele>483.008632</ele>
        <time>2021-08-13T10:18:00.097Z</time>
      </trkpt>
      <trkpt lat="41.51341" lon="44.94648">
        <ele>481.610918</ele>
        <time>2021-08-13T10:18:17.255Z</time>
      </trkpt>
      <trkpt lat="41.51091" lon="44.94806">
        <ele>477.014327</ele>
        <time>2021-08-13T10:19:28.181Z</time>
      </trkpt>
      <trkpt lat="41.50771" lon="44.95093">
        <ele>469.945545</ele>
        <time>2021-08-13T10:21:03.409Z</time>
      </trkpt>
      <trkpt lat="41.50647" lon="44.95246">
        <ele>467.081397</ele>
        <time>2021-08-13T10:21:46.233Z</time>
      </trkpt>
      <trkpt lat="41.50599" lon="44.95296">
        <ele>466.089414</ele>
        <time>2021-08-13T10:22:01.744Z</time>
      </trkpt>
      <trkpt lat="41.50453" lon="44.9539">
        <ele>463.445899</ele>
        <time>2021-08-13T10:22:42.811Z</time>
      </trkpt>
      <trkpt lat="41.50229" lon="44.95511">
        <ele>459.384617</ele>
        <time>2021-08-13T10:23:44.442Z</time>
      </trkpt>
      <trkpt lat="41.50171" lon="44.95561">
        <ele>457.732263</ele>
        <time>2021-08-13T10:24:01.278Z</time>
      </trkpt>
      <trkpt lat="41.49987" lon="44.95746">
        <ele>451.817715</ele>
        <time>2021-08-13T10:24:54.980Z</time>
      </trkpt>
      <trkpt lat="41.49808" lon="44.96002">
        <ele>445.942193</ele>
        <time>2021-08-13T10:25:58.504Z</time>
      </trkpt>
      <trkpt lat="41.49762" lon="44.9605">
        <ele>444.707369</ele>
        <time>2021-08-13T10:26:13.026Z</time>
      </trkpt>
      <trkpt lat="41.49377" lon="44.96317">
        <ele>435.654521</ele>
        <time>2021-08-13T10:27:59.092Z</time>
      </trkpt>
      <trkpt lat="41.4933" lon="44.96363">
        <ele>434.59612</ele>
        <time>2021-08-13T10:28:13.530Z</time>
      </trkpt>
      <trkpt lat="41.49235" lon="44.96487">
        <ele>432.141357</ele>
        <time>2021-08-13T10:28:46.955Z</time>
      </trkpt>
      <trkpt lat="41.49187" lon="44.96539">
        <ele>430.858703</ele>
        <time>2021-08-13T10:29:02.481Z</time>
      </trkpt>
      <trkpt lat="41.48619" lon="44.96941">
        <ele>417.350315</ele>
        <time>2021-08-13T10:31:39.244Z</time>
      </trkpt>
      <trkpt lat="41.48569" lon="44.96985">
        <ele>415.914241</ele>
        <time>2021-08-13T10:31:53.661Z</time>
      </trkpt>
      <trkpt lat="41.48414" lon="44.97152">
        <ele>410.716465</ele>
        <time>2021-08-13T10:32:41.068Z</time>
      </trkpt>
      <trkpt lat="41.48341" lon="44.97218">
        <ele>408.107373</ele>
        <time>2021-08-13T10:33:01.299Z</time>
      </trkpt>
      <trkpt lat="41.48242" lon="44.97276">
        <ele>404.375648</ele>
        <time>2021-08-13T10:33:25.105Z</time>
      </trkpt>
      <trkpt lat="41.48169" lon="44.97298">
        <ele>401.707424</ele>
        <time>2021-08-13T10:33:41.805Z</time>
      </trkpt>
      <trkpt lat="41.48129" lon="44.97303">
        <ele>400.680527</ele>
        <time>2021-08-13T10:33:50.993Z</time>
      </trkpt>
      <trkpt lat="41.47954" lon="44.97305">
        <ele>397.473355</ele>
        <time>2021-08-13T10:34:34.085Z</time>
      </trkpt>
      <trkpt lat="41.47942" lon="44.97291">
        <ele>397.507435</ele>
        <time>2021-08-13T10:34:39.253Z</time>
      </trkpt>
      <trkpt lat="41.47927" lon="44.97286">
        <ele>397.541428</ele>
        <time>2021-08-13T10:34:44.016Z</time>
      </trkpt>
      <trkpt lat="41.47883" lon="44.97299">
        <ele>397.638693</ele>
        <time>2021-08-13T10:35:00.633Z</time>
      </trkpt>
      <trkpt lat="41.47874" lon="44.97311">
        <ele>397.664889</ele>
        <time>2021-08-13T10:35:05.353Z</time>
      </trkpt>
      <trkpt lat="41.4786" lon="44.97317">
        <ele>397.696686</ele>
        <time>2021-08-13T10:35:10.401Z</time>
      </trkpt>
      <trkpt lat="41.47826" lon="44.97332">
        <ele>397.773289</ele>
        <time>2021-08-13T10:35:23.674Z</time>
      </trkpt>
      <trkpt lat="41.47792" lon="44.9723">
        <ele>398.451707</ele>
        <time>2021-08-13T10:35:56.481Z</time>
      </trkpt>
      <trkpt lat="41.47742" lon="44.97082">
        <ele>399.537209</ele>
        <time>2021-08-13T10:36:42.279Z</time>
      </trkpt>
      <trkpt lat="41.4773" lon="44.97043">
        <ele>399.666548</ele>
        <time>2021-08-13T10:36:53.236Z</time>
      </trkpt>
      <trkpt lat="41.47673" lon="44.96867">
        <ele>400.263261</ele>
        <time>2021-08-13T10:37:41.388Z</time>
      </trkpt>
      <trkpt lat="41.47627" lon="44.96663">
        <ele>401.53217</ele>
        <time>2021-08-13T10:38:41.050Z</time>
      </trkpt>
      <trkpt lat="41.47612" lon="44.96586">
        <ele>401.928798</ele>
        <time>2021-08-13T10:39:03.529Z</time>
      </trkpt>
      <trkpt lat="41.47586" lon="44.96442">
        <ele>402.631116</ele>
        <time>2021-08-13T10:39:44.009Z</time>
      </trkpt>
      <trkpt lat="41.47547" lon="44.96197">
        <ele>403.091033</ele>
        <time>2021-08-13T10:40:46.362Z</time>
      </trkpt>
      <trkpt lat="41.47526" lon="44.96094">
        <ele>403.341349</ele>
        <time>2021-08-13T10:41:12.976Z</time>
      </trkpt>
      <trkpt lat="41.47493" lon="44.95988">
        <ele>403.639467</ele>
        <time>2021-08-13T10:41:43.148Z</time>
      </trkpt>
      <trkpt lat="41.47445" lon="44.95832">
        <ele>403.894441</ele>
        <time>2021-08-13T10:42:27.722Z</time>
      </trkpt>
      <trkpt lat="41.47398" lon="44.9568">
        <ele>403.806551</ele>
        <time>2021-08-13T10:43:06.860Z</time>
      </trkpt>
      <trkpt lat="41.47343" lon="44.95469">
        <ele>402.921178</ele>
        <time>2021-08-13T10:43:55.745Z</time>
      </trkpt>
      <trkpt lat="41.46905" lon="44.93616">
        <ele>397.547379</ele>
        <time>2021-08-13T10:51:20.825Z</time>
      </trkpt>
      <trkpt lat="41.46901" lon="44.93533">
        <ele>397.872258</ele>
        <time>2021-08-13T10:51:42.383Z</time>
      </trkpt>
      <trkpt lat="41.46989" lon="44.92977">
        <ele>402.85801</ele>
        <time>2021-08-13T10:54:31.435Z</time>
      </trkpt>
      <trkpt lat="41.47069" lon="44.92417">
        <ele>409.392853</ele>
        <time>2021-08-13T10:57:26.671Z</time>
      </trkpt>
      <trkpt lat="41.47156" lon="44.91887">
        <ele>416.069171</ele>
        <time>2021-08-13T11:00:17.851Z</time>
      </trkpt>
      <trkpt lat="41.47292" lon="44.9153">
        <ele>420.174948</ele>
        <time>2021-08-13T11:02:18.912Z</time>
      </trkpt>
      <trkpt lat="41.47351" lon="44.91401">
        <ele>421.270608</ele>
        <time>2021-08-13T11:03:01.480Z</time>
      </trkpt>
      <trkpt lat="41.47368" lon="44.91339">
        <ele>421.465475</ele>
        <time>2021-08-13T11:03:19.079Z</time>
      </trkpt>
      <trkpt lat="41.47382" lon="44.91171">
        <ele>421.484512</ele>
        <time>2021-08-13T11:04:00.134Z</time>
      </trkpt>
      <trkpt lat="41.47396" lon="44.90903">
        <ele>420.544652</ele>
        <time>2021-08-13T11:04:59.886Z</time>
      </trkpt>
      <trkpt lat="41.47385" lon="44.90817">
        <ele>420.650597</ele>
        <time>2021-08-13T11:05:19.825Z</time>
      </trkpt>
      <trkpt lat="41.47369" lon="44.90043">
        <ele>421.678228</ele>
        <time>2021-08-13T11:08:37.420Z</time>
      </trkpt>
      <trkpt lat="41.47373" lon="44.89819">
        <ele>421.8732</ele>
        <time>2021-08-13T11:09:31.650Z</time>
      </trkpt>
      <trkpt lat="41.4737" lon="44.89576">
        <ele>422.157588</ele>
        <time>2021-08-13T11:10:32.960Z</time>
      </trkpt>
      <trkpt lat="41.4737" lon="44.89509">
        <ele>422.271123</ele>
        <time>2021-08-13T11:10:50.367Z</time>
      </trkpt>
      <trkpt lat="41.47379" lon="44.89384">
        <ele>422.346785</ele>
        <time>2021-08-13T11:11:22.025Z</time>
      </trkpt>
      <trkpt lat="41.47402" lon="44.89083">
        <ele>422.271706</ele>
        <time>2021-08-13T11:12:33.767Z</time>
      </trkpt>
      <trkpt lat="41.47408" lon="44.8905">
        <ele>422.255129</ele>
        <time>2021-08-13T11:12:42.052Z</time>
      </trkpt>
      <trkpt lat="41.47448" lon="44.88789">
        <ele>422.429778</ele>
        <time>2021-08-13T11:13:49.085Z</time>
      </trkpt>
      <trkpt lat="41.47535" lon="44.88272">
        <ele>422.556317</ele>
        <time>2021-08-13T11:17:14.899Z</time>
      </trkpt>
      <trkpt lat="41.47602" lon="44.87942">
        <ele>423.765084</ele>
        <time>2021-08-13T11:19:36.360Z</time>
      </trkpt>
      <trkpt lat="41.47649" lon="44.87809">
        <ele>424.220756</ele>
        <time>2021-08-13T11:20:35.669Z</time>
      </trkpt>
      <trkpt lat="41.47832" lon="44.87286">
        <ele>426.577265</ele>
        <time>2021-08-13T11:24:28.467Z</time>
      </trkpt>
      <trkpt lat="41.48097" lon="44.86573">
        <ele>434.766803</ele>
        <time>2021-08-13T11:30:30.314Z</time>
      </trkpt>
      <trkpt lat="41.48126" lon="44.86431">
        <ele>435.715611</ele>
        <time>2021-08-13T11:31:13.328Z</time>
      </trkpt>
      <trkpt lat="41.48193" lon="44.86108">
        <ele>436.013172</ele>
        <time>2021-08-13T11:32:36.698Z</time>
      </trkpt>
      <trkpt lat="41.48197" lon="44.86067">
        <ele>435.946712</ele>
        <time>2021-08-13T11:32:45.460Z</time>
      </trkpt>
      <trkpt lat="41.48184" lon="44.8603">
        <ele>435.489887</ele>
        <time>2021-08-13T11:32:54.055Z</time>
      </trkpt>
      <trkpt lat="41.48133" lon="44.85838">
        <ele>433.035839</ele>
        <time>2021-08-13T11:33:34.092Z</time>
      </trkpt>
      <trkpt lat="41.48128" lon="44.85801">
        <ele>432.638667</ele>
        <time>2021-08-13T11:33:41.474Z</time>
      </trkpt>
      <trkpt lat="41.48133" lon="44.85753">
        <ele>432.131801</ele>
        <time>2021-08-13T11:33:50.986Z</time>
      </trkpt>
      <trkpt lat="41.48216" lon="44.85394">
        <ele>428.694643</ele>
        <time>2021-08-13T11:35:09.173Z</time>
      </trkpt>
      <trkpt lat="41.48323" lon="44.85014">
        <ele>427.329403</ele>
        <time>2021-08-13T11:36:40.731Z</time>
      </trkpt>
      <trkpt lat="41.48504" lon="44.84636">
        <ele>428.058596</ele>
        <time>2021-08-13T11:38:35.183Z</time>
      </trkpt>
      <trkpt lat="41.48856" lon="44.83919">
        <ele>430.802763</ele>
        <time>2021-08-13T11:42:21.307Z</time>
      </trkpt>
      <trkpt lat="41.48997" lon="44.83624">
        <ele>430.339832</ele>
        <time>2021-08-13T11:43:42.634Z</time>
      </trkpt>
      <trkpt lat="41.49057" lon="44.83418">
        <ele>430.45212</ele>
        <time>2021-08-13T11:44:35.057Z</time>
      </trkpt>
      <trkpt lat="41.49348" lon="44.82261">
        <ele>433.584583</ele>
        <time>2021-08-13T11:49:54.641Z</time>
      </trkpt>
      <trkpt lat="41.49354" lon="44.82212">
        <ele>433.543863</ele>
        <time>2021-08-13T11:50:06.224Z</time>
      </trkpt>
      <trkpt lat="41.49351" lon="44.8218">
        <ele>433.517479</ele>
        <time>2021-08-13T11:50:13.430Z</time>
      </trkpt>
      <trkpt lat="41.4934" lon="44.82115">
        <ele>433.099474</ele>
        <time>2021-08-13T11:50:27.773Z</time>
      </trkpt>
      <trkpt lat="41.49332" lon="44.82078">
        <ele>432.637121</ele>
        <time>2021-08-13T11:50:35.673Z</time>
      </trkpt>
      <trkpt lat="41.49314" lon="44.8198">
        <ele>431.419151</ele>
        <time>2021-08-13T11:50:55.847Z</time>
      </trkpt>
      <trkpt lat="41.49259" lon="44.81806">
        <ele>428.8654</ele>
        <time>2021-08-13T11:51:31.988Z</time>
      </trkpt>
      <trkpt lat="41.49251" lon="44.81783">
        <ele>428.500952</ele>
        <time>2021-08-13T11:51:36.660Z</time>
      </trkpt>
      <trkpt lat="41.49199" lon="44.81639">
        <ele>426.515004</ele>
        <time>2021-08-13T11:52:06.924Z</time>
      </trkpt>
      <trkpt lat="41.49165" lon="44.8151">
        <ele>425.204701</ele>
        <time>2021-08-13T11:52:33.834Z</time>
      </trkpt>
      <trkpt lat="41.49141" lon="44.81372">
        <ele>424.361796</ele>
        <time>2021-08-13T11:53:03.528Z</time>
      </trkpt>
      <trkpt lat="41.4913" lon="44.8131">
        <ele>424.067415</ele>
        <time>2021-08-13T11:53:17.661Z</time>
      </trkpt>
      <trkpt lat="41.49127" lon="44.81239">
        <ele>423.738201</ele>
        <time>2021-08-13T11:53:33.189Z</time>
      </trkpt>
      <trkpt lat="41.49126" lon="44.81219">
        <ele>423.618341</ele>
        <time>2021-08-13T11:53:37.385Z</time>
      </trkpt>
      <trkpt lat="41.49123" lon="44.81175">
        <ele>423.346174</ele>
        <time>2021-08-13T11:53:46.699Z</time>
      </trkpt>
      <trkpt lat="41.4912" lon="44.81123">
        <ele>423.021195</ele>
        <time>2021-08-13T11:53:57.842Z</time>
      </trkpt>
      <trkpt lat="41.49116" lon="44.81097">
        <ele>422.857469</ele>
        <time>2021-08-13T11:54:03.367Z</time>
      </trkpt>
      <trkpt lat="41.49106" lon="44.81067">
        <ele>422.660401</ele>
        <time>2021-08-13T11:54:10.058Z</time>
      </trkpt>
      <trkpt lat="41.49104" lon="44.8106">
        <ele>422.612146</ele>
        <time>2021-08-13T11:54:11.681Z</time>
      </trkpt>
      <trkpt lat="41.49096" lon="44.81042">
        <ele>422.482692</ele>
        <time>2021-08-13T11:54:15.841Z</time>
      </trkpt>
      <trkpt lat="41.49064" lon="44.80995">
        <ele>421.984702</ele>
        <time>2021-08-13T11:54:28.576Z</time>
      </trkpt>
      <trkpt lat="41.4902" lon="44.80954">
        <ele>421.256543</ele>
        <time>2021-08-13T11:54:42.207Z</time>
      </trkpt>
      <trkpt lat="41.48884" lon="44.80873">
        <ele>419.185634</ele>
        <time>2021-08-13T11:55:20.836Z</time>
      </trkpt>
      <trkpt lat="41.48785" lon="44.808">
        <ele>417.562468</ele>
        <time>2021-08-13T11:55:49.997Z</time>
      </trkpt>
      <trkpt lat="41.48757" lon="44.80778">
        <ele>417.090678</ele>
        <time>2021-08-13T11:55:58.372Z</time>
      </trkpt>
      <trkpt lat="41.48721" lon="44.80754">
        <ele>416.48874</ele>
        <time>2021-08-13T11:56:08.697Z</time>
      </trkpt>
      <trkpt lat="41.48656" lon="44.80709">
        <ele>415.393085</ele>
        <time>2021-08-13T11:56:27.361Z</time>
      </trkpt>
      <trkpt lat="41.4865" lon="44.80705">
        <ele>415.292739</ele>
        <time>2021-08-13T11:56:29.074Z</time>
      </trkpt>
      <trkpt lat="41.48646" lon="44.80699">
        <ele>415.202713</ele>
        <time>2021-08-13T11:56:30.602Z</time>
      </trkpt>
      <trkpt lat="41.48562" lon="44.80581">
        <ele>413.956376</ele>
        <time>2021-08-13T11:57:02.394Z</time>
      </trkpt>
      <trkpt lat="41.48543" lon="44.80562">
        <ele>413.781797</ele>
        <time>2021-08-13T11:57:09.160Z</time>
      </trkpt>
      <trkpt lat="41.48518" lon="44.80548">
        <ele>413.581497</ele>
        <time>2021-08-13T11:57:16.924Z</time>
      </trkpt>
      <trkpt lat="41.48513" lon="44.80543">
        <ele>413.534082</ele>
        <time>2021-08-13T11:57:18.808Z</time>
      </trkpt>
      <trkpt lat="41.48479" lon="44.80528">
        <ele>413.269228</ele>
        <time>2021-08-13T11:57:29.485Z</time>
      </trkpt>
      <trkpt lat="41.48473" lon="44.80524">
        <ele>413.224364</ele>
        <time>2021-08-13T11:57:31.295Z</time>
      </trkpt>
      <trkpt lat="41.48466" lon="44.80519">
        <ele>413.205773</ele>
        <time>2021-08-13T11:57:33.763Z</time>
      </trkpt>
      <trkpt lat="41.48465" lon="44.80504">
        <ele>413.245342</ele>
        <time>2021-08-13T11:57:37.687Z</time>
      </trkpt>
      <trkpt lat="41.48461" lon="44.80487">
        <ele>413.289992</ele>
        <time>2021-08-13T11:57:41.796Z</time>
      </trkpt>
      <trkpt lat="41.48441" lon="44.80469">
        <ele>413.374087</ele>
        <time>2021-08-13T11:57:49.811Z</time>
      </trkpt>
      <trkpt lat="41.4835" lon="44.80428">
        <ele>413.707914</ele>
        <time>2021-08-13T11:58:22.597Z</time>
      </trkpt>
      <trkpt lat="41.48309" lon="44.80408">
        <ele>413.802455</ele>
        <time>2021-08-13T11:58:37.695Z</time>
      </trkpt>
      <trkpt lat="41.48307" lon="44.80407">
        <ele>413.79994</ele>
        <time>2021-08-13T11:58:38.441Z</time>
      </trkpt>
      <trkpt lat="41.48225" lon="44.80372">
        <ele>413.712697</ele>
        <time>2021-08-13T11:59:05.190Z</time>
      </trkpt>
      <trkpt lat="41.48191" lon="44.80361">
        <ele>413.676762</ele>
        <time>2021-08-13T11:59:15.642Z</time>
      </trkpt>
      <trkpt lat="41.48145" lon="44.80349">
        <ele>413.611373</ele>
        <time>2021-08-13T11:59:29.073Z</time>
      </trkpt>
      <trkpt lat="41.48145" lon="44.80349">
        <ele>413.611373</ele>
        <time>2021-08-13T11:59:29.083Z</time>
      </trkpt>
      <trkpt lat="41.48114" lon="44.80341">
        <ele>413.366387</ele>
        <time>2021-08-13T11:59:38.099Z</time>
      </trkpt>
      <trkpt lat="41.48019" lon="44.80339">
        <ele>412.623002</ele>
        <time>2021-08-13T12:00:04.539Z</time>
      </trkpt>
      <trkpt lat="41.47891" lon="44.80367">
        <ele>411.489438</ele>
        <time>2021-08-13T12:00:39.997Z</time>
      </trkpt>
      <trkpt lat="41.47809" lon="44.80398">
        <ele>410.699231</ele>
        <time>2021-08-13T12:01:02.913Z</time>
      </trkpt>
      <trkpt lat="41.47746" lon="44.80421">
        <ele>410.046408</ele>
        <time>2021-08-13T12:01:20.544Z</time>
      </trkpt>
      <trkpt lat="41.47674" lon="44.80448">
        <ele>409.28606</ele>
        <time>2021-08-13T12:01:40.580Z</time>
      </trkpt>
      <trkpt lat="41.47664" lon="44.80452">
        <ele>409.1812</ele>
        <time>2021-08-13T12:01:43.216Z</time>
      </trkpt>
      <trkpt lat="41.47652" lon="44.80456">
        <ele>409.053422</ele>
        <time>2021-08-13T12:01:46.609Z</time>
      </trkpt>
      <trkpt lat="41.47579" lon="44.80482">
        <ele>408.266163</ele>
        <time>2021-08-13T12:02:07.307Z</time>
      </trkpt>
      <trkpt lat="41.47508" lon="44.80508">
        <ele>407.490875</ele>
        <time>2021-08-13T12:02:27.275Z</time>
      </trkpt>
      <trkpt lat="41.47435" lon="44.80536">
        <ele>406.656491</ele>
        <time>2021-08-13T12:02:47.535Z</time>
      </trkpt>
      <trkpt lat="41.47341" lon="44.80572">
        <ele>405.41214</ele>
        <time>2021-08-13T12:03:12.895Z</time>
      </trkpt>
      <trkpt lat="41.47274" lon="44.80598">
        <ele>404.522735</ele>
        <time>2021-08-13T12:03:30.818Z</time>
      </trkpt>
      <trkpt lat="41.47145" lon="44.80649">
        <ele>403.388351</ele>
        <time>2021-08-13T12:04:07.814Z</time>
      </trkpt>
      <trkpt lat="41.47063" lon="44.80681">
        <ele>402.720559</ele>
        <time>2021-08-13T12:04:32.187Z</time>
      </trkpt>
      <trkpt lat="41.47037" lon="44.8069">
        <ele>402.518958</ele>
        <time>2021-08-13T12:04:40.084Z</time>
      </trkpt>
      <trkpt lat="41.47016" lon="44.80698">
        <ele>402.359509</ele>
        <time>2021-08-13T12:04:46.250Z</time>
      </trkpt>
      <trkpt lat="41.46935" lon="44.80725">
        <ele>401.75296</ele>
        <time>2021-08-13T12:05:09.272Z</time>
      </trkpt>
      <trkpt lat="41.46874" lon="44.80749">
        <ele>400.996302</ele>
        <time>2021-08-13T12:05:26.050Z</time>
      </trkpt>
      <trkpt lat="41.46818" lon="44.80769">
        <ele>400.275825</ele>
        <time>2021-08-13T12:05:41.032Z</time>
      </trkpt>
      <trkpt lat="41.46639" lon="44.80834">
        <ele>398.192259</ele>
        <time>2021-08-13T12:06:30.046Z</time>
      </trkpt>
      <trkpt lat="41.46632" lon="44.80838">
        <ele>398.108733</ele>
        <time>2021-08-13T12:06:32.098Z</time>
      </trkpt>
      <trkpt lat="41.46554" lon="44.80868">
        <ele>397.327328</ele>
        <time>2021-08-13T12:06:54.359Z</time>
      </trkpt>
      <trkpt lat="41.46542" lon="44.80873">
        <ele>397.230475</ele>
        <time>2021-08-13T12:06:57.806Z</time>
      </trkpt>
      <trkpt lat="41.46528" lon="44.80877">
        <ele>397.122492</ele>
        <time>2021-08-13T12:07:01.557Z</time>
      </trkpt>
      <trkpt lat="41.46424" lon="44.80914">
        <ele>396.281571</ele>
        <time>2021-08-13T12:07:31.659Z</time>
      </trkpt>
      <trkpt lat="41.46325" lon="44.80953">
        <ele>395.502905</ele>
        <time>2021-08-13T12:08:00.453Z</time>
      </trkpt>
      <trkpt lat="41.46277" lon="44.80972">
        <ele>395.12249</ele>
        <time>2021-08-13T12:08:14.534Z</time>
      </trkpt>
      <trkpt lat="41.46088" lon="44.81049">
        <ele>393.750077</ele>
        <time>2021-08-13T12:09:09.574Z</time>
      </trkpt>
      <trkpt lat="41.46079" lon="44.81053">
        <ele>393.6837</ele>
        <time>2021-08-13T12:09:12.353Z</time>
      </trkpt>
      <trkpt lat="41.4605" lon="44.81066">
        <ele>393.474406</ele>
        <time>2021-08-13T12:09:21.144Z</time>
      </trkpt>
      <trkpt lat="41.46036" lon="44.81072">
        <ele>393.379153</ele>
        <time>2021-08-13T12:09:25.287Z</time>
      </trkpt>
      <trkpt lat="41.45964" lon="44.81099">
        <ele>392.876283</ele>
        <time>2021-08-13T12:09:47.570Z</time>
      </trkpt>
      <trkpt lat="41.45944" lon="44.81109">
        <ele>392.734321</ele>
        <time>2021-08-13T12:09:53.801Z</time>
      </trkpt>
      <trkpt lat="41.45936" lon="44.81113">
        <ele>392.676066</ele>
        <time>2021-08-13T12:09:56.264Z</time>
      </trkpt>
      <trkpt lat="41.45829" lon="44.81157">
        <ele>391.908941</ele>
        <time>2021-08-13T12:10:28.578Z</time>
      </trkpt>
      <trkpt lat="41.45796" lon="44.81173">
        <ele>391.654556</ele>
        <time>2021-08-13T12:10:39.052Z</time>
      </trkpt>
      <trkpt lat="41.45555" lon="44.81273">
        <ele>390.000119</ele>
        <time>2021-08-13T12:11:53.135Z</time>
      </trkpt>
      <trkpt lat="41.45358" lon="44.81346">
        <ele>388.68688</ele>
        <time>2021-08-13T12:12:53.675Z</time>
      </trkpt>
      <trkpt lat="41.45231" lon="44.81395">
        <ele>387.799664</ele>
        <time>2021-08-13T12:13:32.288Z</time>
      </trkpt>
      <trkpt lat="41.45173" lon="44.81416">
        <ele>387.384206</ele>
        <time>2021-08-13T12:13:49.687Z</time>
      </trkpt>
      <trkpt lat="41.45045" lon="44.81465">
        <ele>386.412744</ele>
        <time>2021-08-13T12:14:28.875Z</time>
      </trkpt>
      <trkpt lat="41.44995" lon="44.81486">
        <ele>385.923432</ele>
        <time>2021-08-13T12:14:43.911Z</time>
      </trkpt>
      <trkpt lat="41.44896" lon="44.81527">
        <ele>384.862097</ele>
        <time>2021-08-13T12:15:12.866Z</time>
      </trkpt>
      <trkpt lat="41.44749" lon="44.81583">
        <ele>383.397078</ele>
        <time>2021-08-13T12:15:55.513Z</time>
      </trkpt>
      <trkpt lat="41.44528" lon="44.81676">
        <ele>381.710217</ele>
        <time>2021-08-13T12:17:03.705Z</time>
      </trkpt>
      <trkpt lat="41.44438" lon="44.81724">
        <ele>381.020997</ele>
        <time>2021-08-13T12:17:32.609Z</time>
      </trkpt>
      <trkpt lat="41.44337" lon="44.81775">
        <ele>380.263796</ele>
        <time>2021-08-13T12:18:03.769Z</time>
      </trkpt>
      <trkpt lat="41.44228" lon="44.8182">
        <ele>379.572144</ele>
        <time>2021-08-13T12:18:37.411Z</time>
      </trkpt>
      <trkpt lat="41.44204" lon="44.8183">
        <ele>379.421169</ele>
        <time>2021-08-13T12:18:44.929Z</time>
      </trkpt>
      <trkpt lat="41.44061" lon="44.81906">
        <ele>378.516771</ele>
        <time>2021-08-13T12:19:31.088Z</time>
      </trkpt>
      <trkpt lat="41.44053" lon="44.81911">
        <ele>378.46456</ele>
        <time>2021-08-13T12:19:33.782Z</time>
      </trkpt>
      <trkpt lat="41.44001" lon="44.81897">
        <ele>378.137616</ele>
        <time>2021-08-13T12:19:49.202Z</time>
      </trkpt>
      <trkpt lat="41.43945" lon="44.81893">
        <ele>377.600239</ele>
        <time>2021-08-13T12:20:05.375Z</time>
      </trkpt>
      <trkpt lat="41.43872" lon="44.81925">
        <ele>376.863558</ele>
        <time>2021-08-13T12:20:26.921Z</time>
      </trkpt>
      <trkpt lat="41.43669" lon="44.81996">
        <ele>374.758613</ele>
        <time>2021-08-13T12:21:25.903Z</time>
      </trkpt>
      <trkpt lat="41.43527" lon="44.8204">
        <ele>373.662412</ele>
        <time>2021-08-13T12:22:07.968Z</time>
      </trkpt>
      <trkpt lat="41.43483" lon="44.82055">
        <ele>373.331639</ele>
        <time>2021-08-13T12:22:21.522Z</time>
      </trkpt>
      <trkpt lat="41.4336" lon="44.8209">
        <ele>372.756618</ele>
        <time>2021-08-13T12:22:59.719Z</time>
      </trkpt>
      <trkpt lat="41.43333" lon="44.82113">
        <ele>372.609906</ele>
        <time>2021-08-13T12:23:09.562Z</time>
      </trkpt>
      <trkpt lat="41.43118" lon="44.82193">
        <ele>371.087188</ele>
        <time>2021-08-13T12:24:15.429Z</time>
      </trkpt>
      <trkpt lat="41.43021" lon="44.82223">
        <ele>370.109364</ele>
        <time>2021-08-13T12:24:43.314Z</time>
      </trkpt>
      <trkpt lat="41.42893" lon="44.82264">
        <ele>368.735937</ele>
        <time>2021-08-13T12:25:20.044Z</time>
      </trkpt>
      <trkpt lat="41.42776" lon="44.82308">
        <ele>367.44213</ele>
        <time>2021-08-13T12:25:54.105Z</time>
      </trkpt>
      <trkpt lat="41.42747" lon="44.82322">
        <ele>367.157429</ele>
        <time>2021-08-13T12:26:02.818Z</time>
      </trkpt>
      <trkpt lat="41.42573" lon="44.82386">
        <ele>365.612501</ele>
        <time>2021-08-13T12:26:54.374Z</time>
      </trkpt>
      <trkpt lat="41.42413" lon="44.82449">
        <ele>364.584903</ele>
        <time>2021-08-13T12:27:43.771Z</time>
      </trkpt>
      <trkpt lat="41.42379" lon="44.82462">
        <ele>364.458439</ele>
        <time>2021-08-13T12:27:54.310Z</time>
      </trkpt>
      <trkpt lat="41.42208" lon="44.82526">
        <ele>364.015464</ele>
        <time>2021-08-13T12:28:49.871Z</time>
      </trkpt>
      <trkpt lat="41.42109" lon="44.82557">
        <ele>363.959047</ele>
        <time>2021-08-13T12:29:22.709Z</time>
      </trkpt>
      <trkpt lat="41.42003" lon="44.82601">
        <ele>364.12098</ele>
        <time>2021-08-13T12:30:00.034Z</time>
      </trkpt>
      <trkpt lat="41.41993" lon="44.82793">
        <ele>364.12295</ele>
        <time>2021-08-13T12:30:48.480Z</time>
      </trkpt>
      <trkpt lat="41.41985" lon="44.82923">
        <ele>363.917587</ele>
        <time>2021-08-13T12:31:18.712Z</time>
      </trkpt>
      <trkpt lat="41.41855" lon="44.82799">
        <ele>362.750533</ele>
        <time>2021-08-13T12:32:04.917Z</time>
      </trkpt>
      <trkpt lat="41.41742" lon="44.82709">
        <ele>361.716416</ele>
        <time>2021-08-13T12:32:42.750Z</time>
      </trkpt>
      <trkpt lat="41.41694" lon="44.8272">
        <ele>361.340192</ele>
        <time>2021-08-13T12:32:56.977Z</time>
      </trkpt>
      <trkpt lat="41.41564" lon="44.82772">
        <ele>360.247093</ele>
        <time>2021-08-13T12:33:36.928Z</time>
      </trkpt>
      <trkpt lat="41.41505" lon="44.82814">
        <ele>359.701146</ele>
        <time>2021-08-13T12:33:56.111Z</time>
      </trkpt>
      <trkpt lat="41.41483" lon="44.82832">
        <ele>359.44202</ele>
        <time>2021-08-13T12:34:03.204Z</time>
      </trkpt>
      <trkpt lat="41.41458" lon="44.82853">
        <ele>359.044011</ele>
        <time>2021-08-13T12:34:11.555Z</time>
      </trkpt>
      <trkpt lat="41.4128" lon="44.82997">
        <ele>356.142116</ele>
        <time>2021-08-13T12:35:07.890Z</time>
      </trkpt>
      <trkpt lat="41.41264" lon="44.82966">
        <ele>355.712262</ele>
        <time>2021-08-13T12:35:15.459Z</time>
      </trkpt>
      <trkpt lat="41.41249" lon="44.8294">
        <ele>355.338699</ele>
        <time>2021-08-13T12:35:22.032Z</time>
      </trkpt>
      <trkpt lat="41.41066" lon="44.8309">
        <ele>351.789913</ele>
        <time>2021-08-13T12:36:16.542Z</time>
      </trkpt>
      <trkpt lat="41.41012" lon="44.83132">
        <ele>350.518191</ele>
        <time>2021-08-13T12:36:31.896Z</time>
      </trkpt>
      <trkpt lat="41.40969" lon="44.83149">
        <ele>349.500489</ele>
        <time>2021-08-13T12:36:42.893Z</time>
      </trkpt>
      <trkpt lat="41.40952" lon="44.8315">
        <ele>349.118286</ele>
        <time>2021-08-13T12:36:46.990Z</time>
      </trkpt>
      <trkpt lat="41.40679" lon="44.83105">
        <ele>343.09663</ele>
        <time>2021-08-13T12:37:52.244Z</time>
      </trkpt>
      <trkpt lat="41.40551" lon="44.83083">
        <ele>342.43516</ele>
        <time>2021-08-13T12:38:28.830Z</time>
      </trkpt>
      <trkpt lat="41.40441" lon="44.83061">
        <ele>343.543327</ele>
        <time>2021-08-13T12:39:10.743Z</time>
      </trkpt>
      <trkpt lat="41.40395" lon="44.8305">
        <ele>344.307066</ele>
        <time>2021-08-13T12:39:30.295Z</time>
      </trkpt>
      <trkpt lat="41.40351" lon="44.83033">
        <ele>345.074981</ele>
        <time>2021-08-13T12:39:50.379Z</time>
      </trkpt>
      <trkpt lat="41.40339" lon="44.83027">
        <ele>345.299803</ele>
        <time>2021-08-13T12:39:57.115Z</time>
      </trkpt>
      <trkpt lat="41.40309" lon="44.82994">
        <ele>346.1274</ele>
        <time>2021-08-13T12:40:14.153Z</time>
      </trkpt>
      <trkpt lat="41.40262" lon="44.82891">
        <ele>348.032129</ele>
        <time>2021-08-13T12:40:51.877Z</time>
      </trkpt>
      <trkpt lat="41.40253" lon="44.82878">
        <ele>348.316864</ele>
        <time>2021-08-13T12:40:58.744Z</time>
      </trkpt>
      <trkpt lat="41.40237" lon="44.82857">
        <ele>348.78013</ele>
        <time>2021-08-13T12:41:07.380Z</time>
      </trkpt>
      <trkpt lat="41.40184" lon="44.82803">
        <ele>349.967322</ele>
        <time>2021-08-13T12:41:35.796Z</time>
      </trkpt>
      <trkpt lat="41.40171" lon="44.82784">
        <ele>350.290673</ele>
        <time>2021-08-13T12:41:44.456Z</time>
      </trkpt>
      <trkpt lat="41.40162" lon="44.82765">
        <ele>350.56688</ele>
        <time>2021-08-13T12:41:51.043Z</time>
      </trkpt>
      <trkpt lat="41.4014" lon="44.82703">
        <ele>351.443917</ele>
        <time>2021-08-13T12:42:12.488Z</time>
      </trkpt>
      <trkpt lat="41.40115" lon="44.82645">
        <ele>352.130517</ele>
        <time>2021-08-13T12:42:31.125Z</time>
      </trkpt>
      <trkpt lat="41.40089" lon="44.82588">
        <ele>352.331478</ele>
        <time>2021-08-13T12:42:48.864Z</time>
      </trkpt>
      <trkpt lat="41.4007" lon="44.82605">
        <ele>352.42416</ele>
        <time>2021-08-13T12:42:56.942Z</time>
      </trkpt>
      <trkpt lat="41.40063" lon="44.82652">
        <ele>352.567891</ele>
        <time>2021-08-13T12:43:09.143Z</time>
      </trkpt>
      <trkpt lat="41.40017" lon="44.82753">
        <ele>352.732171</ele>
        <time>2021-08-13T12:43:37.086Z</time>
      </trkpt>
      <trkpt lat="41.39985" lon="44.82801">
        <ele>352.607452</ele>
        <time>2021-08-13T12:43:51.584Z</time>
      </trkpt>
      <trkpt lat="41.39934" lon="44.82912">
        <ele>352.35633</ele>
        <time>2021-08-13T12:44:21.922Z</time>
      </trkpt>
      <trkpt lat="41.39913" lon="44.83016">
        <ele>352.533973</ele>
        <time>2021-08-13T12:44:48.458Z</time>
      </trkpt>
      <trkpt lat="41.39902" lon="44.83027">
        <ele>352.567602</ele>
        <time>2021-08-13T12:44:53.126Z</time>
      </trkpt>
      <trkpt lat="41.39843" lon="44.83019">
        <ele>352.713021</ele>
        <time>2021-08-13T12:45:13.538Z</time>
      </trkpt>
      <trkpt lat="41.39772" lon="44.8298">
        <ele>353.107096</ele>
        <time>2021-08-13T12:45:41.108Z</time>
      </trkpt>
      <trkpt lat="41.39619" lon="44.82872">
        <ele>354.33624</ele>
        <time>2021-08-13T12:46:44.304Z</time>
      </trkpt>
      <trkpt lat="41.39615" lon="44.82869">
        <ele>354.367167</ele>
        <time>2021-08-13T12:46:45.856Z</time>
      </trkpt>
      <trkpt lat="41.39588" lon="44.82863">
        <ele>354.58902</ele>
        <time>2021-08-13T12:46:55.981Z</time>
      </trkpt>
      <trkpt lat="41.39547" lon="44.82827">
        <ele>354.979722</ele>
        <time>2021-08-13T12:47:14.230Z</time>
      </trkpt>
      <trkpt lat="41.39491" lon="44.82799">
        <ele>355.458959</ele>
        <time>2021-08-13T12:47:36.347Z</time>
      </trkpt>
      <trkpt lat="41.39475" lon="44.82769">
        <ele>355.696573</ele>
        <time>2021-08-13T12:47:46.771Z</time>
      </trkpt>
      <trkpt lat="41.39437" lon="44.82779">
        <ele>356.030559</ele>
        <time>2021-08-13T12:48:01.168Z</time>
      </trkpt>
      <trkpt lat="41.39414" lon="44.82778">
        <ele>356.228629</ele>
        <time>2021-08-13T12:48:09.668Z</time>
      </trkpt>
      <trkpt lat="41.39363" lon="44.82775">
        <ele>356.668716</ele>
        <time>2021-08-13T12:48:28.483Z</time>
      </trkpt>
      <trkpt lat="41.39343" lon="44.82778">
        <ele>356.841395</ele>
        <time>2021-08-13T12:48:35.716Z</time>
      </trkpt>
      <trkpt lat="41.39174" lon="44.82802">
        <ele>358.487532</ele>
        <time>2021-08-13T12:49:38.161Z</time>
      </trkpt>
      <trkpt lat="41.39135" lon="44.82811">
        <ele>358.864261</ele>
        <time>2021-08-13T12:49:52.845Z</time>
      </trkpt>
      <trkpt lat="41.38663" lon="44.82921">
        <ele>362.962521</ele>
        <time>2021-08-13T12:52:45.089Z</time>
      </trkpt>
      <trkpt lat="41.38596" lon="44.82937">
        <ele>363.424381</ele>
        <time>2021-08-13T12:53:08.275Z</time>
      </trkpt>
      <trkpt lat="41.38568" lon="44.82944">
        <ele>363.549739</ele>
        <time>2021-08-13T12:53:18.061Z</time>
      </trkpt>
      <trkpt lat="41.3854" lon="44.82955">
        <ele>363.675425</ele>
        <time>2021-08-13T12:53:27.838Z</time>
      </trkpt>
      <trkpt lat="41.38263" lon="44.83076">
        <ele>364.755985</ele>
        <time>2021-08-13T12:55:04.819Z</time>
      </trkpt>
      <trkpt lat="41.38202" lon="44.83102">
        <ele>364.710215</ele>
        <time>2021-08-13T12:55:24.509Z</time>
      </trkpt>
      <trkpt lat="41.3802" lon="44.83193">
        <ele>364.777377</ele>
        <time>2021-08-13T12:56:23.393Z</time>
      </trkpt>
      <trkpt lat="41.37839" lon="44.83289">
        <ele>365.419007</ele>
        <time>2021-08-13T12:57:29.247Z</time>
      </trkpt>
      <trkpt lat="41.37693" lon="44.83371">
        <ele>366.25252</ele>
        <time>2021-08-13T12:58:22.853Z</time>
      </trkpt>
      <trkpt lat="41.37635" lon="44.83394">
        <ele>366.602184</ele>
        <time>2021-08-13T12:58:43.221Z</time>
      </trkpt>
      <trkpt lat="41.37531" lon="44.83433">
        <ele>367.985594</ele>
        <time>2021-08-13T12:59:21.586Z</time>
      </trkpt>
      <trkpt lat="41.37415" lon="44.83479">
        <ele>370.073986</ele>
        <time>2021-08-13T13:00:14.268Z</time>
      </trkpt>
      <trkpt lat="41.37351" lon="44.83505">
        <ele>371.496815</ele>
        <time>2021-08-13T13:00:45.101Z</time>
      </trkpt>
      <trkpt lat="41.37322" lon="44.83519">
        <ele>372.15356</ele>
        <time>2021-08-13T13:00:58.634Z</time>
      </trkpt>
      <trkpt lat="41.37272" lon="44.83543">
        <ele>373.294217</ele>
        <time>2021-08-13T13:01:21.290Z</time>
      </trkpt>
      <trkpt lat="41.37259" lon="44.83549">
        <ele>373.595759</ele>
        <time>2021-08-13T13:01:26.755Z</time>
      </trkpt>
      <trkpt lat="41.37199" lon="44.8358">
        <ele>373.925713</ele>
        <time>2021-08-13T13:01:51.061Z</time>
      </trkpt>
      <trkpt lat="41.37187" lon="44.83587">
        <ele>373.975329</ele>
        <time>2021-08-13T13:01:55.331Z</time>
      </trkpt>
      <trkpt lat="41.37002" lon="44.83701">
        <ele>374.543907</ele>
        <time>2021-08-13T13:02:56.821Z</time>
      </trkpt>
      <trkpt lat="41.36978" lon="44.83715">
        <ele>374.584576</ele>
        <time>2021-08-13T13:03:05.740Z</time>
      </trkpt>
      <trkpt lat="41.36813" lon="44.83818">
        <ele>373.993658</ele>
        <time>2021-08-13T13:04:07.474Z</time>
      </trkpt>
      <trkpt lat="41.368" lon="44.83832">
        <ele>373.901533</ele>
        <time>2021-08-13T13:04:11.753Z</time>
      </trkpt>
      <trkpt lat="41.3679" lon="44.83854">
        <ele>373.796128</ele>
        <time>2021-08-13T13:04:16.214Z</time>
      </trkpt>
      <trkpt lat="41.36782" lon="44.83874">
        <ele>373.702418</ele>
        <time>2021-08-13T13:04:20.410Z</time>
      </trkpt>
      <trkpt lat="41.36757" lon="44.8399">
        <ele>371.585515</ele>
        <time>2021-08-13T13:04:40.961Z</time>
      </trkpt>
      <trkpt lat="41.36751" lon="44.84019">
        <ele>371.03955</ele>
        <time>2021-08-13T13:04:46.315Z</time>
      </trkpt>
      <trkpt lat="41.36746" lon="44.84031">
        <ele>370.792519</ele>
        <time>2021-08-13T13:04:48.610Z</time>
      </trkpt>
      <trkpt lat="41.36742" lon="44.84036">
        <ele>370.677592</ele>
        <time>2021-08-13T13:04:49.724Z</time>
      </trkpt>
      <trkpt lat="41.3673" lon="44.84045">
        <ele>370.360659</ele>
        <time>2021-08-13T13:04:52.865Z</time>
      </trkpt>
      <trkpt lat="41.36711" lon="44.84045">
        <ele>369.905133</ele>
        <time>2021-08-13T13:04:57.255Z</time>
      </trkpt>
      <trkpt lat="41.36706" lon="44.84045">
        <ele>369.77226</ele>
        <time>2021-08-13T13:04:58.617Z</time>
      </trkpt>
      <trkpt lat="41.36669" lon="44.84038">
        <ele>370.198732</ele>
        <time>2021-08-13T13:05:09.065Z</time>
      </trkpt>
      <trkpt lat="41.36629" lon="44.8403">
        <ele>371.622237</ele>
        <time>2021-08-13T13:05:26.623Z</time>
      </trkpt>
      <trkpt lat="41.36601" lon="44.84023">
        <ele>372.603753</ele>
        <time>2021-08-13T13:05:42.287Z</time>
      </trkpt>
      <trkpt lat="41.3658" lon="44.84012">
        <ele>373.360547</ele>
        <time>2021-08-13T13:05:56.779Z</time>
      </trkpt>
      <trkpt lat="41.36557" lon="44.83992">
        <ele>374.308973</ele>
        <time>2021-08-13T13:06:14.741Z</time>
      </trkpt>
      <trkpt lat="41.3653" lon="44.83955">
        <ele>375.641405</ele>
        <time>2021-08-13T13:06:39.460Z</time>
      </trkpt>
      <trkpt lat="41.36483" lon="44.83885">
        <ele>377.902574</ele>
        <time>2021-08-13T13:07:20.626Z</time>
      </trkpt>
      <trkpt lat="41.36478" lon="44.83878">
        <ele>378.131828</ele>
        <time>2021-08-13T13:07:24.945Z</time>
      </trkpt>
      <trkpt lat="41.36453" lon="44.83846">
        <ele>379.23007</ele>
        <time>2021-08-13T13:07:42.738Z</time>
      </trkpt>
      <trkpt lat="41.36436" lon="44.83828">
        <ele>379.948157</ele>
        <time>2021-08-13T13:07:52.657Z</time>
      </trkpt>
      <trkpt lat="41.36397" lon="44.83787">
        <ele>381.317287</ele>
        <time>2021-08-13T13:08:11.342Z</time>
      </trkpt>
      <trkpt lat="41.36367" lon="44.83756">
        <ele>380.570101</ele>
        <time>2021-08-13T13:08:21.763Z</time>
      </trkpt>
      <trkpt lat="41.36351" lon="44.83738">
        <ele>380.161911</ele>
        <time>2021-08-13T13:08:26.621Z</time>
      </trkpt>
      <trkpt lat="41.36347" lon="44.83734">
        <ele>380.058115</ele>
        <time>2021-08-13T13:08:27.875Z</time>
      </trkpt>
      <trkpt lat="41.36316" lon="44.83704">
        <ele>379.318484</ele>
        <time>2021-08-13T13:08:36.425Z</time>
      </trkpt>
      <trkpt lat="41.36288" lon="44.83677">
        <ele>378.638267</ele>
        <time>2021-08-13T13:08:44.546Z</time>
      </trkpt>
      <trkpt lat="41.362" lon="44.83593">
        <ele>376.863603</ele>
        <time>2021-08-13T13:09:10.877Z</time>
      </trkpt>
      <trkpt lat="41.36051" lon="44.83447">
        <ele>375.026466</ele>
        <time>2021-08-13T13:10:00.656Z</time>
      </trkpt>
      <trkpt lat="41.36007" lon="44.83403">
        <ele>374.888044</ele>
        <time>2021-08-13T13:10:18.205Z</time>
      </trkpt>
      <trkpt lat="41.35948" lon="44.83346">
        <ele>374.936924</ele>
        <time>2021-08-13T13:10:42.673Z</time>
      </trkpt>
      <trkpt lat="41.35926" lon="44.83323">
        <ele>375.151595</ele>
        <time>2021-08-13T13:10:52.510Z</time>
      </trkpt>
      <trkpt lat="41.35782" lon="44.83174">
        <ele>376.800229</ele>
        <time>2021-08-13T13:11:58.477Z</time>
      </trkpt>
      <trkpt lat="41.35722" lon="44.83099">
        <ele>377.809818</ele>
        <time>2021-08-13T13:12:29.526Z</time>
      </trkpt>
      <trkpt lat="41.35667" lon="44.83023">
        <ele>379.015815</ele>
        <time>2021-08-13T13:13:01.294Z</time>
      </trkpt>
      <trkpt lat="41.35633" lon="44.82969">
        <ele>380.010598</ele>
        <time>2021-08-13T13:13:23.207Z</time>
      </trkpt>
      <trkpt lat="41.35617" lon="44.82937">
        <ele>380.545549</ele>
        <time>2021-08-13T13:13:35.115Z</time>
      </trkpt>
      <trkpt lat="41.35596" lon="44.82898">
        <ele>381.229069</ele>
        <time>2021-08-13T13:13:50.492Z</time>
      </trkpt>
      <trkpt lat="41.35561" lon="44.82828">
        <ele>382.668066</ele>
        <time>2021-08-13T13:14:17.815Z</time>
      </trkpt>
      <trkpt lat="41.35527" lon="44.82762">
        <ele>384.237869</ele>
        <time>2021-08-13T13:14:44.675Z</time>
      </trkpt>
      <trkpt lat="41.35495" lon="44.82698">
        <ele>385.726498</ele>
        <time>2021-08-13T13:15:11.150Z</time>
      </trkpt>
      <trkpt lat="41.35462" lon="44.82623">
        <ele>387.854843</ele>
        <time>2021-08-13T13:15:43.365Z</time>
      </trkpt>
      <trkpt lat="41.35433" lon="44.82541">
        <ele>390.408537</ele>
        <time>2021-08-13T13:16:19.451Z</time>
      </trkpt>
      <trkpt lat="41.35417" lon="44.82472">
        <ele>392.43632</ele>
        <time>2021-08-13T13:16:49.403Z</time>
      </trkpt>
      <trkpt lat="41.35363" lon="44.82237">
        <ele>398.807723</ele>
        <time>2021-08-13T13:18:25.501Z</time>
      </trkpt>
      <trkpt lat="41.35361" lon="44.82228">
        <ele>399.068768</ele>
        <time>2021-08-13T13:18:29.326Z</time>
      </trkpt>
      <trkpt lat="41.35347" lon="44.82189">
        <ele>399.350669</ele>
        <time>2021-08-13T13:18:42.546Z</time>
      </trkpt>
      <trkpt lat="41.35315" lon="44.8214">
        <ele>399.438992</ele>
        <time>2021-08-13T13:19:00.531Z</time>
      </trkpt>
      <trkpt lat="41.35214" lon="44.82058">
        <ele>399.369214</ele>
        <time>2021-08-13T13:19:33.149Z</time>
      </trkpt>
      <trkpt lat="41.34838" lon="44.81778">
        <ele>390.372523</ele>
        <time>2021-08-13T13:21:16.555Z</time>
      </trkpt>
      <trkpt lat="41.34751" lon="44.81713">
        <ele>388.880538</ele>
        <time>2021-08-13T13:21:43.329Z</time>
      </trkpt>
      <trkpt lat="41.34701" lon="44.81675">
        <ele>388.850054</ele>
        <time>2021-08-13T13:22:00.555Z</time>
      </trkpt>
      <trkpt lat="41.34486" lon="44.81512">
        <ele>389.069178</ele>
        <time>2021-08-13T13:23:21.039Z</time>
      </trkpt>
      <trkpt lat="41.34398" lon="44.81445">
        <ele>389.093329</ele>
        <time>2021-08-13T13:23:53.787Z</time>
      </trkpt>
      <trkpt lat="41.33573" lon="44.80819">
        <ele>387.524218</ele>
        <time>2021-08-13T13:28:39.003Z</time>
      </trkpt>
      <trkpt lat="41.33241" lon="44.80567">
        <ele>387.650519</ele>
        <time>2021-08-13T13:30:39.631Z</time>
      </trkpt>
      <trkpt lat="41.33038" lon="44.80401">
        <ele>387.609009</ele>
        <time>2021-08-13T13:31:53.047Z</time>
      </trkpt>
      <trkpt lat="41.3294" lon="44.80314">
        <ele>387.530753</ele>
        <time>2021-08-13T13:32:30.044Z</time>
      </trkpt>
      <trkpt lat="41.32783" lon="44.80216">
        <ele>387.111721</ele>
        <time>2021-08-13T13:33:22.488Z</time>
      </trkpt>
      <trkpt lat="41.32697" lon="44.80157">
        <ele>386.759996</ele>
        <time>2021-08-13T13:33:49.956Z</time>
      </trkpt>
      <trkpt lat="41.32599" lon="44.80086">
        <ele>386.28829</ele>
        <time>2021-08-13T13:34:21.924Z</time>
      </trkpt>
      <trkpt lat="41.32586" lon="44.80076">
        <ele>386.227199</ele>
        <time>2021-08-13T13:34:26.200Z</time>
      </trkpt>
      <trkpt lat="41.32535" lon="44.80038">
        <ele>386.284765</ele>
        <time>2021-08-13T13:34:44.205Z</time>
      </trkpt>
      <trkpt lat="41.32461" lon="44.80006">
        <ele>386.640722</ele>
        <time>2021-08-13T13:35:10.039Z</time>
      </trkpt>
      <trkpt lat="41.32395" lon="44.79971">
        <ele>386.996533</ele>
        <time>2021-08-13T13:35:35.600Z</time>
      </trkpt>
      <trkpt lat="41.32372" lon="44.79957">
        <ele>387.303742</ele>
        <time>2021-08-13T13:35:44.872Z</time>
      </trkpt>
      <trkpt lat="41.3234" lon="44.79937">
        <ele>387.74121</ele>
        <time>2021-08-13T13:35:58.427Z</time>
      </trkpt>
      <trkpt lat="41.32316" lon="44.79913">
        <ele>388.111271</ele>
        <time>2021-08-13T13:36:10.223Z</time>
      </trkpt>
      <trkpt lat="41.32257" lon="44.79814">
        <ele>389.224926</ele>
        <time>2021-08-13T13:36:46.890Z</time>
      </trkpt>
      <trkpt lat="41.32235" lon="44.7979">
        <ele>389.411326</ele>
        <time>2021-08-13T13:36:57.172Z</time>
      </trkpt>
      <trkpt lat="41.32195" lon="44.79756">
        <ele>389.72551</ele>
        <time>2021-08-13T13:37:13.940Z</time>
      </trkpt>
      <trkpt lat="41.32159" lon="44.79727">
        <ele>390.003865</ele>
        <time>2021-08-13T13:37:28.300Z</time>
      </trkpt>
      <trkpt lat="41.32045" lon="44.79639">
        <ele>390.653509</ele>
        <time>2021-08-13T13:38:11.828Z</time>
      </trkpt>
      <trkpt lat="41.32014" lon="44.79615">
        <ele>390.787745</ele>
        <time>2021-08-13T13:38:23.191Z</time>
      </trkpt>
      <trkpt lat="41.3177" lon="44.79444">
        <ele>392.100965</ele>
        <time>2021-08-13T13:39:56.782Z</time>
      </trkpt>
      <trkpt lat="41.31685" lon="44.79373">
        <ele>392.618016</ele>
        <time>2021-08-13T13:40:30.861Z</time>
      </trkpt>
      <trkpt lat="41.31628" lon="44.79339">
        <ele>392.935642</ele>
        <time>2021-08-13T13:40:52.316Z</time>
      </trkpt>
      <trkpt lat="41.31573" lon="44.79331">
        <ele>393.199905</ele>
        <time>2021-08-13T13:41:11.340Z</time>
      </trkpt>
      <trkpt lat="41.3146" lon="44.79334">
        <ele>393.736248</ele>
        <time>2021-08-13T13:41:49.417Z</time>
      </trkpt>
      <trkpt lat="41.31398" lon="44.79325">
        <ele>393.888608</ele>
        <time>2021-08-13T13:42:09.847Z</time>
      </trkpt>
      <trkpt lat="41.31315" lon="44.79299">
        <ele>394.094187</ele>
        <time>2021-08-13T13:42:37.046Z</time>
      </trkpt>
      <trkpt lat="41.31223" lon="44.79262">
        <ele>394.507786</ele>
        <time>2021-08-13T13:43:08.478Z</time>
      </trkpt>
      <trkpt lat="41.31126" lon="44.79231">
        <ele>395.017675</ele>
        <time>2021-08-13T13:43:43.034Z</time>
      </trkpt>
      <trkpt lat="41.31087" lon="44.79223">
        <ele>395.227354</ele>
        <time>2021-08-13T13:43:57.076Z</time>
      </trkpt>
      <trkpt lat="41.31014" lon="44.79207">
        <ele>395.626687</ele>
        <time>2021-08-13T13:44:22.457Z</time>
      </trkpt>
      <trkpt lat="41.30956" lon="44.79194">
        <ele>395.939268</ele>
        <time>2021-08-13T13:44:41.987Z</time>
      </trkpt>
      <trkpt lat="41.30938" lon="44.7919">
        <ele>396.040743</ele>
        <time>2021-08-13T13:44:48.306Z</time>
      </trkpt>
      <trkpt lat="41.30873" lon="44.79176">
        <ele>396.067803</ele>
        <time>2021-08-13T13:45:09.971Z</time>
      </trkpt>
      <trkpt lat="41.30831" lon="44.7917">
        <ele>396.074682</ele>
        <time>2021-08-13T13:45:22.945Z</time>
      </trkpt>
      <trkpt lat="41.3082" lon="44.79167">
        <ele>396.076624</ele>
        <time>2021-08-13T13:45:26.543Z</time>
      </trkpt>
      <trkpt lat="41.30805" lon="44.79164">
        <ele>396.079082</ele>
        <time>2021-08-13T13:45:31.011Z</time>
      </trkpt>
      <trkpt lat="41.30735" lon="44.79154">
        <ele>396.038704</ele>
        <time>2021-08-13T13:45:52.041Z</time>
      </trkpt>
      <trkpt lat="41.30658" lon="44.79141">
        <ele>395.868921</ele>
        <time>2021-08-13T13:46:15.183Z</time>
      </trkpt>
      <trkpt lat="41.30608" lon="44.79123">
        <ele>395.754711</ele>
        <time>2021-08-13T13:46:30.355Z</time>
      </trkpt>
      <trkpt lat="41.30469" lon="44.79013">
        <ele>395.664129</ele>
        <time>2021-08-13T13:47:19.879Z</time>
      </trkpt>
      <trkpt lat="41.30463" lon="44.79008">
        <ele>395.662774</ele>
        <time>2021-08-13T13:47:22.149Z</time>
      </trkpt>
      <trkpt lat="41.30396" lon="44.78982">
        <ele>395.735905</ele>
        <time>2021-08-13T13:47:44.996Z</time>
      </trkpt>
      <trkpt lat="41.30302" lon="44.78975">
        <ele>395.986992</ele>
        <time>2021-08-13T13:48:15.252Z</time>
      </trkpt>
      <trkpt lat="41.30288" lon="44.78975">
        <ele>396.025997</ele>
        <time>2021-08-13T13:48:20.009Z</time>
      </trkpt>
      <trkpt lat="41.30171" lon="44.78966">
        <ele>396.583569</ele>
        <time>2021-08-13T13:48:58.822Z</time>
      </trkpt>
      <trkpt lat="41.30046" lon="44.78933">
        <ele>397.514264</ele>
        <time>2021-08-13T13:49:43.420Z</time>
      </trkpt>
      <trkpt lat="41.29937" lon="44.78904">
        <ele>399.012437</ele>
        <time>2021-08-13T13:50:26.105Z</time>
      </trkpt>
      <trkpt lat="41.29849" lon="44.78889">
        <ele>400.457144</ele>
        <time>2021-08-13T13:51:03.215Z</time>
      </trkpt>
      <trkpt lat="41.29742" lon="44.78893">
        <ele>402.534522</ele>
        <time>2021-08-13T13:51:49.254Z</time>
      </trkpt>
      <trkpt lat="41.29654" lon="44.78898">
        <ele>403.797364</ele>
        <time>2021-08-13T13:52:24.470Z</time>
      </trkpt>
      <trkpt lat="41.29621" lon="44.78898">
        <ele>404.189069</ele>
        <time>2021-08-13T13:52:36.839Z</time>
      </trkpt>
      <trkpt lat="41.29596" lon="44.78895">
        <ele>404.484706</ele>
        <time>2021-08-13T13:52:45.982Z</time>
      </trkpt>
      <trkpt lat="41.2953" lon="44.7887">
        <ele>405.278102</ele>
        <time>2021-08-13T13:53:10.441Z</time>
      </trkpt>
      <trkpt lat="41.29503" lon="44.78856">
        <ele>405.465241</ele>
        <time>2021-08-13T13:53:20.531Z</time>
      </trkpt>
      <trkpt lat="41.29376" lon="44.78795">
        <ele>406.339056</ele>
        <time>2021-08-13T13:54:07.664Z</time>
      </trkpt>
      <trkpt lat="41.29361" lon="44.7879">
        <ele>406.418015</ele>
        <time>2021-08-13T13:54:12.851Z</time>
      </trkpt>
      <trkpt lat="41.29314" lon="44.78788">
        <ele>406.476674</ele>
        <time>2021-08-13T13:54:28.664Z</time>
      </trkpt>
      <trkpt lat="41.29244" lon="44.78797">
        <ele>406.565109</ele>
        <time>2021-08-13T13:54:51.228Z</time>
      </trkpt>
      <trkpt lat="41.29053" lon="44.78819">
        <ele>406.468137</ele>
        <time>2021-08-13T13:55:48.155Z</time>
      </trkpt>
      <trkpt lat="41.29031" lon="44.78825">
        <ele>406.439712</ele>
        <time>2021-08-13T13:55:55.003Z</time>
      </trkpt>
      <trkpt lat="41.28777" lon="44.78918">
        <ele>407.436523</ele>
        <time>2021-08-13T13:57:21.395Z</time>
      </trkpt>
      <trkpt lat="41.28676" lon="44.78955">
        <ele>408.42375</ele>
        <time>2021-08-13T13:58:01.627Z</time>
      </trkpt>
      <trkpt lat="41.28576" lon="44.79003">
        <ele>409.529431</ele>
        <time>2021-08-13T13:58:41.783Z</time>
      </trkpt>
      <trkpt lat="41.28534" lon="44.79025">
        <ele>410.007343</ele>
        <time>2021-08-13T13:58:58.327Z</time>
      </trkpt>
      <trkpt lat="41.28489" lon="44.79042">
        <ele>410.495198</ele>
        <time>2021-08-13T13:59:15.245Z</time>
      </trkpt>
      <trkpt lat="41.28205" lon="44.79088">
        <ele>412.404267</ele>
        <time>2021-08-13T14:00:57.213Z</time>
      </trkpt>
      <trkpt lat="41.28152" lon="44.79094">
        <ele>412.608497</ele>
        <time>2021-08-13T14:01:13.780Z</time>
      </trkpt>
      <trkpt lat="41.28104" lon="44.79093">
        <ele>412.47652</ele>
        <time>2021-08-13T14:01:27.741Z</time>
      </trkpt>
      <trkpt lat="41.28078" lon="44.79091">
        <ele>412.308464</ele>
        <time>2021-08-13T14:01:34.933Z</time>
      </trkpt>
      <trkpt lat="41.28041" lon="44.7909">
        <ele>412.071495</ele>
        <time>2021-08-13T14:01:44.834Z</time>
      </trkpt>
      <trkpt lat="41.2795" lon="44.79088">
        <ele>411.507418</ele>
        <time>2021-08-13T14:02:10.289Z</time>
      </trkpt>
      <trkpt lat="41.27873" lon="44.79085">
        <ele>411.387326</ele>
        <time>2021-08-13T14:02:32.671Z</time>
      </trkpt>
      <trkpt lat="41.27857" lon="44.79085">
        <ele>411.361853</ele>
        <time>2021-08-13T14:02:37.613Z</time>
      </trkpt>
      <trkpt lat="41.27813" lon="44.79082">
        <ele>411.292006</ele>
        <time>2021-08-13T14:02:51.568Z</time>
      </trkpt>
      <trkpt lat="41.27643" lon="44.79094">
        <ele>411.491694</ele>
        <time>2021-08-13T14:03:46.750Z</time>
      </trkpt>
      <trkpt lat="41.27637" lon="44.79093">
        <ele>411.504632</ele>
        <time>2021-08-13T14:03:48.812Z</time>
      </trkpt>
      <trkpt lat="41.27629" lon="44.79091">
        <ele>411.520421</ele>
        <time>2021-08-13T14:03:51.322Z</time>
      </trkpt>
      <trkpt lat="41.27613" lon="44.79087">
        <ele>411.552598</ele>
        <time>2021-08-13T14:03:56.442Z</time>
      </trkpt>
      <trkpt lat="41.27522" lon="44.79058">
        <ele>411.731403</ele>
        <time>2021-08-13T14:04:25.570Z</time>
      </trkpt>
      <trkpt lat="41.27484" lon="44.79052">
        <ele>411.805881</ele>
        <time>2021-08-13T14:04:37.816Z</time>
      </trkpt>
      <trkpt lat="41.27421" lon="44.79049">
        <ele>411.926748</ele>
        <time>2021-08-13T14:04:58.596Z</time>
      </trkpt>
      <trkpt lat="41.27357" lon="44.7905">
        <ele>412.550059</ele>
        <time>2021-08-13T14:05:20.581Z</time>
      </trkpt>
      <trkpt lat="41.26965" lon="44.7909">
        <ele>416.809998</ele>
        <time>2021-08-13T14:07:47.386Z</time>
      </trkpt>
      <trkpt lat="41.26792" lon="44.79133">
        <ele>419.270884</ele>
        <time>2021-08-13T14:08:57.824Z</time>
      </trkpt>
      <trkpt lat="41.26621" lon="44.79191">
        <ele>421.299854</ele>
        <time>2021-08-13T14:10:05.620Z</time>
      </trkpt>
      <trkpt lat="41.26588" lon="44.7921">
        <ele>421.604557</ele>
        <time>2021-08-13T14:10:18.156Z</time>
      </trkpt>
      <trkpt lat="41.2656" lon="44.79242">
        <ele>421.916447</ele>
        <time>2021-08-13T14:10:30.475Z</time>
      </trkpt>
      <trkpt lat="41.26486" lon="44.79376">
        <ele>422.252492</ele>
        <time>2021-08-13T14:11:10.391Z</time>
      </trkpt>
      <trkpt lat="41.26457" lon="44.79405">
        <ele>422.31267</ele>
        <time>2021-08-13T14:11:22.222Z</time>
      </trkpt>
      <trkpt lat="41.2644" lon="44.79414">
        <ele>422.342454</ele>
        <time>2021-08-13T14:11:27.739Z</time>
      </trkpt>
      <trkpt lat="41.26432" lon="44.79416">
        <ele>422.355496</ele>
        <time>2021-08-13T14:11:30.689Z</time>
      </trkpt>
      <trkpt lat="41.26341" lon="44.79442">
        <ele>422.285841</ele>
        <time>2021-08-13T14:11:59.500Z</time>
      </trkpt>
      <trkpt lat="41.26333" lon="44.79445">
        <ele>422.276362</ele>
        <time>2021-08-13T14:12:02.594Z</time>
      </trkpt>
      <trkpt lat="41.26139" lon="44.79593">
        <ele>421.71578</ele>
        <time>2021-08-13T14:13:08.156Z</time>
      </trkpt>
      <trkpt lat="41.26121" lon="44.79602">
        <ele>421.646731</ele>
        <time>2021-08-13T14:13:13.838Z</time>
      </trkpt>
      <trkpt lat="41.26101" lon="44.7961">
        <ele>421.57433</ele>
        <time>2021-08-13T14:13:19.904Z</time>
      </trkpt>
      <trkpt lat="41.25883" lon="44.7964">
        <ele>421.073618</ele>
        <time>2021-08-13T14:14:26.307Z</time>
      </trkpt>
      <trkpt lat="41.25848" lon="44.79659">
        <ele>420.918023</ele>
        <time>2021-08-13T14:14:37.494Z</time>
      </trkpt>
      <trkpt lat="41.2578" lon="44.79723">
        <ele>420.575734</ele>
        <time>2021-08-13T14:15:01.490Z</time>
      </trkpt>
      <trkpt lat="41.25764" lon="44.79733">
        <ele>420.502825</ele>
        <time>2021-08-13T14:15:06.419Z</time>
      </trkpt>
      <trkpt lat="41.25649" lon="44.79785">
        <ele>420.069887</ele>
        <time>2021-08-13T14:15:40.847Z</time>
      </trkpt>
      <trkpt lat="41.25591" lon="44.79826">
        <ele>419.837361</ele>
        <time>2021-08-13T14:16:01.139Z</time>
      </trkpt>
      <trkpt lat="41.25585" lon="44.79833">
        <ele>419.870808</ele>
        <time>2021-08-13T14:16:03.657Z</time>
      </trkpt>
      <trkpt lat="41.25559" lon="44.79863">
        <ele>420.00659</ele>
        <time>2021-08-13T14:16:14.550Z</time>
      </trkpt>
      <trkpt lat="41.25508" lon="44.79925">
        <ele>420.288216</ele>
        <time>2021-08-13T14:16:37.808Z</time>
      </trkpt>
      <trkpt lat="41.2547" lon="44.79975">
        <ele>420.504375</ele>
        <time>2021-08-13T14:16:56.255Z</time>
      </trkpt>
      <trkpt lat="41.25443" lon="44.79997">
        <ele>420.687056</ele>
        <time>2021-08-13T14:17:07.360Z</time>
      </trkpt>
      <trkpt lat="41.25399" lon="44.79997">
        <ele>421.012245</ele>
        <time>2021-08-13T14:17:22.654Z</time>
      </trkpt>
      <trkpt lat="41.25313" lon="44.79972">
        <ele>421.666747</ele>
        <time>2021-08-13T14:17:53.772Z</time>
      </trkpt>
      <trkpt lat="41.25265" lon="44.79964">
        <ele>422.036355</ele>
        <time>2021-08-13T14:18:11.082Z</time>
      </trkpt>
      <trkpt lat="41.25216" lon="44.79964">
        <ele>422.436966</ele>
        <time>2021-08-13T14:18:29.012Z</time>
      </trkpt>
      <trkpt lat="41.25182" lon="44.79964">
        <ele>422.711878</ele>
        <time>2021-08-13T14:18:41.313Z</time>
      </trkpt>
      <trkpt lat="41.24983" lon="44.79992">
        <ele>424.264824</ele>
        <time>2021-08-13T14:19:51.482Z</time>
      </trkpt>
      <trkpt lat="41.24932" lon="44.79992">
        <ele>424.648969</ele>
        <time>2021-08-13T14:20:09.265Z</time>
      </trkpt>
      <trkpt lat="41.24893" lon="44.79993">
        <ele>425.066987</ele>
        <time>2021-08-13T14:20:23.214Z</time>
      </trkpt>
      <trkpt lat="41.24855" lon="44.79985">
        <ele>425.508121</ele>
        <time>2021-08-13T14:20:37.680Z</time>
      </trkpt>
      <trkpt lat="41.24818" lon="44.79969">
        <ele>425.962488</ele>
        <time>2021-08-13T14:20:52.548Z</time>
      </trkpt>
      <trkpt lat="41.24794" lon="44.79951">
        <ele>426.276848</ele>
        <time>2021-08-13T14:21:02.712Z</time>
      </trkpt>
      <trkpt lat="41.24741" lon="44.799">
        <ele>427.194906</ele>
        <time>2021-08-13T14:21:27.738Z</time>
      </trkpt>
      <trkpt lat="41.24728" lon="44.79892">
        <ele>427.476356</ele>
        <time>2021-08-13T14:21:33.651Z</time>
      </trkpt>
      <trkpt lat="41.24708" lon="44.79895">
        <ele>427.872427</ele>
        <time>2021-08-13T14:21:42.184Z</time>
      </trkpt>
      <trkpt lat="41.24621" lon="44.79927">
        <ele>429.643005</ele>
        <time>2021-08-13T14:22:21.503Z</time>
      </trkpt>
      <trkpt lat="41.24613" lon="44.79926">
        <ele>429.810586</ele>
        <time>2021-08-13T14:22:24.799Z</time>
      </trkpt>
      <trkpt lat="41.24604" lon="44.7992">
        <ele>430.015521</ele>
        <time>2021-08-13T14:22:29.748Z</time>
      </trkpt>
      <trkpt lat="41.24596" lon="44.79907">
        <ele>430.25011</ele>
        <time>2021-08-13T14:22:34.909Z</time>
      </trkpt>
      <trkpt lat="41.24566" lon="44.79847">
        <ele>431.687637</ele>
        <time>2021-08-13T14:22:57.514Z</time>
      </trkpt>
      <trkpt lat="41.24546" lon="44.79809">
        <ele>432.633056</ele>
        <time>2021-08-13T14:23:13.244Z</time>
      </trkpt>
      <trkpt lat="41.24539" lon="44.79797">
        <ele>432.948094</ele>
        <time>2021-08-13T14:23:18.949Z</time>
      </trkpt>
      <trkpt lat="41.24526" lon="44.79779">
        <ele>433.4507</ele>
        <time>2021-08-13T14:23:27.213Z</time>
      </trkpt>
      <trkpt lat="41.24519" lon="44.79774">
        <ele>433.662348</ele>
        <time>2021-08-13T14:23:31.299Z</time>
      </trkpt>
      <trkpt lat="41.24478" lon="44.79686">
        <ele>436.050269</ele>
        <time>2021-08-13T14:24:25.932Z</time>
      </trkpt>
      <trkpt lat="41.24474" lon="44.79677">
        <ele>436.359207</ele>
        <time>2021-08-13T14:24:31.901Z</time>
      </trkpt>
      <trkpt lat="41.24445" lon="44.79608">
        <ele>438.705803</ele>
        <time>2021-08-13T14:25:14.083Z</time>
      </trkpt>
      <trkpt lat="41.2444" lon="44.79583">
        <ele>439.494126</ele>
        <time>2021-08-13T14:25:29.121Z</time>
      </trkpt>
      <trkpt lat="41.24432" lon="44.79527">
        <ele>441.189712</ele>
        <time>2021-08-13T14:26:02.365Z</time>
      </trkpt>
      <trkpt lat="41.24417" lon="44.79436">
        <ele>444.303758</ele>
        <time>2021-08-13T14:26:56.781Z</time>
      </trkpt>
      <trkpt lat="41.24416" lon="44.79432">
        <ele>444.46441</ele>
        <time>2021-08-13T14:27:00.157Z</time>
      </trkpt>
      <trkpt lat="41.24406" lon="44.79396">
        <ele>445.811537</ele>
        <time>2021-08-13T14:27:21.899Z</time>
      </trkpt>
      <trkpt lat="41.24399" lon="44.79373">
        <ele>446.686749</ele>
        <time>2021-08-13T14:27:36.859Z</time>
      </trkpt>
      <trkpt lat="41.24383" lon="44.79331">
        <ele>448.407721</ele>
        <time>2021-08-13T14:28:05.268Z</time>
      </trkpt>
      <trkpt lat="41.24353" lon="44.79253">
        <ele>451.443866</ele>
        <time>2021-08-13T14:28:57.386Z</time>
      </trkpt>
      <trkpt lat="41.24342" lon="44.7921">
        <ele>452.856663</ele>
        <time>2021-08-13T14:29:23.985Z</time>
      </trkpt>
      <trkpt lat="41.24319" lon="44.79058">
        <ele>457.673948</ele>
        <time>2021-08-13T14:30:51.813Z</time>
      </trkpt>
      <trkpt lat="41.24308" lon="44.78988">
        <ele>458.981645</ele>
        <time>2021-08-13T14:31:29.195Z</time>
      </trkpt>
      <trkpt lat="41.24306" lon="44.78972">
        <ele>459.210149</ele>
        <time>2021-08-13T14:31:37.696Z</time>
      </trkpt>
      <trkpt lat="41.24306" lon="44.78943">
        <ele>459.606306</ele>
        <time>2021-08-13T14:31:51.690Z</time>
      </trkpt>
      <trkpt lat="41.24307" lon="44.78925">
        <ele>459.850846</ele>
        <time>2021-08-13T14:32:00.249Z</time>
      </trkpt>
      <trkpt lat="41.24298" lon="44.78864">
        <ele>460.691981</ele>
        <time>2021-08-13T14:32:27.751Z</time>
      </trkpt>
      <trkpt lat="41.24303" lon="44.78834">
        <ele>461.115587</ele>
        <time>2021-08-13T14:32:40.544Z</time>
      </trkpt>
      <trkpt lat="41.24313" lon="44.78821">
        <ele>461.365396</ele>
        <time>2021-08-13T14:32:48.196Z</time>
      </trkpt>
      <trkpt lat="41.24395" lon="44.78725">
        <ele>461.948825</ele>
        <time>2021-08-13T14:33:45.328Z</time>
      </trkpt>
      <trkpt lat="41.24402" lon="44.78714">
        <ele>461.992488</ele>
        <time>2021-08-13T14:33:51.489Z</time>
      </trkpt>
      <trkpt lat="41.24409" lon="44.78698">
        <ele>462.046249</ele>
        <time>2021-08-13T14:33:58.276Z</time>
      </trkpt>
      <trkpt lat="41.24408" lon="44.78681">
        <ele>462.098062</ele>
        <time>2021-08-13T14:34:05.717Z</time>
      </trkpt>
      <trkpt lat="41.24403" lon="44.78665">
        <ele>462.151209</ele>
        <time>2021-08-13T14:34:13.059Z</time>
      </trkpt>
      <trkpt lat="41.2438" lon="44.78605">
        <ele>462.607759</ele>
        <time>2021-08-13T14:34:40.565Z</time>
      </trkpt>
      <trkpt lat="41.24362" lon="44.7856">
        <ele>463.26667</ele>
        <time>2021-08-13T14:35:03.423Z</time>
      </trkpt>
      <trkpt lat="41.24359" lon="44.78549">
        <ele>463.411304</ele>
        <time>2021-08-13T14:35:08.934Z</time>
      </trkpt>
      <trkpt lat="41.24358" lon="44.78537">
        <ele>463.566109</ele>
        <time>2021-08-13T14:35:14.504Z</time>
      </trkpt>
      <trkpt lat="41.2437" lon="44.78467">
        <ele>464.482067</ele>
        <time>2021-08-13T14:35:48.522Z</time>
      </trkpt>
      <trkpt lat="41.24369" lon="44.78442">
        <ele>464.80847</ele>
        <time>2021-08-13T14:36:01.129Z</time>
      </trkpt>
      <trkpt lat="41.24367" lon="44.78424">
        <ele>465.043042</ele>
        <time>2021-08-13T14:36:10.009Z</time>
      </trkpt>
      <trkpt lat="41.24363" lon="44.78391">
        <ele>465.522861</ele>
        <time>2021-08-13T14:36:26.353Z</time>
      </trkpt>
      <trkpt lat="41.24352" lon="44.78367">
        <ele>466.04227</ele>
        <time>2021-08-13T14:36:40.340Z</time>
      </trkpt>
      <trkpt lat="41.24338" lon="44.78347">
        <ele>466.545344</ele>
        <time>2021-08-13T14:36:53.870Z</time>
      </trkpt>
      <trkpt lat="41.24272" lon="44.78264">
        <ele>468.760337</ele>
        <time>2021-08-13T14:37:53.116Z</time>
      </trkpt>
      <trkpt lat="41.24225" lon="44.78213">
        <ele>470.283888</ele>
        <time>2021-08-13T14:38:33.007Z</time>
      </trkpt>
      <trkpt lat="41.24172" lon="44.78155">
        <ele>472.152059</ele>
        <time>2021-08-13T14:39:19.356Z</time>
      </trkpt>
      <trkpt lat="41.24141" lon="44.78122">
        <ele>473.21268</ele>
        <time>2021-08-13T14:39:45.862Z</time>
      </trkpt>
      <trkpt lat="41.24121" lon="44.78101">
        <ele>473.908778</ele>
        <time>2021-08-13T14:40:02.854Z</time>
      </trkpt>
      <trkpt lat="41.24113" lon="44.7809">
        <ele>474.225865</ele>
        <time>2021-08-13T14:40:11.049Z</time>
      </trkpt>
      <trkpt lat="41.24102" lon="44.78068">
        <ele>474.781697</ele>
        <time>2021-08-13T14:40:23.799Z</time>
      </trkpt>
      <trkpt lat="41.241" lon="44.78062">
        <ele>474.928083</ele>
        <time>2021-08-13T14:40:27.140Z</time>
      </trkpt>
      <trkpt lat="41.2409" lon="44.7803">
        <ele>475.73656</ele>
        <time>2021-08-13T14:40:45.137Z</time>
      </trkpt>
      <trkpt lat="41.24071" lon="44.77971">
        <ele>477.210904</ele>
        <time>2021-08-13T14:41:18.660Z</time>
      </trkpt>
      <trkpt lat="41.24044" lon="44.77894">
        <ele>479.164438</ele>
        <time>2021-08-13T14:42:03.019Z</time>
      </trkpt>
      <trkpt lat="41.24031" lon="44.77843">
        <ele>480.400593</ele>
        <time>2021-08-13T14:42:31.658Z</time>
      </trkpt>
      <trkpt lat="41.24019" lon="44.7779">
        <ele>481.626353</ele>
        <time>2021-08-13T14:43:01.061Z</time>
      </trkpt>
      <trkpt lat="41.24008" lon="44.77747">
        <ele>482.611398</ele>
        <time>2021-08-13T14:43:24.503Z</time>
      </trkpt>
      <trkpt lat="41.23998" lon="44.7772">
        <ele>483.291491</ele>
        <time>2021-08-13T14:43:41.144Z</time>
      </trkpt>
      <trkpt lat="41.23983" lon="44.77687">
        <ele>484.124302</ele>
        <time>2021-08-13T14:44:00.881Z</time>
      </trkpt>
      <trkpt lat="41.23966" lon="44.77658">
        <ele>484.951184</ele>
        <time>2021-08-13T14:44:19.613Z</time>
      </trkpt>
      <trkpt lat="41.23936" lon="44.77601">
        <ele>485.800112</ele>
        <time>2021-08-13T14:44:52.138Z</time>
      </trkpt>
      <trkpt lat="41.23926" lon="44.77573">
        <ele>486.074818</ele>
        <time>2021-08-13T14:45:05.400Z</time>
      </trkpt>
      <trkpt lat="41.23925" lon="44.77566">
        <ele>486.13959</ele>
        <time>2021-08-13T14:45:09.057Z</time>
      </trkpt>
      <trkpt lat="41.23924" lon="44.77542">
        <ele>486.350107</ele>
        <time>2021-08-13T14:45:18.766Z</time>
      </trkpt>
      <trkpt lat="41.23929" lon="44.77481">
        <ele>486.896465</ele>
        <time>2021-08-13T14:45:44.890Z</time>
      </trkpt>
      <trkpt lat="41.23939" lon="44.77406">
        <ele>487.620345</ele>
        <time>2021-08-13T14:46:17.167Z</time>
      </trkpt>
      <trkpt lat="41.23947" lon="44.77339">
        <ele>488.588575</ele>
        <time>2021-08-13T14:46:46.242Z</time>
      </trkpt>
      <trkpt lat="41.2395" lon="44.77318">
        <ele>488.894175</ele>
        <time>2021-08-13T14:46:53.058Z</time>
      </trkpt>
      <trkpt lat="41.23941" lon="44.7728">
        <ele>489.464801</ele>
        <time>2021-08-13T14:47:05.396Z</time>
      </trkpt>
      <trkpt lat="41.23932" lon="44.77261">
        <ele>489.784835</ele>
        <time>2021-08-13T14:47:12.533Z</time>
      </trkpt>
      <trkpt lat="41.23902" lon="44.77205">
        <ele>490.754426</ele>
        <time>2021-08-13T14:47:36.491Z</time>
      </trkpt>
      <trkpt lat="41.2384" lon="44.77112">
        <ele>494.798907</ele>
        <time>2021-08-13T14:48:28.351Z</time>
      </trkpt>
      <trkpt lat="41.23812" lon="44.77064">
        <ele>496.869255</ele>
        <time>2021-08-13T14:48:56.330Z</time>
      </trkpt>
      <trkpt lat="41.238" lon="44.77031">
        <ele>498.111213</ele>
        <time>2021-08-13T14:49:13.278Z</time>
      </trkpt>
      <trkpt lat="41.23798" lon="44.76984">
        <ele>499.933396</ele>
        <time>2021-08-13T14:49:35.466Z</time>
      </trkpt>
      <trkpt lat="41.23807" lon="44.76947">
        <ele>501.631343</ele>
        <time>2021-08-13T14:49:54.032Z</time>
      </trkpt>
      <trkpt lat="41.23826" lon="44.76901">
        <ele>503.940759</ele>
        <time>2021-08-13T14:50:19.218Z</time>
      </trkpt>
      <trkpt lat="41.23878" lon="44.76742">
        <ele>511.696727</ele>
        <time>2021-08-13T14:51:46.523Z</time>
      </trkpt>
      <trkpt lat="41.23882" lon="44.7672">
        <ele>512.784639</ele>
        <time>2021-08-13T14:51:57.898Z</time>
      </trkpt>
      <trkpt lat="41.23889" lon="44.76605">
        <ele>518.320447</ele>
        <time>2021-08-13T14:52:56.940Z</time>
      </trkpt>
      <trkpt lat="41.23911" lon="44.76491">
        <ele>524.344989</ele>
        <time>2021-08-13T14:53:58.292Z</time>
      </trkpt>
      <trkpt lat="41.23941" lon="44.76407">
        <ele>529.399203</ele>
        <time>2021-08-13T14:54:47.777Z</time>
      </trkpt>
      <trkpt lat="41.23997" lon="44.76331">
        <ele>535.32999</ele>
        <time>2021-08-13T14:55:51.347Z</time>
      </trkpt>
      <trkpt lat="41.24039" lon="44.76262">
        <ele>540.555361</ele>
        <time>2021-08-13T14:56:42.543Z</time>
      </trkpt>
      <trkpt lat="41.24061" lon="44.76212">
        <ele>543.973506</ele>
        <time>2021-08-13T14:57:15.960Z</time>
      </trkpt>
      <trkpt lat="41.24144" lon="44.76021">
        <ele>556.390707</ele>
        <time>2021-08-13T14:59:19.808Z</time>
      </trkpt>
      <trkpt lat="41.24167" lon="44.75941">
        <ele>561.0864</ele>
        <time>2021-08-13T15:00:05.140Z</time>
      </trkpt>
      <trkpt lat="41.2417" lon="44.75884">
        <ele>564.159665</ele>
        <time>2021-08-13T15:00:36.423Z</time>
      </trkpt>
      <trkpt lat="41.24166" lon="44.75838">
        <ele>566.662544</ele>
        <time>2021-08-13T15:01:02.527Z</time>
      </trkpt>
      <trkpt lat="41.24109" lon="44.75631">
        <ele>577.806191</ele>
        <time>2021-08-13T15:03:03.262Z</time>
      </trkpt>
      <trkpt lat="41.24092" lon="44.7543">
        <ele>585.973521</ele>
        <time>2021-08-13T15:04:38.925Z</time>
      </trkpt>
      <trkpt lat="41.24058" lon="44.75309">
        <ele>589.270182</ele>
        <time>2021-08-13T15:05:26.895Z</time>
      </trkpt>
      <trkpt lat="41.24029" lon="44.75228">
        <ele>591.456745</ele>
        <time>2021-08-13T15:05:57.004Z</time>
      </trkpt>
      <trkpt lat="41.23998" lon="44.75129">
        <ele>593.764429</ele>
        <time>2021-08-13T15:06:35.557Z</time>
      </trkpt>
      <trkpt lat="41.23991" lon="44.75095">
        <ele>594.526534</ele>
        <time>2021-08-13T15:06:54.233Z</time>
      </trkpt>
      <trkpt lat="41.23982" lon="44.75049">
        <ele>595.546357</ele>
        <time>2021-08-13T15:07:18.612Z</time>
      </trkpt>
      <trkpt lat="41.23976" lon="44.75007">
        <ele>596.647238</ele>
        <time>2021-08-13T15:07:40.556Z</time>
      </trkpt>
      <trkpt lat="41.23966" lon="44.74932">
        <ele>599.001853</ele>
        <time>2021-08-13T15:08:23.023Z</time>
      </trkpt>
      <trkpt lat="41.23953" lon="44.74817">
        <ele>602.60446</ele>
        <time>2021-08-13T15:09:31.250Z</time>
      </trkpt>
      <trkpt lat="41.23991" lon="44.74581">
        <ele>611.113347</ele>
        <time>2021-08-13T15:11:49.580Z</time>
      </trkpt>
      <trkpt lat="41.24087" lon="44.7412">
        <ele>634.927932</ele>
        <time>2021-08-13T15:17:12.188Z</time>
      </trkpt>
      <trkpt lat="41.24153" lon="44.73876">
        <ele>649.501096</ele>
        <time>2021-08-13T15:20:19.552Z</time>
      </trkpt>
      <trkpt lat="41.24172" lon="44.73817">
        <ele>652.050458</ele>
        <time>2021-08-13T15:21:02.161Z</time>
      </trkpt>
      <trkpt lat="41.24158" lon="44.73733">
        <ele>655.327798</ele>
        <time>2021-08-13T15:21:55.130Z</time>
      </trkpt>
      <trkpt lat="41.24166" lon="44.73634">
        <ele>659.016697</ele>
        <time>2021-08-13T15:22:50.225Z</time>
      </trkpt>
      <trkpt lat="41.24167" lon="44.73622">
        <ele>659.2643</ele>
        <time>2021-08-13T15:22:57.060Z</time>
      </trkpt>
      <trkpt lat="41.24173" lon="44.73497">
        <ele>661.752262</ele>
        <time>2021-08-13T15:23:57.574Z</time>
      </trkpt>
      <trkpt lat="41.24175" lon="44.73381">
        <ele>664.168409</ele>
        <time>2021-08-13T15:24:55.019Z</time>
      </trkpt>
      <trkpt lat="41.24179" lon="44.73266">
        <ele>666.987872</ele>
        <time>2021-08-13T15:25:55.652Z</time>
      </trkpt>
      <trkpt lat="41.24185" lon="44.73234">
        <ele>667.824375</ele>
        <time>2021-08-13T15:26:13.663Z</time>
      </trkpt>
      <trkpt lat="41.24187" lon="44.73222">
        <ele>668.106149</ele>
        <time>2021-08-13T15:26:20.031Z</time>
      </trkpt>
      <trkpt lat="41.24201" lon="44.73196">
        <ele>668.913605</ele>
        <time>2021-08-13T15:26:36.927Z</time>
      </trkpt>
      <trkpt lat="41.24221" lon="44.7317">
        <ele>669.943901</ele>
        <time>2021-08-13T15:26:56.234Z</time>
      </trkpt>
      <trkpt lat="41.24224" lon="44.7315">
        <ele>670.669967</ele>
        <time>2021-08-13T15:27:09.004Z</time>
      </trkpt>
      <trkpt lat="41.24221" lon="44.73131">
        <ele>671.389633</ele>
        <time>2021-08-13T15:27:19.050Z</time>
      </trkpt>
      <trkpt lat="41.24212" lon="44.73104">
        <ele>672.462234</ele>
        <time>2021-08-13T15:27:37.243Z</time>
      </trkpt>
      <trkpt lat="41.24174" lon="44.7299">
        <ele>676.97932</ele>
        <time>2021-08-13T15:28:51.247Z</time>
      </trkpt>
      <trkpt lat="41.24174" lon="44.7299">
        <ele>676.97932</ele>
        <time>2021-08-13T15:28:51.619Z</time>
      </trkpt>
      <trkpt lat="41.24145" lon="44.72863">
        <ele>683.167076</ele>
        <time>2021-08-13T15:30:15.185Z</time>
      </trkpt>
      <trkpt lat="41.24144" lon="44.72844">
        <ele>684.09768</ele>
        <time>2021-08-13T15:30:28.580Z</time>
      </trkpt>
      <trkpt lat="41.24146" lon="44.72744">
        <ele>689.154298</ele>
        <time>2021-08-13T15:31:23.353Z</time>
      </trkpt>
      <trkpt lat="41.24149" lon="44.72679">
        <ele>692.571154</ele>
        <time>2021-08-13T15:31:58.999Z</time>
      </trkpt>
      <trkpt lat="41.24157" lon="44.72605">
        <ele>696.583499</ele>
        <time>2021-08-13T15:32:40.430Z</time>
      </trkpt>
      <trkpt lat="41.2416" lon="44.7249">
        <ele>702.731404</ele>
        <time>2021-08-13T15:33:40.712Z</time>
      </trkpt>
      <trkpt lat="41.2414" lon="44.72329">
        <ele>710.099459</ele>
        <time>2021-08-13T15:35:02.972Z</time>
      </trkpt>
      <trkpt lat="41.2416" lon="44.72073">
        <ele>720.109821</ele>
        <time>2021-08-13T15:36:57.651Z</time>
      </trkpt>
      <trkpt lat="41.24159" lon="44.72041">
        <ele>721.273039</ele>
        <time>2021-08-13T15:37:10.912Z</time>
      </trkpt>
      <trkpt lat="41.24138" lon="44.71848">
        <ele>728.036654</ele>
        <time>2021-08-13T15:38:32.372Z</time>
      </trkpt>
      <trkpt lat="41.24128" lon="44.71662">
        <ele>734.974051</ele>
        <time>2021-08-13T15:39:55.099Z</time>
      </trkpt>
      <trkpt lat="41.24168" lon="44.71571">
        <ele>739.16279</ele>
        <time>2021-08-13T15:40:44.818Z</time>
      </trkpt>
      <trkpt lat="41.2417" lon="44.71554">
        <ele>739.842293</ele>
        <time>2021-08-13T15:40:52.890Z</time>
      </trkpt>
      <trkpt lat="41.24169" lon="44.71528">
        <ele>740.838621</ele>
        <time>2021-08-13T15:41:04.690Z</time>
      </trkpt>
      <trkpt lat="41.24138" lon="44.71374">
        <ele>747.086209</ele>
        <time>2021-08-13T15:42:18.144Z</time>
      </trkpt>
      <trkpt lat="41.24136" lon="44.7135">
        <ele>748.011014</ele>
        <time>2021-08-13T15:42:28.688Z</time>
      </trkpt>
      <trkpt lat="41.24172" lon="44.71071">
        <ele>758.07542</ele>
        <time>2021-08-13T15:44:31.143Z</time>
      </trkpt>
      <trkpt lat="41.24179" lon="44.71045">
        <ele>758.908942</ele>
        <time>2021-08-13T15:44:42.833Z</time>
      </trkpt>
      <trkpt lat="41.24203" lon="44.71008">
        <ele>760.369334</ele>
        <time>2021-08-13T15:45:03.058Z</time>
      </trkpt>
      <trkpt lat="41.24253" lon="44.70957">
        <ele>762.84302</ele>
        <time>2021-08-13T15:45:36.196Z</time>
      </trkpt>
      <trkpt lat="41.24261" lon="44.70857">
        <ele>765.694595</ele>
        <time>2021-08-13T15:46:14.548Z</time>
      </trkpt>
      <trkpt lat="41.24282" lon="44.70755">
        <ele>768.340151</ele>
        <time>2021-08-13T15:46:53.761Z</time>
      </trkpt>
      <trkpt lat="41.24283" lon="44.70628">
        <ele>771.595755</ele>
        <time>2021-08-13T15:47:40.520Z</time>
      </trkpt>
      <trkpt lat="41.24263" lon="44.70447">
        <ele>776.843422</ele>
        <time>2021-08-13T15:48:52.120Z</time>
      </trkpt>
      <trkpt lat="41.24265" lon="44.70414">
        <ele>777.818488</ele>
        <time>2021-08-13T15:49:06.473Z</time>
      </trkpt>
      <trkpt lat="41.24316" lon="44.7034">
        <ele>781.654766</ele>
        <time>2021-08-13T15:49:50.130Z</time>
      </trkpt>
      <trkpt lat="41.24378" lon="44.70119">
        <ele>790.987561</ele>
        <time>2021-08-13T15:51:40.104Z</time>
      </trkpt>
      <trkpt lat="41.24441" lon="44.69993">
        <ele>797.201035</ele>
        <time>2021-08-13T15:52:50.612Z</time>
      </trkpt>
      <trkpt lat="41.24472" lon="44.69893">
        <ele>801.875079</ele>
        <time>2021-08-13T15:53:40.742Z</time>
      </trkpt>
      <trkpt lat="41.24499" lon="44.69823">
        <ele>805.245587</ele>
        <time>2021-08-13T15:54:17.741Z</time>
      </trkpt>
      <trkpt lat="41.24511" lon="44.69732">
        <ele>809.809292</ele>
        <time>2021-08-13T15:55:02.964Z</time>
      </trkpt>
      <trkpt lat="41.24561" lon="44.69615">
        <ele>817.34059</ele>
        <time>2021-08-13T15:56:16.099Z</time>
      </trkpt>
      <trkpt lat="41.24571" lon="44.69571">
        <ele>819.881805</ele>
        <time>2021-08-13T15:56:42.982Z</time>
      </trkpt>
      <trkpt lat="41.24576" lon="44.69472">
        <ele>826.890894</ele>
        <time>2021-08-13T15:57:45.531Z</time>
      </trkpt>
      <trkpt lat="41.24563" lon="44.69427">
        <ele>830.383623</ele>
        <time>2021-08-13T15:58:17.371Z</time>
      </trkpt>
      <trkpt lat="41.24566" lon="44.69398">
        <ele>832.532522</ele>
        <time>2021-08-13T15:58:37.589Z</time>
      </trkpt>
      <trkpt lat="41.24577" lon="44.69378">
        <ele>834.308679</ele>
        <time>2021-08-13T15:58:54.399Z</time>
      </trkpt>
      <trkpt lat="41.24633" lon="44.69351">
        <ele>838.936654</ele>
        <time>2021-08-13T15:59:48.943Z</time>
      </trkpt>
      <trkpt lat="41.24646" lon="44.69337">
        <ele>839.70912</ele>
        <time>2021-08-13T16:00:01.916Z</time>
      </trkpt>
      <trkpt lat="41.24684" lon="44.69185">
        <ele>845.467903</ele>
        <time>2021-08-13T16:01:11.252Z</time>
      </trkpt>
      <trkpt lat="41.24733" lon="44.69069">
        <ele>842.846778</ele>
        <time>2021-08-13T16:01:35.073Z</time>
      </trkpt>
      <trkpt lat="41.24781" lon="44.69009">
        <ele>839.915568</ele>
        <time>2021-08-13T16:01:48.185Z</time>
      </trkpt>
      <trkpt lat="41.2479" lon="44.68988">
        <ele>839.110695</ele>
        <time>2021-08-13T16:01:51.709Z</time>
      </trkpt>
      <trkpt lat="41.24818" lon="44.68874">
        <ele>835.979835</ele>
        <time>2021-08-13T16:02:10.196Z</time>
      </trkpt>
      <trkpt lat="41.24846" lon="44.688">
        <ele>833.963372</ele>
        <time>2021-08-13T16:02:24.866Z</time>
      </trkpt>
      <trkpt lat="41.24849" lon="44.68781">
        <ele>833.474416</ele>
        <time>2021-08-13T16:02:28.566Z</time>
      </trkpt>
      <trkpt lat="41.24844" lon="44.68769">
        <ele>833.143564</ele>
        <time>2021-08-13T16:02:32.539Z</time>
      </trkpt>
      <trkpt lat="41.24834" lon="44.68757">
        <ele>832.70519</ele>
        <time>2021-08-13T16:02:36.223Z</time>
      </trkpt>
      <trkpt lat="41.2481" lon="44.68746">
        <ele>833.194363</ele>
        <time>2021-08-13T16:02:45.182Z</time>
      </trkpt>
      <trkpt lat="41.24364" lon="44.68656">
        <ele>848.574741</ele>
        <time>2021-08-13T16:06:38.206Z</time>
      </trkpt>
      <trkpt lat="41.24353" lon="44.68629">
        <ele>849.452566</ele>
        <time>2021-08-13T16:06:50.452Z</time>
      </trkpt>
      <trkpt lat="41.24338" lon="44.68562">
        <ele>851.460502</ele>
        <time>2021-08-13T16:07:18.923Z</time>
      </trkpt>
      <trkpt lat="41.24297" lon="44.68496">
        <ele>853.917679</ele>
        <time>2021-08-13T16:07:53.127Z</time>
      </trkpt>
      <trkpt lat="41.24284" lon="44.68448">
        <ele>855.385238</ele>
        <time>2021-08-13T16:08:13.385Z</time>
      </trkpt>
      <trkpt lat="41.24259" lon="44.68413">
        <ele>856.768617</ele>
        <time>2021-08-13T16:08:32.377Z</time>
      </trkpt>
      <trkpt lat="41.24173" lon="44.68367">
        <ele>860.060359</ele>
        <time>2021-08-13T16:09:19.819Z</time>
      </trkpt>
      <trkpt lat="41.24113" lon="44.6829">
        <ele>862.890914</ele>
        <time>2021-08-13T16:10:01.357Z</time>
      </trkpt>
      <trkpt lat="41.24094" lon="44.68247">
        <ele>864.13951</ele>
        <time>2021-08-13T16:10:19.564Z</time>
      </trkpt>
      <trkpt lat="41.24084" lon="44.68205">
        <ele>865.233637</ele>
        <time>2021-08-13T16:10:36.081Z</time>
      </trkpt>
      <trkpt lat="41.2408" lon="44.68148">
        <ele>866.642668</ele>
        <time>2021-08-13T16:10:57.415Z</time>
      </trkpt>
      <trkpt lat="41.23978" lon="44.67673">
        <ele>878.125567</ele>
        <time>2021-08-13T16:14:01.939Z</time>
      </trkpt>
      <trkpt lat="41.23921" lon="44.67261">
        <ele>883.871014</ele>
        <time>2021-08-13T16:16:08.475Z</time>
      </trkpt>
      <trkpt lat="41.239" lon="44.67024">
        <ele>886.636968</ele>
        <time>2021-08-13T16:17:19.436Z</time>
      </trkpt>
      <trkpt lat="41.23903" lon="44.66909">
        <ele>887.998117</ele>
        <time>2021-08-13T16:17:54.302Z</time>
      </trkpt>
      <trkpt lat="41.23884" lon="44.66805">
        <ele>889.233298</ele>
        <time>2021-08-13T16:18:26.603Z</time>
      </trkpt>
      <trkpt lat="41.23867" lon="44.66616">
        <ele>891.335303</ele>
        <time>2021-08-13T16:19:22.747Z</time>
      </trkpt>
      <trkpt lat="41.23867" lon="44.66401">
        <ele>894.22984</ele>
        <time>2021-08-13T16:20:27.174Z</time>
      </trkpt>
      <trkpt lat="41.23843" lon="44.66206">
        <ele>898.942602</ele>
        <time>2021-08-13T16:21:37.388Z</time>
      </trkpt>
      <trkpt lat="41.23837" lon="44.6618">
        <ele>899.642534</ele>
        <time>2021-08-13T16:21:48.363Z</time>
      </trkpt>
      <trkpt lat="41.23823" lon="44.66155">
        <ele>900.456636</ele>
        <time>2021-08-13T16:22:01.559Z</time>
      </trkpt>
      <trkpt lat="41.23732" lon="44.66037">
        <ele>907.840703</ele>
        <time>2021-08-13T16:23:20.701Z</time>
      </trkpt>
      <trkpt lat="41.23688" lon="44.65843">
        <ele>918.402583</ele>
        <time>2021-08-13T16:25:11.253Z</time>
      </trkpt>
      <trkpt lat="41.23687" lon="44.65795">
        <ele>921.093196</ele>
        <time>2021-08-13T16:25:38.159Z</time>
      </trkpt>
      <trkpt lat="41.23694" lon="44.65743">
        <ele>924.072591</ele>
        <time>2021-08-13T16:26:07.595Z</time>
      </trkpt>
      <trkpt lat="41.23723" lon="44.65665">
        <ele>928.195192</ele>
        <time>2021-08-13T16:26:56.342Z</time>
      </trkpt>
      <trkpt lat="41.23746" lon="44.65634">
        <ele>930.08362</ele>
        <time>2021-08-13T16:27:20.286Z</time>
      </trkpt>
      <trkpt lat="41.23795" lon="44.65591">
        <ele>933.495658</ele>
        <time>2021-08-13T16:27:56.904Z</time>
      </trkpt>
      <trkpt lat="41.23882" lon="44.6554">
        <ele>935.949898</ele>
        <time>2021-08-13T16:28:43.086Z</time>
      </trkpt>
      <trkpt lat="41.23894" lon="44.65524">
        <ele>935.990984</ele>
        <time>2021-08-13T16:28:48.268Z</time>
      </trkpt>
      <trkpt lat="41.239" lon="44.65505">
        <ele>936.031142</ele>
        <time>2021-08-13T16:28:54.397Z</time>
      </trkpt>
      <trkpt lat="41.23893" lon="44.65493">
        <ele>936.058567</ele>
        <time>2021-08-13T16:28:57.620Z</time>
      </trkpt>
      <trkpt lat="41.23789" lon="44.65464">
        <ele>935.62012</ele>
        <time>2021-08-13T16:29:23.992Z</time>
      </trkpt>
      <trkpt lat="41.23748" lon="44.65433">
        <ele>934.388982</ele>
        <time>2021-08-13T16:29:34.569Z</time>
      </trkpt>
      <trkpt lat="41.23699" lon="44.65378">
        <ele>932.707023</ele>
        <time>2021-08-13T16:29:49.440Z</time>
      </trkpt>
      <trkpt lat="41.23631" lon="44.65251">
        <ele>931.112066</ele>
        <time>2021-08-13T16:30:18.197Z</time>
      </trkpt>
      <trkpt lat="41.23608" lon="44.65189">
        <ele>930.78624</ele>
        <time>2021-08-13T16:30:33.111Z</time>
      </trkpt>
      <trkpt lat="41.23572" lon="44.65057">
        <ele>931.822695</ele>
        <time>2021-08-13T16:31:12.409Z</time>
      </trkpt>
      <trkpt lat="41.23546" lon="44.64983">
        <ele>933.483988</ele>
        <time>2021-08-13T16:31:41.332Z</time>
      </trkpt>
      <trkpt lat="41.23538" lon="44.6494">
        <ele>934.379235</ele>
        <time>2021-08-13T16:31:58.351Z</time>
      </trkpt>
      <trkpt lat="41.23542" lon="44.64831">
        <ele>937.35742</ele>
        <time>2021-08-13T16:32:43.198Z</time>
      </trkpt>
      <trkpt lat="41.23556" lon="44.64731">
        <ele>940.681868</ele>
        <time>2021-08-13T16:33:26.905Z</time>
      </trkpt>
      <trkpt lat="41.23559" lon="44.64669">
        <ele>942.712331</ele>
        <time>2021-08-13T16:33:53.089Z</time>
      </trkpt>
      <trkpt lat="41.2355" lon="44.64543">
        <ele>946.572669</ele>
        <time>2021-08-13T16:34:44.341Z</time>
      </trkpt>
      <trkpt lat="41.23552" lon="44.64493">
        <ele>948.109902</ele>
        <time>2021-08-13T16:35:04.401Z</time>
      </trkpt>
      <trkpt lat="41.23566" lon="44.64384">
        <ele>951.681366</ele>
        <time>2021-08-13T16:35:48.021Z</time>
      </trkpt>
      <trkpt lat="41.23604" lon="44.64192">
        <ele>958.828041</ele>
        <time>2021-08-13T16:37:15.569Z</time>
      </trkpt>
      <trkpt lat="41.23621" lon="44.64145">
        <ele>960.805321</ele>
        <time>2021-08-13T16:37:41.322Z</time>
      </trkpt>
      <trkpt lat="41.23667" lon="44.64084">
        <ele>964.061177</ele>
        <time>2021-08-13T16:38:20.975Z</time>
      </trkpt>
      <trkpt lat="41.2368" lon="44.6405">
        <ele>965.509277</ele>
        <time>2021-08-13T16:38:37.971Z</time>
      </trkpt>
      <trkpt lat="41.23685" lon="44.6403">
        <ele>966.289962</ele>
        <time>2021-08-13T16:38:48.325Z</time>
      </trkpt>
      <trkpt lat="41.23694" lon="44.63987">
        <ele>967.955889</ele>
        <time>2021-08-13T16:39:07.462Z</time>
      </trkpt>
      <trkpt lat="41.23733" lon="44.63795">
        <ele>972.267129</ele>
        <time>2021-08-13T16:40:19.611Z</time>
      </trkpt>
      <trkpt lat="41.23791" lon="44.63569">
        <ele>975.090059</ele>
        <time>2021-08-13T16:41:29.096Z</time>
      </trkpt>
      <trkpt lat="41.23829" lon="44.635">
        <ele>975.920358</ele>
        <time>2021-08-13T16:41:51.967Z</time>
      </trkpt>
      <trkpt lat="41.23891" lon="44.63429">
        <ele>976.963681</ele>
        <time>2021-08-13T16:42:21.355Z</time>
      </trkpt>
      <trkpt lat="41.23915" lon="44.63385">
        <ele>977.481797</ele>
        <time>2021-08-13T16:42:37.138Z</time>
      </trkpt>
      <trkpt lat="41.23937" lon="44.63281">
        <ele>979.700539</ele>
        <time>2021-08-13T16:43:12.707Z</time>
      </trkpt>
      <trkpt lat="41.24025" lon="44.62999">
        <ele>988.00445</ele>
        <time>2021-08-13T16:45:15.705Z</time>
      </trkpt>
      <trkpt lat="41.24092" lon="44.62718">
        <ele>996.558376</ele>
        <time>2021-08-13T16:47:11.834Z</time>
      </trkpt>
      <trkpt lat="41.24146" lon="44.62481">
        <ele>1003.982529</ele>
        <time>2021-08-13T16:48:52.019Z</time>
      </trkpt>
      <trkpt lat="41.24182" lon="44.62434">
        <ele>1006.031674</ele>
        <time>2021-08-13T16:49:19.193Z</time>
      </trkpt>
      <trkpt lat="41.24199" lon="44.62415">
        <ele>1006.931998</ele>
        <time>2021-08-13T16:49:31.631Z</time>
      </trkpt>
      <trkpt lat="41.24208" lon="44.62392">
        <ele>1007.742182</ele>
        <time>2021-08-13T16:49:42.067Z</time>
      </trkpt>
      <trkpt lat="41.243" lon="44.61906">
        <ele>1022.987012</ele>
        <time>2021-08-13T16:53:05.449Z</time>
      </trkpt>
      <trkpt lat="41.24347" lon="44.61598">
        <ele>1031.613175</ele>
        <time>2021-08-13T16:55:10.073Z</time>
      </trkpt>
      <trkpt lat="41.24348" lon="44.61283">
        <ele>1038.002724</ele>
        <time>2021-08-13T16:56:56.454Z</time>
      </trkpt>
      <trkpt lat="41.24343" lon="44.61011">
        <ele>1043.858396</ele>
        <time>2021-08-13T16:58:32.126Z</time>
      </trkpt>
      <trkpt lat="41.24329" lon="44.6085">
        <ele>1047.882209</ele>
        <time>2021-08-13T16:59:33.639Z</time>
      </trkpt>
      <trkpt lat="41.2426" lon="44.60459">
        <ele>1058.601416</ele>
        <time>2021-08-13T17:02:09.458Z</time>
      </trkpt>
      <trkpt lat="41.24165" lon="44.60209">
        <ele>1065.631588</ele>
        <time>2021-08-13T17:03:52.767Z</time>
      </trkpt>
      <trkpt lat="41.24073" lon="44.59931">
        <ele>1073.530826</ele>
        <time>2021-08-13T17:05:49.255Z</time>
      </trkpt>
      <trkpt lat="41.24028" lon="44.5978">
        <ele>1077.549497</ele>
        <time>2021-08-13T17:06:50.013Z</time>
      </trkpt>
      <trkpt lat="41.24015" lon="44.59747">
        <ele>1078.465128</ele>
        <time>2021-08-13T17:07:03.656Z</time>
      </trkpt>
      <trkpt lat="41.23975" lon="44.59682">
        <ele>1080.630554</ele>
        <time>2021-08-13T17:07:34.868Z</time>
      </trkpt>
      <trkpt lat="41.23915" lon="44.59585">
        <ele>1083.906479</ele>
        <time>2021-08-13T17:08:21.607Z</time>
      </trkpt>
      <trkpt lat="41.2382" lon="44.59431">
        <ele>1090.326625</ele>
        <time>2021-08-13T17:09:42.517Z</time>
      </trkpt>
      <trkpt lat="41.23775" lon="44.59377">
        <ele>1093.101052</ele>
        <time>2021-08-13T17:10:18.599Z</time>
      </trkpt>
      <trkpt lat="41.23714" lon="44.59286">
        <ele>1097.732865</ele>
        <time>2021-08-13T17:11:17.362Z</time>
      </trkpt>
      <trkpt lat="41.23676" lon="44.59214">
        <ele>1101.104501</ele>
        <time>2021-08-13T17:11:58.723Z</time>
      </trkpt>
      <trkpt lat="41.23654" lon="44.5916">
        <ele>1102.927201</ele>
        <time>2021-08-13T17:12:24.438Z</time>
      </trkpt>
      <trkpt lat="41.23604" lon="44.5909">
        <ele>1102.574453</ele>
        <time>2021-08-13T17:12:55.515Z</time>
      </trkpt>
      <trkpt lat="41.23596" lon="44.59067">
        <ele>1102.484683</ele>
        <time>2021-08-13T17:13:01.042Z</time>
      </trkpt>
      <trkpt lat="41.23604" lon="44.5898">
        <ele>1102.164256</ele>
        <time>2021-08-13T17:13:16.560Z</time>
      </trkpt>
      <trkpt lat="41.23589" lon="44.58921">
        <ele>1099.491987</ele>
        <time>2021-08-13T17:13:26.362Z</time>
      </trkpt>
      <trkpt lat="41.23545" lon="44.58845">
        <ele>1093.996368</ele>
        <time>2021-08-13T17:13:40.448Z</time>
      </trkpt>
      <trkpt lat="41.23492" lon="44.58795">
        <ele>1088.970515</ele>
        <time>2021-08-13T17:13:52.967Z</time>
      </trkpt>
      <trkpt lat="41.23413" lon="44.58762">
        <ele>1085.230014</ele>
        <time>2021-08-13T17:14:09.475Z</time>
      </trkpt>
      <trkpt lat="41.23394" lon="44.58766">
        <ele>1084.457074</ele>
        <time>2021-08-13T17:14:13.710Z</time>
      </trkpt>
      <trkpt lat="41.23374" lon="44.58777">
        <ele>1083.556994</ele>
        <time>2021-08-13T17:14:18.375Z</time>
      </trkpt>
      <trkpt lat="41.23281" lon="44.58847">
        <ele>1080.391907</ele>
        <time>2021-08-13T17:14:49.819Z</time>
      </trkpt>
      <trkpt lat="41.23216" lon="44.58914">
        <ele>1079.497192</ele>
        <time>2021-08-13T17:15:22.097Z</time>
      </trkpt>
      <trkpt lat="41.23198" lon="44.5892">
        <ele>1079.298114</ele>
        <time>2021-08-13T17:15:27.145Z</time>
      </trkpt>
      <trkpt lat="41.23186" lon="44.58916">
        <ele>1079.160243</ele>
        <time>2021-08-13T17:15:30.467Z</time>
      </trkpt>
      <trkpt lat="41.23178" lon="44.58903">
        <ele>1079.022213</ele>
        <time>2021-08-13T17:15:33.372Z</time>
      </trkpt>
      <trkpt lat="41.23163" lon="44.58778">
        <ele>1069.583061</ele>
        <time>2021-08-13T17:15:52.172Z</time>
      </trkpt>
      <trkpt lat="41.23168" lon="44.58718">
        <ele>1064.487401</ele>
        <time>2021-08-13T17:16:00.579Z</time>
      </trkpt>
      <trkpt lat="41.23167" lon="44.58671">
        <ele>1060.607075</ele>
        <time>2021-08-13T17:16:06.879Z</time>
      </trkpt>
      <trkpt lat="41.23175" lon="44.58625">
        <ele>1056.02994</ele>
        <time>2021-08-13T17:16:13.439Z</time>
      </trkpt>
      <trkpt lat="41.23168" lon="44.58607">
        <ele>1053.932559</ele>
        <time>2021-08-13T17:16:16.172Z</time>
      </trkpt>
      <trkpt lat="41.23156" lon="44.58593">
        <ele>1051.661955</ele>
        <time>2021-08-13T17:16:19.148Z</time>
      </trkpt>
      <trkpt lat="41.23124" lon="44.58584">
        <ele>1047.174969</ele>
        <time>2021-08-13T17:16:25.004Z</time>
      </trkpt>
      <trkpt lat="41.23107" lon="44.58566">
        <ele>1044.166393</ele>
        <time>2021-08-13T17:16:28.967Z</time>
      </trkpt>
      <trkpt lat="41.23091" lon="44.58559">
        <ele>1041.837545</ele>
        <time>2021-08-13T17:16:32.060Z</time>
      </trkpt>
      <trkpt lat="41.23035" lon="44.58566">
        <ele>1034.083983</ele>
        <time>2021-08-13T17:16:42.541Z</time>
      </trkpt>
      <trkpt lat="41.23007" lon="44.58556">
        <ele>1032.588376</ele>
        <time>2021-08-13T17:16:48.092Z</time>
      </trkpt>
      <trkpt lat="41.22951" lon="44.58514">
        <ele>1029.38426</ele>
        <time>2021-08-13T17:17:01.310Z</time>
      </trkpt>
      <trkpt lat="41.22914" lon="44.58502">
        <ele>1027.511866</ele>
        <time>2021-08-13T17:17:09.977Z</time>
      </trkpt>
      <trkpt lat="41.22894" lon="44.58518">
        <ele>1026.328498</ele>
        <time>2021-08-13T17:17:16.077Z</time>
      </trkpt>
      <trkpt lat="41.22879" lon="44.58564">
        <ele>1024.896358</ele>
        <time>2021-08-13T17:17:26.546Z</time>
      </trkpt>
      <trkpt lat="41.22866" lon="44.58567">
        <ele>1024.715136</ele>
        <time>2021-08-13T17:17:30.365Z</time>
      </trkpt>
      <trkpt lat="41.22853" lon="44.58558">
        <ele>1024.517361</ele>
        <time>2021-08-13T17:17:34.551Z</time>
      </trkpt>
      <trkpt lat="41.22828" lon="44.58502">
        <ele>1023.831756</ele>
        <time>2021-08-13T17:17:48.470Z</time>
      </trkpt>
      <trkpt lat="41.22802" lon="44.58459">
        <ele>1023.248717</ele>
        <time>2021-08-13T17:17:59.607Z</time>
      </trkpt>
      <trkpt lat="41.22761" lon="44.58419">
        <ele>1022.52069</ele>
        <time>2021-08-13T17:18:12.201Z</time>
      </trkpt>
      <trkpt lat="41.2269" lon="44.5838">
        <ele>1019.03337</ele>
        <time>2021-08-13T17:18:29.420Z</time>
      </trkpt>
      <trkpt lat="41.22645" lon="44.58334">
        <ele>1016.43061</ele>
        <time>2021-08-13T17:18:41.339Z</time>
      </trkpt>
      <trkpt lat="41.22599" lon="44.58306">
        <ele>1013.982351</ele>
        <time>2021-08-13T17:18:51.817Z</time>
      </trkpt>
      <trkpt lat="41.22475" lon="44.5819">
        <ele>1004.408837</ele>
        <time>2021-08-13T17:19:22.534Z</time>
      </trkpt>
      <trkpt lat="41.22425" lon="44.58143">
        <ele>1001.072771</ele>
        <time>2021-08-13T17:19:35.027Z</time>
      </trkpt>
      <trkpt lat="41.22397" lon="44.58107">
        <ele>999.105792</ele>
        <time>2021-08-13T17:19:43.226Z</time>
      </trkpt>
      <trkpt lat="41.22287" lon="44.57972">
        <ele>992.923382</ele>
        <time>2021-08-13T17:20:15.485Z</time>
      </trkpt>
      <trkpt lat="41.22247" lon="44.57914">
        <ele>991.637872</ele>
        <time>2021-08-13T17:20:29.850Z</time>
      </trkpt>
      <trkpt lat="41.22244" lon="44.57893">
        <ele>991.295305</ele>
        <time>2021-08-13T17:20:33.720Z</time>
      </trkpt>
      <trkpt lat="41.22236" lon="44.57866">
        <ele>990.820225</ele>
        <time>2021-08-13T17:20:39.680Z</time>
      </trkpt>
      <trkpt lat="41.2223" lon="44.57858">
        <ele>990.626527</ele>
        <time>2021-08-13T17:20:42.047Z</time>
      </trkpt>
      <trkpt lat="41.22166" lon="44.57833">
        <ele>990.603792</ele>
        <time>2021-08-13T17:21:02.506Z</time>
      </trkpt>
      <trkpt lat="41.2211" lon="44.57801">
        <ele>991.545608</ele>
        <time>2021-08-13T17:21:25.721Z</time>
      </trkpt>
      <trkpt lat="41.2191" lon="44.57659">
        <ele>996.791564</ele>
        <time>2021-08-13T17:23:11.691Z</time>
      </trkpt>
      <trkpt lat="41.21849" lon="44.57562">
        <ele>999.136064</ele>
        <time>2021-08-13T17:23:54.758Z</time>
      </trkpt>
      <trkpt lat="41.21701" lon="44.57363">
        <ele>1004.039874</ele>
        <time>2021-08-13T17:25:26.144Z</time>
      </trkpt>
      <trkpt lat="41.21568" lon="44.5713">
        <ele>1009.818786</ele>
        <time>2021-08-13T17:27:05.737Z</time>
      </trkpt>
      <trkpt lat="41.21513" lon="44.57017">
        <ele>1013.156066</ele>
        <time>2021-08-13T17:27:57.610Z</time>
      </trkpt>
      <trkpt lat="41.21407" lon="44.5683">
        <ele>1019.484596</ele>
        <time>2021-08-13T17:29:30.093Z</time>
      </trkpt>
      <trkpt lat="41.2139" lon="44.56785">
        <ele>1020.752745</ele>
        <time>2021-08-13T17:29:49.006Z</time>
      </trkpt>
      <trkpt lat="41.21348" lon="44.56747">
        <ele>1022.414405</ele>
        <time>2021-08-13T17:30:13.231Z</time>
      </trkpt>
      <trkpt lat="41.21285" lon="44.56626">
        <ele>1026.313865</ele>
        <time>2021-08-13T17:31:06.396Z</time>
      </trkpt>
      <trkpt lat="41.21211" lon="44.56523">
        <ele>1030.252759</ele>
        <time>2021-08-13T17:32:02.650Z</time>
      </trkpt>
      <trkpt lat="41.21182" lon="44.56468">
        <ele>1033.289749</ele>
        <time>2021-08-13T17:32:32.034Z</time>
      </trkpt>
      <trkpt lat="41.21148" lon="44.56432">
        <ele>1035.995517</ele>
        <time>2021-08-13T17:32:59.408Z</time>
      </trkpt>
      <trkpt lat="41.21148" lon="44.56391">
        <ele>1037.953206</ele>
        <time>2021-08-13T17:33:20.582Z</time>
      </trkpt>
      <trkpt lat="41.21135" lon="44.56372">
        <ele>1039.142877</ele>
        <time>2021-08-13T17:33:33.815Z</time>
      </trkpt>
      <trkpt lat="41.21086" lon="44.56285">
        <ele>1045.421019</ele>
        <time>2021-08-13T17:34:36.702Z</time>
      </trkpt>
      <trkpt lat="41.21057" lon="44.56151">
        <ele>1054.818744</ele>
        <time>2021-08-13T17:36:08.367Z</time>
      </trkpt>
      <trkpt lat="41.21046" lon="44.56091">
        <ele>1058.369029</ele>
        <time>2021-08-13T17:36:45.691Z</time>
      </trkpt>
      <trkpt lat="41.21046" lon="44.56059">
        <ele>1059.448387</ele>
        <time>2021-08-13T17:37:02.627Z</time>
      </trkpt>
      <trkpt lat="41.21057" lon="44.56025">
        <ele>1060.693072</ele>
        <time>2021-08-13T17:37:21.249Z</time>
      </trkpt>
      <trkpt lat="41.21072" lon="44.56">
        <ele>1061.787414</ele>
        <time>2021-08-13T17:37:40.822Z</time>
      </trkpt>
      <trkpt lat="41.21073" lon="44.55968">
        <ele>1062.861007</ele>
        <time>2021-08-13T17:37:57.805Z</time>
      </trkpt>
      <trkpt lat="41.21066" lon="44.5595">
        <ele>1063.55542</ele>
        <time>2021-08-13T17:38:09.576Z</time>
      </trkpt>
      <trkpt lat="41.2104" lon="44.55955">
        <ele>1064.743998</ele>
        <time>2021-08-13T17:38:24.557Z</time>
      </trkpt>
      <trkpt lat="41.20988" lon="44.55952">
        <ele>1066.578094</ele>
        <time>2021-08-13T17:38:53.919Z</time>
      </trkpt>
      <trkpt lat="41.20924" lon="44.55912">
        <ele>1068.507825</ele>
        <time>2021-08-13T17:39:32.039Z</time>
      </trkpt>
      <trkpt lat="41.20895" lon="44.55897">
        <ele>1069.365373</ele>
        <time>2021-08-13T17:39:50.290Z</time>
      </trkpt>
      <trkpt lat="41.20833" lon="44.55655">
        <ele>1081.142526</ele>
        <time>2021-08-13T17:42:48.081Z</time>
      </trkpt>
      <trkpt lat="41.20819" lon="44.55595">
        <ele>1084.362161</ele>
        <time>2021-08-13T17:43:36.531Z</time>
      </trkpt>
      <trkpt lat="41.20815" lon="44.55562">
        <ele>1085.660025</ele>
        <time>2021-08-13T17:43:59.869Z</time>
      </trkpt>
      <trkpt lat="41.20797" lon="44.55509">
        <ele>1087.948359</ele>
        <time>2021-08-13T17:44:38.902Z</time>
      </trkpt>
      <trkpt lat="41.20803" lon="44.55447">
        <ele>1090.42811</ele>
        <time>2021-08-13T17:45:17.229Z</time>
      </trkpt>
      <trkpt lat="41.20791" lon="44.55418">
        <ele>1091.718246</ele>
        <time>2021-08-13T17:45:34.922Z</time>
      </trkpt>
      <trkpt lat="41.20761" lon="44.55426">
        <ele>1093.236308</ele>
        <time>2021-08-13T17:45:54.657Z</time>
      </trkpt>
      <trkpt lat="41.20682" lon="44.55413">
        <ele>1094.162767</ele>
        <time>2021-08-13T17:46:40.888Z</time>
      </trkpt>
      <trkpt lat="41.2061" lon="44.55393">
        <ele>1095.032466</ele>
        <time>2021-08-13T17:47:21.571Z</time>
      </trkpt>
      <trkpt lat="41.20532" lon="44.55386">
        <ele>1095.899946</ele>
        <time>2021-08-13T17:48:06.286Z</time>
      </trkpt>
      <trkpt lat="41.20373" lon="44.55349">
        <ele>1097.236755</ele>
        <time>2021-08-13T17:49:41.671Z</time>
      </trkpt>
      <trkpt lat="41.20303" lon="44.55325">
        <ele>1097.13915</ele>
        <time>2021-08-13T17:50:19.714Z</time>
      </trkpt>
      <trkpt lat="41.20244" lon="44.5529">
        <ele>1097.049799</ele>
        <time>2021-08-13T17:50:50.791Z</time>
      </trkpt>
      <trkpt lat="41.20179" lon="44.55269">
        <ele>1095.910885</ele>
        <time>2021-08-13T17:51:20.431Z</time>
      </trkpt>
      <trkpt lat="41.20089" lon="44.55247">
        <ele>1094.17575</ele>
        <time>2021-08-13T17:51:59.798Z</time>
      </trkpt>
      <trkpt lat="41.20038" lon="44.5524">
        <ele>1093.633348</ele>
        <time>2021-08-13T17:52:22.416Z</time>
      </trkpt>
      <trkpt lat="41.19976" lon="44.55206">
        <ele>1093.683862</ele>
        <time>2021-08-13T17:52:54.861Z</time>
      </trkpt>
      <trkpt lat="41.199" lon="44.55176">
        <ele>1093.743218</ele>
        <time>2021-08-13T17:53:39.854Z</time>
      </trkpt>
      <trkpt lat="41.19877" lon="44.55152">
        <ele>1094.179216</ele>
        <time>2021-08-13T17:53:58.073Z</time>
      </trkpt>
      <trkpt lat="41.19859" lon="44.55104">
        <ele>1095.159459</ele>
        <time>2021-08-13T17:54:25.610Z</time>
      </trkpt>
      <trkpt lat="41.19835" lon="44.55078">
        <ele>1095.919889</ele>
        <time>2021-08-13T17:54:47.304Z</time>
      </trkpt>
      <trkpt lat="41.19756" lon="44.55041">
        <ele>1097.957373</ele>
        <time>2021-08-13T17:55:42.281Z</time>
      </trkpt>
      <trkpt lat="41.19742" lon="44.55028">
        <ele>1098.331387</ele>
        <time>2021-08-13T17:55:54.315Z</time>
      </trkpt>
      <trkpt lat="41.19732" lon="44.55019">
        <ele>1098.557931</ele>
        <time>2021-08-13T17:56:01.292Z</time>
      </trkpt>
      <trkpt lat="41.19714" lon="44.5499">
        <ele>1099.103287</ele>
        <time>2021-08-13T17:56:19.526Z</time>
      </trkpt>
      <trkpt lat="41.19689" lon="44.54946">
        <ele>1099.914434</ele>
        <time>2021-08-13T17:56:45.467Z</time>
      </trkpt>
      <trkpt lat="41.19666" lon="44.54907">
        <ele>1100.637258</ele>
        <time>2021-08-13T17:57:08.288Z</time>
      </trkpt>
      <trkpt lat="41.19594" lon="44.54867">
        <ele>1102.338871</ele>
        <time>2021-08-13T17:57:56.390Z</time>
      </trkpt>
      <trkpt lat="41.19531" lon="44.54802">
        <ele>1104.38605</ele>
        <time>2021-08-13T17:58:48.243Z</time>
      </trkpt>
      <trkpt lat="41.19496" lon="44.54733">
        <ele>1105.993914</ele>
        <time>2021-08-13T17:59:31.395Z</time>
      </trkpt>
      <trkpt lat="41.19365" lon="44.54603">
        <ele>1111.678385</ele>
        <time>2021-08-13T18:01:28.880Z</time>
      </trkpt>
      <trkpt lat="41.19292" lon="44.54526">
        <ele>1112.623868</ele>
        <time>2021-08-13T18:02:36.755Z</time>
      </trkpt>
      <trkpt lat="41.19244" lon="44.54482">
        <ele>1112.623868</ele>
        <time>2021-08-13T18:03:19.312Z</time>
      </trkpt>
      <trkpt lat="41.19219" lon="44.54459">
        <ele>1112.623868</ele>
        <time>2021-08-13T18:03:41.133Z</time>
      </trkpt>
      <trkpt lat="41.19178" lon="44.54418">
        <ele>1112.623868</ele>
        <time>2021-08-13T18:04:15.973Z</time>
      </trkpt>
      <trkpt lat="41.19173" lon="44.54425">
        <ele>1112.623868</ele>
        <time>2021-08-13T18:04:21.446Z</time>
      </trkpt>
      <trkpt lat="41.19163" lon="44.54428">
        <ele>1112.623868</ele>
        <time>2021-08-13T18:04:27.875Z</time>
      </trkpt>
      <trkpt lat="41.19157" lon="44.54429">
        <ele>1112.623868</ele>
        <time>2021-08-13T18:04:32.286Z</time>
      </trkpt>
    </trkseg>
  </trk>
  <trk>
    <name><![CDATA[Tour d'Arménie]]></name>
    <extensions>
      <line xmlns="http://www.topografix.com/GPX/gpx_style/0/2">
        <color>FF0000</color>
        <width>4</width>
      </line>
    </extensions>
    <trkseg>
      <trkpt lat="41.19838" lon="44.55081">
        <ele>1098.34218</ele>
        <time>2021-08-12T11:06:42.045Z</time>
      </trkpt>
      <trkpt lat="41.19838" lon="44.55081">
        <ele>1098.34218</ele>
        <time>2021-08-12T11:06:42.045Z</time>
      </trkpt>
      <trkpt lat="41.19835" lon="44.55078">
        <ele>1098.34218</ele>
        <time>2021-08-12T11:06:44.352Z</time>
      </trkpt>
      <trkpt lat="41.19756" lon="44.55041">
        <ele>1098.34218</ele>
        <time>2021-08-12T11:07:34.759Z</time>
      </trkpt>
      <trkpt lat="41.19742" lon="44.55028">
        <ele>1098.599315</ele>
        <time>2021-08-12T11:07:46.069Z</time>
      </trkpt>
      <trkpt lat="41.19732" lon="44.55019">
        <ele>1098.807028</ele>
        <time>2021-08-12T11:07:52.966Z</time>
      </trkpt>
      <trkpt lat="41.19714" lon="44.5499">
        <ele>1099.307054</ele>
        <time>2021-08-12T11:08:10.665Z</time>
      </trkpt>
      <trkpt lat="41.19689" lon="44.54946">
        <ele>1100.050779</ele>
        <time>2021-08-12T11:08:36.823Z</time>
      </trkpt>
      <trkpt lat="41.19666" lon="44.54907">
        <ele>1100.713521</ele>
        <time>2021-08-12T11:08:59.644Z</time>
      </trkpt>
      <trkpt lat="41.19594" lon="44.54867">
        <ele>1102.359177</ele>
        <time>2021-08-12T11:09:47.746Z</time>
      </trkpt>
      <trkpt lat="41.19531" lon="44.54802">
        <ele>1104.378699</ele>
        <time>2021-08-12T11:10:39.599Z</time>
      </trkpt>
      <trkpt lat="41.19496" lon="44.54733">
        <ele>1105.964842</ele>
        <time>2021-08-12T11:11:22.750Z</time>
      </trkpt>
      <trkpt lat="41.19365" lon="44.54603">
        <ele>1111.672806</ele>
        <time>2021-08-12T11:13:20.236Z</time>
      </trkpt>
      <trkpt lat="41.19292" lon="44.54526">
        <ele>1115.200373</ele>
        <time>2021-08-12T11:14:27.810Z</time>
      </trkpt>
      <trkpt lat="41.19244" lon="44.54482">
        <ele>1117.430385</ele>
        <time>2021-08-12T11:15:09.615Z</time>
      </trkpt>
      <trkpt lat="41.19219" lon="44.54459">
        <ele>1118.623359</ele>
        <time>2021-08-12T11:15:33.702Z</time>
      </trkpt>
      <trkpt lat="41.19178" lon="44.54418">
        <ele>1120.705659</ele>
        <time>2021-08-12T11:16:12.142Z</time>
      </trkpt>
      <trkpt lat="41.19111" lon="44.54352">
        <ele>1124.193635</ele>
        <time>2021-08-12T11:17:14.531Z</time>
      </trkpt>
      <trkpt lat="41.19109" lon="44.5435">
        <ele>1124.272061</ele>
        <time>2021-08-12T11:17:16.565Z</time>
      </trkpt>
      <trkpt lat="41.19108" lon="44.54349">
        <ele>1124.345928</ele>
        <time>2021-08-12T11:17:19.050Z</time>
      </trkpt>
      <trkpt lat="41.19083" lon="44.54333">
        <ele>1125.492514</ele>
        <time>2021-08-12T11:17:37.847Z</time>
      </trkpt>
      <trkpt lat="41.19046" lon="44.54267">
        <ele>1128.187292</ele>
        <time>2021-08-12T11:18:25.451Z</time>
      </trkpt>
      <trkpt lat="41.19032" lon="44.54231">
        <ele>1129.539092</ele>
        <time>2021-08-12T11:18:49.000Z</time>
      </trkpt>
      <trkpt lat="41.18958" lon="44.54165">
        <ele>1133.528979</ele>
        <time>2021-08-12T11:19:57.458Z</time>
      </trkpt>
      <trkpt lat="41.18933" lon="44.54156">
        <ele>1134.64248</ele>
        <time>2021-08-12T11:20:16.772Z</time>
      </trkpt>
      <trkpt lat="41.1889" lon="44.54117">
        <ele>1137.231336</ele>
        <time>2021-08-12T11:20:58.161Z</time>
      </trkpt>
      <trkpt lat="41.18863" lon="44.54024">
        <ele>1141.022211</ele>
        <time>2021-08-12T11:21:58.762Z</time>
      </trkpt>
      <trkpt lat="41.18828" lon="44.53963">
        <ele>1143.894922</ele>
        <time>2021-08-12T11:22:45.420Z</time>
      </trkpt>
      <trkpt lat="41.1875" lon="44.53872">
        <ele>1148.87285</ele>
        <time>2021-08-12T11:24:09.382Z</time>
      </trkpt>
      <trkpt lat="41.18738" lon="44.53813">
        <ele>1151.092589</ele>
        <time>2021-08-12T11:24:45.898Z</time>
      </trkpt>
      <trkpt lat="41.18718" lon="44.53751">
        <ele>1153.210538</ele>
        <time>2021-08-12T11:25:23.674Z</time>
      </trkpt>
      <trkpt lat="41.1864" lon="44.53684">
        <ele>1156.256191</ele>
        <time>2021-08-12T11:26:30.087Z</time>
      </trkpt>
      <trkpt lat="41.18511" lon="44.53495">
        <ele>1162.771934</ele>
        <time>2021-08-12T11:28:37.171Z</time>
      </trkpt>
      <trkpt lat="41.18471" lon="44.53435">
        <ele>1165.086554</ele>
        <time>2021-08-12T11:29:24.569Z</time>
      </trkpt>
      <trkpt lat="41.1844" lon="44.53371">
        <ele>1169.258554</ele>
        <time>2021-08-12T11:30:14.637Z</time>
      </trkpt>
      <trkpt lat="41.18388" lon="44.53267">
        <ele>1176.108296</ele>
        <time>2021-08-12T11:31:46.251Z</time>
      </trkpt>
      <trkpt lat="41.18226" lon="44.53046">
        <ele>1195.334412</ele>
        <time>2021-08-12T11:35:37.984Z</time>
      </trkpt>
      <trkpt lat="41.18222" lon="44.53006">
        <ele>1197.801718</ele>
        <time>2021-08-12T11:36:07.635Z</time>
      </trkpt>
      <trkpt lat="41.18225" lon="44.52957">
        <ele>1200.763832</ele>
        <time>2021-08-12T11:36:43.159Z</time>
      </trkpt>
      <trkpt lat="41.18166" lon="44.52855">
        <ele>1208.60746</ele>
        <time>2021-08-12T11:38:16.422Z</time>
      </trkpt>
      <trkpt lat="41.18157" lon="44.52783">
        <ele>1213.146008</ele>
        <time>2021-08-12T11:39:09.717Z</time>
      </trkpt>
      <trkpt lat="41.18113" lon="44.52697">
        <ele>1219.609633</ele>
        <time>2021-08-12T11:40:28.796Z</time>
      </trkpt>
      <trkpt lat="41.18083" lon="44.52597">
        <ele>1225.980837</ele>
        <time>2021-08-12T11:41:47.545Z</time>
      </trkpt>
      <trkpt lat="41.18081" lon="44.52505">
        <ele>1231.184641</ele>
        <time>2021-08-12T11:42:52.530Z</time>
      </trkpt>
      <trkpt lat="41.18062" lon="44.52438">
        <ele>1235.277406</ele>
        <time>2021-08-12T11:43:42.454Z</time>
      </trkpt>
      <trkpt lat="41.18069" lon="44.52352">
        <ele>1239.277166</ele>
        <time>2021-08-12T11:44:42.540Z</time>
      </trkpt>
      <trkpt lat="41.1803" lon="44.5227">
        <ele>1243.577227</ele>
        <time>2021-08-12T11:45:46.494Z</time>
      </trkpt>
      <trkpt lat="41.18004" lon="44.5215">
        <ele>1247.428942</ele>
        <time>2021-08-12T11:46:58.130Z</time>
      </trkpt>
      <trkpt lat="41.17986" lon="44.51996">
        <ele>1249.646928</ele>
        <time>2021-08-12T11:48:09.210Z</time>
      </trkpt>
      <trkpt lat="41.18009" lon="44.51918">
        <ele>1250.271342</ele>
        <time>2021-08-12T11:48:39.023Z</time>
      </trkpt>
      <trkpt lat="41.18025" lon="44.51881">
        <ele>1250.463358</ele>
        <time>2021-08-12T11:48:55.409Z</time>
      </trkpt>
      <trkpt lat="41.18016" lon="44.51836">
        <ele>1250.671912</ele>
        <time>2021-08-12T11:49:14.109Z</time>
      </trkpt>
      <trkpt lat="41.17984" lon="44.51798">
        <ele>1250.929017</ele>
        <time>2021-08-12T11:49:38.438Z</time>
      </trkpt>
      <trkpt lat="41.1795" lon="44.51733">
        <ele>1252.552544</ele>
        <time>2021-08-12T11:50:16.584Z</time>
      </trkpt>
      <trkpt lat="41.17923" lon="44.51643">
        <ele>1255.738208</ele>
        <time>2021-08-12T11:51:10.084Z</time>
      </trkpt>
      <trkpt lat="41.17907" lon="44.51553">
        <ele>1258.764615</ele>
        <time>2021-08-12T11:52:09.156Z</time>
      </trkpt>
      <trkpt lat="41.17884" lon="44.51342">
        <ele>1270.723263</ele>
        <time>2021-08-12T11:54:39.325Z</time>
      </trkpt>
      <trkpt lat="41.17848" lon="44.5123">
        <ele>1278.993124</ele>
        <time>2021-08-12T11:56:13.318Z</time>
      </trkpt>
      <trkpt lat="41.17853" lon="44.51206">
        <ele>1280.753661</ele>
        <time>2021-08-12T11:56:32.887Z</time>
      </trkpt>
      <trkpt lat="41.17908" lon="44.51178">
        <ele>1286.422245</ele>
        <time>2021-08-12T11:57:37.540Z</time>
      </trkpt>
      <trkpt lat="41.1793" lon="44.51137">
        <ele>1290.009792</ele>
        <time>2021-08-12T11:58:18.581Z</time>
      </trkpt>
      <trkpt lat="41.17937" lon="44.51114">
        <ele>1291.891998</ele>
        <time>2021-08-12T11:58:38.745Z</time>
      </trkpt>
      <trkpt lat="41.17935" lon="44.51097">
        <ele>1293.200981</ele>
        <time>2021-08-12T11:58:52.775Z</time>
      </trkpt>
      <trkpt lat="41.17924" lon="44.51083">
        <ele>1294.770837</ele>
        <time>2021-08-12T11:59:09.442Z</time>
      </trkpt>
      <trkpt lat="41.17891" lon="44.51077">
        <ele>1298.148271</ele>
        <time>2021-08-12T11:59:45.019Z</time>
      </trkpt>
      <trkpt lat="41.17854" lon="44.51079">
        <ele>1301.808921</ele>
        <time>2021-08-12T12:00:23.968Z</time>
      </trkpt>
      <trkpt lat="41.17846" lon="44.51055">
        <ele>1303.839476</ele>
        <time>2021-08-12T12:00:45.675Z</time>
      </trkpt>
      <trkpt lat="41.17845" lon="44.51031">
        <ele>1305.65477</ele>
        <time>2021-08-12T12:01:05.325Z</time>
      </trkpt>
      <trkpt lat="41.17872" lon="44.50974">
        <ele>1311.19359</ele>
        <time>2021-08-12T12:02:01.567Z</time>
      </trkpt>
      <trkpt lat="41.17915" lon="44.50848">
        <ele>1323.161364</ele>
        <time>2021-08-12T12:04:01.500Z</time>
      </trkpt>
      <trkpt lat="41.17968" lon="44.50771">
        <ele>1332.194703</ele>
        <time>2021-08-12T12:05:40.144Z</time>
      </trkpt>
      <trkpt lat="41.18076" lon="44.50689">
        <ele>1346.465386</ele>
        <time>2021-08-12T12:08:06.613Z</time>
      </trkpt>
      <trkpt lat="41.18086" lon="44.50681">
        <ele>1347.908427</ele>
        <time>2021-08-12T12:08:21.958Z</time>
      </trkpt>
      <trkpt lat="41.18144" lon="44.5069">
        <ele>1352.175034</ele>
        <time>2021-08-12T12:09:19.821Z</time>
      </trkpt>
      <trkpt lat="41.18193" lon="44.5071">
        <ele>1355.472436</ele>
        <time>2021-08-12T12:10:07.233Z</time>
      </trkpt>
      <trkpt lat="41.18201" lon="44.50705">
        <ele>1356.052329</ele>
        <time>2021-08-12T12:10:14.086Z</time>
      </trkpt>
      <trkpt lat="41.18191" lon="44.50691">
        <ele>1357.021673</ele>
        <time>2021-08-12T12:10:25.394Z</time>
      </trkpt>
      <trkpt lat="41.18173" lon="44.50681">
        <ele>1358.306237</ele>
        <time>2021-08-12T12:10:41.398Z</time>
      </trkpt>
      <trkpt lat="41.18123" lon="44.50654">
        <ele>1361.401036</ele>
        <time>2021-08-12T12:11:18.185Z</time>
      </trkpt>
      <trkpt lat="41.18105" lon="44.50618">
        <ele>1362.776827</ele>
        <time>2021-08-12T12:11:42.264Z</time>
      </trkpt>
      <trkpt lat="41.18093" lon="44.50545">
        <ele>1365.106831</ele>
        <time>2021-08-12T12:12:24.754Z</time>
      </trkpt>
      <trkpt lat="41.18078" lon="44.50481">
        <ele>1367.209448</ele>
        <time>2021-08-12T12:13:02.704Z</time>
      </trkpt>
      <trkpt lat="41.18084" lon="44.50457">
        <ele>1367.992477</ele>
        <time>2021-08-12T12:13:18.041Z</time>
      </trkpt>
      <trkpt lat="41.18094" lon="44.50449">
        <ele>1368.59531</ele>
        <time>2021-08-12T12:13:26.229Z</time>
      </trkpt>
      <trkpt lat="41.18106" lon="44.50462">
        <ele>1369.586889</ele>
        <time>2021-08-12T12:13:38.983Z</time>
      </trkpt>
      <trkpt lat="41.18101" lon="44.50489">
        <ele>1370.871956</ele>
        <time>2021-08-12T12:13:54.929Z</time>
      </trkpt>
      <trkpt lat="41.18108" lon="44.50527">
        <ele>1372.735516</ele>
        <time>2021-08-12T12:14:19.714Z</time>
      </trkpt>
      <trkpt lat="41.18135" lon="44.50565">
        <ele>1375.251935</ele>
        <time>2021-08-12T12:14:54.606Z</time>
      </trkpt>
      <trkpt lat="41.18198" lon="44.50605">
        <ele>1379.661568</ele>
        <time>2021-08-12T12:15:58.917Z</time>
      </trkpt>
      <trkpt lat="41.18216" lon="44.50606">
        <ele>1381.459651</ele>
        <time>2021-08-12T12:16:16.809Z</time>
      </trkpt>
      <trkpt lat="41.18228" lon="44.50593">
        <ele>1382.942293</ele>
        <time>2021-08-12T12:16:32.029Z</time>
      </trkpt>
      <trkpt lat="41.18219" lon="44.50569">
        <ele>1384.926503</ele>
        <time>2021-08-12T12:16:52.414Z</time>
      </trkpt>
      <trkpt lat="41.18177" lon="44.50557">
        <ele>1389.07018</ele>
        <time>2021-08-12T12:17:36.448Z</time>
      </trkpt>
      <trkpt lat="41.18164" lon="44.50538">
        <ele>1390.967549</ele>
        <time>2021-08-12T12:17:57.390Z</time>
      </trkpt>
      <trkpt lat="41.18158" lon="44.50511">
        <ele>1393.021432</ele>
        <time>2021-08-12T12:18:20.816Z</time>
      </trkpt>
      <trkpt lat="41.18159" lon="44.50484">
        <ele>1394.975489</ele>
        <time>2021-08-12T12:18:43.791Z</time>
      </trkpt>
      <trkpt lat="41.18171" lon="44.50459">
        <ele>1397.176913</ele>
        <time>2021-08-12T12:19:10.459Z</time>
      </trkpt>
      <trkpt lat="41.18197" lon="44.50444">
        <ele>1400.848181</ele>
        <time>2021-08-12T12:19:45.418Z</time>
      </trkpt>
      <trkpt lat="41.18253" lon="44.50425">
        <ele>1408.223211</ele>
        <time>2021-08-12T12:20:57.335Z</time>
      </trkpt>
      <trkpt lat="41.18276" lon="44.50438">
        <ele>1411.404622</ele>
        <time>2021-08-12T12:21:28.903Z</time>
      </trkpt>
      <trkpt lat="41.18307" lon="44.50473">
        <ele>1416.581856</ele>
        <time>2021-08-12T12:22:19.926Z</time>
      </trkpt>
      <trkpt lat="41.18395" lon="44.50524">
        <ele>1428.696131</ele>
        <time>2021-08-12T12:24:20.738Z</time>
      </trkpt>
      <trkpt lat="41.18433" lon="44.50523">
        <ele>1433.498064</ele>
        <time>2021-08-12T12:25:08.197Z</time>
      </trkpt>
      <trkpt lat="41.18464" lon="44.50501">
        <ele>1437.893848</ele>
        <time>2021-08-12T12:25:50.699Z</time>
      </trkpt>
      <trkpt lat="41.18495" lon="44.50467">
        <ele>1442.794612</ele>
        <time>2021-08-12T12:26:37.009Z</time>
      </trkpt>
      <trkpt lat="41.18575" lon="44.50419">
        <ele>1453.17831</ele>
        <time>2021-08-12T12:28:19.400Z</time>
      </trkpt>
      <trkpt lat="41.18602" lon="44.50394">
        <ele>1457.039685</ele>
        <time>2021-08-12T12:28:58.191Z</time>
      </trkpt>
      <trkpt lat="41.18648" lon="44.50322">
        <ele>1465.373349</ele>
        <time>2021-08-12T12:30:22.636Z</time>
      </trkpt>
      <trkpt lat="41.18708" lon="44.50213">
        <ele>1477.325072</ele>
        <time>2021-08-12T12:32:27.033Z</time>
      </trkpt>
      <trkpt lat="41.18722" lon="44.50207">
        <ele>1479.068355</ele>
        <time>2021-08-12T12:32:44.365Z</time>
      </trkpt>
      <trkpt lat="41.18736" lon="44.50214">
        <ele>1480.832548</ele>
        <time>2021-08-12T12:33:01.839Z</time>
      </trkpt>
      <trkpt lat="41.18772" lon="44.50292">
        <ele>1487.743266</ele>
        <time>2021-08-12T12:34:18.943Z</time>
      </trkpt>
      <trkpt lat="41.18791" lon="44.50345">
        <ele>1491.389244</ele>
        <time>2021-08-12T12:35:04.558Z</time>
      </trkpt>
      <trkpt lat="41.18846" lon="44.5039">
        <ele>1496.680783</ele>
        <time>2021-08-12T12:36:06.106Z</time>
      </trkpt>
      <trkpt lat="41.1887" lon="44.50431">
        <ele>1499.819841</ele>
        <time>2021-08-12T12:36:40.053Z</time>
      </trkpt>
      <trkpt lat="41.18884" lon="44.50529">
        <ele>1503.473019</ele>
        <time>2021-08-12T12:37:38.392Z</time>
      </trkpt>
      <trkpt lat="41.18899" lon="44.5056">
        <ele>1504.832583</ele>
        <time>2021-08-12T12:38:00.096Z</time>
      </trkpt>
      <trkpt lat="41.18946" lon="44.50572">
        <ele>1507.208409</ele>
        <time>2021-08-12T12:38:38.327Z</time>
      </trkpt>
      <trkpt lat="41.18951" lon="44.50559">
        <ele>1507.716919</ele>
        <time>2021-08-12T12:38:46.551Z</time>
      </trkpt>
      <trkpt lat="41.18947" lon="44.50547">
        <ele>1508.19286</ele>
        <time>2021-08-12T12:38:54.089Z</time>
      </trkpt>
      <trkpt lat="41.1892" lon="44.50522">
        <ele>1509.51071</ele>
        <time>2021-08-12T12:39:19.647Z</time>
      </trkpt>
      <trkpt lat="41.18894" lon="44.50391">
        <ele>1513.36527</ele>
        <time>2021-08-12T12:40:35.209Z</time>
      </trkpt>
      <trkpt lat="41.18879" lon="44.50142">
        <ele>1519.135967</ele>
        <time>2021-08-12T12:42:43.979Z</time>
      </trkpt>
      <trkpt lat="41.18858" lon="44.5008">
        <ele>1520.603907</ele>
        <time>2021-08-12T12:43:17.030Z</time>
      </trkpt>
      <trkpt lat="41.18833" lon="44.50054">
        <ele>1521.594394</ele>
        <time>2021-08-12T12:43:37.781Z</time>
      </trkpt>
      <trkpt lat="41.18799" lon="44.49961">
        <ele>1523.974698</ele>
        <time>2021-08-12T12:44:30.138Z</time>
      </trkpt>
      <trkpt lat="41.18763" lon="44.49881">
        <ele>1526.207221</ele>
        <time>2021-08-12T12:45:20.541Z</time>
      </trkpt>
      <trkpt lat="41.18719" lon="44.49669">
        <ele>1533.172459</ele>
        <time>2021-08-12T12:47:28.965Z</time>
      </trkpt>
      <trkpt lat="41.18694" lon="44.49609">
        <ele>1533.853039</ele>
        <time>2021-08-12T12:48:05.826Z</time>
      </trkpt>
      <trkpt lat="41.18697" lon="44.49549">
        <ele>1534.277163</ele>
        <time>2021-08-12T12:48:34.565Z</time>
      </trkpt>
      <trkpt lat="41.18724" lon="44.4945">
        <ele>1535.01176</ele>
        <time>2021-08-12T12:49:14.638Z</time>
      </trkpt>
      <trkpt lat="41.18747" lon="44.4939">
        <ele>1533.744859</ele>
        <time>2021-08-12T12:49:35.810Z</time>
      </trkpt>
      <trkpt lat="41.18764" lon="44.49241">
        <ele>1529.924693</ele>
        <time>2021-08-12T12:50:21.214Z</time>
      </trkpt>
      <trkpt lat="41.18763" lon="44.49211">
        <ele>1529.166238</ele>
        <time>2021-08-12T12:50:30.070Z</time>
      </trkpt>
      <trkpt lat="41.18714" lon="44.49099">
        <ele>1528.462795</ele>
        <time>2021-08-12T12:51:11.635Z</time>
      </trkpt>
      <trkpt lat="41.18692" lon="44.49068">
        <ele>1528.255248</ele>
        <time>2021-08-12T12:51:27.447Z</time>
      </trkpt>
      <trkpt lat="41.18648" lon="44.48941">
        <ele>1530.967937</ele>
        <time>2021-08-12T12:52:37.848Z</time>
      </trkpt>
      <trkpt lat="41.18583" lon="44.48825">
        <ele>1537.463539</ele>
        <time>2021-08-12T12:54:15.591Z</time>
      </trkpt>
      <trkpt lat="41.18547" lon="44.4872">
        <ele>1544.867913</ele>
        <time>2021-08-12T12:55:47.297Z</time>
      </trkpt>
      <trkpt lat="41.1853" lon="44.48606">
        <ele>1553.080491</ele>
        <time>2021-08-12T12:57:23.078Z</time>
      </trkpt>
      <trkpt lat="41.1851" lon="44.48594">
        <ele>1555.051419</ele>
        <time>2021-08-12T12:57:45.235Z</time>
      </trkpt>
      <trkpt lat="41.18474" lon="44.48608">
        <ele>1557.363897</ele>
        <time>2021-08-12T12:58:22.142Z</time>
      </trkpt>
      <trkpt lat="41.1842" lon="44.48677">
        <ele>1561.731722</ele>
        <time>2021-08-12T12:59:27.450Z</time>
      </trkpt>
      <trkpt lat="41.18362" lon="44.48715">
        <ele>1565.456049</ele>
        <time>2021-08-12T13:00:14.834Z</time>
      </trkpt>
      <trkpt lat="41.18322" lon="44.48725">
        <ele>1567.471634</ele>
        <time>2021-08-12T13:00:42.877Z</time>
      </trkpt>
      <trkpt lat="41.18294" lon="44.48715">
        <ele>1568.85046</ele>
        <time>2021-08-12T13:01:02.938Z</time>
      </trkpt>
      <trkpt lat="41.18276" lon="44.48687">
        <ele>1570.171429</ele>
        <time>2021-08-12T13:01:22.445Z</time>
      </trkpt>
      <trkpt lat="41.18247" lon="44.48599">
        <ele>1573.575467</ele>
        <time>2021-08-12T13:02:20.308Z</time>
      </trkpt>
      <trkpt lat="41.18229" lon="44.48525">
        <ele>1578.639471</ele>
        <time>2021-08-12T13:03:17.123Z</time>
      </trkpt>
      <trkpt lat="41.18227" lon="44.48495">
        <ele>1580.922867</ele>
        <time>2021-08-12T13:03:40.930Z</time>
      </trkpt>
      <trkpt lat="41.18263" lon="44.48393">
        <ele>1589.58981</ele>
        <time>2021-08-12T13:05:19.947Z</time>
      </trkpt>
      <trkpt lat="41.18295" lon="44.48227">
        <ele>1603.332154</ele>
        <time>2021-08-12T13:07:53.336Z</time>
      </trkpt>
      <trkpt lat="41.18324" lon="44.48195">
        <ele>1607.404668</ele>
        <time>2021-08-12T13:08:34.896Z</time>
      </trkpt>
      <trkpt lat="41.18382" lon="44.48186">
        <ele>1613.255061</ele>
        <time>2021-08-12T13:09:35.417Z</time>
      </trkpt>
      <trkpt lat="41.18433" lon="44.48197">
        <ele>1617.37108</ele>
        <time>2021-08-12T13:10:26.568Z</time>
      </trkpt>
      <trkpt lat="41.18446" lon="44.48185">
        <ele>1618.631088</ele>
        <time>2021-08-12T13:10:41.310Z</time>
      </trkpt>
      <trkpt lat="41.18438" lon="44.48165">
        <ele>1619.981652</ele>
        <time>2021-08-12T13:10:57.038Z</time>
      </trkpt>
      <trkpt lat="41.18357" lon="44.48135">
        <ele>1626.690679</ele>
        <time>2021-08-12T13:12:11.326Z</time>
      </trkpt>
      <trkpt lat="41.18214" lon="44.48032">
        <ele>1642.987123</ele>
        <time>2021-08-12T13:15:05.274Z</time>
      </trkpt>
      <trkpt lat="41.18206" lon="44.48026">
        <ele>1643.858048</ele>
        <time>2021-08-12T13:15:19.268Z</time>
      </trkpt>
      <trkpt lat="41.18107" lon="44.47961">
        <ele>1657.241731</ele>
        <time>2021-08-12T13:17:35.765Z</time>
      </trkpt>
      <trkpt lat="41.18064" lon="44.47895">
        <ele>1665.324965</ele>
        <time>2021-08-12T13:18:57.151Z</time>
      </trkpt>
      <trkpt lat="41.18048" lon="44.47861">
        <ele>1668.204382</ele>
        <time>2021-08-12T13:19:31.078Z</time>
      </trkpt>
      <trkpt lat="41.18046" lon="44.47833">
        <ele>1669.988886</ele>
        <time>2021-08-12T13:19:53.770Z</time>
      </trkpt>
      <trkpt lat="41.18035" lon="44.47815">
        <ele>1671.466481</ele>
        <time>2021-08-12T13:20:11.978Z</time>
      </trkpt>
      <trkpt lat="41.1801" lon="44.47815">
        <ele>1673.617135</ele>
        <time>2021-08-12T13:20:37.617Z</time>
      </trkpt>
      <trkpt lat="41.17946" lon="44.47851">
        <ele>1679.475573</ele>
        <time>2021-08-12T13:21:41.385Z</time>
      </trkpt>
      <trkpt lat="41.17924" lon="44.47846">
        <ele>1681.373431</ele>
        <time>2021-08-12T13:22:00.845Z</time>
      </trkpt>
      <trkpt lat="41.17893" lon="44.47792">
        <ele>1685.42559</ele>
        <time>2021-08-12T13:22:46.131Z</time>
      </trkpt>
      <trkpt lat="41.17885" lon="44.47766">
        <ele>1687.039644</ele>
        <time>2021-08-12T13:23:04.280Z</time>
      </trkpt>
      <trkpt lat="41.17881" lon="44.47713">
        <ele>1690.184436</ele>
        <time>2021-08-12T13:23:41.280Z</time>
      </trkpt>
      <trkpt lat="41.17884" lon="44.47602">
        <ele>1697.287034</ele>
        <time>2021-08-12T13:25:06.782Z</time>
      </trkpt>
      <trkpt lat="41.17862" lon="44.47541">
        <ele>1703.432917</ele>
        <time>2021-08-12T13:26:05.013Z</time>
      </trkpt>
      <trkpt lat="41.17854" lon="44.4747">
        <ele>1710.001015</ele>
        <time>2021-08-12T13:27:12.334Z</time>
      </trkpt>
      <trkpt lat="41.17871" lon="44.47435">
        <ele>1713.790332</ele>
        <time>2021-08-12T13:27:52.572Z</time>
      </trkpt>
      <trkpt lat="41.17938" lon="44.47377">
        <ele>1723.481395</ele>
        <time>2021-08-12T13:29:35.353Z</time>
      </trkpt>
      <trkpt lat="41.17965" lon="44.47325">
        <ele>1729.352549</ele>
        <time>2021-08-12T13:30:34.846Z</time>
      </trkpt>
      <trkpt lat="41.17968" lon="44.47301">
        <ele>1731.586244</ele>
        <time>2021-08-12T13:30:56.723Z</time>
      </trkpt>
      <trkpt lat="41.17963" lon="44.47273">
        <ele>1734.235379</ele>
        <time>2021-08-12T13:31:21.977Z</time>
      </trkpt>
      <trkpt lat="41.17932" lon="44.47216">
        <ele>1740.334264</ele>
        <time>2021-08-12T13:32:21.142Z</time>
      </trkpt>
      <trkpt lat="41.17928" lon="44.47189">
        <ele>1742.178223</ele>
        <time>2021-08-12T13:32:44.371Z</time>
      </trkpt>
      <trkpt lat="41.17933" lon="44.47147">
        <ele>1744.991566</ele>
        <time>2021-08-12T13:33:18.854Z</time>
      </trkpt>
      <trkpt lat="41.17946" lon="44.47107">
        <ele>1747.847458</ele>
        <time>2021-08-12T13:33:52.238Z</time>
      </trkpt>
      <trkpt lat="41.17987" lon="44.47053">
        <ele>1752.838393</ele>
        <time>2021-08-12T13:34:46.707Z</time>
      </trkpt>
      <trkpt lat="41.18035" lon="44.47003">
        <ele>1757.625814</ele>
        <time>2021-08-12T13:35:41.909Z</time>
      </trkpt>
      <trkpt lat="41.18055" lon="44.46942">
        <ele>1761.234421</ele>
        <time>2021-08-12T13:36:26.865Z</time>
      </trkpt>
      <trkpt lat="41.1807" lon="44.46886">
        <ele>1764.493067</ele>
        <time>2021-08-12T13:37:08.042Z</time>
      </trkpt>
      <trkpt lat="41.1807" lon="44.46865">
        <ele>1765.609588</ele>
        <time>2021-08-12T13:37:22.750Z</time>
      </trkpt>
      <trkpt lat="41.18065" lon="44.46844">
        <ele>1766.824771</ele>
        <time>2021-08-12T13:37:38.117Z</time>
      </trkpt>
      <trkpt lat="41.17979" lon="44.46725">
        <ele>1775.607819</ele>
        <time>2021-08-12T13:39:39.490Z</time>
      </trkpt>
      <trkpt lat="41.17969" lon="44.46686">
        <ele>1777.824448</ele>
        <time>2021-08-12T13:40:08.165Z</time>
      </trkpt>
      <trkpt lat="41.17964" lon="44.46648">
        <ele>1779.893725</ele>
        <time>2021-08-12T13:40:33.494Z</time>
      </trkpt>
      <trkpt lat="41.17951" lon="44.46606">
        <ele>1781.102598</ele>
        <time>2021-08-12T13:41:00.290Z</time>
      </trkpt>
      <trkpt lat="41.17942" lon="44.46566">
        <ele>1781.511713</ele>
        <time>2021-08-12T13:41:24.053Z</time>
      </trkpt>
      <trkpt lat="41.17939" lon="44.46528">
        <ele>1781.873497</ele>
        <time>2021-08-12T13:41:41.366Z</time>
      </trkpt>
      <trkpt lat="41.17967" lon="44.46366">
        <ele>1782.89632</ele>
        <time>2021-08-12T13:42:42.422Z</time>
      </trkpt>
      <trkpt lat="41.17981" lon="44.46286">
        <ele>1782.304389</ele>
        <time>2021-08-12T13:43:08.771Z</time>
      </trkpt>
      <trkpt lat="41.18002" lon="44.46209">
        <ele>1781.716122</ele>
        <time>2021-08-12T13:43:38.704Z</time>
      </trkpt>
      <trkpt lat="41.18029" lon="44.46155">
        <ele>1781.552532</ele>
        <time>2021-08-12T13:44:04.718Z</time>
      </trkpt>
      <trkpt lat="41.18071" lon="44.46106">
        <ele>1781.951995</ele>
        <time>2021-08-12T13:44:36.041Z</time>
      </trkpt>
      <trkpt lat="41.18144" lon="44.46069">
        <ele>1782.505621</ele>
        <time>2021-08-12T13:45:23.004Z</time>
      </trkpt>
      <trkpt lat="41.1816" lon="44.46042">
        <ele>1782.689755</ele>
        <time>2021-08-12T13:45:38.021Z</time>
      </trkpt>
      <trkpt lat="41.18179" lon="44.45984">
        <ele>1781.223101</ele>
        <time>2021-08-12T13:46:02.677Z</time>
      </trkpt>
      <trkpt lat="41.18222" lon="44.45925">
        <ele>1779.222716</ele>
        <time>2021-08-12T13:46:29.708Z</time>
      </trkpt>
      <trkpt lat="41.18246" lon="44.45901">
        <ele>1778.273725</ele>
        <time>2021-08-12T13:46:41.513Z</time>
      </trkpt>
      <trkpt lat="41.18428" lon="44.45669">
        <ele>1759.800689</ele>
        <time>2021-08-12T13:48:11.548Z</time>
      </trkpt>
      <trkpt lat="41.18457" lon="44.45622">
        <ele>1755.27544</ele>
        <time>2021-08-12T13:48:27.370Z</time>
      </trkpt>
      <trkpt lat="41.18479" lon="44.45562">
        <ele>1750.338804</ele>
        <time>2021-08-12T13:48:44.583Z</time>
      </trkpt>
      <trkpt lat="41.18509" lon="44.45506">
        <ele>1745.295539</ele>
        <time>2021-08-12T13:49:02.068Z</time>
      </trkpt>
      <trkpt lat="41.18536" lon="44.45425">
        <ele>1739.202231</ele>
        <time>2021-08-12T13:49:24.670Z</time>
      </trkpt>
      <trkpt lat="41.1856" lon="44.45349">
        <ele>1733.5502</ele>
        <time>2021-08-12T13:49:45.971Z</time>
      </trkpt>
      <trkpt lat="41.18565" lon="44.45291">
        <ele>1729.507901</ele>
        <time>2021-08-12T13:50:02.038Z</time>
      </trkpt>
      <trkpt lat="41.18569" lon="44.45229">
        <ele>1728.075755</ele>
        <time>2021-08-12T13:50:19.890Z</time>
      </trkpt>
      <trkpt lat="41.1857" lon="44.45209">
        <ele>1727.822754</ele>
        <time>2021-08-12T13:50:26.088Z</time>
      </trkpt>
      <trkpt lat="41.18573" lon="44.45167">
        <ele>1727.282559</ele>
        <time>2021-08-12T13:50:39.615Z</time>
      </trkpt>
      <trkpt lat="41.18578" lon="44.45139">
        <ele>1726.904248</ele>
        <time>2021-08-12T13:50:49.469Z</time>
      </trkpt>
      <trkpt lat="41.1858" lon="44.45108">
        <ele>1726.511366</ele>
        <time>2021-08-12T13:51:02.104Z</time>
      </trkpt>
      <trkpt lat="41.18593" lon="44.45097">
        <ele>1726.241141</ele>
        <time>2021-08-12T13:51:10.263Z</time>
      </trkpt>
      <trkpt lat="41.1867" lon="44.45097">
        <ele>1726.267504</ele>
        <time>2021-08-12T13:52:02.466Z</time>
      </trkpt>
      <trkpt lat="41.18817" lon="44.45133">
        <ele>1727.810386</ele>
        <time>2021-08-12T13:53:34.610Z</time>
      </trkpt>
      <trkpt lat="41.1884" lon="44.45134">
        <ele>1727.016579</ele>
        <time>2021-08-12T13:53:43.801Z</time>
      </trkpt>
      <trkpt lat="41.18862" lon="44.45135">
        <ele>1726.244082</ele>
        <time>2021-08-12T13:53:52.918Z</time>
      </trkpt>
      <trkpt lat="41.189" lon="44.45126">
        <ele>1724.879751</ele>
        <time>2021-08-12T13:54:08.594Z</time>
      </trkpt>
      <trkpt lat="41.18908" lon="44.4512">
        <ele>1724.540005</ele>
        <time>2021-08-12T13:54:12.569Z</time>
      </trkpt>
      <trkpt lat="41.18911" lon="44.45102">
        <ele>1724.051346</ele>
        <time>2021-08-12T13:54:18.507Z</time>
      </trkpt>
      <trkpt lat="41.18907" lon="44.45087">
        <ele>1723.609112</ele>
        <time>2021-08-12T13:54:22.980Z</time>
      </trkpt>
      <trkpt lat="41.18894" lon="44.4508">
        <ele>1723.113167</ele>
        <time>2021-08-12T13:54:28.427Z</time>
      </trkpt>
      <trkpt lat="41.18809" lon="44.45061">
        <ele>1717.949913</ele>
        <time>2021-08-12T13:55:00.210Z</time>
      </trkpt>
      <trkpt lat="41.18774" lon="44.45045">
        <ele>1715.111097</ele>
        <time>2021-08-12T13:55:13.381Z</time>
      </trkpt>
      <trkpt lat="41.18749" lon="44.45041">
        <ele>1713.187286</ele>
        <time>2021-08-12T13:55:22.165Z</time>
      </trkpt>
      <trkpt lat="41.18707" lon="44.45034">
        <ele>1709.97871</ele>
        <time>2021-08-12T13:55:37.252Z</time>
      </trkpt>
      <trkpt lat="41.18666" lon="44.45009">
        <ele>1706.106908</ele>
        <time>2021-08-12T13:55:53.281Z</time>
      </trkpt>
      <trkpt lat="41.1858" lon="44.44974">
        <ele>1697.753396</ele>
        <time>2021-08-12T13:56:23.959Z</time>
      </trkpt>
      <trkpt lat="41.18551" lon="44.44951">
        <ele>1694.563236</ele>
        <time>2021-08-12T13:56:35.690Z</time>
      </trkpt>
      <trkpt lat="41.18498" lon="44.44931">
        <ele>1689.744609</ele>
        <time>2021-08-12T13:56:54.622Z</time>
      </trkpt>
      <trkpt lat="41.1832" lon="44.44834">
        <ele>1675.544635</ele>
        <time>2021-08-12T13:58:04.083Z</time>
      </trkpt>
      <trkpt lat="41.18147" lon="44.44732">
        <ele>1665.077748</ele>
        <time>2021-08-12T13:59:16.376Z</time>
      </trkpt>
      <trkpt lat="41.18108" lon="44.44698">
        <ele>1662.76674</ele>
        <time>2021-08-12T13:59:34.009Z</time>
      </trkpt>
      <trkpt lat="41.1804" lon="44.44649">
        <ele>1658.880494</ele>
        <time>2021-08-12T14:00:03.570Z</time>
      </trkpt>
      <trkpt lat="41.17789" lon="44.44478">
        <ele>1649.874094</ele>
        <time>2021-08-12T14:01:57.801Z</time>
      </trkpt>
      <trkpt lat="41.17636" lon="44.44344">
        <ele>1647.909097</ele>
        <time>2021-08-12T14:03:34.083Z</time>
      </trkpt>
      <trkpt lat="41.17566" lon="44.44293">
        <ele>1647.568575</ele>
        <time>2021-08-12T14:04:13.352Z</time>
      </trkpt>
      <trkpt lat="41.1745" lon="44.44232">
        <ele>1645.015838</ele>
        <time>2021-08-12T14:05:08.190Z</time>
      </trkpt>
      <trkpt lat="41.17328" lon="44.44195">
        <ele>1641.841522</ele>
        <time>2021-08-12T14:06:00.778Z</time>
      </trkpt>
      <trkpt lat="41.17095" lon="44.44146">
        <ele>1634.357027</ele>
        <time>2021-08-12T14:07:38.759Z</time>
      </trkpt>
      <trkpt lat="41.16957" lon="44.44097">
        <ele>1629.562987</ele>
        <time>2021-08-12T14:08:36.063Z</time>
      </trkpt>
      <trkpt lat="41.16636" lon="44.44043">
        <ele>1620.604678</ele>
        <time>2021-08-12T14:10:51.658Z</time>
      </trkpt>
      <trkpt lat="41.16425" lon="44.43996">
        <ele>1617.555265</ele>
        <time>2021-08-12T14:12:33.087Z</time>
      </trkpt>
      <trkpt lat="41.16364" lon="44.43985">
        <ele>1616.762005</ele>
        <time>2021-08-12T14:13:01.557Z</time>
      </trkpt>
      <trkpt lat="41.16346" lon="44.43985">
        <ele>1616.528636</ele>
        <time>2021-08-12T14:13:09.658Z</time>
      </trkpt>
      <trkpt lat="41.16283" lon="44.43993">
        <ele>1615.326595</ele>
        <time>2021-08-12T14:13:37.908Z</time>
      </trkpt>
      <trkpt lat="41.16195" lon="44.44015">
        <ele>1613.368816</ele>
        <time>2021-08-12T14:14:16.122Z</time>
      </trkpt>
      <trkpt lat="41.16144" lon="44.44036">
        <ele>1612.155362</ele>
        <time>2021-08-12T14:14:39.475Z</time>
      </trkpt>
      <trkpt lat="41.16093" lon="44.44038">
        <ele>1610.840652</ele>
        <time>2021-08-12T14:15:01.239Z</time>
      </trkpt>
      <trkpt lat="41.15991" lon="44.44069">
        <ele>1608.154399</ele>
        <time>2021-08-12T14:15:45.511Z</time>
      </trkpt>
      <trkpt lat="41.15771" lon="44.44121">
        <ele>1602.773584</ele>
        <time>2021-08-12T14:17:21.313Z</time>
      </trkpt>
      <trkpt lat="41.15662" lon="44.44173">
        <ele>1600.482416</ele>
        <time>2021-08-12T14:18:12.451Z</time>
      </trkpt>
      <trkpt lat="41.15583" lon="44.44196">
        <ele>1599.107965</ele>
        <time>2021-08-12T14:18:48.621Z</time>
      </trkpt>
      <trkpt lat="41.15447" lon="44.44256">
        <ele>1597.025256</ele>
        <time>2021-08-12T14:19:54.362Z</time>
      </trkpt>
      <trkpt lat="41.15306" lon="44.44307">
        <ele>1595.23169</ele>
        <time>2021-08-12T14:21:01.861Z</time>
      </trkpt>
      <trkpt lat="41.15182" lon="44.44362">
        <ele>1593.849032</ele>
        <time>2021-08-12T14:22:03.909Z</time>
      </trkpt>
      <trkpt lat="41.15087" lon="44.44396">
        <ele>1592.717922</ele>
        <time>2021-08-12T14:22:50.777Z</time>
      </trkpt>
      <trkpt lat="41.15061" lon="44.444">
        <ele>1592.286269</ele>
        <time>2021-08-12T14:23:02.547Z</time>
      </trkpt>
      <trkpt lat="41.15035" lon="44.444">
        <ele>1591.850287</ele>
        <time>2021-08-12T14:23:14.301Z</time>
      </trkpt>
      <trkpt lat="41.14945" lon="44.44371">
        <ele>1590.278294</ele>
        <time>2021-08-12T14:23:55.557Z</time>
      </trkpt>
      <trkpt lat="41.14881" lon="44.44364">
        <ele>1588.988195</ele>
        <time>2021-08-12T14:24:23.147Z</time>
      </trkpt>
      <trkpt lat="41.14882" lon="44.44287">
        <ele>1587.76763</ele>
        <time>2021-08-12T14:24:37.756Z</time>
      </trkpt>
      <trkpt lat="41.14792" lon="44.44283">
        <ele>1586.009534</ele>
        <time>2021-08-12T14:25:01.154Z</time>
      </trkpt>
      <trkpt lat="41.14788" lon="44.44251">
        <ele>1585.688352</ele>
        <time>2021-08-12T14:25:07.927Z</time>
      </trkpt>
      <trkpt lat="41.14686" lon="44.44257">
        <ele>1584.365647</ele>
        <time>2021-08-12T14:25:36.551Z</time>
      </trkpt>
      <trkpt lat="41.14592" lon="44.44261">
        <ele>1582.990372</ele>
        <time>2021-08-12T14:26:02.532Z</time>
      </trkpt>
      <trkpt lat="41.14503" lon="44.44269">
        <ele>1581.571517</ele>
        <time>2021-08-12T14:26:26.104Z</time>
      </trkpt>
      <trkpt lat="41.14426" lon="44.44264">
        <ele>1580.552743</ele>
        <time>2021-08-12T14:26:45.829Z</time>
      </trkpt>
      <trkpt lat="41.14409" lon="44.44101">
        <ele>1579.141779</ele>
        <time>2021-08-12T14:27:20.654Z</time>
      </trkpt>
      <trkpt lat="41.14405" lon="44.44101">
        <ele>1579.101913</ele>
        <time>2021-08-12T14:27:21.806Z</time>
      </trkpt>
      <trkpt lat="41.14377" lon="44.44101">
        <ele>1579.090351</ele>
        <time>2021-08-12T14:27:30.954Z</time>
      </trkpt>
      <trkpt lat="41.14374" lon="44.44101">
        <ele>1579.099345</ele>
        <time>2021-08-12T14:27:31.777Z</time>
      </trkpt>
      <trkpt lat="41.14335" lon="44.44089">
        <ele>1579.244504</ele>
        <time>2021-08-12T14:27:45.648Z</time>
      </trkpt>
      <trkpt lat="41.14314" lon="44.44079">
        <ele>1579.326002</ele>
        <time>2021-08-12T14:27:53.507Z</time>
      </trkpt>
      <trkpt lat="41.14251" lon="44.44046">
        <ele>1579.568872</ele>
        <time>2021-08-12T14:28:17.994Z</time>
      </trkpt>
      <trkpt lat="41.14242" lon="44.44045">
        <ele>1579.600515</ele>
        <time>2021-08-12T14:28:21.207Z</time>
      </trkpt>
      <trkpt lat="41.14155" lon="44.44035">
        <ele>1579.890959</ele>
        <time>2021-08-12T14:28:53.178Z</time>
      </trkpt>
      <trkpt lat="41.14057" lon="44.44024">
        <ele>1580.207907</ele>
        <time>2021-08-12T14:29:25.002Z</time>
      </trkpt>
      <trkpt lat="41.1388" lon="44.43947">
        <ele>1580.635699</ele>
        <time>2021-08-12T14:30:27.453Z</time>
      </trkpt>
      <trkpt lat="41.13708" lon="44.43869">
        <ele>1581.852606</ele>
        <time>2021-08-12T14:31:33.458Z</time>
      </trkpt>
      <trkpt lat="41.13459" lon="44.43702">
        <ele>1584.179813</ele>
        <time>2021-08-12T14:33:18.426Z</time>
      </trkpt>
      <trkpt lat="41.13284" lon="44.43635">
        <ele>1584.270222</ele>
        <time>2021-08-12T14:34:22.014Z</time>
      </trkpt>
      <trkpt lat="41.12878" lon="44.43461">
        <ele>1578.03741</ele>
        <time>2021-08-12T14:36:15.176Z</time>
      </trkpt>
      <trkpt lat="41.12658" lon="44.4345">
        <ele>1573.072426</ele>
        <time>2021-08-12T14:37:11.066Z</time>
      </trkpt>
      <trkpt lat="41.12529" lon="44.43315">
        <ele>1568.473856</ele>
        <time>2021-08-12T14:37:50.877Z</time>
      </trkpt>
      <trkpt lat="41.12308" lon="44.43132">
        <ele>1561.233987</ele>
        <time>2021-08-12T14:38:53.738Z</time>
      </trkpt>
      <trkpt lat="41.12141" lon="44.43073">
        <ele>1558.107365</ele>
        <time>2021-08-12T14:39:39.744Z</time>
      </trkpt>
      <trkpt lat="41.12029" lon="44.43017">
        <ele>1556.661466</ele>
        <time>2021-08-12T14:40:13.684Z</time>
      </trkpt>
      <trkpt lat="41.1187" lon="44.42916">
        <ele>1554.752879</ele>
        <time>2021-08-12T14:41:03.246Z</time>
      </trkpt>
      <trkpt lat="41.11749" lon="44.42802">
        <ele>1552.593057</ele>
        <time>2021-08-12T14:41:43.350Z</time>
      </trkpt>
      <trkpt lat="41.11651" lon="44.42699">
        <ele>1550.298341</ele>
        <time>2021-08-12T14:42:16.079Z</time>
      </trkpt>
      <trkpt lat="41.11265" lon="44.42269">
        <ele>1540.295344</ele>
        <time>2021-08-12T14:44:26.027Z</time>
      </trkpt>
      <trkpt lat="41.11113" lon="44.42098">
        <ele>1536.72372</ele>
        <time>2021-08-12T14:45:18.113Z</time>
      </trkpt>
      <trkpt lat="41.10898" lon="44.41888">
        <ele>1532.527569</ele>
        <time>2021-08-12T14:46:29.891Z</time>
      </trkpt>
      <trkpt lat="41.1076" lon="44.41787">
        <ele>1530.140825</ele>
        <time>2021-08-12T14:47:12.580Z</time>
      </trkpt>
      <trkpt lat="41.10619" lon="44.41564">
        <ele>1525.713099</ele>
        <time>2021-08-12T14:48:09.485Z</time>
      </trkpt>
      <trkpt lat="41.10364" lon="44.41221">
        <ele>1515.857096</ele>
        <time>2021-08-12T14:49:37.715Z</time>
      </trkpt>
      <trkpt lat="41.10319" lon="44.41182">
        <ele>1514.887642</ele>
        <time>2021-08-12T14:49:51.632Z</time>
      </trkpt>
      <trkpt lat="41.10155" lon="44.411">
        <ele>1512.590514</ele>
        <time>2021-08-12T14:50:39.784Z</time>
      </trkpt>
      <trkpt lat="41.10141" lon="44.41094">
        <ele>1512.487368</ele>
        <time>2021-08-12T14:50:44.303Z</time>
      </trkpt>
      <trkpt lat="41.09991" lon="44.41035">
        <ele>1511.80491</ele>
        <time>2021-08-12T14:51:32.874Z</time>
      </trkpt>
      <trkpt lat="41.09819" lon="44.40968">
        <ele>1511.251575</ele>
        <time>2021-08-12T14:52:30.907Z</time>
      </trkpt>
      <trkpt lat="41.09762" lon="44.4094">
        <ele>1510.836204</ele>
        <time>2021-08-12T14:52:49.149Z</time>
      </trkpt>
      <trkpt lat="41.09641" lon="44.40823">
        <ele>1508.308234</ele>
        <time>2021-08-12T14:53:29.164Z</time>
      </trkpt>
      <trkpt lat="41.09446" lon="44.40611">
        <ele>1500.304017</ele>
        <time>2021-08-12T14:54:29.439Z</time>
      </trkpt>
      <trkpt lat="41.09384" lon="44.40366">
        <ele>1490.063154</ele>
        <time>2021-08-12T14:55:11.743Z</time>
      </trkpt>
      <trkpt lat="41.09387" lon="44.40314">
        <ele>1488.632185</ele>
        <time>2021-08-12T14:55:20.475Z</time>
      </trkpt>
      <trkpt lat="41.0939" lon="44.40221">
        <ele>1486.085571</ele>
        <time>2021-08-12T14:55:36.806Z</time>
      </trkpt>
      <trkpt lat="41.09394" lon="44.40134">
        <ele>1483.678757</ele>
        <time>2021-08-12T14:55:53.120Z</time>
      </trkpt>
      <trkpt lat="41.09397" lon="44.40085">
        <ele>1483.092726</ele>
        <time>2021-08-12T14:56:03.134Z</time>
      </trkpt>
      <trkpt lat="41.09387" lon="44.40063">
        <ele>1482.805874</ele>
        <time>2021-08-12T14:56:08.808Z</time>
      </trkpt>
      <trkpt lat="41.09224" lon="44.39886">
        <ele>1479.85642</ele>
        <time>2021-08-12T14:57:04.060Z</time>
      </trkpt>
      <trkpt lat="41.09034" lon="44.39679">
        <ele>1476.804903</ele>
        <time>2021-08-12T14:58:07.949Z</time>
      </trkpt>
      <trkpt lat="41.0894" lon="44.39613">
        <ele>1476.327823</ele>
        <time>2021-08-12T14:58:38.623Z</time>
      </trkpt>
      <trkpt lat="41.08705" lon="44.39447">
        <ele>1476.246211</ele>
        <time>2021-08-12T15:00:03.441Z</time>
      </trkpt>
      <trkpt lat="41.08518" lon="44.39335">
        <ele>1475.423327</ele>
        <time>2021-08-12T15:01:03.401Z</time>
      </trkpt>
      <trkpt lat="41.08291" lon="44.39224">
        <ele>1472.45265</ele>
        <time>2021-08-12T15:02:08.437Z</time>
      </trkpt>
      <trkpt lat="41.07919" lon="44.3911">
        <ele>1465.475799</ele>
        <time>2021-08-12T15:03:42.097Z</time>
      </trkpt>
      <trkpt lat="41.07889" lon="44.39103">
        <ele>1464.921953</ele>
        <time>2021-08-12T15:03:49.554Z</time>
      </trkpt>
      <trkpt lat="41.07417" lon="44.39005">
        <ele>1457.460303</ele>
        <time>2021-08-12T15:05:52.362Z</time>
      </trkpt>
      <trkpt lat="41.07369" lon="44.38994">
        <ele>1456.556528</ele>
        <time>2021-08-12T15:06:04.553Z</time>
      </trkpt>
      <trkpt lat="41.07166" lon="44.38949">
        <ele>1452.74821</ele>
        <time>2021-08-12T15:06:54.979Z</time>
      </trkpt>
      <trkpt lat="41.06901" lon="44.38891">
        <ele>1448.789317</ele>
        <time>2021-08-12T15:08:04.596Z</time>
      </trkpt>
      <trkpt lat="41.06458" lon="44.38748">
        <ele>1442.71492</ele>
        <time>2021-08-12T15:10:02.597Z</time>
      </trkpt>
      <trkpt lat="41.06209" lon="44.38632">
        <ele>1440.714812</ele>
        <time>2021-08-12T15:11:17.912Z</time>
      </trkpt>
      <trkpt lat="41.06142" lon="44.38602">
        <ele>1439.949405</ele>
        <time>2021-08-12T15:11:36.880Z</time>
      </trkpt>
      <trkpt lat="41.05836" lon="44.38447">
        <ele>1436.051004</ele>
        <time>2021-08-12T15:13:00.971Z</time>
      </trkpt>
      <trkpt lat="41.05435" lon="44.38303">
        <ele>1433.534879</ele>
        <time>2021-08-12T15:15:01.141Z</time>
      </trkpt>
      <trkpt lat="41.04909" lon="44.38073">
        <ele>1431.595237</ele>
        <time>2021-08-12T15:17:43.600Z</time>
      </trkpt>
      <trkpt lat="41.04435" lon="44.37996">
        <ele>1431.367508</ele>
        <time>2021-08-12T15:20:10.350Z</time>
      </trkpt>
      <trkpt lat="41.04245" lon="44.38046">
        <ele>1431.567856</ele>
        <time>2021-08-12T15:21:13.739Z</time>
      </trkpt>
      <trkpt lat="41.04215" lon="44.38054">
        <ele>1431.595908</ele>
        <time>2021-08-12T15:21:23.758Z</time>
      </trkpt>
      <trkpt lat="41.03978" lon="44.3811">
        <ele>1430.789916</ele>
        <time>2021-08-12T15:22:34.522Z</time>
      </trkpt>
      <trkpt lat="41.03602" lon="44.38172">
        <ele>1427.209412</ele>
        <time>2021-08-12T15:24:16.097Z</time>
      </trkpt>
      <trkpt lat="41.03134" lon="44.3819">
        <ele>1424.570642</ele>
        <time>2021-08-12T15:26:29.856Z</time>
      </trkpt>
      <trkpt lat="41.03015" lon="44.38158">
        <ele>1424.371318</ele>
        <time>2021-08-12T15:27:05.682Z</time>
      </trkpt>
      <trkpt lat="41.02878" lon="44.38121">
        <ele>1424.674365</ele>
        <time>2021-08-12T15:27:50.828Z</time>
      </trkpt>
      <trkpt lat="41.02591" lon="44.38402">
        <ele>1426.981928</ele>
        <time>2021-08-12T15:30:00.338Z</time>
      </trkpt>
      <trkpt lat="41.02527" lon="44.38465">
        <ele>1426.562309</ele>
        <time>2021-08-12T15:30:23.227Z</time>
      </trkpt>
      <trkpt lat="41.02538" lon="44.38484">
        <ele>1426.469674</ele>
        <time>2021-08-12T15:30:29.591Z</time>
      </trkpt>
      <trkpt lat="41.02626" lon="44.38521">
        <ele>1425.102873</ele>
        <time>2021-08-12T15:31:10.507Z</time>
      </trkpt>
      <trkpt lat="41.02705" lon="44.38579">
        <ele>1423.104796</ele>
        <time>2021-08-12T15:31:48.672Z</time>
      </trkpt>
      <trkpt lat="41.02741" lon="44.38569">
        <ele>1422.316617</ele>
        <time>2021-08-12T15:32:04.334Z</time>
      </trkpt>
      <trkpt lat="41.02809" lon="44.38598">
        <ele>1422.596169</ele>
        <time>2021-08-12T15:32:38.834Z</time>
      </trkpt>
      <trkpt lat="41.02741" lon="44.38569">
        <ele>1422.876026</ele>
        <time>2021-08-12T15:33:19.371Z</time>
      </trkpt>
      <trkpt lat="41.02705" lon="44.38579">
        <ele>1423.015836</ele>
        <time>2021-08-12T15:33:42.408Z</time>
      </trkpt>
      <trkpt lat="41.02626" lon="44.38521">
        <ele>1425.427553</ele>
        <time>2021-08-12T15:34:45.421Z</time>
      </trkpt>
      <trkpt lat="41.02538" lon="44.38484">
        <ele>1427.788297</ele>
        <time>2021-08-12T15:35:48.950Z</time>
      </trkpt>
      <trkpt lat="41.02527" lon="44.38465">
        <ele>1427.827659</ele>
        <time>2021-08-12T15:35:58.543Z</time>
      </trkpt>
      <trkpt lat="41.02382" lon="44.38579">
        <ele>1427.802987</ele>
        <time>2021-08-12T15:36:51.583Z</time>
      </trkpt>
      <trkpt lat="41.02326" lon="44.38628">
        <ele>1425.312953</ele>
        <time>2021-08-12T15:37:06.558Z</time>
      </trkpt>
      <trkpt lat="41.02274" lon="44.38672">
        <ele>1422.997229</ele>
        <time>2021-08-12T15:37:19.807Z</time>
      </trkpt>
      <trkpt lat="41.02252" lon="44.38678">
        <ele>1422.160511</ele>
        <time>2021-08-12T15:37:24.467Z</time>
      </trkpt>
      <trkpt lat="41.02198" lon="44.38669">
        <ele>1419.914866</ele>
        <time>2021-08-12T15:37:36.041Z</time>
      </trkpt>
      <trkpt lat="41.02196" lon="44.38682">
        <ele>1419.503327</ele>
        <time>2021-08-12T15:37:39.655Z</time>
      </trkpt>
      <trkpt lat="41.02191" lon="44.38704">
        <ele>1418.75939</ele>
        <time>2021-08-12T15:37:46.641Z</time>
      </trkpt>
      <trkpt lat="41.02184" lon="44.38712">
        <ele>1418.361578</ele>
        <time>2021-08-12T15:37:50.318Z</time>
      </trkpt>
      <trkpt lat="41.02136" lon="44.38717">
        <ele>1416.321338</ele>
        <time>2021-08-12T15:38:08.985Z</time>
      </trkpt>
      <trkpt lat="41.02122" lon="44.38732">
        <ele>1415.55184</ele>
        <time>2021-08-12T15:38:16.243Z</time>
      </trkpt>
      <trkpt lat="41.02043" lon="44.39045">
        <ele>1407.803715</ele>
        <time>2021-08-12T15:40:00.981Z</time>
      </trkpt>
      <trkpt lat="41.02035" lon="44.391">
        <ele>1406.703084</ele>
        <time>2021-08-12T15:40:19.016Z</time>
      </trkpt>
      <trkpt lat="41.02031" lon="44.39111">
        <ele>1406.458447</ele>
        <time>2021-08-12T15:40:22.964Z</time>
      </trkpt>
      <trkpt lat="41.0201" lon="44.39131">
        <ele>1405.787638</ele>
        <time>2021-08-12T15:40:34.050Z</time>
      </trkpt>
      <trkpt lat="41.02006" lon="44.39147">
        <ele>1405.467611</ele>
        <time>2021-08-12T15:40:39.257Z</time>
      </trkpt>
      <trkpt lat="41.01965" lon="44.39157">
        <ele>1404.381623</ele>
        <time>2021-08-12T15:40:49.645Z</time>
      </trkpt>
      <trkpt lat="41.0186" lon="44.39169">
        <ele>1402.117908</ele>
        <time>2021-08-12T15:41:16.135Z</time>
      </trkpt>
      <trkpt lat="41.018" lon="44.39159">
        <ele>1400.888697</ele>
        <time>2021-08-12T15:41:31.889Z</time>
      </trkpt>
      <trkpt lat="41.01789" lon="44.39262">
        <ele>1399.391667</ele>
        <time>2021-08-12T15:41:52.995Z</time>
      </trkpt>
      <trkpt lat="41.01783" lon="44.39366">
        <ele>1397.948994</ele>
        <time>2021-08-12T15:42:14.005Z</time>
      </trkpt>
      <trkpt lat="41.0178" lon="44.39459">
        <ele>1396.55864</ele>
        <time>2021-08-12T15:42:31.930Z</time>
      </trkpt>
      <trkpt lat="41.0177" lon="44.39459">
        <ele>1396.281507</ele>
        <time>2021-08-12T15:42:34.483Z</time>
      </trkpt>
      <trkpt lat="41.01676" lon="44.39459">
        <ele>1393.707773</ele>
        <time>2021-08-12T15:42:57.400Z</time>
      </trkpt>
      <trkpt lat="41.01557" lon="44.39456">
        <ele>1390.701473</ele>
        <time>2021-08-12T15:43:26.133Z</time>
      </trkpt>
      <trkpt lat="41.01556" lon="44.3954">
        <ele>1389.270957</ele>
        <time>2021-08-12T15:43:41.750Z</time>
      </trkpt>
      <trkpt lat="41.01554" lon="44.39634">
        <ele>1387.725238</ele>
        <time>2021-08-12T15:43:59.493Z</time>
      </trkpt>
      <trkpt lat="41.01552" lon="44.39722">
        <ele>1386.614529</ele>
        <time>2021-08-12T15:44:16.346Z</time>
      </trkpt>
      <trkpt lat="41.01549" lon="44.39843">
        <ele>1385.100641</ele>
        <time>2021-08-12T15:44:39.609Z</time>
      </trkpt>
      <trkpt lat="41.01547" lon="44.39931">
        <ele>1384.451141</ele>
        <time>2021-08-12T15:44:56.685Z</time>
      </trkpt>
      <trkpt lat="41.01546" lon="44.39986">
        <ele>1384.108645</ele>
        <time>2021-08-12T15:45:07.515Z</time>
      </trkpt>
      <trkpt lat="41.01544" lon="44.40102">
        <ele>1383.44113</ele>
        <time>2021-08-12T15:45:33.709Z</time>
      </trkpt>
      <trkpt lat="41.01543" lon="44.40151">
        <ele>1383.56215</ele>
        <time>2021-08-12T15:45:45.918Z</time>
      </trkpt>
      <trkpt lat="41.01542" lon="44.40236">
        <ele>1383.76996</ele>
        <time>2021-08-12T15:46:07.786Z</time>
      </trkpt>
      <trkpt lat="41.01537" lon="44.4055">
        <ele>1384.546327</ele>
        <time>2021-08-12T15:47:27.118Z</time>
      </trkpt>
      <trkpt lat="41.01534" lon="44.40672">
        <ele>1384.402605</ele>
        <time>2021-08-12T15:47:55.219Z</time>
      </trkpt>
      <trkpt lat="41.01531" lon="44.4082">
        <ele>1384.03778</ele>
        <time>2021-08-12T15:48:28.153Z</time>
      </trkpt>
      <trkpt lat="41.01533" lon="44.40971">
        <ele>1382.520624</ele>
        <time>2021-08-12T15:48:59.715Z</time>
      </trkpt>
      <trkpt lat="41.01532" lon="44.41128">
        <ele>1380.203834</ele>
        <time>2021-08-12T15:49:28.265Z</time>
      </trkpt>
      <trkpt lat="41.01536" lon="44.41169">
        <ele>1379.406944</ele>
        <time>2021-08-12T15:49:35.250Z</time>
      </trkpt>
      <trkpt lat="41.01535" lon="44.41221">
        <ele>1378.403942</ele>
        <time>2021-08-12T15:49:43.912Z</time>
      </trkpt>
      <trkpt lat="41.01548" lon="44.41276">
        <ele>1377.27735</ele>
        <time>2021-08-12T15:49:54.092Z</time>
      </trkpt>
      <trkpt lat="41.01608" lon="44.41408">
        <ele>1377.839768</ele>
        <time>2021-08-12T15:50:28.989Z</time>
      </trkpt>
      <trkpt lat="41.01626" lon="44.41446">
        <ele>1378.063802</ele>
        <time>2021-08-12T15:50:43.694Z</time>
      </trkpt>
      <trkpt lat="41.01661" lon="44.4153">
        <ele>1379.378671</ele>
        <time>2021-08-12T15:51:18.124Z</time>
      </trkpt>
      <trkpt lat="41.01679" lon="44.41582">
        <ele>1380.654128</ele>
        <time>2021-08-12T15:51:41.317Z</time>
      </trkpt>
      <trkpt lat="41.01688" lon="44.41611">
        <ele>1381.34617</ele>
        <time>2021-08-12T15:51:54.455Z</time>
      </trkpt>
      <trkpt lat="41.01689" lon="44.4164">
        <ele>1381.985933</ele>
        <time>2021-08-12T15:52:05.203Z</time>
      </trkpt>
      <trkpt lat="41.01675" lon="44.41764">
        <ele>1384.061916</ele>
        <time>2021-08-12T15:52:45.770Z</time>
      </trkpt>
      <trkpt lat="41.01663" lon="44.41828">
        <ele>1384.618429</ele>
        <time>2021-08-12T15:53:02.969Z</time>
      </trkpt>
      <trkpt lat="41.01597" lon="44.42125">
        <ele>1386.843893</ele>
        <time>2021-08-12T15:54:26.270Z</time>
      </trkpt>
      <trkpt lat="41.01515" lon="44.42461">
        <ele>1389.141463</ele>
        <time>2021-08-12T15:56:03.588Z</time>
      </trkpt>
      <trkpt lat="41.01433" lon="44.42869">
        <ele>1390.831255</ele>
        <time>2021-08-12T15:57:52.648Z</time>
      </trkpt>
      <trkpt lat="41.01272" lon="44.4347">
        <ele>1390.354634</ele>
        <time>2021-08-12T16:00:20.186Z</time>
      </trkpt>
      <trkpt lat="41.0125" lon="44.43583">
        <ele>1390.015091</ele>
        <time>2021-08-12T16:00:45.841Z</time>
      </trkpt>
      <trkpt lat="41.01223" lon="44.43777">
        <ele>1389.069621</ele>
        <time>2021-08-12T16:01:27.974Z</time>
      </trkpt>
      <trkpt lat="41.01207" lon="44.43964">
        <ele>1387.350482</ele>
        <time>2021-08-12T16:02:06.019Z</time>
      </trkpt>
      <trkpt lat="41.01126" lon="44.45423">
        <ele>1365.219192</ele>
        <time>2021-08-12T16:06:38.068Z</time>
      </trkpt>
      <trkpt lat="41.01119" lon="44.4549">
        <ele>1364.611654</ele>
        <time>2021-08-12T16:06:50.504Z</time>
      </trkpt>
      <trkpt lat="41.01106" lon="44.45539">
        <ele>1364.183547</ele>
        <time>2021-08-12T16:07:00.864Z</time>
      </trkpt>
      <trkpt lat="41.01068" lon="44.45645">
        <ele>1363.228041</ele>
        <time>2021-08-12T16:07:25.590Z</time>
      </trkpt>
      <trkpt lat="41.01059" lon="44.45669">
        <ele>1363.286194</ele>
        <time>2021-08-12T16:07:31.488Z</time>
      </trkpt>
      <trkpt lat="41.01036" lon="44.45722">
        <ele>1363.751547</ele>
        <time>2021-08-12T16:07:46.357Z</time>
      </trkpt>
      <trkpt lat="41.00977" lon="44.45861">
        <ele>1364.966209</ele>
        <time>2021-08-12T16:08:34.679Z</time>
      </trkpt>
      <trkpt lat="41.00975" lon="44.45865">
        <ele>1365.047153</ele>
        <time>2021-08-12T16:08:36.163Z</time>
      </trkpt>
      <trkpt lat="41.00983" lon="44.45874">
        <ele>1365.257548</ele>
        <time>2021-08-12T16:08:40.714Z</time>
      </trkpt>
      <trkpt lat="41.00989" lon="44.45885">
        <ele>1365.465124</ele>
        <time>2021-08-12T16:08:44.947Z</time>
      </trkpt>
      <trkpt lat="41.00992" lon="44.45892">
        <ele>1365.579456</ele>
        <time>2021-08-12T16:08:47.345Z</time>
      </trkpt>
      <trkpt lat="41.01016" lon="44.46124">
        <ele>1369.173828</ele>
        <time>2021-08-12T16:10:06.345Z</time>
      </trkpt>
      <trkpt lat="41.01046" lon="44.46256">
        <ele>1371.26629</ele>
        <time>2021-08-12T16:10:52.675Z</time>
      </trkpt>
      <trkpt lat="41.01057" lon="44.46339">
        <ele>1372.397324</ele>
        <time>2021-08-12T16:11:19.977Z</time>
      </trkpt>
      <trkpt lat="41.01079" lon="44.4645">
        <ele>1373.266481</ele>
        <time>2021-08-12T16:11:54.087Z</time>
      </trkpt>
      <trkpt lat="41.01087" lon="44.46475">
        <ele>1373.479209</ele>
        <time>2021-08-12T16:12:02.085Z</time>
      </trkpt>
      <trkpt lat="41.01088" lon="44.4655">
        <ele>1374.051573</ele>
        <time>2021-08-12T16:12:22.986Z</time>
      </trkpt>
      <trkpt lat="41.01105" lon="44.4674">
        <ele>1373.163581</ele>
        <time>2021-08-12T16:13:05.842Z</time>
      </trkpt>
      <trkpt lat="41.01107" lon="44.46749">
        <ele>1373.120426</ele>
        <time>2021-08-12T16:13:07.834Z</time>
      </trkpt>
      <trkpt lat="41.01106" lon="44.46761">
        <ele>1373.062923</ele>
        <time>2021-08-12T16:13:10.079Z</time>
      </trkpt>
      <trkpt lat="41.01102" lon="44.46766">
        <ele>1373.025699</ele>
        <time>2021-08-12T16:13:11.468Z</time>
      </trkpt>
      <trkpt lat="41.01047" lon="44.46757">
        <ele>1372.718324</ele>
        <time>2021-08-12T16:13:27.373Z</time>
      </trkpt>
      <trkpt lat="41.00964" lon="44.46754">
        <ele>1372.27412</ele>
        <time>2021-08-12T16:13:50.528Z</time>
      </trkpt>
      <trkpt lat="41.00959" lon="44.4676">
        <ele>1372.236387</ele>
        <time>2021-08-12T16:13:52.226Z</time>
      </trkpt>
      <trkpt lat="41.00968" lon="44.46772">
        <ele>1372.165156</ele>
        <time>2021-08-12T16:13:57.313Z</time>
      </trkpt>
      <trkpt lat="41.01099" lon="44.46947">
        <ele>1373.149404</ele>
        <time>2021-08-12T16:15:04.944Z</time>
      </trkpt>
      <trkpt lat="41.01144" lon="44.47001">
        <ele>1373.109805</ele>
        <time>2021-08-12T16:15:26.092Z</time>
      </trkpt>
      <trkpt lat="41.01149" lon="44.47009">
        <ele>1373.040761</ele>
        <time>2021-08-12T16:15:28.730Z</time>
      </trkpt>
      <trkpt lat="41.01167" lon="44.47035">
        <ele>1372.803709</ele>
        <time>2021-08-12T16:15:37.336Z</time>
      </trkpt>
      <trkpt lat="41.01235" lon="44.47147">
        <ele>1371.843211</ele>
        <time>2021-08-12T16:16:07.490Z</time>
      </trkpt>
      <trkpt lat="41.0134" lon="44.47374">
        <ele>1364.822722</ele>
        <time>2021-08-12T16:16:55.368Z</time>
      </trkpt>
      <trkpt lat="41.01378" lon="44.47431">
        <ele>1361.062467</ele>
        <time>2021-08-12T16:17:07.596Z</time>
      </trkpt>
      <trkpt lat="41.01429" lon="44.47484">
        <ele>1356.763589</ele>
        <time>2021-08-12T16:17:21.012Z</time>
      </trkpt>
      <trkpt lat="41.01455" lon="44.4752">
        <ele>1354.307254</ele>
        <time>2021-08-12T16:17:28.678Z</time>
      </trkpt>
      <trkpt lat="41.01466" lon="44.47567">
        <ele>1352.440686</ele>
        <time>2021-08-12T16:17:36.654Z</time>
      </trkpt>
      <trkpt lat="41.01503" lon="44.4763">
        <ele>1349.588846</ele>
        <time>2021-08-12T16:17:49.742Z</time>
      </trkpt>
      <trkpt lat="41.01504" lon="44.47644">
        <ele>1349.100163</ele>
        <time>2021-08-12T16:17:52.219Z</time>
      </trkpt>
      <trkpt lat="41.01504" lon="44.47667">
        <ele>1348.289889</ele>
        <time>2021-08-12T16:17:55.987Z</time>
      </trkpt>
      <trkpt lat="41.015" lon="44.47674">
        <ele>1347.968398</ele>
        <time>2021-08-12T16:17:57.389Z</time>
      </trkpt>
      <trkpt lat="41.01502" lon="44.4768">
        <ele>1347.752512</ele>
        <time>2021-08-12T16:17:58.482Z</time>
      </trkpt>
      <trkpt lat="41.01504" lon="44.47694">
        <ele>1347.251866</ele>
        <time>2021-08-12T16:18:00.868Z</time>
      </trkpt>
      <trkpt lat="41.01509" lon="44.47724">
        <ele>1346.146901</ele>
        <time>2021-08-12T16:18:05.930Z</time>
      </trkpt>
      <trkpt lat="41.0151" lon="44.47739">
        <ele>1345.623694</ele>
        <time>2021-08-12T16:18:08.940Z</time>
      </trkpt>
      <trkpt lat="41.0151" lon="44.47748">
        <ele>1345.487207</ele>
        <time>2021-08-12T16:18:11.104Z</time>
      </trkpt>
      <trkpt lat="41.01496" lon="44.47758">
        <ele>1345.709089</ele>
        <time>2021-08-12T16:18:14.638Z</time>
      </trkpt>
      <trkpt lat="41.01467" lon="44.47752">
        <ele>1346.134674</ele>
        <time>2021-08-12T16:18:25.238Z</time>
      </trkpt>
      <trkpt lat="41.01396" lon="44.47758">
        <ele>1347.167395</ele>
        <time>2021-08-12T16:18:58.550Z</time>
      </trkpt>
      <trkpt lat="41.01282" lon="44.47804">
        <ele>1349.711909</ele>
        <time>2021-08-12T16:19:53.539Z</time>
      </trkpt>
      <trkpt lat="41.0123" lon="44.47811">
        <ele>1351.202577</ele>
        <time>2021-08-12T16:20:19.287Z</time>
      </trkpt>
      <trkpt lat="41.01206" lon="44.47808">
        <ele>1351.887643</ele>
        <time>2021-08-12T16:20:30.937Z</time>
      </trkpt>
      <trkpt lat="41.01158" lon="44.47783">
        <ele>1353.362368</ele>
        <time>2021-08-12T16:20:54.526Z</time>
      </trkpt>
      <trkpt lat="41.01139" lon="44.47784">
        <ele>1353.883503</ele>
        <time>2021-08-12T16:21:02.918Z</time>
      </trkpt>
      <trkpt lat="41.01129" lon="44.47796">
        <ele>1354.274486</ele>
        <time>2021-08-12T16:21:09.077Z</time>
      </trkpt>
      <trkpt lat="41.01115" lon="44.47837">
        <ele>1355.220754</ele>
        <time>2021-08-12T16:21:24.253Z</time>
      </trkpt>
      <trkpt lat="41.01106" lon="44.47849">
        <ele>1355.567696</ele>
        <time>2021-08-12T16:21:29.678Z</time>
      </trkpt>
      <trkpt lat="41.01042" lon="44.47883">
        <ele>1357.500779</ele>
        <time>2021-08-12T16:22:01.741Z</time>
      </trkpt>
      <trkpt lat="41.00974" lon="44.47905">
        <ele>1359.89796</ele>
        <time>2021-08-12T16:22:37.337Z</time>
      </trkpt>
      <trkpt lat="41.0096" lon="44.47917">
        <ele>1360.517239</ele>
        <time>2021-08-12T16:22:45.884Z</time>
      </trkpt>
      <trkpt lat="41.00875" lon="44.48044">
        <ele>1365.144071</ele>
        <time>2021-08-12T16:23:55.269Z</time>
      </trkpt>
      <trkpt lat="41.00825" lon="44.48119">
        <ele>1366.503519</ele>
        <time>2021-08-12T16:24:32.881Z</time>
      </trkpt>
      <trkpt lat="41.00569" lon="44.4858">
        <ele>1372.511053</ele>
        <time>2021-08-12T16:27:17.559Z</time>
      </trkpt>
      <trkpt lat="41.00433" lon="44.48878">
        <ele>1368.971576</ele>
        <time>2021-08-12T16:28:24.202Z</time>
      </trkpt>
      <trkpt lat="41.00404" lon="44.48963">
        <ele>1367.67659</ele>
        <time>2021-08-12T16:28:41.534Z</time>
      </trkpt>
      <trkpt lat="41.00375" lon="44.49082">
        <ele>1366.46212</ele>
        <time>2021-08-12T16:29:05.565Z</time>
      </trkpt>
      <trkpt lat="41.00364" lon="44.49158">
        <ele>1366.048757</ele>
        <time>2021-08-12T16:29:21.336Z</time>
      </trkpt>
      <trkpt lat="41.00365" lon="44.49461">
        <ele>1365.981481</ele>
        <time>2021-08-12T16:30:34.379Z</time>
      </trkpt>
      <trkpt lat="41.00388" lon="44.49738">
        <ele>1367.876677</ele>
        <time>2021-08-12T16:31:51.466Z</time>
      </trkpt>
      <trkpt lat="41.00508" lon="44.5015">
        <ele>1371.261078</ele>
        <time>2021-08-12T16:33:59.994Z</time>
      </trkpt>
      <trkpt lat="41.00517" lon="44.5017">
        <ele>1371.38928</ele>
        <time>2021-08-12T16:34:05.064Z</time>
      </trkpt>
      <trkpt lat="41.00571" lon="44.50283">
        <ele>1368.71986</ele>
        <time>2021-08-12T16:34:29.692Z</time>
      </trkpt>
      <trkpt lat="41.00579" lon="44.503">
        <ele>1368.288597</ele>
        <time>2021-08-12T16:34:33.126Z</time>
      </trkpt>
      <trkpt lat="41.00665" lon="44.50477">
        <ele>1362.173262</ele>
        <time>2021-08-12T16:35:07.523Z</time>
      </trkpt>
      <trkpt lat="41.00688" lon="44.50545">
        <ele>1359.56905</ele>
        <time>2021-08-12T16:35:19.454Z</time>
      </trkpt>
      <trkpt lat="41.00693" lon="44.50558">
        <ele>1359.050754</ele>
        <time>2021-08-12T16:35:21.773Z</time>
      </trkpt>
      <trkpt lat="41.00715" lon="44.50622">
        <ele>1356.32458</ele>
        <time>2021-08-12T16:35:33.053Z</time>
      </trkpt>
      <trkpt lat="41.00733" lon="44.50702">
        <ele>1352.844435</ele>
        <time>2021-08-12T16:35:46.430Z</time>
      </trkpt>
      <trkpt lat="41.00775" lon="44.5089">
        <ele>1343.322181</ele>
        <time>2021-08-12T16:36:16.832Z</time>
      </trkpt>
      <trkpt lat="41.00787" lon="44.50916">
        <ele>1341.532691</ele>
        <time>2021-08-12T16:36:21.479Z</time>
      </trkpt>
      <trkpt lat="41.00797" lon="44.50938">
        <ele>1340.033535</ele>
        <time>2021-08-12T16:36:25.372Z</time>
      </trkpt>
      <trkpt lat="41.00812" lon="44.50971">
        <ele>1337.788414</ele>
        <time>2021-08-12T16:36:31.026Z</time>
      </trkpt>
      <trkpt lat="41.00841" lon="44.51037">
        <ele>1333.111326</ele>
        <time>2021-08-12T16:36:41.958Z</time>
      </trkpt>
      <trkpt lat="41.00871" lon="44.51103">
        <ele>1327.123143</ele>
        <time>2021-08-12T16:36:53.041Z</time>
      </trkpt>
      <trkpt lat="41.00888" lon="44.51141">
        <ele>1323.677816</ele>
        <time>2021-08-12T16:36:59.417Z</time>
      </trkpt>
      <trkpt lat="41.009" lon="44.51202">
        <ele>1318.88105</ele>
        <time>2021-08-12T16:37:08.290Z</time>
      </trkpt>
      <trkpt lat="41.00922" lon="44.51252">
        <ele>1314.841634</ele>
        <time>2021-08-12T16:37:16.667Z</time>
      </trkpt>
      <trkpt lat="41.00945" lon="44.51323">
        <ele>1310.927124</ele>
        <time>2021-08-12T16:37:28.031Z</time>
      </trkpt>
      <trkpt lat="41.00954" lon="44.51357">
        <ele>1309.136424</ele>
        <time>2021-08-12T16:37:33.402Z</time>
      </trkpt>
      <trkpt lat="41.00973" lon="44.5137">
        <ele>1307.705069</ele>
        <time>2021-08-12T16:37:37.806Z</time>
      </trkpt>
      <trkpt lat="41.00994" lon="44.51372">
        <ele>1306.322601</ele>
        <time>2021-08-12T16:37:42.149Z</time>
      </trkpt>
      <trkpt lat="41.00999" lon="44.51384">
        <ele>1305.654173</ele>
        <time>2021-08-12T16:37:44.290Z</time>
      </trkpt>
      <trkpt lat="41.0099" lon="44.51393">
        <ele>1304.938571</ele>
        <time>2021-08-12T16:37:46.560Z</time>
      </trkpt>
      <trkpt lat="41.00965" lon="44.51396">
        <ele>1303.862779</ele>
        <time>2021-08-12T16:37:51.901Z</time>
      </trkpt>
      <trkpt lat="41.00923" lon="44.51414">
        <ele>1305.14551</ele>
        <time>2021-08-12T16:38:03.633Z</time>
      </trkpt>
      <trkpt lat="41.00911" lon="44.514">
        <ele>1305.601484</ele>
        <time>2021-08-12T16:38:08.970Z</time>
      </trkpt>
      <trkpt lat="41.00898" lon="44.51346">
        <ele>1306.815437</ele>
        <time>2021-08-12T16:38:34.370Z</time>
      </trkpt>
      <trkpt lat="41.00886" lon="44.51339">
        <ele>1307.204499</ele>
        <time>2021-08-12T16:38:42.533Z</time>
      </trkpt>
      <trkpt lat="41.0088" lon="44.5135">
        <ele>1307.484187</ele>
        <time>2021-08-12T16:38:50.121Z</time>
      </trkpt>
      <trkpt lat="41.00882" lon="44.51362">
        <ele>1307.744468</ele>
        <time>2021-08-12T16:38:55.347Z</time>
      </trkpt>
      <trkpt lat="41.00888" lon="44.51397">
        <ele>1308.522593</ele>
        <time>2021-08-12T16:39:13.257Z</time>
      </trkpt>
      <trkpt lat="41.0089" lon="44.51439">
        <ele>1310.601969</ele>
        <time>2021-08-12T16:39:35.824Z</time>
      </trkpt>
      <trkpt lat="41.00902" lon="44.51473">
        <ele>1312.956422</ele>
        <time>2021-08-12T16:39:55.903Z</time>
      </trkpt>
      <trkpt lat="41.009" lon="44.515">
        <ele>1314.604924</ele>
        <time>2021-08-12T16:40:13.740Z</time>
      </trkpt>
      <trkpt lat="41.00894" lon="44.51508">
        <ele>1315.315193</ele>
        <time>2021-08-12T16:40:19.202Z</time>
      </trkpt>
      <trkpt lat="41.0088" lon="44.51513">
        <ele>1316.51506</ele>
        <time>2021-08-12T16:40:33.164Z</time>
      </trkpt>
      <trkpt lat="41.00853" lon="44.51506">
        <ele>1318.851923</ele>
        <time>2021-08-12T16:40:55.419Z</time>
      </trkpt>
      <trkpt lat="41.00829" lon="44.51475">
        <ele>1321.629029</ele>
        <time>2021-08-12T16:41:24.468Z</time>
      </trkpt>
      <trkpt lat="41.00816" lon="44.51469">
        <ele>1322.73508</ele>
        <time>2021-08-12T16:41:38.174Z</time>
      </trkpt>
      <trkpt lat="41.00757" lon="44.5149">
        <ele>1326.016382</ele>
        <time>2021-08-12T16:42:20.741Z</time>
      </trkpt>
      <trkpt lat="41.00727" lon="44.51482">
        <ele>1327.435137</ele>
        <time>2021-08-12T16:42:35.983Z</time>
      </trkpt>
      <trkpt lat="41.00702" lon="44.5146">
        <ele>1328.793395</ele>
        <time>2021-08-12T16:42:51.676Z</time>
      </trkpt>
      <trkpt lat="41.00686" lon="44.51408">
        <ele>1330.768348</ele>
        <time>2021-08-12T16:43:14.162Z</time>
      </trkpt>
      <trkpt lat="41.00668" lon="44.51379">
        <ele>1332.076142</ele>
        <time>2021-08-12T16:43:26.366Z</time>
      </trkpt>
      <trkpt lat="41.00642" lon="44.51365">
        <ele>1332.575361</ele>
        <time>2021-08-12T16:43:37.902Z</time>
      </trkpt>
      <trkpt lat="41.00581" lon="44.51355">
        <ele>1333.696576</ele>
        <time>2021-08-12T16:44:03.098Z</time>
      </trkpt>
      <trkpt lat="41.0052" lon="44.51354">
        <ele>1334.801314</ele>
        <time>2021-08-12T16:44:27.146Z</time>
      </trkpt>
      <trkpt lat="41.0042" lon="44.51363">
        <ele>1336.725081</ele>
        <time>2021-08-12T16:45:07.432Z</time>
      </trkpt>
      <trkpt lat="41.0023" lon="44.51332">
        <ele>1340.074842</ele>
        <time>2021-08-12T16:46:30.648Z</time>
      </trkpt>
      <trkpt lat="41.00194" lon="44.51337">
        <ele>1340.590511</ele>
        <time>2021-08-12T16:46:44.613Z</time>
      </trkpt>
      <trkpt lat="41.00121" lon="44.51363">
        <ele>1341.430867</ele>
        <time>2021-08-12T16:47:11.528Z</time>
      </trkpt>
      <trkpt lat="40.99792" lon="44.51382">
        <ele>1340.318291</ele>
        <time>2021-08-12T16:48:46.435Z</time>
      </trkpt>
      <trkpt lat="40.99777" lon="44.51386">
        <ele>1340.254436</ele>
        <time>2021-08-12T16:48:50.949Z</time>
      </trkpt>
      <trkpt lat="40.99752" lon="44.51406">
        <ele>1340.28941</ele>
        <time>2021-08-12T16:48:59.861Z</time>
      </trkpt>
      <trkpt lat="40.99714" lon="44.51454">
        <ele>1340.357885</ele>
        <time>2021-08-12T16:49:16.297Z</time>
      </trkpt>
      <trkpt lat="40.99664" lon="44.51568">
        <ele>1340.486521</ele>
        <time>2021-08-12T16:49:49.031Z</time>
      </trkpt>
      <trkpt lat="40.99621" lon="44.51634">
        <ele>1340.395208</ele>
        <time>2021-08-12T16:50:10.689Z</time>
      </trkpt>
      <trkpt lat="40.99437" lon="44.51849">
        <ele>1339.465749</ele>
        <time>2021-08-12T16:51:22.537Z</time>
      </trkpt>
      <trkpt lat="40.99322" lon="44.52012">
        <ele>1337.96249</ele>
        <time>2021-08-12T16:52:07.781Z</time>
      </trkpt>
      <trkpt lat="40.99296" lon="44.52042">
        <ele>1337.601577</ele>
        <time>2021-08-12T16:52:17.242Z</time>
      </trkpt>
      <trkpt lat="40.99177" lon="44.5215">
        <ele>1335.999567</ele>
        <time>2021-08-12T16:52:55.693Z</time>
      </trkpt>
      <trkpt lat="40.98787" lon="44.52447">
        <ele>1329.85512</ele>
        <time>2021-08-12T16:54:53.656Z</time>
      </trkpt>
      <trkpt lat="40.98744" lon="44.52498">
        <ele>1328.454793</ele>
        <time>2021-08-12T16:55:07.534Z</time>
      </trkpt>
      <trkpt lat="40.98733" lon="44.52536">
        <ele>1327.716094</ele>
        <time>2021-08-12T16:55:14.786Z</time>
      </trkpt>
      <trkpt lat="40.98731" lon="44.52558">
        <ele>1327.321451</ele>
        <time>2021-08-12T16:55:18.577Z</time>
      </trkpt>
      <trkpt lat="40.98736" lon="44.52589">
        <ele>1326.743821</ele>
        <time>2021-08-12T16:55:24.276Z</time>
      </trkpt>
      <trkpt lat="40.98738" lon="44.52596">
        <ele>1326.596383</ele>
        <time>2021-08-12T16:55:25.584Z</time>
      </trkpt>
      <trkpt lat="40.98783" lon="44.5269">
        <ele>1323.973384</ele>
        <time>2021-08-12T16:55:44.730Z</time>
      </trkpt>
      <trkpt lat="40.98808" lon="44.52764">
        <ele>1321.959167</ele>
        <time>2021-08-12T16:55:58.367Z</time>
      </trkpt>
      <trkpt lat="40.9883" lon="44.52844">
        <ele>1319.798251</ele>
        <time>2021-08-12T16:56:13.411Z</time>
      </trkpt>
      <trkpt lat="40.98855" lon="44.52936">
        <ele>1317.207073</ele>
        <time>2021-08-12T16:56:29.901Z</time>
      </trkpt>
      <trkpt lat="40.9888" lon="44.53054">
        <ele>1313.971152</ele>
        <time>2021-08-12T16:56:50.342Z</time>
      </trkpt>
      <trkpt lat="40.98882" lon="44.53065">
        <ele>1313.858086</ele>
        <time>2021-08-12T16:56:52.184Z</time>
      </trkpt>
      <trkpt lat="40.989" lon="44.53187">
        <ele>1312.63604</ele>
        <time>2021-08-12T16:57:14.643Z</time>
      </trkpt>
      <trkpt lat="40.98903" lon="44.5321">
        <ele>1312.407021</ele>
        <time>2021-08-12T16:57:19.449Z</time>
      </trkpt>
      <trkpt lat="40.98909" lon="44.53331">
        <ele>1312.677714</ele>
        <time>2021-08-12T16:57:53.003Z</time>
      </trkpt>
      <trkpt lat="40.98912" lon="44.53393">
        <ele>1314.160754</ele>
        <time>2021-08-12T16:58:15.234Z</time>
      </trkpt>
      <trkpt lat="40.98908" lon="44.53409">
        <ele>1314.577099</ele>
        <time>2021-08-12T16:58:22.715Z</time>
      </trkpt>
      <trkpt lat="40.98893" lon="44.5342">
        <ele>1315.126495</ele>
        <time>2021-08-12T16:58:30.689Z</time>
      </trkpt>
      <trkpt lat="40.98848" lon="44.53419">
        <ele>1316.571865</ele>
        <time>2021-08-12T16:58:55.668Z</time>
      </trkpt>
      <trkpt lat="40.98812" lon="44.53418">
        <ele>1317.732478</ele>
        <time>2021-08-12T16:59:16.968Z</time>
      </trkpt>
      <trkpt lat="40.98785" lon="44.53425">
        <ele>1318.608597</ele>
        <time>2021-08-12T16:59:32.902Z</time>
      </trkpt>
      <trkpt lat="40.98744" lon="44.53451">
        <ele>1320.074121</ele>
        <time>2021-08-12T16:59:57.439Z</time>
      </trkpt>
      <trkpt lat="40.98728" lon="44.53475">
        <ele>1320.834312</ele>
        <time>2021-08-12T17:00:08.856Z</time>
      </trkpt>
      <trkpt lat="40.98734" lon="44.53504">
        <ele>1321.568067</ele>
        <time>2021-08-12T17:00:19.303Z</time>
      </trkpt>
      <trkpt lat="40.98767" lon="44.53539">
        <ele>1322.911592</ele>
        <time>2021-08-12T17:00:36.832Z</time>
      </trkpt>
      <trkpt lat="40.98775" lon="44.53572">
        <ele>1323.292428</ele>
        <time>2021-08-12T17:00:47.072Z</time>
      </trkpt>
      <trkpt lat="40.98774" lon="44.53599">
        <ele>1323.429868</ele>
        <time>2021-08-12T17:00:55.011Z</time>
      </trkpt>
      <trkpt lat="40.98771" lon="44.53697">
        <ele>1323.931336</ele>
        <time>2021-08-12T17:01:22.165Z</time>
      </trkpt>
      <trkpt lat="40.98771" lon="44.53697">
        <ele>1323.931336</ele>
        <time>2021-08-12T17:01:22.242Z</time>
      </trkpt>
      <trkpt lat="40.98771" lon="44.53697">
        <ele>1323.931336</ele>
        <time>2021-08-12T17:01:22.251Z</time>
      </trkpt>
      <trkpt lat="40.98765" lon="44.53864">
        <ele>1324.488757</ele>
        <time>2021-08-12T17:01:59.679Z</time>
      </trkpt>
      <trkpt lat="40.98755" lon="44.54002">
        <ele>1324.675548</ele>
        <time>2021-08-12T17:02:33.401Z</time>
      </trkpt>
      <trkpt lat="40.98751" lon="44.54074">
        <ele>1325.41328</ele>
        <time>2021-08-12T17:02:53.755Z</time>
      </trkpt>
      <trkpt lat="40.98757" lon="44.54126">
        <ele>1326.133656</ele>
        <time>2021-08-12T17:03:09.351Z</time>
      </trkpt>
      <trkpt lat="40.98763" lon="44.54191">
        <ele>1327.053103</ele>
        <time>2021-08-12T17:03:30.524Z</time>
      </trkpt>
      <trkpt lat="40.98774" lon="44.54235">
        <ele>1327.68908</ele>
        <time>2021-08-12T17:03:46.051Z</time>
      </trkpt>
      <trkpt lat="40.98892" lon="44.5458">
        <ele>1335.879907</ele>
        <time>2021-08-12T17:06:03.175Z</time>
      </trkpt>
      <trkpt lat="40.98924" lon="44.54688">
        <ele>1338.404486</ele>
        <time>2021-08-12T17:06:45.124Z</time>
      </trkpt>
      <trkpt lat="40.98943" lon="44.54804">
        <ele>1339.669479</ele>
        <time>2021-08-12T17:07:25.296Z</time>
      </trkpt>
      <trkpt lat="40.9903" lon="44.55473">
        <ele>1344.997363</ele>
        <time>2021-08-12T17:10:33.158Z</time>
      </trkpt>
      <trkpt lat="40.99045" lon="44.5556">
        <ele>1344.900055</ele>
        <time>2021-08-12T17:10:51.831Z</time>
      </trkpt>
      <trkpt lat="40.9906" lon="44.55607">
        <ele>1344.845243</ele>
        <time>2021-08-12T17:11:01.837Z</time>
      </trkpt>
      <trkpt lat="40.9906" lon="44.55609">
        <ele>1344.842652</ele>
        <time>2021-08-12T17:11:02.218Z</time>
      </trkpt>
      <trkpt lat="40.99135" lon="44.55779">
        <ele>1345.723343</ele>
        <time>2021-08-12T17:11:48.724Z</time>
      </trkpt>
      <trkpt lat="40.99193" lon="44.55881">
        <ele>1347.75204</ele>
        <time>2021-08-12T17:12:33.167Z</time>
      </trkpt>
      <trkpt lat="40.99177" lon="44.559">
        <ele>1348.485223</ele>
        <time>2021-08-12T17:12:45.119Z</time>
      </trkpt>
      <trkpt lat="40.99145" lon="44.55931">
        <ele>1349.835441</ele>
        <time>2021-08-12T17:13:06.748Z</time>
      </trkpt>
      <trkpt lat="40.99119" lon="44.55941">
        <ele>1350.746448</ele>
        <time>2021-08-12T17:13:21.603Z</time>
      </trkpt>
      <trkpt lat="40.99001" lon="44.55916">
        <ele>1353.946961</ele>
        <time>2021-08-12T17:14:20.150Z</time>
      </trkpt>
      <trkpt lat="40.98958" lon="44.55937">
        <ele>1355.012201</ele>
        <time>2021-08-12T17:14:39.832Z</time>
      </trkpt>
      <trkpt lat="40.98904" lon="44.55932">
        <ele>1356.27728</ele>
        <time>2021-08-12T17:15:01.452Z</time>
      </trkpt>
      <trkpt lat="40.98829" lon="44.55887">
        <ele>1356.241725</ele>
        <time>2021-08-12T17:15:29.297Z</time>
      </trkpt>
      <trkpt lat="40.98776" lon="44.55867">
        <ele>1356.206152</ele>
        <time>2021-08-12T17:15:45.754Z</time>
      </trkpt>
      <trkpt lat="40.98724" lon="44.55858">
        <ele>1355.839987</ele>
        <time>2021-08-12T17:16:00.180Z</time>
      </trkpt>
      <trkpt lat="40.9866" lon="44.55834">
        <ele>1353.355844</ele>
        <time>2021-08-12T17:16:16.275Z</time>
      </trkpt>
      <trkpt lat="40.98602" lon="44.55803">
        <ele>1350.999624</ele>
        <time>2021-08-12T17:16:30.047Z</time>
      </trkpt>
      <trkpt lat="40.9858" lon="44.55799">
        <ele>1350.178309</ele>
        <time>2021-08-12T17:16:34.609Z</time>
      </trkpt>
      <trkpt lat="40.98506" lon="44.55804">
        <ele>1344.494725</ele>
        <time>2021-08-12T17:16:49.571Z</time>
      </trkpt>
      <trkpt lat="40.98489" lon="44.55793">
        <ele>1342.83279</ele>
        <time>2021-08-12T17:16:53.168Z</time>
      </trkpt>
      <trkpt lat="40.98447" lon="44.55737">
        <ele>1337.468252</ele>
        <time>2021-08-12T17:17:04.610Z</time>
      </trkpt>
      <trkpt lat="40.98413" lon="44.55702">
        <ele>1333.599784</ele>
        <time>2021-08-12T17:17:12.738Z</time>
      </trkpt>
      <trkpt lat="40.98386" lon="44.55689">
        <ele>1331.007272</ele>
        <time>2021-08-12T17:17:18.061Z</time>
      </trkpt>
      <trkpt lat="40.98304" lon="44.5567">
        <ele>1323.357378</ele>
        <time>2021-08-12T17:17:33.895Z</time>
      </trkpt>
      <trkpt lat="40.98297" lon="44.55679">
        <ele>1322.50695</ele>
        <time>2021-08-12T17:17:35.679Z</time>
      </trkpt>
      <trkpt lat="40.98299" lon="44.55688">
        <ele>1321.844559</ele>
        <time>2021-08-12T17:17:37.093Z</time>
      </trkpt>
      <trkpt lat="40.98345" lon="44.55732">
        <ele>1316.757532</ele>
        <time>2021-08-12T17:17:48.316Z</time>
      </trkpt>
      <trkpt lat="40.98345" lon="44.55746">
        <ele>1316.279947</ele>
        <time>2021-08-12T17:17:50.354Z</time>
      </trkpt>
      <trkpt lat="40.98286" lon="44.55791">
        <ele>1313.085599</ele>
        <time>2021-08-12T17:18:04.374Z</time>
      </trkpt>
      <trkpt lat="40.9826" lon="44.55844">
        <ele>1310.823838</ele>
        <time>2021-08-12T17:18:15.023Z</time>
      </trkpt>
      <trkpt lat="40.98201" lon="44.55941">
        <ele>1306.802312</ele>
        <time>2021-08-12T17:18:36.684Z</time>
      </trkpt>
      <trkpt lat="40.98191" lon="44.55943">
        <ele>1306.430825</ele>
        <time>2021-08-12T17:18:39.009Z</time>
      </trkpt>
      <trkpt lat="40.98186" lon="44.55938">
        <ele>1306.208361</ele>
        <time>2021-08-12T17:18:40.390Z</time>
      </trkpt>
      <trkpt lat="40.98174" lon="44.55895">
        <ele>1304.948685</ele>
        <time>2021-08-12T17:18:48.048Z</time>
      </trkpt>
      <trkpt lat="40.98157" lon="44.55876">
        <ele>1304.099972</ele>
        <time>2021-08-12T17:18:53.094Z</time>
      </trkpt>
      <trkpt lat="40.98113" lon="44.5587">
        <ele>1302.50664</ele>
        <time>2021-08-12T17:19:02.540Z</time>
      </trkpt>
      <trkpt lat="40.98099" lon="44.55875">
        <ele>1301.965619</ele>
        <time>2021-08-12T17:19:05.737Z</time>
      </trkpt>
      <trkpt lat="40.9809" lon="44.55885">
        <ele>1301.590843</ele>
        <time>2021-08-12T17:19:08.356Z</time>
      </trkpt>
      <trkpt lat="40.98049" lon="44.56008">
        <ele>1298.911437</ele>
        <time>2021-08-12T17:19:30.998Z</time>
      </trkpt>
      <trkpt lat="40.98051" lon="44.56027">
        <ele>1298.522362</ele>
        <time>2021-08-12T17:19:34.505Z</time>
      </trkpt>
      <trkpt lat="40.98069" lon="44.56073">
        <ele>1297.490181</ele>
        <time>2021-08-12T17:19:44.395Z</time>
      </trkpt>
      <trkpt lat="40.9807" lon="44.56084">
        <ele>1297.269893</ele>
        <time>2021-08-12T17:19:46.693Z</time>
      </trkpt>
      <trkpt lat="40.98061" lon="44.561">
        <ele>1297.016658</ele>
        <time>2021-08-12T17:19:50.792Z</time>
      </trkpt>
      <trkpt lat="40.98021" lon="44.56123">
        <ele>1297.258411</ele>
        <time>2021-08-12T17:20:04.738Z</time>
      </trkpt>
      <trkpt lat="40.98013" lon="44.56146">
        <ele>1297.363394</ele>
        <time>2021-08-12T17:20:12.042Z</time>
      </trkpt>
      <trkpt lat="40.9802" lon="44.56263">
        <ele>1297.862416</ele>
        <time>2021-08-12T17:20:50.270Z</time>
      </trkpt>
      <trkpt lat="40.98036" lon="44.56338">
        <ele>1297.33104</ele>
        <time>2021-08-12T17:21:05.075Z</time>
      </trkpt>
      <trkpt lat="40.98032" lon="44.56346">
        <ele>1297.180258</ele>
        <time>2021-08-12T17:21:10.865Z</time>
      </trkpt>
      <trkpt lat="40.98026" lon="44.56347">
        <ele>1297.061483</ele>
        <time>2021-08-12T17:21:12.639Z</time>
      </trkpt>
      <trkpt lat="40.98023" lon="44.56346">
        <ele>1297.006869</ele>
        <time>2021-08-12T17:21:13.142Z</time>
      </trkpt>
      <trkpt lat="40.97983" lon="44.56292">
        <ele>1295.868303</ele>
        <time>2021-08-12T17:21:27.305Z</time>
      </trkpt>
      <trkpt lat="40.97966" lon="44.56283">
        <ele>1295.511991</ele>
        <time>2021-08-12T17:21:32.001Z</time>
      </trkpt>
      <trkpt lat="40.97959" lon="44.56282">
        <ele>1295.370068</ele>
        <time>2021-08-12T17:21:33.415Z</time>
      </trkpt>
      <trkpt lat="40.97949" lon="44.56286">
        <ele>1295.166282</ele>
        <time>2021-08-12T17:21:36.038Z</time>
      </trkpt>
      <trkpt lat="40.97937" lon="44.563">
        <ele>1294.84616</ele>
        <time>2021-08-12T17:21:40.170Z</time>
      </trkpt>
      <trkpt lat="40.97929" lon="44.56313">
        <ele>1294.609437</ele>
        <time>2021-08-12T17:21:42.597Z</time>
      </trkpt>
      <trkpt lat="40.97922" lon="44.56324">
        <ele>1294.325839</ele>
        <time>2021-08-12T17:21:46.673Z</time>
      </trkpt>
      <trkpt lat="40.97867" lon="44.56404">
        <ele>1291.424998</ele>
        <time>2021-08-12T17:22:04.380Z</time>
      </trkpt>
      <trkpt lat="40.97858" lon="44.56414">
        <ele>1291.01775</ele>
        <time>2021-08-12T17:22:06.688Z</time>
      </trkpt>
      <trkpt lat="40.97847" lon="44.56426">
        <ele>1290.513762</ele>
        <time>2021-08-12T17:22:09.772Z</time>
      </trkpt>
      <trkpt lat="40.97806" lon="44.56499">
        <ele>1288.08769</ele>
        <time>2021-08-12T17:22:25.937Z</time>
      </trkpt>
      <trkpt lat="40.97778" lon="44.5656">
        <ele>1286.888878</ele>
        <time>2021-08-12T17:22:39.021Z</time>
      </trkpt>
      <trkpt lat="40.97775" lon="44.56566">
        <ele>1286.777347</ele>
        <time>2021-08-12T17:22:40.227Z</time>
      </trkpt>
      <trkpt lat="40.9776" lon="44.56604">
        <ele>1286.069288</ele>
        <time>2021-08-12T17:22:48.042Z</time>
      </trkpt>
      <trkpt lat="40.97699" lon="44.56781">
        <ele>1283.281104</ele>
        <time>2021-08-12T17:23:24.532Z</time>
      </trkpt>
      <trkpt lat="40.97642" lon="44.56971">
        <ele>1280.933017</ele>
        <time>2021-08-12T17:24:05.700Z</time>
      </trkpt>
      <trkpt lat="40.9754" lon="44.57261">
        <ele>1276.335645</ele>
        <time>2021-08-12T17:25:05.462Z</time>
      </trkpt>
      <trkpt lat="40.97456" lon="44.57525">
        <ele>1271.609758</ele>
        <time>2021-08-12T17:25:57.612Z</time>
      </trkpt>
      <trkpt lat="40.97446" lon="44.57568">
        <ele>1270.849965</ele>
        <time>2021-08-12T17:26:05.923Z</time>
      </trkpt>
      <trkpt lat="40.97277" lon="44.58678">
        <ele>1255.615034</ele>
        <time>2021-08-12T17:29:40.330Z</time>
      </trkpt>
      <trkpt lat="40.9727" lon="44.58765">
        <ele>1254.572716</ele>
        <time>2021-08-12T17:29:57.760Z</time>
      </trkpt>
      <trkpt lat="40.97265" lon="44.58828">
        <ele>1253.963311</ele>
        <time>2021-08-12T17:30:10.697Z</time>
      </trkpt>
      <trkpt lat="40.97246" lon="44.59301">
        <ele>1249.321633</ele>
        <time>2021-08-12T17:31:44.734Z</time>
      </trkpt>
      <trkpt lat="40.97244" lon="44.59333">
        <ele>1248.97374</ele>
        <time>2021-08-12T17:31:50.968Z</time>
      </trkpt>
      <trkpt lat="40.97239" lon="44.59409">
        <ele>1248.161518</ele>
        <time>2021-08-12T17:32:05.577Z</time>
      </trkpt>
      <trkpt lat="40.97199" lon="44.6037">
        <ele>1238.546068</ele>
        <time>2021-08-12T17:35:16.232Z</time>
      </trkpt>
      <trkpt lat="40.97198" lon="44.6044">
        <ele>1237.599996</ele>
        <time>2021-08-12T17:35:30.092Z</time>
      </trkpt>
      <trkpt lat="40.97198" lon="44.60443">
        <ele>1237.528103</ele>
        <time>2021-08-12T17:35:30.661Z</time>
      </trkpt>
      <trkpt lat="40.97194" lon="44.60518">
        <ele>1235.826477</ele>
        <time>2021-08-12T17:35:45.182Z</time>
      </trkpt>
      <trkpt lat="40.97183" lon="44.60657">
        <ele>1232.696172</ele>
        <time>2021-08-12T17:36:09.014Z</time>
      </trkpt>
      <trkpt lat="40.97157" lon="44.60661">
        <ele>1231.057861</ele>
        <time>2021-08-12T17:36:14.769Z</time>
      </trkpt>
      <trkpt lat="40.97142" lon="44.60662">
        <ele>1230.128535</ele>
        <time>2021-08-12T17:36:18.005Z</time>
      </trkpt>
      <trkpt lat="40.97129" lon="44.60677">
        <ele>1229.066531</ele>
        <time>2021-08-12T17:36:21.468Z</time>
      </trkpt>
      <trkpt lat="40.97124" lon="44.60694">
        <ele>1228.164075</ele>
        <time>2021-08-12T17:36:24.577Z</time>
      </trkpt>
      <trkpt lat="40.97111" lon="44.60712">
        <ele>1226.995605</ele>
        <time>2021-08-12T17:36:28.322Z</time>
      </trkpt>
      <trkpt lat="40.97078" lon="44.60741">
        <ele>1224.498643</ele>
        <time>2021-08-12T17:36:36.586Z</time>
      </trkpt>
      <trkpt lat="40.97057" lon="44.6077">
        <ele>1222.595997</ele>
        <time>2021-08-12T17:36:43.105Z</time>
      </trkpt>
      <trkpt lat="40.97047" lon="44.60784">
        <ele>1221.700335</ele>
        <time>2021-08-12T17:36:46.181Z</time>
      </trkpt>
      <trkpt lat="40.97043" lon="44.6079">
        <ele>1221.33713</ele>
        <time>2021-08-12T17:36:47.813Z</time>
      </trkpt>
      <trkpt lat="40.97031" lon="44.60808">
        <ele>1220.667239</ele>
        <time>2021-08-12T17:36:51.632Z</time>
      </trkpt>
      <trkpt lat="40.97017" lon="44.60837">
        <ele>1219.741385</ele>
        <time>2021-08-12T17:36:57.837Z</time>
      </trkpt>
      <trkpt lat="40.97015" lon="44.60848">
        <ele>1219.43515</ele>
        <time>2021-08-12T17:36:59.555Z</time>
      </trkpt>
      <trkpt lat="40.97012" lon="44.60858">
        <ele>1219.148163</ele>
        <time>2021-08-12T17:37:01.411Z</time>
      </trkpt>
      <trkpt lat="40.97007" lon="44.60909">
        <ele>1217.741178</ele>
        <time>2021-08-12T17:37:10.443Z</time>
      </trkpt>
      <trkpt lat="40.97007" lon="44.6093">
        <ele>1217.185351</ele>
        <time>2021-08-12T17:37:14.557Z</time>
      </trkpt>
      <trkpt lat="40.97006" lon="44.60974">
        <ele>1215.964622</ele>
        <time>2021-08-12T17:37:22.559Z</time>
      </trkpt>
      <trkpt lat="40.97006" lon="44.61128">
        <ele>1211.704816</ele>
        <time>2021-08-12T17:37:55.620Z</time>
      </trkpt>
      <trkpt lat="40.96999" lon="44.61175">
        <ele>1210.368451</ele>
        <time>2021-08-12T17:38:04.111Z</time>
      </trkpt>
      <trkpt lat="40.96999" lon="44.61181">
        <ele>1210.214426</ele>
        <time>2021-08-12T17:38:05.017Z</time>
      </trkpt>
      <trkpt lat="40.97" lon="44.61194">
        <ele>1209.827606</ele>
        <time>2021-08-12T17:38:07.131Z</time>
      </trkpt>
      <trkpt lat="40.97008" lon="44.61216">
        <ele>1209.16895</ele>
        <time>2021-08-12T17:38:11.253Z</time>
      </trkpt>
      <trkpt lat="40.97023" lon="44.6124">
        <ele>1208.288858</ele>
        <time>2021-08-12T17:38:16.201Z</time>
      </trkpt>
      <trkpt lat="40.97034" lon="44.61249">
        <ele>1206.993204</ele>
        <time>2021-08-12T17:38:19.067Z</time>
      </trkpt>
      <trkpt lat="40.97043" lon="44.6125">
        <ele>1206.060799</ele>
        <time>2021-08-12T17:38:21.063Z</time>
      </trkpt>
      <trkpt lat="40.97044" lon="44.61256">
        <ele>1205.624496</ele>
        <time>2021-08-12T17:38:22.384Z</time>
      </trkpt>
      <trkpt lat="40.97058" lon="44.61292">
        <ele>1202.503635</ele>
        <time>2021-08-12T17:38:33.491Z</time>
      </trkpt>
      <trkpt lat="40.9705" lon="44.61305">
        <ele>1201.165276</ele>
        <time>2021-08-12T17:38:37.802Z</time>
      </trkpt>
      <trkpt lat="40.96946" lon="44.61294">
        <ele>1190.452593</ele>
        <time>2021-08-12T17:39:12.707Z</time>
      </trkpt>
      <trkpt lat="40.96925" lon="44.6128">
        <ele>1188.221743</ele>
        <time>2021-08-12T17:39:20.323Z</time>
      </trkpt>
      <trkpt lat="40.96918" lon="44.61261">
        <ele>1186.64895</ele>
        <time>2021-08-12T17:39:25.824Z</time>
      </trkpt>
      <trkpt lat="40.96912" lon="44.61182">
        <ele>1180.925082</ele>
        <time>2021-08-12T17:39:46.142Z</time>
      </trkpt>
      <trkpt lat="40.96902" lon="44.61127">
        <ele>1176.84447</ele>
        <time>2021-08-12T17:40:00.910Z</time>
      </trkpt>
      <trkpt lat="40.96887" lon="44.6107">
        <ele>1172.538015</ele>
        <time>2021-08-12T17:40:17.137Z</time>
      </trkpt>
      <trkpt lat="40.96883" lon="44.61027">
        <ele>1171.630585</ele>
        <time>2021-08-12T17:40:29.692Z</time>
      </trkpt>
      <trkpt lat="40.96872" lon="44.6102">
        <ele>1171.303279</ele>
        <time>2021-08-12T17:40:34.350Z</time>
      </trkpt>
      <trkpt lat="40.96863" lon="44.61033">
        <ele>1170.953459</ele>
        <time>2021-08-12T17:40:39.458Z</time>
      </trkpt>
      <trkpt lat="40.96861" lon="44.61055">
        <ele>1170.487646</ele>
        <time>2021-08-12T17:40:46.532Z</time>
      </trkpt>
      <trkpt lat="40.9688" lon="44.6113">
        <ele>1168.85865</ele>
        <time>2021-08-12T17:41:13.764Z</time>
      </trkpt>
      <trkpt lat="40.96881" lon="44.61299">
        <ele>1165.963001</ele>
        <time>2021-08-12T17:42:22.463Z</time>
      </trkpt>
      <trkpt lat="40.96885" lon="44.61355">
        <ele>1165.113025</ele>
        <time>2021-08-12T17:42:42.136Z</time>
      </trkpt>
      <trkpt lat="40.96875" lon="44.61379">
        <ele>1164.696356</ele>
        <time>2021-08-12T17:42:50.860Z</time>
      </trkpt>
      <trkpt lat="40.96853" lon="44.61391">
        <ele>1164.209817</ele>
        <time>2021-08-12T17:42:59.911Z</time>
      </trkpt>
      <trkpt lat="40.96822" lon="44.61381">
        <ele>1161.878647</ele>
        <time>2021-08-12T17:43:11.774Z</time>
      </trkpt>
      <trkpt lat="40.96807" lon="44.61375">
        <ele>1160.465805</ele>
        <time>2021-08-12T17:43:17.311Z</time>
      </trkpt>
      <trkpt lat="40.96796" lon="44.61372">
        <ele>1159.390945</ele>
        <time>2021-08-12T17:43:21.252Z</time>
      </trkpt>
      <trkpt lat="40.96767" lon="44.61374">
        <ele>1156.626853</ele>
        <time>2021-08-12T17:43:31.432Z</time>
      </trkpt>
      <trkpt lat="40.96743" lon="44.61385">
        <ele>1154.25028</ele>
        <time>2021-08-12T17:43:40.112Z</time>
      </trkpt>
      <trkpt lat="40.9673" lon="44.6139">
        <ele>1152.944153</ele>
        <time>2021-08-12T17:43:44.702Z</time>
      </trkpt>
      <trkpt lat="40.96715" lon="44.61388">
        <ele>1151.552327</ele>
        <time>2021-08-12T17:43:49.760Z</time>
      </trkpt>
      <trkpt lat="40.96644" lon="44.61386">
        <ele>1144.90243</ele>
        <time>2021-08-12T17:44:13.250Z</time>
      </trkpt>
      <trkpt lat="40.96629" lon="44.61387">
        <ele>1143.496102</ele>
        <time>2021-08-12T17:44:18.373Z</time>
      </trkpt>
      <trkpt lat="40.96614" lon="44.61387">
        <ele>1142.089988</ele>
        <time>2021-08-12T17:44:23.478Z</time>
      </trkpt>
      <trkpt lat="40.96536" lon="44.6139">
        <ele>1134.699422</ele>
        <time>2021-08-12T17:44:50.868Z</time>
      </trkpt>
      <trkpt lat="40.965" lon="44.61399">
        <ele>1131.306071</ele>
        <time>2021-08-12T17:45:03.730Z</time>
      </trkpt>
      <trkpt lat="40.96438" lon="44.6145">
        <ele>1126.665634</ele>
        <time>2021-08-12T17:45:30.255Z</time>
      </trkpt>
      <trkpt lat="40.9639" lon="44.6146">
        <ele>1123.808977</ele>
        <time>2021-08-12T17:45:48.783Z</time>
      </trkpt>
      <trkpt lat="40.96348" lon="44.61511">
        <ele>1120.556</ele>
        <time>2021-08-12T17:46:10.391Z</time>
      </trkpt>
      <trkpt lat="40.96327" lon="44.61547">
        <ele>1118.999879</ele>
        <time>2021-08-12T17:46:24.157Z</time>
      </trkpt>
      <trkpt lat="40.96306" lon="44.61565">
        <ele>1118.087859</ele>
        <time>2021-08-12T17:46:34.246Z</time>
      </trkpt>
      <trkpt lat="40.96285" lon="44.61569">
        <ele>1117.29601</ele>
        <time>2021-08-12T17:46:43.067Z</time>
      </trkpt>
      <trkpt lat="40.96238" lon="44.6156">
        <ele>1115.543025</ele>
        <time>2021-08-12T17:47:02.668Z</time>
      </trkpt>
      <trkpt lat="40.96215" lon="44.61563">
        <ele>1114.698129</ele>
        <time>2021-08-12T17:47:12.339Z</time>
      </trkpt>
      <trkpt lat="40.96185" lon="44.61577">
        <ele>1113.546726</ele>
        <time>2021-08-12T17:47:25.240Z</time>
      </trkpt>
      <trkpt lat="40.96125" lon="44.61617">
        <ele>1109.77082</ele>
        <time>2021-08-12T17:47:51.927Z</time>
      </trkpt>
      <trkpt lat="40.96118" lon="44.61619">
        <ele>1109.299054</ele>
        <time>2021-08-12T17:47:55.181Z</time>
      </trkpt>
      <trkpt lat="40.96111" lon="44.61619">
        <ele>1108.912266</ele>
        <time>2021-08-12T17:47:57.471Z</time>
      </trkpt>
      <trkpt lat="40.96102" lon="44.6161">
        <ele>1108.265536</ele>
        <time>2021-08-12T17:48:01.701Z</time>
      </trkpt>
      <trkpt lat="40.96104" lon="44.61598">
        <ele>1107.712683</ele>
        <time>2021-08-12T17:48:05.319Z</time>
      </trkpt>
      <trkpt lat="40.96148" lon="44.61573">
        <ele>1104.819997</ele>
        <time>2021-08-12T17:48:23.201Z</time>
      </trkpt>
      <trkpt lat="40.96227" lon="44.61515">
        <ele>1097.757048</ele>
        <time>2021-08-12T17:48:54.779Z</time>
      </trkpt>
      <trkpt lat="40.96242" lon="44.6148">
        <ele>1094.95543</ele>
        <time>2021-08-12T17:49:05.310Z</time>
      </trkpt>
      <trkpt lat="40.96242" lon="44.61479">
        <ele>1094.865837</ele>
        <time>2021-08-12T17:49:05.629Z</time>
      </trkpt>
      <trkpt lat="40.96265" lon="44.61442">
        <ele>1091.509569</ele>
        <time>2021-08-12T17:49:18.048Z</time>
      </trkpt>
      <trkpt lat="40.96271" lon="44.61415">
        <ele>1089.562215</ele>
        <time>2021-08-12T17:49:25.315Z</time>
      </trkpt>
      <trkpt lat="40.9627" lon="44.61363">
        <ele>1085.864098</ele>
        <time>2021-08-12T17:49:39.079Z</time>
      </trkpt>
      <trkpt lat="40.96257" lon="44.61279">
        <ele>1081.104388</ele>
        <time>2021-08-12T17:50:01.541Z</time>
      </trkpt>
      <trkpt lat="40.96255" lon="44.61243">
        <ele>1079.092411</ele>
        <time>2021-08-12T17:50:11.364Z</time>
      </trkpt>
      <trkpt lat="40.96273" lon="44.61167">
        <ele>1074.668245</ele>
        <time>2021-08-12T17:50:33.542Z</time>
      </trkpt>
      <trkpt lat="40.96291" lon="44.61133">
        <ele>1072.435038</ele>
        <time>2021-08-12T17:50:45.560Z</time>
      </trkpt>
      <trkpt lat="40.96296" lon="44.61123">
        <ele>1071.965491</ele>
        <time>2021-08-12T17:50:48.931Z</time>
      </trkpt>
      <trkpt lat="40.96303" lon="44.61113">
        <ele>1071.424958</ele>
        <time>2021-08-12T17:50:53.349Z</time>
      </trkpt>
      <trkpt lat="40.96324" lon="44.61094">
        <ele>1070.107574</ele>
        <time>2021-08-12T17:51:03.256Z</time>
      </trkpt>
      <trkpt lat="40.96349" lon="44.61087">
        <ele>1068.790594</ele>
        <time>2021-08-12T17:51:13.683Z</time>
      </trkpt>
      <trkpt lat="40.96393" lon="44.61063">
        <ele>1066.380674</ele>
        <time>2021-08-12T17:51:31.891Z</time>
      </trkpt>
      <trkpt lat="40.96438" lon="44.61047">
        <ele>1064.007371</ele>
        <time>2021-08-12T17:51:49.764Z</time>
      </trkpt>
      <trkpt lat="40.96441" lon="44.61043">
        <ele>1063.750099</ele>
        <time>2021-08-12T17:51:51.662Z</time>
      </trkpt>
      <trkpt lat="40.9644" lon="44.61031">
        <ele>1063.263429</ele>
        <time>2021-08-12T17:51:54.999Z</time>
      </trkpt>
      <trkpt lat="40.9643" lon="44.61027">
        <ele>1062.432006</ele>
        <time>2021-08-12T17:51:58.780Z</time>
      </trkpt>
      <trkpt lat="40.96357" lon="44.61039">
        <ele>1056.380256</ele>
        <time>2021-08-12T17:52:25.289Z</time>
      </trkpt>
      <trkpt lat="40.96329" lon="44.61033">
        <ele>1054.088222</ele>
        <time>2021-08-12T17:52:35.062Z</time>
      </trkpt>
      <trkpt lat="40.96285" lon="44.61035">
        <ele>1050.509082</ele>
        <time>2021-08-12T17:52:50.144Z</time>
      </trkpt>
      <trkpt lat="40.96237" lon="44.61022">
        <ele>1046.29519</ele>
        <time>2021-08-12T17:53:07.068Z</time>
      </trkpt>
      <trkpt lat="40.96196" lon="44.61034">
        <ele>1042.564731</ele>
        <time>2021-08-12T17:53:21.683Z</time>
      </trkpt>
      <trkpt lat="40.9616" lon="44.61086">
        <ele>1037.859639</ele>
        <time>2021-08-12T17:53:40.700Z</time>
      </trkpt>
      <trkpt lat="40.96142" lon="44.61122">
        <ele>1034.89746</ele>
        <time>2021-08-12T17:53:52.395Z</time>
      </trkpt>
      <trkpt lat="40.96141" lon="44.61156">
        <ele>1032.633917</ele>
        <time>2021-08-12T17:54:01.346Z</time>
      </trkpt>
      <trkpt lat="40.96134" lon="44.61187">
        <ele>1029.918651</ele>
        <time>2021-08-12T17:54:09.902Z</time>
      </trkpt>
      <trkpt lat="40.96127" lon="44.61202">
        <ele>1028.356168</ele>
        <time>2021-08-12T17:54:14.457Z</time>
      </trkpt>
      <trkpt lat="40.96123" lon="44.61218">
        <ele>1026.899898</ele>
        <time>2021-08-12T17:54:18.901Z</time>
      </trkpt>
      <trkpt lat="40.96118" lon="44.61241">
        <ele>1024.904172</ele>
        <time>2021-08-12T17:54:24.719Z</time>
      </trkpt>
      <trkpt lat="40.96105" lon="44.61249">
        <ele>1023.289261</ele>
        <time>2021-08-12T17:54:29.516Z</time>
      </trkpt>
      <trkpt lat="40.96099" lon="44.6125">
        <ele>1022.6759</ele>
        <time>2021-08-12T17:54:31.252Z</time>
      </trkpt>
      <trkpt lat="40.96085" lon="44.61249">
        <ele>1021.092695</ele>
        <time>2021-08-12T17:54:35.823Z</time>
      </trkpt>
      <trkpt lat="40.96057" lon="44.6125">
        <ele>1017.89342</ele>
        <time>2021-08-12T17:54:45.252Z</time>
      </trkpt>
      <trkpt lat="40.96027" lon="44.61261">
        <ele>1014.404827</ele>
        <time>2021-08-12T17:54:55.603Z</time>
      </trkpt>
      <trkpt lat="40.96009" lon="44.61269">
        <ele>1012.20725</ele>
        <time>2021-08-12T17:55:02.335Z</time>
      </trkpt>
      <trkpt lat="40.95998" lon="44.61277">
        <ele>1011.074465</ele>
        <time>2021-08-12T17:55:06.578Z</time>
      </trkpt>
      <trkpt lat="40.95995" lon="44.61279">
        <ele>1010.744556</ele>
        <time>2021-08-12T17:55:07.678Z</time>
      </trkpt>
      <trkpt lat="40.95979" lon="44.61291">
        <ele>1009.005424</ele>
        <time>2021-08-12T17:55:14.092Z</time>
      </trkpt>
      <trkpt lat="40.95966" lon="44.61284">
        <ele>1007.709617</ele>
        <time>2021-08-12T17:55:18.972Z</time>
      </trkpt>
      <trkpt lat="40.95964" lon="44.6128">
        <ele>1007.374883</ele>
        <time>2021-08-12T17:55:20.092Z</time>
      </trkpt>
      <trkpt lat="40.95964" lon="44.61274">
        <ele>1007.007702</ele>
        <time>2021-08-12T17:55:21.459Z</time>
      </trkpt>
      <trkpt lat="40.96002" lon="44.61188">
        <ele>999.897375</ele>
        <time>2021-08-12T17:55:47.400Z</time>
      </trkpt>
      <trkpt lat="40.96008" lon="44.61168">
        <ele>998.386406</ele>
        <time>2021-08-12T17:55:53.210Z</time>
      </trkpt>
      <trkpt lat="40.96012" lon="44.61145">
        <ele>996.72632</ele>
        <time>2021-08-12T17:55:59.179Z</time>
      </trkpt>
      <trkpt lat="40.96017" lon="44.61117">
        <ele>995.053408</ele>
        <time>2021-08-12T17:56:08.200Z</time>
      </trkpt>
      <trkpt lat="40.96022" lon="44.61088">
        <ele>994.00805</ele>
        <time>2021-08-12T17:56:16.583Z</time>
      </trkpt>
      <trkpt lat="40.96027" lon="44.61064">
        <ele>993.126972</ele>
        <time>2021-08-12T17:56:24.044Z</time>
      </trkpt>
      <trkpt lat="40.9603" lon="44.61033">
        <ele>992.022509</ele>
        <time>2021-08-12T17:56:34.140Z</time>
      </trkpt>
      <trkpt lat="40.96035" lon="44.6101">
        <ele>991.172895</ele>
        <time>2021-08-12T17:56:41.309Z</time>
      </trkpt>
      <trkpt lat="40.96041" lon="44.60987">
        <ele>990.321958</ele>
        <time>2021-08-12T17:56:48.835Z</time>
      </trkpt>
      <trkpt lat="40.96051" lon="44.60953">
        <ele>989.030995</ele>
        <time>2021-08-12T17:56:59.839Z</time>
      </trkpt>
      <trkpt lat="40.96057" lon="44.6093">
        <ele>988.17453</ele>
        <time>2021-08-12T17:57:06.687Z</time>
      </trkpt>
      <trkpt lat="40.96064" lon="44.60899">
        <ele>987.025157</ele>
        <time>2021-08-12T17:57:16.475Z</time>
      </trkpt>
      <trkpt lat="40.9607" lon="44.60868">
        <ele>986.367163</ele>
        <time>2021-08-12T17:57:25.866Z</time>
      </trkpt>
      <trkpt lat="40.96077" lon="44.60837">
        <ele>985.708301</ele>
        <time>2021-08-12T17:57:35.437Z</time>
      </trkpt>
      <trkpt lat="40.96083" lon="44.60809">
        <ele>985.101742</ele>
        <time>2021-08-12T17:57:44.527Z</time>
      </trkpt>
      <trkpt lat="40.96089" lon="44.60793">
        <ele>984.745652</ele>
        <time>2021-08-12T17:57:49.992Z</time>
      </trkpt>
      <trkpt lat="40.96134" lon="44.60726">
        <ele>982.899126</ele>
        <time>2021-08-12T17:58:20.518Z</time>
      </trkpt>
      <trkpt lat="40.96151" lon="44.60645">
        <ele>981.876603</ele>
        <time>2021-08-12T17:58:49.922Z</time>
      </trkpt>
      <trkpt lat="40.96155" lon="44.60614">
        <ele>981.69562</ele>
        <time>2021-08-12T17:59:01.628Z</time>
      </trkpt>
      <trkpt lat="40.96154" lon="44.60584">
        <ele>981.52115</ele>
        <time>2021-08-12T17:59:12.879Z</time>
      </trkpt>
      <trkpt lat="40.9614" lon="44.60523">
        <ele>981.156476</ele>
        <time>2021-08-12T17:59:36.696Z</time>
      </trkpt>
      <trkpt lat="40.96137" lon="44.60512">
        <ele>981.090016</ele>
        <time>2021-08-12T17:59:40.745Z</time>
      </trkpt>
      <trkpt lat="40.96132" lon="44.60501">
        <ele>981.018551</ele>
        <time>2021-08-12T17:59:45.614Z</time>
      </trkpt>
      <trkpt lat="40.96054" lon="44.60348">
        <ele>980.401919</ele>
        <time>2021-08-12T18:00:53.710Z</time>
      </trkpt>
      <trkpt lat="40.96049" lon="44.60334">
        <ele>980.359505</ele>
        <time>2021-08-12T18:00:59.967Z</time>
      </trkpt>
      <trkpt lat="40.96042" lon="44.60323">
        <ele>980.322101</ele>
        <time>2021-08-12T18:01:05.054Z</time>
      </trkpt>
      <trkpt lat="40.96029" lon="44.60301">
        <ele>980.248532</ele>
        <time>2021-08-12T18:01:16.869Z</time>
      </trkpt>
      <trkpt lat="40.95969" lon="44.60233">
        <ele>980.365511</ele>
        <time>2021-08-12T18:01:58.413Z</time>
      </trkpt>
      <trkpt lat="40.95941" lon="44.60188">
        <ele>980.552888</ele>
        <time>2021-08-12T18:02:21.667Z</time>
      </trkpt>
      <trkpt lat="40.95937" lon="44.60178">
        <ele>980.590848</ele>
        <time>2021-08-12T18:02:26.812Z</time>
      </trkpt>
      <trkpt lat="40.95928" lon="44.60171">
        <ele>980.633646</ele>
        <time>2021-08-12T18:02:32.798Z</time>
      </trkpt>
      <trkpt lat="40.95906" lon="44.60139">
        <ele>980.772886</ele>
        <time>2021-08-12T18:02:50.909Z</time>
      </trkpt>
      <trkpt lat="40.95891" lon="44.60066">
        <ele>981.050022</ele>
        <time>2021-08-12T18:03:22.369Z</time>
      </trkpt>
      <trkpt lat="40.95883" lon="44.60049">
        <ele>981.138051</ele>
        <time>2021-08-12T18:03:31.544Z</time>
      </trkpt>
      <trkpt lat="40.95876" lon="44.60038">
        <ele>981.199818</ele>
        <time>2021-08-12T18:03:37.309Z</time>
      </trkpt>
      <trkpt lat="40.95846" lon="44.59986">
        <ele>981.481273</ele>
        <time>2021-08-12T18:04:04.801Z</time>
      </trkpt>
      <trkpt lat="40.95839" lon="44.59947">
        <ele>981.655409</ele>
        <time>2021-08-12T18:04:21.222Z</time>
      </trkpt>
      <trkpt lat="40.95829" lon="44.5992">
        <ele>981.784591</ele>
        <time>2021-08-12T18:04:33.651Z</time>
      </trkpt>
      <trkpt lat="40.95791" lon="44.59875">
        <ele>982.146157</ele>
        <time>2021-08-12T18:05:00.978Z</time>
      </trkpt>
      <trkpt lat="40.95746" lon="44.59794">
        <ele>982.819325</ele>
        <time>2021-08-12T18:05:43.420Z</time>
      </trkpt>
      <trkpt lat="40.95693" lon="44.59713">
        <ele>983.53884</ele>
        <time>2021-08-12T18:06:30.756Z</time>
      </trkpt>
      <trkpt lat="40.95677" lon="44.59676">
        <ele>983.888883</ele>
        <time>2021-08-12T18:06:50.121Z</time>
      </trkpt>
      <trkpt lat="40.95666" lon="44.59634">
        <ele>984.251524</ele>
        <time>2021-08-12T18:07:11.017Z</time>
      </trkpt>
      <trkpt lat="40.95664" lon="44.59598">
        <ele>984.549355</ele>
        <time>2021-08-12T18:07:27.637Z</time>
      </trkpt>
      <trkpt lat="40.95666" lon="44.59551">
        <ele>984.935287</ele>
        <time>2021-08-12T18:07:48.050Z</time>
      </trkpt>
      <trkpt lat="40.95679" lon="44.59477">
        <ele>985.473251</ele>
        <time>2021-08-12T18:08:19.405Z</time>
      </trkpt>
      <trkpt lat="40.95684" lon="44.59443">
        <ele>985.412043</ele>
        <time>2021-08-12T18:08:34.037Z</time>
      </trkpt>
      <trkpt lat="40.9569" lon="44.59417">
        <ele>985.36497</ele>
        <time>2021-08-12T18:08:44.569Z</time>
      </trkpt>
      <trkpt lat="40.95692" lon="44.59401">
        <ele>985.335755</ele>
        <time>2021-08-12T18:08:51.125Z</time>
      </trkpt>
      <trkpt lat="40.95691" lon="44.59392">
        <ele>985.319994</ele>
        <time>2021-08-12T18:08:54.126Z</time>
      </trkpt>
      <trkpt lat="40.95618" lon="44.5925">
        <ele>985.123475</ele>
        <time>2021-08-12T18:09:58.465Z</time>
      </trkpt>
      <trkpt lat="40.95612" lon="44.59238">
        <ele>985.148383</ele>
        <time>2021-08-12T18:10:03.414Z</time>
      </trkpt>
      <trkpt lat="40.956" lon="44.59236">
        <ele>985.176067</ele>
        <time>2021-08-12T18:10:09.426Z</time>
      </trkpt>
      <trkpt lat="40.95586" lon="44.59236">
        <ele>985.207419</ele>
        <time>2021-08-12T18:10:16.399Z</time>
      </trkpt>
      <trkpt lat="40.95577" lon="44.59236">
        <ele>985.227445</ele>
        <time>2021-08-12T18:10:20.694Z</time>
      </trkpt>
      <trkpt lat="40.95535" lon="44.59241">
        <ele>985.32407</ele>
        <time>2021-08-12T18:10:34.243Z</time>
      </trkpt>
      <trkpt lat="40.95524" lon="44.59242">
        <ele>985.348195</ele>
        <time>2021-08-12T18:10:37.808Z</time>
      </trkpt>
      <trkpt lat="40.95505" lon="44.59244">
        <ele>985.391894</ele>
        <time>2021-08-12T18:10:44.442Z</time>
      </trkpt>
      <trkpt lat="40.95486" lon="44.59246">
        <ele>985.434448</ele>
        <time>2021-08-12T18:10:51.180Z</time>
      </trkpt>
      <trkpt lat="40.95466" lon="44.59249">
        <ele>985.48674</ele>
        <time>2021-08-12T18:10:58.931Z</time>
      </trkpt>
      <trkpt lat="40.95429" lon="44.59259">
        <ele>986.353626</ele>
        <time>2021-08-12T18:11:13.769Z</time>
      </trkpt>
      <trkpt lat="40.95415" lon="44.59263">
        <ele>986.691142</ele>
        <time>2021-08-12T18:11:19.502Z</time>
      </trkpt>
      <trkpt lat="40.95403" lon="44.59274">
        <ele>987.035969</ele>
        <time>2021-08-12T18:11:25.895Z</time>
      </trkpt>
      <trkpt lat="40.95389" lon="44.5929">
        <ele>987.478586</ele>
        <time>2021-08-12T18:11:33.707Z</time>
      </trkpt>
      <trkpt lat="40.95336" lon="44.59436">
        <ele>990.885348</ele>
        <time>2021-08-12T18:12:32.024Z</time>
      </trkpt>
      <trkpt lat="40.95345" lon="44.59482">
        <ele>992.402455</ele>
        <time>2021-08-12T18:12:51.301Z</time>
      </trkpt>
      <trkpt lat="40.95369" lon="44.59541">
        <ele>994.545899</ele>
        <time>2021-08-12T18:13:19.919Z</time>
      </trkpt>
      <trkpt lat="40.95377" lon="44.59573">
        <ele>995.645153</ele>
        <time>2021-08-12T18:13:33.497Z</time>
      </trkpt>
      <trkpt lat="40.95377" lon="44.59583">
        <ele>995.970139</ele>
        <time>2021-08-12T18:13:38.582Z</time>
      </trkpt>
      <trkpt lat="40.95377" lon="44.59588">
        <ele>996.127809</ele>
        <time>2021-08-12T18:13:41.312Z</time>
      </trkpt>
      <trkpt lat="40.95388" lon="44.5967">
        <ele>999.242954</ele>
        <time>2021-08-12T18:14:17.349Z</time>
      </trkpt>
      <trkpt lat="40.95387" lon="44.59733">
        <ele>1001.94392</ele>
        <time>2021-08-12T18:14:48.137Z</time>
      </trkpt>
      <trkpt lat="40.95393" lon="44.59769">
        <ele>1003.538418</ele>
        <time>2021-08-12T18:15:05.517Z</time>
      </trkpt>
      <trkpt lat="40.95408" lon="44.59813">
        <ele>1005.569493</ele>
        <time>2021-08-12T18:15:27.748Z</time>
      </trkpt>
      <trkpt lat="40.95435" lon="44.59859">
        <ele>1008.228366</ele>
        <time>2021-08-12T18:15:55.441Z</time>
      </trkpt>
      <trkpt lat="40.95458" lon="44.59913">
        <ele>1011.58236</ele>
        <time>2021-08-12T18:16:31.033Z</time>
      </trkpt>
      <trkpt lat="40.95468" lon="44.5997">
        <ele>1014.778812</ele>
        <time>2021-08-12T18:17:02.908Z</time>
      </trkpt>
      <trkpt lat="40.95465" lon="44.60032">
        <ele>1018.180559</ele>
        <time>2021-08-12T18:17:35.915Z</time>
      </trkpt>
      <trkpt lat="40.95464" lon="44.60039">
        <ele>1018.543276</ele>
        <time>2021-08-12T18:17:40.078Z</time>
      </trkpt>
      <trkpt lat="40.95458" lon="44.60051">
        <ele>1019.322695</ele>
        <time>2021-08-12T18:17:49.688Z</time>
      </trkpt>
      <trkpt lat="40.95418" lon="44.60108">
        <ele>1023.915575</ele>
        <time>2021-08-12T18:18:30.904Z</time>
      </trkpt>
      <trkpt lat="40.95413" lon="44.60136">
        <ele>1025.653586</ele>
        <time>2021-08-12T18:18:47.820Z</time>
      </trkpt>
      <trkpt lat="40.95433" lon="44.60232">
        <ele>1031.750496</ele>
        <time>2021-08-12T18:19:48.739Z</time>
      </trkpt>
      <trkpt lat="40.95441" lon="44.60267">
        <ele>1033.958194</ele>
        <time>2021-08-12T18:20:07.775Z</time>
      </trkpt>
      <trkpt lat="40.95473" lon="44.60346">
        <ele>1039.678095</ele>
        <time>2021-08-12T18:20:58.828Z</time>
      </trkpt>
      <trkpt lat="40.95476" lon="44.60355">
        <ele>1040.342126</ele>
        <time>2021-08-12T18:21:04.299Z</time>
      </trkpt>
      <trkpt lat="40.95479" lon="44.60365">
        <ele>1041.054462</ele>
        <time>2021-08-12T18:21:12.941Z</time>
      </trkpt>
      <trkpt lat="40.95479" lon="44.6045">
        <ele>1046.542502</ele>
        <time>2021-08-12T18:22:02.985Z</time>
      </trkpt>
      <trkpt lat="40.95456" lon="44.6052">
        <ele>1051.543491</ele>
        <time>2021-08-12T18:22:51.622Z</time>
      </trkpt>
      <trkpt lat="40.95463" lon="44.60637">
        <ele>1059.324783</ele>
        <time>2021-08-12T18:24:03.636Z</time>
      </trkpt>
      <trkpt lat="40.95454" lon="44.60701">
        <ele>1063.636201</ele>
        <time>2021-08-12T18:24:42.837Z</time>
      </trkpt>
      <trkpt lat="40.95472" lon="44.60785">
        <ele>1069.340517</ele>
        <time>2021-08-12T18:25:34.391Z</time>
      </trkpt>
      <trkpt lat="40.95471" lon="44.60833">
        <ele>1072.389665</ele>
        <time>2021-08-12T18:26:02.346Z</time>
      </trkpt>
      <trkpt lat="40.95469" lon="44.60851">
        <ele>1073.599484</ele>
        <time>2021-08-12T18:26:13.746Z</time>
      </trkpt>
      <trkpt lat="40.95446" lon="44.60899">
        <ele>1077.237839</ele>
        <time>2021-08-12T18:26:47.709Z</time>
      </trkpt>
      <trkpt lat="40.95442" lon="44.60923">
        <ele>1078.794279</ele>
        <time>2021-08-12T18:27:02.074Z</time>
      </trkpt>
      <trkpt lat="40.95444" lon="44.60938">
        <ele>1079.828121</ele>
        <time>2021-08-12T18:27:11.969Z</time>
      </trkpt>
      <trkpt lat="40.95463" lon="44.60967">
        <ele>1082.290056</ele>
        <time>2021-08-12T18:27:34.305Z</time>
      </trkpt>
      <trkpt lat="40.95476" lon="44.61012">
        <ele>1085.460441</ele>
        <time>2021-08-12T18:28:02.460Z</time>
      </trkpt>
      <trkpt lat="40.95483" lon="44.61061">
        <ele>1088.781385</ele>
        <time>2021-08-12T18:28:33.892Z</time>
      </trkpt>
      <trkpt lat="40.95497" lon="44.61096">
        <ele>1091.348166</ele>
        <time>2021-08-12T18:28:59.685Z</time>
      </trkpt>
      <trkpt lat="40.95513" lon="44.61161">
        <ele>1095.894859</ele>
        <time>2021-08-12T18:29:41.521Z</time>
      </trkpt>
      <trkpt lat="40.95519" lon="44.61215">
        <ele>1098.524361</ele>
        <time>2021-08-12T18:30:12.457Z</time>
      </trkpt>
      <trkpt lat="40.95522" lon="44.61224">
        <ele>1098.911352</ele>
        <time>2021-08-12T18:30:20.638Z</time>
      </trkpt>
      <trkpt lat="40.95527" lon="44.6124">
        <ele>1099.559206</ele>
        <time>2021-08-12T18:30:29.519Z</time>
      </trkpt>
      <trkpt lat="40.95534" lon="44.61264">
        <ele>1100.515121</ele>
        <time>2021-08-12T18:30:39.780Z</time>
      </trkpt>
      <trkpt lat="40.9553" lon="44.61268">
        <ele>1100.731861</ele>
        <time>2021-08-12T18:30:44.062Z</time>
      </trkpt>
      <trkpt lat="40.95527" lon="44.6127">
        <ele>1100.902762</ele>
        <time>2021-08-12T18:30:45.667Z</time>
      </trkpt>
      <trkpt lat="40.95521" lon="44.61267">
        <ele>1101.212592</ele>
        <time>2021-08-12T18:30:49.171Z</time>
      </trkpt>
      <trkpt lat="40.95526" lon="44.61275">
        <ele>1101.583168</ele>
        <time>2021-08-12T18:30:51.446Z</time>
      </trkpt>
      <trkpt lat="40.9553" lon="44.61281">
        <ele>1101.898886</ele>
        <time>2021-08-12T18:30:53.959Z</time>
      </trkpt>
      <trkpt lat="40.95537" lon="44.61295">
        <ele>1102.528208</ele>
        <time>2021-08-12T18:31:05.784Z</time>
      </trkpt>
      <trkpt lat="40.95541" lon="44.6133">
        <ele>1103.837574</ele>
        <time>2021-08-12T18:31:21.910Z</time>
      </trkpt>
      <trkpt lat="40.95538" lon="44.61379">
        <ele>1105.688773</ele>
        <time>2021-08-12T18:31:48.859Z</time>
      </trkpt>
      <trkpt lat="40.95536" lon="44.61393">
        <ele>1106.204509</ele>
        <time>2021-08-12T18:31:58.970Z</time>
      </trkpt>
      <trkpt lat="40.95532" lon="44.61408">
        <ele>1106.61017</ele>
        <time>2021-08-12T18:32:04.232Z</time>
      </trkpt>
      <trkpt lat="40.9553" lon="44.61413">
        <ele>1106.745769</ele>
        <time>2021-08-12T18:32:05.510Z</time>
      </trkpt>
      <trkpt lat="40.95526" lon="44.61428">
        <ele>1107.147955</ele>
        <time>2021-08-12T18:32:11.255Z</time>
      </trkpt>
      <trkpt lat="40.95523" lon="44.6144">
        <ele>1107.447053</ele>
        <time>2021-08-12T18:32:16.580Z</time>
      </trkpt>
      <trkpt lat="40.95519" lon="44.61455">
        <ele>1107.84374</ele>
        <time>2021-08-12T18:32:21.173Z</time>
      </trkpt>
      <trkpt lat="40.95516" lon="44.61488">
        <ele>1108.665179</ele>
        <time>2021-08-12T18:32:32.356Z</time>
      </trkpt>
      <trkpt lat="40.95509" lon="44.61506">
        <ele>1109.160886</ele>
        <time>2021-08-12T18:32:38.166Z</time>
      </trkpt>
      <trkpt lat="40.95487" lon="44.61525">
        <ele>1110.041715</ele>
        <time>2021-08-12T18:32:50.760Z</time>
      </trkpt>
      <trkpt lat="40.95452" lon="44.61524">
        <ele>1111.180531</ele>
        <time>2021-08-12T18:33:08.047Z</time>
      </trkpt>
      <trkpt lat="40.9538" lon="44.61496">
        <ele>1114.13969</ele>
        <time>2021-08-12T18:33:51.355Z</time>
      </trkpt>
      <trkpt lat="40.95333" lon="44.61499">
        <ele>1116.225447</ele>
        <time>2021-08-12T18:34:22.067Z</time>
      </trkpt>
      <trkpt lat="40.95321" lon="44.6151">
        <ele>1116.88412</ele>
        <time>2021-08-12T18:34:31.579Z</time>
      </trkpt>
      <trkpt lat="40.95317" lon="44.61529">
        <ele>1117.518614</ele>
        <time>2021-08-12T18:34:40.501Z</time>
      </trkpt>
      <trkpt lat="40.95321" lon="44.61564">
        <ele>1118.697973</ele>
        <time>2021-08-12T18:34:55.769Z</time>
      </trkpt>
      <trkpt lat="40.95364" lon="44.61711">
        <ele>1120.219704</ele>
        <time>2021-08-12T18:35:42.967Z</time>
      </trkpt>
      <trkpt lat="40.95361" lon="44.61745">
        <ele>1120.28854</ele>
        <time>2021-08-12T18:35:50.551Z</time>
      </trkpt>
      <trkpt lat="40.95345" lon="44.61797">
        <ele>1120.400694</ele>
        <time>2021-08-12T18:36:01.699Z</time>
      </trkpt>
      <trkpt lat="40.9534" lon="44.61801">
        <ele>1120.415591</ele>
        <time>2021-08-12T18:36:02.858Z</time>
      </trkpt>
      <trkpt lat="40.95328" lon="44.61833">
        <ele>1120.28285</ele>
        <time>2021-08-12T18:36:15.927Z</time>
      </trkpt>
      <trkpt lat="40.95323" lon="44.61863">
        <ele>1119.920809</ele>
        <time>2021-08-12T18:36:25.802Z</time>
      </trkpt>
      <trkpt lat="40.95283" lon="44.62261">
        <ele>1114.523385</ele>
        <time>2021-08-12T18:38:44.365Z</time>
      </trkpt>
      <trkpt lat="40.95281" lon="44.62353">
        <ele>1111.051725</ele>
        <time>2021-08-12T18:39:12.564Z</time>
      </trkpt>
      <trkpt lat="40.95282" lon="44.62377">
        <ele>1109.920523</ele>
        <time>2021-08-12T18:39:19.443Z</time>
      </trkpt>
      <trkpt lat="40.95293" lon="44.6242">
        <ele>1107.740263</ele>
        <time>2021-08-12T18:39:32.356Z</time>
      </trkpt>
      <trkpt lat="40.95351" lon="44.62525">
        <ele>1100.558318</ele>
        <time>2021-08-12T18:40:07.007Z</time>
      </trkpt>
      <trkpt lat="40.95352" lon="44.62536">
        <ele>1099.571033</ele>
        <time>2021-08-12T18:40:09.955Z</time>
      </trkpt>
      <trkpt lat="40.95343" lon="44.62553">
        <ele>1097.835126</ele>
        <time>2021-08-12T18:40:15.110Z</time>
      </trkpt>
      <trkpt lat="40.95313" lon="44.62567">
        <ele>1094.171805</ele>
        <time>2021-08-12T18:40:25.877Z</time>
      </trkpt>
      <trkpt lat="40.9525" lon="44.62568">
        <ele>1086.999615</ele>
        <time>2021-08-12T18:40:46.653Z</time>
      </trkpt>
      <trkpt lat="40.95207" lon="44.62581">
        <ele>1081.949385</ele>
        <time>2021-08-12T18:41:01.197Z</time>
      </trkpt>
      <trkpt lat="40.952" lon="44.62588">
        <ele>1080.890753</ele>
        <time>2021-08-12T18:41:04.292Z</time>
      </trkpt>
      <trkpt lat="40.95195" lon="44.62605">
        <ele>1079.407423</ele>
        <time>2021-08-12T18:41:08.604Z</time>
      </trkpt>
      <trkpt lat="40.95207" lon="44.62633">
        <ele>1076.587754</ele>
        <time>2021-08-12T18:41:16.874Z</time>
      </trkpt>
      <trkpt lat="40.95209" lon="44.62656">
        <ele>1074.644009</ele>
        <time>2021-08-12T18:41:22.588Z</time>
      </trkpt>
      <trkpt lat="40.95202" lon="44.62674">
        <ele>1072.892307</ele>
        <time>2021-08-12T18:41:27.762Z</time>
      </trkpt>
      <trkpt lat="40.95192" lon="44.6268">
        <ele>1071.68724</ele>
        <time>2021-08-12T18:41:31.296Z</time>
      </trkpt>
      <trkpt lat="40.95153" lon="44.62676">
        <ele>1067.227672</ele>
        <time>2021-08-12T18:41:44.631Z</time>
      </trkpt>
      <trkpt lat="40.95107" lon="44.62652">
        <ele>1061.722096</ele>
        <time>2021-08-12T18:42:01.498Z</time>
      </trkpt>
      <trkpt lat="40.95055" lon="44.62648">
        <ele>1058.470898</ele>
        <time>2021-08-12T18:42:20.140Z</time>
      </trkpt>
      <trkpt lat="40.95018" lon="44.62598">
        <ele>1055.214955</ele>
        <time>2021-08-12T18:42:39.920Z</time>
      </trkpt>
      <trkpt lat="40.9498" lon="44.6258">
        <ele>1052.719562</ele>
        <time>2021-08-12T18:42:55.652Z</time>
      </trkpt>
      <trkpt lat="40.94898" lon="44.6259">
        <ele>1048.249515</ele>
        <time>2021-08-12T18:43:28.116Z</time>
      </trkpt>
      <trkpt lat="40.94859" lon="44.62581">
        <ele>1046.351569</ele>
        <time>2021-08-12T18:43:43.287Z</time>
      </trkpt>
      <trkpt lat="40.94853" lon="44.62597">
        <ele>1045.696832</ele>
        <time>2021-08-12T18:43:48.499Z</time>
      </trkpt>
      <trkpt lat="40.94864" lon="44.62613">
        <ele>1044.894027</ele>
        <time>2021-08-12T18:43:54.863Z</time>
      </trkpt>
      <trkpt lat="40.94881" lon="44.62609">
        <ele>1044.05705</ele>
        <time>2021-08-12T18:44:01.561Z</time>
      </trkpt>
      <trkpt lat="40.94918" lon="44.62612">
        <ele>1042.224578</ele>
        <time>2021-08-12T18:44:16.153Z</time>
      </trkpt>
      <trkpt lat="40.94949" lon="44.62602">
        <ele>1040.422903</ele>
        <time>2021-08-12T18:44:28.303Z</time>
      </trkpt>
      <trkpt lat="40.94962" lon="44.62603">
        <ele>1039.671862</ele>
        <time>2021-08-12T18:44:33.056Z</time>
      </trkpt>
      <trkpt lat="40.94992" lon="44.62618">
        <ele>1037.772518</ele>
        <time>2021-08-12T18:44:44.970Z</time>
      </trkpt>
      <trkpt lat="40.95006" lon="44.6263">
        <ele>1036.822163</ele>
        <time>2021-08-12T18:44:50.827Z</time>
      </trkpt>
      <trkpt lat="40.95036" lon="44.62679">
        <ele>1034.024117</ele>
        <time>2021-08-12T18:45:08.486Z</time>
      </trkpt>
      <trkpt lat="40.9504" lon="44.62693">
        <ele>1033.376208</ele>
        <time>2021-08-12T18:45:12.619Z</time>
      </trkpt>
      <trkpt lat="40.95036" lon="44.627">
        <ele>1032.962636</ele>
        <time>2021-08-12T18:45:15.249Z</time>
      </trkpt>
      <trkpt lat="40.95027" lon="44.627">
        <ele>1032.440487</ele>
        <time>2021-08-12T18:45:18.685Z</time>
      </trkpt>
      <trkpt lat="40.95002" lon="44.62648">
        <ele>1029.570239</ele>
        <time>2021-08-12T18:45:36.777Z</time>
      </trkpt>
      <trkpt lat="40.94981" lon="44.62632">
        <ele>1027.989762</ele>
        <time>2021-08-12T18:45:46.005Z</time>
      </trkpt>
      <trkpt lat="40.94957" lon="44.62626">
        <ele>1026.388313</ele>
        <time>2021-08-12T18:45:55.363Z</time>
      </trkpt>
      <trkpt lat="40.94935" lon="44.62633">
        <ele>1024.913596</ele>
        <time>2021-08-12T18:46:03.819Z</time>
      </trkpt>
      <trkpt lat="40.94893" lon="44.62674">
        <ele>1021.590112</ele>
        <time>2021-08-12T18:46:22.266Z</time>
      </trkpt>
      <trkpt lat="40.94875" lon="44.6268">
        <ele>1020.344182</ele>
        <time>2021-08-12T18:46:29.165Z</time>
      </trkpt>
      <trkpt lat="40.94852" lon="44.62674">
        <ele>1018.426812</ele>
        <time>2021-08-12T18:46:37.467Z</time>
      </trkpt>
      <trkpt lat="40.94836" lon="44.62654">
        <ele>1016.340537</ele>
        <time>2021-08-12T18:46:45.274Z</time>
      </trkpt>
      <trkpt lat="40.9481" lon="44.62638">
        <ele>1013.611357</ele>
        <time>2021-08-12T18:46:55.389Z</time>
      </trkpt>
      <trkpt lat="40.94789" lon="44.62639">
        <ele>1011.583816</ele>
        <time>2021-08-12T18:47:02.678Z</time>
      </trkpt>
      <trkpt lat="40.94762" lon="44.62688">
        <ele>1007.187139</ele>
        <time>2021-08-12T18:47:18.285Z</time>
      </trkpt>
      <trkpt lat="40.94759" lon="44.62707">
        <ele>1005.800811</ele>
        <time>2021-08-12T18:47:23.098Z</time>
      </trkpt>
      <trkpt lat="40.94746" lon="44.62725">
        <ele>1003.98143</ele>
        <time>2021-08-12T18:47:29.535Z</time>
      </trkpt>
      <trkpt lat="40.94703" lon="44.62705">
        <ele>1000.482025</ele>
        <time>2021-08-12T18:47:45.058Z</time>
      </trkpt>
      <trkpt lat="40.9469" lon="44.62712">
        <ele>999.558471</ele>
        <time>2021-08-12T18:47:49.758Z</time>
      </trkpt>
      <trkpt lat="40.94664" lon="44.62725">
        <ele>997.640869</ele>
        <time>2021-08-12T18:47:59.879Z</time>
      </trkpt>
      <trkpt lat="40.94634" lon="44.62717">
        <ele>995.603497</ele>
        <time>2021-08-12T18:48:10.852Z</time>
      </trkpt>
      <trkpt lat="40.94628" lon="44.62725">
        <ele>995.053686</ele>
        <time>2021-08-12T18:48:13.758Z</time>
      </trkpt>
      <trkpt lat="40.9463" lon="44.62732">
        <ele>994.64215</ele>
        <time>2021-08-12T18:48:15.994Z</time>
      </trkpt>
      <trkpt lat="40.94641" lon="44.62739">
        <ele>993.820388</ele>
        <time>2021-08-12T18:48:20.689Z</time>
      </trkpt>
      <trkpt lat="40.94659" lon="44.6274">
        <ele>992.571061</ele>
        <time>2021-08-12T18:48:27.717Z</time>
      </trkpt>
      <trkpt lat="40.94699" lon="44.62726">
        <ele>990.158133</ele>
        <time>2021-08-12T18:48:44.330Z</time>
      </trkpt>
      <trkpt lat="40.94741" lon="44.62754">
        <ele>989.251055</ele>
        <time>2021-08-12T18:49:05.500Z</time>
      </trkpt>
      <trkpt lat="40.94755" lon="44.62758">
        <ele>988.974533</ele>
        <time>2021-08-12T18:49:12.311Z</time>
      </trkpt>
      <trkpt lat="40.94768" lon="44.62747">
        <ele>988.680333</ele>
        <time>2021-08-12T18:49:19.714Z</time>
      </trkpt>
      <trkpt lat="40.94795" lon="44.6269">
        <ele>987.697867</ele>
        <time>2021-08-12T18:49:44.725Z</time>
      </trkpt>
      <trkpt lat="40.9481" lon="44.62687">
        <ele>987.394608</ele>
        <time>2021-08-12T18:49:51.959Z</time>
      </trkpt>
      <trkpt lat="40.94848" lon="44.62743">
        <ele>985.615601</ele>
        <time>2021-08-12T18:50:16.183Z</time>
      </trkpt>
      <trkpt lat="40.94859" lon="44.6275">
        <ele>985.112071</ele>
        <time>2021-08-12T18:50:21.050Z</time>
      </trkpt>
      <trkpt lat="40.94942" lon="44.62727">
        <ele>981.468231</ele>
        <time>2021-08-12T18:50:54.701Z</time>
      </trkpt>
      <trkpt lat="40.94961" lon="44.62731">
        <ele>980.618682</ele>
        <time>2021-08-12T18:51:02.054Z</time>
      </trkpt>
      <trkpt lat="40.9498" lon="44.62757">
        <ele>979.45694</ele>
        <time>2021-08-12T18:51:12.109Z</time>
      </trkpt>
      <trkpt lat="40.9499" lon="44.62807">
        <ele>977.176887</ele>
        <time>2021-08-12T18:51:26.538Z</time>
      </trkpt>
      <trkpt lat="40.94983" lon="44.62813">
        <ele>976.663659</ele>
        <time>2021-08-12T18:51:29.547Z</time>
      </trkpt>
      <trkpt lat="40.94973" lon="44.62805">
        <ele>975.906263</ele>
        <time>2021-08-12T18:51:34.086Z</time>
      </trkpt>
      <trkpt lat="40.94972" lon="44.62769">
        <ele>974.251087</ele>
        <time>2021-08-12T18:51:43.965Z</time>
      </trkpt>
      <trkpt lat="40.94966" lon="44.6276">
        <ele>973.688698</ele>
        <time>2021-08-12T18:51:47.332Z</time>
      </trkpt>
      <trkpt lat="40.94956" lon="44.6275">
        <ele>972.911077</ele>
        <time>2021-08-12T18:51:52.038Z</time>
      </trkpt>
      <trkpt lat="40.94942" lon="44.62748">
        <ele>972.023749</ele>
        <time>2021-08-12T18:51:57.254Z</time>
      </trkpt>
      <trkpt lat="40.94872" lon="44.62781">
        <ele>967.451286</ele>
        <time>2021-08-12T18:52:24.657Z</time>
      </trkpt>
      <trkpt lat="40.94842" lon="44.62782">
        <ele>965.695046</ele>
        <time>2021-08-12T18:52:35.813Z</time>
      </trkpt>
      <trkpt lat="40.94841" lon="44.62792">
        <ele>965.252292</ele>
        <time>2021-08-12T18:52:38.559Z</time>
      </trkpt>
      <trkpt lat="40.94858" lon="44.62801">
        <ele>964.189706</ele>
        <time>2021-08-12T18:52:45.402Z</time>
      </trkpt>
      <trkpt lat="40.94904" lon="44.62772">
        <ele>961.203987</ele>
        <time>2021-08-12T18:53:04.452Z</time>
      </trkpt>
      <trkpt lat="40.94913" lon="44.6277">
        <ele>960.668396</ele>
        <time>2021-08-12T18:53:07.941Z</time>
      </trkpt>
      <trkpt lat="40.94922" lon="44.62776">
        <ele>960.097881</ele>
        <time>2021-08-12T18:53:11.599Z</time>
      </trkpt>
      <trkpt lat="40.94921" lon="44.62787">
        <ele>959.625671</ele>
        <time>2021-08-12T18:53:14.601Z</time>
      </trkpt>
      <trkpt lat="40.94891" lon="44.62798">
        <ele>957.817697</ele>
        <time>2021-08-12T18:53:26.148Z</time>
      </trkpt>
      <trkpt lat="40.94866" lon="44.6282">
        <ele>956.448915</ele>
        <time>2021-08-12T18:53:37.251Z</time>
      </trkpt>
      <trkpt lat="40.94828" lon="44.62823">
        <ele>954.885753</ele>
        <time>2021-08-12T18:53:51.720Z</time>
      </trkpt>
      <trkpt lat="40.94808" lon="44.62797">
        <ele>953.730227</ele>
        <time>2021-08-12T18:54:02.775Z</time>
      </trkpt>
      <trkpt lat="40.9479" lon="44.62794">
        <ele>952.977656</ele>
        <time>2021-08-12T18:54:10.081Z</time>
      </trkpt>
      <trkpt lat="40.94757" lon="44.62832">
        <ele>951.187614</ele>
        <time>2021-08-12T18:54:27.806Z</time>
      </trkpt>
      <trkpt lat="40.94736" lon="44.62848">
        <ele>950.186862</ele>
        <time>2021-08-12T18:54:38.014Z</time>
      </trkpt>
      <trkpt lat="40.94722" lon="44.62848">
        <ele>949.833978</ele>
        <time>2021-08-12T18:54:44.261Z</time>
      </trkpt>
      <trkpt lat="40.94692" lon="44.62826">
        <ele>949.30778</ele>
        <time>2021-08-12T18:55:00.188Z</time>
      </trkpt>
      <trkpt lat="40.94641" lon="44.62846">
        <ele>948.505808</ele>
        <time>2021-08-12T18:55:25.543Z</time>
      </trkpt>
      <trkpt lat="40.94625" lon="44.62847">
        <ele>948.255584</ele>
        <time>2021-08-12T18:55:36.667Z</time>
      </trkpt>
      <trkpt lat="40.94601" lon="44.62835">
        <ele>947.870374</ele>
        <time>2021-08-12T18:55:47.095Z</time>
      </trkpt>
      <trkpt lat="40.94572" lon="44.62808">
        <ele>947.332418</ele>
        <time>2021-08-12T18:56:03.457Z</time>
      </trkpt>
      <trkpt lat="40.94532" lon="44.6282">
        <ele>945.68468</ele>
        <time>2021-08-12T18:56:20.838Z</time>
      </trkpt>
      <trkpt lat="40.94527" lon="44.62824">
        <ele>945.40439</ele>
        <time>2021-08-12T18:56:26.060Z</time>
      </trkpt>
      <trkpt lat="40.94519" lon="44.62837">
        <ele>944.832209</ele>
        <time>2021-08-12T18:56:30.531Z</time>
      </trkpt>
      <trkpt lat="40.94505" lon="44.62872">
        <ele>943.469587</ele>
        <time>2021-08-12T18:56:43.128Z</time>
      </trkpt>
      <trkpt lat="40.94511" lon="44.62886">
        <ele>942.91066</ele>
        <time>2021-08-12T18:56:47.653Z</time>
      </trkpt>
      <trkpt lat="40.94516" lon="44.62886">
        <ele>942.67571</ele>
        <time>2021-08-12T18:56:49.700Z</time>
      </trkpt>
      <trkpt lat="40.94534" lon="44.62848">
        <ele>941.15701</ele>
        <time>2021-08-12T18:57:02.687Z</time>
      </trkpt>
      <trkpt lat="40.94557" lon="44.6284">
        <ele>940.089577</ele>
        <time>2021-08-12T18:57:11.677Z</time>
      </trkpt>
      <trkpt lat="40.94577" lon="44.62846">
        <ele>939.16066</ele>
        <time>2021-08-12T18:57:19.207Z</time>
      </trkpt>
      <trkpt lat="40.94599" lon="44.62868">
        <ele>937.404753</ele>
        <time>2021-08-12T18:57:29.023Z</time>
      </trkpt>
      <trkpt lat="40.94622" lon="44.62874">
        <ele>935.943373</ele>
        <time>2021-08-12T18:57:37.250Z</time>
      </trkpt>
      <trkpt lat="40.94637" lon="44.62876">
        <ele>934.973065</ele>
        <time>2021-08-12T18:57:42.681Z</time>
      </trkpt>
      <trkpt lat="40.94675" lon="44.62866">
        <ele>932.457126</ele>
        <time>2021-08-12T18:57:57.020Z</time>
      </trkpt>
      <trkpt lat="40.94726" lon="44.62891">
        <ele>928.976264</ele>
        <time>2021-08-12T18:58:17.023Z</time>
      </trkpt>
      <trkpt lat="40.94776" lon="44.62888">
        <ele>926.26882</ele>
        <time>2021-08-12T18:58:36.045Z</time>
      </trkpt>
      <trkpt lat="40.94805" lon="44.62906">
        <ele>924.791367</ele>
        <time>2021-08-12T18:58:48.355Z</time>
      </trkpt>
      <trkpt lat="40.94852" lon="44.62895">
        <ele>922.559937</ele>
        <time>2021-08-12T18:59:06.778Z</time>
      </trkpt>
      <trkpt lat="40.94854" lon="44.629">
        <ele>922.360555</ele>
        <time>2021-08-12T18:59:08.431Z</time>
      </trkpt>
      <trkpt lat="40.94847" lon="44.6291">
        <ele>921.904494</ele>
        <time>2021-08-12T18:59:12.138Z</time>
      </trkpt>
      <trkpt lat="40.94801" lon="44.62922">
        <ele>919.699121</ele>
        <time>2021-08-12T18:59:31.465Z</time>
      </trkpt>
      <trkpt lat="40.94756" lon="44.62926">
        <ele>918.875282</ele>
        <time>2021-08-12T18:59:50.227Z</time>
      </trkpt>
      <trkpt lat="40.94739" lon="44.62935">
        <ele>918.668998</ele>
        <time>2021-08-12T18:59:57.960Z</time>
      </trkpt>
      <trkpt lat="40.9468" lon="44.62938">
        <ele>918.030342</ele>
        <time>2021-08-12T19:00:13.154Z</time>
      </trkpt>
      <trkpt lat="40.94569" lon="44.62975">
        <ele>917.908488</ele>
        <time>2021-08-12T19:00:54.452Z</time>
      </trkpt>
      <trkpt lat="40.94548" lon="44.62978">
        <ele>918.172405</ele>
        <time>2021-08-12T19:01:03.407Z</time>
      </trkpt>
      <trkpt lat="40.94509" lon="44.62985">
        <ele>918.687474</ele>
        <time>2021-08-12T19:01:20.222Z</time>
      </trkpt>
      <trkpt lat="40.94455" lon="44.6299">
        <ele>919.389585</ele>
        <time>2021-08-12T19:01:39.933Z</time>
      </trkpt>
      <trkpt lat="40.94432" lon="44.62989">
        <ele>919.651828</ele>
        <time>2021-08-12T19:01:49.497Z</time>
      </trkpt>
      <trkpt lat="40.94409" lon="44.62974">
        <ele>919.783226</ele>
        <time>2021-08-12T19:01:58.782Z</time>
      </trkpt>
      <trkpt lat="40.94392" lon="44.62962">
        <ele>919.879823</ele>
        <time>2021-08-12T19:02:06.119Z</time>
      </trkpt>
      <trkpt lat="40.94333" lon="44.62899">
        <ele>920.263093</ele>
        <time>2021-08-12T19:02:32.065Z</time>
      </trkpt>
      <trkpt lat="40.94314" lon="44.62876">
        <ele>920.395963</ele>
        <time>2021-08-12T19:02:41.598Z</time>
      </trkpt>
      <trkpt lat="40.94262" lon="44.62875">
        <ele>920.870019</ele>
        <time>2021-08-12T19:02:57.250Z</time>
      </trkpt>
      <trkpt lat="40.94206" lon="44.62904">
        <ele>921.711623</ele>
        <time>2021-08-12T19:03:18.893Z</time>
      </trkpt>
      <trkpt lat="40.94036" lon="44.62959">
        <ele>925.68656</ele>
        <time>2021-08-12T19:04:38.417Z</time>
      </trkpt>
      <trkpt lat="40.93995" lon="44.62932">
        <ele>927.233529</ele>
        <time>2021-08-12T19:05:02.121Z</time>
      </trkpt>
      <trkpt lat="40.9395" lon="44.62872">
        <ele>929.397012</ele>
        <time>2021-08-12T19:05:38.660Z</time>
      </trkpt>
      <trkpt lat="40.939" lon="44.62863">
        <ele>931.391539</ele>
        <time>2021-08-12T19:06:10.032Z</time>
      </trkpt>
      <trkpt lat="40.9385" lon="44.62875">
        <ele>933.414198</ele>
        <time>2021-08-12T19:06:38.131Z</time>
      </trkpt>
      <trkpt lat="40.93831" lon="44.62883">
        <ele>934.183315</ele>
        <time>2021-08-12T19:06:50.179Z</time>
      </trkpt>
      <trkpt lat="40.93786" lon="44.62875">
        <ele>936.005046</ele>
        <time>2021-08-12T19:07:12.593Z</time>
      </trkpt>
      <trkpt lat="40.93754" lon="44.6286">
        <ele>936.414028</ele>
        <time>2021-08-12T19:07:28.055Z</time>
      </trkpt>
      <trkpt lat="40.93603" lon="44.62745">
        <ele>937.5538</ele>
        <time>2021-08-12T19:08:24.617Z</time>
      </trkpt>
      <trkpt lat="40.93553" lon="44.62725">
        <ele>937.44757</ele>
        <time>2021-08-12T19:08:38.654Z</time>
      </trkpt>
      <trkpt lat="40.9349" lon="44.6272">
        <ele>937.318822</ele>
        <time>2021-08-12T19:08:56.510Z</time>
      </trkpt>
      <trkpt lat="40.93373" lon="44.62731">
        <ele>938.179467</ele>
        <time>2021-08-12T19:09:36.917Z</time>
      </trkpt>
      <trkpt lat="40.93329" lon="44.62717">
        <ele>938.7477</ele>
        <time>2021-08-12T19:09:55.339Z</time>
      </trkpt>
      <trkpt lat="40.93212" lon="44.62655">
        <ele>940.324455</ele>
        <time>2021-08-12T19:10:47.729Z</time>
      </trkpt>
      <trkpt lat="40.93188" lon="44.62649">
        <ele>940.643761</ele>
        <time>2021-08-12T19:10:58.172Z</time>
      </trkpt>
      <trkpt lat="40.92967" lon="44.62666">
        <ele>942.384021</ele>
        <time>2021-08-12T19:12:14.817Z</time>
      </trkpt>
      <trkpt lat="40.92833" lon="44.62589">
        <ele>943.706849</ele>
        <time>2021-08-12T19:13:01.040Z</time>
      </trkpt>
      <trkpt lat="40.92801" lon="44.62575">
        <ele>944.077608</ele>
        <time>2021-08-12T19:13:13.662Z</time>
      </trkpt>
      <trkpt lat="40.92779" lon="44.62552">
        <ele>944.391282</ele>
        <time>2021-08-12T19:13:26.052Z</time>
      </trkpt>
      <trkpt lat="40.9274" lon="44.62515">
        <ele>945.96895</ele>
        <time>2021-08-12T19:13:48.521Z</time>
      </trkpt>
      <trkpt lat="40.92719" lon="44.62496">
        <ele>947.208911</ele>
        <time>2021-08-12T19:14:02.547Z</time>
      </trkpt>
      <trkpt lat="40.92706" lon="44.62486">
        <ele>947.898699</ele>
        <time>2021-08-12T19:14:10.472Z</time>
      </trkpt>
      <trkpt lat="40.92656" lon="44.62446">
        <ele>950.707438</ele>
        <time>2021-08-12T19:14:46.309Z</time>
      </trkpt>
      <trkpt lat="40.92581" lon="44.62383">
        <ele>955.233999</ele>
        <time>2021-08-12T19:15:44.556Z</time>
      </trkpt>
      <trkpt lat="40.92552" lon="44.6237">
        <ele>956.937242</ele>
        <time>2021-08-12T19:16:05.899Z</time>
      </trkpt>
      <trkpt lat="40.92418" lon="44.62368">
        <ele>963.74031</ele>
        <time>2021-08-12T19:17:27.414Z</time>
      </trkpt>
      <trkpt lat="40.92344" lon="44.62343">
        <ele>965.758307</ele>
        <time>2021-08-12T19:18:04.511Z</time>
      </trkpt>
      <trkpt lat="40.92291" lon="44.62333">
        <ele>967.204959</ele>
        <time>2021-08-12T19:18:26.811Z</time>
      </trkpt>
      <trkpt lat="40.9212" lon="44.6223">
        <ele>968.412844</ele>
        <time>2021-08-12T19:19:28.930Z</time>
      </trkpt>
      <trkpt lat="40.91988" lon="44.62221">
        <ele>967.251266</ele>
        <time>2021-08-12T19:20:06.916Z</time>
      </trkpt>
      <trkpt lat="40.91764" lon="44.62146">
        <ele>963.123883</ele>
        <time>2021-08-12T19:21:03.084Z</time>
      </trkpt>
      <trkpt lat="40.91654" lon="44.62165">
        <ele>961.951985</ele>
        <time>2021-08-12T19:21:31.041Z</time>
      </trkpt>
      <trkpt lat="40.91586" lon="44.62155">
        <ele>961.340727</ele>
        <time>2021-08-12T19:21:51.202Z</time>
      </trkpt>
      <trkpt lat="40.9157" lon="44.62145">
        <ele>961.200821</ele>
        <time>2021-08-12T19:21:56.992Z</time>
      </trkpt>
      <trkpt lat="40.91523" lon="44.6206">
        <ele>961.960901</ele>
        <time>2021-08-12T19:22:26.004Z</time>
      </trkpt>
      <trkpt lat="40.91476" lon="44.62002">
        <ele>962.570243</ele>
        <time>2021-08-12T19:22:51.091Z</time>
      </trkpt>
      <trkpt lat="40.91438" lon="44.61974">
        <ele>963.013392</ele>
        <time>2021-08-12T19:23:07.594Z</time>
      </trkpt>
      <trkpt lat="40.9135" lon="44.61925">
        <ele>964.220347</ele>
        <time>2021-08-12T19:23:41.133Z</time>
      </trkpt>
      <trkpt lat="40.91316" lon="44.6191">
        <ele>964.661338</ele>
        <time>2021-08-12T19:23:55.189Z</time>
      </trkpt>
      <trkpt lat="40.91263" lon="44.61901">
        <ele>965.549602</ele>
        <time>2021-08-12T19:24:17.503Z</time>
      </trkpt>
      <trkpt lat="40.91217" lon="44.61901">
        <ele>966.800994</ele>
        <time>2021-08-12T19:24:37.288Z</time>
      </trkpt>
      <trkpt lat="40.91174" lon="44.61904">
        <ele>967.94982</ele>
        <time>2021-08-12T19:24:56.881Z</time>
      </trkpt>
      <trkpt lat="40.91126" lon="44.61912">
        <ele>969.284542</ele>
        <time>2021-08-12T19:25:20.819Z</time>
      </trkpt>
      <trkpt lat="40.91101" lon="44.61929">
        <ele>970.042476</ele>
        <time>2021-08-12T19:25:35.151Z</time>
      </trkpt>
      <trkpt lat="40.91012" lon="44.6203">
        <ele>973.509221</ele>
        <time>2021-08-12T19:26:34.508Z</time>
      </trkpt>
      <trkpt lat="40.90979" lon="44.62048">
        <ele>974.562696</ele>
        <time>2021-08-12T19:26:50.667Z</time>
      </trkpt>
      <trkpt lat="40.90963" lon="44.62049">
        <ele>975.048181</ele>
        <time>2021-08-12T19:26:57.957Z</time>
      </trkpt>
      <trkpt lat="40.90925" lon="44.62037">
        <ele>975.545144</ele>
        <time>2021-08-12T19:27:14.395Z</time>
      </trkpt>
      <trkpt lat="40.90801" lon="44.61994">
        <ele>976.292039</ele>
        <time>2021-08-12T19:27:58.643Z</time>
      </trkpt>
      <trkpt lat="40.90771" lon="44.61992">
        <ele>976.36411</ele>
        <time>2021-08-12T19:28:06.935Z</time>
      </trkpt>
      <trkpt lat="40.90693" lon="44.62001">
        <ele>975.418519</ele>
        <time>2021-08-12T19:28:26.649Z</time>
      </trkpt>
      <trkpt lat="40.90648" lon="44.61997">
        <ele>974.879754</ele>
        <time>2021-08-12T19:28:37.722Z</time>
      </trkpt>
      <trkpt lat="40.9062" lon="44.61982">
        <ele>974.514206</ele>
        <time>2021-08-12T19:28:45.863Z</time>
      </trkpt>
      <trkpt lat="40.90613" lon="44.61976">
        <ele>974.412145</ele>
        <time>2021-08-12T19:28:47.757Z</time>
      </trkpt>
      <trkpt lat="40.90594" lon="44.61958">
        <ele>974.398218</ele>
        <time>2021-08-12T19:28:54.497Z</time>
      </trkpt>
      <trkpt lat="40.9052" lon="44.61862">
        <ele>975.677381</ele>
        <time>2021-08-12T19:29:30.763Z</time>
      </trkpt>
      <trkpt lat="40.90491" lon="44.61842">
        <ele>976.079665</ele>
        <time>2021-08-12T19:29:44.979Z</time>
      </trkpt>
      <trkpt lat="40.90445" lon="44.61837">
        <ele>976.942292</ele>
        <time>2021-08-12T19:30:07.757Z</time>
      </trkpt>
      <trkpt lat="40.90421" lon="44.61843">
        <ele>977.778903</ele>
        <time>2021-08-12T19:30:20.778Z</time>
      </trkpt>
      <trkpt lat="40.90402" lon="44.61852">
        <ele>978.451488</ele>
        <time>2021-08-12T19:30:30.669Z</time>
      </trkpt>
      <trkpt lat="40.90376" lon="44.61873">
        <ele>979.47079</ele>
        <time>2021-08-12T19:30:45.587Z</time>
      </trkpt>
      <trkpt lat="40.90263" lon="44.62029">
        <ele>986.036598</ele>
        <time>2021-08-12T19:32:08.619Z</time>
      </trkpt>
      <trkpt lat="40.90223" lon="44.62055">
        <ele>988.188844</ele>
        <time>2021-08-12T19:32:36.243Z</time>
      </trkpt>
      <trkpt lat="40.90204" lon="44.62064">
        <ele>989.163124</ele>
        <time>2021-08-12T19:32:49.843Z</time>
      </trkpt>
      <trkpt lat="40.90188" lon="44.62067">
        <ele>989.91481</ele>
        <time>2021-08-12T19:32:59.498Z</time>
      </trkpt>
      <trkpt lat="40.90154" lon="44.6207">
        <ele>991.626582</ele>
        <time>2021-08-12T19:33:21.594Z</time>
      </trkpt>
      <trkpt lat="40.90123" lon="44.62067">
        <ele>993.235152</ele>
        <time>2021-08-12T19:33:40.364Z</time>
      </trkpt>
      <trkpt lat="40.90096" lon="44.62057">
        <ele>994.717106</ele>
        <time>2021-08-12T19:33:58.313Z</time>
      </trkpt>
      <trkpt lat="40.90075" lon="44.62038">
        <ele>996.084153</ele>
        <time>2021-08-12T19:34:14.714Z</time>
      </trkpt>
      <trkpt lat="40.90046" lon="44.62002">
        <ele>998.200243</ele>
        <time>2021-08-12T19:34:39.111Z</time>
      </trkpt>
      <trkpt lat="40.9002" lon="44.61957">
        <ele>1000.42606</ele>
        <time>2021-08-12T19:35:04.490Z</time>
      </trkpt>
      <trkpt lat="40.90002" lon="44.61905">
        <ele>1001.638981</ele>
        <time>2021-08-12T19:35:29.155Z</time>
      </trkpt>
      <trkpt lat="40.89984" lon="44.61828">
        <ele>1003.084906</ele>
        <time>2021-08-12T19:35:54.683Z</time>
      </trkpt>
      <trkpt lat="40.89967" lon="44.61794">
        <ele>1003.796619</ele>
        <time>2021-08-12T19:36:06.092Z</time>
      </trkpt>
      <trkpt lat="40.89954" lon="44.61785">
        <ele>1004.145058</ele>
        <time>2021-08-12T19:36:11.813Z</time>
      </trkpt>
      <trkpt lat="40.89941" lon="44.61784">
        <ele>1004.458575</ele>
        <time>2021-08-12T19:36:17.111Z</time>
      </trkpt>
      <trkpt lat="40.899" lon="44.61807">
        <ele>1005.01037</ele>
        <time>2021-08-12T19:36:34.713Z</time>
      </trkpt>
      <trkpt lat="40.8988" lon="44.61811">
        <ele>1005.00611</ele>
        <time>2021-08-12T19:36:42.429Z</time>
      </trkpt>
      <trkpt lat="40.89846" lon="44.61809">
        <ele>1004.999018</ele>
        <time>2021-08-12T19:36:54.277Z</time>
      </trkpt>
      <trkpt lat="40.89823" lon="44.61787">
        <ele>1004.993074</ele>
        <time>2021-08-12T19:37:03.035Z</time>
      </trkpt>
      <trkpt lat="40.89807" lon="44.61755">
        <ele>1004.987026</ele>
        <time>2021-08-12T19:37:11.076Z</time>
      </trkpt>
      <trkpt lat="40.89797" lon="44.61721">
        <ele>1004.98125</ele>
        <time>2021-08-12T19:37:18.481Z</time>
      </trkpt>
      <trkpt lat="40.89783" lon="44.61634">
        <ele>1004.013092</ele>
        <time>2021-08-12T19:37:35.978Z</time>
      </trkpt>
      <trkpt lat="40.89772" lon="44.61602">
        <ele>1003.47745</ele>
        <time>2021-08-12T19:37:42.615Z</time>
      </trkpt>
      <trkpt lat="40.89751" lon="44.6157">
        <ele>1002.803761</ele>
        <time>2021-08-12T19:37:50.800Z</time>
      </trkpt>
      <trkpt lat="40.89723" lon="44.61549">
        <ele>1002.149315</ele>
        <time>2021-08-12T19:37:58.438Z</time>
      </trkpt>
      <trkpt lat="40.89624" lon="44.6151">
        <ele>999.591584</ele>
        <time>2021-08-12T19:38:22.290Z</time>
      </trkpt>
      <trkpt lat="40.8955" lon="44.61446">
        <ele>997.153787</ele>
        <time>2021-08-12T19:38:42.598Z</time>
      </trkpt>
      <trkpt lat="40.89516" lon="44.61407">
        <ele>996.193832</ele>
        <time>2021-08-12T19:38:53.492Z</time>
      </trkpt>
      <trkpt lat="40.89476" lon="44.61338">
        <ele>995.63264</ele>
        <time>2021-08-12T19:39:10.044Z</time>
      </trkpt>
      <trkpt lat="40.89365" lon="44.61117">
        <ele>995.7459</ele>
        <time>2021-08-12T19:40:14.391Z</time>
      </trkpt>
      <trkpt lat="40.89334" lon="44.61024">
        <ele>996.463472</ele>
        <time>2021-08-12T19:40:45.933Z</time>
      </trkpt>
      <trkpt lat="40.89297" lon="44.60873">
        <ele>999.766619</ele>
        <time>2021-08-12T19:41:39.119Z</time>
      </trkpt>
      <trkpt lat="40.89275" lon="44.60806">
        <ele>1001.295359</ele>
        <time>2021-08-12T19:42:07.077Z</time>
      </trkpt>
      <trkpt lat="40.8924" lon="44.60754">
        <ele>1003.491769</ele>
        <time>2021-08-12T19:42:35.603Z</time>
      </trkpt>
      <trkpt lat="40.89145" lon="44.60665">
        <ele>1008.546393</ele>
        <time>2021-08-12T19:43:41.471Z</time>
      </trkpt>
      <trkpt lat="40.89122" lon="44.60634">
        <ele>1009.924925</ele>
        <time>2021-08-12T19:44:00.065Z</time>
      </trkpt>
      <trkpt lat="40.89079" lon="44.60548">
        <ele>1013.204928</ele>
        <time>2021-08-12T19:44:44.146Z</time>
      </trkpt>
      <trkpt lat="40.89064" lon="44.60497">
        <ele>1014.966486</ele>
        <time>2021-08-12T19:45:06.102Z</time>
      </trkpt>
      <trkpt lat="40.89063" lon="44.60397">
        <ele>1017.952799</ele>
        <time>2021-08-12T19:45:45.992Z</time>
      </trkpt>
      <trkpt lat="40.89063" lon="44.60355">
        <ele>1019.128255</ele>
        <time>2021-08-12T19:46:03.112Z</time>
      </trkpt>
      <trkpt lat="40.89039" lon="44.60297">
        <ele>1020.939204</ele>
        <time>2021-08-12T19:46:29.274Z</time>
      </trkpt>
      <trkpt lat="40.89016" lon="44.60267">
        <ele>1022.148395</ele>
        <time>2021-08-12T19:46:47.115Z</time>
      </trkpt>
      <trkpt lat="40.88885" lon="44.60096">
        <ele>1025.87819</ele>
        <time>2021-08-12T19:48:12.820Z</time>
      </trkpt>
      <trkpt lat="40.88821" lon="44.60027">
        <ele>1024.30608</ele>
        <time>2021-08-12T19:48:32.862Z</time>
      </trkpt>
      <trkpt lat="40.88756" lon="44.59976">
        <ele>1021.281632</ele>
        <time>2021-08-12T19:48:48.760Z</time>
      </trkpt>
      <trkpt lat="40.88701" lon="44.59926">
        <ele>1019.083943</ele>
        <time>2021-08-12T19:49:02.761Z</time>
      </trkpt>
      <trkpt lat="40.8868" lon="44.59895">
        <ele>1018.89933</ele>
        <time>2021-08-12T19:49:09.199Z</time>
      </trkpt>
      <trkpt lat="40.88668" lon="44.59863">
        <ele>1018.733585</ele>
        <time>2021-08-12T19:49:15.060Z</time>
      </trkpt>
      <trkpt lat="40.88482" lon="44.59376">
        <ele>1018.645328</ele>
        <time>2021-08-12T19:51:38.092Z</time>
      </trkpt>
      <trkpt lat="40.88465" lon="44.5932">
        <ele>1019.241286</ele>
        <time>2021-08-12T19:51:59.343Z</time>
      </trkpt>
      <trkpt lat="40.88463" lon="44.59274">
        <ele>1020.003496</ele>
        <time>2021-08-12T19:52:15.632Z</time>
      </trkpt>
      <trkpt lat="40.88465" lon="44.59234">
        <ele>1020.763524</ele>
        <time>2021-08-12T19:52:29.651Z</time>
      </trkpt>
      <trkpt lat="40.88472" lon="44.59188">
        <ele>1021.633336</ele>
        <time>2021-08-12T19:52:45.523Z</time>
      </trkpt>
      <trkpt lat="40.88483" lon="44.59158">
        <ele>1022.262842</ele>
        <time>2021-08-12T19:52:56.578Z</time>
      </trkpt>
      <trkpt lat="40.88494" lon="44.59135">
        <ele>1022.761146</ele>
        <time>2021-08-12T19:53:06.100Z</time>
      </trkpt>
      <trkpt lat="40.88527" lon="44.59069">
        <ele>1024.186605</ele>
        <time>2021-08-12T19:53:32.338Z</time>
      </trkpt>
      <trkpt lat="40.88537" lon="44.59035">
        <ele>1024.786753</ele>
        <time>2021-08-12T19:53:44.126Z</time>
      </trkpt>
      <trkpt lat="40.88547" lon="44.58954">
        <ele>1026.130644</ele>
        <time>2021-08-12T19:54:13.256Z</time>
      </trkpt>
      <trkpt lat="40.88544" lon="44.58892">
        <ele>1027.126296</ele>
        <time>2021-08-12T19:54:32.962Z</time>
      </trkpt>
      <trkpt lat="40.88532" lon="44.58837">
        <ele>1027.792814</ele>
        <time>2021-08-12T19:54:50.343Z</time>
      </trkpt>
      <trkpt lat="40.88514" lon="44.58746">
        <ele>1028.25742</ele>
        <time>2021-08-12T19:55:16.471Z</time>
      </trkpt>
      <trkpt lat="40.88483" lon="44.58637">
        <ele>1028.834306</ele>
        <time>2021-08-12T19:55:45.495Z</time>
      </trkpt>
      <trkpt lat="40.88467" lon="44.5861">
        <ele>1028.661641</ele>
        <time>2021-08-12T19:55:53.262Z</time>
      </trkpt>
      <trkpt lat="40.88448" lon="44.58591">
        <ele>1028.475925</ele>
        <time>2021-08-12T19:55:59.730Z</time>
      </trkpt>
      <trkpt lat="40.88422" lon="44.58576">
        <ele>1028.244387</ele>
        <time>2021-08-12T19:56:07.185Z</time>
      </trkpt>
      <trkpt lat="40.8837" lon="44.58572">
        <ele>1027.828541</ele>
        <time>2021-08-12T19:56:20.552Z</time>
      </trkpt>
      <trkpt lat="40.88346" lon="44.58581">
        <ele>1027.63054</ele>
        <time>2021-08-12T19:56:27.126Z</time>
      </trkpt>
      <trkpt lat="40.88328" lon="44.58597">
        <ele>1027.456365</ele>
        <time>2021-08-12T19:56:33.319Z</time>
      </trkpt>
      <trkpt lat="40.88305" lon="44.58621">
        <ele>1027.740147</ele>
        <time>2021-08-12T19:56:41.695Z</time>
      </trkpt>
      <trkpt lat="40.88237" lon="44.5869">
        <ele>1028.952295</ele>
        <time>2021-08-12T19:57:11.337Z</time>
      </trkpt>
      <trkpt lat="40.88205" lon="44.58699">
        <ele>1029.400755</ele>
        <time>2021-08-12T19:57:26.416Z</time>
      </trkpt>
      <trkpt lat="40.8818" lon="44.58699">
        <ele>1029.752524</ele>
        <time>2021-08-12T19:57:38.846Z</time>
      </trkpt>
      <trkpt lat="40.88125" lon="44.58685">
        <ele>1031.623238</ele>
        <time>2021-08-12T19:58:07.532Z</time>
      </trkpt>
      <trkpt lat="40.88054" lon="44.58668">
        <ele>1034.469269</ele>
        <time>2021-08-12T19:58:48.413Z</time>
      </trkpt>
      <trkpt lat="40.88004" lon="44.58681">
        <ele>1036.435372</ele>
        <time>2021-08-12T19:59:15.912Z</time>
      </trkpt>
      <trkpt lat="40.8797" lon="44.58706">
        <ele>1037.558858</ele>
        <time>2021-08-12T19:59:35.839Z</time>
      </trkpt>
      <trkpt lat="40.87924" lon="44.58763">
        <ele>1039.029589</ele>
        <time>2021-08-12T20:00:04.259Z</time>
      </trkpt>
      <trkpt lat="40.87893" lon="44.58786">
        <ele>1039.867874</ele>
        <time>2021-08-12T20:00:18.659Z</time>
      </trkpt>
      <trkpt lat="40.87848" lon="44.58799">
        <ele>1040.937874</ele>
        <time>2021-08-12T20:00:36.721Z</time>
      </trkpt>
      <trkpt lat="40.87811" lon="44.58797">
        <ele>1041.749262</ele>
        <time>2021-08-12T20:00:51.992Z</time>
      </trkpt>
      <trkpt lat="40.87783" lon="44.58783">
        <ele>1042.360623</ele>
        <time>2021-08-12T20:01:04.537Z</time>
      </trkpt>
      <trkpt lat="40.87708" lon="44.58734">
        <ele>1044.129048</ele>
        <time>2021-08-12T20:01:41.040Z</time>
      </trkpt>
      <trkpt lat="40.87667" lon="44.58726">
        <ele>1044.967145</ele>
        <time>2021-08-12T20:02:00.327Z</time>
      </trkpt>
      <trkpt lat="40.8754" lon="44.58729">
        <ele>1046.616898</ele>
        <time>2021-08-12T20:02:52.449Z</time>
      </trkpt>
      <trkpt lat="40.87437" lon="44.58748">
        <ele>1047.096673</ele>
        <time>2021-08-12T20:03:24.530Z</time>
      </trkpt>
      <trkpt lat="40.87357" lon="44.5874">
        <ele>1046.820082</ele>
        <time>2021-08-12T20:03:45.710Z</time>
      </trkpt>
      <trkpt lat="40.87245" lon="44.58761">
        <ele>1047.358726</ele>
        <time>2021-08-12T20:04:22.918Z</time>
      </trkpt>
      <trkpt lat="40.87229" lon="44.58759">
        <ele>1047.523541</ele>
        <time>2021-08-12T20:04:29.020Z</time>
      </trkpt>
      <trkpt lat="40.87205" lon="44.58744">
        <ele>1047.79805</ele>
        <time>2021-08-12T20:04:37.843Z</time>
      </trkpt>
      <trkpt lat="40.87189" lon="44.5873">
        <ele>1048.002074</ele>
        <time>2021-08-12T20:04:47.264Z</time>
      </trkpt>
      <trkpt lat="40.87043" lon="44.58596">
        <ele>1051.19218</ele>
        <time>2021-08-12T20:05:59.250Z</time>
      </trkpt>
      <trkpt lat="40.8699" lon="44.58553">
        <ele>1052.674227</ele>
        <time>2021-08-12T20:06:27.425Z</time>
      </trkpt>
      <trkpt lat="40.86953" lon="44.58523">
        <ele>1054.509011</ele>
        <time>2021-08-12T20:06:50.086Z</time>
      </trkpt>
      <trkpt lat="40.86925" lon="44.58508">
        <ele>1055.792089</ele>
        <time>2021-08-12T20:07:05.642Z</time>
      </trkpt>
      <trkpt lat="40.86857" lon="44.58496">
        <ele>1058.697004</ele>
        <time>2021-08-12T20:07:45.374Z</time>
      </trkpt>
      <trkpt lat="40.86677" lon="44.58507">
        <ele>1067.786452</ele>
        <time>2021-08-12T20:09:35.795Z</time>
      </trkpt>
      <trkpt lat="40.86644" lon="44.58503">
        <ele>1069.492932</ele>
        <time>2021-08-12T20:09:54.535Z</time>
      </trkpt>
      <trkpt lat="40.86584" lon="44.58482">
        <ele>1072.67334</ele>
        <time>2021-08-12T20:10:30.680Z</time>
      </trkpt>
      <trkpt lat="40.86522" lon="44.58453">
        <ele>1076.021693</ele>
        <time>2021-08-12T20:11:09.621Z</time>
      </trkpt>
      <trkpt lat="40.86438" lon="44.58397">
        <ele>1081.142145</ele>
        <time>2021-08-12T20:12:08.268Z</time>
      </trkpt>
      <trkpt lat="40.86408" lon="44.58367">
        <ele>1083.243332</ele>
        <time>2021-08-12T20:12:31.910Z</time>
      </trkpt>
      <trkpt lat="40.86364" lon="44.5831">
        <ele>1086.746685</ele>
        <time>2021-08-12T20:13:11.640Z</time>
      </trkpt>
      <trkpt lat="40.863" lon="44.58248">
        <ele>1090.883703</ele>
        <time>2021-08-12T20:14:01.395Z</time>
      </trkpt>
      <trkpt lat="40.86224" lon="44.58221">
        <ele>1094.739615</ele>
        <time>2021-08-12T20:14:47.623Z</time>
      </trkpt>
      <trkpt lat="40.86221" lon="44.58203">
        <ele>1095.393696</ele>
        <time>2021-08-12T20:14:55.167Z</time>
      </trkpt>
      <trkpt lat="40.86231" lon="44.582">
        <ele>1095.887667</ele>
        <time>2021-08-12T20:15:00.924Z</time>
      </trkpt>
      <trkpt lat="40.86308" lon="44.58219">
        <ele>1100.429231</ele>
        <time>2021-08-12T20:15:41.443Z</time>
      </trkpt>
      <trkpt lat="40.8637" lon="44.58256">
        <ele>1104.772546</ele>
        <time>2021-08-12T20:16:27.952Z</time>
      </trkpt>
      <trkpt lat="40.86421" lon="44.58304">
        <ele>1108.754489</ele>
        <time>2021-08-12T20:17:14.507Z</time>
      </trkpt>
      <trkpt lat="40.8643" lon="44.58303">
        <ele>1109.447998</ele>
        <time>2021-08-12T20:17:19.674Z</time>
      </trkpt>
      <trkpt lat="40.86433" lon="44.58302">
        <ele>1109.780577</ele>
        <time>2021-08-12T20:17:23.248Z</time>
      </trkpt>
      <trkpt lat="40.86444" lon="44.58282">
        <ele>1111.549039</ele>
        <time>2021-08-12T20:17:38.348Z</time>
      </trkpt>
      <trkpt lat="40.86444" lon="44.58279">
        <ele>1111.803394</ele>
        <time>2021-08-12T20:17:40.456Z</time>
      </trkpt>
      <trkpt lat="40.86444" lon="44.58273">
        <ele>1112.21599</ele>
        <time>2021-08-12T20:17:43.695Z</time>
      </trkpt>
      <trkpt lat="40.86442" lon="44.58264">
        <ele>1112.952968</ele>
        <time>2021-08-12T20:17:48.856Z</time>
      </trkpt>
      <trkpt lat="40.86438" lon="44.58258">
        <ele>1113.503975</ele>
        <time>2021-08-12T20:17:55.422Z</time>
      </trkpt>
      <trkpt lat="40.86373" lon="44.58204">
        <ele>1120.797564</ele>
        <time>2021-08-12T20:19:01.659Z</time>
      </trkpt>
      <trkpt lat="40.86288" lon="44.58157">
        <ele>1128.799452</ele>
        <time>2021-08-12T20:20:25.024Z</time>
      </trkpt>
      <trkpt lat="40.86219" lon="44.5815">
        <ele>1133.896915</ele>
        <time>2021-08-12T20:21:14.801Z</time>
      </trkpt>
      <trkpt lat="40.86176" lon="44.58131">
        <ele>1137.232951</ele>
        <time>2021-08-12T20:21:45.371Z</time>
      </trkpt>
      <trkpt lat="40.86147" lon="44.58127">
        <ele>1139.354604</ele>
        <time>2021-08-12T20:22:03.507Z</time>
      </trkpt>
      <trkpt lat="40.86093" lon="44.58133">
        <ele>1141.222921</ele>
        <time>2021-08-12T20:22:33.545Z</time>
      </trkpt>
      <trkpt lat="40.86049" lon="44.58147">
        <ele>1142.805293</ele>
        <time>2021-08-12T20:22:55.615Z</time>
      </trkpt>
      <trkpt lat="40.85963" lon="44.5815">
        <ele>1145.828613</ele>
        <time>2021-08-12T20:23:33.248Z</time>
      </trkpt>
      <trkpt lat="40.85946" lon="44.58143">
        <ele>1146.596841</ele>
        <time>2021-08-12T20:23:41.400Z</time>
      </trkpt>
      <trkpt lat="40.85886" lon="44.5808">
        <ele>1149.922031</ele>
        <time>2021-08-12T20:24:21.467Z</time>
      </trkpt>
      <trkpt lat="40.85856" lon="44.58068">
        <ele>1151.258296</ele>
        <time>2021-08-12T20:24:38.945Z</time>
      </trkpt>
      <trkpt lat="40.85821" lon="44.58069">
        <ele>1152.786034</ele>
        <time>2021-08-12T20:25:00.390Z</time>
      </trkpt>
      <trkpt lat="40.858" lon="44.5806">
        <ele>1154.072211</ele>
        <time>2021-08-12T20:25:15.220Z</time>
      </trkpt>
      <trkpt lat="40.85778" lon="44.58029">
        <ele>1156.62012</ele>
        <time>2021-08-12T20:25:37.611Z</time>
      </trkpt>
      <trkpt lat="40.85766" lon="44.5799">
        <ele>1159.150841</ele>
        <time>2021-08-12T20:26:01.208Z</time>
      </trkpt>
      <trkpt lat="40.85761" lon="44.57963">
        <ele>1160.82259</ele>
        <time>2021-08-12T20:26:17.372Z</time>
      </trkpt>
      <trkpt lat="40.85762" lon="44.57904">
        <ele>1164.404232</ele>
        <time>2021-08-12T20:26:54.223Z</time>
      </trkpt>
      <trkpt lat="40.85753" lon="44.57857">
        <ele>1167.343085</ele>
        <time>2021-08-12T20:27:26.324Z</time>
      </trkpt>
      <trkpt lat="40.85716" lon="44.57777">
        <ele>1171.391573</ele>
        <time>2021-08-12T20:28:21.378Z</time>
      </trkpt>
      <trkpt lat="40.85695" lon="44.57746">
        <ele>1173.110879</ele>
        <time>2021-08-12T20:28:40.890Z</time>
      </trkpt>
      <trkpt lat="40.85685" lon="44.57734">
        <ele>1173.85372</ele>
        <time>2021-08-12T20:28:51.230Z</time>
      </trkpt>
      <trkpt lat="40.85671" lon="44.57729">
        <ele>1174.633985</ele>
        <time>2021-08-12T20:28:57.692Z</time>
      </trkpt>
      <trkpt lat="40.85622" lon="44.57723">
        <ele>1177.343067</ele>
        <time>2021-08-12T20:29:21.103Z</time>
      </trkpt>
      <trkpt lat="40.85488" lon="44.57704">
        <ele>1179.020088</ele>
        <time>2021-08-12T20:30:06.177Z</time>
      </trkpt>
      <trkpt lat="40.85458" lon="44.57697">
        <ele>1179.334401</ele>
        <time>2021-08-12T20:30:14.925Z</time>
      </trkpt>
      <trkpt lat="40.8541" lon="44.57675">
        <ele>1181.462156</ele>
        <time>2021-08-12T20:30:36.600Z</time>
      </trkpt>
      <trkpt lat="40.85394" lon="44.57658">
        <ele>1182.69915</ele>
        <time>2021-08-12T20:30:47.108Z</time>
      </trkpt>
      <trkpt lat="40.85376" lon="44.57585">
        <ele>1186.243959</ele>
        <time>2021-08-12T20:31:25.048Z</time>
      </trkpt>
      <trkpt lat="40.85363" lon="44.57554">
        <ele>1187.89296</ele>
        <time>2021-08-12T20:31:45.764Z</time>
      </trkpt>
      <trkpt lat="40.85331" lon="44.57522">
        <ele>1190.346081</ele>
        <time>2021-08-12T20:32:18.210Z</time>
      </trkpt>
      <trkpt lat="40.85292" lon="44.57502">
        <ele>1194.294177</ele>
        <time>2021-08-12T20:32:55.763Z</time>
      </trkpt>
      <trkpt lat="40.85279" lon="44.5749">
        <ele>1195.890249</ele>
        <time>2021-08-12T20:33:11.562Z</time>
      </trkpt>
      <trkpt lat="40.85258" lon="44.5746">
        <ele>1198.928205</ele>
        <time>2021-08-12T20:33:41.486Z</time>
      </trkpt>
      <trkpt lat="40.85236" lon="44.57415">
        <ele>1202.858331</ele>
        <time>2021-08-12T20:34:17.776Z</time>
      </trkpt>
      <trkpt lat="40.85216" lon="44.57398">
        <ele>1205.290762</ele>
        <time>2021-08-12T20:34:39.128Z</time>
      </trkpt>
      <trkpt lat="40.85198" lon="44.57394">
        <ele>1206.990101</ele>
        <time>2021-08-12T20:34:52.069Z</time>
      </trkpt>
      <trkpt lat="40.85174" lon="44.57394">
        <ele>1208.784221</ele>
        <time>2021-08-12T20:35:11.976Z</time>
      </trkpt>
      <trkpt lat="40.85152" lon="44.57391">
        <ele>1209.803271</ele>
        <time>2021-08-12T20:35:26.688Z</time>
      </trkpt>
      <trkpt lat="40.85131" lon="44.57385">
        <ele>1210.831744</ele>
        <time>2021-08-12T20:35:41.425Z</time>
      </trkpt>
      <trkpt lat="40.8509" lon="44.5737">
        <ele>1212.795124</ele>
        <time>2021-08-12T20:36:07.073Z</time>
      </trkpt>
      <trkpt lat="40.84869" lon="44.5737">
        <ele>1219.95226</ele>
        <time>2021-08-12T20:37:41.728Z</time>
      </trkpt>
      <trkpt lat="40.84744" lon="44.57344">
        <ele>1225.046588</ele>
        <time>2021-08-12T20:38:44.439Z</time>
      </trkpt>
      <trkpt lat="40.84715" lon="44.57335">
        <ele>1226.455524</ele>
        <time>2021-08-12T20:39:01.595Z</time>
      </trkpt>
      <trkpt lat="40.84584" lon="44.57266">
        <ele>1235.67229</ele>
        <time>2021-08-12T20:40:39.412Z</time>
      </trkpt>
      <trkpt lat="40.84561" lon="44.5725">
        <ele>1237.811197</ele>
        <time>2021-08-12T20:41:00.348Z</time>
      </trkpt>
      <trkpt lat="40.84544" lon="44.57226">
        <ele>1239.79948</ele>
        <time>2021-08-12T20:41:20.344Z</time>
      </trkpt>
      <trkpt lat="40.84497" lon="44.57037">
        <ele>1250.844411</ele>
        <time>2021-08-12T20:43:25.499Z</time>
      </trkpt>
      <trkpt lat="40.84489" lon="44.57016">
        <ele>1252.071345</ele>
        <time>2021-08-12T20:43:39.703Z</time>
      </trkpt>
      <trkpt lat="40.84477" lon="44.57001">
        <ele>1253.218002</ele>
        <time>2021-08-12T20:43:47.282Z</time>
      </trkpt>
      <trkpt lat="40.84451" lon="44.56992">
        <ele>1255.115012</ele>
        <time>2021-08-12T20:44:03.600Z</time>
      </trkpt>
      <trkpt lat="40.84434" lon="44.56995">
        <ele>1256.332447</ele>
        <time>2021-08-12T20:44:11.853Z</time>
      </trkpt>
      <trkpt lat="40.84379" lon="44.5702">
        <ele>1256.750724</ele>
        <time>2021-08-12T20:44:36.429Z</time>
      </trkpt>
      <trkpt lat="40.84356" lon="44.57022">
        <ele>1256.83752</ele>
        <time>2021-08-12T20:44:45.904Z</time>
      </trkpt>
      <trkpt lat="40.84301" lon="44.57011">
        <ele>1257.04971</ele>
        <time>2021-08-12T20:44:59.528Z</time>
      </trkpt>
      <trkpt lat="40.84241" lon="44.56987">
        <ele>1257.374707</ele>
        <time>2021-08-12T20:45:16.418Z</time>
      </trkpt>
      <trkpt lat="40.84214" lon="44.56961">
        <ele>1257.680723</ele>
        <time>2021-08-12T20:45:27.096Z</time>
      </trkpt>
      <trkpt lat="40.8419" lon="44.56921">
        <ele>1258.026985</ele>
        <time>2021-08-12T20:45:40.584Z</time>
      </trkpt>
      <trkpt lat="40.8417" lon="44.56822">
        <ele>1258.72225</ele>
        <time>2021-08-12T20:46:11.739Z</time>
      </trkpt>
      <trkpt lat="40.84152" lon="44.56784">
        <ele>1259.565424</ele>
        <time>2021-08-12T20:46:26.433Z</time>
      </trkpt>
      <trkpt lat="40.84136" lon="44.56773">
        <ele>1260.239375</ele>
        <time>2021-08-12T20:46:34.302Z</time>
      </trkpt>
      <trkpt lat="40.84003" lon="44.56729">
        <ele>1265.237652</ele>
        <time>2021-08-12T20:47:44.674Z</time>
      </trkpt>
      <trkpt lat="40.83988" lon="44.56714">
        <ele>1266.425477</ele>
        <time>2021-08-12T20:47:56.610Z</time>
      </trkpt>
      <trkpt lat="40.83978" lon="44.56689">
        <ele>1268.008575</ele>
        <time>2021-08-12T20:48:11.986Z</time>
      </trkpt>
      <trkpt lat="40.83978" lon="44.56666">
        <ele>1269.249062</ele>
        <time>2021-08-12T20:48:23.389Z</time>
      </trkpt>
      <trkpt lat="40.83986" lon="44.5664">
        <ele>1270.806743</ele>
        <time>2021-08-12T20:48:39.724Z</time>
      </trkpt>
      <trkpt lat="40.84002" lon="44.56597">
        <ele>1273.443897</ele>
        <time>2021-08-12T20:49:09.683Z</time>
      </trkpt>
      <trkpt lat="40.84081" lon="44.56452">
        <ele>1280.255501</ele>
        <time>2021-08-12T20:50:50.133Z</time>
      </trkpt>
      <trkpt lat="40.84084" lon="44.56439">
        <ele>1280.528477</ele>
        <time>2021-08-12T20:50:58.813Z</time>
      </trkpt>
      <trkpt lat="40.84082" lon="44.56431">
        <ele>1280.683596</ele>
        <time>2021-08-12T20:51:00.661Z</time>
      </trkpt>
      <trkpt lat="40.84073" lon="44.56412">
        <ele>1281.14345</ele>
        <time>2021-08-12T20:51:07.550Z</time>
      </trkpt>
      <trkpt lat="40.84066" lon="44.56406">
        <ele>1281.36228</ele>
        <time>2021-08-12T20:51:12.428Z</time>
      </trkpt>
      <trkpt lat="40.84024" lon="44.56399">
        <ele>1282.472673</ele>
        <time>2021-08-12T20:51:24.441Z</time>
      </trkpt>
      <trkpt lat="40.83987" lon="44.56403">
        <ele>1282.837753</ele>
        <time>2021-08-12T20:51:32.953Z</time>
      </trkpt>
      <trkpt lat="40.83913" lon="44.56438">
        <ele>1277.825018</ele>
        <time>2021-08-12T20:51:49.229Z</time>
      </trkpt>
      <trkpt lat="40.83903" lon="44.5644">
        <ele>1277.160504</ele>
        <time>2021-08-12T20:51:51.215Z</time>
      </trkpt>
      <trkpt lat="40.83885" lon="44.56438">
        <ele>1276.050802</ele>
        <time>2021-08-12T20:51:54.726Z</time>
      </trkpt>
      <trkpt lat="40.83688" lon="44.56372">
        <ele>1260.809255</ele>
        <time>2021-08-12T20:52:34.664Z</time>
      </trkpt>
      <trkpt lat="40.83627" lon="44.56366">
        <ele>1256.012656</ele>
        <time>2021-08-12T20:52:46.573Z</time>
      </trkpt>
      <trkpt lat="40.83571" lon="44.56361">
        <ele>1251.911452</ele>
        <time>2021-08-12T20:52:57.514Z</time>
      </trkpt>
      <trkpt lat="40.83551" lon="44.56349">
        <ele>1250.317022</ele>
        <time>2021-08-12T20:53:01.724Z</time>
      </trkpt>
      <trkpt lat="40.8352" lon="44.56319">
        <ele>1247.47936</ele>
        <time>2021-08-12T20:53:09.353Z</time>
      </trkpt>
      <trkpt lat="40.83433" lon="44.56206">
        <ele>1242.665557</ele>
        <time>2021-08-12T20:53:35.217Z</time>
      </trkpt>
      <trkpt lat="40.83404" lon="44.5617">
        <ele>1241.888017</ele>
        <time>2021-08-12T20:53:46.517Z</time>
      </trkpt>
      <trkpt lat="40.83378" lon="44.56145">
        <ele>1241.247845</ele>
        <time>2021-08-12T20:53:56.462Z</time>
      </trkpt>
      <trkpt lat="40.83376" lon="44.56122">
        <ele>1240.901121</ele>
        <time>2021-08-12T20:54:04.133Z</time>
      </trkpt>
      <trkpt lat="40.83313" lon="44.56053">
        <ele>1241.425345</ele>
        <time>2021-08-12T20:54:37.513Z</time>
      </trkpt>
      <trkpt lat="40.83289" lon="44.56035">
        <ele>1241.740284</ele>
        <time>2021-08-12T20:54:49.900Z</time>
      </trkpt>
      <trkpt lat="40.83254" lon="44.56042">
        <ele>1242.145228</ele>
        <time>2021-08-12T20:55:04.913Z</time>
      </trkpt>
      <trkpt lat="40.8324" lon="44.56036">
        <ele>1242.314831</ele>
        <time>2021-08-12T20:55:10.251Z</time>
      </trkpt>
      <trkpt lat="40.83205" lon="44.55996">
        <ele>1242.473242</ele>
        <time>2021-08-12T20:55:25.486Z</time>
      </trkpt>
      <trkpt lat="40.83137" lon="44.55938">
        <ele>1241.060884</ele>
        <time>2021-08-12T20:55:56.557Z</time>
      </trkpt>
      <trkpt lat="40.8309" lon="44.55872">
        <ele>1239.861788</ele>
        <time>2021-08-12T20:56:18.441Z</time>
      </trkpt>
      <trkpt lat="40.83031" lon="44.55824">
        <ele>1238.129999</ele>
        <time>2021-08-12T20:56:39.194Z</time>
      </trkpt>
      <trkpt lat="40.83014" lon="44.55812">
        <ele>1237.612201</ele>
        <time>2021-08-12T20:56:45.162Z</time>
      </trkpt>
      <trkpt lat="40.82985" lon="44.55813">
        <ele>1236.795178</ele>
        <time>2021-08-12T20:56:52.216Z</time>
      </trkpt>
      <trkpt lat="40.82963" lon="44.55823">
        <ele>1236.144428</ele>
        <time>2021-08-12T20:56:57.808Z</time>
      </trkpt>
      <trkpt lat="40.82941" lon="44.55803">
        <ele>1235.404598</ele>
        <time>2021-08-12T20:57:04.599Z</time>
      </trkpt>
      <trkpt lat="40.82888" lon="44.55742">
        <ele>1235.276624</ele>
        <time>2021-08-12T20:57:22.966Z</time>
      </trkpt>
      <trkpt lat="40.82871" lon="44.55721">
        <ele>1235.66793</ele>
        <time>2021-08-12T20:57:29.805Z</time>
      </trkpt>
      <trkpt lat="40.8285" lon="44.55673">
        <ele>1236.370353</ele>
        <time>2021-08-12T20:57:46.393Z</time>
      </trkpt>
      <trkpt lat="40.82844" lon="44.55655">
        <ele>1236.614787</ele>
        <time>2021-08-12T20:57:54.216Z</time>
      </trkpt>
      <trkpt lat="40.82833" lon="44.55577">
        <ele>1237.657766</ele>
        <time>2021-08-12T20:58:25.701Z</time>
      </trkpt>
      <trkpt lat="40.82827" lon="44.55555">
        <ele>1238.688541</ele>
        <time>2021-08-12T20:58:36.524Z</time>
      </trkpt>
      <trkpt lat="40.82806" lon="44.55516">
        <ele>1240.784067</ele>
        <time>2021-08-12T20:58:59.093Z</time>
      </trkpt>
      <trkpt lat="40.82756" lon="44.55444">
        <ele>1245.031433</ele>
        <time>2021-08-12T20:59:44.572Z</time>
      </trkpt>
      <trkpt lat="40.82708" lon="44.55375">
        <ele>1249.65369</ele>
        <time>2021-08-12T21:00:33.807Z</time>
      </trkpt>
      <trkpt lat="40.8268" lon="44.55306">
        <ele>1254.719048</ele>
        <time>2021-08-12T21:01:20.056Z</time>
      </trkpt>
      <trkpt lat="40.82676" lon="44.55262">
        <ele>1257.560746</ele>
        <time>2021-08-12T21:01:47.611Z</time>
      </trkpt>
      <trkpt lat="40.82694" lon="44.54922">
        <ele>1280.223775</ele>
        <time>2021-08-12T21:05:22.771Z</time>
      </trkpt>
      <trkpt lat="40.82693" lon="44.54894">
        <ele>1281.587752</ele>
        <time>2021-08-12T21:05:38.802Z</time>
      </trkpt>
      <trkpt lat="40.82691" lon="44.5487">
        <ele>1282.738345</ele>
        <time>2021-08-12T21:05:49.753Z</time>
      </trkpt>
      <trkpt lat="40.82682" lon="44.54835">
        <ele>1284.520689</ele>
        <time>2021-08-12T21:06:07.851Z</time>
      </trkpt>
      <trkpt lat="40.82666" lon="44.54806">
        <ele>1286.227863</ele>
        <time>2021-08-12T21:06:25.497Z</time>
      </trkpt>
      <trkpt lat="40.82622" lon="44.54754">
        <ele>1289.979669</ele>
        <time>2021-08-12T21:07:01.440Z</time>
      </trkpt>
      <trkpt lat="40.82577" lon="44.54717">
        <ele>1293.272604</ele>
        <time>2021-08-12T21:07:33.593Z</time>
      </trkpt>
      <trkpt lat="40.82519" lon="44.54693">
        <ele>1296.924038</ele>
        <time>2021-08-12T21:08:13.137Z</time>
      </trkpt>
      <trkpt lat="40.82418" lon="44.54685">
        <ele>1302.608042</ele>
        <time>2021-08-12T21:09:24.265Z</time>
      </trkpt>
      <trkpt lat="40.82292" lon="44.54639">
        <ele>1307.327081</ele>
        <time>2021-08-12T21:10:36.665Z</time>
      </trkpt>
      <trkpt lat="40.82172" lon="44.5463">
        <ele>1306.227274</ele>
        <time>2021-08-12T21:11:08.588Z</time>
      </trkpt>
      <trkpt lat="40.82072" lon="44.54601">
        <ele>1303.689295</ele>
        <time>2021-08-12T21:11:30.684Z</time>
      </trkpt>
      <trkpt lat="40.82052" lon="44.54589">
        <ele>1302.975625</ele>
        <time>2021-08-12T21:11:35.400Z</time>
      </trkpt>
      <trkpt lat="40.82012" lon="44.54547">
        <ele>1301.291012</ele>
        <time>2021-08-12T21:11:46.720Z</time>
      </trkpt>
      <trkpt lat="40.8196" lon="44.54513">
        <ele>1299.395414</ele>
        <time>2021-08-12T21:11:59.987Z</time>
      </trkpt>
      <trkpt lat="40.81855" lon="44.54432">
        <ele>1296.115511</ele>
        <time>2021-08-12T21:12:30.152Z</time>
      </trkpt>
      <trkpt lat="40.81815" lon="44.54394">
        <ele>1294.896291</ele>
        <time>2021-08-12T21:12:42.190Z</time>
      </trkpt>
      <trkpt lat="40.81799" lon="44.54371">
        <ele>1294.329272</ele>
        <time>2021-08-12T21:12:47.681Z</time>
      </trkpt>
      <trkpt lat="40.81784" lon="44.5435">
        <ele>1293.753268</ele>
        <time>2021-08-12T21:12:52.827Z</time>
      </trkpt>
      <trkpt lat="40.81673" lon="44.5417">
        <ele>1286.622733</ele>
        <time>2021-08-12T21:13:31.016Z</time>
      </trkpt>
      <trkpt lat="40.81638" lon="44.5409">
        <ele>1283.791903</ele>
        <time>2021-08-12T21:13:46.141Z</time>
      </trkpt>
      <trkpt lat="40.81603" lon="44.53986">
        <ele>1280.299241</ele>
        <time>2021-08-12T21:14:05.236Z</time>
      </trkpt>
      <trkpt lat="40.81585" lon="44.53909">
        <ele>1278.141515</ele>
        <time>2021-08-12T21:14:18.933Z</time>
      </trkpt>
      <trkpt lat="40.81571" lon="44.53875">
        <ele>1277.223861</ele>
        <time>2021-08-12T21:14:25.471Z</time>
      </trkpt>
      <trkpt lat="40.81549" lon="44.53847">
        <ele>1276.253216</ele>
        <time>2021-08-12T21:14:32.313Z</time>
      </trkpt>
      <trkpt lat="40.81525" lon="44.53825">
        <ele>1275.323674</ele>
        <time>2021-08-12T21:14:38.992Z</time>
      </trkpt>
      <trkpt lat="40.81435" lon="44.53775">
        <ele>1273.1955</ele>
        <time>2021-08-12T21:15:02.020Z</time>
      </trkpt>
      <trkpt lat="40.81422" lon="44.53767">
        <ele>1273.069725</ele>
        <time>2021-08-12T21:15:05.741Z</time>
      </trkpt>
      <trkpt lat="40.8139" lon="44.53734">
        <ele>1272.737433</ele>
        <time>2021-08-12T21:15:16.477Z</time>
      </trkpt>
      <trkpt lat="40.8138" lon="44.53699">
        <ele>1272.499539</ele>
        <time>2021-08-12T21:15:25.295Z</time>
      </trkpt>
      <trkpt lat="40.81379" lon="44.53687">
        <ele>1272.423058</ele>
        <time>2021-08-12T21:15:27.696Z</time>
      </trkpt>
      <trkpt lat="40.81375" lon="44.53637">
        <ele>1272.105105</ele>
        <time>2021-08-12T21:15:40.187Z</time>
      </trkpt>
      <trkpt lat="40.81366" lon="44.53524">
        <ele>1273.057447</ele>
        <time>2021-08-12T21:16:13.178Z</time>
      </trkpt>
      <trkpt lat="40.81349" lon="44.53282">
        <ele>1275.460137</ele>
        <time>2021-08-12T21:17:27.101Z</time>
      </trkpt>
      <trkpt lat="40.81351" lon="44.53209">
        <ele>1276.171587</ele>
        <time>2021-08-12T21:17:47.461Z</time>
      </trkpt>
      <trkpt lat="40.81363" lon="44.53168">
        <ele>1276.595449</ele>
        <time>2021-08-12T21:17:59.588Z</time>
      </trkpt>
      <trkpt lat="40.81431" lon="44.5308">
        <ele>1277.63045</ele>
        <time>2021-08-12T21:18:34.453Z</time>
      </trkpt>
      <trkpt lat="40.81455" lon="44.53006">
        <ele>1278.29179</ele>
        <time>2021-08-12T21:18:57.180Z</time>
      </trkpt>
      <trkpt lat="40.81469" lon="44.52943">
        <ele>1278.913272</ele>
        <time>2021-08-12T21:19:15.563Z</time>
      </trkpt>
      <trkpt lat="40.81511" lon="44.52667">
        <ele>1282.927166</ele>
        <time>2021-08-12T21:20:42.783Z</time>
      </trkpt>
      <trkpt lat="40.8155" lon="44.52501">
        <ele>1286.43284</ele>
        <time>2021-08-12T21:21:46.477Z</time>
      </trkpt>
      <trkpt lat="40.81577" lon="44.52411">
        <ele>1288.090924</ele>
        <time>2021-08-12T21:22:22.419Z</time>
      </trkpt>
      <trkpt lat="40.8158" lon="44.52273">
        <ele>1290.470261</ele>
        <time>2021-08-12T21:23:06.492Z</time>
      </trkpt>
      <trkpt lat="40.81586" lon="44.52206">
        <ele>1290.669865</ele>
        <time>2021-08-12T21:23:24.129Z</time>
      </trkpt>
      <trkpt lat="40.81594" lon="44.52149">
        <ele>1290.829068</ele>
        <time>2021-08-12T21:23:37.468Z</time>
      </trkpt>
      <trkpt lat="40.81643" lon="44.51974">
        <ele>1292.180141</ele>
        <time>2021-08-12T21:24:21.789Z</time>
      </trkpt>
      <trkpt lat="40.81641" lon="44.51924">
        <ele>1292.881089</ele>
        <time>2021-08-12T21:24:36.360Z</time>
      </trkpt>
      <trkpt lat="40.81636" lon="44.51899">
        <ele>1293.249706</ele>
        <time>2021-08-12T21:24:44.650Z</time>
      </trkpt>
      <trkpt lat="40.81626" lon="44.51859">
        <ele>1293.846196</ele>
        <time>2021-08-12T21:24:58.964Z</time>
      </trkpt>
      <trkpt lat="40.81586" lon="44.51664">
        <ele>1299.801339</ele>
        <time>2021-08-12T21:26:24.644Z</time>
      </trkpt>
      <trkpt lat="40.81577" lon="44.51569">
        <ele>1302.900539</ele>
        <time>2021-08-12T21:27:08.216Z</time>
      </trkpt>
      <trkpt lat="40.8157" lon="44.5147">
        <ele>1305.257353</ele>
        <time>2021-08-12T21:27:49.089Z</time>
      </trkpt>
      <trkpt lat="40.81568" lon="44.51455">
        <ele>1305.634585</ele>
        <time>2021-08-12T21:27:55.533Z</time>
      </trkpt>
      <trkpt lat="40.81559" lon="44.5139">
        <ele>1307.189582</ele>
        <time>2021-08-12T21:28:17.754Z</time>
      </trkpt>
      <trkpt lat="40.81533" lon="44.51288">
        <ele>1308.276786</ele>
        <time>2021-08-12T21:28:47.776Z</time>
      </trkpt>
      <trkpt lat="40.81515" lon="44.51189">
        <ele>1308.35526</ele>
        <time>2021-08-12T21:29:10.267Z</time>
      </trkpt>
      <trkpt lat="40.81504" lon="44.51153">
        <ele>1308.384854</ele>
        <time>2021-08-12T21:29:18.629Z</time>
      </trkpt>
      <trkpt lat="40.81473" lon="44.51091">
        <ele>1308.290253</ele>
        <time>2021-08-12T21:29:34.935Z</time>
      </trkpt>
      <trkpt lat="40.81451" lon="44.51033">
        <ele>1308.098784</ele>
        <time>2021-08-12T21:29:51.441Z</time>
      </trkpt>
      <trkpt lat="40.81439" lon="44.50978">
        <ele>1307.931034</ele>
        <time>2021-08-12T21:30:04.012Z</time>
      </trkpt>
      <trkpt lat="40.81431" lon="44.50911">
        <ele>1307.733621</ele>
        <time>2021-08-12T21:30:18.106Z</time>
      </trkpt>
      <trkpt lat="40.81431" lon="44.50895">
        <ele>1307.617273</ele>
        <time>2021-08-12T21:30:22.542Z</time>
      </trkpt>
      <trkpt lat="40.81428" lon="44.50853">
        <ele>1307.163112</ele>
        <time>2021-08-12T21:30:31.131Z</time>
      </trkpt>
      <trkpt lat="40.8143" lon="44.50731">
        <ele>1305.871596</ele>
        <time>2021-08-12T21:30:54.672Z</time>
      </trkpt>
      <trkpt lat="40.81448" lon="44.50494">
        <ele>1303.66603</ele>
        <time>2021-08-12T21:31:40.415Z</time>
      </trkpt>
      <trkpt lat="40.81457" lon="44.50466">
        <ele>1303.399591</ele>
        <time>2021-08-12T21:31:47.179Z</time>
      </trkpt>
      <trkpt lat="40.81513" lon="44.5034">
        <ele>1303.380887</ele>
        <time>2021-08-12T21:32:23.250Z</time>
      </trkpt>
      <trkpt lat="40.81564" lon="44.50199">
        <ele>1303.69627</ele>
        <time>2021-08-12T21:33:03.761Z</time>
      </trkpt>
      <trkpt lat="40.81606" lon="44.50044">
        <ele>1303.798805</ele>
        <time>2021-08-12T21:33:42.075Z</time>
      </trkpt>
      <trkpt lat="40.81627" lon="44.49937">
        <ele>1304.142579</ele>
        <time>2021-08-12T21:34:08.763Z</time>
      </trkpt>
      <trkpt lat="40.8164" lon="44.49909">
        <ele>1304.28959</ele>
        <time>2021-08-12T21:34:16.797Z</time>
      </trkpt>
      <trkpt lat="40.8166" lon="44.4988">
        <ele>1304.466962</ele>
        <time>2021-08-12T21:34:27.037Z</time>
      </trkpt>
      <trkpt lat="40.81669" lon="44.49846">
        <ele>1304.631796</ele>
        <time>2021-08-12T21:34:36.854Z</time>
      </trkpt>
      <trkpt lat="40.81671" lon="44.49752">
        <ele>1305.171272</ele>
        <time>2021-08-12T21:35:03.547Z</time>
      </trkpt>
      <trkpt lat="40.81676" lon="44.49705">
        <ele>1305.53677</ele>
        <time>2021-08-12T21:35:18.172Z</time>
      </trkpt>
      <trkpt lat="40.81687" lon="44.4966">
        <ele>1305.911766</ele>
        <time>2021-08-12T21:35:31.172Z</time>
      </trkpt>
      <trkpt lat="40.81702" lon="44.49606">
        <ele>1306.357356</ele>
        <time>2021-08-12T21:35:46.094Z</time>
      </trkpt>
      <trkpt lat="40.81713" lon="44.49576">
        <ele>1306.622702</ele>
        <time>2021-08-12T21:35:55.528Z</time>
      </trkpt>
      <trkpt lat="40.81716" lon="44.49564">
        <ele>1306.722847</ele>
        <time>2021-08-12T21:35:58.809Z</time>
      </trkpt>
      <trkpt lat="40.81723" lon="44.49529">
        <ele>1307.153807</ele>
        <time>2021-08-12T21:36:09.061Z</time>
      </trkpt>
      <trkpt lat="40.81725" lon="44.49514">
        <ele>1307.354779</ele>
        <time>2021-08-12T21:36:13.549Z</time>
      </trkpt>
      <trkpt lat="40.81718" lon="44.49512">
        <ele>1307.483435</ele>
        <time>2021-08-12T21:36:15.858Z</time>
      </trkpt>
      <trkpt lat="40.81709" lon="44.49512">
        <ele>1307.635897</ele>
        <time>2021-08-12T21:36:19.735Z</time>
      </trkpt>
      <trkpt lat="40.81693" lon="44.49517">
        <ele>1307.918221</ele>
        <time>2021-08-12T21:36:25.867Z</time>
      </trkpt>
      <trkpt lat="40.81688" lon="44.49516">
        <ele>1308.003677</ele>
        <time>2021-08-12T21:36:27.840Z</time>
      </trkpt>
      <trkpt lat="40.8148" lon="44.49499">
        <ele>1312.122315</ele>
        <time>2021-08-12T21:37:57.747Z</time>
      </trkpt>
      <trkpt lat="40.81455" lon="44.4949">
        <ele>1312.714211</ele>
        <time>2021-08-12T21:38:10.233Z</time>
      </trkpt>
      <trkpt lat="40.81435" lon="44.49475">
        <ele>1313.250358</ele>
        <time>2021-08-12T21:38:19.988Z</time>
      </trkpt>
      <trkpt lat="40.81418" lon="44.49461">
        <ele>1313.703332</ele>
        <time>2021-08-12T21:38:28.995Z</time>
      </trkpt>
      <trkpt lat="40.81415" lon="44.49455">
        <ele>1313.822142</ele>
        <time>2021-08-12T21:38:31.152Z</time>
      </trkpt>
      <trkpt lat="40.81412" lon="44.4945">
        <ele>1313.940596</ele>
        <time>2021-08-12T21:38:33.289Z</time>
      </trkpt>
      <trkpt lat="40.81407" lon="44.49446">
        <ele>1314.042073</ele>
        <time>2021-08-12T21:38:35.585Z</time>
      </trkpt>
      <trkpt lat="40.81402" lon="44.49443">
        <ele>1314.159862</ele>
        <time>2021-08-12T21:38:38.912Z</time>
      </trkpt>
      <trkpt lat="40.81384" lon="44.49443">
        <ele>1314.506789</ele>
        <time>2021-08-12T21:38:46.009Z</time>
      </trkpt>
      <trkpt lat="40.81374" lon="44.4945">
        <ele>1314.739478</ele>
        <time>2021-08-12T21:38:50.889Z</time>
      </trkpt>
      <trkpt lat="40.8137" lon="44.49456">
        <ele>1314.855681</ele>
        <time>2021-08-12T21:38:54.183Z</time>
      </trkpt>
      <trkpt lat="40.81368" lon="44.49459">
        <ele>1314.913677</ele>
        <time>2021-08-12T21:38:55.316Z</time>
      </trkpt>
      <trkpt lat="40.81366" lon="44.49467">
        <ele>1315.029027</ele>
        <time>2021-08-12T21:38:57.727Z</time>
      </trkpt>
      <trkpt lat="40.81365" lon="44.49471">
        <ele>1315.102006</ele>
        <time>2021-08-12T21:38:59.194Z</time>
      </trkpt>
      <trkpt lat="40.81361" lon="44.49481">
        <ele>1315.261976</ele>
        <time>2021-08-12T21:39:02.377Z</time>
      </trkpt>
      <trkpt lat="40.81334" lon="44.4952">
        <ele>1316.051972</ele>
        <time>2021-08-12T21:39:19.483Z</time>
      </trkpt>
      <trkpt lat="40.81317" lon="44.49533">
        <ele>1316.435479</ele>
        <time>2021-08-12T21:39:28.109Z</time>
      </trkpt>
      <trkpt lat="40.81301" lon="44.49538">
        <ele>1316.755153</ele>
        <time>2021-08-12T21:39:34.678Z</time>
      </trkpt>
      <trkpt lat="40.81237" lon="44.49557">
        <ele>1318.031658</ele>
        <time>2021-08-12T21:40:00.641Z</time>
      </trkpt>
      <trkpt lat="40.81162" lon="44.49578">
        <ele>1319.534718</ele>
        <time>2021-08-12T21:40:32.253Z</time>
      </trkpt>
      <trkpt lat="40.81118" lon="44.49591">
        <ele>1320.419231</ele>
        <time>2021-08-12T21:40:51.830Z</time>
      </trkpt>
      <trkpt lat="40.81034" lon="44.49616">
        <ele>1322.306668</ele>
        <time>2021-08-12T21:41:29.826Z</time>
      </trkpt>
      <trkpt lat="40.80986" lon="44.4963">
        <ele>1323.44581</ele>
        <time>2021-08-12T21:41:51.110Z</time>
      </trkpt>
      <trkpt lat="40.80936" lon="44.49645">
        <ele>1324.6545</ele>
        <time>2021-08-12T21:42:13.487Z</time>
      </trkpt>
      <trkpt lat="40.80867" lon="44.49665">
        <ele>1326.459931</ele>
        <time>2021-08-12T21:42:45.986Z</time>
      </trkpt>
      <trkpt lat="40.80797" lon="44.49685">
        <ele>1328.363533</ele>
        <time>2021-08-12T21:43:18.564Z</time>
      </trkpt>
      <trkpt lat="40.8079" lon="44.49688">
        <ele>1328.573157</ele>
        <time>2021-08-12T21:43:22.651Z</time>
      </trkpt>
      <trkpt lat="40.80784" lon="44.4969">
        <ele>1328.721863</ele>
        <time>2021-08-12T21:43:25.159Z</time>
      </trkpt>
      <trkpt lat="40.80758" lon="44.49684">
        <ele>1329.432853</ele>
        <time>2021-08-12T21:43:37.231Z</time>
      </trkpt>
      <trkpt lat="40.80753" lon="44.49677">
        <ele>1329.62046</ele>
        <time>2021-08-12T21:43:40.725Z</time>
      </trkpt>
      <trkpt lat="40.80747" lon="44.49673">
        <ele>1329.806712</ele>
        <time>2021-08-12T21:43:43.970Z</time>
      </trkpt>
      <trkpt lat="40.80741" lon="44.4967">
        <ele>1329.988534</ele>
        <time>2021-08-12T21:43:46.858Z</time>
      </trkpt>
      <trkpt lat="40.80734" lon="44.4967">
        <ele>1330.164025</ele>
        <time>2021-08-12T21:43:49.908Z</time>
      </trkpt>
      <trkpt lat="40.80734" lon="44.4967">
        <ele>1330.178577</ele>
        <time>2021-08-12T21:43:50.036Z</time>
      </trkpt>
      <trkpt lat="40.80717" lon="44.49685">
        <ele>1330.730649</ele>
        <time>2021-08-12T21:43:59.717Z</time>
      </trkpt>
      <trkpt lat="40.80714" lon="44.49693">
        <ele>1330.919573</ele>
        <time>2021-08-12T21:44:02.682Z</time>
      </trkpt>
      <trkpt lat="40.80691" lon="44.49707">
        <ele>1331.625869</ele>
        <time>2021-08-12T21:44:14.799Z</time>
      </trkpt>
      <trkpt lat="40.80689" lon="44.49707">
        <ele>1331.692856</ele>
        <time>2021-08-12T21:44:15.941Z</time>
      </trkpt>
      <trkpt lat="40.80656" lon="44.49708">
        <ele>1332.615352</ele>
        <time>2021-08-12T21:44:31.538Z</time>
      </trkpt>
      <trkpt lat="40.80572" lon="44.49712">
        <ele>1334.948043</ele>
        <time>2021-08-12T21:45:10.420Z</time>
      </trkpt>
      <trkpt lat="40.80522" lon="44.49714">
        <ele>1335.822715</ele>
        <time>2021-08-12T21:45:33.302Z</time>
      </trkpt>
      <trkpt lat="40.80505" lon="44.49715">
        <ele>1336.115109</ele>
        <time>2021-08-12T21:45:41.295Z</time>
      </trkpt>
      <trkpt lat="40.80488" lon="44.49715">
        <ele>1336.410942</ele>
        <time>2021-08-12T21:45:47.669Z</time>
      </trkpt>
      <trkpt lat="40.80483" lon="44.49715">
        <ele>1336.496678</ele>
        <time>2021-08-12T21:45:49.516Z</time>
      </trkpt>
      <trkpt lat="40.80468" lon="44.49698">
        <ele>1336.838071</ele>
        <time>2021-08-12T21:45:57.843Z</time>
      </trkpt>
      <trkpt lat="40.80453" lon="44.49685">
        <ele>1337.154521</ele>
        <time>2021-08-12T21:46:04.108Z</time>
      </trkpt>
      <trkpt lat="40.80452" lon="44.49681">
        <ele>1337.209508</ele>
        <time>2021-08-12T21:46:05.455Z</time>
      </trkpt>
      <trkpt lat="40.80451" lon="44.49677">
        <ele>1337.264776</ele>
        <time>2021-08-12T21:46:06.865Z</time>
      </trkpt>
      <trkpt lat="40.80448" lon="44.49674">
        <ele>1337.335986</ele>
        <time>2021-08-12T21:46:08.612Z</time>
      </trkpt>
      <trkpt lat="40.80445" lon="44.49673">
        <ele>1337.379673</ele>
        <time>2021-08-12T21:46:09.687Z</time>
      </trkpt>
      <trkpt lat="40.80432" lon="44.49669">
        <ele>1337.610176</ele>
        <time>2021-08-12T21:46:14.011Z</time>
      </trkpt>
      <trkpt lat="40.8042" lon="44.49673">
        <ele>1337.827809</ele>
        <time>2021-08-12T21:46:18.574Z</time>
      </trkpt>
      <trkpt lat="40.80415" lon="44.49677">
        <ele>1337.942867</ele>
        <time>2021-08-12T21:46:21.387Z</time>
      </trkpt>
      <trkpt lat="40.80409" lon="44.49685">
        <ele>1338.088897</ele>
        <time>2021-08-12T21:46:24.570Z</time>
      </trkpt>
      <trkpt lat="40.80404" lon="44.49695">
        <ele>1338.182301</ele>
        <time>2021-08-12T21:46:27.345Z</time>
      </trkpt>
      <trkpt lat="40.80384" lon="44.49729">
        <ele>1338.508477</ele>
        <time>2021-08-12T21:46:39.456Z</time>
      </trkpt>
      <trkpt lat="40.80376" lon="44.49738">
        <ele>1338.613333</ele>
        <time>2021-08-12T21:46:42.837Z</time>
      </trkpt>
      <trkpt lat="40.80355" lon="44.49749">
        <ele>1338.835251</ele>
        <time>2021-08-12T21:46:51.589Z</time>
      </trkpt>
      <trkpt lat="40.80348" lon="44.49753">
        <ele>1338.913268</ele>
        <time>2021-08-12T21:46:54.007Z</time>
      </trkpt>
      <trkpt lat="40.80261" lon="44.49799">
        <ele>1339.849976</ele>
        <time>2021-08-12T21:47:27.525Z</time>
      </trkpt>
      <trkpt lat="40.80256" lon="44.49801">
        <ele>1339.915654</ele>
        <time>2021-08-12T21:47:29.742Z</time>
      </trkpt>
      <trkpt lat="40.80184" lon="44.4984">
        <ele>1341.328421</ele>
        <time>2021-08-12T21:48:01.635Z</time>
      </trkpt>
      <trkpt lat="40.80119" lon="44.49873">
        <ele>1342.598888</ele>
        <time>2021-08-12T21:48:31.568Z</time>
      </trkpt>
      <trkpt lat="40.80103" lon="44.49881">
        <ele>1342.909359</ele>
        <time>2021-08-12T21:48:38.962Z</time>
      </trkpt>
      <trkpt lat="40.8007" lon="44.49899">
        <ele>1343.552374</ele>
        <time>2021-08-12T21:48:53.889Z</time>
      </trkpt>
      <trkpt lat="40.80022" lon="44.49941">
        <ele>1344.59773</ele>
        <time>2021-08-12T21:49:17.642Z</time>
      </trkpt>
      <trkpt lat="40.7996" lon="44.50027">
        <ele>1346.222429</ele>
        <time>2021-08-12T21:49:53.839Z</time>
      </trkpt>
      <trkpt lat="40.79915" lon="44.50104">
        <ele>1347.995119</ele>
        <time>2021-08-12T21:50:25.142Z</time>
      </trkpt>
      <trkpt lat="40.79842" lon="44.50227">
        <ele>1350.977408</ele>
        <time>2021-08-12T21:51:20.482Z</time>
      </trkpt>
      <trkpt lat="40.79803" lon="44.50291">
        <ele>1353.066251</ele>
        <time>2021-08-12T21:51:50.227Z</time>
      </trkpt>
      <trkpt lat="40.79759" lon="44.50365">
        <ele>1355.486183</ele>
        <time>2021-08-12T21:52:26.076Z</time>
      </trkpt>
      <trkpt lat="40.79754" lon="44.50375">
        <ele>1355.800996</ele>
        <time>2021-08-12T21:52:31.142Z</time>
      </trkpt>
      <trkpt lat="40.79731" lon="44.50413">
        <ele>1357.046204</ele>
        <time>2021-08-12T21:52:50.245Z</time>
      </trkpt>
      <trkpt lat="40.79707" lon="44.50453">
        <ele>1358.638838</ele>
        <time>2021-08-12T21:53:11.081Z</time>
      </trkpt>
      <trkpt lat="40.7968" lon="44.50498">
        <ele>1360.432467</ele>
        <time>2021-08-12T21:53:34.678Z</time>
      </trkpt>
      <trkpt lat="40.79641" lon="44.5056">
        <ele>1362.935311</ele>
        <time>2021-08-12T21:54:08.989Z</time>
      </trkpt>
      <trkpt lat="40.79624" lon="44.50591">
        <ele>1364.130122</ele>
        <time>2021-08-12T21:54:25.124Z</time>
      </trkpt>
      <trkpt lat="40.79605" lon="44.50628">
        <ele>1365.099801</ele>
        <time>2021-08-12T21:54:42.942Z</time>
      </trkpt>
      <trkpt lat="40.79592" lon="44.50657">
        <ele>1365.752332</ele>
        <time>2021-08-12T21:54:55.144Z</time>
      </trkpt>
      <trkpt lat="40.79588" lon="44.50665">
        <ele>1365.927699</ele>
        <time>2021-08-12T21:54:59.446Z</time>
      </trkpt>
      <trkpt lat="40.79563" lon="44.50725">
        <ele>1367.251938</ele>
        <time>2021-08-12T21:55:23.660Z</time>
      </trkpt>
      <trkpt lat="40.79482" lon="44.50897">
        <ele>1369.88441</ele>
        <time>2021-08-12T21:56:21.735Z</time>
      </trkpt>
      <trkpt lat="40.79475" lon="44.50912">
        <ele>1370.032082</ele>
        <time>2021-08-12T21:56:26.012Z</time>
      </trkpt>
      <trkpt lat="40.79469" lon="44.50924">
        <ele>1370.143147</ele>
        <time>2021-08-12T21:56:29.682Z</time>
      </trkpt>
      <trkpt lat="40.7941" lon="44.51048">
        <ele>1371.889717</ele>
        <time>2021-08-12T21:57:10.262Z</time>
      </trkpt>
      <trkpt lat="40.79374" lon="44.51124">
        <ele>1373.575925</ele>
        <time>2021-08-12T21:57:40.386Z</time>
      </trkpt>
      <trkpt lat="40.79346" lon="44.51184">
        <ele>1374.899664</ele>
        <time>2021-08-12T21:58:06.631Z</time>
      </trkpt>
      <trkpt lat="40.79322" lon="44.51234">
        <ele>1376.482966</ele>
        <time>2021-08-12T21:58:29.653Z</time>
      </trkpt>
      <trkpt lat="40.79196" lon="44.51502">
        <ele>1386.626641</ele>
        <time>2021-08-12T22:00:46.177Z</time>
      </trkpt>
      <trkpt lat="40.79146" lon="44.51602">
        <ele>1390.230004</ele>
        <time>2021-08-12T22:01:33.327Z</time>
      </trkpt>
      <trkpt lat="40.79074" lon="44.51747">
        <ele>1393.912836</ele>
        <time>2021-08-12T22:02:33.177Z</time>
      </trkpt>
      <trkpt lat="40.79019" lon="44.51871">
        <ele>1397.844462</ele>
        <time>2021-08-12T22:03:23.729Z</time>
      </trkpt>
      <trkpt lat="40.78998" lon="44.5193">
        <ele>1399.985999</ele>
        <time>2021-08-12T22:03:51.509Z</time>
      </trkpt>
      <trkpt lat="40.78971" lon="44.52004">
        <ele>1402.717604</ele>
        <time>2021-08-12T22:04:29.418Z</time>
      </trkpt>
      <trkpt lat="40.78954" lon="44.52055">
        <ele>1405.0334</ele>
        <time>2021-08-12T22:04:56.093Z</time>
      </trkpt>
      <trkpt lat="40.7893" lon="44.52126">
        <ele>1408.526095</ele>
        <time>2021-08-12T22:05:36.577Z</time>
      </trkpt>
      <trkpt lat="40.78904" lon="44.52201">
        <ele>1412.220555</ele>
        <time>2021-08-12T22:06:19.028Z</time>
      </trkpt>
      <trkpt lat="40.78897" lon="44.52224">
        <ele>1413.328156</ele>
        <time>2021-08-12T22:06:30.751Z</time>
      </trkpt>
      <trkpt lat="40.78897" lon="44.52224">
        <ele>1413.328156</ele>
        <time>2021-08-12T22:06:30.807Z</time>
      </trkpt>
      <trkpt lat="40.78897" lon="44.52224">
        <ele>1413.328156</ele>
        <time>2021-08-12T22:06:31.303Z</time>
      </trkpt>
      <trkpt lat="40.78861" lon="44.52329">
        <ele>1416.197357</ele>
        <time>2021-08-12T22:07:18.738Z</time>
      </trkpt>
      <trkpt lat="40.78775" lon="44.52579">
        <ele>1419.874822</ele>
        <time>2021-08-12T22:08:43.060Z</time>
      </trkpt>
      <trkpt lat="40.78761" lon="44.52616">
        <ele>1420.068867</ele>
        <time>2021-08-12T22:08:52.260Z</time>
      </trkpt>
      <trkpt lat="40.78747" lon="44.52653">
        <ele>1420.26389</ele>
        <time>2021-08-12T22:09:00.977Z</time>
      </trkpt>
      <trkpt lat="40.78722" lon="44.52712">
        <ele>1419.879105</ele>
        <time>2021-08-12T22:09:14.182Z</time>
      </trkpt>
      <trkpt lat="40.78721" lon="44.52713">
        <ele>1419.865796</ele>
        <time>2021-08-12T22:09:14.462Z</time>
      </trkpt>
      <trkpt lat="40.78715" lon="44.52724">
        <ele>1419.745211</ele>
        <time>2021-08-12T22:09:17.425Z</time>
      </trkpt>
      <trkpt lat="40.78735" lon="44.5274">
        <ele>1419.476131</ele>
        <time>2021-08-12T22:09:23.973Z</time>
      </trkpt>
      <trkpt lat="40.78777" lon="44.52773">
        <ele>1418.914934</ele>
        <time>2021-08-12T22:09:37.507Z</time>
      </trkpt>
      <trkpt lat="40.78795" lon="44.52788">
        <ele>1418.668083</ele>
        <time>2021-08-12T22:09:43.595Z</time>
      </trkpt>
      <trkpt lat="40.78799" lon="44.52792">
        <ele>1418.606726</ele>
        <time>2021-08-12T22:09:44.798Z</time>
      </trkpt>
      <trkpt lat="40.78782" lon="44.52841">
        <ele>1418.282909</ele>
        <time>2021-08-12T22:09:56.086Z</time>
      </trkpt>
      <trkpt lat="40.78771" lon="44.52874">
        <ele>1418.345193</ele>
        <time>2021-08-12T22:10:03.770Z</time>
      </trkpt>
      <trkpt lat="40.78767" lon="44.52887">
        <ele>1418.369358</ele>
        <time>2021-08-12T22:10:06.555Z</time>
      </trkpt>
      <trkpt lat="40.78745" lon="44.5296">
        <ele>1418.504327</ele>
        <time>2021-08-12T22:10:26.310Z</time>
      </trkpt>
      <trkpt lat="40.78746" lon="44.53013">
        <ele>1418.595817</ele>
        <time>2021-08-12T22:10:41.638Z</time>
      </trkpt>
      <trkpt lat="40.78748" lon="44.53017">
        <ele>1418.602821</ele>
        <time>2021-08-12T22:10:42.898Z</time>
      </trkpt>
      <trkpt lat="40.78723" lon="44.53049">
        <ele>1418.812202</ele>
        <time>2021-08-12T22:10:57.296Z</time>
      </trkpt>
      <trkpt lat="40.78706" lon="44.5307">
        <ele>1419.337991</ele>
        <time>2021-08-12T22:11:07.019Z</time>
      </trkpt>
      <trkpt lat="40.786" lon="44.53208">
        <ele>1422.760121</ele>
        <time>2021-08-12T22:12:15.303Z</time>
      </trkpt>
      <trkpt lat="40.786" lon="44.53209">
        <ele>1422.7864</ele>
        <time>2021-08-12T22:12:15.835Z</time>
      </trkpt>
      <trkpt lat="40.78628" lon="44.53246">
        <ele>1424.06901</ele>
        <time>2021-08-12T22:12:34.703Z</time>
      </trkpt>
      <trkpt lat="40.78509" lon="44.53372">
        <ele>1429.164603</ele>
        <time>2021-08-12T22:13:53.326Z</time>
      </trkpt>
      <trkpt lat="40.78423" lon="44.53484">
        <ele>1433.916109</ele>
        <time>2021-08-12T22:14:59.221Z</time>
      </trkpt>
      <trkpt lat="40.78417" lon="44.53492">
        <ele>1434.24863</ele>
        <time>2021-08-12T22:15:04.127Z</time>
      </trkpt>
      <trkpt lat="40.78409" lon="44.53507">
        <ele>1434.804346</ele>
        <time>2021-08-12T22:15:11.650Z</time>
      </trkpt>
      <trkpt lat="40.78405" lon="44.53539">
        <ele>1435.785629</ele>
        <time>2021-08-12T22:15:25.467Z</time>
      </trkpt>
      <trkpt lat="40.78414" lon="44.53564">
        <ele>1436.673751</ele>
        <time>2021-08-12T22:15:37.925Z</time>
      </trkpt>
      <trkpt lat="40.78395" lon="44.53613">
        <ele>1438.443439</ele>
        <time>2021-08-12T22:16:00.959Z</time>
      </trkpt>
      <trkpt lat="40.78386" lon="44.53736">
        <ele>1442.417905</ele>
        <time>2021-08-12T22:16:53.776Z</time>
      </trkpt>
      <trkpt lat="40.78385" lon="44.53743">
        <ele>1442.645511</ele>
        <time>2021-08-12T22:16:57.803Z</time>
      </trkpt>
      <trkpt lat="40.78376" lon="44.53809">
        <ele>1444.583808</ele>
        <time>2021-08-12T22:17:25.066Z</time>
      </trkpt>
      <trkpt lat="40.78376" lon="44.53811">
        <ele>1444.653243</ele>
        <time>2021-08-12T22:17:27.256Z</time>
      </trkpt>
      <trkpt lat="40.78362" lon="44.53906">
        <ele>1447.291294</ele>
        <time>2021-08-12T22:18:05.843Z</time>
      </trkpt>
      <trkpt lat="40.78357" lon="44.54006">
        <ele>1450.036353</ele>
        <time>2021-08-12T22:18:44.890Z</time>
      </trkpt>
      <trkpt lat="40.78337" lon="44.54101">
        <ele>1452.195737</ele>
        <time>2021-08-12T22:19:19.930Z</time>
      </trkpt>
      <trkpt lat="40.78317" lon="44.54184">
        <ele>1454.101912</ele>
        <time>2021-08-12T22:19:51.130Z</time>
      </trkpt>
      <trkpt lat="40.78314" lon="44.54244">
        <ele>1455.518571</ele>
        <time>2021-08-12T22:20:14.064Z</time>
      </trkpt>
      <trkpt lat="40.78299" lon="44.54308">
        <ele>1457.495159</ele>
        <time>2021-08-12T22:20:41.080Z</time>
      </trkpt>
      <trkpt lat="40.78278" lon="44.54394">
        <ele>1460.130627</ele>
        <time>2021-08-12T22:21:17.201Z</time>
      </trkpt>
      <trkpt lat="40.78275" lon="44.54441">
        <ele>1461.532401</ele>
        <time>2021-08-12T22:21:38.094Z</time>
      </trkpt>
      <trkpt lat="40.78265" lon="44.54463">
        <ele>1462.312436</ele>
        <time>2021-08-12T22:21:48.087Z</time>
      </trkpt>
      <trkpt lat="40.78264" lon="44.54491">
        <ele>1463.469853</ele>
        <time>2021-08-12T22:22:01.295Z</time>
      </trkpt>
      <trkpt lat="40.78257" lon="44.54544">
        <ele>1465.672358</ele>
        <time>2021-08-12T22:22:26.811Z</time>
      </trkpt>
      <trkpt lat="40.78242" lon="44.54577">
        <ele>1467.277648</ele>
        <time>2021-08-12T22:22:45.946Z</time>
      </trkpt>
      <trkpt lat="40.78228" lon="44.54591">
        <ele>1468.224419</ele>
        <time>2021-08-12T22:22:56.699Z</time>
      </trkpt>
      <trkpt lat="40.78228" lon="44.54596">
        <ele>1468.408662</ele>
        <time>2021-08-12T22:23:00.020Z</time>
      </trkpt>
      <trkpt lat="40.78231" lon="44.54659">
        <ele>1471.019</ele>
        <time>2021-08-12T22:23:29.620Z</time>
      </trkpt>
      <trkpt lat="40.78229" lon="44.54676">
        <ele>1471.724848</ele>
        <time>2021-08-12T22:23:37.613Z</time>
      </trkpt>
      <trkpt lat="40.78226" lon="44.547">
        <ele>1472.86929</ele>
        <time>2021-08-12T22:23:49.456Z</time>
      </trkpt>
      <trkpt lat="40.78222" lon="44.54723">
        <ele>1474.044019</ele>
        <time>2021-08-12T22:24:00.127Z</time>
      </trkpt>
      <trkpt lat="40.78213" lon="44.54753">
        <ele>1475.664915</ele>
        <time>2021-08-12T22:24:16.459Z</time>
      </trkpt>
      <trkpt lat="40.78192" lon="44.54797">
        <ele>1478.234951</ele>
        <time>2021-08-12T22:24:44.344Z</time>
      </trkpt>
      <trkpt lat="40.7817" lon="44.54839">
        <ele>1480.740185</ele>
        <time>2021-08-12T22:25:11.007Z</time>
      </trkpt>
      <trkpt lat="40.78146" lon="44.54883">
        <ele>1483.402481</ele>
        <time>2021-08-12T22:25:39.480Z</time>
      </trkpt>
      <trkpt lat="40.78133" lon="44.54907">
        <ele>1484.913682</ele>
        <time>2021-08-12T22:25:55.126Z</time>
      </trkpt>
      <trkpt lat="40.78116" lon="44.54939">
        <ele>1486.925584</ele>
        <time>2021-08-12T22:26:15.942Z</time>
      </trkpt>
      <trkpt lat="40.7802" lon="44.55112">
        <ele>1497.957065</ele>
        <time>2021-08-12T22:28:07.572Z</time>
      </trkpt>
      <trkpt lat="40.77939" lon="44.5522">
        <ele>1505.821905</ele>
        <time>2021-08-12T22:29:26.403Z</time>
      </trkpt>
      <trkpt lat="40.77913" lon="44.55255">
        <ele>1508.443556</ele>
        <time>2021-08-12T22:29:53.710Z</time>
      </trkpt>
      <trkpt lat="40.77902" lon="44.55274">
        <ele>1509.742476</ele>
        <time>2021-08-12T22:30:06.712Z</time>
      </trkpt>
      <trkpt lat="40.77893" lon="44.55295">
        <ele>1511.125363</ele>
        <time>2021-08-12T22:30:20.183Z</time>
      </trkpt>
      <trkpt lat="40.77873" lon="44.55343">
        <ele>1514.155183</ele>
        <time>2021-08-12T22:30:50.822Z</time>
      </trkpt>
      <trkpt lat="40.77668" lon="44.55878">
        <ele>1547.483197</ele>
        <time>2021-08-12T22:36:20.207Z</time>
      </trkpt>
      <trkpt lat="40.77662" lon="44.559">
        <ele>1548.632211</ele>
        <time>2021-08-12T22:36:32.596Z</time>
      </trkpt>
      <trkpt lat="40.77639" lon="44.56074">
        <ele>1556.914056</ele>
        <time>2021-08-12T22:38:01.871Z</time>
      </trkpt>
      <trkpt lat="40.7757" lon="44.56314">
        <ele>1566.948686</ele>
        <time>2021-08-12T22:39:57.628Z</time>
      </trkpt>
      <trkpt lat="40.77539" lon="44.56442">
        <ele>1571.569388</ele>
        <time>2021-08-12T22:40:53.580Z</time>
      </trkpt>
      <trkpt lat="40.77495" lon="44.56588">
        <ele>1576.902462</ele>
        <time>2021-08-12T22:42:00.497Z</time>
      </trkpt>
      <trkpt lat="40.77454" lon="44.56776">
        <ele>1583.8059</ele>
        <time>2021-08-12T22:43:27.425Z</time>
      </trkpt>
      <trkpt lat="40.77357" lon="44.56988">
        <ele>1590.715516</ele>
        <time>2021-08-12T22:45:05.198Z</time>
      </trkpt>
      <trkpt lat="40.77308" lon="44.57199">
        <ele>1594.418114</ele>
        <time>2021-08-12T22:46:16.445Z</time>
      </trkpt>
      <trkpt lat="40.77303" lon="44.57228">
        <ele>1594.905869</ele>
        <time>2021-08-12T22:46:25.526Z</time>
      </trkpt>
      <trkpt lat="40.77303" lon="44.57285">
        <ele>1595.827901</ele>
        <time>2021-08-12T22:46:43.271Z</time>
      </trkpt>
      <trkpt lat="40.77345" lon="44.57444">
        <ele>1598.56579</ele>
        <time>2021-08-12T22:47:37.387Z</time>
      </trkpt>
      <trkpt lat="40.77373" lon="44.57644">
        <ele>1604.20877</ele>
        <time>2021-08-12T22:48:56.345Z</time>
      </trkpt>
      <trkpt lat="40.77377" lon="44.57666">
        <ele>1604.818638</ele>
        <time>2021-08-12T22:49:05.688Z</time>
      </trkpt>
      <trkpt lat="40.77385" lon="44.57704">
        <ele>1606.432398</ele>
        <time>2021-08-12T22:49:22.262Z</time>
      </trkpt>
      <trkpt lat="40.77423" lon="44.57881">
        <ele>1614.948795</ele>
        <time>2021-08-12T22:50:54.808Z</time>
      </trkpt>
      <trkpt lat="40.77427" lon="44.57905">
        <ele>1616.109277</ele>
        <time>2021-08-12T22:51:09.771Z</time>
      </trkpt>
      <trkpt lat="40.77431" lon="44.57929">
        <ele>1617.53691</ele>
        <time>2021-08-12T22:51:21.757Z</time>
      </trkpt>
      <trkpt lat="40.77433" lon="44.57951">
        <ele>1618.824067</ele>
        <time>2021-08-12T22:51:35.321Z</time>
      </trkpt>
      <trkpt lat="40.77432" lon="44.58026">
        <ele>1623.168092</ele>
        <time>2021-08-12T22:52:15.722Z</time>
      </trkpt>
      <trkpt lat="40.77431" lon="44.58039">
        <ele>1623.968641</ele>
        <time>2021-08-12T22:52:24.705Z</time>
      </trkpt>
      <trkpt lat="40.7743" lon="44.58064">
        <ele>1625.382562</ele>
        <time>2021-08-12T22:52:38.755Z</time>
      </trkpt>
      <trkpt lat="40.77427" lon="44.58113">
        <ele>1628.251311</ele>
        <time>2021-08-12T22:53:07.665Z</time>
      </trkpt>
      <trkpt lat="40.7743" lon="44.58154">
        <ele>1630.659899</ele>
        <time>2021-08-12T22:53:31.908Z</time>
      </trkpt>
      <trkpt lat="40.77451" lon="44.58213">
        <ele>1634.343956</ele>
        <time>2021-08-12T22:54:07.275Z</time>
      </trkpt>
      <trkpt lat="40.77544" lon="44.58424">
        <ele>1648.304107</ele>
        <time>2021-08-12T22:56:21.657Z</time>
      </trkpt>
      <trkpt lat="40.77553" lon="44.58461">
        <ele>1650.516315</ele>
        <time>2021-08-12T22:56:43.347Z</time>
      </trkpt>
      <trkpt lat="40.77555" lon="44.58495">
        <ele>1652.526078</ele>
        <time>2021-08-12T22:57:02.912Z</time>
      </trkpt>
      <trkpt lat="40.77554" lon="44.58518">
        <ele>1653.83822</ele>
        <time>2021-08-12T22:57:16.256Z</time>
      </trkpt>
      <trkpt lat="40.7755" lon="44.58538">
        <ele>1655.053665</ele>
        <time>2021-08-12T22:57:28.183Z</time>
      </trkpt>
      <trkpt lat="40.77528" lon="44.58607">
        <ele>1659.22029</ele>
        <time>2021-08-12T22:58:10.408Z</time>
      </trkpt>
      <trkpt lat="40.77478" lon="44.58759">
        <ele>1668.222687</ele>
        <time>2021-08-12T22:59:40.499Z</time>
      </trkpt>
      <trkpt lat="40.77439" lon="44.58874">
        <ele>1674.722327</ele>
        <time>2021-08-12T23:00:44.151Z</time>
      </trkpt>
      <trkpt lat="40.7739" lon="44.59013">
        <ele>1682.508462</ele>
        <time>2021-08-12T23:02:04.487Z</time>
      </trkpt>
      <trkpt lat="40.77369" lon="44.59068">
        <ele>1685.722424</ele>
        <time>2021-08-12T23:02:37.309Z</time>
      </trkpt>
      <trkpt lat="40.77333" lon="44.59185">
        <ele>1692.281774</ele>
        <time>2021-08-12T23:03:44.141Z</time>
      </trkpt>
      <trkpt lat="40.7732" lon="44.59327">
        <ele>1699.746567</ele>
        <time>2021-08-12T23:04:59.473Z</time>
      </trkpt>
      <trkpt lat="40.7731" lon="44.59384">
        <ele>1702.773755</ele>
        <time>2021-08-12T23:05:30.372Z</time>
      </trkpt>
      <trkpt lat="40.7729" lon="44.59439">
        <ele>1705.932239</ele>
        <time>2021-08-12T23:06:02.767Z</time>
      </trkpt>
      <trkpt lat="40.77266" lon="44.59485">
        <ele>1708.84084</ele>
        <time>2021-08-12T23:06:32.870Z</time>
      </trkpt>
      <trkpt lat="40.77237" lon="44.59559">
        <ele>1713.0597</ele>
        <time>2021-08-12T23:07:16.438Z</time>
      </trkpt>
      <trkpt lat="40.77199" lon="44.59811">
        <ele>1726.084531</ele>
        <time>2021-08-12T23:09:29.081Z</time>
      </trkpt>
      <trkpt lat="40.77169" lon="44.59929">
        <ele>1732.392494</ele>
        <time>2021-08-12T23:10:34.026Z</time>
      </trkpt>
      <trkpt lat="40.77164" lon="44.59967">
        <ele>1734.368702</ele>
        <time>2021-08-12T23:10:54.054Z</time>
      </trkpt>
      <trkpt lat="40.77164" lon="44.60005">
        <ele>1736.333555</ele>
        <time>2021-08-12T23:11:13.973Z</time>
      </trkpt>
      <trkpt lat="40.77179" lon="44.60068">
        <ele>1739.749147</ele>
        <time>2021-08-12T23:11:48.667Z</time>
      </trkpt>
      <trkpt lat="40.77249" lon="44.60227">
        <ele>1748.794325</ele>
        <time>2021-08-12T23:13:26.206Z</time>
      </trkpt>
      <trkpt lat="40.77263" lon="44.60289">
        <ele>1751.885258</ele>
        <time>2021-08-12T23:13:58.602Z</time>
      </trkpt>
      <trkpt lat="40.77267" lon="44.60392">
        <ele>1756.043667</ele>
        <time>2021-08-12T23:14:47.105Z</time>
      </trkpt>
      <trkpt lat="40.7727" lon="44.60535">
        <ele>1760.528163</ele>
        <time>2021-08-12T23:15:45.414Z</time>
      </trkpt>
      <trkpt lat="40.77274" lon="44.60689">
        <ele>1764.513813</ele>
        <time>2021-08-12T23:16:40.649Z</time>
      </trkpt>
      <trkpt lat="40.77288" lon="44.60906">
        <ele>1770.037404</ele>
        <time>2021-08-12T23:18:01.934Z</time>
      </trkpt>
      <trkpt lat="40.77285" lon="44.61048">
        <ele>1773.995349</ele>
        <time>2021-08-12T23:18:58.259Z</time>
      </trkpt>
      <trkpt lat="40.77275" lon="44.61189">
        <ele>1778.649405</ele>
        <time>2021-08-12T23:19:59.263Z</time>
      </trkpt>
      <trkpt lat="40.77267" lon="44.61356">
        <ele>1783.520085</ele>
        <time>2021-08-12T23:21:09.448Z</time>
      </trkpt>
      <trkpt lat="40.77244" lon="44.61419">
        <ele>1785.123828</ele>
        <time>2021-08-12T23:21:36.641Z</time>
      </trkpt>
      <trkpt lat="40.77044" lon="44.61756">
        <ele>1792.317161</ele>
        <time>2021-08-12T23:23:50.543Z</time>
      </trkpt>
      <trkpt lat="40.76973" lon="44.6191">
        <ele>1796.05588</ele>
        <time>2021-08-12T23:24:52.477Z</time>
      </trkpt>
      <trkpt lat="40.76937" lon="44.61988">
        <ele>1799.173012</ele>
        <time>2021-08-12T23:25:30.656Z</time>
      </trkpt>
      <trkpt lat="40.76925" lon="44.62014">
        <ele>1800.234237</ele>
        <time>2021-08-12T23:25:45.042Z</time>
      </trkpt>
      <trkpt lat="40.76919" lon="44.62027">
        <ele>1800.757975</ele>
        <time>2021-08-12T23:25:52.505Z</time>
      </trkpt>
      <trkpt lat="40.76901" lon="44.6207">
        <ele>1802.440441</ele>
        <time>2021-08-12T23:26:16.689Z</time>
      </trkpt>
      <trkpt lat="40.76874" lon="44.62127">
        <ele>1804.420379</ele>
        <time>2021-08-12T23:26:46.921Z</time>
      </trkpt>
      <trkpt lat="40.76829" lon="44.62218">
        <ele>1807.423768</ele>
        <time>2021-08-12T23:27:33.378Z</time>
      </trkpt>
      <trkpt lat="40.76806" lon="44.62237">
        <ele>1808.386104</ele>
        <time>2021-08-12T23:27:45.592Z</time>
      </trkpt>
      <trkpt lat="40.76698" lon="44.62326">
        <ele>1809.90624</ele>
        <time>2021-08-12T23:28:32.291Z</time>
      </trkpt>
      <trkpt lat="40.76537" lon="44.62428">
        <ele>1810.13387</ele>
        <time>2021-08-12T23:29:21.948Z</time>
      </trkpt>
      <trkpt lat="40.765" lon="44.62463">
        <ele>1810.147474</ele>
        <time>2021-08-12T23:29:37.314Z</time>
      </trkpt>
      <trkpt lat="40.76497" lon="44.62465">
        <ele>1810.148355</ele>
        <time>2021-08-12T23:29:38.820Z</time>
      </trkpt>
      <trkpt lat="40.76462" lon="44.62509">
        <ele>1810.295388</ele>
        <time>2021-08-12T23:29:56.448Z</time>
      </trkpt>
      <trkpt lat="40.76447" lon="44.62536">
        <ele>1810.727201</ele>
        <time>2021-08-12T23:30:05.769Z</time>
      </trkpt>
      <trkpt lat="40.76416" lon="44.62582">
        <ele>1811.526219</ele>
        <time>2021-08-12T23:30:23.894Z</time>
      </trkpt>
      <trkpt lat="40.76318" lon="44.62699">
        <ele>1814.072926</ele>
        <time>2021-08-12T23:31:21.268Z</time>
      </trkpt>
      <trkpt lat="40.76303" lon="44.62982">
        <ele>1819.271142</ele>
        <time>2021-08-12T23:32:59.689Z</time>
      </trkpt>
      <trkpt lat="40.76302" lon="44.63009">
        <ele>1819.728991</ele>
        <time>2021-08-12T23:33:09.359Z</time>
      </trkpt>
      <trkpt lat="40.76293" lon="44.63039">
        <ele>1820.278098</ele>
        <time>2021-08-12T23:33:19.951Z</time>
      </trkpt>
      <trkpt lat="40.76267" lon="44.63077">
        <ele>1821.148351</ele>
        <time>2021-08-12T23:33:36.776Z</time>
      </trkpt>
      <trkpt lat="40.76156" lon="44.63175">
        <ele>1822.783178</ele>
        <time>2021-08-12T23:34:28.342Z</time>
      </trkpt>
      <trkpt lat="40.76009" lon="44.63265">
        <ele>1823.434209</ele>
        <time>2021-08-12T23:35:21.135Z</time>
      </trkpt>
      <trkpt lat="40.75855" lon="44.63383">
        <ele>1822.593429</ele>
        <time>2021-08-12T23:36:13.432Z</time>
      </trkpt>
      <trkpt lat="40.75844" lon="44.63394">
        <ele>1822.466883</ele>
        <time>2021-08-12T23:36:17.136Z</time>
      </trkpt>
      <trkpt lat="40.75842" lon="44.63397">
        <ele>1822.436091</ele>
        <time>2021-08-12T23:36:18.026Z</time>
      </trkpt>
      <trkpt lat="40.75769" lon="44.63479">
        <ele>1821.316707</ele>
        <time>2021-08-12T23:36:42.869Z</time>
      </trkpt>
      <trkpt lat="40.75754" lon="44.635">
        <ele>1820.844033</ele>
        <time>2021-08-12T23:36:48.210Z</time>
      </trkpt>
      <trkpt lat="40.75712" lon="44.6357">
        <ele>1819.375022</ele>
        <time>2021-08-12T23:37:04.397Z</time>
      </trkpt>
      <trkpt lat="40.75654" lon="44.63683">
        <ele>1817.162715</ele>
        <time>2021-08-12T23:37:29.097Z</time>
      </trkpt>
      <trkpt lat="40.7563" lon="44.6375">
        <ele>1816.010489</ele>
        <time>2021-08-12T23:37:42.618Z</time>
      </trkpt>
      <trkpt lat="40.75566" lon="44.63982">
        <ele>1813.082679</ele>
        <time>2021-08-12T23:38:29.941Z</time>
      </trkpt>
      <trkpt lat="40.75533" lon="44.64234">
        <ele>1812.375263</ele>
        <time>2021-08-12T23:39:26.493Z</time>
      </trkpt>
      <trkpt lat="40.75522" lon="44.64261">
        <ele>1812.423936</ele>
        <time>2021-08-12T23:39:34.461Z</time>
      </trkpt>
      <trkpt lat="40.7549" lon="44.64329">
        <ele>1812.760207</ele>
        <time>2021-08-12T23:39:56.834Z</time>
      </trkpt>
      <trkpt lat="40.75473" lon="44.64367">
        <ele>1813.439925</ele>
        <time>2021-08-12T23:40:10.132Z</time>
      </trkpt>
      <trkpt lat="40.75407" lon="44.64524">
        <ele>1816.18797</ele>
        <time>2021-08-12T23:41:09.663Z</time>
      </trkpt>
      <trkpt lat="40.75369" lon="44.64566">
        <ele>1817.525205</ele>
        <time>2021-08-12T23:41:33.354Z</time>
      </trkpt>
      <trkpt lat="40.75306" lon="44.64634">
        <ele>1819.719838</ele>
        <time>2021-08-12T23:42:12.625Z</time>
      </trkpt>
      <trkpt lat="40.7523" lon="44.64716">
        <ele>1821.440963</ele>
        <time>2021-08-12T23:42:56.383Z</time>
      </trkpt>
      <trkpt lat="40.75224" lon="44.64722">
        <ele>1821.50219</ele>
        <time>2021-08-12T23:42:59.508Z</time>
      </trkpt>
      <trkpt lat="40.74965" lon="44.64976">
        <ele>1821.880031</ele>
        <time>2021-08-12T23:44:39.711Z</time>
      </trkpt>
      <trkpt lat="40.74934" lon="44.65028">
        <ele>1820.946933</ele>
        <time>2021-08-12T23:44:52.415Z</time>
      </trkpt>
      <trkpt lat="40.74855" lon="44.65283">
        <ele>1817.121445</ele>
        <time>2021-08-12T23:45:42.457Z</time>
      </trkpt>
      <trkpt lat="40.74842" lon="44.65351">
        <ele>1816.157106</ele>
        <time>2021-08-12T23:45:56.119Z</time>
      </trkpt>
      <trkpt lat="40.74847" lon="44.65383">
        <ele>1815.705607</ele>
        <time>2021-08-12T23:46:02.844Z</time>
      </trkpt>
      <trkpt lat="40.74844" lon="44.65424">
        <ele>1815.607651</ele>
        <time>2021-08-12T23:46:11.591Z</time>
      </trkpt>
      <trkpt lat="40.74826" lon="44.6554">
        <ele>1815.4188</ele>
        <time>2021-08-12T23:46:39.878Z</time>
      </trkpt>
      <trkpt lat="40.74797" lon="44.65691">
        <ele>1814.667426</ele>
        <time>2021-08-12T23:47:16.902Z</time>
      </trkpt>
      <trkpt lat="40.74782" lon="44.65726">
        <ele>1814.340186</ele>
        <time>2021-08-12T23:47:25.407Z</time>
      </trkpt>
      <trkpt lat="40.74542" lon="44.66057">
        <ele>1808.327357</ele>
        <time>2021-08-12T23:48:50.916Z</time>
      </trkpt>
      <trkpt lat="40.74511" lon="44.66133">
        <ele>1807.115466</ele>
        <time>2021-08-12T23:49:07.068Z</time>
      </trkpt>
      <trkpt lat="40.74484" lon="44.6623">
        <ele>1806.125337</ele>
        <time>2021-08-12T23:49:27.069Z</time>
      </trkpt>
      <trkpt lat="40.74478" lon="44.66343">
        <ele>1805.546024</ele>
        <time>2021-08-12T23:49:51.514Z</time>
      </trkpt>
      <trkpt lat="40.74461" lon="44.66405">
        <ele>1805.214092</ele>
        <time>2021-08-12T23:50:06.992Z</time>
      </trkpt>
      <trkpt lat="40.74437" lon="44.66449">
        <ele>1805.152768</ele>
        <time>2021-08-12T23:50:20.078Z</time>
      </trkpt>
      <trkpt lat="40.74356" lon="44.66502">
        <ele>1805.096781</ele>
        <time>2021-08-12T23:50:48.977Z</time>
      </trkpt>
      <trkpt lat="40.74258" lon="44.66611">
        <ele>1804.446622</ele>
        <time>2021-08-12T23:51:26.014Z</time>
      </trkpt>
      <trkpt lat="40.74202" lon="44.66688">
        <ele>1803.767462</ele>
        <time>2021-08-12T23:51:47.412Z</time>
      </trkpt>
      <trkpt lat="40.74181" lon="44.66744">
        <ele>1803.476982</ele>
        <time>2021-08-12T23:51:59.698Z</time>
      </trkpt>
      <trkpt lat="40.74145" lon="44.66948">
        <ele>1802.936101</ele>
        <time>2021-08-12T23:52:47.119Z</time>
      </trkpt>
      <trkpt lat="40.74132" lon="44.67033">
        <ele>1803.405759</ele>
        <time>2021-08-12T23:53:10.487Z</time>
      </trkpt>
      <trkpt lat="40.74098" lon="44.67215">
        <ele>1803.975114</ele>
        <time>2021-08-12T23:54:03.168Z</time>
      </trkpt>
      <trkpt lat="40.74084" lon="44.67314">
        <ele>1803.321684</ele>
        <time>2021-08-12T23:54:24.863Z</time>
      </trkpt>
      <trkpt lat="40.74071" lon="44.67427">
        <ele>1802.319106</ele>
        <time>2021-08-12T23:54:46.602Z</time>
      </trkpt>
      <trkpt lat="40.74053" lon="44.67583">
        <ele>1798.652171</ele>
        <time>2021-08-12T23:55:14.345Z</time>
      </trkpt>
      <trkpt lat="40.74052" lon="44.67623">
        <ele>1797.725139</ele>
        <time>2021-08-12T23:55:21.020Z</time>
      </trkpt>
      <trkpt lat="40.74049" lon="44.67736">
        <ele>1794.603241</ele>
        <time>2021-08-12T23:55:40.024Z</time>
      </trkpt>
      <trkpt lat="40.74043" lon="44.67765">
        <ele>1793.753741</ele>
        <time>2021-08-12T23:55:44.911Z</time>
      </trkpt>
      <trkpt lat="40.74033" lon="44.67815">
        <ele>1792.25043</ele>
        <time>2021-08-12T23:55:53.708Z</time>
      </trkpt>
      <trkpt lat="40.73982" lon="44.67964">
        <ele>1788.22881</ele>
        <time>2021-08-12T23:56:21.278Z</time>
      </trkpt>
      <trkpt lat="40.73967" lon="44.68028">
        <ele>1786.765568</ele>
        <time>2021-08-12T23:56:33.164Z</time>
      </trkpt>
      <trkpt lat="40.73958" lon="44.68115">
        <ele>1785.0449</ele>
        <time>2021-08-12T23:56:49.481Z</time>
      </trkpt>
      <trkpt lat="40.73957" lon="44.68126">
        <ele>1784.944652</ele>
        <time>2021-08-12T23:56:51.631Z</time>
      </trkpt>
      <trkpt lat="40.73945" lon="44.6821">
        <ele>1784.181147</ele>
        <time>2021-08-12T23:57:08.706Z</time>
      </trkpt>
      <trkpt lat="40.73965" lon="44.6827">
        <ele>1783.591919</ele>
        <time>2021-08-12T23:57:22.191Z</time>
      </trkpt>
      <trkpt lat="40.73961" lon="44.68304">
        <ele>1783.284362</ele>
        <time>2021-08-12T23:57:29.331Z</time>
      </trkpt>
      <trkpt lat="40.73949" lon="44.6833">
        <ele>1783.004502</ele>
        <time>2021-08-12T23:57:36.386Z</time>
      </trkpt>
      <trkpt lat="40.73943" lon="44.68344">
        <ele>1782.813543</ele>
        <time>2021-08-12T23:57:39.676Z</time>
      </trkpt>
      <trkpt lat="40.73884" lon="44.68448">
        <ele>1781.309792</ele>
        <time>2021-08-12T23:58:06.415Z</time>
      </trkpt>
      <trkpt lat="40.7381" lon="44.68533">
        <ele>1779.219438</ele>
        <time>2021-08-12T23:58:30.001Z</time>
      </trkpt>
      <trkpt lat="40.73798" lon="44.68564">
        <ele>1778.360086</ele>
        <time>2021-08-12T23:58:35.886Z</time>
      </trkpt>
      <trkpt lat="40.73784" lon="44.68604">
        <ele>1777.233101</ele>
        <time>2021-08-12T23:58:43.570Z</time>
      </trkpt>
      <trkpt lat="40.73762" lon="44.68669">
        <ele>1775.443419</ele>
        <time>2021-08-12T23:58:55.561Z</time>
      </trkpt>
      <trkpt lat="40.73749" lon="44.68703">
        <ele>1774.461909</ele>
        <time>2021-08-12T23:59:01.989Z</time>
      </trkpt>
      <trkpt lat="40.73744" lon="44.68721">
        <ele>1773.93828</ele>
        <time>2021-08-12T23:59:05.102Z</time>
      </trkpt>
      <trkpt lat="40.73696" lon="44.68837">
        <ele>1770.074946</ele>
        <time>2021-08-12T23:59:27.139Z</time>
      </trkpt>
      <trkpt lat="40.73682" lon="44.68848">
        <ele>1769.417504</ele>
        <time>2021-08-12T23:59:30.876Z</time>
      </trkpt>
      <trkpt lat="40.73576" lon="44.69037">
        <ele>1762.705753</ele>
        <time>2021-08-13T00:00:10.794Z</time>
      </trkpt>
      <trkpt lat="40.73562" lon="44.69064">
        <ele>1761.753848</ele>
        <time>2021-08-13T00:00:16.377Z</time>
      </trkpt>
      <trkpt lat="40.73529" lon="44.69126">
        <ele>1759.335281</ele>
        <time>2021-08-13T00:00:28.767Z</time>
      </trkpt>
      <trkpt lat="40.73488" lon="44.69206">
        <ele>1755.779213</ele>
        <time>2021-08-13T00:00:44.462Z</time>
      </trkpt>
      <trkpt lat="40.73415" lon="44.69353">
        <ele>1749.462598</ele>
        <time>2021-08-13T00:01:12.447Z</time>
      </trkpt>
      <trkpt lat="40.7338" lon="44.69419">
        <ele>1746.637118</ele>
        <time>2021-08-13T00:01:25.525Z</time>
      </trkpt>
      <trkpt lat="40.7321" lon="44.69766">
        <ele>1734.951815</ele>
        <time>2021-08-13T00:02:34.554Z</time>
      </trkpt>
      <trkpt lat="40.7303" lon="44.70125">
        <ele>1730.033444</ele>
        <time>2021-08-13T00:04:00.089Z</time>
      </trkpt>
      <trkpt lat="40.73012" lon="44.70166">
        <ele>1729.88519</ele>
        <time>2021-08-13T00:04:12.178Z</time>
      </trkpt>
      <trkpt lat="40.72988" lon="44.70267">
        <ele>1729.552124</ele>
        <time>2021-08-13T00:04:38.464Z</time>
      </trkpt>
      <trkpt lat="40.73005" lon="44.70275">
        <ele>1729.476984</ele>
        <time>2021-08-13T00:04:44.518Z</time>
      </trkpt>
      <trkpt lat="40.73072" lon="44.70282">
        <ele>1727.823704</ele>
        <time>2021-08-13T00:05:01.946Z</time>
      </trkpt>
      <trkpt lat="40.73005" lon="44.70275">
        <ele>1725.85287</ele>
        <time>2021-08-13T00:05:18.870Z</time>
      </trkpt>
      <trkpt lat="40.72988" lon="44.70267">
        <ele>1725.324633</ele>
        <time>2021-08-13T00:05:23.085Z</time>
      </trkpt>
      <trkpt lat="40.72981" lon="44.70293">
        <ele>1724.700574</ele>
        <time>2021-08-13T00:05:27.766Z</time>
      </trkpt>
      <trkpt lat="40.72953" lon="44.70387">
        <ele>1720.625572</ele>
        <time>2021-08-13T00:05:43.362Z</time>
      </trkpt>
      <trkpt lat="40.72902" lon="44.70583">
        <ele>1711.604612</ele>
        <time>2021-08-13T00:06:15.397Z</time>
      </trkpt>
      <trkpt lat="40.72874" lon="44.70686">
        <ele>1708.03149</ele>
        <time>2021-08-13T00:06:33.140Z</time>
      </trkpt>
      <trkpt lat="40.72819" lon="44.70887">
        <ele>1703.468661</ele>
        <time>2021-08-13T00:07:11.971Z</time>
      </trkpt>
      <trkpt lat="40.72768" lon="44.71055">
        <ele>1701.133777</ele>
        <time>2021-08-13T00:07:48.353Z</time>
      </trkpt>
      <trkpt lat="40.72711" lon="44.71157">
        <ele>1699.757357</ele>
        <time>2021-08-13T00:08:12.945Z</time>
      </trkpt>
      <trkpt lat="40.72691" lon="44.71201">
        <ele>1699.17109</ele>
        <time>2021-08-13T00:08:22.999Z</time>
      </trkpt>
      <trkpt lat="40.72685" lon="44.71288">
        <ele>1698.120399</ele>
        <time>2021-08-13T00:08:39.690Z</time>
      </trkpt>
      <trkpt lat="40.72675" lon="44.7131">
        <ele>1697.811623</ele>
        <time>2021-08-13T00:08:44.593Z</time>
      </trkpt>
      <trkpt lat="40.7263" lon="44.71375">
        <ele>1696.737312</ele>
        <time>2021-08-13T00:09:01.612Z</time>
      </trkpt>
      <trkpt lat="40.72575" lon="44.71453">
        <ele>1695.360052</ele>
        <time>2021-08-13T00:09:22.327Z</time>
      </trkpt>
      <trkpt lat="40.7249" lon="44.71531">
        <ele>1693.564128</ele>
        <time>2021-08-13T00:09:48.466Z</time>
      </trkpt>
      <trkpt lat="40.72444" lon="44.71574">
        <ele>1692.271826</ele>
        <time>2021-08-13T00:10:02.153Z</time>
      </trkpt>
      <trkpt lat="40.72374" lon="44.7166">
        <ele>1689.93874</ele>
        <time>2021-08-13T00:10:24.830Z</time>
      </trkpt>
      <trkpt lat="40.7232" lon="44.71734">
        <ele>1687.975563</ele>
        <time>2021-08-13T00:10:43.006Z</time>
      </trkpt>
      <trkpt lat="40.72252" lon="44.71802">
        <ele>1685.755313</ele>
        <time>2021-08-13T00:11:03.065Z</time>
      </trkpt>
      <trkpt lat="40.72214" lon="44.71866">
        <ele>1684.193201</ele>
        <time>2021-08-13T00:11:17.679Z</time>
      </trkpt>
      <trkpt lat="40.72146" lon="44.7203">
        <ele>1681.244293</ele>
        <time>2021-08-13T00:11:52.316Z</time>
      </trkpt>
      <trkpt lat="40.72121" lon="44.72078">
        <ele>1680.385843</ele>
        <time>2021-08-13T00:12:03.369Z</time>
      </trkpt>
      <trkpt lat="40.72105" lon="44.7211">
        <ele>1679.905925</ele>
        <time>2021-08-13T00:12:10.975Z</time>
      </trkpt>
      <trkpt lat="40.72086" lon="44.72164">
        <ele>1679.190434</ele>
        <time>2021-08-13T00:12:22.359Z</time>
      </trkpt>
      <trkpt lat="40.72026" lon="44.72305">
        <ele>1677.075141</ele>
        <time>2021-08-13T00:12:54.240Z</time>
      </trkpt>
      <trkpt lat="40.72018" lon="44.72375">
        <ele>1675.957109</ele>
        <time>2021-08-13T00:13:07.544Z</time>
      </trkpt>
      <trkpt lat="40.71997" lon="44.72463">
        <ele>1674.499532</ele>
        <time>2021-08-13T00:13:24.407Z</time>
      </trkpt>
      <trkpt lat="40.71987" lon="44.72488">
        <ele>1674.053096</ele>
        <time>2021-08-13T00:13:29.488Z</time>
      </trkpt>
      <trkpt lat="40.71958" lon="44.72564">
        <ele>1672.352601</ele>
        <time>2021-08-13T00:13:44.588Z</time>
      </trkpt>
      <trkpt lat="40.71934" lon="44.72634">
        <ele>1670.7785</ele>
        <time>2021-08-13T00:13:57.968Z</time>
      </trkpt>
      <trkpt lat="40.71882" lon="44.72727">
        <ele>1668.684728</ele>
        <time>2021-08-13T00:14:18.656Z</time>
      </trkpt>
      <trkpt lat="40.71867" lon="44.72767">
        <ele>1668.163618</ele>
        <time>2021-08-13T00:14:27.134Z</time>
      </trkpt>
      <trkpt lat="40.71861" lon="44.72784">
        <ele>1667.942972</ele>
        <time>2021-08-13T00:14:30.861Z</time>
      </trkpt>
      <trkpt lat="40.71856" lon="44.72797">
        <ele>1667.778309</ele>
        <time>2021-08-13T00:14:33.651Z</time>
      </trkpt>
      <trkpt lat="40.71833" lon="44.72862">
        <ele>1666.93258</ele>
        <time>2021-08-13T00:14:47.961Z</time>
      </trkpt>
      <trkpt lat="40.71788" lon="44.72948">
        <ele>1665.953834</ele>
        <time>2021-08-13T00:15:09.481Z</time>
      </trkpt>
      <trkpt lat="40.71774" lon="44.72985">
        <ele>1665.684476</ele>
        <time>2021-08-13T00:15:18.280Z</time>
      </trkpt>
      <trkpt lat="40.71754" lon="44.73095">
        <ele>1664.928261</ele>
        <time>2021-08-13T00:15:42.262Z</time>
      </trkpt>
      <trkpt lat="40.7181" lon="44.73348">
        <ele>1662.522299</ele>
        <time>2021-08-13T00:16:36.070Z</time>
      </trkpt>
      <trkpt lat="40.7182" lon="44.73422">
        <ele>1660.742111</ele>
        <time>2021-08-13T00:16:49.660Z</time>
      </trkpt>
      <trkpt lat="40.71819" lon="44.73467">
        <ele>1659.60546</ele>
        <time>2021-08-13T00:16:57.448Z</time>
      </trkpt>
      <trkpt lat="40.7183" lon="44.73511">
        <ele>1658.433016</ele>
        <time>2021-08-13T00:17:05.278Z</time>
      </trkpt>
      <trkpt lat="40.71851" lon="44.73561">
        <ele>1657.004976</ele>
        <time>2021-08-13T00:17:14.719Z</time>
      </trkpt>
      <trkpt lat="40.7185" lon="44.73575">
        <ele>1656.645938</ele>
        <time>2021-08-13T00:17:16.894Z</time>
      </trkpt>
      <trkpt lat="40.71843" lon="44.73613">
        <ele>1655.545987</ele>
        <time>2021-08-13T00:17:23.411Z</time>
      </trkpt>
      <trkpt lat="40.71827" lon="44.73657">
        <ele>1654.118528</ele>
        <time>2021-08-13T00:17:31.396Z</time>
      </trkpt>
      <trkpt lat="40.7181" lon="44.73687">
        <ele>1653.012319</ele>
        <time>2021-08-13T00:17:37.647Z</time>
      </trkpt>
      <trkpt lat="40.71776" lon="44.73743">
        <ele>1650.911681</ele>
        <time>2021-08-13T00:17:49.356Z</time>
      </trkpt>
      <trkpt lat="40.71716" lon="44.7383">
        <ele>1648.662227</ele>
        <time>2021-08-13T00:18:10.953Z</time>
      </trkpt>
      <trkpt lat="40.7169" lon="44.7388">
        <ele>1647.920022</ele>
        <time>2021-08-13T00:18:23.168Z</time>
      </trkpt>
      <trkpt lat="40.71678" lon="44.73928">
        <ele>1647.297096</ele>
        <time>2021-08-13T00:18:33.294Z</time>
      </trkpt>
      <trkpt lat="40.71669" lon="44.74013">
        <ele>1646.108829</ele>
        <time>2021-08-13T00:18:50.582Z</time>
      </trkpt>
      <trkpt lat="40.71665" lon="44.7405">
        <ele>1645.490057</ele>
        <time>2021-08-13T00:18:58.214Z</time>
      </trkpt>
      <trkpt lat="40.71663" lon="44.74075">
        <ele>1645.069822</ele>
        <time>2021-08-13T00:19:02.925Z</time>
      </trkpt>
      <trkpt lat="40.71632" lon="44.74372">
        <ele>1638.956661</ele>
        <time>2021-08-13T00:19:56.158Z</time>
      </trkpt>
      <trkpt lat="40.71627" lon="44.74428">
        <ele>1637.604643</ele>
        <time>2021-08-13T00:20:05.785Z</time>
      </trkpt>
      <trkpt lat="40.71616" lon="44.74529">
        <ele>1634.371523</ele>
        <time>2021-08-13T00:20:22.964Z</time>
      </trkpt>
      <trkpt lat="40.71607" lon="44.74643">
        <ele>1630.459717</ele>
        <time>2021-08-13T00:20:41.723Z</time>
      </trkpt>
      <trkpt lat="40.7161" lon="44.74887">
        <ele>1619.737759</ele>
        <time>2021-08-13T00:21:20.089Z</time>
      </trkpt>
      <trkpt lat="40.71589" lon="44.74996">
        <ele>1613.565621</ele>
        <time>2021-08-13T00:21:37.008Z</time>
      </trkpt>
      <trkpt lat="40.71589" lon="44.75026">
        <ele>1611.781811</ele>
        <time>2021-08-13T00:21:41.477Z</time>
      </trkpt>
      <trkpt lat="40.71638" lon="44.75427">
        <ele>1587.575318</ele>
        <time>2021-08-13T00:22:41.946Z</time>
      </trkpt>
      <trkpt lat="40.71654" lon="44.75635">
        <ele>1577.2442</ele>
        <time>2021-08-13T00:23:14.495Z</time>
      </trkpt>
      <trkpt lat="40.71656" lon="44.75726">
        <ele>1572.515409</ele>
        <time>2021-08-13T00:23:28.614Z</time>
      </trkpt>
      <trkpt lat="40.71646" lon="44.75826">
        <ele>1567.233599</ele>
        <time>2021-08-13T00:23:44.011Z</time>
      </trkpt>
      <trkpt lat="40.7165" lon="44.76031">
        <ele>1555.211046</ele>
        <time>2021-08-13T00:24:14.615Z</time>
      </trkpt>
      <trkpt lat="40.71629" lon="44.76194">
        <ele>1545.994495</ele>
        <time>2021-08-13T00:24:39.354Z</time>
      </trkpt>
      <trkpt lat="40.71596" lon="44.76346">
        <ele>1537.633084</ele>
        <time>2021-08-13T00:25:03.826Z</time>
      </trkpt>
      <trkpt lat="40.71589" lon="44.76537">
        <ele>1527.41267</ele>
        <time>2021-08-13T00:25:33.081Z</time>
      </trkpt>
      <trkpt lat="40.71564" lon="44.76688">
        <ele>1518.04801</ele>
        <time>2021-08-13T00:25:56.074Z</time>
      </trkpt>
      <trkpt lat="40.7156" lon="44.76897">
        <ele>1506.457129</ele>
        <time>2021-08-13T00:26:27.083Z</time>
      </trkpt>
      <trkpt lat="40.71555" lon="44.76935">
        <ele>1504.640253</ele>
        <time>2021-08-13T00:26:33.009Z</time>
      </trkpt>
      <trkpt lat="40.71525" lon="44.77059">
        <ele>1499.033996</ele>
        <time>2021-08-13T00:26:54.253Z</time>
      </trkpt>
      <trkpt lat="40.71525" lon="44.77109">
        <ele>1497.83839</ele>
        <time>2021-08-13T00:27:02.754Z</time>
      </trkpt>
      <trkpt lat="40.71537" lon="44.77164">
        <ele>1496.432342</ele>
        <time>2021-08-13T00:27:13.034Z</time>
      </trkpt>
      <trkpt lat="40.71574" lon="44.77284">
        <ele>1493.422595</ele>
        <time>2021-08-13T00:27:35.917Z</time>
      </trkpt>
      <trkpt lat="40.71628" lon="44.77595">
        <ele>1488.880282</ele>
        <time>2021-08-13T00:28:33.737Z</time>
      </trkpt>
      <trkpt lat="40.71632" lon="44.77647">
        <ele>1488.628295</ele>
        <time>2021-08-13T00:28:46.346Z</time>
      </trkpt>
      <trkpt lat="40.71627" lon="44.77701">
        <ele>1488.371428</ele>
        <time>2021-08-13T00:29:01.002Z</time>
      </trkpt>
      <trkpt lat="40.71601" lon="44.7784">
        <ele>1489.489732</ele>
        <time>2021-08-13T00:29:46.813Z</time>
      </trkpt>
      <trkpt lat="40.71604" lon="44.77875">
        <ele>1489.857031</ele>
        <time>2021-08-13T00:29:58.124Z</time>
      </trkpt>
      <trkpt lat="40.71619" lon="44.77925">
        <ele>1490.402831</ele>
        <time>2021-08-13T00:30:14.079Z</time>
      </trkpt>
      <trkpt lat="40.71646" lon="44.77968">
        <ele>1490.228408</ele>
        <time>2021-08-13T00:30:29.343Z</time>
      </trkpt>
      <trkpt lat="40.71772" lon="44.78056">
        <ele>1487.109622</ele>
        <time>2021-08-13T00:31:04.617Z</time>
      </trkpt>
      <trkpt lat="40.71875" lon="44.78147">
        <ele>1479.119793</ele>
        <time>2021-08-13T00:31:29.643Z</time>
      </trkpt>
      <trkpt lat="40.7191" lon="44.78187">
        <ele>1475.834193</ele>
        <time>2021-08-13T00:31:38.679Z</time>
      </trkpt>
      <trkpt lat="40.71947" lon="44.78229">
        <ele>1471.911296</ele>
        <time>2021-08-13T00:31:48.050Z</time>
      </trkpt>
      <trkpt lat="40.71962" lon="44.78245">
        <ele>1470.171103</ele>
        <time>2021-08-13T00:31:51.815Z</time>
      </trkpt>
      <trkpt lat="40.72006" lon="44.78299">
        <ele>1464.664537</ele>
        <time>2021-08-13T00:32:03.131Z</time>
      </trkpt>
      <trkpt lat="40.72037" lon="44.78345">
        <ele>1460.359872</ele>
        <time>2021-08-13T00:32:12.223Z</time>
      </trkpt>
      <trkpt lat="40.72053" lon="44.78399">
        <ele>1456.614866</ele>
        <time>2021-08-13T00:32:21.010Z</time>
      </trkpt>
      <trkpt lat="40.72054" lon="44.78412">
        <ele>1455.952314</ele>
        <time>2021-08-13T00:32:22.821Z</time>
      </trkpt>
      <trkpt lat="40.72054" lon="44.78438">
        <ele>1454.595566</ele>
        <time>2021-08-13T00:32:26.889Z</time>
      </trkpt>
      <trkpt lat="40.7204" lon="44.78526">
        <ele>1449.996511</ele>
        <time>2021-08-13T00:32:40.485Z</time>
      </trkpt>
      <trkpt lat="40.71979" lon="44.78797">
        <ele>1436.811246</ele>
        <time>2021-08-13T00:33:24.937Z</time>
      </trkpt>
      <trkpt lat="40.71967" lon="44.78909">
        <ele>1432.27459</ele>
        <time>2021-08-13T00:33:42.633Z</time>
      </trkpt>
      <trkpt lat="40.7195" lon="44.79007">
        <ele>1428.478905</ele>
        <time>2021-08-13T00:33:58.702Z</time>
      </trkpt>
      <trkpt lat="40.71911" lon="44.79158">
        <ele>1423.526293</ele>
        <time>2021-08-13T00:34:25.606Z</time>
      </trkpt>
      <trkpt lat="40.71896" lon="44.79251">
        <ele>1421.070346</ele>
        <time>2021-08-13T00:34:42.192Z</time>
      </trkpt>
      <trkpt lat="40.71894" lon="44.79336">
        <ele>1418.698655</ele>
        <time>2021-08-13T00:34:57.014Z</time>
      </trkpt>
      <trkpt lat="40.7192" lon="44.79651">
        <ele>1408.949422</ele>
        <time>2021-08-13T00:35:49.115Z</time>
      </trkpt>
      <trkpt lat="40.71924" lon="44.79693">
        <ele>1407.633998</ele>
        <time>2021-08-13T00:35:56.112Z</time>
      </trkpt>
      <trkpt lat="40.71932" lon="44.79735">
        <ele>1406.313917</ele>
        <time>2021-08-13T00:36:03.364Z</time>
      </trkpt>
      <trkpt lat="40.71954" lon="44.79827">
        <ele>1404.303731</ele>
        <time>2021-08-13T00:36:20.119Z</time>
      </trkpt>
      <trkpt lat="40.71977" lon="44.79877">
        <ele>1403.470197</ele>
        <time>2021-08-13T00:36:30.706Z</time>
      </trkpt>
      <trkpt lat="40.71983" lon="44.79888">
        <ele>1403.282446</ele>
        <time>2021-08-13T00:36:33.528Z</time>
      </trkpt>
      <trkpt lat="40.72004" lon="44.79925">
        <ele>1402.608816</ele>
        <time>2021-08-13T00:36:43.020Z</time>
      </trkpt>
      <trkpt lat="40.72061" lon="44.80036">
        <ele>1400.882564</ele>
        <time>2021-08-13T00:37:11.197Z</time>
      </trkpt>
      <trkpt lat="40.72078" lon="44.80084">
        <ele>1400.259015</ele>
        <time>2021-08-13T00:37:21.890Z</time>
      </trkpt>
      <trkpt lat="40.72095" lon="44.80174">
        <ele>1399.175232</ele>
        <time>2021-08-13T00:37:39.146Z</time>
      </trkpt>
      <trkpt lat="40.72114" lon="44.8021">
        <ele>1398.451186</ele>
        <time>2021-08-13T00:37:47.183Z</time>
      </trkpt>
      <trkpt lat="40.72137" lon="44.80232">
        <ele>1397.699484</ele>
        <time>2021-08-13T00:37:54.003Z</time>
      </trkpt>
      <trkpt lat="40.72229" lon="44.80279">
        <ele>1395.141363</ele>
        <time>2021-08-13T00:38:17.127Z</time>
      </trkpt>
      <trkpt lat="40.72295" lon="44.80291">
        <ele>1393.064358</ele>
        <time>2021-08-13T00:38:32.719Z</time>
      </trkpt>
      <trkpt lat="40.72333" lon="44.80309">
        <ele>1391.620079</ele>
        <time>2021-08-13T00:38:41.854Z</time>
      </trkpt>
      <trkpt lat="40.72408" lon="44.80388">
        <ele>1388.183874</ele>
        <time>2021-08-13T00:39:03.159Z</time>
      </trkpt>
      <trkpt lat="40.72421" lon="44.80409">
        <ele>1387.367677</ele>
        <time>2021-08-13T00:39:07.628Z</time>
      </trkpt>
      <trkpt lat="40.7243" lon="44.80454">
        <ele>1385.865801</ele>
        <time>2021-08-13T00:39:15.139Z</time>
      </trkpt>
      <trkpt lat="40.72432" lon="44.80631">
        <ele>1380.097017</ele>
        <time>2021-08-13T00:39:44.241Z</time>
      </trkpt>
      <trkpt lat="40.72444" lon="44.80689">
        <ele>1378.3142</ele>
        <time>2021-08-13T00:39:54.323Z</time>
      </trkpt>
      <trkpt lat="40.7246" lon="44.80725">
        <ele>1377.030681</ele>
        <time>2021-08-13T00:40:01.592Z</time>
      </trkpt>
      <trkpt lat="40.72487" lon="44.80771">
        <ele>1375.305358</ele>
        <time>2021-08-13T00:40:11.369Z</time>
      </trkpt>
      <trkpt lat="40.72538" lon="44.80837">
        <ele>1372.351562</ele>
        <time>2021-08-13T00:40:27.319Z</time>
      </trkpt>
      <trkpt lat="40.7265" lon="44.80936">
        <ele>1365.933675</ele>
        <time>2021-08-13T00:40:55.187Z</time>
      </trkpt>
      <trkpt lat="40.72679" lon="44.80972">
        <ele>1364.244036</ele>
        <time>2021-08-13T00:41:04.047Z</time>
      </trkpt>
      <trkpt lat="40.72698" lon="44.81019">
        <ele>1363.465986</ele>
        <time>2021-08-13T00:41:13.486Z</time>
      </trkpt>
      <trkpt lat="40.72706" lon="44.81044">
        <ele>1363.078766</ele>
        <time>2021-08-13T00:41:18.522Z</time>
      </trkpt>
      <trkpt lat="40.72709" lon="44.8106">
        <ele>1362.82303</ele>
        <time>2021-08-13T00:41:21.830Z</time>
      </trkpt>
      <trkpt lat="40.7273" lon="44.81134">
        <ele>1361.675607</ele>
        <time>2021-08-13T00:41:37.328Z</time>
      </trkpt>
      <trkpt lat="40.72739" lon="44.81152">
        <ele>1361.372199</ele>
        <time>2021-08-13T00:41:41.502Z</time>
      </trkpt>
      <trkpt lat="40.72787" lon="44.81196">
        <ele>1360.189964</ele>
        <time>2021-08-13T00:42:00.216Z</time>
      </trkpt>
      <trkpt lat="40.72907" lon="44.81273">
        <ele>1357.389277</ele>
        <time>2021-08-13T00:42:32.771Z</time>
      </trkpt>
      <trkpt lat="40.72932" lon="44.81305">
        <ele>1356.518356</ele>
        <time>2021-08-13T00:42:40.198Z</time>
      </trkpt>
      <trkpt lat="40.72973" lon="44.8137">
        <ele>1354.809402</ele>
        <time>2021-08-13T00:42:53.920Z</time>
      </trkpt>
      <trkpt lat="40.73005" lon="44.81425">
        <ele>1353.380523</ele>
        <time>2021-08-13T00:43:06.293Z</time>
      </trkpt>
      <trkpt lat="40.73049" lon="44.81475">
        <ele>1352.769829</ele>
        <time>2021-08-13T00:43:22.026Z</time>
      </trkpt>
      <trkpt lat="40.73078" lon="44.81497">
        <ele>1353.532554</ele>
        <time>2021-08-13T00:43:37.373Z</time>
      </trkpt>
      <trkpt lat="40.73111" lon="44.8152">
        <ele>1354.367652</ele>
        <time>2021-08-13T00:43:56.260Z</time>
      </trkpt>
      <trkpt lat="40.73158" lon="44.81552">
        <ele>1355.543129</ele>
        <time>2021-08-13T00:44:22.429Z</time>
      </trkpt>
      <trkpt lat="40.73202" lon="44.81583">
        <ele>1356.30899</ele>
        <time>2021-08-13T00:44:47.431Z</time>
      </trkpt>
      <trkpt lat="40.73262" lon="44.81626">
        <ele>1355.953835</ele>
        <time>2021-08-13T00:45:14.761Z</time>
      </trkpt>
      <trkpt lat="40.73315" lon="44.81674">
        <ele>1355.619483</ele>
        <time>2021-08-13T00:45:31.753Z</time>
      </trkpt>
      <trkpt lat="40.73413" lon="44.81781">
        <ele>1350.820964</ele>
        <time>2021-08-13T00:45:58.893Z</time>
      </trkpt>
      <trkpt lat="40.73441" lon="44.8179">
        <ele>1349.397379</ele>
        <time>2021-08-13T00:46:04.814Z</time>
      </trkpt>
      <trkpt lat="40.73485" lon="44.81795">
        <ele>1347.203862</ele>
        <time>2021-08-13T00:46:13.995Z</time>
      </trkpt>
      <trkpt lat="40.73515" lon="44.81816">
        <ele>1345.366703</ele>
        <time>2021-08-13T00:46:21.068Z</time>
      </trkpt>
      <trkpt lat="40.73556" lon="44.81889">
        <ele>1341.470694</ele>
        <time>2021-08-13T00:46:35.371Z</time>
      </trkpt>
      <trkpt lat="40.73565" lon="44.81921">
        <ele>1340.022162</ele>
        <time>2021-08-13T00:46:40.788Z</time>
      </trkpt>
      <trkpt lat="40.73587" lon="44.82003">
        <ele>1336.259599</ele>
        <time>2021-08-13T00:46:54.383Z</time>
      </trkpt>
      <trkpt lat="40.73599" lon="44.82029">
        <ele>1335.028136</ele>
        <time>2021-08-13T00:46:59.095Z</time>
      </trkpt>
      <trkpt lat="40.73613" lon="44.82046">
        <ele>1334.002051</ele>
        <time>2021-08-13T00:47:03.077Z</time>
      </trkpt>
      <trkpt lat="40.73653" lon="44.8206">
        <ele>1331.81219</ele>
        <time>2021-08-13T00:47:11.587Z</time>
      </trkpt>
      <trkpt lat="40.73686" lon="44.82066">
        <ele>1329.992127</ele>
        <time>2021-08-13T00:47:18.636Z</time>
      </trkpt>
      <trkpt lat="40.73746" lon="44.8208">
        <ele>1326.778082</ele>
        <time>2021-08-13T00:47:31.409Z</time>
      </trkpt>
      <trkpt lat="40.73817" lon="44.82104">
        <ele>1324.126153</ele>
        <time>2021-08-13T00:47:47.415Z</time>
      </trkpt>
      <trkpt lat="40.73864" lon="44.82141">
        <ele>1322.187704</ele>
        <time>2021-08-13T00:47:59.711Z</time>
      </trkpt>
      <trkpt lat="40.73887" lon="44.82165">
        <ele>1321.144647</ele>
        <time>2021-08-13T00:48:06.585Z</time>
      </trkpt>
      <trkpt lat="40.7394" lon="44.82252">
        <ele>1318.860879</ele>
        <time>2021-08-13T00:48:27.160Z</time>
      </trkpt>
      <trkpt lat="40.7396" lon="44.82297">
        <ele>1317.923172</ele>
        <time>2021-08-13T00:48:36.753Z</time>
      </trkpt>
      <trkpt lat="40.73974" lon="44.82334">
        <ele>1317.183219</ele>
        <time>2021-08-13T00:48:44.561Z</time>
      </trkpt>
      <trkpt lat="40.73994" lon="44.82447">
        <ele>1314.748514</ele>
        <time>2021-08-13T00:49:05.248Z</time>
      </trkpt>
      <trkpt lat="40.7401" lon="44.8258">
        <ele>1311.392349</ele>
        <time>2021-08-13T00:49:28.350Z</time>
      </trkpt>
      <trkpt lat="40.74025" lon="44.82668">
        <ele>1309.115352</ele>
        <time>2021-08-13T00:49:43.530Z</time>
      </trkpt>
      <trkpt lat="40.74035" lon="44.82729">
        <ele>1307.506874</ele>
        <time>2021-08-13T00:49:54.187Z</time>
      </trkpt>
      <trkpt lat="40.74045" lon="44.82781">
        <ele>1306.129241</ele>
        <time>2021-08-13T00:50:03.179Z</time>
      </trkpt>
      <trkpt lat="40.74052" lon="44.82829">
        <ele>1304.860371</ele>
        <time>2021-08-13T00:50:11.631Z</time>
      </trkpt>
      <trkpt lat="40.74058" lon="44.82874">
        <ele>1303.751211</ele>
        <time>2021-08-13T00:50:19.904Z</time>
      </trkpt>
      <trkpt lat="40.7406" lon="44.82933">
        <ele>1302.544156</ele>
        <time>2021-08-13T00:50:31.027Z</time>
      </trkpt>
      <trkpt lat="40.74059" lon="44.82951">
        <ele>1302.174948</ele>
        <time>2021-08-13T00:50:34.119Z</time>
      </trkpt>
      <trkpt lat="40.74084" lon="44.83126">
        <ele>1298.518113</ele>
        <time>2021-08-13T00:51:05.620Z</time>
      </trkpt>
      <trkpt lat="40.74086" lon="44.83153">
        <ele>1297.925329</ele>
        <time>2021-08-13T00:51:10.409Z</time>
      </trkpt>
      <trkpt lat="40.74088" lon="44.83354">
        <ele>1293.90334</ele>
        <time>2021-08-13T00:51:45.860Z</time>
      </trkpt>
      <trkpt lat="40.7409" lon="44.83387">
        <ele>1293.547569</ele>
        <time>2021-08-13T00:51:52.145Z</time>
      </trkpt>
      <trkpt lat="40.74095" lon="44.83437">
        <ele>1293.01233</ele>
        <time>2021-08-13T00:52:02.104Z</time>
      </trkpt>
      <trkpt lat="40.74103" lon="44.83489">
        <ele>1292.438585</ele>
        <time>2021-08-13T00:52:13.530Z</time>
      </trkpt>
      <trkpt lat="40.74112" lon="44.83556">
        <ele>1291.713144</ele>
        <time>2021-08-13T00:52:28.233Z</time>
      </trkpt>
      <trkpt lat="40.74114" lon="44.83594">
        <ele>1291.150993</ele>
        <time>2021-08-13T00:52:36.105Z</time>
      </trkpt>
      <trkpt lat="40.74115" lon="44.83626">
        <ele>1290.630316</ele>
        <time>2021-08-13T00:52:41.762Z</time>
      </trkpt>
      <trkpt lat="40.74127" lon="44.83667">
        <ele>1289.923987</ele>
        <time>2021-08-13T00:52:50.218Z</time>
      </trkpt>
      <trkpt lat="40.74135" lon="44.837">
        <ele>1289.354104</ele>
        <time>2021-08-13T00:52:57.064Z</time>
      </trkpt>
      <trkpt lat="40.74135" lon="44.83717">
        <ele>1289.075074</ele>
        <time>2021-08-13T00:52:59.918Z</time>
      </trkpt>
      <trkpt lat="40.74117" lon="44.83774">
        <ele>1288.074904</ele>
        <time>2021-08-13T00:53:11.220Z</time>
      </trkpt>
      <trkpt lat="40.74114" lon="44.83786">
        <ele>1287.861229</ele>
        <time>2021-08-13T00:53:13.484Z</time>
      </trkpt>
      <trkpt lat="40.74108" lon="44.83802">
        <ele>1287.486295</ele>
        <time>2021-08-13T00:53:16.347Z</time>
      </trkpt>
      <trkpt lat="40.74103" lon="44.83831">
        <ele>1286.715823</ele>
        <time>2021-08-13T00:53:21.685Z</time>
      </trkpt>
      <trkpt lat="40.74101" lon="44.83897">
        <ele>1285.006509</ele>
        <time>2021-08-13T00:53:32.528Z</time>
      </trkpt>
      <trkpt lat="40.74097" lon="44.84055">
        <ele>1281.082997</ele>
        <time>2021-08-13T00:53:59.727Z</time>
      </trkpt>
      <trkpt lat="40.74094" lon="44.84295">
        <ele>1276.410559</ele>
        <time>2021-08-13T00:54:43.286Z</time>
      </trkpt>
      <trkpt lat="40.74094" lon="44.84301">
        <ele>1276.28889</ele>
        <time>2021-08-13T00:54:44.430Z</time>
      </trkpt>
      <trkpt lat="40.74091" lon="44.84325">
        <ele>1275.831393</ele>
        <time>2021-08-13T00:54:48.736Z</time>
      </trkpt>
      <trkpt lat="40.74079" lon="44.84376">
        <ele>1274.823431</ele>
        <time>2021-08-13T00:54:58.235Z</time>
      </trkpt>
      <trkpt lat="40.74078" lon="44.8444">
        <ele>1273.591105</ele>
        <time>2021-08-13T00:55:09.880Z</time>
      </trkpt>
      <trkpt lat="40.74077" lon="44.84468">
        <ele>1273.071961</ele>
        <time>2021-08-13T00:55:14.821Z</time>
      </trkpt>
      <trkpt lat="40.74077" lon="44.84488">
        <ele>1272.693515</ele>
        <time>2021-08-13T00:55:18.377Z</time>
      </trkpt>
      <trkpt lat="40.74078" lon="44.84619">
        <ele>1270.541691</ele>
        <time>2021-08-13T00:55:42.484Z</time>
      </trkpt>
      <trkpt lat="40.74062" lon="44.84757">
        <ele>1268.330269</ele>
        <time>2021-08-13T00:56:08.638Z</time>
      </trkpt>
      <trkpt lat="40.74026" lon="44.85019">
        <ele>1264.338772</ele>
        <time>2021-08-13T00:56:59.042Z</time>
      </trkpt>
      <trkpt lat="40.74019" lon="44.85064">
        <ele>1263.526311</ele>
        <time>2021-08-13T00:57:07.876Z</time>
      </trkpt>
      <trkpt lat="40.74005" lon="44.85106">
        <ele>1262.711116</ele>
        <time>2021-08-13T00:57:16.402Z</time>
      </trkpt>
      <trkpt lat="40.73978" lon="44.85185">
        <ele>1261.183974</ele>
        <time>2021-08-13T00:57:31.690Z</time>
      </trkpt>
      <trkpt lat="40.73975" lon="44.85236">
        <ele>1259.886273</ele>
        <time>2021-08-13T00:57:40.614Z</time>
      </trkpt>
      <trkpt lat="40.73971" lon="44.85406">
        <ele>1255.293409</ele>
        <time>2021-08-13T00:58:09.407Z</time>
      </trkpt>
      <trkpt lat="40.73969" lon="44.85497">
        <ele>1252.848859</ele>
        <time>2021-08-13T00:58:24.439Z</time>
      </trkpt>
      <trkpt lat="40.73961" lon="44.85677">
        <ele>1248.083007</ele>
        <time>2021-08-13T00:58:55.568Z</time>
      </trkpt>
      <trkpt lat="40.73961" lon="44.85677">
        <ele>1248.083007</ele>
        <time>2021-08-13T00:58:55.616Z</time>
      </trkpt>
      <trkpt lat="40.73956" lon="44.85889">
        <ele>1243.730386</ele>
        <time>2021-08-13T00:59:33.491Z</time>
      </trkpt>
      <trkpt lat="40.7396" lon="44.8594">
        <ele>1242.954656</ele>
        <time>2021-08-13T00:59:43.332Z</time>
      </trkpt>
      <trkpt lat="40.73971" lon="44.85998">
        <ele>1242.235439</ele>
        <time>2021-08-13T00:59:54.754Z</time>
      </trkpt>
      <trkpt lat="40.74041" lon="44.86319">
        <ele>1238.760466</ele>
        <time>2021-08-13T01:01:00.666Z</time>
      </trkpt>
      <trkpt lat="40.74055" lon="44.8641">
        <ele>1238.730166</ele>
        <time>2021-08-13T01:01:19.526Z</time>
      </trkpt>
      <trkpt lat="40.74057" lon="44.86469">
        <ele>1239.262389</ele>
        <time>2021-08-13T01:01:36.665Z</time>
      </trkpt>
      <trkpt lat="40.74055" lon="44.86501">
        <ele>1239.556656</ele>
        <time>2021-08-13T01:01:47.244Z</time>
      </trkpt>
      <trkpt lat="40.74052" lon="44.86522">
        <ele>1239.752754</ele>
        <time>2021-08-13T01:01:53.792Z</time>
      </trkpt>
      <trkpt lat="40.74051" lon="44.8653">
        <ele>1239.822949</ele>
        <time>2021-08-13T01:01:55.735Z</time>
      </trkpt>
      <trkpt lat="40.74036" lon="44.86556">
        <ele>1240.115146</ele>
        <time>2021-08-13T01:02:05.514Z</time>
      </trkpt>
      <trkpt lat="40.74032" lon="44.86556">
        <ele>1240.161956</ele>
        <time>2021-08-13T01:02:07.320Z</time>
      </trkpt>
      <trkpt lat="40.74028" lon="44.86556">
        <ele>1240.208766</ele>
        <time>2021-08-13T01:02:08.342Z</time>
      </trkpt>
      <trkpt lat="40.74025" lon="44.86558">
        <ele>1240.256148</ele>
        <time>2021-08-13T01:02:09.876Z</time>
      </trkpt>
      <trkpt lat="40.74024" lon="44.86558">
        <ele>1240.269271</ele>
        <time>2021-08-13T01:02:10.504Z</time>
      </trkpt>
      <trkpt lat="40.74023" lon="44.86559">
        <ele>1240.282394</ele>
        <time>2021-08-13T01:02:11.334Z</time>
      </trkpt>
      <trkpt lat="40.74022" lon="44.86559">
        <ele>1240.294874</ele>
        <time>2021-08-13T01:02:12.179Z</time>
      </trkpt>
      <trkpt lat="40.73971" lon="44.86553">
        <ele>1242.099142</ele>
        <time>2021-08-13T01:02:36.324Z</time>
      </trkpt>
      <trkpt lat="40.73966" lon="44.86547">
        <ele>1242.432436</ele>
        <time>2021-08-13T01:02:39.207Z</time>
      </trkpt>
      <trkpt lat="40.73951" lon="44.86526">
        <ele>1243.401333</ele>
        <time>2021-08-13T01:02:50.392Z</time>
      </trkpt>
      <trkpt lat="40.73948" lon="44.86522">
        <ele>1243.588557</ele>
        <time>2021-08-13T01:02:52.547Z</time>
      </trkpt>
      <trkpt lat="40.73938" lon="44.86507">
        <ele>1244.27583</ele>
        <time>2021-08-13T01:03:01.515Z</time>
      </trkpt>
      <trkpt lat="40.73936" lon="44.86503">
        <ele>1244.45791</ele>
        <time>2021-08-13T01:03:02.990Z</time>
      </trkpt>
      <trkpt lat="40.73928" lon="44.86489">
        <ele>1245.066491</ele>
        <time>2021-08-13T01:03:12.434Z</time>
      </trkpt>
      <trkpt lat="40.73914" lon="44.86461">
        <ele>1246.228801</ele>
        <time>2021-08-13T01:03:28.233Z</time>
      </trkpt>
      <trkpt lat="40.73912" lon="44.86455">
        <ele>1246.475206</ele>
        <time>2021-08-13T01:03:33.317Z</time>
      </trkpt>
      <trkpt lat="40.73894" lon="44.86431">
        <ele>1247.606536</ele>
        <time>2021-08-13T01:03:49.365Z</time>
      </trkpt>
      <trkpt lat="40.73843" lon="44.86406">
        <ele>1250.553093</ele>
        <time>2021-08-13T01:04:22.138Z</time>
      </trkpt>
      <trkpt lat="40.7383" lon="44.86407">
        <ele>1251.30282</ele>
        <time>2021-08-13T01:04:30.122Z</time>
      </trkpt>
      <trkpt lat="40.7382" lon="44.8641">
        <ele>1251.953581</ele>
        <time>2021-08-13T01:04:35.306Z</time>
      </trkpt>
      <trkpt lat="40.73807" lon="44.86416">
        <ele>1252.784642</ele>
        <time>2021-08-13T01:04:44.555Z</time>
      </trkpt>
      <trkpt lat="40.73776" lon="44.86449">
        <ele>1255.150345</ele>
        <time>2021-08-13T01:05:10.827Z</time>
      </trkpt>
      <trkpt lat="40.73764" lon="44.86461">
        <ele>1256.067156</ele>
        <time>2021-08-13T01:05:21.170Z</time>
      </trkpt>
      <trkpt lat="40.73754" lon="44.86463">
        <ele>1256.682269</ele>
        <time>2021-08-13T01:05:27.547Z</time>
      </trkpt>
      <trkpt lat="40.73655" lon="44.86453">
        <ele>1262.63733</ele>
        <time>2021-08-13T01:06:34.316Z</time>
      </trkpt>
      <trkpt lat="40.73623" lon="44.86456">
        <ele>1264.605379</ele>
        <time>2021-08-13T01:06:54.743Z</time>
      </trkpt>
      <trkpt lat="40.73538" lon="44.86487">
        <ele>1270.013921</ele>
        <time>2021-08-13T01:07:51.632Z</time>
      </trkpt>
      <trkpt lat="40.73465" lon="44.86532">
        <ele>1274.855592</ele>
        <time>2021-08-13T01:08:44.989Z</time>
      </trkpt>
      <trkpt lat="40.73433" lon="44.86532">
        <ele>1276.771334</ele>
        <time>2021-08-13T01:09:05.214Z</time>
      </trkpt>
      <trkpt lat="40.73419" lon="44.86538">
        <ele>1277.688897</ele>
        <time>2021-08-13T01:09:14.346Z</time>
      </trkpt>
      <trkpt lat="40.73411" lon="44.86542">
        <ele>1278.170442</ele>
        <time>2021-08-13T01:09:19.563Z</time>
      </trkpt>
      <trkpt lat="40.73381" lon="44.86558">
        <ele>1280.173688</ele>
        <time>2021-08-13T01:09:39.910Z</time>
      </trkpt>
      <trkpt lat="40.73322" lon="44.86557">
        <ele>1284.235853</ele>
        <time>2021-08-13T01:10:18.867Z</time>
      </trkpt>
      <trkpt lat="40.73274" lon="44.86584">
        <ele>1288.035001</ele>
        <time>2021-08-13T01:10:57.404Z</time>
      </trkpt>
      <trkpt lat="40.7323" lon="44.86601">
        <ele>1291.391002</ele>
        <time>2021-08-13T01:11:31.679Z</time>
      </trkpt>
      <trkpt lat="40.73162" lon="44.86617">
        <ele>1296.565325</ele>
        <time>2021-08-13T01:12:23.766Z</time>
      </trkpt>
      <trkpt lat="40.7303" lon="44.86657">
        <ele>1306.721835</ele>
        <time>2021-08-13T01:14:06.373Z</time>
      </trkpt>
      <trkpt lat="40.72913" lon="44.86676">
        <ele>1313.308336</ele>
        <time>2021-08-13T01:15:20.245Z</time>
      </trkpt>
      <trkpt lat="40.72837" lon="44.86693">
        <ele>1317.369801</ele>
        <time>2021-08-13T01:16:03.432Z</time>
      </trkpt>
      <trkpt lat="40.72817" lon="44.86698">
        <ele>1318.25631</ele>
        <time>2021-08-13T01:16:15.348Z</time>
      </trkpt>
      <trkpt lat="40.72732" lon="44.86721">
        <ele>1321.751068</ele>
        <time>2021-08-13T01:17:01.158Z</time>
      </trkpt>
      <trkpt lat="40.72708" lon="44.8672">
        <ele>1322.746869</ele>
        <time>2021-08-13T01:17:14.587Z</time>
      </trkpt>
      <trkpt lat="40.72645" lon="44.8669">
        <ele>1325.433833</ele>
        <time>2021-08-13T01:17:50.048Z</time>
      </trkpt>
      <trkpt lat="40.72584" lon="44.86649">
        <ele>1327.986135</ele>
        <time>2021-08-13T01:18:25.682Z</time>
      </trkpt>
      <trkpt lat="40.72542" lon="44.86606">
        <ele>1329.973572</ele>
        <time>2021-08-13T01:18:52.934Z</time>
      </trkpt>
      <trkpt lat="40.72502" lon="44.86534">
        <ele>1332.587206</ele>
        <time>2021-08-13T01:19:28.314Z</time>
      </trkpt>
      <trkpt lat="40.7246" lon="44.86438">
        <ele>1335.900683</ele>
        <time>2021-08-13T01:20:12.304Z</time>
      </trkpt>
      <trkpt lat="40.72407" lon="44.86313">
        <ele>1340.103325</ele>
        <time>2021-08-13T01:21:12.860Z</time>
      </trkpt>
      <trkpt lat="40.72402" lon="44.86267">
        <ele>1341.391786</ele>
        <time>2021-08-13T01:21:30.692Z</time>
      </trkpt>
      <trkpt lat="40.72404" lon="44.86206">
        <ele>1343.071038</ele>
        <time>2021-08-13T01:21:54.230Z</time>
      </trkpt>
      <trkpt lat="40.72403" lon="44.86173">
        <ele>1343.999208</ele>
        <time>2021-08-13T01:22:06.567Z</time>
      </trkpt>
      <trkpt lat="40.72391" lon="44.86067">
        <ele>1346.972082</ele>
        <time>2021-08-13T01:22:47.891Z</time>
      </trkpt>
      <trkpt lat="40.72389" lon="44.86062">
        <ele>1347.119074</ele>
        <time>2021-08-13T01:22:49.192Z</time>
      </trkpt>
      <trkpt lat="40.72379" lon="44.86013">
        <ele>1348.529394</ele>
        <time>2021-08-13T01:23:08.036Z</time>
      </trkpt>
      <trkpt lat="40.7237" lon="44.8598">
        <ele>1349.480109</ele>
        <time>2021-08-13T01:23:20.423Z</time>
      </trkpt>
      <trkpt lat="40.72318" lon="44.85889">
        <ele>1353.180232</ele>
        <time>2021-08-13T01:24:07.585Z</time>
      </trkpt>
      <trkpt lat="40.72292" lon="44.85802">
        <ele>1357.393819</ele>
        <time>2021-08-13T01:24:53.962Z</time>
      </trkpt>
      <trkpt lat="40.72274" lon="44.8569">
        <ele>1362.618151</ele>
        <time>2021-08-13T01:25:53.036Z</time>
      </trkpt>
      <trkpt lat="40.72272" lon="44.85631">
        <ele>1365.674844</ele>
        <time>2021-08-13T01:26:24.468Z</time>
      </trkpt>
      <trkpt lat="40.72271" lon="44.8555">
        <ele>1369.874353</ele>
        <time>2021-08-13T01:27:08.511Z</time>
      </trkpt>
      <trkpt lat="40.72267" lon="44.85409">
        <ele>1376.982557</ele>
        <time>2021-08-13T01:28:22.037Z</time>
      </trkpt>
      <trkpt lat="40.72263" lon="44.85377">
        <ele>1378.465021</ele>
        <time>2021-08-13T01:28:38.124Z</time>
      </trkpt>
      <trkpt lat="40.72257" lon="44.85353">
        <ele>1379.654296</ele>
        <time>2021-08-13T01:28:50.493Z</time>
      </trkpt>
      <trkpt lat="40.72252" lon="44.85332">
        <ele>1380.678395</ele>
        <time>2021-08-13T01:29:01.586Z</time>
      </trkpt>
      <trkpt lat="40.72236" lon="44.85289">
        <ele>1382.88248</ele>
        <time>2021-08-13T01:29:24.744Z</time>
      </trkpt>
      <trkpt lat="40.72221" lon="44.85264">
        <ele>1384.357327</ele>
        <time>2021-08-13T01:29:40.140Z</time>
      </trkpt>
      <trkpt lat="40.72193" lon="44.85224">
        <ele>1386.888892</ele>
        <time>2021-08-13T01:30:06.649Z</time>
      </trkpt>
      <trkpt lat="40.7216" lon="44.85206">
        <ele>1389.167344</ele>
        <time>2021-08-13T01:30:29.459Z</time>
      </trkpt>
      <trkpt lat="40.72121" lon="44.85204">
        <ele>1391.600791</ele>
        <time>2021-08-13T01:30:53.646Z</time>
      </trkpt>
      <trkpt lat="40.71965" lon="44.85237">
        <ele>1401.421773</ele>
        <time>2021-08-13T01:32:44.020Z</time>
      </trkpt>
      <trkpt lat="40.71957" lon="44.85239">
        <ele>1401.868945</ele>
        <time>2021-08-13T01:32:49.158Z</time>
      </trkpt>
      <trkpt lat="40.71925" lon="44.85245">
        <ele>1403.820879</ele>
        <time>2021-08-13T01:33:10.771Z</time>
      </trkpt>
      <trkpt lat="40.71893" lon="44.85254">
        <ele>1405.798412</ele>
        <time>2021-08-13T01:33:31.606Z</time>
      </trkpt>
      <trkpt lat="40.7186" lon="44.85255">
        <ele>1407.799224</ele>
        <time>2021-08-13T01:33:52.030Z</time>
      </trkpt>
      <trkpt lat="40.7158" lon="44.85263">
        <ele>1418.952022</ele>
        <time>2021-08-13T01:36:17.285Z</time>
      </trkpt>
      <trkpt lat="40.71522" lon="44.8526">
        <ele>1421.299811</ele>
        <time>2021-08-13T01:36:48.729Z</time>
      </trkpt>
      <trkpt lat="40.71489" lon="44.8525">
        <ele>1422.729859</ele>
        <time>2021-08-13T01:37:07.209Z</time>
      </trkpt>
      <trkpt lat="40.71205" lon="44.8515">
        <ele>1438.499044</ele>
        <time>2021-08-13T01:40:06.228Z</time>
      </trkpt>
      <trkpt lat="40.7117" lon="44.85133">
        <ele>1440.641773</ele>
        <time>2021-08-13T01:40:31.538Z</time>
      </trkpt>
      <trkpt lat="40.71129" lon="44.85107">
        <ele>1443.132992</ele>
        <time>2021-08-13T01:41:02.172Z</time>
      </trkpt>
      <trkpt lat="40.71014" lon="44.8504">
        <ele>1449.839005</ele>
        <time>2021-08-13T01:42:21.226Z</time>
      </trkpt>
      <trkpt lat="40.70965" lon="44.85029">
        <ele>1452.158039</ele>
        <time>2021-08-13T01:42:46.846Z</time>
      </trkpt>
      <trkpt lat="40.70921" lon="44.8503">
        <ele>1453.705358</ele>
        <time>2021-08-13T01:43:08.891Z</time>
      </trkpt>
      <trkpt lat="40.70912" lon="44.85004">
        <ele>1454.478953</ele>
        <time>2021-08-13T01:43:19.090Z</time>
      </trkpt>
      <trkpt lat="40.70905" lon="44.84986">
        <ele>1455.030004</ele>
        <time>2021-08-13T01:43:27.268Z</time>
      </trkpt>
      <trkpt lat="40.70903" lon="44.84981">
        <ele>1455.176328</ele>
        <time>2021-08-13T01:43:28.533Z</time>
      </trkpt>
      <trkpt lat="40.70869" lon="44.84986">
        <ele>1456.393709</ele>
        <time>2021-08-13T01:43:45.740Z</time>
      </trkpt>
      <trkpt lat="40.70735" lon="44.85015">
        <ele>1463.162275</ele>
        <time>2021-08-13T01:45:01.316Z</time>
      </trkpt>
      <trkpt lat="40.70691" lon="44.85018">
        <ele>1465.600549</ele>
        <time>2021-08-13T01:45:33.100Z</time>
      </trkpt>
      <trkpt lat="40.70559" lon="44.8508">
        <ele>1474.778891</ele>
        <time>2021-08-13T01:47:17.132Z</time>
      </trkpt>
      <trkpt lat="40.7049" lon="44.85104">
        <ele>1479.70961</ele>
        <time>2021-08-13T01:48:07.400Z</time>
      </trkpt>
      <trkpt lat="40.70317" lon="44.85066">
        <ele>1489.491007</ele>
        <time>2021-08-13T01:49:56.721Z</time>
      </trkpt>
      <trkpt lat="40.70274" lon="44.85074">
        <ele>1492.091548</ele>
        <time>2021-08-13T01:50:23.075Z</time>
      </trkpt>
      <trkpt lat="40.70196" lon="44.85108">
        <ele>1497.252567</ele>
        <time>2021-08-13T01:51:17.128Z</time>
      </trkpt>
      <trkpt lat="40.70158" lon="44.85131">
        <ele>1499.840723</ele>
        <time>2021-08-13T01:51:46.323Z</time>
      </trkpt>
      <trkpt lat="40.70119" lon="44.85092">
        <ele>1503.724922</ele>
        <time>2021-08-13T01:52:21.827Z</time>
      </trkpt>
      <trkpt lat="40.70066" lon="44.85056">
        <ele>1509.481913</ele>
        <time>2021-08-13T01:53:10.715Z</time>
      </trkpt>
      <trkpt lat="40.70054" lon="44.85035">
        <ele>1511.437503</ele>
        <time>2021-08-13T01:53:30.681Z</time>
      </trkpt>
      <trkpt lat="40.70035" lon="44.85023">
        <ele>1513.422105</ele>
        <time>2021-08-13T01:53:49.080Z</time>
      </trkpt>
      <trkpt lat="40.70024" lon="44.85048">
        <ele>1515.576141</ele>
        <time>2021-08-13T01:54:13.251Z</time>
      </trkpt>
      <trkpt lat="40.69997" lon="44.85088">
        <ele>1519.395564</ele>
        <time>2021-08-13T01:54:51.361Z</time>
      </trkpt>
      <trkpt lat="40.69983" lon="44.85095">
        <ele>1520.532626</ele>
        <time>2021-08-13T01:55:03.034Z</time>
      </trkpt>
      <trkpt lat="40.69967" lon="44.85099">
        <ele>1521.81848</ele>
        <time>2021-08-13T01:55:19.617Z</time>
      </trkpt>
      <trkpt lat="40.69968" lon="44.85118">
        <ele>1522.999571</ele>
        <time>2021-08-13T01:55:30.278Z</time>
      </trkpt>
      <trkpt lat="40.69973" lon="44.85126">
        <ele>1523.586932</ele>
        <time>2021-08-13T01:55:37.134Z</time>
      </trkpt>
      <trkpt lat="40.70009" lon="44.85148">
        <ele>1526.734735</ele>
        <time>2021-08-13T01:56:08.371Z</time>
      </trkpt>
      <trkpt lat="40.70015" lon="44.85157">
        <ele>1527.412504</ele>
        <time>2021-08-13T01:56:16.777Z</time>
      </trkpt>
      <trkpt lat="40.6994" lon="44.85137">
        <ele>1533.095573</ele>
        <time>2021-08-13T01:57:08.142Z</time>
      </trkpt>
      <trkpt lat="40.69862" lon="44.85118">
        <ele>1535.246409</ele>
        <time>2021-08-13T01:57:40.520Z</time>
      </trkpt>
      <trkpt lat="40.697" lon="44.85114">
        <ele>1541.254044</ele>
        <time>2021-08-13T01:58:51.693Z</time>
      </trkpt>
      <trkpt lat="40.69686" lon="44.85115">
        <ele>1541.957314</ele>
        <time>2021-08-13T01:58:58.582Z</time>
      </trkpt>
      <trkpt lat="40.69679" lon="44.85117">
        <ele>1542.313854</ele>
        <time>2021-08-13T01:59:05.582Z</time>
      </trkpt>
      <trkpt lat="40.6966" lon="44.85122">
        <ele>1543.29018</ele>
        <time>2021-08-13T01:59:16.265Z</time>
      </trkpt>
      <trkpt lat="40.69619" lon="44.85144">
        <ele>1545.500255</ele>
        <time>2021-08-13T01:59:45.963Z</time>
      </trkpt>
      <trkpt lat="40.69594" lon="44.85177">
        <ele>1547.489113</ele>
        <time>2021-08-13T02:00:13.144Z</time>
      </trkpt>
      <trkpt lat="40.69519" lon="44.85344">
        <ele>1559.223921</ele>
        <time>2021-08-13T02:02:11.277Z</time>
      </trkpt>
      <trkpt lat="40.69508" lon="44.85368">
        <ele>1560.922781</ele>
        <time>2021-08-13T02:02:26.773Z</time>
      </trkpt>
      <trkpt lat="40.69472" lon="44.85428">
        <ele>1563.54665</ele>
        <time>2021-08-13T02:03:01.017Z</time>
      </trkpt>
      <trkpt lat="40.69472" lon="44.85434">
        <ele>1563.743384</ele>
        <time>2021-08-13T02:03:05.294Z</time>
      </trkpt>
      <trkpt lat="40.69473" lon="44.85439">
        <ele>1563.902775</ele>
        <time>2021-08-13T02:03:06.731Z</time>
      </trkpt>
      <trkpt lat="40.69485" lon="44.85448">
        <ele>1564.464093</ele>
        <time>2021-08-13T02:03:13.284Z</time>
      </trkpt>
      <trkpt lat="40.69495" lon="44.85442">
        <ele>1564.932114</ele>
        <time>2021-08-13T02:03:18.503Z</time>
      </trkpt>
      <trkpt lat="40.69531" lon="44.85393">
        <ele>1567.17023</ele>
        <time>2021-08-13T02:03:45.619Z</time>
      </trkpt>
      <trkpt lat="40.69562" lon="44.85362">
        <ele>1568.840448</ele>
        <time>2021-08-13T02:04:03.089Z</time>
      </trkpt>
      <trkpt lat="40.69592" lon="44.85346">
        <ele>1570.515935</ele>
        <time>2021-08-13T02:04:18.651Z</time>
      </trkpt>
      <trkpt lat="40.69623" lon="44.85334">
        <ele>1572.257374</ele>
        <time>2021-08-13T02:04:34.534Z</time>
      </trkpt>
      <trkpt lat="40.69695" lon="44.85309">
        <ele>1576.193731</ele>
        <time>2021-08-13T02:05:17.662Z</time>
      </trkpt>
      <trkpt lat="40.69779" lon="44.85277">
        <ele>1583.344143</ele>
        <time>2021-08-13T02:06:26.599Z</time>
      </trkpt>
      <trkpt lat="40.69808" lon="44.85274">
        <ele>1586.537833</ele>
        <time>2021-08-13T02:06:54.708Z</time>
      </trkpt>
      <trkpt lat="40.69919" lon="44.85282">
        <ele>1598.940247</ele>
        <time>2021-08-13T02:08:45.572Z</time>
      </trkpt>
      <trkpt lat="40.69945" lon="44.85292">
        <ele>1602.103233</ele>
        <time>2021-08-13T02:09:14.280Z</time>
      </trkpt>
      <trkpt lat="40.69993" lon="44.85317">
        <ele>1608.096459</ele>
        <time>2021-08-13T02:10:06.951Z</time>
      </trkpt>
      <trkpt lat="40.70048" lon="44.85356">
        <ele>1615.273907</ele>
        <time>2021-08-13T02:11:08.346Z</time>
      </trkpt>
      <trkpt lat="40.7014" lon="44.85412">
        <ele>1623.483699</ele>
        <time>2021-08-13T02:12:32.807Z</time>
      </trkpt>
      <trkpt lat="40.70153" lon="44.85426">
        <ele>1624.500754</ele>
        <time>2021-08-13T02:12:44.728Z</time>
      </trkpt>
      <trkpt lat="40.70154" lon="44.85442">
        <ele>1625.233555</ele>
        <time>2021-08-13T02:12:53.016Z</time>
      </trkpt>
      <trkpt lat="40.70145" lon="44.85451">
        <ele>1625.88444</ele>
        <time>2021-08-13T02:12:59.902Z</time>
      </trkpt>
      <trkpt lat="40.7013" lon="44.85454">
        <ele>1626.874842</ele>
        <time>2021-08-13T02:13:10.213Z</time>
      </trkpt>
      <trkpt lat="40.70059" lon="44.85406">
        <ele>1630.147104</ele>
        <time>2021-08-13T02:13:48.148Z</time>
      </trkpt>
      <trkpt lat="40.69975" lon="44.85364">
        <ele>1628.920193</ele>
        <time>2021-08-13T02:14:10.515Z</time>
      </trkpt>
      <trkpt lat="40.69905" lon="44.85355">
        <ele>1627.98876</ele>
        <time>2021-08-13T02:14:26.355Z</time>
      </trkpt>
      <trkpt lat="40.69845" lon="44.85363">
        <ele>1628.534446</ele>
        <time>2021-08-13T02:14:40.550Z</time>
      </trkpt>
      <trkpt lat="40.69809" lon="44.8538">
        <ele>1628.882683</ele>
        <time>2021-08-13T02:14:51.347Z</time>
      </trkpt>
      <trkpt lat="40.69793" lon="44.85395">
        <ele>1629.05454</ele>
        <time>2021-08-13T02:14:58.359Z</time>
      </trkpt>
      <trkpt lat="40.69776" lon="44.8542">
        <ele>1629.283428</ele>
        <time>2021-08-13T02:15:09.994Z</time>
      </trkpt>
      <trkpt lat="40.6976" lon="44.85462">
        <ele>1629.652759</ele>
        <time>2021-08-13T02:15:34.216Z</time>
      </trkpt>
      <trkpt lat="40.69734" lon="44.85563">
        <ele>1635.065102</ele>
        <time>2021-08-13T02:16:34.533Z</time>
      </trkpt>
      <trkpt lat="40.69712" lon="44.85593">
        <ele>1637.192517</ele>
        <time>2021-08-13T02:16:57.626Z</time>
      </trkpt>
      <trkpt lat="40.69692" lon="44.85598">
        <ele>1638.519028</ele>
        <time>2021-08-13T02:17:09.183Z</time>
      </trkpt>
      <trkpt lat="40.69673" lon="44.85598">
        <ele>1639.814958</ele>
        <time>2021-08-13T02:17:26.709Z</time>
      </trkpt>
      <trkpt lat="40.69653" lon="44.85592">
        <ele>1641.201017</ele>
        <time>2021-08-13T02:17:37.396Z</time>
      </trkpt>
      <trkpt lat="40.69602" lon="44.85557">
        <ele>1643.853464</ele>
        <time>2021-08-13T02:18:14.592Z</time>
      </trkpt>
      <trkpt lat="40.69579" lon="44.85564">
        <ele>1644.847881</ele>
        <time>2021-08-13T02:18:26.903Z</time>
      </trkpt>
      <trkpt lat="40.69555" lon="44.85586">
        <ele>1646.16583</ele>
        <time>2021-08-13T02:18:41.693Z</time>
      </trkpt>
      <trkpt lat="40.69477" lon="44.85691">
        <ele>1651.409449</ele>
        <time>2021-08-13T02:19:37.357Z</time>
      </trkpt>
      <trkpt lat="40.69368" lon="44.85783">
        <ele>1658.475713</ele>
        <time>2021-08-13T02:20:58.194Z</time>
      </trkpt>
      <trkpt lat="40.69353" lon="44.85809">
        <ele>1660.010039</ele>
        <time>2021-08-13T02:21:17.330Z</time>
      </trkpt>
      <trkpt lat="40.69334" lon="44.85876">
        <ele>1663.748458</ele>
        <time>2021-08-13T02:21:59.415Z</time>
      </trkpt>
      <trkpt lat="40.69324" lon="44.85893">
        <ele>1664.829052</ele>
        <time>2021-08-13T02:22:11.263Z</time>
      </trkpt>
      <trkpt lat="40.6931" lon="44.85898">
        <ele>1665.860082</ele>
        <time>2021-08-13T02:22:22.414Z</time>
      </trkpt>
      <trkpt lat="40.6927" lon="44.85892">
        <ele>1668.577811</ele>
        <time>2021-08-13T02:22:49.964Z</time>
      </trkpt>
      <trkpt lat="40.69239" lon="44.85901">
        <ele>1670.756275</ele>
        <time>2021-08-13T02:23:10.487Z</time>
      </trkpt>
      <trkpt lat="40.69161" lon="44.85955">
        <ele>1674.324215</ele>
        <time>2021-08-13T02:24:03.195Z</time>
      </trkpt>
      <trkpt lat="40.69065" lon="44.8601">
        <ele>1678.012197</ele>
        <time>2021-08-13T02:24:47.124Z</time>
      </trkpt>
      <trkpt lat="40.6901" lon="44.86034">
        <ele>1680.414657</ele>
        <time>2021-08-13T02:25:15.546Z</time>
      </trkpt>
      <trkpt lat="40.68948" lon="44.86046">
        <ele>1683.019306</ele>
        <time>2021-08-13T02:25:48.657Z</time>
      </trkpt>
      <trkpt lat="40.68935" lon="44.8606">
        <ele>1683.711812</ele>
        <time>2021-08-13T02:25:57.180Z</time>
      </trkpt>
      <trkpt lat="40.68937" lon="44.86072">
        <ele>1684.108835</ele>
        <time>2021-08-13T02:26:01.691Z</time>
      </trkpt>
      <trkpt lat="40.68941" lon="44.86076">
        <ele>1684.29589</ele>
        <time>2021-08-13T02:26:02.605Z</time>
      </trkpt>
      <trkpt lat="40.68946" lon="44.86077">
        <ele>1684.524958</ele>
        <time>2021-08-13T02:26:11.525Z</time>
      </trkpt>
      <trkpt lat="40.69049" lon="44.86049">
        <ele>1691.534747</ele>
        <time>2021-08-13T02:27:21.340Z</time>
      </trkpt>
      <trkpt lat="40.69156" lon="44.85999">
        <ele>1699.859955</ele>
        <time>2021-08-13T02:28:51.299Z</time>
      </trkpt>
      <trkpt lat="40.69252" lon="44.85964">
        <ele>1706.827048</ele>
        <time>2021-08-13T02:30:02.291Z</time>
      </trkpt>
      <trkpt lat="40.69298" lon="44.85956">
        <ele>1710.078454</ele>
        <time>2021-08-13T02:30:33.872Z</time>
      </trkpt>
      <trkpt lat="40.69319" lon="44.85967">
        <ele>1711.530068</ele>
        <time>2021-08-13T02:30:48.774Z</time>
      </trkpt>
      <trkpt lat="40.69322" lon="44.85982">
        <ele>1711.934672</ele>
        <time>2021-08-13T02:30:56.402Z</time>
      </trkpt>
      <trkpt lat="40.69317" lon="44.85989">
        <ele>1712.19591</ele>
        <time>2021-08-13T02:31:01.276Z</time>
      </trkpt>
      <trkpt lat="40.69284" lon="44.85987">
        <ele>1713.355089</ele>
        <time>2021-08-13T02:31:20.806Z</time>
      </trkpt>
      <trkpt lat="40.69257" lon="44.85995">
        <ele>1714.322349</ele>
        <time>2021-08-13T02:31:35.762Z</time>
      </trkpt>
      <trkpt lat="40.69183" lon="44.86048">
        <ele>1717.254364</ele>
        <time>2021-08-13T02:32:14.277Z</time>
      </trkpt>
      <trkpt lat="40.69061" lon="44.86097">
        <ele>1719.611009</ele>
        <time>2021-08-13T02:32:56.009Z</time>
      </trkpt>
      <trkpt lat="40.69015" lon="44.86121">
        <ele>1720.443995</ele>
        <time>2021-08-13T02:33:12.035Z</time>
      </trkpt>
      <trkpt lat="40.69006" lon="44.86146">
        <ele>1721.222297</ele>
        <time>2021-08-13T02:33:25.212Z</time>
      </trkpt>
      <trkpt lat="40.69007" lon="44.86191">
        <ele>1723.917549</ele>
        <time>2021-08-13T02:33:51.445Z</time>
      </trkpt>
      <trkpt lat="40.69035" lon="44.86279">
        <ele>1729.561326</ele>
        <time>2021-08-13T02:34:50.250Z</time>
      </trkpt>
      <trkpt lat="40.69036" lon="44.863">
        <ele>1730.764475</ele>
        <time>2021-08-13T02:35:01.157Z</time>
      </trkpt>
      <trkpt lat="40.6903" lon="44.86333">
        <ele>1732.763605</ele>
        <time>2021-08-13T02:35:23.818Z</time>
      </trkpt>
      <trkpt lat="40.69021" lon="44.86355">
        <ele>1734.258661</ele>
        <time>2021-08-13T02:35:38.011Z</time>
      </trkpt>
      <trkpt lat="40.69009" lon="44.86371">
        <ele>1735.513038</ele>
        <time>2021-08-13T02:35:52.755Z</time>
      </trkpt>
      <trkpt lat="40.68996" lon="44.86383">
        <ele>1736.773027</ele>
        <time>2021-08-13T02:36:04.655Z</time>
      </trkpt>
      <trkpt lat="40.68901" lon="44.86391">
        <ele>1744.039931</ele>
        <time>2021-08-13T02:37:23.838Z</time>
      </trkpt>
      <trkpt lat="40.68853" lon="44.8638">
        <ele>1747.738427</ele>
        <time>2021-08-13T02:37:52.375Z</time>
      </trkpt>
      <trkpt lat="40.68812" lon="44.86354">
        <ele>1751.002874</ele>
        <time>2021-08-13T02:38:16.574Z</time>
      </trkpt>
      <trkpt lat="40.68802" lon="44.86354">
        <ele>1751.678062</ele>
        <time>2021-08-13T02:38:22.401Z</time>
      </trkpt>
      <trkpt lat="40.68798" lon="44.86361">
        <ele>1752.155906</ele>
        <time>2021-08-13T02:38:26.731Z</time>
      </trkpt>
      <trkpt lat="40.68796" lon="44.86371">
        <ele>1752.690317</ele>
        <time>2021-08-13T02:38:31.803Z</time>
      </trkpt>
      <trkpt lat="40.68803" lon="44.86379">
        <ele>1753.365081</ele>
        <time>2021-08-13T02:38:38.352Z</time>
      </trkpt>
      <trkpt lat="40.68875" lon="44.86411">
        <ele>1758.640978</ele>
        <time>2021-08-13T02:39:37.121Z</time>
      </trkpt>
      <trkpt lat="40.68912" lon="44.86423">
        <ele>1761.312627</ele>
        <time>2021-08-13T02:40:08.223Z</time>
      </trkpt>
      <trkpt lat="40.69006" lon="44.86428">
        <ele>1766.925712</ele>
        <time>2021-08-13T02:41:15.953Z</time>
      </trkpt>
      <trkpt lat="40.69019" lon="44.86434">
        <ele>1767.737417</ele>
        <time>2021-08-13T02:41:24.264Z</time>
      </trkpt>
      <trkpt lat="40.69021" lon="44.86443">
        <ele>1768.160902</ele>
        <time>2021-08-13T02:41:28.786Z</time>
      </trkpt>
      <trkpt lat="40.6902" lon="44.86452">
        <ele>1768.572405</ele>
        <time>2021-08-13T02:41:33.186Z</time>
      </trkpt>
      <trkpt lat="40.69001" lon="44.86458">
        <ele>1769.727369</ele>
        <time>2021-08-13T02:41:44.400Z</time>
      </trkpt>
      <trkpt lat="40.68873" lon="44.86452">
        <ele>1775.621578</ele>
        <time>2021-08-13T02:42:43.499Z</time>
      </trkpt>
      <trkpt lat="40.68848" lon="44.86457">
        <ele>1776.672023</ele>
        <time>2021-08-13T02:42:53.749Z</time>
      </trkpt>
      <trkpt lat="40.68838" lon="44.86467">
        <ele>1777.193969</ele>
        <time>2021-08-13T02:42:59.672Z</time>
      </trkpt>
      <trkpt lat="40.68822" lon="44.86497">
        <ele>1778.320132</ele>
        <time>2021-08-13T02:43:13.429Z</time>
      </trkpt>
      <trkpt lat="40.68816" lon="44.86534">
        <ele>1779.99365</ele>
        <time>2021-08-13T02:43:38.321Z</time>
      </trkpt>
      <trkpt lat="40.68817" lon="44.86607">
        <ele>1785.121608</ele>
        <time>2021-08-13T02:44:27.221Z</time>
      </trkpt>
      <trkpt lat="40.68814" lon="44.86633">
        <ele>1786.933423</ele>
        <time>2021-08-13T02:44:46.591Z</time>
      </trkpt>
      <trkpt lat="40.68805" lon="44.86661">
        <ele>1789.064648</ele>
        <time>2021-08-13T02:45:10.183Z</time>
      </trkpt>
      <trkpt lat="40.68789" lon="44.8669">
        <ele>1791.545779</ele>
        <time>2021-08-13T02:45:28.531Z</time>
      </trkpt>
      <trkpt lat="40.68781" lon="44.86696">
        <ele>1792.416346</ele>
        <time>2021-08-13T02:45:42.310Z</time>
      </trkpt>
      <trkpt lat="40.68759" lon="44.86701">
        <ele>1794.479489</ele>
        <time>2021-08-13T02:45:56.452Z</time>
      </trkpt>
      <trkpt lat="40.68741" lon="44.86704">
        <ele>1795.943751</ele>
        <time>2021-08-13T02:46:15.173Z</time>
      </trkpt>
      <trkpt lat="40.68717" lon="44.86706">
        <ele>1796.986784</ele>
        <time>2021-08-13T02:46:29.508Z</time>
      </trkpt>
      <trkpt lat="40.68603" lon="44.86706">
        <ele>1801.966018</ele>
        <time>2021-08-13T02:47:38.396Z</time>
      </trkpt>
      <trkpt lat="40.68559" lon="44.86732">
        <ele>1803.765837</ele>
        <time>2021-08-13T02:47:51.162Z</time>
      </trkpt>
      <trkpt lat="40.68531" lon="44.86757">
        <ele>1804.225493</ele>
        <time>2021-08-13T02:48:00.758Z</time>
      </trkpt>
      <trkpt lat="40.68502" lon="44.86794">
        <ele>1804.775771</ele>
        <time>2021-08-13T02:48:14.269Z</time>
      </trkpt>
      <trkpt lat="40.6841" lon="44.86889">
        <ele>1806.97612</ele>
        <time>2021-08-13T02:49:04.723Z</time>
      </trkpt>
      <trkpt lat="40.68384" lon="44.86922">
        <ele>1808.440759</ele>
        <time>2021-08-13T02:49:23.809Z</time>
      </trkpt>
      <trkpt lat="40.68347" lon="44.87">
        <ele>1811.279647</ele>
        <time>2021-08-13T02:50:03.618Z</time>
      </trkpt>
      <trkpt lat="40.68336" lon="44.87012">
        <ele>1811.88469</ele>
        <time>2021-08-13T02:50:12.183Z</time>
      </trkpt>
      <trkpt lat="40.68247" lon="44.87059">
        <ele>1816.500984</ele>
        <time>2021-08-13T02:51:07.691Z</time>
      </trkpt>
      <trkpt lat="40.68224" lon="44.87077">
        <ele>1817.930237</ele>
        <time>2021-08-13T02:51:23.616Z</time>
      </trkpt>
      <trkpt lat="40.68212" lon="44.87096">
        <ele>1818.927838</ele>
        <time>2021-08-13T02:51:35.075Z</time>
      </trkpt>
      <trkpt lat="40.68201" lon="44.87132">
        <ele>1820.477298</ele>
        <time>2021-08-13T02:51:53.563Z</time>
      </trkpt>
      <trkpt lat="40.68201" lon="44.87157">
        <ele>1821.466846</ele>
        <time>2021-08-13T02:52:05.452Z</time>
      </trkpt>
      <trkpt lat="40.68213" lon="44.87251">
        <ele>1825.130264</ele>
        <time>2021-08-13T02:52:52.509Z</time>
      </trkpt>
      <trkpt lat="40.68212" lon="44.87288">
        <ele>1826.468922</ele>
        <time>2021-08-13T02:53:09.658Z</time>
      </trkpt>
      <trkpt lat="40.68207" lon="44.87299">
        <ele>1826.97354</ele>
        <time>2021-08-13T02:53:15.787Z</time>
      </trkpt>
      <trkpt lat="40.68189" lon="44.87311">
        <ele>1827.941108</ele>
        <time>2021-08-13T02:53:27.518Z</time>
      </trkpt>
      <trkpt lat="40.68124" lon="44.8729">
        <ele>1831.197997</ele>
        <time>2021-08-13T02:54:03.807Z</time>
      </trkpt>
      <trkpt lat="40.68109" lon="44.87294">
        <ele>1831.903156</ele>
        <time>2021-08-13T02:54:11.524Z</time>
      </trkpt>
      <trkpt lat="40.68097" lon="44.87304">
        <ele>1832.435675</ele>
        <time>2021-08-13T02:54:18.910Z</time>
      </trkpt>
      <trkpt lat="40.6807" lon="44.8734">
        <ele>1833.913423</ele>
        <time>2021-08-13T02:54:38.430Z</time>
      </trkpt>
      <trkpt lat="40.68019" lon="44.87433">
        <ele>1837.259573</ele>
        <time>2021-08-13T02:55:21.705Z</time>
      </trkpt>
      <trkpt lat="40.67971" lon="44.87505">
        <ele>1841.07442</ele>
        <time>2021-08-13T02:56:03.703Z</time>
      </trkpt>
      <trkpt lat="40.67927" lon="44.87582">
        <ele>1845.925775</ele>
        <time>2021-08-13T02:56:50.129Z</time>
      </trkpt>
      <trkpt lat="40.67908" lon="44.87623">
        <ele>1848.374918</ele>
        <time>2021-08-13T02:57:17.119Z</time>
      </trkpt>
      <trkpt lat="40.67836" lon="44.87754">
        <ele>1859.581001</ele>
        <time>2021-08-13T02:59:01.071Z</time>
      </trkpt>
      <trkpt lat="40.67823" lon="44.87778">
        <ele>1861.883213</ele>
        <time>2021-08-13T02:59:22.466Z</time>
      </trkpt>
      <trkpt lat="40.67801" lon="44.87816">
        <ele>1865.569086</ele>
        <time>2021-08-13T02:59:54.683Z</time>
      </trkpt>
      <trkpt lat="40.67789" lon="44.87835">
        <ele>1867.501031</ele>
        <time>2021-08-13T03:00:12.036Z</time>
      </trkpt>
      <trkpt lat="40.67762" lon="44.87876">
        <ele>1871.978506</ele>
        <time>2021-08-13T03:00:50.530Z</time>
      </trkpt>
      <trkpt lat="40.67625" lon="44.88069">
        <ele>1894.683439</ele>
        <time>2021-08-13T03:04:01.415Z</time>
      </trkpt>
      <trkpt lat="40.67576" lon="44.88118">
        <ele>1901.755636</ele>
        <time>2021-08-13T03:04:58.073Z</time>
      </trkpt>
      <trkpt lat="40.67554" lon="44.88132">
        <ele>1904.585453</ele>
        <time>2021-08-13T03:05:21.799Z</time>
      </trkpt>
      <trkpt lat="40.67396" lon="44.88236">
        <ele>1924.600983</ele>
        <time>2021-08-13T03:08:17.288Z</time>
      </trkpt>
      <trkpt lat="40.67377" lon="44.88253">
        <ele>1927.204722</ele>
        <time>2021-08-13T03:08:38.437Z</time>
      </trkpt>
      <trkpt lat="40.67328" lon="44.88295">
        <ele>1932.137499</ele>
        <time>2021-08-13T03:09:29.256Z</time>
      </trkpt>
      <trkpt lat="40.66968" lon="44.88532">
        <ele>1952.47326</ele>
        <time>2021-08-13T03:13:29.421Z</time>
      </trkpt>
      <trkpt lat="40.65389" lon="44.8921">
        <ele>2008.45211</ele>
        <time>2021-08-13T03:27:35.976Z</time>
      </trkpt>
      <trkpt lat="40.65346" lon="44.89226">
        <ele>2009.870774</ele>
        <time>2021-08-13T03:27:58.616Z</time>
      </trkpt>
      <trkpt lat="40.65309" lon="44.89241">
        <ele>2010.497763</ele>
        <time>2021-08-13T03:28:17.157Z</time>
      </trkpt>
      <trkpt lat="40.65295" lon="44.89249">
        <ele>2010.5344</ele>
        <time>2021-08-13T03:28:22.423Z</time>
      </trkpt>
      <trkpt lat="40.65286" lon="44.89256">
        <ele>2010.559269</ele>
        <time>2021-08-13T03:28:29.550Z</time>
      </trkpt>
      <trkpt lat="40.65265" lon="44.89287">
        <ele>2010.635083</ele>
        <time>2021-08-13T03:28:40.789Z</time>
      </trkpt>
      <trkpt lat="40.65257" lon="44.89311">
        <ele>2010.682616</ele>
        <time>2021-08-13T03:28:47.224Z</time>
      </trkpt>
      <trkpt lat="40.65245" lon="44.89381">
        <ele>2010.8141</ele>
        <time>2021-08-13T03:29:02.541Z</time>
      </trkpt>
      <trkpt lat="40.65238" lon="44.89434">
        <ele>2010.43888</ele>
        <time>2021-08-13T03:29:12.469Z</time>
      </trkpt>
      <trkpt lat="40.65231" lon="44.89489">
        <ele>2008.987687</ele>
        <time>2021-08-13T03:29:21.693Z</time>
      </trkpt>
      <trkpt lat="40.65226" lon="44.89536">
        <ele>2007.749053</ele>
        <time>2021-08-13T03:29:29.491Z</time>
      </trkpt>
      <trkpt lat="40.65222" lon="44.89569">
        <ele>2006.867082</ele>
        <time>2021-08-13T03:29:35.126Z</time>
      </trkpt>
      <trkpt lat="40.65215" lon="44.89627">
        <ele>2005.335897</ele>
        <time>2021-08-13T03:29:45.159Z</time>
      </trkpt>
      <trkpt lat="40.65208" lon="44.89685">
        <ele>2004.528925</ele>
        <time>2021-08-13T03:29:55.334Z</time>
      </trkpt>
      <trkpt lat="40.65203" lon="44.89733">
        <ele>2004.271693</ele>
        <time>2021-08-13T03:30:04.463Z</time>
      </trkpt>
      <trkpt lat="40.65199" lon="44.8977">
        <ele>2004.069148</ele>
        <time>2021-08-13T03:30:12.403Z</time>
      </trkpt>
      <trkpt lat="40.65196" lon="44.89784">
        <ele>2003.992325</ele>
        <time>2021-08-13T03:30:15.736Z</time>
      </trkpt>
      <trkpt lat="40.6519" lon="44.89814">
        <ele>2003.829054</ele>
        <time>2021-08-13T03:30:23.443Z</time>
      </trkpt>
      <trkpt lat="40.6516" lon="44.89927">
        <ele>2003.414463</ele>
        <time>2021-08-13T03:30:57.874Z</time>
      </trkpt>
      <trkpt lat="40.6512" lon="44.90042">
        <ele>2003.331794</ele>
        <time>2021-08-13T03:31:28.278Z</time>
      </trkpt>
      <trkpt lat="40.64868" lon="44.90585">
        <ele>1997.733787</ele>
        <time>2021-08-13T03:33:34.196Z</time>
      </trkpt>
      <trkpt lat="40.6485" lon="44.90662">
        <ele>1997.094753</ele>
        <time>2021-08-13T03:33:51.474Z</time>
      </trkpt>
      <trkpt lat="40.64833" lon="44.90963">
        <ele>1994.411074</ele>
        <time>2021-08-13T03:34:53.555Z</time>
      </trkpt>
      <trkpt lat="40.64808" lon="44.91087">
        <ele>1992.029073</ele>
        <time>2021-08-13T03:35:16.673Z</time>
      </trkpt>
      <trkpt lat="40.64783" lon="44.91137">
        <ele>1990.928385</ele>
        <time>2021-08-13T03:35:27.191Z</time>
      </trkpt>
      <trkpt lat="40.6472" lon="44.91207">
        <ele>1989.062911</ele>
        <time>2021-08-13T03:35:46.446Z</time>
      </trkpt>
      <trkpt lat="40.64558" lon="44.91335">
        <ele>1985.180617</ele>
        <time>2021-08-13T03:36:33.301Z</time>
      </trkpt>
      <trkpt lat="40.64526" lon="44.91361">
        <ele>1984.506438</ele>
        <time>2021-08-13T03:36:42.851Z</time>
      </trkpt>
      <trkpt lat="40.6449" lon="44.91393">
        <ele>1983.738195</ele>
        <time>2021-08-13T03:36:53.606Z</time>
      </trkpt>
      <trkpt lat="40.64439" lon="44.91449">
        <ele>1982.650819</ele>
        <time>2021-08-13T03:37:10.376Z</time>
      </trkpt>
      <trkpt lat="40.64373" lon="44.91533">
        <ele>1981.350387</ele>
        <time>2021-08-13T03:37:34.069Z</time>
      </trkpt>
      <trkpt lat="40.64325" lon="44.91605">
        <ele>1980.305532</ele>
        <time>2021-08-13T03:37:53.452Z</time>
      </trkpt>
      <trkpt lat="40.64295" lon="44.91671">
        <ele>1979.424555</ele>
        <time>2021-08-13T03:38:08.516Z</time>
      </trkpt>
      <trkpt lat="40.64228" lon="44.91882">
        <ele>1976.558977</ele>
        <time>2021-08-13T03:38:52.481Z</time>
      </trkpt>
      <trkpt lat="40.64186" lon="44.91971">
        <ele>1975.045037</ele>
        <time>2021-08-13T03:39:12.389Z</time>
      </trkpt>
      <trkpt lat="40.64116" lon="44.92065">
        <ele>1972.890629</ele>
        <time>2021-08-13T03:39:36.928Z</time>
      </trkpt>
      <trkpt lat="40.64003" lon="44.92195">
        <ele>1969.235585</ele>
        <time>2021-08-13T03:40:12.657Z</time>
      </trkpt>
      <trkpt lat="40.63878" lon="44.92435">
        <ele>1963.1737</ele>
        <time>2021-08-13T03:41:03.826Z</time>
      </trkpt>
      <trkpt lat="40.63856" lon="44.92467">
        <ele>1962.324374</ele>
        <time>2021-08-13T03:41:11.517Z</time>
      </trkpt>
      <trkpt lat="40.63726" lon="44.92618">
        <ele>1958.603164</ele>
        <time>2021-08-13T03:41:53.779Z</time>
      </trkpt>
      <trkpt lat="40.63646" lon="44.92711">
        <ele>1956.805878</ele>
        <time>2021-08-13T03:42:21.122Z</time>
      </trkpt>
      <trkpt lat="40.63627" lon="44.92734">
        <ele>1956.466234</ele>
        <time>2021-08-13T03:42:28.093Z</time>
      </trkpt>
      <trkpt lat="40.63604" lon="44.92766">
        <ele>1956.038948</ele>
        <time>2021-08-13T03:42:37.027Z</time>
      </trkpt>
      <trkpt lat="40.63568" lon="44.92834">
        <ele>1955.244676</ele>
        <time>2021-08-13T03:42:53.598Z</time>
      </trkpt>
      <trkpt lat="40.63423" lon="44.93199">
        <ele>1950.913527</ele>
        <time>2021-08-13T03:44:15.033Z</time>
      </trkpt>
      <trkpt lat="40.63381" lon="44.93292">
        <ele>1949.722539</ele>
        <time>2021-08-13T03:44:36.040Z</time>
      </trkpt>
      <trkpt lat="40.63339" lon="44.93356">
        <ele>1948.841545</ele>
        <time>2021-08-13T03:44:52.660Z</time>
      </trkpt>
      <trkpt lat="40.63211" lon="44.9352">
        <ele>1946.457396</ele>
        <time>2021-08-13T03:45:39.558Z</time>
      </trkpt>
      <trkpt lat="40.63054" lon="44.9372">
        <ele>1943.575998</ele>
        <time>2021-08-13T03:46:36.538Z</time>
      </trkpt>
      <trkpt lat="40.6299" lon="44.93808">
        <ele>1942.369234</ele>
        <time>2021-08-13T03:47:00.534Z</time>
      </trkpt>
      <trkpt lat="40.62937" lon="44.93881">
        <ele>1941.5186</ele>
        <time>2021-08-13T03:47:20.485Z</time>
      </trkpt>
      <trkpt lat="40.62878" lon="44.93965">
        <ele>1940.565461</ele>
        <time>2021-08-13T03:47:44.332Z</time>
      </trkpt>
      <trkpt lat="40.62805" lon="44.94069">
        <ele>1939.823824</ele>
        <time>2021-08-13T03:48:14.543Z</time>
      </trkpt>
      <trkpt lat="40.62721" lon="44.94187">
        <ele>1938.957201</ele>
        <time>2021-08-13T03:48:49.233Z</time>
      </trkpt>
      <trkpt lat="40.62679" lon="44.94247">
        <ele>1938.503588</ele>
        <time>2021-08-13T03:49:06.701Z</time>
      </trkpt>
      <trkpt lat="40.62668" lon="44.94263">
        <ele>1938.383903</ele>
        <time>2021-08-13T03:49:11.268Z</time>
      </trkpt>
      <trkpt lat="40.62627" lon="44.94323">
        <ele>1937.890561</ele>
        <time>2021-08-13T03:49:28.542Z</time>
      </trkpt>
      <trkpt lat="40.6232" lon="44.94834">
        <ele>1932.196595</ele>
        <time>2021-08-13T03:51:40.666Z</time>
      </trkpt>
      <trkpt lat="40.62298" lon="44.94869">
        <ele>1931.726947</ele>
        <time>2021-08-13T03:51:49.071Z</time>
      </trkpt>
      <trkpt lat="40.62289" lon="44.94884">
        <ele>1931.534132</ele>
        <time>2021-08-13T03:51:52.643Z</time>
      </trkpt>
      <trkpt lat="40.62286" lon="44.94908">
        <ele>1931.300755</ele>
        <time>2021-08-13T03:51:57.277Z</time>
      </trkpt>
      <trkpt lat="40.62235" lon="44.94988">
        <ele>1930.29764</ele>
        <time>2021-08-13T03:52:17.857Z</time>
      </trkpt>
      <trkpt lat="40.62215" lon="44.95008">
        <ele>1929.975308</ele>
        <time>2021-08-13T03:52:24.441Z</time>
      </trkpt>
      <trkpt lat="40.62206" lon="44.95023">
        <ele>1929.800242</ele>
        <time>2021-08-13T03:52:28.796Z</time>
      </trkpt>
      <trkpt lat="40.62201" lon="44.95038">
        <ele>1929.642544</ele>
        <time>2021-08-13T03:52:32.204Z</time>
      </trkpt>
      <trkpt lat="40.62211" lon="44.95055">
        <ele>1929.604093</ele>
        <time>2021-08-13T03:52:39.404Z</time>
      </trkpt>
      <trkpt lat="40.6223" lon="44.95097">
        <ele>1930.62103</ele>
        <time>2021-08-13T03:52:54.357Z</time>
      </trkpt>
      <trkpt lat="40.62285" lon="44.9516">
        <ele>1932.655263</ele>
        <time>2021-08-13T03:53:29.514Z</time>
      </trkpt>
      <trkpt lat="40.62301" lon="44.95175">
        <ele>1933.186971</ele>
        <time>2021-08-13T03:53:38.987Z</time>
      </trkpt>
      <trkpt lat="40.62303" lon="44.9518">
        <ele>1933.304258</ele>
        <time>2021-08-13T03:53:42.931Z</time>
      </trkpt>
      <trkpt lat="40.62366" lon="44.95251">
        <ele>1936.097236</ele>
        <time>2021-08-13T03:54:28.995Z</time>
      </trkpt>
      <trkpt lat="40.62379" lon="44.95269">
        <ele>1936.872932</ele>
        <time>2021-08-13T03:54:40.143Z</time>
      </trkpt>
      <trkpt lat="40.62383" lon="44.95282">
        <ele>1937.303735</ele>
        <time>2021-08-13T03:54:47.692Z</time>
      </trkpt>
      <trkpt lat="40.62441" lon="44.95383">
        <ele>1941.191053</ele>
        <time>2021-08-13T03:55:39.925Z</time>
      </trkpt>
      <trkpt lat="40.62463" lon="44.95422">
        <ele>1942.459823</ele>
        <time>2021-08-13T03:55:59.006Z</time>
      </trkpt>
      <trkpt lat="40.62472" lon="44.95439">
        <ele>1942.941722</ele>
        <time>2021-08-13T03:56:06.709Z</time>
      </trkpt>
      <trkpt lat="40.62522" lon="44.95515">
        <ele>1945.31144</ele>
        <time>2021-08-13T03:56:42.019Z</time>
      </trkpt>
      <trkpt lat="40.62522" lon="44.95523">
        <ele>1945.497598</ele>
        <time>2021-08-13T03:56:45.241Z</time>
      </trkpt>
      <trkpt lat="40.62555" lon="44.95532">
        <ele>1946.549214</ele>
        <time>2021-08-13T03:57:01.300Z</time>
      </trkpt>
      <trkpt lat="40.62551" lon="44.95587">
        <ele>1947.999126</ele>
        <time>2021-08-13T03:57:23.757Z</time>
      </trkpt>
      <trkpt lat="40.62577" lon="44.95706">
        <ele>1951.709816</ele>
        <time>2021-08-13T03:58:14.711Z</time>
      </trkpt>
      <trkpt lat="40.62607" lon="44.95732">
        <ele>1953.126039</ele>
        <time>2021-08-13T03:58:34.990Z</time>
      </trkpt>
      <trkpt lat="40.62626" lon="44.95761">
        <ele>1954.301126</ele>
        <time>2021-08-13T03:58:52.199Z</time>
      </trkpt>
      <trkpt lat="40.62682" lon="44.95793">
        <ele>1956.160641</ele>
        <time>2021-08-13T03:59:26.040Z</time>
      </trkpt>
      <trkpt lat="40.62757" lon="44.95808">
        <ele>1958.422332</ele>
        <time>2021-08-13T04:00:04.385Z</time>
      </trkpt>
      <trkpt lat="40.62752" lon="44.95816">
        <ele>1958.666311</ele>
        <time>2021-08-13T04:00:08.116Z</time>
      </trkpt>
      <trkpt lat="40.62745" lon="44.95904">
        <ele>1959.876537</ele>
        <time>2021-08-13T04:00:34.530Z</time>
      </trkpt>
      <trkpt lat="40.62744" lon="44.96008">
        <ele>1960.070695</ele>
        <time>2021-08-13T04:01:01.104Z</time>
      </trkpt>
      <trkpt lat="40.62745" lon="44.96032">
        <ele>1960.115053</ele>
        <time>2021-08-13T04:01:06.535Z</time>
      </trkpt>
      <trkpt lat="40.62743" lon="44.96057">
        <ele>1960.161339</ele>
        <time>2021-08-13T04:01:12.164Z</time>
      </trkpt>
      <trkpt lat="40.62743" lon="44.96089">
        <ele>1960.220848</ele>
        <time>2021-08-13T04:01:19.474Z</time>
      </trkpt>
      <trkpt lat="40.62757" lon="44.96107">
        <ele>1960.219309</ele>
        <time>2021-08-13T04:01:25.345Z</time>
      </trkpt>
      <trkpt lat="40.62763" lon="44.96124">
        <ele>1960.174191</ele>
        <time>2021-08-13T04:01:29.789Z</time>
      </trkpt>
      <trkpt lat="40.6277" lon="44.96285">
        <ele>1959.793055</ele>
        <time>2021-08-13T04:02:10.573Z</time>
      </trkpt>
      <trkpt lat="40.62846" lon="44.96299">
        <ele>1958.072638</ele>
        <time>2021-08-13T04:02:31.911Z</time>
      </trkpt>
      <trkpt lat="40.62854" lon="44.96303">
        <ele>1957.75168</ele>
        <time>2021-08-13T04:02:33.927Z</time>
      </trkpt>
      <trkpt lat="40.62857" lon="44.96318">
        <ele>1957.306102</ele>
        <time>2021-08-13T04:02:36.755Z</time>
      </trkpt>
      <trkpt lat="40.62859" lon="44.96327">
        <ele>1957.025801</ele>
        <time>2021-08-13T04:02:39.790Z</time>
      </trkpt>
      <trkpt lat="40.62839" lon="44.96337">
        <ele>1956.234928</ele>
        <time>2021-08-13T04:02:44.236Z</time>
      </trkpt>
      <trkpt lat="40.62814" lon="44.9635">
        <ele>1955.175114</ele>
        <time>2021-08-13T04:02:50.428Z</time>
      </trkpt>
      <trkpt lat="40.62791" lon="44.96361">
        <ele>1954.241308</ele>
        <time>2021-08-13T04:02:55.640Z</time>
      </trkpt>
      <trkpt lat="40.62782" lon="44.96366">
        <ele>1953.903532</ele>
        <time>2021-08-13T04:02:57.420Z</time>
      </trkpt>
      <trkpt lat="40.62768" lon="44.96372">
        <ele>1953.332472</ele>
        <time>2021-08-13T04:03:00.358Z</time>
      </trkpt>
      <trkpt lat="40.62748" lon="44.96384">
        <ele>1952.117263</ele>
        <time>2021-08-13T04:03:04.963Z</time>
      </trkpt>
      <trkpt lat="40.62729" lon="44.96396">
        <ele>1950.492796</ele>
        <time>2021-08-13T04:03:09.101Z</time>
      </trkpt>
      <trkpt lat="40.6272" lon="44.96402">
        <ele>1949.677073</ele>
        <time>2021-08-13T04:03:11.215Z</time>
      </trkpt>
      <trkpt lat="40.62701" lon="44.96414">
        <ele>1948.048226</ele>
        <time>2021-08-13T04:03:15.255Z</time>
      </trkpt>
      <trkpt lat="40.62678" lon="44.96431">
        <ele>1946.034912</ele>
        <time>2021-08-13T04:03:20.292Z</time>
      </trkpt>
      <trkpt lat="40.62664" lon="44.96441">
        <ele>1944.763544</ele>
        <time>2021-08-13T04:03:23.434Z</time>
      </trkpt>
      <trkpt lat="40.6264" lon="44.96458">
        <ele>1942.63957</ele>
        <time>2021-08-13T04:03:28.761Z</time>
      </trkpt>
      <trkpt lat="40.62625" lon="44.96468">
        <ele>1941.382003</ele>
        <time>2021-08-13T04:03:31.948Z</time>
      </trkpt>
      <trkpt lat="40.62587" lon="44.96494">
        <ele>1938.295435</ele>
        <time>2021-08-13T04:03:40.446Z</time>
      </trkpt>
      <trkpt lat="40.62572" lon="44.96505">
        <ele>1937.425817</ele>
        <time>2021-08-13T04:03:43.764Z</time>
      </trkpt>
      <trkpt lat="40.62566" lon="44.96509">
        <ele>1937.062165</ele>
        <time>2021-08-13T04:03:45.194Z</time>
      </trkpt>
      <trkpt lat="40.6253" lon="44.96531">
        <ele>1935.060495</ele>
        <time>2021-08-13T04:03:53.167Z</time>
      </trkpt>
      <trkpt lat="40.62494" lon="44.96559">
        <ele>1932.924096</ele>
        <time>2021-08-13T04:04:02.117Z</time>
      </trkpt>
      <trkpt lat="40.6248" lon="44.96572">
        <ele>1932.048077</ele>
        <time>2021-08-13T04:04:05.840Z</time>
      </trkpt>
      <trkpt lat="40.62514" lon="44.96634">
        <ele>1929.583193</ele>
        <time>2021-08-13T04:04:19.812Z</time>
      </trkpt>
      <trkpt lat="40.63062" lon="44.97571">
        <ele>1923.195546</ele>
        <time>2021-08-13T04:08:46.857Z</time>
      </trkpt>
      <trkpt lat="40.63074" lon="44.97596">
        <ele>1922.765237</ele>
        <time>2021-08-13T04:08:53.136Z</time>
      </trkpt>
      <trkpt lat="40.63063" lon="44.97609">
        <ele>1922.480403</ele>
        <time>2021-08-13T04:08:59.397Z</time>
      </trkpt>
      <trkpt lat="40.63045" lon="44.97634">
        <ele>1921.967929</ele>
        <time>2021-08-13T04:09:11.429Z</time>
      </trkpt>
      <trkpt lat="40.6304" lon="44.97652">
        <ele>1921.683216</ele>
        <time>2021-08-13T04:09:17.730Z</time>
      </trkpt>
      <trkpt lat="40.63076" lon="44.97714">
        <ele>1920.53938</ele>
        <time>2021-08-13T04:09:43.268Z</time>
      </trkpt>
      <trkpt lat="40.63084" lon="44.97731">
        <ele>1920.241802</ele>
        <time>2021-08-13T04:09:49.664Z</time>
      </trkpt>
      <trkpt lat="40.63088" lon="44.97758">
        <ele>1919.792328</ele>
        <time>2021-08-13T04:09:58.710Z</time>
      </trkpt>
      <trkpt lat="40.63117" lon="44.97791">
        <ele>1918.61701</ele>
        <time>2021-08-13T04:10:14.679Z</time>
      </trkpt>
      <trkpt lat="40.63134" lon="44.97819">
        <ele>1917.768901</ele>
        <time>2021-08-13T04:10:26.253Z</time>
      </trkpt>
      <trkpt lat="40.63162" lon="44.97885">
        <ele>1915.984897</ele>
        <time>2021-08-13T04:10:49.816Z</time>
      </trkpt>
      <trkpt lat="40.63157" lon="44.97909">
        <ele>1915.404743</ele>
        <time>2021-08-13T04:10:57.627Z</time>
      </trkpt>
      <trkpt lat="40.63095" lon="44.97941">
        <ele>1913.663019</ele>
        <time>2021-08-13T04:11:25.056Z</time>
      </trkpt>
      <trkpt lat="40.63087" lon="44.9796">
        <ele>1913.320505</ele>
        <time>2021-08-13T04:11:31.910Z</time>
      </trkpt>
      <trkpt lat="40.63088" lon="44.97987">
        <ele>1912.90704</ele>
        <time>2021-08-13T04:11:40.966Z</time>
      </trkpt>
      <trkpt lat="40.63089" lon="44.98014">
        <ele>1912.487373</ele>
        <time>2021-08-13T04:11:49.652Z</time>
      </trkpt>
      <trkpt lat="40.63133" lon="44.98101">
        <ele>1910.869905</ele>
        <time>2021-08-13T04:12:10.454Z</time>
      </trkpt>
      <trkpt lat="40.63164" lon="44.98166">
        <ele>1910.539596</ele>
        <time>2021-08-13T04:12:26.078Z</time>
      </trkpt>
      <trkpt lat="40.63187" lon="44.98223">
        <ele>1910.438364</ele>
        <time>2021-08-13T04:12:41.550Z</time>
      </trkpt>
      <trkpt lat="40.63201" lon="44.98268">
        <ele>1910.362215</ele>
        <time>2021-08-13T04:12:53.680Z</time>
      </trkpt>
      <trkpt lat="40.63217" lon="44.98334">
        <ele>1910.295101</ele>
        <time>2021-08-13T04:13:10.881Z</time>
      </trkpt>
      <trkpt lat="40.63238" lon="44.98493">
        <ele>1910.941416</ele>
        <time>2021-08-13T04:13:49.962Z</time>
      </trkpt>
      <trkpt lat="40.63244" lon="44.98536">
        <ele>1911.114393</ele>
        <time>2021-08-13T04:14:02.111Z</time>
      </trkpt>
      <trkpt lat="40.63255" lon="44.986">
        <ele>1911.782376</ele>
        <time>2021-08-13T04:14:21.500Z</time>
      </trkpt>
      <trkpt lat="40.63261" lon="44.98661">
        <ele>1912.625769</ele>
        <time>2021-08-13T04:14:41.277Z</time>
      </trkpt>
      <trkpt lat="40.63259" lon="44.98697">
        <ele>1913.119495</ele>
        <time>2021-08-13T04:14:52.884Z</time>
      </trkpt>
      <trkpt lat="40.63248" lon="44.98763">
        <ele>1914.060979</ele>
        <time>2021-08-13T04:15:15.395Z</time>
      </trkpt>
      <trkpt lat="40.63238" lon="44.98809">
        <ele>1914.647778</ele>
        <time>2021-08-13T04:15:30.971Z</time>
      </trkpt>
      <trkpt lat="40.63176" lon="44.99043">
        <ele>1916.858069</ele>
        <time>2021-08-13T04:16:43.855Z</time>
      </trkpt>
      <trkpt lat="40.63092" lon="44.9937">
        <ele>1916.217102</ele>
        <time>2021-08-13T04:17:59.955Z</time>
      </trkpt>
      <trkpt lat="40.63086" lon="44.99419">
        <ele>1916.049987</ele>
        <time>2021-08-13T04:18:10.774Z</time>
      </trkpt>
      <trkpt lat="40.63066" lon="44.99684">
        <ele>1915.149923</ele>
        <time>2021-08-13T04:19:10.072Z</time>
      </trkpt>
      <trkpt lat="40.63055" lon="44.99744">
        <ele>1914.756563</ele>
        <time>2021-08-13T04:19:23.352Z</time>
      </trkpt>
      <trkpt lat="40.63002" lon="44.99911">
        <ele>1913.291974</ele>
        <time>2021-08-13T04:19:59.360Z</time>
      </trkpt>
      <trkpt lat="40.62962" lon="44.99987">
        <ele>1913.095218</ele>
        <time>2021-08-13T04:20:19.060Z</time>
      </trkpt>
      <trkpt lat="40.62942" lon="45.00014">
        <ele>1913.060834</ele>
        <time>2021-08-13T04:20:27.328Z</time>
      </trkpt>
      <trkpt lat="40.62897" lon="45.00083">
        <ele>1912.97872</ele>
        <time>2021-08-13T04:20:49.462Z</time>
      </trkpt>
      <trkpt lat="40.62843" lon="45.00181">
        <ele>1913.52101</ele>
        <time>2021-08-13T04:21:22.534Z</time>
      </trkpt>
      <trkpt lat="40.62813" lon="45.00276">
        <ele>1914.184951</ele>
        <time>2021-08-13T04:21:52.616Z</time>
      </trkpt>
      <trkpt lat="40.62776" lon="45.00421">
        <ele>1914.797534</ele>
        <time>2021-08-13T04:22:31.298Z</time>
      </trkpt>
      <trkpt lat="40.62748" lon="45.00525">
        <ele>1915.1325</ele>
        <time>2021-08-13T04:22:58.923Z</time>
      </trkpt>
      <trkpt lat="40.62738" lon="45.00563">
        <ele>1915.281885</ele>
        <time>2021-08-13T04:23:08.943Z</time>
      </trkpt>
      <trkpt lat="40.62725" lon="45.0061">
        <ele>1915.500347</ele>
        <time>2021-08-13T04:23:21.575Z</time>
      </trkpt>
      <trkpt lat="40.62711" lon="45.00669">
        <ele>1915.774355</ele>
        <time>2021-08-13T04:23:37.709Z</time>
      </trkpt>
      <trkpt lat="40.62679" lon="45.00777">
        <ele>1916.298541</ele>
        <time>2021-08-13T04:24:08.044Z</time>
      </trkpt>
      <trkpt lat="40.62656" lon="45.00846">
        <ele>1916.737379</ele>
        <time>2021-08-13T04:24:29.872Z</time>
      </trkpt>
      <trkpt lat="40.62633" lon="45.009">
        <ele>1917.09325</ele>
        <time>2021-08-13T04:24:46.733Z</time>
      </trkpt>
      <trkpt lat="40.62609" lon="45.00952">
        <ele>1917.441317</ele>
        <time>2021-08-13T04:25:02.621Z</time>
      </trkpt>
      <trkpt lat="40.62582" lon="45.01004">
        <ele>1917.590796</ele>
        <time>2021-08-13T04:25:18.836Z</time>
      </trkpt>
      <trkpt lat="40.625" lon="45.01141">
        <ele>1917.562628</ele>
        <time>2021-08-13T04:25:59.850Z</time>
      </trkpt>
      <trkpt lat="40.62471" lon="45.01187">
        <ele>1917.690423</ele>
        <time>2021-08-13T04:26:11.971Z</time>
      </trkpt>
      <trkpt lat="40.62391" lon="45.01289">
        <ele>1918.277401</ele>
        <time>2021-08-13T04:26:49.241Z</time>
      </trkpt>
      <trkpt lat="40.62369" lon="45.01316">
        <ele>1918.43474</ele>
        <time>2021-08-13T04:27:01.078Z</time>
      </trkpt>
      <trkpt lat="40.62339" lon="45.01374">
        <ele>1919.030739</ele>
        <time>2021-08-13T04:27:23.350Z</time>
      </trkpt>
      <trkpt lat="40.62292" lon="45.01507">
        <ele>1920.481841</ele>
        <time>2021-08-13T04:28:07.167Z</time>
      </trkpt>
      <trkpt lat="40.62257" lon="45.01603">
        <ele>1920.667444</ele>
        <time>2021-08-13T04:28:35.204Z</time>
      </trkpt>
      <trkpt lat="40.62244" lon="45.01638">
        <ele>1920.570345</ele>
        <time>2021-08-13T04:28:43.817Z</time>
      </trkpt>
      <trkpt lat="40.62228" lon="45.01715">
        <ele>1920.365086</ele>
        <time>2021-08-13T04:29:00.181Z</time>
      </trkpt>
      <trkpt lat="40.62188" lon="45.0215">
        <ele>1918.372353</ele>
        <time>2021-08-13T04:30:32.564Z</time>
      </trkpt>
      <trkpt lat="40.62174" lon="45.02281">
        <ele>1918.2958</ele>
        <time>2021-08-13T04:31:05.333Z</time>
      </trkpt>
      <trkpt lat="40.62163" lon="45.02372">
        <ele>1918.612993</ele>
        <time>2021-08-13T04:31:29.570Z</time>
      </trkpt>
      <trkpt lat="40.62141" lon="45.02479">
        <ele>1918.957071</ele>
        <time>2021-08-13T04:31:58.658Z</time>
      </trkpt>
      <trkpt lat="40.62012" lon="45.02927">
        <ele>1919.277858</ele>
        <time>2021-08-13T04:33:53.165Z</time>
      </trkpt>
      <trkpt lat="40.61979" lon="45.03027">
        <ele>1919.248318</ele>
        <time>2021-08-13T04:34:19.230Z</time>
      </trkpt>
      <trkpt lat="40.61952" lon="45.03084">
        <ele>1919.229978</ele>
        <time>2021-08-13T04:34:34.579Z</time>
      </trkpt>
      <trkpt lat="40.6193" lon="45.03128">
        <ele>1919.241412</ele>
        <time>2021-08-13T04:34:46.862Z</time>
      </trkpt>
      <trkpt lat="40.61911" lon="45.03165">
        <ele>1919.328647</ele>
        <time>2021-08-13T04:34:57.477Z</time>
      </trkpt>
      <trkpt lat="40.61886" lon="45.03208">
        <ele>1919.436847</ele>
        <time>2021-08-13T04:35:10.542Z</time>
      </trkpt>
      <trkpt lat="40.6183" lon="45.033">
        <ele>1919.668308</ele>
        <time>2021-08-13T04:35:39.423Z</time>
      </trkpt>
      <trkpt lat="40.6151" lon="45.0379">
        <ele>1924.340558</ele>
        <time>2021-08-13T04:38:39.058Z</time>
      </trkpt>
      <trkpt lat="40.61488" lon="45.03827">
        <ele>1924.723432</ele>
        <time>2021-08-13T04:38:52.690Z</time>
      </trkpt>
      <trkpt lat="40.61472" lon="45.03863">
        <ele>1925.060859</ele>
        <time>2021-08-13T04:39:04.819Z</time>
      </trkpt>
      <trkpt lat="40.61457" lon="45.03907">
        <ele>1925.458102</ele>
        <time>2021-08-13T04:39:19.265Z</time>
      </trkpt>
      <trkpt lat="40.61399" lon="45.04093">
        <ele>1926.897044</ele>
        <time>2021-08-13T04:40:16.673Z</time>
      </trkpt>
      <trkpt lat="40.61278" lon="45.04477">
        <ele>1926.171754</ele>
        <time>2021-08-13T04:41:51.591Z</time>
      </trkpt>
      <trkpt lat="40.61241" lon="45.04583">
        <ele>1924.745245</ele>
        <time>2021-08-13T04:42:14.182Z</time>
      </trkpt>
      <trkpt lat="40.61218" lon="45.04669">
        <ele>1923.353783</ele>
        <time>2021-08-13T04:42:31.159Z</time>
      </trkpt>
      <trkpt lat="40.612" lon="45.04786">
        <ele>1921.118104</ele>
        <time>2021-08-13T04:42:52.461Z</time>
      </trkpt>
      <trkpt lat="40.61192" lon="45.04852">
        <ele>1919.628993</ele>
        <time>2021-08-13T04:43:04.151Z</time>
      </trkpt>
      <trkpt lat="40.61183" lon="45.04916">
        <ele>1918.19407</ele>
        <time>2021-08-13T04:43:15.420Z</time>
      </trkpt>
      <trkpt lat="40.61177" lon="45.04951">
        <ele>1917.397894</ele>
        <time>2021-08-13T04:43:21.638Z</time>
      </trkpt>
      <trkpt lat="40.61172" lon="45.04984">
        <ele>1916.754457</ele>
        <time>2021-08-13T04:43:27.477Z</time>
      </trkpt>
      <trkpt lat="40.61147" lon="45.05157">
        <ele>1913.611654</ele>
        <time>2021-08-13T04:43:59.183Z</time>
      </trkpt>
      <trkpt lat="40.61094" lon="45.05492">
        <ele>1910.778029</ele>
        <time>2021-08-13T04:45:09.331Z</time>
      </trkpt>
      <trkpt lat="40.61093" lon="45.05559">
        <ele>1910.666837</ele>
        <time>2021-08-13T04:45:23.989Z</time>
      </trkpt>
      <trkpt lat="40.61103" lon="45.05718">
        <ele>1911.267873</ele>
        <time>2021-08-13T04:46:04.750Z</time>
      </trkpt>
      <trkpt lat="40.61111" lon="45.05819">
        <ele>1912.607532</ele>
        <time>2021-08-13T04:46:36.676Z</time>
      </trkpt>
      <trkpt lat="40.6111" lon="45.05859">
        <ele>1913.132285</ele>
        <time>2021-08-13T04:46:50.334Z</time>
      </trkpt>
      <trkpt lat="40.61107" lon="45.05899">
        <ele>1913.680772</ele>
        <time>2021-08-13T04:47:04.431Z</time>
      </trkpt>
      <trkpt lat="40.61095" lon="45.05952">
        <ele>1914.672333</ele>
        <time>2021-08-13T04:47:24.337Z</time>
      </trkpt>
      <trkpt lat="40.6106" lon="45.06031">
        <ele>1916.348222</ele>
        <time>2021-08-13T04:47:57.710Z</time>
      </trkpt>
      <trkpt lat="40.6104" lon="45.06059">
        <ele>1917.040571</ele>
        <time>2021-08-13T04:48:10.291Z</time>
      </trkpt>
      <trkpt lat="40.61002" lon="45.06103">
        <ele>1917.993301</ele>
        <time>2021-08-13T04:48:31.552Z</time>
      </trkpt>
      <trkpt lat="40.60785" lon="45.06313">
        <ele>1917.876152</ele>
        <time>2021-08-13T04:49:58.746Z</time>
      </trkpt>
      <trkpt lat="40.60626" lon="45.06507">
        <ele>1913.575234</ele>
        <time>2021-08-13T04:50:50.076Z</time>
      </trkpt>
      <trkpt lat="40.60598" lon="45.06554">
        <ele>1912.454059</ele>
        <time>2021-08-13T04:51:00.883Z</time>
      </trkpt>
      <trkpt lat="40.60568" lon="45.0663">
        <ele>1911.426251</ele>
        <time>2021-08-13T04:51:16.402Z</time>
      </trkpt>
      <trkpt lat="40.60559" lon="45.06667">
        <ele>1910.953493</ele>
        <time>2021-08-13T04:51:23.761Z</time>
      </trkpt>
      <trkpt lat="40.60557" lon="45.06752">
        <ele>1909.922456</ele>
        <time>2021-08-13T04:51:40.421Z</time>
      </trkpt>
      <trkpt lat="40.60552" lon="45.06945">
        <ele>1910.831234</ele>
        <time>2021-08-13T04:52:30.716Z</time>
      </trkpt>
      <trkpt lat="40.60548" lon="45.07019">
        <ele>1911.410662</ele>
        <time>2021-08-13T04:52:54.869Z</time>
      </trkpt>
      <trkpt lat="40.60541" lon="45.07063">
        <ele>1912.113528</ele>
        <time>2021-08-13T04:53:10.174Z</time>
      </trkpt>
      <trkpt lat="40.60527" lon="45.07126">
        <ele>1913.129099</ele>
        <time>2021-08-13T04:53:32.509Z</time>
      </trkpt>
      <trkpt lat="40.60509" lon="45.07183">
        <ele>1914.096079</ele>
        <time>2021-08-13T04:53:54.257Z</time>
      </trkpt>
      <trkpt lat="40.60485" lon="45.07225">
        <ele>1914.903322</ele>
        <time>2021-08-13T04:54:10.954Z</time>
      </trkpt>
      <trkpt lat="40.60414" lon="45.0733">
        <ele>1914.643478</ele>
        <time>2021-08-13T04:54:44.875Z</time>
      </trkpt>
      <trkpt lat="40.60381" lon="45.07369">
        <ele>1914.522261</ele>
        <time>2021-08-13T04:54:57.180Z</time>
      </trkpt>
      <trkpt lat="40.60367" lon="45.07395">
        <ele>1914.457308</ele>
        <time>2021-08-13T04:55:03.150Z</time>
      </trkpt>
      <trkpt lat="40.60356" lon="45.07425">
        <ele>1914.087022</ele>
        <time>2021-08-13T04:55:09.588Z</time>
      </trkpt>
      <trkpt lat="40.60343" lon="45.07467">
        <ele>1913.445947</ele>
        <time>2021-08-13T04:55:18.176Z</time>
      </trkpt>
      <trkpt lat="40.60335" lon="45.07541">
        <ele>1912.413828</ele>
        <time>2021-08-13T04:55:31.670Z</time>
      </trkpt>
      <trkpt lat="40.6033" lon="45.07623">
        <ele>1911.266883</ele>
        <time>2021-08-13T04:55:47.143Z</time>
      </trkpt>
      <trkpt lat="40.60318" lon="45.07773">
        <ele>1910.898537</ele>
        <time>2021-08-13T04:56:19.500Z</time>
      </trkpt>
      <trkpt lat="40.60314" lon="45.07811">
        <ele>1910.83163</ele>
        <time>2021-08-13T04:56:29.130Z</time>
      </trkpt>
      <trkpt lat="40.60309" lon="45.07984">
        <ele>1911.614358</ele>
        <time>2021-08-13T04:57:16.934Z</time>
      </trkpt>
      <trkpt lat="40.60301" lon="45.08035">
        <ele>1912.011696</ele>
        <time>2021-08-13T04:57:32.138Z</time>
      </trkpt>
      <trkpt lat="40.60286" lon="45.081">
        <ele>1912.525381</ele>
        <time>2021-08-13T04:57:51.316Z</time>
      </trkpt>
      <trkpt lat="40.60254" lon="45.08233">
        <ele>1913.716823</ele>
        <time>2021-08-13T04:58:30.653Z</time>
      </trkpt>
      <trkpt lat="40.60237" lon="45.08263">
        <ele>1914.034489</ele>
        <time>2021-08-13T04:58:41.290Z</time>
      </trkpt>
      <trkpt lat="40.60103" lon="45.08433">
        <ele>1916.295391</ele>
        <time>2021-08-13T04:59:51.632Z</time>
      </trkpt>
      <trkpt lat="40.60043" lon="45.08502">
        <ele>1917.462783</ele>
        <time>2021-08-13T05:00:22.656Z</time>
      </trkpt>
      <trkpt lat="40.5995" lon="45.0866">
        <ele>1919.902998</ele>
        <time>2021-08-13T05:01:25.378Z</time>
      </trkpt>
      <trkpt lat="40.59893" lon="45.08757">
        <ele>1920.681078</ele>
        <time>2021-08-13T05:02:01.806Z</time>
      </trkpt>
      <trkpt lat="40.5987" lon="45.08814">
        <ele>1921.093201</ele>
        <time>2021-08-13T05:02:18.770Z</time>
      </trkpt>
      <trkpt lat="40.59865" lon="45.08827">
        <ele>1921.185077</ele>
        <time>2021-08-13T05:02:22.174Z</time>
      </trkpt>
      <trkpt lat="40.59834" lon="45.08926">
        <ele>1920.147453</ele>
        <time>2021-08-13T05:02:44.307Z</time>
      </trkpt>
      <trkpt lat="40.59815" lon="45.09011">
        <ele>1918.990925</ele>
        <time>2021-08-13T05:03:00.326Z</time>
      </trkpt>
      <trkpt lat="40.59792" lon="45.09154">
        <ele>1917.174747</ele>
        <time>2021-08-13T05:03:26.917Z</time>
      </trkpt>
      <trkpt lat="40.59776" lon="45.09252">
        <ele>1915.986782</ele>
        <time>2021-08-13T05:03:46.444Z</time>
      </trkpt>
      <trkpt lat="40.59761" lon="45.09351">
        <ele>1915.393458</ele>
        <time>2021-08-13T05:04:08.809Z</time>
      </trkpt>
      <trkpt lat="40.5975" lon="45.0942">
        <ele>1915.415292</ele>
        <time>2021-08-13T05:04:26.243Z</time>
      </trkpt>
      <trkpt lat="40.59729" lon="45.09502">
        <ele>1915.442417</ele>
        <time>2021-08-13T05:04:47.868Z</time>
      </trkpt>
      <trkpt lat="40.59386" lon="45.10261">
        <ele>1917.047507</ele>
        <time>2021-08-13T05:08:26.323Z</time>
      </trkpt>
      <trkpt lat="40.5928" lon="45.10403">
        <ele>1917.39143</ele>
        <time>2021-08-13T05:09:14.943Z</time>
      </trkpt>
      <trkpt lat="40.59159" lon="45.10571">
        <ele>1917.556504</ele>
        <time>2021-08-13T05:10:12.547Z</time>
      </trkpt>
      <trkpt lat="40.59068" lon="45.10691">
        <ele>1916.971559</ele>
        <time>2021-08-13T05:10:51.413Z</time>
      </trkpt>
      <trkpt lat="40.5899" lon="45.10799">
        <ele>1914.800301</ele>
        <time>2021-08-13T05:11:19.170Z</time>
      </trkpt>
      <trkpt lat="40.58949" lon="45.10887">
        <ele>1913.251613</ele>
        <time>2021-08-13T05:11:37.254Z</time>
      </trkpt>
      <trkpt lat="40.58894" lon="45.1099">
        <ele>1911.322087</ele>
        <time>2021-08-13T05:12:00.038Z</time>
      </trkpt>
      <trkpt lat="40.58846" lon="45.11099">
        <ele>1910.384592</ele>
        <time>2021-08-13T05:12:27.107Z</time>
      </trkpt>
      <trkpt lat="40.58815" lon="45.11166">
        <ele>1910.432912</ele>
        <time>2021-08-13T05:12:47.057Z</time>
      </trkpt>
      <trkpt lat="40.5874" lon="45.11329">
        <ele>1910.383002</ele>
        <time>2021-08-13T05:13:35.872Z</time>
      </trkpt>
      <trkpt lat="40.58597" lon="45.117">
        <ele>1909.427771</ele>
        <time>2021-08-13T05:15:06.177Z</time>
      </trkpt>
      <trkpt lat="40.58556" lon="45.11808">
        <ele>1909.737454</ele>
        <time>2021-08-13T05:15:36.154Z</time>
      </trkpt>
      <trkpt lat="40.58507" lon="45.11949">
        <ele>1910.638223</ele>
        <time>2021-08-13T05:16:19.675Z</time>
      </trkpt>
      <trkpt lat="40.58462" lon="45.12034">
        <ele>1911.582586</ele>
        <time>2021-08-13T05:16:50.100Z</time>
      </trkpt>
      <trkpt lat="40.58418" lon="45.12093">
        <ele>1912.295114</ele>
        <time>2021-08-13T05:17:14.378Z</time>
      </trkpt>
      <trkpt lat="40.58285" lon="45.12268">
        <ele>1914.162506</ele>
        <time>2021-08-13T05:18:23.296Z</time>
      </trkpt>
      <trkpt lat="40.58249" lon="45.12313">
        <ele>1914.595608</ele>
        <time>2021-08-13T05:18:40.925Z</time>
      </trkpt>
      <trkpt lat="40.58114" lon="45.12499">
        <ele>1916.029876</ele>
        <time>2021-08-13T05:19:51.062Z</time>
      </trkpt>
      <trkpt lat="40.58065" lon="45.12552">
        <ele>1916.398046</ele>
        <time>2021-08-13T05:20:12.887Z</time>
      </trkpt>
      <trkpt lat="40.57746" lon="45.1297">
        <ele>1915.309782</ele>
        <time>2021-08-13T05:22:27.418Z</time>
      </trkpt>
      <trkpt lat="40.57703" lon="45.13037">
        <ele>1914.870732</ele>
        <time>2021-08-13T05:22:45.466Z</time>
      </trkpt>
      <trkpt lat="40.57676" lon="45.13075">
        <ele>1914.607495</ele>
        <time>2021-08-13T05:22:56.353Z</time>
      </trkpt>
      <trkpt lat="40.5764" lon="45.13128">
        <ele>1914.464174</ele>
        <time>2021-08-13T05:23:11.255Z</time>
      </trkpt>
      <trkpt lat="40.57353" lon="45.13578">
        <ele>1913.734377</ele>
        <time>2021-08-13T05:25:28.337Z</time>
      </trkpt>
      <trkpt lat="40.5706" lon="45.14224">
        <ele>1913.986272</ele>
        <time>2021-08-13T05:28:26.452Z</time>
      </trkpt>
      <trkpt lat="40.57027" lon="45.14319">
        <ele>1914.760392</ele>
        <time>2021-08-13T05:28:55.872Z</time>
      </trkpt>
      <trkpt lat="40.56936" lon="45.14662">
        <ele>1918.104286</ele>
        <time>2021-08-13T05:30:42.948Z</time>
      </trkpt>
      <trkpt lat="40.56867" lon="45.14981">
        <ele>1919.30743</ele>
        <time>2021-08-13T05:32:11.895Z</time>
      </trkpt>
      <trkpt lat="40.56867" lon="45.14981">
        <ele>1919.30743</ele>
        <time>2021-08-13T05:32:11.929Z</time>
      </trkpt>
      <trkpt lat="40.56867" lon="45.14981">
        <ele>1919.30743</ele>
        <time>2021-08-13T05:32:12.236Z</time>
      </trkpt>
      <trkpt lat="40.5681" lon="45.15232">
        <ele>1917.352997</ele>
        <time>2021-08-13T05:33:04.583Z</time>
      </trkpt>
      <trkpt lat="40.56788" lon="45.15367">
        <ele>1915.693004</ele>
        <time>2021-08-13T05:33:30.929Z</time>
      </trkpt>
      <trkpt lat="40.56774" lon="45.1559">
        <ele>1912.700988</ele>
        <time>2021-08-13T05:34:13.444Z</time>
      </trkpt>
      <trkpt lat="40.56769" lon="45.15651">
        <ele>1912.190337</ele>
        <time>2021-08-13T05:34:25.390Z</time>
      </trkpt>
      <trkpt lat="40.56766" lon="45.15694">
        <ele>1911.910163</ele>
        <time>2021-08-13T05:34:33.947Z</time>
      </trkpt>
      <trkpt lat="40.56732" lon="45.16185">
        <ele>1910.312661</ele>
        <time>2021-08-13T05:36:23.183Z</time>
      </trkpt>
      <trkpt lat="40.56707" lon="45.16536">
        <ele>1911.393196</ele>
        <time>2021-08-13T05:37:54.897Z</time>
      </trkpt>
      <trkpt lat="40.56698" lon="45.16654">
        <ele>1911.463178</ele>
        <time>2021-08-13T05:38:27.712Z</time>
      </trkpt>
      <trkpt lat="40.56672" lon="45.17149">
        <ele>1912.512604</ele>
        <time>2021-08-13T05:40:21.016Z</time>
      </trkpt>
      <trkpt lat="40.56665" lon="45.1722">
        <ele>1913.077173</ele>
        <time>2021-08-13T05:40:45.668Z</time>
      </trkpt>
      <trkpt lat="40.56648" lon="45.17304">
        <ele>1913.690568</ele>
        <time>2021-08-13T05:41:15.190Z</time>
      </trkpt>
      <trkpt lat="40.56633" lon="45.1735">
        <ele>1914.013728</ele>
        <time>2021-08-13T05:41:32.648Z</time>
      </trkpt>
      <trkpt lat="40.56476" lon="45.17769">
        <ele>1913.926693</ele>
        <time>2021-08-13T05:43:16.651Z</time>
      </trkpt>
      <trkpt lat="40.56409" lon="45.17888">
        <ele>1913.565958</ele>
        <time>2021-08-13T05:43:48.635Z</time>
      </trkpt>
      <trkpt lat="40.56206" lon="45.1819">
        <ele>1915.770643</ele>
        <time>2021-08-13T05:45:39.684Z</time>
      </trkpt>
      <trkpt lat="40.56155" lon="45.18275">
        <ele>1916.242355</ele>
        <time>2021-08-13T05:46:07.216Z</time>
      </trkpt>
      <trkpt lat="40.56079" lon="45.18416">
        <ele>1916.665208</ele>
        <time>2021-08-13T05:46:49.049Z</time>
      </trkpt>
      <trkpt lat="40.55895" lon="45.18768">
        <ele>1918.686134</ele>
        <time>2021-08-13T05:48:44.286Z</time>
      </trkpt>
      <trkpt lat="40.55838" lon="45.18881">
        <ele>1918.884316</ele>
        <time>2021-08-13T05:49:16.265Z</time>
      </trkpt>
      <trkpt lat="40.55788" lon="45.18992">
        <ele>1918.749731</ele>
        <time>2021-08-13T05:49:45.158Z</time>
      </trkpt>
      <trkpt lat="40.55599" lon="45.19404">
        <ele>1918.050486</ele>
        <time>2021-08-13T05:51:38.064Z</time>
      </trkpt>
      <trkpt lat="40.55527" lon="45.19573">
        <ele>1916.132621</ele>
        <time>2021-08-13T05:52:16.120Z</time>
      </trkpt>
      <trkpt lat="40.55497" lon="45.19638">
        <ele>1915.291028</ele>
        <time>2021-08-13T05:52:30.003Z</time>
      </trkpt>
      <trkpt lat="40.55441" lon="45.19779">
        <ele>1914.678991</ele>
        <time>2021-08-13T05:53:02.997Z</time>
      </trkpt>
      <trkpt lat="40.55396" lon="45.19901">
        <ele>1914.946946</ele>
        <time>2021-08-13T05:53:39.166Z</time>
      </trkpt>
      <trkpt lat="40.55317" lon="45.20095">
        <ele>1916.851522</ele>
        <time>2021-08-13T05:54:45.880Z</time>
      </trkpt>
      <trkpt lat="40.55302" lon="45.20124">
        <ele>1917.046267</ele>
        <time>2021-08-13T05:54:55.250Z</time>
      </trkpt>
      <trkpt lat="40.55171" lon="45.20365">
        <ele>1918.691208</ele>
        <time>2021-08-13T05:56:10.934Z</time>
      </trkpt>
      <trkpt lat="40.55042" lon="45.20565">
        <ele>1920.326686</ele>
        <time>2021-08-13T05:57:25.485Z</time>
      </trkpt>
      <trkpt lat="40.5503" lon="45.20578">
        <ele>1920.463777</ele>
        <time>2021-08-13T05:57:31.433Z</time>
      </trkpt>
      <trkpt lat="40.54852" lon="45.20775">
        <ele>1921.37198</ele>
        <time>2021-08-13T05:58:46.529Z</time>
      </trkpt>
      <trkpt lat="40.5478" lon="45.20857">
        <ele>1921.733154</ele>
        <time>2021-08-13T05:59:19.243Z</time>
      </trkpt>
      <trkpt lat="40.54784" lon="45.20889">
        <ele>1921.826258</ele>
        <time>2021-08-13T05:59:28.691Z</time>
      </trkpt>
      <trkpt lat="40.54724" lon="45.20991">
        <ele>1921.479534</ele>
        <time>2021-08-13T06:00:00.522Z</time>
      </trkpt>
      <trkpt lat="40.54705" lon="45.21004">
        <ele>1921.262413</ele>
        <time>2021-08-13T06:00:06.690Z</time>
      </trkpt>
      <trkpt lat="40.54677" lon="45.21007">
        <ele>1920.963347</ele>
        <time>2021-08-13T06:00:15.167Z</time>
      </trkpt>
      <trkpt lat="40.54661" lon="45.2099">
        <ele>1920.751802</ele>
        <time>2021-08-13T06:00:20.412Z</time>
      </trkpt>
      <trkpt lat="40.54644" lon="45.21009">
        <ele>1920.522065</ele>
        <time>2021-08-13T06:00:26.031Z</time>
      </trkpt>
      <trkpt lat="40.54602" lon="45.21059">
        <ele>1919.862345</ele>
        <time>2021-08-13T06:00:39.662Z</time>
      </trkpt>
      <trkpt lat="40.54569" lon="45.2111">
        <ele>1919.14876</ele>
        <time>2021-08-13T06:00:52.254Z</time>
      </trkpt>
      <trkpt lat="40.54526" lon="45.21183">
        <ele>1918.160995</ele>
        <time>2021-08-13T06:01:10.261Z</time>
      </trkpt>
      <trkpt lat="40.54512" lon="45.2121">
        <ele>1917.808096</ele>
        <time>2021-08-13T06:01:17.202Z</time>
      </trkpt>
      <trkpt lat="40.54497" lon="45.21238">
        <ele>1917.693746</ele>
        <time>2021-08-13T06:01:25.021Z</time>
      </trkpt>
      <trkpt lat="40.54478" lon="45.21275">
        <ele>1917.944703</ele>
        <time>2021-08-13T06:01:35.573Z</time>
      </trkpt>
      <trkpt lat="40.5447" lon="45.21292">
        <ele>1918.06167</ele>
        <time>2021-08-13T06:01:40.515Z</time>
      </trkpt>
      <trkpt lat="40.54425" lon="45.21378">
        <ele>1918.654693</ele>
        <time>2021-08-13T06:02:10.299Z</time>
      </trkpt>
      <trkpt lat="40.54377" lon="45.21457">
        <ele>1919.398574</ele>
        <time>2021-08-13T06:02:40.974Z</time>
      </trkpt>
      <trkpt lat="40.5432" lon="45.21515">
        <ele>1920.271279</ele>
        <time>2021-08-13T06:03:09.330Z</time>
      </trkpt>
      <trkpt lat="40.54097" lon="45.21658">
        <ele>1922.154617</ele>
        <time>2021-08-13T06:04:37.241Z</time>
      </trkpt>
      <trkpt lat="40.53914" lon="45.21765">
        <ele>1921.16966</ele>
        <time>2021-08-13T06:05:33.430Z</time>
      </trkpt>
      <trkpt lat="40.53874" lon="45.21788">
        <ele>1921.007715</ele>
        <time>2021-08-13T06:05:45.536Z</time>
      </trkpt>
      <trkpt lat="40.53647" lon="45.21925">
        <ele>1920.476025</ele>
        <time>2021-08-13T06:07:00.841Z</time>
      </trkpt>
      <trkpt lat="40.53469" lon="45.2204">
        <ele>1920.648259</ele>
        <time>2021-08-13T06:08:05.663Z</time>
      </trkpt>
      <trkpt lat="40.53428" lon="45.22073">
        <ele>1920.575969</ele>
        <time>2021-08-13T06:08:20.228Z</time>
      </trkpt>
      <trkpt lat="40.53409" lon="45.22091">
        <ele>1920.432562</ele>
        <time>2021-08-13T06:08:27.157Z</time>
      </trkpt>
      <trkpt lat="40.53269" lon="45.22206">
        <ele>1919.537243</ele>
        <time>2021-08-13T06:09:12.871Z</time>
      </trkpt>
      <trkpt lat="40.53237" lon="45.22251">
        <ele>1919.489539</ele>
        <time>2021-08-13T06:09:25.172Z</time>
      </trkpt>
      <trkpt lat="40.53004" lon="45.22842">
        <ele>1919.418311</ele>
        <time>2021-08-13T06:12:06.595Z</time>
      </trkpt>
      <trkpt lat="40.52945" lon="45.2299">
        <ele>1919.365217</ele>
        <time>2021-08-13T06:12:46.557Z</time>
      </trkpt>
      <trkpt lat="40.52781" lon="45.23408">
        <ele>1917.888929</ele>
        <time>2021-08-13T06:14:30.003Z</time>
      </trkpt>
      <trkpt lat="40.52492" lon="45.24145">
        <ele>1916.970802</ele>
        <time>2021-08-13T06:17:41.315Z</time>
      </trkpt>
      <trkpt lat="40.52421" lon="45.2428">
        <ele>1917.290771</ele>
        <time>2021-08-13T06:18:20.414Z</time>
      </trkpt>
      <trkpt lat="40.52312" lon="45.24409">
        <ele>1919.11849</ele>
        <time>2021-08-13T06:19:15.998Z</time>
      </trkpt>
      <trkpt lat="40.52286" lon="45.24438">
        <ele>1919.996163</ele>
        <time>2021-08-13T06:19:31.196Z</time>
      </trkpt>
      <trkpt lat="40.52304" lon="45.24471">
        <ele>1921.034639</ele>
        <time>2021-08-13T06:19:46.282Z</time>
      </trkpt>
      <trkpt lat="40.52317" lon="45.24499">
        <ele>1921.892063</ele>
        <time>2021-08-13T06:19:58.961Z</time>
      </trkpt>
      <trkpt lat="40.52317" lon="45.24514">
        <ele>1922.283179</ele>
        <time>2021-08-13T06:20:04.971Z</time>
      </trkpt>
      <trkpt lat="40.52311" lon="45.2453">
        <ele>1922.753323</ele>
        <time>2021-08-13T06:20:12.121Z</time>
      </trkpt>
      <trkpt lat="40.52233" lon="45.24615">
        <ele>1926.345494</ele>
        <time>2021-08-13T06:21:09.153Z</time>
      </trkpt>
      <trkpt lat="40.52207" lon="45.24657">
        <ele>1928.034051</ele>
        <time>2021-08-13T06:21:32.058Z</time>
      </trkpt>
      <trkpt lat="40.5219" lon="45.24703">
        <ele>1929.605317</ele>
        <time>2021-08-13T06:21:53.678Z</time>
      </trkpt>
      <trkpt lat="40.52158" lon="45.2486">
        <ele>1934.318629</ele>
        <time>2021-08-13T06:23:01.884Z</time>
      </trkpt>
      <trkpt lat="40.52091" lon="45.25022">
        <ele>1938.878021</ele>
        <time>2021-08-13T06:24:11.680Z</time>
      </trkpt>
      <trkpt lat="40.52037" lon="45.25181">
        <ele>1942.051592</ele>
        <time>2021-08-13T06:25:11.539Z</time>
      </trkpt>
      <trkpt lat="40.52023" lon="45.2532">
        <ele>1944.93176</ele>
        <time>2021-08-13T06:25:59.589Z</time>
      </trkpt>
      <trkpt lat="40.5199" lon="45.25457">
        <ele>1948.07397</ele>
        <time>2021-08-13T06:26:53.601Z</time>
      </trkpt>
      <trkpt lat="40.51975" lon="45.2559">
        <ele>1952.564527</ele>
        <time>2021-08-13T06:27:50.300Z</time>
      </trkpt>
      <trkpt lat="40.51939" lon="45.25797">
        <ele>1960.674848</ele>
        <time>2021-08-13T06:29:29.614Z</time>
      </trkpt>
      <trkpt lat="40.51932" lon="45.25972">
        <ele>1968.163354</ele>
        <time>2021-08-13T06:30:57.610Z</time>
      </trkpt>
      <trkpt lat="40.51927" lon="45.26027">
        <ele>1970.577244</ele>
        <time>2021-08-13T06:31:24.804Z</time>
      </trkpt>
      <trkpt lat="40.51908" lon="45.2608">
        <ele>1973.103139</ele>
        <time>2021-08-13T06:31:53.537Z</time>
      </trkpt>
      <trkpt lat="40.51866" lon="45.26198">
        <ele>1978.609498</ele>
        <time>2021-08-13T06:32:56.218Z</time>
      </trkpt>
      <trkpt lat="40.51738" lon="45.26501">
        <ele>1992.121569</ele>
        <time>2021-08-13T06:35:40.765Z</time>
      </trkpt>
      <trkpt lat="40.51639" lon="45.26708">
        <ele>1999.491034</ele>
        <time>2021-08-13T06:37:22.167Z</time>
      </trkpt>
      <trkpt lat="40.516" lon="45.26753">
        <ele>2001.314057</ele>
        <time>2021-08-13T06:37:47.451Z</time>
      </trkpt>
      <trkpt lat="40.51517" lon="45.26804">
        <ele>2002.473434</ele>
        <time>2021-08-13T06:38:28.617Z</time>
      </trkpt>
      <trkpt lat="40.51445" lon="45.26836">
        <ele>2003.42474</ele>
        <time>2021-08-13T06:38:56.880Z</time>
      </trkpt>
      <trkpt lat="40.51265" lon="45.26811">
        <ele>1999.605936</ele>
        <time>2021-08-13T06:39:41.886Z</time>
      </trkpt>
      <trkpt lat="40.51115" lon="45.26801">
        <ele>1990.615152</ele>
        <time>2021-08-13T06:40:12.371Z</time>
      </trkpt>
      <trkpt lat="40.5107" lon="45.26804">
        <ele>1987.766794</ele>
        <time>2021-08-13T06:40:21.164Z</time>
      </trkpt>
      <trkpt lat="40.51039" lon="45.26815">
        <ele>1985.490154</ele>
        <time>2021-08-13T06:40:27.379Z</time>
      </trkpt>
      <trkpt lat="40.50703" lon="45.27067">
        <ele>1958.298047</ele>
        <time>2021-08-13T06:41:44.743Z</time>
      </trkpt>
      <trkpt lat="40.50652" lon="45.271">
        <ele>1954.683468</ele>
        <time>2021-08-13T06:41:56.339Z</time>
      </trkpt>
      <trkpt lat="40.50455" lon="45.27184">
        <ele>1943.42559</ele>
        <time>2021-08-13T06:42:39.307Z</time>
      </trkpt>
      <trkpt lat="40.50361" lon="45.27198">
        <ele>1940.18058</ele>
        <time>2021-08-13T06:43:00.493Z</time>
      </trkpt>
      <trkpt lat="40.50366" lon="45.27201">
        <ele>1940.029141</ele>
        <time>2021-08-13T06:43:02.599Z</time>
      </trkpt>
      <trkpt lat="40.50387" lon="45.27247">
        <ele>1938.994287</ele>
        <time>2021-08-13T06:43:12.712Z</time>
      </trkpt>
      <trkpt lat="40.50384" lon="45.27279">
        <ele>1938.370508</ele>
        <time>2021-08-13T06:43:18.665Z</time>
      </trkpt>
      <trkpt lat="40.50396" lon="45.27314">
        <ele>1937.620471</ele>
        <time>2021-08-13T06:43:26.506Z</time>
      </trkpt>
      <trkpt lat="40.50398" lon="45.27343">
        <ele>1937.141404</ele>
        <time>2021-08-13T06:43:32.800Z</time>
      </trkpt>
      <trkpt lat="40.50384" lon="45.27385">
        <ele>1936.897892</ele>
        <time>2021-08-13T06:43:42.681Z</time>
      </trkpt>
      <trkpt lat="40.50344" lon="45.27396">
        <ele>1936.615007</ele>
        <time>2021-08-13T06:43:53.827Z</time>
      </trkpt>
      <trkpt lat="40.50327" lon="45.27409">
        <ele>1936.478602</ele>
        <time>2021-08-13T06:43:59.231Z</time>
      </trkpt>
      <trkpt lat="40.50309" lon="45.27445">
        <ele>1936.247369</ele>
        <time>2021-08-13T06:44:08.795Z</time>
      </trkpt>
      <trkpt lat="40.50297" lon="45.27494">
        <ele>1935.974013</ele>
        <time>2021-08-13T06:44:20.891Z</time>
      </trkpt>
      <trkpt lat="40.50276" lon="45.27527">
        <ele>1936.50725</ele>
        <time>2021-08-13T06:44:31.967Z</time>
      </trkpt>
      <trkpt lat="40.5027" lon="45.27554">
        <ele>1937.060093</ele>
        <time>2021-08-13T06:44:40.057Z</time>
      </trkpt>
      <trkpt lat="40.50245" lon="45.27583">
        <ele>1937.89883</ele>
        <time>2021-08-13T06:44:56.178Z</time>
      </trkpt>
      <trkpt lat="40.50234" lon="45.27638">
        <ele>1939.006638</ele>
        <time>2021-08-13T06:45:18.574Z</time>
      </trkpt>
      <trkpt lat="40.50221" lon="45.27663">
        <ele>1939.574745</ele>
        <time>2021-08-13T06:45:31.174Z</time>
      </trkpt>
      <trkpt lat="40.50221" lon="45.27699">
        <ele>1940.266224</ele>
        <time>2021-08-13T06:45:46.414Z</time>
      </trkpt>
      <trkpt lat="40.50216" lon="45.27719">
        <ele>1940.547385</ele>
        <time>2021-08-13T06:45:54.804Z</time>
      </trkpt>
      <trkpt lat="40.50197" lon="45.27741">
        <ele>1940.770205</ele>
        <time>2021-08-13T06:46:09.616Z</time>
      </trkpt>
      <trkpt lat="40.50229" lon="45.27872">
        <ele>1941.713463</ele>
        <time>2021-08-13T06:46:53.126Z</time>
      </trkpt>
      <trkpt lat="40.50232" lon="45.27971">
        <ele>1940.328522</ele>
        <time>2021-08-13T06:47:11.645Z</time>
      </trkpt>
      <trkpt lat="40.50235" lon="45.27997">
        <ele>1939.269082</ele>
        <time>2021-08-13T06:47:16.041Z</time>
      </trkpt>
      <trkpt lat="40.50254" lon="45.28056">
        <ele>1936.675203</ele>
        <time>2021-08-13T06:47:26.644Z</time>
      </trkpt>
      <trkpt lat="40.50281" lon="45.28153">
        <ele>1932.51842</ele>
        <time>2021-08-13T06:47:43.196Z</time>
      </trkpt>
      <trkpt lat="40.50315" lon="45.28248">
        <ele>1929.433282</ele>
        <time>2021-08-13T06:48:00.371Z</time>
      </trkpt>
      <trkpt lat="40.50328" lon="45.28321">
        <ele>1927.224672</ele>
        <time>2021-08-13T06:48:14.236Z</time>
      </trkpt>
      <trkpt lat="40.5033" lon="45.28365">
        <ele>1925.923455</ele>
        <time>2021-08-13T06:48:23.037Z</time>
      </trkpt>
      <trkpt lat="40.50338" lon="45.28561">
        <ele>1926.425289</ele>
        <time>2021-08-13T06:49:13.913Z</time>
      </trkpt>
      <trkpt lat="40.50345" lon="45.28642">
        <ele>1927.236318</ele>
        <time>2021-08-13T06:49:42.346Z</time>
      </trkpt>
      <trkpt lat="40.50359" lon="45.28719">
        <ele>1928.79196</ele>
        <time>2021-08-13T06:50:10.355Z</time>
      </trkpt>
      <trkpt lat="40.50483" lon="45.28956">
        <ele>1934.911743</ele>
        <time>2021-08-13T06:51:56.495Z</time>
      </trkpt>
      <trkpt lat="40.5051" lon="45.29066">
        <ele>1937.467286</ele>
        <time>2021-08-13T06:52:40.568Z</time>
      </trkpt>
      <trkpt lat="40.50534" lon="45.29181">
        <ele>1939.976819</ele>
        <time>2021-08-13T06:53:25.189Z</time>
      </trkpt>
      <trkpt lat="40.50537" lon="45.29384">
        <ele>1943.335695</ele>
        <time>2021-08-13T06:54:35.490Z</time>
      </trkpt>
      <trkpt lat="40.50571" lon="45.29564">
        <ele>1945.273149</ele>
        <time>2021-08-13T06:55:30.973Z</time>
      </trkpt>
      <trkpt lat="40.50586" lon="45.29787">
        <ele>1946.516714</ele>
        <time>2021-08-13T06:56:30.767Z</time>
      </trkpt>
      <trkpt lat="40.50621" lon="45.29979">
        <ele>1947.712775</ele>
        <time>2021-08-13T06:57:25.420Z</time>
      </trkpt>
      <trkpt lat="40.50681" lon="45.30196">
        <ele>1950.737685</ele>
        <time>2021-08-13T06:58:39.092Z</time>
      </trkpt>
      <trkpt lat="40.50726" lon="45.30448">
        <ele>1956.127627</ele>
        <time>2021-08-13T07:00:15.907Z</time>
      </trkpt>
      <trkpt lat="40.50739" lon="45.30647">
        <ele>1960.169953</ele>
        <time>2021-08-13T07:01:30.302Z</time>
      </trkpt>
      <trkpt lat="40.50742" lon="45.30726">
        <ele>1959.825745</ele>
        <time>2021-08-13T07:01:52.940Z</time>
      </trkpt>
      <trkpt lat="40.50731" lon="45.30879">
        <ele>1959.157099</ele>
        <time>2021-08-13T07:02:24.367Z</time>
      </trkpt>
      <trkpt lat="40.50676" lon="45.31158">
        <ele>1953.768212</ele>
        <time>2021-08-13T07:03:17.847Z</time>
      </trkpt>
      <trkpt lat="40.50673" lon="45.31352">
        <ele>1951.665666</ele>
        <time>2021-08-13T07:03:58.649Z</time>
      </trkpt>
      <trkpt lat="40.50622" lon="45.31595">
        <ele>1952.017304</ele>
        <time>2021-08-13T07:05:04.108Z</time>
      </trkpt>
      <trkpt lat="40.50602" lon="45.3171">
        <ele>1952.827098</ele>
        <time>2021-08-13T07:05:38.386Z</time>
      </trkpt>
      <trkpt lat="40.50568" lon="45.31841">
        <ele>1953.616836</ele>
        <time>2021-08-13T07:06:19.219Z</time>
      </trkpt>
      <trkpt lat="40.50553" lon="45.31947">
        <ele>1953.951349</ele>
        <time>2021-08-13T07:06:48.569Z</time>
      </trkpt>
      <trkpt lat="40.50523" lon="45.32012">
        <ele>1954.186886</ele>
        <time>2021-08-13T07:07:07.179Z</time>
      </trkpt>
      <trkpt lat="40.5052" lon="45.32018">
        <ele>1954.210058</ele>
        <time>2021-08-13T07:07:08.879Z</time>
      </trkpt>
      <trkpt lat="40.50427" lon="45.322">
        <ele>1953.270109</ele>
        <time>2021-08-13T07:07:57.677Z</time>
      </trkpt>
      <trkpt lat="40.50217" lon="45.32794">
        <ele>1950.319361</ele>
        <time>2021-08-13T07:10:29.292Z</time>
      </trkpt>
      <trkpt lat="40.50125" lon="45.33111">
        <ele>1944.830395</ele>
        <time>2021-08-13T07:11:34.662Z</time>
      </trkpt>
      <trkpt lat="40.50106" lon="45.33163">
        <ele>1943.528942</ele>
        <time>2021-08-13T07:11:45.065Z</time>
      </trkpt>
      <trkpt lat="40.50036" lon="45.33328">
        <ele>1939.501779</ele>
        <time>2021-08-13T07:12:19.685Z</time>
      </trkpt>
      <trkpt lat="40.50031" lon="45.33369">
        <ele>1938.789923</ele>
        <time>2021-08-13T07:12:27.115Z</time>
      </trkpt>
      <trkpt lat="40.50012" lon="45.33502">
        <ele>1936.474655</ele>
        <time>2021-08-13T07:12:52.266Z</time>
      </trkpt>
      <trkpt lat="40.49863" lon="45.34104">
        <ele>1930.198869</ele>
        <time>2021-08-13T07:14:58.369Z</time>
      </trkpt>
      <trkpt lat="40.49761" lon="45.34486">
        <ele>1928.095273</ele>
        <time>2021-08-13T07:16:27.770Z</time>
      </trkpt>
      <trkpt lat="40.49577" lon="45.3514">
        <ele>1922.391047</ele>
        <time>2021-08-13T07:18:47.727Z</time>
      </trkpt>
      <trkpt lat="40.49556" lon="45.35204">
        <ele>1922.3742</ele>
        <time>2021-08-13T07:19:03.008Z</time>
      </trkpt>
      <trkpt lat="40.49439" lon="45.35537">
        <ele>1924.039524</ele>
        <time>2021-08-13T07:20:43.897Z</time>
      </trkpt>
      <trkpt lat="40.49181" lon="45.36257">
        <ele>1927.907836</ele>
        <time>2021-08-13T07:24:16.554Z</time>
      </trkpt>
      <trkpt lat="40.49172" lon="45.3628">
        <ele>1927.94933</ele>
        <time>2021-08-13T07:24:22.548Z</time>
      </trkpt>
      <trkpt lat="40.49128" lon="45.36401">
        <ele>1928.029863</ele>
        <time>2021-08-13T07:24:53.523Z</time>
      </trkpt>
      <trkpt lat="40.49072" lon="45.36548">
        <ele>1927.54305</ele>
        <time>2021-08-13T07:25:29.977Z</time>
      </trkpt>
      <trkpt lat="40.4892" lon="45.36891">
        <ele>1925.820045</ele>
        <time>2021-08-13T07:26:56.710Z</time>
      </trkpt>
      <trkpt lat="40.48844" lon="45.37077">
        <ele>1924.680056</ele>
        <time>2021-08-13T07:27:40.526Z</time>
      </trkpt>
      <trkpt lat="40.48792" lon="45.3721">
        <ele>1923.924647</ele>
        <time>2021-08-13T07:28:12.666Z</time>
      </trkpt>
      <trkpt lat="40.48707" lon="45.3745">
        <ele>1923.425973</ele>
        <time>2021-08-13T07:29:14.352Z</time>
      </trkpt>
      <trkpt lat="40.48573" lon="45.378">
        <ele>1921.40055</ele>
        <time>2021-08-13T07:30:38.502Z</time>
      </trkpt>
      <trkpt lat="40.48464" lon="45.37989">
        <ele>1918.805908</ele>
        <time>2021-08-13T07:31:25.063Z</time>
      </trkpt>
      <trkpt lat="40.48395" lon="45.38109">
        <ele>1916.822524</ele>
        <time>2021-08-13T07:31:53.181Z</time>
      </trkpt>
      <trkpt lat="40.48285" lon="45.3828">
        <ele>1914.760413</ele>
        <time>2021-08-13T07:32:36.204Z</time>
      </trkpt>
      <trkpt lat="40.47836" lon="45.39302">
        <ele>1911.606568</ele>
        <time>2021-08-13T07:37:06.341Z</time>
      </trkpt>
      <trkpt lat="40.47696" lon="45.39604">
        <ele>1909.631943</ele>
        <time>2021-08-13T07:38:20.175Z</time>
      </trkpt>
      <trkpt lat="40.47568" lon="45.39902">
        <ele>1908.538434</ele>
        <time>2021-08-13T07:39:35.478Z</time>
      </trkpt>
      <trkpt lat="40.47394" lon="45.40295">
        <ele>1908.872843</ele>
        <time>2021-08-13T07:41:25.388Z</time>
      </trkpt>
      <trkpt lat="40.47154" lon="45.40831">
        <ele>1911.272079</ele>
        <time>2021-08-13T07:44:06.554Z</time>
      </trkpt>
      <trkpt lat="40.47016" lon="45.41151">
        <ele>1914.275441</ele>
        <time>2021-08-13T07:45:50.641Z</time>
      </trkpt>
      <trkpt lat="40.46938" lon="45.41329">
        <ele>1916.269186</ele>
        <time>2021-08-13T07:46:52.223Z</time>
      </trkpt>
      <trkpt lat="40.46815" lon="45.4155">
        <ele>1918.577057</ele>
        <time>2021-08-13T07:48:10.388Z</time>
      </trkpt>
      <trkpt lat="40.46808" lon="45.41564">
        <ele>1918.69124</ele>
        <time>2021-08-13T07:48:15.019Z</time>
      </trkpt>
      <trkpt lat="40.46795" lon="45.41583">
        <ele>1918.866665</ele>
        <time>2021-08-13T07:48:21.996Z</time>
      </trkpt>
      <trkpt lat="40.46759" lon="45.41644">
        <ele>1919.385284</ele>
        <time>2021-08-13T07:48:42.670Z</time>
      </trkpt>
      <trkpt lat="40.46692" lon="45.41754">
        <ele>1919.969651</ele>
        <time>2021-08-13T07:49:19.305Z</time>
      </trkpt>
      <trkpt lat="40.46617" lon="45.41836">
        <ele>1920.385345</ele>
        <time>2021-08-13T07:49:52.028Z</time>
      </trkpt>
      <trkpt lat="40.46564" lon="45.4187">
        <ele>1920.380806</ele>
        <time>2021-08-13T07:50:10.818Z</time>
      </trkpt>
      <trkpt lat="40.46309" lon="45.41987">
        <ele>1920.020308</ele>
        <time>2021-08-13T07:51:31.826Z</time>
      </trkpt>
      <trkpt lat="40.46261" lon="45.42011">
        <ele>1920.002772</ele>
        <time>2021-08-13T07:51:47.577Z</time>
      </trkpt>
      <trkpt lat="40.46173" lon="45.42043">
        <ele>1920.019108</ele>
        <time>2021-08-13T07:52:15.915Z</time>
      </trkpt>
      <trkpt lat="40.46114" lon="45.42054">
        <ele>1920.038217</ele>
        <time>2021-08-13T07:52:35.302Z</time>
      </trkpt>
      <trkpt lat="40.46072" lon="45.42059">
        <ele>1920.076982</ele>
        <time>2021-08-13T07:52:49.099Z</time>
      </trkpt>
      <trkpt lat="40.45952" lon="45.42078">
        <ele>1920.18843</ele>
        <time>2021-08-13T07:53:27.264Z</time>
      </trkpt>
      <trkpt lat="40.45783" lon="45.42096">
        <ele>1919.678702</ele>
        <time>2021-08-13T07:54:17.392Z</time>
      </trkpt>
      <trkpt lat="40.45686" lon="45.42127">
        <ele>1919.473686</ele>
        <time>2021-08-13T07:54:46.301Z</time>
      </trkpt>
      <trkpt lat="40.45651" lon="45.42143">
        <ele>1919.404656</ele>
        <time>2021-08-13T07:54:57.349Z</time>
      </trkpt>
      <trkpt lat="40.45517" lon="45.42204">
        <ele>1919.525466</ele>
        <time>2021-08-13T07:55:42.385Z</time>
      </trkpt>
      <trkpt lat="40.45485" lon="45.42221">
        <ele>1919.622334</ele>
        <time>2021-08-13T07:55:53.807Z</time>
      </trkpt>
      <trkpt lat="40.45471" lon="45.42229">
        <ele>1919.665684</ele>
        <time>2021-08-13T07:55:59.104Z</time>
      </trkpt>
      <trkpt lat="40.45389" lon="45.42284">
        <ele>1919.925204</ele>
        <time>2021-08-13T07:56:29.455Z</time>
      </trkpt>
      <trkpt lat="40.45345" lon="45.42332">
        <ele>1920.090417</ele>
        <time>2021-08-13T07:56:48.713Z</time>
      </trkpt>
      <trkpt lat="40.45184" lon="45.42498">
        <ele>1920.529117</ele>
        <time>2021-08-13T07:57:54.536Z</time>
      </trkpt>
      <trkpt lat="40.45016" lon="45.42591">
        <ele>1920.9043</ele>
        <time>2021-08-13T07:58:53.150Z</time>
      </trkpt>
      <trkpt lat="40.44768" lon="45.42705">
        <ele>1921.276993</ele>
        <time>2021-08-13T08:00:18.045Z</time>
      </trkpt>
      <trkpt lat="40.44674" lon="45.42736">
        <ele>1921.001002</ele>
        <time>2021-08-13T08:00:46.507Z</time>
      </trkpt>
      <trkpt lat="40.44444" lon="45.42777">
        <ele>1920.004791</ele>
        <time>2021-08-13T08:01:53.586Z</time>
      </trkpt>
      <trkpt lat="40.44311" lon="45.42794">
        <ele>1919.315241</ele>
        <time>2021-08-13T08:02:32.007Z</time>
      </trkpt>
      <trkpt lat="40.4421" lon="45.42824">
        <ele>1918.698776</ele>
        <time>2021-08-13T08:03:01.066Z</time>
      </trkpt>
      <trkpt lat="40.44134" lon="45.42865">
        <ele>1918.151669</ele>
        <time>2021-08-13T08:03:24.206Z</time>
      </trkpt>
      <trkpt lat="40.4389" lon="45.43071">
        <ele>1916.078539</ele>
        <time>2021-08-13T08:04:45.003Z</time>
      </trkpt>
      <trkpt lat="40.43633" lon="45.43301">
        <ele>1914.639829</ele>
        <time>2021-08-13T08:06:13.468Z</time>
      </trkpt>
      <trkpt lat="40.43241" lon="45.43811">
        <ele>1917.93469</ele>
        <time>2021-08-13T08:09:28.624Z</time>
      </trkpt>
      <trkpt lat="40.4315" lon="45.43892">
        <ele>1917.591068</ele>
        <time>2021-08-13T08:10:00.800Z</time>
      </trkpt>
      <trkpt lat="40.43074" lon="45.4395">
        <ele>1916.882831</ele>
        <time>2021-08-13T08:10:24.069Z</time>
      </trkpt>
      <trkpt lat="40.42998" lon="45.43998">
        <ele>1915.922551</ele>
        <time>2021-08-13T08:10:46.027Z</time>
      </trkpt>
      <trkpt lat="40.42946" lon="45.44044">
        <ele>1915.323184</ele>
        <time>2021-08-13T08:11:02.706Z</time>
      </trkpt>
      <trkpt lat="40.42768" lon="45.44223">
        <ele>1914.63065</ele>
        <time>2021-08-13T08:12:08.259Z</time>
      </trkpt>
      <trkpt lat="40.4272" lon="45.44281">
        <ele>1914.789446</ele>
        <time>2021-08-13T08:12:30.145Z</time>
      </trkpt>
      <trkpt lat="40.42626" lon="45.44393">
        <ele>1915.336518</ele>
        <time>2021-08-13T08:13:15.308Z</time>
      </trkpt>
      <trkpt lat="40.42566" lon="45.44475">
        <ele>1915.818723</ele>
        <time>2021-08-13T08:13:44.853Z</time>
      </trkpt>
      <trkpt lat="40.42378" lon="45.44808">
        <ele>1916.171114</ele>
        <time>2021-08-13T08:15:23.774Z</time>
      </trkpt>
      <trkpt lat="40.42045" lon="45.45443">
        <ele>1918.357873</ele>
        <time>2021-08-13T08:18:40.159Z</time>
      </trkpt>
      <trkpt lat="40.41818" lon="45.45859">
        <ele>1919.330426</ele>
        <time>2021-08-13T08:20:47.291Z</time>
      </trkpt>
      <trkpt lat="40.41688" lon="45.46043">
        <ele>1919.521119</ele>
        <time>2021-08-13T08:21:46.562Z</time>
      </trkpt>
      <trkpt lat="40.41534" lon="45.46243">
        <ele>1920.25439</ele>
        <time>2021-08-13T08:22:58.477Z</time>
      </trkpt>
      <trkpt lat="40.41383" lon="45.46416">
        <ele>1921.144812</ele>
        <time>2021-08-13T08:24:06.433Z</time>
      </trkpt>
      <trkpt lat="40.41256" lon="45.46543">
        <ele>1921.795393</ele>
        <time>2021-08-13T08:24:59.573Z</time>
      </trkpt>
      <trkpt lat="40.41015" lon="45.46781">
        <ele>1922.751519</ele>
        <time>2021-08-13T08:26:39.757Z</time>
      </trkpt>
      <trkpt lat="40.40576" lon="45.47213">
        <ele>1921.835288</ele>
        <time>2021-08-13T08:29:24.015Z</time>
      </trkpt>
      <trkpt lat="40.40507" lon="45.4727">
        <ele>1921.998942</ele>
        <time>2021-08-13T08:29:50.549Z</time>
      </trkpt>
      <trkpt lat="40.40491" lon="45.47282">
        <ele>1922.035654</ele>
        <time>2021-08-13T08:29:56.785Z</time>
      </trkpt>
      <trkpt lat="40.404" lon="45.47337">
        <ele>1922.191278</ele>
        <time>2021-08-13T08:30:29.981Z</time>
      </trkpt>
      <trkpt lat="40.4019" lon="45.47394">
        <ele>1922.221899</ele>
        <time>2021-08-13T08:31:36.619Z</time>
      </trkpt>
      <trkpt lat="40.40035" lon="45.47431">
        <ele>1922.088684</ele>
        <time>2021-08-13T08:32:23.957Z</time>
      </trkpt>
      <trkpt lat="40.39785" lon="45.47492">
        <ele>1921.769716</ele>
        <time>2021-08-13T08:33:43.436Z</time>
      </trkpt>
      <trkpt lat="40.39575" lon="45.475">
        <ele>1920.550928</ele>
        <time>2021-08-13T08:34:41.567Z</time>
      </trkpt>
      <trkpt lat="40.39564" lon="45.47506">
        <ele>1920.466418</ele>
        <time>2021-08-13T08:34:44.698Z</time>
      </trkpt>
      <trkpt lat="40.39535" lon="45.47531">
        <ele>1920.318119</ele>
        <time>2021-08-13T08:34:54.732Z</time>
      </trkpt>
      <trkpt lat="40.394" lon="45.47694">
        <ele>1920.071686</ele>
        <time>2021-08-13T08:35:51.292Z</time>
      </trkpt>
      <trkpt lat="40.39159" lon="45.48001">
        <ele>1920.468905</ele>
        <time>2021-08-13T08:37:39.452Z</time>
      </trkpt>
      <trkpt lat="40.38434" lon="45.48886">
        <ele>1916.754582</ele>
        <time>2021-08-13T08:42:28.244Z</time>
      </trkpt>
      <trkpt lat="40.38278" lon="45.49154">
        <ele>1916.08753</ele>
        <time>2021-08-13T08:43:44.851Z</time>
      </trkpt>
      <trkpt lat="40.38162" lon="45.49416">
        <ele>1916.068543</ele>
        <time>2021-08-13T08:44:57.501Z</time>
      </trkpt>
      <trkpt lat="40.37895" lon="45.5015">
        <ele>1915.792618</ele>
        <time>2021-08-13T08:48:09.647Z</time>
      </trkpt>
      <trkpt lat="40.37819" lon="45.50356">
        <ele>1915.631112</ele>
        <time>2021-08-13T08:49:01.354Z</time>
      </trkpt>
      <trkpt lat="40.37797" lon="45.50415">
        <ele>1915.592954</ele>
        <time>2021-08-13T08:49:17.305Z</time>
      </trkpt>
      <trkpt lat="40.37661" lon="45.50781">
        <ele>1916.828785</ele>
        <time>2021-08-13T08:51:03.604Z</time>
      </trkpt>
      <trkpt lat="40.37469" lon="45.51182">
        <ele>1916.758092</ele>
        <time>2021-08-13T08:52:53.942Z</time>
      </trkpt>
      <trkpt lat="40.37437" lon="45.51268">
        <ele>1916.680276</ele>
        <time>2021-08-13T08:53:16.238Z</time>
      </trkpt>
      <trkpt lat="40.37187" lon="45.51947">
        <ele>1916.869631</ele>
        <time>2021-08-13T08:56:16.631Z</time>
      </trkpt>
      <trkpt lat="40.37163" lon="45.52054">
        <ele>1916.842698</ele>
        <time>2021-08-13T08:56:43.807Z</time>
      </trkpt>
      <trkpt lat="40.37097" lon="45.52351">
        <ele>1916.265006</ele>
        <time>2021-08-13T08:57:53.729Z</time>
      </trkpt>
      <trkpt lat="40.37078" lon="45.52434">
        <ele>1916.100015</ele>
        <time>2021-08-13T08:58:12.827Z</time>
      </trkpt>
      <trkpt lat="40.37076" lon="45.52452">
        <ele>1916.065827</ele>
        <time>2021-08-13T08:58:16.826Z</time>
      </trkpt>
      <trkpt lat="40.3707" lon="45.52504">
        <ele>1915.966471</ele>
        <time>2021-08-13T08:58:28.725Z</time>
      </trkpt>
      <trkpt lat="40.37066" lon="45.52591">
        <ele>1915.869885</ele>
        <time>2021-08-13T08:58:49.276Z</time>
      </trkpt>
      <trkpt lat="40.37066" lon="45.52619">
        <ele>1915.985168</ele>
        <time>2021-08-13T08:58:56.314Z</time>
      </trkpt>
      <trkpt lat="40.37068" lon="45.52639">
        <ele>1916.06593</ele>
        <time>2021-08-13T08:59:01.321Z</time>
      </trkpt>
      <trkpt lat="40.37093" lon="45.52979">
        <ele>1917.528682</ele>
        <time>2021-08-13T09:00:36.222Z</time>
      </trkpt>
      <trkpt lat="40.37082" lon="45.53279">
        <ele>1918.210154</ele>
        <time>2021-08-13T09:01:54.435Z</time>
      </trkpt>
      <trkpt lat="40.37077" lon="45.53362">
        <ele>1918.116165</ele>
        <time>2021-08-13T09:02:13.940Z</time>
      </trkpt>
      <trkpt lat="40.37074" lon="45.53475">
        <ele>1917.961842</ele>
        <time>2021-08-13T09:02:40.080Z</time>
      </trkpt>
      <trkpt lat="40.37065" lon="45.54006">
        <ele>1919.436531</ele>
        <time>2021-08-13T09:04:59.980Z</time>
      </trkpt>
      <trkpt lat="40.37069" lon="45.54082">
        <ele>1920.139279</ele>
        <time>2021-08-13T09:05:22.672Z</time>
      </trkpt>
      <trkpt lat="40.37059" lon="45.54175">
        <ele>1921.00593</ele>
        <time>2021-08-13T09:05:51.215Z</time>
      </trkpt>
      <trkpt lat="40.3703" lon="45.54285">
        <ele>1922.212897</ele>
        <time>2021-08-13T09:06:27.596Z</time>
      </trkpt>
      <trkpt lat="40.36997" lon="45.54382">
        <ele>1923.408916</ele>
        <time>2021-08-13T09:07:00.676Z</time>
      </trkpt>
      <trkpt lat="40.36944" lon="45.54581">
        <ele>1925.376257</ele>
        <time>2021-08-13T09:08:06.057Z</time>
      </trkpt>
      <trkpt lat="40.36888" lon="45.54722">
        <ele>1926.064147</ele>
        <time>2021-08-13T09:08:49.753Z</time>
      </trkpt>
      <trkpt lat="40.36822" lon="45.54788">
        <ele>1925.917983</ele>
        <time>2021-08-13T09:09:14.981Z</time>
      </trkpt>
      <trkpt lat="40.36738" lon="45.54968">
        <ele>1925.212723</ele>
        <time>2021-08-13T09:10:01.714Z</time>
      </trkpt>
      <trkpt lat="40.3657" lon="45.55229">
        <ele>1924.520349</ele>
        <time>2021-08-13T09:11:23.206Z</time>
      </trkpt>
      <trkpt lat="40.36466" lon="45.55469">
        <ele>1924.917031</ele>
        <time>2021-08-13T09:12:33.706Z</time>
      </trkpt>
      <trkpt lat="40.36152" lon="45.5596">
        <ele>1927.032799</ele>
        <time>2021-08-13T09:15:24.640Z</time>
      </trkpt>
      <trkpt lat="40.36117" lon="45.56062">
        <ele>1927.628793</ele>
        <time>2021-08-13T09:15:55.616Z</time>
      </trkpt>
      <trkpt lat="40.36058" lon="45.56163">
        <ele>1928.314231</ele>
        <time>2021-08-13T09:16:31.380Z</time>
      </trkpt>
      <trkpt lat="40.35964" lon="45.5642">
        <ele>1930.215198</ele>
        <time>2021-08-13T09:17:52.630Z</time>
      </trkpt>
      <trkpt lat="40.35891" lon="45.56563">
        <ele>1931.409935</ele>
        <time>2021-08-13T09:18:41.643Z</time>
      </trkpt>
      <trkpt lat="40.35879" lon="45.56595">
        <ele>1931.735946</ele>
        <time>2021-08-13T09:18:52.053Z</time>
      </trkpt>
      <trkpt lat="40.35836" lon="45.56683">
        <ele>1932.880349</ele>
        <time>2021-08-13T09:19:21.804Z</time>
      </trkpt>
      <trkpt lat="40.35791" lon="45.56758">
        <ele>1933.931452</ele>
        <time>2021-08-13T09:19:50.783Z</time>
      </trkpt>
      <trkpt lat="40.35549" lon="45.57095">
        <ele>1942.267442</ele>
        <time>2021-08-13T09:22:27.216Z</time>
      </trkpt>
      <trkpt lat="40.35426" lon="45.57279">
        <ele>1948.321707</ele>
        <time>2021-08-13T09:24:01.924Z</time>
      </trkpt>
      <trkpt lat="40.35306" lon="45.57382">
        <ele>1952.326745</ele>
        <time>2021-08-13T09:25:09.469Z</time>
      </trkpt>
      <trkpt lat="40.35245" lon="45.57512">
        <ele>1955.231789</ele>
        <time>2021-08-13T09:26:00.572Z</time>
      </trkpt>
      <trkpt lat="40.35203" lon="45.57578">
        <ele>1956.752733</ele>
        <time>2021-08-13T09:26:29.341Z</time>
      </trkpt>
      <trkpt lat="40.35074" lon="45.57704">
        <ele>1960.668949</ele>
        <time>2021-08-13T09:27:41.082Z</time>
      </trkpt>
      <trkpt lat="40.35008" lon="45.57877">
        <ele>1964.574361</ele>
        <time>2021-08-13T09:28:48.435Z</time>
      </trkpt>
      <trkpt lat="40.34864" lon="45.58177">
        <ele>1972.165658</ele>
        <time>2021-08-13T09:30:57.600Z</time>
      </trkpt>
      <trkpt lat="40.34772" lon="45.58436">
        <ele>1976.196</ele>
        <time>2021-08-13T09:32:30.912Z</time>
      </trkpt>
      <trkpt lat="40.34607" lon="45.58659">
        <ele>1976.649926</ele>
        <time>2021-08-13T09:33:43.403Z</time>
      </trkpt>
      <trkpt lat="40.34534" lon="45.58813">
        <ele>1976.561697</ele>
        <time>2021-08-13T09:34:24.996Z</time>
      </trkpt>
      <trkpt lat="40.34498" lon="45.58917">
        <ele>1976.655272</ele>
        <time>2021-08-13T09:34:52.858Z</time>
      </trkpt>
      <trkpt lat="40.34346" lon="45.59033">
        <ele>1977.401997</ele>
        <time>2021-08-13T09:35:51.486Z</time>
      </trkpt>
      <trkpt lat="40.34233" lon="45.59177">
        <ele>1979.171744</ele>
        <time>2021-08-13T09:36:48.610Z</time>
      </trkpt>
      <trkpt lat="40.34201" lon="45.59245">
        <ele>1980.041518</ele>
        <time>2021-08-13T09:37:13.996Z</time>
      </trkpt>
      <trkpt lat="40.34158" lon="45.59454">
        <ele>1983.890807</ele>
        <time>2021-08-13T09:38:28.727Z</time>
      </trkpt>
      <trkpt lat="40.34054" lon="45.5967">
        <ele>1988.596406</ele>
        <time>2021-08-13T09:39:55.898Z</time>
      </trkpt>
      <trkpt lat="40.34035" lon="45.59766">
        <ele>1990.482691</ele>
        <time>2021-08-13T09:40:29.334Z</time>
      </trkpt>
      <trkpt lat="40.34005" lon="45.60215">
        <ele>1999.520296</ele>
        <time>2021-08-13T09:43:06.145Z</time>
      </trkpt>
      <trkpt lat="40.33964" lon="45.60416">
        <ele>2004.268516</ele>
        <time>2021-08-13T09:44:23.785Z</time>
      </trkpt>
      <trkpt lat="40.33954" lon="45.60486">
        <ele>2005.858942</ele>
        <time>2021-08-13T09:44:51.011Z</time>
      </trkpt>
      <trkpt lat="40.3395" lon="45.60516">
        <ele>2006.550303</ele>
        <time>2021-08-13T09:45:02.405Z</time>
      </trkpt>
      <trkpt lat="40.33944" lon="45.6053">
        <ele>2006.899421</ele>
        <time>2021-08-13T09:45:08.180Z</time>
      </trkpt>
      <trkpt lat="40.33933" lon="45.60559">
        <ele>2007.632913</ele>
        <time>2021-08-13T09:45:19.880Z</time>
      </trkpt>
      <trkpt lat="40.33918" lon="45.60599">
        <ele>2008.619092</ele>
        <time>2021-08-13T09:45:35.228Z</time>
      </trkpt>
      <trkpt lat="40.339" lon="45.60645">
        <ele>2009.474551</ele>
        <time>2021-08-13T09:45:52.622Z</time>
      </trkpt>
      <trkpt lat="40.33824" lon="45.60842">
        <ele>2012.932276</ele>
        <time>2021-08-13T09:47:01.686Z</time>
      </trkpt>
      <trkpt lat="40.33804" lon="45.61039">
        <ele>2016.927662</ele>
        <time>2021-08-13T09:48:08.297Z</time>
      </trkpt>
      <trkpt lat="40.33789" lon="45.61178">
        <ele>2023.354038</ele>
        <time>2021-08-13T09:49:13.847Z</time>
      </trkpt>
      <trkpt lat="40.33759" lon="45.61251">
        <ele>2027.376034</ele>
        <time>2021-08-13T09:50:00.430Z</time>
      </trkpt>
      <trkpt lat="40.33663" lon="45.61423">
        <ele>2040.815499</ele>
        <time>2021-08-13T09:52:14.803Z</time>
      </trkpt>
      <trkpt lat="40.33555" lon="45.61504">
        <ele>2048.151682</ele>
        <time>2021-08-13T09:53:42.796Z</time>
      </trkpt>
      <trkpt lat="40.33405" lon="45.61556">
        <ele>2052.446007</ele>
        <time>2021-08-13T09:54:53.516Z</time>
      </trkpt>
      <trkpt lat="40.33163" lon="45.61725">
        <ele>2049.354313</ele>
        <time>2021-08-13T09:56:02.064Z</time>
      </trkpt>
      <trkpt lat="40.32972" lon="45.61991">
        <ele>2044.469544</ele>
        <time>2021-08-13T09:57:11.110Z</time>
      </trkpt>
      <trkpt lat="40.32855" lon="45.62212">
        <ele>2042.415869</ele>
        <time>2021-08-13T09:58:07.234Z</time>
      </trkpt>
      <trkpt lat="40.3274" lon="45.62583">
        <ele>2040.653996</ele>
        <time>2021-08-13T09:59:36.734Z</time>
      </trkpt>
      <trkpt lat="40.32598" lon="45.628">
        <ele>2038.940714</ele>
        <time>2021-08-13T10:00:33.809Z</time>
      </trkpt>
      <trkpt lat="40.32429" lon="45.63083">
        <ele>2039.779506</ele>
        <time>2021-08-13T10:02:04.989Z</time>
      </trkpt>
      <trkpt lat="40.32343" lon="45.63727">
        <ele>2054.19819</ele>
        <time>2021-08-13T10:06:01.858Z</time>
      </trkpt>
      <trkpt lat="40.32238" lon="45.64598">
        <ele>2081.408346</ele>
        <time>2021-08-13T10:12:12.329Z</time>
      </trkpt>
      <trkpt lat="40.32126" lon="45.65105">
        <ele>2089.591356</ele>
        <time>2021-08-13T10:15:04.418Z</time>
      </trkpt>
      <trkpt lat="40.31948" lon="45.66004">
        <ele>2083.609218</ele>
        <time>2021-08-13T10:18:19.558Z</time>
      </trkpt>
      <trkpt lat="40.3177" lon="45.66559">
        <ele>2069.131771</ele>
        <time>2021-08-13T10:20:04.036Z</time>
      </trkpt>
      <trkpt lat="40.31749" lon="45.66626">
        <ele>2066.871657</ele>
        <time>2021-08-13T10:20:16.316Z</time>
      </trkpt>
      <trkpt lat="40.3168" lon="45.66624">
        <ele>2064.097134</ele>
        <time>2021-08-13T10:20:31.725Z</time>
      </trkpt>
      <trkpt lat="40.31578" lon="45.66658">
        <ele>2058.391807</ele>
        <time>2021-08-13T10:20:55.027Z</time>
      </trkpt>
      <trkpt lat="40.31555" lon="45.6667">
        <ele>2057.026354</ele>
        <time>2021-08-13T10:21:00.291Z</time>
      </trkpt>
      <trkpt lat="40.31463" lon="45.66716">
        <ele>2051.535901</ele>
        <time>2021-08-13T10:21:21.354Z</time>
      </trkpt>
      <trkpt lat="40.3142" lon="45.66772">
        <ele>2048.056275</ele>
        <time>2021-08-13T10:21:34.601Z</time>
      </trkpt>
      <trkpt lat="40.31415" lon="45.66778">
        <ele>2047.697884</ele>
        <time>2021-08-13T10:21:35.926Z</time>
      </trkpt>
      <trkpt lat="40.31357" lon="45.66837">
        <ele>2043.531095</ele>
        <time>2021-08-13T10:21:52.020Z</time>
      </trkpt>
      <trkpt lat="40.31259" lon="45.66911">
        <ele>2037.92458</ele>
        <time>2021-08-13T10:22:17.191Z</time>
      </trkpt>
      <trkpt lat="40.31169" lon="45.66997">
        <ele>2032.496786</ele>
        <time>2021-08-13T10:22:42.195Z</time>
      </trkpt>
      <trkpt lat="40.31144" lon="45.67015">
        <ele>2031.18238</ele>
        <time>2021-08-13T10:22:48.439Z</time>
      </trkpt>
      <trkpt lat="40.31099" lon="45.67046">
        <ele>2028.830661</ele>
        <time>2021-08-13T10:22:59.765Z</time>
      </trkpt>
      <trkpt lat="40.31056" lon="45.67072">
        <ele>2026.619177</ele>
        <time>2021-08-13T10:23:10.374Z</time>
      </trkpt>
      <trkpt lat="40.31025" lon="45.67086">
        <ele>2025.310017</ele>
        <time>2021-08-13T10:23:17.829Z</time>
      </trkpt>
      <trkpt lat="40.30983" lon="45.67125">
        <ele>2023.500722</ele>
        <time>2021-08-13T10:23:29.633Z</time>
      </trkpt>
      <trkpt lat="40.30907" lon="45.67175">
        <ele>2020.453259</ele>
        <time>2021-08-13T10:23:49.994Z</time>
      </trkpt>
      <trkpt lat="40.30789" lon="45.67274">
        <ele>2016.815685</ele>
        <time>2021-08-13T10:24:24.416Z</time>
      </trkpt>
      <trkpt lat="40.30783" lon="45.67283">
        <ele>2016.586194</ele>
        <time>2021-08-13T10:24:26.723Z</time>
      </trkpt>
      <trkpt lat="40.3076" lon="45.67322">
        <ele>2015.681505</ele>
        <time>2021-08-13T10:24:36.591Z</time>
      </trkpt>
      <trkpt lat="40.30683" lon="45.67394">
        <ele>2013.743682</ele>
        <time>2021-08-13T10:25:01.859Z</time>
      </trkpt>
      <trkpt lat="40.30655" lon="45.67411">
        <ele>2013.134165</ele>
        <time>2021-08-13T10:25:09.829Z</time>
      </trkpt>
      <trkpt lat="40.30638" lon="45.67433">
        <ele>2012.650477</ele>
        <time>2021-08-13T10:25:16.244Z</time>
      </trkpt>
      <trkpt lat="40.30629" lon="45.67453">
        <ele>2012.300286</ele>
        <time>2021-08-13T10:25:20.990Z</time>
      </trkpt>
      <trkpt lat="40.30265" lon="45.6722">
        <ele>2000.888572</ele>
        <time>2021-08-13T10:28:10.447Z</time>
      </trkpt>
      <trkpt lat="40.29476" lon="45.66716">
        <ele>1977.690249</ele>
        <time>2021-08-13T10:34:22.579Z</time>
      </trkpt>
      <trkpt lat="40.26631" lon="45.65063">
        <ele>1920.229852</ele>
        <time>2021-08-13T10:57:24.263Z</time>
      </trkpt>
      <trkpt lat="40.26616" lon="45.65058">
        <ele>1920.182281</ele>
        <time>2021-08-13T10:57:32.032Z</time>
      </trkpt>
      <trkpt lat="40.26597" lon="45.65064">
        <ele>1920.127558</ele>
        <time>2021-08-13T10:57:40.974Z</time>
      </trkpt>
      <trkpt lat="40.2603" lon="45.65298">
        <ele>1918.724581</ele>
        <time>2021-08-13T11:02:47.116Z</time>
      </trkpt>
      <trkpt lat="40.25504" lon="45.65401">
        <ele>1918.594408</ele>
        <time>2021-08-13T11:07:22.824Z</time>
      </trkpt>
      <trkpt lat="40.2503" lon="45.65466">
        <ele>1917.224809</ele>
        <time>2021-08-13T11:11:23.184Z</time>
      </trkpt>
      <trkpt lat="40.24994" lon="45.65471">
        <ele>1917.036346</ele>
        <time>2021-08-13T11:11:40.689Z</time>
      </trkpt>
      <trkpt lat="40.24983" lon="45.65472">
        <ele>1916.981797</ele>
        <time>2021-08-13T11:11:45.802Z</time>
      </trkpt>
      <trkpt lat="40.24934" lon="45.65476">
        <ele>1916.72616</ele>
        <time>2021-08-13T11:12:09.771Z</time>
      </trkpt>
      <trkpt lat="40.24915" lon="45.65477">
        <ele>1916.640943</ele>
        <time>2021-08-13T11:12:18.727Z</time>
      </trkpt>
      <trkpt lat="40.24889" lon="45.65477">
        <ele>1916.566208</ele>
        <time>2021-08-13T11:12:31.400Z</time>
      </trkpt>
      <trkpt lat="40.24768" lon="45.6548">
        <ele>1916.219449</ele>
        <time>2021-08-13T11:13:32.006Z</time>
      </trkpt>
      <trkpt lat="40.2394" lon="45.65498">
        <ele>1918.067642</ele>
        <time>2021-08-13T11:20:52.925Z</time>
      </trkpt>
      <trkpt lat="40.23191" lon="45.65478">
        <ele>1918.793437</ele>
        <time>2021-08-13T11:27:25.137Z</time>
      </trkpt>
      <trkpt lat="40.22269" lon="45.65377">
        <ele>1919.02127</ele>
        <time>2021-08-13T11:35:27.787Z</time>
      </trkpt>
      <trkpt lat="40.21948" lon="45.65279">
        <ele>1916.670924</ele>
        <time>2021-08-13T11:38:04.060Z</time>
      </trkpt>
      <trkpt lat="40.21913" lon="45.65268">
        <ele>1916.458849</ele>
        <time>2021-08-13T11:38:22.037Z</time>
      </trkpt>
      <trkpt lat="40.21864" lon="45.65255">
        <ele>1916.297346</ele>
        <time>2021-08-13T11:38:47.953Z</time>
      </trkpt>
      <trkpt lat="40.21851" lon="45.65252">
        <ele>1916.36457</ele>
        <time>2021-08-13T11:38:54.804Z</time>
      </trkpt>
      <trkpt lat="40.21806" lon="45.65324">
        <ele>1916.732485</ele>
        <time>2021-08-13T11:39:25.990Z</time>
      </trkpt>
      <trkpt lat="40.21795" lon="45.65355">
        <ele>1916.867784</ele>
        <time>2021-08-13T11:39:37.896Z</time>
      </trkpt>
      <trkpt lat="40.21789" lon="45.65393">
        <ele>1917.019514</ele>
        <time>2021-08-13T11:39:51.211Z</time>
      </trkpt>
      <trkpt lat="40.21776" lon="45.65414">
        <ele>1917.123473</ele>
        <time>2021-08-13T11:40:00.344Z</time>
      </trkpt>
      <trkpt lat="40.21752" lon="45.65425">
        <ele>1917.324671</ele>
        <time>2021-08-13T11:40:11.973Z</time>
      </trkpt>
      <trkpt lat="40.21704" lon="45.65423">
        <ele>1917.769371</ele>
        <time>2021-08-13T11:40:34.074Z</time>
      </trkpt>
      <trkpt lat="40.21638" lon="45.65411">
        <ele>1918.380213</ele>
        <time>2021-08-13T11:41:04.963Z</time>
      </trkpt>
      <trkpt lat="40.2159" lon="45.6542">
        <ele>1918.827538</ele>
        <time>2021-08-13T11:41:27.564Z</time>
      </trkpt>
      <trkpt lat="40.21558" lon="45.65412">
        <ele>1919.066388</ele>
        <time>2021-08-13T11:41:42.435Z</time>
      </trkpt>
      <trkpt lat="40.21515" lon="45.65431">
        <ele>1919.395783</ele>
        <time>2021-08-13T11:42:02.951Z</time>
      </trkpt>
      <trkpt lat="40.21376" lon="45.65409">
        <ele>1920.302027</ele>
        <time>2021-08-13T11:43:05.066Z</time>
      </trkpt>
      <trkpt lat="40.21109" lon="45.65378">
        <ele>1921.192058</ele>
        <time>2021-08-13T11:45:00.275Z</time>
      </trkpt>
      <trkpt lat="40.21083" lon="45.65356">
        <ele>1921.257191</ele>
        <time>2021-08-13T11:45:13.055Z</time>
      </trkpt>
      <trkpt lat="40.20959" lon="45.65335">
        <ele>1920.86572</ele>
        <time>2021-08-13T11:46:02.843Z</time>
      </trkpt>
      <trkpt lat="40.20915" lon="45.65342">
        <ele>1920.679572</ele>
        <time>2021-08-13T11:46:19.620Z</time>
      </trkpt>
      <trkpt lat="40.20851" lon="45.65324">
        <ele>1920.232183</ele>
        <time>2021-08-13T11:46:44.386Z</time>
      </trkpt>
      <trkpt lat="40.20825" lon="45.6531">
        <ele>1919.981876</ele>
        <time>2021-08-13T11:46:54.468Z</time>
      </trkpt>
      <trkpt lat="40.20736" lon="45.65289">
        <ele>1919.148729</ele>
        <time>2021-08-13T11:47:27.736Z</time>
      </trkpt>
      <trkpt lat="40.20678" lon="45.65216">
        <ele>1918.508988</ele>
        <time>2021-08-13T11:47:56.965Z</time>
      </trkpt>
      <trkpt lat="40.20562" lon="45.65146">
        <ele>1917.575782</ele>
        <time>2021-08-13T11:48:45.284Z</time>
      </trkpt>
      <trkpt lat="40.20504" lon="45.65134">
        <ele>1917.512697</ele>
        <time>2021-08-13T11:49:08.568Z</time>
      </trkpt>
      <trkpt lat="40.20432" lon="45.651">
        <ele>1917.431058</ele>
        <time>2021-08-13T11:49:39.606Z</time>
      </trkpt>
      <trkpt lat="40.20422" lon="45.65076">
        <ele>1917.408731</ele>
        <time>2021-08-13T11:49:48.357Z</time>
      </trkpt>
      <trkpt lat="40.20389" lon="45.6507">
        <ele>1917.39465</ele>
        <time>2021-08-13T11:50:02.366Z</time>
      </trkpt>
      <trkpt lat="40.20277" lon="45.65021">
        <ele>1917.520324</ele>
        <time>2021-08-13T11:50:50.979Z</time>
      </trkpt>
      <trkpt lat="40.20139" lon="45.6498">
        <ele>1917.8562</ele>
        <time>2021-08-13T11:51:49.968Z</time>
      </trkpt>
      <trkpt lat="40.19926" lon="45.64883">
        <ele>1918.738853</ele>
        <time>2021-08-13T11:53:28.453Z</time>
      </trkpt>
      <trkpt lat="40.19778" lon="45.64825">
        <ele>1919.149761</ele>
        <time>2021-08-13T11:54:34.466Z</time>
      </trkpt>
      <trkpt lat="40.19732" lon="45.648">
        <ele>1919.246758</ele>
        <time>2021-08-13T11:54:54.894Z</time>
      </trkpt>
      <trkpt lat="40.19689" lon="45.64749">
        <ele>1919.272695</ele>
        <time>2021-08-13T11:55:18.667Z</time>
      </trkpt>
      <trkpt lat="40.19613" lon="45.64706">
        <ele>1919.240672</ele>
        <time>2021-08-13T11:55:51.969Z</time>
      </trkpt>
      <trkpt lat="40.19552" lon="45.64683">
        <ele>1919.220451</ele>
        <time>2021-08-13T11:56:17.797Z</time>
      </trkpt>
      <trkpt lat="40.1942" lon="45.64613">
        <ele>1919.325561</ele>
        <time>2021-08-13T11:57:16.823Z</time>
      </trkpt>
      <trkpt lat="40.19378" lon="45.64596">
        <ele>1919.322471</ele>
        <time>2021-08-13T11:57:35.140Z</time>
      </trkpt>
      <trkpt lat="40.19287" lon="45.64543">
        <ele>1919.05596</ele>
        <time>2021-08-13T11:58:15.978Z</time>
      </trkpt>
      <trkpt lat="40.19237" lon="45.6451">
        <ele>1918.906611</ele>
        <time>2021-08-13T11:58:37.424Z</time>
      </trkpt>
      <trkpt lat="40.19241" lon="45.64486">
        <ele>1918.813578</ele>
        <time>2021-08-13T11:58:42.556Z</time>
      </trkpt>
      <trkpt lat="40.19263" lon="45.64413">
        <ele>1918.133253</ele>
        <time>2021-08-13T11:58:58.856Z</time>
      </trkpt>
      <trkpt lat="40.19293" lon="45.6431">
        <ele>1917.178863</ele>
        <time>2021-08-13T11:59:20.966Z</time>
      </trkpt>
      <trkpt lat="40.19617" lon="45.63366">
        <ele>1907.636009</ele>
        <time>2021-08-13T12:02:49.649Z</time>
      </trkpt>
      <trkpt lat="40.19626" lon="45.63284">
        <ele>1907.036026</ele>
        <time>2021-08-13T12:03:07.033Z</time>
      </trkpt>
      <trkpt lat="40.19624" lon="45.6324">
        <ele>1906.721307</ele>
        <time>2021-08-13T12:03:16.261Z</time>
      </trkpt>
      <trkpt lat="40.19616" lon="45.63198">
        <ele>1906.412458</ele>
        <time>2021-08-13T12:03:25.401Z</time>
      </trkpt>
      <trkpt lat="40.19576" lon="45.6308">
        <ele>1906.070788</ele>
        <time>2021-08-13T12:03:53.729Z</time>
      </trkpt>
      <trkpt lat="40.19543" lon="45.62998">
        <ele>1905.868239</ele>
        <time>2021-08-13T12:04:15.301Z</time>
      </trkpt>
      <trkpt lat="40.19164" lon="45.6232">
        <ele>1907.125811</ele>
        <time>2021-08-13T12:07:45.472Z</time>
      </trkpt>
      <trkpt lat="40.19163" lon="45.62304">
        <ele>1907.10426</ele>
        <time>2021-08-13T12:07:48.837Z</time>
      </trkpt>
      <trkpt lat="40.19163" lon="45.6227">
        <ele>1907.059487</ele>
        <time>2021-08-13T12:07:56.893Z</time>
      </trkpt>
      <trkpt lat="40.19161" lon="45.62262">
        <ele>1907.048281</ele>
        <time>2021-08-13T12:07:58.519Z</time>
      </trkpt>
      <trkpt lat="40.19151" lon="45.6225">
        <ele>1907.025943</ele>
        <time>2021-08-13T12:08:02.469Z</time>
      </trkpt>
      <trkpt lat="40.1914" lon="45.62243">
        <ele>1907.004577</ele>
        <time>2021-08-13T12:08:06.188Z</time>
      </trkpt>
      <trkpt lat="40.19119" lon="45.62238">
        <ele>1906.968096</ele>
        <time>2021-08-13T12:08:12.051Z</time>
      </trkpt>
      <trkpt lat="40.1904" lon="45.62099">
        <ele>1906.350013</ele>
        <time>2021-08-13T12:08:49.578Z</time>
      </trkpt>
      <trkpt lat="40.18589" lon="45.61312">
        <ele>1904.562644</ele>
        <time>2021-08-13T12:12:35.032Z</time>
      </trkpt>
      <trkpt lat="40.18305" lon="45.60727">
        <ele>1904.524643</ele>
        <time>2021-08-13T12:15:19.316Z</time>
      </trkpt>
      <trkpt lat="40.18234" lon="45.60524">
        <ele>1905.051034</ele>
        <time>2021-08-13T12:16:16.166Z</time>
      </trkpt>
      <trkpt lat="40.18188" lon="45.60281">
        <ele>1905.837258</ele>
        <time>2021-08-13T12:17:20.783Z</time>
      </trkpt>
      <trkpt lat="40.18177" lon="45.60138">
        <ele>1906.142905</ele>
        <time>2021-08-13T12:17:57.056Z</time>
      </trkpt>
      <trkpt lat="40.18164" lon="45.59913">
        <ele>1906.400448</ele>
        <time>2021-08-13T12:18:52.258Z</time>
      </trkpt>
      <trkpt lat="40.1816" lon="45.59805">
        <ele>1906.434954</ele>
        <time>2021-08-13T12:19:17.591Z</time>
      </trkpt>
      <trkpt lat="40.1816" lon="45.59802">
        <ele>1906.435781</ele>
        <time>2021-08-13T12:19:18.204Z</time>
      </trkpt>
      <trkpt lat="40.18153" lon="45.595">
        <ele>1906.850787</ele>
        <time>2021-08-13T12:20:31.387Z</time>
      </trkpt>
      <trkpt lat="40.18149" lon="45.59337">
        <ele>1907.699583</ele>
        <time>2021-08-13T12:21:15.688Z</time>
      </trkpt>
      <trkpt lat="40.18148" lon="45.59296">
        <ele>1907.944647</ele>
        <time>2021-08-13T12:21:27.233Z</time>
      </trkpt>
      <trkpt lat="40.18144" lon="45.59106">
        <ele>1909.574258</ele>
        <time>2021-08-13T12:22:21.399Z</time>
      </trkpt>
      <trkpt lat="40.18141" lon="45.58919">
        <ele>1911.638304</ele>
        <time>2021-08-13T12:23:17.976Z</time>
      </trkpt>
      <trkpt lat="40.18137" lon="45.58785">
        <ele>1912.974084</ele>
        <time>2021-08-13T12:23:59.657Z</time>
      </trkpt>
      <trkpt lat="40.18116" lon="45.58663">
        <ele>1913.827492</ele>
        <time>2021-08-13T12:24:34.879Z</time>
      </trkpt>
      <trkpt lat="40.18082" lon="45.58572">
        <ele>1914.044995</ele>
        <time>2021-08-13T12:24:59.804Z</time>
      </trkpt>
      <trkpt lat="40.18025" lon="45.58489">
        <ele>1913.429114</ele>
        <time>2021-08-13T12:25:24.357Z</time>
      </trkpt>
      <trkpt lat="40.17923" lon="45.58277">
        <ele>1910.898604</ele>
        <time>2021-08-13T12:26:13.285Z</time>
      </trkpt>
      <trkpt lat="40.17913" lon="45.58231">
        <ele>1910.297415</ele>
        <time>2021-08-13T12:26:22.472Z</time>
      </trkpt>
      <trkpt lat="40.17906" lon="45.58199">
        <ele>1909.917915</ele>
        <time>2021-08-13T12:26:28.731Z</time>
      </trkpt>
      <trkpt lat="40.17883" lon="45.58094">
        <ele>1908.915439</ele>
        <time>2021-08-13T12:26:50.029Z</time>
      </trkpt>
      <trkpt lat="40.17843" lon="45.57909">
        <ele>1907.646871</ele>
        <time>2021-08-13T12:27:30.842Z</time>
      </trkpt>
      <trkpt lat="40.17808" lon="45.57745">
        <ele>1907.194791</ele>
        <time>2021-08-13T12:28:10.687Z</time>
      </trkpt>
      <trkpt lat="40.17772" lon="45.57579">
        <ele>1906.907544</ele>
        <time>2021-08-13T12:28:51.032Z</time>
      </trkpt>
      <trkpt lat="40.17768" lon="45.57562">
        <ele>1906.879299</ele>
        <time>2021-08-13T12:28:54.856Z</time>
      </trkpt>
      <trkpt lat="40.17767" lon="45.57553">
        <ele>1906.864242</ele>
        <time>2021-08-13T12:28:56.865Z</time>
      </trkpt>
      <trkpt lat="40.1775" lon="45.57465">
        <ele>1906.576785</ele>
        <time>2021-08-13T12:29:16.926Z</time>
      </trkpt>
      <trkpt lat="40.17717" lon="45.57278">
        <ele>1905.94221</ele>
        <time>2021-08-13T12:29:58.859Z</time>
      </trkpt>
      <trkpt lat="40.177" lon="45.57129">
        <ele>1905.889408</ele>
        <time>2021-08-13T12:30:33.575Z</time>
      </trkpt>
      <trkpt lat="40.1768" lon="45.56946">
        <ele>1906.533033</ele>
        <time>2021-08-13T12:31:21.477Z</time>
      </trkpt>
      <trkpt lat="40.17673" lon="45.56866">
        <ele>1906.973379</ele>
        <time>2021-08-13T12:31:44.242Z</time>
      </trkpt>
      <trkpt lat="40.17653" lon="45.56539">
        <ele>1909.214161</ele>
        <time>2021-08-13T12:33:16.596Z</time>
      </trkpt>
      <trkpt lat="40.17645" lon="45.56456">
        <ele>1909.621037</ele>
        <time>2021-08-13T12:33:38.844Z</time>
      </trkpt>
      <trkpt lat="40.17545" lon="45.55284">
        <ele>1913.514033</ele>
        <time>2021-08-13T12:38:39.809Z</time>
      </trkpt>
      <trkpt lat="40.17535" lon="45.55194">
        <ele>1913.916377</ele>
        <time>2021-08-13T12:39:04.901Z</time>
      </trkpt>
      <trkpt lat="40.1752" lon="45.55025">
        <ele>1914.704949</ele>
        <time>2021-08-13T12:39:50.293Z</time>
      </trkpt>
      <trkpt lat="40.17516" lon="45.54992">
        <ele>1914.859289</ele>
        <time>2021-08-13T12:39:58.678Z</time>
      </trkpt>
      <trkpt lat="40.175" lon="45.54817">
        <ele>1915.580905</ele>
        <time>2021-08-13T12:40:43.995Z</time>
      </trkpt>
      <trkpt lat="40.17489" lon="45.54687">
        <ele>1916.173148</ele>
        <time>2021-08-13T12:41:18.968Z</time>
      </trkpt>
      <trkpt lat="40.17473" lon="45.54492">
        <ele>1917.268133</ele>
        <time>2021-08-13T12:42:12.932Z</time>
      </trkpt>
      <trkpt lat="40.17467" lon="45.54431">
        <ele>1917.314662</ele>
        <time>2021-08-13T12:42:28.521Z</time>
      </trkpt>
      <trkpt lat="40.1745" lon="45.54336">
        <ele>1917.387163</ele>
        <time>2021-08-13T12:42:51.695Z</time>
      </trkpt>
      <trkpt lat="40.17432" lon="45.54258">
        <ele>1917.411358</ele>
        <time>2021-08-13T12:43:10.655Z</time>
      </trkpt>
      <trkpt lat="40.17411" lon="45.54209">
        <ele>1917.203786</ele>
        <time>2021-08-13T12:43:22.974Z</time>
      </trkpt>
      <trkpt lat="40.1734" lon="45.54087">
        <ele>1916.630364</ele>
        <time>2021-08-13T12:43:56.722Z</time>
      </trkpt>
      <trkpt lat="40.172" lon="45.53846">
        <ele>1915.105442</ele>
        <time>2021-08-13T12:45:01.512Z</time>
      </trkpt>
      <trkpt lat="40.17138" lon="45.53738">
        <ele>1914.582779</ele>
        <time>2021-08-13T12:45:31.315Z</time>
      </trkpt>
      <trkpt lat="40.17007" lon="45.5351">
        <ele>1913.775484</ele>
        <time>2021-08-13T12:46:35.607Z</time>
      </trkpt>
      <trkpt lat="40.167" lon="45.52974">
        <ele>1911.693577</ele>
        <time>2021-08-13T12:49:04.317Z</time>
      </trkpt>
      <trkpt lat="40.16691" lon="45.52958">
        <ele>1911.637054</ele>
        <time>2021-08-13T12:49:08.819Z</time>
      </trkpt>
      <trkpt lat="40.16387" lon="45.52428">
        <ele>1911.62205</ele>
        <time>2021-08-13T12:51:47.014Z</time>
      </trkpt>
      <trkpt lat="40.16311" lon="45.52292">
        <ele>1911.62581</ele>
        <time>2021-08-13T12:52:28.147Z</time>
      </trkpt>
      <trkpt lat="40.16292" lon="45.52245">
        <ele>1911.619257</ele>
        <time>2021-08-13T12:52:40.887Z</time>
      </trkpt>
      <trkpt lat="40.16275" lon="45.52158">
        <ele>1911.555456</ele>
        <time>2021-08-13T12:53:01.776Z</time>
      </trkpt>
      <trkpt lat="40.1627" lon="45.51864">
        <ele>1910.584182</ele>
        <time>2021-08-13T12:54:06.227Z</time>
      </trkpt>
      <trkpt lat="40.16266" lon="45.51751">
        <ele>1910.251771</ele>
        <time>2021-08-13T12:54:31.271Z</time>
      </trkpt>
      <trkpt lat="40.16247" lon="45.51132">
        <ele>1910.351584</ele>
        <time>2021-08-13T12:57:02.711Z</time>
      </trkpt>
      <trkpt lat="40.16245" lon="45.51098">
        <ele>1910.273717</ele>
        <time>2021-08-13T12:57:10.403Z</time>
      </trkpt>
      <trkpt lat="40.16232" lon="45.50664">
        <ele>1908.089988</ele>
        <time>2021-08-13T12:58:43.135Z</time>
      </trkpt>
      <trkpt lat="40.16231" lon="45.50653">
        <ele>1908.014457</ele>
        <time>2021-08-13T12:58:45.549Z</time>
      </trkpt>
      <trkpt lat="40.16231" lon="45.5064">
        <ele>1907.927645</ele>
        <time>2021-08-13T12:58:48.302Z</time>
      </trkpt>
      <trkpt lat="40.1623" lon="45.506">
        <ele>1907.661915</ele>
        <time>2021-08-13T12:58:56.653Z</time>
      </trkpt>
      <trkpt lat="40.16225" lon="45.50516">
        <ele>1907.120446</ele>
        <time>2021-08-13T12:59:14.049Z</time>
      </trkpt>
      <trkpt lat="40.16216" lon="45.50419">
        <ele>1906.570089</ele>
        <time>2021-08-13T12:59:34.447Z</time>
      </trkpt>
      <trkpt lat="40.16201" lon="45.5035">
        <ele>1906.166493</ele>
        <time>2021-08-13T12:59:49.793Z</time>
      </trkpt>
      <trkpt lat="40.16166" lon="45.50285">
        <ele>1905.852398</ele>
        <time>2021-08-13T13:00:07.254Z</time>
      </trkpt>
      <trkpt lat="40.16113" lon="45.50193">
        <ele>1905.801895</ele>
        <time>2021-08-13T13:00:34.425Z</time>
      </trkpt>
      <trkpt lat="40.16068" lon="45.50099">
        <ele>1905.752977</ele>
        <time>2021-08-13T13:01:01.865Z</time>
      </trkpt>
      <trkpt lat="40.16049" lon="45.5004">
        <ele>1905.723941</ele>
        <time>2021-08-13T13:01:17.583Z</time>
      </trkpt>
      <trkpt lat="40.16028" lon="45.49948">
        <ele>1905.679932</ele>
        <time>2021-08-13T13:01:39.932Z</time>
      </trkpt>
      <trkpt lat="40.16007" lon="45.49852">
        <ele>1905.509783</ele>
        <time>2021-08-13T13:02:02.573Z</time>
      </trkpt>
      <trkpt lat="40.16005" lon="45.49842">
        <ele>1905.47255</ele>
        <time>2021-08-13T13:02:04.813Z</time>
      </trkpt>
      <trkpt lat="40.15996" lon="45.49783">
        <ele>1905.25923</ele>
        <time>2021-08-13T13:02:18.364Z</time>
      </trkpt>
      <trkpt lat="40.15988" lon="45.49701">
        <ele>1904.966102</ele>
        <time>2021-08-13T13:02:36.401Z</time>
      </trkpt>
      <trkpt lat="40.15988" lon="45.49664">
        <ele>1904.835241</ele>
        <time>2021-08-13T13:02:44.358Z</time>
      </trkpt>
      <trkpt lat="40.16005" lon="45.49535">
        <ele>1904.574973</ele>
        <time>2021-08-13T13:03:13.365Z</time>
      </trkpt>
      <trkpt lat="40.16011" lon="45.49491">
        <ele>1904.488509</ele>
        <time>2021-08-13T13:03:23.984Z</time>
      </trkpt>
      <trkpt lat="40.16018" lon="45.49439">
        <ele>1904.387903</ele>
        <time>2021-08-13T13:03:36.516Z</time>
      </trkpt>
      <trkpt lat="40.16029" lon="45.49357">
        <ele>1904.766894</ele>
        <time>2021-08-13T13:03:57.154Z</time>
      </trkpt>
      <trkpt lat="40.16031" lon="45.49341">
        <ele>1904.857558</ele>
        <time>2021-08-13T13:04:01.450Z</time>
      </trkpt>
      <trkpt lat="40.16033" lon="45.49325">
        <ele>1904.946974</ele>
        <time>2021-08-13T13:04:05.541Z</time>
      </trkpt>
      <trkpt lat="40.16115" lon="45.48691">
        <ele>1909.072059</ele>
        <time>2021-08-13T13:07:02.440Z</time>
      </trkpt>
      <trkpt lat="40.16119" lon="45.4866">
        <ele>1909.441914</ele>
        <time>2021-08-13T13:07:11.635Z</time>
      </trkpt>
      <trkpt lat="40.16216" lon="45.47933">
        <ele>1917.97845</ele>
        <time>2021-08-13T13:11:00.674Z</time>
      </trkpt>
      <trkpt lat="40.16222" lon="45.47878">
        <ele>1918.406499</ele>
        <time>2021-08-13T13:11:15.892Z</time>
      </trkpt>
      <trkpt lat="40.16229" lon="45.47812">
        <ele>1918.927996</ele>
        <time>2021-08-13T13:11:33.018Z</time>
      </trkpt>
      <trkpt lat="40.16232" lon="45.47784">
        <ele>1918.957631</ele>
        <time>2021-08-13T13:11:40.058Z</time>
      </trkpt>
      <trkpt lat="40.16264" lon="45.47491">
        <ele>1918.686714</ele>
        <time>2021-08-13T13:12:46.375Z</time>
      </trkpt>
      <trkpt lat="40.16267" lon="45.4747">
        <ele>1918.722712</ele>
        <time>2021-08-13T13:12:51.787Z</time>
      </trkpt>
      <trkpt lat="40.16302" lon="45.47161">
        <ele>1919.671638</ele>
        <time>2021-08-13T13:14:14.441Z</time>
      </trkpt>
      <trkpt lat="40.16304" lon="45.47142">
        <ele>1919.750329</ele>
        <time>2021-08-13T13:14:19.269Z</time>
      </trkpt>
      <trkpt lat="40.16321" lon="45.47002">
        <ele>1920.043584</ele>
        <time>2021-08-13T13:14:54.372Z</time>
      </trkpt>
      <trkpt lat="40.16347" lon="45.46787">
        <ele>1920.40623</ele>
        <time>2021-08-13T13:15:47.360Z</time>
      </trkpt>
      <trkpt lat="40.1635" lon="45.46764">
        <ele>1920.45737</ele>
        <time>2021-08-13T13:15:53.421Z</time>
      </trkpt>
      <trkpt lat="40.1636" lon="45.46676">
        <ele>1920.649521</ele>
        <time>2021-08-13T13:16:16.301Z</time>
      </trkpt>
      <trkpt lat="40.16364" lon="45.46634">
        <ele>1920.747436</ele>
        <time>2021-08-13T13:16:27.284Z</time>
      </trkpt>
      <trkpt lat="40.163" lon="45.4665">
        <ele>1921.013219</ele>
        <time>2021-08-13T13:16:49.701Z</time>
      </trkpt>
      <trkpt lat="40.16285" lon="45.4663">
        <ele>1921.099669</ele>
        <time>2021-08-13T13:16:57.126Z</time>
      </trkpt>
      <trkpt lat="40.16261" lon="45.46583">
        <ele>1921.274407</ele>
        <time>2021-08-13T13:17:12.193Z</time>
      </trkpt>
      <trkpt lat="40.16301" lon="45.46559">
        <ele>1921.451975</ele>
        <time>2021-08-13T13:17:27.606Z</time>
      </trkpt>
      <trkpt lat="40.16289" lon="45.46528">
        <ele>1921.581096</ele>
        <time>2021-08-13T13:17:37.162Z</time>
      </trkpt>
      <trkpt lat="40.16223" lon="45.46336">
        <ele>1922.347382</ele>
        <time>2021-08-13T13:18:33.833Z</time>
      </trkpt>
      <trkpt lat="40.16188" lon="45.46223">
        <ele>1922.564764</ele>
        <time>2021-08-13T13:19:06.002Z</time>
      </trkpt>
      <trkpt lat="40.16178" lon="45.46225">
        <ele>1922.588435</ele>
        <time>2021-08-13T13:19:09.464Z</time>
      </trkpt>
      <trkpt lat="40.16036" lon="45.45813">
        <ele>1923.086882</ele>
        <time>2021-08-13T13:21:00.845Z</time>
      </trkpt>
      <trkpt lat="40.15912" lon="45.45439">
        <ele>1925.871448</ele>
        <time>2021-08-13T13:22:59.605Z</time>
      </trkpt>
      <trkpt lat="40.15873" lon="45.45323">
        <ele>1926.984332</ele>
        <time>2021-08-13T13:23:38.558Z</time>
      </trkpt>
      <trkpt lat="40.15752" lon="45.44972">
        <ele>1929.607701</ele>
        <time>2021-08-13T13:25:29.402Z</time>
      </trkpt>
      <trkpt lat="40.15709" lon="45.44988">
        <ele>1929.909952</ele>
        <time>2021-08-13T13:25:45.150Z</time>
      </trkpt>
      <trkpt lat="40.15679" lon="45.44841">
        <ele>1930.587069</ele>
        <time>2021-08-13T13:26:24.625Z</time>
      </trkpt>
      <trkpt lat="40.1568" lon="45.44718">
        <ele>1931.05109</ele>
        <time>2021-08-13T13:26:56.477Z</time>
      </trkpt>
      <trkpt lat="40.15687" lon="45.44685">
        <ele>1931.181081</ele>
        <time>2021-08-13T13:27:05.440Z</time>
      </trkpt>
      <trkpt lat="40.15654" lon="45.44563">
        <ele>1931.739839</ele>
        <time>2021-08-13T13:27:39.133Z</time>
      </trkpt>
      <trkpt lat="40.15632" lon="45.44452">
        <ele>1932.226408</ele>
        <time>2021-08-13T13:28:09.650Z</time>
      </trkpt>
      <trkpt lat="40.15582" lon="45.44198">
        <ele>1932.94123</ele>
        <time>2021-08-13T13:29:16.873Z</time>
      </trkpt>
      <trkpt lat="40.15489" lon="45.43947">
        <ele>1933.338067</ele>
        <time>2021-08-13T13:30:22.428Z</time>
      </trkpt>
      <trkpt lat="40.15467" lon="45.43885">
        <ele>1933.653083</ele>
        <time>2021-08-13T13:30:40.261Z</time>
      </trkpt>
      <trkpt lat="40.1546" lon="45.43865">
        <ele>1933.753427</ele>
        <time>2021-08-13T13:30:46.202Z</time>
      </trkpt>
      <trkpt lat="40.15457" lon="45.43854">
        <ele>1933.803064</ele>
        <time>2021-08-13T13:30:49.366Z</time>
      </trkpt>
      <trkpt lat="40.1544" lon="45.43796">
        <ele>1934.131286</ele>
        <time>2021-08-13T13:31:08.045Z</time>
      </trkpt>
      <trkpt lat="40.15416" lon="45.43705">
        <ele>1934.998508</ele>
        <time>2021-08-13T13:31:37.184Z</time>
      </trkpt>
      <trkpt lat="40.15396" lon="45.43628">
        <ele>1935.73649</ele>
        <time>2021-08-13T13:32:00.394Z</time>
      </trkpt>
      <trkpt lat="40.15388" lon="45.43598">
        <ele>1936.022004</ele>
        <time>2021-08-13T13:32:09.296Z</time>
      </trkpt>
      <trkpt lat="40.15366" lon="45.43515">
        <ele>1936.51021</ele>
        <time>2021-08-13T13:32:33.914Z</time>
      </trkpt>
      <trkpt lat="40.15337" lon="45.43403">
        <ele>1937.077852</ele>
        <time>2021-08-13T13:33:05.014Z</time>
      </trkpt>
      <trkpt lat="40.15331" lon="45.43357">
        <ele>1937.297093</ele>
        <time>2021-08-13T13:33:16.285Z</time>
      </trkpt>
      <trkpt lat="40.15315" lon="45.43248">
        <ele>1937.412601</ele>
        <time>2021-08-13T13:33:43.558Z</time>
      </trkpt>
      <trkpt lat="40.15303" lon="45.43164">
        <ele>1937.5021</ele>
        <time>2021-08-13T13:34:04.994Z</time>
      </trkpt>
      <trkpt lat="40.15302" lon="45.43148">
        <ele>1937.518952</ele>
        <time>2021-08-13T13:34:08.750Z</time>
      </trkpt>
      <trkpt lat="40.15293" lon="45.43042">
        <ele>1937.370125</ele>
        <time>2021-08-13T13:34:33.655Z</time>
      </trkpt>
      <trkpt lat="40.15292" lon="45.42924">
        <ele>1937.131939</ele>
        <time>2021-08-13T13:35:00.384Z</time>
      </trkpt>
      <trkpt lat="40.15287" lon="45.4281">
        <ele>1936.721736</ele>
        <time>2021-08-13T13:35:25.596Z</time>
      </trkpt>
      <trkpt lat="40.15281" lon="45.42702">
        <ele>1936.26886</ele>
        <time>2021-08-13T13:35:48.812Z</time>
      </trkpt>
      <trkpt lat="40.15264" lon="45.42582">
        <ele>1935.951422</ele>
        <time>2021-08-13T13:36:15.815Z</time>
      </trkpt>
      <trkpt lat="40.15254" lon="45.42517">
        <ele>1935.843625</ele>
        <time>2021-08-13T13:36:30.754Z</time>
      </trkpt>
      <trkpt lat="40.15139" lon="45.41897">
        <ele>1935.958651</ele>
        <time>2021-08-13T13:39:06.528Z</time>
      </trkpt>
      <trkpt lat="40.15136" lon="45.41879">
        <ele>1935.918222</ele>
        <time>2021-08-13T13:39:10.834Z</time>
      </trkpt>
      <trkpt lat="40.15073" lon="45.41601">
        <ele>1935.063252</ele>
        <time>2021-08-13T13:40:14.320Z</time>
      </trkpt>
      <trkpt lat="40.15061" lon="45.41546">
        <ele>1934.848252</ele>
        <time>2021-08-13T13:40:27.062Z</time>
      </trkpt>
      <trkpt lat="40.15037" lon="45.41433">
        <ele>1934.591933</ele>
        <time>2021-08-13T13:40:53.419Z</time>
      </trkpt>
      <trkpt lat="40.15031" lon="45.41411">
        <ele>1934.552896</ele>
        <time>2021-08-13T13:40:58.728Z</time>
      </trkpt>
      <trkpt lat="40.14976" lon="45.41187">
        <ele>1934.31272</ele>
        <time>2021-08-13T13:41:53.970Z</time>
      </trkpt>
      <trkpt lat="40.14961" lon="45.41125">
        <ele>1934.292259</ele>
        <time>2021-08-13T13:42:09.759Z</time>
      </trkpt>
      <trkpt lat="40.149" lon="45.40884">
        <ele>1934.212505</ele>
        <time>2021-08-13T13:43:09.647Z</time>
      </trkpt>
      <trkpt lat="40.1467" lon="45.39946">
        <ele>1934.146197</ele>
        <time>2021-08-13T13:47:04.185Z</time>
      </trkpt>
      <trkpt lat="40.14661" lon="45.39909">
        <ele>1934.17904</ele>
        <time>2021-08-13T13:47:13.508Z</time>
      </trkpt>
      <trkpt lat="40.1464" lon="45.39829">
        <ele>1934.250515</ele>
        <time>2021-08-13T13:47:34.042Z</time>
      </trkpt>
      <trkpt lat="40.1454" lon="45.3931">
        <ele>1934.667525</ele>
        <time>2021-08-13T13:49:45.346Z</time>
      </trkpt>
      <trkpt lat="40.14477" lon="45.38924">
        <ele>1933.424237</ele>
        <time>2021-08-13T13:51:12.583Z</time>
      </trkpt>
      <trkpt lat="40.14458" lon="45.38743">
        <ele>1932.681606</ele>
        <time>2021-08-13T13:51:53.324Z</time>
      </trkpt>
      <trkpt lat="40.14446" lon="45.38589">
        <ele>1931.911049</ele>
        <time>2021-08-13T13:52:26.577Z</time>
      </trkpt>
      <trkpt lat="40.14421" lon="45.38264">
        <ele>1930.003543</ele>
        <time>2021-08-13T13:53:34.535Z</time>
      </trkpt>
      <trkpt lat="40.14411" lon="45.38154">
        <ele>1929.7599</ele>
        <time>2021-08-13T13:54:00.509Z</time>
      </trkpt>
      <trkpt lat="40.144" lon="45.38031">
        <ele>1929.697387</ele>
        <time>2021-08-13T13:54:31.762Z</time>
      </trkpt>
      <trkpt lat="40.14339" lon="45.37351">
        <ele>1930.089248</ele>
        <time>2021-08-13T13:57:16.809Z</time>
      </trkpt>
      <trkpt lat="40.14347" lon="45.37225">
        <ele>1930.128176</ele>
        <time>2021-08-13T13:57:46.791Z</time>
      </trkpt>
      <trkpt lat="40.14376" lon="45.36943">
        <ele>1930.316777</ele>
        <time>2021-08-13T13:58:55.790Z</time>
      </trkpt>
      <trkpt lat="40.14391" lon="45.36866">
        <ele>1930.352522</ele>
        <time>2021-08-13T13:59:15.533Z</time>
      </trkpt>
      <trkpt lat="40.14422" lon="45.36766">
        <ele>1930.396938</ele>
        <time>2021-08-13T13:59:41.747Z</time>
      </trkpt>
      <trkpt lat="40.14541" lon="45.36446">
        <ele>1930.22919</ele>
        <time>2021-08-13T14:01:04.438Z</time>
      </trkpt>
      <trkpt lat="40.14557" lon="45.3639">
        <ele>1930.276274</ele>
        <time>2021-08-13T14:01:18.690Z</time>
      </trkpt>
      <trkpt lat="40.14569" lon="45.36349">
        <ele>1930.311183</ele>
        <time>2021-08-13T14:01:29.435Z</time>
      </trkpt>
      <trkpt lat="40.14575" lon="45.3632">
        <ele>1930.334663</ele>
        <time>2021-08-13T14:01:36.615Z</time>
      </trkpt>
      <trkpt lat="40.14593" lon="45.36244">
        <ele>1930.488381</ele>
        <time>2021-08-13T14:01:57.447Z</time>
      </trkpt>
      <trkpt lat="40.1463" lon="45.36088">
        <ele>1930.963381</ele>
        <time>2021-08-13T14:02:38.627Z</time>
      </trkpt>
      <trkpt lat="40.14645" lon="45.36022">
        <ele>1931.122355</ele>
        <time>2021-08-13T14:02:56.879Z</time>
      </trkpt>
      <trkpt lat="40.14655" lon="45.35971">
        <ele>1931.218441</ele>
        <time>2021-08-13T14:03:10.534Z</time>
      </trkpt>
      <trkpt lat="40.14667" lon="45.35861">
        <ele>1931.420568</ele>
        <time>2021-08-13T14:03:37.681Z</time>
      </trkpt>
      <trkpt lat="40.14673" lon="45.35767">
        <ele>1931.427773</ele>
        <time>2021-08-13T14:03:59.687Z</time>
      </trkpt>
      <trkpt lat="40.14681" lon="45.35625">
        <ele>1931.307807</ele>
        <time>2021-08-13T14:04:32.676Z</time>
      </trkpt>
      <trkpt lat="40.14681" lon="45.35612">
        <ele>1931.297314</ele>
        <time>2021-08-13T14:04:35.451Z</time>
      </trkpt>
      <trkpt lat="40.14683" lon="45.35583">
        <ele>1931.296536</ele>
        <time>2021-08-13T14:04:42.457Z</time>
      </trkpt>
      <trkpt lat="40.14691" lon="45.35426">
        <ele>1931.515964</ele>
        <time>2021-08-13T14:05:20.751Z</time>
      </trkpt>
      <trkpt lat="40.14652" lon="45.35129">
        <ele>1932.183075</ele>
        <time>2021-08-13T14:06:38.030Z</time>
      </trkpt>
      <trkpt lat="40.14597" lon="45.34721">
        <ele>1932.016613</ele>
        <time>2021-08-13T14:08:14.984Z</time>
      </trkpt>
      <trkpt lat="40.14561" lon="45.34085">
        <ele>1932.378131</ele>
        <time>2021-08-13T14:10:51.861Z</time>
      </trkpt>
      <trkpt lat="40.14545" lon="45.33775">
        <ele>1930.914499</ele>
        <time>2021-08-13T14:11:58.088Z</time>
      </trkpt>
      <trkpt lat="40.14528" lon="45.3346">
        <ele>1928.589129</ele>
        <time>2021-08-13T14:13:03.509Z</time>
      </trkpt>
      <trkpt lat="40.14519" lon="45.33267">
        <ele>1927.061732</ele>
        <time>2021-08-13T14:13:43.495Z</time>
      </trkpt>
      <trkpt lat="40.14518" lon="45.33244">
        <ele>1926.874256</ele>
        <time>2021-08-13T14:13:48.232Z</time>
      </trkpt>
      <trkpt lat="40.1451" lon="45.33143">
        <ele>1925.994735</ele>
        <time>2021-08-13T14:14:08.815Z</time>
      </trkpt>
      <trkpt lat="40.14485" lon="45.32755">
        <ele>1922.973369</ele>
        <time>2021-08-13T14:15:28.233Z</time>
      </trkpt>
      <trkpt lat="40.14484" lon="45.32695">
        <ele>1922.939878</ele>
        <time>2021-08-13T14:15:42.057Z</time>
      </trkpt>
      <trkpt lat="40.14484" lon="45.32695">
        <ele>1922.939878</ele>
        <time>2021-08-13T14:15:42.060Z</time>
      </trkpt>
      <trkpt lat="40.14421" lon="45.327">
        <ele>1922.894323</ele>
        <time>2021-08-13T14:16:15.203Z</time>
      </trkpt>
      <trkpt lat="40.14413" lon="45.32551">
        <ele>1923.182493</ele>
        <time>2021-08-13T14:16:55.538Z</time>
      </trkpt>
      <trkpt lat="40.14416" lon="45.3254">
        <ele>1923.228273</ele>
        <time>2021-08-13T14:16:59.039Z</time>
      </trkpt>
      <trkpt lat="40.14413" lon="45.32521">
        <ele>1923.296154</ele>
        <time>2021-08-13T14:17:04.001Z</time>
      </trkpt>
      <trkpt lat="40.14403" lon="45.3233">
        <ele>1924.02535</ele>
        <time>2021-08-13T14:17:55.317Z</time>
      </trkpt>
      <trkpt lat="40.14394" lon="45.32315">
        <ele>1924.104076</ele>
        <time>2021-08-13T14:18:00.585Z</time>
      </trkpt>
      <trkpt lat="40.14388" lon="45.32313">
        <ele>1924.13665</ele>
        <time>2021-08-13T14:18:02.863Z</time>
      </trkpt>
      <trkpt lat="40.1436" lon="45.32339">
        <ele>1924.321739</ele>
        <time>2021-08-13T14:18:15.017Z</time>
      </trkpt>
      <trkpt lat="40.14328" lon="45.3236">
        <ele>1924.511468</ele>
        <time>2021-08-13T14:18:27.620Z</time>
      </trkpt>
      <trkpt lat="40.14294" lon="45.32381">
        <ele>1924.668884</ele>
        <time>2021-08-13T14:18:40.470Z</time>
      </trkpt>
      <trkpt lat="40.142" lon="45.32433">
        <ele>1924.614391</ele>
        <time>2021-08-13T14:19:13.493Z</time>
      </trkpt>
      <trkpt lat="40.14247" lon="45.32104">
        <ele>1923.722165</ele>
        <time>2021-08-13T14:20:29.795Z</time>
      </trkpt>
      <trkpt lat="40.14193" lon="45.32088">
        <ele>1924.001077</ele>
        <time>2021-08-13T14:20:48.325Z</time>
      </trkpt>
      <trkpt lat="40.14134" lon="45.3207">
        <ele>1924.309015</ele>
        <time>2021-08-13T14:21:09.959Z</time>
      </trkpt>
      <trkpt lat="40.14076" lon="45.32053">
        <ele>1924.6117</ele>
        <time>2021-08-13T14:21:32.416Z</time>
      </trkpt>
      <trkpt lat="40.13961" lon="45.32026">
        <ele>1925.778344</ele>
        <time>2021-08-13T14:22:17.489Z</time>
      </trkpt>
      <trkpt lat="40.13864" lon="45.31998">
        <ele>1926.664416</ele>
        <time>2021-08-13T14:22:54.806Z</time>
      </trkpt>
      <trkpt lat="40.13816" lon="45.31984">
        <ele>1927.024259</ele>
        <time>2021-08-13T14:23:12.648Z</time>
      </trkpt>
      <trkpt lat="40.13735" lon="45.31949">
        <ele>1927.645607</ele>
        <time>2021-08-13T14:23:43.460Z</time>
      </trkpt>
      <trkpt lat="40.13744" lon="45.31896">
        <ele>1927.903769</ele>
        <time>2021-08-13T14:23:57.831Z</time>
      </trkpt>
      <trkpt lat="40.13759" lon="45.31806">
        <ele>1928.317586</ele>
        <time>2021-08-13T14:24:21.872Z</time>
      </trkpt>
      <trkpt lat="40.1377" lon="45.31733">
        <ele>1928.653695</ele>
        <time>2021-08-13T14:24:40.952Z</time>
      </trkpt>
      <trkpt lat="40.13729" lon="45.31707">
        <ele>1929.069939</ele>
        <time>2021-08-13T14:24:57.783Z</time>
      </trkpt>
      <trkpt lat="40.1368" lon="45.31656">
        <ele>1929.776412</ele>
        <time>2021-08-13T14:25:21.622Z</time>
      </trkpt>
      <trkpt lat="40.13644" lon="45.31638">
        <ele>1930.214246</ele>
        <time>2021-08-13T14:25:36.891Z</time>
      </trkpt>
      <trkpt lat="40.13603" lon="45.31618">
        <ele>1930.711583</ele>
        <time>2021-08-13T14:25:54.615Z</time>
      </trkpt>
      <trkpt lat="40.13596" lon="45.31615">
        <ele>1930.80455</ele>
        <time>2021-08-13T14:25:57.842Z</time>
      </trkpt>
      <trkpt lat="40.13539" lon="45.31593">
        <ele>1931.422245</ele>
        <time>2021-08-13T14:26:21.357Z</time>
      </trkpt>
      <trkpt lat="40.13533" lon="45.3159">
        <ele>1931.484453</ele>
        <time>2021-08-13T14:26:23.731Z</time>
      </trkpt>
      <trkpt lat="40.13476" lon="45.31552">
        <ele>1932.154317</ele>
        <time>2021-08-13T14:26:48.716Z</time>
      </trkpt>
      <trkpt lat="40.13528" lon="45.31346">
        <ele>1933.623209</ele>
        <time>2021-08-13T14:27:48.162Z</time>
      </trkpt>
      <trkpt lat="40.13551" lon="45.31236">
        <ele>1934.509529</ele>
        <time>2021-08-13T14:28:21.361Z</time>
      </trkpt>
      <trkpt lat="40.13577" lon="45.31111">
        <ele>1936.118019</ele>
        <time>2021-08-13T14:29:02.807Z</time>
      </trkpt>
      <trkpt lat="40.13473" lon="45.31017">
        <ele>1938.157605</ele>
        <time>2021-08-13T14:29:57.418Z</time>
      </trkpt>
      <trkpt lat="40.1347" lon="45.31014">
        <ele>1938.216126</ele>
        <time>2021-08-13T14:29:59.560Z</time>
      </trkpt>
      <trkpt lat="40.13411" lon="45.30959">
        <ele>1939.382234</ele>
        <time>2021-08-13T14:30:29.269Z</time>
      </trkpt>
      <trkpt lat="40.13425" lon="45.3091">
        <ele>1939.997241</ele>
        <time>2021-08-13T14:30:44.762Z</time>
      </trkpt>
      <trkpt lat="40.13389" lon="45.30883">
        <ele>1940.385642</ele>
        <time>2021-08-13T14:31:00.615Z</time>
      </trkpt>
      <trkpt lat="40.13245" lon="45.30777">
        <ele>1942.114902</ele>
        <time>2021-08-13T14:32:01.614Z</time>
      </trkpt>
      <trkpt lat="40.13256" lon="45.30664">
        <ele>1943.47772</ele>
        <time>2021-08-13T14:32:37.623Z</time>
      </trkpt>
      <trkpt lat="40.13265" lon="45.30577">
        <ele>1944.546471</ele>
        <time>2021-08-13T14:33:06.813Z</time>
      </trkpt>
      <trkpt lat="40.13271" lon="45.30507">
        <ele>1945.802999</ele>
        <time>2021-08-13T14:33:29.841Z</time>
      </trkpt>
      <trkpt lat="40.1328" lon="45.30429">
        <ele>1947.206652</ele>
        <time>2021-08-13T14:33:57.238Z</time>
      </trkpt>
      <trkpt lat="40.13292" lon="45.30363">
        <ele>1948.412447</ele>
        <time>2021-08-13T14:34:21.316Z</time>
      </trkpt>
      <trkpt lat="40.1331" lon="45.30323">
        <ele>1949.566943</ele>
        <time>2021-08-13T14:34:38.567Z</time>
      </trkpt>
      <trkpt lat="40.13093" lon="45.30216">
        <ele>1957.818737</ele>
        <time>2021-08-13T14:36:42.866Z</time>
      </trkpt>
      <trkpt lat="40.12989" lon="45.30178">
        <ele>1961.58544</ele>
        <time>2021-08-13T14:37:39.055Z</time>
      </trkpt>
      <trkpt lat="40.12956" lon="45.30147">
        <ele>1962.658428</ele>
        <time>2021-08-13T14:37:58.196Z</time>
      </trkpt>
      <trkpt lat="40.12944" lon="45.30123">
        <ele>1963.236658</ele>
        <time>2021-08-13T14:38:08.992Z</time>
      </trkpt>
      <trkpt lat="40.1295" lon="45.30017">
        <ele>1965.40346</ele>
        <time>2021-08-13T14:38:46.969Z</time>
      </trkpt>
      <trkpt lat="40.12955" lon="45.30006">
        <ele>1965.66352</ele>
        <time>2021-08-13T14:38:50.799Z</time>
      </trkpt>
      <trkpt lat="40.12919" lon="45.29974">
        <ele>1966.85183</ele>
        <time>2021-08-13T14:39:09.776Z</time>
      </trkpt>
      <trkpt lat="40.12818" lon="45.29858">
        <ele>1970.623367</ele>
        <time>2021-08-13T14:40:12.588Z</time>
      </trkpt>
      <trkpt lat="40.1279" lon="45.29817">
        <ele>1972.006859</ele>
        <time>2021-08-13T14:40:33.196Z</time>
      </trkpt>
      <trkpt lat="40.12696" lon="45.2966">
        <ele>1977.90002</ele>
        <time>2021-08-13T14:41:55.061Z</time>
      </trkpt>
      <trkpt lat="40.12649" lon="45.29591">
        <ele>1980.64048</ele>
        <time>2021-08-13T14:42:34.325Z</time>
      </trkpt>
      <trkpt lat="40.12515" lon="45.29435">
        <ele>1986.924197</ele>
        <time>2021-08-13T14:44:07.265Z</time>
      </trkpt>
      <trkpt lat="40.12489" lon="45.2941">
        <ele>1987.828792</ele>
        <time>2021-08-13T14:44:21.817Z</time>
      </trkpt>
      <trkpt lat="40.12432" lon="45.29354">
        <ele>1989.816763</ele>
        <time>2021-08-13T14:44:53.133Z</time>
      </trkpt>
      <trkpt lat="40.12313" lon="45.29266">
        <ele>1992.683865</ele>
        <time>2021-08-13T14:45:50.642Z</time>
      </trkpt>
      <trkpt lat="40.12252" lon="45.29225">
        <ele>1994.044707</ele>
        <time>2021-08-13T14:46:20.328Z</time>
      </trkpt>
      <trkpt lat="40.12177" lon="45.29189">
        <ele>1995.450151</ele>
        <time>2021-08-13T14:46:53.081Z</time>
      </trkpt>
      <trkpt lat="40.12048" lon="45.29137">
        <ele>1998.136617</ele>
        <time>2021-08-13T14:47:47.201Z</time>
      </trkpt>
      <trkpt lat="40.12013" lon="45.29123">
        <ele>1999.046699</ele>
        <time>2021-08-13T14:48:03.415Z</time>
      </trkpt>
      <trkpt lat="40.11975" lon="45.29109">
        <ele>2000.001903</ele>
        <time>2021-08-13T14:48:21.214Z</time>
      </trkpt>
      <trkpt lat="40.11905" lon="45.29088">
        <ele>2001.896215</ele>
        <time>2021-08-13T14:48:55.683Z</time>
      </trkpt>
      <trkpt lat="40.11826" lon="45.29063">
        <ele>2004.787939</ele>
        <time>2021-08-13T14:49:37.969Z</time>
      </trkpt>
      <trkpt lat="40.11751" lon="45.2904">
        <ele>2007.532691</ele>
        <time>2021-08-13T14:50:17.563Z</time>
      </trkpt>
      <trkpt lat="40.11699" lon="45.29025">
        <ele>2009.600777</ele>
        <time>2021-08-13T14:50:44.530Z</time>
      </trkpt>
      <trkpt lat="40.11626" lon="45.2899">
        <ele>2012.653171</ele>
        <time>2021-08-13T14:51:25.396Z</time>
      </trkpt>
      <trkpt lat="40.11574" lon="45.28969">
        <ele>2014.812948</ele>
        <time>2021-08-13T14:51:55.355Z</time>
      </trkpt>
      <trkpt lat="40.11411" lon="45.28901">
        <ele>2022.381191</ele>
        <time>2021-08-13T14:53:32.771Z</time>
      </trkpt>
      <trkpt lat="40.11358" lon="45.28879">
        <ele>2024.26176</ele>
        <time>2021-08-13T14:54:02.833Z</time>
      </trkpt>
      <trkpt lat="40.11294" lon="45.28833">
        <ele>2026.523204</ele>
        <time>2021-08-13T14:54:39.222Z</time>
      </trkpt>
      <trkpt lat="40.1117" lon="45.2876">
        <ele>2030.18144</ele>
        <time>2021-08-13T14:55:39.629Z</time>
      </trkpt>
      <trkpt lat="40.11163" lon="45.28756">
        <ele>2030.368937</ele>
        <time>2021-08-13T14:55:43.587Z</time>
      </trkpt>
      <trkpt lat="40.11114" lon="45.28725">
        <ele>2031.631045</ele>
        <time>2021-08-13T14:56:07.390Z</time>
      </trkpt>
      <trkpt lat="40.11044" lon="45.28704">
        <ele>2033.580345</ele>
        <time>2021-08-13T14:56:41.422Z</time>
      </trkpt>
      <trkpt lat="40.10911" lon="45.28664">
        <ele>2037.978876</ele>
        <time>2021-08-13T14:57:50.748Z</time>
      </trkpt>
      <trkpt lat="40.1067" lon="45.28601">
        <ele>2047.14711</ele>
        <time>2021-08-13T15:00:03.411Z</time>
      </trkpt>
      <trkpt lat="40.10462" lon="45.28544">
        <ele>2054.528143</ele>
        <time>2021-08-13T15:01:53.927Z</time>
      </trkpt>
      <trkpt lat="40.10429" lon="45.28535">
        <ele>2055.628129</ele>
        <time>2021-08-13T15:02:10.820Z</time>
      </trkpt>
      <trkpt lat="40.10288" lon="45.28498">
        <ele>2060.262338</ele>
        <time>2021-08-13T15:03:21.527Z</time>
      </trkpt>
      <trkpt lat="40.10146" lon="45.28439">
        <ele>2065.320198</ele>
        <time>2021-08-13T15:04:37.721Z</time>
      </trkpt>
      <trkpt lat="40.1008" lon="45.2842">
        <ele>2067.89302</ele>
        <time>2021-08-13T15:05:13.744Z</time>
      </trkpt>
      <trkpt lat="40.10052" lon="45.2843">
        <ele>2069.003295</ele>
        <time>2021-08-13T15:05:29.970Z</time>
      </trkpt>
      <trkpt lat="40.10016" lon="45.28416">
        <ele>2070.456307</ele>
        <time>2021-08-13T15:05:51.070Z</time>
      </trkpt>
      <trkpt lat="40.09979" lon="45.2841">
        <ele>2072.179104</ele>
        <time>2021-08-13T15:06:12.373Z</time>
      </trkpt>
      <trkpt lat="40.09941" lon="45.28384">
        <ele>2074.158931</ele>
        <time>2021-08-13T15:06:36.589Z</time>
      </trkpt>
      <trkpt lat="40.09894" lon="45.28423">
        <ele>2076.739365</ele>
        <time>2021-08-13T15:07:10.942Z</time>
      </trkpt>
      <trkpt lat="40.09867" lon="45.28454">
        <ele>2078.389395</ele>
        <time>2021-08-13T15:07:32.104Z</time>
      </trkpt>
      <trkpt lat="40.09834" lon="45.28465">
        <ele>2079.839988</ele>
        <time>2021-08-13T15:07:51.477Z</time>
      </trkpt>
      <trkpt lat="40.09807" lon="45.28487">
        <ele>2081.203683</ele>
        <time>2021-08-13T15:08:09.464Z</time>
      </trkpt>
      <trkpt lat="40.09792" lon="45.28503">
        <ele>2082.001517</ele>
        <time>2021-08-13T15:08:21.881Z</time>
      </trkpt>
      <trkpt lat="40.09774" lon="45.28495">
        <ele>2082.827805</ele>
        <time>2021-08-13T15:08:31.627Z</time>
      </trkpt>
      <trkpt lat="40.09715" lon="45.2847">
        <ele>2085.446191</ele>
        <time>2021-08-13T15:09:04.881Z</time>
      </trkpt>
      <trkpt lat="40.09672" lon="45.28455">
        <ele>2086.962299</ele>
        <time>2021-08-13T15:09:27.764Z</time>
      </trkpt>
      <trkpt lat="40.09652" lon="45.28453">
        <ele>2087.537119</ele>
        <time>2021-08-13T15:09:39.422Z</time>
      </trkpt>
      <trkpt lat="40.09621" lon="45.28454">
        <ele>2088.431934</ele>
        <time>2021-08-13T15:09:53.532Z</time>
      </trkpt>
      <trkpt lat="40.09577" lon="45.28465">
        <ele>2089.713664</ele>
        <time>2021-08-13T15:10:13.942Z</time>
      </trkpt>
      <trkpt lat="40.09462" lon="45.28469">
        <ele>2091.545573</ele>
        <time>2021-08-13T15:11:04.223Z</time>
      </trkpt>
      <trkpt lat="40.09416" lon="45.28488">
        <ele>2091.743336</ele>
        <time>2021-08-13T15:11:19.758Z</time>
      </trkpt>
      <trkpt lat="40.09382" lon="45.28492">
        <ele>2091.885333</ele>
        <time>2021-08-13T15:11:29.662Z</time>
      </trkpt>
      <trkpt lat="40.09292" lon="45.28498">
        <ele>2090.974756</ele>
        <time>2021-08-13T15:11:52.993Z</time>
      </trkpt>
      <trkpt lat="40.09221" lon="45.28518">
        <ele>2089.497773</ele>
        <time>2021-08-13T15:12:10.357Z</time>
      </trkpt>
      <trkpt lat="40.09024" lon="45.28633">
        <ele>2084.966031</ele>
        <time>2021-08-13T15:13:02.050Z</time>
      </trkpt>
      <trkpt lat="40.09011" lon="45.2863">
        <ele>2084.684181</ele>
        <time>2021-08-13T15:13:05.366Z</time>
      </trkpt>
      <trkpt lat="40.08997" lon="45.2862">
        <ele>2084.75838</ele>
        <time>2021-08-13T15:13:09.594Z</time>
      </trkpt>
      <trkpt lat="40.08988" lon="45.28607">
        <ele>2085.023627</ele>
        <time>2021-08-13T15:13:12.913Z</time>
      </trkpt>
      <trkpt lat="40.08972" lon="45.28569">
        <ele>2085.6871</ele>
        <time>2021-08-13T15:13:22.852Z</time>
      </trkpt>
      <trkpt lat="40.08968" lon="45.28561">
        <ele>2085.826885</ele>
        <time>2021-08-13T15:13:25.401Z</time>
      </trkpt>
      <trkpt lat="40.08963" lon="45.28542">
        <ele>2086.130786</ele>
        <time>2021-08-13T15:13:32.206Z</time>
      </trkpt>
      <trkpt lat="40.08926" lon="45.28434">
        <ele>2087.922575</ele>
        <time>2021-08-13T15:14:12.729Z</time>
      </trkpt>
      <trkpt lat="40.08901" lon="45.28417">
        <ele>2089.632666</ele>
        <time>2021-08-13T15:14:32.531Z</time>
      </trkpt>
      <trkpt lat="40.08876" lon="45.28395">
        <ele>2092.110115</ele>
        <time>2021-08-13T15:14:56.634Z</time>
      </trkpt>
      <trkpt lat="40.0885" lon="45.28367">
        <ele>2094.899696</ele>
        <time>2021-08-13T15:15:24.150Z</time>
      </trkpt>
      <trkpt lat="40.08825" lon="45.28329">
        <ele>2098.138516</ele>
        <time>2021-08-13T15:15:56.785Z</time>
      </trkpt>
      <trkpt lat="40.08812" lon="45.283">
        <ele>2100.245494</ele>
        <time>2021-08-13T15:16:19.443Z</time>
      </trkpt>
      <trkpt lat="40.08772" lon="45.28295">
        <ele>2103.592282</ele>
        <time>2021-08-13T15:16:53.965Z</time>
      </trkpt>
      <trkpt lat="40.08531" lon="45.28364">
        <ele>2124.171553</ele>
        <time>2021-08-13T15:20:10.960Z</time>
      </trkpt>
      <trkpt lat="40.08514" lon="45.28357">
        <ele>2125.42349</ele>
        <time>2021-08-13T15:20:21.198Z</time>
      </trkpt>
      <trkpt lat="40.08509" lon="45.28351">
        <ele>2125.885815</ele>
        <time>2021-08-13T15:20:28.085Z</time>
      </trkpt>
      <trkpt lat="40.08505" lon="45.28345">
        <ele>2126.37354</ele>
        <time>2021-08-13T15:20:32.498Z</time>
      </trkpt>
      <trkpt lat="40.08493" lon="45.28299">
        <ele>2129.006909</ele>
        <time>2021-08-13T15:20:56.868Z</time>
      </trkpt>
      <trkpt lat="40.08494" lon="45.28276">
        <ele>2130.25174</ele>
        <time>2021-08-13T15:21:06.422Z</time>
      </trkpt>
      <trkpt lat="40.08501" lon="45.28251">
        <ele>2131.735171</ele>
        <time>2021-08-13T15:21:21.229Z</time>
      </trkpt>
      <trkpt lat="40.08514" lon="45.2823">
        <ele>2132.888058</ele>
        <time>2021-08-13T15:21:32.815Z</time>
      </trkpt>
      <trkpt lat="40.08531" lon="45.28215">
        <ele>2134.016518</ele>
        <time>2021-08-13T15:21:46.396Z</time>
      </trkpt>
      <trkpt lat="40.0866" lon="45.28127">
        <ele>2142.031806</ele>
        <time>2021-08-13T15:23:13.456Z</time>
      </trkpt>
      <trkpt lat="40.08661" lon="45.28112">
        <ele>2142.878582</ele>
        <time>2021-08-13T15:23:21.454Z</time>
      </trkpt>
      <trkpt lat="40.08651" lon="45.28097">
        <ele>2143.96287</ele>
        <time>2021-08-13T15:23:31.750Z</time>
      </trkpt>
      <trkpt lat="40.08573" lon="45.2809">
        <ele>2149.449101</ele>
        <time>2021-08-13T15:24:26.180Z</time>
      </trkpt>
      <trkpt lat="40.08398" lon="45.28102">
        <ele>2162.930922</ele>
        <time>2021-08-13T15:26:39.352Z</time>
      </trkpt>
      <trkpt lat="40.08262" lon="45.28102">
        <ele>2174.050672</ele>
        <time>2021-08-13T15:28:24.517Z</time>
      </trkpt>
      <trkpt lat="40.0813" lon="45.2805">
        <ele>2185.424191</ele>
        <time>2021-08-13T15:30:12.553Z</time>
      </trkpt>
      <trkpt lat="40.07837" lon="45.27874">
        <ele>2210.108351</ele>
        <time>2021-08-13T15:34:14.542Z</time>
      </trkpt>
      <trkpt lat="40.07751" lon="45.27857">
        <ele>2214.474588</ele>
        <time>2021-08-13T15:35:07.077Z</time>
      </trkpt>
      <trkpt lat="40.07687" lon="45.27829">
        <ele>2217.445942</ele>
        <time>2021-08-13T15:35:42.862Z</time>
      </trkpt>
      <trkpt lat="40.07641" lon="45.27803">
        <ele>2219.561784</ele>
        <time>2021-08-13T15:36:07.411Z</time>
      </trkpt>
      <trkpt lat="40.07332" lon="45.27613">
        <ele>2229.993736</ele>
        <time>2021-08-13T15:38:52.299Z</time>
      </trkpt>
      <trkpt lat="40.07124" lon="45.27422">
        <ele>2235.784752</ele>
        <time>2021-08-13T15:40:49.811Z</time>
      </trkpt>
      <trkpt lat="40.06917" lon="45.27291">
        <ele>2236.287152</ele>
        <time>2021-08-13T15:42:01.645Z</time>
      </trkpt>
      <trkpt lat="40.06877" lon="45.27249">
        <ele>2235.990845</ele>
        <time>2021-08-13T15:42:14.940Z</time>
      </trkpt>
      <trkpt lat="40.06854" lon="45.27206">
        <ele>2235.038884</ele>
        <time>2021-08-13T15:42:25.157Z</time>
      </trkpt>
      <trkpt lat="40.06823" lon="45.27159">
        <ele>2233.417874</ele>
        <time>2021-08-13T15:42:36.536Z</time>
      </trkpt>
      <trkpt lat="40.06805" lon="45.27123">
        <ele>2232.293452</ele>
        <time>2021-08-13T15:42:43.765Z</time>
      </trkpt>
      <trkpt lat="40.06796" lon="45.27041">
        <ele>2230.126701</ele>
        <time>2021-08-13T15:42:57.485Z</time>
      </trkpt>
      <trkpt lat="40.06783" lon="45.26992">
        <ele>2228.217236</ele>
        <time>2021-08-13T15:43:05.968Z</time>
      </trkpt>
      <trkpt lat="40.06772" lon="45.26976">
        <ele>2227.340735</ele>
        <time>2021-08-13T15:43:09.356Z</time>
      </trkpt>
      <trkpt lat="40.06751" lon="45.26965">
        <ele>2226.153774</ele>
        <time>2021-08-13T15:43:14.114Z</time>
      </trkpt>
      <trkpt lat="40.0673" lon="45.26956">
        <ele>2224.963652</ele>
        <time>2021-08-13T15:43:18.779Z</time>
      </trkpt>
      <trkpt lat="40.06575" lon="45.26928">
        <ele>2218.224115</ele>
        <time>2021-08-13T15:43:51.149Z</time>
      </trkpt>
      <trkpt lat="40.06552" lon="45.26925">
        <ele>2217.558263</ele>
        <time>2021-08-13T15:43:56.355Z</time>
      </trkpt>
      <trkpt lat="40.0653" lon="45.26909">
        <ele>2216.836665</ele>
        <time>2021-08-13T15:44:02.159Z</time>
      </trkpt>
      <trkpt lat="40.0651" lon="45.26892">
        <ele>2216.116212</ele>
        <time>2021-08-13T15:44:08.532Z</time>
      </trkpt>
      <trkpt lat="40.06447" lon="45.26766">
        <ele>2216.999552</ele>
        <time>2021-08-13T15:44:46.666Z</time>
      </trkpt>
      <trkpt lat="40.06414" lon="45.26713">
        <ele>2218.483263</ele>
        <time>2021-08-13T15:45:15.566Z</time>
      </trkpt>
      <trkpt lat="40.06257" lon="45.26507">
        <ele>2228.104961</ele>
        <time>2021-08-13T15:47:27.575Z</time>
      </trkpt>
      <trkpt lat="40.06236" lon="45.2649">
        <ele>2229.05439</ele>
        <time>2021-08-13T15:47:40.663Z</time>
      </trkpt>
      <trkpt lat="40.06196" lon="45.26469">
        <ele>2230.410193</ele>
        <time>2021-08-13T15:48:03.378Z</time>
      </trkpt>
      <trkpt lat="40.06172" lon="45.2646">
        <ele>2231.167086</ele>
        <time>2021-08-13T15:48:15.157Z</time>
      </trkpt>
      <trkpt lat="40.06162" lon="45.26455">
        <ele>2231.514501</ele>
        <time>2021-08-13T15:48:20.796Z</time>
      </trkpt>
      <trkpt lat="40.05981" lon="45.26406">
        <ele>2236.99524</ele>
        <time>2021-08-13T15:49:42.289Z</time>
      </trkpt>
      <trkpt lat="40.05865" lon="45.26373">
        <ele>2241.219874</ele>
        <time>2021-08-13T15:50:40.940Z</time>
      </trkpt>
      <trkpt lat="40.05848" lon="45.26368">
        <ele>2242.151033</ele>
        <time>2021-08-13T15:50:51.408Z</time>
      </trkpt>
      <trkpt lat="40.05814" lon="45.26352">
        <ele>2243.992535</ele>
        <time>2021-08-13T15:51:12.175Z</time>
      </trkpt>
      <trkpt lat="40.05787" lon="45.26331">
        <ele>2245.638235</ele>
        <time>2021-08-13T15:51:31.635Z</time>
      </trkpt>
      <trkpt lat="40.05682" lon="45.26234">
        <ele>2253.300397</ele>
        <time>2021-08-13T15:53:00.416Z</time>
      </trkpt>
      <trkpt lat="40.05634" lon="45.26181">
        <ele>2257.391393</ele>
        <time>2021-08-13T15:53:44.306Z</time>
      </trkpt>
      <trkpt lat="40.05608" lon="45.26135">
        <ele>2260.286622</ele>
        <time>2021-08-13T15:54:12.740Z</time>
      </trkpt>
      <trkpt lat="40.05596" lon="45.26112">
        <ele>2261.54205</ele>
        <time>2021-08-13T15:54:26.645Z</time>
      </trkpt>
      <trkpt lat="40.05512" lon="45.25957">
        <ele>2270.054283</ele>
        <time>2021-08-13T15:55:59.034Z</time>
      </trkpt>
      <trkpt lat="40.05503" lon="45.2594">
        <ele>2270.973256</ele>
        <time>2021-08-13T15:56:09.369Z</time>
      </trkpt>
      <trkpt lat="40.05485" lon="45.25917">
        <ele>2272.704674</ele>
        <time>2021-08-13T15:56:24.197Z</time>
      </trkpt>
      <trkpt lat="40.05434" lon="45.25879">
        <ele>2276.78099</ele>
        <time>2021-08-13T15:57:02.863Z</time>
      </trkpt>
      <trkpt lat="40.05202" lon="45.2573">
        <ele>2296.110227</ele>
        <time>2021-08-13T16:00:16.802Z</time>
      </trkpt>
      <trkpt lat="40.05123" lon="45.25694">
        <ele>2301.876511</ele>
        <time>2021-08-13T16:01:19.400Z</time>
      </trkpt>
      <trkpt lat="40.04932" lon="45.25626">
        <ele>2312.441715</ele>
        <time>2021-08-13T16:03:28.113Z</time>
      </trkpt>
      <trkpt lat="40.04907" lon="45.25622">
        <ele>2313.282921</ele>
        <time>2021-08-13T16:03:40.334Z</time>
      </trkpt>
      <trkpt lat="40.0482" lon="45.25614">
        <ele>2315.311778</ele>
        <time>2021-08-13T16:04:12.643Z</time>
      </trkpt>
      <trkpt lat="40.04758" lon="45.25605">
        <ele>2313.640425</ele>
        <time>2021-08-13T16:04:28.368Z</time>
      </trkpt>
      <trkpt lat="40.04713" lon="45.25603">
        <ele>2312.470357</ele>
        <time>2021-08-13T16:04:38.305Z</time>
      </trkpt>
      <trkpt lat="40.04704" lon="45.25604">
        <ele>2312.21716</ele>
        <time>2021-08-13T16:04:40.472Z</time>
      </trkpt>
      <trkpt lat="40.04685" lon="45.25606">
        <ele>2311.719282</ele>
        <time>2021-08-13T16:04:44.476Z</time>
      </trkpt>
      <trkpt lat="40.04641" lon="45.25622">
        <ele>2310.136959</ele>
        <time>2021-08-13T16:04:54.158Z</time>
      </trkpt>
      <trkpt lat="40.04538" lon="45.25679">
        <ele>2304.688161</ele>
        <time>2021-08-13T16:05:17.593Z</time>
      </trkpt>
      <trkpt lat="40.04533" lon="45.25682">
        <ele>2304.41465</ele>
        <time>2021-08-13T16:05:18.683Z</time>
      </trkpt>
      <trkpt lat="40.04476" lon="45.25708">
        <ele>2301.77674</ele>
        <time>2021-08-13T16:05:31.917Z</time>
      </trkpt>
      <trkpt lat="40.04456" lon="45.25711">
        <ele>2301.167063</ele>
        <time>2021-08-13T16:05:36.308Z</time>
      </trkpt>
      <trkpt lat="40.04421" lon="45.25699">
        <ele>2300.08168</ele>
        <time>2021-08-13T16:05:44.489Z</time>
      </trkpt>
      <trkpt lat="40.04382" lon="45.25664">
        <ele>2298.663933</ele>
        <time>2021-08-13T16:05:55.505Z</time>
      </trkpt>
      <trkpt lat="40.04316" lon="45.25588">
        <ele>2296.085193</ele>
        <time>2021-08-13T16:06:17.329Z</time>
      </trkpt>
      <trkpt lat="40.04149" lon="45.25373">
        <ele>2288.790851</ele>
        <time>2021-08-13T16:07:11.557Z</time>
      </trkpt>
      <trkpt lat="40.04122" lon="45.25343">
        <ele>2287.439825</ele>
        <time>2021-08-13T16:07:19.141Z</time>
      </trkpt>
      <trkpt lat="40.04017" lon="45.25222">
        <ele>2282.460369</ele>
        <time>2021-08-13T16:07:49.357Z</time>
      </trkpt>
      <trkpt lat="40.0378" lon="45.24953">
        <ele>2274.476944</ele>
        <time>2021-08-13T16:09:04.523Z</time>
      </trkpt>
      <trkpt lat="40.03744" lon="45.24913">
        <ele>2273.909268</ele>
        <time>2021-08-13T16:09:16.919Z</time>
      </trkpt>
      <trkpt lat="40.03701" lon="45.24855">
        <ele>2273.16027</ele>
        <time>2021-08-13T16:09:33.846Z</time>
      </trkpt>
      <trkpt lat="40.03664" lon="45.24817">
        <ele>2272.626467</ele>
        <time>2021-08-13T16:09:47.425Z</time>
      </trkpt>
      <trkpt lat="40.03641" lon="45.24781">
        <ele>2272.379681</ele>
        <time>2021-08-13T16:09:57.721Z</time>
      </trkpt>
      <trkpt lat="40.03597" lon="45.24687">
        <ele>2271.798669</ele>
        <time>2021-08-13T16:10:22.162Z</time>
      </trkpt>
      <trkpt lat="40.03592" lon="45.24677">
        <ele>2271.73634</ele>
        <time>2021-08-13T16:10:24.768Z</time>
      </trkpt>
      <trkpt lat="40.03572" lon="45.24641">
        <ele>2271.502558</ele>
        <time>2021-08-13T16:10:34.096Z</time>
      </trkpt>
      <trkpt lat="40.03543" lon="45.2461">
        <ele>2271.034095</ele>
        <time>2021-08-13T16:10:44.100Z</time>
      </trkpt>
      <trkpt lat="40.03481" lon="45.24566">
        <ele>2270.054154</ele>
        <time>2021-08-13T16:11:01.747Z</time>
      </trkpt>
      <trkpt lat="40.03315" lon="45.24461">
        <ele>2268.766919</ele>
        <time>2021-08-13T16:11:49.415Z</time>
      </trkpt>
      <trkpt lat="40.031" lon="45.24324">
        <ele>2271.986879</ele>
        <time>2021-08-13T16:13:25.399Z</time>
      </trkpt>
      <trkpt lat="40.03087" lon="45.24316">
        <ele>2272.280536</ele>
        <time>2021-08-13T16:13:33.743Z</time>
      </trkpt>
      <trkpt lat="40.02877" lon="45.2418">
        <ele>2280.589342</ele>
        <time>2021-08-13T16:15:38.736Z</time>
      </trkpt>
      <trkpt lat="40.02802" lon="45.24127">
        <ele>2283.038507</ele>
        <time>2021-08-13T16:16:18.604Z</time>
      </trkpt>
      <trkpt lat="40.02736" lon="45.24073">
        <ele>2284.657618</ele>
        <time>2021-08-13T16:16:51.475Z</time>
      </trkpt>
      <trkpt lat="40.02576" lon="45.23913">
        <ele>2286.468574</ele>
        <time>2021-08-13T16:18:03.023Z</time>
      </trkpt>
      <trkpt lat="40.02543" lon="45.23887">
        <ele>2286.626645</ele>
        <time>2021-08-13T16:18:15.120Z</time>
      </trkpt>
      <trkpt lat="40.02467" lon="45.23844">
        <ele>2286.9754</ele>
        <time>2021-08-13T16:18:41.836Z</time>
      </trkpt>
      <trkpt lat="40.02416" lon="45.23825">
        <ele>2287.520463</ele>
        <time>2021-08-13T16:18:59.406Z</time>
      </trkpt>
      <trkpt lat="40.02345" lon="45.23813">
        <ele>2288.268173</ele>
        <time>2021-08-13T16:19:24.942Z</time>
      </trkpt>
      <trkpt lat="40.02165" lon="45.23795">
        <ele>2291.662429</ele>
        <time>2021-08-13T16:20:41.215Z</time>
      </trkpt>
      <trkpt lat="40.02143" lon="45.23794">
        <ele>2292.142</ele>
        <time>2021-08-13T16:20:51.245Z</time>
      </trkpt>
      <trkpt lat="40.02105" lon="45.23777">
        <ele>2293.098504</ele>
        <time>2021-08-13T16:21:10.061Z</time>
      </trkpt>
      <trkpt lat="40.02088" lon="45.23762">
        <ele>2293.709841</ele>
        <time>2021-08-13T16:21:19.626Z</time>
      </trkpt>
      <trkpt lat="40.01917" lon="45.23526">
        <ele>2300.802149</ele>
        <time>2021-08-13T16:23:20.430Z</time>
      </trkpt>
      <trkpt lat="40.0189" lon="45.23494">
        <ele>2301.722004</ele>
        <time>2021-08-13T16:23:37.025Z</time>
      </trkpt>
      <trkpt lat="40.01843" lon="45.23455">
        <ele>2302.997552</ele>
        <time>2021-08-13T16:24:01.204Z</time>
      </trkpt>
      <trkpt lat="40.01755" lon="45.23392">
        <ele>2303.475411</ele>
        <time>2021-08-13T16:24:36.957Z</time>
      </trkpt>
      <trkpt lat="40.01659" lon="45.23314">
        <ele>2303.405614</ele>
        <time>2021-08-13T16:25:09.500Z</time>
      </trkpt>
      <trkpt lat="40.01609" lon="45.23281">
        <ele>2302.846847</ele>
        <time>2021-08-13T16:25:24.180Z</time>
      </trkpt>
      <trkpt lat="40.01426" lon="45.23244">
        <ele>2300.850721</ele>
        <time>2021-08-13T16:26:13.391Z</time>
      </trkpt>
      <trkpt lat="40.01397" lon="45.23244">
        <ele>2300.525067</ele>
        <time>2021-08-13T16:26:21.118Z</time>
      </trkpt>
      <trkpt lat="40.01224" lon="45.23287">
        <ele>2298.361375</ele>
        <time>2021-08-13T16:27:08.166Z</time>
      </trkpt>
      <trkpt lat="40.01191" lon="45.23295">
        <ele>2297.92844</ele>
        <time>2021-08-13T16:27:17.009Z</time>
      </trkpt>
      <trkpt lat="40.01068" lon="45.23326">
        <ele>2295.505865</ele>
        <time>2021-08-13T16:27:48.081Z</time>
      </trkpt>
      <trkpt lat="40.00742" lon="45.23449">
        <ele>2288.319062</ele>
        <time>2021-08-13T16:29:08.792Z</time>
      </trkpt>
      <trkpt lat="40.00715" lon="45.23457">
        <ele>2287.895299</ele>
        <time>2021-08-13T16:29:16.004Z</time>
      </trkpt>
      <trkpt lat="40.00691" lon="45.23455">
        <ele>2287.538566</ele>
        <time>2021-08-13T16:29:22.505Z</time>
      </trkpt>
      <trkpt lat="40.00675" lon="45.23451">
        <ele>2287.29802</ele>
        <time>2021-08-13T16:29:26.611Z</time>
      </trkpt>
      <trkpt lat="40.00539" lon="45.23407">
        <ele>2287.742778</ele>
        <time>2021-08-13T16:30:13.984Z</time>
      </trkpt>
      <trkpt lat="40.00437" lon="45.23363">
        <ele>2288.44362</ele>
        <time>2021-08-13T16:30:56.735Z</time>
      </trkpt>
      <trkpt lat="40.00254" lon="45.23292">
        <ele>2288.755329</ele>
        <time>2021-08-13T16:31:58.865Z</time>
      </trkpt>
      <trkpt lat="40.00226" lon="45.23285">
        <ele>2288.515899</ele>
        <time>2021-08-13T16:32:06.472Z</time>
      </trkpt>
      <trkpt lat="40.00093" lon="45.23277">
        <ele>2287.130572</ele>
        <time>2021-08-13T16:32:40.968Z</time>
      </trkpt>
      <trkpt lat="39.9998" lon="45.23313">
        <ele>2285.306276</ele>
        <time>2021-08-13T16:33:10.448Z</time>
      </trkpt>
      <trkpt lat="39.99926" lon="45.23309">
        <ele>2284.489878</ele>
        <time>2021-08-13T16:33:24.047Z</time>
      </trkpt>
      <trkpt lat="39.99843" lon="45.23289">
        <ele>2283.263858</ele>
        <time>2021-08-13T16:33:45.302Z</time>
      </trkpt>
      <trkpt lat="39.99794" lon="45.23288">
        <ele>2282.546889</ele>
        <time>2021-08-13T16:33:58.044Z</time>
      </trkpt>
      <trkpt lat="39.99704" lon="45.23307">
        <ele>2282.104933</ele>
        <time>2021-08-13T16:34:22.826Z</time>
      </trkpt>
      <trkpt lat="39.99475" lon="45.23325">
        <ele>2282.587871</ele>
        <time>2021-08-13T16:35:38.333Z</time>
      </trkpt>
      <trkpt lat="39.99314" lon="45.23359">
        <ele>2284.005739</ele>
        <time>2021-08-13T16:36:38.929Z</time>
      </trkpt>
      <trkpt lat="39.99236" lon="45.23358">
        <ele>2284.804113</ele>
        <time>2021-08-13T16:37:08.006Z</time>
      </trkpt>
      <trkpt lat="39.99169" lon="45.23364">
        <ele>2285.192593</ele>
        <time>2021-08-13T16:37:32.168Z</time>
      </trkpt>
      <trkpt lat="39.99137" lon="45.23377">
        <ele>2285.387906</ele>
        <time>2021-08-13T16:37:43.842Z</time>
      </trkpt>
      <trkpt lat="39.99082" lon="45.23409">
        <ele>2285.730589</ele>
        <time>2021-08-13T16:38:03.410Z</time>
      </trkpt>
      <trkpt lat="39.99033" lon="45.23443">
        <ele>2285.8037</ele>
        <time>2021-08-13T16:38:20.907Z</time>
      </trkpt>
      <trkpt lat="39.98908" lon="45.23545">
        <ele>2285.752005</ele>
        <time>2021-08-13T16:39:05.382Z</time>
      </trkpt>
      <trkpt lat="39.98876" lon="45.23562">
        <ele>2286.094416</ele>
        <time>2021-08-13T16:39:16.065Z</time>
      </trkpt>
      <trkpt lat="39.98844" lon="45.23564">
        <ele>2286.416171</ele>
        <time>2021-08-13T16:39:26.996Z</time>
      </trkpt>
      <trkpt lat="39.98825" lon="45.23556">
        <ele>2286.617405</ele>
        <time>2021-08-13T16:39:34.184Z</time>
      </trkpt>
      <trkpt lat="39.98797" lon="45.23529">
        <ele>2286.966949</ele>
        <time>2021-08-13T16:39:47.525Z</time>
      </trkpt>
      <trkpt lat="39.98756" lon="45.23475">
        <ele>2287.590183</ele>
        <time>2021-08-13T16:40:11.613Z</time>
      </trkpt>
      <trkpt lat="39.98673" lon="45.23366">
        <ele>2289.728081</ele>
        <time>2021-08-13T16:41:03.625Z</time>
      </trkpt>
      <trkpt lat="39.98607" lon="45.23258">
        <ele>2290.63715</ele>
        <time>2021-08-13T16:41:43.372Z</time>
      </trkpt>
      <trkpt lat="39.98593" lon="45.23232">
        <ele>2290.583996</ele>
        <time>2021-08-13T16:41:50.682Z</time>
      </trkpt>
      <trkpt lat="39.98572" lon="45.23204">
        <ele>2290.51789</ele>
        <time>2021-08-13T16:41:59.437Z</time>
      </trkpt>
      <trkpt lat="39.98537" lon="45.23173">
        <ele>2290.424603</ele>
        <time>2021-08-13T16:42:11.003Z</time>
      </trkpt>
      <trkpt lat="39.98493" lon="45.23159">
        <ele>2290.270724</ele>
        <time>2021-08-13T16:42:22.795Z</time>
      </trkpt>
      <trkpt lat="39.98433" lon="45.23166">
        <ele>2289.837913</ele>
        <time>2021-08-13T16:42:38.497Z</time>
      </trkpt>
      <trkpt lat="39.98366" lon="45.2319">
        <ele>2289.343145</ele>
        <time>2021-08-13T16:42:57.675Z</time>
      </trkpt>
      <trkpt lat="39.97949" lon="45.23392">
        <ele>2289.799682</ele>
        <time>2021-08-13T16:45:22.077Z</time>
      </trkpt>
      <trkpt lat="39.97846" lon="45.23445">
        <ele>2289.658252</ele>
        <time>2021-08-13T16:45:55.199Z</time>
      </trkpt>
      <trkpt lat="39.97817" lon="45.23465">
        <ele>2289.629679</ele>
        <time>2021-08-13T16:46:04.781Z</time>
      </trkpt>
      <trkpt lat="39.97765" lon="45.23517">
        <ele>2289.633926</ele>
        <time>2021-08-13T16:46:24.245Z</time>
      </trkpt>
      <trkpt lat="39.97645" lon="45.23662">
        <ele>2289.63155</ele>
        <time>2021-08-13T16:47:17.467Z</time>
      </trkpt>
      <trkpt lat="39.97602" lon="45.2373">
        <ele>2289.621285</ele>
        <time>2021-08-13T16:47:37.537Z</time>
      </trkpt>
      <trkpt lat="39.97571" lon="45.2383">
        <ele>2289.969815</ele>
        <time>2021-08-13T16:48:02.711Z</time>
      </trkpt>
      <trkpt lat="39.97566" lon="45.23842">
        <ele>2290.106536</ele>
        <time>2021-08-13T16:48:06.627Z</time>
      </trkpt>
      <trkpt lat="39.9754" lon="45.23863">
        <ele>2290.482012</ele>
        <time>2021-08-13T16:48:16.662Z</time>
      </trkpt>
      <trkpt lat="39.97508" lon="45.23882">
        <ele>2290.909602</ele>
        <time>2021-08-13T16:48:28.983Z</time>
      </trkpt>
      <trkpt lat="39.9721" lon="45.24074">
        <ele>2298.338004</ele>
        <time>2021-08-13T16:50:58.309Z</time>
      </trkpt>
      <trkpt lat="39.97153" lon="45.24089">
        <ele>2299.945206</ele>
        <time>2021-08-13T16:51:26.280Z</time>
      </trkpt>
      <trkpt lat="39.971" lon="45.24086">
        <ele>2301.412529</ele>
        <time>2021-08-13T16:51:50.920Z</time>
      </trkpt>
      <trkpt lat="39.97001" lon="45.24061">
        <ele>2304.618408</ele>
        <time>2021-08-13T16:52:38.492Z</time>
      </trkpt>
      <trkpt lat="39.96939" lon="45.24034">
        <ele>2306.699622</ele>
        <time>2021-08-13T16:53:11.213Z</time>
      </trkpt>
      <trkpt lat="39.96907" lon="45.24012">
        <ele>2308.601293</ele>
        <time>2021-08-13T16:53:30.470Z</time>
      </trkpt>
      <trkpt lat="39.96866" lon="45.23962">
        <ele>2311.670078</ele>
        <time>2021-08-13T16:54:01.798Z</time>
      </trkpt>
      <trkpt lat="39.96738" lon="45.23736">
        <ele>2326.432851</ele>
        <time>2021-08-13T16:56:32.691Z</time>
      </trkpt>
      <trkpt lat="39.96715" lon="45.23702">
        <ele>2329.127484</ele>
        <time>2021-08-13T16:57:01.452Z</time>
      </trkpt>
      <trkpt lat="39.96693" lon="45.23685">
        <ele>2331.215185</ele>
        <time>2021-08-13T16:57:23.133Z</time>
      </trkpt>
      <trkpt lat="39.9658" lon="45.23632">
        <ele>2343.31042</ele>
        <time>2021-08-13T16:59:09.763Z</time>
      </trkpt>
      <trkpt lat="39.96511" lon="45.23611">
        <ele>2350.306607</ele>
        <time>2021-08-13T17:00:12.995Z</time>
      </trkpt>
      <trkpt lat="39.96454" lon="45.23604">
        <ele>2355.406049</ele>
        <time>2021-08-13T17:01:01.765Z</time>
      </trkpt>
      <trkpt lat="39.96224" lon="45.23578">
        <ele>2374.447745</ele>
        <time>2021-08-13T17:03:59.526Z</time>
      </trkpt>
      <trkpt lat="39.96048" lon="45.23571">
        <ele>2386.153528</ele>
        <time>2021-08-13T17:05:59.418Z</time>
      </trkpt>
      <trkpt lat="39.95951" lon="45.23557">
        <ele>2391.462765</ele>
        <time>2021-08-13T17:06:59.736Z</time>
      </trkpt>
      <trkpt lat="39.95926" lon="45.23552">
        <ele>2392.527889</ele>
        <time>2021-08-13T17:07:14.339Z</time>
      </trkpt>
      <trkpt lat="39.95881" lon="45.23543">
        <ele>2394.466328</ele>
        <time>2021-08-13T17:07:39.734Z</time>
      </trkpt>
      <trkpt lat="39.95817" lon="45.23519">
        <ele>2397.275177</ele>
        <time>2021-08-13T17:08:13.449Z</time>
      </trkpt>
      <trkpt lat="39.95698" lon="45.23469">
        <ele>2400.871469</ele>
        <time>2021-08-13T17:09:11.002Z</time>
      </trkpt>
      <trkpt lat="39.95598" lon="45.23438">
        <ele>2403.472364</ele>
        <time>2021-08-13T17:10:00.004Z</time>
      </trkpt>
      <trkpt lat="39.95404" lon="45.23425">
        <ele>2404.678053</ele>
        <time>2021-08-13T17:11:20.139Z</time>
      </trkpt>
      <trkpt lat="39.95379" lon="45.23424">
        <ele>2403.985387</ele>
        <time>2021-08-13T17:11:26.534Z</time>
      </trkpt>
      <trkpt lat="39.95262" lon="45.23389">
        <ele>2399.386136</ele>
        <time>2021-08-13T17:11:51.528Z</time>
      </trkpt>
      <trkpt lat="39.95231" lon="45.23381">
        <ele>2396.782256</ele>
        <time>2021-08-13T17:11:57.571Z</time>
      </trkpt>
      <trkpt lat="39.95207" lon="45.23382">
        <ele>2394.728534</ele>
        <time>2021-08-13T17:12:02.375Z</time>
      </trkpt>
      <trkpt lat="39.9519" lon="45.23394">
        <ele>2393.174678</ele>
        <time>2021-08-13T17:12:05.895Z</time>
      </trkpt>
      <trkpt lat="39.95157" lon="45.23419">
        <ele>2389.976938</ele>
        <time>2021-08-13T17:12:13.281Z</time>
      </trkpt>
      <trkpt lat="39.9513" lon="45.23458">
        <ele>2386.651197</ele>
        <time>2021-08-13T17:12:21.000Z</time>
      </trkpt>
      <trkpt lat="39.95114" lon="45.23491">
        <ele>2384.730889</ele>
        <time>2021-08-13T17:12:26.937Z</time>
      </trkpt>
      <trkpt lat="39.95105" lon="45.2355">
        <ele>2382.052104</ele>
        <time>2021-08-13T17:12:35.985Z</time>
      </trkpt>
      <trkpt lat="39.95095" lon="45.23873">
        <ele>2369.146578</ele>
        <time>2021-08-13T17:13:30.258Z</time>
      </trkpt>
      <trkpt lat="39.9508" lon="45.23943">
        <ele>2366.226501</ele>
        <time>2021-08-13T17:13:41.896Z</time>
      </trkpt>
      <trkpt lat="39.95063" lon="45.23981">
        <ele>2363.932508</ele>
        <time>2021-08-13T17:13:48.528Z</time>
      </trkpt>
      <trkpt lat="39.95008" lon="45.24066">
        <ele>2358.207804</ele>
        <time>2021-08-13T17:14:05.577Z</time>
      </trkpt>
      <trkpt lat="39.94993" lon="45.24082">
        <ele>2356.905016</ele>
        <time>2021-08-13T17:14:09.265Z</time>
      </trkpt>
      <trkpt lat="39.94972" lon="45.24091">
        <ele>2355.419376</ele>
        <time>2021-08-13T17:14:14.213Z</time>
      </trkpt>
      <trkpt lat="39.94962" lon="45.24087">
        <ele>2354.867553</ele>
        <time>2021-08-13T17:14:16.083Z</time>
      </trkpt>
      <trkpt lat="39.94956" lon="45.2408">
        <ele>2354.480999</ele>
        <time>2021-08-13T17:14:19.107Z</time>
      </trkpt>
      <trkpt lat="39.94954" lon="45.24059">
        <ele>2353.764364</ele>
        <time>2021-08-13T17:14:22.662Z</time>
      </trkpt>
      <trkpt lat="39.94959" lon="45.24035">
        <ele>2352.91342</ele>
        <time>2021-08-13T17:14:26.448Z</time>
      </trkpt>
      <trkpt lat="39.95002" lon="45.23904">
        <ele>2348.002142</ele>
        <time>2021-08-13T17:14:50.338Z</time>
      </trkpt>
      <trkpt lat="39.95019" lon="45.2382">
        <ele>2345.455512</ele>
        <time>2021-08-13T17:15:07.202Z</time>
      </trkpt>
      <trkpt lat="39.94991" lon="45.23553">
        <ele>2336.471421</ele>
        <time>2021-08-13T17:15:52.676Z</time>
      </trkpt>
      <trkpt lat="39.94967" lon="45.23498">
        <ele>2333.650943</ele>
        <time>2021-08-13T17:16:02.505Z</time>
      </trkpt>
      <trkpt lat="39.94949" lon="45.23479">
        <ele>2332.328679</ele>
        <time>2021-08-13T17:16:07.092Z</time>
      </trkpt>
      <trkpt lat="39.9494" lon="45.2347">
        <ele>2331.67244</ele>
        <time>2021-08-13T17:16:09.376Z</time>
      </trkpt>
      <trkpt lat="39.94904" lon="45.23432">
        <ele>2328.30809</ele>
        <time>2021-08-13T17:16:18.643Z</time>
      </trkpt>
      <trkpt lat="39.94891" lon="45.23424">
        <ele>2327.010721</ele>
        <time>2021-08-13T17:16:21.470Z</time>
      </trkpt>
      <trkpt lat="39.94791" lon="45.23359">
        <ele>2316.979164</ele>
        <time>2021-08-13T17:16:43.011Z</time>
      </trkpt>
      <trkpt lat="39.94725" lon="45.2335">
        <ele>2310.558069</ele>
        <time>2021-08-13T17:16:55.565Z</time>
      </trkpt>
      <trkpt lat="39.94618" lon="45.23349">
        <ele>2299.317579</ele>
        <time>2021-08-13T17:17:15.789Z</time>
      </trkpt>
      <trkpt lat="39.94585" lon="45.23338">
        <ele>2295.725794</ele>
        <time>2021-08-13T17:17:22.257Z</time>
      </trkpt>
      <trkpt lat="39.94561" lon="45.23324">
        <ele>2293.31607</ele>
        <time>2021-08-13T17:17:27.080Z</time>
      </trkpt>
      <trkpt lat="39.94546" lon="45.23312">
        <ele>2291.585723</ele>
        <time>2021-08-13T17:17:30.624Z</time>
      </trkpt>
      <trkpt lat="39.9451" lon="45.23269">
        <ele>2287.090686</ele>
        <time>2021-08-13T17:17:39.868Z</time>
      </trkpt>
      <trkpt lat="39.9446" lon="45.23197">
        <ele>2280.130037</ele>
        <time>2021-08-13T17:17:54.357Z</time>
      </trkpt>
      <trkpt lat="39.9444" lon="45.2316">
        <ele>2277.020772</ele>
        <time>2021-08-13T17:18:01.152Z</time>
      </trkpt>
      <trkpt lat="39.94408" lon="45.23033">
        <ele>2268.16603</ele>
        <time>2021-08-13T17:18:21.220Z</time>
      </trkpt>
      <trkpt lat="39.94399" lon="45.23024">
        <ele>2267.199417</ele>
        <time>2021-08-13T17:18:23.387Z</time>
      </trkpt>
      <trkpt lat="39.94379" lon="45.23029">
        <ele>2265.467831</ele>
        <time>2021-08-13T17:18:27.223Z</time>
      </trkpt>
      <trkpt lat="39.94374" lon="45.23039">
        <ele>2264.694529</ele>
        <time>2021-08-13T17:18:28.953Z</time>
      </trkpt>
      <trkpt lat="39.94373" lon="45.23055">
        <ele>2263.625333</ele>
        <time>2021-08-13T17:18:31.319Z</time>
      </trkpt>
      <trkpt lat="39.94397" lon="45.23163">
        <ele>2256.573577</ele>
        <time>2021-08-13T17:18:47.901Z</time>
      </trkpt>
      <trkpt lat="39.94416" lon="45.2323">
        <ele>2252.080212</ele>
        <time>2021-08-13T17:18:58.732Z</time>
      </trkpt>
      <trkpt lat="39.94421" lon="45.23242">
        <ele>2251.235494</ele>
        <time>2021-08-13T17:19:00.725Z</time>
      </trkpt>
      <trkpt lat="39.94461" lon="45.23338">
        <ele>2246.542137</ele>
        <time>2021-08-13T17:19:17.908Z</time>
      </trkpt>
      <trkpt lat="39.9449" lon="45.23391">
        <ele>2244.630907</ele>
        <time>2021-08-13T17:19:28.888Z</time>
      </trkpt>
      <trkpt lat="39.94607" lon="45.23542">
        <ele>2239.785506</ele>
        <time>2021-08-13T17:20:10.530Z</time>
      </trkpt>
      <trkpt lat="39.94615" lon="45.2356">
        <ele>2239.439667</ele>
        <time>2021-08-13T17:20:15.075Z</time>
      </trkpt>
      <trkpt lat="39.94618" lon="45.2358">
        <ele>2239.114432</ele>
        <time>2021-08-13T17:20:19.297Z</time>
      </trkpt>
      <trkpt lat="39.94613" lon="45.23826">
        <ele>2231.49093</ele>
        <time>2021-08-13T17:21:02.000Z</time>
      </trkpt>
      <trkpt lat="39.94611" lon="45.23848">
        <ele>2230.634901</ele>
        <time>2021-08-13T17:21:05.473Z</time>
      </trkpt>
      <trkpt lat="39.94606" lon="45.23862">
        <ele>2230.056374</ele>
        <time>2021-08-13T17:21:07.718Z</time>
      </trkpt>
      <trkpt lat="39.94599" lon="45.23872">
        <ele>2229.499065</ele>
        <time>2021-08-13T17:21:09.927Z</time>
      </trkpt>
      <trkpt lat="39.94591" lon="45.23879">
        <ele>2229.047555</ele>
        <time>2021-08-13T17:21:11.726Z</time>
      </trkpt>
      <trkpt lat="39.94541" lon="45.2392">
        <ele>2223.650477</ele>
        <time>2021-08-13T17:21:23.088Z</time>
      </trkpt>
      <trkpt lat="39.94481" lon="45.2396">
        <ele>2217.169819</ele>
        <time>2021-08-13T17:21:35.836Z</time>
      </trkpt>
      <trkpt lat="39.94472" lon="45.2396">
        <ele>2216.342369</ele>
        <time>2021-08-13T17:21:37.462Z</time>
      </trkpt>
      <trkpt lat="39.94465" lon="45.23949">
        <ele>2215.300336</ele>
        <time>2021-08-13T17:21:39.533Z</time>
      </trkpt>
      <trkpt lat="39.94463" lon="45.23937">
        <ele>2214.419433</ele>
        <time>2021-08-13T17:21:41.246Z</time>
      </trkpt>
      <trkpt lat="39.9447" lon="45.23917">
        <ele>2212.793959</ele>
        <time>2021-08-13T17:21:44.429Z</time>
      </trkpt>
      <trkpt lat="39.94515" lon="45.23847">
        <ele>2206.290282</ele>
        <time>2021-08-13T17:21:58.027Z</time>
      </trkpt>
      <trkpt lat="39.9452" lon="45.2381">
        <ele>2203.668873</ele>
        <time>2021-08-13T17:22:03.625Z</time>
      </trkpt>
      <trkpt lat="39.94511" lon="45.23764">
        <ele>2200.296512</ele>
        <time>2021-08-13T17:22:10.761Z</time>
      </trkpt>
      <trkpt lat="39.94465" lon="45.23612">
        <ele>2187.64841</ele>
        <time>2021-08-13T17:22:34.627Z</time>
      </trkpt>
      <trkpt lat="39.9431" lon="45.23423">
        <ele>2164.083841</ele>
        <time>2021-08-13T17:23:14.376Z</time>
      </trkpt>
      <trkpt lat="39.94152" lon="45.23246">
        <ele>2141.887487</ele>
        <time>2021-08-13T17:23:53.803Z</time>
      </trkpt>
      <trkpt lat="39.94136" lon="45.23232">
        <ele>2139.912321</ele>
        <time>2021-08-13T17:23:57.428Z</time>
      </trkpt>
      <trkpt lat="39.94027" lon="45.2319">
        <ele>2130.281979</ele>
        <time>2021-08-13T17:24:18.964Z</time>
      </trkpt>
      <trkpt lat="39.94004" lon="45.23191">
        <ele>2128.512093</ele>
        <time>2021-08-13T17:24:23.454Z</time>
      </trkpt>
      <trkpt lat="39.93997" lon="45.23198">
        <ele>2127.836153</ele>
        <time>2021-08-13T17:24:25.170Z</time>
      </trkpt>
      <trkpt lat="39.93995" lon="45.23218">
        <ele>2126.645798</ele>
        <time>2021-08-13T17:24:28.578Z</time>
      </trkpt>
      <trkpt lat="39.93999" lon="45.23225">
        <ele>2126.168176</ele>
        <time>2021-08-13T17:24:29.873Z</time>
      </trkpt>
      <trkpt lat="39.94004" lon="45.23233">
        <ele>2125.531554</ele>
        <time>2021-08-13T17:24:31.380Z</time>
      </trkpt>
      <trkpt lat="39.94023" lon="45.23247">
        <ele>2123.841488</ele>
        <time>2021-08-13T17:24:36.521Z</time>
      </trkpt>
      <trkpt lat="39.94121" lon="45.23304">
        <ele>2119.441456</ele>
        <time>2021-08-13T17:25:00.501Z</time>
      </trkpt>
      <trkpt lat="39.94138" lon="45.23323">
        <ele>2118.694785</ele>
        <time>2021-08-13T17:25:05.181Z</time>
      </trkpt>
      <trkpt lat="39.94152" lon="45.2335">
        <ele>2117.817727</ele>
        <time>2021-08-13T17:25:12.178Z</time>
      </trkpt>
      <trkpt lat="39.94194" lon="45.23469">
        <ele>2113.444784</ele>
        <time>2021-08-13T17:25:35.359Z</time>
      </trkpt>
      <trkpt lat="39.94195" lon="45.23489">
        <ele>2112.70997</ele>
        <time>2021-08-13T17:25:38.689Z</time>
      </trkpt>
      <trkpt lat="39.94193" lon="45.23505">
        <ele>2112.096038</ele>
        <time>2021-08-13T17:25:41.192Z</time>
      </trkpt>
      <trkpt lat="39.94176" lon="45.23558">
        <ele>2109.88343</ele>
        <time>2021-08-13T17:25:50.625Z</time>
      </trkpt>
      <trkpt lat="39.94161" lon="45.23577">
        <ele>2108.856309</ele>
        <time>2021-08-13T17:25:54.902Z</time>
      </trkpt>
      <trkpt lat="39.9414" lon="45.23592">
        <ele>2107.66031</ele>
        <time>2021-08-13T17:25:59.831Z</time>
      </trkpt>
      <trkpt lat="39.94114" lon="45.23598">
        <ele>2105.546462</ele>
        <time>2021-08-13T17:26:04.965Z</time>
      </trkpt>
      <trkpt lat="39.94098" lon="45.23591">
        <ele>2104.061804</ele>
        <time>2021-08-13T17:26:08.189Z</time>
      </trkpt>
      <trkpt lat="39.94085" lon="45.23578">
        <ele>2102.62877</ele>
        <time>2021-08-13T17:26:11.360Z</time>
      </trkpt>
      <trkpt lat="39.94081" lon="45.23553">
        <ele>2100.928331</ele>
        <time>2021-08-13T17:26:15.075Z</time>
      </trkpt>
      <trkpt lat="39.9408" lon="45.23456">
        <ele>2094.451279</ele>
        <time>2021-08-13T17:26:29.428Z</time>
      </trkpt>
      <trkpt lat="39.94075" lon="45.23437">
        <ele>2093.093726</ele>
        <time>2021-08-13T17:26:32.508Z</time>
      </trkpt>
      <trkpt lat="39.94065" lon="45.23431">
        <ele>2092.15299</ele>
        <time>2021-08-13T17:26:34.496Z</time>
      </trkpt>
      <trkpt lat="39.93974" lon="45.23392">
        <ele>2084.480291</ele>
        <time>2021-08-13T17:26:53.136Z</time>
      </trkpt>
      <trkpt lat="39.9392" lon="45.23342">
        <ele>2079.211401</ele>
        <time>2021-08-13T17:27:06.101Z</time>
      </trkpt>
      <trkpt lat="39.93886" lon="45.23291">
        <ele>2076.471893</ele>
        <time>2021-08-13T17:27:16.912Z</time>
      </trkpt>
      <trkpt lat="39.93822" lon="45.23157">
        <ele>2072.331984</ele>
        <time>2021-08-13T17:27:46.445Z</time>
      </trkpt>
      <trkpt lat="39.93801" lon="45.23138">
        <ele>2071.432408</ele>
        <time>2021-08-13T17:27:52.400Z</time>
      </trkpt>
      <trkpt lat="39.93791" lon="45.23138">
        <ele>2070.796409</ele>
        <time>2021-08-13T17:27:54.811Z</time>
      </trkpt>
      <trkpt lat="39.93784" lon="45.23138">
        <ele>2070.301967</ele>
        <time>2021-08-13T17:27:56.375Z</time>
      </trkpt>
      <trkpt lat="39.93757" lon="45.23146">
        <ele>2068.209378</ele>
        <time>2021-08-13T17:28:02.489Z</time>
      </trkpt>
      <trkpt lat="39.93748" lon="45.23153">
        <ele>2067.408586</ele>
        <time>2021-08-13T17:28:04.707Z</time>
      </trkpt>
      <trkpt lat="39.93681" lon="45.23294">
        <ele>2057.924911</ele>
        <time>2021-08-13T17:28:29.521Z</time>
      </trkpt>
      <trkpt lat="39.9366" lon="45.23399">
        <ele>2047.858181</ele>
        <time>2021-08-13T17:28:44.881Z</time>
      </trkpt>
      <trkpt lat="39.93649" lon="45.23419">
        <ele>2045.550373</ele>
        <time>2021-08-13T17:28:48.390Z</time>
      </trkpt>
      <trkpt lat="39.93632" lon="45.2343">
        <ele>2043.320516</ele>
        <time>2021-08-13T17:28:51.781Z</time>
      </trkpt>
      <trkpt lat="39.93518" lon="45.23449">
        <ele>2032.625301</ele>
        <time>2021-08-13T17:29:13.385Z</time>
      </trkpt>
      <trkpt lat="39.93497" lon="45.23445">
        <ele>2031.267732</ele>
        <time>2021-08-13T17:29:17.670Z</time>
      </trkpt>
      <trkpt lat="39.93477" lon="45.23424">
        <ele>2029.655006</ele>
        <time>2021-08-13T17:29:22.979Z</time>
      </trkpt>
      <trkpt lat="39.93451" lon="45.23343">
        <ele>2025.370748</ele>
        <time>2021-08-13T17:29:38.270Z</time>
      </trkpt>
      <trkpt lat="39.93409" lon="45.23258">
        <ele>2022.880591</ele>
        <time>2021-08-13T17:29:57.660Z</time>
      </trkpt>
      <trkpt lat="39.93394" lon="45.23242">
        <ele>2022.34717</ele>
        <time>2021-08-13T17:30:02.733Z</time>
      </trkpt>
      <trkpt lat="39.93375" lon="45.23232">
        <ele>2021.772012</ele>
        <time>2021-08-13T17:30:07.800Z</time>
      </trkpt>
      <trkpt lat="39.93357" lon="45.23225">
        <ele>2021.256423</ele>
        <time>2021-08-13T17:30:12.393Z</time>
      </trkpt>
      <trkpt lat="39.93324" lon="45.23225">
        <ele>2020.343444</ele>
        <time>2021-08-13T17:30:20.184Z</time>
      </trkpt>
      <trkpt lat="39.9331" lon="45.23234">
        <ele>2019.895476</ele>
        <time>2021-08-13T17:30:23.757Z</time>
      </trkpt>
      <trkpt lat="39.93301" lon="45.23247">
        <ele>2019.123455</ele>
        <time>2021-08-13T17:30:26.590Z</time>
      </trkpt>
      <trkpt lat="39.9325" lon="45.23359">
        <ele>2011.524855</ele>
        <time>2021-08-13T17:30:46.730Z</time>
      </trkpt>
      <trkpt lat="39.93229" lon="45.23383">
        <ele>2009.39663</ele>
        <time>2021-08-13T17:30:52.124Z</time>
      </trkpt>
      <trkpt lat="39.93199" lon="45.23403">
        <ele>2006.823452</ele>
        <time>2021-08-13T17:30:58.583Z</time>
      </trkpt>
      <trkpt lat="39.93126" lon="45.23406">
        <ele>1998.600602</ele>
        <time>2021-08-13T17:31:12.381Z</time>
      </trkpt>
      <trkpt lat="39.93054" lon="45.23421">
        <ele>1990.025238</ele>
        <time>2021-08-13T17:31:25.939Z</time>
      </trkpt>
      <trkpt lat="39.93012" lon="45.2346">
        <ele>1983.964088</ele>
        <time>2021-08-13T17:31:35.396Z</time>
      </trkpt>
      <trkpt lat="39.9298" lon="45.23503">
        <ele>1978.220865</ele>
        <time>2021-08-13T17:31:43.905Z</time>
      </trkpt>
      <trkpt lat="39.9294" lon="45.23533">
        <ele>1972.442743</ele>
        <time>2021-08-13T17:31:52.465Z</time>
      </trkpt>
      <trkpt lat="39.92912" lon="45.23543">
        <ele>1968.835179</ele>
        <time>2021-08-13T17:31:57.828Z</time>
      </trkpt>
      <trkpt lat="39.92823" lon="45.23551">
        <ele>1958.144164</ele>
        <time>2021-08-13T17:32:14.377Z</time>
      </trkpt>
      <trkpt lat="39.92696" lon="45.23596">
        <ele>1943.082453</ele>
        <time>2021-08-13T17:32:39.042Z</time>
      </trkpt>
      <trkpt lat="39.92553" lon="45.23619">
        <ele>1929.002643</ele>
        <time>2021-08-13T17:33:06.318Z</time>
      </trkpt>
      <trkpt lat="39.92488" lon="45.23621">
        <ele>1923.307233</ele>
        <time>2021-08-13T17:33:18.992Z</time>
      </trkpt>
      <trkpt lat="39.92482" lon="45.23622">
        <ele>1922.872262</ele>
        <time>2021-08-13T17:33:20.203Z</time>
      </trkpt>
      <trkpt lat="39.92441" lon="45.236">
        <ele>1919.947225</ele>
        <time>2021-08-13T17:33:28.960Z</time>
      </trkpt>
      <trkpt lat="39.92421" lon="45.23555">
        <ele>1917.291033</ele>
        <time>2021-08-13T17:33:37.078Z</time>
      </trkpt>
      <trkpt lat="39.92417" lon="45.23534">
        <ele>1916.145208</ele>
        <time>2021-08-13T17:33:40.726Z</time>
      </trkpt>
      <trkpt lat="39.92415" lon="45.23459">
        <ele>1912.336557</ele>
        <time>2021-08-13T17:33:52.495Z</time>
      </trkpt>
      <trkpt lat="39.92407" lon="45.23405">
        <ele>1909.649007</ele>
        <time>2021-08-13T17:34:01.446Z</time>
      </trkpt>
      <trkpt lat="39.92409" lon="45.23284">
        <ele>1903.819716</ele>
        <time>2021-08-13T17:34:20.449Z</time>
      </trkpt>
      <trkpt lat="39.92394" lon="45.23267">
        <ele>1902.557477</ele>
        <time>2021-08-13T17:34:24.472Z</time>
      </trkpt>
      <trkpt lat="39.92381" lon="45.23266">
        <ele>1901.748078</ele>
        <time>2021-08-13T17:34:27.012Z</time>
      </trkpt>
      <trkpt lat="39.92366" lon="45.23291">
        <ele>1899.851423</ele>
        <time>2021-08-13T17:34:31.922Z</time>
      </trkpt>
      <trkpt lat="39.92329" lon="45.23562">
        <ele>1882.563156</ele>
        <time>2021-08-13T17:35:12.872Z</time>
      </trkpt>
      <trkpt lat="39.92331" lon="45.23674">
        <ele>1875.902817</ele>
        <time>2021-08-13T17:35:29.830Z</time>
      </trkpt>
      <trkpt lat="39.92325" lon="45.23716">
        <ele>1873.313918</ele>
        <time>2021-08-13T17:35:36.555Z</time>
      </trkpt>
      <trkpt lat="39.92307" lon="45.23723">
        <ele>1871.985994</ele>
        <time>2021-08-13T17:35:40.220Z</time>
      </trkpt>
      <trkpt lat="39.92295" lon="45.23713">
        <ele>1871.134398</ele>
        <time>2021-08-13T17:35:43.125Z</time>
      </trkpt>
      <trkpt lat="39.92287" lon="45.23699">
        <ele>1870.341615</ele>
        <time>2021-08-13T17:35:45.806Z</time>
      </trkpt>
      <trkpt lat="39.92265" lon="45.23543">
        <ele>1863.072317</ele>
        <time>2021-08-13T17:36:11.035Z</time>
      </trkpt>
      <trkpt lat="39.92269" lon="45.23408">
        <ele>1856.065651</ele>
        <time>2021-08-13T17:36:32.439Z</time>
      </trkpt>
      <trkpt lat="39.92263" lon="45.2338">
        <ele>1854.485221</ele>
        <time>2021-08-13T17:36:36.987Z</time>
      </trkpt>
      <trkpt lat="39.92248" lon="45.23372">
        <ele>1853.368808</ele>
        <time>2021-08-13T17:36:40.148Z</time>
      </trkpt>
      <trkpt lat="39.92234" lon="45.23386">
        <ele>1852.131286</ele>
        <time>2021-08-13T17:36:43.647Z</time>
      </trkpt>
      <trkpt lat="39.9221" lon="45.23453">
        <ele>1847.85552</ele>
        <time>2021-08-13T17:36:54.927Z</time>
      </trkpt>
      <trkpt lat="39.92186" lon="45.23539">
        <ele>1841.397437</ele>
        <time>2021-08-13T17:37:08.413Z</time>
      </trkpt>
      <trkpt lat="39.92174" lon="45.23602">
        <ele>1836.753486</ele>
        <time>2021-08-13T17:37:18.025Z</time>
      </trkpt>
      <trkpt lat="39.92173" lon="45.23639">
        <ele>1834.143841</ele>
        <time>2021-08-13T17:37:23.425Z</time>
      </trkpt>
      <trkpt lat="39.92176" lon="45.23683">
        <ele>1831.127549</ele>
        <time>2021-08-13T17:37:29.956Z</time>
      </trkpt>
      <trkpt lat="39.9219" lon="45.23748">
        <ele>1826.882115</ele>
        <time>2021-08-13T17:37:39.935Z</time>
      </trkpt>
      <trkpt lat="39.92183" lon="45.23761">
        <ele>1825.903453</ele>
        <time>2021-08-13T17:37:42.250Z</time>
      </trkpt>
      <trkpt lat="39.92173" lon="45.23769">
        <ele>1824.937549</ele>
        <time>2021-08-13T17:37:44.555Z</time>
      </trkpt>
      <trkpt lat="39.92153" lon="45.23763">
        <ele>1823.270545</ele>
        <time>2021-08-13T17:37:48.555Z</time>
      </trkpt>
      <trkpt lat="39.92113" lon="45.23729">
        <ele>1819.380142</ele>
        <time>2021-08-13T17:37:58.040Z</time>
      </trkpt>
      <trkpt lat="39.92092" lon="45.237">
        <ele>1817.123165</ele>
        <time>2021-08-13T17:38:04.362Z</time>
      </trkpt>
      <trkpt lat="39.92084" lon="45.23666">
        <ele>1815.698879</ele>
        <time>2021-08-13T17:38:09.897Z</time>
      </trkpt>
      <trkpt lat="39.92094" lon="45.2358">
        <ele>1812.162921</ele>
        <time>2021-08-13T17:38:24.024Z</time>
      </trkpt>
      <trkpt lat="39.92101" lon="45.23548">
        <ele>1810.813069</ele>
        <time>2021-08-13T17:38:29.543Z</time>
      </trkpt>
      <trkpt lat="39.9212" lon="45.23504">
        <ele>1808.752377</ele>
        <time>2021-08-13T17:38:37.937Z</time>
      </trkpt>
      <trkpt lat="39.92128" lon="45.23487">
        <ele>1807.934698</ele>
        <time>2021-08-13T17:38:41.029Z</time>
      </trkpt>
      <trkpt lat="39.92137" lon="45.23462">
        <ele>1806.647404</ele>
        <time>2021-08-13T17:38:45.788Z</time>
      </trkpt>
      <trkpt lat="39.92141" lon="45.23383">
        <ele>1802.99551</ele>
        <time>2021-08-13T17:38:58.282Z</time>
      </trkpt>
      <trkpt lat="39.92163" lon="45.23271">
        <ele>1797.617833</ele>
        <time>2021-08-13T17:39:16.281Z</time>
      </trkpt>
      <trkpt lat="39.92162" lon="45.23196">
        <ele>1793.848822</ele>
        <time>2021-08-13T17:39:27.874Z</time>
      </trkpt>
      <trkpt lat="39.92148" lon="45.23125">
        <ele>1790.098492</ele>
        <time>2021-08-13T17:39:39.276Z</time>
      </trkpt>
      <trkpt lat="39.92112" lon="45.23073">
        <ele>1786.524469</ele>
        <time>2021-08-13T17:39:50.160Z</time>
      </trkpt>
      <trkpt lat="39.92089" lon="45.23015">
        <ele>1783.233082</ele>
        <time>2021-08-13T17:40:00.328Z</time>
      </trkpt>
      <trkpt lat="39.92085" lon="45.22926">
        <ele>1778.756028</ele>
        <time>2021-08-13T17:40:14.173Z</time>
      </trkpt>
      <trkpt lat="39.92075" lon="45.22917">
        <ele>1777.940411</ele>
        <time>2021-08-13T17:40:16.669Z</time>
      </trkpt>
      <trkpt lat="39.92063" lon="45.22918">
        <ele>1777.167765</ele>
        <time>2021-08-13T17:40:19.027Z</time>
      </trkpt>
      <trkpt lat="39.92051" lon="45.22928">
        <ele>1776.218093</ele>
        <time>2021-08-13T17:40:21.925Z</time>
      </trkpt>
      <trkpt lat="39.92044" lon="45.2295">
        <ele>1775.012496</ele>
        <time>2021-08-13T17:40:25.617Z</time>
      </trkpt>
      <trkpt lat="39.92056" lon="45.23131">
        <ele>1765.813723</ele>
        <time>2021-08-13T17:40:53.924Z</time>
      </trkpt>
      <trkpt lat="39.92057" lon="45.23243">
        <ele>1760.071744</ele>
        <time>2021-08-13T17:41:11.370Z</time>
      </trkpt>
      <trkpt lat="39.92049" lon="45.23282">
        <ele>1757.895832</ele>
        <time>2021-08-13T17:41:17.669Z</time>
      </trkpt>
      <trkpt lat="39.9201" lon="45.234">
        <ele>1751.021532</ele>
        <time>2021-08-13T17:41:37.478Z</time>
      </trkpt>
      <trkpt lat="39.9198" lon="45.23474">
        <ele>1746.466299</ele>
        <time>2021-08-13T17:41:50.271Z</time>
      </trkpt>
      <trkpt lat="39.91912" lon="45.23656">
        <ele>1735.378977</ele>
        <time>2021-08-13T17:42:21.281Z</time>
      </trkpt>
      <trkpt lat="39.91835" lon="45.23841">
        <ele>1725.119954</ele>
        <time>2021-08-13T17:42:54.166Z</time>
      </trkpt>
      <trkpt lat="39.91787" lon="45.23937">
        <ele>1720.997114</ele>
        <time>2021-08-13T17:43:12.243Z</time>
      </trkpt>
      <trkpt lat="39.9175" lon="45.23991">
        <ele>1718.51202</ele>
        <time>2021-08-13T17:43:24.689Z</time>
      </trkpt>
      <trkpt lat="39.91743" lon="45.24001">
        <ele>1718.06321</ele>
        <time>2021-08-13T17:43:26.806Z</time>
      </trkpt>
      <trkpt lat="39.91698" lon="45.24079">
        <ele>1715.41293</ele>
        <time>2021-08-13T17:43:45.010Z</time>
      </trkpt>
      <trkpt lat="39.91689" lon="45.24096">
        <ele>1714.972057</ele>
        <time>2021-08-13T17:43:48.923Z</time>
      </trkpt>
      <trkpt lat="39.91647" lon="45.24173">
        <ele>1712.997658</ele>
        <time>2021-08-13T17:44:05.882Z</time>
      </trkpt>
      <trkpt lat="39.91636" lon="45.24181">
        <ele>1712.650562</ele>
        <time>2021-08-13T17:44:09.803Z</time>
      </trkpt>
      <trkpt lat="39.9162" lon="45.24182">
        <ele>1712.223504</ele>
        <time>2021-08-13T17:44:13.131Z</time>
      </trkpt>
      <trkpt lat="39.91534" lon="45.24167">
        <ele>1708.108205</ele>
        <time>2021-08-13T17:44:32.943Z</time>
      </trkpt>
      <trkpt lat="39.91453" lon="45.24167">
        <ele>1703.702561</ele>
        <time>2021-08-13T17:44:49.195Z</time>
      </trkpt>
      <trkpt lat="39.91407" lon="45.24177">
        <ele>1701.074358</ele>
        <time>2021-08-13T17:44:58.661Z</time>
      </trkpt>
      <trkpt lat="39.91362" lon="45.2419">
        <ele>1698.377825</ele>
        <time>2021-08-13T17:45:07.791Z</time>
      </trkpt>
      <trkpt lat="39.91248" lon="45.24241">
        <ele>1691.218326</ele>
        <time>2021-08-13T17:45:32.652Z</time>
      </trkpt>
      <trkpt lat="39.90919" lon="45.24377">
        <ele>1677.026062</ele>
        <time>2021-08-13T17:46:48.398Z</time>
      </trkpt>
      <trkpt lat="39.90866" lon="45.2439">
        <ele>1674.813455</ele>
        <time>2021-08-13T17:47:00.369Z</time>
      </trkpt>
      <trkpt lat="39.90765" lon="45.24405">
        <ele>1670.655249</ele>
        <time>2021-08-13T17:47:22.487Z</time>
      </trkpt>
      <trkpt lat="39.90628" lon="45.2443">
        <ele>1665.04492</ele>
        <time>2021-08-13T17:47:52.351Z</time>
      </trkpt>
      <trkpt lat="39.90552" lon="45.24453">
        <ele>1661.890563</ele>
        <time>2021-08-13T17:48:09.579Z</time>
      </trkpt>
      <trkpt lat="39.90502" lon="45.24482">
        <ele>1660.775199</ele>
        <time>2021-08-13T17:48:22.126Z</time>
      </trkpt>
      <trkpt lat="39.90444" lon="45.24532">
        <ele>1659.441378</ele>
        <time>2021-08-13T17:48:39.393Z</time>
      </trkpt>
      <trkpt lat="39.90344" lon="45.24666">
        <ele>1657.385464</ele>
        <time>2021-08-13T17:49:20.431Z</time>
      </trkpt>
      <trkpt lat="39.9027" lon="45.24729">
        <ele>1656.423527</ele>
        <time>2021-08-13T17:49:43.931Z</time>
      </trkpt>
      <trkpt lat="39.90179" lon="45.24766">
        <ele>1653.481969</ele>
        <time>2021-08-13T17:50:05.944Z</time>
      </trkpt>
      <trkpt lat="39.90168" lon="45.24775">
        <ele>1653.031223</ele>
        <time>2021-08-13T17:50:09.052Z</time>
      </trkpt>
      <trkpt lat="39.90111" lon="45.24811">
        <ele>1650.970314</ele>
        <time>2021-08-13T17:50:22.838Z</time>
      </trkpt>
      <trkpt lat="39.9003" lon="45.24878">
        <ele>1647.058973</ele>
        <time>2021-08-13T17:50:43.702Z</time>
      </trkpt>
      <trkpt lat="39.89994" lon="45.24916">
        <ele>1645.129968</ele>
        <time>2021-08-13T17:50:53.664Z</time>
      </trkpt>
      <trkpt lat="39.89943" lon="45.24949">
        <ele>1642.700139</ele>
        <time>2021-08-13T17:51:06.265Z</time>
      </trkpt>
      <trkpt lat="39.89871" lon="45.25018">
        <ele>1638.512786</ele>
        <time>2021-08-13T17:51:25.696Z</time>
      </trkpt>
      <trkpt lat="39.89839" lon="45.25035">
        <ele>1636.914139</ele>
        <time>2021-08-13T17:51:32.969Z</time>
      </trkpt>
      <trkpt lat="39.89759" lon="45.25107">
        <ele>1631.56795</ele>
        <time>2021-08-13T17:51:53.396Z</time>
      </trkpt>
      <trkpt lat="39.89597" lon="45.25269">
        <ele>1619.125475</ele>
        <time>2021-08-13T17:52:34.511Z</time>
      </trkpt>
      <trkpt lat="39.89587" lon="45.25279">
        <ele>1618.425242</ele>
        <time>2021-08-13T17:52:36.986Z</time>
      </trkpt>
      <trkpt lat="39.89546" lon="45.25322">
        <ele>1615.520978</ele>
        <time>2021-08-13T17:52:47.882Z</time>
      </trkpt>
      <trkpt lat="39.89519" lon="45.2537">
        <ele>1612.984893</ele>
        <time>2021-08-13T17:52:57.991Z</time>
      </trkpt>
      <trkpt lat="39.89506" lon="45.25408">
        <ele>1612.565639</ele>
        <time>2021-08-13T17:53:05.177Z</time>
      </trkpt>
      <trkpt lat="39.8948" lon="45.25484">
        <ele>1611.708863</ele>
        <time>2021-08-13T17:53:21.176Z</time>
      </trkpt>
      <trkpt lat="39.89459" lon="45.25532">
        <ele>1611.135036</ele>
        <time>2021-08-13T17:53:33.227Z</time>
      </trkpt>
      <trkpt lat="39.89353" lon="45.25677">
        <ele>1611.872059</ele>
        <time>2021-08-13T17:54:28.960Z</time>
      </trkpt>
      <trkpt lat="39.89339" lon="45.25709">
        <ele>1612.191397</ele>
        <time>2021-08-13T17:54:39.509Z</time>
      </trkpt>
      <trkpt lat="39.89333" lon="45.25744">
        <ele>1612.507694</ele>
        <time>2021-08-13T17:54:50.396Z</time>
      </trkpt>
      <trkpt lat="39.89336" lon="45.25819">
        <ele>1613.832426</ele>
        <time>2021-08-13T17:55:14.552Z</time>
      </trkpt>
      <trkpt lat="39.89333" lon="45.25883">
        <ele>1615.111139</ele>
        <time>2021-08-13T17:55:36.950Z</time>
      </trkpt>
      <trkpt lat="39.89322" lon="45.25912">
        <ele>1615.754372</ele>
        <time>2021-08-13T17:55:48.680Z</time>
      </trkpt>
      <trkpt lat="39.89275" lon="45.25995">
        <ele>1617.893552</ele>
        <time>2021-08-13T17:56:27.609Z</time>
      </trkpt>
      <trkpt lat="39.89186" lon="45.26129">
        <ele>1622.009079</ele>
        <time>2021-08-13T17:57:35.272Z</time>
      </trkpt>
      <trkpt lat="39.89144" lon="45.26225">
        <ele>1622.921067</ele>
        <time>2021-08-13T17:58:12.525Z</time>
      </trkpt>
      <trkpt lat="39.89068" lon="45.26301">
        <ele>1623.157129</ele>
        <time>2021-08-13T17:58:40.359Z</time>
      </trkpt>
      <trkpt lat="39.8905" lon="45.26321">
        <ele>1623.217521</ele>
        <time>2021-08-13T17:58:46.717Z</time>
      </trkpt>
      <trkpt lat="39.89008" lon="45.26355">
        <ele>1621.802338</ele>
        <time>2021-08-13T17:58:58.544Z</time>
      </trkpt>
      <trkpt lat="39.8892" lon="45.26473">
        <ele>1618.142216</ele>
        <time>2021-08-13T17:59:27.161Z</time>
      </trkpt>
      <trkpt lat="39.88879" lon="45.26506">
        <ele>1615.849902</ele>
        <time>2021-08-13T17:59:37.977Z</time>
      </trkpt>
      <trkpt lat="39.88812" lon="45.26537">
        <ele>1612.313151</ele>
        <time>2021-08-13T17:59:53.470Z</time>
      </trkpt>
      <trkpt lat="39.8875" lon="45.26579">
        <ele>1608.592621</ele>
        <time>2021-08-13T18:00:07.814Z</time>
      </trkpt>
      <trkpt lat="39.88681" lon="45.26614">
        <ele>1601.280742</ele>
        <time>2021-08-13T18:00:22.174Z</time>
      </trkpt>
      <trkpt lat="39.88613" lon="45.26637">
        <ele>1594.353532</ele>
        <time>2021-08-13T18:00:35.280Z</time>
      </trkpt>
      <trkpt lat="39.88549" lon="45.26642">
        <ele>1587.726056</ele>
        <time>2021-08-13T18:00:47.117Z</time>
      </trkpt>
      <trkpt lat="39.88485" lon="45.26628">
        <ele>1580.647988</ele>
        <time>2021-08-13T18:00:59.198Z</time>
      </trkpt>
      <trkpt lat="39.8828" lon="45.26556">
        <ele>1562.750062</ele>
        <time>2021-08-13T18:01:40.065Z</time>
      </trkpt>
      <trkpt lat="39.88266" lon="45.26558">
        <ele>1561.77271</ele>
        <time>2021-08-13T18:01:43.068Z</time>
      </trkpt>
      <trkpt lat="39.88257" lon="45.26564">
        <ele>1561.12378</ele>
        <time>2021-08-13T18:01:45.094Z</time>
      </trkpt>
      <trkpt lat="39.88252" lon="45.26586">
        <ele>1559.919385</ele>
        <time>2021-08-13T18:01:49.207Z</time>
      </trkpt>
      <trkpt lat="39.88255" lon="45.26598">
        <ele>1559.391653</ele>
        <time>2021-08-13T18:01:51.675Z</time>
      </trkpt>
      <trkpt lat="39.88266" lon="45.26607">
        <ele>1559.7809</ele>
        <time>2021-08-13T18:01:54.813Z</time>
      </trkpt>
      <trkpt lat="39.88371" lon="45.26638">
        <ele>1562.980326</ele>
        <time>2021-08-13T18:02:47.870Z</time>
      </trkpt>
      <trkpt lat="39.88392" lon="45.2665">
        <ele>1563.641505</ele>
        <time>2021-08-13T18:03:03.633Z</time>
      </trkpt>
      <trkpt lat="39.88403" lon="45.26659">
        <ele>1564.034078</ele>
        <time>2021-08-13T18:03:11.505Z</time>
      </trkpt>
      <trkpt lat="39.88413" lon="45.26675">
        <ele>1564.507713</ele>
        <time>2021-08-13T18:03:22.552Z</time>
      </trkpt>
      <trkpt lat="39.88415" lon="45.26692">
        <ele>1564.87457</ele>
        <time>2021-08-13T18:03:30.184Z</time>
      </trkpt>
      <trkpt lat="39.88412" lon="45.26709">
        <ele>1565.261836</ele>
        <time>2021-08-13T18:03:38.888Z</time>
      </trkpt>
      <trkpt lat="39.884" lon="45.26726">
        <ele>1565.759742</ele>
        <time>2021-08-13T18:03:50.155Z</time>
      </trkpt>
      <trkpt lat="39.88374" lon="45.2675">
        <ele>1566.672624</ele>
        <time>2021-08-13T18:04:09.992Z</time>
      </trkpt>
      <trkpt lat="39.88334" lon="45.26755">
        <ele>1567.802776</ele>
        <time>2021-08-13T18:04:32.406Z</time>
      </trkpt>
      <trkpt lat="39.88196" lon="45.26727">
        <ele>1566.330032</ele>
        <time>2021-08-13T18:05:10.915Z</time>
      </trkpt>
      <trkpt lat="39.88091" lon="45.26717">
        <ele>1561.169057</ele>
        <time>2021-08-13T18:05:31.878Z</time>
      </trkpt>
      <trkpt lat="39.88027" lon="45.26706">
        <ele>1555.215169</ele>
        <time>2021-08-13T18:05:44.367Z</time>
      </trkpt>
      <trkpt lat="39.87937" lon="45.26671">
        <ele>1546.267027</ele>
        <time>2021-08-13T18:06:02.194Z</time>
      </trkpt>
      <trkpt lat="39.87823" lon="45.26693">
        <ele>1535.195745</ele>
        <time>2021-08-13T18:06:24.225Z</time>
      </trkpt>
      <trkpt lat="39.87676" lon="45.26703">
        <ele>1522.760881</ele>
        <time>2021-08-13T18:06:52.462Z</time>
      </trkpt>
      <trkpt lat="39.87656" lon="45.2671">
        <ele>1521.327891</ele>
        <time>2021-08-13T18:06:56.634Z</time>
      </trkpt>
      <trkpt lat="39.87636" lon="45.26717">
        <ele>1519.963043</ele>
        <time>2021-08-13T18:07:00.844Z</time>
      </trkpt>
      <trkpt lat="39.87534" lon="45.26779">
        <ele>1512.976685</ele>
        <time>2021-08-13T18:07:24.294Z</time>
      </trkpt>
      <trkpt lat="39.8743" lon="45.26857">
        <ele>1507.278266</ele>
        <time>2021-08-13T18:07:50.604Z</time>
      </trkpt>
      <trkpt lat="39.87347" lon="45.26912">
        <ele>1501.458775</ele>
        <time>2021-08-13T18:08:10.041Z</time>
      </trkpt>
      <trkpt lat="39.87269" lon="45.26985">
        <ele>1494.804646</ele>
        <time>2021-08-13T18:08:28.951Z</time>
      </trkpt>
      <trkpt lat="39.87215" lon="45.27016">
        <ele>1490.099239</ele>
        <time>2021-08-13T18:08:40.542Z</time>
      </trkpt>
      <trkpt lat="39.87155" lon="45.27041">
        <ele>1484.916107</ele>
        <time>2021-08-13T18:08:52.697Z</time>
      </trkpt>
      <trkpt lat="39.87144" lon="45.27048">
        <ele>1483.915413</ele>
        <time>2021-08-13T18:08:54.969Z</time>
      </trkpt>
      <trkpt lat="39.87112" lon="45.27079">
        <ele>1480.572526</ele>
        <time>2021-08-13T18:09:02.807Z</time>
      </trkpt>
      <trkpt lat="39.87061" lon="45.27197">
        <ele>1472.913247</ele>
        <time>2021-08-13T18:09:23.280Z</time>
      </trkpt>
      <trkpt lat="39.86965" lon="45.27321">
        <ele>1463.449417</ele>
        <time>2021-08-13T18:09:50.995Z</time>
      </trkpt>
      <trkpt lat="39.8694" lon="45.27371">
        <ele>1460.474974</ele>
        <time>2021-08-13T18:10:00.034Z</time>
      </trkpt>
      <trkpt lat="39.86903" lon="45.27489">
        <ele>1453.99184</ele>
        <time>2021-08-13T18:10:19.780Z</time>
      </trkpt>
      <trkpt lat="39.86899" lon="45.27638">
        <ele>1447.543196</ele>
        <time>2021-08-13T18:10:43.426Z</time>
      </trkpt>
      <trkpt lat="39.86885" lon="45.27695">
        <ele>1444.972463</ele>
        <time>2021-08-13T18:10:53.233Z</time>
      </trkpt>
      <trkpt lat="39.86832" lon="45.27774">
        <ele>1441.856952</ele>
        <time>2021-08-13T18:11:10.440Z</time>
      </trkpt>
      <trkpt lat="39.86798" lon="45.27813">
        <ele>1440.369728</ele>
        <time>2021-08-13T18:11:20.530Z</time>
      </trkpt>
      <trkpt lat="39.8676" lon="45.27864">
        <ele>1438.574665</ele>
        <time>2021-08-13T18:11:33.591Z</time>
      </trkpt>
      <trkpt lat="39.86751" lon="45.27879">
        <ele>1438.078521</ele>
        <time>2021-08-13T18:11:37.400Z</time>
      </trkpt>
      <trkpt lat="39.86685" lon="45.27971">
        <ele>1437.223256</ele>
        <time>2021-08-13T18:12:02.607Z</time>
      </trkpt>
      <trkpt lat="39.86643" lon="45.28003">
        <ele>1436.870645</ele>
        <time>2021-08-13T18:12:17.381Z</time>
      </trkpt>
      <trkpt lat="39.86627" lon="45.28009">
        <ele>1436.743882</ele>
        <time>2021-08-13T18:12:22.937Z</time>
      </trkpt>
      <trkpt lat="39.86425" lon="45.281">
        <ele>1436.259032</ele>
        <time>2021-08-13T18:13:31.404Z</time>
      </trkpt>
      <trkpt lat="39.86367" lon="45.28116">
        <ele>1434.491866</ele>
        <time>2021-08-13T18:13:46.330Z</time>
      </trkpt>
      <trkpt lat="39.86314" lon="45.28118">
        <ele>1432.916862</ele>
        <time>2021-08-13T18:13:58.565Z</time>
      </trkpt>
      <trkpt lat="39.86212" lon="45.28091">
        <ele>1427.988141</ele>
        <time>2021-08-13T18:14:20.590Z</time>
      </trkpt>
      <trkpt lat="39.86178" lon="45.28096">
        <ele>1425.613627</ele>
        <time>2021-08-13T18:14:27.496Z</time>
      </trkpt>
      <trkpt lat="39.86079" lon="45.28137">
        <ele>1418.424333</ele>
        <time>2021-08-13T18:14:47.833Z</time>
      </trkpt>
      <trkpt lat="39.85849" lon="45.28189">
        <ele>1399.39102</ele>
        <time>2021-08-13T18:15:33.202Z</time>
      </trkpt>
      <trkpt lat="39.85784" lon="45.28219">
        <ele>1394.207138</ele>
        <time>2021-08-13T18:15:46.837Z</time>
      </trkpt>
      <trkpt lat="39.85591" lon="45.28403">
        <ele>1378.960945</ele>
        <time>2021-08-13T18:16:35.625Z</time>
      </trkpt>
      <trkpt lat="39.85563" lon="45.28445">
        <ele>1377.171543</ele>
        <time>2021-08-13T18:16:44.838Z</time>
      </trkpt>
      <trkpt lat="39.85525" lon="45.28639">
        <ele>1371.121977</ele>
        <time>2021-08-13T18:17:19.156Z</time>
      </trkpt>
      <trkpt lat="39.85498" lon="45.28702">
        <ele>1369.523539</ele>
        <time>2021-08-13T18:17:32.381Z</time>
      </trkpt>
      <trkpt lat="39.85436" lon="45.28796">
        <ele>1366.805157</ele>
        <time>2021-08-13T18:17:55.095Z</time>
      </trkpt>
      <trkpt lat="39.85336" lon="45.289">
        <ele>1361.678841</ele>
        <time>2021-08-13T18:18:23.505Z</time>
      </trkpt>
      <trkpt lat="39.8532" lon="45.28925">
        <ele>1360.635727</ele>
        <time>2021-08-13T18:18:28.931Z</time>
      </trkpt>
      <trkpt lat="39.85249" lon="45.29047">
        <ele>1355.694487</ele>
        <time>2021-08-13T18:18:53.458Z</time>
      </trkpt>
      <trkpt lat="39.85203" lon="45.29149">
        <ele>1351.809489</ele>
        <time>2021-08-13T18:19:13.317Z</time>
      </trkpt>
      <trkpt lat="39.85176" lon="45.29209">
        <ele>1351.217256</ele>
        <time>2021-08-13T18:19:26.470Z</time>
      </trkpt>
      <trkpt lat="39.85116" lon="45.29303">
        <ele>1350.515237</ele>
        <time>2021-08-13T18:19:54.354Z</time>
      </trkpt>
      <trkpt lat="39.85074" lon="45.29354">
        <ele>1350.317338</ele>
        <time>2021-08-13T18:20:15.163Z</time>
      </trkpt>
      <trkpt lat="39.85019" lon="45.29382">
        <ele>1350.554831</ele>
        <time>2021-08-13T18:20:36.812Z</time>
      </trkpt>
      <trkpt lat="39.84935" lon="45.29394">
        <ele>1350.89652</ele>
        <time>2021-08-13T18:21:06.705Z</time>
      </trkpt>
      <trkpt lat="39.84788" lon="45.29405">
        <ele>1348.211658</ele>
        <time>2021-08-13T18:21:43.982Z</time>
      </trkpt>
      <trkpt lat="39.84638" lon="45.29423">
        <ele>1343.84554</ele>
        <time>2021-08-13T18:22:17.341Z</time>
      </trkpt>
      <trkpt lat="39.84581" lon="45.29429">
        <ele>1341.987376</ele>
        <time>2021-08-13T18:22:30.194Z</time>
      </trkpt>
      <trkpt lat="39.8448" lon="45.29428">
        <ele>1340.555379</ele>
        <time>2021-08-13T18:22:55.732Z</time>
      </trkpt>
      <trkpt lat="39.84444" lon="45.29439">
        <ele>1340.207145</ele>
        <time>2021-08-13T18:23:06.673Z</time>
      </trkpt>
      <trkpt lat="39.84413" lon="45.29464">
        <ele>1339.86425</ele>
        <time>2021-08-13T18:23:18.219Z</time>
      </trkpt>
      <trkpt lat="39.84383" lon="45.29472">
        <ele>1339.585036</ele>
        <time>2021-08-13T18:23:28.187Z</time>
      </trkpt>
      <trkpt lat="39.84231" lon="45.29488">
        <ele>1338.687462</ele>
        <time>2021-08-13T18:24:12.279Z</time>
      </trkpt>
      <trkpt lat="39.84171" lon="45.29489">
        <ele>1337.670897</ele>
        <time>2021-08-13T18:24:28.038Z</time>
      </trkpt>
      <trkpt lat="39.83955" lon="45.29451">
        <ele>1329.103164</ele>
        <time>2021-08-13T18:25:18.644Z</time>
      </trkpt>
      <trkpt lat="39.839" lon="45.29434">
        <ele>1325.215256</ele>
        <time>2021-08-13T18:25:29.692Z</time>
      </trkpt>
      <trkpt lat="39.83863" lon="45.29403">
        <ele>1322.228764</ele>
        <time>2021-08-13T18:25:38.006Z</time>
      </trkpt>
      <trkpt lat="39.83841" lon="45.29392">
        <ele>1319.620517</ele>
        <time>2021-08-13T18:25:42.381Z</time>
      </trkpt>
      <trkpt lat="39.83788" lon="45.2938">
        <ele>1313.080183</ele>
        <time>2021-08-13T18:25:52.362Z</time>
      </trkpt>
      <trkpt lat="39.83703" lon="45.29367">
        <ele>1302.619898</ele>
        <time>2021-08-13T18:26:08.173Z</time>
      </trkpt>
      <trkpt lat="39.83669" lon="45.2938">
        <ele>1298.899113</ele>
        <time>2021-08-13T18:26:14.582Z</time>
      </trkpt>
      <trkpt lat="39.83616" lon="45.29457">
        <ele>1292.174029</ele>
        <time>2021-08-13T18:26:29.815Z</time>
      </trkpt>
      <trkpt lat="39.83573" lon="45.29506">
        <ele>1287.32935</ele>
        <time>2021-08-13T18:26:41.275Z</time>
      </trkpt>
      <trkpt lat="39.8357" lon="45.29515">
        <ele>1286.723299</ele>
        <time>2021-08-13T18:26:42.788Z</time>
      </trkpt>
      <trkpt lat="39.8356" lon="45.29524">
        <ele>1285.614292</ele>
        <time>2021-08-13T18:26:45.800Z</time>
      </trkpt>
      <trkpt lat="39.83543" lon="45.29528">
        <ele>1284.583075</ele>
        <time>2021-08-13T18:26:49.498Z</time>
      </trkpt>
      <trkpt lat="39.83534" lon="45.29539">
        <ele>1284.155633</ele>
        <time>2021-08-13T18:26:52.359Z</time>
      </trkpt>
      <trkpt lat="39.83518" lon="45.29559">
        <ele>1283.390954</ele>
        <time>2021-08-13T18:26:57.322Z</time>
      </trkpt>
      <trkpt lat="39.83517" lon="45.29576">
        <ele>1282.915683</ele>
        <time>2021-08-13T18:27:00.507Z</time>
      </trkpt>
      <trkpt lat="39.83493" lon="45.29659">
        <ele>1280.544449</ele>
        <time>2021-08-13T18:27:16.266Z</time>
      </trkpt>
      <trkpt lat="39.83476" lon="45.2968">
        <ele>1279.738332</ele>
        <time>2021-08-13T18:27:21.663Z</time>
      </trkpt>
      <trkpt lat="39.83393" lon="45.29772">
        <ele>1275.535579</ele>
        <time>2021-08-13T18:27:47.314Z</time>
      </trkpt>
      <trkpt lat="39.83369" lon="45.29774">
        <ele>1274.563174</ele>
        <time>2021-08-13T18:27:52.778Z</time>
      </trkpt>
      <trkpt lat="39.83331" lon="45.29776">
        <ele>1273.078915</ele>
        <time>2021-08-13T18:28:01.133Z</time>
      </trkpt>
      <trkpt lat="39.83313" lon="45.2977">
        <ele>1272.302165</ele>
        <time>2021-08-13T18:28:05.500Z</time>
      </trkpt>
      <trkpt lat="39.83292" lon="45.29751">
        <ele>1271.273015</ele>
        <time>2021-08-13T18:28:11.003Z</time>
      </trkpt>
      <trkpt lat="39.8328" lon="45.29729">
        <ele>1270.145378</ele>
        <time>2021-08-13T18:28:15.639Z</time>
      </trkpt>
      <trkpt lat="39.83249" lon="45.29704">
        <ele>1268.276476</ele>
        <time>2021-08-13T18:28:23.351Z</time>
      </trkpt>
      <trkpt lat="39.83224" lon="45.29693">
        <ele>1266.884653</ele>
        <time>2021-08-13T18:28:29.185Z</time>
      </trkpt>
      <trkpt lat="39.8316" lon="45.29701">
        <ele>1263.52439</ele>
        <time>2021-08-13T18:28:43.496Z</time>
      </trkpt>
      <trkpt lat="39.83075" lon="45.29663">
        <ele>1258.955171</ele>
        <time>2021-08-13T18:29:03.344Z</time>
      </trkpt>
      <trkpt lat="39.83053" lon="45.29682">
        <ele>1257.609364</ele>
        <time>2021-08-13T18:29:09.145Z</time>
      </trkpt>
      <trkpt lat="39.83012" lon="45.2976">
        <ele>1253.95472</ele>
        <time>2021-08-13T18:29:25.155Z</time>
      </trkpt>
      <trkpt lat="39.82995" lon="45.29763">
        <ele>1253.1005</ele>
        <time>2021-08-13T18:29:28.918Z</time>
      </trkpt>
      <trkpt lat="39.82937" lon="45.29747">
        <ele>1250.801347</ele>
        <time>2021-08-13T18:29:41.724Z</time>
      </trkpt>
      <trkpt lat="39.82855" lon="45.29715">
        <ele>1247.56048</ele>
        <time>2021-08-13T18:30:00.500Z</time>
      </trkpt>
      <trkpt lat="39.82788" lon="45.2972">
        <ele>1245.41319</ele>
        <time>2021-08-13T18:30:16.679Z</time>
      </trkpt>
      <trkpt lat="39.82775" lon="45.29698">
        <ele>1244.921832</ele>
        <time>2021-08-13T18:30:21.957Z</time>
      </trkpt>
      <trkpt lat="39.82768" lon="45.29702">
        <ele>1244.729497</ele>
        <time>2021-08-13T18:30:23.984Z</time>
      </trkpt>
      <trkpt lat="39.82762" lon="45.29717">
        <ele>1244.420986</ele>
        <time>2021-08-13T18:30:27.237Z</time>
      </trkpt>
      <trkpt lat="39.82755" lon="45.29724">
        <ele>1244.199237</ele>
        <time>2021-08-13T18:30:29.839Z</time>
      </trkpt>
      <trkpt lat="39.82751" lon="45.29727">
        <ele>1244.080872</ele>
        <time>2021-08-13T18:30:30.875Z</time>
      </trkpt>
      <trkpt lat="39.82661" lon="45.29665">
        <ele>1241.553126</ele>
        <time>2021-08-13T18:30:55.439Z</time>
      </trkpt>
      <trkpt lat="39.82633" lon="45.29667">
        <ele>1240.549063</ele>
        <time>2021-08-13T18:31:01.703Z</time>
      </trkpt>
      <trkpt lat="39.82454" lon="45.2965">
        <ele>1234.085035</ele>
        <time>2021-08-13T18:31:41.170Z</time>
      </trkpt>
      <trkpt lat="39.82325" lon="45.29612">
        <ele>1229.278428</ele>
        <time>2021-08-13T18:32:10.625Z</time>
      </trkpt>
      <trkpt lat="39.82285" lon="45.29611">
        <ele>1228.132918</ele>
        <time>2021-08-13T18:32:19.704Z</time>
      </trkpt>
      <trkpt lat="39.81898" lon="45.29568">
        <ele>1219.194584</ele>
        <time>2021-08-13T18:33:53.060Z</time>
      </trkpt>
      <trkpt lat="39.8181" lon="45.29568">
        <ele>1217.756153</ele>
        <time>2021-08-13T18:34:14.822Z</time>
      </trkpt>
      <trkpt lat="39.81767" lon="45.2958">
        <ele>1217.299068</ele>
        <time>2021-08-13T18:34:27.356Z</time>
      </trkpt>
      <trkpt lat="39.81722" lon="45.29592">
        <ele>1218.03219</ele>
        <time>2021-08-13T18:34:42.154Z</time>
      </trkpt>
      <trkpt lat="39.81674" lon="45.29562">
        <ele>1218.881492</ele>
        <time>2021-08-13T18:35:03.708Z</time>
      </trkpt>
      <trkpt lat="39.81554" lon="45.2955">
        <ele>1220.911777</ele>
        <time>2021-08-13T18:36:04.449Z</time>
      </trkpt>
      <trkpt lat="39.81494" lon="45.29564">
        <ele>1222.043782</ele>
        <time>2021-08-13T18:36:33.278Z</time>
      </trkpt>
      <trkpt lat="39.81454" lon="45.29538">
        <ele>1222.865518</ele>
        <time>2021-08-13T18:36:49.846Z</time>
      </trkpt>
      <trkpt lat="39.81431" lon="45.29512">
        <ele>1223.281923</ele>
        <time>2021-08-13T18:37:00.710Z</time>
      </trkpt>
      <trkpt lat="39.81413" lon="45.2952">
        <ele>1223.019677</ele>
        <time>2021-08-13T18:37:05.723Z</time>
      </trkpt>
      <trkpt lat="39.81404" lon="45.29547">
        <ele>1222.707214</ele>
        <time>2021-08-13T18:37:13.011Z</time>
      </trkpt>
      <trkpt lat="39.81408" lon="45.29588">
        <ele>1222.265256</ele>
        <time>2021-08-13T18:37:22.131Z</time>
      </trkpt>
      <trkpt lat="39.81397" lon="45.29595">
        <ele>1222.095119</ele>
        <time>2021-08-13T18:37:25.082Z</time>
      </trkpt>
      <trkpt lat="39.81359" lon="45.29586">
        <ele>1221.550352</ele>
        <time>2021-08-13T18:37:35.167Z</time>
      </trkpt>
      <trkpt lat="39.81266" lon="45.2961">
        <ele>1220.050577</ele>
        <time>2021-08-13T18:37:58.717Z</time>
      </trkpt>
      <trkpt lat="39.8117" lon="45.29603">
        <ele>1218.27576</ele>
        <time>2021-08-13T18:38:24.471Z</time>
      </trkpt>
      <trkpt lat="39.81136" lon="45.29575">
        <ele>1217.541507</ele>
        <time>2021-08-13T18:38:35.043Z</time>
      </trkpt>
      <trkpt lat="39.81122" lon="45.29578">
        <ele>1217.166268</ele>
        <time>2021-08-13T18:38:38.740Z</time>
      </trkpt>
      <trkpt lat="39.81087" lon="45.29627">
        <ele>1215.751307</ele>
        <time>2021-08-13T18:38:52.062Z</time>
      </trkpt>
      <trkpt lat="39.81068" lon="45.29635">
        <ele>1215.207284</ele>
        <time>2021-08-13T18:38:57.087Z</time>
      </trkpt>
      <trkpt lat="39.8083" lon="45.29641">
        <ele>1207.438191</ele>
        <time>2021-08-13T18:39:53.552Z</time>
      </trkpt>
      <trkpt lat="39.80757" lon="45.29727">
        <ele>1203.58875</ele>
        <time>2021-08-13T18:40:15.886Z</time>
      </trkpt>
      <trkpt lat="39.80677" lon="45.29761">
        <ele>1200.116503</ele>
        <time>2021-08-13T18:40:35.106Z</time>
      </trkpt>
      <trkpt lat="39.80575" lon="45.29825">
        <ele>1196.359616</ele>
        <time>2021-08-13T18:41:01.449Z</time>
      </trkpt>
      <trkpt lat="39.80431" lon="45.29893">
        <ele>1192.240607</ele>
        <time>2021-08-13T18:41:39.834Z</time>
      </trkpt>
      <trkpt lat="39.80371" lon="45.29928">
        <ele>1190.906561</ele>
        <time>2021-08-13T18:41:56.713Z</time>
      </trkpt>
      <trkpt lat="39.80316" lon="45.29991">
        <ele>1189.459237</ele>
        <time>2021-08-13T18:42:15.975Z</time>
      </trkpt>
      <trkpt lat="39.80293" lon="45.3004">
        <ele>1188.777316</ele>
        <time>2021-08-13T18:42:27.621Z</time>
      </trkpt>
      <trkpt lat="39.80261" lon="45.30065">
        <ele>1188.19318</ele>
        <time>2021-08-13T18:42:37.601Z</time>
      </trkpt>
      <trkpt lat="39.80186" lon="45.30056">
        <ele>1187.022404</ele>
        <time>2021-08-13T18:42:57.810Z</time>
      </trkpt>
      <trkpt lat="39.80033" lon="45.30123">
        <ele>1184.632288</ele>
        <time>2021-08-13T18:43:41.755Z</time>
      </trkpt>
      <trkpt lat="39.80014" lon="45.30149">
        <ele>1184.235918</ele>
        <time>2021-08-13T18:43:48.973Z</time>
      </trkpt>
      <trkpt lat="39.79946" lon="45.30192">
        <ele>1182.808628</ele>
        <time>2021-08-13T18:44:09.000Z</time>
      </trkpt>
      <trkpt lat="39.79731" lon="45.30304">
        <ele>1178.438178</ele>
        <time>2021-08-13T18:45:08.267Z</time>
      </trkpt>
      <trkpt lat="39.79691" lon="45.30306">
        <ele>1177.672199</ele>
        <time>2021-08-13T18:45:18.994Z</time>
      </trkpt>
      <trkpt lat="39.79659" lon="45.30344">
        <ele>1177.121083</ele>
        <time>2021-08-13T18:45:30.537Z</time>
      </trkpt>
      <trkpt lat="39.79612" lon="45.30334">
        <ele>1176.657167</ele>
        <time>2021-08-13T18:45:43.753Z</time>
      </trkpt>
      <trkpt lat="39.79421" lon="45.30348">
        <ele>1175.876507</ele>
        <time>2021-08-13T18:46:39.824Z</time>
      </trkpt>
      <trkpt lat="39.79386" lon="45.30344">
        <ele>1175.973124</ele>
        <time>2021-08-13T18:46:50.989Z</time>
      </trkpt>
      <trkpt lat="39.79371" lon="45.30376">
        <ele>1176.052725</ele>
        <time>2021-08-13T18:47:01.336Z</time>
      </trkpt>
      <trkpt lat="39.79334" lon="45.304">
        <ele>1176.575652</ele>
        <time>2021-08-13T18:47:18.970Z</time>
      </trkpt>
      <trkpt lat="39.79247" lon="45.30407">
        <ele>1179.591718</ele>
        <time>2021-08-13T18:48:05.351Z</time>
      </trkpt>
      <trkpt lat="39.79164" lon="45.30362">
        <ele>1182.400387</ele>
        <time>2021-08-13T18:48:55.628Z</time>
      </trkpt>
      <trkpt lat="39.79131" lon="45.30374">
        <ele>1182.652064</ele>
        <time>2021-08-13T18:49:13.734Z</time>
      </trkpt>
      <trkpt lat="39.79102" lon="45.30407">
        <ele>1182.932002</ele>
        <time>2021-08-13T18:49:32.786Z</time>
      </trkpt>
      <trkpt lat="39.79044" lon="45.30598">
        <ele>1180.661566</ele>
        <time>2021-08-13T18:50:14.628Z</time>
      </trkpt>
      <trkpt lat="39.79025" lon="45.30615">
        <ele>1179.510961</ele>
        <time>2021-08-13T18:50:19.830Z</time>
      </trkpt>
      <trkpt lat="39.78997" lon="45.30609">
        <ele>1178.151359</ele>
        <time>2021-08-13T18:50:25.889Z</time>
      </trkpt>
      <trkpt lat="39.78943" lon="45.30579">
        <ele>1175.328545</ele>
        <time>2021-08-13T18:50:38.240Z</time>
      </trkpt>
      <trkpt lat="39.78871" lon="45.30572">
        <ele>1170.274113</ele>
        <time>2021-08-13T18:50:53.123Z</time>
      </trkpt>
      <trkpt lat="39.78727" lon="45.30573">
        <ele>1160.532448</ele>
        <time>2021-08-13T18:51:23.102Z</time>
      </trkpt>
      <trkpt lat="39.78684" lon="45.30541">
        <ele>1158.170668</ele>
        <time>2021-08-13T18:51:33.998Z</time>
      </trkpt>
      <trkpt lat="39.78665" lon="45.30538">
        <ele>1157.242821</ele>
        <time>2021-08-13T18:51:38.333Z</time>
      </trkpt>
      <trkpt lat="39.78618" lon="45.30455">
        <ele>1153.456128</ele>
        <time>2021-08-13T18:51:56.877Z</time>
      </trkpt>
      <trkpt lat="39.78556" lon="45.3043">
        <ele>1151.804986</ele>
        <time>2021-08-13T18:52:12.918Z</time>
      </trkpt>
      <trkpt lat="39.7852" lon="45.30433">
        <ele>1150.92497</ele>
        <time>2021-08-13T18:52:22.160Z</time>
      </trkpt>
      <trkpt lat="39.78445" lon="45.305">
        <ele>1148.815028</ele>
        <time>2021-08-13T18:52:45.030Z</time>
      </trkpt>
      <trkpt lat="39.78322" lon="45.30485">
        <ele>1147.215374</ele>
        <time>2021-08-13T18:53:17.860Z</time>
      </trkpt>
      <trkpt lat="39.78302" lon="45.30463">
        <ele>1146.881828</ele>
        <time>2021-08-13T18:53:25.394Z</time>
      </trkpt>
      <trkpt lat="39.78271" lon="45.30494">
        <ele>1146.949791</ele>
        <time>2021-08-13T18:53:37.921Z</time>
      </trkpt>
      <trkpt lat="39.78266" lon="45.30506">
        <ele>1147.157309</ele>
        <time>2021-08-13T18:53:41.495Z</time>
      </trkpt>
      <trkpt lat="39.78243" lon="45.30566">
        <ele>1148.166902</ele>
        <time>2021-08-13T18:54:00.858Z</time>
      </trkpt>
      <trkpt lat="39.78136" lon="45.30493">
        <ele>1150.998952</ele>
        <time>2021-08-13T18:55:01.441Z</time>
      </trkpt>
      <trkpt lat="39.78129" lon="45.30459">
        <ele>1152.104935</ele>
        <time>2021-08-13T18:55:17.029Z</time>
      </trkpt>
      <trkpt lat="39.78102" lon="45.30438">
        <ele>1153.395455</ele>
        <time>2021-08-13T18:55:36.219Z</time>
      </trkpt>
      <trkpt lat="39.78099" lon="45.30322">
        <ele>1157.026411</ele>
        <time>2021-08-13T18:56:27.658Z</time>
      </trkpt>
      <trkpt lat="39.78029" lon="45.30323">
        <ele>1157.804809</ele>
        <time>2021-08-13T18:57:01.412Z</time>
      </trkpt>
      <trkpt lat="39.78004" lon="45.30334">
        <ele>1157.948764</ele>
        <time>2021-08-13T18:57:12.411Z</time>
      </trkpt>
      <trkpt lat="39.77819" lon="45.30503">
        <ele>1155.827817</ele>
        <time>2021-08-13T18:58:13.198Z</time>
      </trkpt>
      <trkpt lat="39.77765" lon="45.30561">
        <ele>1154.330478</ele>
        <time>2021-08-13T18:58:29.942Z</time>
      </trkpt>
      <trkpt lat="39.77697" lon="45.30571">
        <ele>1152.715176</ele>
        <time>2021-08-13T18:58:46.303Z</time>
      </trkpt>
      <trkpt lat="39.77614" lon="45.30554">
        <ele>1150.704421</ele>
        <time>2021-08-13T18:59:07.885Z</time>
      </trkpt>
      <trkpt lat="39.7754" lon="45.30582">
        <ele>1150.337637</ele>
        <time>2021-08-13T18:59:30.406Z</time>
      </trkpt>
      <trkpt lat="39.77433" lon="45.30505">
        <ele>1149.668098</ele>
        <time>2021-08-13T19:00:12.407Z</time>
      </trkpt>
      <trkpt lat="39.77357" lon="45.30497">
        <ele>1147.661313</ele>
        <time>2021-08-13T19:00:34.962Z</time>
      </trkpt>
      <trkpt lat="39.77322" lon="45.30494">
        <ele>1146.740058</ele>
        <time>2021-08-13T19:00:43.517Z</time>
      </trkpt>
      <trkpt lat="39.77299" lon="45.30502">
        <ele>1146.116604</ele>
        <time>2021-08-13T19:00:48.729Z</time>
      </trkpt>
      <trkpt lat="39.77248" lon="45.30512">
        <ele>1143.85513</ele>
        <time>2021-08-13T19:00:59.885Z</time>
      </trkpt>
      <trkpt lat="39.7724" lon="45.30605">
        <ele>1138.658667</ele>
        <time>2021-08-13T19:01:14.171Z</time>
      </trkpt>
      <trkpt lat="39.77215" lon="45.30616">
        <ele>1136.69805</ele>
        <time>2021-08-13T19:01:19.405Z</time>
      </trkpt>
      <trkpt lat="39.77123" lon="45.30658">
        <ele>1130.293293</ele>
        <time>2021-08-13T19:01:38.479Z</time>
      </trkpt>
      <trkpt lat="39.77101" lon="45.3066">
        <ele>1129.102336</ele>
        <time>2021-08-13T19:01:42.841Z</time>
      </trkpt>
      <trkpt lat="39.77032" lon="45.30668">
        <ele>1125.277484</ele>
        <time>2021-08-13T19:01:57.547Z</time>
      </trkpt>
      <trkpt lat="39.76993" lon="45.30673">
        <ele>1123.180966</ele>
        <time>2021-08-13T19:02:05.954Z</time>
      </trkpt>
      <trkpt lat="39.76962" lon="45.30685">
        <ele>1121.892645</ele>
        <time>2021-08-13T19:02:13.200Z</time>
      </trkpt>
      <trkpt lat="39.76914" lon="45.30706">
        <ele>1120.463376</ele>
        <time>2021-08-13T19:02:25.282Z</time>
      </trkpt>
      <trkpt lat="39.76872" lon="45.30739">
        <ele>1119.097745</ele>
        <time>2021-08-13T19:02:36.948Z</time>
      </trkpt>
      <trkpt lat="39.76802" lon="45.30765">
        <ele>1117.120101</ele>
        <time>2021-08-13T19:02:54.073Z</time>
      </trkpt>
      <trkpt lat="39.76748" lon="45.30794">
        <ele>1115.753006</ele>
        <time>2021-08-13T19:03:08.034Z</time>
      </trkpt>
      <trkpt lat="39.76625" lon="45.30869">
        <ele>1113.166646</ele>
        <time>2021-08-13T19:03:40.788Z</time>
      </trkpt>
      <trkpt lat="39.76601" lon="45.30867">
        <ele>1113.120134</ele>
        <time>2021-08-13T19:03:47.196Z</time>
      </trkpt>
      <trkpt lat="39.76574" lon="45.30849">
        <ele>1113.063195</ele>
        <time>2021-08-13T19:03:55.940Z</time>
      </trkpt>
      <trkpt lat="39.76564" lon="45.30845">
        <ele>1113.042315</ele>
        <time>2021-08-13T19:03:58.761Z</time>
      </trkpt>
      <trkpt lat="39.76517" lon="45.30865">
        <ele>1112.950077</ele>
        <time>2021-08-13T19:04:15.830Z</time>
      </trkpt>
      <trkpt lat="39.76494" lon="45.30862">
        <ele>1112.905536</ele>
        <time>2021-08-13T19:04:23.588Z</time>
      </trkpt>
      <trkpt lat="39.76476" lon="45.30854">
        <ele>1112.906365</ele>
        <time>2021-08-13T19:04:32.054Z</time>
      </trkpt>
      <trkpt lat="39.76434" lon="45.30825">
        <ele>1113.787981</ele>
        <time>2021-08-13T19:04:50.655Z</time>
      </trkpt>
      <trkpt lat="39.76396" lon="45.30798">
        <ele>1114.591637</ele>
        <time>2021-08-13T19:05:08.961Z</time>
      </trkpt>
      <trkpt lat="39.76383" lon="45.30798">
        <ele>1114.838223</ele>
        <time>2021-08-13T19:05:15.678Z</time>
      </trkpt>
      <trkpt lat="39.76331" lon="45.30799">
        <ele>1115.796742</ele>
        <time>2021-08-13T19:05:38.302Z</time>
      </trkpt>
      <trkpt lat="39.76242" lon="45.30764">
        <ele>1116.328291</ele>
        <time>2021-08-13T19:06:14.925Z</time>
      </trkpt>
      <trkpt lat="39.7619" lon="45.30743">
        <ele>1116.421674</ele>
        <time>2021-08-13T19:06:31.716Z</time>
      </trkpt>
      <trkpt lat="39.76165" lon="45.30734">
        <ele>1116.465725</ele>
        <time>2021-08-13T19:06:38.808Z</time>
      </trkpt>
      <trkpt lat="39.76142" lon="45.30725">
        <ele>1116.507586</ele>
        <time>2021-08-13T19:06:45.310Z</time>
      </trkpt>
      <trkpt lat="39.76073" lon="45.30709">
        <ele>1114.748826</ele>
        <time>2021-08-13T19:07:02.525Z</time>
      </trkpt>
      <trkpt lat="39.76043" lon="45.30716">
        <ele>1113.928086</ele>
        <time>2021-08-13T19:07:09.747Z</time>
      </trkpt>
      <trkpt lat="39.75899" lon="45.30772">
        <ele>1109.080377</ele>
        <time>2021-08-13T19:07:43.274Z</time>
      </trkpt>
      <trkpt lat="39.75794" lon="45.30816">
        <ele>1104.763028</ele>
        <time>2021-08-13T19:08:07.413Z</time>
      </trkpt>
      <trkpt lat="39.75776" lon="45.30823">
        <ele>1103.983914</ele>
        <time>2021-08-13T19:08:11.494Z</time>
      </trkpt>
      <trkpt lat="39.75727" lon="45.30841">
        <ele>1101.912273</ele>
        <time>2021-08-13T19:08:22.447Z</time>
      </trkpt>
      <trkpt lat="39.75659" lon="45.30856">
        <ele>1099.094904</ele>
        <time>2021-08-13T19:08:37.408Z</time>
      </trkpt>
      <trkpt lat="39.75645" lon="45.30859">
        <ele>1098.500841</ele>
        <time>2021-08-13T19:08:40.573Z</time>
      </trkpt>
      <trkpt lat="39.75619" lon="45.30866">
        <ele>1097.415119</ele>
        <time>2021-08-13T19:08:46.419Z</time>
      </trkpt>
      <trkpt lat="39.75365" lon="45.30907">
        <ele>1089.795666</ele>
        <time>2021-08-13T19:09:44.968Z</time>
      </trkpt>
      <trkpt lat="39.75105" lon="45.30927">
        <ele>1084.798982</ele>
        <time>2021-08-13T19:10:50.264Z</time>
      </trkpt>
      <trkpt lat="39.74861" lon="45.30953">
        <ele>1081.893519</ele>
        <time>2021-08-13T19:11:55.257Z</time>
      </trkpt>
      <trkpt lat="39.74849" lon="45.30954">
        <ele>1081.790843</ele>
        <time>2021-08-13T19:11:58.133Z</time>
      </trkpt>
      <trkpt lat="39.74833" lon="45.30967">
        <ele>1081.619053</ele>
        <time>2021-08-13T19:12:03.637Z</time>
      </trkpt>
      <trkpt lat="39.74827" lon="45.30984">
        <ele>1081.488132</ele>
        <time>2021-08-13T19:12:07.369Z</time>
      </trkpt>
      <trkpt lat="39.74811" lon="45.30958">
        <ele>1081.258433</ele>
        <time>2021-08-13T19:12:14.640Z</time>
      </trkpt>
      <trkpt lat="39.74786" lon="45.30942">
        <ele>1081.010971</ele>
        <time>2021-08-13T19:12:22.100Z</time>
      </trkpt>
      <trkpt lat="39.74754" lon="45.3093">
        <ele>1080.708971</ele>
        <time>2021-08-13T19:12:31.298Z</time>
      </trkpt>
      <trkpt lat="39.74491" lon="45.30873">
        <ele>1078.954723</ele>
        <time>2021-08-13T19:13:47.572Z</time>
      </trkpt>
      <trkpt lat="39.74426" lon="45.30861">
        <ele>1078.398308</ele>
        <time>2021-08-13T19:14:05.565Z</time>
      </trkpt>
      <trkpt lat="39.74337" lon="45.3086">
        <ele>1077.209225</ele>
        <time>2021-08-13T19:14:28.846Z</time>
      </trkpt>
      <trkpt lat="39.74114" lon="45.30866">
        <ele>1073.038163</ele>
        <time>2021-08-13T19:15:24.087Z</time>
      </trkpt>
      <trkpt lat="39.74019" lon="45.30849">
        <ele>1071.035555</ele>
        <time>2021-08-13T19:15:47.108Z</time>
      </trkpt>
      <trkpt lat="39.73938" lon="45.30823">
        <ele>1069.386345</ele>
        <time>2021-08-13T19:16:07.192Z</time>
      </trkpt>
      <trkpt lat="39.73895" lon="45.30802">
        <ele>1068.477329</ele>
        <time>2021-08-13T19:16:18.509Z</time>
      </trkpt>
      <trkpt lat="39.73841" lon="45.30757">
        <ele>1067.517216</ele>
        <time>2021-08-13T19:16:34.883Z</time>
      </trkpt>
      <trkpt lat="39.7381" lon="45.30692">
        <ele>1067.090125</ele>
        <time>2021-08-13T19:16:50.888Z</time>
      </trkpt>
      <trkpt lat="39.73792" lon="45.30625">
        <ele>1066.692021</ele>
        <time>2021-08-13T19:17:06.622Z</time>
      </trkpt>
      <trkpt lat="39.73762" lon="45.30486">
        <ele>1066.102509</ele>
        <time>2021-08-13T19:17:40.535Z</time>
      </trkpt>
      <trkpt lat="39.73717" lon="45.30271">
        <ele>1065.114263</ele>
        <time>2021-08-13T19:18:29.523Z</time>
      </trkpt>
      <trkpt lat="39.73714" lon="45.30256">
        <ele>1065.003731</ele>
        <time>2021-08-13T19:18:33.142Z</time>
      </trkpt>
      <trkpt lat="39.73713" lon="45.3025">
        <ele>1064.963185</ele>
        <time>2021-08-13T19:18:34.369Z</time>
      </trkpt>
      <trkpt lat="39.73712" lon="45.30234">
        <ele>1064.856847</ele>
        <time>2021-08-13T19:18:37.377Z</time>
      </trkpt>
      <trkpt lat="39.73705" lon="45.2981">
        <ele>1061.838349</ele>
        <time>2021-08-13T19:20:05.520Z</time>
      </trkpt>
      <trkpt lat="39.73691" lon="45.29644">
        <ele>1061.016941</ele>
        <time>2021-08-13T19:20:42.685Z</time>
      </trkpt>
      <trkpt lat="39.7367" lon="45.29379">
        <ele>1059.982547</ele>
        <time>2021-08-13T19:21:42.598Z</time>
      </trkpt>
      <trkpt lat="39.73628" lon="45.28987">
        <ele>1057.010831</ele>
        <time>2021-08-13T19:23:04.539Z</time>
      </trkpt>
      <trkpt lat="39.73614" lon="45.28862">
        <ele>1056.210172</ele>
        <time>2021-08-13T19:23:30.867Z</time>
      </trkpt>
      <trkpt lat="39.73606" lon="45.28754">
        <ele>1055.593713</ele>
        <time>2021-08-13T19:23:54.400Z</time>
      </trkpt>
      <trkpt lat="39.73605" lon="45.28637">
        <ele>1055.375635</ele>
        <time>2021-08-13T19:24:21.350Z</time>
      </trkpt>
      <trkpt lat="39.73626" lon="45.28501">
        <ele>1055.32374</ele>
        <time>2021-08-13T19:24:55.378Z</time>
      </trkpt>
      <trkpt lat="39.73639" lon="45.28419">
        <ele>1055.198185</ele>
        <time>2021-08-13T19:25:15.721Z</time>
      </trkpt>
      <trkpt lat="39.73641" lon="45.28406">
        <ele>1055.176152</ele>
        <time>2021-08-13T19:25:18.808Z</time>
      </trkpt>
      <trkpt lat="39.73655" lon="45.28345">
        <ele>1055.069475</ele>
        <time>2021-08-13T19:25:34.002Z</time>
      </trkpt>
      <trkpt lat="39.73683" lon="45.28194">
        <ele>1054.398943</ele>
        <time>2021-08-13T19:26:07.516Z</time>
      </trkpt>
      <trkpt lat="39.73679" lon="45.28127">
        <ele>1053.88876</ele>
        <time>2021-08-13T19:26:21.290Z</time>
      </trkpt>
      <trkpt lat="39.73674" lon="45.28105">
        <ele>1053.714163</ele>
        <time>2021-08-13T19:26:26.157Z</time>
      </trkpt>
      <trkpt lat="39.7367" lon="45.28092">
        <ele>1053.61448</ele>
        <time>2021-08-13T19:26:28.694Z</time>
      </trkpt>
      <trkpt lat="39.73645" lon="45.28007">
        <ele>1053.100843</ele>
        <time>2021-08-13T19:26:48.002Z</time>
      </trkpt>
      <trkpt lat="39.73625" lon="45.27951">
        <ele>1052.971508</ele>
        <time>2021-08-13T19:27:01.227Z</time>
      </trkpt>
      <trkpt lat="39.73616" lon="45.27917">
        <ele>1052.897352</ele>
        <time>2021-08-13T19:27:08.689Z</time>
      </trkpt>
      <trkpt lat="39.73614" lon="45.27889">
        <ele>1052.836884</ele>
        <time>2021-08-13T19:27:15.154Z</time>
      </trkpt>
      <trkpt lat="39.73612" lon="45.27865">
        <ele>1052.786858</ele>
        <time>2021-08-13T19:27:20.873Z</time>
      </trkpt>
      <trkpt lat="39.73623" lon="45.27562">
        <ele>1054.700013</ele>
        <time>2021-08-13T19:28:46.305Z</time>
      </trkpt>
      <trkpt lat="39.73623" lon="45.27543">
        <ele>1054.945828</ele>
        <time>2021-08-13T19:28:52.189Z</time>
      </trkpt>
      <trkpt lat="39.73626" lon="45.27421">
        <ele>1056.507397</ele>
        <time>2021-08-13T19:29:31.107Z</time>
      </trkpt>
      <trkpt lat="39.73626" lon="45.27385">
        <ele>1056.965478</ele>
        <time>2021-08-13T19:29:42.687Z</time>
      </trkpt>
      <trkpt lat="39.73629" lon="45.27284">
        <ele>1057.560038</ele>
        <time>2021-08-13T19:30:14.652Z</time>
      </trkpt>
      <trkpt lat="39.73631" lon="45.27219">
        <ele>1057.657003</ele>
        <time>2021-08-13T19:30:32.901Z</time>
      </trkpt>
      <trkpt lat="39.73637" lon="45.27189">
        <ele>1057.702933</ele>
        <time>2021-08-13T19:30:39.856Z</time>
      </trkpt>
      <trkpt lat="39.73652" lon="45.27149">
        <ele>1057.770981</ele>
        <time>2021-08-13T19:30:49.231Z</time>
      </trkpt>
      <trkpt lat="39.73693" lon="45.27047">
        <ele>1055.910854</ele>
        <time>2021-08-13T19:31:11.230Z</time>
      </trkpt>
      <trkpt lat="39.73724" lon="45.26975">
        <ele>1053.99744</ele>
        <time>2021-08-13T19:31:25.732Z</time>
      </trkpt>
      <trkpt lat="39.73776" lon="45.26853">
        <ele>1050.559552</ele>
        <time>2021-08-13T19:31:49.175Z</time>
      </trkpt>
      <trkpt lat="39.73789" lon="45.26821">
        <ele>1049.620868</ele>
        <time>2021-08-13T19:31:55.276Z</time>
      </trkpt>
      <trkpt lat="39.73824" lon="45.26733">
        <ele>1047.078282</ele>
        <time>2021-08-13T19:32:12.701Z</time>
      </trkpt>
      <trkpt lat="39.73834" lon="45.26689">
        <ele>1046.11409</ele>
        <time>2021-08-13T19:32:21.367Z</time>
      </trkpt>
      <trkpt lat="39.73842" lon="45.26638">
        <ele>1045.43224</ele>
        <time>2021-08-13T19:32:31.201Z</time>
      </trkpt>
      <trkpt lat="39.73847" lon="45.2659">
        <ele>1044.794911</ele>
        <time>2021-08-13T19:32:40.807Z</time>
      </trkpt>
      <trkpt lat="39.73854" lon="45.26499">
        <ele>1043.585715</ele>
        <time>2021-08-13T19:32:59.176Z</time>
      </trkpt>
      <trkpt lat="39.7386" lon="45.26442">
        <ele>1042.897279</ele>
        <time>2021-08-13T19:33:10.640Z</time>
      </trkpt>
      <trkpt lat="39.7386" lon="45.26434">
        <ele>1042.816253</ele>
        <time>2021-08-13T19:33:12.100Z</time>
      </trkpt>
      <trkpt lat="39.7387" lon="45.26314">
        <ele>1041.477674</ele>
        <time>2021-08-13T19:33:35.983Z</time>
      </trkpt>
      <trkpt lat="39.73872" lon="45.2619">
        <ele>1040.38641</ele>
        <time>2021-08-13T19:34:00.955Z</time>
      </trkpt>
      <trkpt lat="39.73872" lon="45.2613">
        <ele>1040.040183</ele>
        <time>2021-08-13T19:34:13.691Z</time>
      </trkpt>
      <trkpt lat="39.73871" lon="45.26089">
        <ele>1039.801018</ele>
        <time>2021-08-13T19:34:22.733Z</time>
      </trkpt>
      <trkpt lat="39.73855" lon="45.25983">
        <ele>1039.248111</ele>
        <time>2021-08-13T19:34:47.342Z</time>
      </trkpt>
      <trkpt lat="39.73829" lon="45.25896">
        <ele>1038.950874</ele>
        <time>2021-08-13T19:35:08.601Z</time>
      </trkpt>
      <trkpt lat="39.73814" lon="45.25823">
        <ele>1038.710769</ele>
        <time>2021-08-13T19:35:25.721Z</time>
      </trkpt>
      <trkpt lat="39.73811" lon="45.25767">
        <ele>1038.465586</ele>
        <time>2021-08-13T19:35:37.937Z</time>
      </trkpt>
      <trkpt lat="39.73825" lon="45.25663">
        <ele>1037.754115</ele>
        <time>2021-08-13T19:36:00.554Z</time>
      </trkpt>
      <trkpt lat="39.73831" lon="45.25631">
        <ele>1037.53383</ele>
        <time>2021-08-13T19:36:07.447Z</time>
      </trkpt>
      <trkpt lat="39.73833" lon="45.25597">
        <ele>1037.307751</ele>
        <time>2021-08-13T19:36:14.283Z</time>
      </trkpt>
      <trkpt lat="39.73832" lon="45.25525">
        <ele>1036.9104</ele>
        <time>2021-08-13T19:36:29.033Z</time>
      </trkpt>
      <trkpt lat="39.73821" lon="45.25467">
        <ele>1036.682926</ele>
        <time>2021-08-13T19:36:41.537Z</time>
      </trkpt>
      <trkpt lat="39.738" lon="45.25399">
        <ele>1036.405867</ele>
        <time>2021-08-13T19:36:57.664Z</time>
      </trkpt>
      <trkpt lat="39.73781" lon="45.25328">
        <ele>1036.140341</ele>
        <time>2021-08-13T19:37:16.573Z</time>
      </trkpt>
      <trkpt lat="39.73719" lon="45.25097">
        <ele>1036.068642</ele>
        <time>2021-08-13T19:38:17.797Z</time>
      </trkpt>
      <trkpt lat="39.73711" lon="45.2507">
        <ele>1035.727674</ele>
        <time>2021-08-13T19:38:23.718Z</time>
      </trkpt>
      <trkpt lat="39.73662" lon="45.24858">
        <ele>1033.191667</ele>
        <time>2021-08-13T19:39:05.868Z</time>
      </trkpt>
      <trkpt lat="39.73658" lon="45.24795">
        <ele>1032.55616</ele>
        <time>2021-08-13T19:39:18.214Z</time>
      </trkpt>
      <trkpt lat="39.73664" lon="45.24751">
        <ele>1032.109202</ele>
        <time>2021-08-13T19:39:27.212Z</time>
      </trkpt>
      <trkpt lat="39.737" lon="45.24627">
        <ele>1031.054423</ele>
        <time>2021-08-13T19:39:55.434Z</time>
      </trkpt>
      <trkpt lat="39.73703" lon="45.24574">
        <ele>1030.900211</ele>
        <time>2021-08-13T19:40:07.211Z</time>
      </trkpt>
      <trkpt lat="39.73699" lon="45.24527">
        <ele>1030.763027</ele>
        <time>2021-08-13T19:40:17.948Z</time>
      </trkpt>
      <trkpt lat="39.73686" lon="45.24478">
        <ele>1030.612666</ele>
        <time>2021-08-13T19:40:29.899Z</time>
      </trkpt>
      <trkpt lat="39.73659" lon="45.24414">
        <ele>1030.529623</ele>
        <time>2021-08-13T19:40:47.007Z</time>
      </trkpt>
      <trkpt lat="39.73532" lon="45.24184">
        <ele>1031.021986</ele>
        <time>2021-08-13T19:41:58.088Z</time>
      </trkpt>
      <trkpt lat="39.73515" lon="45.24145">
        <ele>1031.131421</ele>
        <time>2021-08-13T19:42:10.045Z</time>
      </trkpt>
      <trkpt lat="39.73496" lon="45.24066">
        <ele>1031.328693</ele>
        <time>2021-08-13T19:42:31.024Z</time>
      </trkpt>
      <trkpt lat="39.73495" lon="45.24045">
        <ele>1031.380497</ele>
        <time>2021-08-13T19:42:36.567Z</time>
      </trkpt>
      <trkpt lat="39.73494" lon="45.24">
        <ele>1031.467787</ele>
        <time>2021-08-13T19:42:47.654Z</time>
      </trkpt>
      <trkpt lat="39.73495" lon="45.23813">
        <ele>1031.816631</ele>
        <time>2021-08-13T19:43:33.492Z</time>
      </trkpt>
      <trkpt lat="39.7349" lon="45.23769">
        <ele>1032.160997</ele>
        <time>2021-08-13T19:43:45.097Z</time>
      </trkpt>
      <trkpt lat="39.73458" lon="45.23644">
        <ele>1033.349586</ele>
        <time>2021-08-13T19:44:22.668Z</time>
      </trkpt>
      <trkpt lat="39.73405" lon="45.23481">
        <ele>1035.516618</ele>
        <time>2021-08-13T19:45:20.128Z</time>
      </trkpt>
      <trkpt lat="39.73398" lon="45.23419">
        <ele>1036.40767</ele>
        <time>2021-08-13T19:45:40.497Z</time>
      </trkpt>
      <trkpt lat="39.73402" lon="45.23365">
        <ele>1037.168927</ele>
        <time>2021-08-13T19:45:57.457Z</time>
      </trkpt>
      <trkpt lat="39.73413" lon="45.23297">
        <ele>1038.071772</ele>
        <time>2021-08-13T19:46:18.961Z</time>
      </trkpt>
      <trkpt lat="39.73464" lon="45.23135">
        <ele>1040.337075</ele>
        <time>2021-08-13T19:47:12.566Z</time>
      </trkpt>
      <trkpt lat="39.73476" lon="45.23087">
        <ele>1041.343121</ele>
        <time>2021-08-13T19:47:29.222Z</time>
      </trkpt>
      <trkpt lat="39.7348" lon="45.23017">
        <ele>1042.780095</ele>
        <time>2021-08-13T19:47:54.226Z</time>
      </trkpt>
      <trkpt lat="39.73513" lon="45.22772">
        <ele>1048.50441</ele>
        <time>2021-08-13T19:49:26.982Z</time>
      </trkpt>
      <trkpt lat="39.73515" lon="45.22711">
        <ele>1050.043295</ele>
        <time>2021-08-13T19:49:51.603Z</time>
      </trkpt>
      <trkpt lat="39.73509" lon="45.22657">
        <ele>1051.188391</ele>
        <time>2021-08-13T19:50:12.715Z</time>
      </trkpt>
      <trkpt lat="39.73484" lon="45.22582">
        <ele>1052.420552</ele>
        <time>2021-08-13T19:50:42.972Z</time>
      </trkpt>
      <trkpt lat="39.73475" lon="45.22567">
        <ele>1052.690864</ele>
        <time>2021-08-13T19:50:49.513Z</time>
      </trkpt>
      <trkpt lat="39.73321" lon="45.22366">
        <ele>1053.950298</ele>
        <time>2021-08-13T19:52:05.281Z</time>
      </trkpt>
      <trkpt lat="39.73257" lon="45.2231">
        <ele>1052.521707</ele>
        <time>2021-08-13T19:52:23.728Z</time>
      </trkpt>
      <trkpt lat="39.73218" lon="45.22283">
        <ele>1050.649116</ele>
        <time>2021-08-13T19:52:33.825Z</time>
      </trkpt>
      <trkpt lat="39.73179" lon="45.22264">
        <ele>1048.894235</ele>
        <time>2021-08-13T19:52:42.948Z</time>
      </trkpt>
      <trkpt lat="39.73061" lon="45.22232">
        <ele>1041.58524</ele>
        <time>2021-08-13T19:53:07.592Z</time>
      </trkpt>
      <trkpt lat="39.73024" lon="45.22212">
        <ele>1038.407928</ele>
        <time>2021-08-13T19:53:15.310Z</time>
      </trkpt>
      <trkpt lat="39.72998" lon="45.22183">
        <ele>1035.641772</ele>
        <time>2021-08-13T19:53:22.014Z</time>
      </trkpt>
      <trkpt lat="39.72981" lon="45.22157">
        <ele>1033.549802</ele>
        <time>2021-08-13T19:53:27.051Z</time>
      </trkpt>
      <trkpt lat="39.72966" lon="45.22131">
        <ele>1031.591422</ele>
        <time>2021-08-13T19:53:31.821Z</time>
      </trkpt>
      <trkpt lat="39.72938" lon="45.22054">
        <ele>1028.19292</ele>
        <time>2021-08-13T19:53:44.371Z</time>
      </trkpt>
      <trkpt lat="39.7293" lon="45.21976">
        <ele>1024.991385</ele>
        <time>2021-08-13T19:53:57.353Z</time>
      </trkpt>
      <trkpt lat="39.7293" lon="45.21939">
        <ele>1023.50463</ele>
        <time>2021-08-13T19:54:03.948Z</time>
      </trkpt>
      <trkpt lat="39.7293" lon="45.21897">
        <ele>1022.459864</ele>
        <time>2021-08-13T19:54:14.290Z</time>
      </trkpt>
      <trkpt lat="39.7293" lon="45.21866">
        <ele>1022.880407</ele>
        <time>2021-08-13T19:54:22.759Z</time>
      </trkpt>
      <trkpt lat="39.72949" lon="45.21838">
        <ele>1023.391578</ele>
        <time>2021-08-13T19:54:35.330Z</time>
      </trkpt>
      <trkpt lat="39.7297" lon="45.21817">
        <ele>1023.866517</ele>
        <time>2021-08-13T19:54:47.015Z</time>
      </trkpt>
      <trkpt lat="39.73065" lon="45.2178">
        <ele>1025.518932</ele>
        <time>2021-08-13T19:55:36.437Z</time>
      </trkpt>
      <trkpt lat="39.7308" lon="45.2177">
        <ele>1025.586668</ele>
        <time>2021-08-13T19:55:44.785Z</time>
      </trkpt>
      <trkpt lat="39.73117" lon="45.21725">
        <ele>1025.792053</ele>
        <time>2021-08-13T19:56:03.073Z</time>
      </trkpt>
      <trkpt lat="39.73151" lon="45.21646">
        <ele>1026.070297</ele>
        <time>2021-08-13T19:56:24.746Z</time>
      </trkpt>
      <trkpt lat="39.73169" lon="45.21576">
        <ele>1025.930473</ele>
        <time>2021-08-13T19:56:40.877Z</time>
      </trkpt>
      <trkpt lat="39.73184" lon="45.21468">
        <ele>1024.82338</ele>
        <time>2021-08-13T19:57:03.458Z</time>
      </trkpt>
      <trkpt lat="39.73204" lon="45.21382">
        <ele>1023.909387</ele>
        <time>2021-08-13T19:57:22.364Z</time>
      </trkpt>
      <trkpt lat="39.73207" lon="45.21354">
        <ele>1023.57652</ele>
        <time>2021-08-13T19:57:28.525Z</time>
      </trkpt>
      <trkpt lat="39.73198" lon="45.21302">
        <ele>1022.929974</ele>
        <time>2021-08-13T19:57:39.396Z</time>
      </trkpt>
      <trkpt lat="39.73165" lon="45.21198">
        <ele>1021.55169</ele>
        <time>2021-08-13T19:58:02.366Z</time>
      </trkpt>
      <trkpt lat="39.73161" lon="45.21159">
        <ele>1021.063009</ele>
        <time>2021-08-13T19:58:10.587Z</time>
      </trkpt>
      <trkpt lat="39.73158" lon="45.21134">
        <ele>1020.77147</ele>
        <time>2021-08-13T19:58:15.569Z</time>
      </trkpt>
      <trkpt lat="39.73172" lon="45.21097">
        <ele>1020.304944</ele>
        <time>2021-08-13T19:58:23.756Z</time>
      </trkpt>
      <trkpt lat="39.73237" lon="45.2096">
        <ele>1018.499603</ele>
        <time>2021-08-13T19:58:55.066Z</time>
      </trkpt>
      <trkpt lat="39.73255" lon="45.20894">
        <ele>1018.825831</ele>
        <time>2021-08-13T19:59:10.506Z</time>
      </trkpt>
      <trkpt lat="39.73258" lon="45.20875">
        <ele>1018.991111</ele>
        <time>2021-08-13T19:59:15.084Z</time>
      </trkpt>
      <trkpt lat="39.73261" lon="45.20853">
        <ele>1019.185417</ele>
        <time>2021-08-13T19:59:20.862Z</time>
      </trkpt>
      <trkpt lat="39.73284" lon="45.2071">
        <ele>1021.029739</ele>
        <time>2021-08-13T20:00:07.302Z</time>
      </trkpt>
      <trkpt lat="39.73287" lon="45.20639">
        <ele>1025.751239</ele>
        <time>2021-08-13T20:00:37.527Z</time>
      </trkpt>
      <trkpt lat="39.73281" lon="45.20585">
        <ele>1029.303594</ele>
        <time>2021-08-13T20:01:12.976Z</time>
      </trkpt>
      <trkpt lat="39.73257" lon="45.20508">
        <ele>1034.751057</ele>
        <time>2021-08-13T20:02:23.159Z</time>
      </trkpt>
      <trkpt lat="39.73248" lon="45.20458">
        <ele>1037.188473</ele>
        <time>2021-08-13T20:03:01.538Z</time>
      </trkpt>
      <trkpt lat="39.73247" lon="45.20437">
        <ele>1038.02182</ele>
        <time>2021-08-13T20:03:15.959Z</time>
      </trkpt>
      <trkpt lat="39.7323" lon="45.20438">
        <ele>1038.879583</ele>
        <time>2021-08-13T20:03:24.672Z</time>
      </trkpt>
      <trkpt lat="39.7321" lon="45.20438">
        <ele>1039.917805</ele>
        <time>2021-08-13T20:03:38.608Z</time>
      </trkpt>
      <trkpt lat="39.73185" lon="45.20438">
        <ele>1041.224709</ele>
        <time>2021-08-13T20:03:51.568Z</time>
      </trkpt>
      <trkpt lat="39.73182" lon="45.2043">
        <ele>1041.565286</ele>
        <time>2021-08-13T20:03:56.998Z</time>
      </trkpt>
      <trkpt lat="39.73177" lon="45.20415">
        <ele>1042.22406</ele>
        <time>2021-08-13T20:04:05.682Z</time>
      </trkpt>
      <trkpt lat="39.73174" lon="45.2041">
        <ele>1042.457368</ele>
        <time>2021-08-13T20:04:08.223Z</time>
      </trkpt>
      <trkpt lat="39.73177" lon="45.20415">
        <ele>1042.690677</ele>
        <time>2021-08-13T20:04:10.804Z</time>
      </trkpt>
      <trkpt lat="39.73182" lon="45.2043">
        <ele>1043.34945</ele>
        <time>2021-08-13T20:04:20.518Z</time>
      </trkpt>
      <trkpt lat="39.73185" lon="45.20438">
        <ele>1043.690027</ele>
        <time>2021-08-13T20:04:25.676Z</time>
      </trkpt>
      <trkpt lat="39.7321" lon="45.20438">
        <ele>1044.996932</ele>
        <time>2021-08-13T20:04:34.175Z</time>
      </trkpt>
      <trkpt lat="39.7323" lon="45.20438">
        <ele>1043.52931</ele>
        <time>2021-08-13T20:04:40.668Z</time>
      </trkpt>
      <trkpt lat="39.73247" lon="45.20437">
        <ele>1042.26215</ele>
        <time>2021-08-13T20:04:44.470Z</time>
      </trkpt>
      <trkpt lat="39.73246" lon="45.20386">
        <ele>1039.244274</ele>
        <time>2021-08-13T20:04:52.456Z</time>
      </trkpt>
      <trkpt lat="39.73237" lon="45.203">
        <ele>1034.13769</ele>
        <time>2021-08-13T20:05:04.863Z</time>
      </trkpt>
      <trkpt lat="39.73242" lon="45.20228">
        <ele>1029.773397</ele>
        <time>2021-08-13T20:05:15.488Z</time>
      </trkpt>
      <trkpt lat="39.73306" lon="45.19953">
        <ele>1013.740128</ele>
        <time>2021-08-13T20:05:59.046Z</time>
      </trkpt>
      <trkpt lat="39.73313" lon="45.19921">
        <ele>1012.638596</ele>
        <time>2021-08-13T20:06:04.359Z</time>
      </trkpt>
      <trkpt lat="39.73318" lon="45.19884">
        <ele>1011.345355</ele>
        <time>2021-08-13T20:06:10.938Z</time>
      </trkpt>
      <trkpt lat="39.73329" lon="45.19744">
        <ele>1008.524448</ele>
        <time>2021-08-13T20:06:38.947Z</time>
      </trkpt>
      <trkpt lat="39.73324" lon="45.19701">
        <ele>1008.588243</ele>
        <time>2021-08-13T20:06:51.659Z</time>
      </trkpt>
      <trkpt lat="39.73289" lon="45.19642">
        <ele>1008.6962</ele>
        <time>2021-08-13T20:07:12.321Z</time>
      </trkpt>
      <trkpt lat="39.73243" lon="45.19594">
        <ele>1008.783966</ele>
        <time>2021-08-13T20:07:32.652Z</time>
      </trkpt>
      <trkpt lat="39.73224" lon="45.1958">
        <ele>1008.780024</ele>
        <time>2021-08-13T20:07:40.247Z</time>
      </trkpt>
      <trkpt lat="39.7321" lon="45.19571">
        <ele>1008.777077</ele>
        <time>2021-08-13T20:07:45.148Z</time>
      </trkpt>
      <trkpt lat="39.7314" lon="45.19532">
        <ele>1008.763161</ele>
        <time>2021-08-13T20:08:07.164Z</time>
      </trkpt>
      <trkpt lat="39.73085" lon="45.19484">
        <ele>1008.736733</ele>
        <time>2021-08-13T20:08:27.505Z</time>
      </trkpt>
      <trkpt lat="39.7306" lon="45.19457">
        <ele>1008.690642</ele>
        <time>2021-08-13T20:08:38.540Z</time>
      </trkpt>
      <trkpt lat="39.7303" lon="45.19418">
        <ele>1008.630214</ele>
        <time>2021-08-13T20:08:51.645Z</time>
      </trkpt>
      <trkpt lat="39.73057" lon="45.19373">
        <ele>1008.568385</ele>
        <time>2021-08-13T20:09:05.197Z</time>
      </trkpt>
      <trkpt lat="39.73074" lon="45.19346">
        <ele>1008.530752</ele>
        <time>2021-08-13T20:09:12.922Z</time>
      </trkpt>
      <trkpt lat="39.73075" lon="45.19314">
        <ele>1008.495537</ele>
        <time>2021-08-13T20:09:20.350Z</time>
      </trkpt>
      <trkpt lat="39.72987" lon="45.1918">
        <ele>1008.252845</ele>
        <time>2021-08-13T20:10:03.962Z</time>
      </trkpt>
      <trkpt lat="39.72917" lon="45.19075">
        <ele>1008.271729</ele>
        <time>2021-08-13T20:10:36.969Z</time>
      </trkpt>
      <trkpt lat="39.72854" lon="45.1898">
        <ele>1008.414421</ele>
        <time>2021-08-13T20:11:09.931Z</time>
      </trkpt>
      <trkpt lat="39.72806" lon="45.18911">
        <ele>1008.904709</ele>
        <time>2021-08-13T20:11:36.298Z</time>
      </trkpt>
      <trkpt lat="39.7277" lon="45.1886">
        <ele>1009.368831</ele>
        <time>2021-08-13T20:11:56.015Z</time>
      </trkpt>
      <trkpt lat="39.72783" lon="45.1882">
        <ele>1009.658743</ele>
        <time>2021-08-13T20:12:08.256Z</time>
      </trkpt>
      <trkpt lat="39.7282" lon="45.18699">
        <ele>1010.722346</ele>
        <time>2021-08-13T20:12:45.477Z</time>
      </trkpt>
      <trkpt lat="39.72835" lon="45.1865">
        <ele>1011.205575</ele>
        <time>2021-08-13T20:13:01.934Z</time>
      </trkpt>
      <trkpt lat="39.72851" lon="45.18606">
        <ele>1011.651065</ele>
        <time>2021-08-13T20:13:16.271Z</time>
      </trkpt>
      <trkpt lat="39.72868" lon="45.18556">
        <ele>1012.151364</ele>
        <time>2021-08-13T20:13:31.905Z</time>
      </trkpt>
      <trkpt lat="39.72896" lon="45.18492">
        <ele>1012.704419</ele>
        <time>2021-08-13T20:13:52.376Z</time>
      </trkpt>
      <trkpt lat="39.72926" lon="45.18446">
        <ele>1013.150359</ele>
        <time>2021-08-13T20:14:07.958Z</time>
      </trkpt>
      <trkpt lat="39.73003" lon="45.18342">
        <ele>1014.657707</ele>
        <time>2021-08-13T20:14:49.946Z</time>
      </trkpt>
      <trkpt lat="39.73028" lon="45.1831">
        <ele>1015.415051</ele>
        <time>2021-08-13T20:15:04.062Z</time>
      </trkpt>
      <trkpt lat="39.73229" lon="45.18051">
        <ele>1022.782745</ele>
        <time>2021-08-13T20:17:15.969Z</time>
      </trkpt>
      <trkpt lat="39.73285" lon="45.1798">
        <ele>1025.585304</ele>
        <time>2021-08-13T20:17:55.083Z</time>
      </trkpt>
      <trkpt lat="39.73424" lon="45.178">
        <ele>1032.974514</ele>
        <time>2021-08-13T20:19:39.199Z</time>
      </trkpt>
      <trkpt lat="39.73454" lon="45.17761">
        <ele>1034.605194</ele>
        <time>2021-08-13T20:20:01.747Z</time>
      </trkpt>
      <trkpt lat="39.73508" lon="45.17701">
        <ele>1037.355745</ele>
        <time>2021-08-13T20:20:39.737Z</time>
      </trkpt>
      <trkpt lat="39.73558" lon="45.1766">
        <ele>1039.545657</ele>
        <time>2021-08-13T20:21:10.786Z</time>
      </trkpt>
      <trkpt lat="39.73798" lon="45.17481">
        <ele>1049.40693</ele>
        <time>2021-08-13T20:23:31.567Z</time>
      </trkpt>
      <trkpt lat="39.73865" lon="45.17426">
        <ele>1051.76925</ele>
        <time>2021-08-13T20:24:10.648Z</time>
      </trkpt>
      <trkpt lat="39.73974" lon="45.173">
        <ele>1055.998197</ele>
        <time>2021-08-13T20:25:18.075Z</time>
      </trkpt>
      <trkpt lat="39.74054" lon="45.17196">
        <ele>1059.131936</ele>
        <time>2021-08-13T20:26:10.181Z</time>
      </trkpt>
      <trkpt lat="39.74151" lon="45.17072">
        <ele>1063.400441</ele>
        <time>2021-08-13T20:27:16.279Z</time>
      </trkpt>
      <trkpt lat="39.74216" lon="45.17009">
        <ele>1066.035862</ele>
        <time>2021-08-13T20:27:57.053Z</time>
      </trkpt>
      <trkpt lat="39.74542" lon="45.16812">
        <ele>1079.310659</ele>
        <time>2021-08-13T20:31:01.343Z</time>
      </trkpt>
      <trkpt lat="39.74559" lon="45.16802">
        <ele>1080.259504</ele>
        <time>2021-08-13T20:31:12.451Z</time>
      </trkpt>
      <trkpt lat="39.74569" lon="45.16797">
        <ele>1080.787612</ele>
        <time>2021-08-13T20:31:18.449Z</time>
      </trkpt>
      <trkpt lat="39.74683" lon="45.16728">
        <ele>1087.12549</ele>
        <time>2021-08-13T20:32:35.289Z</time>
      </trkpt>
      <trkpt lat="39.74776" lon="45.16673">
        <ele>1092.364151</ele>
        <time>2021-08-13T20:33:38.460Z</time>
      </trkpt>
      <trkpt lat="39.74802" lon="45.16657">
        <ele>1093.848448</ele>
        <time>2021-08-13T20:33:55.670Z</time>
      </trkpt>
      <trkpt lat="39.74844" lon="45.16632">
        <ele>1096.279944</ele>
        <time>2021-08-13T20:34:22.823Z</time>
      </trkpt>
      <trkpt lat="39.74901" lon="45.16592">
        <ele>1099.132505</ele>
        <time>2021-08-13T20:34:59.959Z</time>
      </trkpt>
      <trkpt lat="39.75009" lon="45.16471">
        <ele>1105.05842</ele>
        <time>2021-08-13T20:36:16.705Z</time>
      </trkpt>
      <trkpt lat="39.75423" lon="45.159">
        <ele>1126.694711</ele>
        <time>2021-08-13T20:41:25.055Z</time>
      </trkpt>
      <trkpt lat="39.75628" lon="45.15627">
        <ele>1137.119603</ele>
        <time>2021-08-13T20:43:54.741Z</time>
      </trkpt>
      <trkpt lat="39.75714" lon="45.15525">
        <ele>1141.333271</ele>
        <time>2021-08-13T20:44:54.727Z</time>
      </trkpt>
      <trkpt lat="39.75869" lon="45.15366">
        <ele>1148.556459</ele>
        <time>2021-08-13T20:46:37.024Z</time>
      </trkpt>
      <trkpt lat="39.75941" lon="45.15284">
        <ele>1151.997558</ele>
        <time>2021-08-13T20:47:25.681Z</time>
      </trkpt>
      <trkpt lat="39.75973" lon="45.15239">
        <ele>1153.677224</ele>
        <time>2021-08-13T20:47:49.563Z</time>
      </trkpt>
      <trkpt lat="39.76034" lon="45.15121">
        <ele>1157.837046</ele>
        <time>2021-08-13T20:48:46.041Z</time>
      </trkpt>
      <trkpt lat="39.76086" lon="45.15006">
        <ele>1162.117782</ele>
        <time>2021-08-13T20:49:41.641Z</time>
      </trkpt>
      <trkpt lat="39.76107" lon="45.14958">
        <ele>1163.926339</ele>
        <time>2021-08-13T20:50:05.465Z</time>
      </trkpt>
      <trkpt lat="39.76119" lon="45.14928">
        <ele>1165.5083</ele>
        <time>2021-08-13T20:50:20.135Z</time>
      </trkpt>
      <trkpt lat="39.76129" lon="45.14902">
        <ele>1166.837848</ele>
        <time>2021-08-13T20:50:34.373Z</time>
      </trkpt>
      <trkpt lat="39.76152" lon="45.14814">
        <ele>1171.19586</ele>
        <time>2021-08-13T20:51:21.069Z</time>
      </trkpt>
      <trkpt lat="39.76164" lon="45.14744">
        <ele>1174.589343</ele>
        <time>2021-08-13T20:51:59.052Z</time>
      </trkpt>
      <trkpt lat="39.76167" lon="45.14719">
        <ele>1176.001565</ele>
        <time>2021-08-13T20:52:13.236Z</time>
      </trkpt>
      <trkpt lat="39.76182" lon="45.14374">
        <ele>1197.588947</ele>
        <time>2021-08-13T20:55:37.739Z</time>
      </trkpt>
      <trkpt lat="39.76186" lon="45.14298">
        <ele>1202.460294</ele>
        <time>2021-08-13T20:56:24.052Z</time>
      </trkpt>
      <trkpt lat="39.76187" lon="45.14278">
        <ele>1203.786595</ele>
        <time>2021-08-13T20:56:36.404Z</time>
      </trkpt>
      <trkpt lat="39.76195" lon="45.14059">
        <ele>1218.388784</ele>
        <time>2021-08-13T20:58:53.295Z</time>
      </trkpt>
      <trkpt lat="39.76203" lon="45.13923">
        <ele>1226.608818</ele>
        <time>2021-08-13T21:00:12.099Z</time>
      </trkpt>
      <trkpt lat="39.7623" lon="45.13903">
        <ele>1228.919638</ele>
        <time>2021-08-13T21:00:35.199Z</time>
      </trkpt>
      <trkpt lat="39.76247" lon="45.13891">
        <ele>1230.421678</ele>
        <time>2021-08-13T21:00:49.958Z</time>
      </trkpt>
      <trkpt lat="39.76262" lon="45.1388">
        <ele>1231.745485</ele>
        <time>2021-08-13T21:01:02.588Z</time>
      </trkpt>
      <trkpt lat="39.76263" lon="45.13877">
        <ele>1231.944428</ele>
        <time>2021-08-13T21:01:04.558Z</time>
      </trkpt>
      <trkpt lat="39.76263" lon="45.1386">
        <ele>1232.950393</ele>
        <time>2021-08-13T21:01:13.790Z</time>
      </trkpt>
      <trkpt lat="39.76262" lon="45.13857">
        <ele>1233.131643</ele>
        <time>2021-08-13T21:01:15.722Z</time>
      </trkpt>
      <trkpt lat="39.76261" lon="45.13852">
        <ele>1233.484981</ele>
        <time>2021-08-13T21:01:18.892Z</time>
      </trkpt>
      <trkpt lat="39.76259" lon="45.13846">
        <ele>1233.832117</ele>
        <time>2021-08-13T21:01:23.280Z</time>
      </trkpt>
      <trkpt lat="39.76248" lon="45.13824">
        <ele>1235.141447</ele>
        <time>2021-08-13T21:01:36.740Z</time>
      </trkpt>
      <trkpt lat="39.76256" lon="45.13791">
        <ele>1236.921671</ele>
        <time>2021-08-13T21:01:55.212Z</time>
      </trkpt>
      <trkpt lat="39.76257" lon="45.13786">
        <ele>1237.148788</ele>
        <time>2021-08-13T21:01:58.208Z</time>
      </trkpt>
      <trkpt lat="39.76246" lon="45.13776">
        <ele>1238.001641</ele>
        <time>2021-08-13T21:02:06.320Z</time>
      </trkpt>
      <trkpt lat="39.76256" lon="45.13759">
        <ele>1239.072374</ele>
        <time>2021-08-13T21:02:16.833Z</time>
      </trkpt>
      <trkpt lat="39.76285" lon="45.13708">
        <ele>1242.319121</ele>
        <time>2021-08-13T21:02:50.801Z</time>
      </trkpt>
      <trkpt lat="39.76365" lon="45.13576">
        <ele>1250.453021</ele>
        <time>2021-08-13T21:04:17.565Z</time>
      </trkpt>
      <trkpt lat="39.76458" lon="45.13419">
        <ele>1259.059784</ele>
        <time>2021-08-13T21:05:55.234Z</time>
      </trkpt>
      <trkpt lat="39.76472" lon="45.13392">
        <ele>1260.280737</ele>
        <time>2021-08-13T21:06:10.426Z</time>
      </trkpt>
      <trkpt lat="39.76495" lon="45.13349">
        <ele>1262.205276</ele>
        <time>2021-08-13T21:06:32.593Z</time>
      </trkpt>
      <trkpt lat="39.76601" lon="45.1318">
        <ele>1270.489329</ele>
        <time>2021-08-13T21:08:02.341Z</time>
      </trkpt>
      <trkpt lat="39.76744" lon="45.12981">
        <ele>1283.271551</ele>
        <time>2021-08-13T21:10:23.998Z</time>
      </trkpt>
      <trkpt lat="39.76753" lon="45.12969">
        <ele>1284.135134</ele>
        <time>2021-08-13T21:10:34.379Z</time>
      </trkpt>
      <trkpt lat="39.76768" lon="45.12947">
        <ele>1285.645009</ele>
        <time>2021-08-13T21:10:49.945Z</time>
      </trkpt>
      <trkpt lat="39.76804" lon="45.12902">
        <ele>1288.392277</ele>
        <time>2021-08-13T21:11:26.453Z</time>
      </trkpt>
      <trkpt lat="39.76928" lon="45.12765">
        <ele>1296.377747</ele>
        <time>2021-08-13T21:13:01.575Z</time>
      </trkpt>
      <trkpt lat="39.77212" lon="45.12568">
        <ele>1304.348631</ele>
        <time>2021-08-13T21:15:17.189Z</time>
      </trkpt>
      <trkpt lat="39.77281" lon="45.12525">
        <ele>1307.866506</ele>
        <time>2021-08-13T21:16:00.160Z</time>
      </trkpt>
      <trkpt lat="39.77288" lon="45.1252">
        <ele>1308.234244</ele>
        <time>2021-08-13T21:16:06.571Z</time>
      </trkpt>
      <trkpt lat="39.77347" lon="45.12453">
        <ele>1312.136789</ele>
        <time>2021-08-13T21:16:55.349Z</time>
      </trkpt>
      <trkpt lat="39.77527" lon="45.12207">
        <ele>1325.087935</ele>
        <time>2021-08-13T21:19:32.604Z</time>
      </trkpt>
      <trkpt lat="39.77573" lon="45.12165">
        <ele>1327.420548</ele>
        <time>2021-08-13T21:20:03.485Z</time>
      </trkpt>
      <trkpt lat="39.77745" lon="45.12034">
        <ele>1334.766899</ele>
        <time>2021-08-13T21:21:42.335Z</time>
      </trkpt>
      <trkpt lat="39.77896" lon="45.11909">
        <ele>1342.581773</ele>
        <time>2021-08-13T21:23:15.516Z</time>
      </trkpt>
      <trkpt lat="39.78103" lon="45.11683">
        <ele>1360.71531</ele>
        <time>2021-08-13T21:26:24.514Z</time>
      </trkpt>
      <trkpt lat="39.78279" lon="45.11472">
        <ele>1380.914619</ele>
        <time>2021-08-13T21:29:39.062Z</time>
      </trkpt>
      <trkpt lat="39.78289" lon="45.11464">
        <ele>1381.873184</ele>
        <time>2021-08-13T21:29:48.505Z</time>
      </trkpt>
      <trkpt lat="39.783" lon="45.11453">
        <ele>1383.090347</ele>
        <time>2021-08-13T21:30:00.407Z</time>
      </trkpt>
      <trkpt lat="39.78403" lon="45.11371">
        <ele>1391.289724</ele>
        <time>2021-08-13T21:31:27.904Z</time>
      </trkpt>
      <trkpt lat="39.78859" lon="45.1114">
        <ele>1417.338394</ele>
        <time>2021-08-13T21:36:13.094Z</time>
      </trkpt>
      <trkpt lat="39.79082" lon="45.11027">
        <ele>1436.368467</ele>
        <time>2021-08-13T21:39:18.229Z</time>
      </trkpt>
      <trkpt lat="39.79101" lon="45.11011">
        <ele>1438.320782</ele>
        <time>2021-08-13T21:39:37.189Z</time>
      </trkpt>
      <trkpt lat="39.79119" lon="45.10988">
        <ele>1440.492247</ele>
        <time>2021-08-13T21:39:58.298Z</time>
      </trkpt>
      <trkpt lat="39.79177" lon="45.10895">
        <ele>1447.691024</ele>
        <time>2021-08-13T21:41:10.956Z</time>
      </trkpt>
      <trkpt lat="39.79221" lon="45.10848">
        <ele>1451.349705</ele>
        <time>2021-08-13T21:41:52.917Z</time>
      </trkpt>
      <trkpt lat="39.79353" lon="45.10765">
        <ele>1459.237992</ele>
        <time>2021-08-13T21:43:19.183Z</time>
      </trkpt>
      <trkpt lat="39.7946" lon="45.10662">
        <ele>1464.229263</ele>
        <time>2021-08-13T21:44:22.938Z</time>
      </trkpt>
      <trkpt lat="39.79488" lon="45.10649">
        <ele>1465.642404</ele>
        <time>2021-08-13T21:44:36.987Z</time>
      </trkpt>
      <trkpt lat="39.79546" lon="45.10643">
        <ele>1468.492415</ele>
        <time>2021-08-13T21:45:07.059Z</time>
      </trkpt>
      <trkpt lat="39.79587" lon="45.10653">
        <ele>1470.527216</ele>
        <time>2021-08-13T21:45:31.782Z</time>
      </trkpt>
      <trkpt lat="39.79615" lon="45.10671">
        <ele>1472.013539</ele>
        <time>2021-08-13T21:45:52.971Z</time>
      </trkpt>
      <trkpt lat="39.79664" lon="45.10688">
        <ele>1476.705514</ele>
        <time>2021-08-13T21:46:32.662Z</time>
      </trkpt>
      <trkpt lat="39.79692" lon="45.10683">
        <ele>1479.600449</ele>
        <time>2021-08-13T21:46:56.434Z</time>
      </trkpt>
      <trkpt lat="39.79711" lon="45.10672">
        <ele>1481.773316</ele>
        <time>2021-08-13T21:47:15.578Z</time>
      </trkpt>
      <trkpt lat="39.79749" lon="45.10648">
        <ele>1486.089783</ele>
        <time>2021-08-13T21:47:55.836Z</time>
      </trkpt>
      <trkpt lat="39.79763" lon="45.10635">
        <ele>1487.843629</ele>
        <time>2021-08-13T21:48:12.372Z</time>
      </trkpt>
      <trkpt lat="39.79773" lon="45.10627">
        <ele>1489.106771</ele>
        <time>2021-08-13T21:48:24.698Z</time>
      </trkpt>
      <trkpt lat="39.79807" lon="45.10601">
        <ele>1493.287513</ele>
        <time>2021-08-13T21:49:03.999Z</time>
      </trkpt>
      <trkpt lat="39.7983" lon="45.10585">
        <ele>1496.162519</ele>
        <time>2021-08-13T21:49:29.953Z</time>
      </trkpt>
      <trkpt lat="39.79851" lon="45.10575">
        <ele>1498.536744</ele>
        <time>2021-08-13T21:49:52.135Z</time>
      </trkpt>
      <trkpt lat="39.79905" lon="45.1054">
        <ele>1505.150399</ele>
        <time>2021-08-13T21:50:48.624Z</time>
      </trkpt>
      <trkpt lat="39.79923" lon="45.1052">
        <ele>1507.774708</ele>
        <time>2021-08-13T21:51:09.210Z</time>
      </trkpt>
      <trkpt lat="39.79935" lon="45.10498">
        <ele>1510.060855</ele>
        <time>2021-08-13T21:51:27.249Z</time>
      </trkpt>
      <trkpt lat="39.79962" lon="45.10413">
        <ele>1515.957654</ele>
        <time>2021-08-13T21:52:22.830Z</time>
      </trkpt>
      <trkpt lat="39.79977" lon="45.10382">
        <ele>1518.224903</ele>
        <time>2021-08-13T21:52:43.018Z</time>
      </trkpt>
      <trkpt lat="39.80009" lon="45.1036">
        <ele>1521.16291</ele>
        <time>2021-08-13T21:53:08.399Z</time>
      </trkpt>
      <trkpt lat="39.80114" lon="45.10323">
        <ele>1530.897393</ele>
        <time>2021-08-13T21:54:31.338Z</time>
      </trkpt>
      <trkpt lat="39.80152" lon="45.10303">
        <ele>1534.911132</ele>
        <time>2021-08-13T21:55:06.486Z</time>
      </trkpt>
      <trkpt lat="39.80174" lon="45.1028">
        <ele>1537.597654</ele>
        <time>2021-08-13T21:55:31.001Z</time>
      </trkpt>
      <trkpt lat="39.80196" lon="45.10232">
        <ele>1541.794835</ele>
        <time>2021-08-13T21:56:10.975Z</time>
      </trkpt>
      <trkpt lat="39.80196" lon="45.10172">
        <ele>1547.061479</ele>
        <time>2021-08-13T21:56:56.812Z</time>
      </trkpt>
      <trkpt lat="39.80165" lon="45.09957">
        <ele>1566.276259</ele>
        <time>2021-08-13T21:59:42.120Z</time>
      </trkpt>
      <trkpt lat="39.80157" lon="45.09939">
        <ele>1567.814825</ele>
        <time>2021-08-13T21:59:57.740Z</time>
      </trkpt>
      <trkpt lat="39.8012" lon="45.09886">
        <ele>1572.902799</ele>
        <time>2021-08-13T22:00:45.698Z</time>
      </trkpt>
      <trkpt lat="39.80085" lon="45.09855">
        <ele>1576.891683</ele>
        <time>2021-08-13T22:01:20.293Z</time>
      </trkpt>
      <trkpt lat="39.80068" lon="45.09843">
        <ele>1578.7027</ele>
        <time>2021-08-13T22:01:35.420Z</time>
      </trkpt>
      <trkpt lat="39.80046" lon="45.09841">
        <ele>1580.74336</ele>
        <time>2021-08-13T22:01:50.156Z</time>
      </trkpt>
      <trkpt lat="39.80028" lon="45.09855">
        <ele>1581.615969</ele>
        <time>2021-08-13T22:02:03.785Z</time>
      </trkpt>
      <trkpt lat="39.80016" lon="45.09877">
        <ele>1582.454078</ele>
        <time>2021-08-13T22:02:16.375Z</time>
      </trkpt>
      <trkpt lat="39.79984" lon="45.09981">
        <ele>1585.826704</ele>
        <time>2021-08-13T22:03:03.348Z</time>
      </trkpt>
      <trkpt lat="39.79981" lon="45.09989">
        <ele>1586.114864</ele>
        <time>2021-08-13T22:03:05.843Z</time>
      </trkpt>
      <trkpt lat="39.79951" lon="45.10059">
        <ele>1588.002673</ele>
        <time>2021-08-13T22:03:33.145Z</time>
      </trkpt>
      <trkpt lat="39.79941" lon="45.10073">
        <ele>1588.076554</ele>
        <time>2021-08-13T22:03:36.997Z</time>
      </trkpt>
      <trkpt lat="39.79891" lon="45.10141">
        <ele>1588.443088</ele>
        <time>2021-08-13T22:03:59.535Z</time>
      </trkpt>
      <trkpt lat="39.79875" lon="45.10157">
        <ele>1588.543854</ele>
        <time>2021-08-13T22:04:06.656Z</time>
      </trkpt>
      <trkpt lat="39.79863" lon="45.10169">
        <ele>1588.622247</ele>
        <time>2021-08-13T22:04:10.720Z</time>
      </trkpt>
      <trkpt lat="39.79835" lon="45.10197">
        <ele>1588.801407</ele>
        <time>2021-08-13T22:04:22.159Z</time>
      </trkpt>
      <trkpt lat="39.79799" lon="45.10223">
        <ele>1589.416064</ele>
        <time>2021-08-13T22:04:36.765Z</time>
      </trkpt>
      <trkpt lat="39.79771" lon="45.10236">
        <ele>1589.93151</ele>
        <time>2021-08-13T22:04:47.558Z</time>
      </trkpt>
      <trkpt lat="39.79748" lon="45.10236">
        <ele>1590.330338</ele>
        <time>2021-08-13T22:04:56.484Z</time>
      </trkpt>
      <trkpt lat="39.79718" lon="45.10223">
        <ele>1590.865434</ele>
        <time>2021-08-13T22:05:07.925Z</time>
      </trkpt>
      <trkpt lat="39.79699" lon="45.10209">
        <ele>1591.24229</ele>
        <time>2021-08-13T22:05:17.079Z</time>
      </trkpt>
      <trkpt lat="39.79679" lon="45.10183">
        <ele>1591.727626</ele>
        <time>2021-08-13T22:05:30.130Z</time>
      </trkpt>
      <trkpt lat="39.79662" lon="45.10143">
        <ele>1593.381923</ele>
        <time>2021-08-13T22:05:48.658Z</time>
      </trkpt>
      <trkpt lat="39.79657" lon="45.10098">
        <ele>1595.507875</ele>
        <time>2021-08-13T22:06:09.242Z</time>
      </trkpt>
      <trkpt lat="39.79662" lon="45.09893">
        <ele>1605.856324</ele>
        <time>2021-08-13T22:08:01.754Z</time>
      </trkpt>
      <trkpt lat="39.79647" lon="45.09828">
        <ele>1610.114448</ele>
        <time>2021-08-13T22:08:43.245Z</time>
      </trkpt>
      <trkpt lat="39.79629" lon="45.0979">
        <ele>1612.913544</ele>
        <time>2021-08-13T22:09:10.213Z</time>
      </trkpt>
      <trkpt lat="39.79611" lon="45.09751">
        <ele>1615.722218</ele>
        <time>2021-08-13T22:09:37.010Z</time>
      </trkpt>
      <trkpt lat="39.79592" lon="45.09676">
        <ele>1620.955651</ele>
        <time>2021-08-13T22:10:24.463Z</time>
      </trkpt>
      <trkpt lat="39.79593" lon="45.09633">
        <ele>1623.978014</ele>
        <time>2021-08-13T22:10:51.336Z</time>
      </trkpt>
      <trkpt lat="39.79606" lon="45.09567">
        <ele>1628.629195</ele>
        <time>2021-08-13T22:11:33.397Z</time>
      </trkpt>
      <trkpt lat="39.79749" lon="45.09233">
        <ele>1656.170493</ele>
        <time>2021-08-13T22:15:44.649Z</time>
      </trkpt>
      <trkpt lat="39.79828" lon="45.09044">
        <ele>1669.932274</ele>
        <time>2021-08-13T22:17:55.411Z</time>
      </trkpt>
      <trkpt lat="39.79927" lon="45.0882">
        <ele>1682.307614</ele>
        <time>2021-08-13T22:20:06.728Z</time>
      </trkpt>
      <trkpt lat="39.80079" lon="45.0845">
        <ele>1696.462134</ele>
        <time>2021-08-13T22:23:02.014Z</time>
      </trkpt>
      <trkpt lat="39.80093" lon="45.08418">
        <ele>1697.611284</ele>
        <time>2021-08-13T22:23:16.164Z</time>
      </trkpt>
      <trkpt lat="39.80213" lon="45.08134">
        <ele>1708.71909</ele>
        <time>2021-08-13T22:25:32.471Z</time>
      </trkpt>
      <trkpt lat="39.80226" lon="45.08097">
        <ele>1710.238928</ele>
        <time>2021-08-13T22:25:50.784Z</time>
      </trkpt>
      <trkpt lat="39.80228" lon="45.08092">
        <ele>1710.430671</ele>
        <time>2021-08-13T22:25:54.910Z</time>
      </trkpt>
      <trkpt lat="39.80287" lon="45.0782">
        <ele>1723.5482</ele>
        <time>2021-08-13T22:28:19.642Z</time>
      </trkpt>
      <trkpt lat="39.80299" lon="45.07778">
        <ele>1725.56785</ele>
        <time>2021-08-13T22:28:41.478Z</time>
      </trkpt>
      <trkpt lat="39.80312" lon="45.07752">
        <ele>1726.978665</ele>
        <time>2021-08-13T22:28:56.636Z</time>
      </trkpt>
      <trkpt lat="39.80332" lon="45.07725">
        <ele>1728.684456</ele>
        <time>2021-08-13T22:29:14.782Z</time>
      </trkpt>
      <trkpt lat="39.80362" lon="45.07697">
        <ele>1730.860967</ele>
        <time>2021-08-13T22:29:37.748Z</time>
      </trkpt>
      <trkpt lat="39.80594" lon="45.07549">
        <ele>1747.220857</ele>
        <time>2021-08-13T22:32:27.161Z</time>
      </trkpt>
      <trkpt lat="39.80618" lon="45.07527">
        <ele>1749.385547</ele>
        <time>2021-08-13T22:32:48.648Z</time>
      </trkpt>
      <trkpt lat="39.80631" lon="45.07503">
        <ele>1751.087383</ele>
        <time>2021-08-13T22:33:06.638Z</time>
      </trkpt>
      <trkpt lat="39.80657" lon="45.07427">
        <ele>1755.900046</ele>
        <time>2021-08-13T22:33:55.645Z</time>
      </trkpt>
      <trkpt lat="39.80667" lon="45.07374">
        <ele>1758.810865</ele>
        <time>2021-08-13T22:34:28.769Z</time>
      </trkpt>
      <trkpt lat="39.80679" lon="45.07182">
        <ele>1767.898379</ele>
        <time>2021-08-13T22:36:05.861Z</time>
      </trkpt>
      <trkpt lat="39.80678" lon="45.07128">
        <ele>1769.867704</ele>
        <time>2021-08-13T22:36:28.454Z</time>
      </trkpt>
      <trkpt lat="39.8069" lon="45.07067">
        <ele>1771.790997</ele>
        <time>2021-08-13T22:36:53.415Z</time>
      </trkpt>
      <trkpt lat="39.80716" lon="45.07005">
        <ele>1773.926062</ele>
        <time>2021-08-13T22:37:20.461Z</time>
      </trkpt>
      <trkpt lat="39.80739" lon="45.06967">
        <ele>1775.388608</ele>
        <time>2021-08-13T22:37:39.359Z</time>
      </trkpt>
      <trkpt lat="39.80768" lon="45.06933">
        <ele>1777.362087</ele>
        <time>2021-08-13T22:38:00.318Z</time>
      </trkpt>
      <trkpt lat="39.80802" lon="45.06913">
        <ele>1779.491689</ele>
        <time>2021-08-13T22:38:21.806Z</time>
      </trkpt>
      <trkpt lat="39.80921" lon="45.06875">
        <ele>1786.500546</ele>
        <time>2021-08-13T22:39:42.816Z</time>
      </trkpt>
      <trkpt lat="39.8095" lon="45.06854">
        <ele>1788.68457</ele>
        <time>2021-08-13T22:40:07.903Z</time>
      </trkpt>
      <trkpt lat="39.80969" lon="45.06827">
        <ele>1790.501878</ele>
        <time>2021-08-13T22:40:29.388Z</time>
      </trkpt>
      <trkpt lat="39.80986" lon="45.06788">
        <ele>1792.727194</ele>
        <time>2021-08-13T22:40:54.589Z</time>
      </trkpt>
      <trkpt lat="39.80995" lon="45.06746">
        <ele>1794.916916</ele>
        <time>2021-08-13T22:41:17.813Z</time>
      </trkpt>
      <trkpt lat="39.80997" lon="45.06702">
        <ele>1797.108593</ele>
        <time>2021-08-13T22:41:39.071Z</time>
      </trkpt>
      <trkpt lat="39.80998" lon="45.0666">
        <ele>1798.086999</ele>
        <time>2021-08-13T22:41:57.667Z</time>
      </trkpt>
      <trkpt lat="39.80999" lon="45.06583">
        <ele>1798.700977</ele>
        <time>2021-08-13T22:42:25.686Z</time>
      </trkpt>
      <trkpt lat="39.80999" lon="45.06564">
        <ele>1798.854489</ele>
        <time>2021-08-13T22:42:31.518Z</time>
      </trkpt>
      <trkpt lat="39.80998" lon="45.06421">
        <ele>1798.675132</ele>
        <time>2021-08-13T22:43:00.598Z</time>
      </trkpt>
      <trkpt lat="39.81021" lon="45.06137">
        <ele>1787.613821</ele>
        <time>2021-08-13T22:43:46.636Z</time>
      </trkpt>
      <trkpt lat="39.81038" lon="45.06037">
        <ele>1782.563251</ele>
        <time>2021-08-13T22:44:02.631Z</time>
      </trkpt>
      <trkpt lat="39.81141" lon="45.05604">
        <ele>1759.274117</ele>
        <time>2021-08-13T22:45:12.464Z</time>
      </trkpt>
      <trkpt lat="39.81252" lon="45.05302">
        <ele>1745.237381</ele>
        <time>2021-08-13T22:46:07.013Z</time>
      </trkpt>
      <trkpt lat="39.81323" lon="45.05069">
        <ele>1733.258971</ele>
        <time>2021-08-13T22:46:46.606Z</time>
      </trkpt>
      <trkpt lat="39.81367" lon="45.04862">
        <ele>1720.623752</ele>
        <time>2021-08-13T22:47:19.288Z</time>
      </trkpt>
      <trkpt lat="39.81391" lon="45.04715">
        <ele>1710.043448</ele>
        <time>2021-08-13T22:47:41.498Z</time>
      </trkpt>
      <trkpt lat="39.81399" lon="45.04639">
        <ele>1704.654267</ele>
        <time>2021-08-13T22:47:52.675Z</time>
      </trkpt>
      <trkpt lat="39.81426" lon="45.0447">
        <ele>1692.470616</ele>
        <time>2021-08-13T22:48:18.191Z</time>
      </trkpt>
      <trkpt lat="39.81443" lon="45.04361">
        <ele>1685.875072</ele>
        <time>2021-08-13T22:48:35.077Z</time>
      </trkpt>
      <trkpt lat="39.81461" lon="45.0425">
        <ele>1679.745684</ele>
        <time>2021-08-13T22:48:52.714Z</time>
      </trkpt>
      <trkpt lat="39.81468" lon="45.04213">
        <ele>1677.628244</ele>
        <time>2021-08-13T22:48:58.846Z</time>
      </trkpt>
      <trkpt lat="39.81517" lon="45.03944">
        <ele>1663.008407</ele>
        <time>2021-08-13T22:49:41.602Z</time>
      </trkpt>
      <trkpt lat="39.81555" lon="45.03787">
        <ele>1653.537527</ele>
        <time>2021-08-13T22:50:06.619Z</time>
      </trkpt>
      <trkpt lat="39.81565" lon="45.03764">
        <ele>1651.995748</ele>
        <time>2021-08-13T22:50:10.644Z</time>
      </trkpt>
      <trkpt lat="39.81585" lon="45.03722">
        <ele>1649.611172</ele>
        <time>2021-08-13T22:50:18.027Z</time>
      </trkpt>
      <trkpt lat="39.81755" lon="45.03432">
        <ele>1635.028771</ele>
        <time>2021-08-13T22:51:16.151Z</time>
      </trkpt>
      <trkpt lat="39.81772" lon="45.03379">
        <ele>1633.244163</ele>
        <time>2021-08-13T22:51:28.311Z</time>
      </trkpt>
      <trkpt lat="39.81776" lon="45.0336">
        <ele>1633.448877</ele>
        <time>2021-08-13T22:51:32.460Z</time>
      </trkpt>
      <trkpt lat="39.8179" lon="45.0325">
        <ele>1635.744801</ele>
        <time>2021-08-13T22:52:09.075Z</time>
      </trkpt>
      <trkpt lat="39.81813" lon="45.03087">
        <ele>1640.04534</ele>
        <time>2021-08-13T22:53:22.938Z</time>
      </trkpt>
      <trkpt lat="39.81814" lon="45.03054">
        <ele>1641.249695</ele>
        <time>2021-08-13T22:53:37.601Z</time>
      </trkpt>
      <trkpt lat="39.81812" lon="45.03015">
        <ele>1642.660896</ele>
        <time>2021-08-13T22:53:54.646Z</time>
      </trkpt>
      <trkpt lat="39.81796" lon="45.02926">
        <ele>1645.972278</ele>
        <time>2021-08-13T22:54:33.858Z</time>
      </trkpt>
      <trkpt lat="39.81749" lon="45.02658">
        <ele>1657.560921</ele>
        <time>2021-08-13T22:56:40.539Z</time>
      </trkpt>
      <trkpt lat="39.81738" lon="45.02577">
        <ele>1662.644311</ele>
        <time>2021-08-13T22:57:26.702Z</time>
      </trkpt>
      <trkpt lat="39.81732" lon="45.02536">
        <ele>1665.255858</ele>
        <time>2021-08-13T22:57:53.832Z</time>
      </trkpt>
      <trkpt lat="39.81743" lon="45.02518">
        <ele>1666.661527</ele>
        <time>2021-08-13T22:58:10.175Z</time>
      </trkpt>
      <trkpt lat="39.81749" lon="45.0245">
        <ele>1670.700164</ele>
        <time>2021-08-13T22:58:54.569Z</time>
      </trkpt>
      <trkpt lat="39.81758" lon="45.02397">
        <ele>1673.115042</ele>
        <time>2021-08-13T22:59:27.951Z</time>
      </trkpt>
      <trkpt lat="39.81774" lon="45.02373">
        <ele>1674.517243</ele>
        <time>2021-08-13T22:59:44.248Z</time>
      </trkpt>
      <trkpt lat="39.81788" lon="45.02357">
        <ele>1675.599284</ele>
        <time>2021-08-13T22:59:58.837Z</time>
      </trkpt>
      <trkpt lat="39.81803" lon="45.02352">
        <ele>1676.46298</ele>
        <time>2021-08-13T23:00:06.919Z</time>
      </trkpt>
      <trkpt lat="39.8182" lon="45.02352">
        <ele>1677.437346</ele>
        <time>2021-08-13T23:00:18.229Z</time>
      </trkpt>
      <trkpt lat="39.81804" lon="45.02349">
        <ele>1678.330082</ele>
        <time>2021-08-13T23:00:25.108Z</time>
      </trkpt>
      <trkpt lat="39.81794" lon="45.02336">
        <ele>1679.16967</ele>
        <time>2021-08-13T23:00:33.187Z</time>
      </trkpt>
      <trkpt lat="39.81795" lon="45.02309">
        <ele>1680.342393</ele>
        <time>2021-08-13T23:00:43.224Z</time>
      </trkpt>
      <trkpt lat="39.81799" lon="45.02302">
        <ele>1680.605004</ele>
        <time>2021-08-13T23:00:46.107Z</time>
      </trkpt>
      <trkpt lat="39.81924" lon="45.022">
        <ele>1681.186817</ele>
        <time>2021-08-13T23:01:29.250Z</time>
      </trkpt>
      <trkpt lat="39.81999" lon="45.02124">
        <ele>1683.596711</ele>
        <time>2021-08-13T23:02:02.105Z</time>
      </trkpt>
      <trkpt lat="39.82025" lon="45.02083">
        <ele>1685.010077</ele>
        <time>2021-08-13T23:02:24.151Z</time>
      </trkpt>
      <trkpt lat="39.82049" lon="45.02034">
        <ele>1686.578831</ele>
        <time>2021-08-13T23:02:51.950Z</time>
      </trkpt>
      <trkpt lat="39.82063" lon="45.02007">
        <ele>1687.44017</ele>
        <time>2021-08-13T23:03:08.103Z</time>
      </trkpt>
      <trkpt lat="39.82076" lon="45.0197">
        <ele>1688.890827</ele>
        <time>2021-08-13T23:03:28.890Z</time>
      </trkpt>
      <trkpt lat="39.82092" lon="45.01927">
        <ele>1690.665636</ele>
        <time>2021-08-13T23:03:53.842Z</time>
      </trkpt>
      <trkpt lat="39.82111" lon="45.01856">
        <ele>1693.43575</ele>
        <time>2021-08-13T23:04:32.992Z</time>
      </trkpt>
      <trkpt lat="39.82124" lon="45.01666">
        <ele>1695.482353</ele>
        <time>2021-08-13T23:05:33.704Z</time>
      </trkpt>
      <trkpt lat="39.82122" lon="45.01583">
        <ele>1694.923908</ele>
        <time>2021-08-13T23:05:48.004Z</time>
      </trkpt>
      <trkpt lat="39.82113" lon="45.01516">
        <ele>1694.445982</ele>
        <time>2021-08-13T23:05:59.737Z</time>
      </trkpt>
      <trkpt lat="39.82105" lon="45.01477">
        <ele>1694.144341</ele>
        <time>2021-08-13T23:06:06.662Z</time>
      </trkpt>
      <trkpt lat="39.821" lon="45.01457">
        <ele>1693.991339</ele>
        <time>2021-08-13T23:06:10.335Z</time>
      </trkpt>
      <trkpt lat="39.81974" lon="45.01051">
        <ele>1695.653729</ele>
        <time>2021-08-13T23:08:09.740Z</time>
      </trkpt>
      <trkpt lat="39.81969" lon="45.01032">
        <ele>1696.046739</ele>
        <time>2021-08-13T23:08:16.973Z</time>
      </trkpt>
      <trkpt lat="39.81948" lon="45.0096">
        <ele>1697.551916</ele>
        <time>2021-08-13T23:08:44.648Z</time>
      </trkpt>
      <trkpt lat="39.81918" lon="45.00858">
        <ele>1700.337456</ele>
        <time>2021-08-13T23:09:27.382Z</time>
      </trkpt>
      <trkpt lat="39.81876" lon="45.00702">
        <ele>1706.654372</ele>
        <time>2021-08-13T23:10:42.224Z</time>
      </trkpt>
      <trkpt lat="39.81874" lon="45.00673">
        <ele>1707.784377</ele>
        <time>2021-08-13T23:10:57.282Z</time>
      </trkpt>
      <trkpt lat="39.8188" lon="45.00604">
        <ele>1711.55544</ele>
        <time>2021-08-13T23:11:33.940Z</time>
      </trkpt>
      <trkpt lat="39.81892" lon="45.00554">
        <ele>1714.498698</ele>
        <time>2021-08-13T23:12:02.962Z</time>
      </trkpt>
      <trkpt lat="39.82013" lon="45.00273">
        <ele>1733.699672</ele>
        <time>2021-08-13T23:15:08.389Z</time>
      </trkpt>
      <trkpt lat="39.82029" lon="45.00226">
        <ele>1736.916781</ele>
        <time>2021-08-13T23:15:41.202Z</time>
      </trkpt>
      <trkpt lat="39.82038" lon="45.00178">
        <ele>1740.175548</ele>
        <time>2021-08-13T23:16:12.417Z</time>
      </trkpt>
      <trkpt lat="39.82031" lon="45.00102">
        <ele>1745.222166</ele>
        <time>2021-08-13T23:16:57.260Z</time>
      </trkpt>
      <trkpt lat="39.82028" lon="45.00092">
        <ele>1745.92433</ele>
        <time>2021-08-13T23:17:05.262Z</time>
      </trkpt>
      <trkpt lat="39.82024" lon="45.00082">
        <ele>1746.65981</ele>
        <time>2021-08-13T23:17:13.054Z</time>
      </trkpt>
      <trkpt lat="39.81971" lon="44.99971">
        <ele>1754.347381</ele>
        <time>2021-08-13T23:18:30.353Z</time>
      </trkpt>
      <trkpt lat="39.81916" lon="44.99871">
        <ele>1760.772428</ele>
        <time>2021-08-13T23:19:35.323Z</time>
      </trkpt>
      <trkpt lat="39.81907" lon="44.99857">
        <ele>1761.708169</ele>
        <time>2021-08-13T23:19:43.536Z</time>
      </trkpt>
      <trkpt lat="39.81827" lon="44.99718">
        <ele>1768.73604</ele>
        <time>2021-08-13T23:21:03.085Z</time>
      </trkpt>
      <trkpt lat="39.81792" lon="44.99657">
        <ele>1771.627785</ele>
        <time>2021-08-13T23:21:34.745Z</time>
      </trkpt>
      <trkpt lat="39.81712" lon="44.99467">
        <ele>1780.724143</ele>
        <time>2021-08-13T23:23:15.944Z</time>
      </trkpt>
      <trkpt lat="39.81702" lon="44.99427">
        <ele>1782.679458</ele>
        <time>2021-08-13T23:23:37.849Z</time>
      </trkpt>
      <trkpt lat="39.817" lon="44.99413">
        <ele>1783.478799</ele>
        <time>2021-08-13T23:23:45.854Z</time>
      </trkpt>
      <trkpt lat="39.81697" lon="44.99392">
        <ele>1784.659446</ele>
        <time>2021-08-13T23:23:58.079Z</time>
      </trkpt>
      <trkpt lat="39.81694" lon="44.99312">
        <ele>1789.04909</ele>
        <time>2021-08-13T23:24:42.711Z</time>
      </trkpt>
      <trkpt lat="39.81694" lon="44.99136">
        <ele>1797.610114</ele>
        <time>2021-08-13T23:26:21.884Z</time>
      </trkpt>
      <trkpt lat="39.81691" lon="44.98968">
        <ele>1803.915513</ele>
        <time>2021-08-13T23:27:38.614Z</time>
      </trkpt>
      <trkpt lat="39.81717" lon="44.98712">
        <ele>1800.529932</ele>
        <time>2021-08-13T23:28:29.569Z</time>
      </trkpt>
      <trkpt lat="39.81737" lon="44.98712">
        <ele>1799.11331</ele>
        <time>2021-08-13T23:28:33.643Z</time>
      </trkpt>
      <trkpt lat="39.81744" lon="44.98711">
        <ele>1798.625945</ele>
        <time>2021-08-13T23:28:34.884Z</time>
      </trkpt>
      <trkpt lat="39.81763" lon="44.9869">
        <ele>1796.787332</ele>
        <time>2021-08-13T23:28:40.155Z</time>
      </trkpt>
      <trkpt lat="39.8181" lon="44.98606">
        <ele>1791.008647</ele>
        <time>2021-08-13T23:28:55.526Z</time>
      </trkpt>
      <trkpt lat="39.8182" lon="44.9852">
        <ele>1786.237794</ele>
        <time>2021-08-13T23:29:08.295Z</time>
      </trkpt>
      <trkpt lat="39.81839" lon="44.9845">
        <ele>1782.174185</ele>
        <time>2021-08-13T23:29:19.635Z</time>
      </trkpt>
      <trkpt lat="39.81842" lon="44.98402">
        <ele>1779.54497</ele>
        <time>2021-08-13T23:29:27.143Z</time>
      </trkpt>
      <trkpt lat="39.81838" lon="44.98321">
        <ele>1775.861078</ele>
        <time>2021-08-13T23:29:40.215Z</time>
      </trkpt>
      <trkpt lat="39.81843" lon="44.98274">
        <ele>1774.803131</ele>
        <time>2021-08-13T23:29:48.348Z</time>
      </trkpt>
      <trkpt lat="39.81856" lon="44.98238">
        <ele>1773.933633</ele>
        <time>2021-08-13T23:29:55.280Z</time>
      </trkpt>
      <trkpt lat="39.81887" lon="44.98203">
        <ele>1772.755423</ele>
        <time>2021-08-13T23:30:05.122Z</time>
      </trkpt>
      <trkpt lat="39.81917" lon="44.98181">
        <ele>1771.785721</ele>
        <time>2021-08-13T23:30:13.725Z</time>
      </trkpt>
      <trkpt lat="39.8193" lon="44.98163">
        <ele>1771.236607</ele>
        <time>2021-08-13T23:30:18.778Z</time>
      </trkpt>
      <trkpt lat="39.81939" lon="44.98139">
        <ele>1771.305997</ele>
        <time>2021-08-13T23:30:24.642Z</time>
      </trkpt>
      <trkpt lat="39.81939" lon="44.9805">
        <ele>1771.681835</ele>
        <time>2021-08-13T23:30:45.482Z</time>
      </trkpt>
      <trkpt lat="39.81932" lon="44.9799">
        <ele>1771.937791</ele>
        <time>2021-08-13T23:31:01.001Z</time>
      </trkpt>
      <trkpt lat="39.81885" lon="44.97865">
        <ele>1774.363592</ele>
        <time>2021-08-13T23:31:49.933Z</time>
      </trkpt>
      <trkpt lat="39.81879" lon="44.97828">
        <ele>1775.382789</ele>
        <time>2021-08-13T23:32:04.787Z</time>
      </trkpt>
      <trkpt lat="39.81883" lon="44.97798">
        <ele>1776.20733</ele>
        <time>2021-08-13T23:32:17.108Z</time>
      </trkpt>
      <trkpt lat="39.81893" lon="44.97777">
        <ele>1776.86182</ele>
        <time>2021-08-13T23:32:27.113Z</time>
      </trkpt>
      <trkpt lat="39.81899" lon="44.97766">
        <ele>1777.221537</ele>
        <time>2021-08-13T23:32:33.161Z</time>
      </trkpt>
      <trkpt lat="39.82038" lon="44.97577">
        <ele>1785.935805</ele>
        <time>2021-08-13T23:34:26.839Z</time>
      </trkpt>
      <trkpt lat="39.82088" lon="44.9752">
        <ele>1789.305765</ele>
        <time>2021-08-13T23:35:04.196Z</time>
      </trkpt>
      <trkpt lat="39.82115" lon="44.97489">
        <ele>1791.18792</ele>
        <time>2021-08-13T23:35:24.287Z</time>
      </trkpt>
      <trkpt lat="39.82174" lon="44.97419">
        <ele>1795.322806</ele>
        <time>2021-08-13T23:36:13.075Z</time>
      </trkpt>
      <trkpt lat="39.82247" lon="44.97379">
        <ele>1801.917891</ele>
        <time>2021-08-13T23:37:09.469Z</time>
      </trkpt>
      <trkpt lat="39.82265" lon="44.97362">
        <ele>1803.961791</ele>
        <time>2021-08-13T23:37:28.080Z</time>
      </trkpt>
      <trkpt lat="39.82289" lon="44.97358">
        <ele>1806.11751</ele>
        <time>2021-08-13T23:37:49.461Z</time>
      </trkpt>
      <trkpt lat="39.82334" lon="44.97325">
        <ele>1810.772484</ele>
        <time>2021-08-13T23:38:31.631Z</time>
      </trkpt>
      <trkpt lat="39.82343" lon="44.97317">
        <ele>1811.73512</ele>
        <time>2021-08-13T23:38:41.534Z</time>
      </trkpt>
      <trkpt lat="39.82352" lon="44.97309">
        <ele>1812.931508</ele>
        <time>2021-08-13T23:38:54.422Z</time>
      </trkpt>
      <trkpt lat="39.82401" lon="44.97266">
        <ele>1819.841098</ele>
        <time>2021-08-13T23:39:54.412Z</time>
      </trkpt>
      <trkpt lat="39.82475" lon="44.97237">
        <ele>1829.021948</ele>
        <time>2021-08-13T23:41:15.034Z</time>
      </trkpt>
      <trkpt lat="39.82529" lon="44.97201">
        <ele>1835.225048</ele>
        <time>2021-08-13T23:42:10.128Z</time>
      </trkpt>
      <trkpt lat="39.82543" lon="44.97169">
        <ele>1837.409589</ele>
        <time>2021-08-13T23:42:33.010Z</time>
      </trkpt>
      <trkpt lat="39.82571" lon="44.97136">
        <ele>1840.332746</ele>
        <time>2021-08-13T23:43:00.857Z</time>
      </trkpt>
      <trkpt lat="39.82574" lon="44.97106">
        <ele>1842.133776</ele>
        <time>2021-08-13T23:43:16.219Z</time>
      </trkpt>
      <trkpt lat="39.82597" lon="44.97073">
        <ele>1844.77258</ele>
        <time>2021-08-13T23:43:40.494Z</time>
      </trkpt>
      <trkpt lat="39.82605" lon="44.97064">
        <ele>1845.584611</ele>
        <time>2021-08-13T23:43:49.496Z</time>
      </trkpt>
      <trkpt lat="39.82607" lon="44.9703">
        <ele>1847.600797</ele>
        <time>2021-08-13T23:44:04.096Z</time>
      </trkpt>
      <trkpt lat="39.82612" lon="44.97008">
        <ele>1848.976303</ele>
        <time>2021-08-13T23:44:16.378Z</time>
      </trkpt>
      <trkpt lat="39.82615" lon="44.9699">
        <ele>1850.079777</ele>
        <time>2021-08-13T23:44:23.417Z</time>
      </trkpt>
      <trkpt lat="39.82872" lon="44.96741">
        <ele>1875.952407</ele>
        <time>2021-08-13T23:48:33.858Z</time>
      </trkpt>
      <trkpt lat="39.82895" lon="44.96721">
        <ele>1878.004011</ele>
        <time>2021-08-13T23:48:56.159Z</time>
      </trkpt>
      <trkpt lat="39.82925" lon="44.96694">
        <ele>1880.700075</ele>
        <time>2021-08-13T23:49:24.303Z</time>
      </trkpt>
      <trkpt lat="39.82945" lon="44.9667">
        <ele>1882.727249</ele>
        <time>2021-08-13T23:49:44.634Z</time>
      </trkpt>
      <trkpt lat="39.8296" lon="44.96644">
        <ele>1884.526971</ele>
        <time>2021-08-13T23:50:02.371Z</time>
      </trkpt>
      <trkpt lat="39.82975" lon="44.96604">
        <ele>1887.060509</ele>
        <time>2021-08-13T23:50:26.577Z</time>
      </trkpt>
      <trkpt lat="39.82969" lon="44.96569">
        <ele>1889.126111</ele>
        <time>2021-08-13T23:50:45.667Z</time>
      </trkpt>
      <trkpt lat="39.82954" lon="44.96543">
        <ele>1890.723834</ele>
        <time>2021-08-13T23:51:00.923Z</time>
      </trkpt>
      <trkpt lat="39.82917" lon="44.96523">
        <ele>1893.204645</ele>
        <time>2021-08-13T23:51:24.999Z</time>
      </trkpt>
      <trkpt lat="39.8289" lon="44.9649">
        <ele>1895.517045</ele>
        <time>2021-08-13T23:51:46.339Z</time>
      </trkpt>
      <trkpt lat="39.82884" lon="44.96475">
        <ele>1896.312404</ele>
        <time>2021-08-13T23:51:54.695Z</time>
      </trkpt>
      <trkpt lat="39.82881" lon="44.96466">
        <ele>1896.794415</ele>
        <time>2021-08-13T23:52:00.866Z</time>
      </trkpt>
      <trkpt lat="39.82879" lon="44.9644">
        <ele>1898.073547</ele>
        <time>2021-08-13T23:52:14.102Z</time>
      </trkpt>
      <trkpt lat="39.82891" lon="44.96357">
        <ele>1902.370085</ele>
        <time>2021-08-13T23:53:01.716Z</time>
      </trkpt>
      <trkpt lat="39.82901" lon="44.96322">
        <ele>1904.533975</ele>
        <time>2021-08-13T23:53:23.138Z</time>
      </trkpt>
      <trkpt lat="39.82914" lon="44.96308">
        <ele>1905.847342</ele>
        <time>2021-08-13T23:53:34.969Z</time>
      </trkpt>
      <trkpt lat="39.82929" lon="44.96297">
        <ele>1907.174118</ele>
        <time>2021-08-13T23:53:49.132Z</time>
      </trkpt>
      <trkpt lat="39.82948" lon="44.96298">
        <ele>1908.615128</ele>
        <time>2021-08-13T23:54:02.292Z</time>
      </trkpt>
      <trkpt lat="39.82962" lon="44.96309">
        <ele>1909.876017</ele>
        <time>2021-08-13T23:54:15.618Z</time>
      </trkpt>
      <trkpt lat="39.8297" lon="44.96315">
        <ele>1910.543332</ele>
        <time>2021-08-13T23:54:22.178Z</time>
      </trkpt>
      <trkpt lat="39.83211" lon="44.96534">
        <ele>1933.36805</ele>
        <time>2021-08-13T23:57:55.533Z</time>
      </trkpt>
      <trkpt lat="39.83354" lon="44.96658">
        <ele>1949.076591</ele>
        <time>2021-08-14T00:00:22.790Z</time>
      </trkpt>
      <trkpt lat="39.83436" lon="44.96702">
        <ele>1957.537434</ele>
        <time>2021-08-14T00:01:39.839Z</time>
      </trkpt>
      <trkpt lat="39.83504" lon="44.96749">
        <ele>1964.409087</ele>
        <time>2021-08-14T00:02:43.358Z</time>
      </trkpt>
      <trkpt lat="39.83564" lon="44.96803">
        <ele>1970.403862</ele>
        <time>2021-08-14T00:03:38.512Z</time>
      </trkpt>
      <trkpt lat="39.8358" lon="44.96826">
        <ele>1972.373923</ele>
        <time>2021-08-14T00:03:55.537Z</time>
      </trkpt>
      <trkpt lat="39.83671" lon="44.97005">
        <ele>1985.55209</ele>
        <time>2021-08-14T00:06:00.466Z</time>
      </trkpt>
      <trkpt lat="39.83683" lon="44.97021">
        <ele>1986.919727</ele>
        <time>2021-08-14T00:06:14.558Z</time>
      </trkpt>
      <trkpt lat="39.83708" lon="44.97054">
        <ele>1989.791496</ele>
        <time>2021-08-14T00:06:41.757Z</time>
      </trkpt>
      <trkpt lat="39.83747" lon="44.97096">
        <ele>1993.196814</ele>
        <time>2021-08-14T00:07:18.377Z</time>
      </trkpt>
      <trkpt lat="39.83868" lon="44.97176">
        <ele>2002.340715</ele>
        <time>2021-08-14T00:08:52.390Z</time>
      </trkpt>
      <trkpt lat="39.84462" lon="44.97489">
        <ele>2028.906656</ele>
        <time>2021-08-14T00:14:48.476Z</time>
      </trkpt>
      <trkpt lat="39.84533" lon="44.97514">
        <ele>2030.695399</ele>
        <time>2021-08-14T00:15:13.222Z</time>
      </trkpt>
      <trkpt lat="39.84599" lon="44.97521">
        <ele>2028.975966</ele>
        <time>2021-08-14T00:15:30.542Z</time>
      </trkpt>
      <trkpt lat="39.84638" lon="44.97545">
        <ele>2027.728414</ele>
        <time>2021-08-14T00:15:40.836Z</time>
      </trkpt>
      <trkpt lat="39.8466" lon="44.97589">
        <ele>2026.587997</ele>
        <time>2021-08-14T00:15:49.898Z</time>
      </trkpt>
      <trkpt lat="39.84697" lon="44.97726">
        <ele>2019.907303</ele>
        <time>2021-08-14T00:16:12.849Z</time>
      </trkpt>
      <trkpt lat="39.84712" lon="44.97787">
        <ele>2016.353937</ele>
        <time>2021-08-14T00:16:22.499Z</time>
      </trkpt>
      <trkpt lat="39.84721" lon="44.97806">
        <ele>2015.075579</ele>
        <time>2021-08-14T00:16:25.838Z</time>
      </trkpt>
      <trkpt lat="39.84733" lon="44.97823">
        <ele>2013.80746</ele>
        <time>2021-08-14T00:16:29.338Z</time>
      </trkpt>
      <trkpt lat="39.84745" lon="44.97827">
        <ele>2012.870463</ele>
        <time>2021-08-14T00:16:31.787Z</time>
      </trkpt>
      <trkpt lat="39.84852" lon="44.97781">
        <ele>2003.907529</ele>
        <time>2021-08-14T00:16:53.446Z</time>
      </trkpt>
      <trkpt lat="39.84924" lon="44.97742">
        <ele>1997.704111</ele>
        <time>2021-08-14T00:17:09.154Z</time>
      </trkpt>
      <trkpt lat="39.84955" lon="44.97725">
        <ele>1995.689032</ele>
        <time>2021-08-14T00:17:15.912Z</time>
      </trkpt>
      <trkpt lat="39.85005" lon="44.97697">
        <ele>1992.401568</ele>
        <time>2021-08-14T00:17:27.249Z</time>
      </trkpt>
      <trkpt lat="39.85058" lon="44.97675">
        <ele>1989.021932</ele>
        <time>2021-08-14T00:17:38.789Z</time>
      </trkpt>
      <trkpt lat="39.85143" lon="44.97635">
        <ele>1982.801156</ele>
        <time>2021-08-14T00:17:57.176Z</time>
      </trkpt>
      <trkpt lat="39.85162" lon="44.97634">
        <ele>1981.40985</ele>
        <time>2021-08-14T00:18:01.048Z</time>
      </trkpt>
      <trkpt lat="39.85172" lon="44.97637">
        <ele>1980.661943</ele>
        <time>2021-08-14T00:18:03.031Z</time>
      </trkpt>
      <trkpt lat="39.85182" lon="44.9764">
        <ele>1979.906956</ele>
        <time>2021-08-14T00:18:05.075Z</time>
      </trkpt>
      <trkpt lat="39.85222" lon="44.97663">
        <ele>1976.778528</ele>
        <time>2021-08-14T00:18:13.643Z</time>
      </trkpt>
      <trkpt lat="39.85253" lon="44.97681">
        <ele>1974.306949</ele>
        <time>2021-08-14T00:18:20.295Z</time>
      </trkpt>
      <trkpt lat="39.85276" lon="44.97694">
        <ele>1972.152366</ele>
        <time>2021-08-14T00:18:25.254Z</time>
      </trkpt>
      <trkpt lat="39.85456" lon="44.97787">
        <ele>1955.861537</ele>
        <time>2021-08-14T00:19:02.753Z</time>
      </trkpt>
      <trkpt lat="39.85472" lon="44.97789">
        <ele>1954.508848</ele>
        <time>2021-08-14T00:19:05.991Z</time>
      </trkpt>
      <trkpt lat="39.85571" lon="44.97711">
        <ele>1945.019795</ele>
        <time>2021-08-14T00:19:28.564Z</time>
      </trkpt>
      <trkpt lat="39.85579" lon="44.97704">
        <ele>1944.232236</ele>
        <time>2021-08-14T00:19:30.388Z</time>
      </trkpt>
      <trkpt lat="39.85604" lon="44.97676">
        <ele>1941.988319</ele>
        <time>2021-08-14T00:19:36.941Z</time>
      </trkpt>
      <trkpt lat="39.85649" lon="44.97626">
        <ele>1938.016049</ele>
        <time>2021-08-14T00:19:48.844Z</time>
      </trkpt>
      <trkpt lat="39.85701" lon="44.97574">
        <ele>1933.587906</ele>
        <time>2021-08-14T00:20:02.002Z</time>
      </trkpt>
      <trkpt lat="39.85743" lon="44.97553">
        <ele>1930.775728</ele>
        <time>2021-08-14T00:20:11.522Z</time>
      </trkpt>
      <trkpt lat="39.85775" lon="44.97528">
        <ele>1928.731644</ele>
        <time>2021-08-14T00:20:19.340Z</time>
      </trkpt>
      <trkpt lat="39.85828" lon="44.97452">
        <ele>1924.437575</ele>
        <time>2021-08-14T00:20:35.760Z</time>
      </trkpt>
      <trkpt lat="39.85865" lon="44.97421">
        <ele>1921.973254</ele>
        <time>2021-08-14T00:20:45.081Z</time>
      </trkpt>
      <trkpt lat="39.85913" lon="44.97381">
        <ele>1918.77009</ele>
        <time>2021-08-14T00:20:56.871Z</time>
      </trkpt>
      <trkpt lat="39.86064" lon="44.97229">
        <ele>1908.188542</ele>
        <time>2021-08-14T00:21:36.412Z</time>
      </trkpt>
      <trkpt lat="39.86079" lon="44.97215">
        <ele>1907.238301</ele>
        <time>2021-08-14T00:21:40.045Z</time>
      </trkpt>
      <trkpt lat="39.86091" lon="44.97195">
        <ele>1906.180763</ele>
        <time>2021-08-14T00:21:44.234Z</time>
      </trkpt>
      <trkpt lat="39.86161" lon="44.97031">
        <ele>1899.392815</ele>
        <time>2021-08-14T00:22:14.613Z</time>
      </trkpt>
      <trkpt lat="39.86181" lon="44.97004">
        <ele>1898.227048</ele>
        <time>2021-08-14T00:22:20.990Z</time>
      </trkpt>
      <trkpt lat="39.86224" lon="44.96901">
        <ele>1894.73813</ele>
        <time>2021-08-14T00:22:41.441Z</time>
      </trkpt>
      <trkpt lat="39.86242" lon="44.96841">
        <ele>1893.351117</ele>
        <time>2021-08-14T00:22:53.520Z</time>
      </trkpt>
      <trkpt lat="39.86248" lon="44.96823">
        <ele>1892.922482</ele>
        <time>2021-08-14T00:22:57.259Z</time>
      </trkpt>
      <trkpt lat="39.86255" lon="44.968">
        <ele>1892.389699</ele>
        <time>2021-08-14T00:23:02.072Z</time>
      </trkpt>
      <trkpt lat="39.8631" lon="44.96663">
        <ele>1888.074086</ele>
        <time>2021-08-14T00:23:29.431Z</time>
      </trkpt>
      <trkpt lat="39.86371" lon="44.96542">
        <ele>1881.38867</ele>
        <time>2021-08-14T00:23:52.497Z</time>
      </trkpt>
      <trkpt lat="39.86404" lon="44.96498">
        <ele>1878.038922</ele>
        <time>2021-08-14T00:24:01.854Z</time>
      </trkpt>
      <trkpt lat="39.86587" lon="44.96343">
        <ele>1854.968034</ele>
        <time>2021-08-14T00:24:42.881Z</time>
      </trkpt>
      <trkpt lat="39.86627" lon="44.96296">
        <ele>1848.970135</ele>
        <time>2021-08-14T00:24:52.810Z</time>
      </trkpt>
      <trkpt lat="39.86646" lon="44.96262">
        <ele>1845.256632</ele>
        <time>2021-08-14T00:24:59.004Z</time>
      </trkpt>
      <trkpt lat="39.86657" lon="44.96243">
        <ele>1843.245994</ele>
        <time>2021-08-14T00:25:02.346Z</time>
      </trkpt>
      <trkpt lat="39.86666" lon="44.96204">
        <ele>1839.870501</ele>
        <time>2021-08-14T00:25:08.237Z</time>
      </trkpt>
      <trkpt lat="39.86668" lon="44.96188">
        <ele>1838.782461</ele>
        <time>2021-08-14T00:25:10.529Z</time>
      </trkpt>
      <trkpt lat="39.86666" lon="44.96158">
        <ele>1836.681881</ele>
        <time>2021-08-14T00:25:15.058Z</time>
      </trkpt>
      <trkpt lat="39.86661" lon="44.96117">
        <ele>1833.846184</ele>
        <time>2021-08-14T00:25:21.149Z</time>
      </trkpt>
      <trkpt lat="39.86666" lon="44.96066">
        <ele>1830.294969</ele>
        <time>2021-08-14T00:25:28.810Z</time>
      </trkpt>
      <trkpt lat="39.86695" lon="44.95964">
        <ele>1823.072161</ele>
        <time>2021-08-14T00:25:45.369Z</time>
      </trkpt>
      <trkpt lat="39.86782" lon="44.95714">
        <ele>1807.280321</ele>
        <time>2021-08-14T00:26:27.336Z</time>
      </trkpt>
      <trkpt lat="39.86796" lon="44.95639">
        <ele>1802.672898</ele>
        <time>2021-08-14T00:26:39.042Z</time>
      </trkpt>
      <trkpt lat="39.86808" lon="44.95621">
        <ele>1801.247749</ele>
        <time>2021-08-14T00:26:42.656Z</time>
      </trkpt>
      <trkpt lat="39.86868" lon="44.95571">
        <ele>1795.517291</ele>
        <time>2021-08-14T00:26:56.655Z</time>
      </trkpt>
      <trkpt lat="39.86922" lon="44.9551">
        <ele>1789.119474</ele>
        <time>2021-08-14T00:27:10.498Z</time>
      </trkpt>
      <trkpt lat="39.86954" lon="44.9547">
        <ele>1785.099084</ele>
        <time>2021-08-14T00:27:19.133Z</time>
      </trkpt>
      <trkpt lat="39.86962" lon="44.95459">
        <ele>1784.060727</ele>
        <time>2021-08-14T00:27:21.349Z</time>
      </trkpt>
      <trkpt lat="39.86981" lon="44.95427">
        <ele>1781.321671</ele>
        <time>2021-08-14T00:27:27.207Z</time>
      </trkpt>
      <trkpt lat="39.8699" lon="44.95382">
        <ele>1778.146017</ele>
        <time>2021-08-14T00:27:34.070Z</time>
      </trkpt>
      <trkpt lat="39.86997" lon="44.95278">
        <ele>1771.069319</ele>
        <time>2021-08-14T00:27:49.569Z</time>
      </trkpt>
      <trkpt lat="39.87004" lon="44.95215">
        <ele>1766.678179</ele>
        <time>2021-08-14T00:27:59.210Z</time>
      </trkpt>
      <trkpt lat="39.87025" lon="44.95168">
        <ele>1763.100148</ele>
        <time>2021-08-14T00:28:07.309Z</time>
      </trkpt>
      <trkpt lat="39.87087" lon="44.95102">
        <ele>1756.272919</ele>
        <time>2021-08-14T00:28:23.129Z</time>
      </trkpt>
      <trkpt lat="39.87091" lon="44.9509">
        <ele>1755.411119</ele>
        <time>2021-08-14T00:28:25.089Z</time>
      </trkpt>
      <trkpt lat="39.87089" lon="44.95083">
        <ele>1754.915475</ele>
        <time>2021-08-14T00:28:26.130Z</time>
      </trkpt>
      <trkpt lat="39.87083" lon="44.95075">
        <ele>1754.142224</ele>
        <time>2021-08-14T00:28:27.963Z</time>
      </trkpt>
      <trkpt lat="39.87066" lon="44.95071">
        <ele>1752.667774</ele>
        <time>2021-08-14T00:28:31.423Z</time>
      </trkpt>
      <trkpt lat="39.87023" lon="44.95078">
        <ele>1748.982563</ele>
        <time>2021-08-14T00:28:39.613Z</time>
      </trkpt>
      <trkpt lat="39.87001" lon="44.95073">
        <ele>1746.915208</ele>
        <time>2021-08-14T00:28:44.017Z</time>
      </trkpt>
      <trkpt lat="39.86988" lon="44.95066">
        <ele>1745.640501</ele>
        <time>2021-08-14T00:28:46.577Z</time>
      </trkpt>
      <trkpt lat="39.86932" lon="44.95038">
        <ele>1740.084147</ele>
        <time>2021-08-14T00:28:58.104Z</time>
      </trkpt>
      <trkpt lat="39.86833" lon="44.95016">
        <ele>1731.061664</ele>
        <time>2021-08-14T00:29:17.381Z</time>
      </trkpt>
      <trkpt lat="39.86779" lon="44.95002">
        <ele>1726.555637</ele>
        <time>2021-08-14T00:29:28.264Z</time>
      </trkpt>
      <trkpt lat="39.86749" lon="44.94995">
        <ele>1724.057502</ele>
        <time>2021-08-14T00:29:34.324Z</time>
      </trkpt>
      <trkpt lat="39.86706" lon="44.94975">
        <ele>1720.313442</ele>
        <time>2021-08-14T00:29:43.353Z</time>
      </trkpt>
      <trkpt lat="39.86663" lon="44.94948">
        <ele>1716.354369</ele>
        <time>2021-08-14T00:29:52.699Z</time>
      </trkpt>
      <trkpt lat="39.86622" lon="44.94893">
        <ele>1711.434932</ele>
        <time>2021-08-14T00:30:04.099Z</time>
      </trkpt>
      <trkpt lat="39.86605" lon="44.94852">
        <ele>1708.425892</ele>
        <time>2021-08-14T00:30:11.088Z</time>
      </trkpt>
      <trkpt lat="39.86596" lon="44.94812">
        <ele>1705.756379</ele>
        <time>2021-08-14T00:30:17.308Z</time>
      </trkpt>
      <trkpt lat="39.86583" lon="44.94687">
        <ele>1698.518619</ele>
        <time>2021-08-14T00:30:36.335Z</time>
      </trkpt>
      <trkpt lat="39.86564" lon="44.94641">
        <ele>1695.734883</ele>
        <time>2021-08-14T00:30:44.324Z</time>
      </trkpt>
      <trkpt lat="39.86538" lon="44.94599">
        <ele>1692.858221</ele>
        <time>2021-08-14T00:30:52.734Z</time>
      </trkpt>
      <trkpt lat="39.8652" lon="44.9458">
        <ele>1691.21467</ele>
        <time>2021-08-14T00:30:57.558Z</time>
      </trkpt>
      <trkpt lat="39.86495" lon="44.94572">
        <ele>1689.79484</ele>
        <time>2021-08-14T00:31:02.771Z</time>
      </trkpt>
      <trkpt lat="39.86386" lon="44.94575">
        <ele>1684.529818</ele>
        <time>2021-08-14T00:31:26.096Z</time>
      </trkpt>
      <trkpt lat="39.86298" lon="44.9456">
        <ele>1679.887682</ele>
        <time>2021-08-14T00:31:45.421Z</time>
      </trkpt>
      <trkpt lat="39.86276" lon="44.9454">
        <ele>1678.275697</ele>
        <time>2021-08-14T00:31:51.052Z</time>
      </trkpt>
      <trkpt lat="39.8625" lon="44.94498">
        <ele>1675.824021</ele>
        <time>2021-08-14T00:31:59.417Z</time>
      </trkpt>
      <trkpt lat="39.86217" lon="44.94436">
        <ele>1672.375933</ele>
        <time>2021-08-14T00:32:11.237Z</time>
      </trkpt>
      <trkpt lat="39.86202" lon="44.94412">
        <ele>1670.944372</ele>
        <time>2021-08-14T00:32:16.026Z</time>
      </trkpt>
      <trkpt lat="39.86182" lon="44.94397">
        <ele>1669.489419</ele>
        <time>2021-08-14T00:32:20.738Z</time>
      </trkpt>
      <trkpt lat="39.86171" lon="44.94388">
        <ele>1668.663131</ele>
        <time>2021-08-14T00:32:23.271Z</time>
      </trkpt>
      <trkpt lat="39.86136" lon="44.94374">
        <ele>1666.322581</ele>
        <time>2021-08-14T00:32:30.663Z</time>
      </trkpt>
      <trkpt lat="39.86107" lon="44.94376">
        <ele>1664.452002</ele>
        <time>2021-08-14T00:32:36.577Z</time>
      </trkpt>
      <trkpt lat="39.86075" lon="44.9439">
        <ele>1662.357908</ele>
        <time>2021-08-14T00:32:43.224Z</time>
      </trkpt>
      <trkpt lat="39.86034" lon="44.94418">
        <ele>1659.386152</ele>
        <time>2021-08-14T00:32:52.808Z</time>
      </trkpt>
      <trkpt lat="39.85993" lon="44.94471">
        <ele>1656.104469</ele>
        <time>2021-08-14T00:33:05.095Z</time>
      </trkpt>
      <trkpt lat="39.85983" lon="44.94463">
        <ele>1655.406969</ele>
        <time>2021-08-14T00:33:07.642Z</time>
      </trkpt>
      <trkpt lat="39.85987" lon="44.94454">
        <ele>1654.954135</ele>
        <time>2021-08-14T00:33:09.276Z</time>
      </trkpt>
      <trkpt lat="39.85996" lon="44.94432">
        <ele>1653.838759</ele>
        <time>2021-08-14T00:33:13.333Z</time>
      </trkpt>
      <trkpt lat="39.86061" lon="44.94354">
        <ele>1648.658242</ele>
        <time>2021-08-14T00:33:31.286Z</time>
      </trkpt>
      <trkpt lat="39.86111" lon="44.94314">
        <ele>1644.548718</ele>
        <time>2021-08-14T00:33:43.025Z</time>
      </trkpt>
      <trkpt lat="39.86202" lon="44.94276">
        <ele>1637.829961</ele>
        <time>2021-08-14T00:34:02.083Z</time>
      </trkpt>
      <trkpt lat="39.86252" lon="44.94242">
        <ele>1634.222965</ele>
        <time>2021-08-14T00:34:13.429Z</time>
      </trkpt>
      <trkpt lat="39.86282" lon="44.94201">
        <ele>1631.595453</ele>
        <time>2021-08-14T00:34:22.160Z</time>
      </trkpt>
      <trkpt lat="39.86286" lon="44.94176">
        <ele>1630.385538</ele>
        <time>2021-08-14T00:34:26.250Z</time>
      </trkpt>
      <trkpt lat="39.8628" lon="44.94155">
        <ele>1629.371875</ele>
        <time>2021-08-14T00:34:29.712Z</time>
      </trkpt>
      <trkpt lat="39.86268" lon="44.9414">
        <ele>1628.345144</ele>
        <time>2021-08-14T00:34:33.277Z</time>
      </trkpt>
      <trkpt lat="39.86256" lon="44.94137">
        <ele>1627.596857</ele>
        <time>2021-08-14T00:34:35.888Z</time>
      </trkpt>
      <trkpt lat="39.86241" lon="44.94146">
        <ele>1626.612841</ele>
        <time>2021-08-14T00:34:39.411Z</time>
      </trkpt>
      <trkpt lat="39.86215" lon="44.94203">
        <ele>1623.132059</ele>
        <time>2021-08-14T00:34:50.116Z</time>
      </trkpt>
      <trkpt lat="39.86198" lon="44.94222">
        <ele>1621.508202</ele>
        <time>2021-08-14T00:34:54.785Z</time>
      </trkpt>
      <trkpt lat="39.86176" lon="44.94225">
        <ele>1619.895082</ele>
        <time>2021-08-14T00:34:59.222Z</time>
      </trkpt>
      <trkpt lat="39.86104" lon="44.94215">
        <ele>1614.721161</ele>
        <time>2021-08-14T00:35:13.537Z</time>
      </trkpt>
      <trkpt lat="39.8609" lon="44.94207">
        <ele>1613.683316</ele>
        <time>2021-08-14T00:35:16.444Z</time>
      </trkpt>
      <trkpt lat="39.86083" lon="44.94184">
        <ele>1612.060058</ele>
        <time>2021-08-14T00:35:20.127Z</time>
      </trkpt>
      <trkpt lat="39.8611" lon="44.94076">
        <ele>1603.432883</ele>
        <time>2021-08-14T00:35:36.789Z</time>
      </trkpt>
      <trkpt lat="39.86115" lon="44.94031">
        <ele>1599.896982</ele>
        <time>2021-08-14T00:35:43.442Z</time>
      </trkpt>
      <trkpt lat="39.86109" lon="44.93962">
        <ele>1594.664606</ele>
        <time>2021-08-14T00:35:53.498Z</time>
      </trkpt>
      <trkpt lat="39.86112" lon="44.93916">
        <ele>1591.493016</ele>
        <time>2021-08-14T00:36:00.452Z</time>
      </trkpt>
      <trkpt lat="39.86116" lon="44.93874">
        <ele>1588.616722</ele>
        <time>2021-08-14T00:36:06.651Z</time>
      </trkpt>
      <trkpt lat="39.86121" lon="44.93835">
        <ele>1585.89931</ele>
        <time>2021-08-14T00:36:12.524Z</time>
      </trkpt>
      <trkpt lat="39.86128" lon="44.93797">
        <ele>1583.226541</ele>
        <time>2021-08-14T00:36:18.325Z</time>
      </trkpt>
      <trkpt lat="39.86148" lon="44.93775">
        <ele>1580.856942</ele>
        <time>2021-08-14T00:36:23.465Z</time>
      </trkpt>
      <trkpt lat="39.86166" lon="44.93772">
        <ele>1579.237799</ele>
        <time>2021-08-14T00:36:27.106Z</time>
      </trkpt>
      <trkpt lat="39.86174" lon="44.93767">
        <ele>1578.557762</ele>
        <time>2021-08-14T00:36:28.801Z</time>
      </trkpt>
      <trkpt lat="39.86178" lon="44.93759">
        <ele>1577.975942</ele>
        <time>2021-08-14T00:36:30.205Z</time>
      </trkpt>
      <trkpt lat="39.86177" lon="44.9374">
        <ele>1576.889513</ele>
        <time>2021-08-14T00:36:33.073Z</time>
      </trkpt>
      <trkpt lat="39.86153" lon="44.93676">
        <ele>1572.688704</ele>
        <time>2021-08-14T00:36:44.019Z</time>
      </trkpt>
      <trkpt lat="39.86078" lon="44.93501">
        <ele>1561.017609</ele>
        <time>2021-08-14T00:37:14.512Z</time>
      </trkpt>
      <trkpt lat="39.86064" lon="44.93484">
        <ele>1559.543905</ele>
        <time>2021-08-14T00:37:18.435Z</time>
      </trkpt>
      <trkpt lat="39.86046" lon="44.93486">
        <ele>1558.177245</ele>
        <time>2021-08-14T00:37:22.031Z</time>
      </trkpt>
      <trkpt lat="39.86015" lon="44.93517">
        <ele>1555.27839</ele>
        <time>2021-08-14T00:37:29.702Z</time>
      </trkpt>
      <trkpt lat="39.86001" lon="44.93525">
        <ele>1554.09505</ele>
        <time>2021-08-14T00:37:32.825Z</time>
      </trkpt>
      <trkpt lat="39.85992" lon="44.93523">
        <ele>1553.437509</ele>
        <time>2021-08-14T00:37:34.559Z</time>
      </trkpt>
      <trkpt lat="39.85988" lon="44.93515">
        <ele>1552.841873</ele>
        <time>2021-08-14T00:37:36.133Z</time>
      </trkpt>
      <trkpt lat="39.85989" lon="44.93506">
        <ele>1552.296003</ele>
        <time>2021-08-14T00:37:37.570Z</time>
      </trkpt>
      <trkpt lat="39.86021" lon="44.93466">
        <ele>1548.903348</ele>
        <time>2021-08-14T00:37:46.242Z</time>
      </trkpt>
      <trkpt lat="39.86077" lon="44.93264">
        <ele>1536.095128</ele>
        <time>2021-08-14T00:38:18.736Z</time>
      </trkpt>
      <trkpt lat="39.8608" lon="44.93236">
        <ele>1534.425374</ele>
        <time>2021-08-14T00:38:23.082Z</time>
      </trkpt>
      <trkpt lat="39.86076" lon="44.93096">
        <ele>1526.270053</ele>
        <time>2021-08-14T00:38:44.424Z</time>
      </trkpt>
      <trkpt lat="39.8607" lon="44.93067">
        <ele>1524.541488</ele>
        <time>2021-08-14T00:38:48.985Z</time>
      </trkpt>
      <trkpt lat="39.86057" lon="44.93049">
        <ele>1523.178642</ele>
        <time>2021-08-14T00:38:52.655Z</time>
      </trkpt>
      <trkpt lat="39.86042" lon="44.93043">
        <ele>1522.042294</ele>
        <time>2021-08-14T00:38:55.782Z</time>
      </trkpt>
      <trkpt lat="39.86024" lon="44.93044">
        <ele>1520.674691</ele>
        <time>2021-08-14T00:38:59.515Z</time>
      </trkpt>
      <trkpt lat="39.8595" lon="44.93089">
        <ele>1514.714753</ele>
        <time>2021-08-14T00:39:15.886Z</time>
      </trkpt>
      <trkpt lat="39.85927" lon="44.93086">
        <ele>1513.020696</ele>
        <time>2021-08-14T00:39:20.528Z</time>
      </trkpt>
      <trkpt lat="39.85919" lon="44.93078">
        <ele>1512.283081</ele>
        <time>2021-08-14T00:39:22.534Z</time>
      </trkpt>
      <trkpt lat="39.85917" lon="44.9305">
        <ele>1510.697981</ele>
        <time>2021-08-14T00:39:26.655Z</time>
      </trkpt>
      <trkpt lat="39.8592" lon="44.93036">
        <ele>1509.739028</ele>
        <time>2021-08-14T00:39:28.983Z</time>
      </trkpt>
      <trkpt lat="39.85934" lon="44.93011">
        <ele>1507.755083</ele>
        <time>2021-08-14T00:39:33.647Z</time>
      </trkpt>
      <trkpt lat="39.85996" lon="44.92932">
        <ele>1500.669543</ele>
        <time>2021-08-14T00:39:50.583Z</time>
      </trkpt>
      <trkpt lat="39.86012" lon="44.92911">
        <ele>1498.776043</ele>
        <time>2021-08-14T00:39:55.033Z</time>
      </trkpt>
      <trkpt lat="39.8607" lon="44.92763">
        <ele>1488.267174</ele>
        <time>2021-08-14T00:40:19.935Z</time>
      </trkpt>
      <trkpt lat="39.86086" lon="44.92734">
        <ele>1486.024023</ele>
        <time>2021-08-14T00:40:25.229Z</time>
      </trkpt>
      <trkpt lat="39.86107" lon="44.92721">
        <ele>1484.060531</ele>
        <time>2021-08-14T00:40:29.953Z</time>
      </trkpt>
      <trkpt lat="39.86146" lon="44.92719">
        <ele>1480.778658</ele>
        <time>2021-08-14T00:40:37.686Z</time>
      </trkpt>
      <trkpt lat="39.86177" lon="44.92729">
        <ele>1477.916548</ele>
        <time>2021-08-14T00:40:43.869Z</time>
      </trkpt>
      <trkpt lat="39.86202" lon="44.92717">
        <ele>1475.481377</ele>
        <time>2021-08-14T00:40:49.083Z</time>
      </trkpt>
      <trkpt lat="39.86218" lon="44.92695">
        <ele>1473.398883</ele>
        <time>2021-08-14T00:40:53.536Z</time>
      </trkpt>
      <trkpt lat="39.86235" lon="44.92653">
        <ele>1470.09861</ele>
        <time>2021-08-14T00:41:00.548Z</time>
      </trkpt>
      <trkpt lat="39.86292" lon="44.9245">
        <ele>1454.79268</ele>
        <time>2021-08-14T00:41:32.362Z</time>
      </trkpt>
      <trkpt lat="39.86372" lon="44.9221">
        <ele>1437.914639</ele>
        <time>2021-08-14T00:42:11.482Z</time>
      </trkpt>
      <trkpt lat="39.86478" lon="44.91855">
        <ele>1419.207822</ele>
        <time>2021-08-14T00:43:11.077Z</time>
      </trkpt>
      <trkpt lat="39.86553" lon="44.91646">
        <ele>1409.549435</ele>
        <time>2021-08-14T00:43:48.610Z</time>
      </trkpt>
      <trkpt lat="39.86563" lon="44.91596">
        <ele>1407.428694</ele>
        <time>2021-08-14T00:43:57.021Z</time>
      </trkpt>
      <trkpt lat="39.86576" lon="44.91536">
        <ele>1404.896158</ele>
        <time>2021-08-14T00:44:06.983Z</time>
      </trkpt>
      <trkpt lat="39.86662" lon="44.91313">
        <ele>1393.622725</ele>
        <time>2021-08-14T00:44:46.540Z</time>
      </trkpt>
      <trkpt lat="39.86798" lon="44.90926">
        <ele>1372.311374</ele>
        <time>2021-08-14T00:45:52.597Z</time>
      </trkpt>
      <trkpt lat="39.86827" lon="44.90847">
        <ele>1368.279408</ele>
        <time>2021-08-14T00:46:06.552Z</time>
      </trkpt>
      <trkpt lat="39.86852" lon="44.90803">
        <ele>1366.344872</ele>
        <time>2021-08-14T00:46:15.378Z</time>
      </trkpt>
      <trkpt lat="39.86919" lon="44.90706">
        <ele>1361.726532</ele>
        <time>2021-08-14T00:46:37.055Z</time>
      </trkpt>
      <trkpt lat="39.87006" lon="44.90597">
        <ele>1356.54544</ele>
        <time>2021-08-14T00:47:03.730Z</time>
      </trkpt>
      <trkpt lat="39.87078" lon="44.90515">
        <ele>1352.42158</ele>
        <time>2021-08-14T00:47:24.405Z</time>
      </trkpt>
      <trkpt lat="39.87136" lon="44.90462">
        <ele>1348.85094</ele>
        <time>2021-08-14T00:47:39.381Z</time>
      </trkpt>
      <trkpt lat="39.8719" lon="44.90412">
        <ele>1345.505948</ele>
        <time>2021-08-14T00:47:53.243Z</time>
      </trkpt>
      <trkpt lat="39.873" lon="44.90304">
        <ele>1338.619574</ele>
        <time>2021-08-14T00:48:22.193Z</time>
      </trkpt>
      <trkpt lat="39.87325" lon="44.9028">
        <ele>1337.111142</ele>
        <time>2021-08-14T00:48:28.644Z</time>
      </trkpt>
      <trkpt lat="39.87481" lon="44.90102">
        <ele>1328.566094</ele>
        <time>2021-08-14T00:49:14.019Z</time>
      </trkpt>
      <trkpt lat="39.87719" lon="44.89819">
        <ele>1318.983402</ele>
        <time>2021-08-14T00:50:29.266Z</time>
      </trkpt>
      <trkpt lat="39.87809" lon="44.89715">
        <ele>1314.780566</ele>
        <time>2021-08-14T00:50:56.542Z</time>
      </trkpt>
      <trkpt lat="39.87865" lon="44.89644">
        <ele>1311.735584</ele>
        <time>2021-08-14T00:51:13.770Z</time>
      </trkpt>
      <trkpt lat="39.8789" lon="44.89612">
        <ele>1310.368817</ele>
        <time>2021-08-14T00:51:21.274Z</time>
      </trkpt>
      <trkpt lat="39.87955" lon="44.89518">
        <ele>1305.790329</ele>
        <time>2021-08-14T00:51:41.896Z</time>
      </trkpt>
      <trkpt lat="39.88038" lon="44.89312">
        <ele>1298.316328</ele>
        <time>2021-08-14T00:52:20.211Z</time>
      </trkpt>
      <trkpt lat="39.88082" lon="44.89193">
        <ele>1294.806033</ele>
        <time>2021-08-14T00:52:43.658Z</time>
      </trkpt>
      <trkpt lat="39.88138" lon="44.89068">
        <ele>1292.304998</ele>
        <time>2021-08-14T00:53:11.582Z</time>
      </trkpt>
      <trkpt lat="39.88158" lon="44.88993">
        <ele>1290.761511</ele>
        <time>2021-08-14T00:53:26.357Z</time>
      </trkpt>
      <trkpt lat="39.8817" lon="44.88949">
        <ele>1289.459204</ele>
        <time>2021-08-14T00:53:34.590Z</time>
      </trkpt>
      <trkpt lat="39.88174" lon="44.8891">
        <ele>1288.373952</ele>
        <time>2021-08-14T00:53:41.283Z</time>
      </trkpt>
      <trkpt lat="39.88183" lon="44.88837">
        <ele>1286.290439</ele>
        <time>2021-08-14T00:53:53.803Z</time>
      </trkpt>
      <trkpt lat="39.88202" lon="44.88674">
        <ele>1281.183429</ele>
        <time>2021-08-14T00:54:21.218Z</time>
      </trkpt>
      <trkpt lat="39.88216" lon="44.88547">
        <ele>1277.00094</ele>
        <time>2021-08-14T00:54:42.816Z</time>
      </trkpt>
      <trkpt lat="39.88234" lon="44.88417">
        <ele>1272.854209</ele>
        <time>2021-08-14T00:55:05.048Z</time>
      </trkpt>
      <trkpt lat="39.88294" lon="44.88215">
        <ele>1266.159782</ele>
        <time>2021-08-14T00:55:41.398Z</time>
      </trkpt>
      <trkpt lat="39.8832" lon="44.88141">
        <ele>1263.686671</ele>
        <time>2021-08-14T00:55:55.154Z</time>
      </trkpt>
      <trkpt lat="39.88332" lon="44.88109">
        <ele>1262.572428</ele>
        <time>2021-08-14T00:56:01.413Z</time>
      </trkpt>
      <trkpt lat="39.8837" lon="44.88012">
        <ele>1259.471655</ele>
        <time>2021-08-14T00:56:19.859Z</time>
      </trkpt>
      <trkpt lat="39.88415" lon="44.879">
        <ele>1255.870289</ele>
        <time>2021-08-14T00:56:41.546Z</time>
      </trkpt>
      <trkpt lat="39.88417" lon="44.87888">
        <ele>1255.536167</ele>
        <time>2021-08-14T00:56:43.567Z</time>
      </trkpt>
      <trkpt lat="39.88443" lon="44.87734">
        <ele>1251.442619</ele>
        <time>2021-08-14T00:57:10.901Z</time>
      </trkpt>
      <trkpt lat="39.88448" lon="44.87704">
        <ele>1250.620064</ele>
        <time>2021-08-14T00:57:16.339Z</time>
      </trkpt>
      <trkpt lat="39.88495" lon="44.87406">
        <ele>1243.169844</ele>
        <time>2021-08-14T00:58:10.529Z</time>
      </trkpt>
      <trkpt lat="39.88547" lon="44.87245">
        <ele>1237.505858</ele>
        <time>2021-08-14T00:58:39.489Z</time>
      </trkpt>
      <trkpt lat="39.88553" lon="44.87225">
        <ele>1236.783263</ele>
        <time>2021-08-14T00:58:43.105Z</time>
      </trkpt>
      <trkpt lat="39.88561" lon="44.87187">
        <ele>1235.381304</ele>
        <time>2021-08-14T00:58:49.428Z</time>
      </trkpt>
      <trkpt lat="39.88575" lon="44.87105">
        <ele>1232.301688</ele>
        <time>2021-08-14T00:59:03.176Z</time>
      </trkpt>
      <trkpt lat="39.88588" lon="44.86985">
        <ele>1227.901695</ele>
        <time>2021-08-14T00:59:22.905Z</time>
      </trkpt>
      <trkpt lat="39.88605" lon="44.86858">
        <ele>1224.160947</ele>
        <time>2021-08-14T00:59:44.808Z</time>
      </trkpt>
      <trkpt lat="39.8861" lon="44.86817">
        <ele>1222.950177</ele>
        <time>2021-08-14T00:59:51.968Z</time>
      </trkpt>
      <trkpt lat="39.88764" lon="44.86295">
        <ele>1209.232623</ele>
        <time>2021-08-14T01:01:30.692Z</time>
      </trkpt>
      <trkpt lat="39.88772" lon="44.86275">
        <ele>1208.603965</ele>
        <time>2021-08-14T01:01:34.664Z</time>
      </trkpt>
      <trkpt lat="39.88815" lon="44.86176">
        <ele>1205.503896</ele>
        <time>2021-08-14T01:01:54.237Z</time>
      </trkpt>
      <trkpt lat="39.88966" lon="44.85883">
        <ele>1195.500809</ele>
        <time>2021-08-14T01:02:54.469Z</time>
      </trkpt>
      <trkpt lat="39.89022" lon="44.85776">
        <ele>1191.813806</ele>
        <time>2021-08-14T01:03:16.449Z</time>
      </trkpt>
      <trkpt lat="39.89168" lon="44.85467">
        <ele>1181.726003</ele>
        <time>2021-08-14T01:04:18.581Z</time>
      </trkpt>
      <trkpt lat="39.89224" lon="44.85382">
        <ele>1178.843886</ele>
        <time>2021-08-14T01:04:38.234Z</time>
      </trkpt>
      <trkpt lat="39.89332" lon="44.85258">
        <ele>1174.326142</ele>
        <time>2021-08-14T01:05:11.516Z</time>
      </trkpt>
      <trkpt lat="39.89439" lon="44.85167">
        <ele>1170.05665</ele>
        <time>2021-08-14T01:05:40.688Z</time>
      </trkpt>
      <trkpt lat="39.89709" lon="44.85006">
        <ele>1158.546037</ele>
        <time>2021-08-14T01:06:45.929Z</time>
      </trkpt>
      <trkpt lat="39.89735" lon="44.84974">
        <ele>1157.109718</ele>
        <time>2021-08-14T01:06:53.721Z</time>
      </trkpt>
      <trkpt lat="39.89815" lon="44.84848">
        <ele>1152.079452</ele>
        <time>2021-08-14T01:07:21.156Z</time>
      </trkpt>
      <trkpt lat="39.89889" lon="44.84703">
        <ele>1147.780219</ele>
        <time>2021-08-14T01:07:51.363Z</time>
      </trkpt>
      <trkpt lat="39.89945" lon="44.84517">
        <ele>1143.343111</ele>
        <time>2021-08-14T01:08:28.067Z</time>
      </trkpt>
      <trkpt lat="39.9008" lon="44.84212">
        <ele>1135.490851</ele>
        <time>2021-08-14T01:09:30.835Z</time>
      </trkpt>
      <trkpt lat="39.90151" lon="44.83929">
        <ele>1127.329493</ele>
        <time>2021-08-14T01:10:21.841Z</time>
      </trkpt>
      <trkpt lat="39.90172" lon="44.83876">
        <ele>1125.746366</ele>
        <time>2021-08-14T01:10:32.122Z</time>
      </trkpt>
      <trkpt lat="39.90195" lon="44.83837">
        <ele>1124.444798</ele>
        <time>2021-08-14T01:10:40.608Z</time>
      </trkpt>
      <trkpt lat="39.90287" lon="44.83741">
        <ele>1120.361947</ele>
        <time>2021-08-14T01:11:07.265Z</time>
      </trkpt>
      <trkpt lat="39.90371" lon="44.83662">
        <ele>1116.764284</ele>
        <time>2021-08-14T01:11:30.684Z</time>
      </trkpt>
      <trkpt lat="39.90699" lon="44.83298">
        <ele>1101.454826</ele>
        <time>2021-08-14T01:13:07.135Z</time>
      </trkpt>
      <trkpt lat="39.9076" lon="44.83211">
        <ele>1098.324829</ele>
        <time>2021-08-14T01:13:27.236Z</time>
      </trkpt>
      <trkpt lat="39.90957" lon="44.82925">
        <ele>1089.630488</ele>
        <time>2021-08-14T01:14:35.474Z</time>
      </trkpt>
      <trkpt lat="39.91104" lon="44.8273">
        <ele>1084.404878</ele>
        <time>2021-08-14T01:15:26.253Z</time>
      </trkpt>
      <trkpt lat="39.91267" lon="44.82532">
        <ele>1078.500756</ele>
        <time>2021-08-14T01:16:18.525Z</time>
      </trkpt>
      <trkpt lat="39.91286" lon="44.82507">
        <ele>1077.753716</ele>
        <time>2021-08-14T01:16:24.734Z</time>
      </trkpt>
      <trkpt lat="39.91322" lon="44.8244">
        <ele>1075.990916</ele>
        <time>2021-08-14T01:16:39.098Z</time>
      </trkpt>
      <trkpt lat="39.9134" lon="44.82398">
        <ele>1074.929915</ele>
        <time>2021-08-14T01:16:47.764Z</time>
      </trkpt>
      <trkpt lat="39.91363" lon="44.8231">
        <ele>1072.91759</ele>
        <time>2021-08-14T01:17:04.373Z</time>
      </trkpt>
      <trkpt lat="39.91392" lon="44.8215">
        <ele>1069.573283</ele>
        <time>2021-08-14T01:17:34.774Z</time>
      </trkpt>
      <trkpt lat="39.91412" lon="44.82069">
        <ele>1067.821918</ele>
        <time>2021-08-14T01:17:49.998Z</time>
      </trkpt>
      <trkpt lat="39.91477" lon="44.81925">
        <ele>1063.388241</ele>
        <time>2021-08-14T01:18:19.013Z</time>
      </trkpt>
      <trkpt lat="39.91499" lon="44.81898">
        <ele>1062.354322</ele>
        <time>2021-08-14T01:18:25.609Z</time>
      </trkpt>
      <trkpt lat="39.91531" lon="44.81875">
        <ele>1061.054921</ele>
        <time>2021-08-14T01:18:33.703Z</time>
      </trkpt>
      <trkpt lat="39.91638" lon="44.81855">
        <ele>1057.147413</ele>
        <time>2021-08-14T01:18:57.705Z</time>
      </trkpt>
      <trkpt lat="39.91777" lon="44.81829">
        <ele>1052.154524</ele>
        <time>2021-08-14T01:19:29.304Z</time>
      </trkpt>
      <trkpt lat="39.91905" lon="44.81805">
        <ele>1047.572295</ele>
        <time>2021-08-14T01:19:58.168Z</time>
      </trkpt>
      <trkpt lat="39.92039" lon="44.8178">
        <ele>1042.86281</ele>
        <time>2021-08-14T01:20:28.124Z</time>
      </trkpt>
      <trkpt lat="39.92066" lon="44.81775">
        <ele>1042.727843</ele>
        <time>2021-08-14T01:20:34.622Z</time>
      </trkpt>
      <trkpt lat="39.92075" lon="44.81773">
        <ele>1042.76075</ele>
        <time>2021-08-14T01:20:36.781Z</time>
      </trkpt>
      <trkpt lat="39.92135" lon="44.81764">
        <ele>1042.980087</ele>
        <time>2021-08-14T01:20:53.059Z</time>
      </trkpt>
      <trkpt lat="39.92173" lon="44.81755">
        <ele>1043.122806</ele>
        <time>2021-08-14T01:21:08.259Z</time>
      </trkpt>
      <trkpt lat="39.92214" lon="44.81739">
        <ele>1043.278505</ele>
        <time>2021-08-14T01:21:28.218Z</time>
      </trkpt>
      <trkpt lat="39.92259" lon="44.81718">
        <ele>1044.953327</ele>
        <time>2021-08-14T01:21:54.397Z</time>
      </trkpt>
      <trkpt lat="39.92309" lon="44.81666">
        <ele>1047.577535</ele>
        <time>2021-08-14T01:22:32.670Z</time>
      </trkpt>
      <trkpt lat="39.92348" lon="44.81609">
        <ele>1049.987532</ele>
        <time>2021-08-14T01:23:03.456Z</time>
      </trkpt>
      <trkpt lat="39.92349" lon="44.81607">
        <ele>1050.044989</ele>
        <time>2021-08-14T01:23:05.550Z</time>
      </trkpt>
      <trkpt lat="39.92379" lon="44.8156">
        <ele>1051.096138</ele>
        <time>2021-08-14T01:23:29.329Z</time>
      </trkpt>
      <trkpt lat="39.92402" lon="44.81515">
        <ele>1051.663175</ele>
        <time>2021-08-14T01:23:47.642Z</time>
      </trkpt>
      <trkpt lat="39.92408" lon="44.81504">
        <ele>1051.799396</ele>
        <time>2021-08-14T01:23:50.879Z</time>
      </trkpt>
      <trkpt lat="39.92427" lon="44.81448">
        <ele>1052.424647</ele>
        <time>2021-08-14T01:24:08.996Z</time>
      </trkpt>
      <trkpt lat="39.92459" lon="44.81311">
        <ele>1052.3564</ele>
        <time>2021-08-14T01:24:39.133Z</time>
      </trkpt>
      <trkpt lat="39.92473" lon="44.81224">
        <ele>1051.518731</ele>
        <time>2021-08-14T01:24:57.398Z</time>
      </trkpt>
      <trkpt lat="39.92476" lon="44.81171">
        <ele>1051.020218</ele>
        <time>2021-08-14T01:25:07.790Z</time>
      </trkpt>
      <trkpt lat="39.92469" lon="44.80739">
        <ele>1044.322051</ele>
        <time>2021-08-14T01:26:27.797Z</time>
      </trkpt>
      <trkpt lat="39.9246" lon="44.80583">
        <ele>1042.997244</ele>
        <time>2021-08-14T01:27:03.471Z</time>
      </trkpt>
      <trkpt lat="39.92455" lon="44.80552">
        <ele>1042.810682</ele>
        <time>2021-08-14T01:27:11.260Z</time>
      </trkpt>
      <trkpt lat="39.92446" lon="44.80521">
        <ele>1042.61687</ele>
        <time>2021-08-14T01:27:19.324Z</time>
      </trkpt>
      <trkpt lat="39.92428" lon="44.8048">
        <ele>1042.342019</ele>
        <time>2021-08-14T01:27:29.950Z</time>
      </trkpt>
      <trkpt lat="39.9235" lon="44.80328">
        <ele>1037.487093</ele>
        <time>2021-08-14T01:28:01.722Z</time>
      </trkpt>
      <trkpt lat="39.92329" lon="44.80289">
        <ele>1036.136931</ele>
        <time>2021-08-14T01:28:09.324Z</time>
      </trkpt>
      <trkpt lat="39.92284" lon="44.80208">
        <ele>1032.560482</ele>
        <time>2021-08-14T01:28:25.354Z</time>
      </trkpt>
      <trkpt lat="39.92263" lon="44.80161">
        <ele>1030.537893</ele>
        <time>2021-08-14T01:28:33.986Z</time>
      </trkpt>
      <trkpt lat="39.92258" lon="44.80134">
        <ele>1029.50322</ele>
        <time>2021-08-14T01:28:38.441Z</time>
      </trkpt>
      <trkpt lat="39.92256" lon="44.80102">
        <ele>1028.297157</ele>
        <time>2021-08-14T01:28:43.796Z</time>
      </trkpt>
      <trkpt lat="39.92252" lon="44.79997">
        <ele>1025.448952</ele>
        <time>2021-08-14T01:29:02.156Z</time>
      </trkpt>
      <trkpt lat="39.92247" lon="44.79641">
        <ele>1018.545613</ele>
        <time>2021-08-14T01:30:07.991Z</time>
      </trkpt>
      <trkpt lat="39.92247" lon="44.79618">
        <ele>1018.131007</ele>
        <time>2021-08-14T01:30:12.149Z</time>
      </trkpt>
      <trkpt lat="39.92238" lon="44.78987">
        <ele>1006.176723</ele>
        <time>2021-08-14T01:32:07.072Z</time>
      </trkpt>
      <trkpt lat="39.92234" lon="44.78621">
        <ele>1000.914509</ele>
        <time>2021-08-14T01:33:17.961Z</time>
      </trkpt>
      <trkpt lat="39.92222" lon="44.77844">
        <ele>989.853655</ele>
        <time>2021-08-14T01:35:45.747Z</time>
      </trkpt>
      <trkpt lat="39.92218" lon="44.77352">
        <ele>985.731498</ele>
        <time>2021-08-14T01:37:27.145Z</time>
      </trkpt>
      <trkpt lat="39.92214" lon="44.77101">
        <ele>985.467497</ele>
        <time>2021-08-14T01:38:27.895Z</time>
      </trkpt>
      <trkpt lat="39.9221" lon="44.76848">
        <ele>985.612539</ele>
        <time>2021-08-14T01:39:31.320Z</time>
      </trkpt>
      <trkpt lat="39.92209" lon="44.76756">
        <ele>985.487981</ele>
        <time>2021-08-14T01:39:52.371Z</time>
      </trkpt>
      <trkpt lat="39.92208" lon="44.76662">
        <ele>984.897436</ele>
        <time>2021-08-14T01:40:12.857Z</time>
      </trkpt>
      <trkpt lat="39.92204" lon="44.76414">
        <ele>982.556985</ele>
        <time>2021-08-14T01:41:03.677Z</time>
      </trkpt>
      <trkpt lat="39.92203" lon="44.7628">
        <ele>980.523786</ele>
        <time>2021-08-14T01:41:28.906Z</time>
      </trkpt>
      <trkpt lat="39.92196" lon="44.76216">
        <ele>978.872011</ele>
        <time>2021-08-14T01:41:40.529Z</time>
      </trkpt>
      <trkpt lat="39.92092" lon="44.75696">
        <ele>964.545287</ele>
        <time>2021-08-14T01:43:12.873Z</time>
      </trkpt>
      <trkpt lat="39.92084" lon="44.75654">
        <ele>963.274559</ele>
        <time>2021-08-14T01:43:20.225Z</time>
      </trkpt>
      <trkpt lat="39.92075" lon="44.75592">
        <ele>961.501994</ele>
        <time>2021-08-14T01:43:30.758Z</time>
      </trkpt>
      <trkpt lat="39.92068" lon="44.75533">
        <ele>959.903044</ele>
        <time>2021-08-14T01:43:40.971Z</time>
      </trkpt>
      <trkpt lat="39.92073" lon="44.7547">
        <ele>958.232469</ele>
        <time>2021-08-14T01:43:51.847Z</time>
      </trkpt>
      <trkpt lat="39.92073" lon="44.75459">
        <ele>957.933707</ele>
        <time>2021-08-14T01:43:53.643Z</time>
      </trkpt>
      <trkpt lat="39.92075" lon="44.75439">
        <ele>957.390194</ele>
        <time>2021-08-14T01:43:57.331Z</time>
      </trkpt>
      <trkpt lat="39.92081" lon="44.75316">
        <ele>954.459318</ele>
        <time>2021-08-14T01:44:19.394Z</time>
      </trkpt>
      <trkpt lat="39.92083" lon="44.75293">
        <ele>953.960508</ele>
        <time>2021-08-14T01:44:23.645Z</time>
      </trkpt>
      <trkpt lat="39.92099" lon="44.75137">
        <ele>950.597215</ele>
        <time>2021-08-14T01:44:51.705Z</time>
      </trkpt>
      <trkpt lat="39.92114" lon="44.7499">
        <ele>947.751984</ele>
        <time>2021-08-14T01:45:18.487Z</time>
      </trkpt>
      <trkpt lat="39.92097" lon="44.74902">
        <ele>946.261741</ele>
        <time>2021-08-14T01:45:35.559Z</time>
      </trkpt>
      <trkpt lat="39.9209" lon="44.74866">
        <ele>945.875083</ele>
        <time>2021-08-14T01:45:43.047Z</time>
      </trkpt>
      <trkpt lat="39.92081" lon="44.7482">
        <ele>945.397561</ele>
        <time>2021-08-14T01:45:52.484Z</time>
      </trkpt>
      <trkpt lat="39.92026" lon="44.74599">
        <ele>943.398345</ele>
        <time>2021-08-14T01:46:40.885Z</time>
      </trkpt>
      <trkpt lat="39.91948" lon="44.7446">
        <ele>942.633605</ele>
        <time>2021-08-14T01:47:16.745Z</time>
      </trkpt>
      <trkpt lat="39.91884" lon="44.74336">
        <ele>942.921221</ele>
        <time>2021-08-14T01:47:55.950Z</time>
      </trkpt>
      <trkpt lat="39.91877" lon="44.74314">
        <ele>942.966799</ele>
        <time>2021-08-14T01:48:03.155Z</time>
      </trkpt>
      <trkpt lat="39.91873" lon="44.7429">
        <ele>942.99733</ele>
        <time>2021-08-14T01:48:09.476Z</time>
      </trkpt>
      <trkpt lat="39.91873" lon="44.74241">
        <ele>943.012014</ele>
        <time>2021-08-14T01:48:22.803Z</time>
      </trkpt>
      <trkpt lat="39.91873" lon="44.74217">
        <ele>943.019265</ele>
        <time>2021-08-14T01:48:29.999Z</time>
      </trkpt>
      <trkpt lat="39.91873" lon="44.74188">
        <ele>943.028117</ele>
        <time>2021-08-14T01:48:37.108Z</time>
      </trkpt>
      <trkpt lat="39.91872" lon="44.74131">
        <ele>943.04531</ele>
        <time>2021-08-14T01:48:51.578Z</time>
      </trkpt>
      <trkpt lat="39.91872" lon="44.74023">
        <ele>942.10681</ele>
        <time>2021-08-14T01:49:14.187Z</time>
      </trkpt>
      <trkpt lat="39.91879" lon="44.73982">
        <ele>941.151968</ele>
        <time>2021-08-14T01:49:21.699Z</time>
      </trkpt>
      <trkpt lat="39.91881" lon="44.73968">
        <ele>940.842901</ele>
        <time>2021-08-14T01:49:24.118Z</time>
      </trkpt>
      <trkpt lat="39.91883" lon="44.73954">
        <ele>940.516243</ele>
        <time>2021-08-14T01:49:26.688Z</time>
      </trkpt>
      <trkpt lat="39.91874" lon="44.73954">
        <ele>940.266782</ele>
        <time>2021-08-14T01:49:28.677Z</time>
      </trkpt>
      <trkpt lat="39.91862" lon="44.73938">
        <ele>939.762626</ele>
        <time>2021-08-14T01:49:32.743Z</time>
      </trkpt>
      <trkpt lat="39.9181" lon="44.73859">
        <ele>937.283933</ele>
        <time>2021-08-14T01:49:51.353Z</time>
      </trkpt>
      <trkpt lat="39.9178" lon="44.73812">
        <ele>935.440882</ele>
        <time>2021-08-14T01:50:01.963Z</time>
      </trkpt>
      <trkpt lat="39.91735" lon="44.73743">
        <ele>932.720073</ele>
        <time>2021-08-14T01:50:17.755Z</time>
      </trkpt>
      <trkpt lat="39.91728" lon="44.73733">
        <ele>932.283764</ele>
        <time>2021-08-14T01:50:20.240Z</time>
      </trkpt>
      <trkpt lat="39.91665" lon="44.73642">
        <ele>929.259185</ele>
        <time>2021-08-14T01:50:42.826Z</time>
      </trkpt>
      <trkpt lat="39.91659" lon="44.73624">
        <ele>928.862262</ele>
        <time>2021-08-14T01:50:46.292Z</time>
      </trkpt>
      <trkpt lat="39.91661" lon="44.736">
        <ele>928.360255</ele>
        <time>2021-08-14T01:50:51.059Z</time>
      </trkpt>
      <trkpt lat="39.91668" lon="44.73415">
        <ele>924.909641</ele>
        <time>2021-08-14T01:51:27.321Z</time>
      </trkpt>
      <trkpt lat="39.91673" lon="44.73267">
        <ele>922.659422</ele>
        <time>2021-08-14T01:51:56.827Z</time>
      </trkpt>
      <trkpt lat="39.91672" lon="44.73236">
        <ele>922.2141</ele>
        <time>2021-08-14T01:52:02.931Z</time>
      </trkpt>
      <trkpt lat="39.91666" lon="44.73115">
        <ele>920.629199</ele>
        <time>2021-08-14T01:52:27.532Z</time>
      </trkpt>
      <trkpt lat="39.91684" lon="44.73064">
        <ele>919.898936</ele>
        <time>2021-08-14T01:52:39.013Z</time>
      </trkpt>
      <trkpt lat="39.91724" lon="44.72931">
        <ele>918.295638</ele>
        <time>2021-08-14T01:53:08.434Z</time>
      </trkpt>
      <trkpt lat="39.91739" lon="44.72899">
        <ele>917.902434</ele>
        <time>2021-08-14T01:53:16.525Z</time>
      </trkpt>
      <trkpt lat="39.91727" lon="44.72874">
        <ele>917.592008</ele>
        <time>2021-08-14T01:53:22.604Z</time>
      </trkpt>
      <trkpt lat="39.91708" lon="44.72838">
        <ele>917.141309</ele>
        <time>2021-08-14T01:53:31.424Z</time>
      </trkpt>
      <trkpt lat="39.91699" lon="44.7281">
        <ele>916.829834</ele>
        <time>2021-08-14T01:53:37.480Z</time>
      </trkpt>
      <trkpt lat="39.91677" lon="44.72711">
        <ele>915.645115</ele>
        <time>2021-08-14T01:53:57.999Z</time>
      </trkpt>
      <trkpt lat="39.91656" lon="44.72667">
        <ele>915.046218</ele>
        <time>2021-08-14T01:54:08.282Z</time>
      </trkpt>
      <trkpt lat="39.91645" lon="44.72649">
        <ele>914.783139</ele>
        <time>2021-08-14T01:54:12.707Z</time>
      </trkpt>
      <trkpt lat="39.91625" lon="44.72616">
        <ele>914.30166</ele>
        <time>2021-08-14T01:54:20.991Z</time>
      </trkpt>
      <trkpt lat="39.91606" lon="44.72572">
        <ele>913.674215</ele>
        <time>2021-08-14T01:54:30.840Z</time>
      </trkpt>
      <trkpt lat="39.91603" lon="44.72568">
        <ele>913.594395</ele>
        <time>2021-08-14T01:54:32.058Z</time>
      </trkpt>
      <trkpt lat="39.91613" lon="44.72557">
        <ele>913.369229</ele>
        <time>2021-08-14T01:54:35.646Z</time>
      </trkpt>
      <trkpt lat="39.91612" lon="44.72532">
        <ele>913.048251</ele>
        <time>2021-08-14T01:54:40.652Z</time>
      </trkpt>
      <trkpt lat="39.91619" lon="44.72397">
        <ele>911.315776</ele>
        <time>2021-08-14T01:55:07.900Z</time>
      </trkpt>
      <trkpt lat="39.91578" lon="44.72321">
        <ele>910.211351</ele>
        <time>2021-08-14T01:55:26.753Z</time>
      </trkpt>
      <trkpt lat="39.91546" lon="44.72276">
        <ele>909.479845</ele>
        <time>2021-08-14T01:55:39.712Z</time>
      </trkpt>
      <trkpt lat="39.91534" lon="44.72171">
        <ele>908.263963</ele>
        <time>2021-08-14T01:56:01.839Z</time>
      </trkpt>
      <trkpt lat="39.91521" lon="44.7214">
        <ele>907.924072</ele>
        <time>2021-08-14T01:56:09.248Z</time>
      </trkpt>
      <trkpt lat="39.91479" lon="44.72087">
        <ele>907.181108</ele>
        <time>2021-08-14T01:56:25.225Z</time>
      </trkpt>
      <trkpt lat="39.91471" lon="44.72044">
        <ele>906.745306</ele>
        <time>2021-08-14T01:56:34.643Z</time>
      </trkpt>
      <trkpt lat="39.91473" lon="44.71956">
        <ele>905.925206</ele>
        <time>2021-08-14T01:56:53.487Z</time>
      </trkpt>
      <trkpt lat="39.91484" lon="44.7189">
        <ele>905.370181</ele>
        <time>2021-08-14T01:57:07.921Z</time>
      </trkpt>
      <trkpt lat="39.91469" lon="44.71809">
        <ele>904.681502</ele>
        <time>2021-08-14T01:57:26.004Z</time>
      </trkpt>
      <trkpt lat="39.91458" lon="44.71759">
        <ele>904.252799</ele>
        <time>2021-08-14T01:57:37.161Z</time>
      </trkpt>
      <trkpt lat="39.91476" lon="44.71697">
        <ele>903.732869</ele>
        <time>2021-08-14T01:57:51.625Z</time>
      </trkpt>
      <trkpt lat="39.91475" lon="44.71619">
        <ele>903.135159</ele>
        <time>2021-08-14T01:58:08.768Z</time>
      </trkpt>
      <trkpt lat="39.91474" lon="44.71584">
        <ele>902.861312</ele>
        <time>2021-08-14T01:58:16.591Z</time>
      </trkpt>
      <trkpt lat="39.91467" lon="44.71449">
        <ele>901.733982</ele>
        <time>2021-08-14T01:58:45.481Z</time>
      </trkpt>
      <trkpt lat="39.91472" lon="44.71391">
        <ele>901.209671</ele>
        <time>2021-08-14T01:58:57.901Z</time>
      </trkpt>
      <trkpt lat="39.91473" lon="44.71359">
        <ele>900.928603</ele>
        <time>2021-08-14T01:59:04.545Z</time>
      </trkpt>
      <trkpt lat="39.9146" lon="44.7129">
        <ele>900.287656</ele>
        <time>2021-08-14T01:59:19.838Z</time>
      </trkpt>
      <trkpt lat="39.91413" lon="44.71184">
        <ele>899.306693</ele>
        <time>2021-08-14T01:59:46.092Z</time>
      </trkpt>
      <trkpt lat="39.91411" lon="44.71178">
        <ele>899.252248</ele>
        <time>2021-08-14T01:59:47.552Z</time>
      </trkpt>
      <trkpt lat="39.91305" lon="44.70942">
        <ele>897.19963</ele>
        <time>2021-08-14T02:00:47.627Z</time>
      </trkpt>
      <trkpt lat="39.91191" lon="44.70717">
        <ele>895.017692</ele>
        <time>2021-08-14T02:01:45.531Z</time>
      </trkpt>
      <trkpt lat="39.91076" lon="44.70505">
        <ele>892.822241</ele>
        <time>2021-08-14T02:02:41.521Z</time>
      </trkpt>
      <trkpt lat="39.91058" lon="44.70488">
        <ele>892.551971</ele>
        <time>2021-08-14T02:02:47.508Z</time>
      </trkpt>
      <trkpt lat="39.91035" lon="44.70501">
        <ele>892.236561</ele>
        <time>2021-08-14T02:02:54.364Z</time>
      </trkpt>
      <trkpt lat="39.91018" lon="44.70508">
        <ele>892.014949</ele>
        <time>2021-08-14T02:02:58.984Z</time>
      </trkpt>
      <trkpt lat="39.90962" lon="44.70533">
        <ele>891.259755</ele>
        <time>2021-08-14T02:03:15.117Z</time>
      </trkpt>
      <trkpt lat="39.90959" lon="44.70535">
        <ele>891.20852</ele>
        <time>2021-08-14T02:03:16.160Z</time>
      </trkpt>
      <trkpt lat="39.90908" lon="44.70554">
        <ele>890.540885</ele>
        <time>2021-08-14T02:03:30.552Z</time>
      </trkpt>
      <trkpt lat="39.90882" lon="44.70563">
        <ele>890.257452</ele>
        <time>2021-08-14T02:03:38.111Z</time>
      </trkpt>
      <trkpt lat="39.90869" lon="44.70502">
        <ele>889.775337</ele>
        <time>2021-08-14T02:03:51.305Z</time>
      </trkpt>
      <trkpt lat="39.90846" lon="44.70428">
        <ele>889.171473</ele>
        <time>2021-08-14T02:04:07.774Z</time>
      </trkpt>
      <trkpt lat="39.90822" lon="44.70362">
        <ele>888.612362</ele>
        <time>2021-08-14T02:04:23.383Z</time>
      </trkpt>
      <trkpt lat="39.90794" lon="44.70287">
        <ele>887.937161</ele>
        <time>2021-08-14T02:04:40.973Z</time>
      </trkpt>
      <trkpt lat="39.9079" lon="44.70278">
        <ele>887.853134</ele>
        <time>2021-08-14T02:04:43.141Z</time>
      </trkpt>
      <trkpt lat="39.90784" lon="44.7026">
        <ele>887.693514</ele>
        <time>2021-08-14T02:04:47.168Z</time>
      </trkpt>
      <trkpt lat="39.90781" lon="44.70252">
        <ele>887.620271</ele>
        <time>2021-08-14T02:04:49.069Z</time>
      </trkpt>
      <trkpt lat="39.90778" lon="44.70242">
        <ele>887.529633</ele>
        <time>2021-08-14T02:04:51.426Z</time>
      </trkpt>
      <trkpt lat="39.90721" lon="44.70085">
        <ele>885.80776</ele>
        <time>2021-08-14T02:05:26.140Z</time>
      </trkpt>
      <trkpt lat="39.90702" lon="44.70033">
        <ele>885.111234</ele>
        <time>2021-08-14T02:05:37.289Z</time>
      </trkpt>
      <trkpt lat="39.90679" lon="44.6997">
        <ele>884.267113</ele>
        <time>2021-08-14T02:05:50.902Z</time>
      </trkpt>
      <trkpt lat="39.9067" lon="44.69942">
        <ele>883.907677</ele>
        <time>2021-08-14T02:05:56.703Z</time>
      </trkpt>
      <trkpt lat="39.90629" lon="44.69828">
        <ele>882.595911</ele>
        <time>2021-08-14T02:06:21.711Z</time>
      </trkpt>
      <trkpt lat="39.90592" lon="44.6973">
        <ele>881.474892</ele>
        <time>2021-08-14T02:06:43.680Z</time>
      </trkpt>
      <trkpt lat="39.90564" lon="44.6965">
        <ele>880.861459</ele>
        <time>2021-08-14T02:07:02.162Z</time>
      </trkpt>
      <trkpt lat="39.90517" lon="44.69526">
        <ele>879.892087</ele>
        <time>2021-08-14T02:07:31.846Z</time>
      </trkpt>
      <trkpt lat="39.90479" lon="44.6942">
        <ele>878.763012</ele>
        <time>2021-08-14T02:07:55.633Z</time>
      </trkpt>
      <trkpt lat="39.90467" lon="44.69386">
        <ele>878.399767</ele>
        <time>2021-08-14T02:08:03.066Z</time>
      </trkpt>
      <trkpt lat="39.90463" lon="44.69373">
        <ele>878.267918</ele>
        <time>2021-08-14T02:08:05.787Z</time>
      </trkpt>
      <trkpt lat="39.90439" lon="44.69308">
        <ele>877.567882</ele>
        <time>2021-08-14T02:08:20.017Z</time>
      </trkpt>
      <trkpt lat="39.90394" lon="44.69188">
        <ele>876.343024</ele>
        <time>2021-08-14T02:08:46.786Z</time>
      </trkpt>
      <trkpt lat="39.90295" lon="44.68921">
        <ele>874.104266</ele>
        <time>2021-08-14T02:09:48.476Z</time>
      </trkpt>
      <trkpt lat="39.90278" lon="44.68875">
        <ele>873.83703</ele>
        <time>2021-08-14T02:09:59.861Z</time>
      </trkpt>
      <trkpt lat="39.90271" lon="44.68858">
        <ele>873.808726</ele>
        <time>2021-08-14T02:10:04.149Z</time>
      </trkpt>
      <trkpt lat="39.90242" lon="44.68776">
        <ele>873.676768</ele>
        <time>2021-08-14T02:10:25.623Z</time>
      </trkpt>
      <trkpt lat="39.90194" lon="44.68635">
        <ele>873.399362</ele>
        <time>2021-08-14T02:11:01.909Z</time>
      </trkpt>
      <trkpt lat="39.90144" lon="44.68492">
        <ele>872.989054</ele>
        <time>2021-08-14T02:11:37.902Z</time>
      </trkpt>
      <trkpt lat="39.90129" lon="44.68452">
        <ele>872.833643</ele>
        <time>2021-08-14T02:11:47.301Z</time>
      </trkpt>
      <trkpt lat="39.90091" lon="44.68344">
        <ele>872.100179</ele>
        <time>2021-08-14T02:12:12.063Z</time>
      </trkpt>
      <trkpt lat="39.9016" lon="44.68282">
        <ele>871.423008</ele>
        <time>2021-08-14T02:12:35.487Z</time>
      </trkpt>
      <trkpt lat="39.90249" lon="44.68044">
        <ele>870.036358</ele>
        <time>2021-08-14T02:13:32.098Z</time>
      </trkpt>
      <trkpt lat="39.90252" lon="44.68034">
        <ele>870.002286</ele>
        <time>2021-08-14T02:13:34.370Z</time>
      </trkpt>
      <trkpt lat="39.90383" lon="44.67668">
        <ele>868.66348</ele>
        <time>2021-08-14T02:15:05.759Z</time>
      </trkpt>
      <trkpt lat="39.9045" lon="44.67487">
        <ele>867.634513</ele>
        <time>2021-08-14T02:15:48.173Z</time>
      </trkpt>
      <trkpt lat="39.90457" lon="44.67466">
        <ele>867.515285</ele>
        <time>2021-08-14T02:15:52.931Z</time>
      </trkpt>
      <trkpt lat="39.90503" lon="44.67347">
        <ele>867.43937</ele>
        <time>2021-08-14T02:16:23.972Z</time>
      </trkpt>
      <trkpt lat="39.90567" lon="44.67169">
        <ele>867.518499</ele>
        <time>2021-08-14T02:17:14.629Z</time>
      </trkpt>
      <trkpt lat="39.90513" lon="44.6707">
        <ele>867.466296</ele>
        <time>2021-08-14T02:17:44.731Z</time>
      </trkpt>
      <trkpt lat="39.90371" lon="44.66802">
        <ele>865.744144</ele>
        <time>2021-08-14T02:18:57.352Z</time>
      </trkpt>
      <trkpt lat="39.90264" lon="44.66603">
        <ele>864.064127</ele>
        <time>2021-08-14T02:19:50.150Z</time>
      </trkpt>
      <trkpt lat="39.90256" lon="44.66584">
        <ele>863.922466</ele>
        <time>2021-08-14T02:19:58.196Z</time>
      </trkpt>
      <trkpt lat="39.90221" lon="44.6653">
        <ele>863.464525</ele>
        <time>2021-08-14T02:20:13.821Z</time>
      </trkpt>
      <trkpt lat="39.90321" lon="44.66392">
        <ele>862.249362</ele>
        <time>2021-08-14T02:20:56.169Z</time>
      </trkpt>
      <trkpt lat="39.90296" lon="44.66339">
        <ele>861.852462</ele>
        <time>2021-08-14T02:21:09.413Z</time>
      </trkpt>
      <trkpt lat="39.90284" lon="44.66311">
        <ele>861.649988</ele>
        <time>2021-08-14T02:21:16.153Z</time>
      </trkpt>
      <trkpt lat="39.90204" lon="44.66117">
        <ele>860.030705</ele>
        <time>2021-08-14T02:22:01.999Z</time>
      </trkpt>
      <trkpt lat="39.90122" lon="44.65925">
        <ele>858.130931</ele>
        <time>2021-08-14T02:22:47.003Z</time>
      </trkpt>
      <trkpt lat="39.90078" lon="44.6582">
        <ele>857.087017</ele>
        <time>2021-08-14T02:23:11.286Z</time>
      </trkpt>
      <trkpt lat="39.90066" lon="44.65793">
        <ele>856.83221</ele>
        <time>2021-08-14T02:23:17.417Z</time>
      </trkpt>
      <trkpt lat="39.90004" lon="44.65652">
        <ele>855.532367</ele>
        <time>2021-08-14T02:23:50.936Z</time>
      </trkpt>
      <trkpt lat="39.89983" lon="44.65602">
        <ele>855.346195</ele>
        <time>2021-08-14T02:24:03.430Z</time>
      </trkpt>
      <trkpt lat="39.89941" lon="44.65441">
        <ele>854.793639</ele>
        <time>2021-08-14T02:24:42.439Z</time>
      </trkpt>
      <trkpt lat="39.89857" lon="44.65209">
        <ele>854.101681</ele>
        <time>2021-08-14T02:25:41.176Z</time>
      </trkpt>
      <trkpt lat="39.89832" lon="44.65147">
        <ele>853.591733</ele>
        <time>2021-08-14T02:25:56.306Z</time>
      </trkpt>
      <trkpt lat="39.89816" lon="44.65106">
        <ele>853.259566</ele>
        <time>2021-08-14T02:26:05.792Z</time>
      </trkpt>
      <trkpt lat="39.89772" lon="44.65015">
        <ele>852.488385</ele>
        <time>2021-08-14T02:26:27.233Z</time>
      </trkpt>
      <trkpt lat="39.89739" lon="44.64945">
        <ele>851.929854</ele>
        <time>2021-08-14T02:26:44.299Z</time>
      </trkpt>
      <trkpt lat="39.89726" lon="44.64886">
        <ele>851.516825</ele>
        <time>2021-08-14T02:26:57.295Z</time>
      </trkpt>
      <trkpt lat="39.89696" lon="44.6466">
        <ele>849.911162</ele>
        <time>2021-08-14T02:27:46.721Z</time>
      </trkpt>
      <trkpt lat="39.89681" lon="44.64563">
        <ele>849.129809</ele>
        <time>2021-08-14T02:28:06.919Z</time>
      </trkpt>
      <trkpt lat="39.89672" lon="44.64536">
        <ele>848.800457</ele>
        <time>2021-08-14T02:28:12.728Z</time>
      </trkpt>
      <trkpt lat="39.89667" lon="44.64515">
        <ele>848.550233</ele>
        <time>2021-08-14T02:28:16.857Z</time>
      </trkpt>
      <trkpt lat="39.89661" lon="44.64493">
        <ele>848.282194</ele>
        <time>2021-08-14T02:28:21.485Z</time>
      </trkpt>
      <trkpt lat="39.89582" lon="44.64225">
        <ele>845.429785</ele>
        <time>2021-08-14T02:29:18.134Z</time>
      </trkpt>
      <trkpt lat="39.89563" lon="44.64157">
        <ele>844.816993</ele>
        <time>2021-08-14T02:29:34.016Z</time>
      </trkpt>
      <trkpt lat="39.89659" lon="44.64042">
        <ele>844.342927</ele>
        <time>2021-08-14T02:30:13.859Z</time>
      </trkpt>
      <trkpt lat="39.89719" lon="44.63966">
        <ele>844.156169</ele>
        <time>2021-08-14T02:30:41.414Z</time>
      </trkpt>
      <trkpt lat="39.89633" lon="44.63845">
        <ele>844.062154</ele>
        <time>2021-08-14T02:31:22.226Z</time>
      </trkpt>
      <trkpt lat="39.89778" lon="44.63653">
        <ele>843.380831</ele>
        <time>2021-08-14T02:32:25.744Z</time>
      </trkpt>
      <trkpt lat="39.89886" lon="44.63512">
        <ele>842.712348</ele>
        <time>2021-08-14T02:33:11.473Z</time>
      </trkpt>
      <trkpt lat="39.89942" lon="44.63417">
        <ele>842.423606</ele>
        <time>2021-08-14T02:33:39.589Z</time>
      </trkpt>
      <trkpt lat="39.90123" lon="44.63128">
        <ele>842.066192</ele>
        <time>2021-08-14T02:35:10.465Z</time>
      </trkpt>
      <trkpt lat="39.90136" lon="44.63136">
        <ele>842.060543</ele>
        <time>2021-08-14T02:35:15.476Z</time>
      </trkpt>
      <trkpt lat="39.90151" lon="44.63101">
        <ele>842.135441</ele>
        <time>2021-08-14T02:35:26.511Z</time>
      </trkpt>
      <trkpt lat="39.9018" lon="44.63061">
        <ele>842.236559</ele>
        <time>2021-08-14T02:35:41.003Z</time>
      </trkpt>
      <trkpt lat="39.90187" lon="44.63041">
        <ele>842.277925</ele>
        <time>2021-08-14T02:35:46.529Z</time>
      </trkpt>
      <trkpt lat="39.90188" lon="44.63004">
        <ele>842.347994</ele>
        <time>2021-08-14T02:35:56.301Z</time>
      </trkpt>
      <trkpt lat="39.90205" lon="44.62932">
        <ele>842.489067</ele>
        <time>2021-08-14T02:36:16.045Z</time>
      </trkpt>
      <trkpt lat="39.90229" lon="44.62894">
        <ele>842.489973</ele>
        <time>2021-08-14T02:36:28.043Z</time>
      </trkpt>
      <trkpt lat="39.90236" lon="44.62882">
        <ele>842.487057</ele>
        <time>2021-08-14T02:36:31.665Z</time>
      </trkpt>
      <trkpt lat="39.90239" lon="44.6287">
        <ele>842.484621</ele>
        <time>2021-08-14T02:36:34.804Z</time>
      </trkpt>
      <trkpt lat="39.90228" lon="44.62835">
        <ele>842.477423</ele>
        <time>2021-08-14T02:36:44.669Z</time>
      </trkpt>
      <trkpt lat="39.90198" lon="44.62788">
        <ele>842.4658</ele>
        <time>2021-08-14T02:36:59.811Z</time>
      </trkpt>
      <trkpt lat="39.90176" lon="44.62759">
        <ele>842.457993</ele>
        <time>2021-08-14T02:37:09.670Z</time>
      </trkpt>
      <trkpt lat="39.90217" lon="44.62693">
        <ele>842.194659</ele>
        <time>2021-08-14T02:37:29.383Z</time>
      </trkpt>
      <trkpt lat="39.90438" lon="44.62355">
        <ele>839.948322</ele>
        <time>2021-08-14T02:39:04.670Z</time>
      </trkpt>
      <trkpt lat="39.9047" lon="44.62303">
        <ele>839.505793</ele>
        <time>2021-08-14T02:39:19.061Z</time>
      </trkpt>
      <trkpt lat="39.90572" lon="44.62128">
        <ele>837.894942</ele>
        <time>2021-08-14T02:40:04.851Z</time>
      </trkpt>
      <trkpt lat="39.90609" lon="44.62064">
        <ele>837.218722</ele>
        <time>2021-08-14T02:40:21.026Z</time>
      </trkpt>
      <trkpt lat="39.90652" lon="44.62004">
        <ele>836.530589</ele>
        <time>2021-08-14T02:40:37.676Z</time>
      </trkpt>
      <trkpt lat="39.90713" lon="44.61918">
        <ele>835.615155</ele>
        <time>2021-08-14T02:41:01.263Z</time>
      </trkpt>
      <trkpt lat="39.9095" lon="44.61612">
        <ele>832.942456</ele>
        <time>2021-08-14T02:42:34.187Z</time>
      </trkpt>
      <trkpt lat="39.91079" lon="44.6147">
        <ele>831.693566</ele>
        <time>2021-08-14T02:43:22.131Z</time>
      </trkpt>
      <trkpt lat="39.91166" lon="44.61365">
        <ele>830.732125</ele>
        <time>2021-08-14T02:43:54.458Z</time>
      </trkpt>
      <trkpt lat="39.91186" lon="44.6134">
        <ele>830.485068</ele>
        <time>2021-08-14T02:44:01.991Z</time>
      </trkpt>
      <trkpt lat="39.91314" lon="44.61187">
        <ele>829.104673</ele>
        <time>2021-08-14T02:44:49.529Z</time>
      </trkpt>
      <trkpt lat="39.9143" lon="44.61043">
        <ele>828.577206</ele>
        <time>2021-08-14T02:45:37.536Z</time>
      </trkpt>
      <trkpt lat="39.91648" lon="44.60737">
        <ele>828.758288</ele>
        <time>2021-08-14T02:47:17.758Z</time>
      </trkpt>
      <trkpt lat="39.91684" lon="44.60686">
        <ele>828.829396</ele>
        <time>2021-08-14T02:47:35.070Z</time>
      </trkpt>
      <trkpt lat="39.91708" lon="44.60654">
        <ele>828.892726</ele>
        <time>2021-08-14T02:47:46.273Z</time>
      </trkpt>
      <trkpt lat="39.91722" lon="44.60634">
        <ele>828.931702</ele>
        <time>2021-08-14T02:47:53.394Z</time>
      </trkpt>
      <trkpt lat="39.91955" lon="44.60323">
        <ele>829.355631</ele>
        <time>2021-08-14T02:49:39.839Z</time>
      </trkpt>
      <trkpt lat="39.92071" lon="44.60157">
        <ele>829.46829</ele>
        <time>2021-08-14T02:50:33.372Z</time>
      </trkpt>
      <trkpt lat="39.92079" lon="44.60146">
        <ele>829.485615</ele>
        <time>2021-08-14T02:50:37.009Z</time>
      </trkpt>
      <trkpt lat="39.92174" lon="44.60019">
        <ele>829.689085</ele>
        <time>2021-08-14T02:51:20.738Z</time>
      </trkpt>
      <trkpt lat="39.92292" lon="44.5986">
        <ele>830.006804</ele>
        <time>2021-08-14T02:52:15.815Z</time>
      </trkpt>
      <trkpt lat="39.92359" lon="44.59769">
        <ele>830.234941</ele>
        <time>2021-08-14T02:52:46.925Z</time>
      </trkpt>
      <trkpt lat="39.92408" lon="44.59699">
        <ele>830.405381</ele>
        <time>2021-08-14T02:53:10.675Z</time>
      </trkpt>
      <trkpt lat="39.92482" lon="44.59597">
        <ele>830.694361</ele>
        <time>2021-08-14T02:53:45.771Z</time>
      </trkpt>
      <trkpt lat="39.92498" lon="44.59575">
        <ele>830.757415</ele>
        <time>2021-08-14T02:53:53.230Z</time>
      </trkpt>
      <trkpt lat="39.92554" lon="44.59496">
        <ele>830.980748</ele>
        <time>2021-08-14T02:54:20.247Z</time>
      </trkpt>
      <trkpt lat="39.92561" lon="44.59485">
        <ele>831.011232</ele>
        <time>2021-08-14T02:54:24.002Z</time>
      </trkpt>
      <trkpt lat="39.9259" lon="44.59444">
        <ele>831.125148</ele>
        <time>2021-08-14T02:54:38.046Z</time>
      </trkpt>
      <trkpt lat="39.92594" lon="44.59436">
        <ele>831.145776</ele>
        <time>2021-08-14T02:54:40.627Z</time>
      </trkpt>
      <trkpt lat="39.92608" lon="44.59409">
        <ele>831.210776</ele>
        <time>2021-08-14T02:54:48.636Z</time>
      </trkpt>
      <trkpt lat="39.92629" lon="44.59366">
        <ele>831.316712</ele>
        <time>2021-08-14T02:55:01.537Z</time>
      </trkpt>
      <trkpt lat="39.92667" lon="44.59296">
        <ele>831.358617</ele>
        <time>2021-08-14T02:55:22.558Z</time>
      </trkpt>
      <trkpt lat="39.92745" lon="44.59151">
        <ele>831.158127</ele>
        <time>2021-08-14T02:56:03.357Z</time>
      </trkpt>
      <trkpt lat="39.92813" lon="44.59024">
        <ele>830.768366</ele>
        <time>2021-08-14T02:56:38.341Z</time>
      </trkpt>
      <trkpt lat="39.92823" lon="44.59007">
        <ele>830.711371</ele>
        <time>2021-08-14T02:56:43.182Z</time>
      </trkpt>
      <trkpt lat="39.92823" lon="44.59007">
        <ele>830.711371</ele>
        <time>2021-08-14T02:56:43.229Z</time>
      </trkpt>
      <trkpt lat="39.9323" lon="44.58205">
        <ele>828.176472</ele>
        <time>2021-08-14T03:00:20.522Z</time>
      </trkpt>
      <trkpt lat="39.93236" lon="44.58192">
        <ele>828.134857</ele>
        <time>2021-08-14T03:00:23.854Z</time>
      </trkpt>
      <trkpt lat="39.93241" lon="44.58183">
        <ele>828.106452</ele>
        <time>2021-08-14T03:00:26.094Z</time>
      </trkpt>
      <trkpt lat="39.93305" lon="44.58063">
        <ele>828.312819</ele>
        <time>2021-08-14T03:00:59.247Z</time>
      </trkpt>
      <trkpt lat="39.93455" lon="44.58214">
        <ele>829.804071</ele>
        <time>2021-08-14T03:02:11.527Z</time>
      </trkpt>
      <trkpt lat="39.93496" lon="44.58151">
        <ele>830.56697</ele>
        <time>2021-08-14T03:02:38.052Z</time>
      </trkpt>
      <trkpt lat="39.93527" lon="44.58093">
        <ele>830.911503</ele>
        <time>2021-08-14T03:02:59.952Z</time>
      </trkpt>
      <trkpt lat="39.93736" lon="44.58299">
        <ele>831.920908</ele>
        <time>2021-08-14T03:04:26.349Z</time>
      </trkpt>
      <trkpt lat="39.93771" lon="44.5822">
        <ele>832.173452</ele>
        <time>2021-08-14T03:04:51.078Z</time>
      </trkpt>
      <trkpt lat="39.93784" lon="44.58195">
        <ele>832.329587</ele>
        <time>2021-08-14T03:04:59.721Z</time>
      </trkpt>
      <trkpt lat="39.93795" lon="44.5819">
        <ele>832.412529</ele>
        <time>2021-08-14T03:05:04.104Z</time>
      </trkpt>
      <trkpt lat="39.93852" lon="44.58189">
        <ele>832.79166</ele>
        <time>2021-08-14T03:05:25.154Z</time>
      </trkpt>
      <trkpt lat="39.93869" lon="44.58155">
        <ele>833.005561</ele>
        <time>2021-08-14T03:05:36.959Z</time>
      </trkpt>
      <trkpt lat="39.93957" lon="44.58002">
        <ele>833.54763</ele>
        <time>2021-08-14T03:06:28.338Z</time>
      </trkpt>
      <trkpt lat="39.94047" lon="44.57853">
        <ele>833.707789</ele>
        <time>2021-08-14T03:07:14.616Z</time>
      </trkpt>
      <trkpt lat="39.9405" lon="44.57846">
        <ele>833.705254</ele>
        <time>2021-08-14T03:07:16.501Z</time>
      </trkpt>
      <trkpt lat="39.94143" lon="44.57691">
        <ele>833.651835</ele>
        <time>2021-08-14T03:08:06.190Z</time>
      </trkpt>
      <trkpt lat="39.94236" lon="44.57536">
        <ele>833.654764</ele>
        <time>2021-08-14T03:08:54.454Z</time>
      </trkpt>
      <trkpt lat="39.94285" lon="44.57457">
        <ele>833.812147</ele>
        <time>2021-08-14T03:09:19.823Z</time>
      </trkpt>
      <trkpt lat="39.94338" lon="44.57372">
        <ele>833.979926</ele>
        <time>2021-08-14T03:09:48.309Z</time>
      </trkpt>
      <trkpt lat="39.94386" lon="44.57419">
        <ele>834.559737</ele>
        <time>2021-08-14T03:10:09.109Z</time>
      </trkpt>
      <trkpt lat="39.94415" lon="44.5744">
        <ele>834.890249</ele>
        <time>2021-08-14T03:10:21.721Z</time>
      </trkpt>
      <trkpt lat="39.94434" lon="44.57454">
        <ele>835.104722</ele>
        <time>2021-08-14T03:10:30.172Z</time>
      </trkpt>
      <trkpt lat="39.94707" lon="44.57641">
        <ele>838.838902</ele>
        <time>2021-08-14T03:12:28.390Z</time>
      </trkpt>
      <trkpt lat="39.94722" lon="44.57652">
        <ele>839.048671</ele>
        <time>2021-08-14T03:12:34.941Z</time>
      </trkpt>
      <trkpt lat="39.94984" lon="44.57829">
        <ele>842.618923</ele>
        <time>2021-08-14T03:14:25.806Z</time>
      </trkpt>
      <trkpt lat="39.95019" lon="44.57865">
        <ele>843.278474</ele>
        <time>2021-08-14T03:14:43.120Z</time>
      </trkpt>
      <trkpt lat="39.95028" lon="44.57874">
        <ele>843.460725</ele>
        <time>2021-08-14T03:14:48.127Z</time>
      </trkpt>
      <trkpt lat="39.95341" lon="44.5846">
        <ele>851.744673</ele>
        <time>2021-08-14T03:18:25.329Z</time>
      </trkpt>
      <trkpt lat="39.95365" lon="44.58524">
        <ele>852.601187</ele>
        <time>2021-08-14T03:18:47.186Z</time>
      </trkpt>
      <trkpt lat="39.9537" lon="44.58577">
        <ele>853.246122</ele>
        <time>2021-08-14T03:19:03.732Z</time>
      </trkpt>
      <trkpt lat="39.95573" lon="44.5854">
        <ele>856.555873</ele>
        <time>2021-08-14T03:20:29.281Z</time>
      </trkpt>
      <trkpt lat="39.95616" lon="44.58627">
        <ele>857.647619</ele>
        <time>2021-08-14T03:21:00.303Z</time>
      </trkpt>
      <trkpt lat="39.95624" lon="44.58674">
        <ele>858.149931</ele>
        <time>2021-08-14T03:21:14.685Z</time>
      </trkpt>
      <trkpt lat="39.95645" lon="44.58799">
        <ele>859.785273</ele>
        <time>2021-08-14T03:21:54.818Z</time>
      </trkpt>
      <trkpt lat="39.95683" lon="44.59021">
        <ele>863.09936</ele>
        <time>2021-08-14T03:23:11.911Z</time>
      </trkpt>
      <trkpt lat="39.95701" lon="44.59146">
        <ele>864.978213</ele>
        <time>2021-08-14T03:23:55.505Z</time>
      </trkpt>
      <trkpt lat="39.95776" lon="44.59127">
        <ele>865.912731</ele>
        <time>2021-08-14T03:24:25.003Z</time>
      </trkpt>
      <trkpt lat="39.95847" lon="44.59116">
        <ele>866.404478</ele>
        <time>2021-08-14T03:24:49.721Z</time>
      </trkpt>
      <trkpt lat="39.95972" lon="44.59091">
        <ele>867.071436</ele>
        <time>2021-08-14T03:25:30.302Z</time>
      </trkpt>
      <trkpt lat="39.96711" lon="44.58936">
        <ele>869.82652</ele>
        <time>2021-08-14T03:29:38.707Z</time>
      </trkpt>
      <trkpt lat="39.97924" lon="44.58673">
        <ele>874.800934</ele>
        <time>2021-08-14T03:36:29.458Z</time>
      </trkpt>
      <trkpt lat="39.98871" lon="44.58502">
        <ele>878.865014</ele>
        <time>2021-08-14T03:41:48.495Z</time>
      </trkpt>
      <trkpt lat="39.99231" lon="44.58441">
        <ele>881.398589</ele>
        <time>2021-08-14T03:43:57.643Z</time>
      </trkpt>
      <trkpt lat="39.99216" lon="44.58399">
        <ele>881.619483</ele>
        <time>2021-08-14T03:44:09.314Z</time>
      </trkpt>
      <trkpt lat="39.99221" lon="44.58401">
        <ele>881.650586</ele>
        <time>2021-08-14T03:44:11.346Z</time>
      </trkpt>
      <trkpt lat="39.993" lon="44.58401">
        <ele>881.609634</ele>
        <time>2021-08-14T03:44:36.201Z</time>
      </trkpt>
      <trkpt lat="39.99596" lon="44.58221">
        <ele>880.273722</ele>
        <time>2021-08-14T03:46:14.029Z</time>
      </trkpt>
      <trkpt lat="39.99679" lon="44.58172">
        <ele>879.979844</ele>
        <time>2021-08-14T03:46:41.859Z</time>
      </trkpt>
      <trkpt lat="39.99716" lon="44.5815">
        <ele>879.849883</ele>
        <time>2021-08-14T03:46:54.329Z</time>
      </trkpt>
      <trkpt lat="39.9988" lon="44.58058">
        <ele>879.910086</ele>
        <time>2021-08-14T03:47:52.399Z</time>
      </trkpt>
      <trkpt lat="39.99888" lon="44.58057">
        <ele>879.916579</ele>
        <time>2021-08-14T03:47:54.686Z</time>
      </trkpt>
      <trkpt lat="39.99898" lon="44.58056">
        <ele>879.925232</ele>
        <time>2021-08-14T03:47:58.425Z</time>
      </trkpt>
      <trkpt lat="39.99913" lon="44.58062">
        <ele>880.017054</ele>
        <time>2021-08-14T03:48:03.723Z</time>
      </trkpt>
      <trkpt lat="39.99957" lon="44.58098">
        <ele>880.438261</ele>
        <time>2021-08-14T03:48:21.127Z</time>
      </trkpt>
      <trkpt lat="39.99972" lon="44.58112">
        <ele>880.590515</ele>
        <time>2021-08-14T03:48:28.138Z</time>
      </trkpt>
      <trkpt lat="40.00004" lon="44.58064">
        <ele>880.990313</ele>
        <time>2021-08-14T03:48:45.768Z</time>
      </trkpt>
      <trkpt lat="40.00013" lon="44.58044">
        <ele>881.138907</ele>
        <time>2021-08-14T03:48:53.073Z</time>
      </trkpt>
      <trkpt lat="40.00051" lon="44.57912">
        <ele>881.836253</ele>
        <time>2021-08-14T03:49:33.114Z</time>
      </trkpt>
      <trkpt lat="40.0007" lon="44.57922">
        <ele>881.954257</ele>
        <time>2021-08-14T03:49:40.108Z</time>
      </trkpt>
      <trkpt lat="40.00095" lon="44.57917">
        <ele>882.097375</ele>
        <time>2021-08-14T03:49:48.526Z</time>
      </trkpt>
      <trkpt lat="40.00174" lon="44.57887">
        <ele>882.452246</ele>
        <time>2021-08-14T03:50:14.348Z</time>
      </trkpt>
      <trkpt lat="40.00189" lon="44.57878">
        <ele>882.465574</ele>
        <time>2021-08-14T03:50:19.552Z</time>
      </trkpt>
      <trkpt lat="40.00198" lon="44.57871">
        <ele>882.474367</ele>
        <time>2021-08-14T03:50:22.579Z</time>
      </trkpt>
      <trkpt lat="40.00215" lon="44.57854">
        <ele>882.492188</ele>
        <time>2021-08-14T03:50:29.187Z</time>
      </trkpt>
      <trkpt lat="40.00248" lon="44.57811">
        <ele>882.530436</ele>
        <time>2021-08-14T03:50:43.625Z</time>
      </trkpt>
      <trkpt lat="40.00264" lon="44.57789">
        <ele>882.549557</ele>
        <time>2021-08-14T03:50:50.669Z</time>
      </trkpt>
      <trkpt lat="40.00283" lon="44.57768">
        <ele>882.569728</ele>
        <time>2021-08-14T03:50:58.799Z</time>
      </trkpt>
      <trkpt lat="40.00288" lon="44.57762">
        <ele>882.575959</ele>
        <time>2021-08-14T03:51:00.962Z</time>
      </trkpt>
      <trkpt lat="40.00297" lon="44.57751">
        <ele>882.623091</ele>
        <time>2021-08-14T03:51:05.066Z</time>
      </trkpt>
      <trkpt lat="40.00311" lon="44.57729">
        <ele>882.792871</ele>
        <time>2021-08-14T03:51:12.115Z</time>
      </trkpt>
      <trkpt lat="40.00325" lon="44.57683">
        <ele>883.083041</ele>
        <time>2021-08-14T03:51:25.726Z</time>
      </trkpt>
      <trkpt lat="40.00323" lon="44.57667">
        <ele>883.17475</ele>
        <time>2021-08-14T03:51:30.571Z</time>
      </trkpt>
      <trkpt lat="40.00323" lon="44.57667">
        <ele>883.17475</ele>
        <time>2021-08-14T03:51:30.639Z</time>
      </trkpt>
      <trkpt lat="40.00322" lon="44.57658">
        <ele>883.229287</ele>
        <time>2021-08-14T03:51:33.423Z</time>
      </trkpt>
      <trkpt lat="40.00315" lon="44.57587">
        <ele>883.647399</ele>
        <time>2021-08-14T03:51:52.878Z</time>
      </trkpt>
      <trkpt lat="40.00318" lon="44.57567">
        <ele>883.769517</ele>
        <time>2021-08-14T03:51:59.522Z</time>
      </trkpt>
      <trkpt lat="40.00328" lon="44.57548">
        <ele>883.899815</ele>
        <time>2021-08-14T03:52:05.090Z</time>
      </trkpt>
      <trkpt lat="40.00342" lon="44.57532">
        <ele>883.947892</ele>
        <time>2021-08-14T03:52:12.242Z</time>
      </trkpt>
      <trkpt lat="40.00355" lon="44.57518">
        <ele>883.935309</ele>
        <time>2021-08-14T03:52:17.608Z</time>
      </trkpt>
      <trkpt lat="40.00363" lon="44.57512">
        <ele>883.928648</ele>
        <time>2021-08-14T03:52:20.849Z</time>
      </trkpt>
      <trkpt lat="40.00375" lon="44.57502">
        <ele>883.917878</ele>
        <time>2021-08-14T03:52:26.068Z</time>
      </trkpt>
      <trkpt lat="40.00501" lon="44.57426">
        <ele>883.684776</ele>
        <time>2021-08-14T03:53:06.944Z</time>
      </trkpt>
      <trkpt lat="40.00642" lon="44.5734">
        <ele>881.673622</ele>
        <time>2021-08-14T03:53:47.114Z</time>
      </trkpt>
      <trkpt lat="40.00734" lon="44.57286">
        <ele>880.738512</ele>
        <time>2021-08-14T03:54:13.061Z</time>
      </trkpt>
      <trkpt lat="40.0093" lon="44.57185">
        <ele>880.300562</ele>
        <time>2021-08-14T03:55:15.732Z</time>
      </trkpt>
      <trkpt lat="40.00988" lon="44.57156">
        <ele>880.501398</ele>
        <time>2021-08-14T03:55:39.239Z</time>
      </trkpt>
      <trkpt lat="40.0101" lon="44.57155">
        <ele>880.858274</ele>
        <time>2021-08-14T03:55:47.637Z</time>
      </trkpt>
      <trkpt lat="40.01034" lon="44.57159">
        <ele>881.273849</ele>
        <time>2021-08-14T03:55:57.402Z</time>
      </trkpt>
      <trkpt lat="40.01043" lon="44.57165">
        <ele>881.438</ele>
        <time>2021-08-14T03:56:01.612Z</time>
      </trkpt>
      <trkpt lat="40.01065" lon="44.5718">
        <ele>881.850009</ele>
        <time>2021-08-14T03:56:11.637Z</time>
      </trkpt>
      <trkpt lat="40.01085" lon="44.57198">
        <ele>882.264341</ele>
        <time>2021-08-14T03:56:22.305Z</time>
      </trkpt>
      <trkpt lat="40.01096" lon="44.57204">
        <ele>882.467</ele>
        <time>2021-08-14T03:56:27.339Z</time>
      </trkpt>
      <trkpt lat="40.01111" lon="44.57202">
        <ele>882.716714</ele>
        <time>2021-08-14T03:56:33.636Z</time>
      </trkpt>
      <trkpt lat="40.01281" lon="44.57084">
        <ele>885.853565</ele>
        <time>2021-08-14T03:57:50.405Z</time>
      </trkpt>
      <trkpt lat="40.01426" lon="44.56992">
        <ele>888.552055</ele>
        <time>2021-08-14T03:58:56.765Z</time>
      </trkpt>
      <trkpt lat="40.01548" lon="44.5691">
        <ele>890.429628</ele>
        <time>2021-08-14T03:59:51.275Z</time>
      </trkpt>
      <trkpt lat="40.01561" lon="44.56901">
        <ele>890.601209</ele>
        <time>2021-08-14T03:59:56.834Z</time>
      </trkpt>
      <trkpt lat="40.01741" lon="44.56752">
        <ele>892.507942</ele>
        <time>2021-08-14T04:01:12.320Z</time>
      </trkpt>
      <trkpt lat="40.01951" lon="44.56579">
        <ele>894.004197</ele>
        <time>2021-08-14T04:02:37.554Z</time>
      </trkpt>
      <trkpt lat="40.02275" lon="44.56315">
        <ele>896.228103</ele>
        <time>2021-08-14T04:04:48.832Z</time>
      </trkpt>
      <trkpt lat="40.023" lon="44.56275">
        <ele>896.491026</ele>
        <time>2021-08-14T04:05:02.204Z</time>
      </trkpt>
      <trkpt lat="40.02423" lon="44.56005">
        <ele>898.54338</ele>
        <time>2021-08-14T04:06:27.605Z</time>
      </trkpt>
      <trkpt lat="40.02432" lon="44.55997">
        <ele>898.643876</ele>
        <time>2021-08-14T04:06:31.379Z</time>
      </trkpt>
      <trkpt lat="40.02445" lon="44.55983">
        <ele>898.812683</ele>
        <time>2021-08-14T04:06:38.554Z</time>
      </trkpt>
      <trkpt lat="40.02529" lon="44.55973">
        <ele>900.225891</ele>
        <time>2021-08-14T04:07:12.349Z</time>
      </trkpt>
      <trkpt lat="40.02643" lon="44.55958">
        <ele>902.252324</ele>
        <time>2021-08-14T04:08:00.239Z</time>
      </trkpt>
      <trkpt lat="40.02753" lon="44.55943">
        <ele>904.293222</ele>
        <time>2021-08-14T04:08:46.025Z</time>
      </trkpt>
      <trkpt lat="40.02825" lon="44.55936">
        <ele>905.529182</ele>
        <time>2021-08-14T04:09:16.490Z</time>
      </trkpt>
      <trkpt lat="40.02872" lon="44.55931">
        <ele>906.109891</ele>
        <time>2021-08-14T04:09:36.004Z</time>
      </trkpt>
      <trkpt lat="40.02896" lon="44.55935">
        <ele>906.406176</ele>
        <time>2021-08-14T04:09:45.358Z</time>
      </trkpt>
      <trkpt lat="40.0292" lon="44.55947">
        <ele>906.712523</ele>
        <time>2021-08-14T04:09:55.272Z</time>
      </trkpt>
      <trkpt lat="40.02989" lon="44.55718">
        <ele>908.26837</ele>
        <time>2021-08-14T04:11:01.690Z</time>
      </trkpt>
      <trkpt lat="40.03016" lon="44.5563">
        <ele>908.743762</ele>
        <time>2021-08-14T04:11:27.751Z</time>
      </trkpt>
      <trkpt lat="40.03032" lon="44.55636">
        <ele>908.910157</ele>
        <time>2021-08-14T04:11:34.178Z</time>
      </trkpt>
      <trkpt lat="40.03307" lon="44.55727">
        <ele>911.430203</ele>
        <time>2021-08-14T04:13:19.105Z</time>
      </trkpt>
      <trkpt lat="40.03325" lon="44.55726">
        <ele>911.570007</ele>
        <time>2021-08-14T04:13:25.343Z</time>
      </trkpt>
      <trkpt lat="40.03339" lon="44.5572">
        <ele>911.685087</ele>
        <time>2021-08-14T04:13:29.668Z</time>
      </trkpt>
      <trkpt lat="40.03371" lon="44.5568">
        <ele>911.822501</ele>
        <time>2021-08-14T04:13:43.748Z</time>
      </trkpt>
      <trkpt lat="40.03399" lon="44.55631">
        <ele>911.855049</ele>
        <time>2021-08-14T04:13:58.362Z</time>
      </trkpt>
      <trkpt lat="40.03425" lon="44.55586">
        <ele>911.885229</ele>
        <time>2021-08-14T04:14:11.387Z</time>
      </trkpt>
      <trkpt lat="40.03519" lon="44.55424">
        <ele>912.109511</ele>
        <time>2021-08-14T04:15:01.553Z</time>
      </trkpt>
      <trkpt lat="40.03549" lon="44.55395">
        <ele>912.181705</ele>
        <time>2021-08-14T04:15:14.019Z</time>
      </trkpt>
      <trkpt lat="40.03564" lon="44.55384">
        <ele>912.215902</ele>
        <time>2021-08-14T04:15:19.787Z</time>
      </trkpt>
      <trkpt lat="40.03726" lon="44.55286">
        <ele>912.455187</ele>
        <time>2021-08-14T04:16:15.432Z</time>
      </trkpt>
      <trkpt lat="40.03742" lon="44.55273">
        <ele>912.477624</ele>
        <time>2021-08-14T04:16:21.034Z</time>
      </trkpt>
      <trkpt lat="40.03803" lon="44.552">
        <ele>913.735712</ele>
        <time>2021-08-14T04:16:49.779Z</time>
      </trkpt>
      <trkpt lat="40.03844" lon="44.55146">
        <ele>914.767175</ele>
        <time>2021-08-14T04:17:14.242Z</time>
      </trkpt>
      <trkpt lat="40.03878" lon="44.55103">
        <ele>915.60762</ele>
        <time>2021-08-14T04:17:36.270Z</time>
      </trkpt>
      <trkpt lat="40.03917" lon="44.55046">
        <ele>917.862823</ele>
        <time>2021-08-14T04:18:06.521Z</time>
      </trkpt>
      <trkpt lat="40.04032" lon="44.54891">
        <ele>924.561861</ele>
        <time>2021-08-14T04:19:38.908Z</time>
      </trkpt>
      <trkpt lat="40.0418" lon="44.54703">
        <ele>932.865669</ele>
        <time>2021-08-14T04:21:29.446Z</time>
      </trkpt>
      <trkpt lat="40.04188" lon="44.54692">
        <ele>933.309323</ele>
        <time>2021-08-14T04:21:36.060Z</time>
      </trkpt>
      <trkpt lat="40.04197" lon="44.5468">
        <ele>933.799782</ele>
        <time>2021-08-14T04:21:42.772Z</time>
      </trkpt>
      <trkpt lat="40.04215" lon="44.54655">
        <ele>934.797082</ele>
        <time>2021-08-14T04:21:56.616Z</time>
      </trkpt>
      <trkpt lat="40.04252" lon="44.54602">
        <ele>936.919087</ele>
        <time>2021-08-14T04:22:25.256Z</time>
      </trkpt>
      <trkpt lat="40.04421" lon="44.54751">
        <ele>943.769785</ele>
        <time>2021-08-14T04:24:07.264Z</time>
      </trkpt>
      <trkpt lat="40.04426" lon="44.54755">
        <ele>943.930788</ele>
        <time>2021-08-14T04:24:10.348Z</time>
      </trkpt>
      <trkpt lat="40.0445" lon="44.54773">
        <ele>944.734295</ele>
        <time>2021-08-14T04:24:23.430Z</time>
      </trkpt>
      <trkpt lat="40.0454" lon="44.54873">
        <ele>948.180559</ele>
        <time>2021-08-14T04:25:21.721Z</time>
      </trkpt>
      <trkpt lat="40.04561" lon="44.54896">
        <ele>948.845883</ele>
        <time>2021-08-14T04:25:34.655Z</time>
      </trkpt>
      <trkpt lat="40.0461" lon="44.5495">
        <ele>950.095788</ele>
        <time>2021-08-14T04:26:02.072Z</time>
      </trkpt>
      <trkpt lat="40.04621" lon="44.5493">
        <ele>950.453548</ele>
        <time>2021-08-14T04:26:10.014Z</time>
      </trkpt>
      <trkpt lat="40.04655" lon="44.54862">
        <ele>951.689777</ele>
        <time>2021-08-14T04:26:35.917Z</time>
      </trkpt>
      <trkpt lat="40.04701" lon="44.54814">
        <ele>952.910572</ele>
        <time>2021-08-14T04:27:00.978Z</time>
      </trkpt>
      <trkpt lat="40.0473" lon="44.54773">
        <ele>953.810385</ele>
        <time>2021-08-14T04:27:19.474Z</time>
      </trkpt>
      <trkpt lat="40.04749" lon="44.54749">
        <ele>954.364143</ele>
        <time>2021-08-14T04:27:31.000Z</time>
      </trkpt>
      <trkpt lat="40.04764" lon="44.54767">
        <ele>954.808215</ele>
        <time>2021-08-14T04:27:40.146Z</time>
      </trkpt>
      <trkpt lat="40.0481" lon="44.54819">
        <ele>956.168567</ele>
        <time>2021-08-14T04:28:07.088Z</time>
      </trkpt>
      <trkpt lat="40.04874" lon="44.54893">
        <ele>958.642914</ele>
        <time>2021-08-14T04:28:47.472Z</time>
      </trkpt>
      <trkpt lat="40.0488" lon="44.54899">
        <ele>958.861959</ele>
        <time>2021-08-14T04:28:51.056Z</time>
      </trkpt>
      <trkpt lat="40.04943" lon="44.54971">
        <ele>961.287369</ele>
        <time>2021-08-14T04:29:31.649Z</time>
      </trkpt>
      <trkpt lat="40.05017" lon="44.55055">
        <ele>964.376105</ele>
        <time>2021-08-14T04:30:18.986Z</time>
      </trkpt>
      <trkpt lat="40.05295" lon="44.55365">
        <ele>976.970667</ele>
        <time>2021-08-14T04:33:18.875Z</time>
      </trkpt>
      <trkpt lat="40.05318" lon="44.55374">
        <ele>977.961425</ele>
        <time>2021-08-14T04:33:32.620Z</time>
      </trkpt>
      <trkpt lat="40.05329" lon="44.55373">
        <ele>978.404511</ele>
        <time>2021-08-14T04:33:39.867Z</time>
      </trkpt>
      <trkpt lat="40.05363" lon="44.55353">
        <ele>979.968356</ele>
        <time>2021-08-14T04:34:02.448Z</time>
      </trkpt>
      <trkpt lat="40.05379" lon="44.55334">
        <ele>981.235949</ele>
        <time>2021-08-14T04:34:14.856Z</time>
      </trkpt>
      <trkpt lat="40.05396" lon="44.55314">
        <ele>982.618668</ele>
        <time>2021-08-14T04:34:30.260Z</time>
      </trkpt>
      <trkpt lat="40.05433" lon="44.55296">
        <ele>985.017435</ele>
        <time>2021-08-14T04:34:56.000Z</time>
      </trkpt>
      <trkpt lat="40.05471" lon="44.55313">
        <ele>987.434575</ele>
        <time>2021-08-14T04:35:22.893Z</time>
      </trkpt>
      <trkpt lat="40.05526" lon="44.55325">
        <ele>990.752998</ele>
        <time>2021-08-14T04:36:00.147Z</time>
      </trkpt>
      <trkpt lat="40.05567" lon="44.55285">
        <ele>994.037805</ele>
        <time>2021-08-14T04:36:33.046Z</time>
      </trkpt>
      <trkpt lat="40.05665" lon="44.55218">
        <ele>1001.003861</ele>
        <time>2021-08-14T04:37:46.751Z</time>
      </trkpt>
      <trkpt lat="40.0568" lon="44.55181">
        <ele>1003.023897</ele>
        <time>2021-08-14T04:38:08.623Z</time>
      </trkpt>
      <trkpt lat="40.05708" lon="44.5516">
        <ele>1005.08151</ele>
        <time>2021-08-14T04:38:31.026Z</time>
      </trkpt>
      <trkpt lat="40.05728" lon="44.55168">
        <ele>1006.380654</ele>
        <time>2021-08-14T04:38:45.753Z</time>
      </trkpt>
      <trkpt lat="40.05751" lon="44.55178">
        <ele>1007.899329</ele>
        <time>2021-08-14T04:39:01.806Z</time>
      </trkpt>
      <trkpt lat="40.0577" lon="44.55217">
        <ele>1010.094346</ele>
        <time>2021-08-14T04:39:25.144Z</time>
      </trkpt>
      <trkpt lat="40.05822" lon="44.55271">
        <ele>1014.045769</ele>
        <time>2021-08-14T04:40:09.003Z</time>
      </trkpt>
      <trkpt lat="40.06205" lon="44.55734">
        <ele>1038.644212</ele>
        <time>2021-08-14T04:45:07.041Z</time>
      </trkpt>
      <trkpt lat="40.06293" lon="44.55858">
        <ele>1044.123895</ele>
        <time>2021-08-14T04:46:19.353Z</time>
      </trkpt>
      <trkpt lat="40.06307" lon="44.55877">
        <ele>1044.979344</ele>
        <time>2021-08-14T04:46:29.903Z</time>
      </trkpt>
      <trkpt lat="40.06313" lon="44.55875">
        <ele>1045.249348</ele>
        <time>2021-08-14T04:46:33.947Z</time>
      </trkpt>
      <trkpt lat="40.06334" lon="44.55887">
        <ele>1046.238128</ele>
        <time>2021-08-14T04:46:45.457Z</time>
      </trkpt>
      <trkpt lat="40.064" lon="44.55973">
        <ele>1049.314446</ele>
        <time>2021-08-14T04:47:33.666Z</time>
      </trkpt>
      <trkpt lat="40.06427" lon="44.56001">
        <ele>1050.441187</ele>
        <time>2021-08-14T04:47:51.160Z</time>
      </trkpt>
      <trkpt lat="40.06486" lon="44.56036">
        <ele>1052.395804</ele>
        <time>2021-08-14T04:48:19.847Z</time>
      </trkpt>
      <trkpt lat="40.06565" lon="44.56059">
        <ele>1053.932554</ele>
        <time>2021-08-14T04:48:56.737Z</time>
      </trkpt>
      <trkpt lat="40.06666" lon="44.56035">
        <ele>1055.473152</ele>
        <time>2021-08-14T04:49:37.293Z</time>
      </trkpt>
      <trkpt lat="40.06755" lon="44.56008">
        <ele>1054.651386</ele>
        <time>2021-08-14T04:50:04.829Z</time>
      </trkpt>
      <trkpt lat="40.06755" lon="44.55996">
        <ele>1054.569021</ele>
        <time>2021-08-14T04:50:06.885Z</time>
      </trkpt>
      <trkpt lat="40.06754" lon="44.55848">
        <ele>1052.602356</ele>
        <time>2021-08-14T04:50:34.165Z</time>
      </trkpt>
      <trkpt lat="40.06766" lon="44.55815">
        <ele>1051.802571</ele>
        <time>2021-08-14T04:50:40.455Z</time>
      </trkpt>
      <trkpt lat="40.06777" lon="44.55797">
        <ele>1051.30132</ele>
        <time>2021-08-14T04:50:44.355Z</time>
      </trkpt>
      <trkpt lat="40.06926" lon="44.55646">
        <ele>1046.319693</ele>
        <time>2021-08-14T04:51:28.196Z</time>
      </trkpt>
      <trkpt lat="40.06987" lon="44.55529">
        <ele>1043.971949</ele>
        <time>2021-08-14T04:51:54.938Z</time>
      </trkpt>
      <trkpt lat="40.06991" lon="44.5551">
        <ele>1043.758325</ele>
        <time>2021-08-14T04:51:59.008Z</time>
      </trkpt>
      <trkpt lat="40.06994" lon="44.55495">
        <ele>1043.587852</ele>
        <time>2021-08-14T04:52:01.968Z</time>
      </trkpt>
      <trkpt lat="40.07007" lon="44.55416">
        <ele>1042.70576</ele>
        <time>2021-08-14T04:52:19.260Z</time>
      </trkpt>
      <trkpt lat="40.07015" lon="44.55406">
        <ele>1042.548794</ele>
        <time>2021-08-14T04:52:22.164Z</time>
      </trkpt>
      <trkpt lat="40.07028" lon="44.55403">
        <ele>1042.359669</ele>
        <time>2021-08-14T04:52:26.194Z</time>
      </trkpt>
      <trkpt lat="40.07059" lon="44.55409">
        <ele>1041.911482</ele>
        <time>2021-08-14T04:52:35.694Z</time>
      </trkpt>
      <trkpt lat="40.07156" lon="44.55494">
        <ele>1036.959102</ele>
        <time>2021-08-14T04:53:01.937Z</time>
      </trkpt>
      <trkpt lat="40.07198" lon="44.55537">
        <ele>1034.605904</ele>
        <time>2021-08-14T04:53:13.027Z</time>
      </trkpt>
      <trkpt lat="40.07212" lon="44.55542">
        <ele>1033.948389</ele>
        <time>2021-08-14T04:53:15.766Z</time>
      </trkpt>
      <trkpt lat="40.07229" lon="44.55544">
        <ele>1032.758157</ele>
        <time>2021-08-14T04:53:19.164Z</time>
      </trkpt>
      <trkpt lat="40.0724" lon="44.55538">
        <ele>1031.855335</ele>
        <time>2021-08-14T04:53:21.726Z</time>
      </trkpt>
      <trkpt lat="40.07253" lon="44.55526">
        <ele>1030.706128</ele>
        <time>2021-08-14T04:53:24.724Z</time>
      </trkpt>
      <trkpt lat="40.0726" lon="44.55514">
        <ele>1029.845787</ele>
        <time>2021-08-14T04:53:27.296Z</time>
      </trkpt>
      <trkpt lat="40.07261" lon="44.55501">
        <ele>1029.147529</ele>
        <time>2021-08-14T04:53:29.202Z</time>
      </trkpt>
      <trkpt lat="40.07261" lon="44.55491">
        <ele>1028.571568</ele>
        <time>2021-08-14T04:53:30.651Z</time>
      </trkpt>
      <trkpt lat="40.07241" lon="44.55378">
        <ele>1022.181968</ele>
        <time>2021-08-14T04:53:48.126Z</time>
      </trkpt>
      <trkpt lat="40.07244" lon="44.55331">
        <ele>1021.453518</ele>
        <time>2021-08-14T04:53:55.633Z</time>
      </trkpt>
      <trkpt lat="40.07261" lon="44.55282">
        <ele>1022.356284</ele>
        <time>2021-08-14T04:54:05.623Z</time>
      </trkpt>
      <trkpt lat="40.07271" lon="44.55265">
        <ele>1022.733664</ele>
        <time>2021-08-14T04:54:11.192Z</time>
      </trkpt>
      <trkpt lat="40.07663" lon="44.54858">
        <ele>1038.075187</ele>
        <time>2021-08-14T04:58:34.750Z</time>
      </trkpt>
      <trkpt lat="40.07756" lon="44.54679">
        <ele>1046.753191</ele>
        <time>2021-08-14T05:00:19.510Z</time>
      </trkpt>
      <trkpt lat="40.07754" lon="44.54648">
        <ele>1047.971786</ele>
        <time>2021-08-14T05:00:34.727Z</time>
      </trkpt>
      <trkpt lat="40.07697" lon="44.54583">
        <ele>1051.925245</ele>
        <time>2021-08-14T05:01:20.590Z</time>
      </trkpt>
      <trkpt lat="40.07676" lon="44.54555">
        <ele>1053.441794</ele>
        <time>2021-08-14T05:01:38.073Z</time>
      </trkpt>
      <trkpt lat="40.07667" lon="44.54541">
        <ele>1054.157086</ele>
        <time>2021-08-14T05:01:45.600Z</time>
      </trkpt>
      <trkpt lat="40.07654" lon="44.5451">
        <ele>1055.529976</ele>
        <time>2021-08-14T05:02:00.988Z</time>
      </trkpt>
      <trkpt lat="40.07645" lon="44.54466">
        <ele>1057.300138</ele>
        <time>2021-08-14T05:02:20.748Z</time>
      </trkpt>
      <trkpt lat="40.07607" lon="44.54365">
        <ele>1061.58167</ele>
        <time>2021-08-14T05:03:10.325Z</time>
      </trkpt>
      <trkpt lat="40.07601" lon="44.5433">
        <ele>1062.938866</ele>
        <time>2021-08-14T05:03:27.540Z</time>
      </trkpt>
      <trkpt lat="40.07608" lon="44.54276">
        <ele>1065.214143</ele>
        <time>2021-08-14T05:03:54.066Z</time>
      </trkpt>
      <trkpt lat="40.07637" lon="44.54231">
        <ele>1067.703136</ele>
        <time>2021-08-14T05:04:22.576Z</time>
      </trkpt>
      <trkpt lat="40.07644" lon="44.54224">
        <ele>1068.212243</ele>
        <time>2021-08-14T05:04:30.765Z</time>
      </trkpt>
      <trkpt lat="40.07801" lon="44.54408">
        <ele>1078.097504</ele>
        <time>2021-08-14T05:06:37.110Z</time>
      </trkpt>
      <trkpt lat="40.07893" lon="44.54533">
        <ele>1082.139817</ele>
        <time>2021-08-14T05:07:32.675Z</time>
      </trkpt>
      <trkpt lat="40.08059" lon="44.54822">
        <ele>1088.928285</ele>
        <time>2021-08-14T05:09:34.035Z</time>
      </trkpt>
      <trkpt lat="40.08118" lon="44.54954">
        <ele>1094.09717</ele>
        <time>2021-08-14T05:10:39.422Z</time>
      </trkpt>
      <trkpt lat="40.08227" lon="44.55166">
        <ele>1104.856154</ele>
        <time>2021-08-14T05:12:41.742Z</time>
      </trkpt>
      <trkpt lat="40.08309" lon="44.55278">
        <ele>1111.955989</ele>
        <time>2021-08-14T05:14:03.445Z</time>
      </trkpt>
      <trkpt lat="40.08333" lon="44.553">
        <ele>1113.654637</ele>
        <time>2021-08-14T05:14:22.907Z</time>
      </trkpt>
      <trkpt lat="40.08398" lon="44.55354">
        <ele>1118.188651</ele>
        <time>2021-08-14T05:15:10.972Z</time>
      </trkpt>
      <trkpt lat="40.08421" lon="44.55364">
        <ele>1119.629016</ele>
        <time>2021-08-14T05:15:25.235Z</time>
      </trkpt>
      <trkpt lat="40.08461" lon="44.55362">
        <ele>1121.515882</ele>
        <time>2021-08-14T05:15:48.644Z</time>
      </trkpt>
      <trkpt lat="40.08473" lon="44.55351">
        <ele>1122.222826</ele>
        <time>2021-08-14T05:15:57.584Z</time>
      </trkpt>
      <trkpt lat="40.08484" lon="44.55332">
        <ele>1123.095328</ele>
        <time>2021-08-14T05:16:07.453Z</time>
      </trkpt>
      <trkpt lat="40.08509" lon="44.5527">
        <ele>1125.6763</ele>
        <time>2021-08-14T05:16:38.664Z</time>
      </trkpt>
      <trkpt lat="40.08524" lon="44.55249">
        <ele>1126.715547</ele>
        <time>2021-08-14T05:16:50.283Z</time>
      </trkpt>
      <trkpt lat="40.08549" lon="44.55214">
        <ele>1128.468335</ele>
        <time>2021-08-14T05:17:11.339Z</time>
      </trkpt>
      <trkpt lat="40.08558" lon="44.55202">
        <ele>1129.127604</ele>
        <time>2021-08-14T05:17:19.556Z</time>
      </trkpt>
      <trkpt lat="40.08619" lon="44.5515">
        <ele>1132.745783</ele>
        <time>2021-08-14T05:18:02.318Z</time>
      </trkpt>
      <trkpt lat="40.08648" lon="44.55207">
        <ele>1135.363245</ele>
        <time>2021-08-14T05:18:35.467Z</time>
      </trkpt>
      <trkpt lat="40.08675" lon="44.55254">
        <ele>1137.475809</ele>
        <time>2021-08-14T05:19:02.823Z</time>
      </trkpt>
      <trkpt lat="40.08712" lon="44.5522">
        <ele>1139.164842</ele>
        <time>2021-08-14T05:19:28.166Z</time>
      </trkpt>
      <trkpt lat="40.08751" lon="44.55186">
        <ele>1140.933372</ele>
        <time>2021-08-14T05:19:53.295Z</time>
      </trkpt>
      <trkpt lat="40.08828" lon="44.55124">
        <ele>1144.215623</ele>
        <time>2021-08-14T05:20:38.472Z</time>
      </trkpt>
      <trkpt lat="40.08843" lon="44.55153">
        <ele>1144.921289</ele>
        <time>2021-08-14T05:20:51.755Z</time>
      </trkpt>
      <trkpt lat="40.08855" lon="44.5518">
        <ele>1145.564485</ele>
        <time>2021-08-14T05:21:03.518Z</time>
      </trkpt>
      <trkpt lat="40.08884" lon="44.55193">
        <ele>1146.358614</ele>
        <time>2021-08-14T05:21:17.646Z</time>
      </trkpt>
      <trkpt lat="40.08915" lon="44.55184">
        <ele>1147.221584</ele>
        <time>2021-08-14T05:21:32.890Z</time>
      </trkpt>
      <trkpt lat="40.08954" lon="44.55155">
        <ele>1148.385713</ele>
        <time>2021-08-14T05:21:53.272Z</time>
      </trkpt>
      <trkpt lat="40.0896" lon="44.5515">
        <ele>1148.584248</ele>
        <time>2021-08-14T05:21:56.684Z</time>
      </trkpt>
      <trkpt lat="40.09039" lon="44.55081">
        <ele>1150.541649</ele>
        <time>2021-08-14T05:22:37.701Z</time>
      </trkpt>
      <trkpt lat="40.09075" lon="44.55054">
        <ele>1151.380966</ele>
        <time>2021-08-14T05:22:55.971Z</time>
      </trkpt>
      <trkpt lat="40.09104" lon="44.55026">
        <ele>1152.124726</ele>
        <time>2021-08-14T05:23:11.823Z</time>
      </trkpt>
      <trkpt lat="40.09165" lon="44.54966">
        <ele>1154.054467</ele>
        <time>2021-08-14T05:23:45.199Z</time>
      </trkpt>
      <trkpt lat="40.09183" lon="44.54983">
        <ele>1154.625722</ele>
        <time>2021-08-14T05:23:55.261Z</time>
      </trkpt>
      <trkpt lat="40.09198" lon="44.55003">
        <ele>1155.187372</ele>
        <time>2021-08-14T05:24:05.171Z</time>
      </trkpt>
      <trkpt lat="40.09219" lon="44.55046">
        <ele>1156.197747</ele>
        <time>2021-08-14T05:24:24.453Z</time>
      </trkpt>
      <trkpt lat="40.09221" lon="44.55064">
        <ele>1156.553981</ele>
        <time>2021-08-14T05:24:31.347Z</time>
      </trkpt>
      <trkpt lat="40.09192" lon="44.5512">
        <ele>1158.335907</ele>
        <time>2021-08-14T05:24:58.491Z</time>
      </trkpt>
      <trkpt lat="40.09185" lon="44.55156">
        <ele>1159.403833</ele>
        <time>2021-08-14T05:25:13.701Z</time>
      </trkpt>
      <trkpt lat="40.0919" lon="44.55177">
        <ele>1160.025394</ele>
        <time>2021-08-14T05:25:22.824Z</time>
      </trkpt>
      <trkpt lat="40.09223" lon="44.55198">
        <ele>1161.388002</ele>
        <time>2021-08-14T05:25:42.379Z</time>
      </trkpt>
      <trkpt lat="40.09248" lon="44.55251">
        <ele>1163.202857</ele>
        <time>2021-08-14T05:26:08.694Z</time>
      </trkpt>
      <trkpt lat="40.09307" lon="44.55266">
        <ele>1165.182047</ele>
        <time>2021-08-14T05:26:41.349Z</time>
      </trkpt>
      <trkpt lat="40.09345" lon="44.55274">
        <ele>1166.416423</ele>
        <time>2021-08-14T05:27:01.229Z</time>
      </trkpt>
      <trkpt lat="40.09393" lon="44.55285">
        <ele>1167.930958</ele>
        <time>2021-08-14T05:27:24.688Z</time>
      </trkpt>
      <trkpt lat="40.09406" lon="44.5529">
        <ele>1168.358591</ele>
        <time>2021-08-14T05:27:30.714Z</time>
      </trkpt>
      <trkpt lat="40.09468" lon="44.55304">
        <ele>1169.890326</ele>
        <time>2021-08-14T05:27:59.257Z</time>
      </trkpt>
      <trkpt lat="40.09493" lon="44.5531">
        <ele>1170.302196</ele>
        <time>2021-08-14T05:28:10.755Z</time>
      </trkpt>
      <trkpt lat="40.09519" lon="44.55317">
        <ele>1170.73685</ele>
        <time>2021-08-14T05:28:21.828Z</time>
      </trkpt>
      <trkpt lat="40.09531" lon="44.55321">
        <ele>1170.947068</ele>
        <time>2021-08-14T05:28:27.279Z</time>
      </trkpt>
      <trkpt lat="40.09575" lon="44.55322">
        <ele>1171.650913</ele>
        <time>2021-08-14T05:28:43.546Z</time>
      </trkpt>
      <trkpt lat="40.09591" lon="44.55317">
        <ele>1171.919135</ele>
        <time>2021-08-14T05:28:49.765Z</time>
      </trkpt>
      <trkpt lat="40.09604" lon="44.5531">
        <ele>1172.15238</ele>
        <time>2021-08-14T05:28:54.987Z</time>
      </trkpt>
      <trkpt lat="40.09626" lon="44.55304">
        <ele>1172.207852</ele>
        <time>2021-08-14T05:29:02.861Z</time>
      </trkpt>
      <trkpt lat="40.0964" lon="44.553">
        <ele>1172.026866</ele>
        <time>2021-08-14T05:29:07.832Z</time>
      </trkpt>
      <trkpt lat="40.09696" lon="44.55309">
        <ele>1171.334608</ele>
        <time>2021-08-14T05:29:25.385Z</time>
      </trkpt>
      <trkpt lat="40.09879" lon="44.55358">
        <ele>1168.194829</ele>
        <time>2021-08-14T05:30:09.417Z</time>
      </trkpt>
      <trkpt lat="40.0992" lon="44.55368">
        <ele>1167.272889</ele>
        <time>2021-08-14T05:30:19.319Z</time>
      </trkpt>
      <trkpt lat="40.09944" lon="44.55369">
        <ele>1166.755323</ele>
        <time>2021-08-14T05:30:25.158Z</time>
      </trkpt>
      <trkpt lat="40.10003" lon="44.55353">
        <ele>1166.769129</ele>
        <time>2021-08-14T05:30:42.039Z</time>
      </trkpt>
      <trkpt lat="40.10016" lon="44.55348">
        <ele>1166.984417</ele>
        <time>2021-08-14T05:30:45.401Z</time>
      </trkpt>
      <trkpt lat="40.10058" lon="44.55332">
        <ele>1167.713414</ele>
        <time>2021-08-14T05:31:00.173Z</time>
      </trkpt>
      <trkpt lat="40.10115" lon="44.5531">
        <ele>1168.694562</ele>
        <time>2021-08-14T05:31:28.699Z</time>
      </trkpt>
      <trkpt lat="40.10132" lon="44.55302">
        <ele>1169.0015</ele>
        <time>2021-08-14T05:31:39.364Z</time>
      </trkpt>
      <trkpt lat="40.10159" lon="44.55289">
        <ele>1169.75372</ele>
        <time>2021-08-14T05:31:55.034Z</time>
      </trkpt>
      <trkpt lat="40.10189" lon="44.55268">
        <ele>1170.892189</ele>
        <time>2021-08-14T05:32:16.983Z</time>
      </trkpt>
      <trkpt lat="40.1021" lon="44.55252">
        <ele>1171.675949</ele>
        <time>2021-08-14T05:32:31.518Z</time>
      </trkpt>
      <trkpt lat="40.10228" lon="44.5523">
        <ele>1172.499333</ele>
        <time>2021-08-14T05:32:46.464Z</time>
      </trkpt>
      <trkpt lat="40.10281" lon="44.55146">
        <ele>1174.968912</ele>
        <time>2021-08-14T05:33:21.470Z</time>
      </trkpt>
      <trkpt lat="40.10311" lon="44.5509">
        <ele>1173.144092</ele>
        <time>2021-08-14T05:33:35.967Z</time>
      </trkpt>
      <trkpt lat="40.10322" lon="44.55072">
        <ele>1172.565447</ele>
        <time>2021-08-14T05:33:40.265Z</time>
      </trkpt>
      <trkpt lat="40.10355" lon="44.5502">
        <ele>1170.770989</ele>
        <time>2021-08-14T05:33:51.490Z</time>
      </trkpt>
      <trkpt lat="40.10384" lon="44.54998">
        <ele>1169.628033</ele>
        <time>2021-08-14T05:33:58.333Z</time>
      </trkpt>
      <trkpt lat="40.10406" lon="44.54995">
        <ele>1168.765941</ele>
        <time>2021-08-14T05:34:02.923Z</time>
      </trkpt>
      <trkpt lat="40.10483" lon="44.55015">
        <ele>1162.344138</ele>
        <time>2021-08-14T05:34:18.105Z</time>
      </trkpt>
      <trkpt lat="40.10504" lon="44.55033">
        <ele>1160.337766</ele>
        <time>2021-08-14T05:34:22.825Z</time>
      </trkpt>
      <trkpt lat="40.1055" lon="44.55126">
        <ele>1153.407209</ele>
        <time>2021-08-14T05:34:39.539Z</time>
      </trkpt>
      <trkpt lat="40.10561" lon="44.55152">
        <ele>1151.57402</ele>
        <time>2021-08-14T05:34:44.041Z</time>
      </trkpt>
      <trkpt lat="40.10597" lon="44.55178">
        <ele>1148.316163</ele>
        <time>2021-08-14T05:34:52.118Z</time>
      </trkpt>
      <trkpt lat="40.10636" lon="44.55181">
        <ele>1145.244091</ele>
        <time>2021-08-14T05:34:59.735Z</time>
      </trkpt>
      <trkpt lat="40.10664" lon="44.55171">
        <ele>1142.952022</ele>
        <time>2021-08-14T05:35:05.364Z</time>
      </trkpt>
      <trkpt lat="40.107" lon="44.55137">
        <ele>1139.473161</ele>
        <time>2021-08-14T05:35:14.064Z</time>
      </trkpt>
      <trkpt lat="40.10709" lon="44.55114">
        <ele>1137.88309</ele>
        <time>2021-08-14T05:35:18.196Z</time>
      </trkpt>
      <trkpt lat="40.10714" lon="44.55048">
        <ele>1133.985454</ele>
        <time>2021-08-14T05:35:28.256Z</time>
      </trkpt>
      <trkpt lat="40.10729" lon="44.5504">
        <ele>1132.766892</ele>
        <time>2021-08-14T05:35:31.370Z</time>
      </trkpt>
      <trkpt lat="40.10736" lon="44.55048">
        <ele>1132.019747</ele>
        <time>2021-08-14T05:35:33.271Z</time>
      </trkpt>
      <trkpt lat="40.10745" lon="44.55141">
        <ele>1126.448534</ele>
        <time>2021-08-14T05:35:47.495Z</time>
      </trkpt>
      <trkpt lat="40.10795" lon="44.55239">
        <ele>1118.711127</ele>
        <time>2021-08-14T05:36:05.033Z</time>
      </trkpt>
      <trkpt lat="40.10833" lon="44.55274">
        <ele>1114.708068</ele>
        <time>2021-08-14T05:36:14.002Z</time>
      </trkpt>
      <trkpt lat="40.10871" lon="44.55275">
        <ele>1111.418779</ele>
        <time>2021-08-14T05:36:21.380Z</time>
      </trkpt>
      <trkpt lat="40.10891" lon="44.55263">
        <ele>1109.593796</ele>
        <time>2021-08-14T05:36:25.587Z</time>
      </trkpt>
      <trkpt lat="40.10953" lon="44.55224">
        <ele>1104.052572</ele>
        <time>2021-08-14T05:36:39.087Z</time>
      </trkpt>
      <trkpt lat="40.11056" lon="44.55158">
        <ele>1094.773566</ele>
        <time>2021-08-14T05:37:01.728Z</time>
      </trkpt>
      <trkpt lat="40.11133" lon="44.55119">
        <ele>1087.929178</ele>
        <time>2021-08-14T05:37:17.831Z</time>
      </trkpt>
      <trkpt lat="40.11173" lon="44.55092">
        <ele>1084.209183</ele>
        <time>2021-08-14T05:37:26.475Z</time>
      </trkpt>
      <trkpt lat="40.1128" lon="44.55014">
        <ele>1074.360894</ele>
        <time>2021-08-14T05:37:50.222Z</time>
      </trkpt>
      <trkpt lat="40.1139" lon="44.54932">
        <ele>1065.028026</ele>
        <time>2021-08-14T05:38:15.381Z</time>
      </trkpt>
      <trkpt lat="40.11432" lon="44.54901">
        <ele>1062.226319</ele>
        <time>2021-08-14T05:38:25.450Z</time>
      </trkpt>
      <trkpt lat="40.11619" lon="44.54764">
        <ele>1051.139053</ele>
        <time>2021-08-14T05:39:10.490Z</time>
      </trkpt>
      <trkpt lat="40.11737" lon="44.54671">
        <ele>1046.65666</ele>
        <time>2021-08-14T05:39:41.283Z</time>
      </trkpt>
      <trkpt lat="40.1183" lon="44.54597">
        <ele>1044.477172</ele>
        <time>2021-08-14T05:40:10.011Z</time>
      </trkpt>
      <trkpt lat="40.11869" lon="44.54566">
        <ele>1044.475636</ele>
        <time>2021-08-14T05:40:24.853Z</time>
      </trkpt>
      <trkpt lat="40.1207" lon="44.5441">
        <ele>1043.49496</ele>
        <time>2021-08-14T05:41:39.783Z</time>
      </trkpt>
      <trkpt lat="40.12182" lon="44.54368">
        <ele>1041.411119</ele>
        <time>2021-08-14T05:42:07.925Z</time>
      </trkpt>
      <trkpt lat="40.1222" lon="44.54354">
        <ele>1040.011674</ele>
        <time>2021-08-14T05:42:16.908Z</time>
      </trkpt>
      <trkpt lat="40.12632" lon="44.54233">
        <ele>1025.462188</ele>
        <time>2021-08-14T05:43:50.430Z</time>
      </trkpt>
      <trkpt lat="40.12911" lon="44.54146">
        <ele>1018.585253</ele>
        <time>2021-08-14T05:44:59.845Z</time>
      </trkpt>
      <trkpt lat="40.12928" lon="44.54139">
        <ele>1018.188068</ele>
        <time>2021-08-14T05:45:04.283Z</time>
      </trkpt>
      <trkpt lat="40.12977" lon="44.54119">
        <ele>1017.050399</ele>
        <time>2021-08-14T05:45:16.911Z</time>
      </trkpt>
      <trkpt lat="40.13005" lon="44.54088">
        <ele>1016.23326</ele>
        <time>2021-08-14T05:45:25.827Z</time>
      </trkpt>
      <trkpt lat="40.1305" lon="44.54003">
        <ele>1014.37137</ele>
        <time>2021-08-14T05:45:44.442Z</time>
      </trkpt>
      <trkpt lat="40.13061" lon="44.53982">
        <ele>1013.910729</ele>
        <time>2021-08-14T05:45:49.015Z</time>
      </trkpt>
      <trkpt lat="40.13076" lon="44.53951">
        <ele>1013.245265</ele>
        <time>2021-08-14T05:45:55.685Z</time>
      </trkpt>
      <trkpt lat="40.13102" lon="44.53899">
        <ele>1012.130119</ele>
        <time>2021-08-14T05:46:06.720Z</time>
      </trkpt>
      <trkpt lat="40.13184" lon="44.53737">
        <ele>1011.981362</ele>
        <time>2021-08-14T05:46:47.427Z</time>
      </trkpt>
      <trkpt lat="40.13269" lon="44.53567">
        <ele>1016.7761</ele>
        <time>2021-08-14T05:48:04.938Z</time>
      </trkpt>
      <trkpt lat="40.13276" lon="44.53555">
        <ele>1017.303928</ele>
        <time>2021-08-14T05:48:12.918Z</time>
      </trkpt>
      <trkpt lat="40.13291" lon="44.53532">
        <ele>1018.278779</ele>
        <time>2021-08-14T05:48:27.223Z</time>
      </trkpt>
      <trkpt lat="40.13446" lon="44.53688">
        <ele>1029.317626</ele>
        <time>2021-08-14T05:50:37.600Z</time>
      </trkpt>
      <trkpt lat="40.13518" lon="44.53764">
        <ele>1031.985823</ele>
        <time>2021-08-14T05:51:28.868Z</time>
      </trkpt>
      <trkpt lat="40.13532" lon="44.53779">
        <ele>1032.372207</ele>
        <time>2021-08-14T05:51:37.428Z</time>
      </trkpt>
      <trkpt lat="40.13539" lon="44.53785">
        <ele>1032.540809</ele>
        <time>2021-08-14T05:51:41.150Z</time>
      </trkpt>
      <trkpt lat="40.13553" lon="44.53796">
        <ele>1032.900659</ele>
        <time>2021-08-14T05:51:47.445Z</time>
      </trkpt>
      <trkpt lat="40.13596" lon="44.53815">
        <ele>1033.881872</ele>
        <time>2021-08-14T05:52:02.160Z</time>
      </trkpt>
      <trkpt lat="40.1362" lon="44.53819">
        <ele>1034.079808</ele>
        <time>2021-08-14T05:52:08.559Z</time>
      </trkpt>
      <trkpt lat="40.1364" lon="44.53819">
        <ele>1033.472407</ele>
        <time>2021-08-14T05:52:13.536Z</time>
      </trkpt>
      <trkpt lat="40.13682" lon="44.53799">
        <ele>1032.144484</ele>
        <time>2021-08-14T05:52:23.868Z</time>
      </trkpt>
      <trkpt lat="40.13696" lon="44.53789">
        <ele>1031.646808</ele>
        <time>2021-08-14T05:52:27.464Z</time>
      </trkpt>
      <trkpt lat="40.13714" lon="44.53777">
        <ele>1031.038307</ele>
        <time>2021-08-14T05:52:32.043Z</time>
      </trkpt>
      <trkpt lat="40.13778" lon="44.53737">
        <ele>1028.922395</ele>
        <time>2021-08-14T05:52:47.520Z</time>
      </trkpt>
      <trkpt lat="40.13918" lon="44.53639">
        <ele>1022.854517</ele>
        <time>2021-08-14T05:53:22.807Z</time>
      </trkpt>
      <trkpt lat="40.13966" lon="44.53606">
        <ele>1020.755932</ele>
        <time>2021-08-14T05:53:34.832Z</time>
      </trkpt>
      <trkpt lat="40.13999" lon="44.53582">
        <ele>1019.285976</ele>
        <time>2021-08-14T05:53:42.919Z</time>
      </trkpt>
      <trkpt lat="40.14022" lon="44.53558">
        <ele>1018.131261</ele>
        <time>2021-08-14T05:53:49.212Z</time>
      </trkpt>
      <trkpt lat="40.14047" lon="44.53524">
        <ele>1016.72391</ele>
        <time>2021-08-14T05:53:57.063Z</time>
      </trkpt>
      <trkpt lat="40.14095" lon="44.53432">
        <ele>1013.910586</ele>
        <time>2021-08-14T05:54:16.525Z</time>
      </trkpt>
      <trkpt lat="40.14097" lon="44.53427">
        <ele>1013.787111</ele>
        <time>2021-08-14T05:54:17.604Z</time>
      </trkpt>
      <trkpt lat="40.14115" lon="44.53413">
        <ele>1013.267071</ele>
        <time>2021-08-14T05:54:22.157Z</time>
      </trkpt>
      <trkpt lat="40.14119" lon="44.53411">
        <ele>1013.156881</ele>
        <time>2021-08-14T05:54:23.171Z</time>
      </trkpt>
      <trkpt lat="40.14133" lon="44.53406">
        <ele>1012.766109</ele>
        <time>2021-08-14T05:54:26.751Z</time>
      </trkpt>
      <trkpt lat="40.14138" lon="44.53406">
        <ele>1012.650416</ele>
        <time>2021-08-14T05:54:27.851Z</time>
      </trkpt>
      <trkpt lat="40.14145" lon="44.53406">
        <ele>1012.460275</ele>
        <time>2021-08-14T05:54:29.569Z</time>
      </trkpt>
      <trkpt lat="40.14208" lon="44.53431">
        <ele>1010.775464</ele>
        <time>2021-08-14T05:54:45.392Z</time>
      </trkpt>
      <trkpt lat="40.14212" lon="44.53431">
        <ele>1010.667385</ele>
        <time>2021-08-14T05:54:46.425Z</time>
      </trkpt>
      <trkpt lat="40.14215" lon="44.53429">
        <ele>1010.596543</ele>
        <time>2021-08-14T05:54:47.071Z</time>
      </trkpt>
      <trkpt lat="40.1422" lon="44.53424">
        <ele>1010.430643</ele>
        <time>2021-08-14T05:54:48.734Z</time>
      </trkpt>
      <trkpt lat="40.14221" lon="44.53422">
        <ele>1010.362777</ele>
        <time>2021-08-14T05:54:49.379Z</time>
      </trkpt>
      <trkpt lat="40.14225" lon="44.53417">
        <ele>1010.261453</ele>
        <time>2021-08-14T05:54:50.621Z</time>
      </trkpt>
      <trkpt lat="40.14245" lon="44.53328">
        <ele>1009.147416</ele>
        <time>2021-08-14T05:55:09.725Z</time>
      </trkpt>
      <trkpt lat="40.14261" lon="44.53315">
        <ele>1008.83759</ele>
        <time>2021-08-14T05:55:15.022Z</time>
      </trkpt>
      <trkpt lat="40.14269" lon="44.53317">
        <ele>1008.712995</ele>
        <time>2021-08-14T05:55:16.973Z</time>
      </trkpt>
      <trkpt lat="40.14328" lon="44.53336">
        <ele>1007.758962</ele>
        <time>2021-08-14T05:55:31.818Z</time>
      </trkpt>
      <trkpt lat="40.14413" lon="44.53366">
        <ele>1006.413964</ele>
        <time>2021-08-14T05:55:54.085Z</time>
      </trkpt>
      <trkpt lat="40.14433" lon="44.53374">
        <ele>1006.091078</ele>
        <time>2021-08-14T05:55:59.712Z</time>
      </trkpt>
      <trkpt lat="40.14501" lon="44.534">
        <ele>1005.004863</ele>
        <time>2021-08-14T05:56:18.218Z</time>
      </trkpt>
      <trkpt lat="40.14594" lon="44.53433">
        <ele>1003.09812</ele>
        <time>2021-08-14T05:56:42.440Z</time>
      </trkpt>
      <trkpt lat="40.1475" lon="44.53264">
        <ele>998.908843</ele>
        <time>2021-08-14T05:57:33.339Z</time>
      </trkpt>
      <trkpt lat="40.14917" lon="44.53089">
        <ele>995.256115</ele>
        <time>2021-08-14T05:58:30.020Z</time>
      </trkpt>
      <trkpt lat="40.14941" lon="44.53126">
        <ele>994.697632</ele>
        <time>2021-08-14T05:58:39.991Z</time>
      </trkpt>
      <trkpt lat="40.14949" lon="44.53139">
        <ele>994.559904</ele>
        <time>2021-08-14T05:58:43.379Z</time>
      </trkpt>
      <trkpt lat="40.14954" lon="44.53145">
        <ele>994.52351</ele>
        <time>2021-08-14T05:58:45.270Z</time>
      </trkpt>
      <trkpt lat="40.14968" lon="44.53149">
        <ele>994.451863</ele>
        <time>2021-08-14T05:58:49.111Z</time>
      </trkpt>
      <trkpt lat="40.14972" lon="44.53131">
        <ele>994.378494</ele>
        <time>2021-08-14T05:58:52.878Z</time>
      </trkpt>
      <trkpt lat="40.14992" lon="44.53051">
        <ele>994.038123</ele>
        <time>2021-08-14T05:59:11.738Z</time>
      </trkpt>
      <trkpt lat="40.14999" lon="44.53035">
        <ele>993.963548</ele>
        <time>2021-08-14T05:59:15.898Z</time>
      </trkpt>
      <trkpt lat="40.15008" lon="44.53027">
        <ele>993.905126</ele>
        <time>2021-08-14T05:59:19.368Z</time>
      </trkpt>
      <trkpt lat="40.15053" lon="44.52988">
        <ele>993.630209</ele>
        <time>2021-08-14T05:59:35.372Z</time>
      </trkpt>
      <trkpt lat="40.15064" lon="44.52979">
        <ele>993.585454</ele>
        <time>2021-08-14T05:59:39.186Z</time>
      </trkpt>
      <trkpt lat="40.15077" lon="44.52969">
        <ele>993.53269</ele>
        <time>2021-08-14T05:59:43.900Z</time>
      </trkpt>
      <trkpt lat="40.15088" lon="44.52959">
        <ele>993.485712</ele>
        <time>2021-08-14T05:59:47.881Z</time>
      </trkpt>
      <trkpt lat="40.1516" lon="44.52897">
        <ele>993.180579</ele>
        <time>2021-08-14T06:00:12.538Z</time>
      </trkpt>
      <trkpt lat="40.15171" lon="44.52884">
        <ele>993.126927</ele>
        <time>2021-08-14T06:00:17.532Z</time>
      </trkpt>
      <trkpt lat="40.15213" lon="44.52877">
        <ele>993.006209</ele>
        <time>2021-08-14T06:00:30.860Z</time>
      </trkpt>
      <trkpt lat="40.15227" lon="44.52876">
        <ele>993.003047</ele>
        <time>2021-08-14T06:00:34.750Z</time>
      </trkpt>
      <trkpt lat="40.15341" lon="44.52876">
        <ele>992.977121</ele>
        <time>2021-08-14T06:01:10.635Z</time>
      </trkpt>
      <trkpt lat="40.15401" lon="44.52893">
        <ele>993.001861</ele>
        <time>2021-08-14T06:01:32.087Z</time>
      </trkpt>
      <trkpt lat="40.15477" lon="44.52935">
        <ele>993.159986</ele>
        <time>2021-08-14T06:02:01.675Z</time>
      </trkpt>
      <trkpt lat="40.15489" lon="44.52938">
        <ele>993.183235</ele>
        <time>2021-08-14T06:02:05.127Z</time>
      </trkpt>
      <trkpt lat="40.15522" lon="44.5293">
        <ele>993.247003</ele>
        <time>2021-08-14T06:02:16.181Z</time>
      </trkpt>
      <trkpt lat="40.15547" lon="44.52935">
        <ele>993.293944</ele>
        <time>2021-08-14T06:02:24.803Z</time>
      </trkpt>
      <trkpt lat="40.15557" lon="44.52923">
        <ele>993.30729</ele>
        <time>2021-08-14T06:02:28.555Z</time>
      </trkpt>
      <trkpt lat="40.15587" lon="44.52893">
        <ele>993.294092</ele>
        <time>2021-08-14T06:02:40.235Z</time>
      </trkpt>
      <trkpt lat="40.15603" lon="44.52864">
        <ele>993.284369</ele>
        <time>2021-08-14T06:02:48.962Z</time>
      </trkpt>
      <trkpt lat="40.15614" lon="44.52837">
        <ele>993.276138</ele>
        <time>2021-08-14T06:02:55.785Z</time>
      </trkpt>
      <trkpt lat="40.15618" lon="44.52822">
        <ele>993.271817</ele>
        <time>2021-08-14T06:02:59.429Z</time>
      </trkpt>
      <trkpt lat="40.1562" lon="44.52775">
        <ele>993.259122</ele>
        <time>2021-08-14T06:03:11.121Z</time>
      </trkpt>
      <trkpt lat="40.15614" lon="44.52751">
        <ele>993.252474</ele>
        <time>2021-08-14T06:03:17.285Z</time>
      </trkpt>
      <trkpt lat="40.15629" lon="44.52734">
        <ele>993.252004</ele>
        <time>2021-08-14T06:03:23.406Z</time>
      </trkpt>
      <trkpt lat="40.15617" lon="44.52681">
        <ele>993.749222</ele>
        <time>2021-08-14T06:03:41.282Z</time>
      </trkpt>
      <trkpt lat="40.15617" lon="44.52654">
        <ele>993.985579</ele>
        <time>2021-08-14T06:03:48.660Z</time>
      </trkpt>
      <trkpt lat="40.1561" lon="44.52634">
        <ele>994.187161</ele>
        <time>2021-08-14T06:03:56.155Z</time>
      </trkpt>
      <trkpt lat="40.15618" lon="44.52631">
        <ele>994.287303</ele>
        <time>2021-08-14T06:04:00.241Z</time>
      </trkpt>
      <trkpt lat="40.15629" lon="44.52605">
        <ele>994.552012</ele>
        <time>2021-08-14T06:04:08.273Z</time>
      </trkpt>
      <trkpt lat="40.15661" lon="44.52589">
        <ele>994.949607</ele>
        <time>2021-08-14T06:04:21.361Z</time>
      </trkpt>
      <trkpt lat="40.15664" lon="44.52585">
        <ele>995.001482</ele>
        <time>2021-08-14T06:04:24.556Z</time>
      </trkpt>
      <trkpt lat="40.15663" lon="44.52578">
        <ele>995.060682</ele>
        <time>2021-08-14T06:04:26.539Z</time>
      </trkpt>
      <trkpt lat="40.15646" lon="44.52533">
        <ele>995.335152</ele>
        <time>2021-08-14T06:04:42.089Z</time>
      </trkpt>
      <trkpt lat="40.15637" lon="44.52462">
        <ele>995.329074</ele>
        <time>2021-08-14T06:05:02.184Z</time>
      </trkpt>
      <trkpt lat="40.15624" lon="44.52424">
        <ele>995.325578</ele>
        <time>2021-08-14T06:05:12.253Z</time>
      </trkpt>
      <trkpt lat="40.15613" lon="44.52368">
        <ele>995.320755</ele>
        <time>2021-08-14T06:05:25.400Z</time>
      </trkpt>
      <trkpt lat="40.15612" lon="44.52323">
        <ele>995.311346</ele>
        <time>2021-08-14T06:05:34.930Z</time>
      </trkpt>
      <trkpt lat="40.15614" lon="44.52311">
        <ele>995.233672</ele>
        <time>2021-08-14T06:05:37.349Z</time>
      </trkpt>
      <trkpt lat="40.15619" lon="44.52283">
        <ele>995.052937</ele>
        <time>2021-08-14T06:05:43.392Z</time>
      </trkpt>
      <trkpt lat="40.15622" lon="44.52261">
        <ele>994.903451</ele>
        <time>2021-08-14T06:05:48.298Z</time>
      </trkpt>
      <trkpt lat="40.15615" lon="44.52247">
        <ele>994.79737</ele>
        <time>2021-08-14T06:05:51.794Z</time>
      </trkpt>
      <trkpt lat="40.15613" lon="44.52203">
        <ele>994.51571</ele>
        <time>2021-08-14T06:06:01.263Z</time>
      </trkpt>
      <trkpt lat="40.15634" lon="44.52134">
        <ele>994.034386</ele>
        <time>2021-08-14T06:06:17.879Z</time>
      </trkpt>
      <trkpt lat="40.15642" lon="44.52115">
        <ele>993.896345</ele>
        <time>2021-08-14T06:06:22.676Z</time>
      </trkpt>
      <trkpt lat="40.15674" lon="44.52072">
        <ele>993.829022</ele>
        <time>2021-08-14T06:06:37.089Z</time>
      </trkpt>
      <trkpt lat="40.1568" lon="44.52036">
        <ele>993.854233</ele>
        <time>2021-08-14T06:06:46.194Z</time>
      </trkpt>
      <trkpt lat="40.15694" lon="44.52012">
        <ele>993.874941</ele>
        <time>2021-08-14T06:06:53.704Z</time>
      </trkpt>
      <trkpt lat="40.1571" lon="44.5199">
        <ele>993.895984</ele>
        <time>2021-08-14T06:07:01.431Z</time>
      </trkpt>
      <trkpt lat="40.1578" lon="44.5192">
        <ele>994.34803</ele>
        <time>2021-08-14T06:07:31.351Z</time>
      </trkpt>
      <trkpt lat="40.15829" lon="44.51908">
        <ele>995.485813</ele>
        <time>2021-08-14T06:07:49.733Z</time>
      </trkpt>
      <trkpt lat="40.15859" lon="44.51892">
        <ele>996.222937</ele>
        <time>2021-08-14T06:08:02.902Z</time>
      </trkpt>
      <trkpt lat="40.15883" lon="44.51875">
        <ele>996.84384</ele>
        <time>2021-08-14T06:08:14.792Z</time>
      </trkpt>
      <trkpt lat="40.15889" lon="44.51857">
        <ele>997.183832</ele>
        <time>2021-08-14T06:08:22.509Z</time>
      </trkpt>
      <trkpt lat="40.1589" lon="44.51855">
        <ele>997.22591</ele>
        <time>2021-08-14T06:08:23.006Z</time>
      </trkpt>
      <trkpt lat="40.15899" lon="44.5186">
        <ele>997.444609</ele>
        <time>2021-08-14T06:08:31.183Z</time>
      </trkpt>
      <trkpt lat="40.15932" lon="44.51839">
        <ele>998.510047</ele>
        <time>2021-08-14T06:08:52.538Z</time>
      </trkpt>
      <trkpt lat="40.15962" lon="44.51838">
        <ele>999.954943</ele>
        <time>2021-08-14T06:09:08.190Z</time>
      </trkpt>
      <trkpt lat="40.15979" lon="44.5185">
        <ele>1000.904537</ele>
        <time>2021-08-14T06:09:20.886Z</time>
      </trkpt>
      <trkpt lat="40.15985" lon="44.5186">
        <ele>1001.374032</ele>
        <time>2021-08-14T06:09:27.979Z</time>
      </trkpt>
      <trkpt lat="40.15988" lon="44.51888">
        <ele>1002.437352</ele>
        <time>2021-08-14T06:09:40.842Z</time>
      </trkpt>
      <trkpt lat="40.15992" lon="44.51908">
        <ele>1003.194099</ele>
        <time>2021-08-14T06:09:51.198Z</time>
      </trkpt>
      <trkpt lat="40.15997" lon="44.51918">
        <ele>1003.637229</ele>
        <time>2021-08-14T06:09:56.434Z</time>
      </trkpt>
      <trkpt lat="40.15998" lon="44.5192">
        <ele>1003.722878</ele>
        <time>2021-08-14T06:09:59.276Z</time>
      </trkpt>
      <trkpt lat="40.16022" lon="44.51962">
        <ele>1005.689571</ele>
        <time>2021-08-14T06:10:21.652Z</time>
      </trkpt>
      <trkpt lat="40.16038" lon="44.51982">
        <ele>1006.774648</ele>
        <time>2021-08-14T06:10:34.621Z</time>
      </trkpt>
      <trkpt lat="40.16062" lon="44.51999">
        <ele>1007.650687</ele>
        <time>2021-08-14T06:10:48.305Z</time>
      </trkpt>
      <trkpt lat="40.16066" lon="44.52001">
        <ele>1007.786168</ele>
        <time>2021-08-14T06:10:52.535Z</time>
      </trkpt>
      <trkpt lat="40.16087" lon="44.52014">
        <ele>1008.559328</ele>
        <time>2021-08-14T06:11:03.997Z</time>
      </trkpt>
      <trkpt lat="40.16109" lon="44.52026">
        <ele>1009.310424</ele>
        <time>2021-08-14T06:11:18.495Z</time>
      </trkpt>
      <trkpt lat="40.16114" lon="44.52021">
        <ele>1009.528312</ele>
        <time>2021-08-14T06:11:23.250Z</time>
      </trkpt>
      <trkpt lat="40.16117" lon="44.52014">
        <ele>1009.717686</ele>
        <time>2021-08-14T06:11:24.753Z</time>
      </trkpt>
      <trkpt lat="40.16144" lon="44.5203">
        <ele>1010.687368</ele>
        <time>2021-08-14T06:11:38.854Z</time>
      </trkpt>
      <trkpt lat="40.16237" lon="44.52076">
        <ele>1013.475497</ele>
        <time>2021-08-14T06:12:21.249Z</time>
      </trkpt>
      <trkpt lat="40.16279" lon="44.52108">
        <ele>1014.519443</ele>
        <time>2021-08-14T06:12:43.512Z</time>
      </trkpt>
      <trkpt lat="40.16373" lon="44.52208">
        <ele>1015.917087</ele>
        <time>2021-08-14T06:13:37.636Z</time>
      </trkpt>
      <trkpt lat="40.16473" lon="44.52265">
        <ele>1013.717114</ele>
        <time>2021-08-14T06:14:05.552Z</time>
      </trkpt>
      <trkpt lat="40.16512" lon="44.52287">
        <ele>1012.852211</ele>
        <time>2021-08-14T06:14:14.210Z</time>
      </trkpt>
      <trkpt lat="40.16516" lon="44.52286">
        <ele>1012.472562</ele>
        <time>2021-08-14T06:14:15.163Z</time>
      </trkpt>
      <trkpt lat="40.16541" lon="44.52292">
        <ele>1010.575114</ele>
        <time>2021-08-14T06:14:20.257Z</time>
      </trkpt>
      <trkpt lat="40.16548" lon="44.5229">
        <ele>1010.050297</ele>
        <time>2021-08-14T06:14:21.593Z</time>
      </trkpt>
      <trkpt lat="40.16543" lon="44.52272">
        <ele>1008.923427</ele>
        <time>2021-08-14T06:14:24.453Z</time>
      </trkpt>
      <trkpt lat="40.16526" lon="44.52247">
        <ele>1006.981432</ele>
        <time>2021-08-14T06:14:29.434Z</time>
      </trkpt>
      <trkpt lat="40.16518" lon="44.52224">
        <ele>1005.459456</ele>
        <time>2021-08-14T06:14:33.320Z</time>
      </trkpt>
      <trkpt lat="40.16508" lon="44.52188">
        <ele>1003.259391</ele>
        <time>2021-08-14T06:14:38.817Z</time>
      </trkpt>
      <trkpt lat="40.16693" lon="44.52104">
        <ele>990.114164</ele>
        <time>2021-08-14T06:15:17.380Z</time>
      </trkpt>
      <trkpt lat="40.16698" lon="44.52102">
        <ele>989.756678</ele>
        <time>2021-08-14T06:15:18.626Z</time>
      </trkpt>
      <trkpt lat="40.16724" lon="44.5209">
        <ele>988.002071</ele>
        <time>2021-08-14T06:15:24.833Z</time>
      </trkpt>
      <trkpt lat="40.16732" lon="44.52086">
        <ele>987.655685</ele>
        <time>2021-08-14T06:15:26.812Z</time>
      </trkpt>
      <trkpt lat="40.16746" lon="44.5208">
        <ele>987.677271</ele>
        <time>2021-08-14T06:15:30.288Z</time>
      </trkpt>
      <trkpt lat="40.1676" lon="44.52074">
        <ele>987.700317</ele>
        <time>2021-08-14T06:15:33.996Z</time>
      </trkpt>
      <trkpt lat="40.16776" lon="44.52067">
        <ele>987.725393</ele>
        <time>2021-08-14T06:15:38.513Z</time>
      </trkpt>
      <trkpt lat="40.16826" lon="44.52046">
        <ele>987.803935</ele>
        <time>2021-08-14T06:15:55.855Z</time>
      </trkpt>
      <trkpt lat="40.1691" lon="44.52007">
        <ele>988.177328</ele>
        <time>2021-08-14T06:16:34.239Z</time>
      </trkpt>
      <trkpt lat="40.16938" lon="44.51993">
        <ele>988.895799</ele>
        <time>2021-08-14T06:16:47.583Z</time>
      </trkpt>
      <trkpt lat="40.16957" lon="44.51984">
        <ele>989.386065</ele>
        <time>2021-08-14T06:16:56.858Z</time>
      </trkpt>
      <trkpt lat="40.16989" lon="44.5197">
        <ele>990.187741</ele>
        <time>2021-08-14T06:17:11.861Z</time>
      </trkpt>
      <trkpt lat="40.16992" lon="44.51968">
        <ele>990.266465</ele>
        <time>2021-08-14T06:17:13.451Z</time>
      </trkpt>
      <trkpt lat="40.17011" lon="44.51959">
        <ele>990.746535</ele>
        <time>2021-08-14T06:17:22.498Z</time>
      </trkpt>
      <trkpt lat="40.17021" lon="44.51955">
        <ele>990.984325</ele>
        <time>2021-08-14T06:17:27.379Z</time>
      </trkpt>
      <trkpt lat="40.17063" lon="44.51935">
        <ele>992.062336</ele>
        <time>2021-08-14T06:17:48.447Z</time>
      </trkpt>
      <trkpt lat="40.1709" lon="44.52005">
        <ele>992.687798</ele>
        <time>2021-08-14T06:18:13.228Z</time>
      </trkpt>
      <trkpt lat="40.17099" lon="44.5203">
        <ele>992.876048</ele>
        <time>2021-08-14T06:18:21.059Z</time>
      </trkpt>
      <trkpt lat="40.17111" lon="44.52061">
        <ele>993.115272</ele>
        <time>2021-08-14T06:18:30.508Z</time>
      </trkpt>
      <trkpt lat="40.17129" lon="44.52107">
        <ele>993.463715</ele>
        <time>2021-08-14T06:18:43.272Z</time>
      </trkpt>
      <trkpt lat="40.17151" lon="44.52165">
        <ele>993.743851</ele>
        <time>2021-08-14T06:18:58.269Z</time>
      </trkpt>
      <trkpt lat="40.17155" lon="44.52176">
        <ele>993.679411</ele>
        <time>2021-08-14T06:19:01.270Z</time>
      </trkpt>
      <trkpt lat="40.17168" lon="44.52175">
        <ele>993.589901</ele>
        <time>2021-08-14T06:19:05.424Z</time>
      </trkpt>
      <trkpt lat="40.17188" lon="44.52172">
        <ele>993.454908</ele>
        <time>2021-08-14T06:19:11.349Z</time>
      </trkpt>
      <trkpt lat="40.17256" lon="44.52163">
        <ele>992.992163</ele>
        <time>2021-08-14T06:19:30.445Z</time>
      </trkpt>
      <trkpt lat="40.17291" lon="44.52157">
        <ele>992.750266</ele>
        <time>2021-08-14T06:19:39.655Z</time>
      </trkpt>
      <trkpt lat="40.17318" lon="44.52153">
        <ele>992.572271</ele>
        <time>2021-08-14T06:19:46.679Z</time>
      </trkpt>
      <trkpt lat="40.17366" lon="44.52145">
        <ele>992.339318</ele>
        <time>2021-08-14T06:19:59.441Z</time>
      </trkpt>
      <trkpt lat="40.17384" lon="44.52141">
        <ele>992.250987</ele>
        <time>2021-08-14T06:20:04.548Z</time>
      </trkpt>
      <trkpt lat="40.17397" lon="44.52134">
        <ele>992.185659</ele>
        <time>2021-08-14T06:20:08.226Z</time>
      </trkpt>
      <trkpt lat="40.17429" lon="44.52114">
        <ele>992.014474</ele>
        <time>2021-08-14T06:20:18.711Z</time>
      </trkpt>
      <trkpt lat="40.17503" lon="44.52058">
        <ele>992.024907</ele>
        <time>2021-08-14T06:20:46.594Z</time>
      </trkpt>
      <trkpt lat="40.17529" lon="44.52036">
        <ele>992.396724</ele>
        <time>2021-08-14T06:20:57.245Z</time>
      </trkpt>
      <trkpt lat="40.17606" lon="44.51978">
        <ele>993.44307</ele>
        <time>2021-08-14T06:21:31.764Z</time>
      </trkpt>
      <trkpt lat="40.1763" lon="44.51959">
        <ele>993.782182</ele>
        <time>2021-08-14T06:21:43.565Z</time>
      </trkpt>
      <trkpt lat="40.17644" lon="44.51949">
        <ele>994.009538</ele>
        <time>2021-08-14T06:21:49.931Z</time>
      </trkpt>
      <trkpt lat="40.17686" lon="44.51916">
        <ele>994.84086</ele>
        <time>2021-08-14T06:22:10.543Z</time>
      </trkpt>
      <trkpt lat="40.17719" lon="44.51892">
        <ele>995.473699</ele>
        <time>2021-08-14T06:22:25.826Z</time>
      </trkpt>
      <trkpt lat="40.17764" lon="44.51858">
        <ele>996.34954</ele>
        <time>2021-08-14T06:22:46.458Z</time>
      </trkpt>
      <trkpt lat="40.17773" lon="44.51851">
        <ele>996.524708</ele>
        <time>2021-08-14T06:22:50.508Z</time>
      </trkpt>
      <trkpt lat="40.17779" lon="44.51846">
        <ele>996.648142</ele>
        <time>2021-08-14T06:22:53.430Z</time>
      </trkpt>
      <trkpt lat="40.17856" lon="44.51788">
        <ele>998.346616</ele>
        <time>2021-08-14T06:23:30.130Z</time>
      </trkpt>
      <trkpt lat="40.17867" lon="44.5178">
        <ele>998.601874</ele>
        <time>2021-08-14T06:23:35.308Z</time>
      </trkpt>
      <trkpt lat="40.17934" lon="44.51729">
        <ele>1000.101238</ele>
        <time>2021-08-14T06:24:07.860Z</time>
      </trkpt>
      <trkpt lat="40.17939" lon="44.51725">
        <ele>1000.219367</ele>
        <time>2021-08-14T06:24:11.039Z</time>
      </trkpt>
      <trkpt lat="40.17946" lon="44.51725">
        <ele>1000.35871</ele>
        <time>2021-08-14T06:24:14.169Z</time>
      </trkpt>
      <trkpt lat="40.17959" lon="44.51724">
        <ele>1000.64289</ele>
        <time>2021-08-14T06:24:19.396Z</time>
      </trkpt>
      <trkpt lat="40.17965" lon="44.51724">
        <ele>1000.788578</ele>
        <time>2021-08-14T06:24:22.171Z</time>
      </trkpt>
      <trkpt lat="40.17967" lon="44.51726">
        <ele>1000.855013</ele>
        <time>2021-08-14T06:24:23.300Z</time>
      </trkpt>
      <trkpt lat="40.17971" lon="44.51727">
        <ele>1000.947653</ele>
        <time>2021-08-14T06:24:25.240Z</time>
      </trkpt>
      <trkpt lat="40.17974" lon="44.51727">
        <ele>1001.01031</ele>
        <time>2021-08-14T06:24:26.710Z</time>
      </trkpt>
      <trkpt lat="40.17975" lon="44.51727">
        <ele>1001.040578</ele>
        <time>2021-08-14T06:24:27.403Z</time>
      </trkpt>
      <trkpt lat="40.17982" lon="44.51721">
        <ele>1001.223486</ele>
        <time>2021-08-14T06:24:30.697Z</time>
      </trkpt>
      <trkpt lat="40.17984" lon="44.51717">
        <ele>1001.302476</ele>
        <time>2021-08-14T06:24:32.085Z</time>
      </trkpt>
      <trkpt lat="40.17984" lon="44.51716">
        <ele>1001.320143</ele>
        <time>2021-08-14T06:24:32.411Z</time>
      </trkpt>
      <trkpt lat="40.17984" lon="44.51711">
        <ele>1001.412474</ele>
        <time>2021-08-14T06:24:34.107Z</time>
      </trkpt>
      <trkpt lat="40.17984" lon="44.51709">
        <ele>1001.440836</ele>
        <time>2021-08-14T06:24:34.625Z</time>
      </trkpt>
      <trkpt lat="40.18012" lon="44.51724">
        <ele>1002.129194</ele>
        <time>2021-08-14T06:24:47.669Z</time>
      </trkpt>
      <trkpt lat="40.18013" lon="44.51725">
        <ele>1002.171598</ele>
        <time>2021-08-14T06:24:48.447Z</time>
      </trkpt>
      <trkpt lat="40.18015" lon="44.51725">
        <ele>1002.210607</ele>
        <time>2021-08-14T06:24:49.175Z</time>
      </trkpt>
      <trkpt lat="40.18018" lon="44.51727">
        <ele>1002.278206</ele>
        <time>2021-08-14T06:24:50.393Z</time>
      </trkpt>
      <trkpt lat="40.1803" lon="44.51732">
        <ele>1002.585907</ele>
        <time>2021-08-14T06:24:56.431Z</time>
      </trkpt>
      <trkpt lat="40.18035" lon="44.51734">
        <ele>1002.695243</ele>
        <time>2021-08-14T06:24:59.232Z</time>
      </trkpt>
      <trkpt lat="40.18047" lon="44.51737">
        <ele>1002.977414</ele>
        <time>2021-08-14T06:25:04.218Z</time>
      </trkpt>
      <trkpt lat="40.18052" lon="44.51737">
        <ele>1003.09998</ele>
        <time>2021-08-14T06:25:06.413Z</time>
      </trkpt>
      <trkpt lat="40.18055" lon="44.51782">
        <ele>1003.903482</ele>
        <time>2021-08-14T06:25:22.439Z</time>
      </trkpt>
      <trkpt lat="40.181" lon="44.51852">
        <ele>1005.147446</ele>
        <time>2021-08-14T06:25:52.757Z</time>
      </trkpt>
      <trkpt lat="40.18111" lon="44.51857">
        <ele>1005.312505</ele>
        <time>2021-08-14T06:25:57.404Z</time>
      </trkpt>
      <trkpt lat="40.1812" lon="44.51858">
        <ele>1005.43244</ele>
        <time>2021-08-14T06:26:01.423Z</time>
      </trkpt>
      <trkpt lat="40.18126" lon="44.51863">
        <ele>1005.525321</ele>
        <time>2021-08-14T06:26:04.052Z</time>
      </trkpt>
      <trkpt lat="40.18134" lon="44.51874">
        <ele>1005.70108</ele>
        <time>2021-08-14T06:26:08.784Z</time>
      </trkpt>
      <trkpt lat="40.18137" lon="44.51879">
        <ele>1005.760113</ele>
        <time>2021-08-14T06:26:10.382Z</time>
      </trkpt>
      <trkpt lat="40.18143" lon="44.51888">
        <ele>1005.890437</ele>
        <time>2021-08-14T06:26:14.126Z</time>
      </trkpt>
      <trkpt lat="40.18161" lon="44.51862">
        <ele>1006.267244</ele>
        <time>2021-08-14T06:26:23.992Z</time>
      </trkpt>
      <trkpt lat="40.18183" lon="44.51831">
        <ele>1006.716212</ele>
        <time>2021-08-14T06:26:35.324Z</time>
      </trkpt>
      <trkpt lat="40.18206" lon="44.518">
        <ele>1007.079604</ele>
        <time>2021-08-14T06:26:47.233Z</time>
      </trkpt>
      <trkpt lat="40.18238" lon="44.51754">
        <ele>1006.864236</ele>
        <time>2021-08-14T06:27:03.793Z</time>
      </trkpt>
      <trkpt lat="40.18246" lon="44.51742">
        <ele>1006.808423</ele>
        <time>2021-08-14T06:27:07.667Z</time>
      </trkpt>
      <trkpt lat="40.18257" lon="44.51727">
        <ele>1006.739922</ele>
        <time>2021-08-14T06:27:12.390Z</time>
      </trkpt>
      <trkpt lat="40.1828" lon="44.51695">
        <ele>1006.585853</ele>
        <time>2021-08-14T06:27:21.960Z</time>
      </trkpt>
      <trkpt lat="40.18289" lon="44.51682">
        <ele>1006.522659</ele>
        <time>2021-08-14T06:27:25.604Z</time>
      </trkpt>
      <trkpt lat="40.18335" lon="44.51617">
        <ele>1006.114877</ele>
        <time>2021-08-14T06:27:42.654Z</time>
      </trkpt>
      <trkpt lat="40.18365" lon="44.51574">
        <ele>1005.637247</ele>
        <time>2021-08-14T06:27:54.160Z</time>
      </trkpt>
      <trkpt lat="40.18373" lon="44.51564">
        <ele>1005.522657</ele>
        <time>2021-08-14T06:27:57.035Z</time>
      </trkpt>
      <trkpt lat="40.18382" lon="44.5155">
        <ele>1005.365665</ele>
        <time>2021-08-14T06:28:00.902Z</time>
      </trkpt>
      <trkpt lat="40.18405" lon="44.51517">
        <ele>1004.998242</ele>
        <time>2021-08-14T06:28:10.218Z</time>
      </trkpt>
      <trkpt lat="40.18416" lon="44.51502">
        <ele>1004.824348</ele>
        <time>2021-08-14T06:28:14.726Z</time>
      </trkpt>
      <trkpt lat="40.18425" lon="44.5149">
        <ele>1004.688874</ele>
        <time>2021-08-14T06:28:18.075Z</time>
      </trkpt>
      <trkpt lat="40.18452" lon="44.51452">
        <ele>1004.4001</ele>
        <time>2021-08-14T06:28:28.622Z</time>
      </trkpt>
      <trkpt lat="40.18457" lon="44.51446">
        <ele>1004.443624</ele>
        <time>2021-08-14T06:28:30.539Z</time>
      </trkpt>
      <trkpt lat="40.18463" lon="44.51436">
        <ele>1004.503427</ele>
        <time>2021-08-14T06:28:33.309Z</time>
      </trkpt>
      <trkpt lat="40.18481" lon="44.51412">
        <ele>1004.665609</ele>
        <time>2021-08-14T06:28:40.823Z</time>
      </trkpt>
      <trkpt lat="40.18541" lon="44.51328">
        <ele>1005.208533</ele>
        <time>2021-08-14T06:29:13.204Z</time>
      </trkpt>
      <trkpt lat="40.18546" lon="44.51321">
        <ele>1005.254991</ele>
        <time>2021-08-14T06:29:16.412Z</time>
      </trkpt>
      <trkpt lat="40.18554" lon="44.51312">
        <ele>1005.318738</ele>
        <time>2021-08-14T06:29:20.699Z</time>
      </trkpt>
      <trkpt lat="40.1856" lon="44.51302">
        <ele>1005.378967</ele>
        <time>2021-08-14T06:29:24.236Z</time>
      </trkpt>
      <trkpt lat="40.1861" lon="44.51232">
        <ele>1006.480231</ele>
        <time>2021-08-14T06:29:53.115Z</time>
      </trkpt>
      <trkpt lat="40.18627" lon="44.51208">
        <ele>1006.907993</ele>
        <time>2021-08-14T06:30:03.590Z</time>
      </trkpt>
      <trkpt lat="40.18634" lon="44.51199">
        <ele>1007.073311</ele>
        <time>2021-08-14T06:30:07.046Z</time>
      </trkpt>
      <trkpt lat="40.18643" lon="44.5121">
        <ele>1007.287817</ele>
        <time>2021-08-14T06:30:12.467Z</time>
      </trkpt>
      <trkpt lat="40.18658" lon="44.51225">
        <ele>1007.60269</ele>
        <time>2021-08-14T06:30:19.908Z</time>
      </trkpt>
      <trkpt lat="40.18656" lon="44.51254">
        <ele>1007.977889</ele>
        <time>2021-08-14T06:30:29.474Z</time>
      </trkpt>
      <trkpt lat="40.18655" lon="44.51276">
        <ele>1008.265173</ele>
        <time>2021-08-14T06:30:36.273Z</time>
      </trkpt>
      <trkpt lat="40.18661" lon="44.51276">
        <ele>1008.356201</ele>
        <time>2021-08-14T06:30:38.566Z</time>
      </trkpt>
      <trkpt lat="40.18689" lon="44.51278">
        <ele>1008.859861</ele>
        <time>2021-08-14T06:30:50.510Z</time>
      </trkpt>
      <trkpt lat="40.18705" lon="44.5127">
        <ele>1009.170578</ele>
        <time>2021-08-14T06:30:57.681Z</time>
      </trkpt>
      <trkpt lat="40.1872" lon="44.51273">
        <ele>1009.456116</ele>
        <time>2021-08-14T06:31:03.882Z</time>
      </trkpt>
      <trkpt lat="40.18742" lon="44.51323">
        <ele>1010.267815</ele>
        <time>2021-08-14T06:31:21.050Z</time>
      </trkpt>
      <trkpt lat="40.18749" lon="44.51333">
        <ele>1010.462243</ele>
        <time>2021-08-14T06:31:25.309Z</time>
      </trkpt>
      <trkpt lat="40.18749" lon="44.51336">
        <ele>1010.501774</ele>
        <time>2021-08-14T06:31:26.115Z</time>
      </trkpt>
      <trkpt lat="40.18748" lon="44.51357">
        <ele>1010.805853</ele>
        <time>2021-08-14T06:31:32.695Z</time>
      </trkpt>
      <trkpt lat="40.18748" lon="44.5137">
        <ele>1010.986016</ele>
        <time>2021-08-14T06:31:36.746Z</time>
      </trkpt>
      <trkpt lat="40.18747" lon="44.51377">
        <ele>1011.084568</ele>
        <time>2021-08-14T06:31:39.207Z</time>
      </trkpt>
      <trkpt lat="40.18823" lon="44.51385">
        <ele>1012.663267</ele>
        <time>2021-08-14T06:32:12.193Z</time>
      </trkpt>
      <trkpt lat="40.18838" lon="44.51386">
        <ele>1013.020857</ele>
        <time>2021-08-14T06:32:18.700Z</time>
      </trkpt>
      <trkpt lat="40.1884" lon="44.5141">
        <ele>1013.446269</ele>
        <time>2021-08-14T06:32:26.840Z</time>
      </trkpt>
      <trkpt lat="40.18841" lon="44.51429">
        <ele>1013.800726</ele>
        <time>2021-08-14T06:32:33.490Z</time>
      </trkpt>
      <trkpt lat="40.18859" lon="44.51413">
        <ele>1014.306151</ele>
        <time>2021-08-14T06:32:43.163Z</time>
      </trkpt>
      <trkpt lat="40.18879" lon="44.51396">
        <ele>1014.876218</ele>
        <time>2021-08-14T06:32:54.369Z</time>
      </trkpt>
      <trkpt lat="40.18937" lon="44.51345">
        <ele>1016.560508</ele>
        <time>2021-08-14T06:33:25.535Z</time>
      </trkpt>
      <trkpt lat="40.1898" lon="44.51309">
        <ele>1017.822854</ele>
        <time>2021-08-14T06:33:47.771Z</time>
      </trkpt>
      <trkpt lat="40.19013" lon="44.51279">
        <ele>1018.832273</ele>
        <time>2021-08-14T06:34:06.052Z</time>
      </trkpt>
      <trkpt lat="40.19019" lon="44.51289">
        <ele>1019.071425</ele>
        <time>2021-08-14T06:34:10.336Z</time>
      </trkpt>
      <trkpt lat="40.19045" lon="44.51343">
        <ele>1020.285188</ele>
        <time>2021-08-14T06:34:32.122Z</time>
      </trkpt>
      <trkpt lat="40.19113" lon="44.51282">
        <ele>1022.457753</ele>
        <time>2021-08-14T06:35:10.953Z</time>
      </trkpt>
      <trkpt lat="40.19141" lon="44.51241">
        <ele>1023.579739</ele>
        <time>2021-08-14T06:35:29.295Z</time>
      </trkpt>
      <trkpt lat="40.19173" lon="44.51186">
        <ele>1025.004782</ele>
        <time>2021-08-14T06:35:53.812Z</time>
      </trkpt>
      <trkpt lat="40.19195" lon="44.51132">
        <ele>1026.652675</ele>
        <time>2021-08-14T06:36:14.997Z</time>
      </trkpt>
      <trkpt lat="40.19213" lon="44.51078">
        <ele>1028.445317</ele>
        <time>2021-08-14T06:36:38.776Z</time>
      </trkpt>
      <trkpt lat="40.19224" lon="44.50998">
        <ele>1030.936083</ele>
        <time>2021-08-14T06:37:14.865Z</time>
      </trkpt>
      <trkpt lat="40.19227" lon="44.5096">
        <ele>1032.114481</ele>
        <time>2021-08-14T06:37:31.982Z</time>
      </trkpt>
      <trkpt lat="40.1929" lon="44.50975">
        <ele>1034.910179</ele>
        <time>2021-08-14T06:38:06.613Z</time>
      </trkpt>
      <trkpt lat="40.19316" lon="44.5093">
        <ele>1036.814519</ele>
        <time>2021-08-14T06:38:29.398Z</time>
      </trkpt>
      <trkpt lat="40.19323" lon="44.50912">
        <ele>1037.516216</ele>
        <time>2021-08-14T06:38:37.321Z</time>
      </trkpt>
      <trkpt lat="40.19326" lon="44.50891">
        <ele>1038.242675</ele>
        <time>2021-08-14T06:38:48.748Z</time>
      </trkpt>
      <trkpt lat="40.19325" lon="44.50867">
        <ele>1039.047236</ele>
        <time>2021-08-14T06:38:57.766Z</time>
      </trkpt>
      <trkpt lat="40.19311" lon="44.50804">
        <ele>1041.364218</ele>
        <time>2021-08-14T06:39:29.179Z</time>
      </trkpt>
      <trkpt lat="40.19305" lon="44.50787">
        <ele>1042.098101</ele>
        <time>2021-08-14T06:39:36.283Z</time>
      </trkpt>
      <trkpt lat="40.19304" lon="44.50766">
        <ele>1042.887372</ele>
        <time>2021-08-14T06:39:44.525Z</time>
      </trkpt>
      <trkpt lat="40.19304" lon="44.50757">
        <ele>1043.240898</ele>
        <time>2021-08-14T06:39:49.722Z</time>
      </trkpt>
      <trkpt lat="40.19308" lon="44.50685">
        <ele>1046.010101</ele>
        <time>2021-08-14T06:40:18.388Z</time>
      </trkpt>
      <trkpt lat="40.19341" lon="44.50689">
        <ele>1047.692479</ele>
        <time>2021-08-14T06:40:39.469Z</time>
      </trkpt>
      <trkpt lat="40.19358" lon="44.50687">
        <ele>1048.568382</ele>
        <time>2021-08-14T06:40:50.568Z</time>
      </trkpt>
      <trkpt lat="40.19365" lon="44.50688">
        <ele>1048.924567</ele>
        <time>2021-08-14T06:40:56.113Z</time>
      </trkpt>
      <trkpt lat="40.19385" lon="44.50621">
        <ele>1051.521463</ele>
        <time>2021-08-14T06:41:33.239Z</time>
      </trkpt>
      <trkpt lat="40.1939" lon="44.50604">
        <ele>1052.154455</ele>
        <time>2021-08-14T06:41:42.568Z</time>
      </trkpt>
      <trkpt lat="40.19405" lon="44.50572">
        <ele>1053.501511</ele>
        <time>2021-08-14T06:42:00.452Z</time>
      </trkpt>
      <trkpt lat="40.19415" lon="44.50555">
        <ele>1054.236531</ele>
        <time>2021-08-14T06:42:10.648Z</time>
      </trkpt>
      <trkpt lat="40.19446" lon="44.50527">
        <ele>1055.984375</ele>
        <time>2021-08-14T06:42:31.916Z</time>
      </trkpt>
      <trkpt lat="40.19478" lon="44.50523">
        <ele>1057.473348</ele>
        <time>2021-08-14T06:42:47.470Z</time>
      </trkpt>
      <trkpt lat="40.19487" lon="44.50526">
        <ele>1057.896954</ele>
        <time>2021-08-14T06:42:52.190Z</time>
      </trkpt>
      <trkpt lat="40.19493" lon="44.50523">
        <ele>1058.025488</ele>
        <time>2021-08-14T06:42:54.897Z</time>
      </trkpt>
      <trkpt lat="40.195" lon="44.50518">
        <ele>1058.048097</ele>
        <time>2021-08-14T06:42:58.896Z</time>
      </trkpt>
      <trkpt lat="40.19476" lon="44.50506">
        <ele>1058.119011</ele>
        <time>2021-08-14T06:43:08.902Z</time>
      </trkpt>
      <trkpt lat="40.19446" lon="44.50495">
        <ele>1058.20391</ele>
        <time>2021-08-14T06:43:19.781Z</time>
      </trkpt>
      <trkpt lat="40.19373" lon="44.50517">
        <ele>1058.405378</ele>
        <time>2021-08-14T06:43:40.318Z</time>
      </trkpt>
      <trkpt lat="40.19354" lon="44.50516">
        <ele>1058.456816</ele>
        <time>2021-08-14T06:43:45.309Z</time>
      </trkpt>
      <trkpt lat="40.19301" lon="44.50483">
        <ele>1059.496941</ele>
        <time>2021-08-14T06:44:01.901Z</time>
      </trkpt>
      <trkpt lat="40.19291" lon="44.50464">
        <ele>1059.920558</ele>
        <time>2021-08-14T06:44:07.959Z</time>
      </trkpt>
      <trkpt lat="40.19294" lon="44.50413">
        <ele>1060.835197</ele>
        <time>2021-08-14T06:44:25.189Z</time>
      </trkpt>
      <trkpt lat="40.19302" lon="44.50413">
        <ele>1061.027493</ele>
        <time>2021-08-14T06:44:29.293Z</time>
      </trkpt>
      <trkpt lat="40.19311" lon="44.50405">
        <ele>1061.276539</ele>
        <time>2021-08-14T06:44:35.447Z</time>
      </trkpt>
      <trkpt lat="40.19317" lon="44.50386">
        <ele>1061.651536</ele>
        <time>2021-08-14T06:44:42.378Z</time>
      </trkpt>
      <trkpt lat="40.19343" lon="44.5028">
        <ele>1065.661842</ele>
        <time>2021-08-14T06:45:32.858Z</time>
      </trkpt>
      <trkpt lat="40.19347" lon="44.50276">
        <ele>1066.034926</ele>
        <time>2021-08-14T06:45:37.755Z</time>
      </trkpt>
      <trkpt lat="40.1936" lon="44.5028">
        <ele>1067.015701</ele>
        <time>2021-08-14T06:45:45.674Z</time>
      </trkpt>
      <trkpt lat="40.19385" lon="44.50326">
        <ele>1070.188118</ele>
        <time>2021-08-14T06:46:16.913Z</time>
      </trkpt>
      <trkpt lat="40.19414" lon="44.50354">
        <ele>1072.876993</ele>
        <time>2021-08-14T06:46:45.934Z</time>
      </trkpt>
      <trkpt lat="40.19443" lon="44.50381">
        <ele>1075.5434</ele>
        <time>2021-08-14T06:47:15.642Z</time>
      </trkpt>
      <trkpt lat="40.19455" lon="44.50387">
        <ele>1076.611324</ele>
        <time>2021-08-14T06:47:27.123Z</time>
      </trkpt>
      <trkpt lat="40.19469" lon="44.50398">
        <ele>1078.1781</ele>
        <time>2021-08-14T06:47:40.401Z</time>
      </trkpt>
      <trkpt lat="40.19483" lon="44.50405">
        <ele>1079.529568</ele>
        <time>2021-08-14T06:47:52.259Z</time>
      </trkpt>
      <trkpt lat="40.19505" lon="44.50405">
        <ele>1081.645882</ele>
        <time>2021-08-14T06:48:09.398Z</time>
      </trkpt>
      <trkpt lat="40.19521" lon="44.504">
        <ele>1083.183038</ele>
        <time>2021-08-14T06:48:23.783Z</time>
      </trkpt>
      <trkpt lat="40.19563" lon="44.5037">
        <ele>1087.729033</ele>
        <time>2021-08-14T06:49:05.274Z</time>
      </trkpt>
      <trkpt lat="40.19675" lon="44.50292">
        <ele>1099.251024</ele>
        <time>2021-08-14T06:50:55.465Z</time>
      </trkpt>
      <trkpt lat="40.19685" lon="44.50284">
        <ele>1100.303366</ele>
        <time>2021-08-14T06:51:06.286Z</time>
      </trkpt>
      <trkpt lat="40.19734" lon="44.5025">
        <ele>1105.276423</ele>
        <time>2021-08-14T06:51:50.478Z</time>
      </trkpt>
      <trkpt lat="40.19783" lon="44.50217">
        <ele>1109.772069</ele>
        <time>2021-08-14T06:52:32.895Z</time>
      </trkpt>
      <trkpt lat="40.1986" lon="44.50163">
        <ele>1114.741297</ele>
        <time>2021-08-14T06:53:31.294Z</time>
      </trkpt>
      <trkpt lat="40.19868" lon="44.50158">
        <ele>1115.236795</ele>
        <time>2021-08-14T06:53:36.749Z</time>
      </trkpt>
      <trkpt lat="40.19877" lon="44.50152">
        <ele>1115.842294</ele>
        <time>2021-08-14T06:53:43.630Z</time>
      </trkpt>
      <trkpt lat="40.1996" lon="44.50095">
        <ele>1119.855335</ele>
        <time>2021-08-14T06:54:32.942Z</time>
      </trkpt>
      <trkpt lat="40.19968" lon="44.50089">
        <ele>1120.024098</ele>
        <time>2021-08-14T06:54:37.432Z</time>
      </trkpt>
      <trkpt lat="40.19977" lon="44.50083">
        <ele>1120.198712</ele>
        <time>2021-08-14T06:54:42.025Z</time>
      </trkpt>
      <trkpt lat="40.20025" lon="44.5005">
        <ele>1121.144152</ele>
        <time>2021-08-14T06:55:03.425Z</time>
      </trkpt>
      <trkpt lat="40.20051" lon="44.50033">
        <ele>1121.642431</ele>
        <time>2021-08-14T06:55:14.089Z</time>
      </trkpt>
      <trkpt lat="40.2006" lon="44.50027">
        <ele>1121.820741</ele>
        <time>2021-08-14T06:55:17.752Z</time>
      </trkpt>
      <trkpt lat="40.20067" lon="44.50022">
        <ele>1121.958091</ele>
        <time>2021-08-14T06:55:20.587Z</time>
      </trkpt>
      <trkpt lat="40.20077" lon="44.50015">
        <ele>1122.153955</ele>
        <time>2021-08-14T06:55:24.512Z</time>
      </trkpt>
      <trkpt lat="40.20084" lon="44.5001">
        <ele>1122.291926</ele>
        <time>2021-08-14T06:55:27.044Z</time>
      </trkpt>
      <trkpt lat="40.20175" lon="44.49947">
        <ele>1122.322981</ele>
        <time>2021-08-14T06:55:57.989Z</time>
      </trkpt>
      <trkpt lat="40.20245" lon="44.49899">
        <ele>1122.236953</ele>
        <time>2021-08-14T06:56:21.591Z</time>
      </trkpt>
      <trkpt lat="40.20266" lon="44.49884">
        <ele>1122.254293</ele>
        <time>2021-08-14T06:56:28.688Z</time>
      </trkpt>
      <trkpt lat="40.20278" lon="44.49876">
        <ele>1122.270273</ele>
        <time>2021-08-14T06:56:32.858Z</time>
      </trkpt>
      <trkpt lat="40.2029" lon="44.49868">
        <ele>1122.286554</ele>
        <time>2021-08-14T06:56:36.973Z</time>
      </trkpt>
      <trkpt lat="40.20299" lon="44.49868">
        <ele>1122.297585</ele>
        <time>2021-08-14T06:56:39.660Z</time>
      </trkpt>
      <trkpt lat="40.20307" lon="44.49868">
        <ele>1122.307411</ele>
        <time>2021-08-14T06:56:42.423Z</time>
      </trkpt>
      <trkpt lat="40.20389" lon="44.4981">
        <ele>1122.420323</ele>
        <time>2021-08-14T06:57:12.246Z</time>
      </trkpt>
      <trkpt lat="40.20487" lon="44.49741">
        <ele>1122.492296</ele>
        <time>2021-08-14T06:57:49.784Z</time>
      </trkpt>
      <trkpt lat="40.20493" lon="44.49737">
        <ele>1122.495392</ele>
        <time>2021-08-14T06:57:51.832Z</time>
      </trkpt>
      <trkpt lat="40.20505" lon="44.49729">
        <ele>1122.501965</ele>
        <time>2021-08-14T06:57:55.812Z</time>
      </trkpt>
      <trkpt lat="40.20551" lon="44.49695">
        <ele>1122.527913</ele>
        <time>2021-08-14T06:58:11.348Z</time>
      </trkpt>
      <trkpt lat="40.20553" lon="44.497">
        <ele>1122.529886</ele>
        <time>2021-08-14T06:58:12.705Z</time>
      </trkpt>
      <trkpt lat="40.20568" lon="44.49696">
        <ele>1122.537413</ele>
        <time>2021-08-14T06:58:17.157Z</time>
      </trkpt>
      <trkpt lat="40.20597" lon="44.49676">
        <ele>1122.210168</ele>
        <time>2021-08-14T06:58:26.899Z</time>
      </trkpt>
      <trkpt lat="40.20614" lon="44.49665">
        <ele>1122.021203</ele>
        <time>2021-08-14T06:58:32.457Z</time>
      </trkpt>
      <trkpt lat="40.20635" lon="44.49661">
        <ele>1121.811134</ele>
        <time>2021-08-14T06:58:38.815Z</time>
      </trkpt>
      <trkpt lat="40.20663" lon="44.4967">
        <ele>1121.528333</ele>
        <time>2021-08-14T06:58:47.200Z</time>
      </trkpt>
      <trkpt lat="40.20671" lon="44.49648">
        <ele>1121.33514</ele>
        <time>2021-08-14T06:58:52.714Z</time>
      </trkpt>
      <trkpt lat="40.20768" lon="44.4953">
        <ele>1117.454039</ele>
        <time>2021-08-14T06:59:24.557Z</time>
      </trkpt>
      <trkpt lat="40.20778" lon="44.49512">
        <ele>1116.694123</ele>
        <time>2021-08-14T06:59:28.267Z</time>
      </trkpt>
      <trkpt lat="40.20958" lon="44.49349">
        <ele>1104.48712</ele>
        <time>2021-08-14T07:00:12.597Z</time>
      </trkpt>
      <trkpt lat="40.21155" lon="44.49179">
        <ele>1091.410968</ele>
        <time>2021-08-14T07:01:01.232Z</time>
      </trkpt>
      <trkpt lat="40.21165" lon="44.49171">
        <ele>1091.239568</ele>
        <time>2021-08-14T07:01:04.093Z</time>
      </trkpt>
      <trkpt lat="40.2118" lon="44.49166">
        <ele>1091.006384</ele>
        <time>2021-08-14T07:01:07.828Z</time>
      </trkpt>
      <trkpt lat="40.21196" lon="44.49159">
        <ele>1090.754363</ele>
        <time>2021-08-14T07:01:12.033Z</time>
      </trkpt>
      <trkpt lat="40.21212" lon="44.49159">
        <ele>1090.520329</ele>
        <time>2021-08-14T07:01:15.970Z</time>
      </trkpt>
      <trkpt lat="40.21243" lon="44.49173">
        <ele>1090.042138</ele>
        <time>2021-08-14T07:01:24.402Z</time>
      </trkpt>
      <trkpt lat="40.21391" lon="44.49319">
        <ele>1090.726104</ele>
        <time>2021-08-14T07:02:24.200Z</time>
      </trkpt>
      <trkpt lat="40.21396" lon="44.49325">
        <ele>1090.850684</ele>
        <time>2021-08-14T07:02:26.175Z</time>
      </trkpt>
      <trkpt lat="40.21401" lon="44.49331">
        <ele>1090.964167</ele>
        <time>2021-08-14T07:02:29.412Z</time>
      </trkpt>
      <trkpt lat="40.21419" lon="44.49349">
        <ele>1091.383927</ele>
        <time>2021-08-14T07:02:40.718Z</time>
      </trkpt>
      <trkpt lat="40.21467" lon="44.49425">
        <ele>1094.492526</ele>
        <time>2021-08-14T07:03:22.182Z</time>
      </trkpt>
      <trkpt lat="40.21549" lon="44.49537">
        <ele>1102.673193</ele>
        <time>2021-08-14T07:04:49.781Z</time>
      </trkpt>
      <trkpt lat="40.21582" lon="44.49584">
        <ele>1106.206571</ele>
        <time>2021-08-14T07:05:27.751Z</time>
      </trkpt>
      <trkpt lat="40.21594" lon="44.49569">
        <ele>1107.483727</ele>
        <time>2021-08-14T07:05:40.892Z</time>
      </trkpt>
      <trkpt lat="40.21616" lon="44.49545">
        <ele>1109.57177</ele>
        <time>2021-08-14T07:06:01.911Z</time>
      </trkpt>
      <trkpt lat="40.21712" lon="44.49671">
        <ele>1119.321124</ele>
        <time>2021-08-14T07:07:40.852Z</time>
      </trkpt>
      <trkpt lat="40.21764" lon="44.49742">
        <ele>1123.330316</ele>
        <time>2021-08-14T07:08:29.039Z</time>
      </trkpt>
      <trkpt lat="40.21838" lon="44.49842">
        <ele>1128.281964</ele>
        <time>2021-08-14T07:09:27.675Z</time>
      </trkpt>
      <trkpt lat="40.21961" lon="44.50011">
        <ele>1132.581366</ele>
        <time>2021-08-14T07:10:44.316Z</time>
      </trkpt>
      <trkpt lat="40.21978" lon="44.50037">
        <ele>1133.048927</ele>
        <time>2021-08-14T07:10:54.399Z</time>
      </trkpt>
      <trkpt lat="40.22061" lon="44.50148">
        <ele>1135.193693</ele>
        <time>2021-08-14T07:11:42.530Z</time>
      </trkpt>
      <trkpt lat="40.22158" lon="44.50274">
        <ele>1138.285314</ele>
        <time>2021-08-14T07:12:40.752Z</time>
      </trkpt>
      <trkpt lat="40.22165" lon="44.50282">
        <ele>1138.499786</ele>
        <time>2021-08-14T07:12:45.050Z</time>
      </trkpt>
      <trkpt lat="40.22176" lon="44.5028">
        <ele>1138.761691</ele>
        <time>2021-08-14T07:12:50.520Z</time>
      </trkpt>
      <trkpt lat="40.22209" lon="44.50238">
        <ele>1139.93595</ele>
        <time>2021-08-14T07:13:13.048Z</time>
      </trkpt>
      <trkpt lat="40.22247" lon="44.50189">
        <ele>1141.618482</ele>
        <time>2021-08-14T07:13:40.215Z</time>
      </trkpt>
      <trkpt lat="40.22262" lon="44.50196">
        <ele>1142.129528</ele>
        <time>2021-08-14T07:13:48.824Z</time>
      </trkpt>
      <trkpt lat="40.22288" lon="44.50162">
        <ele>1143.27591</ele>
        <time>2021-08-14T07:14:08.417Z</time>
      </trkpt>
      <trkpt lat="40.22344" lon="44.50236">
        <ele>1145.434708</ele>
        <time>2021-08-14T07:14:47.647Z</time>
      </trkpt>
      <trkpt lat="40.22388" lon="44.50289">
        <ele>1145.991621</ele>
        <time>2021-08-14T07:15:14.605Z</time>
      </trkpt>
      <trkpt lat="40.22329" lon="44.50391">
        <ele>1146.908038</ele>
        <time>2021-08-14T07:15:44.748Z</time>
      </trkpt>
      <trkpt lat="40.223" lon="44.50438">
        <ele>1146.802453</ele>
        <time>2021-08-14T07:15:56.901Z</time>
      </trkpt>
      <trkpt lat="40.2229" lon="44.50456">
        <ele>1146.726338</ele>
        <time>2021-08-14T07:16:01.281Z</time>
      </trkpt>
      <trkpt lat="40.22286" lon="44.50453">
        <ele>1146.709623</ele>
        <time>2021-08-14T07:16:02.312Z</time>
      </trkpt>
      <trkpt lat="40.22283" lon="44.50452">
        <ele>1146.693058</ele>
        <time>2021-08-14T07:16:03.266Z</time>
      </trkpt>
      <trkpt lat="40.22278" lon="44.50453">
        <ele>1146.672665</ele>
        <time>2021-08-14T07:16:04.328Z</time>
      </trkpt>
      <trkpt lat="40.2227" lon="44.50467">
        <ele>1146.614644</ele>
        <time>2021-08-14T07:16:08.145Z</time>
      </trkpt>
      <trkpt lat="40.22271" lon="44.50473">
        <ele>1146.594324</ele>
        <time>2021-08-14T07:16:09.249Z</time>
      </trkpt>
      <trkpt lat="40.22273" lon="44.50478">
        <ele>1146.574495</ele>
        <time>2021-08-14T07:16:10.413Z</time>
      </trkpt>
      <trkpt lat="40.22277" lon="44.50482">
        <ele>1146.554285</ele>
        <time>2021-08-14T07:16:11.756Z</time>
      </trkpt>
      <trkpt lat="40.22281" lon="44.50483">
        <ele>1146.534774</ele>
        <time>2021-08-14T07:16:12.945Z</time>
      </trkpt>
      <trkpt lat="40.22285" lon="44.50487">
        <ele>1146.515313</ele>
        <time>2021-08-14T07:16:13.979Z</time>
      </trkpt>
      <trkpt lat="40.22315" lon="44.50515">
        <ele>1146.352972</ele>
        <time>2021-08-14T07:16:25.005Z</time>
      </trkpt>
      <trkpt lat="40.22319" lon="44.50519">
        <ele>1146.329452</ele>
        <time>2021-08-14T07:16:26.974Z</time>
      </trkpt>
      <trkpt lat="40.22368" lon="44.50568">
        <ele>1146.786737</ele>
        <time>2021-08-14T07:16:48.893Z</time>
      </trkpt>
      <trkpt lat="40.22408" lon="44.50606">
        <ele>1147.836229</ele>
        <time>2021-08-14T07:17:09.218Z</time>
      </trkpt>
      <trkpt lat="40.22437" lon="44.50644">
        <ele>1148.721158</ele>
        <time>2021-08-14T07:17:29.018Z</time>
      </trkpt>
      <trkpt lat="40.22503" lon="44.50731">
        <ele>1150.578063</ele>
        <time>2021-08-14T07:18:12.868Z</time>
      </trkpt>
      <trkpt lat="40.22524" lon="44.50758">
        <ele>1151.085782</ele>
        <time>2021-08-14T07:18:26.301Z</time>
      </trkpt>
      <trkpt lat="40.22632" lon="44.50909">
        <ele>1153.585331</ele>
        <time>2021-08-14T07:19:26.725Z</time>
      </trkpt>
      <trkpt lat="40.22661" lon="44.50939">
        <ele>1153.976411</ele>
        <time>2021-08-14T07:19:38.601Z</time>
      </trkpt>
      <trkpt lat="40.22699" lon="44.50952">
        <ele>1154.403792</ele>
        <time>2021-08-14T07:19:51.797Z</time>
      </trkpt>
      <trkpt lat="40.22807" lon="44.50974">
        <ele>1156.537543</ele>
        <time>2021-08-14T07:20:35.100Z</time>
      </trkpt>
      <trkpt lat="40.22842" lon="44.5098">
        <ele>1157.687663</ele>
        <time>2021-08-14T07:20:51.971Z</time>
      </trkpt>
      <trkpt lat="40.22857" lon="44.50982">
        <ele>1158.176839</ele>
        <time>2021-08-14T07:20:59.507Z</time>
      </trkpt>
      <trkpt lat="40.22973" lon="44.51">
        <ele>1162.42709</ele>
        <time>2021-08-14T07:22:04.073Z</time>
      </trkpt>
      <trkpt lat="40.23127" lon="44.5103">
        <ele>1169.532466</ele>
        <time>2021-08-14T07:23:37.020Z</time>
      </trkpt>
      <trkpt lat="40.23165" lon="44.51041">
        <ele>1170.295299</ele>
        <time>2021-08-14T07:23:56.467Z</time>
      </trkpt>
      <trkpt lat="40.23204" lon="44.51058">
        <ele>1171.078458</ele>
        <time>2021-08-14T07:24:14.031Z</time>
      </trkpt>
      <trkpt lat="40.23259" lon="44.51082">
        <ele>1172.189206</ele>
        <time>2021-08-14T07:24:35.607Z</time>
      </trkpt>
      <trkpt lat="40.23276" lon="44.51089">
        <ele>1172.536462</ele>
        <time>2021-08-14T07:24:41.957Z</time>
      </trkpt>
      <trkpt lat="40.23317" lon="44.51109">
        <ele>1172.767082</ele>
        <time>2021-08-14T07:24:54.887Z</time>
      </trkpt>
      <trkpt lat="40.23333" lon="44.5111">
        <ele>1172.727142</ele>
        <time>2021-08-14T07:24:59.398Z</time>
      </trkpt>
      <trkpt lat="40.2338" lon="44.51101">
        <ele>1172.612683</ele>
        <time>2021-08-14T07:25:12.210Z</time>
      </trkpt>
      <trkpt lat="40.23385" lon="44.51099">
        <ele>1172.599166</ele>
        <time>2021-08-14T07:25:13.612Z</time>
      </trkpt>
      <trkpt lat="40.23433" lon="44.51083">
        <ele>1172.480601</ele>
        <time>2021-08-14T07:25:26.905Z</time>
      </trkpt>
      <trkpt lat="40.23568" lon="44.51038">
        <ele>1174.463712</ele>
        <time>2021-08-14T07:26:18.256Z</time>
      </trkpt>
      <trkpt lat="40.23598" lon="44.50981">
        <ele>1175.492536</ele>
        <time>2021-08-14T07:26:43.257Z</time>
      </trkpt>
      <trkpt lat="40.23615" lon="44.50902">
        <ele>1177.371663</ele>
        <time>2021-08-14T07:27:17.743Z</time>
      </trkpt>
      <trkpt lat="40.2361" lon="44.50864">
        <ele>1178.406518</ele>
        <time>2021-08-14T07:27:33.567Z</time>
      </trkpt>
      <trkpt lat="40.23569" lon="44.50809">
        <ele>1180.477689</ele>
        <time>2021-08-14T07:28:04.260Z</time>
      </trkpt>
      <trkpt lat="40.23551" lon="44.50777">
        <ele>1181.568377</ele>
        <time>2021-08-14T07:28:19.932Z</time>
      </trkpt>
      <trkpt lat="40.23545" lon="44.50754">
        <ele>1182.240361</ele>
        <time>2021-08-14T07:28:28.815Z</time>
      </trkpt>
      <trkpt lat="40.23545" lon="44.50741">
        <ele>1182.432991</ele>
        <time>2021-08-14T07:28:33.331Z</time>
      </trkpt>
      <trkpt lat="40.23543" lon="44.50583">
        <ele>1184.56814</ele>
        <time>2021-08-14T07:29:23.958Z</time>
      </trkpt>
      <trkpt lat="40.23542" lon="44.50457">
        <ele>1186.098282</ele>
        <time>2021-08-14T07:29:57.729Z</time>
      </trkpt>
      <trkpt lat="40.23543" lon="44.50207">
        <ele>1189.746243</ele>
        <time>2021-08-14T07:31:14.203Z</time>
      </trkpt>
      <trkpt lat="40.23541" lon="44.50086">
        <ele>1192.618527</ele>
        <time>2021-08-14T07:32:01.422Z</time>
      </trkpt>
      <trkpt lat="40.23539" lon="44.50003">
        <ele>1194.764932</ele>
        <time>2021-08-14T07:32:37.770Z</time>
      </trkpt>
      <trkpt lat="40.2354" lon="44.49922">
        <ele>1196.986526</ele>
        <time>2021-08-14T07:33:12.278Z</time>
      </trkpt>
      <trkpt lat="40.23541" lon="44.49867">
        <ele>1198.491309</ele>
        <time>2021-08-14T07:33:34.461Z</time>
      </trkpt>
      <trkpt lat="40.23548" lon="44.49846">
        <ele>1199.093994</ele>
        <time>2021-08-14T07:33:43.377Z</time>
      </trkpt>
      <trkpt lat="40.23559" lon="44.49846">
        <ele>1199.496103</ele>
        <time>2021-08-14T07:33:48.796Z</time>
      </trkpt>
      <trkpt lat="40.23668" lon="44.498">
        <ele>1200.150426</ele>
        <time>2021-08-14T07:34:31.853Z</time>
      </trkpt>
      <trkpt lat="40.2366" lon="44.49727">
        <ele>1200.200124</ele>
        <time>2021-08-14T07:34:47.318Z</time>
      </trkpt>
      <trkpt lat="40.23651" lon="44.49661">
        <ele>1199.74702</ele>
        <time>2021-08-14T07:35:01.044Z</time>
      </trkpt>
      <trkpt lat="40.23647" lon="44.49607">
        <ele>1199.007778</ele>
        <time>2021-08-14T07:35:11.848Z</time>
      </trkpt>
      <trkpt lat="40.23672" lon="44.49521">
        <ele>1197.737988</ele>
        <time>2021-08-14T07:35:30.086Z</time>
      </trkpt>
      <trkpt lat="40.23673" lon="44.49509">
        <ele>1197.56748</ele>
        <time>2021-08-14T07:35:32.482Z</time>
      </trkpt>
      <trkpt lat="40.23664" lon="44.49456">
        <ele>1196.759712</ele>
        <time>2021-08-14T07:35:43.415Z</time>
      </trkpt>
      <trkpt lat="40.23673" lon="44.49431">
        <ele>1196.259637</ele>
        <time>2021-08-14T07:35:48.842Z</time>
      </trkpt>
      <trkpt lat="40.2369" lon="44.49424">
        <ele>1195.828353</ele>
        <time>2021-08-14T07:35:53.552Z</time>
      </trkpt>
      <trkpt lat="40.2368" lon="44.49377">
        <ele>1194.946989</ele>
        <time>2021-08-14T07:36:02.974Z</time>
      </trkpt>
      <trkpt lat="40.23718" lon="44.4932">
        <ele>1193.569027</ele>
        <time>2021-08-14T07:36:17.260Z</time>
      </trkpt>
      <trkpt lat="40.23725" lon="44.49257">
        <ele>1192.381762</ele>
        <time>2021-08-14T07:36:29.129Z</time>
      </trkpt>
      <trkpt lat="40.23733" lon="44.4918">
        <ele>1190.788722</ele>
        <time>2021-08-14T07:36:43.640Z</time>
      </trkpt>
      <trkpt lat="40.23785" lon="44.49131">
        <ele>1189.069579</ele>
        <time>2021-08-14T07:36:59.374Z</time>
      </trkpt>
      <trkpt lat="40.23847" lon="44.49142">
        <ele>1187.609365</ele>
        <time>2021-08-14T07:37:15.022Z</time>
      </trkpt>
      <trkpt lat="40.23848" lon="44.49121">
        <ele>1187.367964</ele>
        <time>2021-08-14T07:37:19.002Z</time>
      </trkpt>
      <trkpt lat="40.23864" lon="44.49055">
        <ele>1186.579917</ele>
        <time>2021-08-14T07:37:33.107Z</time>
      </trkpt>
      <trkpt lat="40.23885" lon="44.489">
        <ele>1184.957007</ele>
        <time>2021-08-14T07:38:06.725Z</time>
      </trkpt>
      <trkpt lat="40.23905" lon="44.48809">
        <ele>1184.407282</ele>
        <time>2021-08-14T07:38:27.973Z</time>
      </trkpt>
      <trkpt lat="40.23909" lon="44.48752">
        <ele>1184.079106</ele>
        <time>2021-08-14T07:38:40.759Z</time>
      </trkpt>
      <trkpt lat="40.23906" lon="44.48636">
        <ele>1183.61796</ele>
        <time>2021-08-14T07:39:06.705Z</time>
      </trkpt>
      <trkpt lat="40.23901" lon="44.48583">
        <ele>1183.48314</ele>
        <time>2021-08-14T07:39:18.989Z</time>
      </trkpt>
      <trkpt lat="40.23885" lon="44.48541">
        <ele>1183.364243</ele>
        <time>2021-08-14T07:39:29.940Z</time>
      </trkpt>
      <trkpt lat="40.2386" lon="44.48511">
        <ele>1183.251002</ele>
        <time>2021-08-14T07:39:40.903Z</time>
      </trkpt>
      <trkpt lat="40.23863" lon="44.48494">
        <ele>1183.205961</ele>
        <time>2021-08-14T07:39:45.828Z</time>
      </trkpt>
      <trkpt lat="40.23875" lon="44.48443">
        <ele>1183.278981</ele>
        <time>2021-08-14T07:39:59.498Z</time>
      </trkpt>
      <trkpt lat="40.23891" lon="44.48409">
        <ele>1183.357043</ele>
        <time>2021-08-14T07:40:09.435Z</time>
      </trkpt>
      <trkpt lat="40.23894" lon="44.48392">
        <ele>1183.39222</ele>
        <time>2021-08-14T07:40:13.951Z</time>
      </trkpt>
      <trkpt lat="40.23903" lon="44.48383">
        <ele>1183.422724</ele>
        <time>2021-08-14T07:40:17.574Z</time>
      </trkpt>
      <trkpt lat="40.23916" lon="44.48362">
        <ele>1183.476155</ele>
        <time>2021-08-14T07:40:25.115Z</time>
      </trkpt>
      <trkpt lat="40.23914" lon="44.48338">
        <ele>1183.525739</ele>
        <time>2021-08-14T07:40:31.358Z</time>
      </trkpt>
      <trkpt lat="40.23863" lon="44.48252">
        <ele>1183.534626</ele>
        <time>2021-08-14T07:41:00.647Z</time>
      </trkpt>
      <trkpt lat="40.23855" lon="44.48205">
        <ele>1183.397099</ele>
        <time>2021-08-14T07:41:12.812Z</time>
      </trkpt>
      <trkpt lat="40.23854" lon="44.48177">
        <ele>1183.316311</ele>
        <time>2021-08-14T07:41:19.417Z</time>
      </trkpt>
      <trkpt lat="40.23889" lon="44.48009">
        <ele>1182.683427</ele>
        <time>2021-08-14T07:41:57.377Z</time>
      </trkpt>
      <trkpt lat="40.23882" lon="44.47964">
        <ele>1182.444274</ele>
        <time>2021-08-14T07:42:07.070Z</time>
      </trkpt>
      <trkpt lat="40.2386" lon="44.47931">
        <ele>1182.21839</ele>
        <time>2021-08-14T07:42:16.812Z</time>
      </trkpt>
      <trkpt lat="40.23833" lon="44.47904">
        <ele>1181.983347</ele>
        <time>2021-08-14T07:42:27.119Z</time>
      </trkpt>
      <trkpt lat="40.23787" lon="44.4787">
        <ele>1181.89261</ele>
        <time>2021-08-14T07:42:43.113Z</time>
      </trkpt>
      <trkpt lat="40.23809" lon="44.47803">
        <ele>1182.298909</ele>
        <time>2021-08-14T07:43:02.281Z</time>
      </trkpt>
      <trkpt lat="40.23799" lon="44.47766">
        <ele>1182.519873</ele>
        <time>2021-08-14T07:43:13.108Z</time>
      </trkpt>
      <trkpt lat="40.23777" lon="44.47736">
        <ele>1182.751499</ele>
        <time>2021-08-14T07:43:25.139Z</time>
      </trkpt>
      <trkpt lat="40.23722" lon="44.47624">
        <ele>1184.18413</ele>
        <time>2021-08-14T07:44:08.615Z</time>
      </trkpt>
      <trkpt lat="40.23694" lon="44.47543">
        <ele>1185.485234</ele>
        <time>2021-08-14T07:44:37.806Z</time>
      </trkpt>
      <trkpt lat="40.23648" lon="44.47329">
        <ele>1189.068778</ele>
        <time>2021-08-14T07:45:52.949Z</time>
      </trkpt>
      <trkpt lat="40.23626" lon="44.47253">
        <ele>1190.435312</ele>
        <time>2021-08-14T07:46:21.320Z</time>
      </trkpt>
      <trkpt lat="40.23604" lon="44.47164">
        <ele>1192.341671</ele>
        <time>2021-08-14T07:46:54.752Z</time>
      </trkpt>
      <trkpt lat="40.23975" lon="44.46955">
        <ele>1202.543536</ele>
        <time>2021-08-14T07:50:07.046Z</time>
      </trkpt>
      <trkpt lat="40.24071" lon="44.46891">
        <ele>1204.424263</ele>
        <time>2021-08-14T07:50:49.711Z</time>
      </trkpt>
      <trkpt lat="40.24305" lon="44.46952">
        <ele>1208.210423</ele>
        <time>2021-08-14T07:52:20.699Z</time>
      </trkpt>
      <trkpt lat="40.24313" lon="44.4698">
        <ele>1208.732622</ele>
        <time>2021-08-14T07:52:31.877Z</time>
      </trkpt>
      <trkpt lat="40.24408" lon="44.47022">
        <ele>1212.376775</ele>
        <time>2021-08-14T07:53:24.828Z</time>
      </trkpt>
      <trkpt lat="40.24907" lon="44.47181">
        <ele>1240.266053</ele>
        <time>2021-08-14T07:58:44.402Z</time>
      </trkpt>
      <trkpt lat="40.24991" lon="44.47227">
        <ele>1245.732347</ele>
        <time>2021-08-14T07:59:44.219Z</time>
      </trkpt>
      <trkpt lat="40.25094" lon="44.47223">
        <ele>1251.636133</ele>
        <time>2021-08-14T08:00:51.895Z</time>
      </trkpt>
      <trkpt lat="40.25203" lon="44.47209">
        <ele>1257.166691</ele>
        <time>2021-08-14T08:01:57.540Z</time>
      </trkpt>
      <trkpt lat="40.25239" lon="44.47167">
        <ele>1259.397824</ele>
        <time>2021-08-14T08:02:23.920Z</time>
      </trkpt>
      <trkpt lat="40.25283" lon="44.47172">
        <ele>1260.752246</ele>
        <time>2021-08-14T08:02:46.805Z</time>
      </trkpt>
      <trkpt lat="40.25333" lon="44.47198">
        <ele>1262.387454</ele>
        <time>2021-08-14T08:03:12.590Z</time>
      </trkpt>
      <trkpt lat="40.25389" lon="44.47212">
        <ele>1264.096138</ele>
        <time>2021-08-14T08:03:37.676Z</time>
      </trkpt>
      <trkpt lat="40.25448" lon="44.47185">
        <ele>1265.437386</ele>
        <time>2021-08-14T08:04:04.255Z</time>
      </trkpt>
      <trkpt lat="40.25639" lon="44.47016">
        <ele>1269.784584</ele>
        <time>2021-08-14T08:05:38.607Z</time>
      </trkpt>
      <trkpt lat="40.25661" lon="44.46988">
        <ele>1270.375888</ele>
        <time>2021-08-14T08:05:51.488Z</time>
      </trkpt>
      <trkpt lat="40.25648" lon="44.46905">
        <ele>1271.713537</ele>
        <time>2021-08-14T08:06:19.192Z</time>
      </trkpt>
      <trkpt lat="40.25646" lon="44.46807">
        <ele>1273.741969</ele>
        <time>2021-08-14T08:06:53.041Z</time>
      </trkpt>
      <trkpt lat="40.25737" lon="44.46619">
        <ele>1278.315806</ele>
        <time>2021-08-14T08:08:14.592Z</time>
      </trkpt>
      <trkpt lat="40.2579" lon="44.46522">
        <ele>1280.802708</ele>
        <time>2021-08-14T08:08:57.103Z</time>
      </trkpt>
      <trkpt lat="40.25779" lon="44.46488">
        <ele>1281.263757</ele>
        <time>2021-08-14T08:09:09.528Z</time>
      </trkpt>
      <trkpt lat="40.25749" lon="44.46416">
        <ele>1281.917174</ele>
        <time>2021-08-14T08:09:35.418Z</time>
      </trkpt>
      <trkpt lat="40.25707" lon="44.46392">
        <ele>1282.389513</ele>
        <time>2021-08-14T08:09:52.361Z</time>
      </trkpt>
      <trkpt lat="40.25675" lon="44.4638">
        <ele>1282.73782</ele>
        <time>2021-08-14T08:10:03.799Z</time>
      </trkpt>
      <trkpt lat="40.25635" lon="44.46374">
        <ele>1282.93344</ele>
        <time>2021-08-14T08:10:16.264Z</time>
      </trkpt>
      <trkpt lat="40.25599" lon="44.46384">
        <ele>1282.90096</ele>
        <time>2021-08-14T08:10:27.598Z</time>
      </trkpt>
      <trkpt lat="40.25567" lon="44.46367">
        <ele>1282.870386</ele>
        <time>2021-08-14T08:10:38.250Z</time>
      </trkpt>
      <trkpt lat="40.2556" lon="44.46334">
        <ele>1282.847151</ele>
        <time>2021-08-14T08:10:46.462Z</time>
      </trkpt>
      <trkpt lat="40.25561" lon="44.4628">
        <ele>1282.810375</ele>
        <time>2021-08-14T08:10:59.734Z</time>
      </trkpt>
      <trkpt lat="40.2558" lon="44.46198">
        <ele>1282.893366</ele>
        <time>2021-08-14T08:11:21.513Z</time>
      </trkpt>
      <trkpt lat="40.2563" lon="44.46067">
        <ele>1283.151546</ele>
        <time>2021-08-14T08:11:59.772Z</time>
      </trkpt>
      <trkpt lat="40.25628" lon="44.45965">
        <ele>1283.359619</ele>
        <time>2021-08-14T08:12:25.811Z</time>
      </trkpt>
      <trkpt lat="40.25612" lon="44.45755">
        <ele>1284.319382</ele>
        <time>2021-08-14T08:13:20.715Z</time>
      </trkpt>
      <trkpt lat="40.25617" lon="44.45733">
        <ele>1284.611185</ele>
        <time>2021-08-14T08:13:27.013Z</time>
      </trkpt>
      <trkpt lat="40.25619" lon="44.45721">
        <ele>1284.782855</ele>
        <time>2021-08-14T08:13:31.344Z</time>
      </trkpt>
      <trkpt lat="40.25637" lon="44.45687">
        <ele>1285.322659</ele>
        <time>2021-08-14T08:13:44.263Z</time>
      </trkpt>
      <trkpt lat="40.25654" lon="44.45686">
        <ele>1285.623408</ele>
        <time>2021-08-14T08:13:52.223Z</time>
      </trkpt>
      <trkpt lat="40.25671" lon="44.45674">
        <ele>1285.955192</ele>
        <time>2021-08-14T08:14:00.376Z</time>
      </trkpt>
      <trkpt lat="40.2571" lon="44.45648">
        <ele>1286.713949</ele>
        <time>2021-08-14T08:14:21.073Z</time>
      </trkpt>
      <trkpt lat="40.25791" lon="44.45536">
        <ele>1289.970102</ele>
        <time>2021-08-14T08:15:20.045Z</time>
      </trkpt>
      <trkpt lat="40.2584" lon="44.45498">
        <ele>1291.592762</ele>
        <time>2021-08-14T08:15:46.965Z</time>
      </trkpt>
      <trkpt lat="40.25957" lon="44.45335">
        <ele>1295.62041</ele>
        <time>2021-08-14T08:17:04.521Z</time>
      </trkpt>
      <trkpt lat="40.25951" lon="44.45255">
        <ele>1296.828469</ele>
        <time>2021-08-14T08:17:32.155Z</time>
      </trkpt>
      <trkpt lat="40.26007" lon="44.45193">
        <ele>1298.139405</ele>
        <time>2021-08-14T08:18:03.993Z</time>
      </trkpt>
      <trkpt lat="40.26069" lon="44.45228">
        <ele>1299.337934</ele>
        <time>2021-08-14T08:18:31.984Z</time>
      </trkpt>
      <trkpt lat="40.26157" lon="44.45367">
        <ele>1300.694849</ele>
        <time>2021-08-14T08:19:22.657Z</time>
      </trkpt>
      <trkpt lat="40.26166" lon="44.45418">
        <ele>1301.095154</ele>
        <time>2021-08-14T08:19:38.023Z</time>
      </trkpt>
      <trkpt lat="40.26219" lon="44.45449">
        <ele>1301.990083</ele>
        <time>2021-08-14T08:20:01.056Z</time>
      </trkpt>
      <trkpt lat="40.26228" lon="44.45449">
        <ele>1302.136227</ele>
        <time>2021-08-14T08:20:04.742Z</time>
      </trkpt>
      <trkpt lat="40.26257" lon="44.4544">
        <ele>1302.588546</ele>
        <time>2021-08-14T08:20:16.971Z</time>
      </trkpt>
      <trkpt lat="40.26299" lon="44.4541">
        <ele>1303.317288</ele>
        <time>2021-08-14T08:20:36.815Z</time>
      </trkpt>
      <trkpt lat="40.26337" lon="44.45399">
        <ele>1303.915749</ele>
        <time>2021-08-14T08:20:53.937Z</time>
      </trkpt>
      <trkpt lat="40.26413" lon="44.45399">
        <ele>1304.992151</ele>
        <time>2021-08-14T08:21:27.287Z</time>
      </trkpt>
      <trkpt lat="40.26441" lon="44.45381">
        <ele>1305.431171</ele>
        <time>2021-08-14T08:21:39.806Z</time>
      </trkpt>
      <trkpt lat="40.26464" lon="44.45305">
        <ele>1306.324865</ele>
        <time>2021-08-14T08:22:04.241Z</time>
      </trkpt>
      <trkpt lat="40.2651" lon="44.45056">
        <ele>1306.630231</ele>
        <time>2021-08-14T08:23:08.395Z</time>
      </trkpt>
      <trkpt lat="40.26533" lon="44.44991">
        <ele>1306.365473</ele>
        <time>2021-08-14T08:23:24.971Z</time>
      </trkpt>
      <trkpt lat="40.26563" lon="44.44957">
        <ele>1306.178312</ele>
        <time>2021-08-14T08:23:36.578Z</time>
      </trkpt>
      <trkpt lat="40.26635" lon="44.45006">
        <ele>1305.790792</ele>
        <time>2021-08-14T08:24:00.707Z</time>
      </trkpt>
      <trkpt lat="40.26741" lon="44.45048">
        <ele>1305.347577</ele>
        <time>2021-08-14T08:24:34.240Z</time>
      </trkpt>
      <trkpt lat="40.2683" lon="44.45061">
        <ele>1305.109048</ele>
        <time>2021-08-14T08:25:01.951Z</time>
      </trkpt>
      <trkpt lat="40.26892" lon="44.45097">
        <ele>1305.154102</ele>
        <time>2021-08-14T08:25:23.109Z</time>
      </trkpt>
      <trkpt lat="40.26972" lon="44.45182">
        <ele>1305.590911</ele>
        <time>2021-08-14T08:25:57.712Z</time>
      </trkpt>
      <trkpt lat="40.26982" lon="44.45187">
        <ele>1305.831488</ele>
        <time>2021-08-14T08:26:01.843Z</time>
      </trkpt>
      <trkpt lat="40.26997" lon="44.45174">
        <ele>1306.235614</ele>
        <time>2021-08-14T08:26:08.796Z</time>
      </trkpt>
      <trkpt lat="40.27039" lon="44.45097">
        <ele>1307.837535</ele>
        <time>2021-08-14T08:26:39.883Z</time>
      </trkpt>
      <trkpt lat="40.27182" lon="44.44863">
        <ele>1315.464784</ele>
        <time>2021-08-14T08:28:43.878Z</time>
      </trkpt>
      <trkpt lat="40.27219" lon="44.44788">
        <ele>1317.329393</ele>
        <time>2021-08-14T08:29:18.751Z</time>
      </trkpt>
      <trkpt lat="40.27228" lon="44.44759">
        <ele>1317.935103</ele>
        <time>2021-08-14T08:29:30.345Z</time>
      </trkpt>
      <trkpt lat="40.2727" lon="44.44708">
        <ele>1319.382819</ele>
        <time>2021-08-14T08:29:56.583Z</time>
      </trkpt>
      <trkpt lat="40.27309" lon="44.4467">
        <ele>1320.510743</ele>
        <time>2021-08-14T08:30:16.699Z</time>
      </trkpt>
      <trkpt lat="40.27322" lon="44.44638">
        <ele>1320.678411</ele>
        <time>2021-08-14T08:30:27.522Z</time>
      </trkpt>
      <trkpt lat="40.27329" lon="44.44605">
        <ele>1320.839777</ele>
        <time>2021-08-14T08:30:37.541Z</time>
      </trkpt>
      <trkpt lat="40.27356" lon="44.4457">
        <ele>1321.069245</ele>
        <time>2021-08-14T08:30:51.215Z</time>
      </trkpt>
      <trkpt lat="40.27392" lon="44.44561">
        <ele>1321.293401</ele>
        <time>2021-08-14T08:31:03.956Z</time>
      </trkpt>
      <trkpt lat="40.2744" lon="44.44511">
        <ele>1321.461163</ele>
        <time>2021-08-14T08:31:23.556Z</time>
      </trkpt>
      <trkpt lat="40.27462" lon="44.44523">
        <ele>1321.265773</ele>
        <time>2021-08-14T08:31:30.797Z</time>
      </trkpt>
      <trkpt lat="40.27489" lon="44.44434">
        <ele>1320.669085</ele>
        <time>2021-08-14T08:31:51.761Z</time>
      </trkpt>
      <trkpt lat="40.27497" lon="44.44277">
        <ele>1319.657325</ele>
        <time>2021-08-14T08:32:25.024Z</time>
      </trkpt>
      <trkpt lat="40.27486" lon="44.44125">
        <ele>1318.627547</ele>
        <time>2021-08-14T08:32:58.442Z</time>
      </trkpt>
      <trkpt lat="40.27486" lon="44.44048">
        <ele>1318.379212</ele>
        <time>2021-08-14T08:33:16.439Z</time>
      </trkpt>
      <trkpt lat="40.27494" lon="44.44021">
        <ele>1318.31216</ele>
        <time>2021-08-14T08:33:23.303Z</time>
      </trkpt>
      <trkpt lat="40.27498" lon="44.43942">
        <ele>1318.127327</ele>
        <time>2021-08-14T08:33:42.401Z</time>
      </trkpt>
      <trkpt lat="40.2749" lon="44.43902">
        <ele>1318.031312</ele>
        <time>2021-08-14T08:33:52.420Z</time>
      </trkpt>
      <trkpt lat="40.27509" lon="44.43864">
        <ele>1317.915847</ele>
        <time>2021-08-14T08:34:03.358Z</time>
      </trkpt>
      <trkpt lat="40.27538" lon="44.43587">
        <ele>1317.161171</ele>
        <time>2021-08-14T08:35:08.483Z</time>
      </trkpt>
      <trkpt lat="40.2756" lon="44.43547">
        <ele>1317.045039</ele>
        <time>2021-08-14T08:35:19.977Z</time>
      </trkpt>
      <trkpt lat="40.27576" lon="44.43397">
        <ele>1316.679563</ele>
        <time>2021-08-14T08:35:56.240Z</time>
      </trkpt>
      <trkpt lat="40.27607" lon="44.43176">
        <ele>1316.013253</ele>
        <time>2021-08-14T08:36:49.488Z</time>
      </trkpt>
      <trkpt lat="40.27641" lon="44.43074">
        <ele>1315.140924</ele>
        <time>2021-08-14T08:37:13.810Z</time>
      </trkpt>
      <trkpt lat="40.27641" lon="44.43042">
        <ele>1314.886449</ele>
        <time>2021-08-14T08:37:20.906Z</time>
      </trkpt>
      <trkpt lat="40.27629" lon="44.43044">
        <ele>1314.762526</ele>
        <time>2021-08-14T08:37:26.305Z</time>
      </trkpt>
      <trkpt lat="40.2758" lon="44.43037">
        <ele>1314.195613</ele>
        <time>2021-08-14T08:37:48.717Z</time>
      </trkpt>
      <trkpt lat="40.27494" lon="44.43065">
        <ele>1312.06392</ele>
        <time>2021-08-14T08:38:27.410Z</time>
      </trkpt>
      <trkpt lat="40.275" lon="44.43029">
        <ele>1311.400376</ele>
        <time>2021-08-14T08:38:34.260Z</time>
      </trkpt>
      <trkpt lat="40.27491" lon="44.42949">
        <ele>1309.86614</ele>
        <time>2021-08-14T08:38:49.426Z</time>
      </trkpt>
      <trkpt lat="40.27477" lon="44.42903">
        <ele>1308.369247</ele>
        <time>2021-08-14T08:38:58.269Z</time>
      </trkpt>
      <trkpt lat="40.27432" lon="44.42807">
        <ele>1304.913425</ele>
        <time>2021-08-14T08:39:18.096Z</time>
      </trkpt>
      <trkpt lat="40.27371" lon="44.42731">
        <ele>1301.277495</ele>
        <time>2021-08-14T08:39:37.083Z</time>
      </trkpt>
      <trkpt lat="40.27316" lon="44.42683">
        <ele>1298.081481</ele>
        <time>2021-08-14T08:39:51.743Z</time>
      </trkpt>
      <trkpt lat="40.27172" lon="44.42591">
        <ele>1290.784574</ele>
        <time>2021-08-14T08:40:27.463Z</time>
      </trkpt>
      <trkpt lat="40.27098" lon="44.42531">
        <ele>1287.079702</ele>
        <time>2021-08-14T08:40:47.470Z</time>
      </trkpt>
      <trkpt lat="40.27019" lon="44.42415">
        <ele>1284.023716</ele>
        <time>2021-08-14T08:41:16.110Z</time>
      </trkpt>
      <trkpt lat="40.2713" lon="44.42109">
        <ele>1280.003551</ele>
        <time>2021-08-14T08:42:27.393Z</time>
      </trkpt>
      <trkpt lat="40.27152" lon="44.42099">
        <ele>1279.816505</ele>
        <time>2021-08-14T08:42:33.995Z</time>
      </trkpt>
      <trkpt lat="40.27265" lon="44.42082">
        <ele>1278.886164</ele>
        <time>2021-08-14T08:43:06.755Z</time>
      </trkpt>
      <trkpt lat="40.27337" lon="44.41976">
        <ele>1278.356898</ele>
        <time>2021-08-14T08:43:39.077Z</time>
      </trkpt>
      <trkpt lat="40.27342" lon="44.41948">
        <ele>1278.296715</ele>
        <time>2021-08-14T08:43:45.728Z</time>
      </trkpt>
      <trkpt lat="40.27328" lon="44.41835">
        <ele>1278.053667</ele>
        <time>2021-08-14T08:44:13.835Z</time>
      </trkpt>
      <trkpt lat="40.27331" lon="44.41825">
        <ele>1278.049591</ele>
        <time>2021-08-14T08:44:16.328Z</time>
      </trkpt>
      <trkpt lat="40.27339" lon="44.41817">
        <ele>1278.065801</ele>
        <time>2021-08-14T08:44:19.842Z</time>
      </trkpt>
      <trkpt lat="40.27444" lon="44.41778">
        <ele>1278.233958</ele>
        <time>2021-08-14T08:44:56.722Z</time>
      </trkpt>
      <trkpt lat="40.27467" lon="44.41806">
        <ele>1278.282224</ele>
        <time>2021-08-14T08:45:06.678Z</time>
      </trkpt>
      <trkpt lat="40.27491" lon="44.41793">
        <ele>1278.328734</ele>
        <time>2021-08-14T08:45:14.648Z</time>
      </trkpt>
      <trkpt lat="40.27516" lon="44.4175">
        <ele>1278.727443</ele>
        <time>2021-08-14T08:45:28.557Z</time>
      </trkpt>
      <trkpt lat="40.27558" lon="44.41614">
        <ele>1279.829249</ele>
        <time>2021-08-14T08:46:11.168Z</time>
      </trkpt>
      <trkpt lat="40.27568" lon="44.41636">
        <ele>1280.021266</ele>
        <time>2021-08-14T08:46:18.987Z</time>
      </trkpt>
      <trkpt lat="40.27575" lon="44.41653">
        <ele>1280.3285</ele>
        <time>2021-08-14T08:46:25.436Z</time>
      </trkpt>
      <trkpt lat="40.27639" lon="44.4179">
        <ele>1283.956464</ele>
        <time>2021-08-14T08:47:24.602Z</time>
      </trkpt>
      <trkpt lat="40.27767" lon="44.41966">
        <ele>1290.499744</ele>
        <time>2021-08-14T08:49:06.375Z</time>
      </trkpt>
      <trkpt lat="40.27802" lon="44.42013">
        <ele>1292.185487</ele>
        <time>2021-08-14T08:49:32.430Z</time>
      </trkpt>
      <trkpt lat="40.27806" lon="44.42018">
        <ele>1292.245213</ele>
        <time>2021-08-14T08:49:35.616Z</time>
      </trkpt>
      <trkpt lat="40.27822" lon="44.42032">
        <ele>1292.476734</ele>
        <time>2021-08-14T08:49:44.729Z</time>
      </trkpt>
      <trkpt lat="40.27835" lon="44.42022">
        <ele>1292.651155</ele>
        <time>2021-08-14T08:49:52.072Z</time>
      </trkpt>
      <trkpt lat="40.27875" lon="44.41982">
        <ele>1293.232594</ele>
        <time>2021-08-14T08:50:13.425Z</time>
      </trkpt>
      <trkpt lat="40.27897" lon="44.41958">
        <ele>1293.569024</ele>
        <time>2021-08-14T08:50:24.937Z</time>
      </trkpt>
      <trkpt lat="40.27907" lon="44.41948">
        <ele>1293.716943</ele>
        <time>2021-08-14T08:50:29.190Z</time>
      </trkpt>
      <trkpt lat="40.28188" lon="44.41635">
        <ele>1289.537926</ele>
        <time>2021-08-14T08:52:07.735Z</time>
      </trkpt>
      <trkpt lat="40.2864" lon="44.41148">
        <ele>1285.873479</ele>
        <time>2021-08-14T08:55:01.380Z</time>
      </trkpt>
      <trkpt lat="40.28727" lon="44.41061">
        <ele>1285.560211</ele>
        <time>2021-08-14T08:55:34.761Z</time>
      </trkpt>
      <trkpt lat="40.28829" lon="44.41015">
        <ele>1285.675914</ele>
        <time>2021-08-14T08:56:09.814Z</time>
      </trkpt>
      <trkpt lat="40.29071" lon="44.40938">
        <ele>1287.804396</ele>
        <time>2021-08-14T08:57:41.833Z</time>
      </trkpt>
      <trkpt lat="40.29094" lon="44.40915">
        <ele>1288.14862</ele>
        <time>2021-08-14T08:57:54.040Z</time>
      </trkpt>
      <trkpt lat="40.2915" lon="44.40917">
        <ele>1288.937631</ele>
        <time>2021-08-14T08:58:18.085Z</time>
      </trkpt>
      <trkpt lat="40.29182" lon="44.40955">
        <ele>1289.663163</ele>
        <time>2021-08-14T08:58:36.803Z</time>
      </trkpt>
      <trkpt lat="40.29232" lon="44.4099">
        <ele>1290.619422</ele>
        <time>2021-08-14T08:59:01.222Z</time>
      </trkpt>
      <trkpt lat="40.29258" lon="44.41029">
        <ele>1291.287031</ele>
        <time>2021-08-14T08:59:17.596Z</time>
      </trkpt>
      <trkpt lat="40.29286" lon="44.41051">
        <ele>1291.676428</ele>
        <time>2021-08-14T08:59:30.300Z</time>
      </trkpt>
      <trkpt lat="40.293" lon="44.41045">
        <ele>1291.784992</ele>
        <time>2021-08-14T08:59:35.721Z</time>
      </trkpt>
      <trkpt lat="40.29348" lon="44.40967">
        <ele>1292.358908</ele>
        <time>2021-08-14T09:00:03.327Z</time>
      </trkpt>
      <trkpt lat="40.29372" lon="44.40886">
        <ele>1292.852934</ele>
        <time>2021-08-14T09:00:25.952Z</time>
      </trkpt>
      <trkpt lat="40.29454" lon="44.40694">
        <ele>1294.687254</ele>
        <time>2021-08-14T09:01:29.970Z</time>
      </trkpt>
      <trkpt lat="40.29516" lon="44.40665">
        <ele>1294.98425</ele>
        <time>2021-08-14T09:01:59.608Z</time>
      </trkpt>
      <trkpt lat="40.29565" lon="44.40696">
        <ele>1295.097848</ele>
        <time>2021-08-14T09:02:20.265Z</time>
      </trkpt>
      <trkpt lat="40.29577" lon="44.40751">
        <ele>1295.188594</ele>
        <time>2021-08-14T09:02:34.464Z</time>
      </trkpt>
      <trkpt lat="40.2964" lon="44.40732">
        <ele>1293.312106</ele>
        <time>2021-08-14T09:03:02.839Z</time>
      </trkpt>
      <trkpt lat="40.29658" lon="44.4072">
        <ele>1292.098349</ele>
        <time>2021-08-14T09:03:10.864Z</time>
      </trkpt>
      <trkpt lat="40.29688" lon="44.40656">
        <ele>1288.599311</ele>
        <time>2021-08-14T09:03:32.624Z</time>
      </trkpt>
      <trkpt lat="40.29705" lon="44.40584">
        <ele>1285.13398</ele>
        <time>2021-08-14T09:03:52.697Z</time>
      </trkpt>
      <trkpt lat="40.29732" lon="44.40563">
        <ele>1282.423329</ele>
        <time>2021-08-14T09:04:03.444Z</time>
      </trkpt>
      <trkpt lat="40.29789" lon="44.40557">
        <ele>1276.328348</ele>
        <time>2021-08-14T09:04:23.067Z</time>
      </trkpt>
      <trkpt lat="40.29817" lon="44.40517">
        <ele>1271.983984</ele>
        <time>2021-08-14T09:04:37.020Z</time>
      </trkpt>
      <trkpt lat="40.29861" lon="44.40413">
        <ele>1262.797835</ele>
        <time>2021-08-14T09:05:07.640Z</time>
      </trkpt>
      <trkpt lat="40.29773" lon="44.40192">
        <ele>1245.782129</ele>
        <time>2021-08-14T09:05:44.344Z</time>
      </trkpt>
      <trkpt lat="40.29753" lon="44.40142">
        <ele>1242.699444</ele>
        <time>2021-08-14T09:05:52.954Z</time>
      </trkpt>
      <trkpt lat="40.29737" lon="44.40102">
        <ele>1240.239581</ele>
        <time>2021-08-14T09:05:59.870Z</time>
      </trkpt>
      <trkpt lat="40.29615" lon="44.39791">
        <ele>1225.214746</ele>
        <time>2021-08-14T09:06:55.501Z</time>
      </trkpt>
      <trkpt lat="40.29399" lon="44.39239">
        <ele>1209.806138</ele>
        <time>2021-08-14T09:08:44.231Z</time>
      </trkpt>
      <trkpt lat="40.29487" lon="44.39174">
        <ele>1206.531802</ele>
        <time>2021-08-14T09:09:07.535Z</time>
      </trkpt>
      <trkpt lat="40.2941" lon="44.38978">
        <ele>1200.798198</ele>
        <time>2021-08-14T09:09:47.387Z</time>
      </trkpt>
      <trkpt lat="40.29484" lon="44.38923">
        <ele>1197.689612</ele>
        <time>2021-08-14T09:10:07.310Z</time>
      </trkpt>
      <trkpt lat="40.29563" lon="44.38865">
        <ele>1194.652961</ele>
        <time>2021-08-14T09:10:28.321Z</time>
      </trkpt>
      <trkpt lat="40.29644" lon="44.38806">
        <ele>1191.809822</ele>
        <time>2021-08-14T09:10:50.845Z</time>
      </trkpt>
      <trkpt lat="40.29677" lon="44.38794">
        <ele>1190.764709</ele>
        <time>2021-08-14T09:10:59.316Z</time>
      </trkpt>
      <trkpt lat="40.29783" lon="44.38715">
        <ele>1187.548267</ele>
        <time>2021-08-14T09:11:29.515Z</time>
      </trkpt>
      <trkpt lat="40.29687" lon="44.385">
        <ele>1183.104559</ele>
        <time>2021-08-14T09:12:16.917Z</time>
      </trkpt>
      <trkpt lat="40.29612" lon="44.38554">
        <ele>1181.579712</ele>
        <time>2021-08-14T09:12:39.488Z</time>
      </trkpt>
      <trkpt lat="40.29579" lon="44.38545">
        <ele>1181.253141</ele>
        <time>2021-08-14T09:12:49.050Z</time>
      </trkpt>
      <trkpt lat="40.29567" lon="44.38502">
        <ele>1180.926654</ele>
        <time>2021-08-14T09:12:59.044Z</time>
      </trkpt>
      <trkpt lat="40.29588" lon="44.38345">
        <ele>1180.017885</ele>
        <time>2021-08-14T09:13:34.740Z</time>
      </trkpt>
      <trkpt lat="40.29507" lon="44.38098">
        <ele>1180.213854</ele>
        <time>2021-08-14T09:14:39.874Z</time>
      </trkpt>
      <trkpt lat="40.29461" lon="44.38033">
        <ele>1180.849813</ele>
        <time>2021-08-14T09:15:07.215Z</time>
      </trkpt>
      <trkpt lat="40.29423" lon="44.38005">
        <ele>1181.255217</ele>
        <time>2021-08-14T09:15:26.311Z</time>
      </trkpt>
      <trkpt lat="40.29338" lon="44.37905">
        <ele>1181.632556</ele>
        <time>2021-08-14T09:16:10.945Z</time>
      </trkpt>
      <trkpt lat="40.29332" lon="44.37888">
        <ele>1181.674052</ele>
        <time>2021-08-14T09:16:15.215Z</time>
      </trkpt>
      <trkpt lat="40.29334" lon="44.37861">
        <ele>1181.735359</ele>
        <time>2021-08-14T09:16:22.085Z</time>
      </trkpt>
      <trkpt lat="40.29365" lon="44.37842">
        <ele>1181.835375</ele>
        <time>2021-08-14T09:16:31.805Z</time>
      </trkpt>
      <trkpt lat="40.29388" lon="44.37816">
        <ele>1181.003688</ele>
        <time>2021-08-14T09:16:39.794Z</time>
      </trkpt>
      <trkpt lat="40.2946" lon="44.37636">
        <ele>1176.262598</ele>
        <time>2021-08-14T09:17:16.550Z</time>
      </trkpt>
      <trkpt lat="40.29472" lon="44.37588">
        <ele>1174.457237</ele>
        <time>2021-08-14T09:17:25.241Z</time>
      </trkpt>
      <trkpt lat="40.29478" lon="44.37546">
        <ele>1172.944622</ele>
        <time>2021-08-14T09:17:32.531Z</time>
      </trkpt>
      <trkpt lat="40.29485" lon="44.37508">
        <ele>1171.552353</ele>
        <time>2021-08-14T09:17:39.260Z</time>
      </trkpt>
      <trkpt lat="40.29508" lon="44.37489">
        <ele>1170.283573</ele>
        <time>2021-08-14T09:17:45.405Z</time>
      </trkpt>
      <trkpt lat="40.29541" lon="44.37457">
        <ele>1168.394567</ele>
        <time>2021-08-14T09:17:54.463Z</time>
      </trkpt>
      <trkpt lat="40.29567" lon="44.37433">
        <ele>1166.897273</ele>
        <time>2021-08-14T09:18:01.377Z</time>
      </trkpt>
      <trkpt lat="40.29644" lon="44.37373">
        <ele>1162.588906</ele>
        <time>2021-08-14T09:18:21.385Z</time>
      </trkpt>
      <trkpt lat="40.29646" lon="44.37366">
        <ele>1162.345629</ele>
        <time>2021-08-14T09:18:22.437Z</time>
      </trkpt>
      <trkpt lat="40.29641" lon="44.37313">
        <ele>1160.396424</ele>
        <time>2021-08-14T09:18:31.780Z</time>
      </trkpt>
      <trkpt lat="40.29632" lon="44.37287">
        <ele>1159.363779</ele>
        <time>2021-08-14T09:18:36.894Z</time>
      </trkpt>
      <trkpt lat="40.29623" lon="44.37269">
        <ele>1158.676402</ele>
        <time>2021-08-14T09:18:40.689Z</time>
      </trkpt>
      <trkpt lat="40.29604" lon="44.37249">
        <ele>1157.681832</ele>
        <time>2021-08-14T09:18:46.328Z</time>
      </trkpt>
      <trkpt lat="40.29519" lon="44.37229">
        <ele>1154.157575</ele>
        <time>2021-08-14T09:19:05.675Z</time>
      </trkpt>
      <trkpt lat="40.2949" lon="44.37184">
        <ele>1152.302841</ele>
        <time>2021-08-14T09:19:15.880Z</time>
      </trkpt>
      <trkpt lat="40.29459" lon="44.3711">
        <ele>1151.25315</ele>
        <time>2021-08-14T09:19:31.555Z</time>
      </trkpt>
      <trkpt lat="40.29453" lon="44.37107">
        <ele>1151.156613</ele>
        <time>2021-08-14T09:19:33.055Z</time>
      </trkpt>
      <trkpt lat="40.29349" lon="44.36869">
        <ele>1150.679457</ele>
        <time>2021-08-14T09:20:40.947Z</time>
      </trkpt>
      <trkpt lat="40.29299" lon="44.36908">
        <ele>1151.35644</ele>
        <time>2021-08-14T09:21:08.371Z</time>
      </trkpt>
      <trkpt lat="40.29281" lon="44.36921">
        <ele>1151.587991</ele>
        <time>2021-08-14T09:21:15.519Z</time>
      </trkpt>
      <trkpt lat="40.29273" lon="44.36927">
        <ele>1151.68733</ele>
        <time>2021-08-14T09:21:21.751Z</time>
      </trkpt>
      <trkpt lat="40.29229" lon="44.36826">
        <ele>1152.16369</ele>
        <time>2021-08-14T09:21:57.124Z</time>
      </trkpt>
      <trkpt lat="40.29211" lon="44.36786">
        <ele>1152.353665</ele>
        <time>2021-08-14T09:22:08.957Z</time>
      </trkpt>
      <trkpt lat="40.29192" lon="44.3674">
        <ele>1152.566116</ele>
        <time>2021-08-14T09:22:20.023Z</time>
      </trkpt>
      <trkpt lat="40.29146" lon="44.36632">
        <ele>1151.022423</ele>
        <time>2021-08-14T09:22:43.159Z</time>
      </trkpt>
      <trkpt lat="40.29104" lon="44.36529">
        <ele>1149.219658</ele>
        <time>2021-08-14T09:23:05.091Z</time>
      </trkpt>
      <trkpt lat="40.29065" lon="44.36438">
        <ele>1146.484481</ele>
        <time>2021-08-14T09:23:23.944Z</time>
      </trkpt>
      <trkpt lat="40.29056" lon="44.36421">
        <ele>1145.910589</ele>
        <time>2021-08-14T09:23:27.533Z</time>
      </trkpt>
      <trkpt lat="40.29032" lon="44.36361">
        <ele>1144.023817</ele>
        <time>2021-08-14T09:23:38.987Z</time>
      </trkpt>
      <trkpt lat="40.28977" lon="44.36221">
        <ele>1136.838244</ele>
        <time>2021-08-14T09:24:04.157Z</time>
      </trkpt>
      <trkpt lat="40.28971" lon="44.36203">
        <ele>1135.754779</ele>
        <time>2021-08-14T09:24:07.114Z</time>
      </trkpt>
      <trkpt lat="40.28963" lon="44.36162">
        <ele>1133.403183</ele>
        <time>2021-08-14T09:24:13.573Z</time>
      </trkpt>
      <trkpt lat="40.28961" lon="44.36155">
        <ele>1132.970281</ele>
        <time>2021-08-14T09:24:14.666Z</time>
      </trkpt>
      <trkpt lat="40.28961" lon="44.36091">
        <ele>1129.408805</ele>
        <time>2021-08-14T09:24:24.139Z</time>
      </trkpt>
      <trkpt lat="40.28973" lon="44.36014">
        <ele>1124.006563</ele>
        <time>2021-08-14T09:24:35.357Z</time>
      </trkpt>
      <trkpt lat="40.28997" lon="44.35951">
        <ele>1119.11538</ele>
        <time>2021-08-14T09:24:45.984Z</time>
      </trkpt>
      <trkpt lat="40.29049" lon="44.35823">
        <ele>1111.813674</ele>
        <time>2021-08-14T09:25:08.412Z</time>
      </trkpt>
      <trkpt lat="40.29063" lon="44.35788">
        <ele>1111.010924</ele>
        <time>2021-08-14T09:25:15.315Z</time>
      </trkpt>
      <trkpt lat="40.29079" lon="44.35744">
        <ele>1110.009684</ele>
        <time>2021-08-14T09:25:24.457Z</time>
      </trkpt>
      <trkpt lat="40.29082" lon="44.35737">
        <ele>1109.840469</ele>
        <time>2021-08-14T09:25:26.944Z</time>
      </trkpt>
      <trkpt lat="40.29109" lon="44.35669">
        <ele>1108.279915</ele>
        <time>2021-08-14T09:25:45.236Z</time>
      </trkpt>
      <trkpt lat="40.29115" lon="44.35654">
        <ele>1108.166982</ele>
        <time>2021-08-14T09:25:50.616Z</time>
      </trkpt>
      <trkpt lat="40.29126" lon="44.35627">
        <ele>1108.21261</ele>
        <time>2021-08-14T09:26:01.454Z</time>
      </trkpt>
      <trkpt lat="40.29174" lon="44.35486">
        <ele>1108.440942</ele>
        <time>2021-08-14T09:26:41.133Z</time>
      </trkpt>
      <trkpt lat="40.29183" lon="44.35448">
        <ele>1108.499406</ele>
        <time>2021-08-14T09:26:48.842Z</time>
      </trkpt>
      <trkpt lat="40.29205" lon="44.35326">
        <ele>1107.299549</ele>
        <time>2021-08-14T09:27:13.476Z</time>
      </trkpt>
      <trkpt lat="40.29205" lon="44.35315">
        <ele>1107.197028</ele>
        <time>2021-08-14T09:27:15.607Z</time>
      </trkpt>
      <trkpt lat="40.29213" lon="44.35268">
        <ele>1106.735583</ele>
        <time>2021-08-14T09:27:25.383Z</time>
      </trkpt>
      <trkpt lat="40.29222" lon="44.35191">
        <ele>1105.883062</ele>
        <time>2021-08-14T09:27:41.565Z</time>
      </trkpt>
      <trkpt lat="40.2924" lon="44.35128">
        <ele>1104.931962</ele>
        <time>2021-08-14T09:27:55.448Z</time>
      </trkpt>
      <trkpt lat="40.29263" lon="44.35084">
        <ele>1104.185668</ele>
        <time>2021-08-14T09:28:05.623Z</time>
      </trkpt>
      <trkpt lat="40.29289" lon="44.35057">
        <ele>1103.580044</ele>
        <time>2021-08-14T09:28:13.549Z</time>
      </trkpt>
      <trkpt lat="40.2936" lon="44.34995">
        <ele>1101.343835</ele>
        <time>2021-08-14T09:28:33.417Z</time>
      </trkpt>
      <trkpt lat="40.2939" lon="44.3498">
        <ele>1100.343931</ele>
        <time>2021-08-14T09:28:40.459Z</time>
      </trkpt>
      <trkpt lat="40.29491" lon="44.34952">
        <ele>1097.18395</ele>
        <time>2021-08-14T09:29:03.782Z</time>
      </trkpt>
      <trkpt lat="40.29514" lon="44.34941">
        <ele>1096.77804</ele>
        <time>2021-08-14T09:29:09.518Z</time>
      </trkpt>
      <trkpt lat="40.29528" lon="44.3493">
        <ele>1096.519324</ele>
        <time>2021-08-14T09:29:13.367Z</time>
      </trkpt>
      <trkpt lat="40.29537" lon="44.34924">
        <ele>1096.353487</ele>
        <time>2021-08-14T09:29:15.875Z</time>
      </trkpt>
      <trkpt lat="40.29632" lon="44.34855">
        <ele>1094.572818</ele>
        <time>2021-08-14T09:29:44.584Z</time>
      </trkpt>
      <trkpt lat="40.29643" lon="44.34836">
        <ele>1094.333056</ele>
        <time>2021-08-14T09:29:49.589Z</time>
      </trkpt>
      <trkpt lat="40.29651" lon="44.34815">
        <ele>1094.266946</ele>
        <time>2021-08-14T09:29:54.910Z</time>
      </trkpt>
      <trkpt lat="40.29665" lon="44.34756">
        <ele>1094.088259</ele>
        <time>2021-08-14T09:30:09.612Z</time>
      </trkpt>
      <trkpt lat="40.29669" lon="44.34732">
        <ele>1094.017749</ele>
        <time>2021-08-14T09:30:15.303Z</time>
      </trkpt>
      <trkpt lat="40.29685" lon="44.34682">
        <ele>1093.863503</ele>
        <time>2021-08-14T09:30:27.802Z</time>
      </trkpt>
      <trkpt lat="40.29695" lon="44.3466">
        <ele>1093.789888</ele>
        <time>2021-08-14T09:30:33.614Z</time>
      </trkpt>
      <trkpt lat="40.29729" lon="44.34606">
        <ele>1093.468106</ele>
        <time>2021-08-14T09:30:48.802Z</time>
      </trkpt>
      <trkpt lat="40.29735" lon="44.34595">
        <ele>1093.367556</ele>
        <time>2021-08-14T09:30:51.776Z</time>
      </trkpt>
      <trkpt lat="40.2974" lon="44.3458">
        <ele>1093.246355</ele>
        <time>2021-08-14T09:30:55.272Z</time>
      </trkpt>
      <trkpt lat="40.29745" lon="44.34534">
        <ele>1092.91519</ele>
        <time>2021-08-14T09:31:05.046Z</time>
      </trkpt>
      <trkpt lat="40.29745" lon="44.34509">
        <ele>1092.730196</ele>
        <time>2021-08-14T09:31:10.588Z</time>
      </trkpt>
      <trkpt lat="40.29747" lon="44.34389">
        <ele>1091.737525</ele>
        <time>2021-08-14T09:31:34.896Z</time>
      </trkpt>
      <trkpt lat="40.29745" lon="44.34307">
        <ele>1090.361665</ele>
        <time>2021-08-14T09:31:50.448Z</time>
      </trkpt>
      <trkpt lat="40.29734" lon="44.3419">
        <ele>1088.386216</ele>
        <time>2021-08-14T09:32:11.892Z</time>
      </trkpt>
      <trkpt lat="40.29735" lon="44.34151">
        <ele>1087.585843</ele>
        <time>2021-08-14T09:32:18.955Z</time>
      </trkpt>
      <trkpt lat="40.2974" lon="44.34126">
        <ele>1086.954668</ele>
        <time>2021-08-14T09:32:23.406Z</time>
      </trkpt>
      <trkpt lat="40.29814" lon="44.33898">
        <ele>1080.670496</ele>
        <time>2021-08-14T09:33:06.248Z</time>
      </trkpt>
      <trkpt lat="40.2982" lon="44.33815">
        <ele>1078.481409</ele>
        <time>2021-08-14T09:33:20.414Z</time>
      </trkpt>
      <trkpt lat="40.29819" lon="44.33715">
        <ele>1075.843279</ele>
        <time>2021-08-14T09:33:37.714Z</time>
      </trkpt>
      <trkpt lat="40.29814" lon="44.33671">
        <ele>1074.953388</ele>
        <time>2021-08-14T09:33:45.320Z</time>
      </trkpt>
      <trkpt lat="40.29735" lon="44.33338">
        <ele>1068.708488</ele>
        <time>2021-08-14T09:34:49.018Z</time>
      </trkpt>
      <trkpt lat="40.2965" lon="44.33058">
        <ele>1065.722643</ele>
        <time>2021-08-14T09:35:50.246Z</time>
      </trkpt>
      <trkpt lat="40.29645" lon="44.32998">
        <ele>1065.56322</ele>
        <time>2021-08-14T09:36:03.674Z</time>
      </trkpt>
      <trkpt lat="40.29681" lon="44.32592">
        <ele>1065.342019</ele>
        <time>2021-08-14T09:37:40.630Z</time>
      </trkpt>
      <trkpt lat="40.29673" lon="44.32429">
        <ele>1065.433152</ele>
        <time>2021-08-14T09:38:21.204Z</time>
      </trkpt>
      <trkpt lat="40.29672" lon="44.32268">
        <ele>1065.29273</ele>
        <time>2021-08-14T09:38:59.268Z</time>
      </trkpt>
      <trkpt lat="40.29667" lon="44.32054">
        <ele>1064.763786</ele>
        <time>2021-08-14T09:39:46.417Z</time>
      </trkpt>
      <trkpt lat="40.29667" lon="44.32046">
        <ele>1064.74396</ele>
        <time>2021-08-14T09:39:48.118Z</time>
      </trkpt>
      <trkpt lat="40.29665" lon="44.31972">
        <ele>1064.570147</ele>
        <time>2021-08-14T09:40:04.688Z</time>
      </trkpt>
      <trkpt lat="40.29658" lon="44.31674">
        <ele>1063.974798</ele>
        <time>2021-08-14T09:41:14.354Z</time>
      </trkpt>
      <trkpt lat="40.29657" lon="44.31644">
        <ele>1063.921676</ele>
        <time>2021-08-14T09:41:20.811Z</time>
      </trkpt>
      <trkpt lat="40.29651" lon="44.31173">
        <ele>1060.886902</ele>
        <time>2021-08-14T09:42:58.862Z</time>
      </trkpt>
      <trkpt lat="40.29654" lon="44.31038">
        <ele>1060.237621</ele>
        <time>2021-08-14T09:43:29.919Z</time>
      </trkpt>
      <trkpt lat="40.29653" lon="44.31001">
        <ele>1060.066442</ele>
        <time>2021-08-14T09:43:38.136Z</time>
      </trkpt>
      <trkpt lat="40.29651" lon="44.30958">
        <ele>1059.861388</ele>
        <time>2021-08-14T09:43:47.799Z</time>
      </trkpt>
      <trkpt lat="40.2965" lon="44.30912">
        <ele>1059.460216</ele>
        <time>2021-08-14T09:43:57.431Z</time>
      </trkpt>
      <trkpt lat="40.2964" lon="44.30524">
        <ele>1052.760474</ele>
        <time>2021-08-14T09:45:08.746Z</time>
      </trkpt>
      <trkpt lat="40.29639" lon="44.30438">
        <ele>1051.263454</ele>
        <time>2021-08-14T09:45:23.876Z</time>
      </trkpt>
      <trkpt lat="40.29639" lon="44.30411">
        <ele>1050.970417</ele>
        <time>2021-08-14T09:45:28.467Z</time>
      </trkpt>
      <trkpt lat="40.29637" lon="44.30195">
        <ele>1049.426743</ele>
        <time>2021-08-14T09:46:11.581Z</time>
      </trkpt>
      <trkpt lat="40.29632" lon="44.29935">
        <ele>1054.803093</ele>
        <time>2021-08-14T09:47:50.899Z</time>
      </trkpt>
      <trkpt lat="40.29629" lon="44.29743">
        <ele>1059.960527</ele>
        <time>2021-08-14T09:49:09.139Z</time>
      </trkpt>
      <trkpt lat="40.29624" lon="44.29318">
        <ele>1067.181276</ele>
        <time>2021-08-14T09:51:28.312Z</time>
      </trkpt>
      <trkpt lat="40.29675" lon="44.29328">
        <ele>1068.305749</ele>
        <time>2021-08-14T09:51:50.780Z</time>
      </trkpt>
      <trkpt lat="40.29679" lon="44.29329">
        <ele>1068.395957</ele>
        <time>2021-08-14T09:51:52.578Z</time>
      </trkpt>
      <trkpt lat="40.29679" lon="44.29134">
        <ele>1071.746799</ele>
        <time>2021-08-14T09:53:00.005Z</time>
      </trkpt>
      <trkpt lat="40.29679" lon="44.28709">
        <ele>1079.281262</ele>
        <time>2021-08-14T09:55:30.226Z</time>
      </trkpt>
      <trkpt lat="40.2968" lon="44.28696">
        <ele>1079.495537</ele>
        <time>2021-08-14T09:55:34.747Z</time>
      </trkpt>
      <trkpt lat="40.29677" lon="44.28695">
        <ele>1079.571991</ele>
        <time>2021-08-14T09:55:35.947Z</time>
      </trkpt>
      <trkpt lat="40.29631" lon="44.2867">
        <ele>1080.295882</ele>
        <time>2021-08-14T09:55:55.847Z</time>
      </trkpt>
      <trkpt lat="40.29613" lon="44.28667">
        <ele>1080.411434</ele>
        <time>2021-08-14T09:56:03.199Z</time>
      </trkpt>
      <trkpt lat="40.29611" lon="44.28473">
        <ele>1081.260759</ele>
        <time>2021-08-14T09:56:53.039Z</time>
      </trkpt>
      <trkpt lat="40.29601" lon="44.28169">
        <ele>1080.174563</ele>
        <time>2021-08-14T09:57:59.716Z</time>
      </trkpt>
      <trkpt lat="40.29599" lon="44.28097">
        <ele>1079.792555</ele>
        <time>2021-08-14T09:58:14.179Z</time>
      </trkpt>
      <trkpt lat="40.296" lon="44.28057">
        <ele>1079.579943</ele>
        <time>2021-08-14T09:58:22.276Z</time>
      </trkpt>
      <trkpt lat="40.29599" lon="44.2802">
        <ele>1079.384203</ele>
        <time>2021-08-14T09:58:30.013Z</time>
      </trkpt>
      <trkpt lat="40.29592" lon="44.27874">
        <ele>1081.161752</ele>
        <time>2021-08-14T09:59:09.177Z</time>
      </trkpt>
      <trkpt lat="40.29591" lon="44.2783">
        <ele>1081.725755</ele>
        <time>2021-08-14T09:59:24.584Z</time>
      </trkpt>
      <trkpt lat="40.29586" lon="44.27653">
        <ele>1086.353741</ele>
        <time>2021-08-14T10:00:38.487Z</time>
      </trkpt>
      <trkpt lat="40.29596" lon="44.27452">
        <ele>1092.59797</ele>
        <time>2021-08-14T10:02:03.230Z</time>
      </trkpt>
      <trkpt lat="40.29599" lon="44.27292">
        <ele>1097.440303</ele>
        <time>2021-08-14T10:03:06.228Z</time>
      </trkpt>
      <trkpt lat="40.296" lon="44.27255">
        <ele>1098.653753</ele>
        <time>2021-08-14T10:03:21.228Z</time>
      </trkpt>
      <trkpt lat="40.29616" lon="44.26882">
        <ele>1110.820428</ele>
        <time>2021-08-14T10:06:01.495Z</time>
      </trkpt>
      <trkpt lat="40.29621" lon="44.26735">
        <ele>1115.28664</ele>
        <time>2021-08-14T10:06:59.190Z</time>
      </trkpt>
      <trkpt lat="40.29634" lon="44.26432">
        <ele>1125.419163</ele>
        <time>2021-08-14T10:09:02.468Z</time>
      </trkpt>
      <trkpt lat="40.29651" lon="44.25946">
        <ele>1149.267588</ele>
        <time>2021-08-14T10:13:19.324Z</time>
      </trkpt>
      <trkpt lat="40.29634" lon="44.25795">
        <ele>1156.398045</ele>
        <time>2021-08-14T10:14:37.516Z</time>
      </trkpt>
      <trkpt lat="40.2958" lon="44.2554">
        <ele>1167.397663</ele>
        <time>2021-08-14T10:16:40.399Z</time>
      </trkpt>
      <trkpt lat="40.2956" lon="44.25452">
        <ele>1170.971865</ele>
        <time>2021-08-14T10:17:21.883Z</time>
      </trkpt>
      <trkpt lat="40.29523" lon="44.25305">
        <ele>1176.096243</ele>
        <time>2021-08-14T10:18:29.327Z</time>
      </trkpt>
      <trkpt lat="40.29513" lon="44.25298">
        <ele>1176.603388</ele>
        <time>2021-08-14T10:18:36.900Z</time>
      </trkpt>
      <trkpt lat="40.29383" lon="44.25233">
        <ele>1180.63918</ele>
        <time>2021-08-14T10:19:48.413Z</time>
      </trkpt>
      <trkpt lat="40.29371" lon="44.25222">
        <ele>1180.907559</ele>
        <time>2021-08-14T10:19:55.032Z</time>
      </trkpt>
      <trkpt lat="40.29362" lon="44.25206">
        <ele>1181.181261</ele>
        <time>2021-08-14T10:20:01.110Z</time>
      </trkpt>
      <trkpt lat="40.29321" lon="44.25063">
        <ele>1181.819325</ele>
        <time>2021-08-14T10:20:39.929Z</time>
      </trkpt>
      <trkpt lat="40.29286" lon="44.24992">
        <ele>1180.810208</ele>
        <time>2021-08-14T10:20:57.133Z</time>
      </trkpt>
      <trkpt lat="40.29189" lon="44.24904">
        <ele>1178.455415</ele>
        <time>2021-08-14T10:21:26.062Z</time>
      </trkpt>
      <trkpt lat="40.29131" lon="44.24782">
        <ele>1175.483775</ele>
        <time>2021-08-14T10:21:53.099Z</time>
      </trkpt>
      <trkpt lat="40.29085" lon="44.2466">
        <ele>1172.448686</ele>
        <time>2021-08-14T10:22:19.088Z</time>
      </trkpt>
      <trkpt lat="40.28964" lon="44.24308">
        <ele>1162.207188</ele>
        <time>2021-08-14T10:23:29.082Z</time>
      </trkpt>
      <trkpt lat="40.28945" lon="44.24239">
        <ele>1158.712561</ele>
        <time>2021-08-14T10:23:41.439Z</time>
      </trkpt>
      <trkpt lat="40.28949" lon="44.24003">
        <ele>1146.766437</ele>
        <time>2021-08-14T10:24:19.211Z</time>
      </trkpt>
      <trkpt lat="40.28962" lon="44.23898">
        <ele>1140.811298</ele>
        <time>2021-08-14T10:24:36.073Z</time>
      </trkpt>
      <trkpt lat="40.2896" lon="44.2386">
        <ele>1138.691968</ele>
        <time>2021-08-14T10:24:42.164Z</time>
      </trkpt>
      <trkpt lat="40.28954" lon="44.23836">
        <ele>1137.48342</ele>
        <time>2021-08-14T10:24:46.161Z</time>
      </trkpt>
      <trkpt lat="40.28941" lon="44.23815">
        <ele>1136.185343</ele>
        <time>2021-08-14T10:24:50.450Z</time>
      </trkpt>
      <trkpt lat="40.28918" lon="44.2379">
        <ele>1134.305585</ele>
        <time>2021-08-14T10:24:56.699Z</time>
      </trkpt>
      <trkpt lat="40.28875" lon="44.23769">
        <ele>1131.352236</ele>
        <time>2021-08-14T10:25:06.602Z</time>
      </trkpt>
      <trkpt lat="40.28842" lon="44.23769">
        <ele>1129.27547</ele>
        <time>2021-08-14T10:25:13.667Z</time>
      </trkpt>
      <trkpt lat="40.28836" lon="44.23755">
        <ele>1128.492118</ele>
        <time>2021-08-14T10:25:16.353Z</time>
      </trkpt>
      <trkpt lat="40.28839" lon="44.23746">
        <ele>1128.003985</ele>
        <time>2021-08-14T10:25:18.031Z</time>
      </trkpt>
      <trkpt lat="40.28882" lon="44.23726">
        <ele>1125.765813</ele>
        <time>2021-08-14T10:25:27.863Z</time>
      </trkpt>
      <trkpt lat="40.28929" lon="44.23683">
        <ele>1123.072183</ele>
        <time>2021-08-14T10:25:40.907Z</time>
      </trkpt>
      <trkpt lat="40.28963" lon="44.23671">
        <ele>1121.474033</ele>
        <time>2021-08-14T10:25:48.775Z</time>
      </trkpt>
      <trkpt lat="40.28969" lon="44.23663">
        <ele>1121.04943</ele>
        <time>2021-08-14T10:25:50.853Z</time>
      </trkpt>
      <trkpt lat="40.2897" lon="44.23653">
        <ele>1120.706134</ele>
        <time>2021-08-14T10:25:52.547Z</time>
      </trkpt>
      <trkpt lat="40.28962" lon="44.23642">
        <ele>1120.169022</ele>
        <time>2021-08-14T10:25:55.214Z</time>
      </trkpt>
      <trkpt lat="40.28919" lon="44.23648">
        <ele>1118.197151</ele>
        <time>2021-08-14T10:26:05.020Z</time>
      </trkpt>
      <trkpt lat="40.28846" lon="44.23629">
        <ele>1114.755161</ele>
        <time>2021-08-14T10:26:22.070Z</time>
      </trkpt>
      <trkpt lat="40.28813" lon="44.23635">
        <ele>1113.239539</ele>
        <time>2021-08-14T10:26:29.453Z</time>
      </trkpt>
      <trkpt lat="40.28805" lon="44.23629">
        <ele>1112.780468</ele>
        <time>2021-08-14T10:26:31.671Z</time>
      </trkpt>
      <trkpt lat="40.28801" lon="44.23617">
        <ele>1112.314704</ele>
        <time>2021-08-14T10:26:33.914Z</time>
      </trkpt>
      <trkpt lat="40.28806" lon="44.23606">
        <ele>1111.846902</ele>
        <time>2021-08-14T10:26:36.164Z</time>
      </trkpt>
      <trkpt lat="40.28816" lon="44.236">
        <ele>1111.341178</ele>
        <time>2021-08-14T10:26:38.577Z</time>
      </trkpt>
      <trkpt lat="40.28839" lon="44.23601">
        <ele>1110.157672</ele>
        <time>2021-08-14T10:26:43.497Z</time>
      </trkpt>
      <trkpt lat="40.28852" lon="44.23593">
        <ele>1109.270023</ele>
        <time>2021-08-14T10:26:46.654Z</time>
      </trkpt>
      <trkpt lat="40.28874" lon="44.23568">
        <ele>1107.48897</ele>
        <time>2021-08-14T10:26:52.950Z</time>
      </trkpt>
      <trkpt lat="40.28883" lon="44.23548">
        <ele>1106.404339</ele>
        <time>2021-08-14T10:26:56.764Z</time>
      </trkpt>
      <trkpt lat="40.28888" lon="44.23512">
        <ele>1104.720454</ele>
        <time>2021-08-14T10:27:02.655Z</time>
      </trkpt>
      <trkpt lat="40.28872" lon="44.2334">
        <ele>1097.192723</ele>
        <time>2021-08-14T10:27:30.858Z</time>
      </trkpt>
      <trkpt lat="40.28863" lon="44.23296">
        <ele>1095.418616</ele>
        <time>2021-08-14T10:27:38.449Z</time>
      </trkpt>
      <trkpt lat="40.28833" lon="44.23224">
        <ele>1092.208698</ele>
        <time>2021-08-14T10:27:52.572Z</time>
      </trkpt>
      <trkpt lat="40.28826" lon="44.23192">
        <ele>1090.913336</ele>
        <time>2021-08-14T10:27:58.480Z</time>
      </trkpt>
      <trkpt lat="40.2882" lon="44.2312">
        <ele>1089.555483</ele>
        <time>2021-08-14T10:28:11.682Z</time>
      </trkpt>
      <trkpt lat="40.28829" lon="44.23087">
        <ele>1088.982291</ele>
        <time>2021-08-14T10:28:18.318Z</time>
      </trkpt>
      <trkpt lat="40.28784" lon="44.22955">
        <ele>1086.615174</ele>
        <time>2021-08-14T10:28:48.214Z</time>
      </trkpt>
      <trkpt lat="40.28784" lon="44.2292">
        <ele>1086.176818</ele>
        <time>2021-08-14T10:28:55.893Z</time>
      </trkpt>
      <trkpt lat="40.28811" lon="44.229">
        <ele>1085.675329</ele>
        <time>2021-08-14T10:29:04.628Z</time>
      </trkpt>
      <trkpt lat="40.28787" lon="44.22742">
        <ele>1083.574593</ele>
        <time>2021-08-14T10:29:36.045Z</time>
      </trkpt>
      <trkpt lat="40.28733" lon="44.22401">
        <ele>1076.665736</ele>
        <time>2021-08-14T10:30:37.525Z</time>
      </trkpt>
      <trkpt lat="40.2869" lon="44.22125">
        <ele>1073.404866</ele>
        <time>2021-08-14T10:31:32.719Z</time>
      </trkpt>
      <trkpt lat="40.28629" lon="44.21736">
        <ele>1072.73687</ele>
        <time>2021-08-14T10:33:07.856Z</time>
      </trkpt>
      <trkpt lat="40.28521" lon="44.21065">
        <ele>1071.645999</ele>
        <time>2021-08-14T10:35:44.353Z</time>
      </trkpt>
      <trkpt lat="40.28427" lon="44.20488">
        <ele>1071.213977</ele>
        <time>2021-08-14T10:38:01.067Z</time>
      </trkpt>
      <trkpt lat="40.28276" lon="44.19527">
        <ele>1077.189651</ele>
        <time>2021-08-14T10:42:26.183Z</time>
      </trkpt>
      <trkpt lat="40.28249" lon="44.19403">
        <ele>1080.510435</ele>
        <time>2021-08-14T10:43:16.667Z</time>
      </trkpt>
      <trkpt lat="40.28223" lon="44.19299">
        <ele>1083.445423</ele>
        <time>2021-08-14T10:44:02.211Z</time>
      </trkpt>
      <trkpt lat="40.28216" lon="44.19216">
        <ele>1085.622987</ele>
        <time>2021-08-14T10:44:36.355Z</time>
      </trkpt>
      <trkpt lat="40.28206" lon="44.19152">
        <ele>1087.312204</ele>
        <time>2021-08-14T10:45:01.853Z</time>
      </trkpt>
      <trkpt lat="40.28173" lon="44.19021">
        <ele>1090.684526</ele>
        <time>2021-08-14T10:45:50.317Z</time>
      </trkpt>
      <trkpt lat="40.2808" lon="44.18694">
        <ele>1098.866805</ele>
        <time>2021-08-14T10:47:57.113Z</time>
      </trkpt>
      <trkpt lat="40.28075" lon="44.18646">
        <ele>1100.096139</ele>
        <time>2021-08-14T10:48:16.239Z</time>
      </trkpt>
      <trkpt lat="40.28068" lon="44.18396">
        <ele>1108.150707</ele>
        <time>2021-08-14T10:50:02.223Z</time>
      </trkpt>
      <trkpt lat="40.28078" lon="44.18303">
        <ele>1111.281203</ele>
        <time>2021-08-14T10:50:44.319Z</time>
      </trkpt>
      <trkpt lat="40.28118" lon="44.18183">
        <ele>1115.644875</ele>
        <time>2021-08-14T10:51:40.232Z</time>
      </trkpt>
      <trkpt lat="40.28173" lon="44.18047">
        <ele>1119.075814</ele>
        <time>2021-08-14T10:52:38.863Z</time>
      </trkpt>
      <trkpt lat="40.28401" lon="44.17478">
        <ele>1128.096799</ele>
        <time>2021-08-14T10:55:57.036Z</time>
      </trkpt>
      <trkpt lat="40.28435" lon="44.17336">
        <ele>1130.190331</ele>
        <time>2021-08-14T10:56:43.554Z</time>
      </trkpt>
      <trkpt lat="40.2847" lon="44.17112">
        <ele>1134.424813</ele>
        <time>2021-08-14T10:58:01.593Z</time>
      </trkpt>
      <trkpt lat="40.28476" lon="44.17062">
        <ele>1135.489266</ele>
        <time>2021-08-14T10:58:19.753Z</time>
      </trkpt>
      <trkpt lat="40.28507" lon="44.16877">
        <ele>1140.168367</ele>
        <time>2021-08-14T10:59:32.750Z</time>
      </trkpt>
      <trkpt lat="40.28527" lon="44.16813">
        <ele>1141.761235</ele>
        <time>2021-08-14T10:59:58.286Z</time>
      </trkpt>
      <trkpt lat="40.28538" lon="44.16777">
        <ele>1142.655629</ele>
        <time>2021-08-14T11:00:12.919Z</time>
      </trkpt>
      <trkpt lat="40.28552" lon="44.16738">
        <ele>1143.619404</ele>
        <time>2021-08-14T11:00:28.591Z</time>
      </trkpt>
      <trkpt lat="40.28598" lon="44.16638">
        <ele>1146.22238</ele>
        <time>2021-08-14T11:01:11.025Z</time>
      </trkpt>
      <trkpt lat="40.28686" lon="44.1646">
        <ele>1149.77353</ele>
        <time>2021-08-14T11:02:21.680Z</time>
      </trkpt>
      <trkpt lat="40.28806" lon="44.16245">
        <ele>1153.061829</ele>
        <time>2021-08-14T11:03:41.218Z</time>
      </trkpt>
      <trkpt lat="40.28884" lon="44.16105">
        <ele>1155.777934</ele>
        <time>2021-08-14T11:04:36.884Z</time>
      </trkpt>
      <trkpt lat="40.28934" lon="44.16017">
        <ele>1157.829832</ele>
        <time>2021-08-14T11:05:15.327Z</time>
      </trkpt>
      <trkpt lat="40.29021" lon="44.15862">
        <ele>1161.903834</ele>
        <time>2021-08-14T11:06:24.784Z</time>
      </trkpt>
      <trkpt lat="40.2921" lon="44.15531">
        <ele>1170.889601</ele>
        <time>2021-08-14T11:08:53.715Z</time>
      </trkpt>
      <trkpt lat="40.29252" lon="44.15456">
        <ele>1172.80407</ele>
        <time>2021-08-14T11:09:26.386Z</time>
      </trkpt>
      <trkpt lat="40.29281" lon="44.15358">
        <ele>1174.904512</ele>
        <time>2021-08-14T11:10:03.144Z</time>
      </trkpt>
      <trkpt lat="40.29296" lon="44.15254">
        <ele>1177.056876</ele>
        <time>2021-08-14T11:10:40.183Z</time>
      </trkpt>
      <trkpt lat="40.29317" lon="44.15103">
        <ele>1180.318831</ele>
        <time>2021-08-14T11:11:34.266Z</time>
      </trkpt>
      <trkpt lat="40.29356" lon="44.14865">
        <ele>1186.126251</ele>
        <time>2021-08-14T11:13:03.797Z</time>
      </trkpt>
      <trkpt lat="40.2937" lon="44.1474">
        <ele>1189.767334</ele>
        <time>2021-08-14T11:13:55.264Z</time>
      </trkpt>
      <trkpt lat="40.29379" lon="44.14655">
        <ele>1192.448826</ele>
        <time>2021-08-14T11:14:30.823Z</time>
      </trkpt>
      <trkpt lat="40.29402" lon="44.14642">
        <ele>1193.461868</ele>
        <time>2021-08-14T11:14:44.548Z</time>
      </trkpt>
      <trkpt lat="40.29472" lon="44.14604">
        <ele>1196.872128</ele>
        <time>2021-08-14T11:15:26.014Z</time>
      </trkpt>
      <trkpt lat="40.29453" lon="44.14549">
        <ele>1199.062365</ele>
        <time>2021-08-14T11:15:52.575Z</time>
      </trkpt>
      <trkpt lat="40.29652" lon="44.14385">
        <ele>1210.599795</ele>
        <time>2021-08-14T11:18:17.690Z</time>
      </trkpt>
      <trkpt lat="40.29912" lon="44.1417">
        <ele>1222.654546</ele>
        <time>2021-08-14T11:21:06.589Z</time>
      </trkpt>
      <trkpt lat="40.2994" lon="44.14163">
        <ele>1223.583418</ele>
        <time>2021-08-14T11:21:20.927Z</time>
      </trkpt>
      <trkpt lat="40.29945" lon="44.14145">
        <ele>1224.072399</ele>
        <time>2021-08-14T11:21:28.668Z</time>
      </trkpt>
      <trkpt lat="40.29949" lon="44.14126">
        <ele>1224.566988</ele>
        <time>2021-08-14T11:21:35.463Z</time>
      </trkpt>
      <trkpt lat="40.29945" lon="44.14102">
        <ele>1225.171577</ele>
        <time>2021-08-14T11:21:44.123Z</time>
      </trkpt>
      <trkpt lat="40.29924" lon="44.14025">
        <ele>1225.329154</ele>
        <time>2021-08-14T11:22:09.621Z</time>
      </trkpt>
      <trkpt lat="40.29901" lon="44.13933">
        <ele>1225.205411</ele>
        <time>2021-08-14T11:22:33.585Z</time>
      </trkpt>
      <trkpt lat="40.29827" lon="44.13655">
        <ele>1220.830366</ele>
        <time>2021-08-14T11:23:29.507Z</time>
      </trkpt>
      <trkpt lat="40.29805" lon="44.1343">
        <ele>1216.482207</ele>
        <time>2021-08-14T11:24:12.225Z</time>
      </trkpt>
      <trkpt lat="40.29768" lon="44.13132">
        <ele>1214.662923</ele>
        <time>2021-08-14T11:25:15.004Z</time>
      </trkpt>
      <trkpt lat="40.29757" lon="44.13072">
        <ele>1215.889303</ele>
        <time>2021-08-14T11:25:34.596Z</time>
      </trkpt>
      <trkpt lat="40.2971" lon="44.1289">
        <ele>1221.415528</ele>
        <time>2021-08-14T11:27:00.728Z</time>
      </trkpt>
      <trkpt lat="40.29706" lon="44.12855">
        <ele>1223.071</ele>
        <time>2021-08-14T11:27:21.940Z</time>
      </trkpt>
      <trkpt lat="40.29708" lon="44.1282">
        <ele>1224.65985</ele>
        <time>2021-08-14T11:27:41.863Z</time>
      </trkpt>
      <trkpt lat="40.29722" lon="44.12735">
        <ele>1228.678423</ele>
        <time>2021-08-14T11:28:25.219Z</time>
      </trkpt>
      <trkpt lat="40.29722" lon="44.12728">
        <ele>1229.001831</ele>
        <time>2021-08-14T11:28:31.476Z</time>
      </trkpt>
      <trkpt lat="40.29723" lon="44.12706">
        <ele>1229.588152</ele>
        <time>2021-08-14T11:28:40.917Z</time>
      </trkpt>
      <trkpt lat="40.29717" lon="44.12632">
        <ele>1231.206509</ele>
        <time>2021-08-14T11:29:16.061Z</time>
      </trkpt>
      <trkpt lat="40.29702" lon="44.12546">
        <ele>1233.108405</ele>
        <time>2021-08-14T11:29:48.553Z</time>
      </trkpt>
      <trkpt lat="40.29594" lon="44.12331">
        <ele>1232.278624</ele>
        <time>2021-08-14T11:30:42.921Z</time>
      </trkpt>
      <trkpt lat="40.29526" lon="44.12195">
        <ele>1230.257586</ele>
        <time>2021-08-14T11:31:13.956Z</time>
      </trkpt>
      <trkpt lat="40.29515" lon="44.12173">
        <ele>1229.916307</ele>
        <time>2021-08-14T11:31:18.972Z</time>
      </trkpt>
      <trkpt lat="40.29508" lon="44.11987">
        <ele>1228.983233</ele>
        <time>2021-08-14T11:31:59.208Z</time>
      </trkpt>
      <trkpt lat="40.29502" lon="44.11813">
        <ele>1229.033492</ele>
        <time>2021-08-14T11:32:47.862Z</time>
      </trkpt>
      <trkpt lat="40.29499" lon="44.11738">
        <ele>1228.825844</ele>
        <time>2021-08-14T11:33:06.607Z</time>
      </trkpt>
      <trkpt lat="40.29504" lon="44.11674">
        <ele>1228.650587</ele>
        <time>2021-08-14T11:33:20.202Z</time>
      </trkpt>
      <trkpt lat="40.2951" lon="44.11576">
        <ele>1227.68417</ele>
        <time>2021-08-14T11:33:39.198Z</time>
      </trkpt>
      <trkpt lat="40.2952" lon="44.11509">
        <ele>1226.447887</ele>
        <time>2021-08-14T11:33:51.541Z</time>
      </trkpt>
      <trkpt lat="40.2969" lon="44.10821">
        <ele>1214.125758</ele>
        <time>2021-08-14T11:36:03.655Z</time>
      </trkpt>
      <trkpt lat="40.29714" lon="44.10776">
        <ele>1213.460346</ele>
        <time>2021-08-14T11:36:15.126Z</time>
      </trkpt>
      <trkpt lat="40.29727" lon="44.10738">
        <ele>1212.95262</ele>
        <time>2021-08-14T11:36:24.156Z</time>
      </trkpt>
      <trkpt lat="40.29733" lon="44.10701">
        <ele>1212.7711</ele>
        <time>2021-08-14T11:36:32.542Z</time>
      </trkpt>
      <trkpt lat="40.29735" lon="44.10645">
        <ele>1212.651789</ele>
        <time>2021-08-14T11:36:45.464Z</time>
      </trkpt>
      <trkpt lat="40.29876" lon="44.10074">
        <ele>1211.285429</ele>
        <time>2021-08-14T11:39:02.029Z</time>
      </trkpt>
      <trkpt lat="40.29898" lon="44.09984">
        <ele>1210.984778</ele>
        <time>2021-08-14T11:39:22.771Z</time>
      </trkpt>
      <trkpt lat="40.29999" lon="44.09583">
        <ele>1210.985375</ele>
        <time>2021-08-14T11:40:56.881Z</time>
      </trkpt>
      <trkpt lat="40.30393" lon="44.08042">
        <ele>1257.065076</ele>
        <time>2021-08-14T11:51:47.499Z</time>
      </trkpt>
      <trkpt lat="40.30429" lon="44.07906">
        <ele>1262.588321</ele>
        <time>2021-08-14T11:52:52.027Z</time>
      </trkpt>
      <trkpt lat="40.3044" lon="44.07868">
        <ele>1264.176054</ele>
        <time>2021-08-14T11:53:10.636Z</time>
      </trkpt>
      <trkpt lat="40.30452" lon="44.07867">
        <ele>1264.809413</ele>
        <time>2021-08-14T11:53:19.224Z</time>
      </trkpt>
      <trkpt lat="40.30675" lon="44.07751">
        <ele>1278.022864</ele>
        <time>2021-08-14T11:55:51.550Z</time>
      </trkpt>
      <trkpt lat="40.30809" lon="44.07666">
        <ele>1285.184988</ele>
        <time>2021-08-14T11:57:17.541Z</time>
      </trkpt>
      <trkpt lat="40.3081" lon="44.07563">
        <ele>1287.621046</ele>
        <time>2021-08-14T11:57:57.438Z</time>
      </trkpt>
      <trkpt lat="40.3081" lon="44.07516">
        <ele>1288.705284</ele>
        <time>2021-08-14T11:58:14.210Z</time>
      </trkpt>
      <trkpt lat="40.30789" lon="44.07411">
        <ele>1291.028224</ele>
        <time>2021-08-14T11:58:50.862Z</time>
      </trkpt>
      <trkpt lat="40.30725" lon="44.07278">
        <ele>1293.120433</ele>
        <time>2021-08-14T11:59:40.637Z</time>
      </trkpt>
      <trkpt lat="40.30678" lon="44.07176">
        <ele>1294.30405</ele>
        <time>2021-08-14T12:00:15.582Z</time>
      </trkpt>
      <trkpt lat="40.30665" lon="44.07141">
        <ele>1294.567214</ele>
        <time>2021-08-14T12:00:26.135Z</time>
      </trkpt>
      <trkpt lat="40.30657" lon="44.07097">
        <ele>1294.881534</ele>
        <time>2021-08-14T12:00:38.298Z</time>
      </trkpt>
      <trkpt lat="40.3066" lon="44.07056">
        <ele>1295.163987</ele>
        <time>2021-08-14T12:00:48.953Z</time>
      </trkpt>
      <trkpt lat="40.30669" lon="44.07017">
        <ele>1295.439071</ele>
        <time>2021-08-14T12:00:59.426Z</time>
      </trkpt>
      <trkpt lat="40.30717" lon="44.06913">
        <ele>1296.826387</ele>
        <time>2021-08-14T12:01:33.093Z</time>
      </trkpt>
      <trkpt lat="40.30724" lon="44.06849">
        <ele>1297.574861</ele>
        <time>2021-08-14T12:01:52.984Z</time>
      </trkpt>
      <trkpt lat="40.30722" lon="44.06815">
        <ele>1297.968094</ele>
        <time>2021-08-14T12:02:04.019Z</time>
      </trkpt>
      <trkpt lat="40.30709" lon="44.06787">
        <ele>1298.535173</ele>
        <time>2021-08-14T12:02:15.223Z</time>
      </trkpt>
      <trkpt lat="40.30705" lon="44.0677">
        <ele>1299.038875</ele>
        <time>2021-08-14T12:02:21.379Z</time>
      </trkpt>
      <trkpt lat="40.30873" lon="44.0611">
        <ele>1319.312541</ele>
        <time>2021-08-14T12:07:04.259Z</time>
      </trkpt>
      <trkpt lat="40.31628" lon="44.03021">
        <ele>1408.836999</ele>
        <time>2021-08-14T12:28:19.684Z</time>
      </trkpt>
      <trkpt lat="40.3168" lon="44.02838">
        <ele>1412.675735</ele>
        <time>2021-08-14T12:29:25.446Z</time>
      </trkpt>
      <trkpt lat="40.31701" lon="44.02775">
        <ele>1413.916202</ele>
        <time>2021-08-14T12:29:47.699Z</time>
      </trkpt>
      <trkpt lat="40.31685" lon="44.02794">
        <ele>1414.57215</ele>
        <time>2021-08-14T12:29:57.457Z</time>
      </trkpt>
      <trkpt lat="40.31674" lon="44.02803">
        <ele>1415.031114</ele>
        <time>2021-08-14T12:30:03.182Z</time>
      </trkpt>
      <trkpt lat="40.31679" lon="44.02811">
        <ele>1415.314799</ele>
        <time>2021-08-14T12:30:06.929Z</time>
      </trkpt>
      <trkpt lat="40.31682" lon="44.02824">
        <ele>1415.689371</ele>
        <time>2021-08-14T12:30:11.811Z</time>
      </trkpt>
      <trkpt lat="40.3168" lon="44.02838">
        <ele>1416.085065</ele>
        <time>2021-08-14T12:30:16.981Z</time>
      </trkpt>
      <trkpt lat="40.3168" lon="44.02838">
        <ele>1416.085065</ele>
        <time>2021-08-14T12:30:17.014Z</time>
      </trkpt>
      <trkpt lat="40.31701" lon="44.02775">
        <ele>1418.002819</ele>
        <time>2021-08-14T12:30:43.783Z</time>
      </trkpt>
      <trkpt lat="40.31744" lon="44.02601">
        <ele>1423.619437</ele>
        <time>2021-08-14T12:32:02.963Z</time>
      </trkpt>
      <trkpt lat="40.3199" lon="44.01635">
        <ele>1456.670838</ele>
        <time>2021-08-14T12:39:18.577Z</time>
      </trkpt>
      <trkpt lat="40.32345" lon="44.00193">
        <ele>1467.124974</ele>
        <time>2021-08-14T12:46:06.947Z</time>
      </trkpt>
      <trkpt lat="40.32362" lon="44.00124">
        <ele>1468.283429</ele>
        <time>2021-08-14T12:46:30.094Z</time>
      </trkpt>
      <trkpt lat="40.32368" lon="44.00099">
        <ele>1468.707186</ele>
        <time>2021-08-14T12:46:38.641Z</time>
      </trkpt>
      <trkpt lat="40.32379" lon="44.00048">
        <ele>1469.558609</ele>
        <time>2021-08-14T12:46:55.723Z</time>
      </trkpt>
      <trkpt lat="40.32407" lon="43.99941">
        <ele>1471.959772</ele>
        <time>2021-08-14T12:47:37.631Z</time>
      </trkpt>
      <trkpt lat="40.32414" lon="43.99916">
        <ele>1472.6847</ele>
        <time>2021-08-14T12:47:48.228Z</time>
      </trkpt>
      <trkpt lat="40.32423" lon="43.9988">
        <ele>1473.699694</ele>
        <time>2021-08-14T12:48:02.881Z</time>
      </trkpt>
      <trkpt lat="40.32437" lon="43.99828">
        <ele>1475.210503</ele>
        <time>2021-08-14T12:48:25.142Z</time>
      </trkpt>
      <trkpt lat="40.32468" lon="43.99704">
        <ele>1478.753404</ele>
        <time>2021-08-14T12:49:17.801Z</time>
      </trkpt>
      <trkpt lat="40.32874" lon="43.98126">
        <ele>1524.894697</ele>
        <time>2021-08-14T13:00:07.485Z</time>
      </trkpt>
      <trkpt lat="40.32904" lon="43.98009">
        <ele>1529.23676</ele>
        <time>2021-08-14T13:01:03.385Z</time>
      </trkpt>
      <trkpt lat="40.32957" lon="43.97877">
        <ele>1535.362124</ele>
        <time>2021-08-14T13:02:15.153Z</time>
      </trkpt>
      <trkpt lat="40.33079" lon="43.97649">
        <ele>1546.756463</ele>
        <time>2021-08-14T13:04:27.208Z</time>
      </trkpt>
      <trkpt lat="40.3311" lon="43.97596">
        <ele>1549.433835</ele>
        <time>2021-08-14T13:04:57.063Z</time>
      </trkpt>
      <trkpt lat="40.33172" lon="43.97471">
        <ele>1554.461923</ele>
        <time>2021-08-14T13:06:00.492Z</time>
      </trkpt>
      <trkpt lat="40.33203" lon="43.97436">
        <ele>1556.245084</ele>
        <time>2021-08-14T13:06:22.460Z</time>
      </trkpt>
      <trkpt lat="40.33221" lon="43.97434">
        <ele>1557.051917</ele>
        <time>2021-08-14T13:06:32.195Z</time>
      </trkpt>
      <trkpt lat="40.33258" lon="43.97448">
        <ele>1558.958373</ele>
        <time>2021-08-14T13:06:53.372Z</time>
      </trkpt>
      <trkpt lat="40.33334" lon="43.97435">
        <ele>1562.915291</ele>
        <time>2021-08-14T13:07:37.256Z</time>
      </trkpt>
      <trkpt lat="40.33867" lon="43.97383">
        <ele>1595.369346</ele>
        <time>2021-08-14T13:13:26.687Z</time>
      </trkpt>
      <trkpt lat="40.33975" lon="43.97366">
        <ele>1602.430171</ele>
        <time>2021-08-14T13:14:44.364Z</time>
      </trkpt>
      <trkpt lat="40.34011" lon="43.97354">
        <ele>1604.759224</ele>
        <time>2021-08-14T13:15:10.566Z</time>
      </trkpt>
      <trkpt lat="40.34084" lon="43.97313">
        <ele>1609.698225</ele>
        <time>2021-08-14T13:16:04.537Z</time>
      </trkpt>
      <trkpt lat="40.34544" lon="43.97014">
        <ele>1633.603991</ele>
        <time>2021-08-14T13:20:55.060Z</time>
      </trkpt>
      <trkpt lat="40.34642" lon="43.96937">
        <ele>1637.670625</ele>
        <time>2021-08-14T13:21:55.704Z</time>
      </trkpt>
      <trkpt lat="40.34696" lon="43.96883">
        <ele>1639.403305</ele>
        <time>2021-08-14T13:22:28.371Z</time>
      </trkpt>
      <trkpt lat="40.34929" lon="43.96319">
        <ele>1643.336111</ele>
        <time>2021-08-14T13:25:29.607Z</time>
      </trkpt>
      <trkpt lat="40.35115" lon="43.95856">
        <ele>1633.785377</ele>
        <time>2021-08-14T13:27:02.555Z</time>
      </trkpt>
      <trkpt lat="40.35151" lon="43.95758">
        <ele>1631.196551</ele>
        <time>2021-08-14T13:27:21.027Z</time>
      </trkpt>
      <trkpt lat="40.35169" lon="43.95668">
        <ele>1629.106105</ele>
        <time>2021-08-14T13:27:37.025Z</time>
      </trkpt>
      <trkpt lat="40.35171" lon="43.95612">
        <ele>1627.831669</ele>
        <time>2021-08-14T13:27:46.884Z</time>
      </trkpt>
      <trkpt lat="40.35155" lon="43.9538">
        <ele>1624.303407</ele>
        <time>2021-08-14T13:28:30.290Z</time>
      </trkpt>
      <trkpt lat="40.35153" lon="43.95251">
        <ele>1622.89609</ele>
        <time>2021-08-14T13:28:58.832Z</time>
      </trkpt>
      <trkpt lat="40.35154" lon="43.95226">
        <ele>1622.650681</ele>
        <time>2021-08-14T13:29:04.486Z</time>
      </trkpt>
      <trkpt lat="40.35163" lon="43.95179">
        <ele>1622.184285</ele>
        <time>2021-08-14T13:29:14.786Z</time>
      </trkpt>
      <trkpt lat="40.35172" lon="43.95129">
        <ele>1621.689842</ele>
        <time>2021-08-14T13:29:25.080Z</time>
      </trkpt>
      <trkpt lat="40.35197" lon="43.95075">
        <ele>1621.035664</ele>
        <time>2021-08-14T13:29:36.994Z</time>
      </trkpt>
      <trkpt lat="40.35226" lon="43.95033">
        <ele>1619.311341</ele>
        <time>2021-08-14T13:29:47.179Z</time>
      </trkpt>
      <trkpt lat="40.35505" lon="43.94711">
        <ele>1604.887644</ele>
        <time>2021-08-14T13:31:06.785Z</time>
      </trkpt>
      <trkpt lat="40.35563" lon="43.94644">
        <ele>1603.743604</ele>
        <time>2021-08-14T13:31:27.283Z</time>
      </trkpt>
      <trkpt lat="40.35655" lon="43.94549">
        <ele>1604.750707</ele>
        <time>2021-08-14T13:32:14.950Z</time>
      </trkpt>
      <trkpt lat="40.35693" lon="43.94532">
        <ele>1605.687356</ele>
        <time>2021-08-14T13:32:33.973Z</time>
      </trkpt>
      <trkpt lat="40.36689" lon="43.9437">
        <ele>1635.905042</ele>
        <time>2021-08-14T13:40:31.624Z</time>
      </trkpt>
      <trkpt lat="40.37099" lon="43.94166">
        <ele>1659.569636</ele>
        <time>2021-08-14T13:45:08.875Z</time>
      </trkpt>
      <trkpt lat="40.37297" lon="43.94065">
        <ele>1669.911595</ele>
        <time>2021-08-14T13:47:11.661Z</time>
      </trkpt>
      <trkpt lat="40.37361" lon="43.94025">
        <ele>1672.924554</ele>
        <time>2021-08-14T13:47:50.144Z</time>
      </trkpt>
      <trkpt lat="40.37424" lon="43.93982">
        <ele>1675.785991</ele>
        <time>2021-08-14T13:48:30.235Z</time>
      </trkpt>
      <trkpt lat="40.37443" lon="43.93968">
        <ele>1676.65918</ele>
        <time>2021-08-14T13:48:42.490Z</time>
      </trkpt>
      <trkpt lat="40.37459" lon="43.93955">
        <ele>1677.396841</ele>
        <time>2021-08-14T13:48:52.159Z</time>
      </trkpt>
      <trkpt lat="40.37461" lon="43.93953">
        <ele>1677.536151</ele>
        <time>2021-08-14T13:48:54.055Z</time>
      </trkpt>
      <trkpt lat="40.37496" lon="43.9392">
        <ele>1678.800102</ele>
        <time>2021-08-14T13:49:15.097Z</time>
      </trkpt>
      <trkpt lat="40.37512" lon="43.93904">
        <ele>1679.031968</ele>
        <time>2021-08-14T13:49:24.127Z</time>
      </trkpt>
      <trkpt lat="40.37549" lon="43.93857">
        <ele>1679.6145</ele>
        <time>2021-08-14T13:49:45.054Z</time>
      </trkpt>
      <trkpt lat="40.37561" lon="43.93839">
        <ele>1679.820387</ele>
        <time>2021-08-14T13:49:51.639Z</time>
      </trkpt>
      <trkpt lat="40.37573" lon="43.93822">
        <ele>1680.012504</ele>
        <time>2021-08-14T13:49:57.707Z</time>
      </trkpt>
      <trkpt lat="40.3761" lon="43.93756">
        <ele>1680.579356</ele>
        <time>2021-08-14T13:50:16.794Z</time>
      </trkpt>
      <trkpt lat="40.3762" lon="43.93736">
        <ele>1680.349054</ele>
        <time>2021-08-14T13:50:21.264Z</time>
      </trkpt>
      <trkpt lat="40.37643" lon="43.93685">
        <ele>1679.758652</ele>
        <time>2021-08-14T13:50:32.799Z</time>
      </trkpt>
      <trkpt lat="40.3767" lon="43.93617">
        <ele>1678.984559</ele>
        <time>2021-08-14T13:50:47.149Z</time>
      </trkpt>
      <trkpt lat="40.37755" lon="43.9337">
        <ele>1677.134874</ele>
        <time>2021-08-14T13:51:43.912Z</time>
      </trkpt>
      <trkpt lat="40.37763" lon="43.93348">
        <ele>1676.991674</ele>
        <time>2021-08-14T13:51:49.630Z</time>
      </trkpt>
      <trkpt lat="40.37773" lon="43.93318">
        <ele>1677.018187</ele>
        <time>2021-08-14T13:51:57.010Z</time>
      </trkpt>
      <trkpt lat="40.37794" lon="43.93258">
        <ele>1677.250651</ele>
        <time>2021-08-14T13:52:12.195Z</time>
      </trkpt>
      <trkpt lat="40.37857" lon="43.93059">
        <ele>1678.206557</ele>
        <time>2021-08-14T13:53:11.267Z</time>
      </trkpt>
      <trkpt lat="40.37906" lon="43.93035">
        <ele>1678.652861</ele>
        <time>2021-08-14T13:53:33.896Z</time>
      </trkpt>
      <trkpt lat="40.37988" lon="43.92982">
        <ele>1678.760257</ele>
        <time>2021-08-14T13:54:06.454Z</time>
      </trkpt>
      <trkpt lat="40.38027" lon="43.9296">
        <ele>1677.320556</ele>
        <time>2021-08-14T13:54:18.803Z</time>
      </trkpt>
      <trkpt lat="40.38009" lon="43.9282">
        <ele>1673.686149</ele>
        <time>2021-08-14T13:54:42.567Z</time>
      </trkpt>
      <trkpt lat="40.38072" lon="43.92445">
        <ele>1651.785923</ele>
        <time>2021-08-14T13:55:40.076Z</time>
      </trkpt>
      <trkpt lat="40.38095" lon="43.92107">
        <ele>1634.788326</ele>
        <time>2021-08-14T13:56:32.421Z</time>
      </trkpt>
      <trkpt lat="40.38107" lon="43.92059">
        <ele>1633.70836</ele>
        <time>2021-08-14T13:56:40.919Z</time>
      </trkpt>
      <trkpt lat="40.38122" lon="43.91772">
        <ele>1629.064404</ele>
        <time>2021-08-14T13:57:38.463Z</time>
      </trkpt>
      <trkpt lat="40.38134" lon="43.91687">
        <ele>1628.347546</ele>
        <time>2021-08-14T13:57:57.451Z</time>
      </trkpt>
      <trkpt lat="40.38234" lon="43.91199">
        <ele>1627.864262</ele>
        <time>2021-08-14T14:00:00.635Z</time>
      </trkpt>
      <trkpt lat="40.38249" lon="43.9116">
        <ele>1628.111011</ele>
        <time>2021-08-14T14:00:12.438Z</time>
      </trkpt>
      <trkpt lat="40.38322" lon="43.91044">
        <ele>1629.45508</ele>
        <time>2021-08-14T14:00:57.700Z</time>
      </trkpt>
      <trkpt lat="40.38366" lon="43.90985">
        <ele>1630.193251</ele>
        <time>2021-08-14T14:01:24.104Z</time>
      </trkpt>
      <trkpt lat="40.3839" lon="43.90888">
        <ele>1631.080489</ele>
        <time>2021-08-14T14:01:55.194Z</time>
      </trkpt>
      <trkpt lat="40.38518" lon="43.90341">
        <ele>1634.451006</ele>
        <time>2021-08-14T14:04:26.960Z</time>
      </trkpt>
      <trkpt lat="40.38627" lon="43.89862">
        <ele>1638.737737</ele>
        <time>2021-08-14T14:06:51.819Z</time>
      </trkpt>
      <trkpt lat="40.38641" lon="43.89795">
        <ele>1638.703013</ele>
        <time>2021-08-14T14:07:10.765Z</time>
      </trkpt>
      <trkpt lat="40.38644" lon="43.89784">
        <ele>1638.69749</ele>
        <time>2021-08-14T14:07:13.485Z</time>
      </trkpt>
      <trkpt lat="40.38685" lon="43.89155">
        <ele>1637.537881</ele>
        <time>2021-08-14T14:09:36.344Z</time>
      </trkpt>
      <trkpt lat="40.38689" lon="43.88977">
        <ele>1635.553551</ele>
        <time>2021-08-14T14:10:11.204Z</time>
      </trkpt>
      <trkpt lat="40.38664" lon="43.88762">
        <ele>1631.784504</ele>
        <time>2021-08-14T14:10:50.896Z</time>
      </trkpt>
      <trkpt lat="40.38649" lon="43.88567">
        <ele>1627.561483</ele>
        <time>2021-08-14T14:11:25.721Z</time>
      </trkpt>
      <trkpt lat="40.38644" lon="43.88503">
        <ele>1626.099739</ele>
        <time>2021-08-14T14:11:36.963Z</time>
      </trkpt>
      <trkpt lat="40.38631" lon="43.88398">
        <ele>1623.88944</ele>
        <time>2021-08-14T14:11:55.600Z</time>
      </trkpt>
      <trkpt lat="40.38632" lon="43.88341">
        <ele>1622.742909</ele>
        <time>2021-08-14T14:12:05.713Z</time>
      </trkpt>
      <trkpt lat="40.38643" lon="43.88312">
        <ele>1622.090621</ele>
        <time>2021-08-14T14:12:11.517Z</time>
      </trkpt>
      <trkpt lat="40.38656" lon="43.8829">
        <ele>1621.526197</ele>
        <time>2021-08-14T14:12:16.724Z</time>
      </trkpt>
      <trkpt lat="40.38688" lon="43.88242">
        <ele>1620.507631</ele>
        <time>2021-08-14T14:12:28.573Z</time>
      </trkpt>
      <trkpt lat="40.3869" lon="43.88244">
        <ele>1620.482523</ele>
        <time>2021-08-14T14:12:29.267Z</time>
      </trkpt>
      <trkpt lat="40.38692" lon="43.88245">
        <ele>1620.457482</ele>
        <time>2021-08-14T14:12:29.993Z</time>
      </trkpt>
      <trkpt lat="40.38695" lon="43.88244">
        <ele>1620.432934</ele>
        <time>2021-08-14T14:12:30.656Z</time>
      </trkpt>
      <trkpt lat="40.38699" lon="43.8824">
        <ele>1620.383153</ele>
        <time>2021-08-14T14:12:32.024Z</time>
      </trkpt>
      <trkpt lat="40.38701" lon="43.88237">
        <ele>1620.357677</ele>
        <time>2021-08-14T14:12:32.683Z</time>
      </trkpt>
      <trkpt lat="40.38701" lon="43.88234">
        <ele>1620.332521</ele>
        <time>2021-08-14T14:12:33.336Z</time>
      </trkpt>
      <trkpt lat="40.387" lon="43.8823">
        <ele>1620.307788</ele>
        <time>2021-08-14T14:12:34.030Z</time>
      </trkpt>
      <trkpt lat="40.38699" lon="43.88227">
        <ele>1620.279105</ele>
        <time>2021-08-14T14:12:34.771Z</time>
      </trkpt>
      <trkpt lat="40.38723" lon="43.88173">
        <ele>1619.832087</ele>
        <time>2021-08-14T14:12:47.280Z</time>
      </trkpt>
      <trkpt lat="40.38795" lon="43.87937">
        <ele>1618.443238</ele>
        <time>2021-08-14T14:13:44.827Z</time>
      </trkpt>
      <trkpt lat="40.38824" lon="43.87842">
        <ele>1618.040274</ele>
        <time>2021-08-14T14:14:06.695Z</time>
      </trkpt>
      <trkpt lat="40.38857" lon="43.87732">
        <ele>1617.420332</ele>
        <time>2021-08-14T14:14:30.940Z</time>
      </trkpt>
      <trkpt lat="40.38873" lon="43.8768">
        <ele>1617.123783</ele>
        <time>2021-08-14T14:14:42.461Z</time>
      </trkpt>
      <trkpt lat="40.38937" lon="43.87473">
        <ele>1617.984535</ele>
        <time>2021-08-14T14:15:35.992Z</time>
      </trkpt>
      <trkpt lat="40.38984" lon="43.87367">
        <ele>1620.486179</ele>
        <time>2021-08-14T14:16:18.821Z</time>
      </trkpt>
      <trkpt lat="40.3902" lon="43.87319">
        <ele>1623.21307</ele>
        <time>2021-08-14T14:16:48.539Z</time>
      </trkpt>
      <trkpt lat="40.39075" lon="43.87288">
        <ele>1626.48357</ele>
        <time>2021-08-14T14:17:29.402Z</time>
      </trkpt>
      <trkpt lat="40.39092" lon="43.87284">
        <ele>1627.408221</ele>
        <time>2021-08-14T14:17:41.082Z</time>
      </trkpt>
      <trkpt lat="40.39109" lon="43.87286">
        <ele>1628.388557</ele>
        <time>2021-08-14T14:17:54.508Z</time>
      </trkpt>
      <trkpt lat="40.39149" lon="43.87302">
        <ele>1631.573624</ele>
        <time>2021-08-14T14:18:25.367Z</time>
      </trkpt>
      <trkpt lat="40.3931" lon="43.87391">
        <ele>1644.119463</ele>
        <time>2021-08-14T14:20:38.535Z</time>
      </trkpt>
      <trkpt lat="40.39394" lon="43.87409">
        <ele>1648.292678</ele>
        <time>2021-08-14T14:21:29.762Z</time>
      </trkpt>
      <trkpt lat="40.39445" lon="43.87389">
        <ele>1650.927799</ele>
        <time>2021-08-14T14:21:55.206Z</time>
      </trkpt>
      <trkpt lat="40.3949" lon="43.8736">
        <ele>1651.592261</ele>
        <time>2021-08-14T14:22:15.011Z</time>
      </trkpt>
      <trkpt lat="40.3952" lon="43.87319">
        <ele>1652.021639</ele>
        <time>2021-08-14T14:22:30.676Z</time>
      </trkpt>
      <trkpt lat="40.39543" lon="43.87284">
        <ele>1652.365466</ele>
        <time>2021-08-14T14:22:41.910Z</time>
      </trkpt>
      <trkpt lat="40.39562" lon="43.87257">
        <ele>1652.637889</ele>
        <time>2021-08-14T14:22:50.332Z</time>
      </trkpt>
      <trkpt lat="40.39625" lon="43.87043">
        <ele>1654.875715</ele>
        <time>2021-08-14T14:23:52.647Z</time>
      </trkpt>
      <trkpt lat="40.39654" lon="43.86968">
        <ele>1656.608826</ele>
        <time>2021-08-14T14:24:23.856Z</time>
      </trkpt>
      <trkpt lat="40.39709" lon="43.86922">
        <ele>1659.290686</ele>
        <time>2021-08-14T14:24:58.737Z</time>
      </trkpt>
      <trkpt lat="40.3979" lon="43.86898">
        <ele>1662.726476</ele>
        <time>2021-08-14T14:25:47.001Z</time>
      </trkpt>
      <trkpt lat="40.40214" lon="43.86792">
        <ele>1687.018895</ele>
        <time>2021-08-14T14:30:11.013Z</time>
      </trkpt>
      <trkpt lat="40.40236" lon="43.86786">
        <ele>1688.594726</ele>
        <time>2021-08-14T14:30:28.346Z</time>
      </trkpt>
      <trkpt lat="40.40291" lon="43.86759">
        <ele>1692.767</ele>
        <time>2021-08-14T14:31:12.603Z</time>
      </trkpt>
      <trkpt lat="40.40309" lon="43.86743">
        <ele>1694.348438</ele>
        <time>2021-08-14T14:31:30.079Z</time>
      </trkpt>
      <trkpt lat="40.40359" lon="43.86677">
        <ele>1700.084833</ele>
        <time>2021-08-14T14:32:27.653Z</time>
      </trkpt>
      <trkpt lat="40.40404" lon="43.86611">
        <ele>1705.593784</ele>
        <time>2021-08-14T14:33:19.681Z</time>
      </trkpt>
      <trkpt lat="40.40546" lon="43.86389">
        <ele>1721.924109</ele>
        <time>2021-08-14T14:36:00.251Z</time>
      </trkpt>
      <trkpt lat="40.40564" lon="43.8637">
        <ele>1722.998908</ele>
        <time>2021-08-14T14:36:15.121Z</time>
      </trkpt>
      <trkpt lat="40.40594" lon="43.86345">
        <ele>1724.427321</ele>
        <time>2021-08-14T14:36:37.908Z</time>
      </trkpt>
      <trkpt lat="40.40625" lon="43.86328">
        <ele>1725.740409</ele>
        <time>2021-08-14T14:36:58.092Z</time>
      </trkpt>
      <trkpt lat="40.40989" lon="43.86156">
        <ele>1738.892979</ele>
        <time>2021-08-14T14:40:10.096Z</time>
      </trkpt>
      <trkpt lat="40.41041" lon="43.86124">
        <ele>1740.078343</ele>
        <time>2021-08-14T14:40:30.998Z</time>
      </trkpt>
      <trkpt lat="40.41689" lon="43.85629">
        <ele>1729.597464</ele>
        <time>2021-08-14T14:43:42.940Z</time>
      </trkpt>
      <trkpt lat="40.41694" lon="43.85627">
        <ele>1729.528806</ele>
        <time>2021-08-14T14:43:44.361Z</time>
      </trkpt>
      <trkpt lat="40.41705" lon="43.85622">
        <ele>1729.380511</ele>
        <time>2021-08-14T14:43:47.620Z</time>
      </trkpt>
      <trkpt lat="40.41752" lon="43.85614">
        <ele>1728.787468</ele>
        <time>2021-08-14T14:44:00.281Z</time>
      </trkpt>
      <trkpt lat="40.41778" lon="43.85619">
        <ele>1728.464975</ele>
        <time>2021-08-14T14:44:07.193Z</time>
      </trkpt>
      <trkpt lat="40.41856" lon="43.85654">
        <ele>1727.33226</ele>
        <time>2021-08-14T14:44:29.066Z</time>
      </trkpt>
      <trkpt lat="40.41919" lon="43.85698">
        <ele>1725.952884</ele>
        <time>2021-08-14T14:44:47.144Z</time>
      </trkpt>
      <trkpt lat="40.42244" lon="43.85932">
        <ele>1719.446893</ele>
        <time>2021-08-14T14:46:17.702Z</time>
      </trkpt>
      <trkpt lat="40.43169" lon="43.86745">
        <ele>1716.307108</ele>
        <time>2021-08-14T14:51:51.696Z</time>
      </trkpt>
      <trkpt lat="40.43744" lon="43.87246">
        <ele>1716.983894</ele>
        <time>2021-08-14T14:55:28.415Z</time>
      </trkpt>
      <trkpt lat="40.4397" lon="43.87443">
        <ele>1719.441097</ele>
        <time>2021-08-14T14:57:07.206Z</time>
      </trkpt>
      <trkpt lat="40.43978" lon="43.8745">
        <ele>1719.614772</ele>
        <time>2021-08-14T14:57:11.710Z</time>
      </trkpt>
      <trkpt lat="40.44022" lon="43.87488">
        <ele>1720.522561</ele>
        <time>2021-08-14T14:57:34.208Z</time>
      </trkpt>
      <trkpt lat="40.44035" lon="43.875">
        <ele>1720.802776</ele>
        <time>2021-08-14T14:57:41.633Z</time>
      </trkpt>
      <trkpt lat="40.44059" lon="43.87516">
        <ele>1721.267121</ele>
        <time>2021-08-14T14:57:52.681Z</time>
      </trkpt>
      <trkpt lat="40.4409" lon="43.87527">
        <ele>1721.830224</ele>
        <time>2021-08-14T14:58:06.006Z</time>
      </trkpt>
      <trkpt lat="40.44126" lon="43.87528">
        <ele>1722.39405</ele>
        <time>2021-08-14T14:58:20.712Z</time>
      </trkpt>
      <trkpt lat="40.44161" lon="43.87524">
        <ele>1722.585944</ele>
        <time>2021-08-14T14:58:34.424Z</time>
      </trkpt>
      <trkpt lat="40.44296" lon="43.87465">
        <ele>1723.348468</ele>
        <time>2021-08-14T14:59:20.661Z</time>
      </trkpt>
      <trkpt lat="40.44317" lon="43.87455">
        <ele>1723.350303</ele>
        <time>2021-08-14T14:59:26.752Z</time>
      </trkpt>
      <trkpt lat="40.44509" lon="43.87371">
        <ele>1723.840143</ele>
        <time>2021-08-14T15:00:30.003Z</time>
      </trkpt>
      <trkpt lat="40.44537" lon="43.87354">
        <ele>1724.140345</ele>
        <time>2021-08-14T15:00:41.572Z</time>
      </trkpt>
      <trkpt lat="40.44563" lon="43.87328">
        <ele>1724.463997</ele>
        <time>2021-08-14T15:00:54.126Z</time>
      </trkpt>
      <trkpt lat="40.44587" lon="43.87294">
        <ele>1724.817813</ele>
        <time>2021-08-14T15:01:07.949Z</time>
      </trkpt>
      <trkpt lat="40.44621" lon="43.87224">
        <ele>1725.776055</ele>
        <time>2021-08-14T15:01:32.695Z</time>
      </trkpt>
      <trkpt lat="40.44689" lon="43.87096">
        <ele>1728.297243</ele>
        <time>2021-08-14T15:02:23.761Z</time>
      </trkpt>
      <trkpt lat="40.44708" lon="43.87051">
        <ele>1729.220111</ele>
        <time>2021-08-14T15:02:40.869Z</time>
      </trkpt>
      <trkpt lat="40.44902" lon="43.86471">
        <ele>1744.837748</ele>
        <time>2021-08-14T15:06:45.072Z</time>
      </trkpt>
      <trkpt lat="40.45003" lon="43.86131">
        <ele>1750.635859</ele>
        <time>2021-08-14T15:08:34.912Z</time>
      </trkpt>
      <trkpt lat="40.45061" lon="43.85881">
        <ele>1759.346878</ele>
        <time>2021-08-14T15:10:17.499Z</time>
      </trkpt>
      <trkpt lat="40.45107" lon="43.85589">
        <ele>1778.74913</ele>
        <time>2021-08-14T15:13:23.370Z</time>
      </trkpt>
      <trkpt lat="40.45121" lon="43.85533">
        <ele>1783.299756</ele>
        <time>2021-08-14T15:14:07.235Z</time>
      </trkpt>
      <trkpt lat="40.45133" lon="43.8551">
        <ele>1785.476224</ele>
        <time>2021-08-14T15:14:28.255Z</time>
      </trkpt>
      <trkpt lat="40.45175" lon="43.85461">
        <ele>1791.547011</ele>
        <time>2021-08-14T15:15:24.663Z</time>
      </trkpt>
      <trkpt lat="40.45197" lon="43.85443">
        <ele>1794.261712</ele>
        <time>2021-08-14T15:15:49.293Z</time>
      </trkpt>
      <trkpt lat="40.45304" lon="43.85381">
        <ele>1806.023042</ele>
        <time>2021-08-14T15:17:32.083Z</time>
      </trkpt>
      <trkpt lat="40.4534" lon="43.85348">
        <ele>1808.917314</ele>
        <time>2021-08-14T15:18:03.314Z</time>
      </trkpt>
      <trkpt lat="40.45362" lon="43.85304">
        <ele>1811.598161</ele>
        <time>2021-08-14T15:18:29.695Z</time>
      </trkpt>
      <trkpt lat="40.45368" lon="43.85278">
        <ele>1812.98052</ele>
        <time>2021-08-14T15:18:42.599Z</time>
      </trkpt>
      <trkpt lat="40.4538" lon="43.85161">
        <ele>1818.890844</ele>
        <time>2021-08-14T15:19:35.370Z</time>
      </trkpt>
      <trkpt lat="40.45383" lon="43.85002">
        <ele>1826.578965</ele>
        <time>2021-08-14T15:20:55.219Z</time>
      </trkpt>
      <trkpt lat="40.45385" lon="43.8496">
        <ele>1828.758657</ele>
        <time>2021-08-14T15:21:18.033Z</time>
      </trkpt>
      <trkpt lat="40.45394" lon="43.84919">
        <ele>1831.659389</ele>
        <time>2021-08-14T15:21:46.061Z</time>
      </trkpt>
      <trkpt lat="40.45414" lon="43.84878">
        <ele>1834.876135</ele>
        <time>2021-08-14T15:22:16.032Z</time>
      </trkpt>
      <trkpt lat="40.45443" lon="43.84846">
        <ele>1838.24454</ele>
        <time>2021-08-14T15:22:49.314Z</time>
      </trkpt>
      <trkpt lat="40.45478" lon="43.84826">
        <ele>1841.607284</ele>
        <time>2021-08-14T15:23:21.714Z</time>
      </trkpt>
      <trkpt lat="40.45488" lon="43.84824">
        <ele>1842.489089</ele>
        <time>2021-08-14T15:23:31.372Z</time>
      </trkpt>
      <trkpt lat="40.45509" lon="43.84822">
        <ele>1844.217118</ele>
        <time>2021-08-14T15:23:45.821Z</time>
      </trkpt>
      <trkpt lat="40.45545" lon="43.84835">
        <ele>1846.678259</ele>
        <time>2021-08-14T15:24:13.262Z</time>
      </trkpt>
      <trkpt lat="40.45551" lon="43.84837">
        <ele>1847.052941</ele>
        <time>2021-08-14T15:24:17.319Z</time>
      </trkpt>
      <trkpt lat="40.45563" lon="43.84843">
        <ele>1847.881718</ele>
        <time>2021-08-14T15:24:28.143Z</time>
      </trkpt>
      <trkpt lat="40.45575" lon="43.84852">
        <ele>1848.792588</ele>
        <time>2021-08-14T15:24:37.078Z</time>
      </trkpt>
      <trkpt lat="40.45602" lon="43.84889">
        <ele>1851.308963</ele>
        <time>2021-08-14T15:25:03.535Z</time>
      </trkpt>
      <trkpt lat="40.45611" lon="43.84917">
        <ele>1852.830501</ele>
        <time>2021-08-14T15:25:20.428Z</time>
      </trkpt>
      <trkpt lat="40.45649" lon="43.85047">
        <ele>1858.142071</ele>
        <time>2021-08-14T15:26:17.148Z</time>
      </trkpt>
      <trkpt lat="40.45671" lon="43.85167">
        <ele>1861.9271</ele>
        <time>2021-08-14T15:27:05.442Z</time>
      </trkpt>
      <trkpt lat="40.45673" lon="43.85223">
        <ele>1863.911844</ele>
        <time>2021-08-14T15:27:28.813Z</time>
      </trkpt>
      <trkpt lat="40.45667" lon="43.85294">
        <ele>1866.904982</ele>
        <time>2021-08-14T15:28:00.652Z</time>
      </trkpt>
      <trkpt lat="40.45645" lon="43.85457">
        <ele>1874.047785</ele>
        <time>2021-08-14T15:29:22.162Z</time>
      </trkpt>
      <trkpt lat="40.45648" lon="43.85521">
        <ele>1877.452573</ele>
        <time>2021-08-14T15:29:57.410Z</time>
      </trkpt>
      <trkpt lat="40.45661" lon="43.85574">
        <ele>1880.376722</ele>
        <time>2021-08-14T15:30:27.802Z</time>
      </trkpt>
      <trkpt lat="40.45677" lon="43.85604">
        <ele>1882.297661</ele>
        <time>2021-08-14T15:30:47.698Z</time>
      </trkpt>
      <trkpt lat="40.4573" lon="43.85659">
        <ele>1886.811388</ele>
        <time>2021-08-14T15:31:35.345Z</time>
      </trkpt>
      <trkpt lat="40.46107" lon="43.85919">
        <ele>1914.390637</ele>
        <time>2021-08-14T15:36:19.352Z</time>
      </trkpt>
      <trkpt lat="40.46255" lon="43.8601">
        <ele>1925.172198</ele>
        <time>2021-08-14T15:38:14.110Z</time>
      </trkpt>
      <trkpt lat="40.46277" lon="43.86024">
        <ele>1926.77961</ele>
        <time>2021-08-14T15:38:31.729Z</time>
      </trkpt>
      <trkpt lat="40.46358" lon="43.86086">
        <ele>1932.443895</ele>
        <time>2021-08-14T15:39:34.028Z</time>
      </trkpt>
      <trkpt lat="40.46383" lon="43.86112">
        <ele>1933.490423</ele>
        <time>2021-08-14T15:39:53.465Z</time>
      </trkpt>
      <trkpt lat="40.46752" lon="43.86546">
        <ele>1948.998334</ele>
        <time>2021-08-14T15:43:48.481Z</time>
      </trkpt>
      <trkpt lat="40.46801" lon="43.86582">
        <ele>1950.018398</ele>
        <time>2021-08-14T15:44:11.235Z</time>
      </trkpt>
      <trkpt lat="40.46933" lon="43.86611">
        <ele>1952.501289</ele>
        <time>2021-08-14T15:45:05.167Z</time>
      </trkpt>
      <trkpt lat="40.47112" lon="43.86638">
        <ele>1956.116872</ele>
        <time>2021-08-14T15:46:21.552Z</time>
      </trkpt>
      <trkpt lat="40.47356" lon="43.86634">
        <ele>1961.763631</ele>
        <time>2021-08-14T15:48:10.198Z</time>
      </trkpt>
      <trkpt lat="40.47974" lon="43.8662">
        <ele>1975.183844</ele>
        <time>2021-08-14T15:52:38.748Z</time>
      </trkpt>
      <trkpt lat="40.4805" lon="43.86614">
        <ele>1976.047338</ele>
        <time>2021-08-14T15:53:06.944Z</time>
      </trkpt>
      <trkpt lat="40.48124" lon="43.86602">
        <ele>1976.604414</ele>
        <time>2021-08-14T15:53:32.594Z</time>
      </trkpt>
      <trkpt lat="40.48218" lon="43.86567">
        <ele>1977.166911</ele>
        <time>2021-08-14T15:54:05.093Z</time>
      </trkpt>
      <trkpt lat="40.48401" lon="43.8645">
        <ele>1977.612566</ele>
        <time>2021-08-14T15:55:12.825Z</time>
      </trkpt>
      <trkpt lat="40.48459" lon="43.86424">
        <ele>1977.569749</ele>
        <time>2021-08-14T15:55:31.810Z</time>
      </trkpt>
      <trkpt lat="40.48812" lon="43.8634">
        <ele>1974.975654</ele>
        <time>2021-08-14T15:57:12.435Z</time>
      </trkpt>
      <trkpt lat="40.48877" lon="43.86344">
        <ele>1974.048629</ele>
        <time>2021-08-14T15:57:28.653Z</time>
      </trkpt>
      <trkpt lat="40.48912" lon="43.86354">
        <ele>1973.093636</ele>
        <time>2021-08-14T15:57:37.212Z</time>
      </trkpt>
      <trkpt lat="40.48951" lon="43.86374">
        <ele>1971.961195</ele>
        <time>2021-08-14T15:57:47.115Z</time>
      </trkpt>
      <trkpt lat="40.48997" lon="43.86408">
        <ele>1970.552722</ele>
        <time>2021-08-14T15:57:59.121Z</time>
      </trkpt>
      <trkpt lat="40.49131" lon="43.86548">
        <ele>1965.215871</ele>
        <time>2021-08-14T15:58:38.036Z</time>
      </trkpt>
      <trkpt lat="40.49187" lon="43.8659">
        <ele>1963.256408</ele>
        <time>2021-08-14T15:58:52.839Z</time>
      </trkpt>
      <trkpt lat="40.49245" lon="43.8662">
        <ele>1961.63294</ele>
        <time>2021-08-14T15:59:07.315Z</time>
      </trkpt>
      <trkpt lat="40.49314" lon="43.86645">
        <ele>1959.751095</ele>
        <time>2021-08-14T15:59:24.428Z</time>
      </trkpt>
      <trkpt lat="40.49408" lon="43.86665">
        <ele>1957.263509</ele>
        <time>2021-08-14T15:59:47.228Z</time>
      </trkpt>
      <trkpt lat="40.49446" lon="43.8667">
        <ele>1956.261504</ele>
        <time>2021-08-14T15:59:56.418Z</time>
      </trkpt>
      <trkpt lat="40.4997" lon="43.86736">
        <ele>1940.734023</ele>
        <time>2021-08-14T16:01:58.027Z</time>
      </trkpt>
      <trkpt lat="40.50025" lon="43.86747">
        <ele>1938.890551</ele>
        <time>2021-08-14T16:02:10.238Z</time>
      </trkpt>
      <trkpt lat="40.50062" lon="43.86761">
        <ele>1937.663463</ele>
        <time>2021-08-14T16:02:18.973Z</time>
      </trkpt>
      <trkpt lat="40.50092" lon="43.86777">
        <ele>1936.854576</ele>
        <time>2021-08-14T16:02:26.209Z</time>
      </trkpt>
      <trkpt lat="40.5012" lon="43.86798">
        <ele>1936.035534</ele>
        <time>2021-08-14T16:02:33.623Z</time>
      </trkpt>
      <trkpt lat="40.50164" lon="43.86834">
        <ele>1934.72487</ele>
        <time>2021-08-14T16:02:45.787Z</time>
      </trkpt>
      <trkpt lat="40.50237" lon="43.86892">
        <ele>1933.014158</ele>
        <time>2021-08-14T16:03:07.809Z</time>
      </trkpt>
      <trkpt lat="40.50274" lon="43.86922">
        <ele>1932.535931</ele>
        <time>2021-08-14T16:03:20.282Z</time>
      </trkpt>
      <trkpt lat="40.50342" lon="43.86962">
        <ele>1931.725107</ele>
        <time>2021-08-14T16:03:40.438Z</time>
      </trkpt>
      <trkpt lat="40.50377" lon="43.86976">
        <ele>1931.32937</ele>
        <time>2021-08-14T16:03:50.005Z</time>
      </trkpt>
      <trkpt lat="40.50496" lon="43.8702">
        <ele>1929.989469</ele>
        <time>2021-08-14T16:04:22.045Z</time>
      </trkpt>
      <trkpt lat="40.5071" lon="43.87093">
        <ele>1928.606876</ele>
        <time>2021-08-14T16:05:24.990Z</time>
      </trkpt>
      <trkpt lat="40.50759" lon="43.87111">
        <ele>1928.497233</ele>
        <time>2021-08-14T16:05:41.352Z</time>
      </trkpt>
      <trkpt lat="40.50812" lon="43.87129">
        <ele>1928.41617</ele>
        <time>2021-08-14T16:05:58.954Z</time>
      </trkpt>
      <trkpt lat="40.51366" lon="43.87324">
        <ele>1926.334503</ele>
        <time>2021-08-14T16:08:46.983Z</time>
      </trkpt>
      <trkpt lat="40.51564" lon="43.87386">
        <ele>1924.94068</ele>
        <time>2021-08-14T16:09:43.212Z</time>
      </trkpt>
      <trkpt lat="40.52191" lon="43.87452">
        <ele>1921.054168</ele>
        <time>2021-08-14T16:12:40.273Z</time>
      </trkpt>
      <trkpt lat="40.52392" lon="43.87472">
        <ele>1920.785904</ele>
        <time>2021-08-14T16:13:42.167Z</time>
      </trkpt>
      <trkpt lat="40.52458" lon="43.87478">
        <ele>1920.820298</ele>
        <time>2021-08-14T16:14:03.043Z</time>
      </trkpt>
      <trkpt lat="40.52689" lon="43.8751">
        <ele>1921.260622</ele>
        <time>2021-08-14T16:15:17.270Z</time>
      </trkpt>
      <trkpt lat="40.5303" lon="43.87557">
        <ele>1923.428267</ele>
        <time>2021-08-14T16:17:15.912Z</time>
      </trkpt>
      <trkpt lat="40.53054" lon="43.87555">
        <ele>1923.756764</ele>
        <time>2021-08-14T16:17:24.838Z</time>
      </trkpt>
      <trkpt lat="40.53144" lon="43.8754">
        <ele>1924.988195</ele>
        <time>2021-08-14T16:17:59.922Z</time>
      </trkpt>
      <trkpt lat="40.53181" lon="43.87531">
        <ele>1925.493035</ele>
        <time>2021-08-14T16:18:14.909Z</time>
      </trkpt>
      <trkpt lat="40.5323" lon="43.87519">
        <ele>1926.357927</ele>
        <time>2021-08-14T16:18:35.831Z</time>
      </trkpt>
      <trkpt lat="40.53636" lon="43.8742">
        <ele>1934.496633</ele>
        <time>2021-08-14T16:21:30.836Z</time>
      </trkpt>
      <trkpt lat="40.53695" lon="43.87398">
        <ele>1935.654782</ele>
        <time>2021-08-14T16:21:56.213Z</time>
      </trkpt>
      <trkpt lat="40.53762" lon="43.87359">
        <ele>1936.636672</ele>
        <time>2021-08-14T16:22:26.684Z</time>
      </trkpt>
      <trkpt lat="40.53856" lon="43.87273">
        <ele>1937.537451</ele>
        <time>2021-08-14T16:23:09.880Z</time>
      </trkpt>
      <trkpt lat="40.54064" lon="43.86989">
        <ele>1932.15963</ele>
        <time>2021-08-14T16:24:28.164Z</time>
      </trkpt>
      <trkpt lat="40.54125" lon="43.86922">
        <ele>1929.157111</ele>
        <time>2021-08-14T16:24:44.566Z</time>
      </trkpt>
      <trkpt lat="40.54233" lon="43.8685">
        <ele>1921.040696</ele>
        <time>2021-08-14T16:25:08.567Z</time>
      </trkpt>
      <trkpt lat="40.54302" lon="43.86825">
        <ele>1916.118104</ele>
        <time>2021-08-14T16:25:22.968Z</time>
      </trkpt>
      <trkpt lat="40.54512" lon="43.86762">
        <ele>1903.363378</ele>
        <time>2021-08-14T16:26:07.586Z</time>
      </trkpt>
      <trkpt lat="40.54546" lon="43.86742">
        <ele>1900.829648</ele>
        <time>2021-08-14T16:26:15.209Z</time>
      </trkpt>
      <trkpt lat="40.54677" lon="43.86673">
        <ele>1890.736262</ele>
        <time>2021-08-14T16:26:43.089Z</time>
      </trkpt>
      <trkpt lat="40.54709" lon="43.86665">
        <ele>1888.077117</ele>
        <time>2021-08-14T16:26:49.483Z</time>
      </trkpt>
      <trkpt lat="40.54747" lon="43.86663">
        <ele>1884.985826</ele>
        <time>2021-08-14T16:26:56.890Z</time>
      </trkpt>
      <trkpt lat="40.54783" lon="43.86669">
        <ele>1882.021816</ele>
        <time>2021-08-14T16:27:04.001Z</time>
      </trkpt>
      <trkpt lat="40.5483" lon="43.86687">
        <ele>1878.371115</ele>
        <time>2021-08-14T16:27:13.429Z</time>
      </trkpt>
      <trkpt lat="40.54868" lon="43.86712">
        <ele>1875.746162</ele>
        <time>2021-08-14T16:27:21.945Z</time>
      </trkpt>
      <trkpt lat="40.54899" lon="43.86743">
        <ele>1873.376113</ele>
        <time>2021-08-14T16:27:29.793Z</time>
      </trkpt>
      <trkpt lat="40.54932" lon="43.86787">
        <ele>1870.479664</ele>
        <time>2021-08-14T16:27:39.641Z</time>
      </trkpt>
      <trkpt lat="40.5495" lon="43.86822">
        <ele>1868.546472</ele>
        <time>2021-08-14T16:27:46.413Z</time>
      </trkpt>
      <trkpt lat="40.54999" lon="43.86982">
        <ele>1864.31743</ele>
        <time>2021-08-14T16:28:16.368Z</time>
      </trkpt>
      <trkpt lat="40.55078" lon="43.87196">
        <ele>1859.788254</ele>
        <time>2021-08-14T16:29:00.277Z</time>
      </trkpt>
      <trkpt lat="40.55179" lon="43.874">
        <ele>1855.350859</ele>
        <time>2021-08-14T16:29:45.120Z</time>
      </trkpt>
      <trkpt lat="40.55268" lon="43.87599">
        <ele>1850.026932</ele>
        <time>2021-08-14T16:30:25.950Z</time>
      </trkpt>
      <trkpt lat="40.55263" lon="43.87632">
        <ele>1849.188158</ele>
        <time>2021-08-14T16:30:31.747Z</time>
      </trkpt>
      <trkpt lat="40.5527" lon="43.87669">
        <ele>1848.189201</ele>
        <time>2021-08-14T16:30:38.135Z</time>
      </trkpt>
      <trkpt lat="40.55293" lon="43.8771">
        <ele>1845.827072</ele>
        <time>2021-08-14T16:30:46.610Z</time>
      </trkpt>
      <trkpt lat="40.55363" lon="43.87769">
        <ele>1840.813313</ele>
        <time>2021-08-14T16:31:03.756Z</time>
      </trkpt>
      <trkpt lat="40.55402" lon="43.87812">
        <ele>1837.733578</ele>
        <time>2021-08-14T16:31:13.885Z</time>
      </trkpt>
      <trkpt lat="40.55455" lon="43.8795">
        <ele>1826.806071</ele>
        <time>2021-08-14T16:31:36.350Z</time>
      </trkpt>
      <trkpt lat="40.55482" lon="43.88047">
        <ele>1819.360758</ele>
        <time>2021-08-14T16:31:51.323Z</time>
      </trkpt>
      <trkpt lat="40.55496" lon="43.88031">
        <ele>1817.632077</ele>
        <time>2021-08-14T16:31:54.989Z</time>
      </trkpt>
      <trkpt lat="40.55498" lon="43.8801">
        <ele>1816.12889</ele>
        <time>2021-08-14T16:31:58.234Z</time>
      </trkpt>
      <trkpt lat="40.55493" lon="43.87935">
        <ele>1810.722662</ele>
        <time>2021-08-14T16:32:09.805Z</time>
      </trkpt>
      <trkpt lat="40.55499" lon="43.87891">
        <ele>1807.540236</ele>
        <time>2021-08-14T16:32:16.672Z</time>
      </trkpt>
      <trkpt lat="40.55543" lon="43.87775">
        <ele>1798.976444</ele>
        <time>2021-08-14T16:32:36.893Z</time>
      </trkpt>
      <trkpt lat="40.55589" lon="43.877">
        <ele>1792.989043</ele>
        <time>2021-08-14T16:32:51.881Z</time>
      </trkpt>
      <trkpt lat="40.55617" lon="43.87675">
        <ele>1790.175638</ele>
        <time>2021-08-14T16:32:58.909Z</time>
      </trkpt>
      <trkpt lat="40.55668" lon="43.87648">
        <ele>1786.033928</ele>
        <time>2021-08-14T16:33:10.122Z</time>
      </trkpt>
      <trkpt lat="40.55846" lon="43.87654">
        <ele>1773.838649</ele>
        <time>2021-08-14T16:33:47.427Z</time>
      </trkpt>
      <trkpt lat="40.55905" lon="43.87661">
        <ele>1770.822586</ele>
        <time>2021-08-14T16:34:00.375Z</time>
      </trkpt>
      <trkpt lat="40.56116" lon="43.87664">
        <ele>1762.193787</ele>
        <time>2021-08-14T16:34:49.227Z</time>
      </trkpt>
      <trkpt lat="40.56147" lon="43.87672">
        <ele>1761.094568</ele>
        <time>2021-08-14T16:34:56.988Z</time>
      </trkpt>
      <trkpt lat="40.5619" lon="43.87719">
        <ele>1759.635628</ele>
        <time>2021-08-14T16:35:10.841Z</time>
      </trkpt>
      <trkpt lat="40.56225" lon="43.87733">
        <ele>1758.89361</ele>
        <time>2021-08-14T16:35:19.955Z</time>
      </trkpt>
      <trkpt lat="40.56293" lon="43.87746">
        <ele>1757.493763</ele>
        <time>2021-08-14T16:35:37.463Z</time>
      </trkpt>
      <trkpt lat="40.56395" lon="43.87751">
        <ele>1755.271547</ele>
        <time>2021-08-14T16:36:05.937Z</time>
      </trkpt>
      <trkpt lat="40.56401" lon="43.8776">
        <ele>1755.058362</ele>
        <time>2021-08-14T16:36:08.476Z</time>
      </trkpt>
      <trkpt lat="40.56405" lon="43.87765">
        <ele>1754.936802</ele>
        <time>2021-08-14T16:36:09.719Z</time>
      </trkpt>
      <trkpt lat="40.56493" lon="43.87741">
        <ele>1752.90069</ele>
        <time>2021-08-14T16:36:31.940Z</time>
      </trkpt>
      <trkpt lat="40.56861" lon="43.87709">
        <ele>1736.074435</ele>
        <time>2021-08-14T16:37:50.378Z</time>
      </trkpt>
      <trkpt lat="40.56936" lon="43.87702">
        <ele>1733.037222</ele>
        <time>2021-08-14T16:38:06.587Z</time>
      </trkpt>
      <trkpt lat="40.56988" lon="43.87667">
        <ele>1730.7051</ele>
        <time>2021-08-14T16:38:19.508Z</time>
      </trkpt>
      <trkpt lat="40.57012" lon="43.87651">
        <ele>1729.631224</ele>
        <time>2021-08-14T16:38:25.534Z</time>
      </trkpt>
      <trkpt lat="40.57064" lon="43.87617">
        <ele>1727.58734</ele>
        <time>2021-08-14T16:38:38.676Z</time>
      </trkpt>
      <trkpt lat="40.57206" lon="43.87522">
        <ele>1722.558743</ele>
        <time>2021-08-14T16:39:14.979Z</time>
      </trkpt>
      <trkpt lat="40.57441" lon="43.87392">
        <ele>1715.971502</ele>
        <time>2021-08-14T16:40:14.950Z</time>
      </trkpt>
      <trkpt lat="40.57642" lon="43.87285">
        <ele>1711.567547</ele>
        <time>2021-08-14T16:41:08.351Z</time>
      </trkpt>
      <trkpt lat="40.57704" lon="43.87252">
        <ele>1710.499868</ele>
        <time>2021-08-14T16:41:25.327Z</time>
      </trkpt>
      <trkpt lat="40.57777" lon="43.87213">
        <ele>1709.940267</ele>
        <time>2021-08-14T16:41:46.542Z</time>
      </trkpt>
      <trkpt lat="40.57838" lon="43.87181">
        <ele>1709.471839</ele>
        <time>2021-08-14T16:42:05.643Z</time>
      </trkpt>
      <trkpt lat="40.57906" lon="43.87145">
        <ele>1709.401461</ele>
        <time>2021-08-14T16:42:28.748Z</time>
      </trkpt>
      <trkpt lat="40.58012" lon="43.87088">
        <ele>1709.606359</ele>
        <time>2021-08-14T16:43:05.959Z</time>
      </trkpt>
      <trkpt lat="40.58019" lon="43.87084">
        <ele>1709.621594</ele>
        <time>2021-08-14T16:43:08.772Z</time>
      </trkpt>
      <trkpt lat="40.58117" lon="43.87033">
        <ele>1710.018605</ele>
        <time>2021-08-14T16:43:43.227Z</time>
      </trkpt>
      <trkpt lat="40.58179" lon="43.87">
        <ele>1710.283742</ele>
        <time>2021-08-14T16:44:05.607Z</time>
      </trkpt>
      <trkpt lat="40.58415" lon="43.86915">
        <ele>1711.526213</ele>
        <time>2021-08-14T16:45:31.259Z</time>
      </trkpt>
      <trkpt lat="40.58478" lon="43.86894">
        <ele>1711.52464</ele>
        <time>2021-08-14T16:45:52.100Z</time>
      </trkpt>
      <trkpt lat="40.58584" lon="43.86859">
        <ele>1710.914994</ele>
        <time>2021-08-14T16:46:22.889Z</time>
      </trkpt>
      <trkpt lat="40.58637" lon="43.86841">
        <ele>1710.165745</ele>
        <time>2021-08-14T16:46:36.978Z</time>
      </trkpt>
      <trkpt lat="40.58691" lon="43.86823">
        <ele>1709.404052</ele>
        <time>2021-08-14T16:46:51.000Z</time>
      </trkpt>
      <trkpt lat="40.58784" lon="43.86792">
        <ele>1707.970663</ele>
        <time>2021-08-14T16:47:14.923Z</time>
      </trkpt>
      <trkpt lat="40.58914" lon="43.86749">
        <ele>1705.978284</ele>
        <time>2021-08-14T16:47:49.468Z</time>
      </trkpt>
      <trkpt lat="40.58995" lon="43.86722">
        <ele>1704.917931</ele>
        <time>2021-08-14T16:48:11.820Z</time>
      </trkpt>
      <trkpt lat="40.59094" lon="43.86689">
        <ele>1703.524505</ele>
        <time>2021-08-14T16:48:38.468Z</time>
      </trkpt>
      <trkpt lat="40.5916" lon="43.86667">
        <ele>1702.46335</ele>
        <time>2021-08-14T16:48:55.884Z</time>
      </trkpt>
      <trkpt lat="40.59215" lon="43.86648">
        <ele>1701.561849</ele>
        <time>2021-08-14T16:49:10.419Z</time>
      </trkpt>
      <trkpt lat="40.59312" lon="43.86623">
        <ele>1699.81064</ele>
        <time>2021-08-14T16:49:35.069Z</time>
      </trkpt>
      <trkpt lat="40.5934" lon="43.86615">
        <ele>1699.272416</ele>
        <time>2021-08-14T16:49:42.406Z</time>
      </trkpt>
      <trkpt lat="40.59391" lon="43.866">
        <ele>1698.308677</ele>
        <time>2021-08-14T16:49:55.389Z</time>
      </trkpt>
      <trkpt lat="40.5948" lon="43.86578">
        <ele>1696.244435</ele>
        <time>2021-08-14T16:50:17.148Z</time>
      </trkpt>
      <trkpt lat="40.59602" lon="43.86545">
        <ele>1693.123369</ele>
        <time>2021-08-14T16:50:46.776Z</time>
      </trkpt>
      <trkpt lat="40.59632" lon="43.86537">
        <ele>1692.259747</ele>
        <time>2021-08-14T16:50:53.742Z</time>
      </trkpt>
      <trkpt lat="40.59739" lon="43.8651">
        <ele>1689.105322</ele>
        <time>2021-08-14T16:51:19.001Z</time>
      </trkpt>
      <trkpt lat="40.60764" lon="43.86243">
        <ele>1655.185951</ele>
        <time>2021-08-14T16:55:17.695Z</time>
      </trkpt>
      <trkpt lat="40.60858" lon="43.86202">
        <ele>1649.989846</ele>
        <time>2021-08-14T16:55:38.167Z</time>
      </trkpt>
      <trkpt lat="40.61192" lon="43.86027">
        <ele>1624.000229</ele>
        <time>2021-08-14T16:56:49.162Z</time>
      </trkpt>
      <trkpt lat="40.61519" lon="43.85865">
        <ele>1606.525632</ele>
        <time>2021-08-14T16:58:02.640Z</time>
      </trkpt>
      <trkpt lat="40.62152" lon="43.85544">
        <ele>1594.758573</ele>
        <time>2021-08-14T17:00:55.792Z</time>
      </trkpt>
      <trkpt lat="40.62275" lon="43.8548">
        <ele>1592.864598</ele>
        <time>2021-08-14T17:01:30.229Z</time>
      </trkpt>
      <trkpt lat="40.62305" lon="43.85463">
        <ele>1592.397205</ele>
        <time>2021-08-14T17:01:38.857Z</time>
      </trkpt>
      <trkpt lat="40.62343" lon="43.85452">
        <ele>1591.829142</ele>
        <time>2021-08-14T17:01:48.848Z</time>
      </trkpt>
      <trkpt lat="40.62476" lon="43.85421">
        <ele>1589.466552</ele>
        <time>2021-08-14T17:02:22.875Z</time>
      </trkpt>
      <trkpt lat="40.62502" lon="43.85419">
        <ele>1589.012991</ele>
        <time>2021-08-14T17:02:29.276Z</time>
      </trkpt>
      <trkpt lat="40.62773" lon="43.85391">
        <ele>1583.749873</ele>
        <time>2021-08-14T17:03:35.540Z</time>
      </trkpt>
      <trkpt lat="40.63161" lon="43.85356">
        <ele>1577.549975</ele>
        <time>2021-08-14T17:05:14.923Z</time>
      </trkpt>
      <trkpt lat="40.63231" lon="43.85348">
        <ele>1576.567349</ele>
        <time>2021-08-14T17:05:33.238Z</time>
      </trkpt>
      <trkpt lat="40.633" lon="43.85339">
        <ele>1575.87172</ele>
        <time>2021-08-14T17:05:51.907Z</time>
      </trkpt>
      <trkpt lat="40.63525" lon="43.8532">
        <ele>1573.421742</ele>
        <time>2021-08-14T17:06:53.143Z</time>
      </trkpt>
      <trkpt lat="40.63788" lon="43.85286">
        <ele>1569.733659</ele>
        <time>2021-08-14T17:08:00.710Z</time>
      </trkpt>
      <trkpt lat="40.63831" lon="43.85281">
        <ele>1569.348581</ele>
        <time>2021-08-14T17:08:12.378Z</time>
      </trkpt>
      <trkpt lat="40.63936" lon="43.85268">
        <ele>1568.409174</ele>
        <time>2021-08-14T17:08:41.870Z</time>
      </trkpt>
      <trkpt lat="40.64266" lon="43.85239">
        <ele>1565.899817</ele>
        <time>2021-08-14T17:10:14.043Z</time>
      </trkpt>
      <trkpt lat="40.64835" lon="43.85177">
        <ele>1560.380219</ele>
        <time>2021-08-14T17:12:48.071Z</time>
      </trkpt>
      <trkpt lat="40.65935" lon="43.85172">
        <ele>1552.753121</ele>
        <time>2021-08-14T17:17:55.962Z</time>
      </trkpt>
      <trkpt lat="40.65951" lon="43.85174">
        <ele>1552.679784</ele>
        <time>2021-08-14T17:18:00.461Z</time>
      </trkpt>
      <trkpt lat="40.65968" lon="43.85174">
        <ele>1552.601117</ele>
        <time>2021-08-14T17:18:05.330Z</time>
      </trkpt>
      <trkpt lat="40.66444" lon="43.85203">
        <ele>1550.762884</ele>
        <time>2021-08-14T17:20:23.879Z</time>
      </trkpt>
      <trkpt lat="40.66716" lon="43.85217">
        <ele>1551.489949</ele>
        <time>2021-08-14T17:21:55.506Z</time>
      </trkpt>
      <trkpt lat="40.66759" lon="43.8522">
        <ele>1551.517061</ele>
        <time>2021-08-14T17:22:09.298Z</time>
      </trkpt>
      <trkpt lat="40.66796" lon="43.85217">
        <ele>1551.540166</ele>
        <time>2021-08-14T17:22:20.431Z</time>
      </trkpt>
      <trkpt lat="40.66865" lon="43.85214">
        <ele>1551.085715</ele>
        <time>2021-08-14T17:22:40.283Z</time>
      </trkpt>
      <trkpt lat="40.66894" lon="43.85209">
        <ele>1550.770937</ele>
        <time>2021-08-14T17:22:48.134Z</time>
      </trkpt>
      <trkpt lat="40.6693" lon="43.85209">
        <ele>1550.380498</ele>
        <time>2021-08-14T17:22:57.670Z</time>
      </trkpt>
      <trkpt lat="40.67002" lon="43.85187">
        <ele>1549.571659</ele>
        <time>2021-08-14T17:23:16.816Z</time>
      </trkpt>
      <trkpt lat="40.67084" lon="43.85153">
        <ele>1548.554249</ele>
        <time>2021-08-14T17:23:38.459Z</time>
      </trkpt>
      <trkpt lat="40.67243" lon="43.85061">
        <ele>1547.456854</ele>
        <time>2021-08-14T17:24:26.333Z</time>
      </trkpt>
      <trkpt lat="40.67503" lon="43.84903">
        <ele>1548.734003</ele>
        <time>2021-08-14T17:26:06.124Z</time>
      </trkpt>
      <trkpt lat="40.68002" lon="43.84617">
        <ele>1552.261155</ele>
        <time>2021-08-14T17:29:19.585Z</time>
      </trkpt>
      <trkpt lat="40.68071" lon="43.84576">
        <ele>1550.197169</ele>
        <time>2021-08-14T17:29:40.310Z</time>
      </trkpt>
      <trkpt lat="40.68846" lon="43.84107">
        <ele>1526.528375</ele>
        <time>2021-08-14T17:32:55.867Z</time>
      </trkpt>
      <trkpt lat="40.68886" lon="43.84083">
        <ele>1525.671438</ele>
        <time>2021-08-14T17:33:06.374Z</time>
      </trkpt>
      <trkpt lat="40.6906" lon="43.83979">
        <ele>1522.862517</ele>
        <time>2021-08-14T17:33:56.705Z</time>
      </trkpt>
      <trkpt lat="40.69224" lon="43.83883">
        <ele>1521.061732</ele>
        <time>2021-08-14T17:34:47.299Z</time>
      </trkpt>
      <trkpt lat="40.69428" lon="43.83759">
        <ele>1518.179514</ele>
        <time>2021-08-14T17:35:45.223Z</time>
      </trkpt>
      <trkpt lat="40.69513" lon="43.83708">
        <ele>1516.973317</ele>
        <time>2021-08-14T17:36:09.112Z</time>
      </trkpt>
      <trkpt lat="40.69578" lon="43.83675">
        <ele>1516.131239</ele>
        <time>2021-08-14T17:36:27.621Z</time>
      </trkpt>
      <trkpt lat="40.69619" lon="43.83661">
        <ele>1515.618942</ele>
        <time>2021-08-14T17:36:39.058Z</time>
      </trkpt>
      <trkpt lat="40.69663" lon="43.83656">
        <ele>1515.34102</ele>
        <time>2021-08-14T17:36:50.871Z</time>
      </trkpt>
      <trkpt lat="40.6973" lon="43.83664">
        <ele>1515.063268</ele>
        <time>2021-08-14T17:37:09.453Z</time>
      </trkpt>
      <trkpt lat="40.6977" lon="43.83676">
        <ele>1514.894597</ele>
        <time>2021-08-14T17:37:21.493Z</time>
      </trkpt>
      <trkpt lat="40.6977" lon="43.83676">
        <ele>1514.894597</ele>
        <time>2021-08-14T17:37:21.499Z</time>
      </trkpt>
      <trkpt lat="40.6977" lon="43.83676">
        <ele>1514.894597</ele>
        <time>2021-08-14T17:37:21.551Z</time>
      </trkpt>
      <trkpt lat="40.69797" lon="43.83684">
        <ele>1514.780021</ele>
        <time>2021-08-14T17:37:30.276Z</time>
      </trkpt>
      <trkpt lat="40.69834" lon="43.83697">
        <ele>1514.905533</ele>
        <time>2021-08-14T17:37:43.397Z</time>
      </trkpt>
      <trkpt lat="40.69898" lon="43.8372">
        <ele>1515.352807</ele>
        <time>2021-08-14T17:38:08.360Z</time>
      </trkpt>
      <trkpt lat="40.70068" lon="43.83779">
        <ele>1515.406933</ele>
        <time>2021-08-14T17:39:08.433Z</time>
      </trkpt>
      <trkpt lat="40.70124" lon="43.83701">
        <ele>1514.907751</ele>
        <time>2021-08-14T17:39:29.464Z</time>
      </trkpt>
      <trkpt lat="40.70139" lon="43.83669">
        <ele>1514.552134</ele>
        <time>2021-08-14T17:39:36.283Z</time>
      </trkpt>
      <trkpt lat="40.70177" lon="43.83656">
        <ele>1513.910868</ele>
        <time>2021-08-14T17:39:45.640Z</time>
      </trkpt>
      <trkpt lat="40.70404" lon="43.83547">
        <ele>1510.503052</ele>
        <time>2021-08-14T17:40:48.375Z</time>
      </trkpt>
      <trkpt lat="40.70682" lon="43.83415">
        <ele>1507.827912</ele>
        <time>2021-08-14T17:42:09.303Z</time>
      </trkpt>
      <trkpt lat="40.70865" lon="43.83328">
        <ele>1506.639795</ele>
        <time>2021-08-14T17:43:04.744Z</time>
      </trkpt>
      <trkpt lat="40.70986" lon="43.83274">
        <ele>1505.993315</ele>
        <time>2021-08-14T17:43:41.568Z</time>
      </trkpt>
      <trkpt lat="40.71037" lon="43.83237">
        <ele>1505.719009</ele>
        <time>2021-08-14T17:43:58.372Z</time>
      </trkpt>
      <trkpt lat="40.71073" lon="43.83229">
        <ele>1505.545496</ele>
        <time>2021-08-14T17:44:08.980Z</time>
      </trkpt>
      <trkpt lat="40.71084" lon="43.83222">
        <ele>1505.490537</ele>
        <time>2021-08-14T17:44:12.374Z</time>
      </trkpt>
      <trkpt lat="40.7111" lon="43.83205">
        <ele>1505.350641</ele>
        <time>2021-08-14T17:44:20.846Z</time>
      </trkpt>
      <trkpt lat="40.71151" lon="43.83185">
        <ele>1505.120225</ele>
        <time>2021-08-14T17:44:33.530Z</time>
      </trkpt>
      <trkpt lat="40.71235" lon="43.83137">
        <ele>1504.585535</ele>
        <time>2021-08-14T17:44:59.754Z</time>
      </trkpt>
      <trkpt lat="40.71269" lon="43.83121">
        <ele>1504.367593</ele>
        <time>2021-08-14T17:45:10.121Z</time>
      </trkpt>
      <trkpt lat="40.71355" lon="43.83078">
        <ele>1503.771804</ele>
        <time>2021-08-14T17:45:35.266Z</time>
      </trkpt>
      <trkpt lat="40.71369" lon="43.8307">
        <ele>1503.668105</ele>
        <time>2021-08-14T17:45:39.430Z</time>
      </trkpt>
      <trkpt lat="40.71409" lon="43.83036">
        <ele>1503.347477</ele>
        <time>2021-08-14T17:45:52.523Z</time>
      </trkpt>
      <trkpt lat="40.71425" lon="43.83022">
        <ele>1503.217578</ele>
        <time>2021-08-14T17:45:57.965Z</time>
      </trkpt>
      <trkpt lat="40.71503" lon="43.82951">
        <ele>1502.685949</ele>
        <time>2021-08-14T17:46:25.414Z</time>
      </trkpt>
      <trkpt lat="40.71549" lon="43.82917">
        <ele>1502.436229</ele>
        <time>2021-08-14T17:46:41.121Z</time>
      </trkpt>
      <trkpt lat="40.7163" lon="43.82875">
        <ele>1501.974647</ele>
        <time>2021-08-14T17:47:06.196Z</time>
      </trkpt>
      <trkpt lat="40.71655" lon="43.82858">
        <ele>1501.742804</ele>
        <time>2021-08-14T17:47:14.197Z</time>
      </trkpt>
      <trkpt lat="40.71669" lon="43.82855">
        <ele>1501.627692</ele>
        <time>2021-08-14T17:47:18.070Z</time>
      </trkpt>
      <trkpt lat="40.71697" lon="43.82842">
        <ele>1501.37976</ele>
        <time>2021-08-14T17:47:26.443Z</time>
      </trkpt>
      <trkpt lat="40.71725" lon="43.82829">
        <ele>1501.133328</ele>
        <time>2021-08-14T17:47:34.735Z</time>
      </trkpt>
      <trkpt lat="40.71743" lon="43.82815">
        <ele>1500.96386</ele>
        <time>2021-08-14T17:47:40.301Z</time>
      </trkpt>
      <trkpt lat="40.71765" lon="43.82768">
        <ele>1500.614138</ele>
        <time>2021-08-14T17:47:51.558Z</time>
      </trkpt>
      <trkpt lat="40.7179" lon="43.82757">
        <ele>1500.312322</ele>
        <time>2021-08-14T17:47:58.229Z</time>
      </trkpt>
      <trkpt lat="40.71834" lon="43.82735">
        <ele>1499.761881</ele>
        <time>2021-08-14T17:48:10.595Z</time>
      </trkpt>
      <trkpt lat="40.7185" lon="43.82707">
        <ele>1499.45039</ele>
        <time>2021-08-14T17:48:17.656Z</time>
      </trkpt>
      <trkpt lat="40.71867" lon="43.82669">
        <ele>1499.059374</ele>
        <time>2021-08-14T17:48:26.714Z</time>
      </trkpt>
      <trkpt lat="40.71874" lon="43.82644">
        <ele>1498.816713</ele>
        <time>2021-08-14T17:48:32.423Z</time>
      </trkpt>
      <trkpt lat="40.71888" lon="43.82624">
        <ele>1498.57661</ele>
        <time>2021-08-14T17:48:37.820Z</time>
      </trkpt>
      <trkpt lat="40.719" lon="43.82621">
        <ele>1498.368464</ele>
        <time>2021-08-14T17:48:41.333Z</time>
      </trkpt>
      <trkpt lat="40.7193" lon="43.8261">
        <ele>1497.697367</ele>
        <time>2021-08-14T17:48:49.353Z</time>
      </trkpt>
      <trkpt lat="40.71958" lon="43.82595">
        <ele>1497.027836</ele>
        <time>2021-08-14T17:48:56.869Z</time>
      </trkpt>
      <trkpt lat="40.71998" lon="43.82574">
        <ele>1496.082606</ele>
        <time>2021-08-14T17:49:07.069Z</time>
      </trkpt>
      <trkpt lat="40.72073" lon="43.82613">
        <ele>1494.340156</ele>
        <time>2021-08-14T17:49:25.867Z</time>
      </trkpt>
      <trkpt lat="40.7212" lon="43.82637">
        <ele>1493.266036</ele>
        <time>2021-08-14T17:49:37.766Z</time>
      </trkpt>
      <trkpt lat="40.72179" lon="43.82668">
        <ele>1491.916683</ele>
        <time>2021-08-14T17:49:53.132Z</time>
      </trkpt>
      <trkpt lat="40.72225" lon="43.82692">
        <ele>1490.862675</ele>
        <time>2021-08-14T17:50:05.387Z</time>
      </trkpt>
      <trkpt lat="40.72246" lon="43.82703">
        <ele>1490.801075</ele>
        <time>2021-08-14T17:50:11.173Z</time>
      </trkpt>
      <trkpt lat="40.72296" lon="43.82733">
        <ele>1490.980072</ele>
        <time>2021-08-14T17:50:27.820Z</time>
      </trkpt>
      <trkpt lat="40.72365" lon="43.82779">
        <ele>1491.231896</ele>
        <time>2021-08-14T17:50:55.202Z</time>
      </trkpt>
      <trkpt lat="40.72488" lon="43.82862">
        <ele>1493.515299</ele>
        <time>2021-08-14T17:51:51.223Z</time>
      </trkpt>
      <trkpt lat="40.72505" lon="43.82873">
        <ele>1493.913717</ele>
        <time>2021-08-14T17:51:59.706Z</time>
      </trkpt>
      <trkpt lat="40.72517" lon="43.8289">
        <ele>1494.272991</ele>
        <time>2021-08-14T17:52:08.010Z</time>
      </trkpt>
      <trkpt lat="40.72544" lon="43.82922">
        <ele>1495.027218</ele>
        <time>2021-08-14T17:52:24.745Z</time>
      </trkpt>
      <trkpt lat="40.72581" lon="43.8295">
        <ele>1496.291841</ele>
        <time>2021-08-14T17:52:44.766Z</time>
      </trkpt>
      <trkpt lat="40.72602" lon="43.82959">
        <ele>1496.953161</ele>
        <time>2021-08-14T17:52:55.579Z</time>
      </trkpt>
      <trkpt lat="40.72631" lon="43.82968">
        <ele>1497.820306</ele>
        <time>2021-08-14T17:53:09.941Z</time>
      </trkpt>
      <trkpt lat="40.72652" lon="43.82974">
        <ele>1498.459533</ele>
        <time>2021-08-14T17:53:20.832Z</time>
      </trkpt>
      <trkpt lat="40.72694" lon="43.82977">
        <ele>1499.704239</ele>
        <time>2021-08-14T17:53:40.724Z</time>
      </trkpt>
      <trkpt lat="40.72726" lon="43.8297">
        <ele>1500.620399</ele>
        <time>2021-08-14T17:53:56.044Z</time>
      </trkpt>
      <trkpt lat="40.72769" lon="43.82962">
        <ele>1501.739529</ele>
        <time>2021-08-14T17:54:16.495Z</time>
      </trkpt>
      <trkpt lat="40.72791" lon="43.82962">
        <ele>1502.277581</ele>
        <time>2021-08-14T17:54:26.534Z</time>
      </trkpt>
      <trkpt lat="40.72907" lon="43.82961">
        <ele>1505.147483</ele>
        <time>2021-08-14T17:55:18.585Z</time>
      </trkpt>
      <trkpt lat="40.72948" lon="43.82964">
        <ele>1505.888875</ele>
        <time>2021-08-14T17:55:35.532Z</time>
      </trkpt>
      <trkpt lat="40.73031" lon="43.8297">
        <ele>1507.406238</ele>
        <time>2021-08-14T17:56:09.640Z</time>
      </trkpt>
      <trkpt lat="40.73062" lon="43.82972">
        <ele>1507.961789</ele>
        <time>2021-08-14T17:56:22.268Z</time>
      </trkpt>
      <trkpt lat="40.7325" lon="43.82983">
        <ele>1510.273278</ele>
        <time>2021-08-14T17:57:34.407Z</time>
      </trkpt>
      <trkpt lat="40.73267" lon="43.82929">
        <ele>1510.387747</ele>
        <time>2021-08-14T17:57:49.431Z</time>
      </trkpt>
      <trkpt lat="40.73309" lon="43.82943">
        <ele>1510.465517</ele>
        <time>2021-08-14T17:58:03.828Z</time>
      </trkpt>
      <trkpt lat="40.73345" lon="43.82948">
        <ele>1510.529787</ele>
        <time>2021-08-14T17:58:15.438Z</time>
      </trkpt>
      <trkpt lat="40.73356" lon="43.82946">
        <ele>1510.548633</ele>
        <time>2021-08-14T17:58:18.636Z</time>
      </trkpt>
      <trkpt lat="40.73391" lon="43.82956">
        <ele>1510.612424</ele>
        <time>2021-08-14T17:58:29.957Z</time>
      </trkpt>
      <trkpt lat="40.73471" lon="43.82956">
        <ele>1510.815559</ele>
        <time>2021-08-14T17:58:56.156Z</time>
      </trkpt>
      <trkpt lat="40.7348" lon="43.82953">
        <ele>1510.840707</ele>
        <time>2021-08-14T17:58:59.245Z</time>
      </trkpt>
      <trkpt lat="40.73488" lon="43.8296">
        <ele>1510.866207</ele>
        <time>2021-08-14T17:59:02.567Z</time>
      </trkpt>
      <trkpt lat="40.73516" lon="43.82969">
        <ele>1510.941893</ele>
        <time>2021-08-14T17:59:12.088Z</time>
      </trkpt>
      <trkpt lat="40.73556" lon="43.82978">
        <ele>1511.050616</ele>
        <time>2021-08-14T17:59:26.522Z</time>
      </trkpt>
      <trkpt lat="40.73554" lon="43.83001">
        <ele>1511.09659</ele>
        <time>2021-08-14T17:59:32.845Z</time>
      </trkpt>
      <trkpt lat="40.74298" lon="43.83045">
        <ele>1515.273792</ele>
        <time>2021-08-14T18:03:48.195Z</time>
      </trkpt>
      <trkpt lat="40.74736" lon="43.83062">
        <ele>1517.359375</ele>
        <time>2021-08-14T18:06:16.464Z</time>
      </trkpt>
      <trkpt lat="40.74813" lon="43.83074">
        <ele>1517.694055</ele>
        <time>2021-08-14T18:06:41.970Z</time>
      </trkpt>
      <trkpt lat="40.74842" lon="43.83082">
        <ele>1517.807193</ele>
        <time>2021-08-14T18:06:51.887Z</time>
      </trkpt>
      <trkpt lat="40.74863" lon="43.83087">
        <ele>1517.885662</ele>
        <time>2021-08-14T18:06:58.950Z</time>
      </trkpt>
      <trkpt lat="40.74909" lon="43.83116">
        <ele>1518.072368</ele>
        <time>2021-08-14T18:07:16.054Z</time>
      </trkpt>
      <trkpt lat="40.74964" lon="43.83161">
        <ele>1518.304783</ele>
        <time>2021-08-14T18:07:37.079Z</time>
      </trkpt>
      <trkpt lat="40.75" lon="43.83203">
        <ele>1518.433761</ele>
        <time>2021-08-14T18:07:52.900Z</time>
      </trkpt>
      <trkpt lat="40.75029" lon="43.83248">
        <ele>1518.527327</ele>
        <time>2021-08-14T18:08:07.827Z</time>
      </trkpt>
      <trkpt lat="40.75058" lon="43.83297">
        <ele>1518.625472</ele>
        <time>2021-08-14T18:08:23.173Z</time>
      </trkpt>
      <trkpt lat="40.75076" lon="43.83345">
        <ele>1518.709866</ele>
        <time>2021-08-14T18:08:36.298Z</time>
      </trkpt>
      <trkpt lat="40.75144" lon="43.83569">
        <ele>1518.486779</ele>
        <time>2021-08-14T18:09:32.543Z</time>
      </trkpt>
      <trkpt lat="40.75186" lon="43.83672">
        <ele>1517.740652</ele>
        <time>2021-08-14T18:09:57.260Z</time>
      </trkpt>
      <trkpt lat="40.75207" lon="43.83713">
        <ele>1517.369492</ele>
        <time>2021-08-14T18:10:07.335Z</time>
      </trkpt>
      <trkpt lat="40.75219" lon="43.83728">
        <ele>1517.209439</ele>
        <time>2021-08-14T18:10:11.576Z</time>
      </trkpt>
      <trkpt lat="40.75337" lon="43.8385">
        <ele>1515.69331</ele>
        <time>2021-08-14T18:10:50.809Z</time>
      </trkpt>
      <trkpt lat="40.75792" lon="43.84322">
        <ele>1511.769912</ele>
        <time>2021-08-14T18:13:33.280Z</time>
      </trkpt>
      <trkpt lat="40.75827" lon="43.84359">
        <ele>1511.56216</ele>
        <time>2021-08-14T18:13:46.502Z</time>
      </trkpt>
      <trkpt lat="40.76056" lon="43.84602">
        <ele>1513.196038</ele>
        <time>2021-08-14T18:15:24.386Z</time>
      </trkpt>
      <trkpt lat="40.76138" lon="43.84693">
        <ele>1514.782357</ele>
        <time>2021-08-14T18:16:09.820Z</time>
      </trkpt>
      <trkpt lat="40.76197" lon="43.84616">
        <ele>1516.651372</ele>
        <time>2021-08-14T18:16:48.712Z</time>
      </trkpt>
      <trkpt lat="40.76219" lon="43.84586">
        <ele>1517.35873</ele>
        <time>2021-08-14T18:17:03.159Z</time>
      </trkpt>
      <trkpt lat="40.76249" lon="43.84535">
        <ele>1518.118858</ele>
        <time>2021-08-14T18:17:24.706Z</time>
      </trkpt>
      <trkpt lat="40.76254" lon="43.84528">
        <ele>1518.184862</ele>
        <time>2021-08-14T18:17:27.881Z</time>
      </trkpt>
      <trkpt lat="40.76261" lon="43.84529">
        <ele>1518.258739</ele>
        <time>2021-08-14T18:17:31.114Z</time>
      </trkpt>
      <trkpt lat="40.7628" lon="43.84546">
        <ele>1518.48</ele>
        <time>2021-08-14T18:17:40.151Z</time>
      </trkpt>
      <trkpt lat="40.76291" lon="43.84562">
        <ele>1518.641804</ele>
        <time>2021-08-14T18:17:46.834Z</time>
      </trkpt>
      <trkpt lat="40.76386" lon="43.84643">
        <ele>1519.654626</ele>
        <time>2021-08-14T18:18:25.389Z</time>
      </trkpt>
      <trkpt lat="40.76432" lon="43.84686">
        <ele>1519.788497</ele>
        <time>2021-08-14T18:18:43.588Z</time>
      </trkpt>
      <trkpt lat="40.76497" lon="43.8475">
        <ele>1519.980897</ele>
        <time>2021-08-14T18:19:10.596Z</time>
      </trkpt>
      <trkpt lat="40.76537" lon="43.84676">
        <ele>1520.428482</ele>
        <time>2021-08-14T18:19:34.775Z</time>
      </trkpt>
      <trkpt lat="40.76609" lon="43.84744">
        <ele>1521.285293</ele>
        <time>2021-08-14T18:20:08.343Z</time>
      </trkpt>
      <trkpt lat="40.76717" lon="43.84841">
        <ele>1522.884653</ele>
        <time>2021-08-14T18:21:00.304Z</time>
      </trkpt>
      <trkpt lat="40.76722" lon="43.84847">
        <ele>1522.979512</ele>
        <time>2021-08-14T18:21:03.025Z</time>
      </trkpt>
      <trkpt lat="40.76744" lon="43.84867">
        <ele>1523.356296</ele>
        <time>2021-08-14T18:21:14.133Z</time>
      </trkpt>
      <trkpt lat="40.76892" lon="43.85009">
        <ele>1525.695877</ele>
        <time>2021-08-14T18:22:28.392Z</time>
      </trkpt>
      <trkpt lat="40.76919" lon="43.85035">
        <ele>1526.093573</ele>
        <time>2021-08-14T18:22:40.924Z</time>
      </trkpt>
      <trkpt lat="40.7698" lon="43.84994">
        <ele>1526.66364</ele>
        <time>2021-08-14T18:23:06.025Z</time>
      </trkpt>
      <trkpt lat="40.77107" lon="43.84911">
        <ele>1527.368685</ele>
        <time>2021-08-14T18:23:55.055Z</time>
      </trkpt>
      <trkpt lat="40.77125" lon="43.84915">
        <ele>1527.457692</ele>
        <time>2021-08-14T18:24:01.450Z</time>
      </trkpt>
      <trkpt lat="40.77161" lon="43.84844">
        <ele>1527.765707</ele>
        <time>2021-08-14T18:24:24.087Z</time>
      </trkpt>
      <trkpt lat="40.7722" lon="43.84897">
        <ele>1528.103696</ele>
        <time>2021-08-14T18:24:49.058Z</time>
      </trkpt>
      <trkpt lat="40.77248" lon="43.84922">
        <ele>1528.27067</ele>
        <time>2021-08-14T18:25:00.837Z</time>
      </trkpt>
      <trkpt lat="40.77294" lon="43.84964">
        <ele>1528.615116</ele>
        <time>2021-08-14T18:25:21.237Z</time>
      </trkpt>
      <trkpt lat="40.77339" lon="43.85005">
        <ele>1528.944808</ele>
        <time>2021-08-14T18:25:40.850Z</time>
      </trkpt>
      <trkpt lat="40.77376" lon="43.85038">
        <ele>1529.216489</ele>
        <time>2021-08-14T18:25:56.872Z</time>
      </trkpt>
      <trkpt lat="40.77432" lon="43.85089">
        <ele>1529.577121</ele>
        <time>2021-08-14T18:26:20.988Z</time>
      </trkpt>
      <trkpt lat="40.7744" lon="43.85082">
        <ele>1529.625349</ele>
        <time>2021-08-14T18:26:25.198Z</time>
      </trkpt>
      <trkpt lat="40.77449" lon="43.8509">
        <ele>1529.675815</ele>
        <time>2021-08-14T18:26:28.618Z</time>
      </trkpt>
      <trkpt lat="40.77465" lon="43.85056">
        <ele>1529.82329</ele>
        <time>2021-08-14T18:26:49.561Z</time>
      </trkpt>
      <trkpt lat="40.77473" lon="43.85061">
        <ele>1529.864647</ele>
        <time>2021-08-14T18:26:52.832Z</time>
      </trkpt>
      <trkpt lat="40.77537" lon="43.85122">
        <ele>1530.277212</ele>
        <time>2021-08-14T18:27:20.827Z</time>
      </trkpt>
      <trkpt lat="40.77581" lon="43.85156">
        <ele>1530.72253</ele>
        <time>2021-08-14T18:27:38.835Z</time>
      </trkpt>
      <trkpt lat="40.77587" lon="43.85157">
        <ele>1530.777251</ele>
        <time>2021-08-14T18:27:40.976Z</time>
      </trkpt>
      <trkpt lat="40.77585" lon="43.85153">
        <ele>1530.811245</ele>
        <time>2021-08-14T18:27:42.622Z</time>
      </trkpt>
      <trkpt lat="40.77562" lon="43.85097">
        <ele>1531.22676</ele>
        <time>2021-08-14T18:28:00.060Z</time>
      </trkpt>
      <trkpt lat="40.77564" lon="43.85064">
        <ele>1531.44375</ele>
        <time>2021-08-14T18:28:09.724Z</time>
      </trkpt>
      <trkpt lat="40.77588" lon="43.85021">
        <ele>1531.815038</ele>
        <time>2021-08-14T18:28:25.672Z</time>
      </trkpt>
      <trkpt lat="40.77598" lon="43.85013">
        <ele>1532.008412</ele>
        <time>2021-08-14T18:28:30.154Z</time>
      </trkpt>
      <trkpt lat="40.77637" lon="43.85025">
        <ele>1532.69594</ele>
        <time>2021-08-14T18:28:46.863Z</time>
      </trkpt>
      <trkpt lat="40.77661" lon="43.85033">
        <ele>1533.123574</ele>
        <time>2021-08-14T18:28:57.473Z</time>
      </trkpt>
      <trkpt lat="40.7779" lon="43.85045">
        <ele>1535.171334</ele>
        <time>2021-08-14T18:29:53.006Z</time>
      </trkpt>
      <trkpt lat="40.77794" lon="43.85019">
        <ele>1535.387515</ele>
        <time>2021-08-14T18:30:01.729Z</time>
      </trkpt>
      <trkpt lat="40.77801" lon="43.84995">
        <ele>1535.598558</ele>
        <time>2021-08-14T18:30:09.926Z</time>
      </trkpt>
      <trkpt lat="40.7781" lon="43.84953">
        <ele>1535.953829</ele>
        <time>2021-08-14T18:30:23.205Z</time>
      </trkpt>
      <trkpt lat="40.77925" lon="43.84961">
        <ele>1536.718473</ele>
        <time>2021-08-14T18:31:03.090Z</time>
      </trkpt>
      <trkpt lat="40.78054" lon="43.84978">
        <ele>1536.436743</ele>
        <time>2021-08-14T18:31:41.748Z</time>
      </trkpt>
      <trkpt lat="40.78126" lon="43.84984">
        <ele>1536.753256</ele>
        <time>2021-08-14T18:32:04.954Z</time>
      </trkpt>
      <trkpt lat="40.78182" lon="43.84989">
        <ele>1537.085236</ele>
        <time>2021-08-14T18:32:25.477Z</time>
      </trkpt>
      <trkpt lat="40.78311" lon="43.84999">
        <ele>1538.265513</ele>
        <time>2021-08-14T18:33:15.690Z</time>
      </trkpt>
      <trkpt lat="40.78315" lon="43.84904">
        <ele>1539.164243</ele>
        <time>2021-08-14T18:33:44.606Z</time>
      </trkpt>
      <trkpt lat="40.78416" lon="43.84917">
        <ele>1540.393405</ele>
        <time>2021-08-14T18:34:23.008Z</time>
      </trkpt>
      <trkpt lat="40.78547" lon="43.8493">
        <ele>1541.973573</ele>
        <time>2021-08-14T18:35:14.122Z</time>
      </trkpt>
      <trkpt lat="40.7865" lon="43.84941">
        <ele>1543.368028</ele>
        <time>2021-08-14T18:35:56.730Z</time>
      </trkpt>
      <trkpt lat="40.78693" lon="43.84945">
        <ele>1543.951311</ele>
        <time>2021-08-14T18:36:14.281Z</time>
      </trkpt>
      <trkpt lat="40.78701" lon="43.84946">
        <ele>1544.065503</ele>
        <time>2021-08-14T18:36:17.679Z</time>
      </trkpt>
      <trkpt lat="40.78711" lon="43.84947">
        <ele>1544.19839</ele>
        <time>2021-08-14T18:36:21.394Z</time>
      </trkpt>
      <trkpt lat="40.78713" lon="43.84947">
        <ele>1544.226863</ele>
        <time>2021-08-14T18:36:22.173Z</time>
      </trkpt>
      <trkpt lat="40.78732" lon="43.84948">
        <ele>1544.355572</ele>
        <time>2021-08-14T18:36:29.328Z</time>
      </trkpt>
      <trkpt lat="40.78853" lon="43.8496">
        <ele>1544.933401</ele>
        <time>2021-08-14T18:37:11.015Z</time>
      </trkpt>
      <trkpt lat="40.78857" lon="43.84863">
        <ele>1545.303903</ele>
        <time>2021-08-14T18:37:33.786Z</time>
      </trkpt>
      <trkpt lat="40.79052" lon="43.84882">
        <ele>1546.539641</ele>
        <time>2021-08-14T18:38:44.561Z</time>
      </trkpt>
      <trkpt lat="40.79139" lon="43.84888">
        <ele>1547.3458</ele>
        <time>2021-08-14T18:39:18.068Z</time>
      </trkpt>
      <trkpt lat="40.79149" lon="43.84889">
        <ele>1547.434953</ele>
        <time>2021-08-14T18:39:21.647Z</time>
      </trkpt>
      <trkpt lat="40.79161" lon="43.84888">
        <ele>1547.550243</ele>
        <time>2021-08-14T18:39:26.352Z</time>
      </trkpt>
      <trkpt lat="40.79168" lon="43.84888">
        <ele>1547.608677</ele>
        <time>2021-08-14T18:39:28.813Z</time>
      </trkpt>
      <trkpt lat="40.79186" lon="43.84896">
        <ele>1547.785673</ele>
        <time>2021-08-14T18:39:36.068Z</time>
      </trkpt>
      <trkpt lat="40.79224" lon="43.84899">
        <ele>1548.169528</ele>
        <time>2021-08-14T18:39:50.519Z</time>
      </trkpt>
      <trkpt lat="40.79348" lon="43.8491">
        <ele>1549.421351</ele>
        <time>2021-08-14T18:40:36.948Z</time>
      </trkpt>
      <trkpt lat="40.79379" lon="43.84899">
        <ele>1549.789042</ele>
        <time>2021-08-14T18:40:49.477Z</time>
      </trkpt>
      <trkpt lat="40.79408" lon="43.8489">
        <ele>1550.171366</ele>
        <time>2021-08-14T18:41:01.322Z</time>
      </trkpt>
      <trkpt lat="40.79513" lon="43.849">
        <ele>1551.548246</ele>
        <time>2021-08-14T18:41:44.594Z</time>
      </trkpt>
      <trkpt lat="40.79549" lon="43.84904">
        <ele>1551.991288</ele>
        <time>2021-08-14T18:41:58.530Z</time>
      </trkpt>
      <trkpt lat="40.79588" lon="43.84908">
        <ele>1552.316107</ele>
        <time>2021-08-14T18:42:13.037Z</time>
      </trkpt>
      <trkpt lat="40.79626" lon="43.84895">
        <ele>1552.648149</ele>
        <time>2021-08-14T18:42:28.125Z</time>
      </trkpt>
      <trkpt lat="40.79638" lon="43.84868">
        <ele>1552.849441</ele>
        <time>2021-08-14T18:42:37.270Z</time>
      </trkpt>
      <trkpt lat="40.79641" lon="43.84817">
        <ele>1553.174953</ele>
        <time>2021-08-14T18:42:51.998Z</time>
      </trkpt>
      <trkpt lat="40.79644" lon="43.84779">
        <ele>1553.414582</ele>
        <time>2021-08-14T18:43:02.100Z</time>
      </trkpt>
      <trkpt lat="40.79648" lon="43.84698">
        <ele>1553.546183</ele>
        <time>2021-08-14T18:43:22.429Z</time>
      </trkpt>
      <trkpt lat="40.79649" lon="43.84684">
        <ele>1553.564448</ele>
        <time>2021-08-14T18:43:25.568Z</time>
      </trkpt>
      <trkpt lat="40.7965" lon="43.84671">
        <ele>1553.581899</ele>
        <time>2021-08-14T18:43:28.816Z</time>
      </trkpt>
      <trkpt lat="40.79655" lon="43.8458">
        <ele>1553.703883</ele>
        <time>2021-08-14T18:43:51.422Z</time>
      </trkpt>
      <trkpt lat="40.7968" lon="43.84583">
        <ele>1553.749815</ele>
        <time>2021-08-14T18:44:00.322Z</time>
      </trkpt>
      <trkpt lat="40.79685" lon="43.84515">
        <ele>1553.996539</ele>
        <time>2021-08-14T18:44:18.146Z</time>
      </trkpt>
      <trkpt lat="40.79711" lon="43.84518">
        <ele>1554.130953</ele>
        <time>2021-08-14T18:44:26.877Z</time>
      </trkpt>
      <trkpt lat="40.79713" lon="43.84484">
        <ele>1554.266411</ele>
        <time>2021-08-14T18:44:36.067Z</time>
      </trkpt>
      <trkpt lat="40.79808" lon="43.84497">
        <ele>1554.852214</ele>
        <time>2021-08-14T18:45:09.356Z</time>
      </trkpt>
      <trkpt lat="40.79863" lon="43.84504">
        <ele>1555.494737</ele>
        <time>2021-08-14T18:45:29.443Z</time>
      </trkpt>
      <trkpt lat="40.79956" lon="43.84517">
        <ele>1556.599697</ele>
        <time>2021-08-14T18:46:05.460Z</time>
      </trkpt>
      <trkpt lat="40.80048" lon="43.84527">
        <ele>1557.995039</ele>
        <time>2021-08-14T18:46:41.556Z</time>
      </trkpt>
      <trkpt lat="40.8005" lon="43.84493">
        <ele>1558.403302</ele>
        <time>2021-08-14T18:46:52.191Z</time>
      </trkpt>
      <trkpt lat="40.80054" lon="43.84449">
        <ele>1558.944885</ele>
        <time>2021-08-14T18:47:06.718Z</time>
      </trkpt>
      <trkpt lat="40.80065" lon="43.84316">
        <ele>1560.223584</ele>
        <time>2021-08-14T18:47:49.632Z</time>
      </trkpt>
      <trkpt lat="40.80129" lon="43.84324">
        <ele>1560.847409</ele>
        <time>2021-08-14T18:48:12.790Z</time>
      </trkpt>
      <trkpt lat="40.80202" lon="43.84333">
        <ele>1561.491399</ele>
        <time>2021-08-14T18:48:37.301Z</time>
      </trkpt>
      <trkpt lat="40.80262" lon="43.8434">
        <ele>1561.795506</ele>
        <time>2021-08-14T18:48:57.127Z</time>
      </trkpt>
      <trkpt lat="40.80497" lon="43.8437">
        <ele>1563.299485</ele>
        <time>2021-08-14T18:50:17.995Z</time>
      </trkpt>
      <trkpt lat="40.80553" lon="43.84377">
        <ele>1563.740287</ele>
        <time>2021-08-14T18:50:38.721Z</time>
      </trkpt>
      <trkpt lat="40.80615" lon="43.84385">
        <ele>1564.536951</ele>
        <time>2021-08-14T18:51:02.521Z</time>
      </trkpt>
      <trkpt lat="40.80665" lon="43.84391">
        <ele>1565.179318</ele>
        <time>2021-08-14T18:51:22.107Z</time>
      </trkpt>
      <trkpt lat="40.80671" lon="43.84311">
        <ele>1565.955959</ele>
        <time>2021-08-14T18:51:45.510Z</time>
      </trkpt>
      <trkpt lat="40.80672" lon="43.84297">
        <ele>1566.112829</ele>
        <time>2021-08-14T18:51:49.687Z</time>
      </trkpt>
      <trkpt lat="40.8068" lon="43.84298">
        <ele>1566.228331</ele>
        <time>2021-08-14T18:51:52.552Z</time>
      </trkpt>
      <trkpt lat="40.80703" lon="43.84301">
        <ele>1566.582695</ele>
        <time>2021-08-14T18:52:01.927Z</time>
      </trkpt>
      <trkpt lat="40.80729" lon="43.84295">
        <ele>1566.986911</ele>
        <time>2021-08-14T18:52:12.662Z</time>
      </trkpt>
      <trkpt lat="40.80808" lon="43.84208">
        <ele>1568.570277</ele>
        <time>2021-08-14T18:52:53.860Z</time>
      </trkpt>
      <trkpt lat="40.80966" lon="43.84041">
        <ele>1571.397361</ele>
        <time>2021-08-14T18:54:12.772Z</time>
      </trkpt>
      <trkpt lat="40.81099" lon="43.83903">
        <ele>1573.26266</ele>
        <time>2021-08-14T18:55:15.565Z</time>
      </trkpt>
      <trkpt lat="40.81169" lon="43.83832">
        <ele>1574.009761</ele>
        <time>2021-08-14T18:55:47.797Z</time>
      </trkpt>
      <trkpt lat="40.81294" lon="43.837">
        <ele>1575.196617</ele>
        <time>2021-08-14T18:56:44.588Z</time>
      </trkpt>
      <trkpt lat="40.81447" lon="43.83538">
        <ele>1576.491945</ele>
        <time>2021-08-14T18:57:50.715Z</time>
      </trkpt>
      <trkpt lat="40.81509" lon="43.83635">
        <ele>1577.197234</ele>
        <time>2021-08-14T18:58:26.920Z</time>
      </trkpt>
      <trkpt lat="40.81565" lon="43.83721">
        <ele>1577.924923</ele>
        <time>2021-08-14T18:58:59.127Z</time>
      </trkpt>
      <trkpt lat="40.81648" lon="43.83636">
        <ele>1578.847551</ele>
        <time>2021-08-14T18:59:37.666Z</time>
      </trkpt>
      <trkpt lat="40.8166" lon="43.83603">
        <ele>1579.162353</ele>
        <time>2021-08-14T18:59:48.279Z</time>
      </trkpt>
      <trkpt lat="40.81704" lon="43.83609">
        <ele>1579.64409</ele>
        <time>2021-08-14T19:00:04.222Z</time>
      </trkpt>
      <trkpt lat="40.81719" lon="43.83611">
        <ele>1579.812467</ele>
        <time>2021-08-14T19:00:10.092Z</time>
      </trkpt>
      <trkpt lat="40.81743" lon="43.83628">
        <ele>1580.117115</ele>
        <time>2021-08-14T19:00:20.115Z</time>
      </trkpt>
      <trkpt lat="40.81761" lon="43.83657">
        <ele>1580.435458</ele>
        <time>2021-08-14T19:00:31.327Z</time>
      </trkpt>
      <trkpt lat="40.81794" lon="43.83714">
        <ele>1581.348514</ele>
        <time>2021-08-14T19:00:55.015Z</time>
      </trkpt>
      <trkpt lat="40.81845" lon="43.83667">
        <ele>1582.690578</ele>
        <time>2021-08-14T19:01:21.611Z</time>
      </trkpt>
      <trkpt lat="40.81879" lon="43.83697">
        <ele>1583.582579</ele>
        <time>2021-08-14T19:01:40.749Z</time>
      </trkpt>
      <trkpt lat="40.81883" lon="43.83702">
        <ele>1583.71141</ele>
        <time>2021-08-14T19:01:44.138Z</time>
      </trkpt>
      <trkpt lat="40.81943" lon="43.83756">
        <ele>1585.173028</ele>
        <time>2021-08-14T19:02:16.292Z</time>
      </trkpt>
      <trkpt lat="40.8195" lon="43.83776">
        <ele>1585.489215</ele>
        <time>2021-08-14T19:02:23.733Z</time>
      </trkpt>
      <trkpt lat="40.81961" lon="43.83785">
        <ele>1585.716914</ele>
        <time>2021-08-14T19:02:28.809Z</time>
      </trkpt>
      <trkpt lat="40.81979" lon="43.83784">
        <ele>1586.051897</ele>
        <time>2021-08-14T19:02:37.534Z</time>
      </trkpt>
      <trkpt lat="40.82013" lon="43.83782">
        <ele>1586.676062</ele>
        <time>2021-08-14T19:02:52.365Z</time>
      </trkpt>
      <trkpt lat="40.82073" lon="43.83797">
        <ele>1587.780186</ele>
        <time>2021-08-14T19:03:16.578Z</time>
      </trkpt>
      <trkpt lat="40.82151" lon="43.83779">
        <ele>1588.773268</ele>
        <time>2021-08-14T19:03:47.252Z</time>
      </trkpt>
      <trkpt lat="40.82239" lon="43.83775">
        <ele>1589.837562</ele>
        <time>2021-08-14T19:04:21.365Z</time>
      </trkpt>
      <trkpt lat="40.8233" lon="43.83782">
        <ele>1591.248669</ele>
        <time>2021-08-14T19:04:58.380Z</time>
      </trkpt>
      <trkpt lat="40.82418" lon="43.83778">
        <ele>1592.693848</ele>
        <time>2021-08-14T19:05:35.720Z</time>
      </trkpt>
      <trkpt lat="40.82431" lon="43.83732">
        <ele>1593.31774</ele>
        <time>2021-08-14T19:05:51.696Z</time>
      </trkpt>
      <trkpt lat="40.82485" lon="43.83722">
        <ele>1594.258787</ele>
        <time>2021-08-14T19:06:15.057Z</time>
      </trkpt>
      <trkpt lat="40.82507" lon="43.83725">
        <ele>1594.642694</ele>
        <time>2021-08-14T19:06:24.578Z</time>
      </trkpt>
      <trkpt lat="40.82567" lon="43.83766">
        <ele>1595.814898</ele>
        <time>2021-08-14T19:06:52.902Z</time>
      </trkpt>
      <trkpt lat="40.82637" lon="43.83788">
        <ele>1596.589706</ele>
        <time>2021-08-14T19:07:21.456Z</time>
      </trkpt>
      <trkpt lat="40.82637" lon="43.83821">
        <ele>1596.79955</ele>
        <time>2021-08-14T19:07:30.859Z</time>
      </trkpt>
      <trkpt lat="40.82756" lon="43.83874">
        <ele>1597.789174</ele>
        <time>2021-08-14T19:08:15.321Z</time>
      </trkpt>
      <trkpt lat="40.82856" lon="43.83964">
        <ele>1598.490597</ele>
        <time>2021-08-14T19:08:57.535Z</time>
      </trkpt>
      <trkpt lat="40.82876" lon="43.84001">
        <ele>1598.698191</ele>
        <time>2021-08-14T19:09:10.533Z</time>
      </trkpt>
      <trkpt lat="40.8289" lon="43.84052">
        <ele>1599.255292</ele>
        <time>2021-08-14T19:09:26.098Z</time>
      </trkpt>
      <trkpt lat="40.82909" lon="43.84078">
        <ele>1599.627844</ele>
        <time>2021-08-14T19:09:36.764Z</time>
      </trkpt>
      <trkpt lat="40.82955" lon="43.84084">
        <ele>1600.258408</ele>
        <time>2021-08-14T19:09:55.283Z</time>
      </trkpt>
      <trkpt lat="40.8299" lon="43.84072">
        <ele>1600.76143</ele>
        <time>2021-08-14T19:10:10.452Z</time>
      </trkpt>
      <trkpt lat="40.8302" lon="43.8408">
        <ele>1601.180185</ele>
        <time>2021-08-14T19:10:23.003Z</time>
      </trkpt>
      <trkpt lat="40.83176" lon="43.84192">
        <ele>1604.691089</ele>
        <time>2021-08-14T19:11:40.475Z</time>
      </trkpt>
      <trkpt lat="40.83216" lon="43.84232">
        <ele>1605.898351</ele>
        <time>2021-08-14T19:12:03.180Z</time>
      </trkpt>
      <trkpt lat="40.83234" lon="43.84257">
        <ele>1606.525467</ele>
        <time>2021-08-14T19:12:15.252Z</time>
      </trkpt>
      <trkpt lat="40.83265" lon="43.84255">
        <ele>1607.283464</ele>
        <time>2021-08-14T19:12:29.734Z</time>
      </trkpt>
      <trkpt lat="40.83299" lon="43.84278">
        <ele>1608.200565</ele>
        <time>2021-08-14T19:12:47.539Z</time>
      </trkpt>
      <trkpt lat="40.83469" lon="43.8431">
        <ele>1612.301796</ele>
        <time>2021-08-14T19:14:07.002Z</time>
      </trkpt>
      <trkpt lat="40.83756" lon="43.84408">
        <ele>1618.850233</ele>
        <time>2021-08-14T19:16:19.811Z</time>
      </trkpt>
      <trkpt lat="40.84102" lon="43.84547">
        <ele>1626.417168</ele>
        <time>2021-08-14T19:18:58.759Z</time>
      </trkpt>
      <trkpt lat="40.84107" lon="43.84537">
        <ele>1626.601484</ele>
        <time>2021-08-14T19:19:03.149Z</time>
      </trkpt>
      <trkpt lat="40.84118" lon="43.84534">
        <ele>1626.833426</ele>
        <time>2021-08-14T19:19:07.857Z</time>
      </trkpt>
      <trkpt lat="40.84209" lon="43.8458">
        <ele>1628.833522</ele>
        <time>2021-08-14T19:19:50.522Z</time>
      </trkpt>
      <trkpt lat="40.84237" lon="43.84587">
        <ele>1629.374973</ele>
        <time>2021-08-14T19:20:02.628Z</time>
      </trkpt>
      <trkpt lat="40.84354" lon="43.84582">
        <ele>1631.600955</ele>
        <time>2021-08-14T19:20:53.109Z</time>
      </trkpt>
      <trkpt lat="40.84431" lon="43.84565">
        <ele>1632.864149</ele>
        <time>2021-08-14T19:21:26.845Z</time>
      </trkpt>
      <trkpt lat="40.84503" lon="43.84559">
        <ele>1633.942335</ele>
        <time>2021-08-14T19:21:55.773Z</time>
      </trkpt>
      <trkpt lat="40.84564" lon="43.84549">
        <ele>1634.826605</ele>
        <time>2021-08-14T19:22:19.858Z</time>
      </trkpt>
      <trkpt lat="40.84568" lon="43.84531">
        <ele>1634.970466</ele>
        <time>2021-08-14T19:22:24.705Z</time>
      </trkpt>
      <trkpt lat="40.84593" lon="43.84484">
        <ele>1635.415867</ele>
        <time>2021-08-14T19:22:41.532Z</time>
      </trkpt>
      <trkpt lat="40.84618" lon="43.8446">
        <ele>1635.733223</ele>
        <time>2021-08-14T19:22:53.453Z</time>
      </trkpt>
      <trkpt lat="40.84633" lon="43.84409">
        <ele>1636.153685</ele>
        <time>2021-08-14T19:23:09.494Z</time>
      </trkpt>
      <trkpt lat="40.84641" lon="43.844">
        <ele>1636.257925</ele>
        <time>2021-08-14T19:23:13.389Z</time>
      </trkpt>
      <trkpt lat="40.84685" lon="43.84395">
        <ele>1636.693431</ele>
        <time>2021-08-14T19:23:29.549Z</time>
      </trkpt>
      <trkpt lat="40.84692" lon="43.84393">
        <ele>1636.754919</ele>
        <time>2021-08-14T19:23:32.476Z</time>
      </trkpt>
      <trkpt lat="40.84714" lon="43.84368">
        <ele>1637.014817</ele>
        <time>2021-08-14T19:23:42.933Z</time>
      </trkpt>
      <trkpt lat="40.84724" lon="43.84347">
        <ele>1637.188053</ele>
        <time>2021-08-14T19:23:50.352Z</time>
      </trkpt>
      <trkpt lat="40.84729" lon="43.84301">
        <ele>1637.500974</ele>
        <time>2021-08-14T19:24:03.455Z</time>
      </trkpt>
      <trkpt lat="40.84763" lon="43.84273">
        <ele>1637.863232</ele>
        <time>2021-08-14T19:24:18.813Z</time>
      </trkpt>
      <trkpt lat="40.84771" lon="43.84294">
        <ele>1638.021332</ele>
        <time>2021-08-14T19:24:25.279Z</time>
      </trkpt>
      <trkpt lat="40.84791" lon="43.84384">
        <ele>1638.71507</ele>
        <time>2021-08-14T19:24:50.371Z</time>
      </trkpt>
      <trkpt lat="40.84808" lon="43.84328">
        <ele>1639.173335</ele>
        <time>2021-08-14T19:25:06.981Z</time>
      </trkpt>
      <trkpt lat="40.84831" lon="43.8427">
        <ele>1639.669632</ele>
        <time>2021-08-14T19:25:25.762Z</time>
      </trkpt>
      <trkpt lat="40.84851" lon="43.84234">
        <ele>1640.046589</ele>
        <time>2021-08-14T19:25:39.344Z</time>
      </trkpt>
      <trkpt lat="40.8486" lon="43.84225">
        <ele>1640.331828</ele>
        <time>2021-08-14T19:25:43.428Z</time>
      </trkpt>
      <trkpt lat="40.84871" lon="43.84225">
        <ele>1640.62214</ele>
        <time>2021-08-14T19:25:48.190Z</time>
      </trkpt>
      <trkpt lat="40.8488" lon="43.84218">
        <ele>1640.916279</ele>
        <time>2021-08-14T19:25:53.094Z</time>
      </trkpt>
      <trkpt lat="40.84888" lon="43.84202">
        <ele>1641.292556</ele>
        <time>2021-08-14T19:25:58.983Z</time>
      </trkpt>
      <trkpt lat="40.84891" lon="43.84195">
        <ele>1641.447463</ele>
        <time>2021-08-14T19:26:01.512Z</time>
      </trkpt>
      <trkpt lat="40.84898" lon="43.84203">
        <ele>1641.695409</ele>
        <time>2021-08-14T19:26:06.392Z</time>
      </trkpt>
      <trkpt lat="40.84918" lon="43.84205">
        <ele>1642.204911</ele>
        <time>2021-08-14T19:26:15.732Z</time>
      </trkpt>
      <trkpt lat="40.84954" lon="43.84187">
        <ele>1643.219385</ele>
        <time>2021-08-14T19:26:34.475Z</time>
      </trkpt>
      <trkpt lat="40.84978" lon="43.84148">
        <ele>1644.221986</ele>
        <time>2021-08-14T19:26:53.542Z</time>
      </trkpt>
      <trkpt lat="40.84993" lon="43.84133">
        <ele>1644.720914</ele>
        <time>2021-08-14T19:27:03.918Z</time>
      </trkpt>
      <trkpt lat="40.85014" lon="43.84101">
        <ele>1645.868037</ele>
        <time>2021-08-14T19:27:20.006Z</time>
      </trkpt>
      <trkpt lat="40.85015" lon="43.84095">
        <ele>1646.050464</ele>
        <time>2021-08-14T19:27:24.119Z</time>
      </trkpt>
      <trkpt lat="40.85019" lon="43.84043">
        <ele>1647.463988</ele>
        <time>2021-08-14T19:27:44.644Z</time>
      </trkpt>
      <trkpt lat="40.85074" lon="43.83975">
        <ele>1650.156538</ele>
        <time>2021-08-14T19:28:24.142Z</time>
      </trkpt>
      <trkpt lat="40.85094" lon="43.83968">
        <ele>1650.874273</ele>
        <time>2021-08-14T19:28:33.698Z</time>
      </trkpt>
      <trkpt lat="40.85105" lon="43.83969">
        <ele>1651.274983</ele>
        <time>2021-08-14T19:28:41.516Z</time>
      </trkpt>
      <trkpt lat="40.85109" lon="43.83948">
        <ele>1651.881586</ele>
        <time>2021-08-14T19:28:49.331Z</time>
      </trkpt>
      <trkpt lat="40.85114" lon="43.83888">
        <ele>1653.554938</ele>
        <time>2021-08-14T19:29:12.618Z</time>
      </trkpt>
      <trkpt lat="40.85245" lon="43.83904">
        <ele>1658.37376</ele>
        <time>2021-08-14T19:30:21.343Z</time>
      </trkpt>
      <trkpt lat="40.85471" lon="43.83947">
        <ele>1665.743677</ele>
        <time>2021-08-14T19:32:19.957Z</time>
      </trkpt>
      <trkpt lat="40.86527" lon="43.84147">
        <ele>1688.044683</ele>
        <time>2021-08-14T19:39:44.138Z</time>
      </trkpt>
      <trkpt lat="40.86741" lon="43.84191">
        <ele>1696.242342</ele>
        <time>2021-08-14T19:41:46.273Z</time>
      </trkpt>
      <trkpt lat="40.86841" lon="43.84227">
        <ele>1699.965126</ele>
        <time>2021-08-14T19:42:39.864Z</time>
      </trkpt>
      <trkpt lat="40.8686" lon="43.84238">
        <ele>1700.217326</ele>
        <time>2021-08-14T19:42:50.021Z</time>
      </trkpt>
      <trkpt lat="40.86887" lon="43.84259">
        <ele>1700.578524</ele>
        <time>2021-08-14T19:43:02.533Z</time>
      </trkpt>
      <trkpt lat="40.86932" lon="43.84303">
        <ele>1701.233299</ele>
        <time>2021-08-14T19:43:21.681Z</time>
      </trkpt>
      <trkpt lat="40.86983" lon="43.84379">
        <ele>1701.974608</ele>
        <time>2021-08-14T19:43:45.841Z</time>
      </trkpt>
      <trkpt lat="40.87007" lon="43.84431">
        <ele>1702.154983</ele>
        <time>2021-08-14T19:43:58.842Z</time>
      </trkpt>
      <trkpt lat="40.87021" lon="43.8446">
        <ele>1702.25568</ele>
        <time>2021-08-14T19:44:06.589Z</time>
      </trkpt>
      <trkpt lat="40.87092" lon="43.84652">
        <ele>1704.260198</ele>
        <time>2021-08-14T19:45:06.937Z</time>
      </trkpt>
      <trkpt lat="40.87109" lon="43.8469">
        <ele>1705.034936</ele>
        <time>2021-08-14T19:45:22.805Z</time>
      </trkpt>
      <trkpt lat="40.87131" lon="43.84716">
        <ele>1705.694454</ele>
        <time>2021-08-14T19:45:36.541Z</time>
      </trkpt>
      <trkpt lat="40.87158" lon="43.84737">
        <ele>1706.404228</ele>
        <time>2021-08-14T19:45:51.697Z</time>
      </trkpt>
      <trkpt lat="40.87183" lon="43.84758">
        <ele>1707.313452</ele>
        <time>2021-08-14T19:46:06.296Z</time>
      </trkpt>
      <trkpt lat="40.87381" lon="43.84925">
        <ele>1716.560027</ele>
        <time>2021-08-14T19:48:09.079Z</time>
      </trkpt>
      <trkpt lat="40.87477" lon="43.8502">
        <ele>1722.054787</ele>
        <time>2021-08-14T19:49:19.957Z</time>
      </trkpt>
      <trkpt lat="40.87535" lon="43.85064">
        <ele>1725.347104</ele>
        <time>2021-08-14T19:50:00.731Z</time>
      </trkpt>
      <trkpt lat="40.87557" lon="43.8508">
        <ele>1726.589092</ele>
        <time>2021-08-14T19:50:15.779Z</time>
      </trkpt>
      <trkpt lat="40.87646" lon="43.85142">
        <ele>1731.319391</ele>
        <time>2021-08-14T19:51:13.455Z</time>
      </trkpt>
      <trkpt lat="40.87674" lon="43.85162">
        <ele>1732.611379</ele>
        <time>2021-08-14T19:51:31.030Z</time>
      </trkpt>
      <trkpt lat="40.87708" lon="43.85204">
        <ele>1734.510832</ele>
        <time>2021-08-14T19:51:55.937Z</time>
      </trkpt>
      <trkpt lat="40.87718" lon="43.8522">
        <ele>1735.123589</ele>
        <time>2021-08-14T19:52:04.035Z</time>
      </trkpt>
      <trkpt lat="40.87807" lon="43.85357">
        <ele>1740.602212</ele>
        <time>2021-08-14T19:53:14.859Z</time>
      </trkpt>
      <trkpt lat="40.87954" lon="43.85486">
        <ele>1748.290124</ele>
        <time>2021-08-14T19:54:51.235Z</time>
      </trkpt>
      <trkpt lat="40.88148" lon="43.85657">
        <ele>1760.902463</ele>
        <time>2021-08-14T19:57:13.412Z</time>
      </trkpt>
      <trkpt lat="40.89011" lon="43.8664">
        <ele>1840.593619</ele>
        <time>2021-08-14T20:10:38.508Z</time>
      </trkpt>
      <trkpt lat="40.89111" lon="43.86786">
        <ele>1851.550951</ele>
        <time>2021-08-14T20:12:27.060Z</time>
      </trkpt>
      <trkpt lat="40.89144" lon="43.86849">
        <ele>1855.760359</ele>
        <time>2021-08-14T20:13:08.523Z</time>
      </trkpt>
      <trkpt lat="40.8919" lon="43.86978">
        <ele>1863.555959</ele>
        <time>2021-08-14T20:14:26.115Z</time>
      </trkpt>
      <trkpt lat="40.89254" lon="43.87247">
        <ele>1878.639016</ele>
        <time>2021-08-14T20:16:57.934Z</time>
      </trkpt>
      <trkpt lat="40.89288" lon="43.87447">
        <ele>1888.845977</ele>
        <time>2021-08-14T20:18:42.451Z</time>
      </trkpt>
      <trkpt lat="40.89369" lon="43.87724">
        <ele>1903.195283</ele>
        <time>2021-08-14T20:21:16.541Z</time>
      </trkpt>
      <trkpt lat="40.89419" lon="43.87809">
        <ele>1907.014435</ele>
        <time>2021-08-14T20:22:02.658Z</time>
      </trkpt>
      <trkpt lat="40.89513" lon="43.87963">
        <ele>1914.558059</ele>
        <time>2021-08-14T20:23:24.194Z</time>
      </trkpt>
      <trkpt lat="40.89585" lon="43.88027">
        <ele>1919.237358</ele>
        <time>2021-08-14T20:24:18.997Z</time>
      </trkpt>
      <trkpt lat="40.89718" lon="43.88099">
        <ele>1928.514414</ele>
        <time>2021-08-14T20:26:00.545Z</time>
      </trkpt>
      <trkpt lat="40.89745" lon="43.88093">
        <ele>1930.368904</ele>
        <time>2021-08-14T20:26:19.437Z</time>
      </trkpt>
      <trkpt lat="40.8976" lon="43.88069">
        <ele>1931.925837</ele>
        <time>2021-08-14T20:26:34.935Z</time>
      </trkpt>
      <trkpt lat="40.89764" lon="43.88047">
        <ele>1933.093567</ele>
        <time>2021-08-14T20:26:46.515Z</time>
      </trkpt>
      <trkpt lat="40.89761" lon="43.88015">
        <ele>1934.601889</ele>
        <time>2021-08-14T20:27:02.256Z</time>
      </trkpt>
      <trkpt lat="40.89734" lon="43.87983">
        <ele>1936.888242</ele>
        <time>2021-08-14T20:27:25.677Z</time>
      </trkpt>
      <trkpt lat="40.89656" lon="43.87936">
        <ele>1942.212734</ele>
        <time>2021-08-14T20:28:20.651Z</time>
      </trkpt>
      <trkpt lat="40.89624" lon="43.87899">
        <ele>1945.083318</ele>
        <time>2021-08-14T20:28:49.983Z</time>
      </trkpt>
      <trkpt lat="40.89614" lon="43.87848">
        <ele>1948.157264</ele>
        <time>2021-08-14T20:29:18.512Z</time>
      </trkpt>
      <trkpt lat="40.89618" lon="43.87804">
        <ele>1950.785655</ele>
        <time>2021-08-14T20:29:44.060Z</time>
      </trkpt>
      <trkpt lat="40.89638" lon="43.87769">
        <ele>1953.409</ele>
        <time>2021-08-14T20:30:10.269Z</time>
      </trkpt>
      <trkpt lat="40.89687" lon="43.87757">
        <ele>1957.311217</ele>
        <time>2021-08-14T20:30:49.967Z</time>
      </trkpt>
      <trkpt lat="40.89736" lon="43.87774">
        <ele>1960.771595</ele>
        <time>2021-08-14T20:31:28.981Z</time>
      </trkpt>
      <trkpt lat="40.89799" lon="43.87822">
        <ele>1965.509472</ele>
        <time>2021-08-14T20:32:20.000Z</time>
      </trkpt>
      <trkpt lat="40.89863" lon="43.87955">
        <ele>1972.498914</ele>
        <time>2021-08-14T20:33:29.808Z</time>
      </trkpt>
      <trkpt lat="40.89911" lon="43.88035">
        <ele>1976.339548</ele>
        <time>2021-08-14T20:34:12.341Z</time>
      </trkpt>
      <trkpt lat="40.89972" lon="43.88082">
        <ele>1980.289484</ele>
        <time>2021-08-14T20:34:55.672Z</time>
      </trkpt>
      <trkpt lat="40.90192" lon="43.88202">
        <ele>1996.600323</ele>
        <time>2021-08-14T20:37:49.986Z</time>
      </trkpt>
      <trkpt lat="40.90234" lon="43.88225">
        <ele>1999.515355</ele>
        <time>2021-08-14T20:38:21.835Z</time>
      </trkpt>
      <trkpt lat="40.90276" lon="43.88229">
        <ele>2002.195053</ele>
        <time>2021-08-14T20:38:47.755Z</time>
      </trkpt>
      <trkpt lat="40.90324" lon="43.88207">
        <ele>2003.518036</ele>
        <time>2021-08-14T20:39:15.630Z</time>
      </trkpt>
      <trkpt lat="40.90353" lon="43.88169">
        <ele>2003.931716</ele>
        <time>2021-08-14T20:39:34.561Z</time>
      </trkpt>
      <trkpt lat="40.90397" lon="43.88005">
        <ele>2003.610937</ele>
        <time>2021-08-14T20:40:11.172Z</time>
      </trkpt>
      <trkpt lat="40.90475" lon="43.87893">
        <ele>1998.12272</ele>
        <time>2021-08-14T20:40:35.540Z</time>
      </trkpt>
      <trkpt lat="40.90581" lon="43.87826">
        <ele>1989.616065</ele>
        <time>2021-08-14T20:40:58.666Z</time>
      </trkpt>
      <trkpt lat="40.90667" lon="43.87805">
        <ele>1982.334857</ele>
        <time>2021-08-14T20:41:15.477Z</time>
      </trkpt>
      <trkpt lat="40.90764" lon="43.87904">
        <ele>1972.733018</ele>
        <time>2021-08-14T20:41:39.499Z</time>
      </trkpt>
      <trkpt lat="40.908" lon="43.87924">
        <ele>1969.706884</ele>
        <time>2021-08-14T20:41:47.325Z</time>
      </trkpt>
      <trkpt lat="40.90836" lon="43.87935">
        <ele>1967.084193</ele>
        <time>2021-08-14T20:41:54.725Z</time>
      </trkpt>
      <trkpt lat="40.90868" lon="43.87938">
        <ele>1965.408395</ele>
        <time>2021-08-14T20:42:01.449Z</time>
      </trkpt>
      <trkpt lat="40.90901" lon="43.87932">
        <ele>1963.722188</ele>
        <time>2021-08-14T20:42:08.298Z</time>
      </trkpt>
      <trkpt lat="40.91115" lon="43.87858">
        <ele>1953.492317</ele>
        <time>2021-08-14T20:42:55.884Z</time>
      </trkpt>
      <trkpt lat="40.91135" lon="43.87859">
        <ele>1952.6461</ele>
        <time>2021-08-14T20:43:00.301Z</time>
      </trkpt>
      <trkpt lat="40.91145" lon="43.87869">
        <ele>1952.125515</ele>
        <time>2021-08-14T20:43:03.053Z</time>
      </trkpt>
      <trkpt lat="40.91151" lon="43.87895">
        <ele>1951.248059</ele>
        <time>2021-08-14T20:43:07.696Z</time>
      </trkpt>
      <trkpt lat="40.91146" lon="43.87911">
        <ele>1950.709872</ele>
        <time>2021-08-14T20:43:10.623Z</time>
      </trkpt>
      <trkpt lat="40.91093" lon="43.87957">
        <ele>1948.678626</ele>
        <time>2021-08-14T20:43:24.777Z</time>
      </trkpt>
      <trkpt lat="40.90833" lon="43.88122">
        <ele>1939.484045</ele>
        <time>2021-08-14T20:44:31.411Z</time>
      </trkpt>
      <trkpt lat="40.90815" lon="43.88149">
        <ele>1938.219775</ele>
        <time>2021-08-14T20:44:37.398Z</time>
      </trkpt>
      <trkpt lat="40.90815" lon="43.88177">
        <ele>1937.134821</ele>
        <time>2021-08-14T20:44:41.949Z</time>
      </trkpt>
      <trkpt lat="40.90828" lon="43.88203">
        <ele>1935.960289</ele>
        <time>2021-08-14T20:44:46.832Z</time>
      </trkpt>
      <trkpt lat="40.90861" lon="43.88212">
        <ele>1934.208681</ele>
        <time>2021-08-14T20:44:53.993Z</time>
      </trkpt>
      <trkpt lat="40.91097" lon="43.88158">
        <ele>1920.141383</ele>
        <time>2021-08-14T20:45:42.930Z</time>
      </trkpt>
      <trkpt lat="40.91383" lon="43.88055">
        <ele>1901.877106</ele>
        <time>2021-08-14T20:46:43.497Z</time>
      </trkpt>
      <trkpt lat="40.91616" lon="43.87945">
        <ele>1886.433671</ele>
        <time>2021-08-14T20:47:33.744Z</time>
      </trkpt>
      <trkpt lat="40.91777" lon="43.87789">
        <ele>1875.406682</ele>
        <time>2021-08-14T20:48:15.069Z</time>
      </trkpt>
      <trkpt lat="40.92208" lon="43.87256">
        <ele>1852.097006</ele>
        <time>2021-08-14T20:50:23.584Z</time>
      </trkpt>
      <trkpt lat="40.92261" lon="43.87211">
        <ele>1851.747352</ele>
        <time>2021-08-14T20:50:42.893Z</time>
      </trkpt>
      <trkpt lat="40.92311" lon="43.87187">
        <ele>1851.448035</ele>
        <time>2021-08-14T20:51:04.086Z</time>
      </trkpt>
      <trkpt lat="40.92354" lon="43.87185">
        <ele>1852.076856</ele>
        <time>2021-08-14T20:51:23.844Z</time>
      </trkpt>
      <trkpt lat="40.9241" lon="43.87212">
        <ele>1853.406766</ele>
        <time>2021-08-14T20:51:53.618Z</time>
      </trkpt>
      <trkpt lat="40.92489" lon="43.87279">
        <ele>1855.305758</ele>
        <time>2021-08-14T20:52:36.420Z</time>
      </trkpt>
      <trkpt lat="40.92507" lon="43.87287">
        <ele>1854.994414</ele>
        <time>2021-08-14T20:52:41.982Z</time>
      </trkpt>
      <trkpt lat="40.92558" lon="43.87296">
        <ele>1854.155202</ele>
        <time>2021-08-14T20:52:54.174Z</time>
      </trkpt>
      <trkpt lat="40.9259" lon="43.87291">
        <ele>1853.641619</ele>
        <time>2021-08-14T20:53:01.473Z</time>
      </trkpt>
      <trkpt lat="40.92605" lon="43.87281">
        <ele>1853.358537</ele>
        <time>2021-08-14T20:53:05.652Z</time>
      </trkpt>
      <trkpt lat="40.92622" lon="43.87263">
        <ele>1853.010659</ele>
        <time>2021-08-14T20:53:10.562Z</time>
      </trkpt>
      <trkpt lat="40.92671" lon="43.87209">
        <ele>1852.578367</ele>
        <time>2021-08-14T20:53:26.368Z</time>
      </trkpt>
      <trkpt lat="40.92698" lon="43.8721">
        <ele>1852.684885</ele>
        <time>2021-08-14T20:53:33.628Z</time>
      </trkpt>
      <trkpt lat="40.92739" lon="43.87212">
        <ele>1852.84748</ele>
        <time>2021-08-14T20:53:44.317Z</time>
      </trkpt>
      <trkpt lat="40.92781" lon="43.87219">
        <ele>1853.018629</ele>
        <time>2021-08-14T20:53:59.473Z</time>
      </trkpt>
      <trkpt lat="40.92806" lon="43.87208">
        <ele>1853.125604</ele>
        <time>2021-08-14T20:54:13.043Z</time>
      </trkpt>
      <trkpt lat="40.92824" lon="43.87188">
        <ele>1853.667157</ele>
        <time>2021-08-14T20:54:25.894Z</time>
      </trkpt>
      <trkpt lat="40.92841" lon="43.87149">
        <ele>1855.244473</ele>
        <time>2021-08-14T20:54:45.893Z</time>
      </trkpt>
      <trkpt lat="40.92845" lon="43.87109">
        <ele>1856.655064</ele>
        <time>2021-08-14T20:55:03.843Z</time>
      </trkpt>
      <trkpt lat="40.92837" lon="43.87089">
        <ele>1857.446017</ele>
        <time>2021-08-14T20:55:14.304Z</time>
      </trkpt>
      <trkpt lat="40.92759" lon="43.8699">
        <ele>1862.625726</ele>
        <time>2021-08-14T20:56:16.617Z</time>
      </trkpt>
      <trkpt lat="40.92744" lon="43.8696">
        <ele>1864.151662</ele>
        <time>2021-08-14T20:56:32.976Z</time>
      </trkpt>
      <trkpt lat="40.92712" lon="43.86797">
        <ele>1871.130953</ele>
        <time>2021-08-14T20:57:51.961Z</time>
      </trkpt>
      <trkpt lat="40.92713" lon="43.86761">
        <ele>1872.957056</ele>
        <time>2021-08-14T20:58:10.486Z</time>
      </trkpt>
      <trkpt lat="40.92742" lon="43.8669">
        <ele>1877.282714</ele>
        <time>2021-08-14T20:58:53.569Z</time>
      </trkpt>
      <trkpt lat="40.92761" lon="43.86669">
        <ele>1878.996485</ele>
        <time>2021-08-14T20:59:10.893Z</time>
      </trkpt>
      <trkpt lat="40.92783" lon="43.86654">
        <ele>1880.7605</ele>
        <time>2021-08-14T20:59:29.139Z</time>
      </trkpt>
      <trkpt lat="40.92801" lon="43.86651">
        <ele>1882.039462</ele>
        <time>2021-08-14T20:59:42.575Z</time>
      </trkpt>
      <trkpt lat="40.92893" lon="43.86669">
        <ele>1888.840103</ele>
        <time>2021-08-14T21:00:50.814Z</time>
      </trkpt>
      <trkpt lat="40.92938" lon="43.8666">
        <ele>1892.227725</ele>
        <time>2021-08-14T21:01:23.881Z</time>
      </trkpt>
      <trkpt lat="40.93086" lon="43.866">
        <ele>1903.654696</ele>
        <time>2021-08-14T21:03:16.279Z</time>
      </trkpt>
      <trkpt lat="40.93215" lon="43.86559">
        <ele>1913.213352</ele>
        <time>2021-08-14T21:04:51.892Z</time>
      </trkpt>
      <trkpt lat="40.93247" lon="43.86556">
        <ele>1915.399727</ele>
        <time>2021-08-14T21:05:14.324Z</time>
      </trkpt>
      <trkpt lat="40.93336" lon="43.86547">
        <ele>1921.566018</ele>
        <time>2021-08-14T21:06:16.430Z</time>
      </trkpt>
      <trkpt lat="40.935" lon="43.86508">
        <ele>1932.469028</ele>
        <time>2021-08-14T21:08:08.933Z</time>
      </trkpt>
      <trkpt lat="40.9371" lon="43.86448">
        <ele>1946.068415</ele>
        <time>2021-08-14T21:10:32.306Z</time>
      </trkpt>
      <trkpt lat="40.93763" lon="43.86454">
        <ele>1948.906796</ele>
        <time>2021-08-14T21:11:06.890Z</time>
      </trkpt>
      <trkpt lat="40.93831" lon="43.86493">
        <ele>1952.813136</ele>
        <time>2021-08-14T21:11:51.544Z</time>
      </trkpt>
      <trkpt lat="40.9386" lon="43.86491">
        <ele>1954.325632</ele>
        <time>2021-08-14T21:12:07.902Z</time>
      </trkpt>
      <trkpt lat="40.93898" lon="43.86472">
        <ele>1956.325299</ele>
        <time>2021-08-14T21:12:30.577Z</time>
      </trkpt>
      <trkpt lat="40.93937" lon="43.86396">
        <ele>1959.462363</ele>
        <time>2021-08-14T21:13:09.019Z</time>
      </trkpt>
      <trkpt lat="40.9399" lon="43.86305">
        <ele>1963.364176</ele>
        <time>2021-08-14T21:13:59.134Z</time>
      </trkpt>
      <trkpt lat="40.94019" lon="43.86273">
        <ele>1964.740692</ele>
        <time>2021-08-14T21:14:19.982Z</time>
      </trkpt>
      <trkpt lat="40.94077" lon="43.86263">
        <ele>1966.725432</ele>
        <time>2021-08-14T21:14:51.327Z</time>
      </trkpt>
      <trkpt lat="40.94179" lon="43.86252">
        <ele>1969.880985</ele>
        <time>2021-08-14T21:15:40.445Z</time>
      </trkpt>
      <trkpt lat="40.94267" lon="43.86276">
        <ele>1970.501809</ele>
        <time>2021-08-14T21:16:12.494Z</time>
      </trkpt>
      <trkpt lat="40.94363" lon="43.86321">
        <ele>1971.048936</ele>
        <time>2021-08-14T21:16:42.617Z</time>
      </trkpt>
      <trkpt lat="40.94407" lon="43.86361">
        <ele>1971.071795</ele>
        <time>2021-08-14T21:16:57.946Z</time>
      </trkpt>
      <trkpt lat="40.9465" lon="43.86585">
        <ele>1972.263806</ele>
        <time>2021-08-14T21:18:36.849Z</time>
      </trkpt>
      <trkpt lat="40.9469" lon="43.86658">
        <ele>1973.276762</ele>
        <time>2021-08-14T21:19:04.484Z</time>
      </trkpt>
      <trkpt lat="40.94715" lon="43.8674">
        <ele>1974.261161</ele>
        <time>2021-08-14T21:19:32.538Z</time>
      </trkpt>
      <trkpt lat="40.94717" lon="43.8692">
        <ele>1975.348933</ele>
        <time>2021-08-14T21:20:24.743Z</time>
      </trkpt>
      <trkpt lat="40.94806" lon="43.87273">
        <ele>1975.69821</ele>
        <time>2021-08-14T21:21:47.147Z</time>
      </trkpt>
      <trkpt lat="40.94828" lon="43.8733">
        <ele>1976.526206</ele>
        <time>2021-08-14T21:22:04.354Z</time>
      </trkpt>
      <trkpt lat="40.94872" lon="43.87356">
        <ele>1977.360532</ele>
        <time>2021-08-14T21:22:24.431Z</time>
      </trkpt>
      <trkpt lat="40.94921" lon="43.87355">
        <ele>1978.195432</ele>
        <time>2021-08-14T21:22:47.524Z</time>
      </trkpt>
      <trkpt lat="40.94969" lon="43.8732">
        <ele>1980.594903</ele>
        <time>2021-08-14T21:23:16.994Z</time>
      </trkpt>
      <trkpt lat="40.95133" lon="43.87239">
        <ele>1989.220533</ele>
        <time>2021-08-14T21:25:04.144Z</time>
      </trkpt>
      <trkpt lat="40.95273" lon="43.87106">
        <ele>1998.126292</ele>
        <time>2021-08-14T21:26:47.850Z</time>
      </trkpt>
      <trkpt lat="40.95302" lon="43.87098">
        <ele>1999.57997</ele>
        <time>2021-08-14T21:27:04.831Z</time>
      </trkpt>
      <trkpt lat="40.95331" lon="43.87115">
        <ele>2001.156574</ele>
        <time>2021-08-14T21:27:23.317Z</time>
      </trkpt>
      <trkpt lat="40.95522" lon="43.87331">
        <ele>2014.006136</ele>
        <time>2021-08-14T21:29:52.135Z</time>
      </trkpt>
      <trkpt lat="40.95732" lon="43.87456">
        <ele>2028.662581</ele>
        <time>2021-08-14T21:32:21.788Z</time>
      </trkpt>
      <trkpt lat="40.95764" lon="43.87482">
        <ele>2031.822086</ele>
        <time>2021-08-14T21:32:50.945Z</time>
      </trkpt>
      <trkpt lat="40.95792" lon="43.87525">
        <ele>2035.352803</ele>
        <time>2021-08-14T21:33:25.344Z</time>
      </trkpt>
      <trkpt lat="40.95827" lon="43.87619">
        <ele>2042.149192</ele>
        <time>2021-08-14T21:34:32.845Z</time>
      </trkpt>
      <trkpt lat="40.9589" lon="43.87919">
        <ele>2064.452072</ele>
        <time>2021-08-14T21:37:54.476Z</time>
      </trkpt>
      <trkpt lat="40.95922" lon="43.87994">
        <ele>2070.319349</ele>
        <time>2021-08-14T21:38:48.477Z</time>
      </trkpt>
      <trkpt lat="40.95945" lon="43.88023">
        <ele>2073.18194</ele>
        <time>2021-08-14T21:39:12.956Z</time>
      </trkpt>
      <trkpt lat="40.95967" lon="43.88045">
        <ele>2075.003805</ele>
        <time>2021-08-14T21:39:33.793Z</time>
      </trkpt>
      <trkpt lat="40.96019" lon="43.88067">
        <ele>2077.88715</ele>
        <time>2021-08-14T21:40:11.247Z</time>
      </trkpt>
      <trkpt lat="40.96339" lon="43.88188">
        <ele>2091.55225</ele>
        <time>2021-08-14T21:43:07.459Z</time>
      </trkpt>
      <trkpt lat="40.96388" lon="43.88216">
        <ele>2092.751999</ele>
        <time>2021-08-14T21:43:30.376Z</time>
      </trkpt>
      <trkpt lat="40.96418" lon="43.88256">
        <ele>2093.706379</ele>
        <time>2021-08-14T21:43:47.609Z</time>
      </trkpt>
      <trkpt lat="40.96451" lon="43.88343">
        <ele>2094.751024</ele>
        <time>2021-08-14T21:44:15.342Z</time>
      </trkpt>
      <trkpt lat="40.9647" lon="43.88381">
        <ele>2094.912269</ele>
        <time>2021-08-14T21:44:27.330Z</time>
      </trkpt>
      <trkpt lat="40.96507" lon="43.88418">
        <ele>2095.130455</ele>
        <time>2021-08-14T21:44:42.858Z</time>
      </trkpt>
      <trkpt lat="40.97096" lon="43.88831">
        <ele>2093.720187</ele>
        <time>2021-08-14T21:48:06.964Z</time>
      </trkpt>
      <trkpt lat="40.97147" lon="43.88873">
        <ele>2092.587333</ele>
        <time>2021-08-14T21:48:21.627Z</time>
      </trkpt>
      <trkpt lat="40.97173" lon="43.88914">
        <ele>2091.813639</ele>
        <time>2021-08-14T21:48:31.027Z</time>
      </trkpt>
      <trkpt lat="40.97202" lon="43.88988">
        <ele>2088.865648</ele>
        <time>2021-08-14T21:48:44.827Z</time>
      </trkpt>
      <trkpt lat="40.97226" lon="43.89066">
        <ele>2085.247302</ele>
        <time>2021-08-14T21:48:58.113Z</time>
      </trkpt>
      <trkpt lat="40.97253" lon="43.89205">
        <ele>2078.374727</ele>
        <time>2021-08-14T21:49:19.757Z</time>
      </trkpt>
      <trkpt lat="40.97268" lon="43.89233">
        <ele>2076.387174</ele>
        <time>2021-08-14T21:49:24.879Z</time>
      </trkpt>
      <trkpt lat="40.97309" lon="43.89271">
        <ele>2072.50778</ele>
        <time>2021-08-14T21:49:34.839Z</time>
      </trkpt>
      <trkpt lat="40.9735" lon="43.89299">
        <ele>2068.988902</ele>
        <time>2021-08-14T21:49:43.877Z</time>
      </trkpt>
      <trkpt lat="40.97369" lon="43.89323">
        <ele>2067.04722</ele>
        <time>2021-08-14T21:49:49.043Z</time>
      </trkpt>
      <trkpt lat="40.97378" lon="43.89347">
        <ele>2065.696917</ele>
        <time>2021-08-14T21:49:53.010Z</time>
      </trkpt>
      <trkpt lat="40.97382" lon="43.89385">
        <ele>2063.762179</ele>
        <time>2021-08-14T21:49:58.704Z</time>
      </trkpt>
      <trkpt lat="40.97382" lon="43.89552">
        <ele>2055.328691</ele>
        <time>2021-08-14T21:50:24.312Z</time>
      </trkpt>
      <trkpt lat="40.97373" lon="43.89628">
        <ele>2052.681728</ele>
        <time>2021-08-14T21:50:36.829Z</time>
      </trkpt>
      <trkpt lat="40.97355" lon="43.89725">
        <ele>2049.28221</ele>
        <time>2021-08-14T21:50:53.375Z</time>
      </trkpt>
      <trkpt lat="40.97352" lon="43.89773">
        <ele>2047.621263</ele>
        <time>2021-08-14T21:51:01.482Z</time>
      </trkpt>
      <trkpt lat="40.97357" lon="43.89811">
        <ele>2046.414812</ele>
        <time>2021-08-14T21:51:07.848Z</time>
      </trkpt>
      <trkpt lat="40.97382" lon="43.89845">
        <ele>2044.973096</ele>
        <time>2021-08-14T21:51:15.596Z</time>
      </trkpt>
      <trkpt lat="40.97407" lon="43.89866">
        <ele>2043.77844</ele>
        <time>2021-08-14T21:51:22.039Z</time>
      </trkpt>
      <trkpt lat="40.97424" lon="43.89871">
        <ele>2043.08523</ele>
        <time>2021-08-14T21:51:25.807Z</time>
      </trkpt>
      <trkpt lat="40.97452" lon="43.89871">
        <ele>2041.966412</ele>
        <time>2021-08-14T21:51:31.923Z</time>
      </trkpt>
      <trkpt lat="40.97461" lon="43.89867">
        <ele>2041.568062</ele>
        <time>2021-08-14T21:51:34.081Z</time>
      </trkpt>
      <trkpt lat="40.97481" lon="43.89857">
        <ele>2040.70009</ele>
        <time>2021-08-14T21:51:38.844Z</time>
      </trkpt>
      <trkpt lat="40.97518" lon="43.89832">
        <ele>2039.333361</ele>
        <time>2021-08-14T21:51:47.815Z</time>
      </trkpt>
      <trkpt lat="40.97653" lon="43.89729">
        <ele>2034.869726</ele>
        <time>2021-08-14T21:52:24.200Z</time>
      </trkpt>
      <trkpt lat="40.97718" lon="43.89661">
        <ele>2033.058063</ele>
        <time>2021-08-14T21:52:45.490Z</time>
      </trkpt>
      <trkpt lat="40.97828" lon="43.89561">
        <ele>2030.099073</ele>
        <time>2021-08-14T21:53:17.326Z</time>
      </trkpt>
      <trkpt lat="40.97952" lon="43.89506">
        <ele>2027.040041</ele>
        <time>2021-08-14T21:53:48.003Z</time>
      </trkpt>
      <trkpt lat="40.99122" lon="43.89024">
        <ele>2014.18208</ele>
        <time>2021-08-14T21:59:17.850Z</time>
      </trkpt>
      <trkpt lat="40.99206" lon="43.88987">
        <ele>2013.567225</ele>
        <time>2021-08-14T21:59:42.983Z</time>
      </trkpt>
      <trkpt lat="40.99291" lon="43.88952">
        <ele>2013.137856</ele>
        <time>2021-08-14T22:00:08.674Z</time>
      </trkpt>
      <trkpt lat="40.99347" lon="43.8893">
        <ele>2012.882165</ele>
        <time>2021-08-14T22:00:25.505Z</time>
      </trkpt>
      <trkpt lat="40.99395" lon="43.88909">
        <ele>2012.766446</ele>
        <time>2021-08-14T22:00:40.135Z</time>
      </trkpt>
      <trkpt lat="41.00039" lon="43.88651">
        <ele>2011.047661</ele>
        <time>2021-08-14T22:04:02.317Z</time>
      </trkpt>
      <trkpt lat="41.01075" lon="43.88223">
        <ele>2000.282542</ele>
        <time>2021-08-14T22:08:53.660Z</time>
      </trkpt>
      <trkpt lat="41.01185" lon="43.88187">
        <ele>2000.461131</ele>
        <time>2021-08-14T22:09:29.067Z</time>
      </trkpt>
      <trkpt lat="41.01215" lon="43.88184">
        <ele>2000.509446</ele>
        <time>2021-08-14T22:09:40.010Z</time>
      </trkpt>
      <trkpt lat="41.01244" lon="43.88187">
        <ele>2000.843608</ele>
        <time>2021-08-14T22:09:51.083Z</time>
      </trkpt>
      <trkpt lat="41.01298" lon="43.88219">
        <ele>2002.247172</ele>
        <time>2021-08-14T22:10:14.972Z</time>
      </trkpt>
      <trkpt lat="41.01316" lon="43.88233">
        <ele>2002.74383</ele>
        <time>2021-08-14T22:10:23.809Z</time>
      </trkpt>
      <trkpt lat="41.01421" lon="43.88344">
        <ele>2007.007633</ele>
        <time>2021-08-14T22:11:29.788Z</time>
      </trkpt>
      <trkpt lat="41.01473" lon="43.88376">
        <ele>2009.657516</ele>
        <time>2021-08-14T22:12:01.997Z</time>
      </trkpt>
      <trkpt lat="41.01541" lon="43.88398">
        <ele>2012.940762</ele>
        <time>2021-08-14T22:12:45.457Z</time>
      </trkpt>
      <trkpt lat="41.01582" lon="43.884">
        <ele>2015.41451</ele>
        <time>2021-08-14T22:13:12.682Z</time>
      </trkpt>
      <trkpt lat="41.0164" lon="43.88387">
        <ele>2019.037437</ele>
        <time>2021-08-14T22:13:53.034Z</time>
      </trkpt>
      <trkpt lat="41.01719" lon="43.88328">
        <ele>2024.435278</ele>
        <time>2021-08-14T22:14:53.922Z</time>
      </trkpt>
      <trkpt lat="41.01798" lon="43.8826">
        <ele>2027.496731</ele>
        <time>2021-08-14T22:15:46.484Z</time>
      </trkpt>
      <trkpt lat="41.01888" lon="43.88186">
        <ele>2029.859328</ele>
        <time>2021-08-14T22:16:29.154Z</time>
      </trkpt>
      <trkpt lat="41.02081" lon="43.88016">
        <ele>2026.411341</ele>
        <time>2021-08-14T22:17:27.860Z</time>
      </trkpt>
      <trkpt lat="41.02122" lon="43.87983">
        <ele>2025.2185</ele>
        <time>2021-08-14T22:17:38.867Z</time>
      </trkpt>
      <trkpt lat="41.02161" lon="43.8795">
        <ele>2024.036733</ele>
        <time>2021-08-14T22:17:49.583Z</time>
      </trkpt>
      <trkpt lat="41.02204" lon="43.87919">
        <ele>2022.296313</ele>
        <time>2021-08-14T22:18:00.456Z</time>
      </trkpt>
      <trkpt lat="41.02241" lon="43.87893">
        <ele>2020.671481</ele>
        <time>2021-08-14T22:18:09.900Z</time>
      </trkpt>
      <trkpt lat="41.02384" lon="43.87788">
        <ele>2014.25538</ele>
        <time>2021-08-14T22:18:45.621Z</time>
      </trkpt>
      <trkpt lat="41.02417" lon="43.87771">
        <ele>2012.802395</ele>
        <time>2021-08-14T22:18:53.314Z</time>
      </trkpt>
      <trkpt lat="41.0268" lon="43.87741">
        <ele>2001.882739</ele>
        <time>2021-08-14T22:19:50.679Z</time>
      </trkpt>
      <trkpt lat="41.02713" lon="43.87716">
        <ele>2000.769075</ele>
        <time>2021-08-14T22:19:59.146Z</time>
      </trkpt>
      <trkpt lat="41.0275" lon="43.87667">
        <ele>1999.272735</ele>
        <time>2021-08-14T22:20:10.931Z</time>
      </trkpt>
      <trkpt lat="41.02774" lon="43.87631">
        <ele>1998.212337</ele>
        <time>2021-08-14T22:20:19.606Z</time>
      </trkpt>
      <trkpt lat="41.02783" lon="43.87616">
        <ele>1997.804953</ele>
        <time>2021-08-14T22:20:22.983Z</time>
      </trkpt>
      <trkpt lat="41.02818" lon="43.87563">
        <ele>1996.791507</ele>
        <time>2021-08-14T22:20:36.506Z</time>
      </trkpt>
      <trkpt lat="41.02833" lon="43.87542">
        <ele>1996.726366</ele>
        <time>2021-08-14T22:20:42.248Z</time>
      </trkpt>
      <trkpt lat="41.02932" lon="43.87395">
        <ele>1996.364495</ele>
        <time>2021-08-14T22:21:29.632Z</time>
      </trkpt>
      <trkpt lat="41.02976" lon="43.87327">
        <ele>1996.67739</ele>
        <time>2021-08-14T22:21:53.692Z</time>
      </trkpt>
      <trkpt lat="41.03005" lon="43.87284">
        <ele>1996.876887</ele>
        <time>2021-08-14T22:22:08.720Z</time>
      </trkpt>
      <trkpt lat="41.03132" lon="43.87092">
        <ele>1997.437626</ele>
        <time>2021-08-14T22:23:11.351Z</time>
      </trkpt>
      <trkpt lat="41.03172" lon="43.87032">
        <ele>1997.527193</ele>
        <time>2021-08-14T22:23:30.469Z</time>
      </trkpt>
      <trkpt lat="41.03208" lon="43.86974">
        <ele>1997.497978</ele>
        <time>2021-08-14T22:23:48.730Z</time>
      </trkpt>
      <trkpt lat="41.03317" lon="43.86828">
        <ele>1997.021888</ele>
        <time>2021-08-14T22:24:35.700Z</time>
      </trkpt>
      <trkpt lat="41.03517" lon="43.86598">
        <ele>1994.759628</ele>
        <time>2021-08-14T22:25:45.889Z</time>
      </trkpt>
      <trkpt lat="41.03579" lon="43.86518">
        <ele>1994.772161</ele>
        <time>2021-08-14T22:26:11.732Z</time>
      </trkpt>
      <trkpt lat="41.03663" lon="43.86272">
        <ele>1997.602292</ele>
        <time>2021-08-14T22:27:32.818Z</time>
      </trkpt>
      <trkpt lat="41.03691" lon="43.86226">
        <ele>1998.54873</ele>
        <time>2021-08-14T22:27:53.148Z</time>
      </trkpt>
      <trkpt lat="41.03708" lon="43.862">
        <ele>1999.097493</ele>
        <time>2021-08-14T22:28:05.081Z</time>
      </trkpt>
      <trkpt lat="41.03777" lon="43.86136">
        <ele>2000.701741</ele>
        <time>2021-08-14T22:28:42.650Z</time>
      </trkpt>
      <trkpt lat="41.03993" lon="43.86018">
        <ele>2004.319103</ele>
        <time>2021-08-14T22:30:12.900Z</time>
      </trkpt>
      <trkpt lat="41.04099" lon="43.85952">
        <ele>2006.490992</ele>
        <time>2021-08-14T22:30:57.906Z</time>
      </trkpt>
      <trkpt lat="41.0412" lon="43.85928">
        <ele>2007.402007</ele>
        <time>2021-08-14T22:31:10.341Z</time>
      </trkpt>
      <trkpt lat="41.04152" lon="43.85849">
        <ele>2009.619834</ele>
        <time>2021-08-14T22:31:43.221Z</time>
      </trkpt>
      <trkpt lat="41.04167" lon="43.85814">
        <ele>2010.623552</ele>
        <time>2021-08-14T22:31:59.989Z</time>
      </trkpt>
      <trkpt lat="41.04276" lon="43.85703">
        <ele>2016.594082</ele>
        <time>2021-08-14T22:33:26.457Z</time>
      </trkpt>
      <trkpt lat="41.04349" lon="43.85641">
        <ele>2019.739018</ele>
        <time>2021-08-14T22:34:10.913Z</time>
      </trkpt>
      <trkpt lat="41.044" lon="43.85602">
        <ele>2019.656143</ele>
        <time>2021-08-14T22:34:33.874Z</time>
      </trkpt>
      <trkpt lat="41.0458" lon="43.85467">
        <ele>2018.268793</ele>
        <time>2021-08-14T22:35:24.663Z</time>
      </trkpt>
      <trkpt lat="41.04635" lon="43.85389">
        <ele>2017.450764</ele>
        <time>2021-08-14T22:35:46.729Z</time>
      </trkpt>
      <trkpt lat="41.04747" lon="43.85208">
        <ele>2021.001398</ele>
        <time>2021-08-14T22:37:03.074Z</time>
      </trkpt>
      <trkpt lat="41.04778" lon="43.85171">
        <ele>2022.855263</ele>
        <time>2021-08-14T22:37:26.524Z</time>
      </trkpt>
      <trkpt lat="41.04811" lon="43.85155">
        <ele>2024.391867</ele>
        <time>2021-08-14T22:37:46.308Z</time>
      </trkpt>
      <trkpt lat="41.04914" lon="43.85163">
        <ele>2028.898507</ele>
        <time>2021-08-14T22:38:46.529Z</time>
      </trkpt>
      <trkpt lat="41.05146" lon="43.85214">
        <ele>2038.19335</ele>
        <time>2021-08-14T22:40:59.072Z</time>
      </trkpt>
      <trkpt lat="41.05219" lon="43.85192">
        <ele>2039.825334</ele>
        <time>2021-08-14T22:41:30.355Z</time>
      </trkpt>
      <trkpt lat="41.05279" lon="43.85162">
        <ele>2040.669363</ele>
        <time>2021-08-14T22:41:51.516Z</time>
      </trkpt>
      <trkpt lat="41.05328" lon="43.85136">
        <ele>2039.971904</ele>
        <time>2021-08-14T22:42:06.138Z</time>
      </trkpt>
      <trkpt lat="41.05593" lon="43.84905">
        <ele>2034.476718</ele>
        <time>2021-08-14T22:43:24.091Z</time>
      </trkpt>
      <trkpt lat="41.05646" lon="43.84849">
        <ele>2033.054734</ele>
        <time>2021-08-14T22:43:41.066Z</time>
      </trkpt>
      <trkpt lat="41.06457" lon="43.84071">
        <ele>2011.348821</ele>
        <time>2021-08-14T22:47:43.163Z</time>
      </trkpt>
      <trkpt lat="41.0681" lon="43.8375">
        <ele>2011.645076</ele>
        <time>2021-08-14T22:49:57.539Z</time>
      </trkpt>
      <trkpt lat="41.06979" lon="43.83582">
        <ele>2014.866663</ele>
        <time>2021-08-14T22:51:23.532Z</time>
      </trkpt>
      <trkpt lat="41.07148" lon="43.83434">
        <ele>2019.552093</ele>
        <time>2021-08-14T22:52:55.525Z</time>
      </trkpt>
      <trkpt lat="41.07157" lon="43.83426">
        <ele>2019.816594</ele>
        <time>2021-08-14T22:53:00.601Z</time>
      </trkpt>
      <trkpt lat="41.07289" lon="43.83303">
        <ele>2022.895711</ele>
        <time>2021-08-14T22:54:09.373Z</time>
      </trkpt>
      <trkpt lat="41.07397" lon="43.83204">
        <ele>2024.784052</ele>
        <time>2021-08-14T22:54:58.356Z</time>
      </trkpt>
      <trkpt lat="41.07404" lon="43.83195">
        <ele>2024.901806</ele>
        <time>2021-08-14T22:55:01.907Z</time>
      </trkpt>
      <trkpt lat="41.07438" lon="43.83151">
        <ele>2025.481513</ele>
        <time>2021-08-14T22:55:19.345Z</time>
      </trkpt>
      <trkpt lat="41.0748" lon="43.83085">
        <ele>2026.454682</ele>
        <time>2021-08-14T22:55:44.411Z</time>
      </trkpt>
      <trkpt lat="41.07671" lon="43.82837">
        <ele>2032.018634</ele>
        <time>2021-08-14T22:57:39.885Z</time>
      </trkpt>
      <trkpt lat="41.0785" lon="43.826">
        <ele>2037.965977</ele>
        <time>2021-08-14T22:59:32.615Z</time>
      </trkpt>
      <trkpt lat="41.07909" lon="43.82522">
        <ele>2039.854202</ele>
        <time>2021-08-14T23:00:09.308Z</time>
      </trkpt>
      <trkpt lat="41.08264" lon="43.821">
        <ele>2050.344559</ele>
        <time>2021-08-14T23:03:37.634Z</time>
      </trkpt>
      <trkpt lat="41.08342" lon="43.82008">
        <ele>2051.87006</ele>
        <time>2021-08-14T23:04:20.281Z</time>
      </trkpt>
      <trkpt lat="41.08511" lon="43.81841">
        <ele>2052.900353</ele>
        <time>2021-08-14T23:05:31.912Z</time>
      </trkpt>
      <trkpt lat="41.0856" lon="43.818">
        <ele>2052.176256</ele>
        <time>2021-08-14T23:05:47.163Z</time>
      </trkpt>
      <trkpt lat="41.08597" lon="43.81778">
        <ele>2051.369739</ele>
        <time>2021-08-14T23:05:57.189Z</time>
      </trkpt>
      <trkpt lat="41.08775" lon="43.81689">
        <ele>2047.860648</ele>
        <time>2021-08-14T23:06:42.269Z</time>
      </trkpt>
      <trkpt lat="41.08814" lon="43.81671">
        <ele>2047.182137</ele>
        <time>2021-08-14T23:06:52.756Z</time>
      </trkpt>
      <trkpt lat="41.08915" lon="43.81615">
        <ele>2046.925844</ele>
        <time>2021-08-14T23:07:25.085Z</time>
      </trkpt>
      <trkpt lat="41.09022" lon="43.81567">
        <ele>2047.994851</ele>
        <time>2021-08-14T23:08:09.752Z</time>
      </trkpt>
      <trkpt lat="41.09149" lon="43.81539">
        <ele>2050.667462</ele>
        <time>2021-08-14T23:09:05.164Z</time>
      </trkpt>
      <trkpt lat="41.0944" lon="43.81486">
        <ele>2057.390181</ele>
        <time>2021-08-14T23:11:16.214Z</time>
      </trkpt>
      <trkpt lat="41.09714" lon="43.81416">
        <ele>2062.887288</ele>
        <time>2021-08-14T23:13:12.702Z</time>
      </trkpt>
      <trkpt lat="41.09807" lon="43.81378">
        <ele>2064.729874</ele>
        <time>2021-08-14T23:13:52.865Z</time>
      </trkpt>
      <trkpt lat="41.10087" lon="43.81235">
        <ele>2070.625919</ele>
        <time>2021-08-14T23:15:58.605Z</time>
      </trkpt>
      <trkpt lat="41.10611" lon="43.81048">
        <ele>2083.379155</ele>
        <time>2021-08-14T23:20:00.162Z</time>
      </trkpt>
      <trkpt lat="41.10763" lon="43.8101">
        <ele>2086.925118</ele>
        <time>2021-08-14T23:21:08.421Z</time>
      </trkpt>
      <trkpt lat="41.11107" lon="43.80946">
        <ele>2094.220232</ele>
        <time>2021-08-14T23:23:35.711Z</time>
      </trkpt>
      <trkpt lat="41.11256" lon="43.80911">
        <ele>2097.886756</ele>
        <time>2021-08-14T23:24:43.741Z</time>
      </trkpt>
      <trkpt lat="41.11341" lon="43.80895">
        <ele>2100.108395</ele>
        <time>2021-08-14T23:25:22.981Z</time>
      </trkpt>
      <trkpt lat="41.11404" lon="43.80882">
        <ele>2101.902253</ele>
        <time>2021-08-14T23:25:52.739Z</time>
      </trkpt>
      <trkpt lat="41.11481" lon="43.80858">
        <ele>2104.155658</ele>
        <time>2021-08-14T23:26:30.999Z</time>
      </trkpt>
      <trkpt lat="41.11518" lon="43.80848">
        <ele>2105.189283</ele>
        <time>2021-08-14T23:26:48.453Z</time>
      </trkpt>
      <trkpt lat="41.11535" lon="43.80843">
        <ele>2105.663719</ele>
        <time>2021-08-14T23:26:56.369Z</time>
      </trkpt>
      <trkpt lat="41.11617" lon="43.80823">
        <ele>2107.973124</ele>
        <time>2021-08-14T23:27:35.175Z</time>
      </trkpt>
      <trkpt lat="41.11685" lon="43.80809">
        <ele>2109.755086</ele>
        <time>2021-08-14T23:28:07.361Z</time>
      </trkpt>
      <trkpt lat="41.11747" lon="43.80806">
        <ele>2111.166789</ele>
        <time>2021-08-14T23:28:35.600Z</time>
      </trkpt>
      <trkpt lat="41.11904" lon="43.80811">
        <ele>2114.209476</ele>
        <time>2021-08-14T23:29:41.013Z</time>
      </trkpt>
      <trkpt lat="41.11953" lon="43.80818">
        <ele>2114.936311</ele>
        <time>2021-08-14T23:30:00.049Z</time>
      </trkpt>
      <trkpt lat="41.12004" lon="43.80824">
        <ele>2115.695472</ele>
        <time>2021-08-14T23:30:19.305Z</time>
      </trkpt>
      <trkpt lat="41.12104" lon="43.80833">
        <ele>2116.908247</ele>
        <time>2021-08-14T23:30:56.450Z</time>
      </trkpt>
      <trkpt lat="41.12242" lon="43.80872">
        <ele>2118.503268</ele>
        <time>2021-08-14T23:31:50.678Z</time>
      </trkpt>
      <trkpt lat="41.12372" lon="43.80894">
        <ele>2119.919385</ele>
        <time>2021-08-14T23:32:39.353Z</time>
      </trkpt>
      <trkpt lat="41.12479" lon="43.80907">
        <ele>2120.461807</ele>
        <time>2021-08-14T23:33:14.987Z</time>
      </trkpt>
      <trkpt lat="41.12531" lon="43.8088">
        <ele>2120.738443</ele>
        <time>2021-08-14T23:33:33.418Z</time>
      </trkpt>
      <trkpt lat="41.12553" lon="43.80872">
        <ele>2120.861558</ele>
        <time>2021-08-14T23:33:41.262Z</time>
      </trkpt>
      <trkpt lat="41.12584" lon="43.80856">
        <ele>2121.095266</ele>
        <time>2021-08-14T23:33:52.780Z</time>
      </trkpt>
      <trkpt lat="41.12628" lon="43.80841">
        <ele>2121.407764</ele>
        <time>2021-08-14T23:34:08.298Z</time>
      </trkpt>
      <trkpt lat="41.12642" lon="43.80836">
        <ele>2121.512206</ele>
        <time>2021-08-14T23:34:13.656Z</time>
      </trkpt>
      <trkpt lat="41.12654" lon="43.80825">
        <ele>2121.612274</ele>
        <time>2021-08-14T23:34:18.841Z</time>
      </trkpt>
      <trkpt lat="41.12688" lon="43.80794">
        <ele>2121.899549</ele>
        <time>2021-08-14T23:34:33.630Z</time>
      </trkpt>
      <trkpt lat="41.1275" lon="43.80756">
        <ele>2122.404339</ele>
        <time>2021-08-14T23:34:58.887Z</time>
      </trkpt>
      <trkpt lat="41.12916" lon="43.80646">
        <ele>2123.754285</ele>
        <time>2021-08-14T23:36:03.626Z</time>
      </trkpt>
      <trkpt lat="41.13175" lon="43.80384">
        <ele>2125.262798</ele>
        <time>2021-08-14T23:37:55.749Z</time>
      </trkpt>
      <trkpt lat="41.13371" lon="43.80206">
        <ele>2124.275258</ele>
        <time>2021-08-14T23:38:59.740Z</time>
      </trkpt>
      <trkpt lat="41.13526" lon="43.80015">
        <ele>2127.198806</ele>
        <time>2021-08-14T23:40:20.500Z</time>
      </trkpt>
      <trkpt lat="41.13563" lon="43.79958">
        <ele>2128.608885</ele>
        <time>2021-08-14T23:40:50.280Z</time>
      </trkpt>
      <trkpt lat="41.13583" lon="43.79927">
        <ele>2129.571045</ele>
        <time>2021-08-14T23:41:07.612Z</time>
      </trkpt>
      <trkpt lat="41.13734" lon="43.797">
        <ele>2139.092861</ele>
        <time>2021-08-14T23:43:16.194Z</time>
      </trkpt>
      <trkpt lat="41.13845" lon="43.79468">
        <ele>2143.334981</ele>
        <time>2021-08-14T23:44:55.472Z</time>
      </trkpt>
      <trkpt lat="41.1389" lon="43.79399">
        <ele>2143.334981</ele>
        <time>2021-08-14T23:45:24.640Z</time>
      </trkpt>
      <trkpt lat="41.1389" lon="43.79399">
        <ele>2143.334981</ele>
        <time>2021-08-14T23:45:24.745Z</time>
      </trkpt>
    </trkseg>
  </trk>
  <trk>
    <name><![CDATA[Arménie à Istanbul]]></name>
    <extensions>
      <line xmlns="http://www.topografix.com/GPX/gpx_style/0/2">
        <color>FF00FF</color>
        <width>4</width>
      </line>
    </extensions>
    <trkseg>
      <trkpt lat="41.13907" lon="43.79376">
        <ele>2150.349414</ele>
        <time>2021-08-16T11:04:22.076Z</time>
      </trkpt>
      <trkpt lat="41.13958" lon="43.79309">
        <ele>2150.349414</ele>
        <time>2021-08-16T11:04:47.471Z</time>
      </trkpt>
      <trkpt lat="41.14166" lon="43.7906">
        <ele>2152.995297</ele>
        <time>2021-08-16T11:06:32.573Z</time>
      </trkpt>
      <trkpt lat="41.14266" lon="43.78942">
        <ele>2153.701924</ele>
        <time>2021-08-16T11:07:18.406Z</time>
      </trkpt>
      <trkpt lat="41.14343" lon="43.78847">
        <ele>2153.544482</ele>
        <time>2021-08-16T11:07:49.953Z</time>
      </trkpt>
      <trkpt lat="41.14432" lon="43.78753">
        <ele>2152.782599</ele>
        <time>2021-08-16T11:08:21.727Z</time>
      </trkpt>
      <trkpt lat="41.14545" lon="43.78645">
        <ele>2151.37648</ele>
        <time>2021-08-16T11:08:59.017Z</time>
      </trkpt>
      <trkpt lat="41.14597" lon="43.78604">
        <ele>2150.647722</ele>
        <time>2021-08-16T11:09:14.888Z</time>
      </trkpt>
      <trkpt lat="41.1462" lon="43.78592">
        <ele>2150.351204</ele>
        <time>2021-08-16T11:09:21.244Z</time>
      </trkpt>
      <trkpt lat="41.14893" lon="43.78397">
        <ele>2146.417685</ele>
        <time>2021-08-16T11:10:42.696Z</time>
      </trkpt>
      <trkpt lat="41.15048" lon="43.78266">
        <ele>2144.189493</ele>
        <time>2021-08-16T11:11:31.095Z</time>
      </trkpt>
      <trkpt lat="41.15322" lon="43.78009">
        <ele>2140.685734</ele>
        <time>2021-08-16T11:13:00.936Z</time>
      </trkpt>
      <trkpt lat="41.15506" lon="43.77826">
        <ele>2138.827142</ele>
        <time>2021-08-16T11:14:04.475Z</time>
      </trkpt>
      <trkpt lat="41.15636" lon="43.77688">
        <ele>2137.801347</ele>
        <time>2021-08-16T11:14:51.796Z</time>
      </trkpt>
      <trkpt lat="41.15765" lon="43.77548">
        <ele>2136.976743</ele>
        <time>2021-08-16T11:15:39.677Z</time>
      </trkpt>
      <trkpt lat="41.158" lon="43.77507">
        <ele>2136.772234</ele>
        <time>2021-08-16T11:15:53.380Z</time>
      </trkpt>
      <trkpt lat="41.15874" lon="43.7743">
        <ele>2136.346431</ele>
        <time>2021-08-16T11:16:21.095Z</time>
      </trkpt>
      <trkpt lat="41.15946" lon="43.77352">
        <ele>2135.895409</ele>
        <time>2021-08-16T11:16:48.497Z</time>
      </trkpt>
      <trkpt lat="41.16087" lon="43.77204">
        <ele>2134.048104</ele>
        <time>2021-08-16T11:17:38.038Z</time>
      </trkpt>
      <trkpt lat="41.1626" lon="43.77015">
        <ele>2129.627328</ele>
        <time>2021-08-16T11:18:32.385Z</time>
      </trkpt>
      <trkpt lat="41.16476" lon="43.76804">
        <ele>2123.497286</ele>
        <time>2021-08-16T11:19:36.443Z</time>
      </trkpt>
      <trkpt lat="41.16693" lon="43.76566">
        <ele>2118.822564</ele>
        <time>2021-08-16T11:20:48.177Z</time>
      </trkpt>
      <trkpt lat="41.16718" lon="43.76543">
        <ele>2118.586723</ele>
        <time>2021-08-16T11:20:56.352Z</time>
      </trkpt>
      <trkpt lat="41.16721" lon="43.76541">
        <ele>2118.563804</ele>
        <time>2021-08-16T11:20:57.165Z</time>
      </trkpt>
      <trkpt lat="41.16761" lon="43.76506">
        <ele>2118.196081</ele>
        <time>2021-08-16T11:21:10.156Z</time>
      </trkpt>
      <trkpt lat="41.1679" lon="43.76482">
        <ele>2117.934305</ele>
        <time>2021-08-16T11:21:19.546Z</time>
      </trkpt>
      <trkpt lat="41.16962" lon="43.76374">
        <ele>2117.778136</ele>
        <time>2021-08-16T11:22:16.236Z</time>
      </trkpt>
      <trkpt lat="41.17138" lon="43.76254">
        <ele>2120.575006</ele>
        <time>2021-08-16T11:23:33.428Z</time>
      </trkpt>
      <trkpt lat="41.17152" lon="43.76243">
        <ele>2120.879959</ele>
        <time>2021-08-16T11:23:41.542Z</time>
      </trkpt>
      <trkpt lat="41.17288" lon="43.76148">
        <ele>2125.131671</ele>
        <time>2021-08-16T11:24:58.190Z</time>
      </trkpt>
      <trkpt lat="41.1768" lon="43.75867">
        <ele>2133.853549</ele>
        <time>2021-08-16T11:28:07.634Z</time>
      </trkpt>
      <trkpt lat="41.17815" lon="43.75765">
        <ele>2134.141088</ele>
        <time>2021-08-16T11:28:54.860Z</time>
      </trkpt>
      <trkpt lat="41.17939" lon="43.75669">
        <ele>2132.781514</ele>
        <time>2021-08-16T11:29:33.080Z</time>
      </trkpt>
      <trkpt lat="41.18256" lon="43.75425">
        <ele>2128.646109</ele>
        <time>2021-08-16T11:31:11.057Z</time>
      </trkpt>
      <trkpt lat="41.18303" lon="43.75377">
        <ele>2127.29049</ele>
        <time>2021-08-16T11:31:26.279Z</time>
      </trkpt>
      <trkpt lat="41.18856" lon="43.74701">
        <ele>2108.291489</ele>
        <time>2021-08-16T11:34:22.714Z</time>
      </trkpt>
      <trkpt lat="41.18882" lon="43.74663">
        <ele>2107.546144</ele>
        <time>2021-08-16T11:34:32.513Z</time>
      </trkpt>
      <trkpt lat="41.18898" lon="43.74636">
        <ele>2107.052297</ele>
        <time>2021-08-16T11:34:39.284Z</time>
      </trkpt>
      <trkpt lat="41.18907" lon="43.74618">
        <ele>2106.743519</ele>
        <time>2021-08-16T11:34:43.461Z</time>
      </trkpt>
      <trkpt lat="41.18918" lon="43.7459">
        <ele>2106.311242</ele>
        <time>2021-08-16T11:34:49.992Z</time>
      </trkpt>
      <trkpt lat="41.18918" lon="43.74552">
        <ele>2106.178599</ele>
        <time>2021-08-16T11:34:57.715Z</time>
      </trkpt>
      <trkpt lat="41.1892" lon="43.7446">
        <ele>2105.853908</ele>
        <time>2021-08-16T11:35:17.569Z</time>
      </trkpt>
      <trkpt lat="41.18924" lon="43.74308">
        <ele>2105.551907</ele>
        <time>2021-08-16T11:35:52.641Z</time>
      </trkpt>
      <trkpt lat="41.18923" lon="43.7422">
        <ele>2105.698742</ele>
        <time>2021-08-16T11:36:13.015Z</time>
      </trkpt>
      <trkpt lat="41.18925" lon="43.74154">
        <ele>2105.8096</ele>
        <time>2021-08-16T11:36:29.483Z</time>
      </trkpt>
      <trkpt lat="41.18932" lon="43.74034">
        <ele>2106.416233</ele>
        <time>2021-08-16T11:37:01.859Z</time>
      </trkpt>
      <trkpt lat="41.18943" lon="43.73926">
        <ele>2107.144686</ele>
        <time>2021-08-16T11:37:32.539Z</time>
      </trkpt>
      <trkpt lat="41.18948" lon="43.73891">
        <ele>2107.377746</ele>
        <time>2021-08-16T11:37:42.092Z</time>
      </trkpt>
      <trkpt lat="41.18984" lon="43.73754">
        <ele>2108.235082</ele>
        <time>2021-08-16T11:38:21.247Z</time>
      </trkpt>
      <trkpt lat="41.19017" lon="43.73661">
        <ele>2108.833248</ele>
        <time>2021-08-16T11:38:48.336Z</time>
      </trkpt>
      <trkpt lat="41.19048" lon="43.73571">
        <ele>2109.328301</ele>
        <time>2021-08-16T11:39:14.878Z</time>
      </trkpt>
      <trkpt lat="41.191" lon="43.73394">
        <ele>2109.72799</ele>
        <time>2021-08-16T11:40:04.896Z</time>
      </trkpt>
      <trkpt lat="41.1914" lon="43.73277">
        <ele>2108.816922</ele>
        <time>2021-08-16T11:40:32.255Z</time>
      </trkpt>
      <trkpt lat="41.19374" lon="43.72791">
        <ele>2097.977542</ele>
        <time>2021-08-16T11:42:13.972Z</time>
      </trkpt>
      <trkpt lat="41.19714" lon="43.72199">
        <ele>2084.260519</ele>
        <time>2021-08-16T11:44:27.253Z</time>
      </trkpt>
      <trkpt lat="41.19827" lon="43.71992">
        <ele>2080.940949</ele>
        <time>2021-08-16T11:45:17.703Z</time>
      </trkpt>
      <trkpt lat="41.2017" lon="43.71323">
        <ele>2069.538232</ele>
        <time>2021-08-16T11:47:48.557Z</time>
      </trkpt>
      <trkpt lat="41.203" lon="43.7108">
        <ele>2066.000232</ele>
        <time>2021-08-16T11:48:45.745Z</time>
      </trkpt>
      <trkpt lat="41.20638" lon="43.70583">
        <ele>2061.472365</ele>
        <time>2021-08-16T11:51:05.075Z</time>
      </trkpt>
      <trkpt lat="41.20774" lon="43.70381">
        <ele>2058.865531</ele>
        <time>2021-08-16T11:51:57.664Z</time>
      </trkpt>
      <trkpt lat="41.2096" lon="43.70107">
        <ele>2055.218464</ele>
        <time>2021-08-16T11:53:11.495Z</time>
      </trkpt>
      <trkpt lat="41.2101" lon="43.70035">
        <ele>2054.085869</ele>
        <time>2021-08-16T11:53:30.021Z</time>
      </trkpt>
      <trkpt lat="41.21049" lon="43.69974">
        <ele>2053.104777</ele>
        <time>2021-08-16T11:53:44.709Z</time>
      </trkpt>
      <trkpt lat="41.21098" lon="43.69901">
        <ele>2051.857344</ele>
        <time>2021-08-16T11:54:02.821Z</time>
      </trkpt>
      <trkpt lat="41.21118" lon="43.69873">
        <ele>2051.367849</ele>
        <time>2021-08-16T11:54:10.139Z</time>
      </trkpt>
      <trkpt lat="41.21171" lon="43.69797">
        <ele>2050.669773</ele>
        <time>2021-08-16T11:54:30.696Z</time>
      </trkpt>
      <trkpt lat="41.21178" lon="43.69787">
        <ele>2050.687859</ele>
        <time>2021-08-16T11:54:33.722Z</time>
      </trkpt>
      <trkpt lat="41.21225" lon="43.69715">
        <ele>2050.811248</ele>
        <time>2021-08-16T11:54:57.215Z</time>
      </trkpt>
      <trkpt lat="41.21299" lon="43.69599">
        <ele>2051.178237</ele>
        <time>2021-08-16T11:55:39.919Z</time>
      </trkpt>
      <trkpt lat="41.21371" lon="43.69481">
        <ele>2051.763947</ele>
        <time>2021-08-16T11:56:19.413Z</time>
      </trkpt>
      <trkpt lat="41.21449" lon="43.69345">
        <ele>2050.907219</ele>
        <time>2021-08-16T11:56:55.005Z</time>
      </trkpt>
      <trkpt lat="41.21455" lon="43.69335">
        <ele>2050.82929</ele>
        <time>2021-08-16T11:56:57.474Z</time>
      </trkpt>
      <trkpt lat="41.21462" lon="43.69323">
        <ele>2050.729992</ele>
        <time>2021-08-16T11:57:00.693Z</time>
      </trkpt>
      <trkpt lat="41.21475" lon="43.693">
        <ele>2050.553273</ele>
        <time>2021-08-16T11:57:06.349Z</time>
      </trkpt>
      <trkpt lat="41.21497" lon="43.69259">
        <ele>2050.251582</ele>
        <time>2021-08-16T11:57:16.342Z</time>
      </trkpt>
      <trkpt lat="41.21517" lon="43.69206">
        <ele>2049.912389</ele>
        <time>2021-08-16T11:57:28.352Z</time>
      </trkpt>
      <trkpt lat="41.21529" lon="43.69167">
        <ele>2049.671505</ele>
        <time>2021-08-16T11:57:36.988Z</time>
      </trkpt>
      <trkpt lat="41.21551" lon="43.69112">
        <ele>2049.317781</ele>
        <time>2021-08-16T11:57:50.078Z</time>
      </trkpt>
      <trkpt lat="41.21576" lon="43.69059">
        <ele>2049.002327</ele>
        <time>2021-08-16T11:58:04.121Z</time>
      </trkpt>
      <trkpt lat="41.21593" lon="43.69022">
        <ele>2049.052301</ele>
        <time>2021-08-16T11:58:13.879Z</time>
      </trkpt>
      <trkpt lat="41.21607" lon="43.68982">
        <ele>2049.104758</ele>
        <time>2021-08-16T11:58:24.481Z</time>
      </trkpt>
      <trkpt lat="41.21637" lon="43.68878">
        <ele>2049.234011</ele>
        <time>2021-08-16T11:58:51.756Z</time>
      </trkpt>
      <trkpt lat="41.21649" lon="43.68832">
        <ele>2049.345017</ele>
        <time>2021-08-16T11:59:04.308Z</time>
      </trkpt>
      <trkpt lat="41.21696" lon="43.68669">
        <ele>2050.209947</ele>
        <time>2021-08-16T11:59:49.244Z</time>
      </trkpt>
      <trkpt lat="41.21733" lon="43.68545">
        <ele>2051.168706</ele>
        <time>2021-08-16T12:00:26.726Z</time>
      </trkpt>
      <trkpt lat="41.21777" lon="43.68384">
        <ele>2052.556105</ele>
        <time>2021-08-16T12:01:15.907Z</time>
      </trkpt>
      <trkpt lat="41.21801" lon="43.68299">
        <ele>2052.934264</ele>
        <time>2021-08-16T12:01:40.318Z</time>
      </trkpt>
      <trkpt lat="41.21794" lon="43.68264">
        <ele>2053.08101</ele>
        <time>2021-08-16T12:01:49.673Z</time>
      </trkpt>
      <trkpt lat="41.21804" lon="43.68192">
        <ele>2053.385579</ele>
        <time>2021-08-16T12:02:09.074Z</time>
      </trkpt>
      <trkpt lat="41.21809" lon="43.68175">
        <ele>2053.459868</ele>
        <time>2021-08-16T12:02:13.361Z</time>
      </trkpt>
      <trkpt lat="41.21824" lon="43.68126">
        <ele>2053.301767</ele>
        <time>2021-08-16T12:02:26.108Z</time>
      </trkpt>
      <trkpt lat="41.21829" lon="43.68099">
        <ele>2053.198577</ele>
        <time>2021-08-16T12:02:32.433Z</time>
      </trkpt>
      <trkpt lat="41.21847" lon="43.68053">
        <ele>2053.000623</ele>
        <time>2021-08-16T12:02:43.977Z</time>
      </trkpt>
      <trkpt lat="41.21853" lon="43.68015">
        <ele>2052.852304</ele>
        <time>2021-08-16T12:02:52.650Z</time>
      </trkpt>
      <trkpt lat="41.21872" lon="43.67968">
        <ele>2052.650318</ele>
        <time>2021-08-16T12:03:04.300Z</time>
      </trkpt>
      <trkpt lat="41.21889" lon="43.67905">
        <ele>2052.268905</ele>
        <time>2021-08-16T12:03:19.121Z</time>
      </trkpt>
      <trkpt lat="41.21902" lon="43.67838">
        <ele>2051.828288</ele>
        <time>2021-08-16T12:03:33.979Z</time>
      </trkpt>
      <trkpt lat="41.21908" lon="43.67764">
        <ele>2051.350284</ele>
        <time>2021-08-16T12:03:49.928Z</time>
      </trkpt>
      <trkpt lat="41.21919" lon="43.67713">
        <ele>2050.999355</ele>
        <time>2021-08-16T12:04:01.499Z</time>
      </trkpt>
      <trkpt lat="41.21935" lon="43.67675">
        <ele>2050.677815</ele>
        <time>2021-08-16T12:04:10.830Z</time>
      </trkpt>
      <trkpt lat="41.21953" lon="43.67601">
        <ele>2050.103713</ele>
        <time>2021-08-16T12:04:27.562Z</time>
      </trkpt>
      <trkpt lat="41.21957" lon="43.67556">
        <ele>2049.769574</ele>
        <time>2021-08-16T12:04:37.284Z</time>
      </trkpt>
      <trkpt lat="41.21984" lon="43.6743">
        <ele>2048.757026</ele>
        <time>2021-08-16T12:05:05.055Z</time>
      </trkpt>
      <trkpt lat="41.21988" lon="43.6736">
        <ele>2048.183655</ele>
        <time>2021-08-16T12:05:19.861Z</time>
      </trkpt>
      <trkpt lat="41.22004" lon="43.67318">
        <ele>2047.801545</ele>
        <time>2021-08-16T12:05:29.632Z</time>
      </trkpt>
      <trkpt lat="41.22011" lon="43.67272">
        <ele>2047.41368</ele>
        <time>2021-08-16T12:05:39.535Z</time>
      </trkpt>
      <trkpt lat="41.2208" lon="43.66998">
        <ele>2045.166347</ele>
        <time>2021-08-16T12:06:40.705Z</time>
      </trkpt>
      <trkpt lat="41.22107" lon="43.66853">
        <ele>2044.163161</ele>
        <time>2021-08-16T12:07:13.226Z</time>
      </trkpt>
      <trkpt lat="41.2211" lon="43.66807">
        <ele>2043.858113</ele>
        <time>2021-08-16T12:07:23.119Z</time>
      </trkpt>
      <trkpt lat="41.22164" lon="43.66551">
        <ele>2042.164421</ele>
        <time>2021-08-16T12:08:20.502Z</time>
      </trkpt>
      <trkpt lat="41.22199" lon="43.66359">
        <ele>2041.109777</ele>
        <time>2021-08-16T12:09:04.302Z</time>
      </trkpt>
      <trkpt lat="41.22208" lon="43.6632">
        <ele>2040.780455</ele>
        <time>2021-08-16T12:09:13.934Z</time>
      </trkpt>
      <trkpt lat="41.22243" lon="43.66226">
        <ele>2039.709596</ele>
        <time>2021-08-16T12:09:36.300Z</time>
      </trkpt>
      <trkpt lat="41.22292" lon="43.66119">
        <ele>2038.432331</ele>
        <time>2021-08-16T12:10:00.689Z</time>
      </trkpt>
      <trkpt lat="41.22294" lon="43.66084">
        <ele>2038.074625</ele>
        <time>2021-08-16T12:10:07.368Z</time>
      </trkpt>
      <trkpt lat="41.22303" lon="43.66046">
        <ele>2037.65545</ele>
        <time>2021-08-16T12:10:15.381Z</time>
      </trkpt>
      <trkpt lat="41.22307" lon="43.66032">
        <ele>2037.505978</ele>
        <time>2021-08-16T12:10:18.291Z</time>
      </trkpt>
      <trkpt lat="41.22328" lon="43.66016">
        <ele>2037.176466</ele>
        <time>2021-08-16T12:10:24.780Z</time>
      </trkpt>
      <trkpt lat="41.22331" lon="43.65998">
        <ele>2036.986056</ele>
        <time>2021-08-16T12:10:28.437Z</time>
      </trkpt>
      <trkpt lat="41.2234" lon="43.65943">
        <ele>2036.39905</ele>
        <time>2021-08-16T12:10:39.808Z</time>
      </trkpt>
      <trkpt lat="41.22347" lon="43.65896">
        <ele>2036.141747</ele>
        <time>2021-08-16T12:10:49.826Z</time>
      </trkpt>
      <trkpt lat="41.22365" lon="43.65811">
        <ele>2036.39648</ele>
        <time>2021-08-16T12:11:11.617Z</time>
      </trkpt>
      <trkpt lat="41.22399" lon="43.65709">
        <ele>2036.71725</ele>
        <time>2021-08-16T12:11:42.220Z</time>
      </trkpt>
      <trkpt lat="41.22423" lon="43.65637">
        <ele>2036.950625</ele>
        <time>2021-08-16T12:12:03.065Z</time>
      </trkpt>
      <trkpt lat="41.2247" lon="43.65511">
        <ele>2037.369467</ele>
        <time>2021-08-16T12:12:37.180Z</time>
      </trkpt>
      <trkpt lat="41.225" lon="43.65452">
        <ele>2037.584405</ele>
        <time>2021-08-16T12:12:54.230Z</time>
      </trkpt>
      <trkpt lat="41.22753" lon="43.65061">
        <ele>2039.448021</ele>
        <time>2021-08-16T12:15:05.521Z</time>
      </trkpt>
      <trkpt lat="41.22767" lon="43.65028">
        <ele>2039.66048</ele>
        <time>2021-08-16T12:15:15.419Z</time>
      </trkpt>
      <trkpt lat="41.22773" lon="43.64986">
        <ele>2039.894499</ele>
        <time>2021-08-16T12:15:26.460Z</time>
      </trkpt>
      <trkpt lat="41.22774" lon="43.64935">
        <ele>2040.179941</ele>
        <time>2021-08-16T12:15:40.039Z</time>
      </trkpt>
      <trkpt lat="41.22765" lon="43.64734">
        <ele>2042.303636</ele>
        <time>2021-08-16T12:16:38.794Z</time>
      </trkpt>
      <trkpt lat="41.22765" lon="43.64559">
        <ele>2044.387498</ele>
        <time>2021-08-16T12:17:35.105Z</time>
      </trkpt>
      <trkpt lat="41.22769" lon="43.64526">
        <ele>2044.794223</ele>
        <time>2021-08-16T12:17:45.811Z</time>
      </trkpt>
      <trkpt lat="41.22794" lon="43.64429">
        <ele>2046.032074</ele>
        <time>2021-08-16T12:18:16.914Z</time>
      </trkpt>
      <trkpt lat="41.22848" lon="43.64266">
        <ele>2045.343363</ele>
        <time>2021-08-16T12:18:57.139Z</time>
      </trkpt>
      <trkpt lat="41.22888" lon="43.64153">
        <ele>2043.941323</ele>
        <time>2021-08-16T12:19:20.306Z</time>
      </trkpt>
      <trkpt lat="41.22931" lon="43.64047">
        <ele>2041.632986</ele>
        <time>2021-08-16T12:19:41.323Z</time>
      </trkpt>
      <trkpt lat="41.22978" lon="43.63952">
        <ele>2039.529737</ele>
        <time>2021-08-16T12:20:01.361Z</time>
      </trkpt>
      <trkpt lat="41.23325" lon="43.63338">
        <ele>2026.494011</ele>
        <time>2021-08-16T12:22:21.382Z</time>
      </trkpt>
      <trkpt lat="41.23379" lon="43.63256">
        <ele>2024.849685</ele>
        <time>2021-08-16T12:22:41.938Z</time>
      </trkpt>
      <trkpt lat="41.2398" lon="43.62505">
        <ele>2009.706725</ele>
        <time>2021-08-16T12:26:08.574Z</time>
      </trkpt>
      <trkpt lat="41.24018" lon="43.62433">
        <ele>2008.227021</ele>
        <time>2021-08-16T12:26:24.188Z</time>
      </trkpt>
      <trkpt lat="41.24294" lon="43.61855">
        <ele>1993.978774</ele>
        <time>2021-08-16T12:28:24.727Z</time>
      </trkpt>
      <trkpt lat="41.2436" lon="43.61726">
        <ele>1990.33999</ele>
        <time>2021-08-16T12:28:51.771Z</time>
      </trkpt>
      <trkpt lat="41.24447" lon="43.61573">
        <ele>1985.755439</ele>
        <time>2021-08-16T12:29:24.156Z</time>
      </trkpt>
      <trkpt lat="41.24543" lon="43.6141">
        <ele>1981.469821</ele>
        <time>2021-08-16T12:30:00.307Z</time>
      </trkpt>
      <trkpt lat="41.24787" lon="43.61049">
        <ele>1977.823306</ele>
        <time>2021-08-16T12:31:39.974Z</time>
      </trkpt>
      <trkpt lat="41.25046" lon="43.60638">
        <ele>1977.804414</ele>
        <time>2021-08-16T12:33:43.308Z</time>
      </trkpt>
      <trkpt lat="41.25184" lon="43.60414">
        <ele>1979.283759</ele>
        <time>2021-08-16T12:35:06.533Z</time>
      </trkpt>
      <trkpt lat="41.25201" lon="43.60387">
        <ele>1979.415809</ele>
        <time>2021-08-16T12:35:15.189Z</time>
      </trkpt>
      <trkpt lat="41.25249" lon="43.60339">
        <ele>1979.725763</ele>
        <time>2021-08-16T12:35:33.395Z</time>
      </trkpt>
      <trkpt lat="41.25291" lon="43.60316">
        <ele>1979.249223</ele>
        <time>2021-08-16T12:35:45.915Z</time>
      </trkpt>
      <trkpt lat="41.25407" lon="43.60249">
        <ele>1977.810843</ele>
        <time>2021-08-16T12:36:18.265Z</time>
      </trkpt>
      <trkpt lat="41.25529" lon="43.60178">
        <ele>1976.74296</ele>
        <time>2021-08-16T12:36:54.577Z</time>
      </trkpt>
      <trkpt lat="41.25573" lon="43.60152">
        <ele>1976.375712</ele>
        <time>2021-08-16T12:37:08.499Z</time>
      </trkpt>
      <trkpt lat="41.25621" lon="43.60124">
        <ele>1976.344793</ele>
        <time>2021-08-16T12:37:24.883Z</time>
      </trkpt>
      <trkpt lat="41.25671" lon="43.60095">
        <ele>1976.397446</ele>
        <time>2021-08-16T12:37:42.533Z</time>
      </trkpt>
      <trkpt lat="41.25842" lon="43.59996">
        <ele>1976.318001</ele>
        <time>2021-08-16T12:38:42.419Z</time>
      </trkpt>
      <trkpt lat="41.25939" lon="43.59942">
        <ele>1975.672141</ele>
        <time>2021-08-16T12:39:12.770Z</time>
      </trkpt>
      <trkpt lat="41.2603" lon="43.59888">
        <ele>1973.897977</ele>
        <time>2021-08-16T12:39:37.779Z</time>
      </trkpt>
      <trkpt lat="41.26136" lon="43.59825">
        <ele>1970.838753</ele>
        <time>2021-08-16T12:40:04.986Z</time>
      </trkpt>
      <trkpt lat="41.26304" lon="43.59723">
        <ele>1964.25086</ele>
        <time>2021-08-16T12:40:46.004Z</time>
      </trkpt>
      <trkpt lat="41.26345" lon="43.59698">
        <ele>1962.40786</ele>
        <time>2021-08-16T12:40:55.949Z</time>
      </trkpt>
      <trkpt lat="41.26375" lon="43.59677">
        <ele>1961.030496</ele>
        <time>2021-08-16T12:41:03.366Z</time>
      </trkpt>
      <trkpt lat="41.26401" lon="43.59655">
        <ele>1959.784887</ele>
        <time>2021-08-16T12:41:10.045Z</time>
      </trkpt>
      <trkpt lat="41.26488" lon="43.59446">
        <ele>1952.137811</ele>
        <time>2021-08-16T12:41:48.985Z</time>
      </trkpt>
      <trkpt lat="41.26517" lon="43.59379">
        <ele>1950.146072</ele>
        <time>2021-08-16T12:42:01.884Z</time>
      </trkpt>
      <trkpt lat="41.26527" lon="43.59356">
        <ele>1949.440857</ele>
        <time>2021-08-16T12:42:06.515Z</time>
      </trkpt>
      <trkpt lat="41.26606" lon="43.5918">
        <ele>1944.649543</ele>
        <time>2021-08-16T12:42:41.732Z</time>
      </trkpt>
      <trkpt lat="41.26623" lon="43.59142">
        <ele>1943.810832</ele>
        <time>2021-08-16T12:42:49.791Z</time>
      </trkpt>
      <trkpt lat="41.26652" lon="43.59066">
        <ele>1942.187464</ele>
        <time>2021-08-16T12:43:05.535Z</time>
      </trkpt>
      <trkpt lat="41.26698" lon="43.58947">
        <ele>1939.806415</ele>
        <time>2021-08-16T12:43:29.816Z</time>
      </trkpt>
      <trkpt lat="41.26755" lon="43.58816">
        <ele>1937.196137</ele>
        <time>2021-08-16T12:43:57.068Z</time>
      </trkpt>
      <trkpt lat="41.26757" lon="43.58813">
        <ele>1937.150387</ele>
        <time>2021-08-16T12:43:57.689Z</time>
      </trkpt>
      <trkpt lat="41.26763" lon="43.58798">
        <ele>1936.954974</ele>
        <time>2021-08-16T12:44:00.811Z</time>
      </trkpt>
      <trkpt lat="41.26773" lon="43.58782">
        <ele>1936.727123</ele>
        <time>2021-08-16T12:44:04.713Z</time>
      </trkpt>
      <trkpt lat="41.26822" lon="43.58731">
        <ele>1935.778695</ele>
        <time>2021-08-16T12:44:20.260Z</time>
      </trkpt>
      <trkpt lat="41.2684" lon="43.58716">
        <ele>1935.466732</ele>
        <time>2021-08-16T12:44:25.467Z</time>
      </trkpt>
      <trkpt lat="41.26868" lon="43.58692">
        <ele>1934.957774</ele>
        <time>2021-08-16T12:44:34.400Z</time>
      </trkpt>
      <trkpt lat="41.26917" lon="43.58656">
        <ele>1934.516371</ele>
        <time>2021-08-16T12:44:50.883Z</time>
      </trkpt>
      <trkpt lat="41.27011" lon="43.58604">
        <ele>1934.402633</ele>
        <time>2021-08-16T12:45:23.034Z</time>
      </trkpt>
      <trkpt lat="41.27053" lon="43.58577">
        <ele>1934.349609</ele>
        <time>2021-08-16T12:45:37.921Z</time>
      </trkpt>
      <trkpt lat="41.27142" lon="43.58523">
        <ele>1933.887535</ele>
        <time>2021-08-16T12:46:07.330Z</time>
      </trkpt>
      <trkpt lat="41.27293" lon="43.58434">
        <ele>1932.585825</ele>
        <time>2021-08-16T12:46:52.529Z</time>
      </trkpt>
      <trkpt lat="41.27359" lon="43.58404">
        <ele>1931.80872</ele>
        <time>2021-08-16T12:47:10.615Z</time>
      </trkpt>
      <trkpt lat="41.27414" lon="43.58374">
        <ele>1931.197998</ele>
        <time>2021-08-16T12:47:25.993Z</time>
      </trkpt>
      <trkpt lat="41.27483" lon="43.58325">
        <ele>1930.460976</ele>
        <time>2021-08-16T12:47:47.146Z</time>
      </trkpt>
      <trkpt lat="41.27539" lon="43.58288">
        <ele>1929.8736</ele>
        <time>2021-08-16T12:48:04.862Z</time>
      </trkpt>
      <trkpt lat="41.27579" lon="43.58244">
        <ele>1929.171534</ele>
        <time>2021-08-16T12:48:19.878Z</time>
      </trkpt>
      <trkpt lat="41.27615" lon="43.58199">
        <ele>1928.471071</ele>
        <time>2021-08-16T12:48:33.687Z</time>
      </trkpt>
      <trkpt lat="41.27875" lon="43.5788">
        <ele>1920.63525</ele>
        <time>2021-08-16T12:49:59.162Z</time>
      </trkpt>
      <trkpt lat="41.27951" lon="43.57802">
        <ele>1917.803919</ele>
        <time>2021-08-16T12:50:20.877Z</time>
      </trkpt>
      <trkpt lat="41.2808" lon="43.57661">
        <ele>1911.486805</ele>
        <time>2021-08-16T12:50:57.727Z</time>
      </trkpt>
      <trkpt lat="41.28294" lon="43.57395">
        <ele>1900.939082</ele>
        <time>2021-08-16T12:52:02.426Z</time>
      </trkpt>
      <trkpt lat="41.28531" lon="43.57122">
        <ele>1893.268783</ele>
        <time>2021-08-16T12:53:18.497Z</time>
      </trkpt>
      <trkpt lat="41.28712" lon="43.56911">
        <ele>1888.417924</ele>
        <time>2021-08-16T12:54:16.794Z</time>
      </trkpt>
      <trkpt lat="41.29103" lon="43.56461">
        <ele>1884.099343</ele>
        <time>2021-08-16T12:56:39.255Z</time>
      </trkpt>
      <trkpt lat="41.29163" lon="43.56381">
        <ele>1883.860853</ele>
        <time>2021-08-16T12:57:06.790Z</time>
      </trkpt>
      <trkpt lat="41.29332" lon="43.56023">
        <ele>1884.527394</ele>
        <time>2021-08-16T12:58:54.491Z</time>
      </trkpt>
      <trkpt lat="41.29461" lon="43.55718">
        <ele>1879.900417</ele>
        <time>2021-08-16T13:00:01.426Z</time>
      </trkpt>
      <trkpt lat="41.29486" lon="43.55666">
        <ele>1877.973106</ele>
        <time>2021-08-16T13:00:11.610Z</time>
      </trkpt>
      <trkpt lat="41.29504" lon="43.5564">
        <ele>1876.861457</ele>
        <time>2021-08-16T13:00:17.266Z</time>
      </trkpt>
      <trkpt lat="41.29523" lon="43.55615">
        <ele>1875.757213</ele>
        <time>2021-08-16T13:00:22.914Z</time>
      </trkpt>
      <trkpt lat="41.29558" lon="43.55584">
        <ele>1874.018712</ele>
        <time>2021-08-16T13:00:31.577Z</time>
      </trkpt>
      <trkpt lat="41.29603" lon="43.55557">
        <ele>1871.687579</ele>
        <time>2021-08-16T13:00:41.680Z</time>
      </trkpt>
      <trkpt lat="41.29729" lon="43.55517">
        <ele>1865.54896</ele>
        <time>2021-08-16T13:01:09.489Z</time>
      </trkpt>
      <trkpt lat="41.2976" lon="43.55503">
        <ele>1864.688049</ele>
        <time>2021-08-16T13:01:16.874Z</time>
      </trkpt>
      <trkpt lat="41.29821" lon="43.55453">
        <ele>1862.812853</ele>
        <time>2021-08-16T13:01:33.532Z</time>
      </trkpt>
      <trkpt lat="41.29855" lon="43.55404">
        <ele>1861.496009</ele>
        <time>2021-08-16T13:01:45.803Z</time>
      </trkpt>
      <trkpt lat="41.30219" lon="43.54792">
        <ele>1854.233962</ele>
        <time>2021-08-16T13:04:22.329Z</time>
      </trkpt>
      <trkpt lat="41.30415" lon="43.54458">
        <ele>1848.872257</ele>
        <time>2021-08-16T13:05:42.846Z</time>
      </trkpt>
      <trkpt lat="41.30466" lon="43.54359">
        <ele>1846.989753</ele>
        <time>2021-08-16T13:06:04.458Z</time>
      </trkpt>
      <trkpt lat="41.30532" lon="43.54237">
        <ele>1844.583878</ele>
        <time>2021-08-16T13:06:31.929Z</time>
      </trkpt>
      <trkpt lat="41.30553" lon="43.54196">
        <ele>1844.198166</ele>
        <time>2021-08-16T13:06:41.297Z</time>
      </trkpt>
      <trkpt lat="41.30859" lon="43.53621">
        <ele>1839.119202</ele>
        <time>2021-08-16T13:09:06.455Z</time>
      </trkpt>
      <trkpt lat="41.30893" lon="43.53562">
        <ele>1838.631898</ele>
        <time>2021-08-16T13:09:22.205Z</time>
      </trkpt>
      <trkpt lat="41.30969" lon="43.53452">
        <ele>1837.613258</ele>
        <time>2021-08-16T13:09:52.914Z</time>
      </trkpt>
      <trkpt lat="41.31275" lon="43.53004">
        <ele>1832.210966</ele>
        <time>2021-08-16T13:11:53.662Z</time>
      </trkpt>
      <trkpt lat="41.3146" lon="43.52737">
        <ele>1828.13049</ele>
        <time>2021-08-16T13:13:03.260Z</time>
      </trkpt>
      <trkpt lat="41.31441" lon="43.52713">
        <ele>1827.814867</ele>
        <time>2021-08-16T13:13:09.946Z</time>
      </trkpt>
      <trkpt lat="41.31405" lon="43.52671">
        <ele>1827.240526</ele>
        <time>2021-08-16T13:13:22.276Z</time>
      </trkpt>
      <trkpt lat="41.31394" lon="43.5265">
        <ele>1827.009989</ele>
        <time>2021-08-16T13:13:27.236Z</time>
      </trkpt>
      <trkpt lat="41.31389" lon="43.52631">
        <ele>1826.82373</ele>
        <time>2021-08-16T13:13:31.299Z</time>
      </trkpt>
      <trkpt lat="41.3139" lon="43.5262">
        <ele>1826.727256</ele>
        <time>2021-08-16T13:13:33.380Z</time>
      </trkpt>
      <trkpt lat="41.31497" lon="43.52455">
        <ele>1826.340415</ele>
        <time>2021-08-16T13:14:20.545Z</time>
      </trkpt>
      <trkpt lat="41.315" lon="43.52443">
        <ele>1826.34376</ele>
        <time>2021-08-16T13:14:23.711Z</time>
      </trkpt>
      <trkpt lat="41.31499" lon="43.52433">
        <ele>1826.346137</ele>
        <time>2021-08-16T13:14:26.342Z</time>
      </trkpt>
      <trkpt lat="41.31497" lon="43.52422">
        <ele>1826.349066</ele>
        <time>2021-08-16T13:14:29.446Z</time>
      </trkpt>
      <trkpt lat="41.31488" lon="43.52402">
        <ele>1826.355139</ele>
        <time>2021-08-16T13:14:35.824Z</time>
      </trkpt>
      <trkpt lat="41.31301" lon="43.5212">
        <ele>1830.594631</ele>
        <time>2021-08-16T13:16:35.997Z</time>
      </trkpt>
      <trkpt lat="41.31259" lon="43.52065">
        <ele>1831.15169</ele>
        <time>2021-08-16T13:16:55.638Z</time>
      </trkpt>
      <trkpt lat="41.3123" lon="43.52012">
        <ele>1830.967162</ele>
        <time>2021-08-16T13:17:09.834Z</time>
      </trkpt>
      <trkpt lat="41.31017" lon="43.51399">
        <ele>1821.089841</ele>
        <time>2021-08-16T13:19:13.370Z</time>
      </trkpt>
      <trkpt lat="41.31006" lon="43.51326">
        <ele>1821.088346</ele>
        <time>2021-08-16T13:19:30.395Z</time>
      </trkpt>
      <trkpt lat="41.31033" lon="43.51297">
        <ele>1821.228381</ele>
        <time>2021-08-16T13:19:42.231Z</time>
      </trkpt>
      <trkpt lat="41.31096" lon="43.51111">
        <ele>1821.721314</ele>
        <time>2021-08-16T13:20:39.039Z</time>
      </trkpt>
      <trkpt lat="41.31092" lon="43.51057">
        <ele>1821.795017</ele>
        <time>2021-08-16T13:20:53.131Z</time>
      </trkpt>
      <trkpt lat="41.30998" lon="43.50797">
        <ele>1820.336681</ele>
        <time>2021-08-16T13:21:54.531Z</time>
      </trkpt>
      <trkpt lat="41.30957" lon="43.50527">
        <ele>1815.404249</ele>
        <time>2021-08-16T13:22:43.408Z</time>
      </trkpt>
      <trkpt lat="41.30946" lon="43.50484">
        <ele>1814.534984</ele>
        <time>2021-08-16T13:22:51.052Z</time>
      </trkpt>
      <trkpt lat="41.3094" lon="43.50408">
        <ele>1813.239049</ele>
        <time>2021-08-16T13:23:04.077Z</time>
      </trkpt>
      <trkpt lat="41.30915" lon="43.50378">
        <ele>1812.483</ele>
        <time>2021-08-16T13:23:11.949Z</time>
      </trkpt>
      <trkpt lat="41.30882" lon="43.50315">
        <ele>1811.192284</ele>
        <time>2021-08-16T13:23:26.723Z</time>
      </trkpt>
      <trkpt lat="41.30875" lon="43.50282">
        <ele>1810.837896</ele>
        <time>2021-08-16T13:23:34.062Z</time>
      </trkpt>
      <trkpt lat="41.30868" lon="43.50269">
        <ele>1810.921728</ele>
        <time>2021-08-16T13:23:37.441Z</time>
      </trkpt>
      <trkpt lat="41.30861" lon="43.50263">
        <ele>1810.97952</ele>
        <time>2021-08-16T13:23:39.375Z</time>
      </trkpt>
      <trkpt lat="41.30854" lon="43.50257">
        <ele>1811.03502</ele>
        <time>2021-08-16T13:23:43.699Z</time>
      </trkpt>
      <trkpt lat="41.30818" lon="43.50236">
        <ele>1811.307463</ele>
        <time>2021-08-16T13:23:57.548Z</time>
      </trkpt>
      <trkpt lat="41.30792" lon="43.50198">
        <ele>1811.573488</ele>
        <time>2021-08-16T13:24:12.385Z</time>
      </trkpt>
      <trkpt lat="41.30757" lon="43.50164">
        <ele>1811.868968</ele>
        <time>2021-08-16T13:24:28.997Z</time>
      </trkpt>
      <trkpt lat="41.30699" lon="43.50142">
        <ele>1812.117703</ele>
        <time>2021-08-16T13:24:52.230Z</time>
      </trkpt>
      <trkpt lat="41.30695" lon="43.5014">
        <ele>1812.126115</ele>
        <time>2021-08-16T13:24:53.882Z</time>
      </trkpt>
      <trkpt lat="41.30608" lon="43.50105">
        <ele>1812.355956</ele>
        <time>2021-08-16T13:25:23.019Z</time>
      </trkpt>
      <trkpt lat="41.30579" lon="43.50077">
        <ele>1812.446086</ele>
        <time>2021-08-16T13:25:33.500Z</time>
      </trkpt>
      <trkpt lat="41.30543" lon="43.50041">
        <ele>1812.306109</ele>
        <time>2021-08-16T13:25:46.029Z</time>
      </trkpt>
      <trkpt lat="41.30456" lon="43.49974">
        <ele>1811.824343</ele>
        <time>2021-08-16T13:26:13.803Z</time>
      </trkpt>
      <trkpt lat="41.30336" lon="43.49856">
        <ele>1811.543421</ele>
        <time>2021-08-16T13:26:59.994Z</time>
      </trkpt>
      <trkpt lat="41.30244" lon="43.49802">
        <ele>1811.457001</ele>
        <time>2021-08-16T13:27:31.508Z</time>
      </trkpt>
      <trkpt lat="41.30195" lon="43.4978">
        <ele>1811.36887</ele>
        <time>2021-08-16T13:27:47.397Z</time>
      </trkpt>
      <trkpt lat="41.30136" lon="43.49737">
        <ele>1811.256214</ele>
        <time>2021-08-16T13:28:07.313Z</time>
      </trkpt>
      <trkpt lat="41.30064" lon="43.4964">
        <ele>1811.078382</ele>
        <time>2021-08-16T13:28:37.699Z</time>
      </trkpt>
      <trkpt lat="41.30021" lon="43.49567">
        <ele>1810.957442</ele>
        <time>2021-08-16T13:28:58.305Z</time>
      </trkpt>
      <trkpt lat="41.29887" lon="43.49307">
        <ele>1810.805705</ele>
        <time>2021-08-16T13:30:13.764Z</time>
      </trkpt>
      <trkpt lat="41.29804" lon="43.49263">
        <ele>1809.944465</ele>
        <time>2021-08-16T13:30:38.469Z</time>
      </trkpt>
      <trkpt lat="41.29775" lon="43.49252">
        <ele>1809.655394</ele>
        <time>2021-08-16T13:30:46.810Z</time>
      </trkpt>
      <trkpt lat="41.29802" lon="43.49232">
        <ele>1809.364768</ele>
        <time>2021-08-16T13:30:54.657Z</time>
      </trkpt>
      <trkpt lat="41.29828" lon="43.49187">
        <ele>1808.630074</ele>
        <time>2021-08-16T13:31:06.190Z</time>
      </trkpt>
      <trkpt lat="41.2983" lon="43.49183">
        <ele>1808.551847</ele>
        <time>2021-08-16T13:31:06.929Z</time>
      </trkpt>
      <trkpt lat="41.29858" lon="43.49133">
        <ele>1807.529546</ele>
        <time>2021-08-16T13:31:18.760Z</time>
      </trkpt>
      <trkpt lat="41.29864" lon="43.49079">
        <ele>1806.61384</ele>
        <time>2021-08-16T13:31:29.024Z</time>
      </trkpt>
      <trkpt lat="41.29814" lon="43.48801">
        <ele>1802.346123</ele>
        <time>2021-08-16T13:32:24.189Z</time>
      </trkpt>
      <trkpt lat="41.2979" lon="43.48738">
        <ele>1801.701147</ele>
        <time>2021-08-16T13:32:38.640Z</time>
      </trkpt>
      <trkpt lat="41.29773" lon="43.48729">
        <ele>1801.626176</ele>
        <time>2021-08-16T13:32:43.734Z</time>
      </trkpt>
      <trkpt lat="41.29768" lon="43.48726">
        <ele>1801.601075</ele>
        <time>2021-08-16T13:32:45.421Z</time>
      </trkpt>
      <trkpt lat="41.29785" lon="43.48726">
        <ele>1801.528997</ele>
        <time>2021-08-16T13:32:50.465Z</time>
      </trkpt>
      <trkpt lat="41.29811" lon="43.48709">
        <ele>1801.412991</ele>
        <time>2021-08-16T13:32:59.032Z</time>
      </trkpt>
      <trkpt lat="41.29821" lon="43.48703">
        <ele>1801.367155</ele>
        <time>2021-08-16T13:33:02.299Z</time>
      </trkpt>
      <trkpt lat="41.29831" lon="43.48692">
        <ele>1801.313205</ele>
        <time>2021-08-16T13:33:06.514Z</time>
      </trkpt>
      <trkpt lat="41.29835" lon="43.48685">
        <ele>1801.28623</ele>
        <time>2021-08-16T13:33:08.544Z</time>
      </trkpt>
      <trkpt lat="41.2984" lon="43.48676">
        <ele>1801.252087</ele>
        <time>2021-08-16T13:33:11.415Z</time>
      </trkpt>
      <trkpt lat="41.29832" lon="43.48584">
        <ele>1801.366809</ele>
        <time>2021-08-16T13:33:35.592Z</time>
      </trkpt>
      <trkpt lat="41.29874" lon="43.4848">
        <ele>1802.492198</ele>
        <time>2021-08-16T13:34:10.733Z</time>
      </trkpt>
      <trkpt lat="41.2989" lon="43.48389">
        <ele>1803.406361</ele>
        <time>2021-08-16T13:34:40.754Z</time>
      </trkpt>
      <trkpt lat="41.29912" lon="43.48343">
        <ele>1804.018793</ele>
        <time>2021-08-16T13:34:57.816Z</time>
      </trkpt>
      <trkpt lat="41.29924" lon="43.48301">
        <ele>1804.530083</ele>
        <time>2021-08-16T13:35:11.962Z</time>
      </trkpt>
      <trkpt lat="41.29921" lon="43.48273">
        <ele>1804.849688</ele>
        <time>2021-08-16T13:35:20.740Z</time>
      </trkpt>
      <trkpt lat="41.29923" lon="43.4822">
        <ele>1805.440709</ele>
        <time>2021-08-16T13:35:36.823Z</time>
      </trkpt>
      <trkpt lat="41.29939" lon="43.48052">
        <ele>1806.72221</ele>
        <time>2021-08-16T13:36:26.895Z</time>
      </trkpt>
      <trkpt lat="41.29975" lon="43.47893">
        <ele>1807.285702</ele>
        <time>2021-08-16T13:37:10.299Z</time>
      </trkpt>
      <trkpt lat="41.30044" lon="43.47783">
        <ele>1806.723971</ele>
        <time>2021-08-16T13:37:42.566Z</time>
      </trkpt>
      <trkpt lat="41.30088" lon="43.47675">
        <ele>1805.876392</ele>
        <time>2021-08-16T13:38:08.164Z</time>
      </trkpt>
      <trkpt lat="41.30106" lon="43.4758">
        <ele>1804.960016</ele>
        <time>2021-08-16T13:38:28.344Z</time>
      </trkpt>
      <trkpt lat="41.30111" lon="43.47452">
        <ele>1803.774868</ele>
        <time>2021-08-16T13:38:54.892Z</time>
      </trkpt>
      <trkpt lat="41.30104" lon="43.4732">
        <ele>1802.601108</ele>
        <time>2021-08-16T13:39:21.196Z</time>
      </trkpt>
      <trkpt lat="41.30094" lon="43.47252">
        <ele>1802.074716</ele>
        <time>2021-08-16T13:39:35.005Z</time>
      </trkpt>
      <trkpt lat="41.30092" lon="43.47194">
        <ele>1801.853962</ele>
        <time>2021-08-16T13:39:46.996Z</time>
      </trkpt>
      <trkpt lat="41.30072" lon="43.46969">
        <ele>1801.356214</ele>
        <time>2021-08-16T13:40:37.772Z</time>
      </trkpt>
      <trkpt lat="41.30068" lon="43.46878">
        <ele>1801.531411</ele>
        <time>2021-08-16T13:41:00.497Z</time>
      </trkpt>
      <trkpt lat="41.30066" lon="43.46825">
        <ele>1801.634814</ele>
        <time>2021-08-16T13:41:14.110Z</time>
      </trkpt>
      <trkpt lat="41.30066" lon="43.4678">
        <ele>1801.742291</ele>
        <time>2021-08-16T13:41:25.584Z</time>
      </trkpt>
      <trkpt lat="41.30066" lon="43.46756">
        <ele>1801.838925</ele>
        <time>2021-08-16T13:41:32.081Z</time>
      </trkpt>
      <trkpt lat="41.30054" lon="43.46617">
        <ele>1802.388555</ele>
        <time>2021-08-16T13:42:08.117Z</time>
      </trkpt>
      <trkpt lat="41.30044" lon="43.46502">
        <ele>1802.730452</ele>
        <time>2021-08-16T13:42:37.303Z</time>
      </trkpt>
      <trkpt lat="41.30032" lon="43.46348">
        <ele>1802.992513</ele>
        <time>2021-08-16T13:43:14.827Z</time>
      </trkpt>
      <trkpt lat="41.30029" lon="43.46318">
        <ele>1803.042744</ele>
        <time>2021-08-16T13:43:21.918Z</time>
      </trkpt>
      <trkpt lat="41.30027" lon="43.46283">
        <ele>1803.166836</ele>
        <time>2021-08-16T13:43:30.475Z</time>
      </trkpt>
      <trkpt lat="41.30023" lon="43.46242">
        <ele>1803.313481</ele>
        <time>2021-08-16T13:43:40.626Z</time>
      </trkpt>
      <trkpt lat="41.30021" lon="43.46223">
        <ele>1803.383655</ele>
        <time>2021-08-16T13:43:45.524Z</time>
      </trkpt>
      <trkpt lat="41.30017" lon="43.462">
        <ele>1803.470862</ele>
        <time>2021-08-16T13:43:51.887Z</time>
      </trkpt>
      <trkpt lat="41.30017" lon="43.46198">
        <ele>1803.476838</ele>
        <time>2021-08-16T13:43:52.334Z</time>
      </trkpt>
      <trkpt lat="41.30005" lon="43.46174">
        <ele>1803.579422</ele>
        <time>2021-08-16T13:43:59.656Z</time>
      </trkpt>
      <trkpt lat="41.29993" lon="43.46157">
        <ele>1803.665803</ele>
        <time>2021-08-16T13:44:05.822Z</time>
      </trkpt>
      <trkpt lat="41.29983" lon="43.46143">
        <ele>1803.736398</ele>
        <time>2021-08-16T13:44:10.727Z</time>
      </trkpt>
      <trkpt lat="41.29974" lon="43.4613">
        <ele>1803.796804</ele>
        <time>2021-08-16T13:44:15.141Z</time>
      </trkpt>
      <trkpt lat="41.29959" lon="43.46106">
        <ele>1803.91145</ele>
        <time>2021-08-16T13:44:23.197Z</time>
      </trkpt>
      <trkpt lat="41.29958" lon="43.46104">
        <ele>1803.919931</ele>
        <time>2021-08-16T13:44:24.065Z</time>
      </trkpt>
      <trkpt lat="41.29946" lon="43.46077">
        <ele>1804.002717</ele>
        <time>2021-08-16T13:44:32.314Z</time>
      </trkpt>
      <trkpt lat="41.29939" lon="43.46063">
        <ele>1804.046517</ele>
        <time>2021-08-16T13:44:36.711Z</time>
      </trkpt>
      <trkpt lat="41.29933" lon="43.46044">
        <ele>1804.100445</ele>
        <time>2021-08-16T13:44:42.252Z</time>
      </trkpt>
      <trkpt lat="41.29932" lon="43.4604">
        <ele>1804.111987</ele>
        <time>2021-08-16T13:44:43.274Z</time>
      </trkpt>
      <trkpt lat="41.2992" lon="43.46012">
        <ele>1804.196666</ele>
        <time>2021-08-16T13:44:51.592Z</time>
      </trkpt>
      <trkpt lat="41.29918" lon="43.46007">
        <ele>1804.209752</ele>
        <time>2021-08-16T13:44:52.950Z</time>
      </trkpt>
      <trkpt lat="41.29914" lon="43.45999">
        <ele>1804.235748</ele>
        <time>2021-08-16T13:44:55.464Z</time>
      </trkpt>
      <trkpt lat="41.29913" lon="43.45996">
        <ele>1804.244663</ele>
        <time>2021-08-16T13:44:56.202Z</time>
      </trkpt>
      <trkpt lat="41.29896" lon="43.45951">
        <ele>1804.375067</ele>
        <time>2021-08-16T13:45:08.411Z</time>
      </trkpt>
      <trkpt lat="41.29883" lon="43.45917">
        <ele>1804.476076</ele>
        <time>2021-08-16T13:45:17.999Z</time>
      </trkpt>
      <trkpt lat="41.29865" lon="43.45881">
        <ele>1804.490127</ele>
        <time>2021-08-16T13:45:27.909Z</time>
      </trkpt>
      <trkpt lat="41.29864" lon="43.45878">
        <ele>1804.481714</ele>
        <time>2021-08-16T13:45:28.668Z</time>
      </trkpt>
      <trkpt lat="41.29858" lon="43.45865">
        <ele>1804.434957</ele>
        <time>2021-08-16T13:45:31.856Z</time>
      </trkpt>
      <trkpt lat="41.29844" lon="43.45838">
        <ele>1804.337244</ele>
        <time>2021-08-16T13:45:39.229Z</time>
      </trkpt>
      <trkpt lat="41.29828" lon="43.45795">
        <ele>1804.195344</ele>
        <time>2021-08-16T13:45:49.542Z</time>
      </trkpt>
      <trkpt lat="41.29828" lon="43.45793">
        <ele>1804.18803</ele>
        <time>2021-08-16T13:45:50.023Z</time>
      </trkpt>
      <trkpt lat="41.29812" lon="43.4575">
        <ele>1804.044436</ele>
        <time>2021-08-16T13:46:00.474Z</time>
      </trkpt>
      <trkpt lat="41.29787" lon="43.45667">
        <ele>1803.806939</ele>
        <time>2021-08-16T13:46:19.596Z</time>
      </trkpt>
      <trkpt lat="41.29786" lon="43.4566">
        <ele>1803.797953</ele>
        <time>2021-08-16T13:46:21.117Z</time>
      </trkpt>
      <trkpt lat="41.29784" lon="43.45637">
        <ele>1803.769941</ele>
        <time>2021-08-16T13:46:26.230Z</time>
      </trkpt>
      <trkpt lat="41.29766" lon="43.45532">
        <ele>1803.638824</ele>
        <time>2021-08-16T13:46:50.963Z</time>
      </trkpt>
      <trkpt lat="41.29753" lon="43.45492">
        <ele>1803.586108</ele>
        <time>2021-08-16T13:47:01.072Z</time>
      </trkpt>
      <trkpt lat="41.296" lon="43.45248">
        <ele>1803.70782</ele>
        <time>2021-08-16T13:48:16.987Z</time>
      </trkpt>
      <trkpt lat="41.29577" lon="43.45204">
        <ele>1803.732094</ele>
        <time>2021-08-16T13:48:29.609Z</time>
      </trkpt>
      <trkpt lat="41.29566" lon="43.45186">
        <ele>1803.742822</ele>
        <time>2021-08-16T13:48:35.481Z</time>
      </trkpt>
      <trkpt lat="41.29556" lon="43.45169">
        <ele>1803.752637</ele>
        <time>2021-08-16T13:48:40.233Z</time>
      </trkpt>
      <trkpt lat="41.29467" lon="43.45025">
        <ele>1803.823439</ele>
        <time>2021-08-16T13:49:23.738Z</time>
      </trkpt>
      <trkpt lat="41.29403" lon="43.44904">
        <ele>1803.865807</ele>
        <time>2021-08-16T13:49:58.502Z</time>
      </trkpt>
      <trkpt lat="41.29353" lon="43.44823">
        <ele>1804.224884</ele>
        <time>2021-08-16T13:50:24.000Z</time>
      </trkpt>
      <trkpt lat="41.29312" lon="43.44767">
        <ele>1804.518181</ele>
        <time>2021-08-16T13:50:44.107Z</time>
      </trkpt>
      <trkpt lat="41.29294" lon="43.44735">
        <ele>1804.665261</ele>
        <time>2021-08-16T13:50:54.512Z</time>
      </trkpt>
      <trkpt lat="41.29286" lon="43.44708">
        <ele>1804.805542</ele>
        <time>2021-08-16T13:51:02.337Z</time>
      </trkpt>
      <trkpt lat="41.29238" lon="43.44635">
        <ele>1806.085704</ele>
        <time>2021-08-16T13:51:29.987Z</time>
      </trkpt>
      <trkpt lat="41.29197" lon="43.44555">
        <ele>1807.374308</ele>
        <time>2021-08-16T13:52:00.458Z</time>
      </trkpt>
      <trkpt lat="41.29172" lon="43.44526">
        <ele>1807.975223</ele>
        <time>2021-08-16T13:52:14.707Z</time>
      </trkpt>
      <trkpt lat="41.29055" lon="43.4434">
        <ele>1814.836255</ele>
        <time>2021-08-16T13:53:49.401Z</time>
      </trkpt>
      <trkpt lat="41.29018" lon="43.44266">
        <ele>1818.926451</ele>
        <time>2021-08-16T13:54:31.108Z</time>
      </trkpt>
      <trkpt lat="41.28878" lon="43.44108">
        <ele>1830.748172</ele>
        <time>2021-08-16T13:56:38.892Z</time>
      </trkpt>
      <trkpt lat="41.28841" lon="43.44054">
        <ele>1834.594872</ele>
        <time>2021-08-16T13:57:17.885Z</time>
      </trkpt>
      <trkpt lat="41.28798" lon="43.44053">
        <ele>1837.54145</ele>
        <time>2021-08-16T13:57:47.458Z</time>
      </trkpt>
      <trkpt lat="41.28788" lon="43.44052">
        <ele>1838.27593</ele>
        <time>2021-08-16T13:57:56.284Z</time>
      </trkpt>
      <trkpt lat="41.28792" lon="43.44032">
        <ele>1839.35728</ele>
        <time>2021-08-16T13:58:05.899Z</time>
      </trkpt>
      <trkpt lat="41.28811" lon="43.44">
        <ele>1841.521749</ele>
        <time>2021-08-16T13:58:27.739Z</time>
      </trkpt>
      <trkpt lat="41.28832" lon="43.43954">
        <ele>1844.332649</ele>
        <time>2021-08-16T13:58:55.223Z</time>
      </trkpt>
      <trkpt lat="41.2883" lon="43.43936">
        <ele>1845.316462</ele>
        <time>2021-08-16T13:59:05.048Z</time>
      </trkpt>
      <trkpt lat="41.2882" lon="43.43927">
        <ele>1846.148342</ele>
        <time>2021-08-16T13:59:14.206Z</time>
      </trkpt>
      <trkpt lat="41.28776" lon="43.43928">
        <ele>1849.230015</ele>
        <time>2021-08-16T13:59:45.328Z</time>
      </trkpt>
      <trkpt lat="41.28768" lon="43.4392">
        <ele>1849.962178</ele>
        <time>2021-08-16T13:59:52.422Z</time>
      </trkpt>
      <trkpt lat="41.28755" lon="43.43887">
        <ele>1851.90894</ele>
        <time>2021-08-16T14:00:11.903Z</time>
      </trkpt>
      <trkpt lat="41.28711" lon="43.43622">
        <ele>1866.094661</ele>
        <time>2021-08-16T14:02:35.727Z</time>
      </trkpt>
      <trkpt lat="41.28702" lon="43.43626">
        <ele>1866.769174</ele>
        <time>2021-08-16T14:02:42.627Z</time>
      </trkpt>
      <trkpt lat="41.28695" lon="43.43622">
        <ele>1867.298523</ele>
        <time>2021-08-16T14:02:48.050Z</time>
      </trkpt>
      <trkpt lat="41.28682" lon="43.43577">
        <ele>1869.74724</ele>
        <time>2021-08-16T14:03:13.143Z</time>
      </trkpt>
      <trkpt lat="41.28684" lon="43.435">
        <ele>1873.700921</ele>
        <time>2021-08-16T14:03:53.303Z</time>
      </trkpt>
      <trkpt lat="41.28658" lon="43.4341">
        <ele>1878.415727</ele>
        <time>2021-08-16T14:04:42.342Z</time>
      </trkpt>
      <trkpt lat="41.28571" lon="43.43055">
        <ele>1895.669984</ele>
        <time>2021-08-16T14:07:49.421Z</time>
      </trkpt>
      <trkpt lat="41.28536" lon="43.42953">
        <ele>1899.495238</ele>
        <time>2021-08-16T14:08:37.940Z</time>
      </trkpt>
      <trkpt lat="41.28496" lon="43.42864">
        <ele>1902.312955</ele>
        <time>2021-08-16T14:09:17.565Z</time>
      </trkpt>
      <trkpt lat="41.2845" lon="43.4276">
        <ele>1904.660856</ele>
        <time>2021-08-16T14:09:58.302Z</time>
      </trkpt>
      <trkpt lat="41.28439" lon="43.42719">
        <ele>1905.075016</ele>
        <time>2021-08-16T14:10:12.152Z</time>
      </trkpt>
      <trkpt lat="41.28368" lon="43.42552">
        <ele>1905.894404</ele>
        <time>2021-08-16T14:11:02.381Z</time>
      </trkpt>
      <trkpt lat="41.28359" lon="43.42527">
        <ele>1905.565749</ele>
        <time>2021-08-16T14:11:08.330Z</time>
      </trkpt>
      <trkpt lat="41.28346" lon="43.42471">
        <ele>1904.891698</ele>
        <time>2021-08-16T14:11:19.367Z</time>
      </trkpt>
      <trkpt lat="41.28335" lon="43.42377">
        <ele>1903.784451</ele>
        <time>2021-08-16T14:11:36.441Z</time>
      </trkpt>
      <trkpt lat="41.28413" lon="43.42367">
        <ele>1901.376714</ele>
        <time>2021-08-16T14:11:55.012Z</time>
      </trkpt>
      <trkpt lat="41.28421" lon="43.42325">
        <ele>1900.340376</ele>
        <time>2021-08-16T14:12:02.622Z</time>
      </trkpt>
      <trkpt lat="41.28433" lon="43.42298">
        <ele>1899.59226</ele>
        <time>2021-08-16T14:12:08.136Z</time>
      </trkpt>
      <trkpt lat="41.28438" lon="43.42285">
        <ele>1899.229283</ele>
        <time>2021-08-16T14:12:10.909Z</time>
      </trkpt>
      <trkpt lat="41.28459" lon="43.42271">
        <ele>1898.475007</ele>
        <time>2021-08-16T14:12:16.459Z</time>
      </trkpt>
      <trkpt lat="41.28464" lon="43.42247">
        <ele>1897.869038</ele>
        <time>2021-08-16T14:12:21.141Z</time>
      </trkpt>
      <trkpt lat="41.28478" lon="43.42235">
        <ele>1897.452754</ele>
        <time>2021-08-16T14:12:25.075Z</time>
      </trkpt>
      <trkpt lat="41.285" lon="43.42227">
        <ele>1896.856835</ele>
        <time>2021-08-16T14:12:30.745Z</time>
      </trkpt>
      <trkpt lat="41.28515" lon="43.42207">
        <ele>1896.31751</ele>
        <time>2021-08-16T14:12:35.863Z</time>
      </trkpt>
      <trkpt lat="41.2853" lon="43.42192">
        <ele>1895.857875</ele>
        <time>2021-08-16T14:12:40.401Z</time>
      </trkpt>
      <trkpt lat="41.28536" lon="43.42168">
        <ele>1895.377116</ele>
        <time>2021-08-16T14:12:45.083Z</time>
      </trkpt>
      <trkpt lat="41.28536" lon="43.42162">
        <ele>1895.261485</ele>
        <time>2021-08-16T14:12:46.309Z</time>
      </trkpt>
      <trkpt lat="41.28564" lon="43.42155">
        <ele>1894.542048</ele>
        <time>2021-08-16T14:12:53.422Z</time>
      </trkpt>
      <trkpt lat="41.28576" lon="43.42147">
        <ele>1894.184945</ele>
        <time>2021-08-16T14:12:57.155Z</time>
      </trkpt>
      <trkpt lat="41.28585" lon="43.42135">
        <ele>1893.860806</ele>
        <time>2021-08-16T14:13:00.447Z</time>
      </trkpt>
      <trkpt lat="41.28591" lon="43.42126">
        <ele>1893.639511</ele>
        <time>2021-08-16T14:13:02.585Z</time>
      </trkpt>
      <trkpt lat="41.2861" lon="43.42128">
        <ele>1893.238505</ele>
        <time>2021-08-16T14:13:07.585Z</time>
      </trkpt>
      <trkpt lat="41.28626" lon="43.42119">
        <ele>1892.979428</ele>
        <time>2021-08-16T14:13:12.276Z</time>
      </trkpt>
      <trkpt lat="41.28675" lon="43.42068">
        <ele>1892.094256</ele>
        <time>2021-08-16T14:13:29.171Z</time>
      </trkpt>
      <trkpt lat="41.28716" lon="43.42044">
        <ele>1891.439253</ele>
        <time>2021-08-16T14:13:41.356Z</time>
      </trkpt>
      <trkpt lat="41.28744" lon="43.42019">
        <ele>1890.948013</ele>
        <time>2021-08-16T14:13:50.782Z</time>
      </trkpt>
      <trkpt lat="41.28751" lon="43.42002">
        <ele>1890.738628</ele>
        <time>2021-08-16T14:13:54.993Z</time>
      </trkpt>
      <trkpt lat="41.28748" lon="43.41968">
        <ele>1890.369604</ele>
        <time>2021-08-16T14:14:02.053Z</time>
      </trkpt>
      <trkpt lat="41.28746" lon="43.41952">
        <ele>1890.191108</ele>
        <time>2021-08-16T14:14:05.521Z</time>
      </trkpt>
      <trkpt lat="41.2878" lon="43.41938">
        <ele>1889.66546</ele>
        <time>2021-08-16T14:14:15.342Z</time>
      </trkpt>
      <trkpt lat="41.28838" lon="43.41894">
        <ele>1888.682054</ele>
        <time>2021-08-16T14:14:33.237Z</time>
      </trkpt>
      <trkpt lat="41.28795" lon="43.4178">
        <ele>1887.477287</ele>
        <time>2021-08-16T14:14:58.352Z</time>
      </trkpt>
      <trkpt lat="41.2875" lon="43.41699">
        <ele>1886.619336</ele>
        <time>2021-08-16T14:15:19.189Z</time>
      </trkpt>
      <trkpt lat="41.28746" lon="43.41558">
        <ele>1886.611121</ele>
        <time>2021-08-16T14:15:52.588Z</time>
      </trkpt>
      <trkpt lat="41.28748" lon="43.41521">
        <ele>1886.853963</ele>
        <time>2021-08-16T14:16:02.676Z</time>
      </trkpt>
      <trkpt lat="41.28756" lon="43.41495">
        <ele>1887.036258</ele>
        <time>2021-08-16T14:16:10.544Z</time>
      </trkpt>
      <trkpt lat="41.28764" lon="43.41452">
        <ele>1887.332451</ele>
        <time>2021-08-16T14:16:24.022Z</time>
      </trkpt>
      <trkpt lat="41.28876" lon="43.41363">
        <ele>1890.313648</ele>
        <time>2021-08-16T14:17:21.505Z</time>
      </trkpt>
      <trkpt lat="41.29018" lon="43.41188">
        <ele>1896.820857</ele>
        <time>2021-08-16T14:19:00.121Z</time>
      </trkpt>
      <trkpt lat="41.2904" lon="43.41172">
        <ele>1897.801331</ele>
        <time>2021-08-16T14:19:14.210Z</time>
      </trkpt>
      <trkpt lat="41.29129" lon="43.41041">
        <ele>1902.611033</ele>
        <time>2021-08-16T14:20:25.239Z</time>
      </trkpt>
      <trkpt lat="41.2916" lon="43.41007">
        <ele>1904.050853</ele>
        <time>2021-08-16T14:20:46.178Z</time>
      </trkpt>
      <trkpt lat="41.29219" lon="43.40893">
        <ele>1906.692834</ele>
        <time>2021-08-16T14:21:35.229Z</time>
      </trkpt>
      <trkpt lat="41.29233" lon="43.40876">
        <ele>1906.958145</ele>
        <time>2021-08-16T14:21:43.337Z</time>
      </trkpt>
      <trkpt lat="41.29288" lon="43.40773">
        <ele>1908.262525</ele>
        <time>2021-08-16T14:22:18.415Z</time>
      </trkpt>
      <trkpt lat="41.29316" lon="43.40737">
        <ele>1908.313882</ele>
        <time>2021-08-16T14:22:30.594Z</time>
      </trkpt>
      <trkpt lat="41.29418" lon="43.40579">
        <ele>1906.821281</ele>
        <time>2021-08-16T14:23:12.147Z</time>
      </trkpt>
      <trkpt lat="41.2946" lon="43.40537">
        <ele>1905.928537</ele>
        <time>2021-08-16T14:23:25.280Z</time>
      </trkpt>
      <trkpt lat="41.29667" lon="43.40423">
        <ele>1901.885842</ele>
        <time>2021-08-16T14:24:21.227Z</time>
      </trkpt>
      <trkpt lat="41.29737" lon="43.40332">
        <ele>1899.944415</ele>
        <time>2021-08-16T14:24:45.247Z</time>
      </trkpt>
      <trkpt lat="41.29783" lon="43.40286">
        <ele>1898.456606</ele>
        <time>2021-08-16T14:24:59.111Z</time>
      </trkpt>
      <trkpt lat="41.29848" lon="43.40259">
        <ele>1896.690853</ele>
        <time>2021-08-16T14:25:15.214Z</time>
      </trkpt>
      <trkpt lat="41.29956" lon="43.40134">
        <ele>1892.565779</ele>
        <time>2021-08-16T14:25:48.143Z</time>
      </trkpt>
      <trkpt lat="41.30026" lon="43.40093">
        <ele>1890.252934</ele>
        <time>2021-08-16T14:26:05.688Z</time>
      </trkpt>
      <trkpt lat="41.30061" lon="43.40076">
        <ele>1889.172257</ele>
        <time>2021-08-16T14:26:14.339Z</time>
      </trkpt>
      <trkpt lat="41.30127" lon="43.4003">
        <ele>1887.040515</ele>
        <time>2021-08-16T14:26:31.594Z</time>
      </trkpt>
      <trkpt lat="41.30208" lon="43.39933">
        <ele>1884.065591</ele>
        <time>2021-08-16T14:26:57.045Z</time>
      </trkpt>
      <trkpt lat="41.30263" lon="43.39848">
        <ele>1881.997979</ele>
        <time>2021-08-16T14:27:16.875Z</time>
      </trkpt>
      <trkpt lat="41.30287" lon="43.3974">
        <ele>1880.561254</ele>
        <time>2021-08-16T14:27:37.617Z</time>
      </trkpt>
      <trkpt lat="41.303" lon="43.3965">
        <ele>1880.484877</ele>
        <time>2021-08-16T14:27:56.701Z</time>
      </trkpt>
      <trkpt lat="41.30301" lon="43.39638">
        <ele>1880.474534</ele>
        <time>2021-08-16T14:27:59.189Z</time>
      </trkpt>
      <trkpt lat="41.30292" lon="43.39635">
        <ele>1880.464364</ele>
        <time>2021-08-16T14:28:02.689Z</time>
      </trkpt>
      <trkpt lat="41.30274" lon="43.39619">
        <ele>1880.440667</ele>
        <time>2021-08-16T14:28:09.676Z</time>
      </trkpt>
      <trkpt lat="41.3026" lon="43.39598">
        <ele>1880.416989</ele>
        <time>2021-08-16T14:28:17.797Z</time>
      </trkpt>
      <trkpt lat="41.30213" lon="43.39509">
        <ele>1882.61176</ele>
        <time>2021-08-16T14:28:53.594Z</time>
      </trkpt>
      <trkpt lat="41.30195" lon="43.39467">
        <ele>1883.961622</ele>
        <time>2021-08-16T14:29:12.032Z</time>
      </trkpt>
      <trkpt lat="41.30184" lon="43.39412">
        <ele>1885.549207</ele>
        <time>2021-08-16T14:29:36.017Z</time>
      </trkpt>
      <trkpt lat="41.30177" lon="43.39267">
        <ele>1891.09864</ele>
        <time>2021-08-16T14:30:44.294Z</time>
      </trkpt>
      <trkpt lat="41.30173" lon="43.39191">
        <ele>1894.489444</ele>
        <time>2021-08-16T14:31:22.051Z</time>
      </trkpt>
      <trkpt lat="41.30178" lon="43.39124">
        <ele>1897.469279</ele>
        <time>2021-08-16T14:31:55.456Z</time>
      </trkpt>
      <trkpt lat="41.30198" lon="43.38989">
        <ele>1903.554131</ele>
        <time>2021-08-16T14:33:04.368Z</time>
      </trkpt>
      <trkpt lat="41.30198" lon="43.3894">
        <ele>1905.685397</ele>
        <time>2021-08-16T14:33:27.115Z</time>
      </trkpt>
      <trkpt lat="41.30193" lon="43.38926">
        <ele>1906.364286</ele>
        <time>2021-08-16T14:33:34.259Z</time>
      </trkpt>
      <trkpt lat="41.30182" lon="43.38915">
        <ele>1907.1555</ele>
        <time>2021-08-16T14:33:42.538Z</time>
      </trkpt>
      <trkpt lat="41.30168" lon="43.38914">
        <ele>1907.957241</ele>
        <time>2021-08-16T14:33:50.967Z</time>
      </trkpt>
      <trkpt lat="41.30098" lon="43.38971">
        <ele>1911.584702</ele>
        <time>2021-08-16T14:34:39.562Z</time>
      </trkpt>
      <trkpt lat="41.30072" lon="43.38973">
        <ele>1912.738353</ele>
        <time>2021-08-16T14:34:54.503Z</time>
      </trkpt>
      <trkpt lat="41.30058" lon="43.38968">
        <ele>1913.370477</ele>
        <time>2021-08-16T14:35:02.368Z</time>
      </trkpt>
      <trkpt lat="41.3002" lon="43.3894">
        <ele>1915.217555</ele>
        <time>2021-08-16T14:35:24.543Z</time>
      </trkpt>
      <trkpt lat="41.2998" lon="43.38884">
        <ele>1916.931975</ele>
        <time>2021-08-16T14:35:52.695Z</time>
      </trkpt>
      <trkpt lat="41.2994" lon="43.38845">
        <ele>1918.059157</ele>
        <time>2021-08-16T14:36:15.243Z</time>
      </trkpt>
      <trkpt lat="41.29685" lon="43.38694">
        <ele>1923.149759</ele>
        <time>2021-08-16T14:38:08.096Z</time>
      </trkpt>
      <trkpt lat="41.29572" lon="43.3859">
        <ele>1924.490072</ele>
        <time>2021-08-16T14:38:59.548Z</time>
      </trkpt>
      <trkpt lat="41.29346" lon="43.38409">
        <ele>1924.841045</ele>
        <time>2021-08-16T14:40:23.198Z</time>
      </trkpt>
      <trkpt lat="41.29192" lon="43.38261">
        <ele>1923.849034</ele>
        <time>2021-08-16T14:41:17.185Z</time>
      </trkpt>
      <trkpt lat="41.28954" lon="43.3805">
        <ele>1921.130423</ele>
        <time>2021-08-16T14:42:35.042Z</time>
      </trkpt>
      <trkpt lat="41.28873" lon="43.37965">
        <ele>1919.608611</ele>
        <time>2021-08-16T14:43:01.249Z</time>
      </trkpt>
      <trkpt lat="41.28801" lon="43.3787">
        <ele>1918.08913</ele>
        <time>2021-08-16T14:43:26.752Z</time>
      </trkpt>
      <trkpt lat="41.28685" lon="43.37756">
        <ele>1916.558573</ele>
        <time>2021-08-16T14:44:05.114Z</time>
      </trkpt>
      <trkpt lat="41.2866" lon="43.37737">
        <ele>1916.276903</ele>
        <time>2021-08-16T14:44:13.494Z</time>
      </trkpt>
      <trkpt lat="41.28536" lon="43.37672">
        <ele>1916.043427</ele>
        <time>2021-08-16T14:44:53.793Z</time>
      </trkpt>
      <trkpt lat="41.28166" lon="43.37399">
        <ele>1915.823144</ele>
        <time>2021-08-16T14:47:08.209Z</time>
      </trkpt>
      <trkpt lat="41.28143" lon="43.37381">
        <ele>1915.383039</ele>
        <time>2021-08-16T14:47:15.164Z</time>
      </trkpt>
      <trkpt lat="41.2803" lon="43.37283">
        <ele>1913.116464</ele>
        <time>2021-08-16T14:47:48.210Z</time>
      </trkpt>
      <trkpt lat="41.28015" lon="43.37271">
        <ele>1912.572162</ele>
        <time>2021-08-16T14:47:52.273Z</time>
      </trkpt>
      <trkpt lat="41.27982" lon="43.37225">
        <ele>1911.140796</ele>
        <time>2021-08-16T14:48:03.529Z</time>
      </trkpt>
      <trkpt lat="41.27926" lon="43.37109">
        <ele>1908.024813</ele>
        <time>2021-08-16T14:48:27.101Z</time>
      </trkpt>
      <trkpt lat="41.27904" lon="43.37054">
        <ele>1906.300755</ele>
        <time>2021-08-16T14:48:37.636Z</time>
      </trkpt>
      <trkpt lat="41.27891" lon="43.37029">
        <ele>1905.430231</ele>
        <time>2021-08-16T14:48:42.663Z</time>
      </trkpt>
      <trkpt lat="41.27873" lon="43.36999">
        <ele>1904.296625</ele>
        <time>2021-08-16T14:48:49.003Z</time>
      </trkpt>
      <trkpt lat="41.27855" lon="43.36962">
        <ele>1903.027761</ele>
        <time>2021-08-16T14:48:56.172Z</time>
      </trkpt>
      <trkpt lat="41.2781" lon="43.36872">
        <ele>1900.360171</ele>
        <time>2021-08-16T14:49:14.251Z</time>
      </trkpt>
      <trkpt lat="41.27793" lon="43.36837">
        <ele>1899.777579</ele>
        <time>2021-08-16T14:49:21.269Z</time>
      </trkpt>
      <trkpt lat="41.27757" lon="43.36765">
        <ele>1898.566951</ele>
        <time>2021-08-16T14:49:37.292Z</time>
      </trkpt>
      <trkpt lat="41.27726" lon="43.36699">
        <ele>1897.469206</ele>
        <time>2021-08-16T14:49:54.147Z</time>
      </trkpt>
      <trkpt lat="41.27717" lon="43.36681">
        <ele>1897.449951</ele>
        <time>2021-08-16T14:49:59.414Z</time>
      </trkpt>
      <trkpt lat="41.27715" lon="43.36675">
        <ele>1897.454239</ele>
        <time>2021-08-16T14:50:01.133Z</time>
      </trkpt>
      <trkpt lat="41.27709" lon="43.36635">
        <ele>1897.478803</ele>
        <time>2021-08-16T14:50:12.047Z</time>
      </trkpt>
      <trkpt lat="41.27714" lon="43.36562">
        <ele>1897.523762</ele>
        <time>2021-08-16T14:50:30.960Z</time>
      </trkpt>
      <trkpt lat="41.27713" lon="43.36534">
        <ele>1897.540945</ele>
        <time>2021-08-16T14:50:38.204Z</time>
      </trkpt>
      <trkpt lat="41.27707" lon="43.36513">
        <ele>1897.554659</ele>
        <time>2021-08-16T14:50:42.931Z</time>
      </trkpt>
      <trkpt lat="41.27701" lon="43.36494">
        <ele>1897.567454</ele>
        <time>2021-08-16T14:50:48.164Z</time>
      </trkpt>
      <trkpt lat="41.27679" lon="43.36465">
        <ele>1897.511024</ele>
        <time>2021-08-16T14:50:57.135Z</time>
      </trkpt>
      <trkpt lat="41.27672" lon="43.3646">
        <ele>1897.451546</ele>
        <time>2021-08-16T14:50:59.360Z</time>
      </trkpt>
      <trkpt lat="41.27658" lon="43.36451">
        <ele>1897.328157</ele>
        <time>2021-08-16T14:51:03.530Z</time>
      </trkpt>
      <trkpt lat="41.2764" lon="43.3644">
        <ele>1897.176125</ele>
        <time>2021-08-16T14:51:09.371Z</time>
      </trkpt>
      <trkpt lat="41.27616" lon="43.3642">
        <ele>1896.964867</ele>
        <time>2021-08-16T14:51:16.862Z</time>
      </trkpt>
      <trkpt lat="41.27603" lon="43.36407">
        <ele>1896.838622</ele>
        <time>2021-08-16T14:51:21.085Z</time>
      </trkpt>
      <trkpt lat="41.27392" lon="43.36166">
        <ele>1895.004467</ele>
        <time>2021-08-16T14:52:38.691Z</time>
      </trkpt>
      <trkpt lat="41.27301" lon="43.36054">
        <ele>1894.849844</ele>
        <time>2021-08-16T14:53:17.487Z</time>
      </trkpt>
      <trkpt lat="41.2721" lon="43.35925">
        <ele>1894.785843</ele>
        <time>2021-08-16T14:53:58.650Z</time>
      </trkpt>
      <trkpt lat="41.27186" lon="43.35899">
        <ele>1894.781078</ele>
        <time>2021-08-16T14:54:08.066Z</time>
      </trkpt>
      <trkpt lat="41.2715" lon="43.35881">
        <ele>1894.775192</ele>
        <time>2021-08-16T14:54:19.828Z</time>
      </trkpt>
      <trkpt lat="41.27047" lon="43.3589">
        <ele>1895.173536</ele>
        <time>2021-08-16T14:54:52.960Z</time>
      </trkpt>
      <trkpt lat="41.2703" lon="43.35884">
        <ele>1895.255382</ele>
        <time>2021-08-16T14:54:58.895Z</time>
      </trkpt>
      <trkpt lat="41.27005" lon="43.35861">
        <ele>1895.401796</ele>
        <time>2021-08-16T14:55:09.732Z</time>
      </trkpt>
      <trkpt lat="41.26993" lon="43.35842">
        <ele>1895.485294</ele>
        <time>2021-08-16T14:55:16.028Z</time>
      </trkpt>
      <trkpt lat="41.26949" lon="43.35649">
        <ele>1896.63862</ele>
        <time>2021-08-16T14:56:11.663Z</time>
      </trkpt>
      <trkpt lat="41.26883" lon="43.35558">
        <ele>1896.954291</ele>
        <time>2021-08-16T14:56:44.443Z</time>
      </trkpt>
      <trkpt lat="41.26865" lon="43.35536">
        <ele>1896.864057</ele>
        <time>2021-08-16T14:56:52.626Z</time>
      </trkpt>
      <trkpt lat="41.26853" lon="43.35515">
        <ele>1896.792598</ele>
        <time>2021-08-16T14:56:58.535Z</time>
      </trkpt>
      <trkpt lat="41.26843" lon="43.35488">
        <ele>1896.710888</ele>
        <time>2021-08-16T14:57:05.239Z</time>
      </trkpt>
      <trkpt lat="41.26826" lon="43.35397">
        <ele>1896.453312</ele>
        <time>2021-08-16T14:57:24.650Z</time>
      </trkpt>
      <trkpt lat="41.26801" lon="43.35342">
        <ele>1895.615023</ele>
        <time>2021-08-16T14:57:36.781Z</time>
      </trkpt>
      <trkpt lat="41.26785" lon="43.35322">
        <ele>1895.206344</ele>
        <time>2021-08-16T14:57:42.226Z</time>
      </trkpt>
      <trkpt lat="41.26716" lon="43.35258">
        <ele>1893.659192</ele>
        <time>2021-08-16T14:58:02.569Z</time>
      </trkpt>
      <trkpt lat="41.26634" lon="43.35145">
        <ele>1892.35535</ele>
        <time>2021-08-16T14:58:32.389Z</time>
      </trkpt>
      <trkpt lat="41.26549" lon="43.35096">
        <ele>1891.625964</ele>
        <time>2021-08-16T14:59:00.297Z</time>
      </trkpt>
      <trkpt lat="41.26502" lon="43.35043">
        <ele>1892.729755</ele>
        <time>2021-08-16T14:59:22.688Z</time>
      </trkpt>
      <trkpt lat="41.26476" lon="43.34977">
        <ele>1893.749605</ele>
        <time>2021-08-16T14:59:46.382Z</time>
      </trkpt>
      <trkpt lat="41.26453" lon="43.34856">
        <ele>1896.06412</ele>
        <time>2021-08-16T15:00:30.639Z</time>
      </trkpt>
      <trkpt lat="41.26475" lon="43.34712">
        <ele>1900.151436</ele>
        <time>2021-08-16T15:01:28.608Z</time>
      </trkpt>
      <trkpt lat="41.26473" lon="43.34584">
        <ele>1903.856963</ele>
        <time>2021-08-16T15:02:21.686Z</time>
      </trkpt>
      <trkpt lat="41.265" lon="43.34445">
        <ele>1908.186961</ele>
        <time>2021-08-16T15:03:19.369Z</time>
      </trkpt>
      <trkpt lat="41.26511" lon="43.34406">
        <ele>1909.39818</ele>
        <time>2021-08-16T15:03:35.363Z</time>
      </trkpt>
      <trkpt lat="41.26577" lon="43.3427">
        <ele>1914.114715</ele>
        <time>2021-08-16T15:04:38.227Z</time>
      </trkpt>
      <trkpt lat="41.26591" lon="43.3426">
        <ele>1914.723727</ele>
        <time>2021-08-16T15:04:46.582Z</time>
      </trkpt>
      <trkpt lat="41.26644" lon="43.34259">
        <ele>1917.398539</ele>
        <time>2021-08-16T15:05:15.778Z</time>
      </trkpt>
      <trkpt lat="41.26664" lon="43.34247">
        <ele>1918.683454</ele>
        <time>2021-08-16T15:05:28.509Z</time>
      </trkpt>
      <trkpt lat="41.26752" lon="43.34105">
        <ele>1927.04295</ele>
        <time>2021-08-16T15:07:01.733Z</time>
      </trkpt>
      <trkpt lat="41.26765" lon="43.34072">
        <ele>1929.15092</ele>
        <time>2021-08-16T15:07:22.378Z</time>
      </trkpt>
      <trkpt lat="41.26779" lon="43.34002">
        <ele>1933.250486</ele>
        <time>2021-08-16T15:08:03.069Z</time>
      </trkpt>
      <trkpt lat="41.26774" lon="43.33899">
        <ele>1939.116636</ele>
        <time>2021-08-16T15:09:01.752Z</time>
      </trkpt>
      <trkpt lat="41.26777" lon="43.33824">
        <ele>1943.193625</ele>
        <time>2021-08-16T15:09:43.909Z</time>
      </trkpt>
      <trkpt lat="41.26774" lon="43.33805">
        <ele>1944.195073</ele>
        <time>2021-08-16T15:09:54.035Z</time>
      </trkpt>
      <trkpt lat="41.26756" lon="43.33791">
        <ele>1945.736749</ele>
        <time>2021-08-16T15:10:09.631Z</time>
      </trkpt>
      <trkpt lat="41.26745" lon="43.33793">
        <ele>1946.499086</ele>
        <time>2021-08-16T15:10:17.249Z</time>
      </trkpt>
      <trkpt lat="41.26623" lon="43.33863">
        <ele>1955.208224</ele>
        <time>2021-08-16T15:11:48.381Z</time>
      </trkpt>
      <trkpt lat="41.26578" lon="43.3388">
        <ele>1957.855164</ele>
        <time>2021-08-16T15:12:18.498Z</time>
      </trkpt>
      <trkpt lat="41.26512" lon="43.33883">
        <ele>1961.533935</ele>
        <time>2021-08-16T15:12:58.429Z</time>
      </trkpt>
      <trkpt lat="41.26483" lon="43.3386">
        <ele>1963.100083</ele>
        <time>2021-08-16T15:13:17.958Z</time>
      </trkpt>
      <trkpt lat="41.26365" lon="43.33599">
        <ele>1969.410895</ele>
        <time>2021-08-16T15:15:10.801Z</time>
      </trkpt>
      <trkpt lat="41.26357" lon="43.33542">
        <ele>1969.773189</ele>
        <time>2021-08-16T15:15:26.516Z</time>
      </trkpt>
      <trkpt lat="41.26361" lon="43.33443">
        <ele>1970.274048</ele>
        <time>2021-08-16T15:15:47.576Z</time>
      </trkpt>
      <trkpt lat="41.26358" lon="43.33415">
        <ele>1969.556646</ele>
        <time>2021-08-16T15:15:52.714Z</time>
      </trkpt>
      <trkpt lat="41.26291" lon="43.33123">
        <ele>1960.312681</ele>
        <time>2021-08-16T15:16:43.162Z</time>
      </trkpt>
      <trkpt lat="41.26268" lon="43.32967">
        <ele>1954.042623</ele>
        <time>2021-08-16T15:17:07.875Z</time>
      </trkpt>
      <trkpt lat="41.26261" lon="43.32913">
        <ele>1951.513294</ele>
        <time>2021-08-16T15:17:16.426Z</time>
      </trkpt>
      <trkpt lat="41.26261" lon="43.32871">
        <ele>1949.599567</ele>
        <time>2021-08-16T15:17:22.865Z</time>
      </trkpt>
      <trkpt lat="41.26264" lon="43.32827">
        <ele>1947.569822</ele>
        <time>2021-08-16T15:17:29.701Z</time>
      </trkpt>
      <trkpt lat="41.26316" lon="43.32565">
        <ele>1935.106698</ele>
        <time>2021-08-16T15:18:11.414Z</time>
      </trkpt>
      <trkpt lat="41.26311" lon="43.32501">
        <ele>1932.152586</ele>
        <time>2021-08-16T15:18:21.334Z</time>
      </trkpt>
      <trkpt lat="41.26258" lon="43.32346">
        <ele>1924.576975</ele>
        <time>2021-08-16T15:18:47.573Z</time>
      </trkpt>
      <trkpt lat="41.26254" lon="43.3228">
        <ele>1921.626478</ele>
        <time>2021-08-16T15:18:58.027Z</time>
      </trkpt>
      <trkpt lat="41.26262" lon="43.322">
        <ele>1918.214719</ele>
        <time>2021-08-16T15:19:10.746Z</time>
      </trkpt>
      <trkpt lat="41.26261" lon="43.32135">
        <ele>1915.506188</ele>
        <time>2021-08-16T15:19:20.837Z</time>
      </trkpt>
      <trkpt lat="41.26242" lon="43.32034">
        <ele>1910.986824</ele>
        <time>2021-08-16T15:19:37.124Z</time>
      </trkpt>
      <trkpt lat="41.26223" lon="43.32003">
        <ele>1909.075622</ele>
        <time>2021-08-16T15:19:43.287Z</time>
      </trkpt>
      <trkpt lat="41.26158" lon="43.31962">
        <ele>1904.511127</ele>
        <time>2021-08-16T15:19:57.856Z</time>
      </trkpt>
      <trkpt lat="41.26122" lon="43.31911">
        <ele>1901.12089</ele>
        <time>2021-08-16T15:20:08.627Z</time>
      </trkpt>
      <trkpt lat="41.26073" lon="43.31805">
        <ele>1895.43968</ele>
        <time>2021-08-16T15:20:27.506Z</time>
      </trkpt>
      <trkpt lat="41.26028" lon="43.31683">
        <ele>1889.384469</ele>
        <time>2021-08-16T15:20:48.605Z</time>
      </trkpt>
      <trkpt lat="41.26019" lon="43.31629">
        <ele>1887.58498</ele>
        <time>2021-08-16T15:20:57.351Z</time>
      </trkpt>
      <trkpt lat="41.26019" lon="43.31604">
        <ele>1886.739023</ele>
        <time>2021-08-16T15:21:01.531Z</time>
      </trkpt>
      <trkpt lat="41.26052" lon="43.31227">
        <ele>1875.172038</ele>
        <time>2021-08-16T15:22:04.633Z</time>
      </trkpt>
      <trkpt lat="41.26052" lon="43.31182">
        <ele>1874.176715</ele>
        <time>2021-08-16T15:22:12.201Z</time>
      </trkpt>
      <trkpt lat="41.26047" lon="43.31149">
        <ele>1873.494902</ele>
        <time>2021-08-16T15:22:17.787Z</time>
      </trkpt>
      <trkpt lat="41.2603" lon="43.31097">
        <ele>1872.339104</ele>
        <time>2021-08-16T15:22:27.512Z</time>
      </trkpt>
      <trkpt lat="41.25751" lon="43.30466">
        <ele>1862.439129</ele>
        <time>2021-08-16T15:24:46.571Z</time>
      </trkpt>
      <trkpt lat="41.25712" lon="43.3036">
        <ele>1861.229744</ele>
        <time>2021-08-16T15:25:10.986Z</time>
      </trkpt>
      <trkpt lat="41.25667" lon="43.30162">
        <ele>1859.380791</ele>
        <time>2021-08-16T15:25:52.538Z</time>
      </trkpt>
      <trkpt lat="41.25543" lon="43.29781">
        <ele>1853.747356</ele>
        <time>2021-08-16T15:27:10.067Z</time>
      </trkpt>
      <trkpt lat="41.25515" lon="43.2968">
        <ele>1852.457825</ele>
        <time>2021-08-16T15:27:30.518Z</time>
      </trkpt>
      <trkpt lat="41.25494" lon="43.29589">
        <ele>1851.680127</ele>
        <time>2021-08-16T15:27:49.238Z</time>
      </trkpt>
      <trkpt lat="41.25381" lon="43.28958">
        <ele>1848.538354</ele>
        <time>2021-08-16T15:30:07.473Z</time>
      </trkpt>
      <trkpt lat="41.25342" lon="43.28814">
        <ele>1848.561224</ele>
        <time>2021-08-16T15:30:45.158Z</time>
      </trkpt>
      <trkpt lat="41.25298" lon="43.28692">
        <ele>1848.337284</ele>
        <time>2021-08-16T15:31:18.130Z</time>
      </trkpt>
      <trkpt lat="41.25261" lon="43.28589">
        <ele>1848.092285</ele>
        <time>2021-08-16T15:31:42.938Z</time>
      </trkpt>
      <trkpt lat="41.25161" lon="43.28285">
        <ele>1845.592985</ele>
        <time>2021-08-16T15:32:47.767Z</time>
      </trkpt>
      <trkpt lat="41.25145" lon="43.28263">
        <ele>1845.548058</ele>
        <time>2021-08-16T15:32:54.220Z</time>
      </trkpt>
      <trkpt lat="41.25126" lon="43.28242">
        <ele>1845.500507</ele>
        <time>2021-08-16T15:33:02.096Z</time>
      </trkpt>
      <trkpt lat="41.25103" lon="43.28219">
        <ele>1845.443646</ele>
        <time>2021-08-16T15:33:11.797Z</time>
      </trkpt>
      <trkpt lat="41.25074" lon="43.28202">
        <ele>1845.38261</ele>
        <time>2021-08-16T15:33:22.739Z</time>
      </trkpt>
      <trkpt lat="41.2504" lon="43.28189">
        <ele>1845.628842</ele>
        <time>2021-08-16T15:33:35.447Z</time>
      </trkpt>
      <trkpt lat="41.24943" lon="43.28162">
        <ele>1847.038123</ele>
        <time>2021-08-16T15:34:15.678Z</time>
      </trkpt>
      <trkpt lat="41.2485" lon="43.2814">
        <ele>1848.144667</ele>
        <time>2021-08-16T15:34:53.371Z</time>
      </trkpt>
      <trkpt lat="41.24766" lon="43.28106">
        <ele>1848.759942</ele>
        <time>2021-08-16T15:35:25.105Z</time>
      </trkpt>
      <trkpt lat="41.24751" lon="43.28094">
        <ele>1848.881325</ele>
        <time>2021-08-16T15:35:31.106Z</time>
      </trkpt>
      <trkpt lat="41.24734" lon="43.28075">
        <ele>1849.037467</ele>
        <time>2021-08-16T15:35:37.590Z</time>
      </trkpt>
      <trkpt lat="41.24714" lon="43.28052">
        <ele>1849.129948</ele>
        <time>2021-08-16T15:35:45.295Z</time>
      </trkpt>
      <trkpt lat="41.24696" lon="43.28035">
        <ele>1849.000899</ele>
        <time>2021-08-16T15:35:52.130Z</time>
      </trkpt>
      <trkpt lat="41.2467" lon="43.28015">
        <ele>1848.827192</ele>
        <time>2021-08-16T15:36:00.653Z</time>
      </trkpt>
      <trkpt lat="41.24635" lon="43.27987">
        <ele>1848.592964</ele>
        <time>2021-08-16T15:36:12.273Z</time>
      </trkpt>
      <trkpt lat="41.24618" lon="43.2797">
        <ele>1848.47117</ele>
        <time>2021-08-16T15:36:17.891Z</time>
      </trkpt>
      <trkpt lat="41.24589" lon="43.27942">
        <ele>1848.268608</ele>
        <time>2021-08-16T15:36:27.540Z</time>
      </trkpt>
      <trkpt lat="41.24563" lon="43.27906">
        <ele>1848.17512</ele>
        <time>2021-08-16T15:36:38.138Z</time>
      </trkpt>
      <trkpt lat="41.24565" lon="43.27892">
        <ele>1848.200619</ele>
        <time>2021-08-16T15:36:41.244Z</time>
      </trkpt>
      <trkpt lat="41.2456" lon="43.27877">
        <ele>1848.232442</ele>
        <time>2021-08-16T15:36:44.986Z</time>
      </trkpt>
      <trkpt lat="41.24557" lon="43.27855">
        <ele>1848.27463</ele>
        <time>2021-08-16T15:36:50.125Z</time>
      </trkpt>
      <trkpt lat="41.24559" lon="43.27841">
        <ele>1848.301862</ele>
        <time>2021-08-16T15:36:53.924Z</time>
      </trkpt>
      <trkpt lat="41.24568" lon="43.2777">
        <ele>1848.439921</ele>
        <time>2021-08-16T15:37:12.932Z</time>
      </trkpt>
      <trkpt lat="41.24571" lon="43.27704">
        <ele>1848.565435</ele>
        <time>2021-08-16T15:37:31.804Z</time>
      </trkpt>
      <trkpt lat="41.24576" lon="43.27678">
        <ele>1848.639521</ele>
        <time>2021-08-16T15:37:39.316Z</time>
      </trkpt>
      <trkpt lat="41.24581" lon="43.27656">
        <ele>1848.720425</ele>
        <time>2021-08-16T15:37:45.748Z</time>
      </trkpt>
      <trkpt lat="41.24573" lon="43.27598">
        <ele>1848.931335</ele>
        <time>2021-08-16T15:38:02.002Z</time>
      </trkpt>
      <trkpt lat="41.24563" lon="43.2755">
        <ele>1849.108334</ele>
        <time>2021-08-16T15:38:15.567Z</time>
      </trkpt>
      <trkpt lat="41.24557" lon="43.27526">
        <ele>1849.199156</ele>
        <time>2021-08-16T15:38:22.360Z</time>
      </trkpt>
      <trkpt lat="41.24529" lon="43.27495">
        <ele>1849.372498</ele>
        <time>2021-08-16T15:38:34.492Z</time>
      </trkpt>
      <trkpt lat="41.24519" lon="43.27483">
        <ele>1849.435408</ele>
        <time>2021-08-16T15:38:39.095Z</time>
      </trkpt>
      <trkpt lat="41.24511" lon="43.27456">
        <ele>1849.031007</ele>
        <time>2021-08-16T15:38:45.783Z</time>
      </trkpt>
      <trkpt lat="41.24505" lon="43.2741">
        <ele>1848.290269</ele>
        <time>2021-08-16T15:38:56.925Z</time>
      </trkpt>
      <trkpt lat="41.24498" lon="43.27394">
        <ele>1847.994303</ele>
        <time>2021-08-16T15:39:00.736Z</time>
      </trkpt>
      <trkpt lat="41.24492" lon="43.27376">
        <ele>1847.697189</ele>
        <time>2021-08-16T15:39:04.364Z</time>
      </trkpt>
      <trkpt lat="41.24486" lon="43.27358">
        <ele>1847.376052</ele>
        <time>2021-08-16T15:39:08.475Z</time>
      </trkpt>
      <trkpt lat="41.24477" lon="43.27347">
        <ele>1847.118454</ele>
        <time>2021-08-16T15:39:11.375Z</time>
      </trkpt>
      <trkpt lat="41.24461" lon="43.27337">
        <ele>1846.749349</ele>
        <time>2021-08-16T15:39:15.629Z</time>
      </trkpt>
      <trkpt lat="41.24453" lon="43.27324">
        <ele>1846.47928</ele>
        <time>2021-08-16T15:39:18.584Z</time>
      </trkpt>
      <trkpt lat="41.2445" lon="43.27313">
        <ele>1846.294481</ele>
        <time>2021-08-16T15:39:20.547Z</time>
      </trkpt>
      <trkpt lat="41.24441" lon="43.27279">
        <ele>1845.735747</ele>
        <time>2021-08-16T15:39:26.762Z</time>
      </trkpt>
      <trkpt lat="41.24441" lon="43.27251">
        <ele>1844.9041</ele>
        <time>2021-08-16T15:39:31.849Z</time>
      </trkpt>
      <trkpt lat="41.24413" lon="43.27234">
        <ele>1843.660856</ele>
        <time>2021-08-16T15:39:38.727Z</time>
      </trkpt>
      <trkpt lat="41.24405" lon="43.2722">
        <ele>1843.099943</ele>
        <time>2021-08-16T15:39:41.953Z</time>
      </trkpt>
      <trkpt lat="41.24394" lon="43.27181">
        <ele>1841.804857</ele>
        <time>2021-08-16T15:39:49.062Z</time>
      </trkpt>
      <trkpt lat="41.24384" lon="43.27176">
        <ele>1841.359099</ele>
        <time>2021-08-16T15:39:51.430Z</time>
      </trkpt>
      <trkpt lat="41.24374" lon="43.27171">
        <ele>1840.926225</ele>
        <time>2021-08-16T15:39:53.817Z</time>
      </trkpt>
      <trkpt lat="41.24373" lon="43.27149">
        <ele>1840.239035</ele>
        <time>2021-08-16T15:39:57.645Z</time>
      </trkpt>
      <trkpt lat="41.2437" lon="43.2713">
        <ele>1839.648574</ele>
        <time>2021-08-16T15:40:00.620Z</time>
      </trkpt>
      <trkpt lat="41.24365" lon="43.27112">
        <ele>1839.056793</ele>
        <time>2021-08-16T15:40:03.900Z</time>
      </trkpt>
      <trkpt lat="41.24358" lon="43.27098">
        <ele>1838.530516</ele>
        <time>2021-08-16T15:40:06.596Z</time>
      </trkpt>
      <trkpt lat="41.24343" lon="43.27076">
        <ele>1837.853103</ele>
        <time>2021-08-16T15:40:11.370Z</time>
      </trkpt>
      <trkpt lat="41.2433" lon="43.2706">
        <ele>1837.393705</ele>
        <time>2021-08-16T15:40:15.230Z</time>
      </trkpt>
      <trkpt lat="41.24294" lon="43.27038">
        <ele>1836.383779</ele>
        <time>2021-08-16T15:40:24.085Z</time>
      </trkpt>
      <trkpt lat="41.24234" lon="43.27014">
        <ele>1834.752933</ele>
        <time>2021-08-16T15:40:40.328Z</time>
      </trkpt>
      <trkpt lat="41.24209" lon="43.26984">
        <ele>1833.888416</ele>
        <time>2021-08-16T15:40:48.970Z</time>
      </trkpt>
      <trkpt lat="41.24198" lon="43.26962">
        <ele>1833.487646</ele>
        <time>2021-08-16T15:40:53.823Z</time>
      </trkpt>
      <trkpt lat="41.24185" lon="43.26935">
        <ele>1833.145866</ele>
        <time>2021-08-16T15:41:00.014Z</time>
      </trkpt>
      <trkpt lat="41.24142" lon="43.26807">
        <ele>1831.605286</ele>
        <time>2021-08-16T15:41:27.510Z</time>
      </trkpt>
      <trkpt lat="41.24133" lon="43.26712">
        <ele>1830.340469</ele>
        <time>2021-08-16T15:41:46.492Z</time>
      </trkpt>
      <trkpt lat="41.24093" lon="43.26562">
        <ele>1827.767537</ele>
        <time>2021-08-16T15:42:15.562Z</time>
      </trkpt>
      <trkpt lat="41.24087" lon="43.26499">
        <ele>1826.589174</ele>
        <time>2021-08-16T15:42:26.648Z</time>
      </trkpt>
      <trkpt lat="41.24089" lon="43.26479">
        <ele>1826.126101</ele>
        <time>2021-08-16T15:42:30.368Z</time>
      </trkpt>
      <trkpt lat="41.2409" lon="43.26458">
        <ele>1825.656332</ele>
        <time>2021-08-16T15:42:33.849Z</time>
      </trkpt>
      <trkpt lat="41.24087" lon="43.26415">
        <ele>1824.687941</ele>
        <time>2021-08-16T15:42:41.330Z</time>
      </trkpt>
      <trkpt lat="41.24052" lon="43.2624">
        <ele>1820.893404</ele>
        <time>2021-08-16T15:43:12.655Z</time>
      </trkpt>
      <trkpt lat="41.23954" lon="43.25976">
        <ele>1816.330334</ele>
        <time>2021-08-16T15:44:07.202Z</time>
      </trkpt>
      <trkpt lat="41.23933" lon="43.25874">
        <ele>1814.974523</ele>
        <time>2021-08-16T15:44:27.522Z</time>
      </trkpt>
      <trkpt lat="41.23929" lon="43.25827">
        <ele>1814.476309</ele>
        <time>2021-08-16T15:44:36.705Z</time>
      </trkpt>
      <trkpt lat="41.23896" lon="43.25268">
        <ele>1811.49666</ele>
        <time>2021-08-16T15:46:32.590Z</time>
      </trkpt>
      <trkpt lat="41.23897" lon="43.24839">
        <ele>1814.751072</ele>
        <time>2021-08-16T15:48:33.787Z</time>
      </trkpt>
      <trkpt lat="41.239" lon="43.24769">
        <ele>1815.865176</ele>
        <time>2021-08-16T15:48:56.578Z</time>
      </trkpt>
      <trkpt lat="41.23907" lon="43.24722">
        <ele>1816.623264</ele>
        <time>2021-08-16T15:49:12.550Z</time>
      </trkpt>
      <trkpt lat="41.23964" lon="43.24435">
        <ele>1822.197824</ele>
        <time>2021-08-16T15:50:56.612Z</time>
      </trkpt>
      <trkpt lat="41.23976" lon="43.24336">
        <ele>1823.096023</ele>
        <time>2021-08-16T15:51:28.865Z</time>
      </trkpt>
      <trkpt lat="41.23998" lon="43.23756">
        <ele>1826.586576</ele>
        <time>2021-08-16T15:54:03.118Z</time>
      </trkpt>
      <trkpt lat="41.23995" lon="43.2346">
        <ele>1825.040363</ele>
        <time>2021-08-16T15:55:03.832Z</time>
      </trkpt>
      <trkpt lat="41.23981" lon="43.23345">
        <ele>1824.48755</ele>
        <time>2021-08-16T15:55:27.766Z</time>
      </trkpt>
      <trkpt lat="41.23905" lon="43.2309">
        <ele>1823.604979</ele>
        <time>2021-08-16T15:56:28.825Z</time>
      </trkpt>
      <trkpt lat="41.23881" lon="43.22977">
        <ele>1823.29439</ele>
        <time>2021-08-16T15:56:55.412Z</time>
      </trkpt>
      <trkpt lat="41.23863" lon="43.22615">
        <ele>1822.189408</ele>
        <time>2021-08-16T15:58:13.806Z</time>
      </trkpt>
      <trkpt lat="41.23814" lon="43.22284">
        <ele>1822.457654</ele>
        <time>2021-08-16T15:59:35.218Z</time>
      </trkpt>
      <trkpt lat="41.23792" lon="43.22022">
        <ele>1823.605148</ele>
        <time>2021-08-16T16:00:44.928Z</time>
      </trkpt>
      <trkpt lat="41.23791" lon="43.2197">
        <ele>1823.775272</ele>
        <time>2021-08-16T16:00:58.270Z</time>
      </trkpt>
      <trkpt lat="41.23791" lon="43.21949">
        <ele>1823.846407</ele>
        <time>2021-08-16T16:01:03.670Z</time>
      </trkpt>
      <trkpt lat="41.23789" lon="43.21922">
        <ele>1823.935828</ele>
        <time>2021-08-16T16:01:10.609Z</time>
      </trkpt>
      <trkpt lat="41.23781" lon="43.21863">
        <ele>1824.13177</ele>
        <time>2021-08-16T16:01:25.280Z</time>
      </trkpt>
      <trkpt lat="41.23777" lon="43.21773">
        <ele>1824.378273</ele>
        <time>2021-08-16T16:01:46.972Z</time>
      </trkpt>
      <trkpt lat="41.23786" lon="43.21528">
        <ele>1824.919962</ele>
        <time>2021-08-16T16:02:48.248Z</time>
      </trkpt>
      <trkpt lat="41.23802" lon="43.21374">
        <ele>1825.163554</ele>
        <time>2021-08-16T16:03:27.742Z</time>
      </trkpt>
      <trkpt lat="41.23802" lon="43.21355">
        <ele>1825.192896</ele>
        <time>2021-08-16T16:03:33.388Z</time>
      </trkpt>
      <trkpt lat="41.238" lon="43.2134">
        <ele>1825.063924</ele>
        <time>2021-08-16T16:03:36.362Z</time>
      </trkpt>
      <trkpt lat="41.2369" lon="43.20897">
        <ele>1820.540119</ele>
        <time>2021-08-16T16:05:06.937Z</time>
      </trkpt>
      <trkpt lat="41.23659" lon="43.20687">
        <ele>1819.413416</ele>
        <time>2021-08-16T16:05:51.274Z</time>
      </trkpt>
      <trkpt lat="41.23635" lon="43.20595">
        <ele>1819.321244</ele>
        <time>2021-08-16T16:06:16.390Z</time>
      </trkpt>
      <trkpt lat="41.23609" lon="43.20499">
        <ele>1819.354167</ele>
        <time>2021-08-16T16:06:42.200Z</time>
      </trkpt>
      <trkpt lat="41.236" lon="43.20465">
        <ele>1819.365928</ele>
        <time>2021-08-16T16:06:51.114Z</time>
      </trkpt>
      <trkpt lat="41.236" lon="43.20455">
        <ele>1819.368911</ele>
        <time>2021-08-16T16:06:53.041Z</time>
      </trkpt>
      <trkpt lat="41.23598" lon="43.20429">
        <ele>1819.265255</ele>
        <time>2021-08-16T16:06:58.121Z</time>
      </trkpt>
      <trkpt lat="41.23594" lon="43.20416">
        <ele>1819.101376</ele>
        <time>2021-08-16T16:07:01.802Z</time>
      </trkpt>
      <trkpt lat="41.23592" lon="43.20411">
        <ele>1819.039792</ele>
        <time>2021-08-16T16:07:02.822Z</time>
      </trkpt>
      <trkpt lat="41.23588" lon="43.20392">
        <ele>1818.822477</ele>
        <time>2021-08-16T16:07:06.332Z</time>
      </trkpt>
      <trkpt lat="41.23587" lon="43.20382">
        <ele>1818.711044</ele>
        <time>2021-08-16T16:07:08.523Z</time>
      </trkpt>
      <trkpt lat="41.23587" lon="43.20369">
        <ele>1818.565138</ele>
        <time>2021-08-16T16:07:11.712Z</time>
      </trkpt>
      <trkpt lat="41.23587" lon="43.20344">
        <ele>1818.274368</ele>
        <time>2021-08-16T16:07:16.376Z</time>
      </trkpt>
      <trkpt lat="41.23571" lon="43.20274">
        <ele>1817.463165</ele>
        <time>2021-08-16T16:07:30.780Z</time>
      </trkpt>
      <trkpt lat="41.23565" lon="43.20253">
        <ele>1817.201973</ele>
        <time>2021-08-16T16:07:34.809Z</time>
      </trkpt>
      <trkpt lat="41.23556" lon="43.20223">
        <ele>1816.837942</ele>
        <time>2021-08-16T16:07:40.853Z</time>
      </trkpt>
      <trkpt lat="41.23544" lon="43.20181">
        <ele>1816.301875</ele>
        <time>2021-08-16T16:07:48.959Z</time>
      </trkpt>
      <trkpt lat="41.23527" lon="43.20144">
        <ele>1815.779391</ele>
        <time>2021-08-16T16:07:56.720Z</time>
      </trkpt>
      <trkpt lat="41.23511" lon="43.20132">
        <ele>1815.47283</ele>
        <time>2021-08-16T16:08:01.403Z</time>
      </trkpt>
      <trkpt lat="41.23501" lon="43.20133">
        <ele>1815.312072</ele>
        <time>2021-08-16T16:08:03.860Z</time>
      </trkpt>
      <trkpt lat="41.23499" lon="43.20127">
        <ele>1815.23184</ele>
        <time>2021-08-16T16:08:05.183Z</time>
      </trkpt>
      <trkpt lat="41.23495" lon="43.20108">
        <ele>1814.986721</ele>
        <time>2021-08-16T16:08:08.937Z</time>
      </trkpt>
      <trkpt lat="41.23486" lon="43.20069">
        <ele>1814.490254</ele>
        <time>2021-08-16T16:08:16.835Z</time>
      </trkpt>
      <trkpt lat="41.23471" lon="43.19987">
        <ele>1813.524714</ele>
        <time>2021-08-16T16:08:34.326Z</time>
      </trkpt>
      <trkpt lat="41.23465" lon="43.19957">
        <ele>1813.227214</ele>
        <time>2021-08-16T16:08:40.874Z</time>
      </trkpt>
      <trkpt lat="41.23434" lon="43.19813">
        <ele>1811.815111</ele>
        <time>2021-08-16T16:09:10.728Z</time>
      </trkpt>
      <trkpt lat="41.23351" lon="43.1938">
        <ele>1806.227053</ele>
        <time>2021-08-16T16:10:35.166Z</time>
      </trkpt>
      <trkpt lat="41.23317" lon="43.19241">
        <ele>1804.760065</ele>
        <time>2021-08-16T16:11:03.862Z</time>
      </trkpt>
      <trkpt lat="41.23279" lon="43.19149">
        <ele>1803.921998</ele>
        <time>2021-08-16T16:11:25.031Z</time>
      </trkpt>
      <trkpt lat="41.23253" lon="43.19105">
        <ele>1803.49796</ele>
        <time>2021-08-16T16:11:36.657Z</time>
      </trkpt>
      <trkpt lat="41.23234" lon="43.19077">
        <ele>1803.482187</ele>
        <time>2021-08-16T16:11:44.704Z</time>
      </trkpt>
      <trkpt lat="41.23152" lon="43.18995">
        <ele>1803.425102</ele>
        <time>2021-08-16T16:12:16.018Z</time>
      </trkpt>
      <trkpt lat="41.23092" lon="43.1896">
        <ele>1803.525845</ele>
        <time>2021-08-16T16:12:38.182Z</time>
      </trkpt>
      <trkpt lat="41.23059" lon="43.18947">
        <ele>1803.75953</ele>
        <time>2021-08-16T16:12:50.533Z</time>
      </trkpt>
      <trkpt lat="41.22992" lon="43.1893">
        <ele>1804.211508</ele>
        <time>2021-08-16T16:13:14.986Z</time>
      </trkpt>
      <trkpt lat="41.22881" lon="43.18925">
        <ele>1804.858965</ele>
        <time>2021-08-16T16:13:53.389Z</time>
      </trkpt>
      <trkpt lat="41.22638" lon="43.18921">
        <ele>1806.802406</ele>
        <time>2021-08-16T16:15:14.919Z</time>
      </trkpt>
      <trkpt lat="41.22625" lon="43.18921">
        <ele>1806.95456</ele>
        <time>2021-08-16T16:15:20.486Z</time>
      </trkpt>
      <trkpt lat="41.22405" lon="43.18918">
        <ele>1811.368656</ele>
        <time>2021-08-16T16:16:57.981Z</time>
      </trkpt>
      <trkpt lat="41.22184" lon="43.18908">
        <ele>1814.985467</ele>
        <time>2021-08-16T16:18:29.497Z</time>
      </trkpt>
      <trkpt lat="41.22216" lon="43.18903">
        <ele>1815.093769</ele>
        <time>2021-08-16T16:18:40.245Z</time>
      </trkpt>
      <trkpt lat="41.22247" lon="43.18896">
        <ele>1815.200608</ele>
        <time>2021-08-16T16:18:50.315Z</time>
      </trkpt>
      <trkpt lat="41.22376" lon="43.18887">
        <ele>1815.489854</ele>
        <time>2021-08-16T16:19:28.395Z</time>
      </trkpt>
      <trkpt lat="41.22403" lon="43.18878">
        <ele>1815.488259</ele>
        <time>2021-08-16T16:19:36.635Z</time>
      </trkpt>
      <trkpt lat="41.22615" lon="43.1873">
        <ele>1815.772859</ele>
        <time>2021-08-16T16:20:53.806Z</time>
      </trkpt>
      <trkpt lat="41.22695" lon="43.18684">
        <ele>1816.031723</ele>
        <time>2021-08-16T16:21:22.678Z</time>
      </trkpt>
      <trkpt lat="41.22924" lon="43.18582">
        <ele>1817.023692</ele>
        <time>2021-08-16T16:22:43.052Z</time>
      </trkpt>
      <trkpt lat="41.22977" lon="43.1855">
        <ele>1817.279083</ele>
        <time>2021-08-16T16:23:02.891Z</time>
      </trkpt>
      <trkpt lat="41.23085" lon="43.1847">
        <ele>1817.569929</ele>
        <time>2021-08-16T16:23:44.145Z</time>
      </trkpt>
      <trkpt lat="41.23249" lon="43.18314">
        <ele>1817.225041</ele>
        <time>2021-08-16T16:24:45.894Z</time>
      </trkpt>
      <trkpt lat="41.23342" lon="43.1821">
        <ele>1815.959746</ele>
        <time>2021-08-16T16:25:18.789Z</time>
      </trkpt>
      <trkpt lat="41.2353" lon="43.1804">
        <ele>1811.937002</ele>
        <time>2021-08-16T16:26:15.043Z</time>
      </trkpt>
      <trkpt lat="41.23566" lon="43.17998">
        <ele>1811.016106</ele>
        <time>2021-08-16T16:26:26.644Z</time>
      </trkpt>
      <trkpt lat="41.23594" lon="43.17959">
        <ele>1810.326991</ele>
        <time>2021-08-16T16:26:36.757Z</time>
      </trkpt>
      <trkpt lat="41.23619" lon="43.17912">
        <ele>1809.694551</ele>
        <time>2021-08-16T16:26:47.616Z</time>
      </trkpt>
      <trkpt lat="41.23728" lon="43.17651">
        <ele>1807.110319</ele>
        <time>2021-08-16T16:27:47.249Z</time>
      </trkpt>
      <trkpt lat="41.23743" lon="43.1759">
        <ele>1806.714744</ele>
        <time>2021-08-16T16:28:01.186Z</time>
      </trkpt>
      <trkpt lat="41.23758" lon="43.17528">
        <ele>1806.409598</ele>
        <time>2021-08-16T16:28:16.001Z</time>
      </trkpt>
      <trkpt lat="41.23765" lon="43.17481">
        <ele>1806.247291</ele>
        <time>2021-08-16T16:28:27.014Z</time>
      </trkpt>
      <trkpt lat="41.23759" lon="43.17338">
        <ele>1805.761829</ele>
        <time>2021-08-16T16:28:58.756Z</time>
      </trkpt>
      <trkpt lat="41.23761" lon="43.17283">
        <ele>1804.989505</ele>
        <time>2021-08-16T16:29:09.861Z</time>
      </trkpt>
      <trkpt lat="41.23781" lon="43.17199">
        <ele>1803.459439</ele>
        <time>2021-08-16T16:29:26.456Z</time>
      </trkpt>
      <trkpt lat="41.23789" lon="43.17103">
        <ele>1801.767025</ele>
        <time>2021-08-16T16:29:43.329Z</time>
      </trkpt>
      <trkpt lat="41.23775" lon="43.17027">
        <ele>1799.03853</ele>
        <time>2021-08-16T16:29:56.051Z</time>
      </trkpt>
      <trkpt lat="41.23775" lon="43.16979">
        <ele>1797.155137</ele>
        <time>2021-08-16T16:30:03.884Z</time>
      </trkpt>
      <trkpt lat="41.2379" lon="43.16878">
        <ele>1793.189557</ele>
        <time>2021-08-16T16:30:19.922Z</time>
      </trkpt>
      <trkpt lat="41.23806" lon="43.16822">
        <ele>1790.73319</ele>
        <time>2021-08-16T16:30:28.952Z</time>
      </trkpt>
      <trkpt lat="41.23833" lon="43.16752">
        <ele>1787.348528</ele>
        <time>2021-08-16T16:30:41.090Z</time>
      </trkpt>
      <trkpt lat="41.23857" lon="43.16682">
        <ele>1784.052662</ele>
        <time>2021-08-16T16:30:53.106Z</time>
      </trkpt>
      <trkpt lat="41.23862" lon="43.16656">
        <ele>1782.922605</ele>
        <time>2021-08-16T16:30:57.326Z</time>
      </trkpt>
      <trkpt lat="41.23871" lon="43.16615">
        <ele>1781.445377</ele>
        <time>2021-08-16T16:31:04.220Z</time>
      </trkpt>
      <trkpt lat="41.23862" lon="43.16558">
        <ele>1779.818693</ele>
        <time>2021-08-16T16:31:13.900Z</time>
      </trkpt>
      <trkpt lat="41.23867" lon="43.16538">
        <ele>1779.234405</ele>
        <time>2021-08-16T16:31:17.413Z</time>
      </trkpt>
      <trkpt lat="41.23891" lon="43.16497">
        <ele>1777.800256</ele>
        <time>2021-08-16T16:31:26.284Z</time>
      </trkpt>
      <trkpt lat="41.23905" lon="43.16458">
        <ele>1776.621097</ele>
        <time>2021-08-16T16:31:33.897Z</time>
      </trkpt>
      <trkpt lat="41.23937" lon="43.16427">
        <ele>1775.190245</ele>
        <time>2021-08-16T16:31:43.274Z</time>
      </trkpt>
      <trkpt lat="41.23947" lon="43.16404">
        <ele>1774.509599</ele>
        <time>2021-08-16T16:31:47.837Z</time>
      </trkpt>
      <trkpt lat="41.23951" lon="43.1638">
        <ele>1773.860321</ele>
        <time>2021-08-16T16:31:52.090Z</time>
      </trkpt>
      <trkpt lat="41.23949" lon="43.16357">
        <ele>1773.27752</ele>
        <time>2021-08-16T16:31:55.905Z</time>
      </trkpt>
      <trkpt lat="41.23927" lon="43.1632">
        <ele>1772.077449</ele>
        <time>2021-08-16T16:32:03.738Z</time>
      </trkpt>
      <trkpt lat="41.23924" lon="43.16293">
        <ele>1771.381088</ele>
        <time>2021-08-16T16:32:08.312Z</time>
      </trkpt>
      <trkpt lat="41.23928" lon="43.16268">
        <ele>1770.7223</ele>
        <time>2021-08-16T16:32:12.681Z</time>
      </trkpt>
      <trkpt lat="41.2394" lon="43.16244">
        <ele>1769.987824</ele>
        <time>2021-08-16T16:32:17.551Z</time>
      </trkpt>
      <trkpt lat="41.23964" lon="43.16209">
        <ele>1768.855335</ele>
        <time>2021-08-16T16:32:25.703Z</time>
      </trkpt>
      <trkpt lat="41.23977" lon="43.16174">
        <ele>1768.002074</ele>
        <time>2021-08-16T16:32:32.342Z</time>
      </trkpt>
      <trkpt lat="41.23972" lon="43.16108">
        <ele>1766.539195</ele>
        <time>2021-08-16T16:32:43.842Z</time>
      </trkpt>
      <trkpt lat="41.23956" lon="43.16025">
        <ele>1764.648526</ele>
        <time>2021-08-16T16:32:58.771Z</time>
      </trkpt>
      <trkpt lat="41.23923" lon="43.15911">
        <ele>1762.5559</ele>
        <time>2021-08-16T16:33:21.606Z</time>
      </trkpt>
      <trkpt lat="41.23925" lon="43.15875">
        <ele>1761.98234</ele>
        <time>2021-08-16T16:33:28.257Z</time>
      </trkpt>
      <trkpt lat="41.23933" lon="43.1585">
        <ele>1761.536293</ele>
        <time>2021-08-16T16:33:33.372Z</time>
      </trkpt>
      <trkpt lat="41.23962" lon="43.1581">
        <ele>1760.645253</ele>
        <time>2021-08-16T16:33:43.434Z</time>
      </trkpt>
      <trkpt lat="41.23973" lon="43.15776">
        <ele>1760.023939</ele>
        <time>2021-08-16T16:33:50.074Z</time>
      </trkpt>
      <trkpt lat="41.23947" lon="43.1571">
        <ele>1758.595184</ele>
        <time>2021-08-16T16:34:04.038Z</time>
      </trkpt>
      <trkpt lat="41.23929" lon="43.15653">
        <ele>1757.413013</ele>
        <time>2021-08-16T16:34:15.443Z</time>
      </trkpt>
      <trkpt lat="41.23921" lon="43.15601">
        <ele>1756.395778</ele>
        <time>2021-08-16T16:34:24.934Z</time>
      </trkpt>
      <trkpt lat="41.23895" lon="43.15529">
        <ele>1753.796347</ele>
        <time>2021-08-16T16:34:38.272Z</time>
      </trkpt>
      <trkpt lat="41.2389" lon="43.15498">
        <ele>1752.370997</ele>
        <time>2021-08-16T16:34:43.468Z</time>
      </trkpt>
      <trkpt lat="41.23894" lon="43.15458">
        <ele>1750.590385</ele>
        <time>2021-08-16T16:34:49.820Z</time>
      </trkpt>
      <trkpt lat="41.23909" lon="43.15396">
        <ele>1747.70204</ele>
        <time>2021-08-16T16:34:59.788Z</time>
      </trkpt>
      <trkpt lat="41.23936" lon="43.15341">
        <ele>1744.630972</ele>
        <time>2021-08-16T16:35:09.558Z</time>
      </trkpt>
      <trkpt lat="41.23943" lon="43.15281">
        <ele>1740.56632</ele>
        <time>2021-08-16T16:35:18.419Z</time>
      </trkpt>
      <trkpt lat="41.23951" lon="43.15267">
        <ele>1739.380742</ele>
        <time>2021-08-16T16:35:20.963Z</time>
      </trkpt>
      <trkpt lat="41.23998" lon="43.15229">
        <ele>1734.433923</ele>
        <time>2021-08-16T16:35:31.601Z</time>
      </trkpt>
      <trkpt lat="41.2401" lon="43.15212">
        <ele>1732.860243</ele>
        <time>2021-08-16T16:35:34.968Z</time>
      </trkpt>
      <trkpt lat="41.24016" lon="43.15191">
        <ele>1731.367717</ele>
        <time>2021-08-16T16:35:38.205Z</time>
      </trkpt>
      <trkpt lat="41.24017" lon="43.15143">
        <ele>1728.187118</ele>
        <time>2021-08-16T16:35:45.163Z</time>
      </trkpt>
      <trkpt lat="41.24023" lon="43.15134">
        <ele>1727.364379</ele>
        <time>2021-08-16T16:35:47.000Z</time>
      </trkpt>
      <trkpt lat="41.24057" lon="43.15123">
        <ele>1724.375385</ele>
        <time>2021-08-16T16:35:53.689Z</time>
      </trkpt>
      <trkpt lat="41.24069" lon="43.15104">
        <ele>1722.758937</ele>
        <time>2021-08-16T16:35:57.328Z</time>
      </trkpt>
      <trkpt lat="41.2409" lon="43.15062">
        <ele>1719.460533</ele>
        <time>2021-08-16T16:36:04.779Z</time>
      </trkpt>
      <trkpt lat="41.24108" lon="43.15008">
        <ele>1715.668506</ele>
        <time>2021-08-16T16:36:13.357Z</time>
      </trkpt>
      <trkpt lat="41.24111" lon="43.14953">
        <ele>1712.046199</ele>
        <time>2021-08-16T16:36:21.571Z</time>
      </trkpt>
      <trkpt lat="41.24154" lon="43.14848">
        <ele>1704.311978</ele>
        <time>2021-08-16T16:36:39.142Z</time>
      </trkpt>
      <trkpt lat="41.24165" lon="43.14789">
        <ele>1700.421684</ele>
        <time>2021-08-16T16:36:47.908Z</time>
      </trkpt>
      <trkpt lat="41.2416" lon="43.14714">
        <ele>1695.666816</ele>
        <time>2021-08-16T16:36:58.898Z</time>
      </trkpt>
      <trkpt lat="41.24146" lon="43.14669">
        <ele>1692.700426</ele>
        <time>2021-08-16T16:37:05.982Z</time>
      </trkpt>
      <trkpt lat="41.24144" lon="43.14646">
        <ele>1691.259773</ele>
        <time>2021-08-16T16:37:09.421Z</time>
      </trkpt>
      <trkpt lat="41.24165" lon="43.14542">
        <ele>1684.650253</ele>
        <time>2021-08-16T16:37:25.370Z</time>
      </trkpt>
      <trkpt lat="41.24171" lon="43.14527">
        <ele>1683.588766</ele>
        <time>2021-08-16T16:37:27.962Z</time>
      </trkpt>
      <trkpt lat="41.24194" lon="43.14499">
        <ele>1681.208296</ele>
        <time>2021-08-16T16:37:34.107Z</time>
      </trkpt>
      <trkpt lat="41.2427" lon="43.14441">
        <ele>1674.493236</ele>
        <time>2021-08-16T16:37:51.601Z</time>
      </trkpt>
      <trkpt lat="41.24293" lon="43.14435">
        <ele>1672.667558</ele>
        <time>2021-08-16T16:37:56.315Z</time>
      </trkpt>
      <trkpt lat="41.24331" lon="43.14451">
        <ele>1669.577323</ele>
        <time>2021-08-16T16:38:04.239Z</time>
      </trkpt>
      <trkpt lat="41.24345" lon="43.14446">
        <ele>1668.154109</ele>
        <time>2021-08-16T16:38:06.972Z</time>
      </trkpt>
      <trkpt lat="41.24397" lon="43.14404">
        <ele>1662.049744</ele>
        <time>2021-08-16T16:38:18.526Z</time>
      </trkpt>
      <trkpt lat="41.24424" lon="43.14394">
        <ele>1659.184408</ele>
        <time>2021-08-16T16:38:23.898Z</time>
      </trkpt>
      <trkpt lat="41.24456" lon="43.14373">
        <ele>1655.529955</ele>
        <time>2021-08-16T16:38:30.712Z</time>
      </trkpt>
      <trkpt lat="41.2446" lon="43.14355">
        <ele>1654.122796</ele>
        <time>2021-08-16T16:38:33.328Z</time>
      </trkpt>
      <trkpt lat="41.24457" lon="43.14301">
        <ele>1650.02044</ele>
        <time>2021-08-16T16:38:40.941Z</time>
      </trkpt>
      <trkpt lat="41.24459" lon="43.14283">
        <ele>1648.654959</ele>
        <time>2021-08-16T16:38:43.461Z</time>
      </trkpt>
      <trkpt lat="41.24467" lon="43.14265">
        <ele>1647.019772</ele>
        <time>2021-08-16T16:38:46.470Z</time>
      </trkpt>
      <trkpt lat="41.24539" lon="43.1419">
        <ele>1637.768981</ele>
        <time>2021-08-16T16:39:03.689Z</time>
      </trkpt>
      <trkpt lat="41.24613" lon="43.14146">
        <ele>1630.843173</ele>
        <time>2021-08-16T16:39:19.452Z</time>
      </trkpt>
      <trkpt lat="41.24627" lon="43.14131">
        <ele>1629.624539</ele>
        <time>2021-08-16T16:39:23.206Z</time>
      </trkpt>
      <trkpt lat="41.24627" lon="43.1411">
        <ele>1628.622364</ele>
        <time>2021-08-16T16:39:26.286Z</time>
      </trkpt>
      <trkpt lat="41.24613" lon="43.14093">
        <ele>1627.407327</ele>
        <time>2021-08-16T16:39:30.077Z</time>
      </trkpt>
      <trkpt lat="41.24586" lon="43.14086">
        <ele>1625.624165</ele>
        <time>2021-08-16T16:39:35.700Z</time>
      </trkpt>
      <trkpt lat="41.24577" lon="43.14076">
        <ele>1624.8513</ele>
        <time>2021-08-16T16:39:38.173Z</time>
      </trkpt>
      <trkpt lat="41.24583" lon="43.14047">
        <ele>1623.411731</ele>
        <time>2021-08-16T16:39:42.860Z</time>
      </trkpt>
      <trkpt lat="41.24601" lon="43.14032">
        <ele>1622.0381</ele>
        <time>2021-08-16T16:39:47.427Z</time>
      </trkpt>
      <trkpt lat="41.24632" lon="43.14016">
        <ele>1620.574708</ele>
        <time>2021-08-16T16:39:54.639Z</time>
      </trkpt>
      <trkpt lat="41.24649" lon="43.14">
        <ele>1619.776609</ele>
        <time>2021-08-16T16:39:59.358Z</time>
      </trkpt>
      <trkpt lat="41.24689" lon="43.13944">
        <ele>1617.575775</ele>
        <time>2021-08-16T16:40:12.536Z</time>
      </trkpt>
      <trkpt lat="41.24722" lon="43.13917">
        <ele>1616.159182</ele>
        <time>2021-08-16T16:40:21.058Z</time>
      </trkpt>
      <trkpt lat="41.24788" lon="43.13927">
        <ele>1613.257081</ele>
        <time>2021-08-16T16:40:36.155Z</time>
      </trkpt>
      <trkpt lat="41.24824" lon="43.13918">
        <ele>1611.420602</ele>
        <time>2021-08-16T16:40:44.059Z</time>
      </trkpt>
      <trkpt lat="41.24853" lon="43.13867">
        <ele>1609.004134</ele>
        <time>2021-08-16T16:40:54.134Z</time>
      </trkpt>
      <trkpt lat="41.24886" lon="43.13831">
        <ele>1606.812491</ele>
        <time>2021-08-16T16:41:02.966Z</time>
      </trkpt>
      <trkpt lat="41.24943" lon="43.13785">
        <ele>1602.545285</ele>
        <time>2021-08-16T16:41:16.383Z</time>
      </trkpt>
      <trkpt lat="41.24988" lon="43.137">
        <ele>1596.987813</ele>
        <time>2021-08-16T16:41:31.873Z</time>
      </trkpt>
      <trkpt lat="41.25008" lon="43.13628">
        <ele>1592.896831</ele>
        <time>2021-08-16T16:41:43.250Z</time>
      </trkpt>
      <trkpt lat="41.25042" lon="43.1346">
        <ele>1584.90955</ele>
        <time>2021-08-16T16:42:09.888Z</time>
      </trkpt>
      <trkpt lat="41.2504" lon="43.13422">
        <ele>1583.168749</ele>
        <time>2021-08-16T16:42:16.252Z</time>
      </trkpt>
      <trkpt lat="41.25034" lon="43.13417">
        <ele>1582.762282</ele>
        <time>2021-08-16T16:42:17.549Z</time>
      </trkpt>
      <trkpt lat="41.25029" lon="43.13418">
        <ele>1582.465702</ele>
        <time>2021-08-16T16:42:18.696Z</time>
      </trkpt>
      <trkpt lat="41.25024" lon="43.1343">
        <ele>1581.829936</ele>
        <time>2021-08-16T16:42:21.069Z</time>
      </trkpt>
      <trkpt lat="41.25021" lon="43.13488">
        <ele>1579.592554</ele>
        <time>2021-08-16T16:42:30.435Z</time>
      </trkpt>
      <trkpt lat="41.24988" lon="43.13567">
        <ele>1576.08652</ele>
        <time>2021-08-16T16:42:44.993Z</time>
      </trkpt>
      <trkpt lat="41.24969" lon="43.13601">
        <ele>1574.405987</ele>
        <time>2021-08-16T16:42:51.794Z</time>
      </trkpt>
      <trkpt lat="41.24898" lon="43.13633">
        <ele>1569.203864</ele>
        <time>2021-08-16T16:43:07.082Z</time>
      </trkpt>
      <trkpt lat="41.24879" lon="43.1364">
        <ele>1567.535227</ele>
        <time>2021-08-16T16:43:10.892Z</time>
      </trkpt>
      <trkpt lat="41.24859" lon="43.13635">
        <ele>1565.78035</ele>
        <time>2021-08-16T16:43:14.871Z</time>
      </trkpt>
      <trkpt lat="41.24856" lon="43.13613">
        <ele>1564.349847</ele>
        <time>2021-08-16T16:43:18.084Z</time>
      </trkpt>
      <trkpt lat="41.24859" lon="43.13596">
        <ele>1563.220225</ele>
        <time>2021-08-16T16:43:20.625Z</time>
      </trkpt>
      <trkpt lat="41.24895" lon="43.13534">
        <ele>1558.176085</ele>
        <time>2021-08-16T16:43:31.853Z</time>
      </trkpt>
      <trkpt lat="41.24902" lon="43.1351">
        <ele>1556.480231</ele>
        <time>2021-08-16T16:43:35.567Z</time>
      </trkpt>
      <trkpt lat="41.24902" lon="43.13487">
        <ele>1554.945696</ele>
        <time>2021-08-16T16:43:38.868Z</time>
      </trkpt>
      <trkpt lat="41.24889" lon="43.1345">
        <ele>1552.271659</ele>
        <time>2021-08-16T16:43:44.609Z</time>
      </trkpt>
      <trkpt lat="41.24907" lon="43.1339">
        <ele>1547.963532</ele>
        <time>2021-08-16T16:43:53.970Z</time>
      </trkpt>
      <trkpt lat="41.24907" lon="43.13358">
        <ele>1545.829082</ele>
        <time>2021-08-16T16:43:58.666Z</time>
      </trkpt>
      <trkpt lat="41.24899" lon="43.13352">
        <ele>1545.008455</ele>
        <time>2021-08-16T16:44:00.463Z</time>
      </trkpt>
      <trkpt lat="41.24896" lon="43.13356">
        <ele>1544.615878</ele>
        <time>2021-08-16T16:44:01.337Z</time>
      </trkpt>
      <trkpt lat="41.24876" lon="43.13403">
        <ele>1541.050636</ele>
        <time>2021-08-16T16:44:09.364Z</time>
      </trkpt>
      <trkpt lat="41.2485" lon="43.13437">
        <ele>1538.496602</ele>
        <time>2021-08-16T16:44:16.697Z</time>
      </trkpt>
      <trkpt lat="41.24837" lon="43.13487">
        <ele>1535.692411</ele>
        <time>2021-08-16T16:44:24.790Z</time>
      </trkpt>
      <trkpt lat="41.24794" lon="43.13523">
        <ele>1532.130264</ele>
        <time>2021-08-16T16:44:34.992Z</time>
      </trkpt>
      <trkpt lat="41.24788" lon="43.13524">
        <ele>1531.681171</ele>
        <time>2021-08-16T16:44:36.277Z</time>
      </trkpt>
      <trkpt lat="41.24789" lon="43.13508">
        <ele>1530.843041</ele>
        <time>2021-08-16T16:44:38.679Z</time>
      </trkpt>
      <trkpt lat="41.24815" lon="43.13474">
        <ele>1528.303514</ele>
        <time>2021-08-16T16:44:45.980Z</time>
      </trkpt>
      <trkpt lat="41.24818" lon="43.13457">
        <ele>1527.377762</ele>
        <time>2021-08-16T16:44:48.647Z</time>
      </trkpt>
      <trkpt lat="41.24814" lon="43.13416">
        <ele>1525.199205</ele>
        <time>2021-08-16T16:44:54.970Z</time>
      </trkpt>
      <trkpt lat="41.24835" lon="43.13365">
        <ele>1522.200728</ele>
        <time>2021-08-16T16:45:03.644Z</time>
      </trkpt>
      <trkpt lat="41.24832" lon="43.13317">
        <ele>1519.685044</ele>
        <time>2021-08-16T16:45:10.906Z</time>
      </trkpt>
      <trkpt lat="41.24855" lon="43.13278">
        <ele>1517.044175</ele>
        <time>2021-08-16T16:45:18.508Z</time>
      </trkpt>
      <trkpt lat="41.24864" lon="43.13247">
        <ele>1515.240594</ele>
        <time>2021-08-16T16:45:23.470Z</time>
      </trkpt>
      <trkpt lat="41.24876" lon="43.13236">
        <ele>1514.139805</ele>
        <time>2021-08-16T16:45:26.349Z</time>
      </trkpt>
      <trkpt lat="41.2499" lon="43.13209">
        <ele>1505.234954</ele>
        <time>2021-08-16T16:45:49.484Z</time>
      </trkpt>
      <trkpt lat="41.2501" lon="43.13221">
        <ele>1503.583565</ele>
        <time>2021-08-16T16:45:53.656Z</time>
      </trkpt>
      <trkpt lat="41.25026" lon="43.13222">
        <ele>1502.289804</ele>
        <time>2021-08-16T16:45:56.894Z</time>
      </trkpt>
      <trkpt lat="41.25033" lon="43.13216">
        <ele>1501.513948</ele>
        <time>2021-08-16T16:45:58.513Z</time>
      </trkpt>
      <trkpt lat="41.25038" lon="43.13144">
        <ele>1496.511528</ele>
        <time>2021-08-16T16:46:08.800Z</time>
      </trkpt>
      <trkpt lat="41.25061" lon="43.13084">
        <ele>1491.810049</ele>
        <time>2021-08-16T16:46:18.531Z</time>
      </trkpt>
      <trkpt lat="41.25096" lon="43.13043">
        <ele>1487.469501</ele>
        <time>2021-08-16T16:46:27.571Z</time>
      </trkpt>
      <trkpt lat="41.25122" lon="43.13022">
        <ele>1484.796031</ele>
        <time>2021-08-16T16:46:33.434Z</time>
      </trkpt>
      <trkpt lat="41.25119" lon="43.13013">
        <ele>1484.192405</ele>
        <time>2021-08-16T16:46:34.927Z</time>
      </trkpt>
      <trkpt lat="41.2511" lon="43.13015">
        <ele>1483.527918</ele>
        <time>2021-08-16T16:46:36.586Z</time>
      </trkpt>
      <trkpt lat="41.2505" lon="43.13063">
        <ele>1478.03207</ele>
        <time>2021-08-16T16:46:50.302Z</time>
      </trkpt>
      <trkpt lat="41.25014" lon="43.13099">
        <ele>1474.521399</ele>
        <time>2021-08-16T16:46:59.333Z</time>
      </trkpt>
      <trkpt lat="41.24986" lon="43.13156">
        <ele>1470.65136</ele>
        <time>2021-08-16T16:47:09.760Z</time>
      </trkpt>
      <trkpt lat="41.24979" lon="43.13153">
        <ele>1470.129203</ele>
        <time>2021-08-16T16:47:11.248Z</time>
      </trkpt>
      <trkpt lat="41.24978" lon="43.13138">
        <ele>1469.320188</ele>
        <time>2021-08-16T16:47:13.535Z</time>
      </trkpt>
      <trkpt lat="41.2501" lon="43.13065">
        <ele>1464.803654</ele>
        <time>2021-08-16T16:47:26.136Z</time>
      </trkpt>
      <trkpt lat="41.25016" lon="43.13037">
        <ele>1463.231093</ele>
        <time>2021-08-16T16:47:30.469Z</time>
      </trkpt>
      <trkpt lat="41.25041" lon="43.13006">
        <ele>1460.781967</ele>
        <time>2021-08-16T16:47:37.221Z</time>
      </trkpt>
      <trkpt lat="41.25052" lon="43.12973">
        <ele>1458.855395</ele>
        <time>2021-08-16T16:47:42.581Z</time>
      </trkpt>
      <trkpt lat="41.25066" lon="43.12953">
        <ele>1457.629551</ele>
        <time>2021-08-16T16:47:46.616Z</time>
      </trkpt>
      <trkpt lat="41.25082" lon="43.12942">
        <ele>1456.509523</ele>
        <time>2021-08-16T16:47:50.402Z</time>
      </trkpt>
      <trkpt lat="41.25128" lon="43.12944">
        <ele>1453.700908</ele>
        <time>2021-08-16T16:47:59.957Z</time>
      </trkpt>
      <trkpt lat="41.2517" lon="43.12904">
        <ele>1450.620845</ele>
        <time>2021-08-16T16:48:10.466Z</time>
      </trkpt>
      <trkpt lat="41.25186" lon="43.12901">
        <ele>1449.637941</ele>
        <time>2021-08-16T16:48:13.840Z</time>
      </trkpt>
      <trkpt lat="41.25237" lon="43.12849">
        <ele>1445.785962</ele>
        <time>2021-08-16T16:48:27.372Z</time>
      </trkpt>
      <trkpt lat="41.25235" lon="43.12839">
        <ele>1445.303659</ele>
        <time>2021-08-16T16:48:29.088Z</time>
      </trkpt>
      <trkpt lat="41.25215" lon="43.12841">
        <ele>1444.074453</ele>
        <time>2021-08-16T16:48:33.593Z</time>
      </trkpt>
      <trkpt lat="41.252" lon="43.12873">
        <ele>1442.413058</ele>
        <time>2021-08-16T16:48:39.665Z</time>
      </trkpt>
      <trkpt lat="41.25191" lon="43.12882">
        <ele>1441.745483</ele>
        <time>2021-08-16T16:48:42.106Z</time>
      </trkpt>
      <trkpt lat="41.25103" lon="43.12911">
        <ele>1435.540733</ele>
        <time>2021-08-16T16:49:00.357Z</time>
      </trkpt>
      <trkpt lat="41.2509" lon="43.12906">
        <ele>1433.91035</ele>
        <time>2021-08-16T16:49:03.022Z</time>
      </trkpt>
      <trkpt lat="41.25085" lon="43.12896">
        <ele>1432.773421</ele>
        <time>2021-08-16T16:49:04.879Z</time>
      </trkpt>
      <trkpt lat="41.2511" lon="43.12867">
        <ele>1428.864664</ele>
        <time>2021-08-16T16:49:11.161Z</time>
      </trkpt>
      <trkpt lat="41.25141" lon="43.12861">
        <ele>1425.169024</ele>
        <time>2021-08-16T16:49:16.915Z</time>
      </trkpt>
      <trkpt lat="41.2516" lon="43.12848">
        <ele>1422.609146</ele>
        <time>2021-08-16T16:49:20.842Z</time>
      </trkpt>
      <trkpt lat="41.25169" lon="43.12823">
        <ele>1420.153791</ele>
        <time>2021-08-16T16:49:24.598Z</time>
      </trkpt>
      <trkpt lat="41.25176" lon="43.12722">
        <ele>1411.492429</ele>
        <time>2021-08-16T16:49:38.558Z</time>
      </trkpt>
      <trkpt lat="41.2518" lon="43.12661">
        <ele>1406.528192</ele>
        <time>2021-08-16T16:49:47.051Z</time>
      </trkpt>
      <trkpt lat="41.25187" lon="43.12615">
        <ele>1402.700864</ele>
        <time>2021-08-16T16:49:53.759Z</time>
      </trkpt>
      <trkpt lat="41.25202" lon="43.12575">
        <ele>1399.055395</ele>
        <time>2021-08-16T16:50:00.324Z</time>
      </trkpt>
      <trkpt lat="41.2521" lon="43.12555">
        <ele>1397.239732</ele>
        <time>2021-08-16T16:50:03.711Z</time>
      </trkpt>
      <trkpt lat="41.2519" lon="43.12564">
        <ele>1396.850668</ele>
        <time>2021-08-16T16:50:08.127Z</time>
      </trkpt>
      <trkpt lat="41.25153" lon="43.12556">
        <ele>1397.999603</ele>
        <time>2021-08-16T16:50:17.005Z</time>
      </trkpt>
      <trkpt lat="41.25111" lon="43.12575">
        <ele>1399.353249</ele>
        <time>2021-08-16T16:50:39.825Z</time>
      </trkpt>
      <trkpt lat="41.25097" lon="43.1257">
        <ele>1399.820013</ele>
        <time>2021-08-16T16:50:50.556Z</time>
      </trkpt>
      <trkpt lat="41.25086" lon="43.12558">
        <ele>1400.253959</ele>
        <time>2021-08-16T16:51:00.851Z</time>
      </trkpt>
      <trkpt lat="41.2505" lon="43.1251">
        <ele>1401.814741</ele>
        <time>2021-08-16T16:51:39.872Z</time>
      </trkpt>
      <trkpt lat="41.25025" lon="43.12476">
        <ele>1405.321779</ele>
        <time>2021-08-16T16:52:09.497Z</time>
      </trkpt>
      <trkpt lat="41.25021" lon="43.1246">
        <ele>1406.622479</ele>
        <time>2021-08-16T16:52:20.072Z</time>
      </trkpt>
      <trkpt lat="41.25024" lon="43.12429">
        <ele>1409.168252</ele>
        <time>2021-08-16T16:52:41.217Z</time>
      </trkpt>
      <trkpt lat="41.25031" lon="43.12412">
        <ele>1410.739987</ele>
        <time>2021-08-16T16:52:54.752Z</time>
      </trkpt>
      <trkpt lat="41.25234" lon="43.12326">
        <ele>1434.661047</ele>
        <time>2021-08-16T16:56:20.189Z</time>
      </trkpt>
      <trkpt lat="41.2524" lon="43.12319">
        <ele>1435.646652</ele>
        <time>2021-08-16T16:56:28.283Z</time>
      </trkpt>
      <trkpt lat="41.2524" lon="43.1231">
        <ele>1436.448802</ele>
        <time>2021-08-16T16:56:34.890Z</time>
      </trkpt>
      <trkpt lat="41.25235" lon="43.12302">
        <ele>1437.397469</ele>
        <time>2021-08-16T16:56:42.649Z</time>
      </trkpt>
      <trkpt lat="41.2521" lon="43.12293">
        <ele>1440.356751</ele>
        <time>2021-08-16T16:57:07.007Z</time>
      </trkpt>
      <trkpt lat="41.25192" lon="43.12277">
        <ele>1442.939277</ele>
        <time>2021-08-16T16:57:28.487Z</time>
      </trkpt>
      <trkpt lat="41.25184" lon="43.12257">
        <ele>1444.996828</ele>
        <time>2021-08-16T16:57:46.013Z</time>
      </trkpt>
      <trkpt lat="41.2518" lon="43.12227">
        <ele>1447.680562</ele>
        <time>2021-08-16T16:58:08.801Z</time>
      </trkpt>
      <trkpt lat="41.25187" lon="43.12206">
        <ele>1449.743038</ele>
        <time>2021-08-16T16:58:26.564Z</time>
      </trkpt>
      <trkpt lat="41.25224" lon="43.12158">
        <ele>1455.780466</ele>
        <time>2021-08-16T16:59:17.594Z</time>
      </trkpt>
      <trkpt lat="41.25277" lon="43.12068">
        <ele>1465.534583</ele>
        <time>2021-08-16T17:00:39.005Z</time>
      </trkpt>
      <trkpt lat="41.25291" lon="43.12029">
        <ele>1468.801506</ele>
        <time>2021-08-16T17:01:08.820Z</time>
      </trkpt>
      <trkpt lat="41.25287" lon="43.11981">
        <ele>1472.428561</ele>
        <time>2021-08-16T17:01:41.080Z</time>
      </trkpt>
      <trkpt lat="41.25265" lon="43.11972">
        <ele>1474.667513</ele>
        <time>2021-08-16T17:02:00.220Z</time>
      </trkpt>
      <trkpt lat="41.25214" lon="43.11966">
        <ele>1479.817358</ele>
        <time>2021-08-16T17:02:43.458Z</time>
      </trkpt>
      <trkpt lat="41.2518" lon="43.11975">
        <ele>1483.28295</ele>
        <time>2021-08-16T17:03:11.169Z</time>
      </trkpt>
      <trkpt lat="41.25133" lon="43.12017">
        <ele>1488.801811</ele>
        <time>2021-08-16T17:03:56.340Z</time>
      </trkpt>
      <trkpt lat="41.25127" lon="43.12018">
        <ele>1489.40788</ele>
        <time>2021-08-16T17:04:01.467Z</time>
      </trkpt>
      <trkpt lat="41.25127" lon="43.12008">
        <ele>1490.131168</ele>
        <time>2021-08-16T17:04:07.919Z</time>
      </trkpt>
      <trkpt lat="41.2515" lon="43.11959">
        <ele>1494.404118</ele>
        <time>2021-08-16T17:04:46.647Z</time>
      </trkpt>
      <trkpt lat="41.25143" lon="43.11928">
        <ele>1496.731119</ele>
        <time>2021-08-16T17:05:08.248Z</time>
      </trkpt>
      <trkpt lat="41.25145" lon="43.11902">
        <ele>1498.666943</ele>
        <time>2021-08-16T17:05:26.483Z</time>
      </trkpt>
      <trkpt lat="41.25185" lon="43.1179">
        <ele>1508.862123</ele>
        <time>2021-08-16T17:06:53.922Z</time>
      </trkpt>
      <trkpt lat="41.25174" lon="43.11667">
        <ele>1519.035736</ele>
        <time>2021-08-16T17:08:21.804Z</time>
      </trkpt>
      <trkpt lat="41.2518" lon="43.11643">
        <ele>1520.746692</ele>
        <time>2021-08-16T17:08:38.781Z</time>
      </trkpt>
      <trkpt lat="41.25195" lon="43.11631">
        <ele>1522.309042</ele>
        <time>2021-08-16T17:08:53.678Z</time>
      </trkpt>
      <trkpt lat="41.25233" lon="43.11632">
        <ele>1525.787298</ele>
        <time>2021-08-16T17:09:25.944Z</time>
      </trkpt>
      <trkpt lat="41.25239" lon="43.11629">
        <ele>1526.419861</ele>
        <time>2021-08-16T17:09:31.675Z</time>
      </trkpt>
      <trkpt lat="41.25242" lon="43.11612">
        <ele>1527.606231</ele>
        <time>2021-08-16T17:09:42.650Z</time>
      </trkpt>
      <trkpt lat="41.25157" lon="43.1157">
        <ele>1535.535534</ele>
        <time>2021-08-16T17:10:53.785Z</time>
      </trkpt>
      <trkpt lat="41.25094" lon="43.11559">
        <ele>1538.862142</ele>
        <time>2021-08-16T17:11:36.594Z</time>
      </trkpt>
      <trkpt lat="41.25048" lon="43.11574">
        <ele>1541.361517</ele>
        <time>2021-08-16T17:12:03.685Z</time>
      </trkpt>
      <trkpt lat="41.24991" lon="43.11564">
        <ele>1544.406692</ele>
        <time>2021-08-16T17:12:33.275Z</time>
      </trkpt>
      <trkpt lat="41.24961" lon="43.11569">
        <ele>1545.758394</ele>
        <time>2021-08-16T17:12:46.986Z</time>
      </trkpt>
      <trkpt lat="41.24832" lon="43.11615">
        <ele>1551.723011</ele>
        <time>2021-08-16T17:13:55.835Z</time>
      </trkpt>
      <trkpt lat="41.2478" lon="43.11613">
        <ele>1556.63195</ele>
        <time>2021-08-16T17:14:34.191Z</time>
      </trkpt>
      <trkpt lat="41.24778" lon="43.11594">
        <ele>1558.358719</ele>
        <time>2021-08-16T17:14:47.029Z</time>
      </trkpt>
      <trkpt lat="41.2483" lon="43.11579">
        <ele>1564.768338</ele>
        <time>2021-08-16T17:15:40.340Z</time>
      </trkpt>
      <trkpt lat="41.24871" lon="43.1154">
        <ele>1570.935254</ele>
        <time>2021-08-16T17:16:39.801Z</time>
      </trkpt>
      <trkpt lat="41.24952" lon="43.1148">
        <ele>1583.405433</ele>
        <time>2021-08-16T17:18:28.736Z</time>
      </trkpt>
      <trkpt lat="41.24964" lon="43.11433">
        <ele>1588.640221</ele>
        <time>2021-08-16T17:19:10.935Z</time>
      </trkpt>
      <trkpt lat="41.2499" lon="43.11391">
        <ele>1594.356293</ele>
        <time>2021-08-16T17:19:55.868Z</time>
      </trkpt>
      <trkpt lat="41.25057" lon="43.11309">
        <ele>1605.933868</ele>
        <time>2021-08-16T17:21:24.456Z</time>
      </trkpt>
      <trkpt lat="41.2507" lon="43.11286">
        <ele>1608.467229</ele>
        <time>2021-08-16T17:21:43.883Z</time>
      </trkpt>
      <trkpt lat="41.25075" lon="43.1127">
        <ele>1610.025311</ele>
        <time>2021-08-16T17:21:56.349Z</time>
      </trkpt>
      <trkpt lat="41.2508" lon="43.11253">
        <ele>1611.670463</ele>
        <time>2021-08-16T17:22:09.280Z</time>
      </trkpt>
      <trkpt lat="41.25082" lon="43.11202">
        <ele>1616.1116</ele>
        <time>2021-08-16T17:22:44.426Z</time>
      </trkpt>
      <trkpt lat="41.25082" lon="43.11185">
        <ele>1617.696338</ele>
        <time>2021-08-16T17:22:57.856Z</time>
      </trkpt>
      <trkpt lat="41.25082" lon="43.11061">
        <ele>1629.200511</ele>
        <time>2021-08-16T17:24:33.119Z</time>
      </trkpt>
      <trkpt lat="41.25069" lon="43.10927">
        <ele>1642.133702</ele>
        <time>2021-08-16T17:26:20.319Z</time>
      </trkpt>
      <trkpt lat="41.25043" lon="43.108">
        <ele>1653.250495</ele>
        <time>2021-08-16T17:27:56.599Z</time>
      </trkpt>
      <trkpt lat="41.25038" lon="43.1073">
        <ele>1659.038481</ele>
        <time>2021-08-16T17:28:45.679Z</time>
      </trkpt>
      <trkpt lat="41.25043" lon="43.1066">
        <ele>1664.425398</ele>
        <time>2021-08-16T17:29:30.523Z</time>
      </trkpt>
      <trkpt lat="41.25051" lon="43.10618">
        <ele>1666.998783</ele>
        <time>2021-08-16T17:29:56.394Z</time>
      </trkpt>
      <trkpt lat="41.25064" lon="43.10581">
        <ele>1669.362257</ele>
        <time>2021-08-16T17:30:19.080Z</time>
      </trkpt>
      <trkpt lat="41.25067" lon="43.10572">
        <ele>1669.930298</ele>
        <time>2021-08-16T17:30:24.668Z</time>
      </trkpt>
      <trkpt lat="41.25116" lon="43.10505">
        <ele>1675.42018</ele>
        <time>2021-08-16T17:31:13.892Z</time>
      </trkpt>
      <trkpt lat="41.25143" lon="43.10454">
        <ele>1679.13044</ele>
        <time>2021-08-16T17:31:44.890Z</time>
      </trkpt>
      <trkpt lat="41.2518" lon="43.10335">
        <ele>1687.126315</ele>
        <time>2021-08-16T17:32:59.575Z</time>
      </trkpt>
      <trkpt lat="41.25204" lon="43.10278">
        <ele>1691.198848</ele>
        <time>2021-08-16T17:33:39.325Z</time>
      </trkpt>
      <trkpt lat="41.25212" lon="43.10255">
        <ele>1692.848003</ele>
        <time>2021-08-16T17:33:56.499Z</time>
      </trkpt>
      <trkpt lat="41.25221" lon="43.10224">
        <ele>1695.26704</ele>
        <time>2021-08-16T17:34:18.109Z</time>
      </trkpt>
      <trkpt lat="41.25264" lon="43.09914">
        <ele>1716.65895</ele>
        <time>2021-08-16T17:37:38.748Z</time>
      </trkpt>
      <trkpt lat="41.25264" lon="43.09851">
        <ele>1720.537475</ele>
        <time>2021-08-16T17:38:13.515Z</time>
      </trkpt>
      <trkpt lat="41.25285" lon="43.09725">
        <ele>1726.994468</ele>
        <time>2021-08-16T17:39:19.526Z</time>
      </trkpt>
      <trkpt lat="41.25338" lon="43.09638">
        <ele>1731.445233</ele>
        <time>2021-08-16T17:40:09.845Z</time>
      </trkpt>
      <trkpt lat="41.25387" lon="43.09452">
        <ele>1737.923229</ele>
        <time>2021-08-16T17:41:28.700Z</time>
      </trkpt>
      <trkpt lat="41.25451" lon="43.0927">
        <ele>1744.760807</ele>
        <time>2021-08-16T17:42:50.083Z</time>
      </trkpt>
      <trkpt lat="41.25465" lon="43.09202">
        <ele>1747.450916</ele>
        <time>2021-08-16T17:43:21.924Z</time>
      </trkpt>
      <trkpt lat="41.25503" lon="43.09071">
        <ele>1754.128797</ele>
        <time>2021-08-16T17:44:31.643Z</time>
      </trkpt>
      <trkpt lat="41.25535" lon="43.08907">
        <ele>1763.84146</ele>
        <time>2021-08-16T17:46:09.161Z</time>
      </trkpt>
      <trkpt lat="41.25577" lon="43.08794">
        <ele>1772.301236</ele>
        <time>2021-08-16T17:47:27.217Z</time>
      </trkpt>
      <trkpt lat="41.25585" lon="43.08754">
        <ele>1775.150882</ele>
        <time>2021-08-16T17:47:53.451Z</time>
      </trkpt>
      <trkpt lat="41.25588" lon="43.08667">
        <ele>1781.154554</ele>
        <time>2021-08-16T17:48:46.072Z</time>
      </trkpt>
      <trkpt lat="41.25594" lon="43.0864">
        <ele>1783.321125</ele>
        <time>2021-08-16T17:49:02.558Z</time>
      </trkpt>
      <trkpt lat="41.25617" lon="43.08579">
        <ele>1788.641168</ele>
        <time>2021-08-16T17:49:47.552Z</time>
      </trkpt>
      <trkpt lat="41.2564" lon="43.08567">
        <ele>1791.191881</ele>
        <time>2021-08-16T17:50:10.019Z</time>
      </trkpt>
      <trkpt lat="41.2565" lon="43.08573">
        <ele>1792.306358</ele>
        <time>2021-08-16T17:50:20.281Z</time>
      </trkpt>
      <trkpt lat="41.25687" lon="43.08624">
        <ele>1797.809982</ele>
        <time>2021-08-16T17:51:09.699Z</time>
      </trkpt>
      <trkpt lat="41.25703" lon="43.08631">
        <ele>1799.733865</ele>
        <time>2021-08-16T17:51:25.250Z</time>
      </trkpt>
      <trkpt lat="41.25718" lon="43.0863">
        <ele>1801.583221</ele>
        <time>2021-08-16T17:51:39.240Z</time>
      </trkpt>
      <trkpt lat="41.2572" lon="43.08597">
        <ele>1804.71773</ele>
        <time>2021-08-16T17:52:04.533Z</time>
      </trkpt>
      <trkpt lat="41.25764" lon="43.08472">
        <ele>1817.621602</ele>
        <time>2021-08-16T17:53:51.171Z</time>
      </trkpt>
      <trkpt lat="41.25763" lon="43.08439">
        <ele>1820.786104</ele>
        <time>2021-08-16T17:54:19.190Z</time>
      </trkpt>
      <trkpt lat="41.25733" lon="43.08248">
        <ele>1839.549087</ele>
        <time>2021-08-16T17:56:47.553Z</time>
      </trkpt>
      <trkpt lat="41.25712" lon="43.08168">
        <ele>1848.328492</ele>
        <time>2021-08-16T17:57:54.762Z</time>
      </trkpt>
      <trkpt lat="41.25705" lon="43.08075">
        <ele>1858.576131</ele>
        <time>2021-08-16T17:59:12.845Z</time>
      </trkpt>
      <trkpt lat="41.25711" lon="43.08041">
        <ele>1862.371896</ele>
        <time>2021-08-16T17:59:42.869Z</time>
      </trkpt>
      <trkpt lat="41.25765" lon="43.07883">
        <ele>1881.914053</ele>
        <time>2021-08-16T18:02:21.004Z</time>
      </trkpt>
      <trkpt lat="41.25786" lon="43.07795">
        <ele>1892.379863</ele>
        <time>2021-08-16T18:03:42.770Z</time>
      </trkpt>
      <trkpt lat="41.2579" lon="43.0773">
        <ele>1899.289873</ele>
        <time>2021-08-16T18:04:37.465Z</time>
      </trkpt>
      <trkpt lat="41.25786" lon="43.07601">
        <ele>1910.257748</ele>
        <time>2021-08-16T18:06:12.331Z</time>
      </trkpt>
      <trkpt lat="41.25788" lon="43.07438">
        <ele>1922.515959</ele>
        <time>2021-08-16T18:07:54.714Z</time>
      </trkpt>
      <trkpt lat="41.2581" lon="43.07264">
        <ele>1933.561478</ele>
        <time>2021-08-16T18:09:35.389Z</time>
      </trkpt>
      <trkpt lat="41.25827" lon="43.07221">
        <ele>1936.300212</ele>
        <time>2021-08-16T18:10:02.556Z</time>
      </trkpt>
      <trkpt lat="41.2589" lon="43.07113">
        <ele>1943.983449</ele>
        <time>2021-08-16T18:11:17.012Z</time>
      </trkpt>
      <trkpt lat="41.26019" lon="43.06929">
        <ele>1958.282016</ele>
        <time>2021-08-16T18:13:33.562Z</time>
      </trkpt>
      <trkpt lat="41.2614" lon="43.06782">
        <ele>1972.487726</ele>
        <time>2021-08-16T18:15:43.919Z</time>
      </trkpt>
      <trkpt lat="41.26164" lon="43.06729">
        <ele>1976.668517</ele>
        <time>2021-08-16T18:16:23.565Z</time>
      </trkpt>
      <trkpt lat="41.26209" lon="43.06601">
        <ele>1987.161102</ele>
        <time>2021-08-16T18:17:56.779Z</time>
      </trkpt>
      <trkpt lat="41.26237" lon="43.06547">
        <ele>1992.059728</ele>
        <time>2021-08-16T18:18:41.021Z</time>
      </trkpt>
      <trkpt lat="41.26302" lon="43.06387">
        <ele>2003.570763</ele>
        <time>2021-08-16T18:20:33.569Z</time>
      </trkpt>
      <trkpt lat="41.26355" lon="43.0615">
        <ele>2016.025442</ele>
        <time>2021-08-16T18:22:37.006Z</time>
      </trkpt>
      <trkpt lat="41.26371" lon="43.0609">
        <ele>2018.890203</ele>
        <time>2021-08-16T18:23:05.597Z</time>
      </trkpt>
      <trkpt lat="41.26387" lon="43.06055">
        <ele>2020.67638</ele>
        <time>2021-08-16T18:23:24.130Z</time>
      </trkpt>
      <trkpt lat="41.26425" lon="43.06013">
        <ele>2023.542918</ele>
        <time>2021-08-16T18:23:54.209Z</time>
      </trkpt>
      <trkpt lat="41.26714" lon="43.05752">
        <ele>2043.859538</ele>
        <time>2021-08-16T18:27:43.911Z</time>
      </trkpt>
      <trkpt lat="41.27002" lon="43.05527">
        <ele>2058.56602</ele>
        <time>2021-08-16T18:30:45.661Z</time>
      </trkpt>
      <trkpt lat="41.27101" lon="43.05441">
        <ele>2063.443109</ele>
        <time>2021-08-16T18:31:49.068Z</time>
      </trkpt>
      <trkpt lat="41.27125" lon="43.0544">
        <ele>2064.40776</ele>
        <time>2021-08-16T18:32:01.903Z</time>
      </trkpt>
      <trkpt lat="41.273" lon="43.05283">
        <ele>2073.690861</ele>
        <time>2021-08-16T18:34:02.373Z</time>
      </trkpt>
      <trkpt lat="41.27315" lon="43.05265">
        <ele>2074.374179</ele>
        <time>2021-08-16T18:34:13.205Z</time>
      </trkpt>
      <trkpt lat="41.27341" lon="43.05258">
        <ele>2075.348392</ele>
        <time>2021-08-16T18:34:29.565Z</time>
      </trkpt>
      <trkpt lat="41.27381" lon="43.05235">
        <ele>2076.88716</ele>
        <time>2021-08-16T18:34:51.625Z</time>
      </trkpt>
      <trkpt lat="41.27471" lon="43.05214">
        <ele>2078.960616</ele>
        <time>2021-08-16T18:35:31.437Z</time>
      </trkpt>
      <trkpt lat="41.27481" lon="43.05213">
        <ele>2078.966973</ele>
        <time>2021-08-16T18:35:36.404Z</time>
      </trkpt>
      <trkpt lat="41.27491" lon="43.05207">
        <ele>2078.974207</ele>
        <time>2021-08-16T18:35:39.549Z</time>
      </trkpt>
      <trkpt lat="41.27564" lon="43.05106">
        <ele>2079.041892</ele>
        <time>2021-08-16T18:36:09.855Z</time>
      </trkpt>
      <trkpt lat="41.27671" lon="43.05004">
        <ele>2077.424611</ele>
        <time>2021-08-16T18:36:42.791Z</time>
      </trkpt>
      <trkpt lat="41.27723" lon="43.04935">
        <ele>2076.378649</ele>
        <time>2021-08-16T18:37:01.814Z</time>
      </trkpt>
      <trkpt lat="41.27761" lon="43.04869">
        <ele>2075.677803</ele>
        <time>2021-08-16T18:37:19.120Z</time>
      </trkpt>
      <trkpt lat="41.27786" lon="43.04847">
        <ele>2075.342766</ele>
        <time>2021-08-16T18:37:27.798Z</time>
      </trkpt>
      <trkpt lat="41.27846" lon="43.04809">
        <ele>2074.596988</ele>
        <time>2021-08-16T18:37:46.140Z</time>
      </trkpt>
      <trkpt lat="41.2792" lon="43.04737">
        <ele>2072.447042</ele>
        <time>2021-08-16T18:38:08.210Z</time>
      </trkpt>
      <trkpt lat="41.27938" lon="43.04714">
        <ele>2071.805364</ele>
        <time>2021-08-16T18:38:13.810Z</time>
      </trkpt>
      <trkpt lat="41.28036" lon="43.04557">
        <ele>2068.791245</ele>
        <time>2021-08-16T18:38:49.320Z</time>
      </trkpt>
      <trkpt lat="41.28132" lon="43.04384">
        <ele>2068.164248</ele>
        <time>2021-08-16T18:39:38.671Z</time>
      </trkpt>
      <trkpt lat="41.28147" lon="43.04339">
        <ele>2068.641274</ele>
        <time>2021-08-16T18:39:53.695Z</time>
      </trkpt>
      <trkpt lat="41.28151" lon="43.04311">
        <ele>2068.925234</ele>
        <time>2021-08-16T18:40:01.427Z</time>
      </trkpt>
      <trkpt lat="41.28148" lon="43.04296">
        <ele>2069.078584</ele>
        <time>2021-08-16T18:40:07.798Z</time>
      </trkpt>
      <trkpt lat="41.28143" lon="43.04289">
        <ele>2069.166072</ele>
        <time>2021-08-16T18:40:10.294Z</time>
      </trkpt>
      <trkpt lat="41.2813" lon="43.04289">
        <ele>2069.334768</ele>
        <time>2021-08-16T18:40:14.931Z</time>
      </trkpt>
      <trkpt lat="41.28093" lon="43.0433">
        <ele>2070.293585</ele>
        <time>2021-08-16T18:40:36.225Z</time>
      </trkpt>
      <trkpt lat="41.27998" lon="43.0441">
        <ele>2074.337474</ele>
        <time>2021-08-16T18:41:31.106Z</time>
      </trkpt>
      <trkpt lat="41.27975" lon="43.04422">
        <ele>2075.235344</ele>
        <time>2021-08-16T18:41:43.642Z</time>
      </trkpt>
      <trkpt lat="41.27781" lon="43.04468">
        <ele>2086.186283</ele>
        <time>2021-08-16T18:43:49.481Z</time>
      </trkpt>
      <trkpt lat="41.27589" lon="43.04545">
        <ele>2098.871557</ele>
        <time>2021-08-16T18:46:09.899Z</time>
      </trkpt>
      <trkpt lat="41.27556" lon="43.04552">
        <ele>2099.780517</ele>
        <time>2021-08-16T18:46:28.489Z</time>
      </trkpt>
      <trkpt lat="41.27531" lon="43.04563">
        <ele>2100.517293</ele>
        <time>2021-08-16T18:46:42.211Z</time>
      </trkpt>
      <trkpt lat="41.27478" lon="43.04615">
        <ele>2102.324943</ele>
        <time>2021-08-16T18:47:10.762Z</time>
      </trkpt>
      <trkpt lat="41.27414" lon="43.04635">
        <ele>2103.27306</ele>
        <time>2021-08-16T18:47:32.729Z</time>
      </trkpt>
      <trkpt lat="41.27318" lon="43.04643">
        <ele>2101.992649</ele>
        <time>2021-08-16T18:47:58.734Z</time>
      </trkpt>
      <trkpt lat="41.27273" lon="43.04619">
        <ele>2101.345043</ele>
        <time>2021-08-16T18:48:10.461Z</time>
      </trkpt>
      <trkpt lat="41.27251" lon="43.04617">
        <ele>2100.755511</ele>
        <time>2021-08-16T18:48:15.540Z</time>
      </trkpt>
      <trkpt lat="41.27217" lon="43.04624">
        <ele>2098.902304</ele>
        <time>2021-08-16T18:48:23.220Z</time>
      </trkpt>
      <trkpt lat="41.27183" lon="43.04642">
        <ele>2096.955165</ele>
        <time>2021-08-16T18:48:30.969Z</time>
      </trkpt>
      <trkpt lat="41.27111" lon="43.04668">
        <ele>2092.943423</ele>
        <time>2021-08-16T18:48:46.277Z</time>
      </trkpt>
      <trkpt lat="41.27098" lon="43.04665">
        <ele>2092.235171</ele>
        <time>2021-08-16T18:48:48.913Z</time>
      </trkpt>
      <trkpt lat="41.27089" lon="43.04654">
        <ele>2091.60264</ele>
        <time>2021-08-16T18:48:51.299Z</time>
      </trkpt>
      <trkpt lat="41.27068" lon="43.04605">
        <ele>2088.813511</ele>
        <time>2021-08-16T18:48:59.785Z</time>
      </trkpt>
      <trkpt lat="41.27033" lon="43.04552">
        <ele>2085.319289</ele>
        <time>2021-08-16T18:49:10.288Z</time>
      </trkpt>
      <trkpt lat="41.27017" lon="43.04533">
        <ele>2083.937969</ele>
        <time>2021-08-16T18:49:14.495Z</time>
      </trkpt>
      <trkpt lat="41.2698" lon="43.04503">
        <ele>2081.07568</ele>
        <time>2021-08-16T18:49:23.327Z</time>
      </trkpt>
      <trkpt lat="41.26968" lon="43.04484">
        <ele>2079.814569</ele>
        <time>2021-08-16T18:49:27.303Z</time>
      </trkpt>
      <trkpt lat="41.26938" lon="43.0442">
        <ele>2078.258213</ele>
        <time>2021-08-16T18:49:39.536Z</time>
      </trkpt>
      <trkpt lat="41.26873" lon="43.04253">
        <ele>2075.10041</ele>
        <time>2021-08-16T18:50:15.180Z</time>
      </trkpt>
      <trkpt lat="41.26825" lon="43.04125">
        <ele>2075.887151</ele>
        <time>2021-08-16T18:50:53.430Z</time>
      </trkpt>
      <trkpt lat="41.26813" lon="43.04081">
        <ele>2076.14543</ele>
        <time>2021-08-16T18:51:07.632Z</time>
      </trkpt>
      <trkpt lat="41.26786" lon="43.04026">
        <ele>2076.858216</ele>
        <time>2021-08-16T18:51:28.586Z</time>
      </trkpt>
      <trkpt lat="41.26743" lon="43.03984">
        <ele>2077.926839</ele>
        <time>2021-08-16T18:51:51.696Z</time>
      </trkpt>
      <trkpt lat="41.26666" lon="43.03928">
        <ele>2079.661534</ele>
        <time>2021-08-16T18:52:29.116Z</time>
      </trkpt>
      <trkpt lat="41.26634" lon="43.03894">
        <ele>2080.437768</ele>
        <time>2021-08-16T18:52:46.433Z</time>
      </trkpt>
      <trkpt lat="41.26614" lon="43.03882">
        <ele>2080.855119</ele>
        <time>2021-08-16T18:52:55.519Z</time>
      </trkpt>
      <trkpt lat="41.26598" lon="43.03879">
        <ele>2081.15851</ele>
        <time>2021-08-16T18:53:02.033Z</time>
      </trkpt>
      <trkpt lat="41.26546" lon="43.039">
        <ele>2082.162989</ele>
        <time>2021-08-16T18:53:23.039Z</time>
      </trkpt>
      <trkpt lat="41.26504" lon="43.0391">
        <ele>2082.960671</ele>
        <time>2021-08-16T18:53:40.557Z</time>
      </trkpt>
      <trkpt lat="41.26444" lon="43.03943">
        <ele>2085.282419</ele>
        <time>2021-08-16T18:54:10.318Z</time>
      </trkpt>
      <trkpt lat="41.26405" lon="43.03947">
        <ele>2086.839253</ele>
        <time>2021-08-16T18:54:28.141Z</time>
      </trkpt>
      <trkpt lat="41.26364" lon="43.03946">
        <ele>2088.513699</ele>
        <time>2021-08-16T18:54:51.927Z</time>
      </trkpt>
      <trkpt lat="41.26336" lon="43.03938">
        <ele>2089.669066</ele>
        <time>2021-08-16T18:55:10.309Z</time>
      </trkpt>
      <trkpt lat="41.26297" lon="43.03932">
        <ele>2091.940166</ele>
        <time>2021-08-16T18:55:34.979Z</time>
      </trkpt>
      <trkpt lat="41.26286" lon="43.03925">
        <ele>2092.970435</ele>
        <time>2021-08-16T18:55:43.460Z</time>
      </trkpt>
      <trkpt lat="41.26278" lon="43.03913">
        <ele>2093.912967</ele>
        <time>2021-08-16T18:55:52.864Z</time>
      </trkpt>
      <trkpt lat="41.26276" lon="43.03894">
        <ele>2095.049946</ele>
        <time>2021-08-16T18:56:02.359Z</time>
      </trkpt>
      <trkpt lat="41.26278" lon="43.03871">
        <ele>2096.411038</ele>
        <time>2021-08-16T18:56:15.058Z</time>
      </trkpt>
      <trkpt lat="41.26279" lon="43.03863">
        <ele>2096.89722</ele>
        <time>2021-08-16T18:56:21.236Z</time>
      </trkpt>
      <trkpt lat="41.26287" lon="43.03758">
        <ele>2103.18116</ele>
        <time>2021-08-16T18:57:23.074Z</time>
      </trkpt>
      <trkpt lat="41.26308" lon="43.03672">
        <ele>2108.712271</ele>
        <time>2021-08-16T18:58:21.472Z</time>
      </trkpt>
      <trkpt lat="41.26332" lon="43.03627">
        <ele>2112.110176</ele>
        <time>2021-08-16T18:58:54.000Z</time>
      </trkpt>
      <trkpt lat="41.26349" lon="43.03522">
        <ele>2118.724149</ele>
        <time>2021-08-16T18:59:55.029Z</time>
      </trkpt>
      <trkpt lat="41.26372" lon="43.0346">
        <ele>2121.491015</ele>
        <time>2021-08-16T19:00:30.916Z</time>
      </trkpt>
      <trkpt lat="41.26384" lon="43.03373">
        <ele>2124.619002</ele>
        <time>2021-08-16T19:01:10.366Z</time>
      </trkpt>
      <trkpt lat="41.26386" lon="43.03311">
        <ele>2126.776147</ele>
        <time>2021-08-16T19:01:33.527Z</time>
      </trkpt>
      <trkpt lat="41.26376" lon="43.03142">
        <ele>2130.464654</ele>
        <time>2021-08-16T19:02:27.840Z</time>
      </trkpt>
      <trkpt lat="41.26367" lon="43.03117">
        <ele>2130.971372</ele>
        <time>2021-08-16T19:02:36.478Z</time>
      </trkpt>
      <trkpt lat="41.2632" lon="43.03043">
        <ele>2133.167633</ele>
        <time>2021-08-16T19:03:10.500Z</time>
      </trkpt>
      <trkpt lat="41.26296" lon="43.03021">
        <ele>2134.578561</ele>
        <time>2021-08-16T19:03:26.182Z</time>
      </trkpt>
      <trkpt lat="41.26266" lon="43.02982">
        <ele>2136.58707</ele>
        <time>2021-08-16T19:03:50.405Z</time>
      </trkpt>
      <trkpt lat="41.26213" lon="43.02942">
        <ele>2139.481878</ele>
        <time>2021-08-16T19:04:27.821Z</time>
      </trkpt>
      <trkpt lat="41.26196" lon="43.02921">
        <ele>2140.589742</ele>
        <time>2021-08-16T19:04:42.820Z</time>
      </trkpt>
      <trkpt lat="41.26182" lon="43.02871">
        <ele>2142.839435</ele>
        <time>2021-08-16T19:05:09.224Z</time>
      </trkpt>
      <trkpt lat="41.26183" lon="43.02837">
        <ele>2144.293363</ele>
        <time>2021-08-16T19:05:25.915Z</time>
      </trkpt>
      <trkpt lat="41.26225" lon="43.02592">
        <ele>2154.919591</ele>
        <time>2021-08-16T19:07:24.816Z</time>
      </trkpt>
      <trkpt lat="41.2623" lon="43.02511">
        <ele>2158.190087</ele>
        <time>2021-08-16T19:08:01.268Z</time>
      </trkpt>
      <trkpt lat="41.26272" lon="43.02348">
        <ele>2164.78329</ele>
        <time>2021-08-16T19:09:20.268Z</time>
      </trkpt>
      <trkpt lat="41.26277" lon="43.02289">
        <ele>2166.955504</ele>
        <time>2021-08-16T19:09:46.549Z</time>
      </trkpt>
      <trkpt lat="41.26276" lon="43.02228">
        <ele>2169.21754</ele>
        <time>2021-08-16T19:10:13.049Z</time>
      </trkpt>
      <trkpt lat="41.26266" lon="43.02182">
        <ele>2170.301897</ele>
        <time>2021-08-16T19:10:32.507Z</time>
      </trkpt>
      <trkpt lat="41.26239" lon="43.02116">
        <ele>2171.553285</ele>
        <time>2021-08-16T19:11:00.727Z</time>
      </trkpt>
      <trkpt lat="41.26178" lon="43.02004">
        <ele>2173.6475</ele>
        <time>2021-08-16T19:11:42.493Z</time>
      </trkpt>
      <trkpt lat="41.26031" lon="43.01849">
        <ele>2169.740624</ele>
        <time>2021-08-16T19:12:29.241Z</time>
      </trkpt>
      <trkpt lat="41.25998" lon="43.01824">
        <ele>2167.11835</ele>
        <time>2021-08-16T19:12:37.222Z</time>
      </trkpt>
      <trkpt lat="41.25981" lon="43.01796">
        <ele>2165.219065</ele>
        <time>2021-08-16T19:12:42.842Z</time>
      </trkpt>
      <trkpt lat="41.25964" lon="43.01759">
        <ele>2163.00024</ele>
        <time>2021-08-16T19:12:49.254Z</time>
      </trkpt>
      <trkpt lat="41.25946" lon="43.01695">
        <ele>2159.489017</ele>
        <time>2021-08-16T19:12:59.161Z</time>
      </trkpt>
      <trkpt lat="41.25909" lon="43.01485">
        <ele>2143.676832</ele>
        <time>2021-08-16T19:13:29.948Z</time>
      </trkpt>
      <trkpt lat="41.25895" lon="43.01442">
        <ele>2140.145626</ele>
        <time>2021-08-16T19:13:36.590Z</time>
      </trkpt>
      <trkpt lat="41.25801" lon="43.01264">
        <ele>2127.087016</ele>
        <time>2021-08-16T19:14:08.645Z</time>
      </trkpt>
      <trkpt lat="41.25784" lon="43.0124">
        <ele>2125.353368</ele>
        <time>2021-08-16T19:14:13.712Z</time>
      </trkpt>
      <trkpt lat="41.25701" lon="43.01181">
        <ele>2120.567459</ele>
        <time>2021-08-16T19:14:33.487Z</time>
      </trkpt>
      <trkpt lat="41.25652" lon="43.01118">
        <ele>2117.114553</ele>
        <time>2021-08-16T19:14:48.284Z</time>
      </trkpt>
      <trkpt lat="41.25617" lon="43.01065">
        <ele>2114.816434</ele>
        <time>2021-08-16T19:14:59.921Z</time>
      </trkpt>
      <trkpt lat="41.2555" lon="43.00942">
        <ele>2110.034201</ele>
        <time>2021-08-16T19:15:24.970Z</time>
      </trkpt>
      <trkpt lat="41.25468" lon="43.00818">
        <ele>2104.640303</ele>
        <time>2021-08-16T19:15:51.945Z</time>
      </trkpt>
      <trkpt lat="41.2541" lon="43.00714">
        <ele>2100.435874</ele>
        <time>2021-08-16T19:16:12.909Z</time>
      </trkpt>
      <trkpt lat="41.25244" lon="43.00481">
        <ele>2091.612682</ele>
        <time>2021-08-16T19:17:05.725Z</time>
      </trkpt>
      <trkpt lat="41.25212" lon="43.00452">
        <ele>2090.568089</ele>
        <time>2021-08-16T19:17:14.991Z</time>
      </trkpt>
      <trkpt lat="41.25183" lon="43.00435">
        <ele>2089.713133</ele>
        <time>2021-08-16T19:17:22.950Z</time>
      </trkpt>
      <trkpt lat="41.2514" lon="43.00417">
        <ele>2088.934929</ele>
        <time>2021-08-16T19:17:35.016Z</time>
      </trkpt>
      <trkpt lat="41.2507" lon="43.00399">
        <ele>2088.904092</ele>
        <time>2021-08-16T19:17:57.180Z</time>
      </trkpt>
      <trkpt lat="41.25014" lon="43.00376">
        <ele>2088.879255</ele>
        <time>2021-08-16T19:18:16.995Z</time>
      </trkpt>
      <trkpt lat="41.24943" lon="43.00331">
        <ele>2088.566309</ele>
        <time>2021-08-16T19:18:43.052Z</time>
      </trkpt>
      <trkpt lat="41.24881" lon="43.00274">
        <ele>2088.078078</ele>
        <time>2021-08-16T19:19:04.526Z</time>
      </trkpt>
      <trkpt lat="41.24815" lon="43.0019">
        <ele>2087.009597</ele>
        <time>2021-08-16T19:19:28.056Z</time>
      </trkpt>
      <trkpt lat="41.24736" lon="43.00119">
        <ele>2085.039237</ele>
        <time>2021-08-16T19:19:50.770Z</time>
      </trkpt>
      <trkpt lat="41.24682" lon="43.0004">
        <ele>2083.636713</ele>
        <time>2021-08-16T19:20:10.327Z</time>
      </trkpt>
      <trkpt lat="41.24658" lon="42.99985">
        <ele>2083.081458</ele>
        <time>2021-08-16T19:20:22.546Z</time>
      </trkpt>
      <trkpt lat="41.24634" lon="42.99899">
        <ele>2082.289379</ele>
        <time>2021-08-16T19:20:40.859Z</time>
      </trkpt>
      <trkpt lat="41.24578" lon="42.99775">
        <ele>2082.895466</ele>
        <time>2021-08-16T19:21:16.102Z</time>
      </trkpt>
      <trkpt lat="41.24534" lon="42.99659">
        <ele>2084.218832</ele>
        <time>2021-08-16T19:21:56.856Z</time>
      </trkpt>
      <trkpt lat="41.24516" lon="42.99596">
        <ele>2085.838489</ele>
        <time>2021-08-16T19:22:21.602Z</time>
      </trkpt>
      <trkpt lat="41.24499" lon="42.99553">
        <ele>2087.173729</ele>
        <time>2021-08-16T19:22:41.365Z</time>
      </trkpt>
      <trkpt lat="41.24415" lon="42.99396">
        <ele>2091.632083</ele>
        <time>2021-08-16T19:23:59.173Z</time>
      </trkpt>
      <trkpt lat="41.24374" lon="42.99262">
        <ele>2093.727245</ele>
        <time>2021-08-16T19:24:45.657Z</time>
      </trkpt>
      <trkpt lat="41.24353" lon="42.99234">
        <ele>2094.168979</ele>
        <time>2021-08-16T19:24:54.424Z</time>
      </trkpt>
      <trkpt lat="41.24311" lon="42.99196">
        <ele>2092.363807</ele>
        <time>2021-08-16T19:25:07.400Z</time>
      </trkpt>
      <trkpt lat="41.24302" lon="42.9918">
        <ele>2091.801326</ele>
        <time>2021-08-16T19:25:11.115Z</time>
      </trkpt>
      <trkpt lat="41.24257" lon="42.99012">
        <ele>2086.172189</ele>
        <time>2021-08-16T19:25:39.590Z</time>
      </trkpt>
      <trkpt lat="41.24198" lon="42.98843">
        <ele>2076.15116</ele>
        <time>2021-08-16T19:26:07.221Z</time>
      </trkpt>
      <trkpt lat="41.24191" lon="42.98805">
        <ele>2073.909178</ele>
        <time>2021-08-16T19:26:13.098Z</time>
      </trkpt>
      <trkpt lat="41.24186" lon="42.9876">
        <ele>2071.216289</ele>
        <time>2021-08-16T19:26:19.768Z</time>
      </trkpt>
      <trkpt lat="41.24197" lon="42.98619">
        <ele>2062.738224</ele>
        <time>2021-08-16T19:26:40.835Z</time>
      </trkpt>
      <trkpt lat="41.24253" lon="42.98429">
        <ele>2050.562228</ele>
        <time>2021-08-16T19:27:11.029Z</time>
      </trkpt>
      <trkpt lat="41.24302" lon="42.98309">
        <ele>2042.268708</ele>
        <time>2021-08-16T19:27:31.138Z</time>
      </trkpt>
      <trkpt lat="41.2434" lon="42.98169">
        <ele>2033.036975</ele>
        <time>2021-08-16T19:27:53.182Z</time>
      </trkpt>
      <trkpt lat="41.2436" lon="42.98058">
        <ele>2026.479656</ele>
        <time>2021-08-16T19:28:10.009Z</time>
      </trkpt>
      <trkpt lat="41.24371" lon="42.97975">
        <ele>2021.754449</ele>
        <time>2021-08-16T19:28:22.576Z</time>
      </trkpt>
      <trkpt lat="41.24379" lon="42.97894">
        <ele>2017.310365</ele>
        <time>2021-08-16T19:28:35.022Z</time>
      </trkpt>
      <trkpt lat="41.24378" lon="42.97776">
        <ele>2012.051301</ele>
        <time>2021-08-16T19:28:53.129Z</time>
      </trkpt>
      <trkpt lat="41.24383" lon="42.97695">
        <ele>2008.445365</ele>
        <time>2021-08-16T19:29:05.835Z</time>
      </trkpt>
      <trkpt lat="41.24376" lon="42.97544">
        <ele>2002.451012</ele>
        <time>2021-08-16T19:29:30.146Z</time>
      </trkpt>
      <trkpt lat="41.24387" lon="42.97422">
        <ele>1997.726892</ele>
        <time>2021-08-16T19:29:49.658Z</time>
      </trkpt>
      <trkpt lat="41.24458" lon="42.9712">
        <ele>1985.220527</ele>
        <time>2021-08-16T19:30:39.437Z</time>
      </trkpt>
      <trkpt lat="41.24487" lon="42.96957">
        <ele>1979.047097</ele>
        <time>2021-08-16T19:31:06.151Z</time>
      </trkpt>
      <trkpt lat="41.24505" lon="42.96879">
        <ele>1976.910655</ele>
        <time>2021-08-16T19:31:19.653Z</time>
      </trkpt>
      <trkpt lat="41.24518" lon="42.9684">
        <ele>1975.792347</ele>
        <time>2021-08-16T19:31:26.930Z</time>
      </trkpt>
      <trkpt lat="41.24561" lon="42.96765">
        <ele>1973.340665</ele>
        <time>2021-08-16T19:31:43.436Z</time>
      </trkpt>
      <trkpt lat="41.2459" lon="42.96686">
        <ele>1971.856709</ele>
        <time>2021-08-16T19:32:00.017Z</time>
      </trkpt>
      <trkpt lat="41.24611" lon="42.96641">
        <ele>1970.988182</ele>
        <time>2021-08-16T19:32:09.891Z</time>
      </trkpt>
      <trkpt lat="41.24616" lon="42.96601">
        <ele>1970.322682</ele>
        <time>2021-08-16T19:32:17.314Z</time>
      </trkpt>
      <trkpt lat="41.24607" lon="42.96555">
        <ele>1969.550024</ele>
        <time>2021-08-16T19:32:25.715Z</time>
      </trkpt>
      <trkpt lat="41.24595" lon="42.96511">
        <ele>1968.774396</ele>
        <time>2021-08-16T19:32:34.294Z</time>
      </trkpt>
      <trkpt lat="41.24589" lon="42.96489">
        <ele>1968.389642</ele>
        <time>2021-08-16T19:32:38.552Z</time>
      </trkpt>
      <trkpt lat="41.24572" lon="42.96443">
        <ele>1967.532047</ele>
        <time>2021-08-16T19:32:48.039Z</time>
      </trkpt>
      <trkpt lat="41.24545" lon="42.96384">
        <ele>1966.385851</ele>
        <time>2021-08-16T19:33:00.640Z</time>
      </trkpt>
      <trkpt lat="41.24525" lon="42.96358">
        <ele>1965.763453</ele>
        <time>2021-08-16T19:33:07.490Z</time>
      </trkpt>
      <trkpt lat="41.24511" lon="42.96334">
        <ele>1965.286293</ele>
        <time>2021-08-16T19:33:12.891Z</time>
      </trkpt>
      <trkpt lat="41.24492" lon="42.96287">
        <ele>1964.7155</ele>
        <time>2021-08-16T19:33:22.669Z</time>
      </trkpt>
      <trkpt lat="41.2448" lon="42.96243">
        <ele>1964.222519</ele>
        <time>2021-08-16T19:33:31.503Z</time>
      </trkpt>
      <trkpt lat="41.24466" lon="42.96145">
        <ele>1963.158399</ele>
        <time>2021-08-16T19:33:51.793Z</time>
      </trkpt>
      <trkpt lat="41.24442" lon="42.96079">
        <ele>1962.666181</ele>
        <time>2021-08-16T19:34:06.978Z</time>
      </trkpt>
      <trkpt lat="41.24412" lon="42.9597">
        <ele>1962.296201</ele>
        <time>2021-08-16T19:34:32.903Z</time>
      </trkpt>
      <trkpt lat="41.24405" lon="42.95916">
        <ele>1962.123176</ele>
        <time>2021-08-16T19:34:45.271Z</time>
      </trkpt>
      <trkpt lat="41.24403" lon="42.95835">
        <ele>1961.528055</ele>
        <time>2021-08-16T19:35:04.306Z</time>
      </trkpt>
      <trkpt lat="41.24387" lon="42.95623">
        <ele>1958.814576</ele>
        <time>2021-08-16T19:35:45.875Z</time>
      </trkpt>
      <trkpt lat="41.24369" lon="42.95565">
        <ele>1956.649113</ele>
        <time>2021-08-16T19:35:56.176Z</time>
      </trkpt>
      <trkpt lat="41.24355" lon="42.95548">
        <ele>1955.766861</ele>
        <time>2021-08-16T19:36:00.247Z</time>
      </trkpt>
      <trkpt lat="41.24296" lon="42.9551">
        <ele>1952.73638</ele>
        <time>2021-08-16T19:36:13.848Z</time>
      </trkpt>
      <trkpt lat="41.24274" lon="42.95503">
        <ele>1951.719822</ele>
        <time>2021-08-16T19:36:18.329Z</time>
      </trkpt>
      <trkpt lat="41.24178" lon="42.95496">
        <ele>1946.20135</ele>
        <time>2021-08-16T19:36:37.905Z</time>
      </trkpt>
      <trkpt lat="41.24063" lon="42.95468">
        <ele>1939.802675</ele>
        <time>2021-08-16T19:37:02.235Z</time>
      </trkpt>
      <trkpt lat="41.23967" lon="42.95455">
        <ele>1935.517589</ele>
        <time>2021-08-16T19:37:23.425Z</time>
      </trkpt>
      <trkpt lat="41.23936" lon="42.95434">
        <ele>1934.002299</ele>
        <time>2021-08-16T19:37:30.954Z</time>
      </trkpt>
      <trkpt lat="41.23919" lon="42.95412">
        <ele>1932.933395</ele>
        <time>2021-08-16T19:37:36.216Z</time>
      </trkpt>
      <trkpt lat="41.23903" lon="42.95378">
        <ele>1931.510165</ele>
        <time>2021-08-16T19:37:42.797Z</time>
      </trkpt>
      <trkpt lat="41.23883" lon="42.95356">
        <ele>1930.299869</ele>
        <time>2021-08-16T19:37:48.330Z</time>
      </trkpt>
      <trkpt lat="41.23817" lon="42.95324">
        <ele>1926.991745</ele>
        <time>2021-08-16T19:38:03.293Z</time>
      </trkpt>
      <trkpt lat="41.23725" lon="42.95335">
        <ele>1922.750965</ele>
        <time>2021-08-16T19:38:22.629Z</time>
      </trkpt>
      <trkpt lat="41.237" lon="42.95355">
        <ele>1921.44751</ele>
        <time>2021-08-16T19:38:28.800Z</time>
      </trkpt>
      <trkpt lat="41.23667" lon="42.95365">
        <ele>1919.924914</ele>
        <time>2021-08-16T19:38:36.076Z</time>
      </trkpt>
      <trkpt lat="41.23632" lon="42.95387">
        <ele>1918.205148</ele>
        <time>2021-08-16T19:38:44.435Z</time>
      </trkpt>
      <trkpt lat="41.23618" lon="42.95412">
        <ele>1917.133054</ele>
        <time>2021-08-16T19:38:49.764Z</time>
      </trkpt>
      <trkpt lat="41.23601" lon="42.95402">
        <ele>1916.370072</ele>
        <time>2021-08-16T19:38:53.825Z</time>
      </trkpt>
      <trkpt lat="41.2359" lon="42.95384">
        <ele>1915.857322</ele>
        <time>2021-08-16T19:38:57.855Z</time>
      </trkpt>
      <trkpt lat="41.23579" lon="42.95315">
        <ele>1914.323719</ele>
        <time>2021-08-16T19:39:09.803Z</time>
      </trkpt>
      <trkpt lat="41.23584" lon="42.9528">
        <ele>1913.544615</ele>
        <time>2021-08-16T19:39:16.059Z</time>
      </trkpt>
      <trkpt lat="41.23599" lon="42.95243">
        <ele>1912.618774</ele>
        <time>2021-08-16T19:39:23.497Z</time>
      </trkpt>
      <trkpt lat="41.23596" lon="42.95171">
        <ele>1911.074431</ele>
        <time>2021-08-16T19:39:36.791Z</time>
      </trkpt>
      <trkpt lat="41.23584" lon="42.95114">
        <ele>1910.097373</ele>
        <time>2021-08-16T19:39:47.692Z</time>
      </trkpt>
      <trkpt lat="41.23536" lon="42.9507">
        <ele>1908.834408</ele>
        <time>2021-08-16T19:40:01.575Z</time>
      </trkpt>
      <trkpt lat="41.23445" lon="42.94962">
        <ele>1906.686308</ele>
        <time>2021-08-16T19:40:31.627Z</time>
      </trkpt>
      <trkpt lat="41.23379" lon="42.94911">
        <ele>1905.784883</ele>
        <time>2021-08-16T19:40:51.605Z</time>
      </trkpt>
      <trkpt lat="41.23357" lon="42.94867">
        <ele>1905.323885</ele>
        <time>2021-08-16T19:41:02.693Z</time>
      </trkpt>
      <trkpt lat="41.23336" lon="42.94806">
        <ele>1905.471083</ele>
        <time>2021-08-16T19:41:18.404Z</time>
      </trkpt>
      <trkpt lat="41.23135" lon="42.94318">
        <ele>1907.520205</ele>
        <time>2021-08-16T19:43:50.081Z</time>
      </trkpt>
      <trkpt lat="41.23126" lon="42.94272">
        <ele>1907.404786</ele>
        <time>2021-08-16T19:43:59.992Z</time>
      </trkpt>
      <trkpt lat="41.23085" lon="42.94144">
        <ele>1904.674892</ele>
        <time>2021-08-16T19:44:25.245Z</time>
      </trkpt>
      <trkpt lat="41.23061" lon="42.94">
        <ele>1899.713707</ele>
        <time>2021-08-16T19:44:48.738Z</time>
      </trkpt>
      <trkpt lat="41.2302" lon="42.93889">
        <ele>1894.001672</ele>
        <time>2021-08-16T19:45:07.347Z</time>
      </trkpt>
      <trkpt lat="41.2301" lon="42.93843">
        <ele>1891.702915</ele>
        <time>2021-08-16T19:45:14.587Z</time>
      </trkpt>
      <trkpt lat="41.23" lon="42.93746">
        <ele>1887.394448</ele>
        <time>2021-08-16T19:45:29.614Z</time>
      </trkpt>
      <trkpt lat="41.22987" lon="42.93696">
        <ele>1886.143628</ele>
        <time>2021-08-16T19:45:38.029Z</time>
      </trkpt>
      <trkpt lat="41.22928" lon="42.93553">
        <ele>1882.269262</ele>
        <time>2021-08-16T19:46:07.366Z</time>
      </trkpt>
      <trkpt lat="41.2291" lon="42.93522">
        <ele>1881.967136</ele>
        <time>2021-08-16T19:46:15.880Z</time>
      </trkpt>
      <trkpt lat="41.22851" lon="42.93461">
        <ele>1881.574873</ele>
        <time>2021-08-16T19:46:38.845Z</time>
      </trkpt>
      <trkpt lat="41.22839" lon="42.93441">
        <ele>1881.473696</ele>
        <time>2021-08-16T19:46:44.968Z</time>
      </trkpt>
      <trkpt lat="41.22831" lon="42.93346">
        <ele>1881.060028</ele>
        <time>2021-08-16T19:47:05.787Z</time>
      </trkpt>
      <trkpt lat="41.22799" lon="42.9325">
        <ele>1880.350975</ele>
        <time>2021-08-16T19:47:27.540Z</time>
      </trkpt>
      <trkpt lat="41.22794" lon="42.93235">
        <ele>1880.241799</ele>
        <time>2021-08-16T19:47:30.615Z</time>
      </trkpt>
      <trkpt lat="41.22775" lon="42.93173">
        <ele>1879.790524</ele>
        <time>2021-08-16T19:47:44.035Z</time>
      </trkpt>
      <trkpt lat="41.22726" lon="42.92988">
        <ele>1879.027705</ele>
        <time>2021-08-16T19:48:25.144Z</time>
      </trkpt>
      <trkpt lat="41.22705" lon="42.92954">
        <ele>1878.885525</ele>
        <time>2021-08-16T19:48:35.979Z</time>
      </trkpt>
      <trkpt lat="41.22593" lon="42.92811">
        <ele>1878.547473</ele>
        <time>2021-08-16T19:49:26.281Z</time>
      </trkpt>
      <trkpt lat="41.22573" lon="42.92775">
        <ele>1878.490337</ele>
        <time>2021-08-16T19:49:36.121Z</time>
      </trkpt>
      <trkpt lat="41.22558" lon="42.92728">
        <ele>1877.895597</ele>
        <time>2021-08-16T19:49:46.677Z</time>
      </trkpt>
      <trkpt lat="41.22547" lon="42.92665">
        <ele>1876.545321</ele>
        <time>2021-08-16T19:49:58.725Z</time>
      </trkpt>
      <trkpt lat="41.22522" lon="42.92588">
        <ele>1874.773554</ele>
        <time>2021-08-16T19:50:13.382Z</time>
      </trkpt>
      <trkpt lat="41.22506" lon="42.92453">
        <ele>1870.58881</ele>
        <time>2021-08-16T19:50:35.494Z</time>
      </trkpt>
      <trkpt lat="41.22499" lon="42.92416">
        <ele>1869.082065</ele>
        <time>2021-08-16T19:50:41.510Z</time>
      </trkpt>
      <trkpt lat="41.22486" lon="42.92389">
        <ele>1867.828412</ele>
        <time>2021-08-16T19:50:46.456Z</time>
      </trkpt>
      <trkpt lat="41.22437" lon="42.92342">
        <ele>1864.666967</ele>
        <time>2021-08-16T19:50:58.954Z</time>
      </trkpt>
      <trkpt lat="41.22396" lon="42.92316">
        <ele>1862.609172</ele>
        <time>2021-08-16T19:51:08.413Z</time>
      </trkpt>
      <trkpt lat="41.22368" lon="42.92275">
        <ele>1860.816021</ele>
        <time>2021-08-16T19:51:17.286Z</time>
      </trkpt>
      <trkpt lat="41.22275" lon="42.9219">
        <ele>1856.190546</ele>
        <time>2021-08-16T19:51:42.335Z</time>
      </trkpt>
      <trkpt lat="41.22252" lon="42.9216">
        <ele>1855.617182</ele>
        <time>2021-08-16T19:51:49.928Z</time>
      </trkpt>
      <trkpt lat="41.22242" lon="42.92137">
        <ele>1855.2618</ele>
        <time>2021-08-16T19:51:54.829Z</time>
      </trkpt>
      <trkpt lat="41.22239" lon="42.92115">
        <ele>1854.948859</ele>
        <time>2021-08-16T19:51:59.201Z</time>
      </trkpt>
      <trkpt lat="41.22242" lon="42.92083">
        <ele>1854.518336</ele>
        <time>2021-08-16T19:52:05.319Z</time>
      </trkpt>
      <trkpt lat="41.2231" lon="42.91858">
        <ele>1852.34059</ele>
        <time>2021-08-16T19:52:55.101Z</time>
      </trkpt>
      <trkpt lat="41.22365" lon="42.91711">
        <ele>1851.501439</ele>
        <time>2021-08-16T19:53:30.632Z</time>
      </trkpt>
      <trkpt lat="41.22435" lon="42.91502">
        <ele>1850.174129</ele>
        <time>2021-08-16T19:54:19.915Z</time>
      </trkpt>
      <trkpt lat="41.22453" lon="42.9141">
        <ele>1849.15328</ele>
        <time>2021-08-16T19:54:38.639Z</time>
      </trkpt>
      <trkpt lat="41.22461" lon="42.91314">
        <ele>1848.068608</ele>
        <time>2021-08-16T19:54:56.731Z</time>
      </trkpt>
      <trkpt lat="41.22455" lon="42.91281">
        <ele>1847.51547</ele>
        <time>2021-08-16T19:55:02.684Z</time>
      </trkpt>
      <trkpt lat="41.22422" lon="42.91196">
        <ele>1845.917565</ele>
        <time>2021-08-16T19:55:19.821Z</time>
      </trkpt>
      <trkpt lat="41.22412" lon="42.91153">
        <ele>1845.153165</ele>
        <time>2021-08-16T19:55:28.085Z</time>
      </trkpt>
      <trkpt lat="41.22402" lon="42.91091">
        <ele>1844.13168</ele>
        <time>2021-08-16T19:55:39.740Z</time>
      </trkpt>
      <trkpt lat="41.224" lon="42.90999">
        <ele>1843.350097</ele>
        <time>2021-08-16T19:55:57.378Z</time>
      </trkpt>
      <trkpt lat="41.22393" lon="42.90972">
        <ele>1843.110754</ele>
        <time>2021-08-16T19:56:02.983Z</time>
      </trkpt>
      <trkpt lat="41.22341" lon="42.90855">
        <ele>1842.211121</ele>
        <time>2021-08-16T19:56:31.730Z</time>
      </trkpt>
      <trkpt lat="41.22324" lon="42.90828">
        <ele>1842.31408</ele>
        <time>2021-08-16T19:56:39.912Z</time>
      </trkpt>
      <trkpt lat="41.22264" lon="42.90762">
        <ele>1842.614083</ele>
        <time>2021-08-16T19:57:06.306Z</time>
      </trkpt>
      <trkpt lat="41.22258" lon="42.9075">
        <ele>1842.656553</ele>
        <time>2021-08-16T19:57:10.247Z</time>
      </trkpt>
      <trkpt lat="41.22255" lon="42.90743">
        <ele>1842.678591</ele>
        <time>2021-08-16T19:57:12.270Z</time>
      </trkpt>
      <trkpt lat="41.22242" lon="42.90714">
        <ele>1842.775427</ele>
        <time>2021-08-16T19:57:21.768Z</time>
      </trkpt>
      <trkpt lat="41.2222" lon="42.90644">
        <ele>1843.26658</ele>
        <time>2021-08-16T19:57:42.665Z</time>
      </trkpt>
      <trkpt lat="41.22213" lon="42.90602">
        <ele>1843.612745</ele>
        <time>2021-08-16T19:57:54.224Z</time>
      </trkpt>
      <trkpt lat="41.22205" lon="42.90555">
        <ele>1843.994271</ele>
        <time>2021-08-16T19:58:07.034Z</time>
      </trkpt>
      <trkpt lat="41.22194" lon="42.90517">
        <ele>1844.322681</ele>
        <time>2021-08-16T19:58:19.145Z</time>
      </trkpt>
      <trkpt lat="41.22179" lon="42.90504">
        <ele>1844.510066</ele>
        <time>2021-08-16T19:58:26.092Z</time>
      </trkpt>
      <trkpt lat="41.22152" lon="42.90498">
        <ele>1844.834207</ele>
        <time>2021-08-16T19:58:36.287Z</time>
      </trkpt>
      <trkpt lat="41.22123" lon="42.90491">
        <ele>1845.311086</ele>
        <time>2021-08-16T19:58:47.862Z</time>
      </trkpt>
      <trkpt lat="41.22094" lon="42.90473">
        <ele>1845.843924</ele>
        <time>2021-08-16T19:59:00.521Z</time>
      </trkpt>
      <trkpt lat="41.22083" lon="42.90464">
        <ele>1846.058932</ele>
        <time>2021-08-16T19:59:05.615Z</time>
      </trkpt>
      <trkpt lat="41.22071" lon="42.90455">
        <ele>1846.288439</ele>
        <time>2021-08-16T19:59:11.140Z</time>
      </trkpt>
      <trkpt lat="41.22044" lon="42.90445">
        <ele>1846.74516</ele>
        <time>2021-08-16T19:59:22.036Z</time>
      </trkpt>
      <trkpt lat="41.22032" lon="42.90435">
        <ele>1846.987413</ele>
        <time>2021-08-16T19:59:27.496Z</time>
      </trkpt>
      <trkpt lat="41.22014" lon="42.90398">
        <ele>1847.523901</ele>
        <time>2021-08-16T19:59:40.507Z</time>
      </trkpt>
      <trkpt lat="41.22014" lon="42.9038">
        <ele>1847.805546</ele>
        <time>2021-08-16T19:59:46.535Z</time>
      </trkpt>
      <trkpt lat="41.22021" lon="42.9036">
        <ele>1848.36271</ele>
        <time>2021-08-16T19:59:53.391Z</time>
      </trkpt>
      <trkpt lat="41.22044" lon="42.90345">
        <ele>1849.263226</ele>
        <time>2021-08-16T20:00:06.862Z</time>
      </trkpt>
      <trkpt lat="41.22054" lon="42.90332">
        <ele>1849.75129</ele>
        <time>2021-08-16T20:00:13.407Z</time>
      </trkpt>
      <trkpt lat="41.22064" lon="42.90318">
        <ele>1850.257866</ele>
        <time>2021-08-16T20:00:22.277Z</time>
      </trkpt>
      <trkpt lat="41.22084" lon="42.90281">
        <ele>1851.4505</ele>
        <time>2021-08-16T20:00:39.864Z</time>
      </trkpt>
      <trkpt lat="41.22124" lon="42.90238">
        <ele>1853.242487</ele>
        <time>2021-08-16T20:01:06.290Z</time>
      </trkpt>
      <trkpt lat="41.22129" lon="42.9023">
        <ele>1853.518923</ele>
        <time>2021-08-16T20:01:10.184Z</time>
      </trkpt>
      <trkpt lat="41.22134" lon="42.90224">
        <ele>1853.75906</ele>
        <time>2021-08-16T20:01:15.625Z</time>
      </trkpt>
      <trkpt lat="41.22157" lon="42.90134">
        <ele>1856.29654</ele>
        <time>2021-08-16T20:01:53.646Z</time>
      </trkpt>
      <trkpt lat="41.2218" lon="42.90086">
        <ele>1857.823901</ele>
        <time>2021-08-16T20:02:16.459Z</time>
      </trkpt>
      <trkpt lat="41.22191" lon="42.9005">
        <ele>1858.866066</ele>
        <time>2021-08-16T20:02:33.018Z</time>
      </trkpt>
      <trkpt lat="41.22231" lon="42.89711">
        <ele>1864.121336</ele>
        <time>2021-08-16T20:04:24.583Z</time>
      </trkpt>
      <trkpt lat="41.22233" lon="42.89472">
        <ele>1863.069741</ele>
        <time>2021-08-16T20:05:14.363Z</time>
      </trkpt>
      <trkpt lat="41.22235" lon="42.89422">
        <ele>1862.234166</ele>
        <time>2021-08-16T20:05:23.383Z</time>
      </trkpt>
      <trkpt lat="41.22246" lon="42.89378">
        <ele>1861.456691</ele>
        <time>2021-08-16T20:05:31.663Z</time>
      </trkpt>
      <trkpt lat="41.22378" lon="42.8913">
        <ele>1855.698902</ele>
        <time>2021-08-16T20:06:24.880Z</time>
      </trkpt>
      <trkpt lat="41.224" lon="42.89107">
        <ele>1855.001396</ele>
        <time>2021-08-16T20:06:31.616Z</time>
      </trkpt>
      <trkpt lat="41.22485" lon="42.8905">
        <ele>1853.292205</ele>
        <time>2021-08-16T20:06:55.703Z</time>
      </trkpt>
      <trkpt lat="41.22549" lon="42.88995">
        <ele>1851.943789</ele>
        <time>2021-08-16T20:07:15.192Z</time>
      </trkpt>
      <trkpt lat="41.22638" lon="42.88906">
        <ele>1848.991688</ele>
        <time>2021-08-16T20:07:42.381Z</time>
      </trkpt>
      <trkpt lat="41.22785" lon="42.88724">
        <ele>1842.241964</ele>
        <time>2021-08-16T20:08:27.218Z</time>
      </trkpt>
      <trkpt lat="41.2283" lon="42.88639">
        <ele>1839.3476</ele>
        <time>2021-08-16T20:08:44.419Z</time>
      </trkpt>
      <trkpt lat="41.22879" lon="42.88579">
        <ele>1836.970423</ele>
        <time>2021-08-16T20:08:59.097Z</time>
      </trkpt>
      <trkpt lat="41.22924" lon="42.88538">
        <ele>1834.98627</ele>
        <time>2021-08-16T20:09:11.549Z</time>
      </trkpt>
      <trkpt lat="41.22956" lon="42.88479">
        <ele>1833.450871</ele>
        <time>2021-08-16T20:09:24.069Z</time>
      </trkpt>
      <trkpt lat="41.23001" lon="42.88372">
        <ele>1831.887415</ele>
        <time>2021-08-16T20:09:45.655Z</time>
      </trkpt>
      <trkpt lat="41.2301" lon="42.8834">
        <ele>1831.452374</ele>
        <time>2021-08-16T20:09:52.099Z</time>
      </trkpt>
      <trkpt lat="41.23015" lon="42.88292">
        <ele>1830.840686</ele>
        <time>2021-08-16T20:10:04.718Z</time>
      </trkpt>
      <trkpt lat="41.23019" lon="42.88245">
        <ele>1831.981552</ele>
        <time>2021-08-16T20:10:19.111Z</time>
      </trkpt>
      <trkpt lat="41.23025" lon="42.88172">
        <ele>1833.975394</ele>
        <time>2021-08-16T20:10:44.366Z</time>
      </trkpt>
      <trkpt lat="41.23032" lon="42.88144">
        <ele>1834.761256</ele>
        <time>2021-08-16T20:10:56.008Z</time>
      </trkpt>
      <trkpt lat="41.2304" lon="42.8813">
        <ele>1835.237542</ele>
        <time>2021-08-16T20:11:03.078Z</time>
      </trkpt>
      <trkpt lat="41.23048" lon="42.88117">
        <ele>1835.700864</ele>
        <time>2021-08-16T20:11:11.737Z</time>
      </trkpt>
      <trkpt lat="41.23078" lon="42.88079">
        <ele>1837.194691</ele>
        <time>2021-08-16T20:11:37.482Z</time>
      </trkpt>
      <trkpt lat="41.23131" lon="42.88034">
        <ele>1841.265806</ele>
        <time>2021-08-16T20:12:22.258Z</time>
      </trkpt>
      <trkpt lat="41.23146" lon="42.88015">
        <ele>1842.573992</ele>
        <time>2021-08-16T20:12:35.938Z</time>
      </trkpt>
      <trkpt lat="41.23157" lon="42.87988">
        <ele>1844.122162</ele>
        <time>2021-08-16T20:12:54.230Z</time>
      </trkpt>
      <trkpt lat="41.23165" lon="42.879">
        <ele>1848.474084</ele>
        <time>2021-08-16T20:13:37.688Z</time>
      </trkpt>
      <trkpt lat="41.23169" lon="42.87811">
        <ele>1852.384536</ele>
        <time>2021-08-16T20:14:21.360Z</time>
      </trkpt>
      <trkpt lat="41.23154" lon="42.87623">
        <ele>1860.367037</ele>
        <time>2021-08-16T20:15:49.033Z</time>
      </trkpt>
      <trkpt lat="41.23146" lon="42.87591">
        <ele>1861.720127</ele>
        <time>2021-08-16T20:16:05.493Z</time>
      </trkpt>
      <trkpt lat="41.23134" lon="42.87571">
        <ele>1862.722902</ele>
        <time>2021-08-16T20:16:17.508Z</time>
      </trkpt>
      <trkpt lat="41.23098" lon="42.87536">
        <ele>1865.132511</ele>
        <time>2021-08-16T20:16:45.690Z</time>
      </trkpt>
      <trkpt lat="41.23077" lon="42.87498">
        <ele>1867.016932</ele>
        <time>2021-08-16T20:17:07.277Z</time>
      </trkpt>
      <trkpt lat="41.23077" lon="42.87479">
        <ele>1867.746494</ele>
        <time>2021-08-16T20:17:15.898Z</time>
      </trkpt>
      <trkpt lat="41.23086" lon="42.87453">
        <ele>1868.886613</ele>
        <time>2021-08-16T20:17:28.385Z</time>
      </trkpt>
      <trkpt lat="41.23156" lon="42.87305">
        <ele>1873.233499</ele>
        <time>2021-08-16T20:18:39.580Z</time>
      </trkpt>
      <trkpt lat="41.23254" lon="42.87062">
        <ele>1875.775401</ele>
        <time>2021-08-16T20:19:55.268Z</time>
      </trkpt>
      <trkpt lat="41.23423" lon="42.86582">
        <ele>1870.780663</ele>
        <time>2021-08-16T20:21:38.896Z</time>
      </trkpt>
      <trkpt lat="41.2345" lon="42.86528">
        <ele>1870.022328</ele>
        <time>2021-08-16T20:21:50.857Z</time>
      </trkpt>
      <trkpt lat="41.23493" lon="42.86482">
        <ele>1869.160142</ele>
        <time>2021-08-16T20:22:04.621Z</time>
      </trkpt>
      <trkpt lat="41.235" lon="42.86456">
        <ele>1868.837821</ele>
        <time>2021-08-16T20:22:09.866Z</time>
      </trkpt>
      <trkpt lat="41.23497" lon="42.86432">
        <ele>1868.546868</ele>
        <time>2021-08-16T20:22:14.696Z</time>
      </trkpt>
      <trkpt lat="41.23463" lon="42.86355">
        <ele>1868.271233</ele>
        <time>2021-08-16T20:22:32.768Z</time>
      </trkpt>
      <trkpt lat="41.23456" lon="42.86327">
        <ele>1868.271831</ele>
        <time>2021-08-16T20:22:39.413Z</time>
      </trkpt>
      <trkpt lat="41.23452" lon="42.86272">
        <ele>1868.272943</ele>
        <time>2021-08-16T20:22:52.815Z</time>
      </trkpt>
      <trkpt lat="41.23477" lon="42.86022">
        <ele>1868.143775</ele>
        <time>2021-08-16T20:24:00.611Z</time>
      </trkpt>
      <trkpt lat="41.23508" lon="42.85844">
        <ele>1864.48292</ele>
        <time>2021-08-16T20:24:34.866Z</time>
      </trkpt>
      <trkpt lat="41.23518" lon="42.85792">
        <ele>1862.666901</ele>
        <time>2021-08-16T20:24:43.529Z</time>
      </trkpt>
      <trkpt lat="41.2346" lon="42.85485">
        <ele>1845.964317</ele>
        <time>2021-08-16T20:25:30.507Z</time>
      </trkpt>
      <trkpt lat="41.23452" lon="42.8539">
        <ele>1840.297908</ele>
        <time>2021-08-16T20:25:44.556Z</time>
      </trkpt>
      <trkpt lat="41.23457" lon="42.85308">
        <ele>1835.445229</ele>
        <time>2021-08-16T20:25:56.800Z</time>
      </trkpt>
      <trkpt lat="41.2344" lon="42.85244">
        <ele>1831.533112</ele>
        <time>2021-08-16T20:26:07.047Z</time>
      </trkpt>
      <trkpt lat="41.23424" lon="42.85154">
        <ele>1827.934491</ele>
        <time>2021-08-16T20:26:21.091Z</time>
      </trkpt>
      <trkpt lat="41.23413" lon="42.85086">
        <ele>1825.198929</ele>
        <time>2021-08-16T20:26:32.344Z</time>
      </trkpt>
      <trkpt lat="41.23411" lon="42.85041">
        <ele>1823.442102</ele>
        <time>2021-08-16T20:26:39.832Z</time>
      </trkpt>
      <trkpt lat="41.23391" lon="42.84917">
        <ele>1819.684468</ele>
        <time>2021-08-16T20:27:01.309Z</time>
      </trkpt>
      <trkpt lat="41.23385" lon="42.84894">
        <ele>1819.016062</ele>
        <time>2021-08-16T20:27:05.493Z</time>
      </trkpt>
      <trkpt lat="41.23356" lon="42.84839">
        <ele>1817.216016</ele>
        <time>2021-08-16T20:27:16.634Z</time>
      </trkpt>
      <trkpt lat="41.23343" lon="42.84815">
        <ele>1816.421675</ele>
        <time>2021-08-16T20:27:21.742Z</time>
      </trkpt>
      <trkpt lat="41.23338" lon="42.84806">
        <ele>1816.134604</ele>
        <time>2021-08-16T20:27:23.526Z</time>
      </trkpt>
      <trkpt lat="41.23318" lon="42.84781">
        <ele>1815.142293</ele>
        <time>2021-08-16T20:27:29.919Z</time>
      </trkpt>
      <trkpt lat="41.23298" lon="42.84758">
        <ele>1814.223</ele>
        <time>2021-08-16T20:27:35.823Z</time>
      </trkpt>
      <trkpt lat="41.23258" lon="42.84712">
        <ele>1812.371311</ele>
        <time>2021-08-16T20:27:47.536Z</time>
      </trkpt>
      <trkpt lat="41.23254" lon="42.84705">
        <ele>1812.133731</ele>
        <time>2021-08-16T20:27:48.993Z</time>
      </trkpt>
      <trkpt lat="41.23234" lon="42.84663">
        <ele>1810.852673</ele>
        <time>2021-08-16T20:27:57.203Z</time>
      </trkpt>
      <trkpt lat="41.23231" lon="42.84644">
        <ele>1810.338356</ele>
        <time>2021-08-16T20:28:00.691Z</time>
      </trkpt>
      <trkpt lat="41.23231" lon="42.84633">
        <ele>1810.040927</ele>
        <time>2021-08-16T20:28:02.566Z</time>
      </trkpt>
      <trkpt lat="41.2323" lon="42.84617">
        <ele>1809.630025</ele>
        <time>2021-08-16T20:28:05.218Z</time>
      </trkpt>
      <trkpt lat="41.23228" lon="42.84588">
        <ele>1809.300998</ele>
        <time>2021-08-16T20:28:10.305Z</time>
      </trkpt>
      <trkpt lat="41.23225" lon="42.84568">
        <ele>1809.071204</ele>
        <time>2021-08-16T20:28:13.775Z</time>
      </trkpt>
      <trkpt lat="41.23215" lon="42.84545">
        <ele>1808.759107</ele>
        <time>2021-08-16T20:28:18.775Z</time>
      </trkpt>
      <trkpt lat="41.23042" lon="42.84211">
        <ele>1806.112547</ele>
        <time>2021-08-16T20:29:44.121Z</time>
      </trkpt>
      <trkpt lat="41.23024" lon="42.84185">
        <ele>1806.670568</ele>
        <time>2021-08-16T20:29:53.804Z</time>
      </trkpt>
      <trkpt lat="41.23003" lon="42.84157">
        <ele>1807.278039</ele>
        <time>2021-08-16T20:30:04.802Z</time>
      </trkpt>
      <trkpt lat="41.23004" lon="42.8414">
        <ele>1807.552737</ele>
        <time>2021-08-16T20:30:10.710Z</time>
      </trkpt>
      <trkpt lat="41.22952" lon="42.84065">
        <ele>1809.154494</ele>
        <time>2021-08-16T20:30:45.193Z</time>
      </trkpt>
      <trkpt lat="41.22925" lon="42.84053">
        <ele>1809.747325</ele>
        <time>2021-08-16T20:30:59.616Z</time>
      </trkpt>
      <trkpt lat="41.22889" lon="42.84022">
        <ele>1811.63511</ele>
        <time>2021-08-16T20:31:23.183Z</time>
      </trkpt>
      <trkpt lat="41.22822" lon="42.83945">
        <ele>1815.622776</ele>
        <time>2021-08-16T20:32:13.857Z</time>
      </trkpt>
      <trkpt lat="41.22803" lon="42.83915">
        <ele>1816.96261</ele>
        <time>2021-08-16T20:32:31.617Z</time>
      </trkpt>
      <trkpt lat="41.22767" lon="42.83797">
        <ele>1820.502969</ele>
        <time>2021-08-16T20:33:27.627Z</time>
      </trkpt>
      <trkpt lat="41.22727" lon="42.83711">
        <ele>1823.13294</ele>
        <time>2021-08-16T20:34:06.679Z</time>
      </trkpt>
      <trkpt lat="41.22557" lon="42.83183">
        <ele>1825.719676</ele>
        <time>2021-08-16T20:36:34.459Z</time>
      </trkpt>
      <trkpt lat="41.22525" lon="42.83114">
        <ele>1824.950236</ele>
        <time>2021-08-16T20:36:50.390Z</time>
      </trkpt>
      <trkpt lat="41.22452" lon="42.83012">
        <ele>1823.093715</ele>
        <time>2021-08-16T20:37:15.993Z</time>
      </trkpt>
      <trkpt lat="41.22361" lon="42.82933">
        <ele>1819.806583</ele>
        <time>2021-08-16T20:37:40.978Z</time>
      </trkpt>
      <trkpt lat="41.22258" lon="42.82829">
        <ele>1815.294469</ele>
        <time>2021-08-16T20:38:09.812Z</time>
      </trkpt>
      <trkpt lat="41.22219" lon="42.82802">
        <ele>1813.662187</ele>
        <time>2021-08-16T20:38:19.501Z</time>
      </trkpt>
      <trkpt lat="41.22128" lon="42.82768">
        <ele>1810.710593</ele>
        <time>2021-08-16T20:38:40.374Z</time>
      </trkpt>
      <trkpt lat="41.22093" lon="42.82748">
        <ele>1809.734701</ele>
        <time>2021-08-16T20:38:48.979Z</time>
      </trkpt>
      <trkpt lat="41.21807" lon="42.82501">
        <ele>1806.783311</ele>
        <time>2021-08-16T20:40:16.855Z</time>
      </trkpt>
      <trkpt lat="41.21773" lon="42.8246">
        <ele>1808.148654</ele>
        <time>2021-08-16T20:40:43.035Z</time>
      </trkpt>
      <trkpt lat="41.21765" lon="42.82436">
        <ele>1808.739927</ele>
        <time>2021-08-16T20:40:54.660Z</time>
      </trkpt>
      <trkpt lat="41.2178" lon="42.82403">
        <ele>1809.598777</ele>
        <time>2021-08-16T20:41:13.456Z</time>
      </trkpt>
      <trkpt lat="41.218" lon="42.82322">
        <ele>1812.931648</ele>
        <time>2021-08-16T20:41:58.977Z</time>
      </trkpt>
      <trkpt lat="41.21792" lon="42.82277">
        <ele>1815.103063</ele>
        <time>2021-08-16T20:42:24.641Z</time>
      </trkpt>
      <trkpt lat="41.21787" lon="42.82106">
        <ele>1822.331183</ele>
        <time>2021-08-16T20:43:46.045Z</time>
      </trkpt>
      <trkpt lat="41.21775" lon="42.82058">
        <ele>1823.745261</ele>
        <time>2021-08-16T20:44:06.998Z</time>
      </trkpt>
      <trkpt lat="41.218" lon="42.82029">
        <ele>1824.962339</ele>
        <time>2021-08-16T20:44:23.851Z</time>
      </trkpt>
      <trkpt lat="41.21751" lon="42.81931">
        <ele>1828.051595</ele>
        <time>2021-08-16T20:45:05.560Z</time>
      </trkpt>
      <trkpt lat="41.21726" lon="42.81817">
        <ele>1829.55917</ele>
        <time>2021-08-16T20:45:41.012Z</time>
      </trkpt>
      <trkpt lat="41.2171" lon="42.81779">
        <ele>1830.116171</ele>
        <time>2021-08-16T20:45:53.369Z</time>
      </trkpt>
      <trkpt lat="41.21698" lon="42.81761">
        <ele>1830.42021</ele>
        <time>2021-08-16T20:46:00.329Z</time>
      </trkpt>
      <trkpt lat="41.21696" lon="42.81742">
        <ele>1830.668723</ele>
        <time>2021-08-16T20:46:05.978Z</time>
      </trkpt>
      <trkpt lat="41.21665" lon="42.81673">
        <ele>1832.268983</ele>
        <time>2021-08-16T20:46:31.105Z</time>
      </trkpt>
      <trkpt lat="41.21641" lon="42.81634">
        <ele>1833.389109</ele>
        <time>2021-08-16T20:46:49.024Z</time>
      </trkpt>
      <trkpt lat="41.21612" lon="42.81593">
        <ele>1834.640859</ele>
        <time>2021-08-16T20:47:09.692Z</time>
      </trkpt>
      <trkpt lat="41.21576" lon="42.81532">
        <ele>1836.440043</ele>
        <time>2021-08-16T20:47:39.783Z</time>
      </trkpt>
      <trkpt lat="41.21572" lon="42.81516">
        <ele>1836.993149</ele>
        <time>2021-08-16T20:47:46.607Z</time>
      </trkpt>
      <trkpt lat="41.21564" lon="42.81508">
        <ele>1837.441432</ele>
        <time>2021-08-16T20:47:52.622Z</time>
      </trkpt>
      <trkpt lat="41.2155" lon="42.81438">
        <ele>1839.917863</ele>
        <time>2021-08-16T20:48:23.716Z</time>
      </trkpt>
      <trkpt lat="41.2153" lon="42.81404">
        <ele>1841.36119</ele>
        <time>2021-08-16T20:48:42.553Z</time>
      </trkpt>
      <trkpt lat="41.21513" lon="42.81386">
        <ele>1842.37216</ele>
        <time>2021-08-16T20:48:56.363Z</time>
      </trkpt>
      <trkpt lat="41.21484" lon="42.81373">
        <ele>1843.767748</ele>
        <time>2021-08-16T20:49:14.217Z</time>
      </trkpt>
      <trkpt lat="41.21407" lon="42.81389">
        <ele>1846.760754</ele>
        <time>2021-08-16T20:49:55.459Z</time>
      </trkpt>
      <trkpt lat="41.21361" lon="42.81382">
        <ele>1848.463359</ele>
        <time>2021-08-16T20:50:18.729Z</time>
      </trkpt>
      <trkpt lat="41.21314" lon="42.81353">
        <ele>1850.386381</ele>
        <time>2021-08-16T20:50:44.616Z</time>
      </trkpt>
      <trkpt lat="41.21303" lon="42.81339">
        <ele>1850.947188</ele>
        <time>2021-08-16T20:50:51.639Z</time>
      </trkpt>
      <trkpt lat="41.21254" lon="42.81247">
        <ele>1854.463383</ele>
        <time>2021-08-16T20:51:35.999Z</time>
      </trkpt>
      <trkpt lat="41.21232" lon="42.81238">
        <ele>1855.420393</ele>
        <time>2021-08-16T20:51:47.315Z</time>
      </trkpt>
      <trkpt lat="41.21218" lon="42.8124">
        <ele>1856.011592</ele>
        <time>2021-08-16T20:51:56.145Z</time>
      </trkpt>
      <trkpt lat="41.21139" lon="42.81293">
        <ele>1860.022311</ele>
        <time>2021-08-16T20:52:46.892Z</time>
      </trkpt>
      <trkpt lat="41.21105" lon="42.81336">
        <ele>1862.554715</ele>
        <time>2021-08-16T20:53:17.113Z</time>
      </trkpt>
      <trkpt lat="41.21071" lon="42.81341">
        <ele>1864.402475</ele>
        <time>2021-08-16T20:53:39.655Z</time>
      </trkpt>
      <trkpt lat="41.21058" lon="42.81338">
        <ele>1865.106295</ele>
        <time>2021-08-16T20:53:47.930Z</time>
      </trkpt>
      <trkpt lat="41.20997" lon="42.81297">
        <ele>1868.568554</ele>
        <time>2021-08-16T20:54:29.359Z</time>
      </trkpt>
      <trkpt lat="41.20943" lon="42.81231">
        <ele>1871.330654</ele>
        <time>2021-08-16T20:55:10.136Z</time>
      </trkpt>
      <trkpt lat="41.20916" lon="42.81206">
        <ele>1872.571532</ele>
        <time>2021-08-16T20:55:26.942Z</time>
      </trkpt>
      <trkpt lat="41.20827" lon="42.81145">
        <ele>1875.826782</ele>
        <time>2021-08-16T20:56:13.364Z</time>
      </trkpt>
      <trkpt lat="41.20701" lon="42.81081">
        <ele>1879.055563</ele>
        <time>2021-08-16T20:57:11.879Z</time>
      </trkpt>
      <trkpt lat="41.20601" lon="42.81063">
        <ele>1881.437543</ele>
        <time>2021-08-16T20:57:57.424Z</time>
      </trkpt>
      <trkpt lat="41.20505" lon="42.81027">
        <ele>1883.638135</ele>
        <time>2021-08-16T20:58:42.076Z</time>
      </trkpt>
      <trkpt lat="41.20493" lon="42.81014">
        <ele>1883.821437</ele>
        <time>2021-08-16T20:58:48.746Z</time>
      </trkpt>
      <trkpt lat="41.20482" lon="42.80989">
        <ele>1884.068468</ele>
        <time>2021-08-16T20:58:57.636Z</time>
      </trkpt>
      <trkpt lat="41.20468" lon="42.80917">
        <ele>1884.721269</ele>
        <time>2021-08-16T20:59:19.612Z</time>
      </trkpt>
      <trkpt lat="41.20457" lon="42.80896">
        <ele>1884.947733</ele>
        <time>2021-08-16T20:59:26.794Z</time>
      </trkpt>
      <trkpt lat="41.20433" lon="42.80866">
        <ele>1885.331467</ele>
        <time>2021-08-16T20:59:38.198Z</time>
      </trkpt>
      <trkpt lat="41.2033" lon="42.80796">
        <ele>1884.945913</ele>
        <time>2021-08-16T21:00:12.070Z</time>
      </trkpt>
      <trkpt lat="41.20197" lon="42.80719">
        <ele>1884.283981</ele>
        <time>2021-08-16T21:00:50.181Z</time>
      </trkpt>
      <trkpt lat="41.20125" lon="42.80683">
        <ele>1884.186006</ele>
        <time>2021-08-16T21:01:13.569Z</time>
      </trkpt>
      <trkpt lat="41.20061" lon="42.80645">
        <ele>1884.818776</ele>
        <time>2021-08-16T21:01:39.338Z</time>
      </trkpt>
      <trkpt lat="41.2003" lon="42.8063">
        <ele>1885.673051</ele>
        <time>2021-08-16T21:01:52.933Z</time>
      </trkpt>
      <trkpt lat="41.19929" lon="42.80609">
        <ele>1888.324799</ele>
        <time>2021-08-16T21:02:41.732Z</time>
      </trkpt>
      <trkpt lat="41.19868" lon="42.80589">
        <ele>1890.750801</ele>
        <time>2021-08-16T21:03:15.743Z</time>
      </trkpt>
      <trkpt lat="41.19622" lon="42.80576">
        <ele>1901.95846</ele>
        <time>2021-08-16T21:05:35.709Z</time>
      </trkpt>
      <trkpt lat="41.19532" lon="42.80557">
        <ele>1906.379792</ele>
        <time>2021-08-16T21:06:30.344Z</time>
      </trkpt>
      <trkpt lat="41.1947" lon="42.80535">
        <ele>1909.501047</ele>
        <time>2021-08-16T21:07:08.105Z</time>
      </trkpt>
      <trkpt lat="41.19402" lon="42.80558">
        <ele>1912.946632</ele>
        <time>2021-08-16T21:07:49.246Z</time>
      </trkpt>
      <trkpt lat="41.19317" lon="42.80563">
        <ele>1917.132734</ele>
        <time>2021-08-16T21:08:37.714Z</time>
      </trkpt>
      <trkpt lat="41.19217" lon="42.80546">
        <ele>1922.114913</ele>
        <time>2021-08-16T21:09:35.252Z</time>
      </trkpt>
      <trkpt lat="41.19145" lon="42.80525">
        <ele>1927.15828</ele>
        <time>2021-08-16T21:10:22.948Z</time>
      </trkpt>
      <trkpt lat="41.19085" lon="42.80533">
        <ele>1931.654056</ele>
        <time>2021-08-16T21:11:07.603Z</time>
      </trkpt>
      <trkpt lat="41.19046" lon="42.80531">
        <ele>1934.504647</ele>
        <time>2021-08-16T21:11:37.523Z</time>
      </trkpt>
      <trkpt lat="41.19034" lon="42.80525">
        <ele>1935.494489</ele>
        <time>2021-08-16T21:11:49.041Z</time>
      </trkpt>
      <trkpt lat="41.18997" lon="42.80506">
        <ele>1939.027389</ele>
        <time>2021-08-16T21:12:21.167Z</time>
      </trkpt>
      <trkpt lat="41.18908" lon="42.80477">
        <ele>1947.886506</ele>
        <time>2021-08-16T21:13:38.941Z</time>
      </trkpt>
      <trkpt lat="41.1886" lon="42.80469">
        <ele>1952.630994</ele>
        <time>2021-08-16T21:14:23.552Z</time>
      </trkpt>
      <trkpt lat="41.18773" lon="42.80473">
        <ele>1961.617364</ele>
        <time>2021-08-16T21:15:37.823Z</time>
      </trkpt>
      <trkpt lat="41.18739" lon="42.80466">
        <ele>1965.2268</ele>
        <time>2021-08-16T21:16:08.441Z</time>
      </trkpt>
      <trkpt lat="41.18616" lon="42.80417">
        <ele>1978.83089</ele>
        <time>2021-08-16T21:18:08.594Z</time>
      </trkpt>
      <trkpt lat="41.18574" lon="42.80415">
        <ele>1983.382179</ele>
        <time>2021-08-16T21:18:49.174Z</time>
      </trkpt>
      <trkpt lat="41.18479" lon="42.80391">
        <ele>1993.407102</ele>
        <time>2021-08-16T21:20:17.148Z</time>
      </trkpt>
      <trkpt lat="41.18452" lon="42.80393">
        <ele>1995.494833</ele>
        <time>2021-08-16T21:20:38.888Z</time>
      </trkpt>
      <trkpt lat="41.18401" lon="42.80422">
        <ele>1999.792167</ele>
        <time>2021-08-16T21:21:19.412Z</time>
      </trkpt>
      <trkpt lat="41.18347" lon="42.80434">
        <ele>2004.092924</ele>
        <time>2021-08-16T21:21:54.431Z</time>
      </trkpt>
      <trkpt lat="41.18236" lon="42.80434">
        <ele>2013.04256</ele>
        <time>2021-08-16T21:23:15.929Z</time>
      </trkpt>
      <trkpt lat="41.18214" lon="42.80427">
        <ele>2014.845748</ele>
        <time>2021-08-16T21:23:32.647Z</time>
      </trkpt>
      <trkpt lat="41.18206" lon="42.80418">
        <ele>2015.693722</ele>
        <time>2021-08-16T21:23:40.709Z</time>
      </trkpt>
      <trkpt lat="41.18199" lon="42.80405">
        <ele>2016.635076</ele>
        <time>2021-08-16T21:23:49.964Z</time>
      </trkpt>
      <trkpt lat="41.18177" lon="42.80381">
        <ele>2018.952521</ele>
        <time>2021-08-16T21:24:13.490Z</time>
      </trkpt>
      <trkpt lat="41.18145" lon="42.80266">
        <ele>2026.610226</ele>
        <time>2021-08-16T21:25:32.153Z</time>
      </trkpt>
      <trkpt lat="41.1814" lon="42.80199">
        <ele>2030.849515</ele>
        <time>2021-08-16T21:26:16.819Z</time>
      </trkpt>
      <trkpt lat="41.18144" lon="42.80143">
        <ele>2034.426506</ele>
        <time>2021-08-16T21:26:46.871Z</time>
      </trkpt>
      <trkpt lat="41.18168" lon="42.79993">
        <ele>2038.457345</ele>
        <time>2021-08-16T21:27:50.605Z</time>
      </trkpt>
      <trkpt lat="41.18165" lon="42.79965">
        <ele>2039.032404</ele>
        <time>2021-08-16T21:27:59.265Z</time>
      </trkpt>
      <trkpt lat="41.18168" lon="42.79922">
        <ele>2039.900862</ele>
        <time>2021-08-16T21:28:10.534Z</time>
      </trkpt>
      <trkpt lat="41.18193" lon="42.79817">
        <ele>2039.195876</ele>
        <time>2021-08-16T21:28:33.489Z</time>
      </trkpt>
      <trkpt lat="41.18184" lon="42.79792">
        <ele>2038.668163</ele>
        <time>2021-08-16T21:28:38.558Z</time>
      </trkpt>
      <trkpt lat="41.18177" lon="42.79786">
        <ele>2038.447799</ele>
        <time>2021-08-16T21:28:40.609Z</time>
      </trkpt>
      <trkpt lat="41.18155" lon="42.79785">
        <ele>2037.90193</ele>
        <time>2021-08-16T21:28:45.602Z</time>
      </trkpt>
      <trkpt lat="41.18096" lon="42.79829">
        <ele>2036.211748</ele>
        <time>2021-08-16T21:29:00.521Z</time>
      </trkpt>
      <trkpt lat="41.18082" lon="42.79828">
        <ele>2035.672394</ele>
        <time>2021-08-16T21:29:03.633Z</time>
      </trkpt>
      <trkpt lat="41.18066" lon="42.79811">
        <ele>2034.791328</ele>
        <time>2021-08-16T21:29:08.027Z</time>
      </trkpt>
      <trkpt lat="41.18023" lon="42.79739">
        <ele>2031.795973</ele>
        <time>2021-08-16T21:29:22.885Z</time>
      </trkpt>
      <trkpt lat="41.17975" lon="42.79641">
        <ele>2028.072584</ele>
        <time>2021-08-16T21:29:41.884Z</time>
      </trkpt>
      <trkpt lat="41.17901" lon="42.79523">
        <ele>2024.354989</ele>
        <time>2021-08-16T21:30:07.822Z</time>
      </trkpt>
      <trkpt lat="41.1787" lon="42.79486">
        <ele>2023.001533</ele>
        <time>2021-08-16T21:30:17.750Z</time>
      </trkpt>
      <trkpt lat="41.17795" lon="42.79425">
        <ele>2021.148143</ele>
        <time>2021-08-16T21:30:39.468Z</time>
      </trkpt>
      <trkpt lat="41.17741" lon="42.79355">
        <ele>2019.759605</ele>
        <time>2021-08-16T21:30:58.491Z</time>
      </trkpt>
      <trkpt lat="41.17626" lon="42.7912">
        <ele>2015.986003</ele>
        <time>2021-08-16T21:31:51.977Z</time>
      </trkpt>
      <trkpt lat="41.17542" lon="42.78994">
        <ele>2012.454498</ele>
        <time>2021-08-16T21:32:21.938Z</time>
      </trkpt>
      <trkpt lat="41.17447" lon="42.78877">
        <ele>2008.307003</ele>
        <time>2021-08-16T21:32:51.021Z</time>
      </trkpt>
      <trkpt lat="41.17364" lon="42.7879">
        <ele>2004.629184</ele>
        <time>2021-08-16T21:33:14.592Z</time>
      </trkpt>
      <trkpt lat="41.17286" lon="42.78695">
        <ele>2001.958821</ele>
        <time>2021-08-16T21:33:39.479Z</time>
      </trkpt>
      <trkpt lat="41.17263" lon="42.78673">
        <ele>2001.26384</ele>
        <time>2021-08-16T21:33:46.245Z</time>
      </trkpt>
      <trkpt lat="41.17201" lon="42.78631">
        <ele>1999.744992</ele>
        <time>2021-08-16T21:34:03.911Z</time>
      </trkpt>
      <trkpt lat="41.17159" lon="42.78596">
        <ele>1998.959322</ele>
        <time>2021-08-16T21:34:16.772Z</time>
      </trkpt>
      <trkpt lat="41.17118" lon="42.78533">
        <ele>1997.977202</ele>
        <time>2021-08-16T21:34:33.018Z</time>
      </trkpt>
      <trkpt lat="41.17085" lon="42.78511">
        <ele>1997.394187</ele>
        <time>2021-08-16T21:34:42.423Z</time>
      </trkpt>
      <trkpt lat="41.17051" lon="42.78503">
        <ele>1996.77992</ele>
        <time>2021-08-16T21:34:51.061Z</time>
      </trkpt>
      <trkpt lat="41.16999" lon="42.78512">
        <ele>1995.841309</ele>
        <time>2021-08-16T21:35:03.672Z</time>
      </trkpt>
      <trkpt lat="41.16959" lon="42.78512">
        <ele>1995.113117</ele>
        <time>2021-08-16T21:35:13.577Z</time>
      </trkpt>
      <trkpt lat="41.16875" lon="42.78498">
        <ele>1994.037666</ele>
        <time>2021-08-16T21:35:34.748Z</time>
      </trkpt>
      <trkpt lat="41.1686" lon="42.7849">
        <ele>1994.009392</ele>
        <time>2021-08-16T21:35:39.103Z</time>
      </trkpt>
      <trkpt lat="41.16773" lon="42.78357">
        <ele>1993.782541</ele>
        <time>2021-08-16T21:36:21.295Z</time>
      </trkpt>
      <trkpt lat="41.16722" lon="42.78272">
        <ele>1994.714853</ele>
        <time>2021-08-16T21:36:53.972Z</time>
      </trkpt>
      <trkpt lat="41.16709" lon="42.78238">
        <ele>1995.063659</ele>
        <time>2021-08-16T21:37:05.368Z</time>
      </trkpt>
      <trkpt lat="41.16707" lon="42.78191">
        <ele>1995.495028</ele>
        <time>2021-08-16T21:37:19.348Z</time>
      </trkpt>
      <trkpt lat="41.1671" lon="42.78146">
        <ele>1995.905254</ele>
        <time>2021-08-16T21:37:32.404Z</time>
      </trkpt>
      <trkpt lat="41.16703" lon="42.7808">
        <ele>1995.898571</ele>
        <time>2021-08-16T21:37:50.184Z</time>
      </trkpt>
      <trkpt lat="41.16709" lon="42.78047">
        <ele>1995.868288</ele>
        <time>2021-08-16T21:37:58.422Z</time>
      </trkpt>
      <trkpt lat="41.16743" lon="42.77992">
        <ele>1995.803593</ele>
        <time>2021-08-16T21:38:14.523Z</time>
      </trkpt>
      <trkpt lat="41.16806" lon="42.77919">
        <ele>1994.977614</ele>
        <time>2021-08-16T21:38:37.144Z</time>
      </trkpt>
      <trkpt lat="41.16831" lon="42.77914">
        <ele>1994.338866</ele>
        <time>2021-08-16T21:38:43.401Z</time>
      </trkpt>
      <trkpt lat="41.16934" lon="42.77929">
        <ele>1991.625842</ele>
        <time>2021-08-16T21:39:07.681Z</time>
      </trkpt>
      <trkpt lat="41.16995" lon="42.77944">
        <ele>1989.005922</ele>
        <time>2021-08-16T21:39:21.095Z</time>
      </trkpt>
      <trkpt lat="41.17029" lon="42.77942">
        <ele>1987.239608</ele>
        <time>2021-08-16T21:39:28.375Z</time>
      </trkpt>
      <trkpt lat="41.17055" lon="42.77917">
        <ele>1985.624739</ele>
        <time>2021-08-16T21:39:34.942Z</time>
      </trkpt>
      <trkpt lat="41.17084" lon="42.77865">
        <ele>1983.117948</ele>
        <time>2021-08-16T21:39:45.060Z</time>
      </trkpt>
      <trkpt lat="41.17099" lon="42.77827">
        <ele>1981.404332</ele>
        <time>2021-08-16T21:39:51.798Z</time>
      </trkpt>
      <trkpt lat="41.1712" lon="42.77803">
        <ele>1979.861147</ele>
        <time>2021-08-16T21:39:57.455Z</time>
      </trkpt>
      <trkpt lat="41.17151" lon="42.77791">
        <ele>1978.080074</ele>
        <time>2021-08-16T21:40:04.041Z</time>
      </trkpt>
      <trkpt lat="41.17285" lon="42.77763">
        <ele>1970.205911</ele>
        <time>2021-08-16T21:40:32.365Z</time>
      </trkpt>
      <trkpt lat="41.17304" lon="42.77752">
        <ele>1968.787857</ele>
        <time>2021-08-16T21:40:36.716Z</time>
      </trkpt>
      <trkpt lat="41.17333" lon="42.7772">
        <ele>1966.25438</ele>
        <time>2021-08-16T21:40:44.389Z</time>
      </trkpt>
      <trkpt lat="41.17368" lon="42.77692">
        <ele>1963.504379</ele>
        <time>2021-08-16T21:40:52.610Z</time>
      </trkpt>
      <trkpt lat="41.17393" lon="42.77686">
        <ele>1961.845162</ele>
        <time>2021-08-16T21:40:57.514Z</time>
      </trkpt>
      <trkpt lat="41.17427" lon="42.77687">
        <ele>1959.531442</ele>
        <time>2021-08-16T21:41:04.224Z</time>
      </trkpt>
      <trkpt lat="41.17439" lon="42.77679">
        <ele>1958.367418</ele>
        <time>2021-08-16T21:41:06.925Z</time>
      </trkpt>
      <trkpt lat="41.17452" lon="42.77583">
        <ele>1952.149491</ele>
        <time>2021-08-16T21:41:21.161Z</time>
      </trkpt>
      <trkpt lat="41.17487" lon="42.77488">
        <ele>1945.453218</ele>
        <time>2021-08-16T21:41:36.559Z</time>
      </trkpt>
      <trkpt lat="41.17485" lon="42.77454">
        <ele>1943.562829</ele>
        <time>2021-08-16T21:41:41.599Z</time>
      </trkpt>
      <trkpt lat="41.17476" lon="42.77418">
        <ele>1941.759082</ele>
        <time>2021-08-16T21:41:47.185Z</time>
      </trkpt>
      <trkpt lat="41.17432" lon="42.77333">
        <ele>1936.781958</ele>
        <time>2021-08-16T21:42:02.900Z</time>
      </trkpt>
      <trkpt lat="41.17422" lon="42.77258">
        <ele>1933.15907</ele>
        <time>2021-08-16T21:42:14.917Z</time>
      </trkpt>
      <trkpt lat="41.17419" lon="42.77182">
        <ele>1931.497557</ele>
        <time>2021-08-16T21:42:27.758Z</time>
      </trkpt>
      <trkpt lat="41.17423" lon="42.77126">
        <ele>1930.338621</ele>
        <time>2021-08-16T21:42:37.848Z</time>
      </trkpt>
      <trkpt lat="41.17444" lon="42.77045">
        <ele>1928.601507</ele>
        <time>2021-08-16T21:42:53.891Z</time>
      </trkpt>
      <trkpt lat="41.1745" lon="42.77001">
        <ele>1927.943312</ele>
        <time>2021-08-16T21:43:02.690Z</time>
      </trkpt>
      <trkpt lat="41.17449" lon="42.76975">
        <ele>1927.732138</ele>
        <time>2021-08-16T21:43:08.002Z</time>
      </trkpt>
      <trkpt lat="41.17451" lon="42.76951">
        <ele>1927.542852</ele>
        <time>2021-08-16T21:43:12.952Z</time>
      </trkpt>
      <trkpt lat="41.17463" lon="42.76789">
        <ele>1926.245464</ele>
        <time>2021-08-16T21:43:46.324Z</time>
      </trkpt>
      <trkpt lat="41.17461" lon="42.7677">
        <ele>1926.135854</ele>
        <time>2021-08-16T21:43:50.227Z</time>
      </trkpt>
      <trkpt lat="41.17442" lon="42.76697">
        <ele>1925.747948</ele>
        <time>2021-08-16T21:44:06.277Z</time>
      </trkpt>
      <trkpt lat="41.17407" lon="42.76654">
        <ele>1925.431731</ele>
        <time>2021-08-16T21:44:19.575Z</time>
      </trkpt>
      <trkpt lat="41.17391" lon="42.76608">
        <ele>1925.178815</ele>
        <time>2021-08-16T21:44:30.462Z</time>
      </trkpt>
      <trkpt lat="41.17374" lon="42.76591">
        <ele>1925.036795</ele>
        <time>2021-08-16T21:44:36.651Z</time>
      </trkpt>
      <trkpt lat="41.17326" lon="42.76578">
        <ele>1924.712663</ele>
        <time>2021-08-16T21:44:51.085Z</time>
      </trkpt>
      <trkpt lat="41.17272" lon="42.76546">
        <ele>1924.328277</ele>
        <time>2021-08-16T21:45:08.397Z</time>
      </trkpt>
      <trkpt lat="41.17221" lon="42.76527">
        <ele>1923.978962</ele>
        <time>2021-08-16T21:45:23.430Z</time>
      </trkpt>
      <trkpt lat="41.17139" lon="42.7651">
        <ele>1922.197525</ele>
        <time>2021-08-16T21:45:44.891Z</time>
      </trkpt>
      <trkpt lat="41.17081" lon="42.76483">
        <ele>1920.540994</ele>
        <time>2021-08-16T21:45:59.336Z</time>
      </trkpt>
      <trkpt lat="41.16989" lon="42.76379">
        <ele>1915.793426</ele>
        <time>2021-08-16T21:46:25.618Z</time>
      </trkpt>
      <trkpt lat="41.16942" lon="42.7623">
        <ele>1909.601137</ele>
        <time>2021-08-16T21:46:50.979Z</time>
      </trkpt>
      <trkpt lat="41.1689" lon="42.76194">
        <ele>1906.35531</ele>
        <time>2021-08-16T21:47:03.158Z</time>
      </trkpt>
      <trkpt lat="41.16869" lon="42.76162">
        <ele>1904.597289</ele>
        <time>2021-08-16T21:47:09.777Z</time>
      </trkpt>
      <trkpt lat="41.1685" lon="42.76079">
        <ele>1901.008305</ele>
        <time>2021-08-16T21:47:23.399Z</time>
      </trkpt>
      <trkpt lat="41.16785" lon="42.75896">
        <ele>1892.966592</ele>
        <time>2021-08-16T21:47:55.449Z</time>
      </trkpt>
      <trkpt lat="41.16756" lon="42.75863">
        <ele>1890.965188</ele>
        <time>2021-08-16T21:48:03.454Z</time>
      </trkpt>
      <trkpt lat="41.16731" lon="42.75843">
        <ele>1889.40729</ele>
        <time>2021-08-16T21:48:09.573Z</time>
      </trkpt>
      <trkpt lat="41.16697" lon="42.75792">
        <ele>1886.646176</ele>
        <time>2021-08-16T21:48:20.351Z</time>
      </trkpt>
      <trkpt lat="41.16649" lon="42.75675">
        <ele>1881.25011</ele>
        <time>2021-08-16T21:48:41.403Z</time>
      </trkpt>
      <trkpt lat="41.16572" lon="42.75548">
        <ele>1874.614218</ele>
        <time>2021-08-16T21:49:06.909Z</time>
      </trkpt>
      <trkpt lat="41.16516" lon="42.75374">
        <ele>1867.38065</ele>
        <time>2021-08-16T21:49:36.832Z</time>
      </trkpt>
      <trkpt lat="41.16487" lon="42.75263">
        <ele>1863.152605</ele>
        <time>2021-08-16T21:49:55.860Z</time>
      </trkpt>
      <trkpt lat="41.16474" lon="42.75117">
        <ele>1858.614803</ele>
        <time>2021-08-16T21:50:20.382Z</time>
      </trkpt>
      <trkpt lat="41.16479" lon="42.75077">
        <ele>1857.392687</ele>
        <time>2021-08-16T21:50:27.242Z</time>
      </trkpt>
      <trkpt lat="41.16531" lon="42.74989">
        <ele>1853.748741</ele>
        <time>2021-08-16T21:50:45.823Z</time>
      </trkpt>
      <trkpt lat="41.16557" lon="42.74901">
        <ele>1850.231638</ele>
        <time>2021-08-16T21:51:01.054Z</time>
      </trkpt>
      <trkpt lat="41.16556" lon="42.74894">
        <ele>1849.967385</ele>
        <time>2021-08-16T21:51:02.176Z</time>
      </trkpt>
      <trkpt lat="41.16544" lon="42.74895">
        <ele>1849.412377</ele>
        <time>2021-08-16T21:51:04.523Z</time>
      </trkpt>
      <trkpt lat="41.16501" lon="42.74945">
        <ele>1846.612614</ele>
        <time>2021-08-16T21:51:16.404Z</time>
      </trkpt>
      <trkpt lat="41.16489" lon="42.74943">
        <ele>1846.011342</ele>
        <time>2021-08-16T21:51:19.057Z</time>
      </trkpt>
      <trkpt lat="41.1651" lon="42.74878">
        <ele>1843.570484</ele>
        <time>2021-08-16T21:51:30.164Z</time>
      </trkpt>
      <trkpt lat="41.16511" lon="42.74848">
        <ele>1842.54664</ele>
        <time>2021-08-16T21:51:35.018Z</time>
      </trkpt>
      <trkpt lat="41.1648" lon="42.74793">
        <ele>1840.214999</ele>
        <time>2021-08-16T21:51:46.136Z</time>
      </trkpt>
      <trkpt lat="41.16478" lon="42.74775">
        <ele>1839.576396</ele>
        <time>2021-08-16T21:51:49.414Z</time>
      </trkpt>
      <trkpt lat="41.16481" lon="42.74748">
        <ele>1838.638904</ele>
        <time>2021-08-16T21:51:53.997Z</time>
      </trkpt>
      <trkpt lat="41.16487" lon="42.74722">
        <ele>1838.116941</ele>
        <time>2021-08-16T21:51:58.866Z</time>
      </trkpt>
      <trkpt lat="41.16491" lon="42.74708">
        <ele>1837.963801</ele>
        <time>2021-08-16T21:52:01.465Z</time>
      </trkpt>
      <trkpt lat="41.16487" lon="42.74694">
        <ele>1837.807775</ele>
        <time>2021-08-16T21:52:04.227Z</time>
      </trkpt>
      <trkpt lat="41.1648" lon="42.74678">
        <ele>1837.621577</ele>
        <time>2021-08-16T21:52:07.663Z</time>
      </trkpt>
      <trkpt lat="41.16471" lon="42.74668">
        <ele>1837.459472</ele>
        <time>2021-08-16T21:52:10.523Z</time>
      </trkpt>
      <trkpt lat="41.16423" lon="42.74653">
        <ele>1836.786258</ele>
        <time>2021-08-16T21:52:23.582Z</time>
      </trkpt>
      <trkpt lat="41.16404" lon="42.74639">
        <ele>1836.481548</ele>
        <time>2021-08-16T21:52:29.661Z</time>
      </trkpt>
      <trkpt lat="41.16373" lon="42.74598">
        <ele>1835.884994</ele>
        <time>2021-08-16T21:52:43.923Z</time>
      </trkpt>
      <trkpt lat="41.16192" lon="42.744">
        <ele>1834.737374</ele>
        <time>2021-08-16T21:53:53.076Z</time>
      </trkpt>
      <trkpt lat="41.15909" lon="42.74045">
        <ele>1830.426374</ele>
        <time>2021-08-16T21:55:35.450Z</time>
      </trkpt>
      <trkpt lat="41.1588" lon="42.74003">
        <ele>1830.010325</ele>
        <time>2021-08-16T21:55:46.768Z</time>
      </trkpt>
      <trkpt lat="41.15813" lon="42.73868">
        <ele>1829.503031</ele>
        <time>2021-08-16T21:56:21.260Z</time>
      </trkpt>
      <trkpt lat="41.15744" lon="42.73782">
        <ele>1829.581272</ele>
        <time>2021-08-16T21:56:52.351Z</time>
      </trkpt>
      <trkpt lat="41.15721" lon="42.73728">
        <ele>1829.922394</ele>
        <time>2021-08-16T21:57:09.391Z</time>
      </trkpt>
      <trkpt lat="41.15705" lon="42.73703">
        <ele>1830.232467</ele>
        <time>2021-08-16T21:57:18.878Z</time>
      </trkpt>
      <trkpt lat="41.15587" lon="42.73544">
        <ele>1832.337185</ele>
        <time>2021-08-16T21:58:24.692Z</time>
      </trkpt>
      <trkpt lat="41.15521" lon="42.73489">
        <ele>1833.3256</ele>
        <time>2021-08-16T21:58:54.801Z</time>
      </trkpt>
      <trkpt lat="41.15492" lon="42.7347">
        <ele>1833.739995</ele>
        <time>2021-08-16T21:59:07.088Z</time>
      </trkpt>
      <trkpt lat="41.1547" lon="42.73455">
        <ele>1834.051007</ele>
        <time>2021-08-16T21:59:16.300Z</time>
      </trkpt>
      <trkpt lat="41.1536" lon="42.73378">
        <ele>1835.233215</ele>
        <time>2021-08-16T22:00:01.789Z</time>
      </trkpt>
      <trkpt lat="41.15232" lon="42.7323">
        <ele>1836.496452</ele>
        <time>2021-08-16T22:01:02.307Z</time>
      </trkpt>
      <trkpt lat="41.15178" lon="42.73153">
        <ele>1836.916504</ele>
        <time>2021-08-16T22:01:29.134Z</time>
      </trkpt>
      <trkpt lat="41.15151" lon="42.73126">
        <ele>1836.758901</ele>
        <time>2021-08-16T22:01:39.716Z</time>
      </trkpt>
      <trkpt lat="41.15132" lon="42.73119">
        <ele>1836.664247</ele>
        <time>2021-08-16T22:01:45.851Z</time>
      </trkpt>
      <trkpt lat="41.15105" lon="42.73122">
        <ele>1836.537583</ele>
        <time>2021-08-16T22:01:53.800Z</time>
      </trkpt>
      <trkpt lat="41.15066" lon="42.73132">
        <ele>1836.353396</ele>
        <time>2021-08-16T22:02:04.849Z</time>
      </trkpt>
      <trkpt lat="41.1499" lon="42.7317">
        <ele>1835.875772</ele>
        <time>2021-08-16T22:02:26.557Z</time>
      </trkpt>
      <trkpt lat="41.14963" lon="42.73177">
        <ele>1835.654636</ele>
        <time>2021-08-16T22:02:33.908Z</time>
      </trkpt>
      <trkpt lat="41.14931" lon="42.73177">
        <ele>1835.398522</ele>
        <time>2021-08-16T22:02:42.437Z</time>
      </trkpt>
      <trkpt lat="41.14874" lon="42.73156">
        <ele>1834.926845</ele>
        <time>2021-08-16T22:02:58.444Z</time>
      </trkpt>
      <trkpt lat="41.14738" lon="42.73074">
        <ele>1835.607104</ele>
        <time>2021-08-16T22:03:46.547Z</time>
      </trkpt>
      <trkpt lat="41.1468" lon="42.73028">
        <ele>1836.257475</ele>
        <time>2021-08-16T22:04:14.157Z</time>
      </trkpt>
      <trkpt lat="41.14596" lon="42.72917">
        <ele>1839.356263</ele>
        <time>2021-08-16T22:05:08.362Z</time>
      </trkpt>
      <trkpt lat="41.14529" lon="42.72807">
        <ele>1841.92423</ele>
        <time>2021-08-16T22:06:00.044Z</time>
      </trkpt>
      <trkpt lat="41.14487" lon="42.72749">
        <ele>1843.23009</ele>
        <time>2021-08-16T22:06:27.847Z</time>
      </trkpt>
      <trkpt lat="41.14406" lon="42.72653">
        <ele>1844.343004</ele>
        <time>2021-08-16T22:07:09.693Z</time>
      </trkpt>
      <trkpt lat="41.14333" lon="42.726">
        <ele>1843.55987</ele>
        <time>2021-08-16T22:07:32.433Z</time>
      </trkpt>
      <trkpt lat="41.14293" lon="42.72562">
        <ele>1843.093197</ele>
        <time>2021-08-16T22:07:44.389Z</time>
      </trkpt>
      <trkpt lat="41.14206" lon="42.72529">
        <ele>1839.685475</ele>
        <time>2021-08-16T22:08:04.583Z</time>
      </trkpt>
      <trkpt lat="41.14179" lon="42.72502">
        <ele>1838.345579</ele>
        <time>2021-08-16T22:08:11.769Z</time>
      </trkpt>
      <trkpt lat="41.14168" lon="42.72476">
        <ele>1837.447143</ele>
        <time>2021-08-16T22:08:16.576Z</time>
      </trkpt>
      <trkpt lat="41.14152" lon="42.72307">
        <ele>1832.162317</ele>
        <time>2021-08-16T22:08:44.093Z</time>
      </trkpt>
      <trkpt lat="41.14144" lon="42.72276">
        <ele>1831.107997</ele>
        <time>2021-08-16T22:08:49.559Z</time>
      </trkpt>
      <trkpt lat="41.14137" lon="42.72265">
        <ele>1830.66961</ele>
        <time>2021-08-16T22:08:51.840Z</time>
      </trkpt>
      <trkpt lat="41.14047" lon="42.72219">
        <ele>1827.215321</ele>
        <time>2021-08-16T22:09:13.367Z</time>
      </trkpt>
      <trkpt lat="41.13961" lon="42.72163">
        <ele>1824.646735</ele>
        <time>2021-08-16T22:09:36.073Z</time>
      </trkpt>
      <trkpt lat="41.13919" lon="42.72127">
        <ele>1823.320407</ele>
        <time>2021-08-16T22:09:48.305Z</time>
      </trkpt>
      <trkpt lat="41.13898" lon="42.721">
        <ele>1822.680144</ele>
        <time>2021-08-16T22:09:55.445Z</time>
      </trkpt>
      <trkpt lat="41.13881" lon="42.72066">
        <ele>1822.00956</ele>
        <time>2021-08-16T22:10:02.937Z</time>
      </trkpt>
      <trkpt lat="41.1387" lon="42.72032">
        <ele>1821.404502</ele>
        <time>2021-08-16T22:10:09.721Z</time>
      </trkpt>
      <trkpt lat="41.13852" lon="42.71921">
        <ele>1819.52612</ele>
        <time>2021-08-16T22:10:30.711Z</time>
      </trkpt>
      <trkpt lat="41.13837" lon="42.7187">
        <ele>1818.540709</ele>
        <time>2021-08-16T22:10:40.605Z</time>
      </trkpt>
      <trkpt lat="41.13724" lon="42.7163">
        <ele>1813.684974</ele>
        <time>2021-08-16T22:11:31.617Z</time>
      </trkpt>
      <trkpt lat="41.1371" lon="42.71612">
        <ele>1813.291696</ele>
        <time>2021-08-16T22:11:36.266Z</time>
      </trkpt>
      <trkpt lat="41.13684" lon="42.71548">
        <ele>1812.165326</ele>
        <time>2021-08-16T22:11:50.149Z</time>
      </trkpt>
      <trkpt lat="41.13637" lon="42.71471">
        <ele>1810.724399</ele>
        <time>2021-08-16T22:12:09.080Z</time>
      </trkpt>
      <trkpt lat="41.13581" lon="42.71412">
        <ele>1809.413411</ele>
        <time>2021-08-16T22:12:27.328Z</time>
      </trkpt>
      <trkpt lat="41.13494" lon="42.71319">
        <ele>1807.144391</ele>
        <time>2021-08-16T22:12:54.350Z</time>
      </trkpt>
      <trkpt lat="41.1345" lon="42.71266">
        <ele>1805.771852</ele>
        <time>2021-08-16T22:13:08.417Z</time>
      </trkpt>
      <trkpt lat="41.13423" lon="42.71235">
        <ele>1804.94339</ele>
        <time>2021-08-16T22:13:17.001Z</time>
      </trkpt>
      <trkpt lat="41.13333" lon="42.71197">
        <ele>1803.37604</ele>
        <time>2021-08-16T22:13:41.207Z</time>
      </trkpt>
      <trkpt lat="41.13161" lon="42.71065">
        <ele>1801.750987</ele>
        <time>2021-08-16T22:14:38.698Z</time>
      </trkpt>
      <trkpt lat="41.12896" lon="42.70883">
        <ele>1802.716205</ele>
        <time>2021-08-16T22:16:20.204Z</time>
      </trkpt>
      <trkpt lat="41.12736" lon="42.70797">
        <ele>1806.671249</ele>
        <time>2021-08-16T22:17:39.753Z</time>
      </trkpt>
      <trkpt lat="41.1269" lon="42.70769">
        <ele>1808.485529</ele>
        <time>2021-08-16T22:18:06.973Z</time>
      </trkpt>
      <trkpt lat="41.12625" lon="42.70722">
        <ele>1811.155218</ele>
        <time>2021-08-16T22:18:47.796Z</time>
      </trkpt>
      <trkpt lat="41.12403" lon="42.70571">
        <ele>1818.977481</ele>
        <time>2021-08-16T22:20:55.900Z</time>
      </trkpt>
      <trkpt lat="41.12344" lon="42.70513">
        <ele>1819.750601</ele>
        <time>2021-08-16T22:21:26.039Z</time>
      </trkpt>
      <trkpt lat="41.12133" lon="42.70345">
        <ele>1819.878164</ele>
        <time>2021-08-16T22:22:43.594Z</time>
      </trkpt>
      <trkpt lat="41.12084" lon="42.70305">
        <ele>1818.553657</ele>
        <time>2021-08-16T22:22:59.017Z</time>
      </trkpt>
      <trkpt lat="41.12054" lon="42.70289">
        <ele>1817.515334</ele>
        <time>2021-08-16T22:23:07.037Z</time>
      </trkpt>
      <trkpt lat="41.12017" lon="42.70271">
        <ele>1816.252788</ele>
        <time>2021-08-16T22:23:16.369Z</time>
      </trkpt>
      <trkpt lat="41.11995" lon="42.70255">
        <ele>1815.439209</ele>
        <time>2021-08-16T22:23:22.191Z</time>
      </trkpt>
      <trkpt lat="41.1199" lon="42.70251">
        <ele>1815.25191</ele>
        <time>2021-08-16T22:23:23.541Z</time>
      </trkpt>
      <trkpt lat="41.1196" lon="42.70221">
        <ele>1814.058348</ele>
        <time>2021-08-16T22:23:31.870Z</time>
      </trkpt>
      <trkpt lat="41.11945" lon="42.70204">
        <ele>1812.783813</ele>
        <time>2021-08-16T22:23:36.323Z</time>
      </trkpt>
      <trkpt lat="41.11942" lon="42.702">
        <ele>1812.496108</ele>
        <time>2021-08-16T22:23:37.168Z</time>
      </trkpt>
      <trkpt lat="41.11926" lon="42.70181">
        <ele>1810.969759</ele>
        <time>2021-08-16T22:23:42.070Z</time>
      </trkpt>
      <trkpt lat="41.11912" lon="42.70164">
        <ele>1809.671946</ele>
        <time>2021-08-16T22:23:45.984Z</time>
      </trkpt>
      <trkpt lat="41.11881" lon="42.7013">
        <ele>1806.91932</ele>
        <time>2021-08-16T22:23:54.292Z</time>
      </trkpt>
      <trkpt lat="41.11868" lon="42.70119">
        <ele>1805.829528</ele>
        <time>2021-08-16T22:23:57.685Z</time>
      </trkpt>
      <trkpt lat="41.11857" lon="42.70115">
        <ele>1805.019686</ele>
        <time>2021-08-16T22:23:59.968Z</time>
      </trkpt>
      <trkpt lat="41.11853" lon="42.70113">
        <ele>1804.783552</ele>
        <time>2021-08-16T22:24:00.640Z</time>
      </trkpt>
      <trkpt lat="41.11837" lon="42.70112">
        <ele>1803.669332</ele>
        <time>2021-08-16T22:24:04.187Z</time>
      </trkpt>
      <trkpt lat="41.11832" lon="42.70112">
        <ele>1803.303563</ele>
        <time>2021-08-16T22:24:05.241Z</time>
      </trkpt>
      <trkpt lat="41.11826" lon="42.70112">
        <ele>1802.889452</ele>
        <time>2021-08-16T22:24:06.416Z</time>
      </trkpt>
      <trkpt lat="41.11794" lon="42.70111">
        <ele>1800.96288</ele>
        <time>2021-08-16T22:24:12.903Z</time>
      </trkpt>
      <trkpt lat="41.11763" lon="42.7011">
        <ele>1799.428879</ele>
        <time>2021-08-16T22:24:19.539Z</time>
      </trkpt>
      <trkpt lat="41.11756" lon="42.70107">
        <ele>1799.0646</ele>
        <time>2021-08-16T22:24:20.992Z</time>
      </trkpt>
      <trkpt lat="41.11728" lon="42.70091">
        <ele>1797.616765</ele>
        <time>2021-08-16T22:24:27.598Z</time>
      </trkpt>
      <trkpt lat="41.11712" lon="42.70085">
        <ele>1796.767319</ele>
        <time>2021-08-16T22:24:31.194Z</time>
      </trkpt>
      <trkpt lat="41.11676" lon="42.70079">
        <ele>1795.018107</ele>
        <time>2021-08-16T22:24:39.468Z</time>
      </trkpt>
      <trkpt lat="41.11665" lon="42.7008">
        <ele>1794.499733</ele>
        <time>2021-08-16T22:24:42.328Z</time>
      </trkpt>
      <trkpt lat="41.11661" lon="42.70081">
        <ele>1794.304221</ele>
        <time>2021-08-16T22:24:43.478Z</time>
      </trkpt>
      <trkpt lat="41.11657" lon="42.70081">
        <ele>1794.108708</ele>
        <time>2021-08-16T22:24:44.489Z</time>
      </trkpt>
      <trkpt lat="41.1161" lon="42.70082">
        <ele>1793.226908</ele>
        <time>2021-08-16T22:24:56.478Z</time>
      </trkpt>
      <trkpt lat="41.11525" lon="42.70106">
        <ele>1794.886948</ele>
        <time>2021-08-16T22:25:30.823Z</time>
      </trkpt>
      <trkpt lat="41.11509" lon="42.70114">
        <ele>1795.229077</ele>
        <time>2021-08-16T22:25:41.143Z</time>
      </trkpt>
      <trkpt lat="41.11486" lon="42.7013">
        <ele>1795.725878</ele>
        <time>2021-08-16T22:25:53.769Z</time>
      </trkpt>
      <trkpt lat="41.11481" lon="42.70137">
        <ele>1795.860147</ele>
        <time>2021-08-16T22:25:59.092Z</time>
      </trkpt>
      <trkpt lat="41.11472" lon="42.70111">
        <ele>1796.277182</ele>
        <time>2021-08-16T22:26:10.671Z</time>
      </trkpt>
      <trkpt lat="41.11452" lon="42.70058">
        <ele>1797.100724</ele>
        <time>2021-08-16T22:26:35.592Z</time>
      </trkpt>
      <trkpt lat="41.11428" lon="42.7007">
        <ele>1797.575495</ele>
        <time>2021-08-16T22:26:48.392Z</time>
      </trkpt>
      <trkpt lat="41.1135" lon="42.70105">
        <ele>1799.108008</ele>
        <time>2021-08-16T22:27:21.267Z</time>
      </trkpt>
      <trkpt lat="41.11324" lon="42.70041">
        <ele>1799.097384</ele>
        <time>2021-08-16T22:27:38.369Z</time>
      </trkpt>
      <trkpt lat="41.11266" lon="42.69889">
        <ele>1796.522896</ele>
        <time>2021-08-16T22:28:10.623Z</time>
      </trkpt>
      <trkpt lat="41.11213" lon="42.69751">
        <ele>1794.04147</ele>
        <time>2021-08-16T22:28:38.933Z</time>
      </trkpt>
      <trkpt lat="41.1119" lon="42.69698">
        <ele>1793.044818</ele>
        <time>2021-08-16T22:28:50.949Z</time>
      </trkpt>
      <trkpt lat="41.11152" lon="42.69687">
        <ele>1792.200911</ele>
        <time>2021-08-16T22:29:01.580Z</time>
      </trkpt>
      <trkpt lat="41.11107" lon="42.69658">
        <ele>1791.967384</ele>
        <time>2021-08-16T22:29:16.108Z</time>
      </trkpt>
      <trkpt lat="41.11078" lon="42.69626">
        <ele>1791.832932</ele>
        <time>2021-08-16T22:29:27.349Z</time>
      </trkpt>
      <trkpt lat="41.11045" lon="42.69619">
        <ele>1791.71345</ele>
        <time>2021-08-16T22:29:37.586Z</time>
      </trkpt>
      <trkpt lat="41.10974" lon="42.69601">
        <ele>1791.547117</ele>
        <time>2021-08-16T22:30:02.099Z</time>
      </trkpt>
      <trkpt lat="41.10953" lon="42.69569">
        <ele>1791.697158</ele>
        <time>2021-08-16T22:30:12.643Z</time>
      </trkpt>
      <trkpt lat="41.10936" lon="42.6954">
        <ele>1791.829947</ele>
        <time>2021-08-16T22:30:21.973Z</time>
      </trkpt>
      <trkpt lat="41.10889" lon="42.69477">
        <ele>1792.144401</ele>
        <time>2021-08-16T22:30:44.589Z</time>
      </trkpt>
      <trkpt lat="41.10801" lon="42.69369">
        <ele>1792.792747</ele>
        <time>2021-08-16T22:31:26.282Z</time>
      </trkpt>
      <trkpt lat="41.10726" lon="42.6927">
        <ele>1793.428965</ele>
        <time>2021-08-16T22:32:01.673Z</time>
      </trkpt>
      <trkpt lat="41.10701" lon="42.69218">
        <ele>1794.081455</ele>
        <time>2021-08-16T22:32:18.514Z</time>
      </trkpt>
      <trkpt lat="41.10684" lon="42.69182">
        <ele>1794.534108</ele>
        <time>2021-08-16T22:32:30.797Z</time>
      </trkpt>
      <trkpt lat="41.1067" lon="42.69148">
        <ele>1794.941997</ele>
        <time>2021-08-16T22:32:42.465Z</time>
      </trkpt>
      <trkpt lat="41.10535" lon="42.68693">
        <ele>1801.034343</ele>
        <time>2021-08-16T22:35:19.596Z</time>
      </trkpt>
      <trkpt lat="41.10519" lon="42.6865">
        <ele>1801.480967</ele>
        <time>2021-08-16T22:35:30.814Z</time>
      </trkpt>
      <trkpt lat="41.10487" lon="42.68597">
        <ele>1801.677895</ele>
        <time>2021-08-16T22:35:45.570Z</time>
      </trkpt>
      <trkpt lat="41.1047" lon="42.68569">
        <ele>1801.589573</ele>
        <time>2021-08-16T22:35:52.845Z</time>
      </trkpt>
      <trkpt lat="41.10465" lon="42.68562">
        <ele>1801.56433</ele>
        <time>2021-08-16T22:35:54.918Z</time>
      </trkpt>
      <trkpt lat="41.1037" lon="42.68404">
        <ele>1801.424104</ele>
        <time>2021-08-16T22:36:39.600Z</time>
      </trkpt>
      <trkpt lat="41.10291" lon="42.68271">
        <ele>1802.379115</ele>
        <time>2021-08-16T22:37:27.713Z</time>
      </trkpt>
      <trkpt lat="41.102" lon="42.68114">
        <ele>1803.376198</ele>
        <time>2021-08-16T22:38:21.283Z</time>
      </trkpt>
      <trkpt lat="41.1011" lon="42.67971">
        <ele>1803.629563</ele>
        <time>2021-08-16T22:39:05.544Z</time>
      </trkpt>
      <trkpt lat="41.10086" lon="42.6792">
        <ele>1803.596037</ele>
        <time>2021-08-16T22:39:19.638Z</time>
      </trkpt>
      <trkpt lat="41.10026" lon="42.67801">
        <ele>1803.058615</ele>
        <time>2021-08-16T22:39:50.954Z</time>
      </trkpt>
      <trkpt lat="41.10014" lon="42.67779">
        <ele>1802.9023</ele>
        <time>2021-08-16T22:39:56.711Z</time>
      </trkpt>
      <trkpt lat="41.09996" lon="42.67712">
        <ele>1802.486423</ele>
        <time>2021-08-16T22:40:11.411Z</time>
      </trkpt>
      <trkpt lat="41.09967" lon="42.67608">
        <ele>1801.627912</ele>
        <time>2021-08-16T22:40:33.842Z</time>
      </trkpt>
      <trkpt lat="41.09928" lon="42.67454">
        <ele>1800.083991</ele>
        <time>2021-08-16T22:41:05.429Z</time>
      </trkpt>
      <trkpt lat="41.09919" lon="42.67419">
        <ele>1799.854246</ele>
        <time>2021-08-16T22:41:12.849Z</time>
      </trkpt>
      <trkpt lat="41.09911" lon="42.67392">
        <ele>1799.78352</ele>
        <time>2021-08-16T22:41:18.989Z</time>
      </trkpt>
      <trkpt lat="41.09894" lon="42.67326">
        <ele>1799.618964</ele>
        <time>2021-08-16T22:41:33.810Z</time>
      </trkpt>
      <trkpt lat="41.09876" lon="42.6725">
        <ele>1799.429825</ele>
        <time>2021-08-16T22:41:52.104Z</time>
      </trkpt>
      <trkpt lat="41.09875" lon="42.67243">
        <ele>1799.413368</ele>
        <time>2021-08-16T22:41:53.752Z</time>
      </trkpt>
      <trkpt lat="41.09872" lon="42.67232">
        <ele>1799.385566</ele>
        <time>2021-08-16T22:41:56.840Z</time>
      </trkpt>
      <trkpt lat="41.09862" lon="42.67195">
        <ele>1799.478981</ele>
        <time>2021-08-16T22:42:06.960Z</time>
      </trkpt>
      <trkpt lat="41.09857" lon="42.6718">
        <ele>1799.645325</ele>
        <time>2021-08-16T22:42:11.666Z</time>
      </trkpt>
      <trkpt lat="41.09819" lon="42.67037">
        <ele>1801.144336</ele>
        <time>2021-08-16T22:42:55.466Z</time>
      </trkpt>
      <trkpt lat="41.09773" lon="42.66872">
        <ele>1803.582784</ele>
        <time>2021-08-16T22:43:51.805Z</time>
      </trkpt>
      <trkpt lat="41.09725" lon="42.66705">
        <ele>1806.380409</ele>
        <time>2021-08-16T22:44:50.505Z</time>
      </trkpt>
      <trkpt lat="41.09691" lon="42.66609">
        <ele>1808.058701</ele>
        <time>2021-08-16T22:45:25.356Z</time>
      </trkpt>
      <trkpt lat="41.09653" lon="42.66534">
        <ele>1809.421189</ele>
        <time>2021-08-16T22:45:54.034Z</time>
      </trkpt>
      <trkpt lat="41.09588" lon="42.6642">
        <ele>1811.124369</ele>
        <time>2021-08-16T22:46:37.718Z</time>
      </trkpt>
      <trkpt lat="41.09475" lon="42.66244">
        <ele>1813.229355</ele>
        <time>2021-08-16T22:47:43.451Z</time>
      </trkpt>
      <trkpt lat="41.09393" lon="42.66143">
        <ele>1814.485255</ele>
        <time>2021-08-16T22:48:22.983Z</time>
      </trkpt>
      <trkpt lat="41.085" lon="42.65171">
        <ele>1828.998448</ele>
        <time>2021-08-16T22:55:45.889Z</time>
      </trkpt>
      <trkpt lat="41.08447" lon="42.65119">
        <ele>1829.787717</ele>
        <time>2021-08-16T22:56:10.502Z</time>
      </trkpt>
      <trkpt lat="41.08343" lon="42.6504">
        <ele>1831.103811</ele>
        <time>2021-08-16T22:56:54.111Z</time>
      </trkpt>
      <trkpt lat="41.08025" lon="42.64845">
        <ele>1836.104993</ele>
        <time>2021-08-16T22:59:08.439Z</time>
      </trkpt>
      <trkpt lat="41.07908" lon="42.64764">
        <ele>1839.146787</ele>
        <time>2021-08-16T23:00:09.748Z</time>
      </trkpt>
      <trkpt lat="41.07865" lon="42.64727">
        <ele>1840.562579</ele>
        <time>2021-08-16T23:00:34.550Z</time>
      </trkpt>
      <trkpt lat="41.07825" lon="42.64684">
        <ele>1841.971446</ele>
        <time>2021-08-16T23:00:58.404Z</time>
      </trkpt>
      <trkpt lat="41.07774" lon="42.64604">
        <ele>1843.732438</ele>
        <time>2021-08-16T23:01:33.205Z</time>
      </trkpt>
      <trkpt lat="41.07711" lon="42.64489">
        <ele>1846.063621</ele>
        <time>2021-08-16T23:02:19.115Z</time>
      </trkpt>
      <trkpt lat="41.07683" lon="42.64427">
        <ele>1846.870222</ele>
        <time>2021-08-16T23:02:42.464Z</time>
      </trkpt>
      <trkpt lat="41.07617" lon="42.64277">
        <ele>1848.72999</ele>
        <time>2021-08-16T23:03:33.034Z</time>
      </trkpt>
      <trkpt lat="41.07554" lon="42.64157">
        <ele>1849.050967</ele>
        <time>2021-08-16T23:04:09.672Z</time>
      </trkpt>
      <trkpt lat="41.07505" lon="42.64076">
        <ele>1849.341031</ele>
        <time>2021-08-16T23:04:32.863Z</time>
      </trkpt>
      <trkpt lat="41.07463" lon="42.64019">
        <ele>1849.753376</ele>
        <time>2021-08-16T23:04:51.838Z</time>
      </trkpt>
      <trkpt lat="41.07385" lon="42.6394">
        <ele>1850.427134</ele>
        <time>2021-08-16T23:05:26.604Z</time>
      </trkpt>
      <trkpt lat="41.0722" lon="42.63805">
        <ele>1856.339015</ele>
        <time>2021-08-16T23:06:57.083Z</time>
      </trkpt>
      <trkpt lat="41.07033" lon="42.63664">
        <ele>1869.861115</ele>
        <time>2021-08-16T23:09:25.750Z</time>
      </trkpt>
      <trkpt lat="41.06997" lon="42.63628">
        <ele>1872.886757</ele>
        <time>2021-08-16T23:09:58.767Z</time>
      </trkpt>
      <trkpt lat="41.06924" lon="42.63538">
        <ele>1879.371484</ele>
        <time>2021-08-16T23:11:06.252Z</time>
      </trkpt>
      <trkpt lat="41.06779" lon="42.6335">
        <ele>1889.687945</ele>
        <time>2021-08-16T23:13:06.132Z</time>
      </trkpt>
      <trkpt lat="41.06689" lon="42.63194">
        <ele>1896.333002</ele>
        <time>2021-08-16T23:14:28.723Z</time>
      </trkpt>
      <trkpt lat="41.06647" lon="42.63104">
        <ele>1899.38323</ele>
        <time>2021-08-16T23:15:12.294Z</time>
      </trkpt>
      <trkpt lat="41.06576" lon="42.62857">
        <ele>1906.323929</ele>
        <time>2021-08-16T23:16:53.155Z</time>
      </trkpt>
      <trkpt lat="41.06556" lon="42.6276">
        <ele>1908.764264</ele>
        <time>2021-08-16T23:17:29.733Z</time>
      </trkpt>
      <trkpt lat="41.06543" lon="42.62668">
        <ele>1910.171191</ele>
        <time>2021-08-16T23:18:01.946Z</time>
      </trkpt>
      <trkpt lat="41.06523" lon="42.62543">
        <ele>1911.995367</ele>
        <time>2021-08-16T23:18:41.595Z</time>
      </trkpt>
      <trkpt lat="41.06373" lon="42.62042">
        <ele>1914.094335</ele>
        <time>2021-08-16T23:20:56.676Z</time>
      </trkpt>
      <trkpt lat="41.06316" lon="42.61886">
        <ele>1915.197718</ele>
        <time>2021-08-16T23:21:43.659Z</time>
      </trkpt>
      <trkpt lat="41.0627" lon="42.6178">
        <ele>1916.581048</ele>
        <time>2021-08-16T23:22:19.496Z</time>
      </trkpt>
      <trkpt lat="41.06108" lon="42.61499">
        <ele>1921.649736</ele>
        <time>2021-08-16T23:24:11.946Z</time>
      </trkpt>
      <trkpt lat="41.06008" lon="42.61313">
        <ele>1925.347957</ele>
        <time>2021-08-16T23:25:28.777Z</time>
      </trkpt>
      <trkpt lat="41.05942" lon="42.61209">
        <ele>1926.482836</ele>
        <time>2021-08-16T23:26:08.816Z</time>
      </trkpt>
      <trkpt lat="41.05647" lon="42.60837">
        <ele>1929.245747</ele>
        <time>2021-08-16T23:28:25.959Z</time>
      </trkpt>
      <trkpt lat="41.05622" lon="42.60794">
        <ele>1929.522586</ele>
        <time>2021-08-16T23:28:41.039Z</time>
      </trkpt>
      <trkpt lat="41.05597" lon="42.60726">
        <ele>1930.151533</ele>
        <time>2021-08-16T23:29:02.536Z</time>
      </trkpt>
      <trkpt lat="41.05561" lon="42.60473">
        <ele>1932.049084</ele>
        <time>2021-08-16T23:30:18.946Z</time>
      </trkpt>
      <trkpt lat="41.0554" lon="42.60393">
        <ele>1932.112655</ele>
        <time>2021-08-16T23:30:40.139Z</time>
      </trkpt>
      <trkpt lat="41.05511" lon="42.60331">
        <ele>1932.167724</ele>
        <time>2021-08-16T23:30:56.044Z</time>
      </trkpt>
      <trkpt lat="41.05405" lon="42.60176">
        <ele>1928.123943</ele>
        <time>2021-08-16T23:31:33.381Z</time>
      </trkpt>
      <trkpt lat="41.05351" lon="42.60079">
        <ele>1925.611111</ele>
        <time>2021-08-16T23:31:53.291Z</time>
      </trkpt>
      <trkpt lat="41.05285" lon="42.59879">
        <ele>1922.085988</ele>
        <time>2021-08-16T23:32:32.678Z</time>
      </trkpt>
      <trkpt lat="41.05192" lon="42.59583">
        <ele>1920.943082</ele>
        <time>2021-08-16T23:33:53.527Z</time>
      </trkpt>
      <trkpt lat="41.05198" lon="42.59556">
        <ele>1920.822041</ele>
        <time>2021-08-16T23:33:59.547Z</time>
      </trkpt>
      <trkpt lat="41.0522" lon="42.59428">
        <ele>1919.437491</ele>
        <time>2021-08-16T23:34:24.831Z</time>
      </trkpt>
      <trkpt lat="41.05213" lon="42.59344">
        <ele>1917.994716</ele>
        <time>2021-08-16T23:34:40.323Z</time>
      </trkpt>
      <trkpt lat="41.05197" lon="42.59267">
        <ele>1916.622484</ele>
        <time>2021-08-16T23:34:55.611Z</time>
      </trkpt>
      <trkpt lat="41.05155" lon="42.59157">
        <ele>1914.98652</ele>
        <time>2021-08-16T23:35:21.197Z</time>
      </trkpt>
      <trkpt lat="41.05109" lon="42.5903">
        <ele>1912.75179</ele>
        <time>2021-08-16T23:35:49.852Z</time>
      </trkpt>
      <trkpt lat="41.05092" lon="42.5899">
        <ele>1910.816438</ele>
        <time>2021-08-16T23:35:58.555Z</time>
      </trkpt>
      <trkpt lat="41.05456" lon="42.58629">
        <ele>1884.853368</ele>
        <time>2021-08-16T23:37:31.452Z</time>
      </trkpt>
      <trkpt lat="41.05542" lon="42.58534">
        <ele>1878.203384</ele>
        <time>2021-08-16T23:37:54.224Z</time>
      </trkpt>
      <trkpt lat="41.05614" lon="42.58438">
        <ele>1872.230767</ele>
        <time>2021-08-16T23:38:15.402Z</time>
      </trkpt>
      <trkpt lat="41.05676" lon="42.58333">
        <ele>1867.866513</ele>
        <time>2021-08-16T23:38:36.848Z</time>
      </trkpt>
      <trkpt lat="41.05748" lon="42.58166">
        <ele>1862.759172</ele>
        <time>2021-08-16T23:39:09.745Z</time>
      </trkpt>
      <trkpt lat="41.05799" lon="42.57964">
        <ele>1859.038155</ele>
        <time>2021-08-16T23:39:49.198Z</time>
      </trkpt>
      <trkpt lat="41.05896" lon="42.57303">
        <ele>1850.630049</ele>
        <time>2021-08-16T23:41:57.191Z</time>
      </trkpt>
      <trkpt lat="41.05863" lon="42.5714">
        <ele>1850.959118</ele>
        <time>2021-08-16T23:42:38.374Z</time>
      </trkpt>
      <trkpt lat="41.05753" lon="42.56925">
        <ele>1853.451393</ele>
        <time>2021-08-16T23:43:56.747Z</time>
      </trkpt>
      <trkpt lat="41.05721" lon="42.56719">
        <ele>1856.006038</ele>
        <time>2021-08-16T23:45:01.091Z</time>
      </trkpt>
      <trkpt lat="41.05708" lon="42.56565">
        <ele>1857.815965</ele>
        <time>2021-08-16T23:45:47.508Z</time>
      </trkpt>
      <trkpt lat="41.0576" lon="42.56067">
        <ele>1863.878401</ele>
        <time>2021-08-16T23:48:17.252Z</time>
      </trkpt>
      <trkpt lat="41.05805" lon="42.55887">
        <ele>1867.157021</ele>
        <time>2021-08-16T23:49:20.904Z</time>
      </trkpt>
      <trkpt lat="41.05876" lon="42.5575">
        <ele>1870.827429</ele>
        <time>2021-08-16T23:50:22.940Z</time>
      </trkpt>
      <trkpt lat="41.05956" lon="42.55643">
        <ele>1873.396267</ele>
        <time>2021-08-16T23:51:16.671Z</time>
      </trkpt>
      <trkpt lat="41.05989" lon="42.5561">
        <ele>1874.328961</ele>
        <time>2021-08-16T23:51:34.391Z</time>
      </trkpt>
      <trkpt lat="41.06429" lon="42.55365">
        <ele>1876.095939</ele>
        <time>2021-08-16T23:54:10.124Z</time>
      </trkpt>
      <trkpt lat="41.06608" lon="42.55252">
        <ele>1875.558856</ele>
        <time>2021-08-16T23:55:07.711Z</time>
      </trkpt>
      <trkpt lat="41.06701" lon="42.55148">
        <ele>1875.068018</ele>
        <time>2021-08-16T23:55:42.939Z</time>
      </trkpt>
      <trkpt lat="41.06726" lon="42.55118">
        <ele>1874.954884</ele>
        <time>2021-08-16T23:55:52.517Z</time>
      </trkpt>
      <trkpt lat="41.06751" lon="42.55072">
        <ele>1874.807834</ele>
        <time>2021-08-16T23:56:05.085Z</time>
      </trkpt>
      <trkpt lat="41.06788" lon="42.55002">
        <ele>1874.711938</ele>
        <time>2021-08-16T23:56:24.513Z</time>
      </trkpt>
      <trkpt lat="41.06831" lon="42.54876">
        <ele>1875.631385</ele>
        <time>2021-08-16T23:56:59.236Z</time>
      </trkpt>
      <trkpt lat="41.06957" lon="42.54193">
        <ele>1886.543489</ele>
        <time>2021-08-17T00:00:43.171Z</time>
      </trkpt>
      <trkpt lat="41.07067" lon="42.53666">
        <ele>1904.576728</ele>
        <time>2021-08-17T00:04:42.089Z</time>
      </trkpt>
      <trkpt lat="41.07103" lon="42.53469">
        <ele>1909.41145</ele>
        <time>2021-08-17T00:05:58.842Z</time>
      </trkpt>
      <trkpt lat="41.07115" lon="42.53296">
        <ele>1911.309194</ele>
        <time>2021-08-17T00:06:51.021Z</time>
      </trkpt>
      <trkpt lat="41.07114" lon="42.53212">
        <ele>1911.651865</ele>
        <time>2021-08-17T00:07:11.291Z</time>
      </trkpt>
      <trkpt lat="41.07081" lon="42.53038">
        <ele>1910.354163</ele>
        <time>2021-08-17T00:07:47.633Z</time>
      </trkpt>
      <trkpt lat="41.07013" lon="42.5285">
        <ele>1907.193799</ele>
        <time>2021-08-17T00:08:26.149Z</time>
      </trkpt>
      <trkpt lat="41.06954" lon="42.52671">
        <ele>1903.010664</ele>
        <time>2021-08-17T00:09:00.465Z</time>
      </trkpt>
      <trkpt lat="41.06868" lon="42.52462">
        <ele>1896.259035</ele>
        <time>2021-08-17T00:09:40.433Z</time>
      </trkpt>
      <trkpt lat="41.0667" lon="42.5212">
        <ele>1881.456991</ele>
        <time>2021-08-17T00:10:50.042Z</time>
      </trkpt>
      <trkpt lat="41.06435" lon="42.5173">
        <ele>1864.465108</ele>
        <time>2021-08-17T00:12:11.352Z</time>
      </trkpt>
      <trkpt lat="41.06255" lon="42.51448">
        <ele>1851.283879</ele>
        <time>2021-08-17T00:13:10.608Z</time>
      </trkpt>
      <trkpt lat="41.06092" lon="42.51089">
        <ele>1837.793289</ele>
        <time>2021-08-17T00:14:19.611Z</time>
      </trkpt>
      <trkpt lat="41.06125" lon="42.51043">
        <ele>1835.795436</ele>
        <time>2021-08-17T00:14:29.951Z</time>
      </trkpt>
      <trkpt lat="41.06146" lon="42.50994">
        <ele>1834.007313</ele>
        <time>2021-08-17T00:14:39.280Z</time>
      </trkpt>
      <trkpt lat="41.06155" lon="42.50957">
        <ele>1833.082187</ele>
        <time>2021-08-17T00:14:45.816Z</time>
      </trkpt>
      <trkpt lat="41.06157" lon="42.50872">
        <ele>1831.295909</ele>
        <time>2021-08-17T00:15:00.252Z</time>
      </trkpt>
      <trkpt lat="41.06173" lon="42.50792">
        <ele>1829.570173</ele>
        <time>2021-08-17T00:15:15.228Z</time>
      </trkpt>
      <trkpt lat="41.06207" lon="42.50713">
        <ele>1828.472156</ele>
        <time>2021-08-17T00:15:33.144Z</time>
      </trkpt>
      <trkpt lat="41.06266" lon="42.50636">
        <ele>1827.981826</ele>
        <time>2021-08-17T00:15:56.631Z</time>
      </trkpt>
      <trkpt lat="41.06297" lon="42.50609">
        <ele>1827.763678</ele>
        <time>2021-08-17T00:16:07.923Z</time>
      </trkpt>
      <trkpt lat="41.06371" lon="42.50558">
        <ele>1827.835258</ele>
        <time>2021-08-17T00:16:34.722Z</time>
      </trkpt>
      <trkpt lat="41.06477" lon="42.5054">
        <ele>1828.20227</ele>
        <time>2021-08-17T00:17:10.344Z</time>
      </trkpt>
      <trkpt lat="41.06506" lon="42.5051">
        <ele>1828.415239</ele>
        <time>2021-08-17T00:17:23.092Z</time>
      </trkpt>
      <trkpt lat="41.06531" lon="42.50465">
        <ele>1828.710724</ele>
        <time>2021-08-17T00:17:38.563Z</time>
      </trkpt>
      <trkpt lat="41.06558" lon="42.50446">
        <ele>1828.920663</ele>
        <time>2021-08-17T00:17:49.512Z</time>
      </trkpt>
      <trkpt lat="41.06567" lon="42.5044">
        <ele>1828.99303</ele>
        <time>2021-08-17T00:17:53.758Z</time>
      </trkpt>
      <trkpt lat="41.06586" lon="42.50426">
        <ele>1829.144812</ele>
        <time>2021-08-17T00:18:01.307Z</time>
      </trkpt>
      <trkpt lat="41.06624" lon="42.5041">
        <ele>1829.426158</ele>
        <time>2021-08-17T00:18:14.848Z</time>
      </trkpt>
      <trkpt lat="41.06634" lon="42.50393">
        <ele>1829.4913</ele>
        <time>2021-08-17T00:18:20.859Z</time>
      </trkpt>
      <trkpt lat="41.06634" lon="42.50376">
        <ele>1829.468176</ele>
        <time>2021-08-17T00:18:24.715Z</time>
      </trkpt>
      <trkpt lat="41.06637" lon="42.50359">
        <ele>1829.443651</ele>
        <time>2021-08-17T00:18:28.504Z</time>
      </trkpt>
      <trkpt lat="41.06638" lon="42.50353">
        <ele>1829.434472</ele>
        <time>2021-08-17T00:18:30.233Z</time>
      </trkpt>
      <trkpt lat="41.06652" lon="42.50293">
        <ele>1829.345365</ele>
        <time>2021-08-17T00:18:44.592Z</time>
      </trkpt>
      <trkpt lat="41.06657" lon="42.50252">
        <ele>1829.286883</ele>
        <time>2021-08-17T00:18:53.806Z</time>
      </trkpt>
      <trkpt lat="41.06655" lon="42.50193">
        <ele>1829.203328</ele>
        <time>2021-08-17T00:19:07.314Z</time>
      </trkpt>
      <trkpt lat="41.0665" lon="42.50164">
        <ele>1829.151452</ele>
        <time>2021-08-17T00:19:13.481Z</time>
      </trkpt>
      <trkpt lat="41.06644" lon="42.50124">
        <ele>1828.964191</ele>
        <time>2021-08-17T00:19:21.998Z</time>
      </trkpt>
      <trkpt lat="41.06636" lon="42.50092">
        <ele>1828.810072</ele>
        <time>2021-08-17T00:19:29.095Z</time>
      </trkpt>
      <trkpt lat="41.06628" lon="42.50051">
        <ele>1828.609137</ele>
        <time>2021-08-17T00:19:38.172Z</time>
      </trkpt>
      <trkpt lat="41.0662" lon="42.50016">
        <ele>1828.440437</ele>
        <time>2021-08-17T00:19:45.979Z</time>
      </trkpt>
      <trkpt lat="41.06627" lon="42.49963">
        <ele>1828.190861</ele>
        <time>2021-08-17T00:19:57.749Z</time>
      </trkpt>
      <trkpt lat="41.06858" lon="42.48805">
        <ele>1822.919135</ele>
        <time>2021-08-17T00:24:14.896Z</time>
      </trkpt>
      <trkpt lat="41.0688" lon="42.48742">
        <ele>1822.737242</ele>
        <time>2021-08-17T00:24:30.066Z</time>
      </trkpt>
      <trkpt lat="41.06912" lon="42.48685">
        <ele>1822.612918</ele>
        <time>2021-08-17T00:24:45.707Z</time>
      </trkpt>
      <trkpt lat="41.07059" lon="42.48428">
        <ele>1822.622761</ele>
        <time>2021-08-17T00:26:01.533Z</time>
      </trkpt>
      <trkpt lat="41.07105" lon="42.48355">
        <ele>1823.020293</ele>
        <time>2021-08-17T00:26:26.377Z</time>
      </trkpt>
      <trkpt lat="41.07117" lon="42.4831">
        <ele>1823.311724</ele>
        <time>2021-08-17T00:26:38.956Z</time>
      </trkpt>
      <trkpt lat="41.0712" lon="42.48284">
        <ele>1823.476356</ele>
        <time>2021-08-17T00:26:46.166Z</time>
      </trkpt>
      <trkpt lat="41.07094" lon="42.48105">
        <ele>1825.098731</ele>
        <time>2021-08-17T00:27:37.062Z</time>
      </trkpt>
      <trkpt lat="41.07089" lon="42.48069">
        <ele>1825.580417</ele>
        <time>2021-08-17T00:27:47.720Z</time>
      </trkpt>
      <trkpt lat="41.0702" lon="42.47548">
        <ele>1832.948098</ele>
        <time>2021-08-17T00:30:34.390Z</time>
      </trkpt>
      <trkpt lat="41.0703" lon="42.46354">
        <ele>1855.531362</ele>
        <time>2021-08-17T00:37:33.357Z</time>
      </trkpt>
      <trkpt lat="41.07021" lon="42.46322">
        <ele>1855.889441</ele>
        <time>2021-08-17T00:37:41.224Z</time>
      </trkpt>
      <trkpt lat="41.06889" lon="42.46035">
        <ele>1852.35334</ele>
        <time>2021-08-17T00:38:43.578Z</time>
      </trkpt>
      <trkpt lat="41.06861" lon="42.45957">
        <ele>1851.406207</ele>
        <time>2021-08-17T00:38:59.902Z</time>
      </trkpt>
      <trkpt lat="41.06846" lon="42.45887">
        <ele>1850.613</ele>
        <time>2021-08-17T00:39:14.520Z</time>
      </trkpt>
      <trkpt lat="41.06821" lon="42.45769">
        <ele>1850.304374</ele>
        <time>2021-08-17T00:39:41.961Z</time>
      </trkpt>
      <trkpt lat="41.06818" lon="42.45747">
        <ele>1850.290082</ele>
        <time>2021-08-17T00:39:47.298Z</time>
      </trkpt>
      <trkpt lat="41.06788" lon="42.45595">
        <ele>1850.19647</ele>
        <time>2021-08-17T00:40:26.252Z</time>
      </trkpt>
      <trkpt lat="41.06784" lon="42.45571">
        <ele>1850.186521</ele>
        <time>2021-08-17T00:40:32.384Z</time>
      </trkpt>
      <trkpt lat="41.06726" lon="42.45215">
        <ele>1849.996898</ele>
        <time>2021-08-17T00:41:54.992Z</time>
      </trkpt>
      <trkpt lat="41.06723" lon="42.45207">
        <ele>1849.991012</ele>
        <time>2021-08-17T00:41:57.270Z</time>
      </trkpt>
      <trkpt lat="41.06708" lon="42.45205">
        <ele>1849.979275</ele>
        <time>2021-08-17T00:42:01.408Z</time>
      </trkpt>
      <trkpt lat="41.06743" lon="42.44969">
        <ele>1851.03886</ele>
        <time>2021-08-17T00:43:02.949Z</time>
      </trkpt>
      <trkpt lat="41.0688" lon="42.4401">
        <ele>1863.995714</ele>
        <time>2021-08-17T00:48:03.641Z</time>
      </trkpt>
      <trkpt lat="41.06894" lon="42.43866">
        <ele>1869.258128</ele>
        <time>2021-08-17T00:49:05.031Z</time>
      </trkpt>
      <trkpt lat="41.06896" lon="42.43853">
        <ele>1869.753432</ele>
        <time>2021-08-17T00:49:11.884Z</time>
      </trkpt>
      <trkpt lat="41.06903" lon="42.43686">
        <ele>1877.259845</ele>
        <time>2021-08-17T00:50:35.445Z</time>
      </trkpt>
      <trkpt lat="41.06899" lon="42.43491">
        <ele>1887.858161</ele>
        <time>2021-08-17T00:52:21.533Z</time>
      </trkpt>
      <trkpt lat="41.06875" lon="42.42949">
        <ele>1921.703285</ele>
        <time>2021-08-17T00:57:39.280Z</time>
      </trkpt>
      <trkpt lat="41.06863" lon="42.42845">
        <ele>1928.62168</ele>
        <time>2021-08-17T00:58:44.326Z</time>
      </trkpt>
      <trkpt lat="41.06847" lon="42.42765">
        <ele>1934.205253</ele>
        <time>2021-08-17T00:59:36.112Z</time>
      </trkpt>
      <trkpt lat="41.06728" lon="42.42466">
        <ele>1956.494895</ele>
        <time>2021-08-17T01:03:05.473Z</time>
      </trkpt>
      <trkpt lat="41.06696" lon="42.42326">
        <ele>1964.260496</ele>
        <time>2021-08-17T01:04:22.592Z</time>
      </trkpt>
      <trkpt lat="41.06688" lon="42.4226">
        <ele>1967.117393</ele>
        <time>2021-08-17T01:04:54.003Z</time>
      </trkpt>
      <trkpt lat="41.06715" lon="42.41964">
        <ele>1978.70739</ele>
        <time>2021-08-17T01:07:04.928Z</time>
      </trkpt>
      <trkpt lat="41.06719" lon="42.41871">
        <ele>1982.269242</ele>
        <time>2021-08-17T01:07:46.099Z</time>
      </trkpt>
      <trkpt lat="41.06713" lon="42.41793">
        <ele>1985.326906</ele>
        <time>2021-08-17T01:08:21.284Z</time>
      </trkpt>
      <trkpt lat="41.06722" lon="42.41549">
        <ele>1995.210597</ele>
        <time>2021-08-17T01:10:15.651Z</time>
      </trkpt>
      <trkpt lat="41.06751" lon="42.41473">
        <ele>1998.752643</ele>
        <time>2021-08-17T01:10:55.819Z</time>
      </trkpt>
      <trkpt lat="41.06755" lon="42.41438">
        <ele>2000.207221</ele>
        <time>2021-08-17T01:11:12.244Z</time>
      </trkpt>
      <trkpt lat="41.06748" lon="42.41409">
        <ele>2001.445552</ele>
        <time>2021-08-17T01:11:26.265Z</time>
      </trkpt>
      <trkpt lat="41.06704" lon="42.41338">
        <ele>2005.138951</ele>
        <time>2021-08-17T01:12:07.993Z</time>
      </trkpt>
      <trkpt lat="41.06691" lon="42.41286">
        <ele>2007.356146</ele>
        <time>2021-08-17T01:12:33.245Z</time>
      </trkpt>
      <trkpt lat="41.06685" lon="42.41224">
        <ele>2009.907467</ele>
        <time>2021-08-17T01:13:02.201Z</time>
      </trkpt>
      <trkpt lat="41.06696" lon="42.41028">
        <ele>2018.268363</ele>
        <time>2021-08-17T01:14:35.968Z</time>
      </trkpt>
      <trkpt lat="41.06688" lon="42.40931">
        <ele>2022.154258</ele>
        <time>2021-08-17T01:15:21.621Z</time>
      </trkpt>
      <trkpt lat="41.06704" lon="42.40767">
        <ele>2028.708652</ele>
        <time>2021-08-17T01:16:36.928Z</time>
      </trkpt>
      <trkpt lat="41.06699" lon="42.40732">
        <ele>2029.866994</ele>
        <time>2021-08-17T01:16:52.195Z</time>
      </trkpt>
      <trkpt lat="41.06683" lon="42.40687">
        <ele>2031.510598</ele>
        <time>2021-08-17T01:17:13.531Z</time>
      </trkpt>
      <trkpt lat="41.06645" lon="42.40618">
        <ele>2034.37078</ele>
        <time>2021-08-17T01:17:49.777Z</time>
      </trkpt>
      <trkpt lat="41.06621" lon="42.40536">
        <ele>2037.122789</ele>
        <time>2021-08-17T01:18:25.466Z</time>
      </trkpt>
      <trkpt lat="41.06601" lon="42.40359">
        <ele>2041.78975</ele>
        <time>2021-08-17T01:19:32.858Z</time>
      </trkpt>
      <trkpt lat="41.06534" lon="42.40072">
        <ele>2049.726157</ele>
        <time>2021-08-17T01:21:24.233Z</time>
      </trkpt>
      <trkpt lat="41.06522" lon="42.40048">
        <ele>2050.900794</ele>
        <time>2021-08-17T01:21:36.819Z</time>
      </trkpt>
      <trkpt lat="41.06496" lon="42.39945">
        <ele>2055.214723</ele>
        <time>2021-08-17T01:22:26.097Z</time>
      </trkpt>
      <trkpt lat="41.06493" lon="42.39826">
        <ele>2060.445869</ele>
        <time>2021-08-17T01:23:27.004Z</time>
      </trkpt>
      <trkpt lat="41.06488" lon="42.39777">
        <ele>2063.014781</ele>
        <time>2021-08-17T01:23:53.606Z</time>
      </trkpt>
      <trkpt lat="41.06465" lon="42.39705">
        <ele>2067.039523</ele>
        <time>2021-08-17T01:24:35.105Z</time>
      </trkpt>
      <trkpt lat="41.06445" lon="42.39581">
        <ele>2073.546479</ele>
        <time>2021-08-17T01:25:41.516Z</time>
      </trkpt>
      <trkpt lat="41.06409" lon="42.39335">
        <ele>2086.872391</ele>
        <time>2021-08-17T01:27:52.662Z</time>
      </trkpt>
      <trkpt lat="41.06407" lon="42.39142">
        <ele>2098.083053</ele>
        <time>2021-08-17T01:29:41.820Z</time>
      </trkpt>
      <trkpt lat="41.06416" lon="42.39111">
        <ele>2100.207706</ele>
        <time>2021-08-17T01:30:01.748Z</time>
      </trkpt>
      <trkpt lat="41.06567" lon="42.38976">
        <ele>2114.546342</ele>
        <time>2021-08-17T01:32:29.006Z</time>
      </trkpt>
      <trkpt lat="41.06594" lon="42.38936">
        <ele>2116.834039</ele>
        <time>2021-08-17T01:32:55.934Z</time>
      </trkpt>
      <trkpt lat="41.06604" lon="42.38921">
        <ele>2117.688284</ele>
        <time>2021-08-17T01:33:05.280Z</time>
      </trkpt>
      <trkpt lat="41.06616" lon="42.38874">
        <ele>2119.847121</ele>
        <time>2021-08-17T01:33:27.067Z</time>
      </trkpt>
      <trkpt lat="41.06612" lon="42.38842">
        <ele>2121.229592</ele>
        <time>2021-08-17T01:33:39.791Z</time>
      </trkpt>
      <trkpt lat="41.06601" lon="42.38819">
        <ele>2122.262671</ele>
        <time>2021-08-17T01:33:49.529Z</time>
      </trkpt>
      <trkpt lat="41.06423" lon="42.3871">
        <ele>2126.68756</ele>
        <time>2021-08-17T01:35:06.603Z</time>
      </trkpt>
      <trkpt lat="41.06393" lon="42.38686">
        <ele>2128.48661</ele>
        <time>2021-08-17T01:35:24.393Z</time>
      </trkpt>
      <trkpt lat="41.06383" lon="42.38645">
        <ele>2130.166957</ele>
        <time>2021-08-17T01:35:42.739Z</time>
      </trkpt>
      <trkpt lat="41.06371" lon="42.38448">
        <ele>2139.266954</ele>
        <time>2021-08-17T01:37:28.330Z</time>
      </trkpt>
      <trkpt lat="41.06371" lon="42.38398">
        <ele>2142.185804</ele>
        <time>2021-08-17T01:37:58.684Z</time>
      </trkpt>
      <trkpt lat="41.06457" lon="42.38109">
        <ele>2159.465366</ele>
        <time>2021-08-17T01:40:53.066Z</time>
      </trkpt>
      <trkpt lat="41.06494" lon="42.37848">
        <ele>2171.74475</ele>
        <time>2021-08-17T01:42:57.096Z</time>
      </trkpt>
      <trkpt lat="41.06509" lon="42.37806">
        <ele>2174.283817</ele>
        <time>2021-08-17T01:43:21.045Z</time>
      </trkpt>
      <trkpt lat="41.06656" lon="42.37493">
        <ele>2195.581046</ele>
        <time>2021-08-17T01:46:59.885Z</time>
      </trkpt>
      <trkpt lat="41.0667" lon="42.37396">
        <ele>2200.232746</ele>
        <time>2021-08-17T01:47:44.966Z</time>
      </trkpt>
      <trkpt lat="41.06665" lon="42.3737">
        <ele>2200.832715</ele>
        <time>2021-08-17T01:47:55.080Z</time>
      </trkpt>
      <trkpt lat="41.0665" lon="42.37358">
        <ele>2201.376898</ele>
        <time>2021-08-17T01:48:03.948Z</time>
      </trkpt>
      <trkpt lat="41.06626" lon="42.37355">
        <ele>2202.107725</ele>
        <time>2021-08-17T01:48:14.869Z</time>
      </trkpt>
      <trkpt lat="41.06603" lon="42.37363">
        <ele>2202.834682</ele>
        <time>2021-08-17T01:48:24.817Z</time>
      </trkpt>
      <trkpt lat="41.06585" lon="42.37361">
        <ele>2203.363098</ele>
        <time>2021-08-17T01:48:32.299Z</time>
      </trkpt>
      <trkpt lat="41.06573" lon="42.3735">
        <ele>2203.798155</ele>
        <time>2021-08-17T01:48:38.265Z</time>
      </trkpt>
      <trkpt lat="41.06588" lon="42.37264">
        <ele>2205.929352</ele>
        <time>2021-08-17T01:49:07.831Z</time>
      </trkpt>
      <trkpt lat="41.06584" lon="42.37203">
        <ele>2207.628721</ele>
        <time>2021-08-17T01:49:29.924Z</time>
      </trkpt>
      <trkpt lat="41.06572" lon="42.37122">
        <ele>2209.896657</ele>
        <time>2021-08-17T01:50:02.349Z</time>
      </trkpt>
      <trkpt lat="41.06577" lon="42.37066">
        <ele>2211.429223</ele>
        <time>2021-08-17T01:50:26.262Z</time>
      </trkpt>
      <trkpt lat="41.06613" lon="42.36925">
        <ele>2216.889549</ele>
        <time>2021-08-17T01:51:34.740Z</time>
      </trkpt>
      <trkpt lat="41.06597" lon="42.36799">
        <ele>2221.58478</ele>
        <time>2021-08-17T01:52:29.948Z</time>
      </trkpt>
      <trkpt lat="41.06597" lon="42.36741">
        <ele>2223.593799</ele>
        <time>2021-08-17T01:52:55.116Z</time>
      </trkpt>
      <trkpt lat="41.06571" lon="42.36646">
        <ele>2227.08419</ele>
        <time>2021-08-17T01:53:38.149Z</time>
      </trkpt>
      <trkpt lat="41.06553" lon="42.36604">
        <ele>2228.760874</ele>
        <time>2021-08-17T01:53:58.349Z</time>
      </trkpt>
      <trkpt lat="41.06516" lon="42.3654">
        <ele>2231.792387</ele>
        <time>2021-08-17T01:54:33.301Z</time>
      </trkpt>
      <trkpt lat="41.06514" lon="42.36498">
        <ele>2233.386062</ele>
        <time>2021-08-17T01:54:52.841Z</time>
      </trkpt>
      <trkpt lat="41.06529" lon="42.36421">
        <ele>2236.369342</ele>
        <time>2021-08-17T01:55:30.071Z</time>
      </trkpt>
      <trkpt lat="41.06522" lon="42.36383">
        <ele>2237.841454</ele>
        <time>2021-08-17T01:55:47.264Z</time>
      </trkpt>
      <trkpt lat="41.065" lon="42.36323">
        <ele>2240.463921</ele>
        <time>2021-08-17T01:56:16.042Z</time>
      </trkpt>
      <trkpt lat="41.06494" lon="42.36284">
        <ele>2242.076538</ele>
        <time>2021-08-17T01:56:34.190Z</time>
      </trkpt>
      <trkpt lat="41.06505" lon="42.36233">
        <ele>2244.153215</ele>
        <time>2021-08-17T01:56:58.062Z</time>
      </trkpt>
      <trkpt lat="41.0651" lon="42.36188">
        <ele>2245.985426</ele>
        <time>2021-08-17T01:57:19.718Z</time>
      </trkpt>
      <trkpt lat="41.06508" lon="42.36134">
        <ele>2248.360058</ele>
        <time>2021-08-17T01:57:45.177Z</time>
      </trkpt>
      <trkpt lat="41.06484" lon="42.36062">
        <ele>2252.346944</ele>
        <time>2021-08-17T01:58:23.236Z</time>
      </trkpt>
      <trkpt lat="41.06482" lon="42.36031">
        <ele>2253.988019</ele>
        <time>2021-08-17T01:58:40.338Z</time>
      </trkpt>
      <trkpt lat="41.06498" lon="42.35902">
        <ele>2260.920477</ele>
        <time>2021-08-17T01:59:52.929Z</time>
      </trkpt>
      <trkpt lat="41.06517" lon="42.35836">
        <ele>2265.351958</ele>
        <time>2021-08-17T02:00:32.826Z</time>
      </trkpt>
      <trkpt lat="41.0655" lon="42.35779">
        <ele>2269.869817</ele>
        <time>2021-08-17T02:01:14.070Z</time>
      </trkpt>
      <trkpt lat="41.06553" lon="42.35753">
        <ele>2271.485846</ele>
        <time>2021-08-17T02:01:29.537Z</time>
      </trkpt>
      <trkpt lat="41.0655" lon="42.35683">
        <ele>2276.661058</ele>
        <time>2021-08-17T02:02:13.205Z</time>
      </trkpt>
      <trkpt lat="41.06557" lon="42.35639">
        <ele>2280.961221</ele>
        <time>2021-08-17T02:02:42.809Z</time>
      </trkpt>
      <trkpt lat="41.06558" lon="42.35548">
        <ele>2289.629402</ele>
        <time>2021-08-17T02:03:50.676Z</time>
      </trkpt>
      <trkpt lat="41.06571" lon="42.3552">
        <ele>2292.684571</ele>
        <time>2021-08-17T02:04:18.453Z</time>
      </trkpt>
      <trkpt lat="41.06607" lon="42.35471">
        <ele>2299.823051</ele>
        <time>2021-08-17T02:05:22.610Z</time>
      </trkpt>
      <trkpt lat="41.06625" lon="42.3546">
        <ele>2302.979422</ele>
        <time>2021-08-17T02:05:48.448Z</time>
      </trkpt>
      <trkpt lat="41.06642" lon="42.35459">
        <ele>2305.620333</ele>
        <time>2021-08-17T02:06:10.176Z</time>
      </trkpt>
      <trkpt lat="41.067" lon="42.35497">
        <ele>2315.869557</ele>
        <time>2021-08-17T02:07:33.023Z</time>
      </trkpt>
      <trkpt lat="41.06744" lon="42.3552">
        <ele>2323.456941</ele>
        <time>2021-08-17T02:08:30.783Z</time>
      </trkpt>
      <trkpt lat="41.06783" lon="42.35532">
        <ele>2328.133004</ele>
        <time>2021-08-17T02:09:14.876Z</time>
      </trkpt>
      <trkpt lat="41.07031" lon="42.35509">
        <ele>2347.105972</ele>
        <time>2021-08-17T02:12:21.047Z</time>
      </trkpt>
      <trkpt lat="41.07087" lon="42.35494">
        <ele>2349.904897</ele>
        <time>2021-08-17T02:12:47.679Z</time>
      </trkpt>
      <trkpt lat="41.07123" lon="42.35461">
        <ele>2351.227604</ele>
        <time>2021-08-17T02:13:03.945Z</time>
      </trkpt>
      <trkpt lat="41.07173" lon="42.35396">
        <ele>2350.840972</ele>
        <time>2021-08-17T02:13:24.079Z</time>
      </trkpt>
      <trkpt lat="41.07179" lon="42.3536">
        <ele>2350.687139</ele>
        <time>2021-08-17T02:13:31.354Z</time>
      </trkpt>
      <trkpt lat="41.07175" lon="42.35327">
        <ele>2350.546476</ele>
        <time>2021-08-17T02:13:37.913Z</time>
      </trkpt>
      <trkpt lat="41.07161" lon="42.35311">
        <ele>2350.44516</ele>
        <time>2021-08-17T02:13:42.699Z</time>
      </trkpt>
      <trkpt lat="41.07077" lon="42.3528">
        <ele>2350.570839</ele>
        <time>2021-08-17T02:14:05.994Z</time>
      </trkpt>
      <trkpt lat="41.06987" lon="42.35238">
        <ele>2350.951555</ele>
        <time>2021-08-17T02:14:39.161Z</time>
      </trkpt>
      <trkpt lat="41.06959" lon="42.35215">
        <ele>2351.554019</ele>
        <time>2021-08-17T02:14:53.500Z</time>
      </trkpt>
      <trkpt lat="41.06922" lon="42.3517">
        <ele>2353.660016</ele>
        <time>2021-08-17T02:15:17.999Z</time>
      </trkpt>
      <trkpt lat="41.06845" lon="42.35037">
        <ele>2359.265514</ele>
        <time>2021-08-17T02:16:31.548Z</time>
      </trkpt>
      <trkpt lat="41.06758" lon="42.34951">
        <ele>2367.446132</ele>
        <time>2021-08-17T02:17:48.430Z</time>
      </trkpt>
      <trkpt lat="41.06727" lon="42.34903">
        <ele>2371.075892</ele>
        <time>2021-08-17T02:18:27.390Z</time>
      </trkpt>
      <trkpt lat="41.06713" lon="42.34849">
        <ele>2374.964459</ele>
        <time>2021-08-17T02:19:03.991Z</time>
      </trkpt>
      <trkpt lat="41.06713" lon="42.34805">
        <ele>2378.224794</ele>
        <time>2021-08-17T02:19:33.391Z</time>
      </trkpt>
      <trkpt lat="41.06729" lon="42.34766">
        <ele>2381.497057</ele>
        <time>2021-08-17T02:20:03.706Z</time>
      </trkpt>
      <trkpt lat="41.06888" lon="42.34584">
        <ele>2400.718004</ele>
        <time>2021-08-17T02:23:03.506Z</time>
      </trkpt>
      <trkpt lat="41.0691" lon="42.34521">
        <ele>2405.258295</ele>
        <time>2021-08-17T02:23:39.039Z</time>
      </trkpt>
      <trkpt lat="41.06938" lon="42.34474">
        <ele>2408.58866</ele>
        <time>2021-08-17T02:24:08.868Z</time>
      </trkpt>
      <trkpt lat="41.06963" lon="42.34443">
        <ele>2411.198613</ele>
        <time>2021-08-17T02:24:33.173Z</time>
      </trkpt>
      <trkpt lat="41.06973" lon="42.34407">
        <ele>2413.30409</ele>
        <time>2021-08-17T02:24:53.404Z</time>
      </trkpt>
      <trkpt lat="41.06977" lon="42.3432">
        <ele>2418.181344</ele>
        <time>2021-08-17T02:25:42.360Z</time>
      </trkpt>
      <trkpt lat="41.06985" lon="42.34275">
        <ele>2421.140216</ele>
        <time>2021-08-17T02:26:10.238Z</time>
      </trkpt>
      <trkpt lat="41.07003" lon="42.34249">
        <ele>2423.549432</ele>
        <time>2021-08-17T02:26:33.594Z</time>
      </trkpt>
      <trkpt lat="41.07025" lon="42.34235">
        <ele>2425.715741</ele>
        <time>2021-08-17T02:26:55.407Z</time>
      </trkpt>
      <trkpt lat="41.07145" lon="42.34207">
        <ele>2435.648316</ele>
        <time>2021-08-17T02:28:34.874Z</time>
      </trkpt>
      <trkpt lat="41.07167" lon="42.34197">
        <ele>2436.73249</ele>
        <time>2021-08-17T02:28:50.529Z</time>
      </trkpt>
      <trkpt lat="41.07167" lon="42.34171">
        <ele>2437.63063</ele>
        <time>2021-08-17T02:29:01.876Z</time>
      </trkpt>
      <trkpt lat="41.07157" lon="42.3413">
        <ele>2439.165067</ele>
        <time>2021-08-17T02:29:19.629Z</time>
      </trkpt>
      <trkpt lat="41.07114" lon="42.34043">
        <ele>2442.799992</ele>
        <time>2021-08-17T02:29:56.652Z</time>
      </trkpt>
      <trkpt lat="41.07051" lon="42.33973">
        <ele>2446.494003</ele>
        <time>2021-08-17T02:30:34.076Z</time>
      </trkpt>
      <trkpt lat="41.07009" lon="42.33943">
        <ele>2448.632364</ele>
        <time>2021-08-17T02:30:59.892Z</time>
      </trkpt>
      <trkpt lat="41.06977" lon="42.33909">
        <ele>2450.482224</ele>
        <time>2021-08-17T02:31:26.229Z</time>
      </trkpt>
      <trkpt lat="41.06956" lon="42.33864">
        <ele>2453.372002</ele>
        <time>2021-08-17T02:31:55.742Z</time>
      </trkpt>
      <trkpt lat="41.06938" lon="42.33795">
        <ele>2458.257489</ele>
        <time>2021-08-17T02:32:41.218Z</time>
      </trkpt>
      <trkpt lat="41.06941" lon="42.33705">
        <ele>2464.29325</ele>
        <time>2021-08-17T02:33:40.364Z</time>
      </trkpt>
      <trkpt lat="41.06951" lon="42.33666">
        <ele>2467.055482</ele>
        <time>2021-08-17T02:34:07.043Z</time>
      </trkpt>
      <trkpt lat="41.06987" lon="42.33621">
        <ele>2470.139438</ele>
        <time>2021-08-17T02:34:46.927Z</time>
      </trkpt>
      <trkpt lat="41.07029" lon="42.33579">
        <ele>2473.383171</ele>
        <time>2021-08-17T02:35:24.503Z</time>
      </trkpt>
      <trkpt lat="41.07048" lon="42.33548">
        <ele>2475.239269</ele>
        <time>2021-08-17T02:35:43.122Z</time>
      </trkpt>
      <trkpt lat="41.0709" lon="42.3347">
        <ele>2478.303069</ele>
        <time>2021-08-17T02:36:18.443Z</time>
      </trkpt>
      <trkpt lat="41.07108" lon="42.33388">
        <ele>2478.396066</ele>
        <time>2021-08-17T02:36:40.445Z</time>
      </trkpt>
      <trkpt lat="41.07103" lon="42.33363">
        <ele>2478.424073</ele>
        <time>2021-08-17T02:36:45.760Z</time>
      </trkpt>
      <trkpt lat="41.07089" lon="42.33345">
        <ele>2478.451872</ele>
        <time>2021-08-17T02:36:50.931Z</time>
      </trkpt>
      <trkpt lat="41.07044" lon="42.33326">
        <ele>2478.519771</ele>
        <time>2021-08-17T02:37:02.772Z</time>
      </trkpt>
      <trkpt lat="41.07008" lon="42.33283">
        <ele>2478.409446</ele>
        <time>2021-08-17T02:37:15.121Z</time>
      </trkpt>
      <trkpt lat="41.0698" lon="42.33178">
        <ele>2478.170712</ele>
        <time>2021-08-17T02:37:38.466Z</time>
      </trkpt>
      <trkpt lat="41.06977" lon="42.33129">
        <ele>2478.064489</ele>
        <time>2021-08-17T02:37:51.537Z</time>
      </trkpt>
      <trkpt lat="41.06981" lon="42.33081">
        <ele>2478.66714</ele>
        <time>2021-08-17T02:38:05.960Z</time>
      </trkpt>
      <trkpt lat="41.06979" lon="42.33032">
        <ele>2479.903395</ele>
        <time>2021-08-17T02:38:22.590Z</time>
      </trkpt>
      <trkpt lat="41.07041" lon="42.32791">
        <ele>2487.106946</ele>
        <time>2021-08-17T02:40:07.166Z</time>
      </trkpt>
      <trkpt lat="41.0705" lon="42.32692">
        <ele>2490.557079</ele>
        <time>2021-08-17T02:40:50.996Z</time>
      </trkpt>
      <trkpt lat="41.07076" lon="42.32562">
        <ele>2495.020972</ele>
        <time>2021-08-17T02:41:50.374Z</time>
      </trkpt>
      <trkpt lat="41.07086" lon="42.32535">
        <ele>2496.025255</ele>
        <time>2021-08-17T02:42:03.985Z</time>
      </trkpt>
      <trkpt lat="41.0711" lon="42.32495">
        <ele>2497.686778</ele>
        <time>2021-08-17T02:42:25.751Z</time>
      </trkpt>
      <trkpt lat="41.07149" lon="42.32343">
        <ele>2501.213807</ele>
        <time>2021-08-17T02:43:25.908Z</time>
      </trkpt>
      <trkpt lat="41.07149" lon="42.32288">
        <ele>2501.956041</ele>
        <time>2021-08-17T02:43:42.555Z</time>
      </trkpt>
      <trkpt lat="41.07143" lon="42.32253">
        <ele>2502.445334</ele>
        <time>2021-08-17T02:43:52.433Z</time>
      </trkpt>
      <trkpt lat="41.07126" lon="42.32212">
        <ele>2503.077241</ele>
        <time>2021-08-17T02:44:04.269Z</time>
      </trkpt>
      <trkpt lat="41.07051" lon="42.32099">
        <ele>2503.775086</ele>
        <time>2021-08-17T02:44:38.911Z</time>
      </trkpt>
      <trkpt lat="41.07005" lon="42.32046">
        <ele>2504.091679</ele>
        <time>2021-08-17T02:44:59.360Z</time>
      </trkpt>
      <trkpt lat="41.0691" lon="42.319">
        <ele>2507.995374</ele>
        <time>2021-08-17T02:46:04.642Z</time>
      </trkpt>
      <trkpt lat="41.06884" lon="42.31835">
        <ele>2509.780849</ele>
        <time>2021-08-17T02:46:35.675Z</time>
      </trkpt>
      <trkpt lat="41.06869" lon="42.31779">
        <ele>2512.07654</ele>
        <time>2021-08-17T02:47:02.151Z</time>
      </trkpt>
      <trkpt lat="41.06834" lon="42.31473">
        <ele>2523.570109</ele>
        <time>2021-08-17T02:49:25.420Z</time>
      </trkpt>
      <trkpt lat="41.06809" lon="42.31315">
        <ele>2528.585024</ele>
        <time>2021-08-17T02:50:28.925Z</time>
      </trkpt>
      <trkpt lat="41.06796" lon="42.31253">
        <ele>2530.144383</ele>
        <time>2021-08-17T02:50:52.932Z</time>
      </trkpt>
      <trkpt lat="41.06769" lon="42.31185">
        <ele>2532.012141</ele>
        <time>2021-08-17T02:51:20.333Z</time>
      </trkpt>
      <trkpt lat="41.06768" lon="42.31149">
        <ele>2532.893108</ele>
        <time>2021-08-17T02:51:33.055Z</time>
      </trkpt>
      <trkpt lat="41.06763" lon="42.31118">
        <ele>2533.677149</ele>
        <time>2021-08-17T02:51:44.629Z</time>
      </trkpt>
      <trkpt lat="41.06738" lon="42.31072">
        <ele>2535.102408</ele>
        <time>2021-08-17T02:52:04.943Z</time>
      </trkpt>
      <trkpt lat="41.06711" lon="42.31044">
        <ele>2536.223343</ele>
        <time>2021-08-17T02:52:21.632Z</time>
      </trkpt>
      <trkpt lat="41.06625" lon="42.3099">
        <ele>2539.500582</ele>
        <time>2021-08-17T02:53:10.042Z</time>
      </trkpt>
      <trkpt lat="41.06215" lon="42.30757">
        <ele>2558.110761</ele>
        <time>2021-08-17T02:57:15.182Z</time>
      </trkpt>
      <trkpt lat="41.06182" lon="42.30752">
        <ele>2559.495779</ele>
        <time>2021-08-17T02:57:33.330Z</time>
      </trkpt>
      <trkpt lat="41.06147" lon="42.3076">
        <ele>2560.978252</ele>
        <time>2021-08-17T02:57:52.588Z</time>
      </trkpt>
      <trkpt lat="41.06015" lon="42.30811">
        <ele>2566.071762</ele>
        <time>2021-08-17T02:59:03.779Z</time>
      </trkpt>
      <trkpt lat="41.05965" lon="42.30818">
        <ele>2567.920484</ele>
        <time>2021-08-17T02:59:29.204Z</time>
      </trkpt>
      <trkpt lat="41.05923" lon="42.30815">
        <ele>2569.489868</ele>
        <time>2021-08-17T02:59:50.921Z</time>
      </trkpt>
      <trkpt lat="41.05866" lon="42.30796">
        <ele>2571.634744</ele>
        <time>2021-08-17T03:00:20.761Z</time>
      </trkpt>
      <trkpt lat="41.05816" lon="42.30757">
        <ele>2573.798389</ele>
        <time>2021-08-17T03:00:51.265Z</time>
      </trkpt>
      <trkpt lat="41.05783" lon="42.30717">
        <ele>2575.504138</ele>
        <time>2021-08-17T03:01:15.031Z</time>
      </trkpt>
      <trkpt lat="41.05755" lon="42.30669">
        <ele>2577.296633</ele>
        <time>2021-08-17T03:01:39.476Z</time>
      </trkpt>
      <trkpt lat="41.0574" lon="42.3061">
        <ele>2579.152274</ele>
        <time>2021-08-17T03:02:04.914Z</time>
      </trkpt>
      <trkpt lat="41.0573" lon="42.30544">
        <ele>2581.117545</ele>
        <time>2021-08-17T03:02:31.756Z</time>
      </trkpt>
      <trkpt lat="41.05673" lon="42.2993">
        <ele>2597.502253</ele>
        <time>2021-08-17T03:06:33.757Z</time>
      </trkpt>
      <trkpt lat="41.05654" lon="42.29865">
        <ele>2598.941888</ele>
        <time>2021-08-17T03:06:57.358Z</time>
      </trkpt>
      <trkpt lat="41.05629" lon="42.29814">
        <ele>2599.78719</ele>
        <time>2021-08-17T03:07:16.433Z</time>
      </trkpt>
      <trkpt lat="41.05274" lon="42.29453">
        <ele>2597.284395</ele>
        <time>2021-08-17T03:09:24.521Z</time>
      </trkpt>
      <trkpt lat="41.05258" lon="42.29408">
        <ele>2596.73858</ele>
        <time>2021-08-17T03:09:34.089Z</time>
      </trkpt>
      <trkpt lat="41.05254" lon="42.29363">
        <ele>2596.261482</ele>
        <time>2021-08-17T03:09:42.134Z</time>
      </trkpt>
      <trkpt lat="41.05267" lon="42.2931">
        <ele>2594.499999</ele>
        <time>2021-08-17T03:09:52.085Z</time>
      </trkpt>
      <trkpt lat="41.05435" lon="42.28846">
        <ele>2573.404114</ele>
        <time>2021-08-17T03:11:13.319Z</time>
      </trkpt>
      <trkpt lat="41.05476" lon="42.28747">
        <ele>2567.310312</ele>
        <time>2021-08-17T03:11:29.958Z</time>
      </trkpt>
      <trkpt lat="41.055" lon="42.28655">
        <ele>2561.82374</ele>
        <time>2021-08-17T03:11:44.344Z</time>
      </trkpt>
      <trkpt lat="41.05558" lon="42.28325">
        <ele>2543.871026</ele>
        <time>2021-08-17T03:12:35.277Z</time>
      </trkpt>
      <trkpt lat="41.05561" lon="42.28245">
        <ele>2540.045393</ele>
        <time>2021-08-17T03:12:48.138Z</time>
      </trkpt>
      <trkpt lat="41.0556" lon="42.2813">
        <ele>2536.515848</ele>
        <time>2021-08-17T03:13:07.370Z</time>
      </trkpt>
      <trkpt lat="41.05559" lon="42.28078">
        <ele>2534.919226</ele>
        <time>2021-08-17T03:13:16.398Z</time>
      </trkpt>
      <trkpt lat="41.05547" lon="42.28016">
        <ele>2532.979017</ele>
        <time>2021-08-17T03:13:27.166Z</time>
      </trkpt>
      <trkpt lat="41.05511" lon="42.27941">
        <ele>2528.301854</ele>
        <time>2021-08-17T03:13:41.478Z</time>
      </trkpt>
      <trkpt lat="41.05474" lon="42.27888">
        <ele>2524.330902</ele>
        <time>2021-08-17T03:13:52.353Z</time>
      </trkpt>
      <trkpt lat="41.05433" lon="42.27854">
        <ele>2520.752042</ele>
        <time>2021-08-17T03:14:01.731Z</time>
      </trkpt>
      <trkpt lat="41.05324" lon="42.27787">
        <ele>2507.15047</ele>
        <time>2021-08-17T03:14:24.265Z</time>
      </trkpt>
      <trkpt lat="41.05263" lon="42.27779">
        <ele>2499.899402</ele>
        <time>2021-08-17T03:14:35.456Z</time>
      </trkpt>
      <trkpt lat="41.05239" lon="42.27799">
        <ele>2496.544442</ele>
        <time>2021-08-17T03:14:40.704Z</time>
      </trkpt>
      <trkpt lat="41.05215" lon="42.27846">
        <ele>2491.507249</ele>
        <time>2021-08-17T03:14:48.686Z</time>
      </trkpt>
      <trkpt lat="41.05208" lon="42.27881">
        <ele>2488.291303</ele>
        <time>2021-08-17T03:14:53.810Z</time>
      </trkpt>
      <trkpt lat="41.05212" lon="42.27946">
        <ele>2482.586196</ele>
        <time>2021-08-17T03:15:02.942Z</time>
      </trkpt>
      <trkpt lat="41.05206" lon="42.27984">
        <ele>2479.083872</ele>
        <time>2021-08-17T03:15:08.560Z</time>
      </trkpt>
      <trkpt lat="41.05187" lon="42.28013">
        <ele>2475.883909</ele>
        <time>2021-08-17T03:15:13.971Z</time>
      </trkpt>
      <trkpt lat="41.05175" lon="42.28008">
        <ele>2474.610258</ele>
        <time>2021-08-17T03:15:16.343Z</time>
      </trkpt>
      <trkpt lat="41.05167" lon="42.27989">
        <ele>2472.901361</ele>
        <time>2021-08-17T03:15:19.557Z</time>
      </trkpt>
      <trkpt lat="41.05162" lon="42.27938">
        <ele>2468.992129</ele>
        <time>2021-08-17T03:15:26.940Z</time>
      </trkpt>
      <trkpt lat="41.05132" lon="42.27813">
        <ele>2459.0658</ele>
        <time>2021-08-17T03:15:45.840Z</time>
      </trkpt>
      <trkpt lat="41.05124" lon="42.27801">
        <ele>2458.002812</ele>
        <time>2021-08-17T03:15:48.129Z</time>
      </trkpt>
      <trkpt lat="41.05114" lon="42.27803">
        <ele>2457.135677</ele>
        <time>2021-08-17T03:15:50.050Z</time>
      </trkpt>
      <trkpt lat="41.05108" lon="42.27818">
        <ele>2456.030302</ele>
        <time>2021-08-17T03:15:52.508Z</time>
      </trkpt>
      <trkpt lat="41.05109" lon="42.2788">
        <ele>2451.933364</ele>
        <time>2021-08-17T03:16:01.644Z</time>
      </trkpt>
      <trkpt lat="41.0509" lon="42.28051">
        <ele>2440.749064</ele>
        <time>2021-08-17T03:16:27.214Z</time>
      </trkpt>
      <trkpt lat="41.05091" lon="42.28092">
        <ele>2438.228547</ele>
        <time>2021-08-17T03:16:33.238Z</time>
      </trkpt>
      <trkpt lat="41.05108" lon="42.28139">
        <ele>2434.967698</ele>
        <time>2021-08-17T03:16:41.012Z</time>
      </trkpt>
      <trkpt lat="41.05107" lon="42.28152">
        <ele>2434.201304</ele>
        <time>2021-08-17T03:16:42.843Z</time>
      </trkpt>
      <trkpt lat="41.05101" lon="42.28157">
        <ele>2433.606883</ele>
        <time>2021-08-17T03:16:44.249Z</time>
      </trkpt>
      <trkpt lat="41.05091" lon="42.28152">
        <ele>2432.718952</ele>
        <time>2021-08-17T03:16:46.353Z</time>
      </trkpt>
      <trkpt lat="41.05059" lon="42.28105">
        <ele>2428.801083</ele>
        <time>2021-08-17T03:16:55.663Z</time>
      </trkpt>
      <trkpt lat="41.05011" lon="42.27879">
        <ele>2412.761782</ele>
        <time>2021-08-17T03:17:30.025Z</time>
      </trkpt>
      <trkpt lat="41.04979" lon="42.27777">
        <ele>2404.389766</ele>
        <time>2021-08-17T03:17:45.787Z</time>
      </trkpt>
      <trkpt lat="41.04961" lon="42.27662">
        <ele>2395.309709</ele>
        <time>2021-08-17T03:18:02.627Z</time>
      </trkpt>
      <trkpt lat="41.04961" lon="42.27537">
        <ele>2386.557103</ele>
        <time>2021-08-17T03:18:20.650Z</time>
      </trkpt>
      <trkpt lat="41.04941" lon="42.27353">
        <ele>2373.743068</ele>
        <time>2021-08-17T03:18:48.158Z</time>
      </trkpt>
      <trkpt lat="41.04925" lon="42.27308">
        <ele>2370.318327</ele>
        <time>2021-08-17T03:18:55.463Z</time>
      </trkpt>
      <trkpt lat="41.04846" lon="42.27184">
        <ele>2358.158065</ele>
        <time>2021-08-17T03:19:18.987Z</time>
      </trkpt>
      <trkpt lat="41.04799" lon="42.27075">
        <ele>2345.673516</ele>
        <time>2021-08-17T03:19:36.495Z</time>
      </trkpt>
      <trkpt lat="41.04766" lon="42.26989">
        <ele>2336.146692</ele>
        <time>2021-08-17T03:19:49.645Z</time>
      </trkpt>
      <trkpt lat="41.04709" lon="42.26768">
        <ele>2312.387851</ele>
        <time>2021-08-17T03:20:22.083Z</time>
      </trkpt>
      <trkpt lat="41.04706" lon="42.26719">
        <ele>2308.314868</ele>
        <time>2021-08-17T03:20:29.121Z</time>
      </trkpt>
      <trkpt lat="41.04718" lon="42.26618">
        <ele>2299.857341</ele>
        <time>2021-08-17T03:20:43.828Z</time>
      </trkpt>
      <trkpt lat="41.04723" lon="42.26465">
        <ele>2286.935493</ele>
        <time>2021-08-17T03:21:05.680Z</time>
      </trkpt>
      <trkpt lat="41.04717" lon="42.26434">
        <ele>2284.164004</ele>
        <time>2021-08-17T03:21:10.168Z</time>
      </trkpt>
      <trkpt lat="41.04699" lon="42.26415">
        <ele>2281.419664</ele>
        <time>2021-08-17T03:21:14.582Z</time>
      </trkpt>
      <trkpt lat="41.04674" lon="42.26415">
        <ele>2278.485695</ele>
        <time>2021-08-17T03:21:19.282Z</time>
      </trkpt>
      <trkpt lat="41.04581" lon="42.26462">
        <ele>2266.287682</ele>
        <time>2021-08-17T03:21:37.618Z</time>
      </trkpt>
      <trkpt lat="41.04554" lon="42.26488">
        <ele>2261.878068</ele>
        <time>2021-08-17T03:21:43.772Z</time>
      </trkpt>
      <trkpt lat="41.04537" lon="42.26529">
        <ele>2257.248709</ele>
        <time>2021-08-17T03:21:50.256Z</time>
      </trkpt>
      <trkpt lat="41.04513" lon="42.26614">
        <ele>2248.183883</ele>
        <time>2021-08-17T03:22:02.913Z</time>
      </trkpt>
      <trkpt lat="41.04502" lon="42.26634">
        <ele>2245.771829</ele>
        <time>2021-08-17T03:22:06.324Z</time>
      </trkpt>
      <trkpt lat="41.04487" lon="42.26643">
        <ele>2243.600451</ele>
        <time>2021-08-17T03:22:09.375Z</time>
      </trkpt>
      <trkpt lat="41.04454" lon="42.26628">
        <ele>2239.042055</ele>
        <time>2021-08-17T03:22:15.795Z</time>
      </trkpt>
      <trkpt lat="41.04433" lon="42.26629">
        <ele>2236.363362</ele>
        <time>2021-08-17T03:22:19.562Z</time>
      </trkpt>
      <trkpt lat="41.04413" lon="42.26648">
        <ele>2233.142789</ele>
        <time>2021-08-17T03:22:24.098Z</time>
      </trkpt>
      <trkpt lat="41.044" lon="42.26683">
        <ele>2229.362433</ele>
        <time>2021-08-17T03:22:29.473Z</time>
      </trkpt>
      <trkpt lat="41.04399" lon="42.26717">
        <ele>2225.989681</ele>
        <time>2021-08-17T03:22:34.301Z</time>
      </trkpt>
      <trkpt lat="41.04422" lon="42.26852">
        <ele>2216.560871</ele>
        <time>2021-08-17T03:22:54.375Z</time>
      </trkpt>
      <trkpt lat="41.04476" lon="42.26977">
        <ele>2207.202997</ele>
        <time>2021-08-17T03:23:16.027Z</time>
      </trkpt>
      <trkpt lat="41.04491" lon="42.26999">
        <ele>2205.410302</ele>
        <time>2021-08-17T03:23:20.800Z</time>
      </trkpt>
      <trkpt lat="41.04507" lon="42.27012">
        <ele>2203.888664</ele>
        <time>2021-08-17T03:23:24.337Z</time>
      </trkpt>
      <trkpt lat="41.04511" lon="42.27024">
        <ele>2203.0885</ele>
        <time>2021-08-17T03:23:26.411Z</time>
      </trkpt>
      <trkpt lat="41.04507" lon="42.27031">
        <ele>2202.551244</ele>
        <time>2021-08-17T03:23:28.530Z</time>
      </trkpt>
      <trkpt lat="41.04492" lon="42.27019">
        <ele>2201.085069</ele>
        <time>2021-08-17T03:23:31.916Z</time>
      </trkpt>
      <trkpt lat="41.04455" lon="42.26991">
        <ele>2197.65149</ele>
        <time>2021-08-17T03:23:40.214Z</time>
      </trkpt>
      <trkpt lat="41.04431" lon="42.26955">
        <ele>2194.702614</ele>
        <time>2021-08-17T03:23:47.198Z</time>
      </trkpt>
      <trkpt lat="41.04391" lon="42.2691">
        <ele>2189.8621</ele>
        <time>2021-08-17T03:23:57.237Z</time>
      </trkpt>
      <trkpt lat="41.04342" lon="42.26803">
        <ele>2181.090165</ele>
        <time>2021-08-17T03:24:15.287Z</time>
      </trkpt>
      <trkpt lat="41.04323" lon="42.2678">
        <ele>2178.742446</ele>
        <time>2021-08-17T03:24:20.256Z</time>
      </trkpt>
      <trkpt lat="41.04295" lon="42.26726">
        <ele>2175.279166</ele>
        <time>2021-08-17T03:24:30.090Z</time>
      </trkpt>
      <trkpt lat="41.04295" lon="42.26687">
        <ele>2173.32517</ele>
        <time>2021-08-17T03:24:36.079Z</time>
      </trkpt>
      <trkpt lat="41.04307" lon="42.26633">
        <ele>2170.506486</ele>
        <time>2021-08-17T03:24:44.812Z</time>
      </trkpt>
      <trkpt lat="41.04307" lon="42.26598">
        <ele>2168.728756</ele>
        <time>2021-08-17T03:24:50.295Z</time>
      </trkpt>
      <trkpt lat="41.04281" lon="42.26542">
        <ele>2165.31424</ele>
        <time>2021-08-17T03:25:00.513Z</time>
      </trkpt>
      <trkpt lat="41.04264" lon="42.26522">
        <ele>2163.667506</ele>
        <time>2021-08-17T03:25:05.064Z</time>
      </trkpt>
      <trkpt lat="41.04259" lon="42.26501">
        <ele>2162.480957</ele>
        <time>2021-08-17T03:25:08.341Z</time>
      </trkpt>
      <trkpt lat="41.04271" lon="42.2647">
        <ele>2160.525825</ele>
        <time>2021-08-17T03:25:13.721Z</time>
      </trkpt>
      <trkpt lat="41.04307" lon="42.26434">
        <ele>2157.259266</ele>
        <time>2021-08-17T03:25:22.640Z</time>
      </trkpt>
      <trkpt lat="41.04333" lon="42.26366">
        <ele>2153.046579</ele>
        <time>2021-08-17T03:25:34.001Z</time>
      </trkpt>
      <trkpt lat="41.04341" lon="42.263">
        <ele>2148.597252</ele>
        <time>2021-08-17T03:25:43.771Z</time>
      </trkpt>
      <trkpt lat="41.04317" lon="42.26125">
        <ele>2136.628139</ele>
        <time>2021-08-17T03:26:09.772Z</time>
      </trkpt>
      <trkpt lat="41.04319" lon="42.26106">
        <ele>2135.158661</ele>
        <time>2021-08-17T03:26:12.497Z</time>
      </trkpt>
      <trkpt lat="41.04336" lon="42.26094">
        <ele>2133.176195</ele>
        <time>2021-08-17T03:26:16.189Z</time>
      </trkpt>
      <trkpt lat="41.04379" lon="42.261">
        <ele>2128.709282</ele>
        <time>2021-08-17T03:26:24.411Z</time>
      </trkpt>
      <trkpt lat="41.04388" lon="42.26091">
        <ele>2127.425975</ele>
        <time>2021-08-17T03:26:26.763Z</time>
      </trkpt>
      <trkpt lat="41.04392" lon="42.26069">
        <ele>2125.715345</ele>
        <time>2021-08-17T03:26:29.879Z</time>
      </trkpt>
      <trkpt lat="41.04384" lon="42.25984">
        <ele>2118.933237</ele>
        <time>2021-08-17T03:26:42.071Z</time>
      </trkpt>
      <trkpt lat="41.04376" lon="42.25946">
        <ele>2115.391097</ele>
        <time>2021-08-17T03:26:47.586Z</time>
      </trkpt>
      <trkpt lat="41.04363" lon="42.25916">
        <ele>2112.199018</ele>
        <time>2021-08-17T03:26:52.385Z</time>
      </trkpt>
      <trkpt lat="41.04336" lon="42.25881">
        <ele>2107.486953</ele>
        <time>2021-08-17T03:26:59.420Z</time>
      </trkpt>
      <trkpt lat="41.04301" lon="42.25815">
        <ele>2099.945722</ele>
        <time>2021-08-17T03:27:10.719Z</time>
      </trkpt>
      <trkpt lat="41.0422" lon="42.25714">
        <ele>2087.581632</ele>
        <time>2021-08-17T03:27:31.466Z</time>
      </trkpt>
      <trkpt lat="41.04172" lon="42.25668">
        <ele>2081.282824</ele>
        <time>2021-08-17T03:27:42.720Z</time>
      </trkpt>
      <trkpt lat="41.04141" lon="42.25631">
        <ele>2076.829317</ele>
        <time>2021-08-17T03:27:50.736Z</time>
      </trkpt>
      <trkpt lat="41.04118" lon="42.25583">
        <ele>2072.50734</ele>
        <time>2021-08-17T03:27:58.949Z</time>
      </trkpt>
      <trkpt lat="41.04121" lon="42.25521">
        <ele>2067.793155</ele>
        <time>2021-08-17T03:28:07.900Z</time>
      </trkpt>
      <trkpt lat="41.04111" lon="42.25514">
        <ele>2066.645969</ele>
        <time>2021-08-17T03:28:10.043Z</time>
      </trkpt>
      <trkpt lat="41.04091" lon="42.25516">
        <ele>2064.689321</ele>
        <time>2021-08-17T03:28:13.687Z</time>
      </trkpt>
      <trkpt lat="41.04067" lon="42.2554">
        <ele>2061.666462</ele>
        <time>2021-08-17T03:28:19.311Z</time>
      </trkpt>
      <trkpt lat="41.04059" lon="42.25572">
        <ele>2059.11671</ele>
        <time>2021-08-17T03:28:24.069Z</time>
      </trkpt>
      <trkpt lat="41.04064" lon="42.25602">
        <ele>2056.951017</ele>
        <time>2021-08-17T03:28:28.444Z</time>
      </trkpt>
      <trkpt lat="41.04083" lon="42.25633">
        <ele>2054.165485</ele>
        <time>2021-08-17T03:28:34.206Z</time>
      </trkpt>
      <trkpt lat="41.04101" lon="42.25723">
        <ele>2047.700026</ele>
        <time>2021-08-17T03:28:47.754Z</time>
      </trkpt>
      <trkpt lat="41.04157" lon="42.25829">
        <ele>2039.811005</ele>
        <time>2021-08-17T03:29:06.767Z</time>
      </trkpt>
      <trkpt lat="41.04203" lon="42.25896">
        <ele>2035.435345</ele>
        <time>2021-08-17T03:29:20.738Z</time>
      </trkpt>
      <trkpt lat="41.04226" lon="42.25942">
        <ele>2032.80508</ele>
        <time>2021-08-17T03:29:29.455Z</time>
      </trkpt>
      <trkpt lat="41.04228" lon="42.25965">
        <ele>2031.654228</ele>
        <time>2021-08-17T03:29:33.304Z</time>
      </trkpt>
      <trkpt lat="41.04217" lon="42.25979">
        <ele>2030.727624</ele>
        <time>2021-08-17T03:29:36.346Z</time>
      </trkpt>
      <trkpt lat="41.04156" lon="42.26024">
        <ele>2026.43434</ele>
        <time>2021-08-17T03:29:50.938Z</time>
      </trkpt>
      <trkpt lat="41.04113" lon="42.2607">
        <ele>2023.054206</ele>
        <time>2021-08-17T03:30:02.262Z</time>
      </trkpt>
      <trkpt lat="41.04103" lon="42.26135">
        <ele>2020.039128</ele>
        <time>2021-08-17T03:30:12.368Z</time>
      </trkpt>
      <trkpt lat="41.04059" lon="42.26235">
        <ele>2011.480369</ele>
        <time>2021-08-17T03:30:29.781Z</time>
      </trkpt>
      <trkpt lat="41.04052" lon="42.26238">
        <ele>2010.78283</ele>
        <time>2021-08-17T03:30:31.110Z</time>
      </trkpt>
      <trkpt lat="41.04046" lon="42.2623">
        <ele>2009.894375</ele>
        <time>2021-08-17T03:30:32.797Z</time>
      </trkpt>
      <trkpt lat="41.04046" lon="42.2621">
        <ele>2008.432331</ele>
        <time>2021-08-17T03:30:35.554Z</time>
      </trkpt>
      <trkpt lat="41.04063" lon="42.26156">
        <ele>2003.945618</ele>
        <time>2021-08-17T03:30:43.919Z</time>
      </trkpt>
      <trkpt lat="41.04058" lon="42.26086">
        <ele>1997.412743</ele>
        <time>2021-08-17T03:30:53.650Z</time>
      </trkpt>
      <trkpt lat="41.04065" lon="42.26051">
        <ele>1993.530635</ele>
        <time>2021-08-17T03:30:58.721Z</time>
      </trkpt>
      <trkpt lat="41.04089" lon="42.26006">
        <ele>1987.686652</ele>
        <time>2021-08-17T03:31:06.317Z</time>
      </trkpt>
      <trkpt lat="41.04087" lon="42.25977">
        <ele>1984.570517</ele>
        <time>2021-08-17T03:31:10.355Z</time>
      </trkpt>
      <trkpt lat="41.04072" lon="42.25953">
        <ele>1981.308208</ele>
        <time>2021-08-17T03:31:14.565Z</time>
      </trkpt>
      <trkpt lat="41.0402" lon="42.25913">
        <ele>1973.025188</ele>
        <time>2021-08-17T03:31:25.515Z</time>
      </trkpt>
      <trkpt lat="41.0397" lon="42.25897">
        <ele>1966.239711</ele>
        <time>2021-08-17T03:31:34.892Z</time>
      </trkpt>
      <trkpt lat="41.03956" lon="42.25883">
        <ele>1963.846156</ele>
        <time>2021-08-17T03:31:38.227Z</time>
      </trkpt>
      <trkpt lat="41.03936" lon="42.25826">
        <ele>1957.617102</ele>
        <time>2021-08-17T03:31:46.967Z</time>
      </trkpt>
      <trkpt lat="41.03902" lon="42.25772">
        <ele>1950.777415</ele>
        <time>2021-08-17T03:31:56.899Z</time>
      </trkpt>
      <trkpt lat="41.03785" lon="42.25731">
        <ele>1936.665374</ele>
        <time>2021-08-17T03:32:19.330Z</time>
      </trkpt>
      <trkpt lat="41.03751" lon="42.257">
        <ele>1931.869265</ele>
        <time>2021-08-17T03:32:27.077Z</time>
      </trkpt>
      <trkpt lat="41.03731" lon="42.25671">
        <ele>1929.194354</ele>
        <time>2021-08-17T03:32:32.727Z</time>
      </trkpt>
      <trkpt lat="41.0372" lon="42.25634">
        <ele>1926.562088</ele>
        <time>2021-08-17T03:32:38.539Z</time>
      </trkpt>
      <trkpt lat="41.03716" lon="42.25582">
        <ele>1923.115309</ele>
        <time>2021-08-17T03:32:46.216Z</time>
      </trkpt>
      <trkpt lat="41.03698" lon="42.25469">
        <ele>1915.566467</ele>
        <time>2021-08-17T03:33:03.322Z</time>
      </trkpt>
      <trkpt lat="41.03703" lon="42.2545">
        <ele>1914.455593</ele>
        <time>2021-08-17T03:33:06.415Z</time>
      </trkpt>
      <trkpt lat="41.03726" lon="42.25424">
        <ele>1912.267875</ele>
        <time>2021-08-17T03:33:12.603Z</time>
      </trkpt>
      <trkpt lat="41.03783" lon="42.25379">
        <ele>1907.588035</ele>
        <time>2021-08-17T03:33:25.858Z</time>
      </trkpt>
      <trkpt lat="41.0379" lon="42.25355">
        <ele>1906.174852</ele>
        <time>2021-08-17T03:33:29.827Z</time>
      </trkpt>
      <trkpt lat="41.03788" lon="42.2532">
        <ele>1904.320121</ele>
        <time>2021-08-17T03:33:35.017Z</time>
      </trkpt>
      <trkpt lat="41.03754" lon="42.25253">
        <ele>1899.83112</ele>
        <time>2021-08-17T03:33:47.118Z</time>
      </trkpt>
      <trkpt lat="41.03745" lon="42.25218">
        <ele>1897.748179</ele>
        <time>2021-08-17T03:33:52.670Z</time>
      </trkpt>
      <trkpt lat="41.03755" lon="42.2516">
        <ele>1894.405665</ele>
        <time>2021-08-17T03:34:01.691Z</time>
      </trkpt>
      <trkpt lat="41.03773" lon="42.25127">
        <ele>1892.098705</ele>
        <time>2021-08-17T03:34:07.885Z</time>
      </trkpt>
      <trkpt lat="41.03796" lon="42.25109">
        <ele>1890.111077</ele>
        <time>2021-08-17T03:34:13.215Z</time>
      </trkpt>
      <trkpt lat="41.03824" lon="42.25112">
        <ele>1887.699519</ele>
        <time>2021-08-17T03:34:18.762Z</time>
      </trkpt>
      <trkpt lat="41.03869" lon="42.25132">
        <ele>1883.427948</ele>
        <time>2021-08-17T03:34:28.039Z</time>
      </trkpt>
      <trkpt lat="41.03877" lon="42.25124">
        <ele>1882.576409</ele>
        <time>2021-08-17T03:34:29.864Z</time>
      </trkpt>
      <trkpt lat="41.03874" lon="42.25107">
        <ele>1881.420011</ele>
        <time>2021-08-17T03:34:32.344Z</time>
      </trkpt>
      <trkpt lat="41.03806" lon="42.25064">
        <ele>1874.599901</ele>
        <time>2021-08-17T03:34:46.816Z</time>
      </trkpt>
      <trkpt lat="41.03778" lon="42.25063">
        <ele>1872.114105</ele>
        <time>2021-08-17T03:34:52.143Z</time>
      </trkpt>
      <trkpt lat="41.03732" lon="42.25076">
        <ele>1868.024523</ele>
        <time>2021-08-17T03:35:00.955Z</time>
      </trkpt>
      <trkpt lat="41.03703" lon="42.25114">
        <ele>1864.375236</ele>
        <time>2021-08-17T03:35:08.923Z</time>
      </trkpt>
      <trkpt lat="41.03678" lon="42.25162">
        <ele>1860.530922</ele>
        <time>2021-08-17T03:35:17.404Z</time>
      </trkpt>
      <trkpt lat="41.03665" lon="42.25208">
        <ele>1857.283801</ele>
        <time>2021-08-17T03:35:24.834Z</time>
      </trkpt>
      <trkpt lat="41.03664" lon="42.25263">
        <ele>1854.507194</ele>
        <time>2021-08-17T03:35:33.158Z</time>
      </trkpt>
      <trkpt lat="41.0366" lon="42.25279">
        <ele>1853.661297</ele>
        <time>2021-08-17T03:35:35.759Z</time>
      </trkpt>
      <trkpt lat="41.0365" lon="42.25283">
        <ele>1852.964041</ele>
        <time>2021-08-17T03:35:37.842Z</time>
      </trkpt>
      <trkpt lat="41.0364" lon="42.25275">
        <ele>1852.200732</ele>
        <time>2021-08-17T03:35:40.147Z</time>
      </trkpt>
      <trkpt lat="41.03635" lon="42.2526">
        <ele>1851.341134</ele>
        <time>2021-08-17T03:35:42.811Z</time>
      </trkpt>
      <trkpt lat="41.03658" lon="42.25121">
        <ele>1843.923019</ele>
        <time>2021-08-17T03:36:04.537Z</time>
      </trkpt>
      <trkpt lat="41.03714" lon="42.25027">
        <ele>1836.741546</ele>
        <time>2021-08-17T03:36:22.386Z</time>
      </trkpt>
      <trkpt lat="41.03738" lon="42.24999">
        <ele>1834.199992</ele>
        <time>2021-08-17T03:36:28.619Z</time>
      </trkpt>
      <trkpt lat="41.03766" lon="42.24986">
        <ele>1831.839323</ele>
        <time>2021-08-17T03:36:34.360Z</time>
      </trkpt>
      <trkpt lat="41.03778" lon="42.24969">
        <ele>1830.453729</ele>
        <time>2021-08-17T03:36:37.801Z</time>
      </trkpt>
      <trkpt lat="41.03786" lon="42.2494">
        <ele>1828.690198</ele>
        <time>2021-08-17T03:36:42.323Z</time>
      </trkpt>
      <trkpt lat="41.03783" lon="42.24888">
        <ele>1825.709256</ele>
        <time>2021-08-17T03:36:49.964Z</time>
      </trkpt>
      <trkpt lat="41.03791" lon="42.24841">
        <ele>1822.974222</ele>
        <time>2021-08-17T03:36:57.058Z</time>
      </trkpt>
      <trkpt lat="41.03829" lon="42.24694">
        <ele>1815.801527</ele>
        <time>2021-08-17T03:37:21.094Z</time>
      </trkpt>
      <trkpt lat="41.03847" lon="42.24654">
        <ele>1814.461575</ele>
        <time>2021-08-17T03:37:28.884Z</time>
      </trkpt>
      <trkpt lat="41.03904" lon="42.24604">
        <ele>1811.876236</ele>
        <time>2021-08-17T03:37:44.727Z</time>
      </trkpt>
      <trkpt lat="41.03929" lon="42.24593">
        <ele>1810.860515</ele>
        <time>2021-08-17T03:37:51.242Z</time>
      </trkpt>
      <trkpt lat="41.03971" lon="42.24597">
        <ele>1808.89518</ele>
        <time>2021-08-17T03:38:01.687Z</time>
      </trkpt>
      <trkpt lat="41.04016" lon="42.24611">
        <ele>1806.667975</ele>
        <time>2021-08-17T03:38:12.388Z</time>
      </trkpt>
      <trkpt lat="41.04058" lon="42.24639">
        <ele>1804.414981</ele>
        <time>2021-08-17T03:38:22.366Z</time>
      </trkpt>
      <trkpt lat="41.04092" lon="42.24687">
        <ele>1802.021991</ele>
        <time>2021-08-17T03:38:32.255Z</time>
      </trkpt>
      <trkpt lat="41.04101" lon="42.24687">
        <ele>1800.925793</ele>
        <time>2021-08-17T03:38:34.054Z</time>
      </trkpt>
      <trkpt lat="41.04104" lon="42.24665">
        <ele>1798.935434</ele>
        <time>2021-08-17T03:38:37.301Z</time>
      </trkpt>
      <trkpt lat="41.04098" lon="42.24627">
        <ele>1795.492598</ele>
        <time>2021-08-17T03:38:42.856Z</time>
      </trkpt>
      <trkpt lat="41.04038" lon="42.24527">
        <ele>1784.181846</ele>
        <time>2021-08-17T03:39:00.647Z</time>
      </trkpt>
      <trkpt lat="41.03948" lon="42.245">
        <ele>1771.161523</ele>
        <time>2021-08-17T03:39:17.503Z</time>
      </trkpt>
      <trkpt lat="41.03909" lon="42.24511">
        <ele>1765.239585</ele>
        <time>2021-08-17T03:39:24.638Z</time>
      </trkpt>
      <trkpt lat="41.03901" lon="42.24505">
        <ele>1763.896055</ele>
        <time>2021-08-17T03:39:26.255Z</time>
      </trkpt>
      <trkpt lat="41.03901" lon="42.24491">
        <ele>1762.298351</ele>
        <time>2021-08-17T03:39:28.188Z</time>
      </trkpt>
      <trkpt lat="41.03929" lon="42.24454">
        <ele>1756.433386</ele>
        <time>2021-08-17T03:39:35.270Z</time>
      </trkpt>
      <trkpt lat="41.03932" lon="42.24407">
        <ele>1751.108021</ele>
        <time>2021-08-17T03:39:41.839Z</time>
      </trkpt>
      <trkpt lat="41.03958" lon="42.24273">
        <ele>1735.949033</ele>
        <time>2021-08-17T03:40:00.789Z</time>
      </trkpt>
      <trkpt lat="41.03974" lon="42.24241">
        <ele>1731.70875</ele>
        <time>2021-08-17T03:40:06.192Z</time>
      </trkpt>
      <trkpt lat="41.03978" lon="42.24223">
        <ele>1729.70931</ele>
        <time>2021-08-17T03:40:08.661Z</time>
      </trkpt>
      <trkpt lat="41.03977" lon="42.2419">
        <ele>1726.690168</ele>
        <time>2021-08-17T03:40:13.453Z</time>
      </trkpt>
      <trkpt lat="41.03983" lon="42.24184">
        <ele>1726.025681</ele>
        <time>2021-08-17T03:40:14.799Z</time>
      </trkpt>
      <trkpt lat="41.04002" lon="42.24202">
        <ele>1723.982198</ele>
        <time>2021-08-17T03:40:19.256Z</time>
      </trkpt>
      <trkpt lat="41.04014" lon="42.24227">
        <ele>1722.034679</ele>
        <time>2021-08-17T03:40:23.390Z</time>
      </trkpt>
      <trkpt lat="41.04023" lon="42.2423">
        <ele>1721.185073</ele>
        <time>2021-08-17T03:40:25.282Z</time>
      </trkpt>
      <trkpt lat="41.04036" lon="42.24233">
        <ele>1720.003585</ele>
        <time>2021-08-17T03:40:27.852Z</time>
      </trkpt>
      <trkpt lat="41.04069" lon="42.24221">
        <ele>1717.033285</ele>
        <time>2021-08-17T03:40:34.549Z</time>
      </trkpt>
      <trkpt lat="41.04083" lon="42.24215">
        <ele>1715.753743</ele>
        <time>2021-08-17T03:40:37.319Z</time>
      </trkpt>
      <trkpt lat="41.04089" lon="42.24205">
        <ele>1714.875263</ele>
        <time>2021-08-17T03:40:39.405Z</time>
      </trkpt>
      <trkpt lat="41.04086" lon="42.24182">
        <ele>1713.338894</ele>
        <time>2021-08-17T03:40:42.829Z</time>
      </trkpt>
      <trkpt lat="41.04055" lon="42.2417">
        <ele>1711.467041</ele>
        <time>2021-08-17T03:40:50.068Z</time>
      </trkpt>
      <trkpt lat="41.04034" lon="42.24138">
        <ele>1710.588179</ele>
        <time>2021-08-17T03:40:57.737Z</time>
      </trkpt>
      <trkpt lat="41.04016" lon="42.24084">
        <ele>1709.392477</ele>
        <time>2021-08-17T03:41:08.362Z</time>
      </trkpt>
      <trkpt lat="41.03998" lon="42.24054">
        <ele>1708.598521</ele>
        <time>2021-08-17T03:41:15.332Z</time>
      </trkpt>
      <trkpt lat="41.03994" lon="42.24038">
        <ele>1708.263341</ele>
        <time>2021-08-17T03:41:18.516Z</time>
      </trkpt>
      <trkpt lat="41.04008" lon="42.23973">
        <ele>1706.876401</ele>
        <time>2021-08-17T03:41:31.770Z</time>
      </trkpt>
      <trkpt lat="41.04057" lon="42.23928">
        <ele>1705.179272</ele>
        <time>2021-08-17T03:41:46.149Z</time>
      </trkpt>
      <trkpt lat="41.04059" lon="42.23916">
        <ele>1704.905709</ele>
        <time>2021-08-17T03:41:49.011Z</time>
      </trkpt>
      <trkpt lat="41.04056" lon="42.23898">
        <ele>1704.517321</ele>
        <time>2021-08-17T03:41:51.962Z</time>
      </trkpt>
      <trkpt lat="41.04034" lon="42.23839">
        <ele>1703.107149</ele>
        <time>2021-08-17T03:42:03.623Z</time>
      </trkpt>
      <trkpt lat="41.04028" lon="42.23762">
        <ele>1701.140961</ele>
        <time>2021-08-17T03:42:16.702Z</time>
      </trkpt>
      <trkpt lat="41.04011" lon="42.23714">
        <ele>1699.306351</ele>
        <time>2021-08-17T03:42:25.289Z</time>
      </trkpt>
      <trkpt lat="41.04009" lon="42.23683">
        <ele>1698.221379</ele>
        <time>2021-08-17T03:42:30.368Z</time>
      </trkpt>
      <trkpt lat="41.04016" lon="42.23645">
        <ele>1696.859562</ele>
        <time>2021-08-17T03:42:36.711Z</time>
      </trkpt>
      <trkpt lat="41.04062" lon="42.23542">
        <ele>1692.294072</ele>
        <time>2021-08-17T03:42:55.794Z</time>
      </trkpt>
      <trkpt lat="41.04073" lon="42.23464">
        <ele>1688.410403</ele>
        <time>2021-08-17T03:43:08.039Z</time>
      </trkpt>
      <trkpt lat="41.04082" lon="42.23428">
        <ele>1686.538696</ele>
        <time>2021-08-17T03:43:13.817Z</time>
      </trkpt>
      <trkpt lat="41.04099" lon="42.23388">
        <ele>1684.241147</ele>
        <time>2021-08-17T03:43:20.886Z</time>
      </trkpt>
      <trkpt lat="41.04108" lon="42.23342">
        <ele>1681.939335</ele>
        <time>2021-08-17T03:43:27.928Z</time>
      </trkpt>
      <trkpt lat="41.04105" lon="42.23308">
        <ele>1680.180323</ele>
        <time>2021-08-17T03:43:33.118Z</time>
      </trkpt>
      <trkpt lat="41.04088" lon="42.23227">
        <ele>1675.877493</ele>
        <time>2021-08-17T03:43:45.886Z</time>
      </trkpt>
      <trkpt lat="41.04095" lon="42.23174">
        <ele>1673.122495</ele>
        <time>2021-08-17T03:43:54.101Z</time>
      </trkpt>
      <trkpt lat="41.04091" lon="42.23135">
        <ele>1671.099674</ele>
        <time>2021-08-17T03:44:00.151Z</time>
      </trkpt>
      <trkpt lat="41.04071" lon="42.23054">
        <ele>1667.83061</ele>
        <time>2021-08-17T03:44:13.296Z</time>
      </trkpt>
      <trkpt lat="41.04071" lon="42.23039">
        <ele>1667.353325</ele>
        <time>2021-08-17T03:44:15.676Z</time>
      </trkpt>
      <trkpt lat="41.04117" lon="42.2296">
        <ele>1664.181465</ele>
        <time>2021-08-17T03:44:32.277Z</time>
      </trkpt>
      <trkpt lat="41.0412" lon="42.22945">
        <ele>1663.668132</ele>
        <time>2021-08-17T03:44:35.055Z</time>
      </trkpt>
      <trkpt lat="41.04113" lon="42.22902">
        <ele>1662.259917</ele>
        <time>2021-08-17T03:44:42.707Z</time>
      </trkpt>
      <trkpt lat="41.04106" lon="42.22891">
        <ele>1661.969233</ele>
        <time>2021-08-17T03:44:45.154Z</time>
      </trkpt>
      <trkpt lat="41.04067" lon="42.22864">
        <ele>1661.442484</ele>
        <time>2021-08-17T03:44:55.678Z</time>
      </trkpt>
      <trkpt lat="41.04037" lon="42.22831">
        <ele>1660.985487</ele>
        <time>2021-08-17T03:45:05.783Z</time>
      </trkpt>
      <trkpt lat="41.04027" lon="42.22806">
        <ele>1660.731601</ele>
        <time>2021-08-17T03:45:11.996Z</time>
      </trkpt>
      <trkpt lat="41.04024" lon="42.22779">
        <ele>1660.482708</ele>
        <time>2021-08-17T03:45:18.035Z</time>
      </trkpt>
      <trkpt lat="41.04038" lon="42.22736">
        <ele>1660.058723</ele>
        <time>2021-08-17T03:45:29.571Z</time>
      </trkpt>
      <trkpt lat="41.04075" lon="42.22725">
        <ele>1659.312649</ele>
        <time>2021-08-17T03:45:41.445Z</time>
      </trkpt>
      <trkpt lat="41.04086" lon="42.22713">
        <ele>1658.939646</ele>
        <time>2021-08-17T03:45:46.110Z</time>
      </trkpt>
      <trkpt lat="41.04091" lon="42.22673">
        <ele>1658.165579</ele>
        <time>2021-08-17T03:45:54.088Z</time>
      </trkpt>
      <trkpt lat="41.04111" lon="42.22612">
        <ele>1656.892009</ele>
        <time>2021-08-17T03:46:06.063Z</time>
      </trkpt>
      <trkpt lat="41.04123" lon="42.22596">
        <ele>1656.463234</ele>
        <time>2021-08-17T03:46:09.915Z</time>
      </trkpt>
      <trkpt lat="41.04139" lon="42.22587">
        <ele>1656.024192</ele>
        <time>2021-08-17T03:46:13.765Z</time>
      </trkpt>
      <trkpt lat="41.04146" lon="42.22575">
        <ele>1655.734063</ele>
        <time>2021-08-17T03:46:16.244Z</time>
      </trkpt>
      <trkpt lat="41.04142" lon="42.22554">
        <ele>1655.328652</ele>
        <time>2021-08-17T03:46:19.650Z</time>
      </trkpt>
      <trkpt lat="41.04123" lon="42.22538">
        <ele>1653.660243</ele>
        <time>2021-08-17T03:46:24.198Z</time>
      </trkpt>
      <trkpt lat="41.0408" lon="42.22484">
        <ele>1649.208173</ele>
        <time>2021-08-17T03:46:36.046Z</time>
      </trkpt>
      <trkpt lat="41.04127" lon="42.22372">
        <ele>1641.922689</ele>
        <time>2021-08-17T03:46:54.942Z</time>
      </trkpt>
      <trkpt lat="41.04126" lon="42.22358">
        <ele>1641.08398</ele>
        <time>2021-08-17T03:46:57.036Z</time>
      </trkpt>
      <trkpt lat="41.0409" lon="42.223">
        <ele>1636.771076</ele>
        <time>2021-08-17T03:47:07.761Z</time>
      </trkpt>
      <trkpt lat="41.04088" lon="42.22282">
        <ele>1635.678343</ele>
        <time>2021-08-17T03:47:10.503Z</time>
      </trkpt>
      <trkpt lat="41.04098" lon="42.22201">
        <ele>1630.927947</ele>
        <time>2021-08-17T03:47:22.746Z</time>
      </trkpt>
      <trkpt lat="41.04094" lon="42.22118">
        <ele>1627.317975</ele>
        <time>2021-08-17T03:47:35.791Z</time>
      </trkpt>
      <trkpt lat="41.04089" lon="42.22092">
        <ele>1626.760422</ele>
        <time>2021-08-17T03:47:40.277Z</time>
      </trkpt>
      <trkpt lat="41.04048" lon="42.22013">
        <ele>1624.778236</ele>
        <time>2021-08-17T03:47:57.189Z</time>
      </trkpt>
      <trkpt lat="41.04054" lon="42.21958">
        <ele>1623.634154</ele>
        <time>2021-08-17T03:48:08.537Z</time>
      </trkpt>
      <trkpt lat="41.04069" lon="42.21936">
        <ele>1623.032336</ele>
        <time>2021-08-17T03:48:15.465Z</time>
      </trkpt>
      <trkpt lat="41.04146" lon="42.21898">
        <ele>1620.552619</ele>
        <time>2021-08-17T03:48:39.416Z</time>
      </trkpt>
      <trkpt lat="41.04218" lon="42.219">
        <ele>1618.388558</ele>
        <time>2021-08-17T03:48:55.363Z</time>
      </trkpt>
      <trkpt lat="41.04235" lon="42.21887">
        <ele>1617.790235</ele>
        <time>2021-08-17T03:48:59.415Z</time>
      </trkpt>
      <trkpt lat="41.04229" lon="42.21867">
        <ele>1616.633846</ele>
        <time>2021-08-17T03:49:02.815Z</time>
      </trkpt>
      <trkpt lat="41.04212" lon="42.21847">
        <ele>1614.704488</ele>
        <time>2021-08-17T03:49:07.264Z</time>
      </trkpt>
      <trkpt lat="41.04212" lon="42.21816">
        <ele>1612.740949</ele>
        <time>2021-08-17T03:49:11.764Z</time>
      </trkpt>
      <trkpt lat="41.04207" lon="42.218">
        <ele>1611.614507</ele>
        <time>2021-08-17T03:49:14.315Z</time>
      </trkpt>
      <trkpt lat="41.04169" lon="42.21723">
        <ele>1605.717638</ele>
        <time>2021-08-17T03:49:27.620Z</time>
      </trkpt>
      <trkpt lat="41.04156" lon="42.21685">
        <ele>1603.067977</ele>
        <time>2021-08-17T03:49:33.584Z</time>
      </trkpt>
      <trkpt lat="41.04146" lon="42.21667">
        <ele>1601.781492</ele>
        <time>2021-08-17T03:49:36.838Z</time>
      </trkpt>
      <trkpt lat="41.04127" lon="42.21652">
        <ele>1600.252929</ele>
        <time>2021-08-17T03:49:41.203Z</time>
      </trkpt>
      <trkpt lat="41.04117" lon="42.21629">
        <ele>1598.928722</ele>
        <time>2021-08-17T03:49:45.064Z</time>
      </trkpt>
      <trkpt lat="41.04115" lon="42.21618">
        <ele>1598.343197</ele>
        <time>2021-08-17T03:49:46.774Z</time>
      </trkpt>
      <trkpt lat="41.0412" lon="42.21605">
        <ele>1597.603291</ele>
        <time>2021-08-17T03:49:48.956Z</time>
      </trkpt>
      <trkpt lat="41.04147" lon="42.21565">
        <ele>1594.832767</ele>
        <time>2021-08-17T03:49:57.123Z</time>
      </trkpt>
      <trkpt lat="41.04152" lon="42.2153">
        <ele>1593.024557</ele>
        <time>2021-08-17T03:50:02.635Z</time>
      </trkpt>
      <trkpt lat="41.04148" lon="42.21511">
        <ele>1592.007181</ele>
        <time>2021-08-17T03:50:05.752Z</time>
      </trkpt>
      <trkpt lat="41.04083" lon="42.21442">
        <ele>1588.232286</ele>
        <time>2021-08-17T03:50:24.390Z</time>
      </trkpt>
      <trkpt lat="41.04068" lon="42.21418">
        <ele>1587.417835</ele>
        <time>2021-08-17T03:50:29.593Z</time>
      </trkpt>
      <trkpt lat="41.04063" lon="42.21411">
        <ele>1587.172011</ele>
        <time>2021-08-17T03:50:31.522Z</time>
      </trkpt>
      <trkpt lat="41.04047" lon="42.21369">
        <ele>1585.954708</ele>
        <time>2021-08-17T03:50:39.740Z</time>
      </trkpt>
      <trkpt lat="41.04027" lon="42.21304">
        <ele>1584.104551</ele>
        <time>2021-08-17T03:50:52.029Z</time>
      </trkpt>
      <trkpt lat="41.04022" lon="42.21267">
        <ele>1582.870628</ele>
        <time>2021-08-17T03:50:58.398Z</time>
      </trkpt>
      <trkpt lat="41.0406" lon="42.21176">
        <ele>1579.30301</ele>
        <time>2021-08-17T03:51:15.927Z</time>
      </trkpt>
      <trkpt lat="41.04077" lon="42.21048">
        <ele>1574.199268</ele>
        <time>2021-08-17T03:51:36.384Z</time>
      </trkpt>
      <trkpt lat="41.04073" lon="42.21027">
        <ele>1572.946148</ele>
        <time>2021-08-17T03:51:39.735Z</time>
      </trkpt>
      <trkpt lat="41.0404" lon="42.20969">
        <ele>1568.884875</ele>
        <time>2021-08-17T03:51:50.434Z</time>
      </trkpt>
      <trkpt lat="41.04033" lon="42.20938">
        <ele>1566.995365</ele>
        <time>2021-08-17T03:51:55.375Z</time>
      </trkpt>
      <trkpt lat="41.04031" lon="42.20913">
        <ele>1565.57935</ele>
        <time>2021-08-17T03:51:59.081Z</time>
      </trkpt>
      <trkpt lat="41.04045" lon="42.20871">
        <ele>1563.002903</ele>
        <time>2021-08-17T03:52:05.805Z</time>
      </trkpt>
      <trkpt lat="41.04045" lon="42.20852">
        <ele>1561.922254</ele>
        <time>2021-08-17T03:52:08.570Z</time>
      </trkpt>
      <trkpt lat="41.04021" lon="42.20764">
        <ele>1556.27148</ele>
        <time>2021-08-17T03:52:22.303Z</time>
      </trkpt>
      <trkpt lat="41.04019" lon="42.20738">
        <ele>1554.67193</ele>
        <time>2021-08-17T03:52:26.206Z</time>
      </trkpt>
      <trkpt lat="41.04021" lon="42.20705">
        <ele>1552.632538</ele>
        <time>2021-08-17T03:52:31.221Z</time>
      </trkpt>
      <trkpt lat="41.04046" lon="42.20667">
        <ele>1549.589757</ele>
        <time>2021-08-17T03:52:38.727Z</time>
      </trkpt>
      <trkpt lat="41.04046" lon="42.20657">
        <ele>1549.020139</ele>
        <time>2021-08-17T03:52:40.131Z</time>
      </trkpt>
      <trkpt lat="41.04021" lon="42.20612">
        <ele>1546.111488</ele>
        <time>2021-08-17T03:52:48.679Z</time>
      </trkpt>
      <trkpt lat="41.04016" lon="42.20592">
        <ele>1545.183615</ele>
        <time>2021-08-17T03:52:51.726Z</time>
      </trkpt>
      <trkpt lat="41.04031" lon="42.20415">
        <ele>1536.978634</ele>
        <time>2021-08-17T03:53:19.506Z</time>
      </trkpt>
      <trkpt lat="41.04041" lon="42.20363">
        <ele>1534.510053</ele>
        <time>2021-08-17T03:53:28.310Z</time>
      </trkpt>
      <trkpt lat="41.04052" lon="42.20339">
        <ele>1533.264839</ele>
        <time>2021-08-17T03:53:32.708Z</time>
      </trkpt>
      <trkpt lat="41.04071" lon="42.20329">
        <ele>1531.993256</ele>
        <time>2021-08-17T03:53:37.202Z</time>
      </trkpt>
      <trkpt lat="41.04174" lon="42.20324">
        <ele>1525.703653</ele>
        <time>2021-08-17T03:53:58.011Z</time>
      </trkpt>
      <trkpt lat="41.04215" lon="42.20317">
        <ele>1521.708459</ele>
        <time>2021-08-17T03:54:06.138Z</time>
      </trkpt>
      <trkpt lat="41.04238" lon="42.20307">
        <ele>1519.394118</ele>
        <time>2021-08-17T03:54:10.780Z</time>
      </trkpt>
      <trkpt lat="41.04319" lon="42.20215">
        <ele>1509.201341</ele>
        <time>2021-08-17T03:54:30.990Z</time>
      </trkpt>
      <trkpt lat="41.04325" lon="42.20203">
        <ele>1508.099836</ele>
        <time>2021-08-17T03:54:33.025Z</time>
      </trkpt>
      <trkpt lat="41.04323" lon="42.20145">
        <ele>1503.4273</ele>
        <time>2021-08-17T03:54:41.271Z</time>
      </trkpt>
      <trkpt lat="41.04334" lon="42.20128">
        <ele>1501.614393</ele>
        <time>2021-08-17T03:54:44.491Z</time>
      </trkpt>
      <trkpt lat="41.04349" lon="42.20124">
        <ele>1499.993808</ele>
        <time>2021-08-17T03:54:47.370Z</time>
      </trkpt>
      <trkpt lat="41.04381" lon="42.20144">
        <ele>1496.133191</ele>
        <time>2021-08-17T03:54:54.236Z</time>
      </trkpt>
      <trkpt lat="41.04419" lon="42.20139">
        <ele>1492.097284</ele>
        <time>2021-08-17T03:55:01.401Z</time>
      </trkpt>
      <trkpt lat="41.04469" lon="42.20164">
        <ele>1485.788441</ele>
        <time>2021-08-17T03:55:11.520Z</time>
      </trkpt>
      <trkpt lat="41.04476" lon="42.20159">
        <ele>1484.787012</ele>
        <time>2021-08-17T03:55:13.020Z</time>
      </trkpt>
      <trkpt lat="41.04475" lon="42.20114">
        <ele>1480.529963</ele>
        <time>2021-08-17T03:55:19.328Z</time>
      </trkpt>
      <trkpt lat="41.04444" lon="42.20045">
        <ele>1472.884532</ele>
        <time>2021-08-17T03:55:30.537Z</time>
      </trkpt>
      <trkpt lat="41.04413" lon="42.19995">
        <ele>1466.721373</ele>
        <time>2021-08-17T03:55:39.499Z</time>
      </trkpt>
      <trkpt lat="41.04408" lon="42.19968">
        <ele>1463.780535</ele>
        <time>2021-08-17T03:55:43.331Z</time>
      </trkpt>
      <trkpt lat="41.0442" lon="42.19884">
        <ele>1454.704283</ele>
        <time>2021-08-17T03:55:55.131Z</time>
      </trkpt>
      <trkpt lat="41.04472" lon="42.19793">
        <ele>1442.561961</ele>
        <time>2021-08-17T03:56:10.987Z</time>
      </trkpt>
      <trkpt lat="41.04475" lon="42.19779">
        <ele>1441.043628</ele>
        <time>2021-08-17T03:56:13.040Z</time>
      </trkpt>
      <trkpt lat="41.04454" lon="42.19762">
        <ele>1437.935716</ele>
        <time>2021-08-17T03:56:17.497Z</time>
      </trkpt>
      <trkpt lat="41.04443" lon="42.19741">
        <ele>1435.419668</ele>
        <time>2021-08-17T03:56:21.089Z</time>
      </trkpt>
      <trkpt lat="41.04441" lon="42.1971">
        <ele>1432.447558</ele>
        <time>2021-08-17T03:56:25.369Z</time>
      </trkpt>
      <trkpt lat="41.04455" lon="42.19682">
        <ele>1429.176416</ele>
        <time>2021-08-17T03:56:30.066Z</time>
      </trkpt>
      <trkpt lat="41.04456" lon="42.1967">
        <ele>1428.025564</ele>
        <time>2021-08-17T03:56:31.726Z</time>
      </trkpt>
      <trkpt lat="41.04438" lon="42.19563">
        <ele>1417.83538</ele>
        <time>2021-08-17T03:56:47.097Z</time>
      </trkpt>
      <trkpt lat="41.04444" lon="42.19462">
        <ele>1411.829307</ele>
        <time>2021-08-17T03:57:01.619Z</time>
      </trkpt>
      <trkpt lat="41.04432" lon="42.19379">
        <ele>1406.785492</ele>
        <time>2021-08-17T03:57:14.514Z</time>
      </trkpt>
      <trkpt lat="41.04453" lon="42.19278">
        <ele>1403.908152</ele>
        <time>2021-08-17T03:57:33.135Z</time>
      </trkpt>
      <trkpt lat="41.04472" lon="42.19226">
        <ele>1403.455509</ele>
        <time>2021-08-17T03:57:47.208Z</time>
      </trkpt>
      <trkpt lat="41.04488" lon="42.19204">
        <ele>1403.222726</ele>
        <time>2021-08-17T03:57:55.202Z</time>
      </trkpt>
      <trkpt lat="41.04518" lon="42.19176">
        <ele>1402.839702</ele>
        <time>2021-08-17T03:58:08.997Z</time>
      </trkpt>
      <trkpt lat="41.0459" lon="42.1915">
        <ele>1399.696275</ele>
        <time>2021-08-17T03:58:29.244Z</time>
      </trkpt>
      <trkpt lat="41.04608" lon="42.19139">
        <ele>1398.507156</ele>
        <time>2021-08-17T03:58:33.481Z</time>
      </trkpt>
      <trkpt lat="41.04626" lon="42.19114">
        <ele>1396.895112</ele>
        <time>2021-08-17T03:58:39.005Z</time>
      </trkpt>
      <trkpt lat="41.0465" lon="42.19093">
        <ele>1395.122178</ele>
        <time>2021-08-17T03:58:44.777Z</time>
      </trkpt>
      <trkpt lat="41.04689" lon="42.1902">
        <ele>1390.419944</ele>
        <time>2021-08-17T03:58:57.548Z</time>
      </trkpt>
      <trkpt lat="41.04688" lon="42.19005">
        <ele>1388.969642</ele>
        <time>2021-08-17T03:58:59.632Z</time>
      </trkpt>
      <trkpt lat="41.04677" lon="42.18993">
        <ele>1387.041256</ele>
        <time>2021-08-17T03:59:02.397Z</time>
      </trkpt>
      <trkpt lat="41.04653" lon="42.18982">
        <ele>1383.839633</ele>
        <time>2021-08-17T03:59:06.965Z</time>
      </trkpt>
      <trkpt lat="41.04611" lon="42.18916">
        <ele>1375.481685</ele>
        <time>2021-08-17T03:59:18.923Z</time>
      </trkpt>
      <trkpt lat="41.04584" lon="42.18886">
        <ele>1370.99578</ele>
        <time>2021-08-17T03:59:25.370Z</time>
      </trkpt>
      <trkpt lat="41.0458" lon="42.18872">
        <ele>1369.562416</ele>
        <time>2021-08-17T03:59:27.434Z</time>
      </trkpt>
      <trkpt lat="41.04581" lon="42.1885">
        <ele>1367.77395</ele>
        <time>2021-08-17T03:59:30.520Z</time>
      </trkpt>
      <trkpt lat="41.0459" lon="42.18823">
        <ele>1365.859556</ele>
        <time>2021-08-17T03:59:34.679Z</time>
      </trkpt>
      <trkpt lat="41.04617" lon="42.18767">
        <ele>1361.499495</ele>
        <time>2021-08-17T03:59:44.397Z</time>
      </trkpt>
      <trkpt lat="41.04646" lon="42.18693">
        <ele>1356.073394</ele>
        <time>2021-08-17T03:59:56.880Z</time>
      </trkpt>
      <trkpt lat="41.04686" lon="42.18683">
        <ele>1352.438263</ele>
        <time>2021-08-17T04:00:05.337Z</time>
      </trkpt>
      <trkpt lat="41.04702" lon="42.1867">
        <ele>1350.70001</ele>
        <time>2021-08-17T04:00:09.050Z</time>
      </trkpt>
      <trkpt lat="41.04741" lon="42.18611">
        <ele>1345.114841</ele>
        <time>2021-08-17T04:00:20.665Z</time>
      </trkpt>
      <trkpt lat="41.04757" lon="42.18593">
        <ele>1343.06325</ele>
        <time>2021-08-17T04:00:24.819Z</time>
      </trkpt>
      <trkpt lat="41.04773" lon="42.18582">
        <ele>1341.389983</ele>
        <time>2021-08-17T04:00:28.177Z</time>
      </trkpt>
      <trkpt lat="41.04831" lon="42.18561">
        <ele>1335.537321</ele>
        <time>2021-08-17T04:00:39.528Z</time>
      </trkpt>
      <trkpt lat="41.04852" lon="42.18541">
        <ele>1332.040704</ele>
        <time>2021-08-17T04:00:44.133Z</time>
      </trkpt>
      <trkpt lat="41.04875" lon="42.18505">
        <ele>1327.066274</ele>
        <time>2021-08-17T04:00:50.656Z</time>
      </trkpt>
      <trkpt lat="41.04945" lon="42.18367">
        <ele>1309.796811</ele>
        <time>2021-08-17T04:01:13.587Z</time>
      </trkpt>
      <trkpt lat="41.04997" lon="42.18232">
        <ele>1296.955863</ele>
        <time>2021-08-17T04:01:34.842Z</time>
      </trkpt>
      <trkpt lat="41.05022" lon="42.18192">
        <ele>1292.523083</ele>
        <time>2021-08-17T04:01:42.433Z</time>
      </trkpt>
      <trkpt lat="41.05054" lon="42.18164">
        <ele>1289.131926</ele>
        <time>2021-08-17T04:01:49.964Z</time>
      </trkpt>
      <trkpt lat="41.05067" lon="42.18154">
        <ele>1288.122034</ele>
        <time>2021-08-17T04:01:52.876Z</time>
      </trkpt>
      <trkpt lat="41.05135" lon="42.18117">
        <ele>1283.225982</ele>
        <time>2021-08-17T04:02:07.640Z</time>
      </trkpt>
      <trkpt lat="41.05171" lon="42.18081">
        <ele>1280.160187</ele>
        <time>2021-08-17T04:02:17.081Z</time>
      </trkpt>
      <trkpt lat="41.05196" lon="42.18071">
        <ele>1278.44989</ele>
        <time>2021-08-17T04:02:22.309Z</time>
      </trkpt>
      <trkpt lat="41.05337" lon="42.17967">
        <ele>1270.366133</ele>
        <time>2021-08-17T04:02:56.435Z</time>
      </trkpt>
      <trkpt lat="41.05421" lon="42.17918">
        <ele>1266.465038</ele>
        <time>2021-08-17T04:03:16.084Z</time>
      </trkpt>
      <trkpt lat="41.05448" lon="42.17889">
        <ele>1265.076752</ele>
        <time>2021-08-17T04:03:23.510Z</time>
      </trkpt>
      <trkpt lat="41.05632" lon="42.17642">
        <ele>1256.951073</ele>
        <time>2021-08-17T04:04:24.070Z</time>
      </trkpt>
      <trkpt lat="41.05654" lon="42.17603">
        <ele>1256.456934</ele>
        <time>2021-08-17T04:04:33.461Z</time>
      </trkpt>
      <trkpt lat="41.05666" lon="42.17566">
        <ele>1256.038719</ele>
        <time>2021-08-17T04:04:41.635Z</time>
      </trkpt>
      <trkpt lat="41.05671" lon="42.17553">
        <ele>1255.887205</ele>
        <time>2021-08-17T04:04:44.629Z</time>
      </trkpt>
      <trkpt lat="41.05677" lon="42.17539">
        <ele>1255.723758</ele>
        <time>2021-08-17T04:04:48.047Z</time>
      </trkpt>
      <trkpt lat="41.05752" lon="42.17281">
        <ele>1253.06659</ele>
        <time>2021-08-17T04:05:44.529Z</time>
      </trkpt>
      <trkpt lat="41.05772" lon="42.17244">
        <ele>1252.641199</ele>
        <time>2021-08-17T04:05:53.343Z</time>
      </trkpt>
      <trkpt lat="41.05779" lon="42.17231">
        <ele>1252.500384</ele>
        <time>2021-08-17T04:05:56.237Z</time>
      </trkpt>
      <trkpt lat="41.05793" lon="42.17221">
        <ele>1252.255769</ele>
        <time>2021-08-17T04:06:00.322Z</time>
      </trkpt>
      <trkpt lat="41.05818" lon="42.17203">
        <ele>1251.783094</ele>
        <time>2021-08-17T04:06:07.390Z</time>
      </trkpt>
      <trkpt lat="41.05943" lon="42.1712">
        <ele>1249.493818</ele>
        <time>2021-08-17T04:06:42.487Z</time>
      </trkpt>
      <trkpt lat="41.06032" lon="42.17073">
        <ele>1247.648231</ele>
        <time>2021-08-17T04:07:07.885Z</time>
      </trkpt>
      <trkpt lat="41.06101" lon="42.17059">
        <ele>1246.323743</ele>
        <time>2021-08-17T04:07:25.611Z</time>
      </trkpt>
      <trkpt lat="41.06275" lon="42.17074">
        <ele>1238.254721</ele>
        <time>2021-08-17T04:08:03.445Z</time>
      </trkpt>
      <trkpt lat="41.0631" lon="42.17067">
        <ele>1235.918323</ele>
        <time>2021-08-17T04:08:10.273Z</time>
      </trkpt>
      <trkpt lat="41.06326" lon="42.17058">
        <ele>1234.26146</ele>
        <time>2021-08-17T04:08:13.766Z</time>
      </trkpt>
      <trkpt lat="41.06423" lon="42.16955">
        <ele>1222.828543</ele>
        <time>2021-08-17T04:08:37.378Z</time>
      </trkpt>
      <trkpt lat="41.06459" lon="42.16902">
        <ele>1218.025308</ele>
        <time>2021-08-17T04:08:47.664Z</time>
      </trkpt>
      <trkpt lat="41.06482" lon="42.16856">
        <ele>1214.448443</ele>
        <time>2021-08-17T04:08:55.658Z</time>
      </trkpt>
      <trkpt lat="41.06504" lon="42.16842">
        <ele>1212.349083</ele>
        <time>2021-08-17T04:09:00.417Z</time>
      </trkpt>
      <trkpt lat="41.06524" lon="42.16837">
        <ele>1210.540786</ele>
        <time>2021-08-17T04:09:04.535Z</time>
      </trkpt>
      <trkpt lat="41.06583" lon="42.16838">
        <ele>1205.478671</ele>
        <time>2021-08-17T04:09:16.097Z</time>
      </trkpt>
      <trkpt lat="41.06599" lon="42.16831">
        <ele>1203.754104</ele>
        <time>2021-08-17T04:09:19.488Z</time>
      </trkpt>
      <trkpt lat="41.06656" lon="42.16774">
        <ele>1196.493274</ele>
        <time>2021-08-17T04:09:33.215Z</time>
      </trkpt>
      <trkpt lat="41.06675" lon="42.16761">
        <ele>1194.315309</ele>
        <time>2021-08-17T04:09:37.297Z</time>
      </trkpt>
      <trkpt lat="41.06699" lon="42.16733">
        <ele>1191.049105</ele>
        <time>2021-08-17T04:09:43.332Z</time>
      </trkpt>
      <trkpt lat="41.06801" lon="42.16621">
        <ele>1175.621298</ele>
        <time>2021-08-17T04:10:07.880Z</time>
      </trkpt>
      <trkpt lat="41.06853" lon="42.16576">
        <ele>1167.953226</ele>
        <time>2021-08-17T04:10:19.372Z</time>
      </trkpt>
      <trkpt lat="41.06952" lon="42.1647">
        <ele>1154.076305</ele>
        <time>2021-08-17T04:10:43.230Z</time>
      </trkpt>
      <trkpt lat="41.06993" lon="42.16401">
        <ele>1147.092019</ele>
        <time>2021-08-17T04:10:55.926Z</time>
      </trkpt>
      <trkpt lat="41.07006" lon="42.16355">
        <ele>1143.771836</ele>
        <time>2021-08-17T04:11:03.150Z</time>
      </trkpt>
      <trkpt lat="41.07008" lon="42.16312">
        <ele>1141.195433</ele>
        <time>2021-08-17T04:11:09.412Z</time>
      </trkpt>
      <trkpt lat="41.0702" lon="42.1626">
        <ele>1137.891826</ele>
        <time>2021-08-17T04:11:17.501Z</time>
      </trkpt>
      <trkpt lat="41.0702" lon="42.16231">
        <ele>1136.153404</ele>
        <time>2021-08-17T04:11:21.795Z</time>
      </trkpt>
      <trkpt lat="41.07014" lon="42.16195">
        <ele>1133.942046</ele>
        <time>2021-08-17T04:11:27.303Z</time>
      </trkpt>
      <trkpt lat="41.0702" lon="42.16172">
        <ele>1132.450579</ele>
        <time>2021-08-17T04:11:31.041Z</time>
      </trkpt>
      <trkpt lat="41.07076" lon="42.16126">
        <ele>1127.717521</ele>
        <time>2021-08-17T04:11:44.361Z</time>
      </trkpt>
      <trkpt lat="41.07093" lon="42.16092">
        <ele>1125.590662</ele>
        <time>2021-08-17T04:11:50.553Z</time>
      </trkpt>
      <trkpt lat="41.07129" lon="42.15978">
        <ele>1119.152851</ele>
        <time>2021-08-17T04:12:09.217Z</time>
      </trkpt>
      <trkpt lat="41.07147" lon="42.15879">
        <ele>1113.228163</ele>
        <time>2021-08-17T04:12:24.644Z</time>
      </trkpt>
      <trkpt lat="41.07188" lon="42.15757">
        <ele>1105.440435</ele>
        <time>2021-08-17T04:12:44.384Z</time>
      </trkpt>
      <trkpt lat="41.07222" lon="42.15724">
        <ele>1102.002566</ele>
        <time>2021-08-17T04:12:52.666Z</time>
      </trkpt>
      <trkpt lat="41.07256" lon="42.15708">
        <ele>1099.084189</ele>
        <time>2021-08-17T04:12:59.650Z</time>
      </trkpt>
      <trkpt lat="41.07286" lon="42.15673">
        <ele>1095.841115</ele>
        <time>2021-08-17T04:13:07.456Z</time>
      </trkpt>
      <trkpt lat="41.07312" lon="42.15623">
        <ele>1092.086522</ele>
        <time>2021-08-17T04:13:16.518Z</time>
      </trkpt>
      <trkpt lat="41.07341" lon="42.1552">
        <ele>1086.089635</ele>
        <time>2021-08-17T04:13:32.930Z</time>
      </trkpt>
      <trkpt lat="41.07355" lon="42.15485">
        <ele>1084.013809</ele>
        <time>2021-08-17T04:13:38.941Z</time>
      </trkpt>
      <trkpt lat="41.07374" lon="42.15463">
        <ele>1082.29826</ele>
        <time>2021-08-17T04:13:43.977Z</time>
      </trkpt>
      <trkpt lat="41.07401" lon="42.15448">
        <ele>1080.266588</ele>
        <time>2021-08-17T04:13:50.005Z</time>
      </trkpt>
      <trkpt lat="41.07612" lon="42.15419">
        <ele>1066.160017</ele>
        <time>2021-08-17T04:14:33.081Z</time>
      </trkpt>
      <trkpt lat="41.07636" lon="42.15411">
        <ele>1064.271338</ele>
        <time>2021-08-17T04:14:37.929Z</time>
      </trkpt>
      <trkpt lat="41.0766" lon="42.15392">
        <ele>1062.03469</ele>
        <time>2021-08-17T04:14:43.541Z</time>
      </trkpt>
      <trkpt lat="41.07723" lon="42.15278">
        <ele>1053.736523</ele>
        <time>2021-08-17T04:15:04.215Z</time>
      </trkpt>
      <trkpt lat="41.07738" lon="42.1526">
        <ele>1052.117318</ele>
        <time>2021-08-17T04:15:08.249Z</time>
      </trkpt>
      <trkpt lat="41.0782" lon="42.15226">
        <ele>1046.63716</ele>
        <time>2021-08-17T04:15:25.340Z</time>
      </trkpt>
      <trkpt lat="41.07837" lon="42.15212">
        <ele>1045.390949</ele>
        <time>2021-08-17T04:15:29.330Z</time>
      </trkpt>
      <trkpt lat="41.07849" lon="42.15189">
        <ele>1044.012414</ele>
        <time>2021-08-17T04:15:33.856Z</time>
      </trkpt>
      <trkpt lat="41.07855" lon="42.15157">
        <ele>1042.459362</ele>
        <time>2021-08-17T04:15:38.997Z</time>
      </trkpt>
      <trkpt lat="41.07858" lon="42.15094">
        <ele>1039.793943</ele>
        <time>2021-08-17T04:15:49.231Z</time>
      </trkpt>
      <trkpt lat="41.07863" lon="42.15069">
        <ele>1038.993717</ele>
        <time>2021-08-17T04:15:53.438Z</time>
      </trkpt>
      <trkpt lat="41.07878" lon="42.15038">
        <ele>1037.841001</ele>
        <time>2021-08-17T04:15:59.545Z</time>
      </trkpt>
      <trkpt lat="41.07886" lon="42.15012">
        <ele>1036.961665</ele>
        <time>2021-08-17T04:16:04.294Z</time>
      </trkpt>
      <trkpt lat="41.07905" lon="42.14893">
        <ele>1033.161398</ele>
        <time>2021-08-17T04:16:24.776Z</time>
      </trkpt>
      <trkpt lat="41.07913" lon="42.14729">
        <ele>1026.158989</ele>
        <time>2021-08-17T04:16:51.004Z</time>
      </trkpt>
      <trkpt lat="41.07908" lon="42.14597">
        <ele>1019.547919</ele>
        <time>2021-08-17T04:17:11.023Z</time>
      </trkpt>
      <trkpt lat="41.07913" lon="42.14565">
        <ele>1017.610083</ele>
        <time>2021-08-17T04:17:15.804Z</time>
      </trkpt>
      <trkpt lat="41.07941" lon="42.14518">
        <ele>1014.057424</ele>
        <time>2021-08-17T04:17:24.520Z</time>
      </trkpt>
      <trkpt lat="41.07976" lon="42.14496">
        <ele>1010.974666</ele>
        <time>2021-08-17T04:17:32.077Z</time>
      </trkpt>
      <trkpt lat="41.0805" lon="42.14462">
        <ele>1005.443836</ele>
        <time>2021-08-17T04:17:47.568Z</time>
      </trkpt>
      <trkpt lat="41.08101" lon="42.14415">
        <ele>1001.42682</ele>
        <time>2021-08-17T04:18:00.113Z</time>
      </trkpt>
      <trkpt lat="41.08126" lon="42.14378">
        <ele>999.035711</ele>
        <time>2021-08-17T04:18:07.709Z</time>
      </trkpt>
      <trkpt lat="41.08246" lon="42.14096">
        <ele>987.489303</ele>
        <time>2021-08-17T04:19:00.206Z</time>
      </trkpt>
      <trkpt lat="41.08282" lon="42.14034">
        <ele>985.493685</ele>
        <time>2021-08-17T04:19:13.417Z</time>
      </trkpt>
      <trkpt lat="41.08317" lon="42.1399">
        <ele>983.877338</ele>
        <time>2021-08-17T04:19:24.315Z</time>
      </trkpt>
      <trkpt lat="41.08451" lon="42.13873">
        <ele>979.335789</ele>
        <time>2021-08-17T04:20:03.302Z</time>
      </trkpt>
      <trkpt lat="41.08476" lon="42.13857">
        <ele>978.601107</ele>
        <time>2021-08-17T04:20:09.925Z</time>
      </trkpt>
      <trkpt lat="41.08499" lon="42.13852">
        <ele>977.998758</ele>
        <time>2021-08-17T04:20:15.230Z</time>
      </trkpt>
      <trkpt lat="41.08525" lon="42.13855">
        <ele>976.786452</ele>
        <time>2021-08-17T04:20:21.233Z</time>
      </trkpt>
      <trkpt lat="41.08614" lon="42.13928">
        <ele>970.701768</ele>
        <time>2021-08-17T04:20:43.192Z</time>
      </trkpt>
      <trkpt lat="41.08647" lon="42.13949">
        <ele>968.562983</ele>
        <time>2021-08-17T04:20:50.469Z</time>
      </trkpt>
      <trkpt lat="41.0867" lon="42.13954">
        <ele>967.237203</ele>
        <time>2021-08-17T04:20:54.890Z</time>
      </trkpt>
      <trkpt lat="41.08699" lon="42.13949">
        <ele>964.875259</ele>
        <time>2021-08-17T04:21:00.570Z</time>
      </trkpt>
      <trkpt lat="41.08755" lon="42.13906">
        <ele>959.632905</ele>
        <time>2021-08-17T04:21:13.158Z</time>
      </trkpt>
      <trkpt lat="41.08777" lon="42.1386">
        <ele>956.266837</ele>
        <time>2021-08-17T04:21:21.290Z</time>
      </trkpt>
      <trkpt lat="41.08834" lon="42.13789">
        <ele>950.927001</ele>
        <time>2021-08-17T04:21:36.716Z</time>
      </trkpt>
      <trkpt lat="41.08953" lon="42.13608">
        <ele>942.370002</ele>
        <time>2021-08-17T04:22:15.374Z</time>
      </trkpt>
      <trkpt lat="41.08979" lon="42.13543">
        <ele>941.035667</ele>
        <time>2021-08-17T04:22:28.536Z</time>
      </trkpt>
      <trkpt lat="41.09015" lon="42.13289">
        <ele>938.032375</ele>
        <time>2021-08-17T04:23:20.646Z</time>
      </trkpt>
      <trkpt lat="41.09012" lon="42.13249">
        <ele>937.783134</ele>
        <time>2021-08-17T04:23:29.663Z</time>
      </trkpt>
      <trkpt lat="41.09002" lon="42.13206">
        <ele>937.507365</ele>
        <time>2021-08-17T04:23:39.731Z</time>
      </trkpt>
      <trkpt lat="41.08952" lon="42.13056">
        <ele>936.081093</ele>
        <time>2021-08-17T04:24:15.219Z</time>
      </trkpt>
      <trkpt lat="41.08949" lon="42.13026">
        <ele>935.812853</ele>
        <time>2021-08-17T04:24:21.260Z</time>
      </trkpt>
      <trkpt lat="41.08972" lon="42.12937">
        <ele>934.018538</ele>
        <time>2021-08-17T04:24:38.175Z</time>
      </trkpt>
      <trkpt lat="41.08966" lon="42.12911">
        <ele>933.041251</ele>
        <time>2021-08-17T04:24:42.893Z</time>
      </trkpt>
      <trkpt lat="41.08912" lon="42.12818">
        <ele>928.868954</ele>
        <time>2021-08-17T04:25:01.768Z</time>
      </trkpt>
      <trkpt lat="41.08911" lon="42.12798">
        <ele>928.18219</ele>
        <time>2021-08-17T04:25:04.890Z</time>
      </trkpt>
      <trkpt lat="41.08915" lon="42.12786">
        <ele>927.69553</ele>
        <time>2021-08-17T04:25:07.023Z</time>
      </trkpt>
      <trkpt lat="41.08926" lon="42.12776">
        <ele>927.06263</ele>
        <time>2021-08-17T04:25:09.689Z</time>
      </trkpt>
      <trkpt lat="41.08945" lon="42.12775">
        <ele>925.496323</ele>
        <time>2021-08-17T04:25:13.569Z</time>
      </trkpt>
      <trkpt lat="41.09024" lon="42.12792">
        <ele>917.654011</ele>
        <time>2021-08-17T04:25:29.196Z</time>
      </trkpt>
      <trkpt lat="41.09068" lon="42.1279">
        <ele>913.39738</ele>
        <time>2021-08-17T04:25:37.355Z</time>
      </trkpt>
      <trkpt lat="41.09104" lon="42.12775">
        <ele>909.755961</ele>
        <time>2021-08-17T04:25:44.358Z</time>
      </trkpt>
      <trkpt lat="41.09133" lon="42.1275">
        <ele>905.122866</ele>
        <time>2021-08-17T04:25:50.754Z</time>
      </trkpt>
      <trkpt lat="41.09183" lon="42.12667">
        <ele>893.914227</ele>
        <time>2021-08-17T04:26:05.530Z</time>
      </trkpt>
      <trkpt lat="41.09239" lon="42.1257">
        <ele>881.250477</ele>
        <time>2021-08-17T04:26:22.185Z</time>
      </trkpt>
      <trkpt lat="41.09305" lon="42.12474">
        <ele>867.974356</ele>
        <time>2021-08-17T04:26:40.149Z</time>
      </trkpt>
      <trkpt lat="41.09375" lon="42.12301">
        <ele>850.012677</ele>
        <time>2021-08-17T04:27:07.736Z</time>
      </trkpt>
      <trkpt lat="41.09381" lon="42.12276">
        <ele>847.768063</ele>
        <time>2021-08-17T04:27:11.542Z</time>
      </trkpt>
      <trkpt lat="41.09379" lon="42.12115">
        <ele>834.975325</ele>
        <time>2021-08-17T04:27:34.675Z</time>
      </trkpt>
      <trkpt lat="41.09385" lon="42.12075">
        <ele>832.055399</ele>
        <time>2021-08-17T04:27:40.509Z</time>
      </trkpt>
      <trkpt lat="41.09398" lon="42.12042">
        <ele>829.329402</ele>
        <time>2021-08-17T04:27:45.918Z</time>
      </trkpt>
      <trkpt lat="41.09416" lon="42.12018">
        <ele>826.882909</ele>
        <time>2021-08-17T04:27:50.800Z</time>
      </trkpt>
      <trkpt lat="41.09531" lon="42.11929">
        <ele>814.610634</ele>
        <time>2021-08-17T04:28:16.518Z</time>
      </trkpt>
      <trkpt lat="41.09563" lon="42.11899">
        <ele>811.135021</ele>
        <time>2021-08-17T04:28:24.020Z</time>
      </trkpt>
      <trkpt lat="41.09582" lon="42.11864">
        <ele>808.297163</ele>
        <time>2021-08-17T04:28:30.186Z</time>
      </trkpt>
      <trkpt lat="41.09582" lon="42.11844">
        <ele>806.9381</ele>
        <time>2021-08-17T04:28:33.171Z</time>
      </trkpt>
      <trkpt lat="41.09558" lon="42.11768">
        <ele>802.415218</ele>
        <time>2021-08-17T04:28:45.471Z</time>
      </trkpt>
      <trkpt lat="41.09558" lon="42.11734">
        <ele>800.62959</ele>
        <time>2021-08-17T04:28:50.549Z</time>
      </trkpt>
      <trkpt lat="41.09571" lon="42.117">
        <ele>798.590174</ele>
        <time>2021-08-17T04:28:56.380Z</time>
      </trkpt>
      <trkpt lat="41.09639" lon="42.11619">
        <ele>792.143707</ele>
        <time>2021-08-17T04:29:14.783Z</time>
      </trkpt>
      <trkpt lat="41.09659" lon="42.11586">
        <ele>789.842503</ele>
        <time>2021-08-17T04:29:21.427Z</time>
      </trkpt>
      <trkpt lat="41.09667" lon="42.11554">
        <ele>788.061662</ele>
        <time>2021-08-17T04:29:26.560Z</time>
      </trkpt>
      <trkpt lat="41.09665" lon="42.11522">
        <ele>786.319674</ele>
        <time>2021-08-17T04:29:31.539Z</time>
      </trkpt>
      <trkpt lat="41.09654" lon="42.11497">
        <ele>784.784283</ele>
        <time>2021-08-17T04:29:35.899Z</time>
      </trkpt>
      <trkpt lat="41.09625" lon="42.11461">
        <ele>781.9588</ele>
        <time>2021-08-17T04:29:43.805Z</time>
      </trkpt>
      <trkpt lat="41.09607" lon="42.11452">
        <ele>780.539608</ele>
        <time>2021-08-17T04:29:47.420Z</time>
      </trkpt>
      <trkpt lat="41.09594" lon="42.11431">
        <ele>778.468442</ele>
        <time>2021-08-17T04:29:51.424Z</time>
      </trkpt>
      <trkpt lat="41.09592" lon="42.11403">
        <ele>776.336682</ele>
        <time>2021-08-17T04:29:55.517Z</time>
      </trkpt>
      <trkpt lat="41.09627" lon="42.11318">
        <ele>769.003025</ele>
        <time>2021-08-17T04:30:09.375Z</time>
      </trkpt>
      <trkpt lat="41.09654" lon="42.11279">
        <ele>765.018594</ele>
        <time>2021-08-17T04:30:16.915Z</time>
      </trkpt>
      <trkpt lat="41.09664" lon="42.11258">
        <ele>763.172433</ele>
        <time>2021-08-17T04:30:20.399Z</time>
      </trkpt>
      <trkpt lat="41.09674" lon="42.11195">
        <ele>758.089931</ele>
        <time>2021-08-17T04:30:29.614Z</time>
      </trkpt>
      <trkpt lat="41.09683" lon="42.11171">
        <ele>756.023718</ele>
        <time>2021-08-17T04:30:33.357Z</time>
      </trkpt>
      <trkpt lat="41.09715" lon="42.11131">
        <ele>751.389527</ele>
        <time>2021-08-17T04:30:41.746Z</time>
      </trkpt>
      <trkpt lat="41.09731" lon="42.11101">
        <ele>748.556469</ele>
        <time>2021-08-17T04:30:46.910Z</time>
      </trkpt>
      <trkpt lat="41.09739" lon="42.11071">
        <ele>746.071605</ele>
        <time>2021-08-17T04:30:51.466Z</time>
      </trkpt>
      <trkpt lat="41.09741" lon="42.10988">
        <ele>740.000827</ele>
        <time>2021-08-17T04:31:03.574Z</time>
      </trkpt>
      <trkpt lat="41.09784" lon="42.10908">
        <ele>733.141084</ele>
        <time>2021-08-17T04:31:17.734Z</time>
      </trkpt>
      <trkpt lat="41.09869" lon="42.10837">
        <ele>724.145832</ele>
        <time>2021-08-17T04:31:37.195Z</time>
      </trkpt>
      <trkpt lat="41.09923" lon="42.108">
        <ele>719.136828</ele>
        <time>2021-08-17T04:31:48.987Z</time>
      </trkpt>
      <trkpt lat="41.09955" lon="42.10766">
        <ele>715.737311</ele>
        <time>2021-08-17T04:31:57.063Z</time>
      </trkpt>
      <trkpt lat="41.09968" lon="42.10737">
        <ele>713.566911</ele>
        <time>2021-08-17T04:32:02.240Z</time>
      </trkpt>
      <trkpt lat="41.09985" lon="42.10672">
        <ele>709.561441</ele>
        <time>2021-08-17T04:32:12.432Z</time>
      </trkpt>
      <trkpt lat="41.09999" lon="42.10645">
        <ele>707.725929</ele>
        <time>2021-08-17T04:32:17.231Z</time>
      </trkpt>
      <trkpt lat="41.10018" lon="42.10626">
        <ele>705.904218</ele>
        <time>2021-08-17T04:32:22.014Z</time>
      </trkpt>
      <trkpt lat="41.10064" lon="42.10602">
        <ele>702.193283</ele>
        <time>2021-08-17T04:32:31.766Z</time>
      </trkpt>
      <trkpt lat="41.10105" lon="42.10563">
        <ele>698.385994</ele>
        <time>2021-08-17T04:32:41.741Z</time>
      </trkpt>
      <trkpt lat="41.10151" lon="42.10513">
        <ele>693.909863</ele>
        <time>2021-08-17T04:32:53.573Z</time>
      </trkpt>
      <trkpt lat="41.10197" lon="42.10484">
        <ele>690.095901</ele>
        <time>2021-08-17T04:33:03.596Z</time>
      </trkpt>
      <trkpt lat="41.10248" lon="42.10464">
        <ele>686.06868</ele>
        <time>2021-08-17T04:33:14.271Z</time>
      </trkpt>
      <trkpt lat="41.10269" lon="42.10449">
        <ele>684.31252</ele>
        <time>2021-08-17T04:33:19.080Z</time>
      </trkpt>
      <trkpt lat="41.10369" lon="42.1034">
        <ele>674.958597</ele>
        <time>2021-08-17T04:33:44.973Z</time>
      </trkpt>
      <trkpt lat="41.10393" lon="42.10322">
        <ele>672.987552</ele>
        <time>2021-08-17T04:33:50.406Z</time>
      </trkpt>
      <trkpt lat="41.10428" lon="42.10317">
        <ele>670.463331</ele>
        <time>2021-08-17T04:33:57.292Z</time>
      </trkpt>
      <trkpt lat="41.10471" lon="42.10292">
        <ele>666.972664</ele>
        <time>2021-08-17T04:34:06.744Z</time>
      </trkpt>
      <trkpt lat="41.10492" lon="42.10218">
        <ele>662.607402</ele>
        <time>2021-08-17T04:34:18.621Z</time>
      </trkpt>
      <trkpt lat="41.10507" lon="42.10191">
        <ele>660.760534</ele>
        <time>2021-08-17T04:34:23.634Z</time>
      </trkpt>
      <trkpt lat="41.10616" lon="42.10083">
        <ele>650.557126</ele>
        <time>2021-08-17T04:34:50.674Z</time>
      </trkpt>
      <trkpt lat="41.10643" lon="42.10046">
        <ele>647.633747</ele>
        <time>2021-08-17T04:34:58.359Z</time>
      </trkpt>
      <trkpt lat="41.10741" lon="42.09856">
        <ele>634.412212</ele>
        <time>2021-08-17T04:35:32.694Z</time>
      </trkpt>
      <trkpt lat="41.10748" lon="42.09816">
        <ele>632.028854</ele>
        <time>2021-08-17T04:35:38.872Z</time>
      </trkpt>
      <trkpt lat="41.10747" lon="42.09772">
        <ele>629.460638</ele>
        <time>2021-08-17T04:35:45.425Z</time>
      </trkpt>
      <trkpt lat="41.10724" lon="42.097">
        <ele>624.888495</ele>
        <time>2021-08-17T04:35:57.100Z</time>
      </trkpt>
      <trkpt lat="41.10721" lon="42.09658">
        <ele>622.468701</ele>
        <time>2021-08-17T04:36:03.289Z</time>
      </trkpt>
      <trkpt lat="41.10729" lon="42.0962">
        <ele>620.133296</ele>
        <time>2021-08-17T04:36:09.130Z</time>
      </trkpt>
      <trkpt lat="41.1075" lon="42.09567">
        <ele>617.185275</ele>
        <time>2021-08-17T04:36:17.950Z</time>
      </trkpt>
      <trkpt lat="41.10791" lon="42.09491">
        <ele>613.874835</ele>
        <time>2021-08-17T04:36:32.332Z</time>
      </trkpt>
      <trkpt lat="41.108" lon="42.09448">
        <ele>612.263047</ele>
        <time>2021-08-17T04:36:39.704Z</time>
      </trkpt>
      <trkpt lat="41.10805" lon="42.09373">
        <ele>609.588637</ele>
        <time>2021-08-17T04:36:53.816Z</time>
      </trkpt>
      <trkpt lat="41.10797" lon="42.09275">
        <ele>608.188482</ele>
        <time>2021-08-17T04:37:16.176Z</time>
      </trkpt>
      <trkpt lat="41.10748" lon="42.08989">
        <ele>599.410021</ele>
        <time>2021-08-17T04:38:12.253Z</time>
      </trkpt>
      <trkpt lat="41.10744" lon="42.08969">
        <ele>598.49336</ele>
        <time>2021-08-17T04:38:15.135Z</time>
      </trkpt>
      <trkpt lat="41.10723" lon="42.08865">
        <ele>591.809161</ele>
        <time>2021-08-17T04:38:31.046Z</time>
      </trkpt>
      <trkpt lat="41.107" lon="42.08752">
        <ele>581.266844</ele>
        <time>2021-08-17T04:38:47.263Z</time>
      </trkpt>
      <trkpt lat="41.10676" lon="42.08653">
        <ele>572.862061</ele>
        <time>2021-08-17T04:39:02.081Z</time>
      </trkpt>
      <trkpt lat="41.10606" lon="42.08446">
        <ele>561.792588</ele>
        <time>2021-08-17T04:39:37.284Z</time>
      </trkpt>
      <trkpt lat="41.10597" lon="42.08401">
        <ele>560.373761</ele>
        <time>2021-08-17T04:39:45.035Z</time>
      </trkpt>
      <trkpt lat="41.10599" lon="42.08357">
        <ele>559.055792</ele>
        <time>2021-08-17T04:39:52.327Z</time>
      </trkpt>
      <trkpt lat="41.10616" lon="42.08257">
        <ele>555.977621</ele>
        <time>2021-08-17T04:40:09.658Z</time>
      </trkpt>
      <trkpt lat="41.10688" lon="42.07931">
        <ele>548.444595</ele>
        <time>2021-08-17T04:41:09.151Z</time>
      </trkpt>
      <trkpt lat="41.10705" lon="42.07874">
        <ele>547.325962</ele>
        <time>2021-08-17T04:41:20.143Z</time>
      </trkpt>
      <trkpt lat="41.10724" lon="42.07842">
        <ele>546.573337</ele>
        <time>2021-08-17T04:41:27.593Z</time>
      </trkpt>
      <trkpt lat="41.10947" lon="42.07646">
        <ele>540.292553</ele>
        <time>2021-08-17T04:42:32.753Z</time>
      </trkpt>
      <trkpt lat="41.10979" lon="42.07588">
        <ele>538.599462</ele>
        <time>2021-08-17T04:42:45.347Z</time>
      </trkpt>
      <trkpt lat="41.10987" lon="42.07547">
        <ele>537.604719</ele>
        <time>2021-08-17T04:42:52.641Z</time>
      </trkpt>
      <trkpt lat="41.10998" lon="42.07347">
        <ele>531.778293</ele>
        <time>2021-08-17T04:43:25.969Z</time>
      </trkpt>
      <trkpt lat="41.11001" lon="42.07157">
        <ele>525.181685</ele>
        <time>2021-08-17T04:43:56.600Z</time>
      </trkpt>
      <trkpt lat="41.11014" lon="42.06985">
        <ele>518.700878</ele>
        <time>2021-08-17T04:44:24.031Z</time>
      </trkpt>
      <trkpt lat="41.11027" lon="42.0689">
        <ele>515.616399</ele>
        <time>2021-08-17T04:44:39.675Z</time>
      </trkpt>
      <trkpt lat="41.11048" lon="42.06838">
        <ele>513.763254</ele>
        <time>2021-08-17T04:44:49.313Z</time>
      </trkpt>
      <trkpt lat="41.11073" lon="42.06799">
        <ele>512.129007</ele>
        <time>2021-08-17T04:44:58.004Z</time>
      </trkpt>
      <trkpt lat="41.1111" lon="42.06769">
        <ele>510.706326</ele>
        <time>2021-08-17T04:45:07.773Z</time>
      </trkpt>
      <trkpt lat="41.11274" lon="42.06674">
        <ele>505.912229</ele>
        <time>2021-08-17T04:45:50.328Z</time>
      </trkpt>
      <trkpt lat="41.11332" lon="42.0665">
        <ele>504.237079</ele>
        <time>2021-08-17T04:46:04.807Z</time>
      </trkpt>
      <trkpt lat="41.11403" lon="42.06633">
        <ele>502.264927</ele>
        <time>2021-08-17T04:46:21.541Z</time>
      </trkpt>
      <trkpt lat="41.11461" lon="42.06627">
        <ele>500.544216</ele>
        <time>2021-08-17T04:46:34.766Z</time>
      </trkpt>
      <trkpt lat="41.1161" lon="42.06638">
        <ele>495.852</ele>
        <time>2021-08-17T04:47:08.906Z</time>
      </trkpt>
      <trkpt lat="41.11909" lon="42.06683">
        <ele>487.136576</ele>
        <time>2021-08-17T04:48:18.334Z</time>
      </trkpt>
      <trkpt lat="41.11965" lon="42.06677">
        <ele>485.635348</ele>
        <time>2021-08-17T04:48:31.913Z</time>
      </trkpt>
      <trkpt lat="41.12009" lon="42.06662">
        <ele>484.741071</ele>
        <time>2021-08-17T04:48:43.005Z</time>
      </trkpt>
      <trkpt lat="41.12" lon="42.06638">
        <ele>484.346502</ele>
        <time>2021-08-17T04:48:48.329Z</time>
      </trkpt>
      <trkpt lat="41.11996" lon="42.06609">
        <ele>483.905978</ele>
        <time>2021-08-17T04:48:54.079Z</time>
      </trkpt>
      <trkpt lat="41.11995" lon="42.06597">
        <ele>483.725223</ele>
        <time>2021-08-17T04:48:56.694Z</time>
      </trkpt>
      <trkpt lat="41.12043" lon="42.06576">
        <ele>482.727438</ele>
        <time>2021-08-17T04:49:09.842Z</time>
      </trkpt>
      <trkpt lat="41.12185" lon="42.06475">
        <ele>480.522521</ele>
        <time>2021-08-17T04:49:52.661Z</time>
      </trkpt>
      <trkpt lat="41.12227" lon="42.06423">
        <ele>480.071153</ele>
        <time>2021-08-17T04:50:08.884Z</time>
      </trkpt>
      <trkpt lat="41.12288" lon="42.06319">
        <ele>481.7264</ele>
        <time>2021-08-17T04:50:45.783Z</time>
      </trkpt>
      <trkpt lat="41.12311" lon="42.06295">
        <ele>482.209459</ele>
        <time>2021-08-17T04:51:00.715Z</time>
      </trkpt>
      <trkpt lat="41.12355" lon="42.06267">
        <ele>483.069787</ele>
        <time>2021-08-17T04:51:28.914Z</time>
      </trkpt>
      <trkpt lat="41.1237" lon="42.06255">
        <ele>483.499819</ele>
        <time>2021-08-17T04:51:38.758Z</time>
      </trkpt>
      <trkpt lat="41.12392" lon="42.0618">
        <ele>484.990004</ele>
        <time>2021-08-17T04:52:03.885Z</time>
      </trkpt>
      <trkpt lat="41.12415" lon="42.06092">
        <ele>486.707303</ele>
        <time>2021-08-17T04:52:30.215Z</time>
      </trkpt>
      <trkpt lat="41.12422" lon="42.06069">
        <ele>487.157689</ele>
        <time>2021-08-17T04:52:37.891Z</time>
      </trkpt>
      <trkpt lat="41.12429" lon="42.06052">
        <ele>487.68149</ele>
        <time>2021-08-17T04:52:45.230Z</time>
      </trkpt>
      <trkpt lat="41.12461" lon="42.0602">
        <ele>489.457913</ele>
        <time>2021-08-17T04:53:09.346Z</time>
      </trkpt>
      <trkpt lat="41.12494" lon="42.06">
        <ele>491.068165</ele>
        <time>2021-08-17T04:53:29.763Z</time>
      </trkpt>
      <trkpt lat="41.12529" lon="42.06001">
        <ele>492.610872</ele>
        <time>2021-08-17T04:53:49.185Z</time>
      </trkpt>
      <trkpt lat="41.12549" lon="42.0601">
        <ele>493.505576</ele>
        <time>2021-08-17T04:53:59.021Z</time>
      </trkpt>
      <trkpt lat="41.12574" lon="42.0602">
        <ele>494.664615</ele>
        <time>2021-08-17T04:54:15.792Z</time>
      </trkpt>
      <trkpt lat="41.12675" lon="42.06006">
        <ele>496.972453</ele>
        <time>2021-08-17T04:55:21.154Z</time>
      </trkpt>
      <trkpt lat="41.12748" lon="42.06021">
        <ele>498.413357</ele>
        <time>2021-08-17T04:55:49.802Z</time>
      </trkpt>
      <trkpt lat="41.12776" lon="42.06038">
        <ele>497.39006</ele>
        <time>2021-08-17T04:55:56.504Z</time>
      </trkpt>
      <trkpt lat="41.12789" lon="42.06048">
        <ele>495.931621</ele>
        <time>2021-08-17T04:55:59.421Z</time>
      </trkpt>
      <trkpt lat="41.12805" lon="42.0608">
        <ele>493.096213</ele>
        <time>2021-08-17T04:56:04.864Z</time>
      </trkpt>
      <trkpt lat="41.12817" lon="42.06121">
        <ele>489.836402</ele>
        <time>2021-08-17T04:56:11.009Z</time>
      </trkpt>
      <trkpt lat="41.12818" lon="42.06201">
        <ele>483.907542</ele>
        <time>2021-08-17T04:56:22.165Z</time>
      </trkpt>
      <trkpt lat="41.12824" lon="42.06223">
        <ele>482.138584</ele>
        <time>2021-08-17T04:56:25.610Z</time>
      </trkpt>
      <trkpt lat="41.12837" lon="42.06247">
        <ele>480.25961</ele>
        <time>2021-08-17T04:56:29.653Z</time>
      </trkpt>
      <trkpt lat="41.12867" lon="42.06258">
        <ele>477.992663</ele>
        <time>2021-08-17T04:56:35.654Z</time>
      </trkpt>
      <trkpt lat="41.12909" lon="42.06256">
        <ele>474.969932</ele>
        <time>2021-08-17T04:56:43.808Z</time>
      </trkpt>
      <trkpt lat="41.12928" lon="42.06286">
        <ele>472.813394</ele>
        <time>2021-08-17T04:56:49.826Z</time>
      </trkpt>
      <trkpt lat="41.12946" lon="42.06372">
        <ele>468.084148</ele>
        <time>2021-08-17T04:57:04.062Z</time>
      </trkpt>
      <trkpt lat="41.12956" lon="42.0639">
        <ele>467.998473</ele>
        <time>2021-08-17T04:57:08.095Z</time>
      </trkpt>
      <trkpt lat="41.12975" lon="42.06405">
        <ele>467.889199</ele>
        <time>2021-08-17T04:57:14.870Z</time>
      </trkpt>
      <trkpt lat="41.13009" lon="42.0641">
        <ele>467.714999</ele>
        <time>2021-08-17T04:57:24.441Z</time>
      </trkpt>
      <trkpt lat="41.13025" lon="42.06402">
        <ele>467.629526</ele>
        <time>2021-08-17T04:57:28.600Z</time>
      </trkpt>
      <trkpt lat="41.13037" lon="42.06383">
        <ele>467.536835</ele>
        <time>2021-08-17T04:57:35.273Z</time>
      </trkpt>
      <trkpt lat="41.1304" lon="42.06365">
        <ele>467.46579</ele>
        <time>2021-08-17T04:57:38.845Z</time>
      </trkpt>
      <trkpt lat="41.13042" lon="42.06355">
        <ele>467.427082</ele>
        <time>2021-08-17T04:57:41.400Z</time>
      </trkpt>
      <trkpt lat="41.1304" lon="42.06324">
        <ele>467.309353</ele>
        <time>2021-08-17T04:57:49.813Z</time>
      </trkpt>
      <trkpt lat="41.13035" lon="42.06306">
        <ele>467.23789</ele>
        <time>2021-08-17T04:57:55.020Z</time>
      </trkpt>
      <trkpt lat="41.13021" lon="42.06281">
        <ele>468.101129</ele>
        <time>2021-08-17T04:58:04.944Z</time>
      </trkpt>
      <trkpt lat="41.13001" lon="42.06215">
        <ele>471.819838</ele>
        <time>2021-08-17T04:58:32.715Z</time>
      </trkpt>
      <trkpt lat="41.12978" lon="42.06169">
        <ele>474.716197</ele>
        <time>2021-08-17T04:59:00.912Z</time>
      </trkpt>
      <trkpt lat="41.12982" lon="42.06111">
        <ele>477.739171</ele>
        <time>2021-08-17T04:59:36.985Z</time>
      </trkpt>
      <trkpt lat="41.12997" lon="42.06031">
        <ele>482.788477</ele>
        <time>2021-08-17T05:00:44.993Z</time>
      </trkpt>
      <trkpt lat="41.13021" lon="42.0596">
        <ele>488.089417</ele>
        <time>2021-08-17T05:01:37.798Z</time>
      </trkpt>
      <trkpt lat="41.13028" lon="42.05926">
        <ele>490.471542</ele>
        <time>2021-08-17T05:01:54.827Z</time>
      </trkpt>
      <trkpt lat="41.13028" lon="42.05905">
        <ele>491.897179</ele>
        <time>2021-08-17T05:02:11.063Z</time>
      </trkpt>
      <trkpt lat="41.13024" lon="42.05812">
        <ele>495.961864</ele>
        <time>2021-08-17T05:02:57.760Z</time>
      </trkpt>
      <trkpt lat="41.13029" lon="42.05753">
        <ele>495.941859</ele>
        <time>2021-08-17T05:03:17.736Z</time>
      </trkpt>
      <trkpt lat="41.13038" lon="42.05705">
        <ele>495.925028</ele>
        <time>2021-08-17T05:03:30.343Z</time>
      </trkpt>
      <trkpt lat="41.1305" lon="42.05651">
        <ele>495.905708</ele>
        <time>2021-08-17T05:03:39.463Z</time>
      </trkpt>
      <trkpt lat="41.13054" lon="42.05582">
        <ele>494.85065</ele>
        <time>2021-08-17T05:03:51.146Z</time>
      </trkpt>
      <trkpt lat="41.13047" lon="42.05514">
        <ele>492.378575</ele>
        <time>2021-08-17T05:04:03.220Z</time>
      </trkpt>
      <trkpt lat="41.1303" lon="42.05433">
        <ele>489.342198</ele>
        <time>2021-08-17T05:04:17.830Z</time>
      </trkpt>
      <trkpt lat="41.13008" lon="42.05359">
        <ele>486.165612</ele>
        <time>2021-08-17T05:04:30.696Z</time>
      </trkpt>
      <trkpt lat="41.12975" lon="42.05277">
        <ele>481.645625</ele>
        <time>2021-08-17T05:04:45.408Z</time>
      </trkpt>
      <trkpt lat="41.12955" lon="42.05244">
        <ele>479.564178</ele>
        <time>2021-08-17T05:04:52.195Z</time>
      </trkpt>
      <trkpt lat="41.12933" lon="42.05216">
        <ele>477.589771</ele>
        <time>2021-08-17T05:04:58.298Z</time>
      </trkpt>
      <trkpt lat="41.12897" lon="42.05162">
        <ele>474.577495</ele>
        <time>2021-08-17T05:05:09.458Z</time>
      </trkpt>
      <trkpt lat="41.12893" lon="42.05141">
        <ele>473.898813</ele>
        <time>2021-08-17T05:05:12.703Z</time>
      </trkpt>
      <trkpt lat="41.12894" lon="42.05113">
        <ele>473.007178</ele>
        <time>2021-08-17T05:05:17.096Z</time>
      </trkpt>
      <trkpt lat="41.12945" lon="42.05011">
        <ele>469.136291</ele>
        <time>2021-08-17T05:05:36.762Z</time>
      </trkpt>
      <trkpt lat="41.12966" lon="42.0498">
        <ele>468.108387</ele>
        <time>2021-08-17T05:05:45.270Z</time>
      </trkpt>
      <trkpt lat="41.12986" lon="42.04961">
        <ele>468.620194</ele>
        <time>2021-08-17T05:05:54.093Z</time>
      </trkpt>
      <trkpt lat="41.13039" lon="42.04923">
        <ele>469.898529</ele>
        <time>2021-08-17T05:06:17.531Z</time>
      </trkpt>
      <trkpt lat="41.13051" lon="42.04903">
        <ele>470.317091</ele>
        <time>2021-08-17T05:06:26.007Z</time>
      </trkpt>
      <trkpt lat="41.13086" lon="42.0481">
        <ele>472.223162</ele>
        <time>2021-08-17T05:07:09.184Z</time>
      </trkpt>
      <trkpt lat="41.13103" lon="42.04792">
        <ele>473.489155</ele>
        <time>2021-08-17T05:07:21.455Z</time>
      </trkpt>
      <trkpt lat="41.13188" lon="42.04739">
        <ele>478.866854</ele>
        <time>2021-08-17T05:08:27.463Z</time>
      </trkpt>
      <trkpt lat="41.13231" lon="42.04721">
        <ele>481.412716</ele>
        <time>2021-08-17T05:08:55.046Z</time>
      </trkpt>
      <trkpt lat="41.13251" lon="42.04721">
        <ele>482.168344</ele>
        <time>2021-08-17T05:09:07.648Z</time>
      </trkpt>
      <trkpt lat="41.1329" lon="42.04747">
        <ele>482.577559</ele>
        <time>2021-08-17T05:09:32.604Z</time>
      </trkpt>
      <trkpt lat="41.13323" lon="42.04761">
        <ele>482.901675</ele>
        <time>2021-08-17T05:09:48.693Z</time>
      </trkpt>
      <trkpt lat="41.13348" lon="42.04761">
        <ele>483.132727</ele>
        <time>2021-08-17T05:09:57.769Z</time>
      </trkpt>
      <trkpt lat="41.13365" lon="42.04753">
        <ele>483.304758</ele>
        <time>2021-08-17T05:10:03.207Z</time>
      </trkpt>
      <trkpt lat="41.13379" lon="42.04735">
        <ele>483.486006</ele>
        <time>2021-08-17T05:10:08.343Z</time>
      </trkpt>
      <trkpt lat="41.13388" lon="42.04666">
        <ele>481.762949</ele>
        <time>2021-08-17T05:10:20.019Z</time>
      </trkpt>
      <trkpt lat="41.13395" lon="42.04647">
        <ele>480.294384</ele>
        <time>2021-08-17T05:10:23.324Z</time>
      </trkpt>
      <trkpt lat="41.13406" lon="42.04633">
        <ele>478.948225</ele>
        <time>2021-08-17T05:10:26.270Z</time>
      </trkpt>
      <trkpt lat="41.13521" lon="42.0459">
        <ele>468.186552</ele>
        <time>2021-08-17T05:10:48.654Z</time>
      </trkpt>
      <trkpt lat="41.13589" lon="42.04549">
        <ele>460.818499</ele>
        <time>2021-08-17T05:11:02.663Z</time>
      </trkpt>
      <trkpt lat="41.13611" lon="42.04525">
        <ele>458.002977</ele>
        <time>2021-08-17T05:11:08.056Z</time>
      </trkpt>
      <trkpt lat="41.13636" lon="42.04467">
        <ele>453.037709</ele>
        <time>2021-08-17T05:11:17.702Z</time>
      </trkpt>
      <trkpt lat="41.1365" lon="42.04381">
        <ele>447.500223</ele>
        <time>2021-08-17T05:11:30.829Z</time>
      </trkpt>
      <trkpt lat="41.13669" lon="42.04323">
        <ele>444.220363</ele>
        <time>2021-08-17T05:11:40.704Z</time>
      </trkpt>
      <trkpt lat="41.13674" lon="42.04281">
        <ele>442.054694</ele>
        <time>2021-08-17T05:11:47.277Z</time>
      </trkpt>
      <trkpt lat="41.13674" lon="42.04249">
        <ele>440.413656</ele>
        <time>2021-08-17T05:11:52.283Z</time>
      </trkpt>
      <trkpt lat="41.13668" lon="42.04225">
        <ele>439.134826</ele>
        <time>2021-08-17T05:11:56.118Z</time>
      </trkpt>
      <trkpt lat="41.1363" lon="42.04117">
        <ele>432.694545</ele>
        <time>2021-08-17T05:12:14.028Z</time>
      </trkpt>
      <trkpt lat="41.13622" lon="42.04069">
        <ele>429.978102</ele>
        <time>2021-08-17T05:12:21.325Z</time>
      </trkpt>
      <trkpt lat="41.13627" lon="42.03992">
        <ele>425.673902</ele>
        <time>2021-08-17T05:12:32.909Z</time>
      </trkpt>
      <trkpt lat="41.13676" lon="42.03896">
        <ele>420.757317</ele>
        <time>2021-08-17T05:12:50.523Z</time>
      </trkpt>
      <trkpt lat="41.13686" lon="42.03847">
        <ele>418.751601</ele>
        <time>2021-08-17T05:12:58.615Z</time>
      </trkpt>
      <trkpt lat="41.13689" lon="42.03763">
        <ele>415.431994</ele>
        <time>2021-08-17T05:13:12.517Z</time>
      </trkpt>
      <trkpt lat="41.13686" lon="42.03654">
        <ele>412.654478</ele>
        <time>2021-08-17T05:13:31.443Z</time>
      </trkpt>
      <trkpt lat="41.13672" lon="42.03445">
        <ele>408.421475</ele>
        <time>2021-08-17T05:14:07.814Z</time>
      </trkpt>
      <trkpt lat="41.13682" lon="42.03277">
        <ele>406.236045</ele>
        <time>2021-08-17T05:14:39.631Z</time>
      </trkpt>
      <trkpt lat="41.13715" lon="42.0295">
        <ele>411.104682</ele>
        <time>2021-08-17T05:16:21.283Z</time>
      </trkpt>
      <trkpt lat="41.13728" lon="42.02877">
        <ele>413.241962</ele>
        <time>2021-08-17T05:16:55.240Z</time>
      </trkpt>
      <trkpt lat="41.13744" lon="42.02839">
        <ele>414.4834</ele>
        <time>2021-08-17T05:17:13.433Z</time>
      </trkpt>
      <trkpt lat="41.13792" lon="42.02797">
        <ele>417.436822</ele>
        <time>2021-08-17T05:17:46.265Z</time>
      </trkpt>
      <trkpt lat="41.13801" lon="42.02785">
        <ele>418.255241</ele>
        <time>2021-08-17T05:17:56.547Z</time>
      </trkpt>
      <trkpt lat="41.13832" lon="42.02743">
        <ele>420.974455</ele>
        <time>2021-08-17T05:18:26.119Z</time>
      </trkpt>
      <trkpt lat="41.13854" lon="42.02703">
        <ele>423.290593</ele>
        <time>2021-08-17T05:18:53.422Z</time>
      </trkpt>
      <trkpt lat="41.14011" lon="42.02371">
        <ele>434.86498</ele>
        <time>2021-08-17T05:22:10.242Z</time>
      </trkpt>
      <trkpt lat="41.14126" lon="42.02122">
        <ele>424.074627</ele>
        <time>2021-08-17T05:22:52.611Z</time>
      </trkpt>
      <trkpt lat="41.14293" lon="42.01788">
        <ele>416.420885</ele>
        <time>2021-08-17T05:24:07.232Z</time>
      </trkpt>
      <trkpt lat="41.14388" lon="42.01542">
        <ele>420.578624</ele>
        <time>2021-08-17T05:25:35.735Z</time>
      </trkpt>
      <trkpt lat="41.1442" lon="42.01481">
        <ele>422.830265</ele>
        <time>2021-08-17T05:26:07.758Z</time>
      </trkpt>
      <trkpt lat="41.14484" lon="42.01387">
        <ele>427.202102</ele>
        <time>2021-08-17T05:27:09.833Z</time>
      </trkpt>
      <trkpt lat="41.14536" lon="42.01307">
        <ele>431.388606</ele>
        <time>2021-08-17T05:28:04.392Z</time>
      </trkpt>
      <trkpt lat="41.15029" lon="42.0058">
        <ele>449.839339</ele>
        <time>2021-08-17T05:34:09.516Z</time>
      </trkpt>
      <trkpt lat="41.15067" lon="42.00502">
        <ele>445.787878</ele>
        <time>2021-08-17T05:34:22.614Z</time>
      </trkpt>
      <trkpt lat="41.15111" lon="42.00357">
        <ele>432.155475</ele>
        <time>2021-08-17T05:34:44.028Z</time>
      </trkpt>
      <trkpt lat="41.15175" lon="42.00172">
        <ele>422.138613</ele>
        <time>2021-08-17T05:35:14.574Z</time>
      </trkpt>
      <trkpt lat="41.15188" lon="42.00148">
        <ele>420.970535</ele>
        <time>2021-08-17T05:35:20.697Z</time>
      </trkpt>
      <trkpt lat="41.15225" lon="42.00125">
        <ele>419.346756</ele>
        <time>2021-08-17T05:35:33.824Z</time>
      </trkpt>
      <trkpt lat="41.15242" lon="42.00097">
        <ele>420.079123</ele>
        <time>2021-08-17T05:35:43.892Z</time>
      </trkpt>
      <trkpt lat="41.15266" lon="42.00032">
        <ele>421.548041</ele>
        <time>2021-08-17T05:36:07.481Z</time>
      </trkpt>
      <trkpt lat="41.15286" lon="42.00002">
        <ele>422.33811</ele>
        <time>2021-08-17T05:36:22.962Z</time>
      </trkpt>
      <trkpt lat="41.15302" lon="41.99991">
        <ele>422.824816</ele>
        <time>2021-08-17T05:36:33.034Z</time>
      </trkpt>
      <trkpt lat="41.15342" lon="41.99984">
        <ele>423.919848</ele>
        <time>2021-08-17T05:36:56.350Z</time>
      </trkpt>
      <trkpt lat="41.15367" lon="41.99972">
        <ele>424.982608</ele>
        <time>2021-08-17T05:37:11.118Z</time>
      </trkpt>
      <trkpt lat="41.15457" lon="41.99842">
        <ele>430.651457</ele>
        <time>2021-08-17T05:38:24.099Z</time>
      </trkpt>
      <trkpt lat="41.15486" lon="41.99829">
        <ele>431.740363</ele>
        <time>2021-08-17T05:38:40.967Z</time>
      </trkpt>
      <trkpt lat="41.15523" lon="41.99829">
        <ele>432.320388</ele>
        <time>2021-08-17T05:39:01.452Z</time>
      </trkpt>
      <trkpt lat="41.15569" lon="41.99862">
        <ele>433.12842</ele>
        <time>2021-08-17T05:39:27.043Z</time>
      </trkpt>
      <trkpt lat="41.15599" lon="41.99895">
        <ele>433.729972</ele>
        <time>2021-08-17T05:39:38.498Z</time>
      </trkpt>
      <trkpt lat="41.15629" lon="41.99917">
        <ele>434.263594</ele>
        <time>2021-08-17T05:39:47.402Z</time>
      </trkpt>
      <trkpt lat="41.15647" lon="41.99924">
        <ele>434.452701</ele>
        <time>2021-08-17T05:39:52.399Z</time>
      </trkpt>
      <trkpt lat="41.15674" lon="41.99913">
        <ele>434.553517</ele>
        <time>2021-08-17T05:39:59.680Z</time>
      </trkpt>
      <trkpt lat="41.157" lon="41.9989">
        <ele>434.667266</ele>
        <time>2021-08-17T05:40:07.858Z</time>
      </trkpt>
      <trkpt lat="41.15718" lon="41.99865">
        <ele>434.759928</ele>
        <time>2021-08-17T05:40:13.994Z</time>
      </trkpt>
      <trkpt lat="41.1575" lon="41.99818">
        <ele>434.933226</ele>
        <time>2021-08-17T05:40:27.803Z</time>
      </trkpt>
      <trkpt lat="41.15786" lon="41.99777">
        <ele>436.178519</ele>
        <time>2021-08-17T05:40:49.350Z</time>
      </trkpt>
      <trkpt lat="41.15815" lon="41.99754">
        <ele>440.300597</ele>
        <time>2021-08-17T05:41:13.262Z</time>
      </trkpt>
      <trkpt lat="41.15871" lon="41.99739">
        <ele>447.107613</ele>
        <time>2021-08-17T05:42:12.407Z</time>
      </trkpt>
      <trkpt lat="41.15901" lon="41.99746">
        <ele>450.740432</ele>
        <time>2021-08-17T05:42:54.154Z</time>
      </trkpt>
      <trkpt lat="41.16169" lon="41.99802">
        <ele>477.301571</ele>
        <time>2021-08-17T05:48:11.627Z</time>
      </trkpt>
      <trkpt lat="41.16209" lon="41.99791">
        <ele>472.873069</ele>
        <time>2021-08-17T05:48:18.962Z</time>
      </trkpt>
      <trkpt lat="41.1625" lon="41.99749">
        <ele>467.124505</ele>
        <time>2021-08-17T05:48:28.330Z</time>
      </trkpt>
      <trkpt lat="41.16262" lon="41.99735">
        <ele>465.376761</ele>
        <time>2021-08-17T05:48:31.185Z</time>
      </trkpt>
      <trkpt lat="41.1628" lon="41.99702">
        <ele>461.902239</ele>
        <time>2021-08-17T05:48:36.649Z</time>
      </trkpt>
      <trkpt lat="41.16291" lon="41.99674">
        <ele>458.161966</ele>
        <time>2021-08-17T05:48:40.900Z</time>
      </trkpt>
      <trkpt lat="41.16293" lon="41.99624">
        <ele>452.206492</ele>
        <time>2021-08-17T05:48:47.681Z</time>
      </trkpt>
      <trkpt lat="41.16282" lon="41.99345">
        <ele>429.753137</ele>
        <time>2021-08-17T05:49:28.138Z</time>
      </trkpt>
      <trkpt lat="41.16287" lon="41.99262">
        <ele>426.922983</ele>
        <time>2021-08-17T05:49:48.740Z</time>
      </trkpt>
      <trkpt lat="41.16301" lon="41.99197">
        <ele>426.096358</ele>
        <time>2021-08-17T05:50:09.008Z</time>
      </trkpt>
      <trkpt lat="41.16329" lon="41.99141">
        <ele>426.482051</ele>
        <time>2021-08-17T05:50:30.870Z</time>
      </trkpt>
      <trkpt lat="41.16364" lon="41.99099">
        <ele>426.839136</ele>
        <time>2021-08-17T05:50:49.323Z</time>
      </trkpt>
      <trkpt lat="41.16386" lon="41.99062">
        <ele>427.110738</ele>
        <time>2021-08-17T05:51:00.552Z</time>
      </trkpt>
      <trkpt lat="41.16398" lon="41.99013">
        <ele>426.733894</ele>
        <time>2021-08-17T05:51:10.532Z</time>
      </trkpt>
      <trkpt lat="41.16398" lon="41.98964">
        <ele>425.775098</ele>
        <time>2021-08-17T05:51:19.440Z</time>
      </trkpt>
      <trkpt lat="41.16372" lon="41.98909">
        <ele>424.522276</ele>
        <time>2021-08-17T05:51:30.627Z</time>
      </trkpt>
      <trkpt lat="41.16311" lon="41.98839">
        <ele>422.490641</ele>
        <time>2021-08-17T05:51:49.000Z</time>
      </trkpt>
      <trkpt lat="41.16267" lon="41.98782">
        <ele>421.366514</ele>
        <time>2021-08-17T05:52:03.266Z</time>
      </trkpt>
      <trkpt lat="41.16245" lon="41.98716">
        <ele>420.38346</ele>
        <time>2021-08-17T05:52:16.335Z</time>
      </trkpt>
      <trkpt lat="41.16186" lon="41.98471">
        <ele>421.75364</ele>
        <time>2021-08-17T05:53:16.365Z</time>
      </trkpt>
      <trkpt lat="41.1615" lon="41.9836">
        <ele>428.067802</ele>
        <time>2021-08-17T05:54:16.597Z</time>
      </trkpt>
      <trkpt lat="41.1615" lon="41.98324">
        <ele>431.170927</ele>
        <time>2021-08-17T05:54:40.565Z</time>
      </trkpt>
      <trkpt lat="41.16159" lon="41.98285">
        <ele>434.801994</ele>
        <time>2021-08-17T05:55:12.543Z</time>
      </trkpt>
      <trkpt lat="41.16188" lon="41.98251">
        <ele>439.274245</ele>
        <time>2021-08-17T05:55:56.847Z</time>
      </trkpt>
      <trkpt lat="41.1627" lon="41.98216">
        <ele>449.201937</ele>
        <time>2021-08-17T05:57:44.939Z</time>
      </trkpt>
      <trkpt lat="41.16297" lon="41.98221">
        <ele>452.251948</ele>
        <time>2021-08-17T05:58:16.454Z</time>
      </trkpt>
      <trkpt lat="41.1632" lon="41.98241">
        <ele>455.306836</ele>
        <time>2021-08-17T05:58:45.188Z</time>
      </trkpt>
      <trkpt lat="41.16345" lon="41.98302">
        <ele>461.248343</ele>
        <time>2021-08-17T05:59:30.159Z</time>
      </trkpt>
      <trkpt lat="41.16354" lon="41.98361">
        <ele>462.403141</ele>
        <time>2021-08-17T05:59:52.849Z</time>
      </trkpt>
      <trkpt lat="41.16367" lon="41.98389">
        <ele>460.786352</ele>
        <time>2021-08-17T05:59:59.456Z</time>
      </trkpt>
      <trkpt lat="41.16389" lon="41.98418">
        <ele>458.766158</ele>
        <time>2021-08-17T06:00:05.979Z</time>
      </trkpt>
      <trkpt lat="41.16405" lon="41.98422">
        <ele>457.682558</ele>
        <time>2021-08-17T06:00:09.222Z</time>
      </trkpt>
      <trkpt lat="41.16449" lon="41.98412">
        <ele>454.783719</ele>
        <time>2021-08-17T06:00:17.544Z</time>
      </trkpt>
      <trkpt lat="41.1647" lon="41.98395">
        <ele>453.165487</ele>
        <time>2021-08-17T06:00:22.065Z</time>
      </trkpt>
      <trkpt lat="41.16485" lon="41.98368">
        <ele>450.957971</ele>
        <time>2021-08-17T06:00:26.690Z</time>
      </trkpt>
      <trkpt lat="41.16494" lon="41.98339">
        <ele>447.919207</ele>
        <time>2021-08-17T06:00:30.978Z</time>
      </trkpt>
      <trkpt lat="41.16494" lon="41.98316">
        <ele>445.629257</ele>
        <time>2021-08-17T06:00:34.209Z</time>
      </trkpt>
      <trkpt lat="41.16456" lon="41.98203">
        <ele>433.661114</ele>
        <time>2021-08-17T06:00:51.286Z</time>
      </trkpt>
      <trkpt lat="41.16439" lon="41.98139">
        <ele>427.903125</ele>
        <time>2021-08-17T06:01:01.030Z</time>
      </trkpt>
      <trkpt lat="41.16439" lon="41.98103">
        <ele>426.073177</ele>
        <time>2021-08-17T06:01:06.227Z</time>
      </trkpt>
      <trkpt lat="41.16458" lon="41.98006">
        <ele>420.868756</ele>
        <time>2021-08-17T06:01:21.602Z</time>
      </trkpt>
      <trkpt lat="41.16458" lon="41.9796">
        <ele>418.480526</ele>
        <time>2021-08-17T06:01:29.000Z</time>
      </trkpt>
      <trkpt lat="41.16432" lon="41.97794">
        <ele>412.999772</ele>
        <time>2021-08-17T06:01:56.517Z</time>
      </trkpt>
      <trkpt lat="41.16423" lon="41.97701">
        <ele>410.460788</ele>
        <time>2021-08-17T06:02:12.446Z</time>
      </trkpt>
      <trkpt lat="41.16426" lon="41.97656">
        <ele>410.522365</ele>
        <time>2021-08-17T06:02:20.912Z</time>
      </trkpt>
      <trkpt lat="41.16453" lon="41.97509">
        <ele>412.587539</ele>
        <time>2021-08-17T06:03:06.227Z</time>
      </trkpt>
      <trkpt lat="41.16459" lon="41.97419">
        <ele>413.343314</ele>
        <time>2021-08-17T06:03:53.362Z</time>
      </trkpt>
      <trkpt lat="41.16477" lon="41.97376">
        <ele>413.331945</ele>
        <time>2021-08-17T06:04:10.114Z</time>
      </trkpt>
      <trkpt lat="41.16498" lon="41.97362">
        <ele>413.324777</ele>
        <time>2021-08-17T06:04:18.635Z</time>
      </trkpt>
      <trkpt lat="41.16514" lon="41.9736">
        <ele>413.319842</ele>
        <time>2021-08-17T06:04:23.227Z</time>
      </trkpt>
      <trkpt lat="41.16542" lon="41.97362">
        <ele>413.311439</ele>
        <time>2021-08-17T06:04:34.231Z</time>
      </trkpt>
      <trkpt lat="41.1655" lon="41.97328">
        <ele>413.303157</ele>
        <time>2021-08-17T06:04:40.074Z</time>
      </trkpt>
      <trkpt lat="41.16576" lon="41.97226">
        <ele>406.82738</ele>
        <time>2021-08-17T06:04:56.430Z</time>
      </trkpt>
      <trkpt lat="41.16601" lon="41.97137">
        <ele>398.85341</ele>
        <time>2021-08-17T06:05:09.449Z</time>
      </trkpt>
      <trkpt lat="41.16613" lon="41.97033">
        <ele>391.57153</ele>
        <time>2021-08-17T06:05:24.178Z</time>
      </trkpt>
      <trkpt lat="41.16612" lon="41.9694">
        <ele>387.475504</ele>
        <time>2021-08-17T06:05:37.994Z</time>
      </trkpt>
      <trkpt lat="41.16607" lon="41.96914">
        <ele>386.290912</ele>
        <time>2021-08-17T06:05:42.103Z</time>
      </trkpt>
      <trkpt lat="41.16602" lon="41.96901">
        <ele>385.618841</ele>
        <time>2021-08-17T06:05:45.713Z</time>
      </trkpt>
      <trkpt lat="41.16499" lon="41.96823">
        <ele>383.91664</ele>
        <time>2021-08-17T06:06:25.515Z</time>
      </trkpt>
      <trkpt lat="41.16462" lon="41.96786">
        <ele>384.715636</ele>
        <time>2021-08-17T06:06:51.921Z</time>
      </trkpt>
      <trkpt lat="41.16448" lon="41.96764">
        <ele>385.073233</ele>
        <time>2021-08-17T06:07:02.065Z</time>
      </trkpt>
      <trkpt lat="41.16441" lon="41.96743">
        <ele>385.37411</ele>
        <time>2021-08-17T06:07:10.116Z</time>
      </trkpt>
      <trkpt lat="41.16439" lon="41.96713">
        <ele>385.768001</ele>
        <time>2021-08-17T06:07:19.833Z</time>
      </trkpt>
      <trkpt lat="41.16447" lon="41.96615">
        <ele>383.282706</ele>
        <time>2021-08-17T06:07:41.445Z</time>
      </trkpt>
      <trkpt lat="41.16443" lon="41.96593">
        <ele>382.689945</ele>
        <time>2021-08-17T06:07:45.199Z</time>
      </trkpt>
      <trkpt lat="41.16426" lon="41.9656">
        <ele>381.589544</ele>
        <time>2021-08-17T06:07:51.872Z</time>
      </trkpt>
      <trkpt lat="41.16398" lon="41.96549">
        <ele>380.551794</ele>
        <time>2021-08-17T06:07:57.846Z</time>
      </trkpt>
      <trkpt lat="41.16325" lon="41.96566">
        <ele>375.865029</ele>
        <time>2021-08-17T06:08:12.222Z</time>
      </trkpt>
      <trkpt lat="41.16305" lon="41.96561">
        <ele>374.119508</ele>
        <time>2021-08-17T06:08:16.111Z</time>
      </trkpt>
      <trkpt lat="41.16276" lon="41.96532">
        <ele>371.024662</ele>
        <time>2021-08-17T06:08:23.047Z</time>
      </trkpt>
      <trkpt lat="41.16216" lon="41.964">
        <ele>363.174435</ele>
        <time>2021-08-17T06:08:45.680Z</time>
      </trkpt>
      <trkpt lat="41.16183" lon="41.96296">
        <ele>360.765673</ele>
        <time>2021-08-17T06:09:05.193Z</time>
      </trkpt>
      <trkpt lat="41.16135" lon="41.96185">
        <ele>359.796057</ele>
        <time>2021-08-17T06:09:41.791Z</time>
      </trkpt>
      <trkpt lat="41.16083" lon="41.96053">
        <ele>362.013589</ele>
        <time>2021-08-17T06:10:33.644Z</time>
      </trkpt>
      <trkpt lat="41.1606" lon="41.95967">
        <ele>363.264514</ele>
        <time>2021-08-17T06:11:00.869Z</time>
      </trkpt>
      <trkpt lat="41.16048" lon="41.95883">
        <ele>364.351131</ele>
        <time>2021-08-17T06:11:25.909Z</time>
      </trkpt>
      <trkpt lat="41.16004" lon="41.95787">
        <ele>365.857532</ele>
        <time>2021-08-17T06:11:59.623Z</time>
      </trkpt>
      <trkpt lat="41.15986" lon="41.9572">
        <ele>367.460571</ele>
        <time>2021-08-17T06:12:23.745Z</time>
      </trkpt>
      <trkpt lat="41.15974" lon="41.95546">
        <ele>371.619772</ele>
        <time>2021-08-17T06:13:30.279Z</time>
      </trkpt>
      <trkpt lat="41.15964" lon="41.95511">
        <ele>372.962948</ele>
        <time>2021-08-17T06:13:44.424Z</time>
      </trkpt>
      <trkpt lat="41.1593" lon="41.95433">
        <ele>376.206351</ele>
        <time>2021-08-17T06:14:20.676Z</time>
      </trkpt>
      <trkpt lat="41.15892" lon="41.95312">
        <ele>381.712838</ele>
        <time>2021-08-17T06:15:24.797Z</time>
      </trkpt>
      <trkpt lat="41.15844" lon="41.95182">
        <ele>390.189399</ele>
        <time>2021-08-17T06:16:47.518Z</time>
      </trkpt>
      <trkpt lat="41.1584" lon="41.95134">
        <ele>393.016643</ele>
        <time>2021-08-17T06:17:17.028Z</time>
      </trkpt>
      <trkpt lat="41.15846" lon="41.95103">
        <ele>394.896135</ele>
        <time>2021-08-17T06:17:37.094Z</time>
      </trkpt>
      <trkpt lat="41.15845" lon="41.9508">
        <ele>396.251007</ele>
        <time>2021-08-17T06:17:50.877Z</time>
      </trkpt>
      <trkpt lat="41.15828" lon="41.95053">
        <ele>398.320932</ele>
        <time>2021-08-17T06:18:11.372Z</time>
      </trkpt>
      <trkpt lat="41.15768" lon="41.95034">
        <ele>403.138977</ele>
        <time>2021-08-17T06:18:56.108Z</time>
      </trkpt>
      <trkpt lat="41.15749" lon="41.95021">
        <ele>404.808441</ele>
        <time>2021-08-17T06:19:11.271Z</time>
      </trkpt>
      <trkpt lat="41.15732" lon="41.94999">
        <ele>406.662435</ele>
        <time>2021-08-17T06:19:28.322Z</time>
      </trkpt>
      <trkpt lat="41.15721" lon="41.9497">
        <ele>408.586409</ele>
        <time>2021-08-17T06:19:45.980Z</time>
      </trkpt>
      <trkpt lat="41.15714" lon="41.94913">
        <ele>412.038399</ele>
        <time>2021-08-17T06:20:18.551Z</time>
      </trkpt>
      <trkpt lat="41.15717" lon="41.9483">
        <ele>417.005136</ele>
        <time>2021-08-17T06:21:06.684Z</time>
      </trkpt>
      <trkpt lat="41.15731" lon="41.948">
        <ele>419.114782</ele>
        <time>2021-08-17T06:21:27.758Z</time>
      </trkpt>
      <trkpt lat="41.15778" lon="41.94735">
        <ele>423.474784</ele>
        <time>2021-08-17T06:22:20.266Z</time>
      </trkpt>
      <trkpt lat="41.15784" lon="41.94708">
        <ele>424.472744</ele>
        <time>2021-08-17T06:22:34.930Z</time>
      </trkpt>
      <trkpt lat="41.15781" lon="41.94676">
        <ele>425.615891</ele>
        <time>2021-08-17T06:22:50.702Z</time>
      </trkpt>
      <trkpt lat="41.15768" lon="41.94652">
        <ele>426.663986</ele>
        <time>2021-08-17T06:23:03.835Z</time>
      </trkpt>
      <trkpt lat="41.15718" lon="41.9462">
        <ele>429.277246</ele>
        <time>2021-08-17T06:23:30.319Z</time>
      </trkpt>
      <trkpt lat="41.15702" lon="41.94601">
        <ele>430.287789</ele>
        <time>2021-08-17T06:23:39.103Z</time>
      </trkpt>
      <trkpt lat="41.15642" lon="41.94511">
        <ele>432.208093</ele>
        <time>2021-08-17T06:24:10.797Z</time>
      </trkpt>
      <trkpt lat="41.15634" lon="41.94492">
        <ele>432.53938</ele>
        <time>2021-08-17T06:24:16.422Z</time>
      </trkpt>
      <trkpt lat="41.15627" lon="41.94467">
        <ele>432.94529</ele>
        <time>2021-08-17T06:24:23.777Z</time>
      </trkpt>
      <trkpt lat="41.15624" lon="41.94392">
        <ele>434.107919</ele>
        <time>2021-08-17T06:24:48.368Z</time>
      </trkpt>
      <trkpt lat="41.156" lon="41.94272">
        <ele>442.539157</ele>
        <time>2021-08-17T06:25:55.568Z</time>
      </trkpt>
      <trkpt lat="41.15606" lon="41.94183">
        <ele>448.618875</ele>
        <time>2021-08-17T06:27:01.254Z</time>
      </trkpt>
      <trkpt lat="41.15602" lon="41.94162">
        <ele>450.072295</ele>
        <time>2021-08-17T06:27:18.364Z</time>
      </trkpt>
      <trkpt lat="41.15574" lon="41.94105">
        <ele>455.845589</ele>
        <time>2021-08-17T06:28:11.814Z</time>
      </trkpt>
      <trkpt lat="41.15553" lon="41.94041">
        <ele>461.774159</ele>
        <time>2021-08-17T06:29:06.170Z</time>
      </trkpt>
      <trkpt lat="41.15531" lon="41.94001">
        <ele>466.024439</ele>
        <time>2021-08-17T06:29:43.634Z</time>
      </trkpt>
      <trkpt lat="41.15508" lon="41.93975">
        <ele>469.469149</ele>
        <time>2021-08-17T06:30:11.678Z</time>
      </trkpt>
      <trkpt lat="41.15392" lon="41.93882">
        <ele>476.829389</ele>
        <time>2021-08-17T06:31:34.595Z</time>
      </trkpt>
      <trkpt lat="41.15323" lon="41.93831">
        <ele>480.559624</ele>
        <time>2021-08-17T06:32:08.480Z</time>
      </trkpt>
      <trkpt lat="41.15306" lon="41.938">
        <ele>481.800701</ele>
        <time>2021-08-17T06:32:21.268Z</time>
      </trkpt>
      <trkpt lat="41.15276" lon="41.93707">
        <ele>485.0749</ele>
        <time>2021-08-17T06:32:57.838Z</time>
      </trkpt>
      <trkpt lat="41.15276" lon="41.93677">
        <ele>486.04575</ele>
        <time>2021-08-17T06:33:12.129Z</time>
      </trkpt>
      <trkpt lat="41.1529" lon="41.93621">
        <ele>489.081328</ele>
        <time>2021-08-17T06:33:45.286Z</time>
      </trkpt>
      <trkpt lat="41.1529" lon="41.936">
        <ele>490.885224</ele>
        <time>2021-08-17T06:33:58.528Z</time>
      </trkpt>
      <trkpt lat="41.1526" lon="41.93524">
        <ele>498.256356</ele>
        <time>2021-08-17T06:34:57.654Z</time>
      </trkpt>
      <trkpt lat="41.15245" lon="41.93435">
        <ele>506.090664</ele>
        <time>2021-08-17T06:36:11.019Z</time>
      </trkpt>
      <trkpt lat="41.15244" lon="41.93392">
        <ele>509.98091</ele>
        <time>2021-08-17T06:36:47.991Z</time>
      </trkpt>
      <trkpt lat="41.15254" lon="41.93333">
        <ele>515.683787</ele>
        <time>2021-08-17T06:37:38.868Z</time>
      </trkpt>
      <trkpt lat="41.15253" lon="41.93317">
        <ele>517.197764</ele>
        <time>2021-08-17T06:37:52.107Z</time>
      </trkpt>
      <trkpt lat="41.15241" lon="41.93296">
        <ele>519.631036</ele>
        <time>2021-08-17T06:38:12.680Z</time>
      </trkpt>
      <trkpt lat="41.15206" lon="41.93264">
        <ele>524.963356</ele>
        <time>2021-08-17T06:38:56.005Z</time>
      </trkpt>
      <trkpt lat="41.15194" lon="41.93245">
        <ele>527.365067</ele>
        <time>2021-08-17T06:39:14.282Z</time>
      </trkpt>
      <trkpt lat="41.15188" lon="41.93221">
        <ele>529.774184</ele>
        <time>2021-08-17T06:39:32.287Z</time>
      </trkpt>
      <trkpt lat="41.15218" lon="41.93124">
        <ele>533.930868</ele>
        <time>2021-08-17T06:40:32.631Z</time>
      </trkpt>
      <trkpt lat="41.15217" lon="41.93098">
        <ele>534.874506</ele>
        <time>2021-08-17T06:40:43.385Z</time>
      </trkpt>
      <trkpt lat="41.15194" lon="41.93024">
        <ele>537.798442</ele>
        <time>2021-08-17T06:41:08.803Z</time>
      </trkpt>
      <trkpt lat="41.15181" lon="41.92945">
        <ele>540.01011</ele>
        <time>2021-08-17T06:41:29.526Z</time>
      </trkpt>
      <trkpt lat="41.15143" lon="41.92883">
        <ele>541.640115</ele>
        <time>2021-08-17T06:41:50.402Z</time>
      </trkpt>
      <trkpt lat="41.15118" lon="41.92829">
        <ele>542.904265</ele>
        <time>2021-08-17T06:42:11.374Z</time>
      </trkpt>
      <trkpt lat="41.15081" lon="41.92792">
        <ele>545.050181</ele>
        <time>2021-08-17T06:42:39.545Z</time>
      </trkpt>
      <trkpt lat="41.15031" lon="41.92758">
        <ele>551.920694</ele>
        <time>2021-08-17T06:43:27.090Z</time>
      </trkpt>
      <trkpt lat="41.15022" lon="41.92735">
        <ele>554.26763</ele>
        <time>2021-08-17T06:43:47.399Z</time>
      </trkpt>
      <trkpt lat="41.15016" lon="41.92701">
        <ele>557.510364</ele>
        <time>2021-08-17T06:44:17.195Z</time>
      </trkpt>
      <trkpt lat="41.15005" lon="41.92674">
        <ele>560.420952</ele>
        <time>2021-08-17T06:44:44.316Z</time>
      </trkpt>
      <trkpt lat="41.14971" lon="41.92632">
        <ele>566.119622</ele>
        <time>2021-08-17T06:45:39.568Z</time>
      </trkpt>
      <trkpt lat="41.14925" lon="41.92551">
        <ele>577.690147</ele>
        <time>2021-08-17T06:47:14.422Z</time>
      </trkpt>
      <trkpt lat="41.14895" lon="41.92516">
        <ele>583.866337</ele>
        <time>2021-08-17T06:48:03.347Z</time>
      </trkpt>
      <trkpt lat="41.14882" lon="41.92479">
        <ele>588.475708</ele>
        <time>2021-08-17T06:48:38.163Z</time>
      </trkpt>
      <trkpt lat="41.1488" lon="41.92433">
        <ele>593.623677</ele>
        <time>2021-08-17T06:49:15.482Z</time>
      </trkpt>
      <trkpt lat="41.14885" lon="41.92359">
        <ele>599.866092</ele>
        <time>2021-08-17T06:50:10.786Z</time>
      </trkpt>
      <trkpt lat="41.14895" lon="41.92301">
        <ele>604.867298</ele>
        <time>2021-08-17T06:50:52.827Z</time>
      </trkpt>
      <trkpt lat="41.14907" lon="41.92277">
        <ele>607.270488</ele>
        <time>2021-08-17T06:51:13.021Z</time>
      </trkpt>
      <trkpt lat="41.14989" lon="41.92187">
        <ele>617.006252</ele>
        <time>2021-08-17T06:52:42.487Z</time>
      </trkpt>
      <trkpt lat="41.1502" lon="41.92145">
        <ele>620.143097</ele>
        <time>2021-08-17T06:53:16.139Z</time>
      </trkpt>
      <trkpt lat="41.15145" lon="41.91958">
        <ele>630.268416</ele>
        <time>2021-08-17T06:55:07.121Z</time>
      </trkpt>
      <trkpt lat="41.15158" lon="41.91923">
        <ele>631.460675</ele>
        <time>2021-08-17T06:55:20.925Z</time>
      </trkpt>
      <trkpt lat="41.15156" lon="41.91897">
        <ele>632.259106</ele>
        <time>2021-08-17T06:55:30.198Z</time>
      </trkpt>
      <trkpt lat="41.1515" lon="41.91883">
        <ele>632.75123</ele>
        <time>2021-08-17T06:55:35.711Z</time>
      </trkpt>
      <trkpt lat="41.15096" lon="41.91811">
        <ele>635.667347</ele>
        <time>2021-08-17T06:56:11.499Z</time>
      </trkpt>
      <trkpt lat="41.15074" lon="41.91771">
        <ele>637.06786</ele>
        <time>2021-08-17T06:56:29.616Z</time>
      </trkpt>
      <trkpt lat="41.1507" lon="41.91752">
        <ele>637.625661</ele>
        <time>2021-08-17T06:56:37.317Z</time>
      </trkpt>
      <trkpt lat="41.15068" lon="41.91712">
        <ele>638.759098</ele>
        <time>2021-08-17T06:56:54.033Z</time>
      </trkpt>
      <trkpt lat="41.15093" lon="41.91612">
        <ele>642.883735</ele>
        <time>2021-08-17T06:57:42.251Z</time>
      </trkpt>
      <trkpt lat="41.15094" lon="41.91577">
        <ele>644.558395</ele>
        <time>2021-08-17T06:57:59.344Z</time>
      </trkpt>
      <trkpt lat="41.15089" lon="41.91561">
        <ele>645.386671</ele>
        <time>2021-08-17T06:58:07.862Z</time>
      </trkpt>
      <trkpt lat="41.15071" lon="41.9152">
        <ele>647.655882</ele>
        <time>2021-08-17T06:58:31.901Z</time>
      </trkpt>
      <trkpt lat="41.1498" lon="41.91385">
        <ele>657.357431</ele>
        <time>2021-08-17T07:00:12.197Z</time>
      </trkpt>
      <trkpt lat="41.14957" lon="41.91332">
        <ele>660.912598</ele>
        <time>2021-08-17T07:00:47.020Z</time>
      </trkpt>
      <trkpt lat="41.14952" lon="41.91308">
        <ele>662.359829</ele>
        <time>2021-08-17T07:01:01.338Z</time>
      </trkpt>
      <trkpt lat="41.14953" lon="41.91266">
        <ele>664.802002</ele>
        <time>2021-08-17T07:01:25.333Z</time>
      </trkpt>
      <trkpt lat="41.14982" lon="41.91128">
        <ele>673.34</ele>
        <time>2021-08-17T07:02:44.103Z</time>
      </trkpt>
      <trkpt lat="41.14982" lon="41.91082">
        <ele>676.086342</ele>
        <time>2021-08-17T07:03:09.588Z</time>
      </trkpt>
      <trkpt lat="41.14944" lon="41.9095">
        <ele>687.134409</ele>
        <time>2021-08-17T07:04:34.503Z</time>
      </trkpt>
      <trkpt lat="41.14922" lon="41.90802">
        <ele>700.961557</ele>
        <time>2021-08-17T07:06:33.940Z</time>
      </trkpt>
      <trkpt lat="41.14921" lon="41.90758">
        <ele>706.838403</ele>
        <time>2021-08-17T07:07:16.229Z</time>
      </trkpt>
      <trkpt lat="41.14926" lon="41.90724">
        <ele>711.705401</ele>
        <time>2021-08-17T07:07:51.951Z</time>
      </trkpt>
      <trkpt lat="41.1495" lon="41.90684">
        <ele>718.890966</ele>
        <time>2021-08-17T07:08:46.321Z</time>
      </trkpt>
      <trkpt lat="41.14971" lon="41.90678">
        <ele>722.898753</ele>
        <time>2021-08-17T07:09:17.736Z</time>
      </trkpt>
      <trkpt lat="41.14991" lon="41.90684">
        <ele>726.724336</ele>
        <time>2021-08-17T07:09:47.363Z</time>
      </trkpt>
      <trkpt lat="41.1511" lon="41.90755">
        <ele>749.549525</ele>
        <time>2021-08-17T07:12:50.993Z</time>
      </trkpt>
      <trkpt lat="41.15231" lon="41.90838">
        <ele>770.129189</ele>
        <time>2021-08-17T07:15:26.234Z</time>
      </trkpt>
      <trkpt lat="41.15322" lon="41.90874">
        <ele>780.68355</ele>
        <time>2021-08-17T07:16:54.181Z</time>
      </trkpt>
      <trkpt lat="41.15494" lon="41.90911">
        <ele>794.594797</ele>
        <time>2021-08-17T07:19:04.330Z</time>
      </trkpt>
      <trkpt lat="41.15599" lon="41.90917">
        <ele>800.102002</ele>
        <time>2021-08-17T07:20:04.587Z</time>
      </trkpt>
      <trkpt lat="41.1564" lon="41.90909">
        <ele>801.660506</ele>
        <time>2021-08-17T07:20:25.728Z</time>
      </trkpt>
      <trkpt lat="41.15705" lon="41.90866">
        <ele>804.391511</ele>
        <time>2021-08-17T07:21:00.997Z</time>
      </trkpt>
      <trkpt lat="41.15731" lon="41.90863">
        <ele>805.120528</ele>
        <time>2021-08-17T07:21:14.292Z</time>
      </trkpt>
      <trkpt lat="41.15862" lon="41.90941">
        <ele>808.355987</ele>
        <time>2021-08-17T07:22:19.243Z</time>
      </trkpt>
      <trkpt lat="41.15886" lon="41.90947">
        <ele>808.770539</ele>
        <time>2021-08-17T07:22:27.740Z</time>
      </trkpt>
      <trkpt lat="41.159" lon="41.90944">
        <ele>808.694666</ele>
        <time>2021-08-17T07:22:32.565Z</time>
      </trkpt>
      <trkpt lat="41.15918" lon="41.90922">
        <ele>808.56379</ele>
        <time>2021-08-17T07:22:40.340Z</time>
      </trkpt>
      <trkpt lat="41.15958" lon="41.90813">
        <ele>808.075337</ele>
        <time>2021-08-17T07:23:05.740Z</time>
      </trkpt>
      <trkpt lat="41.16072" lon="41.90594">
        <ele>804.792983</ele>
        <time>2021-08-17T07:23:56.869Z</time>
      </trkpt>
      <trkpt lat="41.16098" lon="41.90557">
        <ele>803.714112</ele>
        <time>2021-08-17T07:24:05.746Z</time>
      </trkpt>
      <trkpt lat="41.16176" lon="41.90473">
        <ele>799.295587</ele>
        <time>2021-08-17T07:24:27.543Z</time>
      </trkpt>
      <trkpt lat="41.16216" lon="41.90419">
        <ele>796.786008</ele>
        <time>2021-08-17T07:24:39.422Z</time>
      </trkpt>
      <trkpt lat="41.16233" lon="41.90371">
        <ele>795.344129</ele>
        <time>2021-08-17T07:24:47.685Z</time>
      </trkpt>
      <trkpt lat="41.16247" lon="41.90264">
        <ele>792.574096</ele>
        <time>2021-08-17T07:25:05.101Z</time>
      </trkpt>
      <trkpt lat="41.16262" lon="41.9023">
        <ele>791.568968</ele>
        <time>2021-08-17T07:25:12.105Z</time>
      </trkpt>
      <trkpt lat="41.16334" lon="41.90177">
        <ele>791.204259</ele>
        <time>2021-08-17T07:25:39.045Z</time>
      </trkpt>
      <trkpt lat="41.16393" lon="41.90114">
        <ele>792.714099</ele>
        <time>2021-08-17T07:26:15.358Z</time>
      </trkpt>
      <trkpt lat="41.16434" lon="41.90095">
        <ele>793.580183</ele>
        <time>2021-08-17T07:26:37.038Z</time>
      </trkpt>
      <trkpt lat="41.16479" lon="41.901">
        <ele>793.107329</ele>
        <time>2021-08-17T07:26:58.376Z</time>
      </trkpt>
      <trkpt lat="41.16507" lon="41.90116">
        <ele>792.293854</ele>
        <time>2021-08-17T07:27:10.437Z</time>
      </trkpt>
      <trkpt lat="41.16598" lon="41.90196">
        <ele>789.381548</ele>
        <time>2021-08-17T07:27:34.851Z</time>
      </trkpt>
      <trkpt lat="41.16619" lon="41.90204">
        <ele>787.675239</ele>
        <time>2021-08-17T07:27:39.046Z</time>
      </trkpt>
      <trkpt lat="41.1664" lon="41.90196">
        <ele>784.869558</ele>
        <time>2021-08-17T07:27:43.161Z</time>
      </trkpt>
      <trkpt lat="41.16648" lon="41.90185">
        <ele>783.390852</ele>
        <time>2021-08-17T07:27:45.296Z</time>
      </trkpt>
      <trkpt lat="41.16683" lon="41.90094">
        <ele>773.511247</ele>
        <time>2021-08-17T07:27:59.387Z</time>
      </trkpt>
      <trkpt lat="41.16756" lon="41.89979">
        <ele>760.07822</ele>
        <time>2021-08-17T07:28:19.962Z</time>
      </trkpt>
      <trkpt lat="41.16817" lon="41.89859">
        <ele>748.291583</ele>
        <time>2021-08-17T07:28:40.601Z</time>
      </trkpt>
      <trkpt lat="41.16868" lon="41.89802">
        <ele>746.068299</ele>
        <time>2021-08-17T07:28:55.337Z</time>
      </trkpt>
      <trkpt lat="41.1692" lon="41.89726">
        <ele>745.339262</ele>
        <time>2021-08-17T07:29:19.479Z</time>
      </trkpt>
      <trkpt lat="41.16954" lon="41.89701">
        <ele>744.97281</ele>
        <time>2021-08-17T07:29:36.414Z</time>
      </trkpt>
      <trkpt lat="41.17005" lon="41.89695">
        <ele>745.004991</ele>
        <time>2021-08-17T07:30:00.660Z</time>
      </trkpt>
      <trkpt lat="41.17052" lon="41.89703">
        <ele>745.200338</ele>
        <time>2021-08-17T07:30:22.101Z</time>
      </trkpt>
      <trkpt lat="41.17155" lon="41.89755">
        <ele>744.181369</ele>
        <time>2021-08-17T07:30:57.029Z</time>
      </trkpt>
      <trkpt lat="41.17282" lon="41.89799">
        <ele>732.411564</ele>
        <time>2021-08-17T07:31:22.109Z</time>
      </trkpt>
      <trkpt lat="41.17309" lon="41.898">
        <ele>729.989363</ele>
        <time>2021-08-17T07:31:27.100Z</time>
      </trkpt>
      <trkpt lat="41.17328" lon="41.89788">
        <ele>727.846831</ele>
        <time>2021-08-17T07:31:30.938Z</time>
      </trkpt>
      <trkpt lat="41.17343" lon="41.89762">
        <ele>725.2187</ele>
        <time>2021-08-17T07:31:35.414Z</time>
      </trkpt>
      <trkpt lat="41.17354" lon="41.89701">
        <ele>720.186343</ele>
        <time>2021-08-17T07:31:44.062Z</time>
      </trkpt>
      <trkpt lat="41.17357" lon="41.89502">
        <ele>710.83073</ele>
        <time>2021-08-17T07:32:13.542Z</time>
      </trkpt>
      <trkpt lat="41.17367" lon="41.89442">
        <ele>711.270032</ele>
        <time>2021-08-17T07:32:35.627Z</time>
      </trkpt>
      <trkpt lat="41.17373" lon="41.89428">
        <ele>711.385197</ele>
        <time>2021-08-17T07:32:42.771Z</time>
      </trkpt>
      <trkpt lat="41.17392" lon="41.89411">
        <ele>711.602747</ele>
        <time>2021-08-17T07:32:57.000Z</time>
      </trkpt>
      <trkpt lat="41.17519" lon="41.89385">
        <ele>716.883204</ele>
        <time>2021-08-17T07:34:33.342Z</time>
      </trkpt>
      <trkpt lat="41.17532" lon="41.89379">
        <ele>717.656942</ele>
        <time>2021-08-17T07:34:42.569Z</time>
      </trkpt>
      <trkpt lat="41.17551" lon="41.89358">
        <ele>719.046496</ele>
        <time>2021-08-17T07:34:58.527Z</time>
      </trkpt>
      <trkpt lat="41.17563" lon="41.89318">
        <ele>720.868723</ele>
        <time>2021-08-17T07:35:16.747Z</time>
      </trkpt>
      <trkpt lat="41.17588" lon="41.89136">
        <ele>723.150916</ele>
        <time>2021-08-17T07:36:06.967Z</time>
      </trkpt>
      <trkpt lat="41.17614" lon="41.89083">
        <ele>723.573836</ele>
        <time>2021-08-17T07:36:20.568Z</time>
      </trkpt>
      <trkpt lat="41.17622" lon="41.89044">
        <ele>724.002239</ele>
        <time>2021-08-17T07:36:30.087Z</time>
      </trkpt>
      <trkpt lat="41.17575" lon="41.88886">
        <ele>726.45581</ele>
        <time>2021-08-17T07:37:21.027Z</time>
      </trkpt>
      <trkpt lat="41.17564" lon="41.88789">
        <ele>729.088987</ele>
        <time>2021-08-17T07:38:00.969Z</time>
      </trkpt>
      <trkpt lat="41.17537" lon="41.88712">
        <ele>732.406893</ele>
        <time>2021-08-17T07:38:38.841Z</time>
      </trkpt>
      <trkpt lat="41.17532" lon="41.88679">
        <ele>733.721707</ele>
        <time>2021-08-17T07:38:55.083Z</time>
      </trkpt>
      <trkpt lat="41.17536" lon="41.88641">
        <ele>735.220407</ele>
        <time>2021-08-17T07:39:14.413Z</time>
      </trkpt>
      <trkpt lat="41.17555" lon="41.88555">
        <ele>738.740929</ele>
        <time>2021-08-17T07:40:00.216Z</time>
      </trkpt>
      <trkpt lat="41.17552" lon="41.88451">
        <ele>742.84203</ele>
        <time>2021-08-17T07:40:49.354Z</time>
      </trkpt>
      <trkpt lat="41.17555" lon="41.88419">
        <ele>744.112725</ele>
        <time>2021-08-17T07:41:03.270Z</time>
      </trkpt>
      <trkpt lat="41.17563" lon="41.88392">
        <ele>745.256116</ele>
        <time>2021-08-17T07:41:15.326Z</time>
      </trkpt>
      <trkpt lat="41.17595" lon="41.88333">
        <ele>746.541073</ele>
        <time>2021-08-17T07:41:43.080Z</time>
      </trkpt>
      <trkpt lat="41.17601" lon="41.88279">
        <ele>747.155784</ele>
        <time>2021-08-17T07:42:00.035Z</time>
      </trkpt>
      <trkpt lat="41.1758" lon="41.88167">
        <ele>748.45562</ele>
        <time>2021-08-17T07:42:26.897Z</time>
      </trkpt>
      <trkpt lat="41.17553" lon="41.88057">
        <ele>750.838127</ele>
        <time>2021-08-17T07:42:57.652Z</time>
      </trkpt>
      <trkpt lat="41.1753" lon="41.87992">
        <ele>752.400418</ele>
        <time>2021-08-17T07:43:23.639Z</time>
      </trkpt>
      <trkpt lat="41.1749" lon="41.87902">
        <ele>756.264786</ele>
        <time>2021-08-17T07:44:13.500Z</time>
      </trkpt>
      <trkpt lat="41.17477" lon="41.87854">
        <ele>759.38854</ele>
        <time>2021-08-17T07:44:43.055Z</time>
      </trkpt>
      <trkpt lat="41.17474" lon="41.87816">
        <ele>761.728234</ele>
        <time>2021-08-17T07:45:06.675Z</time>
      </trkpt>
      <trkpt lat="41.17482" lon="41.87785">
        <ele>763.734986</ele>
        <time>2021-08-17T07:45:27.714Z</time>
      </trkpt>
      <trkpt lat="41.17501" lon="41.87771">
        <ele>765.490305</ele>
        <time>2021-08-17T07:45:45.942Z</time>
      </trkpt>
      <trkpt lat="41.17572" lon="41.8776">
        <ele>770.760423</ele>
        <time>2021-08-17T07:46:44.876Z</time>
      </trkpt>
      <trkpt lat="41.17597" lon="41.8775">
        <ele>772.494103</ele>
        <time>2021-08-17T07:47:04.473Z</time>
      </trkpt>
      <trkpt lat="41.17706" lon="41.87672">
        <ele>780.477207</ele>
        <time>2021-08-17T07:48:20.743Z</time>
      </trkpt>
      <trkpt lat="41.17752" lon="41.87647">
        <ele>782.888714</ele>
        <time>2021-08-17T07:48:49.350Z</time>
      </trkpt>
      <trkpt lat="41.17835" lon="41.87615">
        <ele>787.047367</ele>
        <time>2021-08-17T07:49:39.048Z</time>
      </trkpt>
      <trkpt lat="41.17885" lon="41.87612">
        <ele>789.236919</ele>
        <time>2021-08-17T07:50:08.061Z</time>
      </trkpt>
      <trkpt lat="41.17909" lon="41.87621">
        <ele>790.015652</ele>
        <time>2021-08-17T07:50:22.937Z</time>
      </trkpt>
      <trkpt lat="41.17974" lon="41.87674">
        <ele>792.403897</ele>
        <time>2021-08-17T07:51:05.994Z</time>
      </trkpt>
      <trkpt lat="41.17994" lon="41.8768">
        <ele>793.033952</ele>
        <time>2021-08-17T07:51:15.659Z</time>
      </trkpt>
      <trkpt lat="41.18008" lon="41.87681">
        <ele>793.474116</ele>
        <time>2021-08-17T07:51:21.405Z</time>
      </trkpt>
      <trkpt lat="41.18062" lon="41.87662">
        <ele>793.347842</ele>
        <time>2021-08-17T07:51:39.041Z</time>
      </trkpt>
      <trkpt lat="41.18098" lon="41.87672">
        <ele>791.627393</ele>
        <time>2021-08-17T07:51:48.030Z</time>
      </trkpt>
      <trkpt lat="41.1812" lon="41.87686">
        <ele>790.503381</ele>
        <time>2021-08-17T07:51:53.417Z</time>
      </trkpt>
      <trkpt lat="41.18212" lon="41.87775">
        <ele>784.090658</ele>
        <time>2021-08-17T07:52:16.202Z</time>
      </trkpt>
      <trkpt lat="41.18232" lon="41.8779">
        <ele>781.747006</ele>
        <time>2021-08-17T07:52:20.571Z</time>
      </trkpt>
      <trkpt lat="41.18283" lon="41.87811">
        <ele>776.302055</ele>
        <time>2021-08-17T07:52:30.620Z</time>
      </trkpt>
      <trkpt lat="41.18349" lon="41.87811">
        <ele>769.682234</ele>
        <time>2021-08-17T07:52:42.779Z</time>
      </trkpt>
      <trkpt lat="41.18491" lon="41.87773">
        <ele>758.870698</ele>
        <time>2021-08-17T07:53:10.762Z</time>
      </trkpt>
      <trkpt lat="41.18534" lon="41.87782">
        <ele>755.804567</ele>
        <time>2021-08-17T07:53:20.313Z</time>
      </trkpt>
      <trkpt lat="41.18647" lon="41.87835">
        <ele>755.818934</ele>
        <time>2021-08-17T07:53:56.606Z</time>
      </trkpt>
      <trkpt lat="41.18696" lon="41.87867">
        <ele>756.192164</ele>
        <time>2021-08-17T07:54:23.206Z</time>
      </trkpt>
      <trkpt lat="41.18755" lon="41.87932">
        <ele>758.294309</ele>
        <time>2021-08-17T07:55:00.644Z</time>
      </trkpt>
      <trkpt lat="41.18874" lon="41.88038">
        <ele>762.588265</ele>
        <time>2021-08-17T07:56:12.710Z</time>
      </trkpt>
      <trkpt lat="41.1891" lon="41.88051">
        <ele>763.202678</ele>
        <time>2021-08-17T07:56:30.441Z</time>
      </trkpt>
      <trkpt lat="41.18964" lon="41.88095">
        <ele>764.243129</ele>
        <time>2021-08-17T07:56:56.789Z</time>
      </trkpt>
      <trkpt lat="41.19014" lon="41.88107">
        <ele>765.083956</ele>
        <time>2021-08-17T07:57:14.497Z</time>
      </trkpt>
      <trkpt lat="41.19066" lon="41.88166">
        <ele>760.38522</ele>
        <time>2021-08-17T07:57:32.545Z</time>
      </trkpt>
      <trkpt lat="41.1909" lon="41.8818">
        <ele>758.500824</ele>
        <time>2021-08-17T07:57:37.925Z</time>
      </trkpt>
      <trkpt lat="41.1915" lon="41.88203">
        <ele>753.901414</ele>
        <time>2021-08-17T07:57:49.785Z</time>
      </trkpt>
      <trkpt lat="41.19163" lon="41.88203">
        <ele>752.933204</ele>
        <time>2021-08-17T07:57:52.184Z</time>
      </trkpt>
      <trkpt lat="41.19207" lon="41.88187">
        <ele>744.635184</ele>
        <time>2021-08-17T07:58:00.396Z</time>
      </trkpt>
      <trkpt lat="41.19237" lon="41.88204">
        <ele>737.026164</ele>
        <time>2021-08-17T07:58:06.217Z</time>
      </trkpt>
      <trkpt lat="41.19295" lon="41.88253">
        <ele>720.967072</ele>
        <time>2021-08-17T07:58:18.474Z</time>
      </trkpt>
      <trkpt lat="41.19317" lon="41.88262">
        <ele>715.810463</ele>
        <time>2021-08-17T07:58:22.443Z</time>
      </trkpt>
      <trkpt lat="41.19361" lon="41.88259">
        <ele>704.818173</ele>
        <time>2021-08-17T07:58:30.345Z</time>
      </trkpt>
      <trkpt lat="41.19387" lon="41.88249">
        <ele>697.321171</ele>
        <time>2021-08-17T07:58:35.351Z</time>
      </trkpt>
      <trkpt lat="41.19419" lon="41.88221">
        <ele>687.100815</ele>
        <time>2021-08-17T07:58:42.145Z</time>
      </trkpt>
      <trkpt lat="41.1944" lon="41.88187">
        <ele>678.131575</ele>
        <time>2021-08-17T07:58:48.080Z</time>
      </trkpt>
      <trkpt lat="41.19447" lon="41.88154">
        <ele>671.274428</ele>
        <time>2021-08-17T07:58:52.606Z</time>
      </trkpt>
      <trkpt lat="41.19427" lon="41.88067">
        <ele>658.105726</ele>
        <time>2021-08-17T07:59:04.685Z</time>
      </trkpt>
      <trkpt lat="41.19401" lon="41.8802">
        <ele>653.301172</ele>
        <time>2021-08-17T07:59:12.652Z</time>
      </trkpt>
      <trkpt lat="41.19357" lon="41.87957">
        <ele>646.191878</ele>
        <time>2021-08-17T07:59:25.283Z</time>
      </trkpt>
      <trkpt lat="41.1935" lon="41.87933">
        <ele>644.029501</ele>
        <time>2021-08-17T07:59:29.765Z</time>
      </trkpt>
      <trkpt lat="41.19349" lon="41.87911">
        <ele>642.249607</ele>
        <time>2021-08-17T07:59:33.748Z</time>
      </trkpt>
      <trkpt lat="41.19354" lon="41.87885">
        <ele>642.374444</ele>
        <time>2021-08-17T07:59:40.622Z</time>
      </trkpt>
      <trkpt lat="41.19424" lon="41.87733">
        <ele>645.568284</ele>
        <time>2021-08-17T08:00:49.400Z</time>
      </trkpt>
      <trkpt lat="41.19436" lon="41.87693">
        <ele>646.306948</ele>
        <time>2021-08-17T08:01:06.963Z</time>
      </trkpt>
      <trkpt lat="41.19455" lon="41.87594">
        <ele>647.525732</ele>
        <time>2021-08-17T08:01:43.381Z</time>
      </trkpt>
      <trkpt lat="41.19454" lon="41.87557">
        <ele>647.965299</ele>
        <time>2021-08-17T08:01:54.300Z</time>
      </trkpt>
      <trkpt lat="41.19446" lon="41.87536">
        <ele>648.244752</ele>
        <time>2021-08-17T08:02:00.523Z</time>
      </trkpt>
      <trkpt lat="41.19434" lon="41.8752">
        <ele>648.512955</ele>
        <time>2021-08-17T08:02:06.280Z</time>
      </trkpt>
      <trkpt lat="41.19337" lon="41.87429">
        <ele>649.212453</ele>
        <time>2021-08-17T08:02:40.101Z</time>
      </trkpt>
      <trkpt lat="41.19313" lon="41.87383">
        <ele>649.277224</ele>
        <time>2021-08-17T08:02:54.194Z</time>
      </trkpt>
      <trkpt lat="41.19306" lon="41.87337">
        <ele>649.33153</ele>
        <time>2021-08-17T08:03:07.725Z</time>
      </trkpt>
      <trkpt lat="41.19313" lon="41.87297">
        <ele>649.298648</ele>
        <time>2021-08-17T08:03:18.844Z</time>
      </trkpt>
      <trkpt lat="41.19328" lon="41.87261">
        <ele>649.118066</ele>
        <time>2021-08-17T08:03:28.860Z</time>
      </trkpt>
      <trkpt lat="41.19372" lon="41.87179">
        <ele>648.676107</ele>
        <time>2021-08-17T08:03:51.374Z</time>
      </trkpt>
      <trkpt lat="41.19415" lon="41.87047">
        <ele>646.343472</ele>
        <time>2021-08-17T08:04:19.174Z</time>
      </trkpt>
      <trkpt lat="41.19418" lon="41.86948">
        <ele>643.152978</ele>
        <time>2021-08-17T08:04:35.020Z</time>
      </trkpt>
      <trkpt lat="41.19413" lon="41.86901">
        <ele>641.624475</ele>
        <time>2021-08-17T08:04:42.417Z</time>
      </trkpt>
      <trkpt lat="41.19389" lon="41.86806">
        <ele>637.44959</ele>
        <time>2021-08-17T08:04:57.979Z</time>
      </trkpt>
      <trkpt lat="41.19311" lon="41.86662">
        <ele>629.334599</ele>
        <time>2021-08-17T08:05:25.189Z</time>
      </trkpt>
      <trkpt lat="41.19298" lon="41.86605">
        <ele>626.918731</ele>
        <time>2021-08-17T08:05:34.528Z</time>
      </trkpt>
      <trkpt lat="41.19287" lon="41.86508">
        <ele>622.939826</ele>
        <time>2021-08-17T08:05:50.177Z</time>
      </trkpt>
      <trkpt lat="41.19251" lon="41.86442">
        <ele>619.553864</ele>
        <time>2021-08-17T08:06:03.116Z</time>
      </trkpt>
      <trkpt lat="41.19216" lon="41.864">
        <ele>616.342999</ele>
        <time>2021-08-17T08:06:12.904Z</time>
      </trkpt>
      <trkpt lat="41.19187" lon="41.86375">
        <ele>613.989388</ele>
        <time>2021-08-17T08:06:19.950Z</time>
      </trkpt>
      <trkpt lat="41.19163" lon="41.86363">
        <ele>612.243453</ele>
        <time>2021-08-17T08:06:25.104Z</time>
      </trkpt>
      <trkpt lat="41.19059" lon="41.86338">
        <ele>604.445872</ele>
        <time>2021-08-17T08:06:45.783Z</time>
      </trkpt>
      <trkpt lat="41.19018" lon="41.86321">
        <ele>600.855653</ele>
        <time>2021-08-17T08:06:54.067Z</time>
      </trkpt>
      <trkpt lat="41.18963" lon="41.86281">
        <ele>595.614594</ele>
        <time>2021-08-17T08:07:06.223Z</time>
      </trkpt>
      <trkpt lat="41.18948" lon="41.86262">
        <ele>593.882335</ele>
        <time>2021-08-17T08:07:10.283Z</time>
      </trkpt>
      <trkpt lat="41.18938" lon="41.86238">
        <ele>592.317304</ele>
        <time>2021-08-17T08:07:14.344Z</time>
      </trkpt>
      <trkpt lat="41.18927" lon="41.8619">
        <ele>590.180296</ele>
        <time>2021-08-17T08:07:21.856Z</time>
      </trkpt>
      <trkpt lat="41.18942" lon="41.86107">
        <ele>586.544824</ele>
        <time>2021-08-17T08:07:34.925Z</time>
      </trkpt>
      <trkpt lat="41.18954" lon="41.85902">
        <ele>581.940355</ele>
        <time>2021-08-17T08:08:09.798Z</time>
      </trkpt>
      <trkpt lat="41.18952" lon="41.85857">
        <ele>581.721486</ele>
        <time>2021-08-17T08:08:20.590Z</time>
      </trkpt>
      <trkpt lat="41.18956" lon="41.858">
        <ele>581.443533</ele>
        <time>2021-08-17T08:08:37.923Z</time>
      </trkpt>
      <trkpt lat="41.18965" lon="41.8576">
        <ele>581.764643</ele>
        <time>2021-08-17T08:08:52.978Z</time>
      </trkpt>
      <trkpt lat="41.18974" lon="41.85749">
        <ele>582.248759</ele>
        <time>2021-08-17T08:08:59.653Z</time>
      </trkpt>
      <trkpt lat="41.18993" lon="41.85742">
        <ele>583.02936</ele>
        <time>2021-08-17T08:09:10.030Z</time>
      </trkpt>
      <trkpt lat="41.19014" lon="41.8575">
        <ele>583.894258</ele>
        <time>2021-08-17T08:09:22.675Z</time>
      </trkpt>
      <trkpt lat="41.19043" lon="41.8579">
        <ele>585.549077</ele>
        <time>2021-08-17T08:09:47.083Z</time>
      </trkpt>
      <trkpt lat="41.19061" lon="41.85832">
        <ele>586.989085</ele>
        <time>2021-08-17T08:10:08.666Z</time>
      </trkpt>
      <trkpt lat="41.1908" lon="41.85863">
        <ele>588.180239</ele>
        <time>2021-08-17T08:10:25.952Z</time>
      </trkpt>
      <trkpt lat="41.19191" lon="41.8595">
        <ele>589.37813</ele>
        <time>2021-08-17T08:11:21.940Z</time>
      </trkpt>
      <trkpt lat="41.19222" lon="41.85963">
        <ele>589.628491</ele>
        <time>2021-08-17T08:11:30.540Z</time>
      </trkpt>
      <trkpt lat="41.19337" lon="41.85982">
        <ele>584.824505</ele>
        <time>2021-08-17T08:11:56.064Z</time>
      </trkpt>
      <trkpt lat="41.19396" lon="41.86038">
        <ele>580.842109</ele>
        <time>2021-08-17T08:12:10.735Z</time>
      </trkpt>
      <trkpt lat="41.19426" lon="41.86049">
        <ele>578.266084</ele>
        <time>2021-08-17T08:12:16.843Z</time>
      </trkpt>
      <trkpt lat="41.19549" lon="41.86023">
        <ele>564.09068</ele>
        <time>2021-08-17T08:12:40.229Z</time>
      </trkpt>
      <trkpt lat="41.19624" lon="41.86052">
        <ele>553.467443</ele>
        <time>2021-08-17T08:12:54.506Z</time>
      </trkpt>
      <trkpt lat="41.19648" lon="41.86051">
        <ele>549.625066</ele>
        <time>2021-08-17T08:12:58.792Z</time>
      </trkpt>
      <trkpt lat="41.19753" lon="41.85995">
        <ele>531.52044</ele>
        <time>2021-08-17T08:13:19.067Z</time>
      </trkpt>
      <trkpt lat="41.1977" lon="41.85976">
        <ele>529.179939</ele>
        <time>2021-08-17T08:13:23.214Z</time>
      </trkpt>
      <trkpt lat="41.19773" lon="41.85949">
        <ele>527.359504</ele>
        <time>2021-08-17T08:13:26.909Z</time>
      </trkpt>
      <trkpt lat="41.19764" lon="41.85928">
        <ele>525.747528</ele>
        <time>2021-08-17T08:13:30.565Z</time>
      </trkpt>
      <trkpt lat="41.19756" lon="41.85923">
        <ele>524.963862</ele>
        <time>2021-08-17T08:13:32.169Z</time>
      </trkpt>
      <trkpt lat="41.19736" lon="41.85924">
        <ele>523.189706</ele>
        <time>2021-08-17T08:13:36.058Z</time>
      </trkpt>
      <trkpt lat="41.19662" lon="41.8598">
        <ele>515.641046</ele>
        <time>2021-08-17T08:13:53.146Z</time>
      </trkpt>
      <trkpt lat="41.19639" lon="41.85986">
        <ele>514.65847</ele>
        <time>2021-08-17T08:13:58.334Z</time>
      </trkpt>
      <trkpt lat="41.19627" lon="41.85983">
        <ele>514.580493</ele>
        <time>2021-08-17T08:14:02.958Z</time>
      </trkpt>
      <trkpt lat="41.19592" lon="41.85953">
        <ele>514.314524</ele>
        <time>2021-08-17T08:14:15.668Z</time>
      </trkpt>
      <trkpt lat="41.19563" lon="41.85938">
        <ele>514.115795</ele>
        <time>2021-08-17T08:14:25.446Z</time>
      </trkpt>
      <trkpt lat="41.19502" lon="41.85945">
        <ele>513.724795</ele>
        <time>2021-08-17T08:14:46.664Z</time>
      </trkpt>
      <trkpt lat="41.19482" lon="41.85942">
        <ele>513.596262</ele>
        <time>2021-08-17T08:14:53.570Z</time>
      </trkpt>
      <trkpt lat="41.19458" lon="41.85924">
        <ele>513.574023</ele>
        <time>2021-08-17T08:15:02.865Z</time>
      </trkpt>
      <trkpt lat="41.1941" lon="41.8586">
        <ele>513.522188</ele>
        <time>2021-08-17T08:15:23.590Z</time>
      </trkpt>
      <trkpt lat="41.19386" lon="41.85848">
        <ele>513.50264</ele>
        <time>2021-08-17T08:15:31.730Z</time>
      </trkpt>
      <trkpt lat="41.19335" lon="41.85841">
        <ele>513.463555</ele>
        <time>2021-08-17T08:15:47.359Z</time>
      </trkpt>
      <trkpt lat="41.19282" lon="41.85812">
        <ele>511.836548</ele>
        <time>2021-08-17T08:16:03.487Z</time>
      </trkpt>
      <trkpt lat="41.19245" lon="41.85777">
        <ele>510.355077</ele>
        <time>2021-08-17T08:16:14.592Z</time>
      </trkpt>
      <trkpt lat="41.19236" lon="41.85762">
        <ele>509.884168</ele>
        <time>2021-08-17T08:16:17.938Z</time>
      </trkpt>
      <trkpt lat="41.19103" lon="41.8551">
        <ele>496.407846</ele>
        <time>2021-08-17T08:17:05.460Z</time>
      </trkpt>
      <trkpt lat="41.19092" lon="41.85497">
        <ele>495.387344</ele>
        <time>2021-08-17T08:17:08.265Z</time>
      </trkpt>
      <trkpt lat="41.19021" lon="41.85445">
        <ele>485.744452</ele>
        <time>2021-08-17T08:17:23.474Z</time>
      </trkpt>
      <trkpt lat="41.18979" lon="41.85392">
        <ele>478.712521</ele>
        <time>2021-08-17T08:17:34.125Z</time>
      </trkpt>
      <trkpt lat="41.18952" lon="41.85334">
        <ele>472.490007</ele>
        <time>2021-08-17T08:17:43.509Z</time>
      </trkpt>
      <trkpt lat="41.18921" lon="41.85192">
        <ele>459.124204</ele>
        <time>2021-08-17T08:18:04.111Z</time>
      </trkpt>
      <trkpt lat="41.1891" lon="41.85168">
        <ele>456.583918</ele>
        <time>2021-08-17T08:18:08.108Z</time>
      </trkpt>
      <trkpt lat="41.18891" lon="41.85152">
        <ele>453.881838</ele>
        <time>2021-08-17T08:18:12.397Z</time>
      </trkpt>
      <trkpt lat="41.18879" lon="41.8515">
        <ele>452.429046</ele>
        <time>2021-08-17T08:18:14.713Z</time>
      </trkpt>
      <trkpt lat="41.1873" lon="41.85161">
        <ele>435.65241</ele>
        <time>2021-08-17T08:18:43.302Z</time>
      </trkpt>
      <trkpt lat="41.18703" lon="41.85154">
        <ele>432.569051</ele>
        <time>2021-08-17T08:18:48.425Z</time>
      </trkpt>
      <trkpt lat="41.18588" lon="41.85062">
        <ele>406.613411</ele>
        <time>2021-08-17T08:19:12.374Z</time>
      </trkpt>
      <trkpt lat="41.18541" lon="41.85002">
        <ele>393.682041</ele>
        <time>2021-08-17T08:19:23.936Z</time>
      </trkpt>
      <trkpt lat="41.18524" lon="41.84991">
        <ele>390.038414</ele>
        <time>2021-08-17T08:19:27.287Z</time>
      </trkpt>
      <trkpt lat="41.18497" lon="41.84995">
        <ele>384.803341</ele>
        <time>2021-08-17T08:19:32.090Z</time>
      </trkpt>
      <trkpt lat="41.18479" lon="41.85014">
        <ele>380.373531</ele>
        <time>2021-08-17T08:19:36.152Z</time>
      </trkpt>
      <trkpt lat="41.18455" lon="41.85069">
        <ele>371.15352</ele>
        <time>2021-08-17T08:19:44.669Z</time>
      </trkpt>
      <trkpt lat="41.18448" lon="41.85097">
        <ele>366.874703</ele>
        <time>2021-08-17T08:19:48.683Z</time>
      </trkpt>
      <trkpt lat="41.18442" lon="41.85169">
        <ele>359.572705</ele>
        <time>2021-08-17T08:19:58.796Z</time>
      </trkpt>
      <trkpt lat="41.1844" lon="41.85316">
        <ele>353.054722</ele>
        <time>2021-08-17T08:20:22.098Z</time>
      </trkpt>
      <trkpt lat="41.18432" lon="41.85474">
        <ele>347.366586</ele>
        <time>2021-08-17T08:20:53.299Z</time>
      </trkpt>
      <trkpt lat="41.18415" lon="41.85509">
        <ele>346.084975</ele>
        <time>2021-08-17T08:21:00.385Z</time>
      </trkpt>
      <trkpt lat="41.18384" lon="41.8554">
        <ele>344.498884</ele>
        <time>2021-08-17T08:21:08.545Z</time>
      </trkpt>
      <trkpt lat="41.18355" lon="41.85588">
        <ele>342.047082</ele>
        <time>2021-08-17T08:21:17.794Z</time>
      </trkpt>
      <trkpt lat="41.18341" lon="41.85593">
        <ele>340.685265</ele>
        <time>2021-08-17T08:21:20.637Z</time>
      </trkpt>
      <trkpt lat="41.18326" lon="41.85585">
        <ele>339.166915</ele>
        <time>2021-08-17T08:21:23.759Z</time>
      </trkpt>
      <trkpt lat="41.18321" lon="41.85577">
        <ele>338.431726</ele>
        <time>2021-08-17T08:21:25.259Z</time>
      </trkpt>
      <trkpt lat="41.18319" lon="41.85553">
        <ele>336.724585</ele>
        <time>2021-08-17T08:21:28.768Z</time>
      </trkpt>
      <trkpt lat="41.18326" lon="41.85531">
        <ele>335.035922</ele>
        <time>2021-08-17T08:21:32.208Z</time>
      </trkpt>
      <trkpt lat="41.18381" lon="41.85478">
        <ele>328.6536</ele>
        <time>2021-08-17T08:21:45.143Z</time>
      </trkpt>
      <trkpt lat="41.18392" lon="41.85459">
        <ele>326.958869</ele>
        <time>2021-08-17T08:21:48.562Z</time>
      </trkpt>
      <trkpt lat="41.18395" lon="41.85444">
        <ele>325.84633</ele>
        <time>2021-08-17T08:21:50.765Z</time>
      </trkpt>
      <trkpt lat="41.18375" lon="41.8529">
        <ele>314.189752</ele>
        <time>2021-08-17T08:22:12.982Z</time>
      </trkpt>
      <trkpt lat="41.18393" lon="41.85119">
        <ele>303.686942</ele>
        <time>2021-08-17T08:22:38.411Z</time>
      </trkpt>
      <trkpt lat="41.18393" lon="41.85012">
        <ele>298.414333</ele>
        <time>2021-08-17T08:22:54.975Z</time>
      </trkpt>
      <trkpt lat="41.18369" lon="41.84872">
        <ele>291.557403</ele>
        <time>2021-08-17T08:23:18.912Z</time>
      </trkpt>
      <trkpt lat="41.18372" lon="41.84808">
        <ele>288.536065</ele>
        <time>2021-08-17T08:23:28.440Z</time>
      </trkpt>
      <trkpt lat="41.18392" lon="41.84738">
        <ele>284.823188</ele>
        <time>2021-08-17T08:23:39.816Z</time>
      </trkpt>
      <trkpt lat="41.18389" lon="41.84719">
        <ele>283.444054</ele>
        <time>2021-08-17T08:23:42.507Z</time>
      </trkpt>
      <trkpt lat="41.18381" lon="41.84696">
        <ele>281.662352</ele>
        <time>2021-08-17T08:23:46.439Z</time>
      </trkpt>
      <trkpt lat="41.1837" lon="41.8469">
        <ele>280.496991</ele>
        <time>2021-08-17T08:23:48.653Z</time>
      </trkpt>
      <trkpt lat="41.18357" lon="41.84693">
        <ele>279.245216</ele>
        <time>2021-08-17T08:23:51.329Z</time>
      </trkpt>
      <trkpt lat="41.18335" lon="41.84738">
        <ele>275.412997</ele>
        <time>2021-08-17T08:23:59.009Z</time>
      </trkpt>
      <trkpt lat="41.18322" lon="41.84953">
        <ele>262.965623</ele>
        <time>2021-08-17T08:24:30.153Z</time>
      </trkpt>
      <trkpt lat="41.18332" lon="41.85092">
        <ele>257.050092</ele>
        <time>2021-08-17T08:24:54.352Z</time>
      </trkpt>
      <trkpt lat="41.18331" lon="41.85125">
        <ele>256.532592</ele>
        <time>2021-08-17T08:25:00.934Z</time>
      </trkpt>
      <trkpt lat="41.18322" lon="41.85158">
        <ele>255.982606</ele>
        <time>2021-08-17T08:25:07.944Z</time>
      </trkpt>
      <trkpt lat="41.18283" lon="41.85252">
        <ele>254.300718</ele>
        <time>2021-08-17T08:25:28.622Z</time>
      </trkpt>
      <trkpt lat="41.18278" lon="41.85284">
        <ele>253.78861</ele>
        <time>2021-08-17T08:25:34.579Z</time>
      </trkpt>
      <trkpt lat="41.18277" lon="41.85345">
        <ele>251.661579</ele>
        <time>2021-08-17T08:25:45.243Z</time>
      </trkpt>
      <trkpt lat="41.18266" lon="41.85393">
        <ele>249.571612</ele>
        <time>2021-08-17T08:25:53.427Z</time>
      </trkpt>
      <trkpt lat="41.18253" lon="41.85418">
        <ele>248.305912</ele>
        <time>2021-08-17T08:25:58.192Z</time>
      </trkpt>
      <trkpt lat="41.18236" lon="41.85428">
        <ele>247.276981</ele>
        <time>2021-08-17T08:26:01.969Z</time>
      </trkpt>
      <trkpt lat="41.18226" lon="41.85427">
        <ele>246.721974</ele>
        <time>2021-08-17T08:26:03.986Z</time>
      </trkpt>
      <trkpt lat="41.18214" lon="41.85418">
        <ele>245.959345</ele>
        <time>2021-08-17T08:26:06.735Z</time>
      </trkpt>
      <trkpt lat="41.1821" lon="41.85399">
        <ele>245.137555</ele>
        <time>2021-08-17T08:26:09.681Z</time>
      </trkpt>
      <trkpt lat="41.18212" lon="41.85386">
        <ele>244.584866</ele>
        <time>2021-08-17T08:26:11.666Z</time>
      </trkpt>
      <trkpt lat="41.18272" lon="41.85173">
        <ele>231.154888</ele>
        <time>2021-08-17T08:26:45.251Z</time>
      </trkpt>
      <trkpt lat="41.18284" lon="41.85145">
        <ele>229.153891</ele>
        <time>2021-08-17T08:26:50.043Z</time>
      </trkpt>
      <trkpt lat="41.18286" lon="41.85124">
        <ele>227.962962</ele>
        <time>2021-08-17T08:26:53.132Z</time>
      </trkpt>
      <trkpt lat="41.18248" lon="41.84946">
        <ele>217.640707</ele>
        <time>2021-08-17T08:27:20.715Z</time>
      </trkpt>
      <trkpt lat="41.1823" lon="41.84841">
        <ele>213.00213</ele>
        <time>2021-08-17T08:27:37.336Z</time>
      </trkpt>
      <trkpt lat="41.18223" lon="41.84677">
        <ele>206.904341</ele>
        <time>2021-08-17T08:28:04.230Z</time>
      </trkpt>
      <trkpt lat="41.18218" lon="41.84651">
        <ele>206.272954</ele>
        <time>2021-08-17T08:28:08.739Z</time>
      </trkpt>
      <trkpt lat="41.18182" lon="41.84565">
        <ele>204.076652</ele>
        <time>2021-08-17T08:28:25.892Z</time>
      </trkpt>
      <trkpt lat="41.1816" lon="41.84546">
        <ele>203.304553</ele>
        <time>2021-08-17T08:28:31.997Z</time>
      </trkpt>
      <trkpt lat="41.18146" lon="41.8454">
        <ele>202.869519</ele>
        <time>2021-08-17T08:28:35.428Z</time>
      </trkpt>
      <trkpt lat="41.18077" lon="41.84539">
        <ele>201.082276</ele>
        <time>2021-08-17T08:28:51.915Z</time>
      </trkpt>
      <trkpt lat="41.18015" lon="41.8451">
        <ele>199.835379</ele>
        <time>2021-08-17T08:29:08.219Z</time>
      </trkpt>
      <trkpt lat="41.18004" lon="41.84503">
        <ele>199.597919</ele>
        <time>2021-08-17T08:29:11.405Z</time>
      </trkpt>
      <trkpt lat="41.17987" lon="41.84493">
        <ele>199.247236</ele>
        <time>2021-08-17T08:29:16.057Z</time>
      </trkpt>
      <trkpt lat="41.17973" lon="41.84486">
        <ele>198.973778</ele>
        <time>2021-08-17T08:29:19.628Z</time>
      </trkpt>
      <trkpt lat="41.17959" lon="41.84478">
        <ele>198.670906</ele>
        <time>2021-08-17T08:29:23.713Z</time>
      </trkpt>
      <trkpt lat="41.17951" lon="41.84475">
        <ele>198.521588</ele>
        <time>2021-08-17T08:29:25.579Z</time>
      </trkpt>
      <trkpt lat="41.17945" lon="41.84472">
        <ele>198.405373</ele>
        <time>2021-08-17T08:29:27.066Z</time>
      </trkpt>
      <trkpt lat="41.17945" lon="41.84466">
        <ele>198.324051</ele>
        <time>2021-08-17T08:29:28.213Z</time>
      </trkpt>
      <trkpt lat="41.17942" lon="41.84459">
        <ele>198.215825</ele>
        <time>2021-08-17T08:29:29.702Z</time>
      </trkpt>
      <trkpt lat="41.17939" lon="41.84454">
        <ele>198.118887</ele>
        <time>2021-08-17T08:29:31.018Z</time>
      </trkpt>
      <trkpt lat="41.17935" lon="41.8445">
        <ele>198.035966</ele>
        <time>2021-08-17T08:29:32.358Z</time>
      </trkpt>
      <trkpt lat="41.17931" lon="41.84448">
        <ele>197.974063</ele>
        <time>2021-08-17T08:29:33.364Z</time>
      </trkpt>
      <trkpt lat="41.17927" lon="41.84448">
        <ele>197.913353</ele>
        <time>2021-08-17T08:29:34.341Z</time>
      </trkpt>
      <trkpt lat="41.17872" lon="41.84413">
        <ele>196.995089</ele>
        <time>2021-08-17T08:29:49.866Z</time>
      </trkpt>
      <trkpt lat="41.17855" lon="41.84394">
        <ele>196.663392</ele>
        <time>2021-08-17T08:29:55.436Z</time>
      </trkpt>
      <trkpt lat="41.1784" lon="41.84358">
        <ele>196.187912</ele>
        <time>2021-08-17T08:30:03.458Z</time>
      </trkpt>
      <trkpt lat="41.17817" lon="41.84261">
        <ele>195.304045</ele>
        <time>2021-08-17T08:30:23.227Z</time>
      </trkpt>
      <trkpt lat="41.17754" lon="41.84119">
        <ele>194.876344</ele>
        <time>2021-08-17T08:30:58.296Z</time>
      </trkpt>
      <trkpt lat="41.17747" lon="41.84089">
        <ele>194.795073</ele>
        <time>2021-08-17T08:31:06.574Z</time>
      </trkpt>
      <trkpt lat="41.17758" lon="41.83995">
        <ele>196.325247</ele>
        <time>2021-08-17T08:31:36.050Z</time>
      </trkpt>
      <trkpt lat="41.17767" lon="41.83955">
        <ele>197.111677</ele>
        <time>2021-08-17T08:31:50.285Z</time>
      </trkpt>
      <trkpt lat="41.17777" lon="41.83924">
        <ele>197.731351</ele>
        <time>2021-08-17T08:32:01.987Z</time>
      </trkpt>
      <trkpt lat="41.178" lon="41.83894">
        <ele>198.535485</ele>
        <time>2021-08-17T08:32:18.166Z</time>
      </trkpt>
      <trkpt lat="41.17823" lon="41.83878">
        <ele>199.187233</ele>
        <time>2021-08-17T08:32:31.745Z</time>
      </trkpt>
      <trkpt lat="41.17971" lon="41.83845">
        <ele>204.107799</ele>
        <time>2021-08-17T08:33:49.959Z</time>
      </trkpt>
      <trkpt lat="41.18001" lon="41.83831">
        <ele>205.177781</ele>
        <time>2021-08-17T08:34:04.030Z</time>
      </trkpt>
      <trkpt lat="41.18025" lon="41.83808">
        <ele>205.690742</ele>
        <time>2021-08-17T08:34:15.666Z</time>
      </trkpt>
      <trkpt lat="41.18083" lon="41.83729">
        <ele>207.156973</ele>
        <time>2021-08-17T08:34:47.123Z</time>
      </trkpt>
      <trkpt lat="41.18146" lon="41.83698">
        <ele>208.332899</ele>
        <time>2021-08-17T08:35:14.637Z</time>
      </trkpt>
      <trkpt lat="41.18172" lon="41.83675">
        <ele>209.608423</ele>
        <time>2021-08-17T08:35:28.405Z</time>
      </trkpt>
      <trkpt lat="41.18191" lon="41.83649">
        <ele>210.759083</ele>
        <time>2021-08-17T08:35:41.652Z</time>
      </trkpt>
      <trkpt lat="41.18214" lon="41.83631">
        <ele>211.863904</ele>
        <time>2021-08-17T08:35:55.537Z</time>
      </trkpt>
      <trkpt lat="41.18256" lon="41.83613">
        <ele>213.71561</ele>
        <time>2021-08-17T08:36:20.253Z</time>
      </trkpt>
      <trkpt lat="41.18367" lon="41.83612">
        <ele>218.930332</ele>
        <time>2021-08-17T08:37:33.626Z</time>
      </trkpt>
      <trkpt lat="41.18426" lon="41.83633">
        <ele>222.034165</ele>
        <time>2021-08-17T08:38:12.247Z</time>
      </trkpt>
      <trkpt lat="41.18483" lon="41.83621">
        <ele>224.992419</ele>
        <time>2021-08-17T08:38:43.884Z</time>
      </trkpt>
      <trkpt lat="41.18534" lon="41.83604">
        <ele>225.383169</ele>
        <time>2021-08-17T08:39:07.791Z</time>
      </trkpt>
      <trkpt lat="41.18585" lon="41.83569">
        <ele>225.719575</ele>
        <time>2021-08-17T08:39:27.742Z</time>
      </trkpt>
      <trkpt lat="41.18673" lon="41.8353">
        <ele>225.728489</ele>
        <time>2021-08-17T08:39:52.151Z</time>
      </trkpt>
      <trkpt lat="41.18699" lon="41.8351">
        <ele>225.16161</ele>
        <time>2021-08-17T08:39:59.181Z</time>
      </trkpt>
      <trkpt lat="41.18725" lon="41.83469">
        <ele>224.391905</ele>
        <time>2021-08-17T08:40:08.566Z</time>
      </trkpt>
      <trkpt lat="41.18745" lon="41.83416">
        <ele>223.532799</ele>
        <time>2021-08-17T08:40:18.955Z</time>
      </trkpt>
      <trkpt lat="41.18802" lon="41.83223">
        <ele>224.855252</ele>
        <time>2021-08-17T08:41:03.130Z</time>
      </trkpt>
      <trkpt lat="41.18817" lon="41.83179">
        <ele>225.564228</ele>
        <time>2021-08-17T08:41:23.933Z</time>
      </trkpt>
      <trkpt lat="41.18857" lon="41.83079">
        <ele>231.019135</ele>
        <time>2021-08-17T08:42:24.525Z</time>
      </trkpt>
      <trkpt lat="41.18875" lon="41.83042">
        <ele>234.030877</ele>
        <time>2021-08-17T08:42:53.047Z</time>
      </trkpt>
      <trkpt lat="41.18888" lon="41.8302">
        <ele>235.926372</ele>
        <time>2021-08-17T08:43:13.721Z</time>
      </trkpt>
      <trkpt lat="41.19006" lon="41.82836">
        <ele>251.562417</ele>
        <time>2021-08-17T08:45:52.812Z</time>
      </trkpt>
      <trkpt lat="41.19027" lon="41.82808">
        <ele>254.084804</ele>
        <time>2021-08-17T08:46:14.478Z</time>
      </trkpt>
      <trkpt lat="41.19607" lon="41.82111">
        <ele>290.900031</ele>
        <time>2021-08-17T08:54:25.475Z</time>
      </trkpt>
      <trkpt lat="41.19653" lon="41.82038">
        <ele>281.328677</ele>
        <time>2021-08-17T08:54:38.504Z</time>
      </trkpt>
      <trkpt lat="41.19797" lon="41.81946">
        <ele>260.328126</ele>
        <time>2021-08-17T08:55:07.020Z</time>
      </trkpt>
      <trkpt lat="41.19835" lon="41.81908">
        <ele>254.29109</ele>
        <time>2021-08-17T08:55:15.846Z</time>
      </trkpt>
      <trkpt lat="41.19859" lon="41.81853">
        <ele>248.133547</ele>
        <time>2021-08-17T08:55:25.332Z</time>
      </trkpt>
      <trkpt lat="41.19912" lon="41.81754">
        <ele>247.380762</ele>
        <time>2021-08-17T08:55:46.763Z</time>
      </trkpt>
      <trkpt lat="41.20386" lon="41.80855">
        <ele>251.714849</ele>
        <time>2021-08-17T09:01:15.216Z</time>
      </trkpt>
      <trkpt lat="41.20439" lon="41.8073">
        <ele>245.162207</ele>
        <time>2021-08-17T09:01:35.743Z</time>
      </trkpt>
      <trkpt lat="41.20497" lon="41.80489">
        <ele>238.321301</ele>
        <time>2021-08-17T09:02:19.804Z</time>
      </trkpt>
      <trkpt lat="41.20508" lon="41.80462">
        <ele>237.770967</ele>
        <time>2021-08-17T09:02:30.992Z</time>
      </trkpt>
      <trkpt lat="41.20703" lon="41.80295">
        <ele>238.151959</ele>
        <time>2021-08-17T09:03:52.950Z</time>
      </trkpt>
      <trkpt lat="41.20752" lon="41.80234">
        <ele>237.880751</ele>
        <time>2021-08-17T09:04:11.784Z</time>
      </trkpt>
      <trkpt lat="41.20794" lon="41.80172">
        <ele>237.632706</ele>
        <time>2021-08-17T09:04:28.342Z</time>
      </trkpt>
      <trkpt lat="41.209" lon="41.80021">
        <ele>238.112042</ele>
        <time>2021-08-17T09:05:16.846Z</time>
      </trkpt>
      <trkpt lat="41.20962" lon="41.79951">
        <ele>239.172005</ele>
        <time>2021-08-17T09:05:48.613Z</time>
      </trkpt>
      <trkpt lat="41.21028" lon="41.79887">
        <ele>241.571055</ele>
        <time>2021-08-17T09:06:26.163Z</time>
      </trkpt>
      <trkpt lat="41.21207" lon="41.79673">
        <ele>252.18418</ele>
        <time>2021-08-17T09:08:37.504Z</time>
      </trkpt>
      <trkpt lat="41.21287" lon="41.79621">
        <ele>260.146463</ele>
        <time>2021-08-17T09:09:54.598Z</time>
      </trkpt>
      <trkpt lat="41.21338" lon="41.79586">
        <ele>265.508938</ele>
        <time>2021-08-17T09:10:53.961Z</time>
      </trkpt>
      <trkpt lat="41.21462" lon="41.79514">
        <ele>272.254694</ele>
        <time>2021-08-17T09:12:30.242Z</time>
      </trkpt>
      <trkpt lat="41.21536" lon="41.79465">
        <ele>274.72754</ele>
        <time>2021-08-17T09:12:53.942Z</time>
      </trkpt>
      <trkpt lat="41.21585" lon="41.79428">
        <ele>273.372213</ele>
        <time>2021-08-17T09:13:06.119Z</time>
      </trkpt>
      <trkpt lat="41.21691" lon="41.79384">
        <ele>270.167001</ele>
        <time>2021-08-17T09:13:30.359Z</time>
      </trkpt>
      <trkpt lat="41.21798" lon="41.79348">
        <ele>270.393889</ele>
        <time>2021-08-17T09:14:13.311Z</time>
      </trkpt>
      <trkpt lat="41.22033" lon="41.79352">
        <ele>269.735397</ele>
        <time>2021-08-17T09:15:39.220Z</time>
      </trkpt>
      <trkpt lat="41.22083" lon="41.79331">
        <ele>267.381069</ele>
        <time>2021-08-17T09:15:49.914Z</time>
      </trkpt>
      <trkpt lat="41.22118" lon="41.79297">
        <ele>263.17038</ele>
        <time>2021-08-17T09:15:58.276Z</time>
      </trkpt>
      <trkpt lat="41.22315" lon="41.79066">
        <ele>237.577505</ele>
        <time>2021-08-17T09:16:47.330Z</time>
      </trkpt>
      <trkpt lat="41.22688" lon="41.788">
        <ele>222.768878</ele>
        <time>2021-08-17T09:18:23.574Z</time>
      </trkpt>
      <trkpt lat="41.22796" lon="41.78727">
        <ele>223.993077</ele>
        <time>2021-08-17T09:19:22.802Z</time>
      </trkpt>
      <trkpt lat="41.22889" lon="41.78655">
        <ele>223.405222</ele>
        <time>2021-08-17T09:19:57.073Z</time>
      </trkpt>
      <trkpt lat="41.22923" lon="41.7861">
        <ele>222.877358</ele>
        <time>2021-08-17T09:20:08.798Z</time>
      </trkpt>
      <trkpt lat="41.22981" lon="41.78449">
        <ele>225.395674</ele>
        <time>2021-08-17T09:20:41.318Z</time>
      </trkpt>
      <trkpt lat="41.23045" lon="41.78324">
        <ele>230.770002</ele>
        <time>2021-08-17T09:22:05.454Z</time>
      </trkpt>
      <trkpt lat="41.23065" lon="41.78307">
        <ele>233.356022</ele>
        <time>2021-08-17T09:22:32.268Z</time>
      </trkpt>
      <trkpt lat="41.23075" lon="41.78301">
        <ele>234.563425</ele>
        <time>2021-08-17T09:22:44.833Z</time>
      </trkpt>
      <trkpt lat="41.23099" lon="41.78302">
        <ele>237.252069</ele>
        <time>2021-08-17T09:23:16.833Z</time>
      </trkpt>
      <trkpt lat="41.23173" lon="41.78376">
        <ele>247.289858</ele>
        <time>2021-08-17T09:24:50.126Z</time>
      </trkpt>
      <trkpt lat="41.23194" lon="41.78385">
        <ele>247.823519</ele>
        <time>2021-08-17T09:25:06.008Z</time>
      </trkpt>
      <trkpt lat="41.23228" lon="41.78379">
        <ele>244.744353</ele>
        <time>2021-08-17T09:25:19.520Z</time>
      </trkpt>
      <trkpt lat="41.23246" lon="41.78362">
        <ele>242.824222</ele>
        <time>2021-08-17T09:25:24.412Z</time>
      </trkpt>
      <trkpt lat="41.23258" lon="41.78346">
        <ele>241.312615</ele>
        <time>2021-08-17T09:25:27.959Z</time>
      </trkpt>
      <trkpt lat="41.23264" lon="41.78336">
        <ele>240.49679</ele>
        <time>2021-08-17T09:25:29.698Z</time>
      </trkpt>
      <trkpt lat="41.23372" lon="41.7819">
        <ele>221.042753</ele>
        <time>2021-08-17T09:25:57.203Z</time>
      </trkpt>
      <trkpt lat="41.23498" lon="41.78042">
        <ele>197.511834</ele>
        <time>2021-08-17T09:26:27.461Z</time>
      </trkpt>
      <trkpt lat="41.23509" lon="41.78035">
        <ele>196.708152</ele>
        <time>2021-08-17T09:26:30.112Z</time>
      </trkpt>
      <trkpt lat="41.23525" lon="41.78026">
        <ele>195.554309</ele>
        <time>2021-08-17T09:26:33.428Z</time>
      </trkpt>
      <trkpt lat="41.23542" lon="41.78025">
        <ele>194.370033</ele>
        <time>2021-08-17T09:26:37.310Z</time>
      </trkpt>
      <trkpt lat="41.23568" lon="41.78031">
        <ele>192.646197</ele>
        <time>2021-08-17T09:26:42.600Z</time>
      </trkpt>
      <trkpt lat="41.23822" lon="41.78187">
        <ele>197.921697</ele>
        <time>2021-08-17T09:29:02.043Z</time>
      </trkpt>
      <trkpt lat="41.23843" lon="41.78192">
        <ele>199.287641</ele>
        <time>2021-08-17T09:29:16.714Z</time>
      </trkpt>
      <trkpt lat="41.23874" lon="41.78184">
        <ele>201.254961</ele>
        <time>2021-08-17T09:29:38.550Z</time>
      </trkpt>
      <trkpt lat="41.23908" lon="41.78149">
        <ele>203.879968</ele>
        <time>2021-08-17T09:30:09.294Z</time>
      </trkpt>
      <trkpt lat="41.24007" lon="41.77985">
        <ele>215.166327</ele>
        <time>2021-08-17T09:32:11.156Z</time>
      </trkpt>
      <trkpt lat="41.24029" lon="41.77939">
        <ele>218.261562</ele>
        <time>2021-08-17T09:32:42.055Z</time>
      </trkpt>
      <trkpt lat="41.24094" lon="41.77751">
        <ele>223.721428</ele>
        <time>2021-08-17T09:34:10.011Z</time>
      </trkpt>
      <trkpt lat="41.24117" lon="41.77702">
        <ele>224.826284</ele>
        <time>2021-08-17T09:34:21.791Z</time>
      </trkpt>
      <trkpt lat="41.24128" lon="41.77686">
        <ele>223.916794</ele>
        <time>2021-08-17T09:34:27.254Z</time>
      </trkpt>
      <trkpt lat="41.24141" lon="41.77675">
        <ele>223.038246</ele>
        <time>2021-08-17T09:34:30.388Z</time>
      </trkpt>
      <trkpt lat="41.24167" lon="41.77664">
        <ele>221.488706</ele>
        <time>2021-08-17T09:34:36.608Z</time>
      </trkpt>
      <trkpt lat="41.24332" lon="41.77656">
        <ele>212.824966</ele>
        <time>2021-08-17T09:35:09.114Z</time>
      </trkpt>
      <trkpt lat="41.24364" lon="41.77661">
        <ele>211.474451</ele>
        <time>2021-08-17T09:35:15.533Z</time>
      </trkpt>
      <trkpt lat="41.24414" lon="41.77685">
        <ele>209.195289</ele>
        <time>2021-08-17T09:35:26.945Z</time>
      </trkpt>
      <trkpt lat="41.24445" lon="41.77691">
        <ele>207.874008</ele>
        <time>2021-08-17T09:35:34.299Z</time>
      </trkpt>
      <trkpt lat="41.24574" lon="41.77687">
        <ele>212.32817</ele>
        <time>2021-08-17T09:36:35.780Z</time>
      </trkpt>
      <trkpt lat="41.24648" lon="41.77671">
        <ele>216.156069</ele>
        <time>2021-08-17T09:37:32.707Z</time>
      </trkpt>
      <trkpt lat="41.24754" lon="41.77627">
        <ele>226.994304</ele>
        <time>2021-08-17T09:39:11.536Z</time>
      </trkpt>
      <trkpt lat="41.24864" lon="41.77555">
        <ele>237.522724</ele>
        <time>2021-08-17T09:40:57.299Z</time>
      </trkpt>
      <trkpt lat="41.24899" lon="41.77513">
        <ele>241.00428</ele>
        <time>2021-08-17T09:41:33.127Z</time>
      </trkpt>
      <trkpt lat="41.24913" lon="41.77486">
        <ele>242.83596</ele>
        <time>2021-08-17T09:41:50.523Z</time>
      </trkpt>
      <trkpt lat="41.24929" lon="41.77438">
        <ele>245.785983</ele>
        <time>2021-08-17T09:42:14.907Z</time>
      </trkpt>
      <trkpt lat="41.24932" lon="41.77395">
        <ele>246.400851</ele>
        <time>2021-08-17T09:42:31.378Z</time>
      </trkpt>
      <trkpt lat="41.24929" lon="41.77313">
        <ele>246.719382</ele>
        <time>2021-08-17T09:42:56.547Z</time>
      </trkpt>
      <trkpt lat="41.24936" lon="41.77267">
        <ele>246.900661</ele>
        <time>2021-08-17T09:43:07.049Z</time>
      </trkpt>
      <trkpt lat="41.24953" lon="41.77236">
        <ele>247.050892</ele>
        <time>2021-08-17T09:43:14.521Z</time>
      </trkpt>
      <trkpt lat="41.24972" lon="41.77224">
        <ele>247.157512</ele>
        <time>2021-08-17T09:43:19.511Z</time>
      </trkpt>
      <trkpt lat="41.24994" lon="41.77222">
        <ele>246.554884</ele>
        <time>2021-08-17T09:43:24.616Z</time>
      </trkpt>
      <trkpt lat="41.2505" lon="41.7725">
        <ele>243.915314</ele>
        <time>2021-08-17T09:43:37.613Z</time>
      </trkpt>
      <trkpt lat="41.25081" lon="41.77254">
        <ele>242.54679</ele>
        <time>2021-08-17T09:43:44.157Z</time>
      </trkpt>
      <trkpt lat="41.25101" lon="41.77244">
        <ele>241.604344</ele>
        <time>2021-08-17T09:43:48.652Z</time>
      </trkpt>
      <trkpt lat="41.25153" lon="41.772">
        <ele>238.963263</ele>
        <time>2021-08-17T09:44:01.531Z</time>
      </trkpt>
      <trkpt lat="41.25192" lon="41.77185">
        <ele>237.513426</ele>
        <time>2021-08-17T09:44:09.936Z</time>
      </trkpt>
      <trkpt lat="41.25334" lon="41.77198">
        <ele>232.764329</ele>
        <time>2021-08-17T09:44:42.358Z</time>
      </trkpt>
      <trkpt lat="41.25455" lon="41.77187">
        <ele>231.994794</ele>
        <time>2021-08-17T09:45:20.376Z</time>
      </trkpt>
      <trkpt lat="41.25481" lon="41.77174">
        <ele>231.814319</ele>
        <time>2021-08-17T09:45:30.503Z</time>
      </trkpt>
      <trkpt lat="41.25538" lon="41.77111">
        <ele>229.166072</ele>
        <time>2021-08-17T09:45:50.393Z</time>
      </trkpt>
      <trkpt lat="41.25575" lon="41.77105">
        <ele>227.427436</ele>
        <time>2021-08-17T09:45:58.471Z</time>
      </trkpt>
      <trkpt lat="41.25611" lon="41.77128">
        <ele>225.601896</ele>
        <time>2021-08-17T09:46:06.432Z</time>
      </trkpt>
      <trkpt lat="41.25625" lon="41.77153">
        <ele>224.492007</ele>
        <time>2021-08-17T09:46:11.201Z</time>
      </trkpt>
      <trkpt lat="41.25659" lon="41.77237">
        <ele>220.772213</ele>
        <time>2021-08-17T09:46:25.351Z</time>
      </trkpt>
      <trkpt lat="41.25689" lon="41.77268">
        <ele>218.693913</ele>
        <time>2021-08-17T09:46:32.787Z</time>
      </trkpt>
      <trkpt lat="41.25879" lon="41.77386">
        <ele>212.728829</ele>
        <time>2021-08-17T09:47:20.446Z</time>
      </trkpt>
      <trkpt lat="41.25922" lon="41.77396">
        <ele>212.418979</ele>
        <time>2021-08-17T09:47:41.298Z</time>
      </trkpt>
      <trkpt lat="41.25986" lon="41.77371">
        <ele>214.224801</ele>
        <time>2021-08-17T09:48:17.660Z</time>
      </trkpt>
      <trkpt lat="41.26155" lon="41.77276">
        <ele>220.364829</ele>
        <time>2021-08-17T09:50:02.564Z</time>
      </trkpt>
      <trkpt lat="41.26217" lon="41.77232">
        <ele>220.945683</ele>
        <time>2021-08-17T09:50:28.541Z</time>
      </trkpt>
      <trkpt lat="41.26337" lon="41.77132">
        <ele>218.123836</ele>
        <time>2021-08-17T09:51:01.725Z</time>
      </trkpt>
      <trkpt lat="41.2639" lon="41.77098">
        <ele>215.719638</ele>
        <time>2021-08-17T09:51:14.138Z</time>
      </trkpt>
      <trkpt lat="41.26661" lon="41.77042">
        <ele>202.852476</ele>
        <time>2021-08-17T09:52:11.171Z</time>
      </trkpt>
      <trkpt lat="41.26778" lon="41.76985">
        <ele>199.318574</ele>
        <time>2021-08-17T09:52:41.273Z</time>
      </trkpt>
      <trkpt lat="41.26803" lon="41.76986">
        <ele>200.075386</ele>
        <time>2021-08-17T09:52:49.329Z</time>
      </trkpt>
      <trkpt lat="41.26866" lon="41.77006">
        <ele>202.201267</ele>
        <time>2021-08-17T09:53:17.831Z</time>
      </trkpt>
      <trkpt lat="41.26903" lon="41.77">
        <ele>203.381184</ele>
        <time>2021-08-17T09:53:39.822Z</time>
      </trkpt>
      <trkpt lat="41.26915" lon="41.76993">
        <ele>203.817238</ele>
        <time>2021-08-17T09:53:48.784Z</time>
      </trkpt>
      <trkpt lat="41.26976" lon="41.76915">
        <ele>207.822879</ele>
        <time>2021-08-17T09:54:42.523Z</time>
      </trkpt>
      <trkpt lat="41.26996" lon="41.76892">
        <ele>209.418204</ele>
        <time>2021-08-17T09:55:00.588Z</time>
      </trkpt>
      <trkpt lat="41.27025" lon="41.76854">
        <ele>211.884298</ele>
        <time>2021-08-17T09:55:26.368Z</time>
      </trkpt>
      <trkpt lat="41.27081" lon="41.76736">
        <ele>217.85137</ele>
        <time>2021-08-17T09:56:37.736Z</time>
      </trkpt>
      <trkpt lat="41.27154" lon="41.76443">
        <ele>224.518703</ele>
        <time>2021-08-17T09:58:47.970Z</time>
      </trkpt>
      <trkpt lat="41.27175" lon="41.76382">
        <ele>224.266781</ele>
        <time>2021-08-17T09:59:00.275Z</time>
      </trkpt>
      <trkpt lat="41.27192" lon="41.76359">
        <ele>224.145538</ele>
        <time>2021-08-17T09:59:05.206Z</time>
      </trkpt>
      <trkpt lat="41.27203" lon="41.76346">
        <ele>224.074755</ele>
        <time>2021-08-17T09:59:08.197Z</time>
      </trkpt>
      <trkpt lat="41.27221" lon="41.76335">
        <ele>221.903501</ele>
        <time>2021-08-17T09:59:11.990Z</time>
      </trkpt>
      <trkpt lat="41.27229" lon="41.76327">
        <ele>220.702943</ele>
        <time>2021-08-17T09:59:14.069Z</time>
      </trkpt>
      <trkpt lat="41.27243" lon="41.76323">
        <ele>218.991433</ele>
        <time>2021-08-17T09:59:16.679Z</time>
      </trkpt>
      <trkpt lat="41.27338" lon="41.76264">
        <ele>206.162401</ele>
        <time>2021-08-17T09:59:36.065Z</time>
      </trkpt>
      <trkpt lat="41.27398" lon="41.76233">
        <ele>199.855217</ele>
        <time>2021-08-17T09:59:47.643Z</time>
      </trkpt>
      <trkpt lat="41.2749" lon="41.76206">
        <ele>192.869639</ele>
        <time>2021-08-17T10:00:05.449Z</time>
      </trkpt>
      <trkpt lat="41.27579" lon="41.76197">
        <ele>193.845956</ele>
        <time>2021-08-17T10:00:37.855Z</time>
      </trkpt>
      <trkpt lat="41.27599" lon="41.76197">
        <ele>196.773539</ele>
        <time>2021-08-17T10:00:55.416Z</time>
      </trkpt>
      <trkpt lat="41.27951" lon="41.76124">
        <ele>254.849402</ele>
        <time>2021-08-17T10:09:33.834Z</time>
      </trkpt>
      <trkpt lat="41.27978" lon="41.76104">
        <ele>257.423393</ele>
        <time>2021-08-17T10:10:00.963Z</time>
      </trkpt>
      <trkpt lat="41.28101" lon="41.76033">
        <ele>265.203364</ele>
        <time>2021-08-17T10:10:55.959Z</time>
      </trkpt>
      <trkpt lat="41.28169" lon="41.75984">
        <ele>264.313039</ele>
        <time>2021-08-17T10:11:14.797Z</time>
      </trkpt>
      <trkpt lat="41.28196" lon="41.75961">
        <ele>263.947105</ele>
        <time>2021-08-17T10:11:22.563Z</time>
      </trkpt>
      <trkpt lat="41.28246" lon="41.75937">
        <ele>263.662196</ele>
        <time>2021-08-17T10:11:35.206Z</time>
      </trkpt>
      <trkpt lat="41.28329" lon="41.75922">
        <ele>264.121595</ele>
        <time>2021-08-17T10:12:00.459Z</time>
      </trkpt>
      <trkpt lat="41.28395" lon="41.75923">
        <ele>264.478101</ele>
        <time>2021-08-17T10:12:29.766Z</time>
      </trkpt>
      <trkpt lat="41.28496" lon="41.75962">
        <ele>267.540643</ele>
        <time>2021-08-17T10:13:17.933Z</time>
      </trkpt>
      <trkpt lat="41.28526" lon="41.75965">
        <ele>268.497382</ele>
        <time>2021-08-17T10:13:32.194Z</time>
      </trkpt>
      <trkpt lat="41.28566" lon="41.75963">
        <ele>269.76655</ele>
        <time>2021-08-17T10:13:54.050Z</time>
      </trkpt>
      <trkpt lat="41.28603" lon="41.75945">
        <ele>270.610331</ele>
        <time>2021-08-17T10:14:17.895Z</time>
      </trkpt>
      <trkpt lat="41.28621" lon="41.75938">
        <ele>270.896159</ele>
        <time>2021-08-17T10:14:28.836Z</time>
      </trkpt>
      <trkpt lat="41.28812" lon="41.75842">
        <ele>267.876728</ele>
        <time>2021-08-17T10:15:40.216Z</time>
      </trkpt>
      <trkpt lat="41.28831" lon="41.75829">
        <ele>266.241291</ele>
        <time>2021-08-17T10:15:44.199Z</time>
      </trkpt>
      <trkpt lat="41.28852" lon="41.75803">
        <ele>264.028449</ele>
        <time>2021-08-17T10:15:49.671Z</time>
      </trkpt>
      <trkpt lat="41.28866" lon="41.75767">
        <ele>261.734005</ele>
        <time>2021-08-17T10:15:55.198Z</time>
      </trkpt>
      <trkpt lat="41.28904" lon="41.75573">
        <ele>250.902034</ele>
        <time>2021-08-17T10:16:23.110Z</time>
      </trkpt>
      <trkpt lat="41.28919" lon="41.75541">
        <ele>248.900956</ele>
        <time>2021-08-17T10:16:31.140Z</time>
      </trkpt>
      <trkpt lat="41.28944" lon="41.75513">
        <ele>246.643251</ele>
        <time>2021-08-17T10:16:46.850Z</time>
      </trkpt>
      <trkpt lat="41.28967" lon="41.75507">
        <ele>249.398632</ele>
        <time>2021-08-17T10:17:02.862Z</time>
      </trkpt>
      <trkpt lat="41.29" lon="41.75516">
        <ele>253.65309</ele>
        <time>2021-08-17T10:17:33.064Z</time>
      </trkpt>
      <trkpt lat="41.29073" lon="41.75505">
        <ele>262.767221</ele>
        <time>2021-08-17T10:18:59.585Z</time>
      </trkpt>
      <trkpt lat="41.29162" lon="41.75531">
        <ele>272.427594</ele>
        <time>2021-08-17T10:20:52.440Z</time>
      </trkpt>
      <trkpt lat="41.29199" lon="41.7555">
        <ele>275.888117</ele>
        <time>2021-08-17T10:21:33.010Z</time>
      </trkpt>
      <trkpt lat="41.29237" lon="41.75592">
        <ele>280.045672</ele>
        <time>2021-08-17T10:22:09.461Z</time>
      </trkpt>
      <trkpt lat="41.29261" lon="41.75608">
        <ele>282.397677</ele>
        <time>2021-08-17T10:22:23.740Z</time>
      </trkpt>
      <trkpt lat="41.29298" lon="41.75616">
        <ele>283.328491</ele>
        <time>2021-08-17T10:22:35.107Z</time>
      </trkpt>
      <trkpt lat="41.29374" lon="41.75611">
        <ele>278.681309</ele>
        <time>2021-08-17T10:22:50.977Z</time>
      </trkpt>
      <trkpt lat="41.29414" lon="41.75589">
        <ele>276.045043</ele>
        <time>2021-08-17T10:22:59.321Z</time>
      </trkpt>
      <trkpt lat="41.2943" lon="41.75573">
        <ele>274.827501</ele>
        <time>2021-08-17T10:23:03.117Z</time>
      </trkpt>
      <trkpt lat="41.29457" lon="41.75535">
        <ele>272.079623</ele>
        <time>2021-08-17T10:23:10.631Z</time>
      </trkpt>
      <trkpt lat="41.29475" lon="41.75495">
        <ele>269.143292</ele>
        <time>2021-08-17T10:23:17.287Z</time>
      </trkpt>
      <trkpt lat="41.29515" lon="41.75437">
        <ele>264.159189</ele>
        <time>2021-08-17T10:23:28.703Z</time>
      </trkpt>
      <trkpt lat="41.29545" lon="41.75408">
        <ele>261.083742</ele>
        <time>2021-08-17T10:23:35.945Z</time>
      </trkpt>
      <trkpt lat="41.2963" lon="41.75366">
        <ele>255.95327</ele>
        <time>2021-08-17T10:23:54.645Z</time>
      </trkpt>
      <trkpt lat="41.29666" lon="41.75331">
        <ele>254.151781</ele>
        <time>2021-08-17T10:24:04.450Z</time>
      </trkpt>
      <trkpt lat="41.29683" lon="41.75302">
        <ele>253.036756</ele>
        <time>2021-08-17T10:24:10.685Z</time>
      </trkpt>
      <trkpt lat="41.29813" lon="41.75005">
        <ele>246.506109</ele>
        <time>2021-08-17T10:25:13.734Z</time>
      </trkpt>
      <trkpt lat="41.29844" lon="41.74952">
        <ele>245.205483</ele>
        <time>2021-08-17T10:25:27.475Z</time>
      </trkpt>
      <trkpt lat="41.29964" lon="41.74814">
        <ele>239.142929</ele>
        <time>2021-08-17T10:26:03.489Z</time>
      </trkpt>
      <trkpt lat="41.29982" lon="41.74779">
        <ele>237.14421</ele>
        <time>2021-08-17T10:26:10.044Z</time>
      </trkpt>
      <trkpt lat="41.29984" lon="41.74737">
        <ele>235.183784</ele>
        <time>2021-08-17T10:26:16.371Z</time>
      </trkpt>
      <trkpt lat="41.29952" lon="41.74641">
        <ele>230.211052</ele>
        <time>2021-08-17T10:26:31.736Z</time>
      </trkpt>
      <trkpt lat="41.29945" lon="41.74593">
        <ele>227.693744</ele>
        <time>2021-08-17T10:26:38.905Z</time>
      </trkpt>
      <trkpt lat="41.29956" lon="41.74555">
        <ele>225.609295</ele>
        <time>2021-08-17T10:26:44.915Z</time>
      </trkpt>
      <trkpt lat="41.30009" lon="41.74488">
        <ele>220.634834</ele>
        <time>2021-08-17T10:26:59.711Z</time>
      </trkpt>
      <trkpt lat="41.30037" lon="41.74439">
        <ele>219.111604</ele>
        <time>2021-08-17T10:27:09.716Z</time>
      </trkpt>
      <trkpt lat="41.30042" lon="41.74396">
        <ele>219.044405</ele>
        <time>2021-08-17T10:27:17.147Z</time>
      </trkpt>
      <trkpt lat="41.30033" lon="41.74322">
        <ele>218.927418</ele>
        <time>2021-08-17T10:27:32.491Z</time>
      </trkpt>
      <trkpt lat="41.30036" lon="41.74268">
        <ele>218.841989</ele>
        <time>2021-08-17T10:27:50.244Z</time>
      </trkpt>
      <trkpt lat="41.30072" lon="41.74169">
        <ele>223.412104</ele>
        <time>2021-08-17T10:28:41.699Z</time>
      </trkpt>
      <trkpt lat="41.30082" lon="41.74149">
        <ele>224.877841</ele>
        <time>2021-08-17T10:28:55.545Z</time>
      </trkpt>
      <trkpt lat="41.30108" lon="41.74122">
        <ele>227.524391</ele>
        <time>2021-08-17T10:29:22.157Z</time>
      </trkpt>
      <trkpt lat="41.30136" lon="41.74109">
        <ele>229.923977</ele>
        <time>2021-08-17T10:29:48.268Z</time>
      </trkpt>
      <trkpt lat="41.30216" lon="41.74088">
        <ele>236.966156</ele>
        <time>2021-08-17T10:31:03.112Z</time>
      </trkpt>
      <trkpt lat="41.30302" lon="41.7403">
        <ele>245.821235</ele>
        <time>2021-08-17T10:32:24.833Z</time>
      </trkpt>
      <trkpt lat="41.30437" lon="41.73925">
        <ele>258.119346</ele>
        <time>2021-08-17T10:34:16.591Z</time>
      </trkpt>
      <trkpt lat="41.30541" lon="41.73825">
        <ele>266.85849</ele>
        <time>2021-08-17T10:35:50.931Z</time>
      </trkpt>
      <trkpt lat="41.30625" lon="41.73694">
        <ele>273.980326</ele>
        <time>2021-08-17T10:37:23.441Z</time>
      </trkpt>
      <trkpt lat="41.30684" lon="41.73603">
        <ele>270.931827</ele>
        <time>2021-08-17T10:37:48.379Z</time>
      </trkpt>
      <trkpt lat="41.30769" lon="41.73349">
        <ele>259.899706</ele>
        <time>2021-08-17T10:38:28.881Z</time>
      </trkpt>
      <trkpt lat="41.30795" lon="41.73306">
        <ele>257.262841</ele>
        <time>2021-08-17T10:38:38.282Z</time>
      </trkpt>
      <trkpt lat="41.3083" lon="41.73286">
        <ele>257.984531</ele>
        <time>2021-08-17T10:38:51.764Z</time>
      </trkpt>
      <trkpt lat="41.30864" lon="41.73289">
        <ele>259.471081</ele>
        <time>2021-08-17T10:39:09.068Z</time>
      </trkpt>
      <trkpt lat="41.30915" lon="41.73323">
        <ele>261.933268</ele>
        <time>2021-08-17T10:39:48.591Z</time>
      </trkpt>
      <trkpt lat="41.30959" lon="41.73335">
        <ele>263.918455</ele>
        <time>2021-08-17T10:40:21.866Z</time>
      </trkpt>
      <trkpt lat="41.31027" lon="41.73322">
        <ele>266.937952</ele>
        <time>2021-08-17T10:41:04.526Z</time>
      </trkpt>
      <trkpt lat="41.31104" lon="41.73299">
        <ele>270.458032</ele>
        <time>2021-08-17T10:41:45.735Z</time>
      </trkpt>
      <trkpt lat="41.31126" lon="41.73298">
        <ele>271.456091</ele>
        <time>2021-08-17T10:41:56.072Z</time>
      </trkpt>
      <trkpt lat="41.31158" lon="41.73307">
        <ele>273.027538</ele>
        <time>2021-08-17T10:42:12.723Z</time>
      </trkpt>
      <trkpt lat="41.31188" lon="41.73327">
        <ele>275.02942</ele>
        <time>2021-08-17T10:42:30.505Z</time>
      </trkpt>
      <trkpt lat="41.31197" lon="41.73338">
        <ele>275.780387</ele>
        <time>2021-08-17T10:42:36.879Z</time>
      </trkpt>
      <trkpt lat="41.31203" lon="41.73346">
        <ele>276.283312</ele>
        <time>2021-08-17T10:42:42.966Z</time>
      </trkpt>
      <trkpt lat="41.31225" lon="41.73373">
        <ele>278.031083</ele>
        <time>2021-08-17T10:42:59.784Z</time>
      </trkpt>
      <trkpt lat="41.31284" lon="41.73421">
        <ele>282.175753</ele>
        <time>2021-08-17T10:43:49.366Z</time>
      </trkpt>
      <trkpt lat="41.31345" lon="41.73463">
        <ele>286.087454</ele>
        <time>2021-08-17T10:44:45.970Z</time>
      </trkpt>
      <trkpt lat="41.31428" lon="41.73508">
        <ele>291.172104</ele>
        <time>2021-08-17T10:45:47.701Z</time>
      </trkpt>
      <trkpt lat="41.31484" lon="41.73553">
        <ele>292.04474</ele>
        <time>2021-08-17T10:46:15.244Z</time>
      </trkpt>
      <trkpt lat="41.31568" lon="41.73597">
        <ele>287.259348</ele>
        <time>2021-08-17T10:46:34.657Z</time>
      </trkpt>
      <trkpt lat="41.31592" lon="41.73598">
        <ele>285.981591</ele>
        <time>2021-08-17T10:46:39.285Z</time>
      </trkpt>
      <trkpt lat="41.31626" lon="41.73587">
        <ele>284.122044</ele>
        <time>2021-08-17T10:46:45.850Z</time>
      </trkpt>
      <trkpt lat="41.31647" lon="41.7357">
        <ele>282.103966</ele>
        <time>2021-08-17T10:46:50.267Z</time>
      </trkpt>
      <trkpt lat="41.31663" lon="41.73549">
        <ele>279.980884</ele>
        <time>2021-08-17T10:46:54.569Z</time>
      </trkpt>
      <trkpt lat="41.31764" lon="41.73465">
        <ele>269.101335</ele>
        <time>2021-08-17T10:47:17.191Z</time>
      </trkpt>
      <trkpt lat="41.31776" lon="41.73446">
        <ele>267.405969</ele>
        <time>2021-08-17T10:47:21.122Z</time>
      </trkpt>
      <trkpt lat="41.31801" lon="41.73384">
        <ele>267.866432</ele>
        <time>2021-08-17T10:47:33.858Z</time>
      </trkpt>
      <trkpt lat="41.31817" lon="41.73365">
        <ele>268.057826</ele>
        <time>2021-08-17T10:47:42.196Z</time>
      </trkpt>
      <trkpt lat="41.31826" lon="41.73363">
        <ele>268.135527</ele>
        <time>2021-08-17T10:47:46.232Z</time>
      </trkpt>
      <trkpt lat="41.31852" lon="41.73372">
        <ele>268.372778</ele>
        <time>2021-08-17T10:47:59.152Z</time>
      </trkpt>
      <trkpt lat="41.31906" lon="41.73407">
        <ele>268.898461</ele>
        <time>2021-08-17T10:48:35.750Z</time>
      </trkpt>
      <trkpt lat="41.31941" lon="41.73392">
        <ele>268.143188</ele>
        <time>2021-08-17T10:48:55.561Z</time>
      </trkpt>
      <trkpt lat="41.31962" lon="41.73396">
        <ele>267.479603</ele>
        <time>2021-08-17T10:49:04.907Z</time>
      </trkpt>
      <trkpt lat="41.32014" lon="41.73484">
        <ele>264.897346</ele>
        <time>2021-08-17T10:49:25.216Z</time>
      </trkpt>
      <trkpt lat="41.32036" lon="41.73495">
        <ele>264.165216</ele>
        <time>2021-08-17T10:49:29.901Z</time>
      </trkpt>
      <trkpt lat="41.32059" lon="41.73486">
        <ele>263.377871</ele>
        <time>2021-08-17T10:49:34.389Z</time>
      </trkpt>
      <trkpt lat="41.32104" lon="41.73415">
        <ele>254.322995</ele>
        <time>2021-08-17T10:49:47.209Z</time>
      </trkpt>
      <trkpt lat="41.32119" lon="41.73365">
        <ele>249.147515</ele>
        <time>2021-08-17T10:49:54.499Z</time>
      </trkpt>
      <trkpt lat="41.32131" lon="41.73282">
        <ele>240.975575</ele>
        <time>2021-08-17T10:50:06.110Z</time>
      </trkpt>
      <trkpt lat="41.32152" lon="41.73243">
        <ele>238.606287</ele>
        <time>2021-08-17T10:50:12.853Z</time>
      </trkpt>
      <trkpt lat="41.32243" lon="41.73102">
        <ele>231.022446</ele>
        <time>2021-08-17T10:50:43.657Z</time>
      </trkpt>
      <trkpt lat="41.32313" lon="41.73017">
        <ele>227.21313</ele>
        <time>2021-08-17T10:51:09.089Z</time>
      </trkpt>
      <trkpt lat="41.32346" lon="41.72993">
        <ele>225.751899</ele>
        <time>2021-08-17T10:51:17.501Z</time>
      </trkpt>
      <trkpt lat="41.32365" lon="41.72991">
        <ele>225.020168</ele>
        <time>2021-08-17T10:51:21.499Z</time>
      </trkpt>
      <trkpt lat="41.3238" lon="41.7298">
        <ele>224.393218</ele>
        <time>2021-08-17T10:51:24.918Z</time>
      </trkpt>
      <trkpt lat="41.32392" lon="41.72952">
        <ele>223.283452</ele>
        <time>2021-08-17T10:51:29.952Z</time>
      </trkpt>
      <trkpt lat="41.32395" lon="41.729">
        <ele>220.209609</ele>
        <time>2021-08-17T10:51:37.522Z</time>
      </trkpt>
      <trkpt lat="41.32369" lon="41.72807">
        <ele>214.265713</ele>
        <time>2021-08-17T10:51:51.694Z</time>
      </trkpt>
      <trkpt lat="41.32367" lon="41.72785">
        <ele>212.909574</ele>
        <time>2021-08-17T10:51:54.934Z</time>
      </trkpt>
      <trkpt lat="41.32375" lon="41.72602">
        <ele>209.280261</ele>
        <time>2021-08-17T10:52:24.018Z</time>
      </trkpt>
      <trkpt lat="41.32369" lon="41.72503">
        <ele>209.310179</ele>
        <time>2021-08-17T10:52:57.281Z</time>
      </trkpt>
      <trkpt lat="41.32382" lon="41.72448">
        <ele>213.5525</ele>
        <time>2021-08-17T10:53:35.131Z</time>
      </trkpt>
      <trkpt lat="41.32402" lon="41.72403">
        <ele>219.290872</ele>
        <time>2021-08-17T10:54:21.231Z</time>
      </trkpt>
      <trkpt lat="41.32434" lon="41.72352">
        <ele>226.519205</ele>
        <time>2021-08-17T10:55:31.270Z</time>
      </trkpt>
      <trkpt lat="41.32465" lon="41.72338">
        <ele>231.31181</ele>
        <time>2021-08-17T10:56:14.807Z</time>
      </trkpt>
      <trkpt lat="41.32562" lon="41.72265">
        <ele>242.749591</ele>
        <time>2021-08-17T10:58:16.014Z</time>
      </trkpt>
      <trkpt lat="41.32616" lon="41.72209">
        <ele>248.859639</ele>
        <time>2021-08-17T10:59:09.563Z</time>
      </trkpt>
      <trkpt lat="41.32692" lon="41.72106">
        <ele>248.60502</ele>
        <time>2021-08-17T10:59:36.696Z</time>
      </trkpt>
      <trkpt lat="41.32783" lon="41.72049">
        <ele>245.112393</ele>
        <time>2021-08-17T10:59:57.586Z</time>
      </trkpt>
      <trkpt lat="41.3286" lon="41.72024">
        <ele>238.967278</ele>
        <time>2021-08-17T11:00:13.502Z</time>
      </trkpt>
      <trkpt lat="41.32878" lon="41.7201">
        <ele>237.345736</ele>
        <time>2021-08-17T11:00:17.597Z</time>
      </trkpt>
      <trkpt lat="41.3289" lon="41.71989">
        <ele>235.859977</ele>
        <time>2021-08-17T11:00:21.358Z</time>
      </trkpt>
      <trkpt lat="41.32898" lon="41.71963">
        <ele>234.214625</ele>
        <time>2021-08-17T11:00:25.498Z</time>
      </trkpt>
      <trkpt lat="41.32898" lon="41.71939">
        <ele>232.830714</ele>
        <time>2021-08-17T11:00:28.976Z</time>
      </trkpt>
      <trkpt lat="41.32884" lon="41.7187">
        <ele>229.075867</ele>
        <time>2021-08-17T11:00:39.446Z</time>
      </trkpt>
      <trkpt lat="41.32886" lon="41.71836">
        <ele>227.391418</ele>
        <time>2021-08-17T11:00:44.486Z</time>
      </trkpt>
      <trkpt lat="41.32895" lon="41.71797">
        <ele>225.395904</ele>
        <time>2021-08-17T11:00:50.576Z</time>
      </trkpt>
      <trkpt lat="41.32952" lon="41.71685">
        <ele>218.997607</ele>
        <time>2021-08-17T11:01:11.938Z</time>
      </trkpt>
      <trkpt lat="41.32992" lon="41.71626">
        <ele>216.431454</ele>
        <time>2021-08-17T11:01:25.109Z</time>
      </trkpt>
      <trkpt lat="41.33019" lon="41.71573">
        <ele>214.407618</ele>
        <time>2021-08-17T11:01:35.599Z</time>
      </trkpt>
      <trkpt lat="41.33039" lon="41.7151">
        <ele>212.239951</ele>
        <time>2021-08-17T11:01:46.828Z</time>
      </trkpt>
      <trkpt lat="41.33045" lon="41.71476">
        <ele>211.245989</ele>
        <time>2021-08-17T11:01:52.598Z</time>
      </trkpt>
      <trkpt lat="41.33043" lon="41.71454">
        <ele>210.653683</ele>
        <time>2021-08-17T11:01:56.231Z</time>
      </trkpt>
      <trkpt lat="41.33015" lon="41.71355">
        <ele>207.858149</ele>
        <time>2021-08-17T11:02:13.229Z</time>
      </trkpt>
      <trkpt lat="41.33008" lon="41.71311">
        <ele>206.643556</ele>
        <time>2021-08-17T11:02:20.970Z</time>
      </trkpt>
      <trkpt lat="41.33006" lon="41.71254">
        <ele>205.658405</ele>
        <time>2021-08-17T11:02:31.448Z</time>
      </trkpt>
      <trkpt lat="41.33014" lon="41.71162">
        <ele>206.840308</ele>
        <time>2021-08-17T11:02:52.394Z</time>
      </trkpt>
      <trkpt lat="41.33015" lon="41.70973">
        <ele>212.012301</ele>
        <time>2021-08-17T11:04:05.950Z</time>
      </trkpt>
      <trkpt lat="41.3302" lon="41.70931">
        <ele>214.66104</ele>
        <time>2021-08-17T11:04:29.268Z</time>
      </trkpt>
      <trkpt lat="41.33046" lon="41.70847">
        <ele>220.330465</ele>
        <time>2021-08-17T11:05:31.388Z</time>
      </trkpt>
      <trkpt lat="41.33067" lon="41.70812">
        <ele>223.090149</ele>
        <time>2021-08-17T11:06:01.906Z</time>
      </trkpt>
      <trkpt lat="41.33099" lon="41.70783">
        <ele>226.499942</ele>
        <time>2021-08-17T11:06:36.442Z</time>
      </trkpt>
      <trkpt lat="41.33125" lon="41.70759">
        <ele>229.241196</ele>
        <time>2021-08-17T11:07:04.833Z</time>
      </trkpt>
      <trkpt lat="41.33157" lon="41.70724">
        <ele>232.865648</ele>
        <time>2021-08-17T11:07:38.827Z</time>
      </trkpt>
      <trkpt lat="41.33199" lon="41.7068">
        <ele>237.663443</ele>
        <time>2021-08-17T11:08:22.061Z</time>
      </trkpt>
      <trkpt lat="41.33228" lon="41.70667">
        <ele>239.5266</ele>
        <time>2021-08-17T11:08:43.724Z</time>
      </trkpt>
      <trkpt lat="41.3329" lon="41.7066">
        <ele>240.725224</ele>
        <time>2021-08-17T11:09:14.570Z</time>
      </trkpt>
      <trkpt lat="41.3336" lon="41.70639">
        <ele>242.131185</ele>
        <time>2021-08-17T11:09:37.835Z</time>
      </trkpt>
      <trkpt lat="41.33381" lon="41.70637">
        <ele>242.536052</ele>
        <time>2021-08-17T11:09:43.852Z</time>
      </trkpt>
      <trkpt lat="41.33405" lon="41.70623">
        <ele>242.539792</ele>
        <time>2021-08-17T11:09:50.925Z</time>
      </trkpt>
      <trkpt lat="41.3345" lon="41.70644">
        <ele>241.594822</ele>
        <time>2021-08-17T11:10:03.271Z</time>
      </trkpt>
      <trkpt lat="41.33476" lon="41.7064">
        <ele>241.050187</ele>
        <time>2021-08-17T11:10:10.022Z</time>
      </trkpt>
      <trkpt lat="41.33497" lon="41.70625">
        <ele>240.574894</ele>
        <time>2021-08-17T11:10:15.667Z</time>
      </trkpt>
      <trkpt lat="41.33574" lon="41.70506">
        <ele>238.029497</ele>
        <time>2021-08-17T11:10:42.787Z</time>
      </trkpt>
      <trkpt lat="41.3362" lon="41.70482">
        <ele>236.849209</ele>
        <time>2021-08-17T11:10:55.117Z</time>
      </trkpt>
      <trkpt lat="41.3366" lon="41.70486">
        <ele>235.895586</ele>
        <time>2021-08-17T11:11:05.241Z</time>
      </trkpt>
      <trkpt lat="41.33683" lon="41.70479">
        <ele>235.341072</ele>
        <time>2021-08-17T11:11:10.917Z</time>
      </trkpt>
      <trkpt lat="41.33697" lon="41.70467">
        <ele>234.934128</ele>
        <time>2021-08-17T11:11:15.045Z</time>
      </trkpt>
      <trkpt lat="41.33707" lon="41.70452">
        <ele>234.483199</ele>
        <time>2021-08-17T11:11:18.565Z</time>
      </trkpt>
      <trkpt lat="41.33727" lon="41.70384">
        <ele>232.805953</ele>
        <time>2021-08-17T11:11:31.088Z</time>
      </trkpt>
      <trkpt lat="41.33752" lon="41.70356">
        <ele>231.795023</ele>
        <time>2021-08-17T11:11:38.521Z</time>
      </trkpt>
      <trkpt lat="41.33781" lon="41.70335">
        <ele>230.778601</ele>
        <time>2021-08-17T11:11:46.015Z</time>
      </trkpt>
      <trkpt lat="41.33902" lon="41.70281">
        <ele>227.292813</ele>
        <time>2021-08-17T11:12:15.157Z</time>
      </trkpt>
      <trkpt lat="41.33916" lon="41.7027">
        <ele>226.875639</ele>
        <time>2021-08-17T11:12:18.887Z</time>
      </trkpt>
      <trkpt lat="41.33933" lon="41.70245">
        <ele>226.22375</ele>
        <time>2021-08-17T11:12:24.712Z</time>
      </trkpt>
      <trkpt lat="41.33936" lon="41.70221">
        <ele>225.759054</ele>
        <time>2021-08-17T11:12:28.863Z</time>
      </trkpt>
      <trkpt lat="41.33935" lon="41.7017">
        <ele>224.811493</ele>
        <time>2021-08-17T11:12:38.143Z</time>
      </trkpt>
      <trkpt lat="41.33938" lon="41.70148">
        <ele>225.452459</ele>
        <time>2021-08-17T11:12:42.989Z</time>
      </trkpt>
      <trkpt lat="41.3395" lon="41.70125">
        <ele>226.243605</ele>
        <time>2021-08-17T11:12:49.934Z</time>
      </trkpt>
      <trkpt lat="41.34023" lon="41.70062">
        <ele>229.547169</ele>
        <time>2021-08-17T11:13:35.055Z</time>
      </trkpt>
      <trkpt lat="41.34038" lon="41.70039">
        <ele>230.407303</ele>
        <time>2021-08-17T11:13:49.393Z</time>
      </trkpt>
      <trkpt lat="41.34078" lon="41.69953">
        <ele>233.027476</ele>
        <time>2021-08-17T11:14:49.135Z</time>
      </trkpt>
      <trkpt lat="41.34099" lon="41.69931">
        <ele>233.876916</ele>
        <time>2021-08-17T11:15:13.347Z</time>
      </trkpt>
      <trkpt lat="41.34118" lon="41.69921">
        <ele>234.546994</ele>
        <time>2021-08-17T11:15:30.634Z</time>
      </trkpt>
      <trkpt lat="41.34205" lon="41.6993">
        <ele>237.331084</ele>
        <time>2021-08-17T11:15:53.756Z</time>
      </trkpt>
      <trkpt lat="41.3423" lon="41.69924">
        <ele>234.70056</ele>
        <time>2021-08-17T11:15:59.772Z</time>
      </trkpt>
      <trkpt lat="41.34245" lon="41.69895">
        <ele>231.592778</ele>
        <time>2021-08-17T11:16:05.089Z</time>
      </trkpt>
      <trkpt lat="41.34247" lon="41.69858">
        <ele>228.520878</ele>
        <time>2021-08-17T11:16:10.119Z</time>
      </trkpt>
      <trkpt lat="41.3424" lon="41.69819">
        <ele>225.106942</ele>
        <time>2021-08-17T11:16:15.746Z</time>
      </trkpt>
      <trkpt lat="41.34203" lon="41.69697">
        <ele>214.863163</ele>
        <time>2021-08-17T11:16:33.521Z</time>
      </trkpt>
      <trkpt lat="41.3421" lon="41.69583">
        <ele>208.060416</ele>
        <time>2021-08-17T11:16:49.874Z</time>
      </trkpt>
      <trkpt lat="41.34219" lon="41.69565">
        <ele>206.782454</ele>
        <time>2021-08-17T11:16:53.284Z</time>
      </trkpt>
      <trkpt lat="41.34251" lon="41.69541">
        <ele>203.840105</ele>
        <time>2021-08-17T11:17:02.376Z</time>
      </trkpt>
      <trkpt lat="41.3426" lon="41.69517">
        <ele>203.387971</ele>
        <time>2021-08-17T11:17:09.797Z</time>
      </trkpt>
      <trkpt lat="41.34264" lon="41.69484">
        <ele>205.681633</ele>
        <time>2021-08-17T11:17:21.398Z</time>
      </trkpt>
      <trkpt lat="41.34247" lon="41.69402">
        <ele>211.53387</ele>
        <time>2021-08-17T11:18:05.766Z</time>
      </trkpt>
      <trkpt lat="41.34256" lon="41.69379">
        <ele>213.35104</ele>
        <time>2021-08-17T11:18:24.871Z</time>
      </trkpt>
      <trkpt lat="41.34284" lon="41.69359">
        <ele>216.300874</ele>
        <time>2021-08-17T11:18:59.102Z</time>
      </trkpt>
      <trkpt lat="41.34309" lon="41.6933">
        <ele>219.358644</ele>
        <time>2021-08-17T11:19:39.284Z</time>
      </trkpt>
      <trkpt lat="41.34335" lon="41.69326">
        <ele>224.088958</ele>
        <time>2021-08-17T11:20:13.698Z</time>
      </trkpt>
      <trkpt lat="41.3443" lon="41.69354">
        <ele>241.675876</ele>
        <time>2021-08-17T11:22:33.814Z</time>
      </trkpt>
      <trkpt lat="41.34458" lon="41.69354">
        <ele>246.884558</ele>
        <time>2021-08-17T11:23:13.506Z</time>
      </trkpt>
      <trkpt lat="41.34501" lon="41.69327">
        <ele>253.627997</ele>
        <time>2021-08-17T11:24:12.905Z</time>
      </trkpt>
      <trkpt lat="41.34527" lon="41.6933">
        <ele>255.88984</ele>
        <time>2021-08-17T11:24:41.678Z</time>
      </trkpt>
      <trkpt lat="41.34548" lon="41.69347">
        <ele>258.011554</ele>
        <time>2021-08-17T11:25:06.102Z</time>
      </trkpt>
      <trkpt lat="41.34583" lon="41.6941">
        <ele>263.059221</ele>
        <time>2021-08-17T11:25:51.563Z</time>
      </trkpt>
      <trkpt lat="41.34609" lon="41.69437">
        <ele>265.898751</ele>
        <time>2021-08-17T11:26:08.324Z</time>
      </trkpt>
      <trkpt lat="41.34652" lon="41.69443">
        <ele>266.316458</ele>
        <time>2021-08-17T11:26:21.241Z</time>
      </trkpt>
      <trkpt lat="41.34688" lon="41.69419">
        <ele>264.59324</ele>
        <time>2021-08-17T11:26:29.957Z</time>
      </trkpt>
      <trkpt lat="41.34723" lon="41.6934">
        <ele>261.611296</ele>
        <time>2021-08-17T11:26:44.030Z</time>
      </trkpt>
      <trkpt lat="41.34771" lon="41.6931">
        <ele>259.233117</ele>
        <time>2021-08-17T11:26:54.757Z</time>
      </trkpt>
      <trkpt lat="41.34794" lon="41.69284">
        <ele>257.567288</ele>
        <time>2021-08-17T11:27:00.753Z</time>
      </trkpt>
      <trkpt lat="41.34822" lon="41.69281">
        <ele>255.978387</ele>
        <time>2021-08-17T11:27:06.476Z</time>
      </trkpt>
      <trkpt lat="41.34883" lon="41.69297">
        <ele>252.48699</ele>
        <time>2021-08-17T11:27:19.489Z</time>
      </trkpt>
      <trkpt lat="41.3491" lon="41.69296">
        <ele>250.991317</ele>
        <time>2021-08-17T11:27:25.209Z</time>
      </trkpt>
      <trkpt lat="41.34926" lon="41.69286">
        <ele>249.989876</ele>
        <time>2021-08-17T11:27:28.988Z</time>
      </trkpt>
      <trkpt lat="41.34948" lon="41.69252">
        <ele>248.085976</ele>
        <time>2021-08-17T11:27:36.261Z</time>
      </trkpt>
      <trkpt lat="41.3501" lon="41.69183">
        <ele>243.558572</ele>
        <time>2021-08-17T11:27:53.635Z</time>
      </trkpt>
      <trkpt lat="41.35032" lon="41.69151">
        <ele>241.737486</ele>
        <time>2021-08-17T11:28:00.383Z</time>
      </trkpt>
      <trkpt lat="41.35072" lon="41.6914">
        <ele>239.293231</ele>
        <time>2021-08-17T11:28:08.829Z</time>
      </trkpt>
      <trkpt lat="41.3514" lon="41.69165">
        <ele>230.284357</ele>
        <time>2021-08-17T11:28:22.295Z</time>
      </trkpt>
      <trkpt lat="41.35158" lon="41.6915">
        <ele>227.607361</ele>
        <time>2021-08-17T11:28:26.150Z</time>
      </trkpt>
      <trkpt lat="41.35177" lon="41.69081">
        <ele>220.646278</ele>
        <time>2021-08-17T11:28:36.087Z</time>
      </trkpt>
      <trkpt lat="41.35215" lon="41.69048">
        <ele>214.383114</ele>
        <time>2021-08-17T11:28:44.270Z</time>
      </trkpt>
      <trkpt lat="41.35224" lon="41.69035">
        <ele>212.170954</ele>
        <time>2021-08-17T11:28:46.704Z</time>
      </trkpt>
      <trkpt lat="41.35228" lon="41.69011">
        <ele>209.228463</ele>
        <time>2021-08-17T11:28:49.928Z</time>
      </trkpt>
      <trkpt lat="41.35225" lon="41.68962">
        <ele>203.2201</ele>
        <time>2021-08-17T11:28:56.531Z</time>
      </trkpt>
      <trkpt lat="41.35212" lon="41.68923">
        <ele>197.898323</ele>
        <time>2021-08-17T11:29:02.394Z</time>
      </trkpt>
      <trkpt lat="41.3521" lon="41.68882">
        <ele>192.934163</ele>
        <time>2021-08-17T11:29:07.873Z</time>
      </trkpt>
      <trkpt lat="41.35213" lon="41.68863">
        <ele>190.487899</ele>
        <time>2021-08-17T11:29:10.590Z</time>
      </trkpt>
      <trkpt lat="41.35243" lon="41.68818">
        <ele>184.958105</ele>
        <time>2021-08-17T11:29:18.801Z</time>
      </trkpt>
      <trkpt lat="41.35282" lon="41.6868">
        <ele>175.070048</ele>
        <time>2021-08-17T11:29:40.263Z</time>
      </trkpt>
      <trkpt lat="41.35272" lon="41.68582">
        <ele>169.964559</ele>
        <time>2021-08-17T11:29:56.207Z</time>
      </trkpt>
      <trkpt lat="41.35276" lon="41.68554">
        <ele>169.122972</ele>
        <time>2021-08-17T11:30:01.234Z</time>
      </trkpt>
      <trkpt lat="41.3534" lon="41.68384">
        <ele>163.353025</ele>
        <time>2021-08-17T11:30:33.849Z</time>
      </trkpt>
      <trkpt lat="41.35407" lon="41.68161">
        <ele>152.832753</ele>
        <time>2021-08-17T11:31:10.777Z</time>
      </trkpt>
      <trkpt lat="41.35399" lon="41.68118">
        <ele>150.630692</ele>
        <time>2021-08-17T11:31:17.471Z</time>
      </trkpt>
      <trkpt lat="41.35376" lon="41.68092">
        <ele>148.634687</ele>
        <time>2021-08-17T11:31:23.514Z</time>
      </trkpt>
      <trkpt lat="41.35353" lon="41.68088">
        <ele>147.114337</ele>
        <time>2021-08-17T11:31:28.139Z</time>
      </trkpt>
      <trkpt lat="41.35341" lon="41.68092">
        <ele>146.293892</ele>
        <time>2021-08-17T11:31:30.651Z</time>
      </trkpt>
      <trkpt lat="41.35319" lon="41.68117">
        <ele>144.363865</ele>
        <time>2021-08-17T11:31:36.532Z</time>
      </trkpt>
      <trkpt lat="41.35313" lon="41.68133">
        <ele>143.475434</ele>
        <time>2021-08-17T11:31:39.289Z</time>
      </trkpt>
      <trkpt lat="41.35311" lon="41.68179">
        <ele>141.211425</ele>
        <time>2021-08-17T11:31:46.253Z</time>
      </trkpt>
      <trkpt lat="41.35327" lon="41.68314">
        <ele>134.449622</ele>
        <time>2021-08-17T11:32:07.533Z</time>
      </trkpt>
      <trkpt lat="41.35316" lon="41.68342">
        <ele>132.878137</ele>
        <time>2021-08-17T11:32:12.342Z</time>
      </trkpt>
      <trkpt lat="41.35308" lon="41.68348">
        <ele>132.265256</ele>
        <time>2021-08-17T11:32:14.187Z</time>
      </trkpt>
      <trkpt lat="41.3528" lon="41.68355">
        <ele>130.365439</ele>
        <time>2021-08-17T11:32:19.835Z</time>
      </trkpt>
      <trkpt lat="41.35261" lon="41.68342">
        <ele>129.311306</ele>
        <time>2021-08-17T11:32:23.860Z</time>
      </trkpt>
      <trkpt lat="41.35255" lon="41.68326">
        <ele>128.687016</ele>
        <time>2021-08-17T11:32:26.517Z</time>
      </trkpt>
      <trkpt lat="41.35252" lon="41.68226">
        <ele>125.307102</ele>
        <time>2021-08-17T11:32:42.155Z</time>
      </trkpt>
      <trkpt lat="41.35237" lon="41.68136">
        <ele>122.167967</ele>
        <time>2021-08-17T11:32:57.914Z</time>
      </trkpt>
      <trkpt lat="41.3524" lon="41.68133">
        <ele>122.009806</ele>
        <time>2021-08-17T11:33:01.419Z</time>
      </trkpt>
      <trkpt lat="41.35247" lon="41.68066">
        <ele>123.888859</ele>
        <time>2021-08-17T11:33:17.433Z</time>
      </trkpt>
      <trkpt lat="41.35257" lon="41.68041">
        <ele>124.780071</ele>
        <time>2021-08-17T11:33:28.116Z</time>
      </trkpt>
      <trkpt lat="41.35269" lon="41.68027">
        <ele>125.44928</ele>
        <time>2021-08-17T11:33:35.554Z</time>
      </trkpt>
      <trkpt lat="41.35308" lon="41.68011">
        <ele>127.118418</ele>
        <time>2021-08-17T11:34:00.041Z</time>
      </trkpt>
      <trkpt lat="41.35354" lon="41.67972">
        <ele>129.404845</ele>
        <time>2021-08-17T11:34:44.006Z</time>
      </trkpt>
      <trkpt lat="41.35379" lon="41.67959">
        <ele>130.940416</ele>
        <time>2021-08-17T11:35:05.722Z</time>
      </trkpt>
      <trkpt lat="41.35405" lon="41.6795">
        <ele>132.524821</ele>
        <time>2021-08-17T11:35:27.203Z</time>
      </trkpt>
      <trkpt lat="41.35465" lon="41.67948">
        <ele>136.041634</ele>
        <time>2021-08-17T11:36:05.996Z</time>
      </trkpt>
      <trkpt lat="41.35468" lon="41.67949">
        <ele>136.226634</ele>
        <time>2021-08-17T11:36:09.992Z</time>
      </trkpt>
      <trkpt lat="41.35476" lon="41.67951">
        <ele>136.685822</ele>
        <time>2021-08-17T11:36:15.561Z</time>
      </trkpt>
      <trkpt lat="41.3553" lon="41.67982">
        <ele>139.755943</ele>
        <time>2021-08-17T11:36:43.521Z</time>
      </trkpt>
      <trkpt lat="41.35602" lon="41.68035">
        <ele>138.819281</ele>
        <time>2021-08-17T11:37:14.314Z</time>
      </trkpt>
      <trkpt lat="41.3562" lon="41.68039">
        <ele>138.608805</ele>
        <time>2021-08-17T11:37:18.694Z</time>
      </trkpt>
      <trkpt lat="41.35693" lon="41.68033">
        <ele>137.790234</ele>
        <time>2021-08-17T11:37:34.508Z</time>
      </trkpt>
      <trkpt lat="41.3572" lon="41.68024">
        <ele>136.473674</ele>
        <time>2021-08-17T11:37:40.466Z</time>
      </trkpt>
      <trkpt lat="41.35749" lon="41.67996">
        <ele>134.707354</ele>
        <time>2021-08-17T11:37:48.113Z</time>
      </trkpt>
      <trkpt lat="41.35775" lon="41.67958">
        <ele>132.794244</ele>
        <time>2021-08-17T11:37:56.529Z</time>
      </trkpt>
      <trkpt lat="41.35859" lon="41.67943">
        <ele>128.635295</ele>
        <time>2021-08-17T11:38:14.291Z</time>
      </trkpt>
      <trkpt lat="41.35932" lon="41.67914">
        <ele>124.85317</ele>
        <time>2021-08-17T11:38:29.927Z</time>
      </trkpt>
      <trkpt lat="41.35996" lon="41.67892">
        <ele>121.591838</ele>
        <time>2021-08-17T11:38:44.082Z</time>
      </trkpt>
      <trkpt lat="41.36014" lon="41.67874">
        <ele>120.496873</ele>
        <time>2021-08-17T11:38:48.884Z</time>
      </trkpt>
      <trkpt lat="41.36018" lon="41.67866">
        <ele>120.128784</ele>
        <time>2021-08-17T11:38:50.771Z</time>
      </trkpt>
      <trkpt lat="41.36014" lon="41.67846">
        <ele>119.800634</ele>
        <time>2021-08-17T11:38:54.363Z</time>
      </trkpt>
      <trkpt lat="41.36016" lon="41.67821">
        <ele>119.446384</ele>
        <time>2021-08-17T11:38:58.648Z</time>
      </trkpt>
      <trkpt lat="41.36025" lon="41.67794">
        <ele>119.044379</ele>
        <time>2021-08-17T11:39:03.663Z</time>
      </trkpt>
      <trkpt lat="41.36054" lon="41.67757">
        <ele>118.293547</ele>
        <time>2021-08-17T11:39:13.398Z</time>
      </trkpt>
      <trkpt lat="41.36135" lon="41.67714">
        <ele>116.661161</ele>
        <time>2021-08-17T11:39:40.454Z</time>
      </trkpt>
      <trkpt lat="41.36172" lon="41.67668">
        <ele>115.326049</ele>
        <time>2021-08-17T11:39:53.478Z</time>
      </trkpt>
      <trkpt lat="41.36188" lon="41.67657">
        <ele>114.838967</ele>
        <time>2021-08-17T11:39:57.623Z</time>
      </trkpt>
      <trkpt lat="41.36194" lon="41.67656">
        <ele>114.693108</ele>
        <time>2021-08-17T11:39:59.023Z</time>
      </trkpt>
      <trkpt lat="41.36205" lon="41.6766">
        <ele>114.395664</ele>
        <time>2021-08-17T11:40:01.675Z</time>
      </trkpt>
      <trkpt lat="41.3621" lon="41.67658">
        <ele>114.250769</ele>
        <time>2021-08-17T11:40:02.993Z</time>
      </trkpt>
      <trkpt lat="41.36213" lon="41.67651">
        <ele>114.103986</ele>
        <time>2021-08-17T11:40:04.194Z</time>
      </trkpt>
      <trkpt lat="41.36211" lon="41.67644">
        <ele>113.956614</ele>
        <time>2021-08-17T11:40:05.402Z</time>
      </trkpt>
      <trkpt lat="41.36207" lon="41.67632">
        <ele>113.68893</ele>
        <time>2021-08-17T11:40:07.887Z</time>
      </trkpt>
      <trkpt lat="41.36204" lon="41.67617">
        <ele>113.377282</ele>
        <time>2021-08-17T11:40:10.636Z</time>
      </trkpt>
      <trkpt lat="41.36206" lon="41.67472">
        <ele>110.804562</ele>
        <time>2021-08-17T11:40:34.708Z</time>
      </trkpt>
      <trkpt lat="41.36211" lon="41.67457">
        <ele>110.542744</ele>
        <time>2021-08-17T11:40:37.259Z</time>
      </trkpt>
      <trkpt lat="41.36225" lon="41.67454">
        <ele>110.231935</ele>
        <time>2021-08-17T11:40:40.308Z</time>
      </trkpt>
      <trkpt lat="41.36403" lon="41.67523">
        <ele>110.957923</ele>
        <time>2021-08-17T11:41:35.848Z</time>
      </trkpt>
      <trkpt lat="41.36427" lon="41.6753">
        <ele>111.725433</ele>
        <time>2021-08-17T11:41:49.768Z</time>
      </trkpt>
      <trkpt lat="41.36443" lon="41.67531">
        <ele>112.241171</ele>
        <time>2021-08-17T11:41:57.999Z</time>
      </trkpt>
      <trkpt lat="41.36456" lon="41.67528">
        <ele>112.651542</ele>
        <time>2021-08-17T11:42:08.114Z</time>
      </trkpt>
      <trkpt lat="41.36481" lon="41.67508">
        <ele>113.579216</ele>
        <time>2021-08-17T11:42:28.648Z</time>
      </trkpt>
      <trkpt lat="41.36492" lon="41.67493">
        <ele>114.311878</ele>
        <time>2021-08-17T11:42:42.141Z</time>
      </trkpt>
      <trkpt lat="41.36533" lon="41.67427">
        <ele>118.502434</ele>
        <time>2021-08-17T11:43:30.116Z</time>
      </trkpt>
      <trkpt lat="41.36545" lon="41.67399">
        <ele>120.076529</ele>
        <time>2021-08-17T11:43:46.371Z</time>
      </trkpt>
      <trkpt lat="41.36551" lon="41.67371">
        <ele>121.50577</ele>
        <time>2021-08-17T11:44:04.570Z</time>
      </trkpt>
      <trkpt lat="41.36555" lon="41.67327">
        <ele>123.716096</ele>
        <time>2021-08-17T11:44:27.731Z</time>
      </trkpt>
      <trkpt lat="41.3655" lon="41.67271">
        <ele>125.821835</ele>
        <time>2021-08-17T11:44:51.761Z</time>
      </trkpt>
      <trkpt lat="41.36525" lon="41.67045">
        <ele>128.692474</ele>
        <time>2021-08-17T11:45:53.541Z</time>
      </trkpt>
      <trkpt lat="41.36524" lon="41.66977">
        <ele>129.624823</ele>
        <time>2021-08-17T11:46:12.288Z</time>
      </trkpt>
      <trkpt lat="41.3651" lon="41.6692">
        <ele>130.440342</ele>
        <time>2021-08-17T11:46:31.119Z</time>
      </trkpt>
      <trkpt lat="41.36495" lon="41.66887">
        <ele>130.967705</ele>
        <time>2021-08-17T11:46:43.952Z</time>
      </trkpt>
      <trkpt lat="41.36477" lon="41.66864">
        <ele>131.424016</ele>
        <time>2021-08-17T11:46:55.507Z</time>
      </trkpt>
      <trkpt lat="41.36379" lon="41.66805">
        <ele>132.477921</ele>
        <time>2021-08-17T11:47:43.668Z</time>
      </trkpt>
      <trkpt lat="41.36354" lon="41.66774">
        <ele>132.726307</ele>
        <time>2021-08-17T11:47:55.357Z</time>
      </trkpt>
      <trkpt lat="41.36338" lon="41.66708">
        <ele>133.105948</ele>
        <time>2021-08-17T11:48:09.429Z</time>
      </trkpt>
      <trkpt lat="41.36342" lon="41.66676">
        <ele>132.9514</ele>
        <time>2021-08-17T11:48:15.623Z</time>
      </trkpt>
      <trkpt lat="41.36361" lon="41.66637">
        <ele>132.287293</ele>
        <time>2021-08-17T11:48:24.272Z</time>
      </trkpt>
      <trkpt lat="41.36391" lon="41.66603">
        <ele>131.52303</ele>
        <time>2021-08-17T11:48:33.914Z</time>
      </trkpt>
      <trkpt lat="41.36433" lon="41.66579">
        <ele>130.662197</ele>
        <time>2021-08-17T11:48:44.935Z</time>
      </trkpt>
      <trkpt lat="41.36532" lon="41.66546">
        <ele>129.106181</ele>
        <time>2021-08-17T11:49:10.229Z</time>
      </trkpt>
      <trkpt lat="41.36606" lon="41.66506">
        <ele>128.142919</ele>
        <time>2021-08-17T11:49:31.628Z</time>
      </trkpt>
      <trkpt lat="41.36632" lon="41.66482">
        <ele>127.768735</ele>
        <time>2021-08-17T11:49:40.354Z</time>
      </trkpt>
      <trkpt lat="41.36647" lon="41.66456">
        <ele>127.66583</ele>
        <time>2021-08-17T11:49:47.412Z</time>
      </trkpt>
      <trkpt lat="41.36656" lon="41.66426">
        <ele>127.799333</ele>
        <time>2021-08-17T11:49:54.400Z</time>
      </trkpt>
      <trkpt lat="41.36656" lon="41.66386">
        <ele>127.963158</ele>
        <time>2021-08-17T11:50:03.434Z</time>
      </trkpt>
      <trkpt lat="41.36629" lon="41.66237">
        <ele>128.627238</ele>
        <time>2021-08-17T11:50:44.188Z</time>
      </trkpt>
      <trkpt lat="41.36623" lon="41.66188">
        <ele>130.089417</ele>
        <time>2021-08-17T11:51:00.980Z</time>
      </trkpt>
      <trkpt lat="41.36627" lon="41.66159">
        <ele>130.992858</ele>
        <time>2021-08-17T11:51:12.293Z</time>
      </trkpt>
      <trkpt lat="41.36642" lon="41.66123">
        <ele>132.221685</ele>
        <time>2021-08-17T11:51:28.374Z</time>
      </trkpt>
      <trkpt lat="41.36688" lon="41.66051">
        <ele>135.060021</ele>
        <time>2021-08-17T11:52:09.374Z</time>
      </trkpt>
      <trkpt lat="41.36696" lon="41.6603">
        <ele>135.77073</ele>
        <time>2021-08-17T11:52:20.690Z</time>
      </trkpt>
      <trkpt lat="41.36704" lon="41.66003">
        <ele>137.191828</ele>
        <time>2021-08-17T11:52:34.620Z</time>
      </trkpt>
      <trkpt lat="41.36715" lon="41.65915">
        <ele>141.712912</ele>
        <time>2021-08-17T11:53:22.461Z</time>
      </trkpt>
      <trkpt lat="41.36726" lon="41.65886">
        <ele>143.329148</ele>
        <time>2021-08-17T11:53:39.866Z</time>
      </trkpt>
      <trkpt lat="41.36746" lon="41.65853">
        <ele>145.493198</ele>
        <time>2021-08-17T11:54:02.830Z</time>
      </trkpt>
      <trkpt lat="41.36796" lon="41.658">
        <ele>149.402279</ele>
        <time>2021-08-17T11:54:46.482Z</time>
      </trkpt>
      <trkpt lat="41.36814" lon="41.6577">
        <ele>150.922892</ele>
        <time>2021-08-17T11:55:05.800Z</time>
      </trkpt>
      <trkpt lat="41.3683" lon="41.65724">
        <ele>152.977626</ele>
        <time>2021-08-17T11:55:31.689Z</time>
      </trkpt>
      <trkpt lat="41.36843" lon="41.65603">
        <ele>157.580283</ele>
        <time>2021-08-17T11:56:24.302Z</time>
      </trkpt>
      <trkpt lat="41.36853" lon="41.65561">
        <ele>157.933651</ele>
        <time>2021-08-17T11:56:38.418Z</time>
      </trkpt>
      <trkpt lat="41.36861" lon="41.65545">
        <ele>158.092915</ele>
        <time>2021-08-17T11:56:44.050Z</time>
      </trkpt>
      <trkpt lat="41.36873" lon="41.65535">
        <ele>158.238173</ele>
        <time>2021-08-17T11:56:48.810Z</time>
      </trkpt>
      <trkpt lat="41.36886" lon="41.65534">
        <ele>158.379437</ele>
        <time>2021-08-17T11:56:53.734Z</time>
      </trkpt>
      <trkpt lat="41.36903" lon="41.65537">
        <ele>158.564079</ele>
        <time>2021-08-17T11:56:59.664Z</time>
      </trkpt>
      <trkpt lat="41.36978" lon="41.65575">
        <ele>159.418873</ele>
        <time>2021-08-17T11:57:25.711Z</time>
      </trkpt>
      <trkpt lat="41.37008" lon="41.65571">
        <ele>159.053074</ele>
        <time>2021-08-17T11:57:33.912Z</time>
      </trkpt>
      <trkpt lat="41.3703" lon="41.65557">
        <ele>158.753661</ele>
        <time>2021-08-17T11:57:40.006Z</time>
      </trkpt>
      <trkpt lat="41.37045" lon="41.65538">
        <ele>158.481907</ele>
        <time>2021-08-17T11:57:45.202Z</time>
      </trkpt>
      <trkpt lat="41.37054" lon="41.65518">
        <ele>158.269808</ele>
        <time>2021-08-17T11:57:49.375Z</time>
      </trkpt>
      <trkpt lat="41.37057" lon="41.65496">
        <ele>158.049676</ele>
        <time>2021-08-17T11:57:53.586Z</time>
      </trkpt>
      <trkpt lat="41.37056" lon="41.6547">
        <ele>157.808933</ele>
        <time>2021-08-17T11:57:58.430Z</time>
      </trkpt>
      <trkpt lat="41.3704" lon="41.65419">
        <ele>157.281385</ele>
        <time>2021-08-17T11:58:09.090Z</time>
      </trkpt>
      <trkpt lat="41.36978" lon="41.65274">
        <ele>157.439165</ele>
        <time>2021-08-17T11:58:47.207Z</time>
      </trkpt>
      <trkpt lat="41.3696" lon="41.65247">
        <ele>157.504208</ele>
        <time>2021-08-17T11:58:56.431Z</time>
      </trkpt>
      <trkpt lat="41.3694" lon="41.65227">
        <ele>157.565039</ele>
        <time>2021-08-17T11:59:05.660Z</time>
      </trkpt>
      <trkpt lat="41.36916" lon="41.65214">
        <ele>157.850227</ele>
        <time>2021-08-17T11:59:16.169Z</time>
      </trkpt>
      <trkpt lat="41.36797" lon="41.65185">
        <ele>160.062602</ele>
        <time>2021-08-17T12:00:08.602Z</time>
      </trkpt>
      <trkpt lat="41.36779" lon="41.65167">
        <ele>160.475537</ele>
        <time>2021-08-17T12:00:18.343Z</time>
      </trkpt>
      <trkpt lat="41.36768" lon="41.65142">
        <ele>160.877121</ele>
        <time>2021-08-17T12:00:27.029Z</time>
      </trkpt>
      <trkpt lat="41.3677" lon="41.65112">
        <ele>161.160057</ele>
        <time>2021-08-17T12:00:35.519Z</time>
      </trkpt>
      <trkpt lat="41.36778" lon="41.65093">
        <ele>161.369117</ele>
        <time>2021-08-17T12:00:41.873Z</time>
      </trkpt>
      <trkpt lat="41.36836" lon="41.65025">
        <ele>162.352442</ele>
        <time>2021-08-17T12:01:11.635Z</time>
      </trkpt>
      <trkpt lat="41.36851" lon="41.65">
        <ele>162.642969</ele>
        <time>2021-08-17T12:01:20.325Z</time>
      </trkpt>
      <trkpt lat="41.36861" lon="41.64973">
        <ele>162.938913</ele>
        <time>2021-08-17T12:01:28.785Z</time>
      </trkpt>
      <trkpt lat="41.36866" lon="41.6494">
        <ele>163.264045</ele>
        <time>2021-08-17T12:01:37.769Z</time>
      </trkpt>
      <trkpt lat="41.36864" lon="41.64906">
        <ele>163.623662</ele>
        <time>2021-08-17T12:01:47.224Z</time>
      </trkpt>
      <trkpt lat="41.36834" lon="41.64812">
        <ele>164.684231</ele>
        <time>2021-08-17T12:02:15.469Z</time>
      </trkpt>
      <trkpt lat="41.36782" lon="41.64679">
        <ele>166.77444</ele>
        <time>2021-08-17T12:03:02.445Z</time>
      </trkpt>
      <trkpt lat="41.36776" lon="41.64625">
        <ele>167.8589</ele>
        <time>2021-08-17T12:03:21.012Z</time>
      </trkpt>
      <trkpt lat="41.36776" lon="41.64575">
        <ele>168.863053</ele>
        <time>2021-08-17T12:03:38.811Z</time>
      </trkpt>
      <trkpt lat="41.36784" lon="41.6447">
        <ele>171.057646</ele>
        <time>2021-08-17T12:04:17.654Z</time>
      </trkpt>
      <trkpt lat="41.36803" lon="41.6438">
        <ele>173.246409</ele>
        <time>2021-08-17T12:04:53.607Z</time>
      </trkpt>
      <trkpt lat="41.36914" lon="41.64068">
        <ele>180.330369</ele>
        <time>2021-08-17T12:06:56.097Z</time>
      </trkpt>
      <trkpt lat="41.36919" lon="41.64017">
        <ele>180.624238</ele>
        <time>2021-08-17T12:07:09.785Z</time>
      </trkpt>
      <trkpt lat="41.36913" lon="41.63971">
        <ele>180.669419</ele>
        <time>2021-08-17T12:07:21.291Z</time>
      </trkpt>
      <trkpt lat="41.36861" lon="41.63776">
        <ele>181.781014</ele>
        <time>2021-08-17T12:08:05.138Z</time>
      </trkpt>
      <trkpt lat="41.36857" lon="41.63727">
        <ele>182.708367</ele>
        <time>2021-08-17T12:08:22.306Z</time>
      </trkpt>
      <trkpt lat="41.36859" lon="41.63703">
        <ele>183.16444</ele>
        <time>2021-08-17T12:08:30.184Z</time>
      </trkpt>
      <trkpt lat="41.36869" lon="41.63672">
        <ele>183.784004</ele>
        <time>2021-08-17T12:08:43.234Z</time>
      </trkpt>
      <trkpt lat="41.36917" lon="41.6361">
        <ele>185.504178</ele>
        <time>2021-08-17T12:09:19.858Z</time>
      </trkpt>
      <trkpt lat="41.36926" lon="41.63599">
        <ele>185.93549</ele>
        <time>2021-08-17T12:09:25.460Z</time>
      </trkpt>
      <trkpt lat="41.36945" lon="41.63611">
        <ele>186.698099</ele>
        <time>2021-08-17T12:09:39.570Z</time>
      </trkpt>
      <trkpt lat="41.36973" lon="41.63623">
        <ele>187.744922</ele>
        <time>2021-08-17T12:09:55.878Z</time>
      </trkpt>
      <trkpt lat="41.37011" lon="41.63618">
        <ele>189.099681</ele>
        <time>2021-08-17T12:10:17.185Z</time>
      </trkpt>
      <trkpt lat="41.37057" lon="41.63576">
        <ele>191.056802</ele>
        <time>2021-08-17T12:10:45.295Z</time>
      </trkpt>
      <trkpt lat="41.37073" lon="41.63548">
        <ele>191.732357</ele>
        <time>2021-08-17T12:10:59.659Z</time>
      </trkpt>
      <trkpt lat="41.37111" lon="41.63429">
        <ele>192.186098</ele>
        <time>2021-08-17T12:11:29.411Z</time>
      </trkpt>
      <trkpt lat="41.37128" lon="41.63329">
        <ele>192.57969</ele>
        <time>2021-08-17T12:11:54.337Z</time>
      </trkpt>
      <trkpt lat="41.37153" lon="41.63286">
        <ele>193.192764</ele>
        <time>2021-08-17T12:12:09.243Z</time>
      </trkpt>
      <trkpt lat="41.37189" lon="41.63249">
        <ele>193.874589</ele>
        <time>2021-08-17T12:12:27.618Z</time>
      </trkpt>
      <trkpt lat="41.37238" lon="41.63209">
        <ele>194.734731</ele>
        <time>2021-08-17T12:12:53.091Z</time>
      </trkpt>
      <trkpt lat="41.37387" lon="41.63131">
        <ele>197.312617</ele>
        <time>2021-08-17T12:14:04.798Z</time>
      </trkpt>
      <trkpt lat="41.37513" lon="41.63115">
        <ele>197.835007</ele>
        <time>2021-08-17T12:14:48.902Z</time>
      </trkpt>
      <trkpt lat="41.37547" lon="41.63095">
        <ele>197.661626</ele>
        <time>2021-08-17T12:14:59.652Z</time>
      </trkpt>
      <trkpt lat="41.37569" lon="41.63074">
        <ele>197.534021</ele>
        <time>2021-08-17T12:15:07.173Z</time>
      </trkpt>
      <trkpt lat="41.37581" lon="41.63032">
        <ele>197.376695</ele>
        <time>2021-08-17T12:15:16.341Z</time>
      </trkpt>
      <trkpt lat="41.37591" lon="41.62974">
        <ele>197.109843</ele>
        <time>2021-08-17T12:15:28.118Z</time>
      </trkpt>
      <trkpt lat="41.37574" lon="41.62923">
        <ele>196.839721</ele>
        <time>2021-08-17T12:15:39.755Z</time>
      </trkpt>
      <trkpt lat="41.37569" lon="41.62883">
        <ele>196.645324</ele>
        <time>2021-08-17T12:15:48.453Z</time>
      </trkpt>
      <trkpt lat="41.37573" lon="41.62791">
        <ele>196.204193</ele>
        <time>2021-08-17T12:16:10.227Z</time>
      </trkpt>
      <trkpt lat="41.37539" lon="41.62683">
        <ele>198.198981</ele>
        <time>2021-08-17T12:16:45.389Z</time>
      </trkpt>
      <trkpt lat="41.37532" lon="41.62601">
        <ele>199.671535</ele>
        <time>2021-08-17T12:17:16.123Z</time>
      </trkpt>
      <trkpt lat="41.37514" lon="41.62514">
        <ele>201.944381</ele>
        <time>2021-08-17T12:17:54.074Z</time>
      </trkpt>
      <trkpt lat="41.37519" lon="41.62475">
        <ele>203.229223</ele>
        <time>2021-08-17T12:18:12.003Z</time>
      </trkpt>
      <trkpt lat="41.37534" lon="41.62447">
        <ele>204.3193</ele>
        <time>2021-08-17T12:18:26.976Z</time>
      </trkpt>
      <trkpt lat="41.37599" lon="41.62388">
        <ele>207.679239</ele>
        <time>2021-08-17T12:19:11.531Z</time>
      </trkpt>
      <trkpt lat="41.37603" lon="41.62385">
        <ele>207.912083</ele>
        <time>2021-08-17T12:19:15.472Z</time>
      </trkpt>
      <trkpt lat="41.37618" lon="41.62375">
        <ele>208.539257</ele>
        <time>2021-08-17T12:19:24.154Z</time>
      </trkpt>
      <trkpt lat="41.37662" lon="41.62353">
        <ele>210.299958</ele>
        <time>2021-08-17T12:19:48.527Z</time>
      </trkpt>
      <trkpt lat="41.37741" lon="41.62261">
        <ele>214.176373</ele>
        <time>2021-08-17T12:20:42.769Z</time>
      </trkpt>
      <trkpt lat="41.37786" lon="41.6214">
        <ele>219.54175</ele>
        <time>2021-08-17T12:21:39.254Z</time>
      </trkpt>
      <trkpt lat="41.37772" lon="41.62072">
        <ele>222.464699</ele>
        <time>2021-08-17T12:22:14.745Z</time>
      </trkpt>
      <trkpt lat="41.37782" lon="41.62046">
        <ele>223.720038</ele>
        <time>2021-08-17T12:22:30.883Z</time>
      </trkpt>
      <trkpt lat="41.37823" lon="41.62037">
        <ele>226.265895</ele>
        <time>2021-08-17T12:23:02.134Z</time>
      </trkpt>
      <trkpt lat="41.37881" lon="41.62052">
        <ele>230.278391</ele>
        <time>2021-08-17T12:23:48.350Z</time>
      </trkpt>
      <trkpt lat="41.37913" lon="41.62049">
        <ele>232.417424</ele>
        <time>2021-08-17T12:24:12.027Z</time>
      </trkpt>
      <trkpt lat="41.37954" lon="41.62038">
        <ele>235.284715</ele>
        <time>2021-08-17T12:24:40.930Z</time>
      </trkpt>
      <trkpt lat="41.37975" lon="41.62023">
        <ele>236.896094</ele>
        <time>2021-08-17T12:24:55.776Z</time>
      </trkpt>
      <trkpt lat="41.38033" lon="41.61957">
        <ele>238.789181</ele>
        <time>2021-08-17T12:25:36.114Z</time>
      </trkpt>
      <trkpt lat="41.38086" lon="41.61867">
        <ele>240.846519</ele>
        <time>2021-08-17T12:26:10.838Z</time>
      </trkpt>
      <trkpt lat="41.38106" lon="41.61845">
        <ele>241.315551</ele>
        <time>2021-08-17T12:26:19.843Z</time>
      </trkpt>
      <trkpt lat="41.38116" lon="41.61817">
        <ele>241.378531</ele>
        <time>2021-08-17T12:26:27.397Z</time>
      </trkpt>
      <trkpt lat="41.38165" lon="41.61731">
        <ele>241.594302</ele>
        <time>2021-08-17T12:26:53.548Z</time>
      </trkpt>
      <trkpt lat="41.38176" lon="41.617">
        <ele>241.663252</ele>
        <time>2021-08-17T12:27:01.894Z</time>
      </trkpt>
      <trkpt lat="41.38188" lon="41.61688">
        <ele>241.703869</ele>
        <time>2021-08-17T12:27:07.421Z</time>
      </trkpt>
      <trkpt lat="41.38198" lon="41.61663">
        <ele>241.758993</ele>
        <time>2021-08-17T12:27:14.229Z</time>
      </trkpt>
      <trkpt lat="41.38188" lon="41.61638">
        <ele>241.983178</ele>
        <time>2021-08-17T12:27:21.936Z</time>
      </trkpt>
      <trkpt lat="41.38194" lon="41.6161">
        <ele>242.306862</ele>
        <time>2021-08-17T12:27:30.033Z</time>
      </trkpt>
      <trkpt lat="41.38195" lon="41.61566">
        <ele>242.783915</ele>
        <time>2021-08-17T12:27:41.694Z</time>
      </trkpt>
      <trkpt lat="41.38158" lon="41.61453">
        <ele>244.142371</ele>
        <time>2021-08-17T12:28:18.873Z</time>
      </trkpt>
      <trkpt lat="41.38142" lon="41.6142">
        <ele>244.899304</ele>
        <time>2021-08-17T12:28:33.614Z</time>
      </trkpt>
      <trkpt lat="41.38123" lon="41.61398">
        <ele>246.00368</ele>
        <time>2021-08-17T12:28:47.199Z</time>
      </trkpt>
      <trkpt lat="41.38114" lon="41.61379">
        <ele>246.715132</ele>
        <time>2021-08-17T12:28:56.712Z</time>
      </trkpt>
      <trkpt lat="41.38102" lon="41.61345">
        <ele>247.964931</ele>
        <time>2021-08-17T12:29:14.317Z</time>
      </trkpt>
      <trkpt lat="41.38093" lon="41.61291">
        <ele>249.75025</ele>
        <time>2021-08-17T12:29:41.581Z</time>
      </trkpt>
      <trkpt lat="41.38096" lon="41.61246">
        <ele>251.237717</ele>
        <time>2021-08-17T12:30:02.419Z</time>
      </trkpt>
      <trkpt lat="41.38103" lon="41.61231">
        <ele>251.804752</ele>
        <time>2021-08-17T12:30:15.408Z</time>
      </trkpt>
      <trkpt lat="41.38135" lon="41.61226">
        <ele>252.748429</ele>
        <time>2021-08-17T12:30:28.407Z</time>
      </trkpt>
      <trkpt lat="41.38202" lon="41.61231">
        <ele>254.268588</ele>
        <time>2021-08-17T12:30:51.485Z</time>
      </trkpt>
      <trkpt lat="41.38211" lon="41.61223">
        <ele>254.525449</ele>
        <time>2021-08-17T12:31:03.555Z</time>
      </trkpt>
      <trkpt lat="41.38214" lon="41.61209">
        <ele>254.776187</ele>
        <time>2021-08-17T12:31:06.232Z</time>
      </trkpt>
      <trkpt lat="41.38213" lon="41.61196">
        <ele>255.003458</ele>
        <time>2021-08-17T12:31:08.297Z</time>
      </trkpt>
      <trkpt lat="41.38197" lon="41.61186">
        <ele>255.413728</ele>
        <time>2021-08-17T12:31:22.926Z</time>
      </trkpt>
      <trkpt lat="41.3815" lon="41.61149">
        <ele>257.251777</ele>
        <time>2021-08-17T12:31:37.580Z</time>
      </trkpt>
      <trkpt lat="41.38136" lon="41.61131">
        <ele>258.60097</ele>
        <time>2021-08-17T12:31:51.777Z</time>
      </trkpt>
      <trkpt lat="41.38108" lon="41.61015">
        <ele>264.873489</ele>
        <time>2021-08-17T12:32:52.564Z</time>
      </trkpt>
      <trkpt lat="41.38088" lon="41.60959">
        <ele>268.026062</ele>
        <time>2021-08-17T12:33:35.709Z</time>
      </trkpt>
      <trkpt lat="41.38083" lon="41.60951">
        <ele>268.572717</ele>
        <time>2021-08-17T12:33:42.784Z</time>
      </trkpt>
      <trkpt lat="41.38078" lon="41.60953">
        <ele>269.118014</ele>
        <time>2021-08-17T12:33:48.167Z</time>
      </trkpt>
      <trkpt lat="41.38073" lon="41.60957">
        <ele>269.682014</ele>
        <time>2021-08-17T12:33:57.577Z</time>
      </trkpt>
      <trkpt lat="41.38054" lon="41.60974">
        <ele>271.821987</ele>
        <time>2021-08-17T12:34:16.976Z</time>
      </trkpt>
      <trkpt lat="41.38046" lon="41.60981">
        <ele>272.798009</ele>
        <time>2021-08-17T12:34:27.826Z</time>
      </trkpt>
      <trkpt lat="41.38018" lon="41.60925">
        <ele>277.653524</ele>
        <time>2021-08-17T12:35:17.036Z</time>
      </trkpt>
      <trkpt lat="41.37996" lon="41.60869">
        <ele>282.169782</ele>
        <time>2021-08-17T12:35:56.645Z</time>
      </trkpt>
      <trkpt lat="41.37992" lon="41.6084">
        <ele>284.312966</ele>
        <time>2021-08-17T12:36:17.878Z</time>
      </trkpt>
      <trkpt lat="41.37988" lon="41.60799">
        <ele>286.137916</ele>
        <time>2021-08-17T12:36:37.184Z</time>
      </trkpt>
      <trkpt lat="41.37987" lon="41.6063">
        <ele>287.841224</ele>
        <time>2021-08-17T12:37:22.141Z</time>
      </trkpt>
      <trkpt lat="41.37977" lon="41.60593">
        <ele>288.244672</ele>
        <time>2021-08-17T12:37:29.767Z</time>
      </trkpt>
      <trkpt lat="41.37957" lon="41.60559">
        <ele>288.065713</ele>
        <time>2021-08-17T12:37:37.767Z</time>
      </trkpt>
      <trkpt lat="41.37913" lon="41.60488">
        <ele>287.14878</ele>
        <time>2021-08-17T12:37:55.521Z</time>
      </trkpt>
      <trkpt lat="41.37908" lon="41.60479">
        <ele>287.042233</ele>
        <time>2021-08-17T12:37:57.678Z</time>
      </trkpt>
      <trkpt lat="41.37896" lon="41.60446">
        <ele>286.670947</ele>
        <time>2021-08-17T12:38:04.737Z</time>
      </trkpt>
      <trkpt lat="41.37884" lon="41.60414">
        <ele>286.317333</ele>
        <time>2021-08-17T12:38:11.595Z</time>
      </trkpt>
      <trkpt lat="41.37876" lon="41.60337">
        <ele>286.22503</ele>
        <time>2021-08-17T12:38:27.439Z</time>
      </trkpt>
      <trkpt lat="41.37885" lon="41.6024">
        <ele>286.748118</ele>
        <time>2021-08-17T12:38:49.725Z</time>
      </trkpt>
      <trkpt lat="41.37894" lon="41.602">
        <ele>286.972849</ele>
        <time>2021-08-17T12:39:02.587Z</time>
      </trkpt>
      <trkpt lat="41.37919" lon="41.60144">
        <ele>287.528605</ele>
        <time>2021-08-17T12:39:23.904Z</time>
      </trkpt>
      <trkpt lat="41.37995" lon="41.6004">
        <ele>291.664266</ele>
        <time>2021-08-17T12:40:21.202Z</time>
      </trkpt>
      <trkpt lat="41.38019" lon="41.59989">
        <ele>293.385507</ele>
        <time>2021-08-17T12:40:47.320Z</time>
      </trkpt>
      <trkpt lat="41.38046" lon="41.59911">
        <ele>296.091376</ele>
        <time>2021-08-17T12:41:23.035Z</time>
      </trkpt>
      <trkpt lat="41.38058" lon="41.59861">
        <ele>297.833569</ele>
        <time>2021-08-17T12:41:44.823Z</time>
      </trkpt>
      <trkpt lat="41.38067" lon="41.59751">
        <ele>301.481334</ele>
        <time>2021-08-17T12:42:30.332Z</time>
      </trkpt>
      <trkpt lat="41.38075" lon="41.59721">
        <ele>302.734397</ele>
        <time>2021-08-17T12:42:43.953Z</time>
      </trkpt>
      <trkpt lat="41.38126" lon="41.5963">
        <ele>307.946746</ele>
        <time>2021-08-17T12:43:34.936Z</time>
      </trkpt>
      <trkpt lat="41.38142" lon="41.59596">
        <ele>309.790442</ele>
        <time>2021-08-17T12:43:55.802Z</time>
      </trkpt>
      <trkpt lat="41.38149" lon="41.59566">
        <ele>311.187758</ele>
        <time>2021-08-17T12:44:12.798Z</time>
      </trkpt>
      <trkpt lat="41.38148" lon="41.59531">
        <ele>312.800507</ele>
        <time>2021-08-17T12:44:33.256Z</time>
      </trkpt>
      <trkpt lat="41.3814" lon="41.59517">
        <ele>313.610468</ele>
        <time>2021-08-17T12:44:43.657Z</time>
      </trkpt>
      <trkpt lat="41.38129" lon="41.59502">
        <ele>314.615409</ele>
        <time>2021-08-17T12:44:56.333Z</time>
      </trkpt>
      <trkpt lat="41.38029" lon="41.59429">
        <ele>321.586428</ele>
        <time>2021-08-17T12:46:17.029Z</time>
      </trkpt>
      <trkpt lat="41.38013" lon="41.59407">
        <ele>323.042658</ele>
        <time>2021-08-17T12:46:30.220Z</time>
      </trkpt>
      <trkpt lat="41.37997" lon="41.59357">
        <ele>324.11004</ele>
        <time>2021-08-17T12:46:48.859Z</time>
      </trkpt>
      <trkpt lat="41.37997" lon="41.59329">
        <ele>324.15836</ele>
        <time>2021-08-17T12:46:56.459Z</time>
      </trkpt>
      <trkpt lat="41.38004" lon="41.593">
        <ele>324.20921</ele>
        <time>2021-08-17T12:47:03.405Z</time>
      </trkpt>
      <trkpt lat="41.38023" lon="41.59264">
        <ele>324.285551</ele>
        <time>2021-08-17T12:47:12.307Z</time>
      </trkpt>
      <trkpt lat="41.38102" lon="41.59179">
        <ele>324.915295</ele>
        <time>2021-08-17T12:47:38.285Z</time>
      </trkpt>
      <trkpt lat="41.38125" lon="41.59146">
        <ele>325.578723</ele>
        <time>2021-08-17T12:47:52.713Z</time>
      </trkpt>
      <trkpt lat="41.38137" lon="41.591">
        <ele>326.291368</ele>
        <time>2021-08-17T12:48:09.655Z</time>
      </trkpt>
      <trkpt lat="41.38131" lon="41.5905">
        <ele>327.02691</ele>
        <time>2021-08-17T12:48:27.223Z</time>
      </trkpt>
      <trkpt lat="41.38124" lon="41.59005">
        <ele>327.709398</ele>
        <time>2021-08-17T12:48:43.656Z</time>
      </trkpt>
      <trkpt lat="41.381" lon="41.58955">
        <ele>328.735772</ele>
        <time>2021-08-17T12:49:07.038Z</time>
      </trkpt>
      <trkpt lat="41.3807" lon="41.58829">
        <ele>331.173892</ele>
        <time>2021-08-17T12:49:55.657Z</time>
      </trkpt>
      <trkpt lat="41.38067" lon="41.58777">
        <ele>332.139469</ele>
        <time>2021-08-17T12:50:11.103Z</time>
      </trkpt>
      <trkpt lat="41.38068" lon="41.58714">
        <ele>332.796932</ele>
        <time>2021-08-17T12:50:24.455Z</time>
      </trkpt>
      <trkpt lat="41.38102" lon="41.58523">
        <ele>334.440032</ele>
        <time>2021-08-17T12:51:19.137Z</time>
      </trkpt>
      <trkpt lat="41.38102" lon="41.58464">
        <ele>336.384351</ele>
        <time>2021-08-17T12:51:39.318Z</time>
      </trkpt>
      <trkpt lat="41.38089" lon="41.58403">
        <ele>338.4772</ele>
        <time>2021-08-17T12:52:01.246Z</time>
      </trkpt>
      <trkpt lat="41.38049" lon="41.58291">
        <ele>343.136122</ele>
        <time>2021-08-17T12:52:59.118Z</time>
      </trkpt>
      <trkpt lat="41.38041" lon="41.5824">
        <ele>347.667219</ele>
        <time>2021-08-17T12:53:34.663Z</time>
      </trkpt>
      <trkpt lat="41.38041" lon="41.58205">
        <ele>350.686697</ele>
        <time>2021-08-17T12:54:01.625Z</time>
      </trkpt>
      <trkpt lat="41.38047" lon="41.58156">
        <ele>354.985147</ele>
        <time>2021-08-17T12:54:45.304Z</time>
      </trkpt>
      <trkpt lat="41.38054" lon="41.58102">
        <ele>359.719691</ele>
        <time>2021-08-17T12:55:28.367Z</time>
      </trkpt>
      <trkpt lat="41.38056" lon="41.58036">
        <ele>364.460442</ele>
        <time>2021-08-17T12:56:15.935Z</time>
      </trkpt>
      <trkpt lat="41.38059" lon="41.57987">
        <ele>366.99146</ele>
        <time>2021-08-17T12:56:48.271Z</time>
      </trkpt>
      <trkpt lat="41.38058" lon="41.57954">
        <ele>368.726903</ele>
        <time>2021-08-17T12:57:09.255Z</time>
      </trkpt>
      <trkpt lat="41.38063" lon="41.57913">
        <ele>370.900534</ele>
        <time>2021-08-17T12:57:30.923Z</time>
      </trkpt>
      <trkpt lat="41.3809" lon="41.57839">
        <ele>375.174274</ele>
        <time>2021-08-17T12:58:02.197Z</time>
      </trkpt>
      <trkpt lat="41.38124" lon="41.57783">
        <ele>377.053635</ele>
        <time>2021-08-17T12:58:17.219Z</time>
      </trkpt>
      <trkpt lat="41.38232" lon="41.57644">
        <ele>382.844998</ele>
        <time>2021-08-17T12:59:34.055Z</time>
      </trkpt>
      <trkpt lat="41.3825" lon="41.57607">
        <ele>385.432987</ele>
        <time>2021-08-17T13:00:03.114Z</time>
      </trkpt>
      <trkpt lat="41.3826" lon="41.57569">
        <ele>387.824654</ele>
        <time>2021-08-17T13:00:27.471Z</time>
      </trkpt>
      <trkpt lat="41.38258" lon="41.57536">
        <ele>389.762745</ele>
        <time>2021-08-17T13:00:49.704Z</time>
      </trkpt>
      <trkpt lat="41.38244" lon="41.57487">
        <ele>392.838494</ele>
        <time>2021-08-17T13:01:19.900Z</time>
      </trkpt>
      <trkpt lat="41.38232" lon="41.57456">
        <ele>394.897137</ele>
        <time>2021-08-17T13:01:42.518Z</time>
      </trkpt>
      <trkpt lat="41.38217" lon="41.57419">
        <ele>396.288142</ele>
        <time>2021-08-17T13:02:05.693Z</time>
      </trkpt>
      <trkpt lat="41.38205" lon="41.57391">
        <ele>397.197328</ele>
        <time>2021-08-17T13:02:20.066Z</time>
      </trkpt>
      <trkpt lat="41.38201" lon="41.57341">
        <ele>398.620831</ele>
        <time>2021-08-17T13:02:43.652Z</time>
      </trkpt>
      <trkpt lat="41.38209" lon="41.57285">
        <ele>400.218847</ele>
        <time>2021-08-17T13:03:03.398Z</time>
      </trkpt>
      <trkpt lat="41.38221" lon="41.5725">
        <ele>401.292237</ele>
        <time>2021-08-17T13:03:11.986Z</time>
      </trkpt>
      <trkpt lat="41.38256" lon="41.57191">
        <ele>402.43013</ele>
        <time>2021-08-17T13:03:28.133Z</time>
      </trkpt>
      <trkpt lat="41.38286" lon="41.57161">
        <ele>402.828689</ele>
        <time>2021-08-17T13:03:40.631Z</time>
      </trkpt>
      <trkpt lat="41.38331" lon="41.57117">
        <ele>403.42325</ele>
        <time>2021-08-17T13:04:00.801Z</time>
      </trkpt>
      <trkpt lat="41.38364" lon="41.57062">
        <ele>403.986838</ele>
        <time>2021-08-17T13:04:24.554Z</time>
      </trkpt>
      <trkpt lat="41.38393" lon="41.56991">
        <ele>404.707362</ele>
        <time>2021-08-17T13:04:52.806Z</time>
      </trkpt>
      <trkpt lat="41.38403" lon="41.56955">
        <ele>405.051955</ele>
        <time>2021-08-17T13:05:04.995Z</time>
      </trkpt>
      <trkpt lat="41.38408" lon="41.5693">
        <ele>405.282478</ele>
        <time>2021-08-17T13:05:12.510Z</time>
      </trkpt>
      <trkpt lat="41.38415" lon="41.5689">
        <ele>405.645641</ele>
        <time>2021-08-17T13:05:23.129Z</time>
      </trkpt>
      <trkpt lat="41.38418" lon="41.56871">
        <ele>405.819857</ele>
        <time>2021-08-17T13:05:28.520Z</time>
      </trkpt>
      <trkpt lat="41.38417" lon="41.56818">
        <ele>405.661102</ele>
        <time>2021-08-17T13:05:41.096Z</time>
      </trkpt>
      <trkpt lat="41.38381" lon="41.56546">
        <ele>399.527436</ele>
        <time>2021-08-17T13:06:31.019Z</time>
      </trkpt>
      <trkpt lat="41.38419" lon="41.55792">
        <ele>373.977451</ele>
        <time>2021-08-17T13:08:38.802Z</time>
      </trkpt>
      <trkpt lat="41.38436" lon="41.54931">
        <ele>343.90306</ele>
        <time>2021-08-17T13:11:04.360Z</time>
      </trkpt>
      <trkpt lat="41.38469" lon="41.53773">
        <ele>303.499971</ele>
        <time>2021-08-17T13:14:20.289Z</time>
      </trkpt>
      <trkpt lat="41.38509" lon="41.52756">
        <ele>268.004257</ele>
        <time>2021-08-17T13:17:12.478Z</time>
      </trkpt>
      <trkpt lat="41.3856" lon="41.51201">
        <ele>213.900131</ele>
        <time>2021-08-17T13:21:35.845Z</time>
      </trkpt>
      <trkpt lat="41.38552" lon="41.51049">
        <ele>208.694981</ele>
        <time>2021-08-17T13:22:01.625Z</time>
      </trkpt>
      <trkpt lat="41.38535" lon="41.50926">
        <ele>204.579426</ele>
        <time>2021-08-17T13:22:22.802Z</time>
      </trkpt>
      <trkpt lat="41.38492" lon="41.50714">
        <ele>199.022323</ele>
        <time>2021-08-17T13:23:01.019Z</time>
      </trkpt>
      <trkpt lat="41.38482" lon="41.5068">
        <ele>198.221443</ele>
        <time>2021-08-17T13:23:07.705Z</time>
      </trkpt>
      <trkpt lat="41.38458" lon="41.50587">
        <ele>197.871657</ele>
        <time>2021-08-17T13:23:27.698Z</time>
      </trkpt>
      <trkpt lat="41.38437" lon="41.50491">
        <ele>199.450609</ele>
        <time>2021-08-17T13:23:58.031Z</time>
      </trkpt>
      <trkpt lat="41.38394" lon="41.50324">
        <ele>203.009449</ele>
        <time>2021-08-17T13:25:15.351Z</time>
      </trkpt>
      <trkpt lat="41.38378" lon="41.50225">
        <ele>205.553774</ele>
        <time>2021-08-17T13:26:07.187Z</time>
      </trkpt>
      <trkpt lat="41.38371" lon="41.50139">
        <ele>205.260775</ele>
        <time>2021-08-17T13:26:25.395Z</time>
      </trkpt>
      <trkpt lat="41.38366" lon="41.50042">
        <ele>200.407782</ele>
        <time>2021-08-17T13:26:40.630Z</time>
      </trkpt>
      <trkpt lat="41.38366" lon="41.50004">
        <ele>198.510897</ele>
        <time>2021-08-17T13:26:46.140Z</time>
      </trkpt>
      <trkpt lat="41.38366" lon="41.49971">
        <ele>196.887782</ele>
        <time>2021-08-17T13:26:50.929Z</time>
      </trkpt>
      <trkpt lat="41.38369" lon="41.49911">
        <ele>194.071842</ele>
        <time>2021-08-17T13:26:59.662Z</time>
      </trkpt>
      <trkpt lat="41.38386" lon="41.4979">
        <ele>189.029258</ele>
        <time>2021-08-17T13:27:18.337Z</time>
      </trkpt>
      <trkpt lat="41.38407" lon="41.49673">
        <ele>185.514611</ele>
        <time>2021-08-17T13:27:44.984Z</time>
      </trkpt>
      <trkpt lat="41.38471" lon="41.49468">
        <ele>188.969189</ele>
        <time>2021-08-17T13:29:04.486Z</time>
      </trkpt>
      <trkpt lat="41.38566" lon="41.49262">
        <ele>193.454649</ele>
        <time>2021-08-17T13:30:30.747Z</time>
      </trkpt>
      <trkpt lat="41.38631" lon="41.49134">
        <ele>191.158179</ele>
        <time>2021-08-17T13:31:25.168Z</time>
      </trkpt>
      <trkpt lat="41.38725" lon="41.48965">
        <ele>172.901448</ele>
        <time>2021-08-17T13:31:56.290Z</time>
      </trkpt>
      <trkpt lat="41.38743" lon="41.48933">
        <ele>167.808254</ele>
        <time>2021-08-17T13:32:01.617Z</time>
      </trkpt>
      <trkpt lat="41.3877" lon="41.48884">
        <ele>160.061929</ele>
        <time>2021-08-17T13:32:09.734Z</time>
      </trkpt>
      <trkpt lat="41.3879" lon="41.4883">
        <ele>151.296022</ele>
        <time>2021-08-17T13:32:17.728Z</time>
      </trkpt>
      <trkpt lat="41.38805" lon="41.4878">
        <ele>143.324175</ele>
        <time>2021-08-17T13:32:24.940Z</time>
      </trkpt>
      <trkpt lat="41.38811" lon="41.48756">
        <ele>139.657582</ele>
        <time>2021-08-17T13:32:28.253Z</time>
      </trkpt>
      <trkpt lat="41.38837" lon="41.48625">
        <ele>122.863564</ele>
        <time>2021-08-17T13:32:46.737Z</time>
      </trkpt>
      <trkpt lat="41.38843" lon="41.48563">
        <ele>120.132563</ele>
        <time>2021-08-17T13:32:57.133Z</time>
      </trkpt>
      <trkpt lat="41.38852" lon="41.48496">
        <ele>117.150285</ele>
        <time>2021-08-17T13:33:09.068Z</time>
      </trkpt>
      <trkpt lat="41.38918" lon="41.48075">
        <ele>105.506486</ele>
        <time>2021-08-17T13:34:22.321Z</time>
      </trkpt>
      <trkpt lat="41.38921" lon="41.48052">
        <ele>105.019975</ele>
        <time>2021-08-17T13:34:27.527Z</time>
      </trkpt>
      <trkpt lat="41.38928" lon="41.48018">
        <ele>104.299931</ele>
        <time>2021-08-17T13:34:33.580Z</time>
      </trkpt>
      <trkpt lat="41.38936" lon="41.47997">
        <ele>103.836264</ele>
        <time>2021-08-17T13:34:40.421Z</time>
      </trkpt>
      <trkpt lat="41.38937" lon="41.47995">
        <ele>103.778442</ele>
        <time>2021-08-17T13:34:40.792Z</time>
      </trkpt>
      <trkpt lat="41.38939" lon="41.4799">
        <ele>103.664595</ele>
        <time>2021-08-17T13:34:41.679Z</time>
      </trkpt>
      <trkpt lat="41.3894" lon="41.47975">
        <ele>103.3574</ele>
        <time>2021-08-17T13:34:44.354Z</time>
      </trkpt>
      <trkpt lat="41.3894" lon="41.47969">
        <ele>103.239519</ele>
        <time>2021-08-17T13:34:45.256Z</time>
      </trkpt>
      <trkpt lat="41.38934" lon="41.47958">
        <ele>102.955311</ele>
        <time>2021-08-17T13:34:50.767Z</time>
      </trkpt>
      <trkpt lat="41.38923" lon="41.4793">
        <ele>102.347829</ele>
        <time>2021-08-17T13:34:55.656Z</time>
      </trkpt>
      <trkpt lat="41.3892" lon="41.47886">
        <ele>101.483566</ele>
        <time>2021-08-17T13:35:03.453Z</time>
      </trkpt>
      <trkpt lat="41.38921" lon="41.4786">
        <ele>100.980954</ele>
        <time>2021-08-17T13:35:08.517Z</time>
      </trkpt>
      <trkpt lat="41.38945" lon="41.47692">
        <ele>97.228573</ele>
        <time>2021-08-17T13:35:39.524Z</time>
      </trkpt>
      <trkpt lat="41.38974" lon="41.476">
        <ele>93.849068</ele>
        <time>2021-08-17T13:35:55.429Z</time>
      </trkpt>
      <trkpt lat="41.38992" lon="41.47522">
        <ele>91.108309</ele>
        <time>2021-08-17T13:36:08.387Z</time>
      </trkpt>
      <trkpt lat="41.3899" lon="41.47456">
        <ele>88.52399</ele>
        <time>2021-08-17T13:36:18.817Z</time>
      </trkpt>
      <trkpt lat="41.38973" lon="41.47313">
        <ele>82.129535</ele>
        <time>2021-08-17T13:36:41.932Z</time>
      </trkpt>
      <trkpt lat="41.38983" lon="41.47233">
        <ele>78.236114</ele>
        <time>2021-08-17T13:36:53.848Z</time>
      </trkpt>
      <trkpt lat="41.39007" lon="41.47114">
        <ele>71.273398</ele>
        <time>2021-08-17T13:37:11.996Z</time>
      </trkpt>
      <trkpt lat="41.3901" lon="41.47094">
        <ele>70.102475</ele>
        <time>2021-08-17T13:37:14.948Z</time>
      </trkpt>
      <trkpt lat="41.39019" lon="41.47096">
        <ele>69.440583</ele>
        <time>2021-08-17T13:37:16.700Z</time>
      </trkpt>
      <trkpt lat="41.39049" lon="41.47106">
        <ele>67.115581</ele>
        <time>2021-08-17T13:37:22.818Z</time>
      </trkpt>
      <trkpt lat="41.39062" lon="41.4711">
        <ele>66.057357</ele>
        <time>2021-08-17T13:37:25.861Z</time>
      </trkpt>
      <trkpt lat="41.39065" lon="41.47086">
        <ele>65.339612</ele>
        <time>2021-08-17T13:37:29.380Z</time>
      </trkpt>
      <trkpt lat="41.39061" lon="41.46991">
        <ele>62.636655</ele>
        <time>2021-08-17T13:37:44.288Z</time>
      </trkpt>
      <trkpt lat="41.3906" lon="41.46949">
        <ele>61.426375</ele>
        <time>2021-08-17T13:37:51.657Z</time>
      </trkpt>
      <trkpt lat="41.39066" lon="41.46923">
        <ele>60.667629</ele>
        <time>2021-08-17T13:37:57.023Z</time>
      </trkpt>
      <trkpt lat="41.39088" lon="41.46868">
        <ele>59.060716</ele>
        <time>2021-08-17T13:38:10.030Z</time>
      </trkpt>
      <trkpt lat="41.39094" lon="41.46768">
        <ele>57.99063</ele>
        <time>2021-08-17T13:38:30.085Z</time>
      </trkpt>
      <trkpt lat="41.39122" lon="41.46699">
        <ele>57.161492</ele>
        <time>2021-08-17T13:38:44.977Z</time>
      </trkpt>
      <trkpt lat="41.39122" lon="41.46668">
        <ele>56.834326</ele>
        <time>2021-08-17T13:38:50.779Z</time>
      </trkpt>
      <trkpt lat="41.39128" lon="41.46637">
        <ele>56.542849</ele>
        <time>2021-08-17T13:38:56.955Z</time>
      </trkpt>
      <trkpt lat="41.39123" lon="41.46605">
        <ele>56.352942</ele>
        <time>2021-08-17T13:39:03.091Z</time>
      </trkpt>
      <trkpt lat="41.39124" lon="41.46556">
        <ele>56.064859</ele>
        <time>2021-08-17T13:39:12.715Z</time>
      </trkpt>
      <trkpt lat="41.39101" lon="41.46474">
        <ele>55.549178</ele>
        <time>2021-08-17T13:39:31.616Z</time>
      </trkpt>
      <trkpt lat="41.39085" lon="41.4646">
        <ele>55.395645</ele>
        <time>2021-08-17T13:39:37.491Z</time>
      </trkpt>
      <trkpt lat="41.39058" lon="41.46414">
        <ele>55.157882</ele>
        <time>2021-08-17T13:39:50.958Z</time>
      </trkpt>
      <trkpt lat="41.39032" lon="41.46353">
        <ele>55.038691</ele>
        <time>2021-08-17T13:40:08.018Z</time>
      </trkpt>
      <trkpt lat="41.39019" lon="41.46325">
        <ele>54.983714</ele>
        <time>2021-08-17T13:40:15.718Z</time>
      </trkpt>
      <trkpt lat="41.39004" lon="41.46271">
        <ele>54.887028</ele>
        <time>2021-08-17T13:40:28.786Z</time>
      </trkpt>
      <trkpt lat="41.39011" lon="41.46234">
        <ele>54.822985</ele>
        <time>2021-08-17T13:40:37.104Z</time>
      </trkpt>
      <trkpt lat="41.39009" lon="41.46225">
        <ele>54.806508</ele>
        <time>2021-08-17T13:40:39.204Z</time>
      </trkpt>
      <trkpt lat="41.38998" lon="41.46216">
        <ele>54.651436</ele>
        <time>2021-08-17T13:40:42.870Z</time>
      </trkpt>
      <trkpt lat="41.38988" lon="41.46197">
        <ele>54.340623</ele>
        <time>2021-08-17T13:40:47.723Z</time>
      </trkpt>
      <trkpt lat="41.38981" lon="41.46115">
        <ele>53.267838</ele>
        <time>2021-08-17T13:41:03.342Z</time>
      </trkpt>
      <trkpt lat="41.38974" lon="41.46104">
        <ele>53.078706</ele>
        <time>2021-08-17T13:41:05.964Z</time>
      </trkpt>
      <trkpt lat="41.38943" lon="41.46079">
        <ele>52.445117</ele>
        <time>2021-08-17T13:41:14.793Z</time>
      </trkpt>
      <trkpt lat="41.38926" lon="41.46055">
        <ele>52.009021</ele>
        <time>2021-08-17T13:41:20.834Z</time>
      </trkpt>
      <trkpt lat="41.38915" lon="41.46028">
        <ele>51.591982</ele>
        <time>2021-08-17T13:41:26.346Z</time>
      </trkpt>
      <trkpt lat="41.3892" lon="41.46009">
        <ele>51.245379</ele>
        <time>2021-08-17T13:41:29.898Z</time>
      </trkpt>
      <trkpt lat="41.3893" lon="41.45992">
        <ele>50.858105</ele>
        <time>2021-08-17T13:41:33.780Z</time>
      </trkpt>
      <trkpt lat="41.38937" lon="41.45955">
        <ele>50.184301</ele>
        <time>2021-08-17T13:41:40.619Z</time>
      </trkpt>
      <trkpt lat="41.38946" lon="41.45942">
        <ele>49.873241</ele>
        <time>2021-08-17T13:41:43.786Z</time>
      </trkpt>
      <trkpt lat="41.38968" lon="41.45938">
        <ele>49.349296</ele>
        <time>2021-08-17T13:41:49.107Z</time>
      </trkpt>
      <trkpt lat="41.3898" lon="41.4593">
        <ele>49.036694</ele>
        <time>2021-08-17T13:41:52.251Z</time>
      </trkpt>
      <trkpt lat="41.38985" lon="41.45916">
        <ele>48.760838</ele>
        <time>2021-08-17T13:41:55.076Z</time>
      </trkpt>
      <trkpt lat="41.38983" lon="41.45905">
        <ele>48.568922</ele>
        <time>2021-08-17T13:41:57.003Z</time>
      </trkpt>
      <trkpt lat="41.38943" lon="41.45872">
        <ele>47.454977</ele>
        <time>2021-08-17T13:42:08.343Z</time>
      </trkpt>
      <trkpt lat="41.38938" lon="41.45853">
        <ele>47.195052</ele>
        <time>2021-08-17T13:42:12.051Z</time>
      </trkpt>
      <trkpt lat="41.38942" lon="41.45838">
        <ele>47.006188</ele>
        <time>2021-08-17T13:42:14.900Z</time>
      </trkpt>
      <trkpt lat="41.38961" lon="41.45801">
        <ele>46.468349</ele>
        <time>2021-08-17T13:42:23.115Z</time>
      </trkpt>
      <trkpt lat="41.3896" lon="41.45791">
        <ele>46.34617</ele>
        <time>2021-08-17T13:42:24.995Z</time>
      </trkpt>
      <trkpt lat="41.38936" lon="41.45757">
        <ele>45.778354</ele>
        <time>2021-08-17T13:42:33.892Z</time>
      </trkpt>
      <trkpt lat="41.38915" lon="41.4568">
        <ele>44.781009</ele>
        <time>2021-08-17T13:42:50.110Z</time>
      </trkpt>
      <trkpt lat="41.3891" lon="41.45648">
        <ele>44.472312</ele>
        <time>2021-08-17T13:42:56.568Z</time>
      </trkpt>
      <trkpt lat="41.38911" lon="41.45605">
        <ele>44.297266</ele>
        <time>2021-08-17T13:43:05.575Z</time>
      </trkpt>
      <trkpt lat="41.38904" lon="41.45574">
        <ele>44.169132</ele>
        <time>2021-08-17T13:43:12.342Z</time>
      </trkpt>
      <trkpt lat="41.38911" lon="41.45553">
        <ele>44.076359</ele>
        <time>2021-08-17T13:43:17.405Z</time>
      </trkpt>
      <trkpt lat="41.38911" lon="41.45537">
        <ele>44.013475</ele>
        <time>2021-08-17T13:43:20.786Z</time>
      </trkpt>
      <trkpt lat="41.38896" lon="41.45467">
        <ele>43.722274</ele>
        <time>2021-08-17T13:43:36.857Z</time>
      </trkpt>
      <trkpt lat="41.38897" lon="41.4542">
        <ele>43.543442</ele>
        <time>2021-08-17T13:43:47.619Z</time>
      </trkpt>
      <trkpt lat="41.38913" lon="41.45382">
        <ele>43.479307</ele>
        <time>2021-08-17T13:43:57.740Z</time>
      </trkpt>
      <trkpt lat="41.38893" lon="41.45304">
        <ele>43.358689</ele>
        <time>2021-08-17T13:44:16.340Z</time>
      </trkpt>
      <trkpt lat="41.38891" lon="41.45275">
        <ele>43.316546</ele>
        <time>2021-08-17T13:44:22.983Z</time>
      </trkpt>
      <trkpt lat="41.38896" lon="41.45249">
        <ele>43.277873</ele>
        <time>2021-08-17T13:44:29.110Z</time>
      </trkpt>
      <trkpt lat="41.38915" lon="41.45205">
        <ele>43.203174</ele>
        <time>2021-08-17T13:44:41.150Z</time>
      </trkpt>
      <trkpt lat="41.38917" lon="41.45186">
        <ele>43.156359</ele>
        <time>2021-08-17T13:44:45.371Z</time>
      </trkpt>
      <trkpt lat="41.3891" lon="41.45161">
        <ele>43.090548</ele>
        <time>2021-08-17T13:44:51.141Z</time>
      </trkpt>
      <trkpt lat="41.38913" lon="41.45137">
        <ele>43.028612</ele>
        <time>2021-08-17T13:44:56.436Z</time>
      </trkpt>
      <trkpt lat="41.38919" lon="41.45121">
        <ele>42.984294</ele>
        <time>2021-08-17T13:45:00.400Z</time>
      </trkpt>
      <trkpt lat="41.38954" lon="41.45096">
        <ele>42.849175</ele>
        <time>2021-08-17T13:45:12.043Z</time>
      </trkpt>
      <trkpt lat="41.3898" lon="41.45074">
        <ele>42.747045</ele>
        <time>2021-08-17T13:45:20.996Z</time>
      </trkpt>
      <trkpt lat="41.38985" lon="41.45051">
        <ele>42.687974</ele>
        <time>2021-08-17T13:45:26.018Z</time>
      </trkpt>
      <trkpt lat="41.38985" lon="41.45037">
        <ele>42.651672</ele>
        <time>2021-08-17T13:45:29.233Z</time>
      </trkpt>
      <trkpt lat="41.38981" lon="41.45021">
        <ele>42.608978</ele>
        <time>2021-08-17T13:45:33.109Z</time>
      </trkpt>
      <trkpt lat="41.38964" lon="41.45005">
        <ele>42.565003</ele>
        <time>2021-08-17T13:45:39.275Z</time>
      </trkpt>
      <trkpt lat="41.3893" lon="41.44999">
        <ele>42.502451</ele>
        <time>2021-08-17T13:45:49.624Z</time>
      </trkpt>
      <trkpt lat="41.3887" lon="41.45013">
        <ele>42.389902</ele>
        <time>2021-08-17T13:46:07.971Z</time>
      </trkpt>
      <trkpt lat="41.38864" lon="41.45003">
        <ele>42.372464</ele>
        <time>2021-08-17T13:46:10.693Z</time>
      </trkpt>
      <trkpt lat="41.38871" lon="41.44944">
        <ele>42.288835</ele>
        <time>2021-08-17T13:46:24.744Z</time>
      </trkpt>
      <trkpt lat="41.38886" lon="41.44889">
        <ele>41.935449</ele>
        <time>2021-08-17T13:46:38.106Z</time>
      </trkpt>
      <trkpt lat="41.389" lon="41.44863">
        <ele>41.667499</ele>
        <time>2021-08-17T13:46:45.402Z</time>
      </trkpt>
      <trkpt lat="41.38933" lon="41.44833">
        <ele>41.22753</ele>
        <time>2021-08-17T13:46:56.696Z</time>
      </trkpt>
      <trkpt lat="41.38957" lon="41.44759">
        <ele>40.568014</ele>
        <time>2021-08-17T13:47:12.281Z</time>
      </trkpt>
      <trkpt lat="41.38957" lon="41.4472">
        <ele>40.144364</ele>
        <time>2021-08-17T13:47:19.480Z</time>
      </trkpt>
      <trkpt lat="41.38934" lon="41.44629">
        <ele>37.759188</ele>
        <time>2021-08-17T13:47:36.211Z</time>
      </trkpt>
      <trkpt lat="41.3885" lon="41.44486">
        <ele>33.420622</ele>
        <time>2021-08-17T13:48:06.256Z</time>
      </trkpt>
      <trkpt lat="41.38842" lon="41.44467">
        <ele>32.973802</ele>
        <time>2021-08-17T13:48:09.837Z</time>
      </trkpt>
      <trkpt lat="41.38827" lon="41.44431">
        <ele>32.122307</ele>
        <time>2021-08-17T13:48:16.859Z</time>
      </trkpt>
      <trkpt lat="41.3882" lon="41.44405">
        <ele>31.552177</ele>
        <time>2021-08-17T13:48:21.692Z</time>
      </trkpt>
      <trkpt lat="41.38803" lon="41.44102">
        <ele>27.420063</ele>
        <time>2021-08-17T13:49:19.680Z</time>
      </trkpt>
      <trkpt lat="41.38798" lon="41.44074">
        <ele>27.139368</ele>
        <time>2021-08-17T13:49:26.005Z</time>
      </trkpt>
      <trkpt lat="41.38787" lon="41.44046">
        <ele>27.015239</ele>
        <time>2021-08-17T13:49:33.188Z</time>
      </trkpt>
      <trkpt lat="41.38787" lon="41.44017">
        <ele>27.017978</ele>
        <time>2021-08-17T13:49:39.722Z</time>
      </trkpt>
      <trkpt lat="41.38804" lon="41.4395">
        <ele>27.024767</ele>
        <time>2021-08-17T13:49:56.583Z</time>
      </trkpt>
      <trkpt lat="41.38801" lon="41.43894">
        <ele>27.030082</ele>
        <time>2021-08-17T13:50:10.127Z</time>
      </trkpt>
      <trkpt lat="41.38807" lon="41.43804">
        <ele>27.060581</ele>
        <time>2021-08-17T13:50:32.559Z</time>
      </trkpt>
      <trkpt lat="41.38818" lon="41.43768">
        <ele>27.097123</ele>
        <time>2021-08-17T13:50:42.030Z</time>
      </trkpt>
      <trkpt lat="41.3882" lon="41.43718">
        <ele>27.144077</ele>
        <time>2021-08-17T13:50:53.713Z</time>
      </trkpt>
      <trkpt lat="41.38835" lon="41.43625">
        <ele>27.23358</ele>
        <time>2021-08-17T13:51:16.053Z</time>
      </trkpt>
      <trkpt lat="41.38845" lon="41.43598">
        <ele>27.261666</ele>
        <time>2021-08-17T13:51:23.202Z</time>
      </trkpt>
      <trkpt lat="41.38865" lon="41.4358">
        <ele>27.149143</ele>
        <time>2021-08-17T13:51:31.096Z</time>
      </trkpt>
      <trkpt lat="41.38871" lon="41.43561">
        <ele>27.080079</ele>
        <time>2021-08-17T13:51:36.376Z</time>
      </trkpt>
      <trkpt lat="41.38878" lon="41.43533">
        <ele>26.980861</ele>
        <time>2021-08-17T13:51:43.417Z</time>
      </trkpt>
      <trkpt lat="41.38884" lon="41.4351">
        <ele>26.900068</ele>
        <time>2021-08-17T13:51:49.709Z</time>
      </trkpt>
      <trkpt lat="41.38902" lon="41.43413">
        <ele>26.560103</ele>
        <time>2021-08-17T13:52:10.710Z</time>
      </trkpt>
      <trkpt lat="41.38912" lon="41.43397">
        <ele>26.489336</ele>
        <time>2021-08-17T13:52:15.250Z</time>
      </trkpt>
      <trkpt lat="41.38924" lon="41.43392">
        <ele>26.36086</ele>
        <time>2021-08-17T13:52:18.211Z</time>
      </trkpt>
      <trkpt lat="41.3896" lon="41.43395">
        <ele>25.507924</ele>
        <time>2021-08-17T13:52:27.302Z</time>
      </trkpt>
      <trkpt lat="41.38979" lon="41.43381">
        <ele>24.994069</ele>
        <time>2021-08-17T13:52:33.061Z</time>
      </trkpt>
      <trkpt lat="41.38984" lon="41.43371">
        <ele>24.784467</ele>
        <time>2021-08-17T13:52:36.328Z</time>
      </trkpt>
      <trkpt lat="41.38988" lon="41.43365">
        <ele>24.652772</ele>
        <time>2021-08-17T13:52:37.392Z</time>
      </trkpt>
      <trkpt lat="41.38984" lon="41.43325">
        <ele>23.940433</ele>
        <time>2021-08-17T13:52:45.495Z</time>
      </trkpt>
      <trkpt lat="41.3896" lon="41.4328">
        <ele>22.955756</ele>
        <time>2021-08-17T13:52:54.606Z</time>
      </trkpt>
      <trkpt lat="41.38959" lon="41.43192">
        <ele>21.336064</ele>
        <time>2021-08-17T13:53:09.933Z</time>
      </trkpt>
      <trkpt lat="41.38965" lon="41.43123">
        <ele>19.978097</ele>
        <time>2021-08-17T13:53:21.731Z</time>
      </trkpt>
      <trkpt lat="41.38972" lon="41.43086">
        <ele>19.25484</ele>
        <time>2021-08-17T13:53:28.491Z</time>
      </trkpt>
      <trkpt lat="41.38997" lon="41.43023">
        <ele>17.865688</ele>
        <time>2021-08-17T13:53:41.976Z</time>
      </trkpt>
      <trkpt lat="41.39029" lon="41.42982">
        <ele>17.223806</ele>
        <time>2021-08-17T13:53:53.528Z</time>
      </trkpt>
      <trkpt lat="41.39046" lon="41.42948">
        <ele>16.891756</ele>
        <time>2021-08-17T13:54:01.807Z</time>
      </trkpt>
      <trkpt lat="41.39076" lon="41.42815">
        <ele>15.768265</ele>
        <time>2021-08-17T13:54:30.233Z</time>
      </trkpt>
      <trkpt lat="41.3908" lon="41.42782">
        <ele>15.53239</ele>
        <time>2021-08-17T13:54:37.328Z</time>
      </trkpt>
      <trkpt lat="41.39068" lon="41.42785">
        <ele>15.43225</ele>
        <time>2021-08-17T13:54:40.444Z</time>
      </trkpt>
      <trkpt lat="41.39041" lon="41.42779">
        <ele>15.198143</ele>
        <time>2021-08-17T13:54:48.080Z</time>
      </trkpt>
      <trkpt lat="41.39026" lon="41.42779">
        <ele>15.076012</ele>
        <time>2021-08-17T13:54:52.028Z</time>
      </trkpt>
      <trkpt lat="41.39015" lon="41.4278">
        <ele>14.983792</ele>
        <time>2021-08-17T13:54:55.100Z</time>
      </trkpt>
      <trkpt lat="41.38956" lon="41.4278">
        <ele>14.494478</ele>
        <time>2021-08-17T13:55:10.934Z</time>
      </trkpt>
      <trkpt lat="41.38937" lon="41.42769">
        <ele>14.314845</ele>
        <time>2021-08-17T13:55:16.869Z</time>
      </trkpt>
      <trkpt lat="41.38923" lon="41.42735">
        <ele>14.106507</ele>
        <time>2021-08-17T13:55:24.653Z</time>
      </trkpt>
      <trkpt lat="41.38861" lon="41.42591">
        <ele>13.632616</ele>
        <time>2021-08-17T13:56:02.561Z</time>
      </trkpt>
      <trkpt lat="41.38795" lon="41.4245">
        <ele>13.008423</ele>
        <time>2021-08-17T13:56:38.542Z</time>
      </trkpt>
      <trkpt lat="41.38803" lon="41.4245">
        <ele>12.962952</ele>
        <time>2021-08-17T13:56:40.814Z</time>
      </trkpt>
      <trkpt lat="41.38806" lon="41.42329">
        <ele>12.439589</ele>
        <time>2021-08-17T13:57:07.377Z</time>
      </trkpt>
      <trkpt lat="41.38832" lon="41.42249">
        <ele>12.117599</ele>
        <time>2021-08-17T13:57:27.164Z</time>
      </trkpt>
      <trkpt lat="41.38832" lon="41.42238">
        <ele>12.079603</ele>
        <time>2021-08-17T13:57:29.420Z</time>
      </trkpt>
      <trkpt lat="41.38831" lon="41.42231">
        <ele>12.052775</ele>
        <time>2021-08-17T13:57:31.114Z</time>
      </trkpt>
      <trkpt lat="41.38826" lon="41.42175">
        <ele>11.844938</ele>
        <time>2021-08-17T13:57:43.985Z</time>
      </trkpt>
      <trkpt lat="41.38823" lon="41.42159">
        <ele>11.78634</ele>
        <time>2021-08-17T13:57:47.864Z</time>
      </trkpt>
      <trkpt lat="41.38818" lon="41.42141">
        <ele>11.716216</ele>
        <time>2021-08-17T13:57:52.275Z</time>
      </trkpt>
      <trkpt lat="41.38813" lon="41.42117">
        <ele>11.623587</ele>
        <time>2021-08-17T13:57:58.065Z</time>
      </trkpt>
      <trkpt lat="41.38813" lon="41.42028">
        <ele>11.40468</ele>
        <time>2021-08-17T13:58:18.107Z</time>
      </trkpt>
      <trkpt lat="41.38814" lon="41.42001">
        <ele>11.348987</ele>
        <time>2021-08-17T13:58:24.449Z</time>
      </trkpt>
      <trkpt lat="41.38829" lon="41.42003">
        <ele>11.30976</ele>
        <time>2021-08-17T13:58:28.818Z</time>
      </trkpt>
      <trkpt lat="41.38905" lon="41.41953">
        <ele>11.077427</ele>
        <time>2021-08-17T13:58:55.945Z</time>
      </trkpt>
      <trkpt lat="41.3891" lon="41.41951">
        <ele>11.061214</ele>
        <time>2021-08-17T13:58:57.572Z</time>
      </trkpt>
      <trkpt lat="41.38872" lon="41.41825">
        <ele>11.300843</ele>
        <time>2021-08-17T13:59:28.777Z</time>
      </trkpt>
      <trkpt lat="41.38844" lon="41.41797">
        <ele>11.392633</ele>
        <time>2021-08-17T13:59:40.109Z</time>
      </trkpt>
      <trkpt lat="41.38834" lon="41.41794">
        <ele>11.418097</ele>
        <time>2021-08-17T13:59:43.329Z</time>
      </trkpt>
      <trkpt lat="41.3886" lon="41.4164">
        <ele>12.787245</ele>
        <time>2021-08-17T14:00:33.690Z</time>
      </trkpt>
      <trkpt lat="41.38836" lon="41.41616">
        <ele>13.262665</ele>
        <time>2021-08-17T14:00:46.385Z</time>
      </trkpt>
      <trkpt lat="41.38802" lon="41.41584">
        <ele>13.927024</ele>
        <time>2021-08-17T14:01:02.838Z</time>
      </trkpt>
      <trkpt lat="41.38796" lon="41.41578">
        <ele>14.047768</ele>
        <time>2021-08-17T14:01:06.025Z</time>
      </trkpt>
      <trkpt lat="41.3879" lon="41.41563">
        <ele>14.25001</ele>
        <time>2021-08-17T14:01:11.016Z</time>
      </trkpt>
      <trkpt lat="41.38778" lon="41.41532">
        <ele>14.774892</ele>
        <time>2021-08-17T14:01:21.878Z</time>
      </trkpt>
      <trkpt lat="41.38769" lon="41.4147">
        <ele>15.805183</ele>
        <time>2021-08-17T14:01:41.593Z</time>
      </trkpt>
      <trkpt lat="41.38773" lon="41.41429">
        <ele>16.480177</ele>
        <time>2021-08-17T14:01:55.157Z</time>
      </trkpt>
      <trkpt lat="41.38831" lon="41.41316">
        <ele>19.335126</ele>
        <time>2021-08-17T14:02:41.375Z</time>
      </trkpt>
      <trkpt lat="41.38728" lon="41.41177">
        <ele>27.128884</ele>
        <time>2021-08-17T14:04:11.554Z</time>
      </trkpt>
      <trkpt lat="41.38636" lon="41.41043">
        <ele>37.058702</ele>
        <time>2021-08-17T14:05:58.547Z</time>
      </trkpt>
      <trkpt lat="41.38584" lon="41.40957">
        <ele>42.33658</ele>
        <time>2021-08-17T14:06:58.602Z</time>
      </trkpt>
      <trkpt lat="41.38466" lon="41.40738">
        <ele>46.828829</ele>
        <time>2021-08-17T14:08:34.977Z</time>
      </trkpt>
      <trkpt lat="41.38343" lon="41.40548">
        <ele>38.778257</ele>
        <time>2021-08-17T14:09:15.591Z</time>
      </trkpt>
      <trkpt lat="41.38256" lon="41.40445">
        <ele>29.066113</ele>
        <time>2021-08-17T14:09:37.489Z</time>
      </trkpt>
      <trkpt lat="41.38161" lon="41.4034">
        <ele>18.636045</ele>
        <time>2021-08-17T14:10:01.223Z</time>
      </trkpt>
      <trkpt lat="41.38106" lon="41.40283">
        <ele>13.197361</ele>
        <time>2021-08-17T14:10:15.188Z</time>
      </trkpt>
      <trkpt lat="41.38082" lon="41.40254">
        <ele>12.814678</ele>
        <time>2021-08-17T14:10:21.810Z</time>
      </trkpt>
      <trkpt lat="41.38057" lon="41.40222">
        <ele>12.403212</ele>
        <time>2021-08-17T14:10:29.608Z</time>
      </trkpt>
      <trkpt lat="41.38048" lon="41.40206">
        <ele>12.230591</ele>
        <time>2021-08-17T14:10:33.906Z</time>
      </trkpt>
      <trkpt lat="41.38043" lon="41.4019">
        <ele>12.070921</ele>
        <time>2021-08-17T14:10:38.784Z</time>
      </trkpt>
      <trkpt lat="41.38067" lon="41.40172">
        <ele>11.741793</ele>
        <time>2021-08-17T14:10:48.732Z</time>
      </trkpt>
      <trkpt lat="41.38085" lon="41.40159">
        <ele>11.507548</ele>
        <time>2021-08-17T14:10:56.316Z</time>
      </trkpt>
      <trkpt lat="41.38105" lon="41.40146">
        <ele>11.240034</ele>
        <time>2021-08-17T14:11:07.679Z</time>
      </trkpt>
      <trkpt lat="41.38113" lon="41.40138">
        <ele>11.187757</ele>
        <time>2021-08-17T14:11:11.131Z</time>
      </trkpt>
      <trkpt lat="41.38103" lon="41.40115">
        <ele>12.372293</ele>
        <time>2021-08-17T14:11:21.711Z</time>
      </trkpt>
      <trkpt lat="41.38083" lon="41.40048">
        <ele>15.641022</ele>
        <time>2021-08-17T14:11:50.811Z</time>
      </trkpt>
      <trkpt lat="41.3802" lon="41.39668">
        <ele>35.438288</ele>
        <time>2021-08-17T14:15:31.767Z</time>
      </trkpt>
      <trkpt lat="41.37854" lon="41.39051">
        <ele>49.035583</ele>
        <time>2021-08-17T14:19:17.549Z</time>
      </trkpt>
      <trkpt lat="41.37835" lon="41.38942">
        <ele>50.291514</ele>
        <time>2021-08-17T14:19:47.920Z</time>
      </trkpt>
      <trkpt lat="41.37833" lon="41.38863">
        <ele>50.821688</ele>
        <time>2021-08-17T14:20:08.642Z</time>
      </trkpt>
      <trkpt lat="41.37845" lon="41.38659">
        <ele>51.540814</ele>
        <time>2021-08-17T14:21:04.074Z</time>
      </trkpt>
      <trkpt lat="41.37842" lon="41.3859">
        <ele>51.565958</ele>
        <time>2021-08-17T14:21:21.969Z</time>
      </trkpt>
      <trkpt lat="41.37822" lon="41.38491">
        <ele>50.469171</ele>
        <time>2021-08-17T14:21:44.169Z</time>
      </trkpt>
      <trkpt lat="41.37702" lon="41.3806">
        <ele>31.425483</ele>
        <time>2021-08-17T14:22:56.000Z</time>
      </trkpt>
      <trkpt lat="41.37684" lon="41.37963">
        <ele>24.961919</ele>
        <time>2021-08-17T14:23:10.069Z</time>
      </trkpt>
      <trkpt lat="41.37677" lon="41.37929">
        <ele>22.712979</ele>
        <time>2021-08-17T14:23:15.023Z</time>
      </trkpt>
      <trkpt lat="41.37675" lon="41.37908">
        <ele>21.366717</ele>
        <time>2021-08-17T14:23:18.181Z</time>
      </trkpt>
      <trkpt lat="41.3767" lon="41.37855">
        <ele>17.914472</ele>
        <time>2021-08-17T14:23:26.193Z</time>
      </trkpt>
      <trkpt lat="41.37673" lon="41.37796">
        <ele>17.585103</ele>
        <time>2021-08-17T14:23:35.610Z</time>
      </trkpt>
      <trkpt lat="41.37684" lon="41.37727">
        <ele>18.730242</ele>
        <time>2021-08-17T14:23:50.445Z</time>
      </trkpt>
      <trkpt lat="41.37733" lon="41.3755">
        <ele>22.884171</ele>
        <time>2021-08-17T14:25:32.160Z</time>
      </trkpt>
      <trkpt lat="41.37745" lon="41.37481">
        <ele>25.256735</ele>
        <time>2021-08-17T14:26:04.372Z</time>
      </trkpt>
      <trkpt lat="41.37755" lon="41.37387">
        <ele>28.459337</ele>
        <time>2021-08-17T14:26:39.945Z</time>
      </trkpt>
      <trkpt lat="41.37764" lon="41.37047">
        <ele>30.166696</ele>
        <time>2021-08-17T14:28:01.837Z</time>
      </trkpt>
      <trkpt lat="41.37764" lon="41.36834">
        <ele>32.00943</ele>
        <time>2021-08-17T14:29:00.010Z</time>
      </trkpt>
      <trkpt lat="41.37755" lon="41.36603">
        <ele>36.89872</ele>
        <time>2021-08-17T14:30:20.025Z</time>
      </trkpt>
      <trkpt lat="41.37735" lon="41.3635">
        <ele>46.973493</ele>
        <time>2021-08-17T14:32:16.721Z</time>
      </trkpt>
      <trkpt lat="41.3773" lon="41.36093">
        <ele>60.564649</ele>
        <time>2021-08-17T14:34:38.073Z</time>
      </trkpt>
      <trkpt lat="41.3772" lon="41.35996">
        <ele>66.056229</ele>
        <time>2021-08-17T14:35:33.231Z</time>
      </trkpt>
      <trkpt lat="41.37693" lon="41.35853">
        <ele>74.360169</ele>
        <time>2021-08-17T14:36:51.144Z</time>
      </trkpt>
      <trkpt lat="41.37674" lon="41.35791">
        <ele>78.115604</ele>
        <time>2021-08-17T14:37:30.632Z</time>
      </trkpt>
      <trkpt lat="41.37642" lon="41.35703">
        <ele>82.72727</ele>
        <time>2021-08-17T14:38:29.282Z</time>
      </trkpt>
      <trkpt lat="41.37587" lon="41.35583">
        <ele>82.993247</ele>
        <time>2021-08-17T14:39:21.498Z</time>
      </trkpt>
      <trkpt lat="41.37496" lon="41.3534">
        <ele>70.722238</ele>
        <time>2021-08-17T14:40:01.760Z</time>
      </trkpt>
      <trkpt lat="41.37434" lon="41.35146">
        <ele>54.907669</ele>
        <time>2021-08-17T14:40:31.215Z</time>
      </trkpt>
      <trkpt lat="41.37403" lon="41.35071">
        <ele>48.614684</ele>
        <time>2021-08-17T14:40:43.775Z</time>
      </trkpt>
      <trkpt lat="41.37387" lon="41.35014">
        <ele>46.979959</ele>
        <time>2021-08-17T14:40:53.525Z</time>
      </trkpt>
      <trkpt lat="41.37369" lon="41.34923">
        <ele>44.495201</ele>
        <time>2021-08-17T14:41:10.580Z</time>
      </trkpt>
      <trkpt lat="41.37311" lon="41.34671">
        <ele>37.679947</ele>
        <time>2021-08-17T14:41:59.164Z</time>
      </trkpt>
      <trkpt lat="41.37283" lon="41.34391">
        <ele>24.444773</ele>
        <time>2021-08-17T14:42:41.646Z</time>
      </trkpt>
      <trkpt lat="41.3727" lon="41.34314">
        <ele>22.05117</ele>
        <time>2021-08-17T14:42:53.492Z</time>
      </trkpt>
      <trkpt lat="41.37218" lon="41.34149">
        <ele>17.725129</ele>
        <time>2021-08-17T14:43:24.277Z</time>
      </trkpt>
      <trkpt lat="41.37182" lon="41.34076">
        <ele>22.100017</ele>
        <time>2021-08-17T14:43:56.265Z</time>
      </trkpt>
      <trkpt lat="41.37138" lon="41.34001">
        <ele>26.877344</ele>
        <time>2021-08-17T14:44:52.493Z</time>
      </trkpt>
      <trkpt lat="41.3711" lon="41.33966">
        <ele>29.443724</ele>
        <time>2021-08-17T14:45:31.251Z</time>
      </trkpt>
      <trkpt lat="41.36983" lon="41.33801">
        <ele>50.988145</ele>
        <time>2021-08-17T14:48:47.666Z</time>
      </trkpt>
      <trkpt lat="41.36703" lon="41.33434">
        <ele>56.417083</ele>
        <time>2021-08-17T14:51:22.735Z</time>
      </trkpt>
      <trkpt lat="41.3664" lon="41.33345">
        <ele>50.324628</ele>
        <time>2021-08-17T14:51:41.045Z</time>
      </trkpt>
      <trkpt lat="41.36541" lon="41.33185">
        <ele>40.813018</ele>
        <time>2021-08-17T14:52:10.413Z</time>
      </trkpt>
      <trkpt lat="41.36484" lon="41.3308">
        <ele>36.652536</ele>
        <time>2021-08-17T14:52:35.579Z</time>
      </trkpt>
      <trkpt lat="41.36474" lon="41.33073">
        <ele>37.098986</ele>
        <time>2021-08-17T14:52:45.162Z</time>
      </trkpt>
      <trkpt lat="41.36468" lon="41.33072">
        <ele>37.347818</ele>
        <time>2021-08-17T14:52:46.701Z</time>
      </trkpt>
      <trkpt lat="41.36454" lon="41.33084">
        <ele>38.019619</ele>
        <time>2021-08-17T14:52:51.052Z</time>
      </trkpt>
      <trkpt lat="41.3645" lon="41.33088">
        <ele>38.19615</ele>
        <time>2021-08-17T14:52:56.872Z</time>
      </trkpt>
      <trkpt lat="41.36441" lon="41.331">
        <ele>38.706367</ele>
        <time>2021-08-17T14:53:04.880Z</time>
      </trkpt>
      <trkpt lat="41.36429" lon="41.33104">
        <ele>39.197317</ele>
        <time>2021-08-17T14:53:07.665Z</time>
      </trkpt>
      <trkpt lat="41.36424" lon="41.33104">
        <ele>39.383675</ele>
        <time>2021-08-17T14:53:11.609Z</time>
      </trkpt>
      <trkpt lat="41.36397" lon="41.33071">
        <ele>40.859968</ele>
        <time>2021-08-17T14:53:34.957Z</time>
      </trkpt>
      <trkpt lat="41.36355" lon="41.32998">
        <ele>43.239183</ele>
        <time>2021-08-17T14:54:29.286Z</time>
      </trkpt>
      <trkpt lat="41.36298" lon="41.32888">
        <ele>44.128423</ele>
        <time>2021-08-17T14:55:12.375Z</time>
      </trkpt>
      <trkpt lat="41.3618" lon="41.32669">
        <ele>39.818663</ele>
        <time>2021-08-17T14:56:00.017Z</time>
      </trkpt>
      <trkpt lat="41.36166" lon="41.32641">
        <ele>38.89439</ele>
        <time>2021-08-17T14:56:05.457Z</time>
      </trkpt>
      <trkpt lat="41.36149" lon="41.32611">
        <ele>37.906001</ele>
        <time>2021-08-17T14:56:11.486Z</time>
      </trkpt>
      <trkpt lat="41.36131" lon="41.32574">
        <ele>36.802932</ele>
        <time>2021-08-17T14:56:18.884Z</time>
      </trkpt>
      <trkpt lat="41.36114" lon="41.32535">
        <ele>35.690513</ele>
        <time>2021-08-17T14:56:26.425Z</time>
      </trkpt>
      <trkpt lat="41.36092" lon="41.32485">
        <ele>34.261859</ele>
        <time>2021-08-17T14:56:36.168Z</time>
      </trkpt>
      <trkpt lat="41.36016" lon="41.32304">
        <ele>29.704567</ele>
        <time>2021-08-17T14:57:13.429Z</time>
      </trkpt>
      <trkpt lat="41.35974" lon="41.32174">
        <ele>26.789118</ele>
        <time>2021-08-17T14:57:38.135Z</time>
      </trkpt>
      <trkpt lat="41.35972" lon="41.32168">
        <ele>26.630002</ele>
        <time>2021-08-17T14:57:39.163Z</time>
      </trkpt>
      <trkpt lat="41.35965" lon="41.32141">
        <ele>25.97065</ele>
        <time>2021-08-17T14:57:44.400Z</time>
      </trkpt>
      <trkpt lat="41.35956" lon="41.32107">
        <ele>25.117221</ele>
        <time>2021-08-17T14:57:50.677Z</time>
      </trkpt>
      <trkpt lat="41.35941" lon="41.32039">
        <ele>23.465784</ele>
        <time>2021-08-17T14:58:03.006Z</time>
      </trkpt>
      <trkpt lat="41.35936" lon="41.32017">
        <ele>22.94444</ele>
        <time>2021-08-17T14:58:06.658Z</time>
      </trkpt>
      <trkpt lat="41.35935" lon="41.32013">
        <ele>22.834259</ele>
        <time>2021-08-17T14:58:08.159Z</time>
      </trkpt>
      <trkpt lat="41.35931" lon="41.31996">
        <ele>22.434032</ele>
        <time>2021-08-17T14:58:11.036Z</time>
      </trkpt>
      <trkpt lat="41.35905" lon="41.31919">
        <ele>20.369775</ele>
        <time>2021-08-17T14:58:25.637Z</time>
      </trkpt>
      <trkpt lat="41.35848" lon="41.31799">
        <ele>16.881762</ele>
        <time>2021-08-17T14:58:49.514Z</time>
      </trkpt>
      <trkpt lat="41.35828" lon="41.31766">
        <ele>15.861465</ele>
        <time>2021-08-17T14:58:56.763Z</time>
      </trkpt>
      <trkpt lat="41.35816" lon="41.31748">
        <ele>15.55309</ele>
        <time>2021-08-17T14:59:00.883Z</time>
      </trkpt>
      <trkpt lat="41.35782" lon="41.31698">
        <ele>14.657738</ele>
        <time>2021-08-17T14:59:13.554Z</time>
      </trkpt>
      <trkpt lat="41.35729" lon="41.31618">
        <ele>13.255479</ele>
        <time>2021-08-17T14:59:33.902Z</time>
      </trkpt>
      <trkpt lat="41.3571" lon="41.3163">
        <ele>12.880102</ele>
        <time>2021-08-17T14:59:41.087Z</time>
      </trkpt>
      <trkpt lat="41.35697" lon="41.31639">
        <ele>12.761997</ele>
        <time>2021-08-17T14:59:44.821Z</time>
      </trkpt>
      <trkpt lat="41.35692" lon="41.31638">
        <ele>12.767639</ele>
        <time>2021-08-17T14:59:47.135Z</time>
      </trkpt>
      <trkpt lat="41.35685" lon="41.31638">
        <ele>12.77613</ele>
        <time>2021-08-17T14:59:49.337Z</time>
      </trkpt>
      <trkpt lat="41.35672" lon="41.31629">
        <ele>12.794391</ele>
        <time>2021-08-17T14:59:53.003Z</time>
      </trkpt>
      <trkpt lat="41.35599" lon="41.31529">
        <ele>12.925032</ele>
        <time>2021-08-17T15:00:25.223Z</time>
      </trkpt>
      <trkpt lat="41.3557" lon="41.31475">
        <ele>13.223129</ele>
        <time>2021-08-17T15:00:46.849Z</time>
      </trkpt>
      <trkpt lat="41.35567" lon="41.3147">
        <ele>13.360101</ele>
        <time>2021-08-17T15:00:49.122Z</time>
      </trkpt>
      <trkpt lat="41.35559" lon="41.31454">
        <ele>13.776848</ele>
        <time>2021-08-17T15:00:55.623Z</time>
      </trkpt>
      <trkpt lat="41.35551" lon="41.31438">
        <ele>14.195401</ele>
        <time>2021-08-17T15:01:02.057Z</time>
      </trkpt>
      <trkpt lat="41.35521" lon="41.31375">
        <ele>15.816394</ele>
        <time>2021-08-17T15:01:27.096Z</time>
      </trkpt>
      <trkpt lat="41.3551" lon="41.3135">
        <ele>16.428577</ele>
        <time>2021-08-17T15:01:38.047Z</time>
      </trkpt>
      <trkpt lat="41.35487" lon="41.31311">
        <ele>17.501954</ele>
        <time>2021-08-17T15:01:57.955Z</time>
      </trkpt>
      <trkpt lat="41.35488" lon="41.31306">
        <ele>17.619583</ele>
        <time>2021-08-17T15:01:59.821Z</time>
      </trkpt>
      <trkpt lat="41.35492" lon="41.31272">
        <ele>18.283418</ele>
        <time>2021-08-17T15:02:15.843Z</time>
      </trkpt>
      <trkpt lat="41.355" lon="41.31257">
        <ele>18.504333</ele>
        <time>2021-08-17T15:02:24.368Z</time>
      </trkpt>
      <trkpt lat="41.35506" lon="41.31248">
        <ele>18.652773</ele>
        <time>2021-08-17T15:02:29.434Z</time>
      </trkpt>
      <trkpt lat="41.35498" lon="41.31234">
        <ele>18.874549</ele>
        <time>2021-08-17T15:02:38.860Z</time>
      </trkpt>
      <trkpt lat="41.35435" lon="41.31126">
        <ele>20.544145</ele>
        <time>2021-08-17T15:03:21.055Z</time>
      </trkpt>
      <trkpt lat="41.35413" lon="41.31088">
        <ele>20.996312</ele>
        <time>2021-08-17T15:03:30.342Z</time>
      </trkpt>
      <trkpt lat="41.35387" lon="41.31042">
        <ele>18.866555</ele>
        <time>2021-08-17T15:03:40.414Z</time>
      </trkpt>
      <trkpt lat="41.35375" lon="41.3102">
        <ele>17.839114</ele>
        <time>2021-08-17T15:03:44.619Z</time>
      </trkpt>
      <trkpt lat="41.35322" lon="41.30908">
        <ele>12.873024</ele>
        <time>2021-08-17T15:04:05.286Z</time>
      </trkpt>
      <trkpt lat="41.35317" lon="41.30894">
        <ele>12.265152</ele>
        <time>2021-08-17T15:04:07.561Z</time>
      </trkpt>
      <trkpt lat="41.35337" lon="41.30884">
        <ele>11.087103</ele>
        <time>2021-08-17T15:04:12.056Z</time>
      </trkpt>
      <trkpt lat="41.35355" lon="41.30876">
        <ele>10.050972</ele>
        <time>2021-08-17T15:04:15.664Z</time>
      </trkpt>
      <trkpt lat="41.35418" lon="41.30854">
        <ele>6.525034</ele>
        <time>2021-08-17T15:04:29.018Z</time>
      </trkpt>
      <trkpt lat="41.35422" lon="41.30854">
        <ele>6.290986</ele>
        <time>2021-08-17T15:04:29.818Z</time>
      </trkpt>
      <trkpt lat="41.35433" lon="41.30854">
        <ele>5.681527</ele>
        <time>2021-08-17T15:04:32.369Z</time>
      </trkpt>
      <trkpt lat="41.35446" lon="41.30855">
        <ele>4.979385</ele>
        <time>2021-08-17T15:04:35.227Z</time>
      </trkpt>
      <trkpt lat="41.35455" lon="41.30853">
        <ele>4.496907</ele>
        <time>2021-08-17T15:04:36.945Z</time>
      </trkpt>
      <trkpt lat="41.35465" lon="41.30847">
        <ele>3.921847</ele>
        <time>2021-08-17T15:04:39.174Z</time>
      </trkpt>
      <trkpt lat="41.35474" lon="41.30836">
        <ele>3.239841</ele>
        <time>2021-08-17T15:04:42.209Z</time>
      </trkpt>
      <trkpt lat="41.35456" lon="41.3079">
        <ele>2.119411</ele>
        <time>2021-08-17T15:04:51.603Z</time>
      </trkpt>
      <trkpt lat="41.35432" lon="41.30719">
        <ele>1.555687</ele>
        <time>2021-08-17T15:05:06.634Z</time>
      </trkpt>
      <trkpt lat="41.35385" lon="41.30577">
        <ele>0.68929</ele>
        <time>2021-08-17T15:05:43.910Z</time>
      </trkpt>
      <trkpt lat="41.35338" lon="41.30386">
        <ele>1.343265</ele>
        <time>2021-08-17T15:06:34.909Z</time>
      </trkpt>
      <trkpt lat="41.35291" lon="41.30129">
        <ele>2.42473</ele>
        <time>2021-08-17T15:07:43.317Z</time>
      </trkpt>
      <trkpt lat="41.35267" lon="41.30033">
        <ele>2.51591</ele>
        <time>2021-08-17T15:08:08.785Z</time>
      </trkpt>
      <trkpt lat="41.35235" lon="41.29939">
        <ele>2.608647</ele>
        <time>2021-08-17T15:08:33.043Z</time>
      </trkpt>
      <trkpt lat="41.35195" lon="41.29852">
        <ele>3.152191</ele>
        <time>2021-08-17T15:08:55.316Z</time>
      </trkpt>
      <trkpt lat="41.35164" lon="41.29799">
        <ele>3.60342</ele>
        <time>2021-08-17T15:09:09.879Z</time>
      </trkpt>
      <trkpt lat="41.35131" lon="41.29747">
        <ele>4.060221</ele>
        <time>2021-08-17T15:09:27.304Z</time>
      </trkpt>
      <trkpt lat="41.35048" lon="41.29625">
        <ele>10.196205</ele>
        <time>2021-08-17T15:10:42.703Z</time>
      </trkpt>
      <trkpt lat="41.35025" lon="41.29585">
        <ele>12.366636</ele>
        <time>2021-08-17T15:11:09.402Z</time>
      </trkpt>
      <trkpt lat="41.35006" lon="41.29541">
        <ele>14.59089</ele>
        <time>2021-08-17T15:11:37.607Z</time>
      </trkpt>
      <trkpt lat="41.34983" lon="41.29481">
        <ele>17.469452</ele>
        <time>2021-08-17T15:12:14.659Z</time>
      </trkpt>
      <trkpt lat="41.34949" lon="41.2934">
        <ele>23.778078</ele>
        <time>2021-08-17T15:13:25.965Z</time>
      </trkpt>
      <trkpt lat="41.34944" lon="41.29265">
        <ele>25.790939</ele>
        <time>2021-08-17T15:13:50.242Z</time>
      </trkpt>
      <trkpt lat="41.34954" lon="41.29102">
        <ele>28.848393</ele>
        <time>2021-08-17T15:14:43.049Z</time>
      </trkpt>
      <trkpt lat="41.34951" lon="41.29018">
        <ele>30.506494</ele>
        <time>2021-08-17T15:15:12.486Z</time>
      </trkpt>
      <trkpt lat="41.34931" lon="41.28925">
        <ele>32.446999</ele>
        <time>2021-08-17T15:15:47.213Z</time>
      </trkpt>
      <trkpt lat="41.34894" lon="41.28811">
        <ele>34.437911</ele>
        <time>2021-08-17T15:16:30.178Z</time>
      </trkpt>
      <trkpt lat="41.34849" lon="41.2866">
        <ele>35.652656</ele>
        <time>2021-08-17T15:17:16.094Z</time>
      </trkpt>
      <trkpt lat="41.34811" lon="41.28505">
        <ele>34.666826</ele>
        <time>2021-08-17T15:17:48.740Z</time>
      </trkpt>
      <trkpt lat="41.34776" lon="41.28288">
        <ele>33.033719</ele>
        <time>2021-08-17T15:18:30.569Z</time>
      </trkpt>
      <trkpt lat="41.34738" lon="41.28001">
        <ele>34.136928</ele>
        <time>2021-08-17T15:19:43.835Z</time>
      </trkpt>
      <trkpt lat="41.34697" lon="41.27863">
        <ele>36.961433</ele>
        <time>2021-08-17T15:20:38.775Z</time>
      </trkpt>
      <trkpt lat="41.34462" lon="41.27352">
        <ele>52.148075</ele>
        <time>2021-08-17T15:24:39.277Z</time>
      </trkpt>
      <trkpt lat="41.34431" lon="41.27265">
        <ele>51.785189</ele>
        <time>2021-08-17T15:24:57.484Z</time>
      </trkpt>
      <trkpt lat="41.34387" lon="41.27089">
        <ele>46.602208</ele>
        <time>2021-08-17T15:25:26.972Z</time>
      </trkpt>
      <trkpt lat="41.34363" lon="41.27017">
        <ele>45.933811</ele>
        <time>2021-08-17T15:25:40.193Z</time>
      </trkpt>
      <trkpt lat="41.34325" lon="41.26932">
        <ele>45.362685</ele>
        <time>2021-08-17T15:25:59.443Z</time>
      </trkpt>
      <trkpt lat="41.34106" lon="41.265">
        <ele>52.862314</ele>
        <time>2021-08-17T15:29:14.313Z</time>
      </trkpt>
      <trkpt lat="41.34031" lon="41.26363">
        <ele>42.988262</ele>
        <time>2021-08-17T15:29:40.024Z</time>
      </trkpt>
      <trkpt lat="41.33932" lon="41.26149">
        <ele>20.454317</ele>
        <time>2021-08-17T15:30:14.445Z</time>
      </trkpt>
      <trkpt lat="41.33897" lon="41.26083">
        <ele>12.404311</ele>
        <time>2021-08-17T15:30:25.580Z</time>
      </trkpt>
      <trkpt lat="41.33857" lon="41.26025">
        <ele>9.787718</ele>
        <time>2021-08-17T15:30:37.179Z</time>
      </trkpt>
      <trkpt lat="41.33812" lon="41.2596">
        <ele>7.360098</ele>
        <time>2021-08-17T15:30:52.059Z</time>
      </trkpt>
      <trkpt lat="41.33771" lon="41.25912">
        <ele>5.342793</ele>
        <time>2021-08-17T15:31:10.390Z</time>
      </trkpt>
      <trkpt lat="41.33673" lon="41.25822">
        <ele>11.398289</ele>
        <time>2021-08-17T15:32:16.540Z</time>
      </trkpt>
      <trkpt lat="41.33628" lon="41.25792">
        <ele>14.17887</ele>
        <time>2021-08-17T15:32:54.079Z</time>
      </trkpt>
      <trkpt lat="41.33531" lon="41.25742">
        <ele>24.718225</ele>
        <time>2021-08-17T15:34:22.732Z</time>
      </trkpt>
      <trkpt lat="41.33436" lon="41.25685">
        <ele>35.715226</ele>
        <time>2021-08-17T15:36:10.300Z</time>
      </trkpt>
      <trkpt lat="41.3337" lon="41.25623">
        <ele>42.563997</ele>
        <time>2021-08-17T15:37:25.980Z</time>
      </trkpt>
      <trkpt lat="41.33315" lon="41.25574">
        <ele>48.212106</ele>
        <time>2021-08-17T15:38:08.633Z</time>
      </trkpt>
      <trkpt lat="41.33268" lon="41.25532">
        <ele>50.73796</ele>
        <time>2021-08-17T15:38:38.486Z</time>
      </trkpt>
      <trkpt lat="41.33224" lon="41.25499">
        <ele>51.997453</ele>
        <time>2021-08-17T15:38:59.675Z</time>
      </trkpt>
      <trkpt lat="41.33216" lon="41.25493">
        <ele>52.218535</ele>
        <time>2021-08-17T15:39:01.954Z</time>
      </trkpt>
      <trkpt lat="41.33094" lon="41.25404">
        <ele>56.533393</ele>
        <time>2021-08-17T15:40:00.174Z</time>
      </trkpt>
      <trkpt lat="41.3295" lon="41.25282">
        <ele>62.102647</ele>
        <time>2021-08-17T15:41:44.634Z</time>
      </trkpt>
      <trkpt lat="41.32716" lon="41.25053">
        <ele>61.501653</ele>
        <time>2021-08-17T15:43:07.213Z</time>
      </trkpt>
      <trkpt lat="41.32621" lon="41.24937">
        <ele>55.825979</ele>
        <time>2021-08-17T15:43:35.075Z</time>
      </trkpt>
      <trkpt lat="41.32583" lon="41.24898">
        <ele>53.432593</ele>
        <time>2021-08-17T15:43:44.747Z</time>
      </trkpt>
      <trkpt lat="41.32539" lon="41.24855">
        <ele>50.194008</ele>
        <time>2021-08-17T15:43:55.797Z</time>
      </trkpt>
      <trkpt lat="41.32513" lon="41.24831">
        <ele>48.077914</ele>
        <time>2021-08-17T15:44:02.160Z</time>
      </trkpt>
      <trkpt lat="41.32493" lon="41.24822">
        <ele>46.629514</ele>
        <time>2021-08-17T15:44:06.483Z</time>
      </trkpt>
      <trkpt lat="41.32474" lon="41.24796">
        <ele>44.852419</ele>
        <time>2021-08-17T15:44:11.774Z</time>
      </trkpt>
      <trkpt lat="41.32429" lon="41.24749">
        <ele>40.999831</ele>
        <time>2021-08-17T15:44:23.670Z</time>
      </trkpt>
      <trkpt lat="41.32309" lon="41.24639">
        <ele>29.583066</ele>
        <time>2021-08-17T15:44:52.318Z</time>
      </trkpt>
      <trkpt lat="41.32299" lon="41.2463">
        <ele>28.608361</ele>
        <time>2021-08-17T15:44:54.664Z</time>
      </trkpt>
      <trkpt lat="41.32289" lon="41.2462">
        <ele>27.587851</ele>
        <time>2021-08-17T15:44:57.098Z</time>
      </trkpt>
      <trkpt lat="41.322" lon="41.24535">
        <ele>21.266394</ele>
        <time>2021-08-17T15:45:18.513Z</time>
      </trkpt>
      <trkpt lat="41.32151" lon="41.24483">
        <ele>17.972908</ele>
        <time>2021-08-17T15:45:31.866Z</time>
      </trkpt>
      <trkpt lat="41.32099" lon="41.24427">
        <ele>18.930901</ele>
        <time>2021-08-17T15:45:51.125Z</time>
      </trkpt>
      <trkpt lat="41.32014" lon="41.24327">
        <ele>26.842227</ele>
        <time>2021-08-17T15:47:17.393Z</time>
      </trkpt>
      <trkpt lat="41.32007" lon="41.24318">
        <ele>27.521835</ele>
        <time>2021-08-17T15:47:27.065Z</time>
      </trkpt>
      <trkpt lat="41.31962" lon="41.24269">
        <ele>32.940906</ele>
        <time>2021-08-17T15:48:33.408Z</time>
      </trkpt>
      <trkpt lat="41.31872" lon="41.2415">
        <ele>46.072689</ele>
        <time>2021-08-17T15:50:43.151Z</time>
      </trkpt>
      <trkpt lat="41.31539" lon="41.23644">
        <ele>42.93026</ele>
        <time>2021-08-17T15:52:58.259Z</time>
      </trkpt>
      <trkpt lat="41.31398" lon="41.23452">
        <ele>35.923776</ele>
        <time>2021-08-17T15:53:41.136Z</time>
      </trkpt>
      <trkpt lat="41.31313" lon="41.23327">
        <ele>35.170161</ele>
        <time>2021-08-17T15:54:16.402Z</time>
      </trkpt>
      <trkpt lat="41.31271" lon="41.23251">
        <ele>35.401214</ele>
        <time>2021-08-17T15:54:47.057Z</time>
      </trkpt>
      <trkpt lat="41.31225" lon="41.23152">
        <ele>37.071875</ele>
        <time>2021-08-17T15:55:24.979Z</time>
      </trkpt>
      <trkpt lat="41.31027" lon="41.22617">
        <ele>45.989984</ele>
        <time>2021-08-17T15:58:37.172Z</time>
      </trkpt>
      <trkpt lat="41.3096" lon="41.22496">
        <ele>44.66972</ele>
        <time>2021-08-17T15:59:14.683Z</time>
      </trkpt>
      <trkpt lat="41.30904" lon="41.22416">
        <ele>43.328462</ele>
        <time>2021-08-17T15:59:33.297Z</time>
      </trkpt>
      <trkpt lat="41.30678" lon="41.22165">
        <ele>27.063598</ele>
        <time>2021-08-17T16:00:32.298Z</time>
      </trkpt>
      <trkpt lat="41.30561" lon="41.22017">
        <ele>26.131104</ele>
        <time>2021-08-17T16:01:30.964Z</time>
      </trkpt>
      <trkpt lat="41.30528" lon="41.21957">
        <ele>27.115698</ele>
        <time>2021-08-17T16:02:00.997Z</time>
      </trkpt>
      <trkpt lat="41.30468" lon="41.21817">
        <ele>27.312965</ele>
        <time>2021-08-17T16:02:48.591Z</time>
      </trkpt>
      <trkpt lat="41.30428" lon="41.2168">
        <ele>26.600424</ele>
        <time>2021-08-17T16:03:14.975Z</time>
      </trkpt>
      <trkpt lat="41.30405" lon="41.21563">
        <ele>24.894923</ele>
        <time>2021-08-17T16:03:36.330Z</time>
      </trkpt>
      <trkpt lat="41.30369" lon="41.21386">
        <ele>24.160976</ele>
        <time>2021-08-17T16:04:15.347Z</time>
      </trkpt>
      <trkpt lat="41.30352" lon="41.21322">
        <ele>24.494385</ele>
        <time>2021-08-17T16:04:36.623Z</time>
      </trkpt>
      <trkpt lat="41.30312" lon="41.21214">
        <ele>24.886207</ele>
        <time>2021-08-17T16:05:12.774Z</time>
      </trkpt>
      <trkpt lat="41.30256" lon="41.21113">
        <ele>24.962548</ele>
        <time>2021-08-17T16:05:44.056Z</time>
      </trkpt>
      <trkpt lat="41.3022" lon="41.21059">
        <ele>24.87065</ele>
        <time>2021-08-17T16:05:58.713Z</time>
      </trkpt>
      <trkpt lat="41.30177" lon="41.21008">
        <ele>22.79834</ele>
        <time>2021-08-17T16:06:12.550Z</time>
      </trkpt>
      <trkpt lat="41.29977" lon="41.20806">
        <ele>13.982918</ele>
        <time>2021-08-17T16:07:06.269Z</time>
      </trkpt>
      <trkpt lat="41.2993" lon="41.20746">
        <ele>12.836472</ele>
        <time>2021-08-17T16:07:24.288Z</time>
      </trkpt>
      <trkpt lat="41.29922" lon="41.20735">
        <ele>13.144007</ele>
        <time>2021-08-17T16:07:27.795Z</time>
      </trkpt>
      <trkpt lat="41.29892" lon="41.20693">
        <ele>14.307962</ele>
        <time>2021-08-17T16:07:46.978Z</time>
      </trkpt>
      <trkpt lat="41.29889" lon="41.20689">
        <ele>14.432008</ele>
        <time>2021-08-17T16:07:49.406Z</time>
      </trkpt>
      <trkpt lat="41.29869" lon="41.20655">
        <ele>15.294431</ele>
        <time>2021-08-17T16:08:05.496Z</time>
      </trkpt>
      <trkpt lat="41.29849" lon="41.20619">
        <ele>16.194974</ele>
        <time>2021-08-17T16:08:23.886Z</time>
      </trkpt>
      <trkpt lat="41.29803" lon="41.2052">
        <ele>17.674299</ele>
        <time>2021-08-17T16:09:17.357Z</time>
      </trkpt>
      <trkpt lat="41.29291" lon="41.19202">
        <ele>26.464351</ele>
        <time>2021-08-17T16:15:48.137Z</time>
      </trkpt>
      <trkpt lat="41.28759" lon="41.17974">
        <ele>17.637534</ele>
        <time>2021-08-17T16:20:40.038Z</time>
      </trkpt>
      <trkpt lat="41.28691" lon="41.17766">
        <ele>15.474008</ele>
        <time>2021-08-17T16:21:21.533Z</time>
      </trkpt>
      <trkpt lat="41.28648" lon="41.17549">
        <ele>15.917613</ele>
        <time>2021-08-17T16:22:16.436Z</time>
      </trkpt>
      <trkpt lat="41.28633" lon="41.17467">
        <ele>17.321077</ele>
        <time>2021-08-17T16:22:45.565Z</time>
      </trkpt>
      <trkpt lat="41.28634" lon="41.17422">
        <ele>18.064476</ele>
        <time>2021-08-17T16:23:02.004Z</time>
      </trkpt>
      <trkpt lat="41.28632" lon="41.17357">
        <ele>19.383936</ele>
        <time>2021-08-17T16:23:26.439Z</time>
      </trkpt>
      <trkpt lat="41.28615" lon="41.17232">
        <ele>22.824261</ele>
        <time>2021-08-17T16:24:17.774Z</time>
      </trkpt>
      <trkpt lat="41.28593" lon="41.17111">
        <ele>25.888995</ele>
        <time>2021-08-17T16:25:04.291Z</time>
      </trkpt>
      <trkpt lat="41.28568" lon="41.17056">
        <ele>27.050723</ele>
        <time>2021-08-17T16:25:27.965Z</time>
      </trkpt>
      <trkpt lat="41.28558" lon="41.16992">
        <ele>28.236917</ele>
        <time>2021-08-17T16:25:51.076Z</time>
      </trkpt>
      <trkpt lat="41.28488" lon="41.16622">
        <ele>29.566694</ele>
        <time>2021-08-17T16:27:36.370Z</time>
      </trkpt>
      <trkpt lat="41.28469" lon="41.1648">
        <ele>26.186314</ele>
        <time>2021-08-17T16:27:59.555Z</time>
      </trkpt>
      <trkpt lat="41.28439" lon="41.1624">
        <ele>18.255927</ele>
        <time>2021-08-17T16:28:37.928Z</time>
      </trkpt>
      <trkpt lat="41.28438" lon="41.16229">
        <ele>17.886844</ele>
        <time>2021-08-17T16:28:40.045Z</time>
      </trkpt>
      <trkpt lat="41.28438" lon="41.16225">
        <ele>17.764045</ele>
        <time>2021-08-17T16:28:40.671Z</time>
      </trkpt>
      <trkpt lat="41.28434" lon="41.16221">
        <ele>17.573683</ele>
        <time>2021-08-17T16:28:42.769Z</time>
      </trkpt>
      <trkpt lat="41.2842" lon="41.16217">
        <ele>17.500084</ele>
        <time>2021-08-17T16:28:46.156Z</time>
      </trkpt>
      <trkpt lat="41.28412" lon="41.16226">
        <ele>17.522257</ele>
        <time>2021-08-17T16:28:48.832Z</time>
      </trkpt>
      <trkpt lat="41.2841" lon="41.16231">
        <ele>17.529933</ele>
        <time>2021-08-17T16:28:50.742Z</time>
      </trkpt>
      <trkpt lat="41.2841" lon="41.16236">
        <ele>17.53734</ele>
        <time>2021-08-17T16:28:51.976Z</time>
      </trkpt>
      <trkpt lat="41.28389" lon="41.16216">
        <ele>17.589953</ele>
        <time>2021-08-17T16:28:59.513Z</time>
      </trkpt>
      <trkpt lat="41.28358" lon="41.16037">
        <ele>17.610547</ele>
        <time>2021-08-17T16:29:55.977Z</time>
      </trkpt>
      <trkpt lat="41.28316" lon="41.15887">
        <ele>15.950035</ele>
        <time>2021-08-17T16:30:26.901Z</time>
      </trkpt>
      <trkpt lat="41.28309" lon="41.15865">
        <ele>15.69741</ele>
        <time>2021-08-17T16:30:31.008Z</time>
      </trkpt>
      <trkpt lat="41.28301" lon="41.15843">
        <ele>15.446063</ele>
        <time>2021-08-17T16:30:35.465Z</time>
      </trkpt>
      <trkpt lat="41.28273" lon="41.15765">
        <ele>13.808166</ele>
        <time>2021-08-17T16:30:50.139Z</time>
      </trkpt>
      <trkpt lat="41.28223" lon="41.15624">
        <ele>10.663917</ele>
        <time>2021-08-17T16:31:17.322Z</time>
      </trkpt>
      <trkpt lat="41.28116" lon="41.15407">
        <ele>8.481257</ele>
        <time>2021-08-17T16:32:10.168Z</time>
      </trkpt>
      <trkpt lat="41.28062" lon="41.15307">
        <ele>8.462547</ele>
        <time>2021-08-17T16:32:38.926Z</time>
      </trkpt>
      <trkpt lat="41.27963" lon="41.15142">
        <ele>8.969025</ele>
        <time>2021-08-17T16:33:30.715Z</time>
      </trkpt>
      <trkpt lat="41.27919" lon="41.1509">
        <ele>9.349781</ele>
        <time>2021-08-17T16:33:51.592Z</time>
      </trkpt>
      <trkpt lat="41.27912" lon="41.1508">
        <ele>9.418815</ele>
        <time>2021-08-17T16:33:55.438Z</time>
      </trkpt>
      <trkpt lat="41.27832" lon="41.14972">
        <ele>10.602067</ele>
        <time>2021-08-17T16:34:38.859Z</time>
      </trkpt>
      <trkpt lat="41.27817" lon="41.1495">
        <ele>10.869087</ele>
        <time>2021-08-17T16:34:47.829Z</time>
      </trkpt>
      <trkpt lat="41.27808" lon="41.14937">
        <ele>11.016426</ele>
        <time>2021-08-17T16:34:52.727Z</time>
      </trkpt>
      <trkpt lat="41.27777" lon="41.14891">
        <ele>11.560428</ele>
        <time>2021-08-17T16:35:11.136Z</time>
      </trkpt>
      <trkpt lat="41.27574" lon="41.14618">
        <ele>12.758473</ele>
        <time>2021-08-17T16:36:50.159Z</time>
      </trkpt>
      <trkpt lat="41.27325" lon="41.14307">
        <ele>10.478091</ele>
        <time>2021-08-17T16:38:23.711Z</time>
      </trkpt>
      <trkpt lat="41.27304" lon="41.1428">
        <ele>10.256968</ele>
        <time>2021-08-17T16:38:31.532Z</time>
      </trkpt>
      <trkpt lat="41.27298" lon="41.14272">
        <ele>10.191274</ele>
        <time>2021-08-17T16:38:33.858Z</time>
      </trkpt>
      <trkpt lat="41.27247" lon="41.14207">
        <ele>9.655134</ele>
        <time>2021-08-17T16:38:53.754Z</time>
      </trkpt>
      <trkpt lat="41.2709" lon="41.14007">
        <ele>8.431781</ele>
        <time>2021-08-17T16:39:56.960Z</time>
      </trkpt>
      <trkpt lat="41.26983" lon="41.13884">
        <ele>7.346043</ele>
        <time>2021-08-17T16:40:35.357Z</time>
      </trkpt>
      <trkpt lat="41.26902" lon="41.13807">
        <ele>6.921537</ele>
        <time>2021-08-17T16:41:02.660Z</time>
      </trkpt>
      <trkpt lat="41.26839" lon="41.13742">
        <ele>6.622913</ele>
        <time>2021-08-17T16:41:27.690Z</time>
      </trkpt>
      <trkpt lat="41.26834" lon="41.13738">
        <ele>6.652759</ele>
        <time>2021-08-17T16:41:29.423Z</time>
      </trkpt>
      <trkpt lat="41.26745" lon="41.13643">
        <ele>7.308284</ele>
        <time>2021-08-17T16:42:08.845Z</time>
      </trkpt>
      <trkpt lat="41.2666" lon="41.13564">
        <ele>7.888849</ele>
        <time>2021-08-17T16:42:46.313Z</time>
      </trkpt>
      <trkpt lat="41.26223" lon="41.13174">
        <ele>10.729852</ele>
        <time>2021-08-17T16:45:44.108Z</time>
      </trkpt>
      <trkpt lat="41.25947" lon="41.12907">
        <ele>13.593698</ele>
        <time>2021-08-17T16:47:46.782Z</time>
      </trkpt>
      <trkpt lat="41.25746" lon="41.12701">
        <ele>17.658893</ele>
        <time>2021-08-17T16:49:22.686Z</time>
      </trkpt>
      <trkpt lat="41.25691" lon="41.1264">
        <ele>19.431394</ele>
        <time>2021-08-17T16:49:57.958Z</time>
      </trkpt>
      <trkpt lat="41.2565" lon="41.12578">
        <ele>21.972276</ele>
        <time>2021-08-17T16:50:32.680Z</time>
      </trkpt>
      <trkpt lat="41.25587" lon="41.12452">
        <ele>27.463456</ele>
        <time>2021-08-17T16:51:44.215Z</time>
      </trkpt>
      <trkpt lat="41.25525" lon="41.12314">
        <ele>28.330863</ele>
        <time>2021-08-17T16:52:45.777Z</time>
      </trkpt>
      <trkpt lat="41.25515" lon="41.12279">
        <ele>28.27358</ele>
        <time>2021-08-17T16:52:52.328Z</time>
      </trkpt>
      <trkpt lat="41.25457" lon="41.12157">
        <ele>25.332092</ele>
        <time>2021-08-17T16:53:14.581Z</time>
      </trkpt>
      <trkpt lat="41.25452" lon="41.12143">
        <ele>24.730874</ele>
        <time>2021-08-17T16:53:17.242Z</time>
      </trkpt>
      <trkpt lat="41.2547" lon="41.12132">
        <ele>23.683362</ele>
        <time>2021-08-17T16:53:21.126Z</time>
      </trkpt>
      <trkpt lat="41.2548" lon="41.12126">
        <ele>23.130927</ele>
        <time>2021-08-17T16:53:23.440Z</time>
      </trkpt>
      <trkpt lat="41.25493" lon="41.12111">
        <ele>22.256835</ele>
        <time>2021-08-17T16:53:26.896Z</time>
      </trkpt>
      <trkpt lat="41.2549" lon="41.12104">
        <ele>21.942337</ele>
        <time>2021-08-17T16:53:28.132Z</time>
      </trkpt>
      <trkpt lat="41.25475" lon="41.12067">
        <ele>20.310027</ele>
        <time>2021-08-17T16:53:34.860Z</time>
      </trkpt>
      <trkpt lat="41.25448" lon="41.12005">
        <ele>19.113305</ele>
        <time>2021-08-17T16:53:46.636Z</time>
      </trkpt>
      <trkpt lat="41.25368" lon="41.11824">
        <ele>20.576626</ele>
        <time>2021-08-17T16:54:54.029Z</time>
      </trkpt>
      <trkpt lat="41.25303" lon="41.11683">
        <ele>23.605829</ele>
        <time>2021-08-17T16:55:56.569Z</time>
      </trkpt>
      <trkpt lat="41.25252" lon="41.1162">
        <ele>24.802597</ele>
        <time>2021-08-17T16:56:23.978Z</time>
      </trkpt>
      <trkpt lat="41.25166" lon="41.11537">
        <ele>24.457451</ele>
        <time>2021-08-17T16:56:53.718Z</time>
      </trkpt>
      <trkpt lat="41.25095" lon="41.11444">
        <ele>24.607935</ele>
        <time>2021-08-17T16:57:20.235Z</time>
      </trkpt>
      <trkpt lat="41.25025" lon="41.11322">
        <ele>25.48002</ele>
        <time>2021-08-17T16:58:01.101Z</time>
      </trkpt>
      <trkpt lat="41.24975" lon="41.112">
        <ele>28.999611</ele>
        <time>2021-08-17T16:58:54.614Z</time>
      </trkpt>
      <trkpt lat="41.24934" lon="41.11049">
        <ele>33.417447</ele>
        <time>2021-08-17T17:00:05.767Z</time>
      </trkpt>
      <trkpt lat="41.24901" lon="41.10945">
        <ele>35.395076</ele>
        <time>2021-08-17T17:00:49.290Z</time>
      </trkpt>
      <trkpt lat="41.24781" lon="41.10693">
        <ele>35.757506</ele>
        <time>2021-08-17T17:01:55.911Z</time>
      </trkpt>
      <trkpt lat="41.24658" lon="41.10454">
        <ele>30.872374</ele>
        <time>2021-08-17T17:02:46.460Z</time>
      </trkpt>
      <trkpt lat="41.24656" lon="41.10449">
        <ele>30.856975</ele>
        <time>2021-08-17T17:02:47.549Z</time>
      </trkpt>
      <trkpt lat="41.24651" lon="41.10441">
        <ele>30.827739</ele>
        <time>2021-08-17T17:02:49.570Z</time>
      </trkpt>
      <trkpt lat="41.24636" lon="41.10414">
        <ele>30.73563</ele>
        <time>2021-08-17T17:02:56.179Z</time>
      </trkpt>
      <trkpt lat="41.24429" lon="41.1008">
        <ele>31.165503</ele>
        <time>2021-08-17T17:04:45.299Z</time>
      </trkpt>
      <trkpt lat="41.24228" lon="41.09807">
        <ele>33.205321</ele>
        <time>2021-08-17T17:06:25.431Z</time>
      </trkpt>
      <trkpt lat="41.2411" lon="41.09657">
        <ele>34.14795</ele>
        <time>2021-08-17T17:07:26.663Z</time>
      </trkpt>
      <trkpt lat="41.23968" lon="41.09516">
        <ele>33.358435</ele>
        <time>2021-08-17T17:08:17.389Z</time>
      </trkpt>
      <trkpt lat="41.2387" lon="41.09408">
        <ele>31.893908</ele>
        <time>2021-08-17T17:08:49.233Z</time>
      </trkpt>
      <trkpt lat="41.23765" lon="41.09272">
        <ele>30.289696</ele>
        <time>2021-08-17T17:09:27.754Z</time>
      </trkpt>
      <trkpt lat="41.23595" lon="41.09007">
        <ele>31.766609</ele>
        <time>2021-08-17T17:10:56.297Z</time>
      </trkpt>
      <trkpt lat="41.23537" lon="41.08897">
        <ele>33.247184</ele>
        <time>2021-08-17T17:11:39.206Z</time>
      </trkpt>
      <trkpt lat="41.23456" lon="41.08683">
        <ele>36.853332</ele>
        <time>2021-08-17T17:13:02.906Z</time>
      </trkpt>
      <trkpt lat="41.23431" lon="41.08631">
        <ele>36.367091</ele>
        <time>2021-08-17T17:13:19.610Z</time>
      </trkpt>
      <trkpt lat="41.23363" lon="41.08525">
        <ele>35.249506</ele>
        <time>2021-08-17T17:13:45.551Z</time>
      </trkpt>
      <trkpt lat="41.23168" lon="41.08286">
        <ele>24.296906</ele>
        <time>2021-08-17T17:14:40.515Z</time>
      </trkpt>
      <trkpt lat="41.23012" lon="41.08052">
        <ele>24.482605</ele>
        <time>2021-08-17T17:16:08.359Z</time>
      </trkpt>
      <trkpt lat="41.22919" lon="41.07924">
        <ele>26.588268</ele>
        <time>2021-08-17T17:17:09.863Z</time>
      </trkpt>
      <trkpt lat="41.2283" lon="41.07818">
        <ele>27.849338</ele>
        <time>2021-08-17T17:17:53.620Z</time>
      </trkpt>
      <trkpt lat="41.22524" lon="41.07483">
        <ele>23.81382</ele>
        <time>2021-08-17T17:19:37.080Z</time>
      </trkpt>
      <trkpt lat="41.22338" lon="41.07262">
        <ele>23.327114</ele>
        <time>2021-08-17T17:20:53.298Z</time>
      </trkpt>
      <trkpt lat="41.2219" lon="41.07072">
        <ele>24.509098</ele>
        <time>2021-08-17T17:22:05.916Z</time>
      </trkpt>
      <trkpt lat="41.22062" lon="41.06887">
        <ele>25.649735</ele>
        <time>2021-08-17T17:23:12.222Z</time>
      </trkpt>
      <trkpt lat="41.21869" lon="41.06544">
        <ele>24.515664</ele>
        <time>2021-08-17T17:24:49.752Z</time>
      </trkpt>
      <trkpt lat="41.21799" lon="41.06395">
        <ele>22.437142</ele>
        <time>2021-08-17T17:25:21.932Z</time>
      </trkpt>
      <trkpt lat="41.21742" lon="41.0623">
        <ele>20.162393</ele>
        <time>2021-08-17T17:25:55.284Z</time>
      </trkpt>
      <trkpt lat="41.21643" lon="41.05905">
        <ele>18.653458</ele>
        <time>2021-08-17T17:27:13.720Z</time>
      </trkpt>
      <trkpt lat="41.21642" lon="41.05902">
        <ele>18.644799</ele>
        <time>2021-08-17T17:27:14.966Z</time>
      </trkpt>
      <trkpt lat="41.21639" lon="41.05888">
        <ele>18.606186</ele>
        <time>2021-08-17T17:27:17.941Z</time>
      </trkpt>
      <trkpt lat="41.21625" lon="41.05847">
        <ele>18.491127</ele>
        <time>2021-08-17T17:27:27.799Z</time>
      </trkpt>
      <trkpt lat="41.21441" lon="41.05519">
        <ele>17.524962</ele>
        <time>2021-08-17T17:28:56.682Z</time>
      </trkpt>
      <trkpt lat="41.21362" lon="41.05361">
        <ele>17.264113</ele>
        <time>2021-08-17T17:29:45.492Z</time>
      </trkpt>
      <trkpt lat="41.21328" lon="41.05266">
        <ele>17.067843</ele>
        <time>2021-08-17T17:30:09.393Z</time>
      </trkpt>
      <trkpt lat="41.21278" lon="41.05093">
        <ele>14.955619</ele>
        <time>2021-08-17T17:30:43.487Z</time>
      </trkpt>
      <trkpt lat="41.21264" lon="41.05048">
        <ele>14.327994</ele>
        <time>2021-08-17T17:30:52.410Z</time>
      </trkpt>
      <trkpt lat="41.21252" lon="41.05007">
        <ele>13.919601</ele>
        <time>2021-08-17T17:31:00.741Z</time>
      </trkpt>
      <trkpt lat="41.21177" lon="41.04767">
        <ele>13.957361</ele>
        <time>2021-08-17T17:32:03.508Z</time>
      </trkpt>
      <trkpt lat="41.21113" lon="41.04576">
        <ele>15.100757</ele>
        <time>2021-08-17T17:33:02.060Z</time>
      </trkpt>
      <trkpt lat="41.21057" lon="41.04396">
        <ele>15.241651</ele>
        <time>2021-08-17T17:33:46.549Z</time>
      </trkpt>
      <trkpt lat="41.21033" lon="41.04261">
        <ele>17.373171</ele>
        <time>2021-08-17T17:34:20.892Z</time>
      </trkpt>
      <trkpt lat="41.21023" lon="41.04151">
        <ele>19.750391</ele>
        <time>2021-08-17T17:35:10.718Z</time>
      </trkpt>
      <trkpt lat="41.21022" lon="41.04137">
        <ele>20.058601</ele>
        <time>2021-08-17T17:35:16.397Z</time>
      </trkpt>
      <trkpt lat="41.21021" lon="41.04121">
        <ele>20.394964</ele>
        <time>2021-08-17T17:35:21.451Z</time>
      </trkpt>
      <trkpt lat="41.21006" lon="41.04113">
        <ele>20.80264</ele>
        <time>2021-08-17T17:35:31.893Z</time>
      </trkpt>
      <trkpt lat="41.2099" lon="41.04112">
        <ele>21.244526</ele>
        <time>2021-08-17T17:35:39.161Z</time>
      </trkpt>
      <trkpt lat="41.2097" lon="41.04118">
        <ele>21.778823</ele>
        <time>2021-08-17T17:35:51.585Z</time>
      </trkpt>
      <trkpt lat="41.20964" lon="41.04059">
        <ele>22.945478</ele>
        <time>2021-08-17T17:36:13.085Z</time>
      </trkpt>
      <trkpt lat="41.20963" lon="41.03933">
        <ele>24.819967</ele>
        <time>2021-08-17T17:36:55.096Z</time>
      </trkpt>
      <trkpt lat="41.20979" lon="41.03724">
        <ele>21.605262</ele>
        <time>2021-08-17T17:37:31.147Z</time>
      </trkpt>
      <trkpt lat="41.20975" lon="41.03632">
        <ele>21.12311</ele>
        <time>2021-08-17T17:37:49.073Z</time>
      </trkpt>
      <trkpt lat="41.20962" lon="41.03561">
        <ele>20.850772</ele>
        <time>2021-08-17T17:38:05.329Z</time>
      </trkpt>
      <trkpt lat="41.20751" lon="41.02912">
        <ele>25.211993</ele>
        <time>2021-08-17T17:41:14.289Z</time>
      </trkpt>
      <trkpt lat="41.20741" lon="41.02865">
        <ele>25.859288</ele>
        <time>2021-08-17T17:41:30.395Z</time>
      </trkpt>
      <trkpt lat="41.20686" lon="41.02709">
        <ele>29.378003</ele>
        <time>2021-08-17T17:42:39.038Z</time>
      </trkpt>
      <trkpt lat="41.20679" lon="41.02692">
        <ele>29.824469</ele>
        <time>2021-08-17T17:42:47.460Z</time>
      </trkpt>
      <trkpt lat="41.20667" lon="41.02665">
        <ele>30.566056</ele>
        <time>2021-08-17T17:42:58.809Z</time>
      </trkpt>
      <trkpt lat="41.20636" lon="41.02598">
        <ele>31.952646</ele>
        <time>2021-08-17T17:43:26.797Z</time>
      </trkpt>
      <trkpt lat="41.20482" lon="41.02326">
        <ele>29.206681</ele>
        <time>2021-08-17T17:44:33.741Z</time>
      </trkpt>
      <trkpt lat="41.20387" lon="41.0214">
        <ele>25.947306</ele>
        <time>2021-08-17T17:45:14.182Z</time>
      </trkpt>
      <trkpt lat="41.20342" lon="41.02032">
        <ele>24.110256</ele>
        <time>2021-08-17T17:45:37.475Z</time>
      </trkpt>
      <trkpt lat="41.20264" lon="41.01877">
        <ele>22.035398</ele>
        <time>2021-08-17T17:46:13.887Z</time>
      </trkpt>
      <trkpt lat="41.20051" lon="41.01357">
        <ele>15.95569</ele>
        <time>2021-08-17T17:48:09.979Z</time>
      </trkpt>
      <trkpt lat="41.19988" lon="41.012">
        <ele>14.312951</ele>
        <time>2021-08-17T17:48:45.140Z</time>
      </trkpt>
      <trkpt lat="41.19943" lon="41.01089">
        <ele>14.037778</ele>
        <time>2021-08-17T17:49:12.218Z</time>
      </trkpt>
      <trkpt lat="41.19775" lon="41.00607">
        <ele>13.204639</ele>
        <time>2021-08-17T17:51:16.335Z</time>
      </trkpt>
      <trkpt lat="41.19701" lon="41.00362">
        <ele>12.006798</ele>
        <time>2021-08-17T17:52:11.673Z</time>
      </trkpt>
      <trkpt lat="41.19685" lon="41.00313">
        <ele>11.71283</ele>
        <time>2021-08-17T17:52:23.036Z</time>
      </trkpt>
      <trkpt lat="41.19671" lon="41.00273">
        <ele>11.459687</ele>
        <time>2021-08-17T17:52:32.425Z</time>
      </trkpt>
      <trkpt lat="41.19618" lon="41.00132">
        <ele>10.568738</ele>
        <time>2021-08-17T17:53:04.916Z</time>
      </trkpt>
      <trkpt lat="41.19614" lon="41.00123">
        <ele>10.511242</ele>
        <time>2021-08-17T17:53:07.283Z</time>
      </trkpt>
      <trkpt lat="41.1961" lon="41.00113">
        <ele>10.442899</ele>
        <time>2021-08-17T17:53:09.652Z</time>
      </trkpt>
      <trkpt lat="41.19606" lon="41.00104">
        <ele>10.384301</ele>
        <time>2021-08-17T17:53:11.861Z</time>
      </trkpt>
      <trkpt lat="41.19588" lon="41.00068">
        <ele>10.242972</ele>
        <time>2021-08-17T17:53:21.192Z</time>
      </trkpt>
      <trkpt lat="41.19547" lon="40.99989">
        <ele>9.927118</ele>
        <time>2021-08-17T17:53:42.285Z</time>
      </trkpt>
      <trkpt lat="41.19528" lon="40.99952">
        <ele>9.779183</ele>
        <time>2021-08-17T17:53:51.933Z</time>
      </trkpt>
      <trkpt lat="41.19502" lon="40.99903">
        <ele>9.592663</ele>
        <time>2021-08-17T17:54:05.025Z</time>
      </trkpt>
      <trkpt lat="41.19477" lon="40.99855">
        <ele>9.51966</ele>
        <time>2021-08-17T17:54:18.539Z</time>
      </trkpt>
      <trkpt lat="41.19494" lon="40.99836">
        <ele>9.482704</ele>
        <time>2021-08-17T17:54:25.311Z</time>
      </trkpt>
      <trkpt lat="41.19497" lon="40.99823">
        <ele>9.465029</ele>
        <time>2021-08-17T17:54:29.018Z</time>
      </trkpt>
      <trkpt lat="41.19446" lon="40.99707">
        <ele>9.29255</ele>
        <time>2021-08-17T17:55:01.632Z</time>
      </trkpt>
      <trkpt lat="41.19344" lon="40.99394">
        <ele>8.065788</ele>
        <time>2021-08-17T17:56:19.386Z</time>
      </trkpt>
      <trkpt lat="41.1934" lon="40.9938">
        <ele>7.994103</ele>
        <time>2021-08-17T17:56:22.725Z</time>
      </trkpt>
      <trkpt lat="41.19334" lon="40.99355">
        <ele>7.8711</ele>
        <time>2021-08-17T17:56:28.021Z</time>
      </trkpt>
      <trkpt lat="41.1924" lon="40.99027">
        <ele>6.357702</ele>
        <time>2021-08-17T17:57:45.751Z</time>
      </trkpt>
      <trkpt lat="41.19231" lon="40.98975">
        <ele>6.469343</ele>
        <time>2021-08-17T17:57:59.062Z</time>
      </trkpt>
      <trkpt lat="41.19224" lon="40.98969">
        <ele>6.491595</ele>
        <time>2021-08-17T17:58:01.960Z</time>
      </trkpt>
      <trkpt lat="41.19198" lon="40.98971">
        <ele>6.56218</ele>
        <time>2021-08-17T17:58:10.766Z</time>
      </trkpt>
      <trkpt lat="41.19191" lon="40.98969">
        <ele>6.583855</ele>
        <time>2021-08-17T17:58:13.798Z</time>
      </trkpt>
      <trkpt lat="41.19189" lon="40.98958">
        <ele>6.608861</ele>
        <time>2021-08-17T17:58:16.729Z</time>
      </trkpt>
      <trkpt lat="41.19185" lon="40.98925">
        <ele>6.677674</ele>
        <time>2021-08-17T17:58:25.464Z</time>
      </trkpt>
      <trkpt lat="41.19183" lon="40.98914">
        <ele>6.701406</ele>
        <time>2021-08-17T17:58:28.283Z</time>
      </trkpt>
      <trkpt lat="41.19172" lon="40.98819">
        <ele>6.931641</ele>
        <time>2021-08-17T17:58:53.602Z</time>
      </trkpt>
      <trkpt lat="41.19172" lon="40.98796">
        <ele>6.996591</ele>
        <time>2021-08-17T17:58:59.668Z</time>
      </trkpt>
      <trkpt lat="41.19105" lon="40.98255">
        <ele>8.200307</ele>
        <time>2021-08-17T18:01:15.816Z</time>
      </trkpt>
      <trkpt lat="41.191" lon="40.98246">
        <ele>8.201728</ele>
        <time>2021-08-17T18:01:18.535Z</time>
      </trkpt>
      <trkpt lat="41.19102" lon="40.98219">
        <ele>8.205189</ele>
        <time>2021-08-17T18:01:24.514Z</time>
      </trkpt>
      <trkpt lat="41.19097" lon="40.98171">
        <ele>8.2113</ele>
        <time>2021-08-17T18:01:35.354Z</time>
      </trkpt>
      <trkpt lat="41.19077" lon="40.98025">
        <ele>7.742451</ele>
        <time>2021-08-17T18:02:07.749Z</time>
      </trkpt>
      <trkpt lat="41.1906" lon="40.97889">
        <ele>7.304504</ele>
        <time>2021-08-17T18:02:37.451Z</time>
      </trkpt>
      <trkpt lat="41.19057" lon="40.97866">
        <ele>7.271224</ele>
        <time>2021-08-17T18:02:42.263Z</time>
      </trkpt>
      <trkpt lat="41.19044" lon="40.97772">
        <ele>7.129914</ele>
        <time>2021-08-17T18:03:03.787Z</time>
      </trkpt>
      <trkpt lat="41.1904" lon="40.97738">
        <ele>7.08011</ele>
        <time>2021-08-17T18:03:11.539Z</time>
      </trkpt>
      <trkpt lat="41.19012" lon="40.97528">
        <ele>7.380925</ele>
        <time>2021-08-17T18:04:03.892Z</time>
      </trkpt>
      <trkpt lat="41.19011" lon="40.97523">
        <ele>7.392996</ele>
        <time>2021-08-17T18:04:05.184Z</time>
      </trkpt>
      <trkpt lat="41.19004" lon="40.97492">
        <ele>7.474615</ele>
        <time>2021-08-17T18:04:14.399Z</time>
      </trkpt>
      <trkpt lat="41.19004" lon="40.97466">
        <ele>7.537328</ele>
        <time>2021-08-17T18:04:21.192Z</time>
      </trkpt>
      <trkpt lat="41.18987" lon="40.97321">
        <ele>7.493394</ele>
        <time>2021-08-17T18:04:56.761Z</time>
      </trkpt>
      <trkpt lat="41.18986" lon="40.97317">
        <ele>7.49062</ele>
        <time>2021-08-17T18:04:58.060Z</time>
      </trkpt>
      <trkpt lat="41.18979" lon="40.97295">
        <ele>7.473501</ele>
        <time>2021-08-17T18:05:03.182Z</time>
      </trkpt>
      <trkpt lat="41.18979" lon="40.9727">
        <ele>7.455681</ele>
        <time>2021-08-17T18:05:08.992Z</time>
      </trkpt>
      <trkpt lat="41.18978" lon="40.97259">
        <ele>7.447461</ele>
        <time>2021-08-17T18:05:11.388Z</time>
      </trkpt>
      <trkpt lat="41.18969" lon="40.97198">
        <ele>7.311685</ele>
        <time>2021-08-17T18:05:24.357Z</time>
      </trkpt>
      <trkpt lat="41.18943" lon="40.97078">
        <ele>6.453375</ele>
        <time>2021-08-17T18:05:49.870Z</time>
      </trkpt>
      <trkpt lat="41.18929" lon="40.97043">
        <ele>6.182546</ele>
        <time>2021-08-17T18:05:57.638Z</time>
      </trkpt>
      <trkpt lat="41.18925" lon="40.97015">
        <ele>5.989914</ele>
        <time>2021-08-17T18:06:03.302Z</time>
      </trkpt>
      <trkpt lat="41.18885" lon="40.96904">
        <ele>5.480242</ele>
        <time>2021-08-17T18:06:29.942Z</time>
      </trkpt>
      <trkpt lat="41.18875" lon="40.96883">
        <ele>5.403377</ele>
        <time>2021-08-17T18:06:35.131Z</time>
      </trkpt>
      <trkpt lat="41.18863" lon="40.96858">
        <ele>5.30866</ele>
        <time>2021-08-17T18:06:41.873Z</time>
      </trkpt>
      <trkpt lat="41.18843" lon="40.96804">
        <ele>5.115056</ele>
        <time>2021-08-17T18:06:55.599Z</time>
      </trkpt>
      <trkpt lat="41.18808" lon="40.96709">
        <ele>5.09847</ele>
        <time>2021-08-17T18:07:19.680Z</time>
      </trkpt>
      <trkpt lat="41.18766" lon="40.9659">
        <ele>5.252909</ele>
        <time>2021-08-17T18:07:51.887Z</time>
      </trkpt>
      <trkpt lat="41.18758" lon="40.96554">
        <ele>5.341816</ele>
        <time>2021-08-17T18:08:01.152Z</time>
      </trkpt>
      <trkpt lat="41.18756" lon="40.96548">
        <ele>5.444051</ele>
        <time>2021-08-17T18:08:02.734Z</time>
      </trkpt>
      <trkpt lat="41.18748" lon="40.9652">
        <ele>5.936294</ele>
        <time>2021-08-17T18:08:10.547Z</time>
      </trkpt>
      <trkpt lat="41.18728" lon="40.96456">
        <ele>7.0534</ele>
        <time>2021-08-17T18:08:28.459Z</time>
      </trkpt>
      <trkpt lat="41.18638" lon="40.96209">
        <ele>14.505459</ele>
        <time>2021-08-17T18:10:13.679Z</time>
      </trkpt>
      <trkpt lat="41.18636" lon="40.962">
        <ele>14.862375</ele>
        <time>2021-08-17T18:10:19.915Z</time>
      </trkpt>
      <trkpt lat="41.18634" lon="40.96192">
        <ele>15.171015</ele>
        <time>2021-08-17T18:10:25.492Z</time>
      </trkpt>
      <trkpt lat="41.18635" lon="40.96186">
        <ele>15.399909</ele>
        <time>2021-08-17T18:10:28.075Z</time>
      </trkpt>
      <trkpt lat="41.18635" lon="40.9618">
        <ele>15.629308</ele>
        <time>2021-08-17T18:10:30.975Z</time>
      </trkpt>
      <trkpt lat="41.18634" lon="40.96174">
        <ele>15.859728</ele>
        <time>2021-08-17T18:10:33.319Z</time>
      </trkpt>
      <trkpt lat="41.18631" lon="40.96169">
        <ele>16.090375</ele>
        <time>2021-08-17T18:10:36.230Z</time>
      </trkpt>
      <trkpt lat="41.18627" lon="40.96166">
        <ele>16.319702</ele>
        <time>2021-08-17T18:10:39.066Z</time>
      </trkpt>
      <trkpt lat="41.18619" lon="40.96153">
        <ele>16.9124</ele>
        <time>2021-08-17T18:10:50.360Z</time>
      </trkpt>
      <trkpt lat="41.18538" lon="40.95937">
        <ele>26.303155</ele>
        <time>2021-08-17T18:12:50.728Z</time>
      </trkpt>
      <trkpt lat="41.18469" lon="40.95773">
        <ele>26.871498</ele>
        <time>2021-08-17T18:13:36.953Z</time>
      </trkpt>
      <trkpt lat="41.18254" lon="40.95217">
        <ele>15.164199</ele>
        <time>2021-08-17T18:15:25.420Z</time>
      </trkpt>
      <trkpt lat="41.1796" lon="40.94414">
        <ele>6.653837</ele>
        <time>2021-08-17T18:18:24.522Z</time>
      </trkpt>
      <trkpt lat="41.17957" lon="40.94405">
        <ele>6.60414</ele>
        <time>2021-08-17T18:18:26.644Z</time>
      </trkpt>
      <trkpt lat="41.17947" lon="40.94379">
        <ele>6.463356</ele>
        <time>2021-08-17T18:18:32.818Z</time>
      </trkpt>
      <trkpt lat="41.17943" lon="40.94369">
        <ele>6.404476</ele>
        <time>2021-08-17T18:18:35.329Z</time>
      </trkpt>
      <trkpt lat="41.17846" lon="40.94124">
        <ele>5.330291</ele>
        <time>2021-08-17T18:19:34.541Z</time>
      </trkpt>
      <trkpt lat="41.17772" lon="40.93914">
        <ele>5.250458</ele>
        <time>2021-08-17T18:20:28.370Z</time>
      </trkpt>
      <trkpt lat="41.17764" lon="40.93892">
        <ele>5.30762</ele>
        <time>2021-08-17T18:20:34.833Z</time>
      </trkpt>
      <trkpt lat="41.17751" lon="40.93861">
        <ele>5.391267</ele>
        <time>2021-08-17T18:20:43.310Z</time>
      </trkpt>
      <trkpt lat="41.17734" lon="40.93822">
        <ele>5.495703</ele>
        <time>2021-08-17T18:20:54.162Z</time>
      </trkpt>
      <trkpt lat="41.17635" lon="40.93555">
        <ele>7.790855</ele>
        <time>2021-08-17T18:22:16.625Z</time>
      </trkpt>
      <trkpt lat="41.17616" lon="40.93498">
        <ele>8.796844</ele>
        <time>2021-08-17T18:22:37.869Z</time>
      </trkpt>
      <trkpt lat="41.17606" lon="40.9347">
        <ele>9.31928</ele>
        <time>2021-08-17T18:22:48.114Z</time>
      </trkpt>
      <trkpt lat="41.17599" lon="40.93452">
        <ele>9.643732</ele>
        <time>2021-08-17T18:22:55.877Z</time>
      </trkpt>
      <trkpt lat="41.17511" lon="40.93223">
        <ele>12.829278</ele>
        <time>2021-08-17T18:24:20.164Z</time>
      </trkpt>
      <trkpt lat="41.17502" lon="40.93175">
        <ele>13.295463</ele>
        <time>2021-08-17T18:24:32.133Z</time>
      </trkpt>
      <trkpt lat="41.17499" lon="40.93116">
        <ele>13.628801</ele>
        <time>2021-08-17T18:24:45.151Z</time>
      </trkpt>
      <trkpt lat="41.17501" lon="40.93066">
        <ele>13.308069</ele>
        <time>2021-08-17T18:24:55.751Z</time>
      </trkpt>
      <trkpt lat="41.17503" lon="40.93034">
        <ele>13.106923</ele>
        <time>2021-08-17T18:25:02.364Z</time>
      </trkpt>
      <trkpt lat="41.17511" lon="40.92977">
        <ele>12.730626</ele>
        <time>2021-08-17T18:25:14.430Z</time>
      </trkpt>
      <trkpt lat="41.17536" lon="40.92892">
        <ele>12.112485</ele>
        <time>2021-08-17T18:25:32.836Z</time>
      </trkpt>
      <trkpt lat="41.17567" lon="40.92789">
        <ele>10.660201</ele>
        <time>2021-08-17T18:25:54.726Z</time>
      </trkpt>
      <trkpt lat="41.1758" lon="40.92728">
        <ele>9.833037</ele>
        <time>2021-08-17T18:26:06.712Z</time>
      </trkpt>
      <trkpt lat="41.1758" lon="40.9263">
        <ele>8.153536</ele>
        <time>2021-08-17T18:26:24.355Z</time>
      </trkpt>
      <trkpt lat="41.17577" lon="40.9254">
        <ele>6.070568</ele>
        <time>2021-08-17T18:26:39.554Z</time>
      </trkpt>
      <trkpt lat="41.17569" lon="40.92377">
        <ele>3.834918</ele>
        <time>2021-08-17T18:27:07.495Z</time>
      </trkpt>
      <trkpt lat="41.17568" lon="40.92372">
        <ele>3.865311</ele>
        <time>2021-08-17T18:27:08.494Z</time>
      </trkpt>
      <trkpt lat="41.17566" lon="40.92302">
        <ele>4.277133</ele>
        <time>2021-08-17T18:27:24.131Z</time>
      </trkpt>
      <trkpt lat="41.17566" lon="40.92204">
        <ele>4.846853</ele>
        <time>2021-08-17T18:28:00.101Z</time>
      </trkpt>
      <trkpt lat="41.17567" lon="40.92139">
        <ele>7.046562</ele>
        <time>2021-08-17T18:28:29.327Z</time>
      </trkpt>
      <trkpt lat="41.17567" lon="40.92115">
        <ele>8.010762</ele>
        <time>2021-08-17T18:28:40.688Z</time>
      </trkpt>
      <trkpt lat="41.17569" lon="40.92055">
        <ele>10.43879</ele>
        <time>2021-08-17T18:29:11.607Z</time>
      </trkpt>
      <trkpt lat="41.17576" lon="40.91894">
        <ele>15.273982</ele>
        <time>2021-08-17T18:30:27.096Z</time>
      </trkpt>
      <trkpt lat="41.17594" lon="40.91725">
        <ele>17.328465</ele>
        <time>2021-08-17T18:31:12.345Z</time>
      </trkpt>
      <trkpt lat="41.17613" lon="40.91621">
        <ele>15.544463</ele>
        <time>2021-08-17T18:31:31.745Z</time>
      </trkpt>
      <trkpt lat="41.17646" lon="40.91498">
        <ele>13.00028</ele>
        <time>2021-08-17T18:31:54.028Z</time>
      </trkpt>
      <trkpt lat="41.17673" lon="40.9142">
        <ele>11.66073</ele>
        <time>2021-08-17T18:32:09.097Z</time>
      </trkpt>
      <trkpt lat="41.17717" lon="40.91316">
        <ele>9.886727</ele>
        <time>2021-08-17T18:32:31.180Z</time>
      </trkpt>
      <trkpt lat="41.17852" lon="40.90994">
        <ele>8.115988</ele>
        <time>2021-08-17T18:33:52.653Z</time>
      </trkpt>
      <trkpt lat="41.17863" lon="40.90967">
        <ele>8.002258</ele>
        <time>2021-08-17T18:33:59.447Z</time>
      </trkpt>
      <trkpt lat="41.17867" lon="40.90959">
        <ele>7.969369</ele>
        <time>2021-08-17T18:34:01.516Z</time>
      </trkpt>
      <trkpt lat="41.17875" lon="40.9094">
        <ele>7.889171</ele>
        <time>2021-08-17T18:34:06.049Z</time>
      </trkpt>
      <trkpt lat="41.17937" lon="40.90804">
        <ele>7.244766</ele>
        <time>2021-08-17T18:34:40.458Z</time>
      </trkpt>
      <trkpt lat="41.17985" lon="40.90723">
        <ele>6.779769</ele>
        <time>2021-08-17T18:35:02.127Z</time>
      </trkpt>
      <trkpt lat="41.17991" lon="40.90715">
        <ele>6.731925</ele>
        <time>2021-08-17T18:35:04.833Z</time>
      </trkpt>
      <trkpt lat="41.1801" lon="40.90687">
        <ele>6.561151</ele>
        <time>2021-08-17T18:35:12.552Z</time>
      </trkpt>
      <trkpt lat="41.18122" lon="40.90545">
        <ele>6.094812</ele>
        <time>2021-08-17T18:35:57.653Z</time>
      </trkpt>
      <trkpt lat="41.18134" lon="40.90527">
        <ele>6.045742</ele>
        <time>2021-08-17T18:36:03.234Z</time>
      </trkpt>
      <trkpt lat="41.18142" lon="40.90515">
        <ele>6.012496</ele>
        <time>2021-08-17T18:36:07.221Z</time>
      </trkpt>
      <trkpt lat="41.1819" lon="40.90418">
        <ele>6.67505</ele>
        <time>2021-08-17T18:36:36.323Z</time>
      </trkpt>
      <trkpt lat="41.18209" lon="40.90363">
        <ele>7.077566</ele>
        <time>2021-08-17T18:36:53.139Z</time>
      </trkpt>
      <trkpt lat="41.18234" lon="40.90263">
        <ele>8.012741</ele>
        <time>2021-08-17T18:37:24.609Z</time>
      </trkpt>
      <trkpt lat="41.18238" lon="40.90252">
        <ele>8.177055</ele>
        <time>2021-08-17T18:37:28.435Z</time>
      </trkpt>
      <trkpt lat="41.1827" lon="40.90136">
        <ele>9.922527</ele>
        <time>2021-08-17T18:38:07.973Z</time>
      </trkpt>
      <trkpt lat="41.18311" lon="40.89986">
        <ele>12.008374</ele>
        <time>2021-08-17T18:38:58.345Z</time>
      </trkpt>
      <trkpt lat="41.1832" lon="40.89955">
        <ele>12.417157</ele>
        <time>2021-08-17T18:39:08.795Z</time>
      </trkpt>
      <trkpt lat="41.18334" lon="40.89905">
        <ele>13.069375</ele>
        <time>2021-08-17T18:39:24.372Z</time>
      </trkpt>
      <trkpt lat="41.18349" lon="40.89851">
        <ele>13.77382</ele>
        <time>2021-08-17T18:39:40.907Z</time>
      </trkpt>
      <trkpt lat="41.18362" lon="40.89779">
        <ele>14.410296</ele>
        <time>2021-08-17T18:40:02.845Z</time>
      </trkpt>
      <trkpt lat="41.18363" lon="40.89686">
        <ele>15.156205</ele>
        <time>2021-08-17T18:40:28.353Z</time>
      </trkpt>
      <trkpt lat="41.18352" lon="40.89616">
        <ele>15.729358</ele>
        <time>2021-08-17T18:40:49.174Z</time>
      </trkpt>
      <trkpt lat="41.18309" lon="40.89507">
        <ele>15.723755</ele>
        <time>2021-08-17T18:41:20.642Z</time>
      </trkpt>
      <trkpt lat="41.18294" lon="40.89476">
        <ele>15.700822</ele>
        <time>2021-08-17T18:41:29.238Z</time>
      </trkpt>
      <trkpt lat="41.18263" lon="40.89421">
        <ele>15.658388</ele>
        <time>2021-08-17T18:41:43.436Z</time>
      </trkpt>
      <trkpt lat="41.18239" lon="40.89372">
        <ele>14.916156</ele>
        <time>2021-08-17T18:41:54.924Z</time>
      </trkpt>
      <trkpt lat="41.18224" lon="40.89329">
        <ele>14.027431</ele>
        <time>2021-08-17T18:42:03.901Z</time>
      </trkpt>
      <trkpt lat="41.18204" lon="40.89269">
        <ele>12.801596</ele>
        <time>2021-08-17T18:42:15.564Z</time>
      </trkpt>
      <trkpt lat="41.18179" lon="40.89195">
        <ele>11.294281</ele>
        <time>2021-08-17T18:42:29.292Z</time>
      </trkpt>
      <trkpt lat="41.18162" lon="40.89133">
        <ele>9.994034</ele>
        <time>2021-08-17T18:42:40.553Z</time>
      </trkpt>
      <trkpt lat="41.18148" lon="40.89082">
        <ele>8.909914</ele>
        <time>2021-08-17T18:42:49.929Z</time>
      </trkpt>
      <trkpt lat="41.18134" lon="40.89032">
        <ele>7.848098</ele>
        <time>2021-08-17T18:42:59.512Z</time>
      </trkpt>
      <trkpt lat="41.18108" lon="40.88916">
        <ele>6.776654</ele>
        <time>2021-08-17T18:43:22.349Z</time>
      </trkpt>
      <trkpt lat="41.18099" lon="40.88875">
        <ele>7.051157</ele>
        <time>2021-08-17T18:43:31.137Z</time>
      </trkpt>
      <trkpt lat="41.18075" lon="40.88772">
        <ele>7.749293</ele>
        <time>2021-08-17T18:44:03.295Z</time>
      </trkpt>
      <trkpt lat="41.18064" lon="40.88706">
        <ele>8.924896</ele>
        <time>2021-08-17T18:44:29.726Z</time>
      </trkpt>
      <trkpt lat="41.18056" lon="40.88653">
        <ele>10.594944</ele>
        <time>2021-08-17T18:44:52.568Z</time>
      </trkpt>
      <trkpt lat="41.18049" lon="40.88614">
        <ele>11.850745</ele>
        <time>2021-08-17T18:45:10.236Z</time>
      </trkpt>
      <trkpt lat="41.18039" lon="40.88514">
        <ele>14.995715</ele>
        <time>2021-08-17T18:45:53.071Z</time>
      </trkpt>
      <trkpt lat="41.18037" lon="40.88493">
        <ele>15.522201</ele>
        <time>2021-08-17T18:46:02.489Z</time>
      </trkpt>
      <trkpt lat="41.18032" lon="40.88438">
        <ele>16.195103</ele>
        <time>2021-08-17T18:46:25.340Z</time>
      </trkpt>
      <trkpt lat="41.18012" lon="40.88211">
        <ele>18.341814</ele>
        <time>2021-08-17T18:47:23.896Z</time>
      </trkpt>
      <trkpt lat="41.17986" lon="40.87985">
        <ele>19.297832</ele>
        <time>2021-08-17T18:48:14.672Z</time>
      </trkpt>
      <trkpt lat="41.17982" lon="40.87951">
        <ele>20.082388</ele>
        <time>2021-08-17T18:48:26.106Z</time>
      </trkpt>
      <trkpt lat="41.17984" lon="40.87905">
        <ele>21.121202</ele>
        <time>2021-08-17T18:48:42.157Z</time>
      </trkpt>
      <trkpt lat="41.17992" lon="40.87862">
        <ele>22.126121</ele>
        <time>2021-08-17T18:48:59.537Z</time>
      </trkpt>
      <trkpt lat="41.18088" lon="40.8769">
        <ele>29.332425</ele>
        <time>2021-08-17T18:50:38.091Z</time>
      </trkpt>
      <trkpt lat="41.18124" lon="40.8759">
        <ele>33.48467</ele>
        <time>2021-08-17T18:51:29.207Z</time>
      </trkpt>
      <trkpt lat="41.18137" lon="40.87488">
        <ele>36.032513</ele>
        <time>2021-08-17T18:52:12.107Z</time>
      </trkpt>
      <trkpt lat="41.1814" lon="40.87391">
        <ele>38.439443</ele>
        <time>2021-08-17T18:52:46.047Z</time>
      </trkpt>
      <trkpt lat="41.18113" lon="40.87301">
        <ele>38.673014</ele>
        <time>2021-08-17T18:53:13.079Z</time>
      </trkpt>
      <trkpt lat="41.18016" lon="40.87164">
        <ele>36.678713</ele>
        <time>2021-08-17T18:53:51.822Z</time>
      </trkpt>
      <trkpt lat="41.17899" lon="40.87036">
        <ele>26.4948</ele>
        <time>2021-08-17T18:54:21.512Z</time>
      </trkpt>
      <trkpt lat="41.17907" lon="40.87023">
        <ele>25.647259</ele>
        <time>2021-08-17T18:54:23.945Z</time>
      </trkpt>
      <trkpt lat="41.17909" lon="40.87019">
        <ele>25.442257</ele>
        <time>2021-08-17T18:54:24.638Z</time>
      </trkpt>
      <trkpt lat="41.17919" lon="40.87004">
        <ele>24.566349</ele>
        <time>2021-08-17T18:54:27.687Z</time>
      </trkpt>
      <trkpt lat="41.17942" lon="40.86968">
        <ele>22.531247</ele>
        <time>2021-08-17T18:54:34.739Z</time>
      </trkpt>
      <trkpt lat="41.17947" lon="40.86958">
        <ele>22.03155</ele>
        <time>2021-08-17T18:54:36.416Z</time>
      </trkpt>
      <trkpt lat="41.17931" lon="40.8693">
        <ele>20.522819</ele>
        <time>2021-08-17T18:54:41.809Z</time>
      </trkpt>
      <trkpt lat="41.17845" lon="40.86843">
        <ele>15.490536</ele>
        <time>2021-08-17T18:55:04.605Z</time>
      </trkpt>
      <trkpt lat="41.17786" lon="40.8677">
        <ele>16.31594</ele>
        <time>2021-08-17T18:55:39.658Z</time>
      </trkpt>
      <trkpt lat="41.17758" lon="40.86706">
        <ele>16.881141</ele>
        <time>2021-08-17T18:56:04.412Z</time>
      </trkpt>
      <trkpt lat="41.17726" lon="40.86596">
        <ele>18.73303</ele>
        <time>2021-08-17T18:56:45.229Z</time>
      </trkpt>
      <trkpt lat="41.17706" lon="40.86477">
        <ele>21.060337</ele>
        <time>2021-08-17T18:57:27.237Z</time>
      </trkpt>
      <trkpt lat="41.17683" lon="40.86028">
        <ele>28.506232</ele>
        <time>2021-08-17T18:59:54.770Z</time>
      </trkpt>
      <trkpt lat="41.1767" lon="40.85909">
        <ele>30.063549</ele>
        <time>2021-08-17T19:00:33.066Z</time>
      </trkpt>
      <trkpt lat="41.17646" lon="40.85777">
        <ele>31.393553</ele>
        <time>2021-08-17T19:01:13.605Z</time>
      </trkpt>
      <trkpt lat="41.1754" lon="40.85416">
        <ele>30.621101</ele>
        <time>2021-08-17T19:02:43.858Z</time>
      </trkpt>
      <trkpt lat="41.17444" lon="40.85186">
        <ele>26.397125</ele>
        <time>2021-08-17T19:03:30.411Z</time>
      </trkpt>
      <trkpt lat="41.17389" lon="40.85029">
        <ele>22.914232</ele>
        <time>2021-08-17T19:04:00.766Z</time>
      </trkpt>
      <trkpt lat="41.17346" lon="40.84885">
        <ele>19.884601</ele>
        <time>2021-08-17T19:04:29.452Z</time>
      </trkpt>
      <trkpt lat="41.17307" lon="40.84698">
        <ele>14.648343</ele>
        <time>2021-08-17T19:05:02.073Z</time>
      </trkpt>
      <trkpt lat="41.17295" lon="40.84599">
        <ele>12.429871</ele>
        <time>2021-08-17T19:05:18.516Z</time>
      </trkpt>
      <trkpt lat="41.17281" lon="40.84506">
        <ele>11.458864</ele>
        <time>2021-08-17T19:05:34.603Z</time>
      </trkpt>
      <trkpt lat="41.17277" lon="40.84484">
        <ele>11.237263</ele>
        <time>2021-08-17T19:05:38.453Z</time>
      </trkpt>
      <trkpt lat="41.17191" lon="40.8415">
        <ele>16.875761</ele>
        <time>2021-08-17T19:07:36.497Z</time>
      </trkpt>
      <trkpt lat="41.17187" lon="40.84081">
        <ele>20.921203</ele>
        <time>2021-08-17T19:08:18.811Z</time>
      </trkpt>
      <trkpt lat="41.17221" lon="40.83957">
        <ele>28.604579</ele>
        <time>2021-08-17T19:09:43.311Z</time>
      </trkpt>
      <trkpt lat="41.17226" lon="40.83918">
        <ele>29.89938</ele>
        <time>2021-08-17T19:10:07.361Z</time>
      </trkpt>
      <trkpt lat="41.17207" lon="40.83826">
        <ele>32.004349</ele>
        <time>2021-08-17T19:10:56.487Z</time>
      </trkpt>
      <trkpt lat="41.17118" lon="40.83606">
        <ele>30.647316</ele>
        <time>2021-08-17T19:11:43.169Z</time>
      </trkpt>
      <trkpt lat="41.17106" lon="40.83491">
        <ele>27.375023</ele>
        <time>2021-08-17T19:12:00.786Z</time>
      </trkpt>
      <trkpt lat="41.17102" lon="40.83401">
        <ele>25.826287</ele>
        <time>2021-08-17T19:12:15.227Z</time>
      </trkpt>
      <trkpt lat="41.17099" lon="40.83336">
        <ele>24.69856</ele>
        <time>2021-08-17T19:12:27.095Z</time>
      </trkpt>
      <trkpt lat="41.17085" lon="40.83289">
        <ele>23.815092</ele>
        <time>2021-08-17T19:12:38.628Z</time>
      </trkpt>
      <trkpt lat="41.17056" lon="40.83213">
        <ele>25.758992</ele>
        <time>2021-08-17T19:13:10.061Z</time>
      </trkpt>
      <trkpt lat="41.16948" lon="40.83096">
        <ele>32.445374</ele>
        <time>2021-08-17T19:14:41.842Z</time>
      </trkpt>
      <trkpt lat="41.16893" lon="40.83012">
        <ele>35.948685</ele>
        <time>2021-08-17T19:15:29.961Z</time>
      </trkpt>
      <trkpt lat="41.16834" lon="40.82863">
        <ele>40.531637</ele>
        <time>2021-08-17T19:16:32.942Z</time>
      </trkpt>
      <trkpt lat="41.16758" lon="40.82578">
        <ele>45.227831</ele>
        <time>2021-08-17T19:18:09.547Z</time>
      </trkpt>
      <trkpt lat="41.16685" lon="40.82404">
        <ele>46.896418</ele>
        <time>2021-08-17T19:19:06.652Z</time>
      </trkpt>
      <trkpt lat="41.16628" lon="40.82248">
        <ele>46.871825</ele>
        <time>2021-08-17T19:19:53.296Z</time>
      </trkpt>
      <trkpt lat="41.16576" lon="40.82138">
        <ele>40.655446</ele>
        <time>2021-08-17T19:20:13.796Z</time>
      </trkpt>
      <trkpt lat="41.16535" lon="40.82027">
        <ele>34.160253</ele>
        <time>2021-08-17T19:20:31.690Z</time>
      </trkpt>
      <trkpt lat="41.16475" lon="40.81913">
        <ele>24.298144</ele>
        <time>2021-08-17T19:20:51.223Z</time>
      </trkpt>
      <trkpt lat="41.16434" lon="40.81856">
        <ele>18.817868</ele>
        <time>2021-08-17T19:21:02.935Z</time>
      </trkpt>
      <trkpt lat="41.16351" lon="40.81767">
        <ele>17.796615</ele>
        <time>2021-08-17T19:21:29.271Z</time>
      </trkpt>
      <trkpt lat="41.16326" lon="40.81732">
        <ele>17.449819</ele>
        <time>2021-08-17T19:21:43.580Z</time>
      </trkpt>
      <trkpt lat="41.16263" lon="40.81624">
        <ele>19.320102</ele>
        <time>2021-08-17T19:22:35.090Z</time>
      </trkpt>
      <trkpt lat="41.16224" lon="40.81522">
        <ele>22.143905</ele>
        <time>2021-08-17T19:23:20.552Z</time>
      </trkpt>
      <trkpt lat="41.1619" lon="40.81371">
        <ele>24.00927</ele>
        <time>2021-08-17T19:24:13.265Z</time>
      </trkpt>
      <trkpt lat="41.16184" lon="40.81264">
        <ele>24.879891</ele>
        <time>2021-08-17T19:24:38.694Z</time>
      </trkpt>
      <trkpt lat="41.16188" lon="40.8121">
        <ele>24.086875</ele>
        <time>2021-08-17T19:24:49.481Z</time>
      </trkpt>
      <trkpt lat="41.16211" lon="40.81098">
        <ele>21.87193</ele>
        <time>2021-08-17T19:25:10.271Z</time>
      </trkpt>
      <trkpt lat="41.16231" lon="40.81005">
        <ele>19.976535</ele>
        <time>2021-08-17T19:25:26.335Z</time>
      </trkpt>
      <trkpt lat="41.16238" lon="40.80914">
        <ele>18.077778</ele>
        <time>2021-08-17T19:25:41.606Z</time>
      </trkpt>
      <trkpt lat="41.16234" lon="40.80883">
        <ele>17.426779</ele>
        <time>2021-08-17T19:25:47.078Z</time>
      </trkpt>
      <trkpt lat="41.16231" lon="40.80848">
        <ele>16.701835</ele>
        <time>2021-08-17T19:25:53.410Z</time>
      </trkpt>
      <trkpt lat="41.16222" lon="40.80793">
        <ele>15.53917</ele>
        <time>2021-08-17T19:26:04.196Z</time>
      </trkpt>
      <trkpt lat="41.16204" lon="40.80728">
        <ele>16.004197</ele>
        <time>2021-08-17T19:26:19.358Z</time>
      </trkpt>
      <trkpt lat="41.16169" lon="40.80645">
        <ele>16.879987</ele>
        <time>2021-08-17T19:26:45.917Z</time>
      </trkpt>
      <trkpt lat="41.16094" lon="40.80292">
        <ele>24.585041</ele>
        <time>2021-08-17T19:29:02.663Z</time>
      </trkpt>
      <trkpt lat="41.16083" lon="40.8024">
        <ele>25.849352</ele>
        <time>2021-08-17T19:29:23.693Z</time>
      </trkpt>
      <trkpt lat="41.16033" lon="40.80124">
        <ele>28.991225</ele>
        <time>2021-08-17T19:30:12.616Z</time>
      </trkpt>
      <trkpt lat="41.16015" lon="40.80093">
        <ele>29.416981</ele>
        <time>2021-08-17T19:30:26.121Z</time>
      </trkpt>
      <trkpt lat="41.15936" lon="40.79971">
        <ele>30.946987</ele>
        <time>2021-08-17T19:31:15.141Z</time>
      </trkpt>
      <trkpt lat="41.15857" lon="40.79857">
        <ele>28.302485</ele>
        <time>2021-08-17T19:31:45.906Z</time>
      </trkpt>
      <trkpt lat="41.15792" lon="40.79779">
        <ele>25.153902</ele>
        <time>2021-08-17T19:32:04.279Z</time>
      </trkpt>
      <trkpt lat="41.15764" lon="40.79754">
        <ele>23.207143</ele>
        <time>2021-08-17T19:32:10.857Z</time>
      </trkpt>
      <trkpt lat="41.15685" lon="40.79668">
        <ele>16.527113</ele>
        <time>2021-08-17T19:32:30.950Z</time>
      </trkpt>
      <trkpt lat="41.15661" lon="40.79641">
        <ele>14.527375</ele>
        <time>2021-08-17T19:32:37.190Z</time>
      </trkpt>
      <trkpt lat="41.15641" lon="40.79612">
        <ele>13.423584</ele>
        <time>2021-08-17T19:32:43.679Z</time>
      </trkpt>
      <trkpt lat="41.15593" lon="40.79539">
        <ele>15.469625</ele>
        <time>2021-08-17T19:33:04.568Z</time>
      </trkpt>
      <trkpt lat="41.15572" lon="40.79497">
        <ele>16.534621</ele>
        <time>2021-08-17T19:33:25.010Z</time>
      </trkpt>
      <trkpt lat="41.15485" lon="40.79292">
        <ele>27.15785</ele>
        <time>2021-08-17T19:35:48.362Z</time>
      </trkpt>
      <trkpt lat="41.15419" lon="40.79189">
        <ele>32.200218</ele>
        <time>2021-08-17T19:36:55.987Z</time>
      </trkpt>
      <trkpt lat="41.1531" lon="40.7906">
        <ele>32.981487</ele>
        <time>2021-08-17T19:37:39.039Z</time>
      </trkpt>
      <trkpt lat="41.15203" lon="40.78912">
        <ele>24.474487</ele>
        <time>2021-08-17T19:38:10.355Z</time>
      </trkpt>
      <trkpt lat="41.15139" lon="40.78799">
        <ele>20.896289</ele>
        <time>2021-08-17T19:38:32.413Z</time>
      </trkpt>
      <trkpt lat="41.15129" lon="40.78779">
        <ele>20.379301</ele>
        <time>2021-08-17T19:38:36.187Z</time>
      </trkpt>
      <trkpt lat="41.15123" lon="40.78765">
        <ele>20.043918</ele>
        <time>2021-08-17T19:38:40.580Z</time>
      </trkpt>
      <trkpt lat="41.15118" lon="40.78754">
        <ele>19.77495</ele>
        <time>2021-08-17T19:38:43.258Z</time>
      </trkpt>
      <trkpt lat="41.15058" lon="40.78588">
        <ele>21.61573</ele>
        <time>2021-08-17T19:39:40.460Z</time>
      </trkpt>
      <trkpt lat="41.15009" lon="40.78475">
        <ele>25.505445</ele>
        <time>2021-08-17T19:40:46.263Z</time>
      </trkpt>
      <trkpt lat="41.14938" lon="40.7836">
        <ele>30.429198</ele>
        <time>2021-08-17T19:41:50.642Z</time>
      </trkpt>
      <trkpt lat="41.14657" lon="40.78023">
        <ele>41.977884</ele>
        <time>2021-08-17T19:44:57.173Z</time>
      </trkpt>
      <trkpt lat="41.1454" lon="40.77903">
        <ele>41.419004</ele>
        <time>2021-08-17T19:45:38.590Z</time>
      </trkpt>
      <trkpt lat="41.14254" lon="40.77661">
        <ele>34.134468</ele>
        <time>2021-08-17T19:46:57.957Z</time>
      </trkpt>
      <trkpt lat="41.14081" lon="40.77506">
        <ele>33.751961</ele>
        <time>2021-08-17T19:47:58.602Z</time>
      </trkpt>
      <trkpt lat="41.13921" lon="40.77327">
        <ele>39.308481</ele>
        <time>2021-08-17T19:49:40.686Z</time>
      </trkpt>
      <trkpt lat="41.13827" lon="40.77191">
        <ele>44.185178</ele>
        <time>2021-08-17T19:50:59.386Z</time>
      </trkpt>
      <trkpt lat="41.13765" lon="40.7707">
        <ele>47.116806</ele>
        <time>2021-08-17T19:51:50.073Z</time>
      </trkpt>
      <trkpt lat="41.13738" lon="40.77005">
        <ele>47.336565</ele>
        <time>2021-08-17T19:52:09.088Z</time>
      </trkpt>
      <trkpt lat="41.13707" lon="40.76944">
        <ele>47.554544</ele>
        <time>2021-08-17T19:52:24.355Z</time>
      </trkpt>
      <trkpt lat="41.13614" lon="40.76797">
        <ele>50.304181</ele>
        <time>2021-08-17T19:53:06.641Z</time>
      </trkpt>
      <trkpt lat="41.13577" lon="40.76751">
        <ele>51.551242</ele>
        <time>2021-08-17T19:53:43.222Z</time>
      </trkpt>
      <trkpt lat="41.13569" lon="40.76743">
        <ele>51.789746</ele>
        <time>2021-08-17T19:53:49.220Z</time>
      </trkpt>
      <trkpt lat="41.13539" lon="40.76701">
        <ele>53.392584</ele>
        <time>2021-08-17T19:54:17.765Z</time>
      </trkpt>
      <trkpt lat="41.13524" lon="40.76684">
        <ele>54.238944</ele>
        <time>2021-08-17T19:54:28.767Z</time>
      </trkpt>
      <trkpt lat="41.13502" lon="40.76657">
        <ele>55.480205</ele>
        <time>2021-08-17T19:54:46.455Z</time>
      </trkpt>
      <trkpt lat="41.13483" lon="40.76625">
        <ele>56.779298</ele>
        <time>2021-08-17T19:55:04.766Z</time>
      </trkpt>
      <trkpt lat="41.13447" lon="40.76562">
        <ele>59.282453</ele>
        <time>2021-08-17T19:55:37.700Z</time>
      </trkpt>
      <trkpt lat="41.13432" lon="40.76539">
        <ele>59.481001</ele>
        <time>2021-08-17T19:55:48.182Z</time>
      </trkpt>
      <trkpt lat="41.13368" lon="40.76458">
        <ele>58.095478</ele>
        <time>2021-08-17T19:56:09.660Z</time>
      </trkpt>
      <trkpt lat="41.13345" lon="40.76438">
        <ele>57.667258</ele>
        <time>2021-08-17T19:56:15.346Z</time>
      </trkpt>
      <trkpt lat="41.13068" lon="40.76228">
        <ele>52.983838</ele>
        <time>2021-08-17T19:57:35.540Z</time>
      </trkpt>
      <trkpt lat="41.13002" lon="40.76175">
        <ele>52.424465</ele>
        <time>2021-08-17T19:58:00.788Z</time>
      </trkpt>
      <trkpt lat="41.12941" lon="40.76116">
        <ele>51.581756</ele>
        <time>2021-08-17T19:58:25.708Z</time>
      </trkpt>
      <trkpt lat="41.12738" lon="40.75957">
        <ele>45.330383</ele>
        <time>2021-08-17T19:59:23.722Z</time>
      </trkpt>
      <trkpt lat="41.12576" lon="40.75822">
        <ele>32.759808</ele>
        <time>2021-08-17T20:00:01.430Z</time>
      </trkpt>
      <trkpt lat="41.12494" lon="40.7574">
        <ele>26.168456</ele>
        <time>2021-08-17T20:00:21.354Z</time>
      </trkpt>
      <trkpt lat="41.12292" lon="40.75502">
        <ele>17.59746</ele>
        <time>2021-08-17T20:01:21.778Z</time>
      </trkpt>
      <trkpt lat="41.12286" lon="40.75497">
        <ele>17.494215</ele>
        <time>2021-08-17T20:01:25.808Z</time>
      </trkpt>
      <trkpt lat="41.12269" lon="40.75481">
        <ele>17.188062</ele>
        <time>2021-08-17T20:01:38.196Z</time>
      </trkpt>
      <trkpt lat="41.12263" lon="40.75484">
        <ele>17.10858</ele>
        <time>2021-08-17T20:01:40.685Z</time>
      </trkpt>
      <trkpt lat="41.12257" lon="40.7549">
        <ele>17.137953</ele>
        <time>2021-08-17T20:01:45.199Z</time>
      </trkpt>
      <trkpt lat="41.12248" lon="40.75496">
        <ele>17.38536</ele>
        <time>2021-08-17T20:01:53.032Z</time>
      </trkpt>
      <trkpt lat="41.12242" lon="40.75501">
        <ele>17.570585</ele>
        <time>2021-08-17T20:01:56.272Z</time>
      </trkpt>
      <trkpt lat="41.12237" lon="40.75516">
        <ele>17.893881</ele>
        <time>2021-08-17T20:02:02.054Z</time>
      </trkpt>
      <trkpt lat="41.12236" lon="40.7553">
        <ele>18.174588</ele>
        <time>2021-08-17T20:02:09.651Z</time>
      </trkpt>
      <trkpt lat="41.12231" lon="40.7554">
        <ele>18.406967</ele>
        <time>2021-08-17T20:02:15.906Z</time>
      </trkpt>
      <trkpt lat="41.12226" lon="40.75551">
        <ele>18.656329</ele>
        <time>2021-08-17T20:02:20.539Z</time>
      </trkpt>
      <trkpt lat="41.12188" lon="40.7552">
        <ele>19.830599</ele>
        <time>2021-08-17T20:02:48.290Z</time>
      </trkpt>
      <trkpt lat="41.11368" lon="40.7485">
        <ele>20.133936</ele>
        <time>2021-08-17T20:07:39.698Z</time>
      </trkpt>
      <trkpt lat="41.11184" lon="40.74711">
        <ele>18.898379</ele>
        <time>2021-08-17T20:08:38.059Z</time>
      </trkpt>
      <trkpt lat="41.11011" lon="40.7458">
        <ele>19.161287</ele>
        <time>2021-08-17T20:09:41.970Z</time>
      </trkpt>
      <trkpt lat="41.10813" lon="40.74447">
        <ele>20.5312</ele>
        <time>2021-08-17T20:11:01.710Z</time>
      </trkpt>
      <trkpt lat="41.10776" lon="40.74418">
        <ele>20.763047</ele>
        <time>2021-08-17T20:11:16.292Z</time>
      </trkpt>
      <trkpt lat="41.10727" lon="40.74381">
        <ele>21.046307</ele>
        <time>2021-08-17T20:11:34.220Z</time>
      </trkpt>
      <trkpt lat="41.1055" lon="40.74227">
        <ele>20.882516</ele>
        <time>2021-08-17T20:12:39.957Z</time>
      </trkpt>
      <trkpt lat="41.10095" lon="40.73796">
        <ele>18.399204</ele>
        <time>2021-08-17T20:15:19.690Z</time>
      </trkpt>
      <trkpt lat="41.10075" lon="40.73768">
        <ele>18.433677</ele>
        <time>2021-08-17T20:15:29.266Z</time>
      </trkpt>
      <trkpt lat="41.10038" lon="40.73728">
        <ele>18.489984</ele>
        <time>2021-08-17T20:15:45.373Z</time>
      </trkpt>
      <trkpt lat="41.1002" lon="40.73704">
        <ele>18.520636</ele>
        <time>2021-08-17T20:15:54.260Z</time>
      </trkpt>
      <trkpt lat="41.09867" lon="40.73545">
        <ele>18.742931</ele>
        <time>2021-08-17T20:16:58.516Z</time>
      </trkpt>
      <trkpt lat="41.09765" lon="40.73428">
        <ele>16.517953</ele>
        <time>2021-08-17T20:17:33.584Z</time>
      </trkpt>
      <trkpt lat="41.0969" lon="40.7334">
        <ele>14.304462</ele>
        <time>2021-08-17T20:17:56.439Z</time>
      </trkpt>
      <trkpt lat="41.09659" lon="40.73304">
        <ele>13.160998</ele>
        <time>2021-08-17T20:18:06.034Z</time>
      </trkpt>
      <trkpt lat="41.09647" lon="40.73291">
        <ele>12.745697</ele>
        <time>2021-08-17T20:18:09.426Z</time>
      </trkpt>
      <trkpt lat="41.09674" lon="40.73268">
        <ele>11.870009</ele>
        <time>2021-08-17T20:18:17.210Z</time>
      </trkpt>
      <trkpt lat="41.09678" lon="40.73257">
        <ele>11.61675</ele>
        <time>2021-08-17T20:18:19.521Z</time>
      </trkpt>
      <trkpt lat="41.09676" lon="40.7324">
        <ele>11.243378</ele>
        <time>2021-08-17T20:18:22.986Z</time>
      </trkpt>
      <trkpt lat="41.09601" lon="40.73147">
        <ele>9.985054</ele>
        <time>2021-08-17T20:18:49.695Z</time>
      </trkpt>
      <trkpt lat="41.09384" lon="40.72915">
        <ele>9.386964</ele>
        <time>2021-08-17T20:20:21.033Z</time>
      </trkpt>
      <trkpt lat="41.09286" lon="40.72796">
        <ele>9.879011</ele>
        <time>2021-08-17T20:21:07.931Z</time>
      </trkpt>
      <trkpt lat="41.09276" lon="40.72797">
        <ele>9.915931</ele>
        <time>2021-08-17T20:21:11.513Z</time>
      </trkpt>
      <trkpt lat="41.09254" lon="40.72791">
        <ele>9.998337</ele>
        <time>2021-08-17T20:21:19.152Z</time>
      </trkpt>
      <trkpt lat="41.09017" lon="40.72534">
        <ele>10.638703</ele>
        <time>2021-08-17T20:23:00.808Z</time>
      </trkpt>
      <trkpt lat="41.09008" lon="40.72542">
        <ele>10.666194</ele>
        <time>2021-08-17T20:23:04.516Z</time>
      </trkpt>
      <trkpt lat="41.08993" lon="40.72568">
        <ele>10.729341</ele>
        <time>2021-08-17T20:23:12.904Z</time>
      </trkpt>
      <trkpt lat="41.08962" lon="40.72537">
        <ele>10.886618</ele>
        <time>2021-08-17T20:23:25.723Z</time>
      </trkpt>
      <trkpt lat="41.08921" lon="40.72507">
        <ele>11.647283</ele>
        <time>2021-08-17T20:23:42.321Z</time>
      </trkpt>
      <trkpt lat="41.08913" lon="40.72507">
        <ele>11.776078</ele>
        <time>2021-08-17T20:23:44.962Z</time>
      </trkpt>
      <trkpt lat="41.08899" lon="40.72497">
        <ele>12.032325</ele>
        <time>2021-08-17T20:23:50.988Z</time>
      </trkpt>
      <trkpt lat="41.08898" lon="40.72496">
        <ele>12.056813</ele>
        <time>2021-08-17T20:23:51.596Z</time>
      </trkpt>
      <trkpt lat="41.08873" lon="40.7247">
        <ele>12.573494</ele>
        <time>2021-08-17T20:24:05.463Z</time>
      </trkpt>
      <trkpt lat="41.0884" lon="40.72434">
        <ele>13.270028</ele>
        <time>2021-08-17T20:24:24.118Z</time>
      </trkpt>
      <trkpt lat="41.08812" lon="40.72401">
        <ele>13.851865</ele>
        <time>2021-08-17T20:24:40.679Z</time>
      </trkpt>
      <trkpt lat="41.08805" lon="40.72393">
        <ele>13.979125</ele>
        <time>2021-08-17T20:24:45.709Z</time>
      </trkpt>
      <trkpt lat="41.08794" lon="40.7238">
        <ele>14.169667</ele>
        <time>2021-08-17T20:24:51.204Z</time>
      </trkpt>
      <trkpt lat="41.08788" lon="40.72388">
        <ele>14.273437</ele>
        <time>2021-08-17T20:24:54.967Z</time>
      </trkpt>
      <trkpt lat="41.08778" lon="40.72403">
        <ele>14.472726</ele>
        <time>2021-08-17T20:25:03.111Z</time>
      </trkpt>
      <trkpt lat="41.08705" lon="40.72326">
        <ele>15.688504</ele>
        <time>2021-08-17T20:25:40.220Z</time>
      </trkpt>
      <trkpt lat="41.08683" lon="40.72317">
        <ele>15.989457</ele>
        <time>2021-08-17T20:25:48.027Z</time>
      </trkpt>
      <trkpt lat="41.08658" lon="40.72306">
        <ele>16.061044</ele>
        <time>2021-08-17T20:25:57.500Z</time>
      </trkpt>
      <trkpt lat="41.08641" lon="40.7229">
        <ele>16.019329</ele>
        <time>2021-08-17T20:26:02.177Z</time>
      </trkpt>
      <trkpt lat="41.08627" lon="40.72311">
        <ele>15.976812</ele>
        <time>2021-08-17T20:26:09.662Z</time>
      </trkpt>
      <trkpt lat="41.08624" lon="40.72307">
        <ele>15.967681</ele>
        <time>2021-08-17T20:26:10.528Z</time>
      </trkpt>
      <trkpt lat="41.08595" lon="40.7227">
        <ele>15.885089</ele>
        <time>2021-08-17T20:26:21.216Z</time>
      </trkpt>
      <trkpt lat="41.0858" lon="40.72251">
        <ele>15.843833</ele>
        <time>2021-08-17T20:26:28.086Z</time>
      </trkpt>
      <trkpt lat="41.08567" lon="40.72228">
        <ele>15.799736</ele>
        <time>2021-08-17T20:26:33.623Z</time>
      </trkpt>
      <trkpt lat="41.08539" lon="40.72175">
        <ele>16.43089</ele>
        <time>2021-08-17T20:26:52.053Z</time>
      </trkpt>
      <trkpt lat="41.08528" lon="40.7215">
        <ele>17.460013</ele>
        <time>2021-08-17T20:27:01.376Z</time>
      </trkpt>
      <trkpt lat="41.08501" lon="40.7206">
        <ele>20.8102</ele>
        <time>2021-08-17T20:27:44.871Z</time>
      </trkpt>
      <trkpt lat="41.08494" lon="40.72001">
        <ele>22.899248</ele>
        <time>2021-08-17T20:28:16.853Z</time>
      </trkpt>
      <trkpt lat="41.08484" lon="40.71868">
        <ele>26.111127</ele>
        <time>2021-08-17T20:29:21.580Z</time>
      </trkpt>
      <trkpt lat="41.08476" lon="40.71747">
        <ele>28.612061</ele>
        <time>2021-08-17T20:29:59.372Z</time>
      </trkpt>
      <trkpt lat="41.08468" lon="40.71633">
        <ele>25.38053</ele>
        <time>2021-08-17T20:30:18.781Z</time>
      </trkpt>
      <trkpt lat="41.08458" lon="40.71569">
        <ele>23.001951</ele>
        <time>2021-08-17T20:30:29.008Z</time>
      </trkpt>
      <trkpt lat="41.0842" lon="40.7138">
        <ele>15.198772</ele>
        <time>2021-08-17T20:30:58.607Z</time>
      </trkpt>
      <trkpt lat="41.08411" lon="40.71353">
        <ele>13.977819</ele>
        <time>2021-08-17T20:31:03.008Z</time>
      </trkpt>
      <trkpt lat="41.08412" lon="40.71346">
        <ele>13.664354</ele>
        <time>2021-08-17T20:31:04.298Z</time>
      </trkpt>
      <trkpt lat="41.08405" lon="40.71327">
        <ele>12.752299</ele>
        <time>2021-08-17T20:31:07.845Z</time>
      </trkpt>
      <trkpt lat="41.08399" lon="40.71324">
        <ele>12.432027</ele>
        <time>2021-08-17T20:31:09.010Z</time>
      </trkpt>
      <trkpt lat="41.08361" lon="40.71233">
        <ele>10.01774</ele>
        <time>2021-08-17T20:31:26.694Z</time>
      </trkpt>
      <trkpt lat="41.08314" lon="40.71083">
        <ele>9.320869</ele>
        <time>2021-08-17T20:32:07.012Z</time>
      </trkpt>
      <trkpt lat="41.08268" lon="40.70966">
        <ele>10.061899</ele>
        <time>2021-08-17T20:32:45.804Z</time>
      </trkpt>
      <trkpt lat="41.08242" lon="40.70893">
        <ele>10.684924</ele>
        <time>2021-08-17T20:33:07.344Z</time>
      </trkpt>
      <trkpt lat="41.08171" lon="40.70679">
        <ele>12.442053</ele>
        <time>2021-08-17T20:34:11.746Z</time>
      </trkpt>
      <trkpt lat="41.08164" lon="40.70649">
        <ele>12.674809</ele>
        <time>2021-08-17T20:34:21.153Z</time>
      </trkpt>
      <trkpt lat="41.08155" lon="40.70615">
        <ele>12.836644</ele>
        <time>2021-08-17T20:34:32.231Z</time>
      </trkpt>
      <trkpt lat="41.08113" lon="40.7049">
        <ele>12.695309</ele>
        <time>2021-08-17T20:35:06.434Z</time>
      </trkpt>
      <trkpt lat="41.08105" lon="40.70447">
        <ele>12.650246</ele>
        <time>2021-08-17T20:35:15.500Z</time>
      </trkpt>
      <trkpt lat="41.08107" lon="40.70424">
        <ele>12.626874</ele>
        <time>2021-08-17T20:35:19.855Z</time>
      </trkpt>
      <trkpt lat="41.08113" lon="40.70406">
        <ele>12.606436</ele>
        <time>2021-08-17T20:35:23.733Z</time>
      </trkpt>
      <trkpt lat="41.0815" lon="40.70328">
        <ele>11.870458</ele>
        <time>2021-08-17T20:35:41.311Z</time>
      </trkpt>
      <trkpt lat="41.08157" lon="40.703">
        <ele>11.634589</ele>
        <time>2021-08-17T20:35:46.784Z</time>
      </trkpt>
      <trkpt lat="41.08157" lon="40.70261">
        <ele>11.317553</ele>
        <time>2021-08-17T20:35:54.294Z</time>
      </trkpt>
      <trkpt lat="41.08147" lon="40.70226">
        <ele>11.01407</ele>
        <time>2021-08-17T20:36:01.488Z</time>
      </trkpt>
      <trkpt lat="41.08024" lon="40.70016">
        <ele>12.098242</ele>
        <time>2021-08-17T20:37:12.893Z</time>
      </trkpt>
      <trkpt lat="41.07974" lon="40.69898">
        <ele>14.204062</ele>
        <time>2021-08-17T20:37:55.274Z</time>
      </trkpt>
      <trkpt lat="41.07916" lon="40.69737">
        <ele>17.965776</ele>
        <time>2021-08-17T20:38:57.344Z</time>
      </trkpt>
      <trkpt lat="41.0783" lon="40.69513">
        <ele>26.019251</ele>
        <time>2021-08-17T20:40:42.962Z</time>
      </trkpt>
      <trkpt lat="41.0771" lon="40.69257">
        <ele>37.015543</ele>
        <time>2021-08-17T20:43:03.625Z</time>
      </trkpt>
      <trkpt lat="41.0767" lon="40.69138">
        <ele>40.489143</ele>
        <time>2021-08-17T20:43:54.440Z</time>
      </trkpt>
      <trkpt lat="41.07643" lon="40.6898">
        <ele>40.498683</ele>
        <time>2021-08-17T20:44:36.510Z</time>
      </trkpt>
      <trkpt lat="41.07631" lon="40.68887">
        <ele>38.750741</ele>
        <time>2021-08-17T20:44:52.605Z</time>
      </trkpt>
      <trkpt lat="41.07623" lon="40.68778">
        <ele>34.487447</ele>
        <time>2021-08-17T20:45:09.830Z</time>
      </trkpt>
      <trkpt lat="41.07597" lon="40.68534">
        <ele>24.479307</ele>
        <time>2021-08-17T20:45:47.685Z</time>
      </trkpt>
      <trkpt lat="41.07598" lon="40.68439">
        <ele>21.000759</ele>
        <time>2021-08-17T20:46:03.164Z</time>
      </trkpt>
      <trkpt lat="41.07611" lon="40.68346">
        <ele>19.627583</ele>
        <time>2021-08-17T20:46:19.734Z</time>
      </trkpt>
      <trkpt lat="41.07613" lon="40.68335">
        <ele>19.463956</ele>
        <time>2021-08-17T20:46:21.574Z</time>
      </trkpt>
      <trkpt lat="41.07621" lon="40.68303">
        <ele>18.973075</ele>
        <time>2021-08-17T20:46:28.533Z</time>
      </trkpt>
      <trkpt lat="41.07688" lon="40.68103">
        <ele>18.627767</ele>
        <time>2021-08-17T20:47:21.411Z</time>
      </trkpt>
      <trkpt lat="41.07702" lon="40.68045">
        <ele>18.989017</ele>
        <time>2021-08-17T20:47:41.457Z</time>
      </trkpt>
      <trkpt lat="41.07714" lon="40.67948">
        <ele>19.398274</ele>
        <time>2021-08-17T20:48:09.654Z</time>
      </trkpt>
      <trkpt lat="41.07711" lon="40.67875">
        <ele>19.610333</ele>
        <time>2021-08-17T20:48:29.232Z</time>
      </trkpt>
      <trkpt lat="41.07705" lon="40.67841">
        <ele>19.708248</ele>
        <time>2021-08-17T20:48:36.662Z</time>
      </trkpt>
      <trkpt lat="41.07698" lon="40.67822">
        <ele>19.770475</ele>
        <time>2021-08-17T20:48:42.476Z</time>
      </trkpt>
      <trkpt lat="41.07697" lon="40.67812">
        <ele>19.797157</ele>
        <time>2021-08-17T20:48:43.996Z</time>
      </trkpt>
      <trkpt lat="41.07691" lon="40.67775">
        <ele>19.906987</ele>
        <time>2021-08-17T20:48:53.800Z</time>
      </trkpt>
      <trkpt lat="41.07664" lon="40.67682">
        <ele>20.104721</ele>
        <time>2021-08-17T20:49:14.176Z</time>
      </trkpt>
      <trkpt lat="41.07345" lon="40.66995">
        <ele>21.435887</ele>
        <time>2021-08-17T20:52:38.229Z</time>
      </trkpt>
      <trkpt lat="41.07269" lon="40.66792">
        <ele>19.479798</ele>
        <time>2021-08-17T20:53:25.029Z</time>
      </trkpt>
      <trkpt lat="41.07256" lon="40.66754">
        <ele>19.01469</ele>
        <time>2021-08-17T20:53:32.271Z</time>
      </trkpt>
      <trkpt lat="41.0724" lon="40.667">
        <ele>18.244546</ele>
        <time>2021-08-17T20:53:42.120Z</time>
      </trkpt>
      <trkpt lat="41.07218" lon="40.66621">
        <ele>17.067317</ele>
        <time>2021-08-17T20:53:56.990Z</time>
      </trkpt>
      <trkpt lat="41.0719" lon="40.66515">
        <ele>15.478167</ele>
        <time>2021-08-17T20:54:17.933Z</time>
      </trkpt>
      <trkpt lat="41.07183" lon="40.66487">
        <ele>15.788276</ele>
        <time>2021-08-17T20:54:25.891Z</time>
      </trkpt>
      <trkpt lat="41.07102" lon="40.66178">
        <ele>21.924619</ele>
        <time>2021-08-17T20:56:22.007Z</time>
      </trkpt>
      <trkpt lat="41.0697" lon="40.65628">
        <ele>34.867915</ele>
        <time>2021-08-17T20:59:57.709Z</time>
      </trkpt>
      <trkpt lat="41.06947" lon="40.65555">
        <ele>34.429404</ele>
        <time>2021-08-17T21:00:16.696Z</time>
      </trkpt>
      <trkpt lat="41.06923" lon="40.65496">
        <ele>33.233477</ele>
        <time>2021-08-17T21:00:29.756Z</time>
      </trkpt>
      <trkpt lat="41.06893" lon="40.65428">
        <ele>31.831558</ele>
        <time>2021-08-17T21:00:43.122Z</time>
      </trkpt>
      <trkpt lat="41.0685" lon="40.65312">
        <ele>28.765882</ele>
        <time>2021-08-17T21:01:03.028Z</time>
      </trkpt>
      <trkpt lat="41.06809" lon="40.65173">
        <ele>24.829277</ele>
        <time>2021-08-17T21:01:29.482Z</time>
      </trkpt>
      <trkpt lat="41.06808" lon="40.65168">
        <ele>24.925542</ele>
        <time>2021-08-17T21:01:30.182Z</time>
      </trkpt>
      <trkpt lat="41.068" lon="40.65139">
        <ele>25.551059</ele>
        <time>2021-08-17T21:01:38.738Z</time>
      </trkpt>
      <trkpt lat="41.06789" lon="40.65139">
        <ele>25.831912</ele>
        <time>2021-08-17T21:01:43.553Z</time>
      </trkpt>
      <trkpt lat="41.06775" lon="40.65145">
        <ele>26.221084</ele>
        <time>2021-08-17T21:01:47.899Z</time>
      </trkpt>
      <trkpt lat="41.06768" lon="40.6515">
        <ele>26.424083</ele>
        <time>2021-08-17T21:01:52.151Z</time>
      </trkpt>
      <trkpt lat="41.06759" lon="40.6515">
        <ele>26.668109</ele>
        <time>2021-08-17T21:01:57.983Z</time>
      </trkpt>
      <trkpt lat="41.06752" lon="40.65151">
        <ele>26.8564</ele>
        <time>2021-08-17T21:01:59.689Z</time>
      </trkpt>
      <trkpt lat="41.06737" lon="40.65157">
        <ele>27.267689</ele>
        <time>2021-08-17T21:02:07.096Z</time>
      </trkpt>
      <trkpt lat="41.06717" lon="40.65083">
        <ele>28.824347</ele>
        <time>2021-08-17T21:02:39.671Z</time>
      </trkpt>
      <trkpt lat="41.06709" lon="40.65032">
        <ele>29.977626</ele>
        <time>2021-08-17T21:03:06.219Z</time>
      </trkpt>
      <trkpt lat="41.06698" lon="40.64881">
        <ele>34.269917</ele>
        <time>2021-08-17T21:04:11.806Z</time>
      </trkpt>
      <trkpt lat="41.06659" lon="40.64687">
        <ele>37.248644</ele>
        <time>2021-08-17T21:05:10.618Z</time>
      </trkpt>
      <trkpt lat="41.06642" lon="40.64523">
        <ele>37.899511</ele>
        <time>2021-08-17T21:05:52.652Z</time>
      </trkpt>
      <trkpt lat="41.06623" lon="40.6444">
        <ele>37.666623</ele>
        <time>2021-08-17T21:06:12.482Z</time>
      </trkpt>
      <trkpt lat="41.06612" lon="40.64404">
        <ele>37.5616</ele>
        <time>2021-08-17T21:06:21.067Z</time>
      </trkpt>
      <trkpt lat="41.06591" lon="40.64362">
        <ele>37.42476</ele>
        <time>2021-08-17T21:06:32.035Z</time>
      </trkpt>
      <trkpt lat="41.06515" lon="40.64249">
        <ele>34.635253</ele>
        <time>2021-08-17T21:06:59.451Z</time>
      </trkpt>
      <trkpt lat="41.06465" lon="40.64141">
        <ele>32.715363</ele>
        <time>2021-08-17T21:07:20.932Z</time>
      </trkpt>
      <trkpt lat="41.06456" lon="40.64119">
        <ele>32.608926</ele>
        <time>2021-08-17T21:07:25.142Z</time>
      </trkpt>
      <trkpt lat="41.06464" lon="40.64114">
        <ele>32.558561</ele>
        <time>2021-08-17T21:07:27.307Z</time>
      </trkpt>
      <trkpt lat="41.06471" lon="40.64109">
        <ele>32.515278</ele>
        <time>2021-08-17T21:07:30.909Z</time>
      </trkpt>
      <trkpt lat="41.06477" lon="40.64102">
        <ele>32.470487</ele>
        <time>2021-08-17T21:07:32.710Z</time>
      </trkpt>
      <trkpt lat="41.0648" lon="40.64094">
        <ele>32.429437</ele>
        <time>2021-08-17T21:07:34.524Z</time>
      </trkpt>
      <trkpt lat="41.06481" lon="40.64081">
        <ele>32.37418</ele>
        <time>2021-08-17T21:07:37.013Z</time>
      </trkpt>
      <trkpt lat="41.06391" lon="40.63928">
        <ele>33.247754</ele>
        <time>2021-08-17T21:08:31.409Z</time>
      </trkpt>
      <trkpt lat="41.06152" lon="40.63518">
        <ele>43.743074</ele>
        <time>2021-08-17T21:11:49.461Z</time>
      </trkpt>
      <trkpt lat="41.06069" lon="40.63349">
        <ele>41.852667</ele>
        <time>2021-08-17T21:12:29.776Z</time>
      </trkpt>
      <trkpt lat="41.06031" lon="40.63259">
        <ele>37.980102</ele>
        <time>2021-08-17T21:12:45.929Z</time>
      </trkpt>
      <trkpt lat="41.06004" lon="40.63182">
        <ele>34.81033</ele>
        <time>2021-08-17T21:12:58.282Z</time>
      </trkpt>
      <trkpt lat="41.0597" lon="40.6304">
        <ele>29.129957</ele>
        <time>2021-08-17T21:13:20.882Z</time>
      </trkpt>
      <trkpt lat="41.05958" lon="40.62994">
        <ele>27.25182</ele>
        <time>2021-08-17T21:13:29.964Z</time>
      </trkpt>
      <trkpt lat="41.05957" lon="40.62987">
        <ele>27.003524</ele>
        <time>2021-08-17T21:13:31.513Z</time>
      </trkpt>
      <trkpt lat="41.05953" lon="40.62976">
        <ele>26.591354</ele>
        <time>2021-08-17T21:13:34.398Z</time>
      </trkpt>
      <trkpt lat="41.05933" lon="40.62913">
        <ele>28.504558</ele>
        <time>2021-08-17T21:13:55.023Z</time>
      </trkpt>
      <trkpt lat="41.0588" lon="40.62759">
        <ele>33.229251</ele>
        <time>2021-08-17T21:15:16.001Z</time>
      </trkpt>
      <trkpt lat="41.05801" lon="40.62425">
        <ele>40.779378</ele>
        <time>2021-08-17T21:17:33.195Z</time>
      </trkpt>
      <trkpt lat="41.05772" lon="40.62335">
        <ele>41.136061</ele>
        <time>2021-08-17T21:17:52.212Z</time>
      </trkpt>
      <trkpt lat="41.05747" lon="40.62276">
        <ele>39.820977</ele>
        <time>2021-08-17T21:18:03.790Z</time>
      </trkpt>
      <trkpt lat="41.05455" lon="40.61773">
        <ele>17.100565</ele>
        <time>2021-08-17T21:19:44.673Z</time>
      </trkpt>
      <trkpt lat="41.05437" lon="40.6174">
        <ele>15.717585</ele>
        <time>2021-08-17T21:19:52.078Z</time>
      </trkpt>
      <trkpt lat="41.05389" lon="40.6166">
        <ele>15.090124</ele>
        <time>2021-08-17T21:20:11.853Z</time>
      </trkpt>
      <trkpt lat="41.05357" lon="40.61603">
        <ele>14.667749</ele>
        <time>2021-08-17T21:20:27.464Z</time>
      </trkpt>
      <trkpt lat="41.05323" lon="40.61527">
        <ele>14.456578</ele>
        <time>2021-08-17T21:20:50.379Z</time>
      </trkpt>
      <trkpt lat="41.052" lon="40.61276">
        <ele>19.348016</ele>
        <time>2021-08-17T21:22:15.538Z</time>
      </trkpt>
      <trkpt lat="41.05182" lon="40.61237">
        <ele>21.032507</ele>
        <time>2021-08-17T21:22:39.091Z</time>
      </trkpt>
      <trkpt lat="41.05179" lon="40.61229">
        <ele>21.358073</ele>
        <time>2021-08-17T21:22:44.080Z</time>
      </trkpt>
      <trkpt lat="41.05176" lon="40.61222">
        <ele>21.681938</ele>
        <time>2021-08-17T21:22:48.536Z</time>
      </trkpt>
      <trkpt lat="41.05171" lon="40.61214">
        <ele>22.050265</ele>
        <time>2021-08-17T21:22:54.501Z</time>
      </trkpt>
      <trkpt lat="41.05166" lon="40.61215">
        <ele>22.293367</ele>
        <time>2021-08-17T21:22:59.764Z</time>
      </trkpt>
      <trkpt lat="41.05158" lon="40.61219">
        <ele>22.720581</ele>
        <time>2021-08-17T21:23:04.211Z</time>
      </trkpt>
      <trkpt lat="41.0515" lon="40.61228">
        <ele>23.247969</ele>
        <time>2021-08-17T21:23:11.228Z</time>
      </trkpt>
      <trkpt lat="41.05138" lon="40.61242">
        <ele>24.040455</ele>
        <time>2021-08-17T21:23:24.948Z</time>
      </trkpt>
      <trkpt lat="41.05131" lon="40.61251">
        <ele>24.503652</ele>
        <time>2021-08-17T21:23:30.033Z</time>
      </trkpt>
      <trkpt lat="41.05118" lon="40.61266">
        <ele>25.398638</ele>
        <time>2021-08-17T21:23:41.036Z</time>
      </trkpt>
      <trkpt lat="41.05111" lon="40.61268">
        <ele>25.857953</ele>
        <time>2021-08-17T21:23:47.597Z</time>
      </trkpt>
      <trkpt lat="41.05104" lon="40.61269">
        <ele>26.300753</ele>
        <time>2021-08-17T21:23:51.844Z</time>
      </trkpt>
      <trkpt lat="41.05093" lon="40.61264">
        <ele>26.954557</ele>
        <time>2021-08-17T21:23:58.792Z</time>
      </trkpt>
      <trkpt lat="41.05074" lon="40.61241">
        <ele>28.545061</ele>
        <time>2021-08-17T21:24:16.433Z</time>
      </trkpt>
      <trkpt lat="41.05055" lon="40.61216">
        <ele>30.164421</ele>
        <time>2021-08-17T21:24:36.374Z</time>
      </trkpt>
      <trkpt lat="41.05051" lon="40.61211">
        <ele>30.478796</ele>
        <time>2021-08-17T21:24:40.933Z</time>
      </trkpt>
      <trkpt lat="41.05045" lon="40.61203">
        <ele>31.043417</ele>
        <time>2021-08-17T21:24:46.922Z</time>
      </trkpt>
      <trkpt lat="41.0504" lon="40.61198">
        <ele>31.382856</ele>
        <time>2021-08-17T21:24:51.083Z</time>
      </trkpt>
      <trkpt lat="41.05012" lon="40.6116">
        <ele>33.860845</ele>
        <time>2021-08-17T21:25:20.006Z</time>
      </trkpt>
      <trkpt lat="41.05004" lon="40.61153">
        <ele>34.422395</ele>
        <time>2021-08-17T21:25:25.689Z</time>
      </trkpt>
      <trkpt lat="41.05" lon="40.61149">
        <ele>34.706986</ele>
        <time>2021-08-17T21:25:28.948Z</time>
      </trkpt>
      <trkpt lat="41.04969" lon="40.61116">
        <ele>36.423715</ele>
        <time>2021-08-17T21:25:48.892Z</time>
      </trkpt>
      <trkpt lat="41.04948" lon="40.61089">
        <ele>36.941758</ele>
        <time>2021-08-17T21:25:59.551Z</time>
      </trkpt>
      <trkpt lat="41.04909" lon="40.61023">
        <ele>38.07078</ele>
        <time>2021-08-17T21:26:23.713Z</time>
      </trkpt>
      <trkpt lat="41.04881" lon="40.6096">
        <ele>39.063815</ele>
        <time>2021-08-17T21:26:44.285Z</time>
      </trkpt>
      <trkpt lat="41.0486" lon="40.60924">
        <ele>39.262581</ele>
        <time>2021-08-17T21:26:58.536Z</time>
      </trkpt>
      <trkpt lat="41.04856" lon="40.60913">
        <ele>39.229384</ele>
        <time>2021-08-17T21:27:02.201Z</time>
      </trkpt>
      <trkpt lat="41.0484" lon="40.60874">
        <ele>39.105063</ele>
        <time>2021-08-17T21:27:13.744Z</time>
      </trkpt>
      <trkpt lat="41.04809" lon="40.60801">
        <ele>38.87496</ele>
        <time>2021-08-17T21:27:32.055Z</time>
      </trkpt>
      <trkpt lat="41.04777" lon="40.60733">
        <ele>38.502379</ele>
        <time>2021-08-17T21:27:47.811Z</time>
      </trkpt>
      <trkpt lat="41.04653" lon="40.60417">
        <ele>31.183473</ele>
        <time>2021-08-17T21:28:50.054Z</time>
      </trkpt>
      <trkpt lat="41.0463" lon="40.6034">
        <ele>29.466403</ele>
        <time>2021-08-17T21:29:04.670Z</time>
      </trkpt>
      <trkpt lat="41.04593" lon="40.60171">
        <ele>26.38926</ele>
        <time>2021-08-17T21:29:36.736Z</time>
      </trkpt>
      <trkpt lat="41.0458" lon="40.60039">
        <ele>24.175045</ele>
        <time>2021-08-17T21:30:01.196Z</time>
      </trkpt>
      <trkpt lat="41.04562" lon="40.59743">
        <ele>19.910056</ele>
        <time>2021-08-17T21:30:55.952Z</time>
      </trkpt>
      <trkpt lat="41.04549" lon="40.59622">
        <ele>18.638367</ele>
        <time>2021-08-17T21:31:20.700Z</time>
      </trkpt>
      <trkpt lat="41.04513" lon="40.59382">
        <ele>18.219835</ele>
        <time>2021-08-17T21:32:17.949Z</time>
      </trkpt>
      <trkpt lat="41.04499" lon="40.5928">
        <ele>18.066761</ele>
        <time>2021-08-17T21:32:42.359Z</time>
      </trkpt>
      <trkpt lat="41.04498" lon="40.59273">
        <ele>18.055525</ele>
        <time>2021-08-17T21:32:43.923Z</time>
      </trkpt>
      <trkpt lat="41.04485" lon="40.59182">
        <ele>17.913492</ele>
        <time>2021-08-17T21:33:04.795Z</time>
      </trkpt>
      <trkpt lat="41.04483" lon="40.5916">
        <ele>17.879402</ele>
        <time>2021-08-17T21:33:09.729Z</time>
      </trkpt>
      <trkpt lat="41.04464" lon="40.5902">
        <ele>17.402204</ele>
        <time>2021-08-17T21:33:40.562Z</time>
      </trkpt>
      <trkpt lat="41.04457" lon="40.58921">
        <ele>17.033557</ele>
        <time>2021-08-17T21:34:01.960Z</time>
      </trkpt>
      <trkpt lat="41.04447" lon="40.58792">
        <ele>16.69567</ele>
        <time>2021-08-17T21:34:30.700Z</time>
      </trkpt>
      <trkpt lat="41.04442" lon="40.58732">
        <ele>16.550772</ele>
        <time>2021-08-17T21:34:44.531Z</time>
      </trkpt>
      <trkpt lat="41.04436" lon="40.58666">
        <ele>16.39378</ele>
        <time>2021-08-17T21:34:59.669Z</time>
      </trkpt>
      <trkpt lat="41.04432" lon="40.58622">
        <ele>16.151948</ele>
        <time>2021-08-17T21:35:09.637Z</time>
      </trkpt>
      <trkpt lat="41.0442" lon="40.58487">
        <ele>15.372006</ele>
        <time>2021-08-17T21:35:38.878Z</time>
      </trkpt>
      <trkpt lat="41.04418" lon="40.58464">
        <ele>15.235113</ele>
        <time>2021-08-17T21:35:43.601Z</time>
      </trkpt>
      <trkpt lat="41.04411" lon="40.58388">
        <ele>14.503835</ele>
        <time>2021-08-17T21:35:58.333Z</time>
      </trkpt>
      <trkpt lat="41.04407" lon="40.58369">
        <ele>14.236775</ele>
        <time>2021-08-17T21:36:02.082Z</time>
      </trkpt>
      <trkpt lat="41.04392" lon="40.58279">
        <ele>12.989916</ele>
        <time>2021-08-17T21:36:19.361Z</time>
      </trkpt>
      <trkpt lat="41.0437" lon="40.58196">
        <ele>11.799216</ele>
        <time>2021-08-17T21:36:35.756Z</time>
      </trkpt>
      <trkpt lat="41.04346" lon="40.58119">
        <ele>11.188886</ele>
        <time>2021-08-17T21:36:51.575Z</time>
      </trkpt>
      <trkpt lat="41.04321" lon="40.58029">
        <ele>10.490323</ele>
        <time>2021-08-17T21:37:11.893Z</time>
      </trkpt>
      <trkpt lat="41.04306" lon="40.57959">
        <ele>10.117027</ele>
        <time>2021-08-17T21:37:28.208Z</time>
      </trkpt>
      <trkpt lat="41.04297" lon="40.57932">
        <ele>10.246296</ele>
        <time>2021-08-17T21:37:35.084Z</time>
      </trkpt>
      <trkpt lat="41.04292" lon="40.57917">
        <ele>10.320558</ele>
        <time>2021-08-17T21:37:39.059Z</time>
      </trkpt>
      <trkpt lat="41.04259" lon="40.57841">
        <ele>10.705095</ele>
        <time>2021-08-17T21:38:00.752Z</time>
      </trkpt>
      <trkpt lat="41.04215" lon="40.57707">
        <ele>12.148244</ele>
        <time>2021-08-17T21:38:42.592Z</time>
      </trkpt>
      <trkpt lat="41.0413" lon="40.57445">
        <ele>17.315219</ele>
        <time>2021-08-17T21:40:26.265Z</time>
      </trkpt>
      <trkpt lat="41.04089" lon="40.57318">
        <ele>19.503541</ele>
        <time>2021-08-17T21:41:10.547Z</time>
      </trkpt>
      <trkpt lat="41.04068" lon="40.5725">
        <ele>18.836954</ele>
        <time>2021-08-17T21:41:26.757Z</time>
      </trkpt>
      <trkpt lat="41.04037" lon="40.57154">
        <ele>17.88971</ele>
        <time>2021-08-17T21:41:46.487Z</time>
      </trkpt>
      <trkpt lat="41.04018" lon="40.57087">
        <ele>17.197299</ele>
        <time>2021-08-17T21:41:59.535Z</time>
      </trkpt>
      <trkpt lat="41.04004" lon="40.57038">
        <ele>16.521742</ele>
        <time>2021-08-17T21:42:09.048Z</time>
      </trkpt>
      <trkpt lat="41.04001" lon="40.57027">
        <ele>16.373032</ele>
        <time>2021-08-17T21:42:11.170Z</time>
      </trkpt>
      <trkpt lat="41.03995" lon="40.57016">
        <ele>16.20334</ele>
        <time>2021-08-17T21:42:13.558Z</time>
      </trkpt>
      <trkpt lat="41.03993" lon="40.5701">
        <ele>16.121118</ele>
        <time>2021-08-17T21:42:14.963Z</time>
      </trkpt>
      <trkpt lat="41.03974" lon="40.5698">
        <ele>15.623839</ele>
        <time>2021-08-17T21:42:22.102Z</time>
      </trkpt>
      <trkpt lat="41.0393" lon="40.56906">
        <ele>14.418834</ele>
        <time>2021-08-17T21:42:40.922Z</time>
      </trkpt>
      <trkpt lat="41.03884" lon="40.56772">
        <ele>13.111454</ele>
        <time>2021-08-17T21:43:12.597Z</time>
      </trkpt>
      <trkpt lat="41.03859" lon="40.56709">
        <ele>12.498827</ele>
        <time>2021-08-17T21:43:26.041Z</time>
      </trkpt>
      <trkpt lat="41.0385" lon="40.56677">
        <ele>12.218526</ele>
        <time>2021-08-17T21:43:32.391Z</time>
      </trkpt>
      <trkpt lat="41.03838" lon="40.56645">
        <ele>11.987725</ele>
        <time>2021-08-17T21:43:39.095Z</time>
      </trkpt>
      <trkpt lat="41.03842" lon="40.56621">
        <ele>11.827218</ele>
        <time>2021-08-17T21:43:44.193Z</time>
      </trkpt>
      <trkpt lat="41.03851" lon="40.56608">
        <ele>11.71556</ele>
        <time>2021-08-17T21:43:47.493Z</time>
      </trkpt>
      <trkpt lat="41.03867" lon="40.56597">
        <ele>11.561309</ele>
        <time>2021-08-17T21:43:52.461Z</time>
      </trkpt>
      <trkpt lat="41.03874" lon="40.56582">
        <ele>11.449845</ele>
        <time>2021-08-17T21:43:56.032Z</time>
      </trkpt>
      <trkpt lat="41.03874" lon="40.56576">
        <ele>11.409046</ele>
        <time>2021-08-17T21:43:57.226Z</time>
      </trkpt>
      <trkpt lat="41.03876" lon="40.56567">
        <ele>11.346949</ele>
        <time>2021-08-17T21:43:59.131Z</time>
      </trkpt>
      <trkpt lat="41.03881" lon="40.56558">
        <ele>11.280144</ele>
        <time>2021-08-17T21:44:01.753Z</time>
      </trkpt>
      <trkpt lat="41.03897" lon="40.56549">
        <ele>11.127236</ele>
        <time>2021-08-17T21:44:06.818Z</time>
      </trkpt>
      <trkpt lat="41.03892" lon="40.56537">
        <ele>11.034957</ele>
        <time>2021-08-17T21:44:09.894Z</time>
      </trkpt>
      <trkpt lat="41.03889" lon="40.5653">
        <ele>10.980716</ele>
        <time>2021-08-17T21:44:12.313Z</time>
      </trkpt>
      <trkpt lat="41.03873" lon="40.5651">
        <ele>10.794535</ele>
        <time>2021-08-17T21:44:19.023Z</time>
      </trkpt>
      <trkpt lat="41.03816" lon="40.56463">
        <ele>10.95535</ele>
        <time>2021-08-17T21:44:41.429Z</time>
      </trkpt>
      <trkpt lat="41.03785" lon="40.56431">
        <ele>11.125116</ele>
        <time>2021-08-17T21:44:55.433Z</time>
      </trkpt>
      <trkpt lat="41.03738" lon="40.56365">
        <ele>11.417404</ele>
        <time>2021-08-17T21:45:21.449Z</time>
      </trkpt>
      <trkpt lat="41.03646" lon="40.56208">
        <ele>11.526739</ele>
        <time>2021-08-17T21:46:11.243Z</time>
      </trkpt>
      <trkpt lat="41.03601" lon="40.56147">
        <ele>11.437082</ele>
        <time>2021-08-17T21:46:30.757Z</time>
      </trkpt>
      <trkpt lat="41.0335" lon="40.55764">
        <ele>9.39347</ele>
        <time>2021-08-17T21:48:24.530Z</time>
      </trkpt>
      <trkpt lat="41.03202" lon="40.55502">
        <ele>8.618061</ele>
        <time>2021-08-17T21:49:40.596Z</time>
      </trkpt>
      <trkpt lat="41.02995" lon="40.55077">
        <ele>8.31887</ele>
        <time>2021-08-17T21:51:43.368Z</time>
      </trkpt>
      <trkpt lat="41.02948" lon="40.54972">
        <ele>8.289331</ele>
        <time>2021-08-17T21:52:13.417Z</time>
      </trkpt>
      <trkpt lat="41.02818" lon="40.54617">
        <ele>8.185896</ele>
        <time>2021-08-17T21:53:49.995Z</time>
      </trkpt>
      <trkpt lat="41.02767" lon="40.5447">
        <ele>8.038535</ele>
        <time>2021-08-17T21:54:29.074Z</time>
      </trkpt>
      <trkpt lat="41.02745" lon="40.54392">
        <ele>7.953816</ele>
        <time>2021-08-17T21:54:48.976Z</time>
      </trkpt>
      <trkpt lat="41.02632" lon="40.53845">
        <ele>6.835847</ele>
        <time>2021-08-17T21:57:01.110Z</time>
      </trkpt>
      <trkpt lat="41.02608" lon="40.53708">
        <ele>6.755947</ele>
        <time>2021-08-17T21:57:35.412Z</time>
      </trkpt>
      <trkpt lat="41.02594" lon="40.53604">
        <ele>6.816358</ele>
        <time>2021-08-17T21:58:01.873Z</time>
      </trkpt>
      <trkpt lat="41.02583" lon="40.53389">
        <ele>7.173295</ele>
        <time>2021-08-17T21:58:56.265Z</time>
      </trkpt>
      <trkpt lat="41.02584" lon="40.53324">
        <ele>7.412242</ele>
        <time>2021-08-17T21:59:13.422Z</time>
      </trkpt>
      <trkpt lat="41.02585" lon="40.53206">
        <ele>7.847997</ele>
        <time>2021-08-17T21:59:45.565Z</time>
      </trkpt>
      <trkpt lat="41.02592" lon="40.52711">
        <ele>10.836956</ele>
        <time>2021-08-17T22:02:05.543Z</time>
      </trkpt>
      <trkpt lat="41.02601" lon="40.52619">
        <ele>10.779075</ele>
        <time>2021-08-17T22:02:28.481Z</time>
      </trkpt>
      <trkpt lat="41.02602" lon="40.52601">
        <ele>10.767261</ele>
        <time>2021-08-17T22:02:32.736Z</time>
      </trkpt>
      <trkpt lat="41.02604" lon="40.52541">
        <ele>10.730079</ele>
        <time>2021-08-17T22:02:47.035Z</time>
      </trkpt>
      <trkpt lat="41.02607" lon="40.52416">
        <ele>10.107779</ele>
        <time>2021-08-17T22:03:14.649Z</time>
      </trkpt>
      <trkpt lat="41.02608" lon="40.52389">
        <ele>9.901747</ele>
        <time>2021-08-17T22:03:20.703Z</time>
      </trkpt>
      <trkpt lat="41.02616" lon="40.52322">
        <ele>9.38928</ele>
        <time>2021-08-17T22:03:34.926Z</time>
      </trkpt>
      <trkpt lat="41.02621" lon="40.52292">
        <ele>9.159128</ele>
        <time>2021-08-17T22:03:41.426Z</time>
      </trkpt>
      <trkpt lat="41.02624" lon="40.52274">
        <ele>9.021055</ele>
        <time>2021-08-17T22:03:45.100Z</time>
      </trkpt>
      <trkpt lat="41.02637" lon="40.52219">
        <ele>8.493587</ele>
        <time>2021-08-17T22:03:56.893Z</time>
      </trkpt>
      <trkpt lat="41.02654" lon="40.52175">
        <ele>8.005274</ele>
        <time>2021-08-17T22:04:06.732Z</time>
      </trkpt>
      <trkpt lat="41.02662" lon="40.52158">
        <ele>7.81038</ele>
        <time>2021-08-17T22:04:10.643Z</time>
      </trkpt>
      <trkpt lat="41.0269" lon="40.52121">
        <ele>7.289919</ele>
        <time>2021-08-17T22:04:21.267Z</time>
      </trkpt>
      <trkpt lat="41.02714" lon="40.52099">
        <ele>6.915379</ele>
        <time>2021-08-17T22:04:29.371Z</time>
      </trkpt>
      <trkpt lat="41.02736" lon="40.52082">
        <ele>6.585092</ele>
        <time>2021-08-17T22:04:37.067Z</time>
      </trkpt>
      <trkpt lat="41.02745" lon="40.52076">
        <ele>6.602096</ele>
        <time>2021-08-17T22:04:39.802Z</time>
      </trkpt>
      <trkpt lat="41.02748" lon="40.52073">
        <ele>6.625715</ele>
        <time>2021-08-17T22:04:41.008Z</time>
      </trkpt>
      <trkpt lat="41.02751" lon="40.52071">
        <ele>6.64109</ele>
        <time>2021-08-17T22:04:41.892Z</time>
      </trkpt>
      <trkpt lat="41.02761" lon="40.52054">
        <ele>6.728682</ele>
        <time>2021-08-17T22:04:47.274Z</time>
      </trkpt>
      <trkpt lat="41.02766" lon="40.52045">
        <ele>6.774731</ele>
        <time>2021-08-17T22:04:49.764Z</time>
      </trkpt>
      <trkpt lat="41.0277" lon="40.52036">
        <ele>6.812117</ele>
        <time>2021-08-17T22:04:51.839Z</time>
      </trkpt>
      <trkpt lat="41.02772" lon="40.52029">
        <ele>6.844312</ele>
        <time>2021-08-17T22:04:53.831Z</time>
      </trkpt>
      <trkpt lat="41.02767" lon="40.52027">
        <ele>6.871723</ele>
        <time>2021-08-17T22:04:55.937Z</time>
      </trkpt>
      <trkpt lat="41.02754" lon="40.5202">
        <ele>6.948996</ele>
        <time>2021-08-17T22:05:00.472Z</time>
      </trkpt>
      <trkpt lat="41.02748" lon="40.52007">
        <ele>7.00964</ele>
        <time>2021-08-17T22:05:04.569Z</time>
      </trkpt>
      <trkpt lat="41.02747" lon="40.51994">
        <ele>7.062802</ele>
        <time>2021-08-17T22:05:08.753Z</time>
      </trkpt>
      <trkpt lat="41.02749" lon="40.51986">
        <ele>7.095404</ele>
        <time>2021-08-17T22:05:10.901Z</time>
      </trkpt>
      <trkpt lat="41.02752" lon="40.51969">
        <ele>7.166865</ele>
        <time>2021-08-17T22:05:15.499Z</time>
      </trkpt>
      <trkpt lat="41.02752" lon="40.5194">
        <ele>7.283431</ele>
        <time>2021-08-17T22:05:24.167Z</time>
      </trkpt>
      <trkpt lat="41.02749" lon="40.51903">
        <ele>7.431297</ele>
        <time>2021-08-17T22:05:35.086Z</time>
      </trkpt>
      <trkpt lat="41.02741" lon="40.51885">
        <ele>7.516613</ele>
        <time>2021-08-17T22:05:41.061Z</time>
      </trkpt>
      <trkpt lat="41.02728" lon="40.51866">
        <ele>7.663853</ele>
        <time>2021-08-17T22:05:48.895Z</time>
      </trkpt>
      <trkpt lat="41.02709" lon="40.51856">
        <ele>7.822045</ele>
        <time>2021-08-17T22:05:56.395Z</time>
      </trkpt>
      <trkpt lat="41.02696" lon="40.51851">
        <ele>7.924824</ele>
        <time>2021-08-17T22:06:01.825Z</time>
      </trkpt>
      <trkpt lat="41.02686" lon="40.51838">
        <ele>8.035211</ele>
        <time>2021-08-17T22:06:07.128Z</time>
      </trkpt>
      <trkpt lat="41.02684" lon="40.51832">
        <ele>8.075361</ele>
        <time>2021-08-17T22:06:08.882Z</time>
      </trkpt>
      <trkpt lat="41.02686" lon="40.51821">
        <ele>8.14091</ele>
        <time>2021-08-17T22:06:11.787Z</time>
      </trkpt>
      <trkpt lat="41.02687" lon="40.51813">
        <ele>8.187543</ele>
        <time>2021-08-17T22:06:14.273Z</time>
      </trkpt>
      <trkpt lat="41.02696" lon="40.51799">
        <ele>8.300097</ele>
        <time>2021-08-17T22:06:19.430Z</time>
      </trkpt>
      <trkpt lat="41.02703" lon="40.5179">
        <ele>8.372952</ele>
        <time>2021-08-17T22:06:22.347Z</time>
      </trkpt>
      <trkpt lat="41.02706" lon="40.51786">
        <ele>8.402586</ele>
        <time>2021-08-17T22:06:23.579Z</time>
      </trkpt>
      <trkpt lat="41.02717" lon="40.5177">
        <ele>8.531832</ele>
        <time>2021-08-17T22:06:29.372Z</time>
      </trkpt>
      <trkpt lat="41.0273" lon="40.51753">
        <ele>8.675623</ele>
        <time>2021-08-17T22:06:35.005Z</time>
      </trkpt>
      <trkpt lat="41.02824" lon="40.51652">
        <ele>9.242985</ele>
        <time>2021-08-17T22:07:14.998Z</time>
      </trkpt>
      <trkpt lat="41.0283" lon="40.51646">
        <ele>9.268432</ele>
        <time>2021-08-17T22:07:16.852Z</time>
      </trkpt>
      <trkpt lat="41.02789" lon="40.5157">
        <ele>9.525553</ele>
        <time>2021-08-17T22:07:40.991Z</time>
      </trkpt>
      <trkpt lat="41.02781" lon="40.51559">
        <ele>9.568318</ele>
        <time>2021-08-17T22:07:45.528Z</time>
      </trkpt>
      <trkpt lat="41.02818" lon="40.51546">
        <ele>9.830069</ele>
        <time>2021-08-17T22:07:59.113Z</time>
      </trkpt>
      <trkpt lat="41.02848" lon="40.5152">
        <ele>10.07507</ele>
        <time>2021-08-17T22:08:11.803Z</time>
      </trkpt>
      <trkpt lat="41.02931" lon="40.51442">
        <ele>10.786645</ele>
        <time>2021-08-17T22:08:48.958Z</time>
      </trkpt>
      <trkpt lat="41.031" lon="40.51282">
        <ele>10.266856</ele>
        <time>2021-08-17T22:09:50.364Z</time>
      </trkpt>
      <trkpt lat="41.03104" lon="40.51279">
        <ele>10.236859</ele>
        <time>2021-08-17T22:09:51.611Z</time>
      </trkpt>
      <trkpt lat="41.03113" lon="40.51271">
        <ele>10.165715</ele>
        <time>2021-08-17T22:09:54.480Z</time>
      </trkpt>
      <trkpt lat="41.03165" lon="40.5123">
        <ele>9.752053</ele>
        <time>2021-08-17T22:10:10.983Z</time>
      </trkpt>
      <trkpt lat="41.03167" lon="40.51233">
        <ele>9.730998</ele>
        <time>2021-08-17T22:10:11.837Z</time>
      </trkpt>
      <trkpt lat="41.0317" lon="40.51234">
        <ele>9.710301</ele>
        <time>2021-08-17T22:10:12.754Z</time>
      </trkpt>
      <trkpt lat="41.03173" lon="40.51235">
        <ele>9.688955</ele>
        <time>2021-08-17T22:10:13.601Z</time>
      </trkpt>
      <trkpt lat="41.03176" lon="40.51234">
        <ele>9.666536</ele>
        <time>2021-08-17T22:10:14.545Z</time>
      </trkpt>
      <trkpt lat="41.03179" lon="40.51232">
        <ele>9.644229</ele>
        <time>2021-08-17T22:10:15.501Z</time>
      </trkpt>
      <trkpt lat="41.03181" lon="40.51228">
        <ele>9.621909</ele>
        <time>2021-08-17T22:10:16.430Z</time>
      </trkpt>
      <trkpt lat="41.03182" lon="40.51225">
        <ele>9.600134</ele>
        <time>2021-08-17T22:10:17.411Z</time>
      </trkpt>
      <trkpt lat="41.03182" lon="40.5122">
        <ele>9.577809</ele>
        <time>2021-08-17T22:10:18.392Z</time>
      </trkpt>
      <trkpt lat="41.03188" lon="40.51219">
        <ele>9.540195</ele>
        <time>2021-08-17T22:10:19.734Z</time>
      </trkpt>
      <trkpt lat="41.03291" lon="40.51136">
        <ele>9.266449</ele>
        <time>2021-08-17T22:10:54.225Z</time>
      </trkpt>
      <trkpt lat="41.03332" lon="40.51098">
        <ele>9.318766</ele>
        <time>2021-08-17T22:11:10.320Z</time>
      </trkpt>
      <trkpt lat="41.03339" lon="40.5108">
        <ele>9.334555</ele>
        <time>2021-08-17T22:11:15.461Z</time>
      </trkpt>
      <trkpt lat="41.03346" lon="40.51063">
        <ele>9.349455</ele>
        <time>2021-08-17T22:11:20.558Z</time>
      </trkpt>
      <trkpt lat="41.03423" lon="40.50987">
        <ele>10.141364</ele>
        <time>2021-08-17T22:11:55.475Z</time>
      </trkpt>
      <trkpt lat="41.03464" lon="40.50937">
        <ele>10.77533</ele>
        <time>2021-08-17T22:12:17.368Z</time>
      </trkpt>
      <trkpt lat="41.03549" lon="40.50877">
        <ele>12.42351</ele>
        <time>2021-08-17T22:12:52.966Z</time>
      </trkpt>
      <trkpt lat="41.03572" lon="40.50862">
        <ele>13.08653</ele>
        <time>2021-08-17T22:13:03.286Z</time>
      </trkpt>
      <trkpt lat="41.03582" lon="40.50853">
        <ele>13.412479</ele>
        <time>2021-08-17T22:13:08.413Z</time>
      </trkpt>
      <trkpt lat="41.03647" lon="40.50787">
        <ele>15.547524</ele>
        <time>2021-08-17T22:13:50.202Z</time>
      </trkpt>
      <trkpt lat="41.03673" lon="40.5076">
        <ele>16.552055</ele>
        <time>2021-08-17T22:14:07.091Z</time>
      </trkpt>
      <trkpt lat="41.03667" lon="40.50666">
        <ele>19.251496</ele>
        <time>2021-08-17T22:14:44.986Z</time>
      </trkpt>
      <trkpt lat="41.03671" lon="40.50661">
        <ele>19.452415</ele>
        <time>2021-08-17T22:14:49.198Z</time>
      </trkpt>
      <trkpt lat="41.03768" lon="40.50554">
        <ele>23.872336</ele>
        <time>2021-08-17T22:15:55.746Z</time>
      </trkpt>
      <trkpt lat="41.03877" lon="40.50444">
        <ele>27.51785</ele>
        <time>2021-08-17T22:16:55.239Z</time>
      </trkpt>
      <trkpt lat="41.0389" lon="40.50409">
        <ele>28.11711</ele>
        <time>2021-08-17T22:17:08.879Z</time>
      </trkpt>
      <trkpt lat="41.03894" lon="40.50374">
        <ele>28.59638</ele>
        <time>2021-08-17T22:17:21.449Z</time>
      </trkpt>
      <trkpt lat="41.03886" lon="40.50284">
        <ele>29.826294</ele>
        <time>2021-08-17T22:17:52.240Z</time>
      </trkpt>
      <trkpt lat="41.03886" lon="40.5028">
        <ele>29.87946</ele>
        <time>2021-08-17T22:17:54.101Z</time>
      </trkpt>
      <trkpt lat="41.03838" lon="40.50148">
        <ele>30.255783</ele>
        <time>2021-08-17T22:18:31.562Z</time>
      </trkpt>
      <trkpt lat="41.03834" lon="40.50131">
        <ele>30.062258</ele>
        <time>2021-08-17T22:18:35.219Z</time>
      </trkpt>
      <trkpt lat="41.03831" lon="40.50112">
        <ele>29.851752</ele>
        <time>2021-08-17T22:18:38.731Z</time>
      </trkpt>
      <trkpt lat="41.03825" lon="40.5005">
        <ele>29.165692</ele>
        <time>2021-08-17T22:18:50.453Z</time>
      </trkpt>
      <trkpt lat="41.03823" lon="40.50037">
        <ele>29.015794</ele>
        <time>2021-08-17T22:18:52.801Z</time>
      </trkpt>
      <trkpt lat="41.03827" lon="40.49969">
        <ele>28.257399</ele>
        <time>2021-08-17T22:19:04.641Z</time>
      </trkpt>
      <trkpt lat="41.03839" lon="40.49915">
        <ele>27.547761</ele>
        <time>2021-08-17T22:19:14.676Z</time>
      </trkpt>
      <trkpt lat="41.03855" lon="40.49837">
        <ele>26.543667</ele>
        <time>2021-08-17T22:19:29.111Z</time>
      </trkpt>
      <trkpt lat="41.03866" lon="40.49785">
        <ele>25.86217</ele>
        <time>2021-08-17T22:19:40.969Z</time>
      </trkpt>
      <trkpt lat="41.03894" lon="40.49658">
        <ele>25.279968</ele>
        <time>2021-08-17T22:20:12.319Z</time>
      </trkpt>
      <trkpt lat="41.03903" lon="40.49599">
        <ele>25.218952</ele>
        <time>2021-08-17T22:20:27.671Z</time>
      </trkpt>
      <trkpt lat="41.03904" lon="40.49554">
        <ele>25.17199</ele>
        <time>2021-08-17T22:20:38.135Z</time>
      </trkpt>
      <trkpt lat="41.03898" lon="40.49516">
        <ele>25.132797</ele>
        <time>2021-08-17T22:20:46.494Z</time>
      </trkpt>
      <trkpt lat="41.03873" lon="40.49435">
        <ele>24.625779</ele>
        <time>2021-08-17T22:21:04.123Z</time>
      </trkpt>
      <trkpt lat="41.03867" lon="40.49412">
        <ele>24.478189</ele>
        <time>2021-08-17T22:21:09.086Z</time>
      </trkpt>
      <trkpt lat="41.03832" lon="40.49293">
        <ele>23.732861</ele>
        <time>2021-08-17T22:21:35.616Z</time>
      </trkpt>
      <trkpt lat="41.03825" lon="40.49265">
        <ele>23.901928</ele>
        <time>2021-08-17T22:21:41.763Z</time>
      </trkpt>
      <trkpt lat="41.03817" lon="40.49238">
        <ele>24.066148</ele>
        <time>2021-08-17T22:21:48.216Z</time>
      </trkpt>
      <trkpt lat="41.0378" lon="40.49136">
        <ele>24.720205</ele>
        <time>2021-08-17T22:22:20.087Z</time>
      </trkpt>
      <trkpt lat="41.03746" lon="40.49063">
        <ele>25.172364</ele>
        <time>2021-08-17T22:22:47.494Z</time>
      </trkpt>
      <trkpt lat="41.03731" lon="40.49028">
        <ele>25.318767</ele>
        <time>2021-08-17T22:22:58.952Z</time>
      </trkpt>
      <trkpt lat="41.03722" lon="40.4897">
        <ele>25.530389</ele>
        <time>2021-08-17T22:23:15.023Z</time>
      </trkpt>
      <trkpt lat="41.03714" lon="40.48931">
        <ele>25.675554</ele>
        <time>2021-08-17T22:23:24.293Z</time>
      </trkpt>
      <trkpt lat="41.03713" lon="40.48924">
        <ele>25.700888</ele>
        <time>2021-08-17T22:23:26.669Z</time>
      </trkpt>
      <trkpt lat="41.0371" lon="40.48897">
        <ele>25.798125</ele>
        <time>2021-08-17T22:23:32.437Z</time>
      </trkpt>
      <trkpt lat="41.03712" lon="40.4886">
        <ele>25.931418</ele>
        <time>2021-08-17T22:23:40.605Z</time>
      </trkpt>
      <trkpt lat="41.0369" lon="40.48795">
        <ele>25.834315</ele>
        <time>2021-08-17T22:23:55.594Z</time>
      </trkpt>
      <trkpt lat="41.03662" lon="40.48711">
        <ele>25.656676</ele>
        <time>2021-08-17T22:24:14.916Z</time>
      </trkpt>
      <trkpt lat="41.03642" lon="40.48642">
        <ele>25.514123</ele>
        <time>2021-08-17T22:24:31.727Z</time>
      </trkpt>
      <trkpt lat="41.03635" lon="40.48627">
        <ele>25.563236</ele>
        <time>2021-08-17T22:24:38.006Z</time>
      </trkpt>
      <trkpt lat="41.03621" lon="40.4855">
        <ele>26.155277</ele>
        <time>2021-08-17T22:25:00.024Z</time>
      </trkpt>
      <trkpt lat="41.03605" lon="40.4838">
        <ele>26.928439</ele>
        <time>2021-08-17T22:25:50.575Z</time>
      </trkpt>
      <trkpt lat="41.03591" lon="40.48283">
        <ele>25.286717</ele>
        <time>2021-08-17T22:26:11.910Z</time>
      </trkpt>
      <trkpt lat="41.03586" lon="40.48262">
        <ele>24.918896</ele>
        <time>2021-08-17T22:26:15.619Z</time>
      </trkpt>
      <trkpt lat="41.03577" lon="40.48222">
        <ele>24.219361</ele>
        <time>2021-08-17T22:26:22.673Z</time>
      </trkpt>
      <trkpt lat="41.03563" lon="40.48177">
        <ele>23.413257</ele>
        <time>2021-08-17T22:26:30.511Z</time>
      </trkpt>
      <trkpt lat="41.03542" lon="40.48119">
        <ele>21.38855</ele>
        <time>2021-08-17T22:26:40.366Z</time>
      </trkpt>
      <trkpt lat="41.03528" lon="40.48075">
        <ele>19.783841</ele>
        <time>2021-08-17T22:26:47.783Z</time>
      </trkpt>
      <trkpt lat="41.03495" lon="40.47975">
        <ele>16.155051</ele>
        <time>2021-08-17T22:27:05.688Z</time>
      </trkpt>
      <trkpt lat="41.03491" lon="40.47965">
        <ele>15.748843</ele>
        <time>2021-08-17T22:27:07.537Z</time>
      </trkpt>
      <trkpt lat="41.03485" lon="40.47953">
        <ele>15.390663</ele>
        <time>2021-08-17T22:27:10.547Z</time>
      </trkpt>
      <trkpt lat="41.0348" lon="40.47944">
        <ele>15.589751</ele>
        <time>2021-08-17T22:27:12.996Z</time>
      </trkpt>
      <trkpt lat="41.03477" lon="40.47937">
        <ele>15.735404</ele>
        <time>2021-08-17T22:27:14.763Z</time>
      </trkpt>
      <trkpt lat="41.0345" lon="40.47887">
        <ele>16.840815</ele>
        <time>2021-08-17T22:27:27.324Z</time>
      </trkpt>
      <trkpt lat="41.03445" lon="40.47879">
        <ele>17.026825</ele>
        <time>2021-08-17T22:27:31.194Z</time>
      </trkpt>
      <trkpt lat="41.03443" lon="40.47875">
        <ele>17.104701</ele>
        <time>2021-08-17T22:27:32.974Z</time>
      </trkpt>
      <trkpt lat="41.03415" lon="40.4783">
        <ele>18.174685</ele>
        <time>2021-08-17T22:27:56.244Z</time>
      </trkpt>
      <trkpt lat="41.03403" lon="40.47785">
        <ele>19.038352</ele>
        <time>2021-08-17T22:28:15.356Z</time>
      </trkpt>
      <trkpt lat="41.03397" lon="40.47734">
        <ele>20.435072</ele>
        <time>2021-08-17T22:28:42.674Z</time>
      </trkpt>
      <trkpt lat="41.03397" lon="40.47663">
        <ele>23.572677</ele>
        <time>2021-08-17T22:29:20.785Z</time>
      </trkpt>
      <trkpt lat="41.03404" lon="40.4762">
        <ele>25.484244</ele>
        <time>2021-08-17T22:29:43.262Z</time>
      </trkpt>
      <trkpt lat="41.03408" lon="40.47601">
        <ele>26.366336</ele>
        <time>2021-08-17T22:29:54.031Z</time>
      </trkpt>
      <trkpt lat="41.03412" lon="40.47592">
        <ele>26.806649</ele>
        <time>2021-08-17T22:29:58.102Z</time>
      </trkpt>
      <trkpt lat="41.03414" lon="40.47589">
        <ele>26.994352</ele>
        <time>2021-08-17T22:29:59.689Z</time>
      </trkpt>
      <trkpt lat="41.03415" lon="40.47585">
        <ele>27.199358</ele>
        <time>2021-08-17T22:30:02.397Z</time>
      </trkpt>
      <trkpt lat="41.03412" lon="40.47572">
        <ele>27.784074</ele>
        <time>2021-08-17T22:30:07.897Z</time>
      </trkpt>
      <trkpt lat="41.03409" lon="40.4757">
        <ele>27.987017</ele>
        <time>2021-08-17T22:30:10.121Z</time>
      </trkpt>
      <trkpt lat="41.03406" lon="40.47569">
        <ele>28.169627</ele>
        <time>2021-08-17T22:30:12.236Z</time>
      </trkpt>
      <trkpt lat="41.03403" lon="40.47569">
        <ele>28.351711</ele>
        <time>2021-08-17T22:30:14.349Z</time>
      </trkpt>
      <trkpt lat="41.034" lon="40.4757">
        <ele>28.538299</ele>
        <time>2021-08-17T22:30:16.321Z</time>
      </trkpt>
      <trkpt lat="41.03396" lon="40.47552">
        <ele>29.375652</ele>
        <time>2021-08-17T22:30:24.530Z</time>
      </trkpt>
      <trkpt lat="41.03381" lon="40.47496">
        <ele>31.207843</ele>
        <time>2021-08-17T22:30:49.104Z</time>
      </trkpt>
      <trkpt lat="41.03338" lon="40.47366">
        <ele>34.68892</ele>
        <time>2021-08-17T22:31:43.544Z</time>
      </trkpt>
      <trkpt lat="41.03307" lon="40.47226">
        <ele>37.331687</ele>
        <time>2021-08-17T22:32:28.129Z</time>
      </trkpt>
      <trkpt lat="41.03276" lon="40.47164">
        <ele>38.374495</ele>
        <time>2021-08-17T22:32:49.689Z</time>
      </trkpt>
      <trkpt lat="41.03199" lon="40.4706">
        <ele>40.69879</ele>
        <time>2021-08-17T22:33:38.272Z</time>
      </trkpt>
      <trkpt lat="41.03179" lon="40.47022">
        <ele>41.515536</ele>
        <time>2021-08-17T22:33:54.446Z</time>
      </trkpt>
      <trkpt lat="41.03143" lon="40.46913">
        <ele>43.627314</ele>
        <time>2021-08-17T22:34:35.371Z</time>
      </trkpt>
      <trkpt lat="41.03124" lon="40.46846">
        <ele>43.240218</ele>
        <time>2021-08-17T22:34:57.377Z</time>
      </trkpt>
      <trkpt lat="41.03106" lon="40.46744">
        <ele>42.614697</ele>
        <time>2021-08-17T22:35:22.053Z</time>
      </trkpt>
      <trkpt lat="41.03074" lon="40.46496">
        <ele>35.051904</ele>
        <time>2021-08-17T22:36:02.634Z</time>
      </trkpt>
      <trkpt lat="41.03068" lon="40.46446">
        <ele>33.133504</ele>
        <time>2021-08-17T22:36:10.311Z</time>
      </trkpt>
      <trkpt lat="41.03057" lon="40.46357">
        <ele>30.370481</ele>
        <time>2021-08-17T22:36:24.296Z</time>
      </trkpt>
      <trkpt lat="41.03058" lon="40.46315">
        <ele>29.058834</ele>
        <time>2021-08-17T22:36:31.121Z</time>
      </trkpt>
      <trkpt lat="41.03068" lon="40.4626">
        <ele>27.329315</ele>
        <time>2021-08-17T22:36:40.430Z</time>
      </trkpt>
      <trkpt lat="41.03071" lon="40.46212">
        <ele>25.853382</ele>
        <time>2021-08-17T22:36:49.414Z</time>
      </trkpt>
      <trkpt lat="41.03066" lon="40.46102">
        <ele>26.62757</ele>
        <time>2021-08-17T22:37:19.846Z</time>
      </trkpt>
      <trkpt lat="41.03054" lon="40.459">
        <ele>27.913444</ele>
        <time>2021-08-17T22:38:24.118Z</time>
      </trkpt>
      <trkpt lat="41.03058" lon="40.45783">
        <ele>28.410369</ele>
        <time>2021-08-17T22:38:53.358Z</time>
      </trkpt>
      <trkpt lat="41.03079" lon="40.45588">
        <ele>28.563632</ele>
        <time>2021-08-17T22:39:34.543Z</time>
      </trkpt>
      <trkpt lat="41.03073" lon="40.45473">
        <ele>28.65047</ele>
        <time>2021-08-17T22:40:04.980Z</time>
      </trkpt>
      <trkpt lat="41.03042" lon="40.45331">
        <ele>29.340969</ele>
        <time>2021-08-17T22:40:54.418Z</time>
      </trkpt>
      <trkpt lat="41.02978" lon="40.45141">
        <ele>26.176047</ele>
        <time>2021-08-17T22:41:32.015Z</time>
      </trkpt>
      <trkpt lat="41.02977" lon="40.45134">
        <ele>26.004122</ele>
        <time>2021-08-17T22:41:33.806Z</time>
      </trkpt>
      <trkpt lat="41.02982" lon="40.45136">
        <ele>25.833616</ele>
        <time>2021-08-17T22:41:34.827Z</time>
      </trkpt>
      <trkpt lat="41.02989" lon="40.45136">
        <ele>25.607259</ele>
        <time>2021-08-17T22:41:36.300Z</time>
      </trkpt>
      <trkpt lat="41.02996" lon="40.45136">
        <ele>25.369036</ele>
        <time>2021-08-17T22:41:37.915Z</time>
      </trkpt>
      <trkpt lat="41.03004" lon="40.45137">
        <ele>25.133466</ele>
        <time>2021-08-17T22:41:39.385Z</time>
      </trkpt>
      <trkpt lat="41.03016" lon="40.45135">
        <ele>24.718042</ele>
        <time>2021-08-17T22:41:42.570Z</time>
      </trkpt>
      <trkpt lat="41.03022" lon="40.45133">
        <ele>24.523712</ele>
        <time>2021-08-17T22:41:43.725Z</time>
      </trkpt>
      <trkpt lat="41.03019" lon="40.45103">
        <ele>23.830786</ele>
        <time>2021-08-17T22:41:48.872Z</time>
      </trkpt>
      <trkpt lat="41.03018" lon="40.45097">
        <ele>23.778914</ele>
        <time>2021-08-17T22:41:49.913Z</time>
      </trkpt>
      <trkpt lat="41.03014" lon="40.45031">
        <ele>23.205637</ele>
        <time>2021-08-17T22:42:00.158Z</time>
      </trkpt>
      <trkpt lat="41.03039" lon="40.44371">
        <ele>19.995241</ele>
        <time>2021-08-17T22:44:26.950Z</time>
      </trkpt>
      <trkpt lat="41.03035" lon="40.44276">
        <ele>21.59699</ele>
        <time>2021-08-17T22:45:03.175Z</time>
      </trkpt>
      <trkpt lat="41.03022" lon="40.44184">
        <ele>23.180259</ele>
        <time>2021-08-17T22:45:37.400Z</time>
      </trkpt>
      <trkpt lat="41.02993" lon="40.44087">
        <ele>23.10551</ele>
        <time>2021-08-17T22:46:09.098Z</time>
      </trkpt>
      <trkpt lat="41.02883" lon="40.43839">
        <ele>22.556816</ele>
        <time>2021-08-17T22:47:01.012Z</time>
      </trkpt>
      <trkpt lat="41.02856" lon="40.43716">
        <ele>23.854258</ele>
        <time>2021-08-17T22:47:50.735Z</time>
      </trkpt>
      <trkpt lat="41.02851" lon="40.43692">
        <ele>25.062574</ele>
        <time>2021-08-17T22:48:02.145Z</time>
      </trkpt>
      <trkpt lat="41.02839" lon="40.4369">
        <ele>25.847549</ele>
        <time>2021-08-17T22:48:11.243Z</time>
      </trkpt>
      <trkpt lat="41.0283" lon="40.43697">
        <ele>26.537971</ele>
        <time>2021-08-17T22:48:16.487Z</time>
      </trkpt>
      <trkpt lat="41.02822" lon="40.43708">
        <ele>27.27477</ele>
        <time>2021-08-17T22:48:24.992Z</time>
      </trkpt>
      <trkpt lat="41.02805" lon="40.43718">
        <ele>28.50912</ele>
        <time>2021-08-17T22:48:38.818Z</time>
      </trkpt>
      <trkpt lat="41.02803" lon="40.43682">
        <ele>30.285506</ele>
        <time>2021-08-17T22:49:00.342Z</time>
      </trkpt>
      <trkpt lat="41.02803" lon="40.43355">
        <ele>46.034592</ele>
        <time>2021-08-17T22:51:52.747Z</time>
      </trkpt>
      <trkpt lat="41.02795" lon="40.43297">
        <ele>46.262546</ele>
        <time>2021-08-17T22:52:14.194Z</time>
      </trkpt>
      <trkpt lat="41.02779" lon="40.43238">
        <ele>46.261734</ele>
        <time>2021-08-17T22:52:32.520Z</time>
      </trkpt>
      <trkpt lat="41.02752" lon="40.43174">
        <ele>46.260808</ele>
        <time>2021-08-17T22:52:47.419Z</time>
      </trkpt>
      <trkpt lat="41.02726" lon="40.43124">
        <ele>45.549462</ele>
        <time>2021-08-17T22:52:58.073Z</time>
      </trkpt>
      <trkpt lat="41.0261" lon="40.42939">
        <ele>31.582828</ele>
        <time>2021-08-17T22:53:33.517Z</time>
      </trkpt>
      <trkpt lat="41.02585" lon="40.42884">
        <ele>27.431022</ele>
        <time>2021-08-17T22:53:42.762Z</time>
      </trkpt>
      <trkpt lat="41.02574" lon="40.42856">
        <ele>25.417079</ele>
        <time>2021-08-17T22:53:47.186Z</time>
      </trkpt>
      <trkpt lat="41.0256" lon="40.4282">
        <ele>22.786443</ele>
        <time>2021-08-17T22:53:53.069Z</time>
      </trkpt>
      <trkpt lat="41.02542" lon="40.42757">
        <ele>18.494916</ele>
        <time>2021-08-17T22:54:02.970Z</time>
      </trkpt>
      <trkpt lat="41.02519" lon="40.42634">
        <ele>16.493279</ele>
        <time>2021-08-17T22:54:24.569Z</time>
      </trkpt>
      <trkpt lat="41.02483" lon="40.42634">
        <ele>16.188397</ele>
        <time>2021-08-17T22:54:37.551Z</time>
      </trkpt>
      <trkpt lat="41.02477" lon="40.42629">
        <ele>16.123293</ele>
        <time>2021-08-17T22:54:40.279Z</time>
      </trkpt>
      <trkpt lat="41.02472" lon="40.42615">
        <ele>16.022514</ele>
        <time>2021-08-17T22:54:46.122Z</time>
      </trkpt>
      <trkpt lat="41.02475" lon="40.42585">
        <ele>15.828489</ele>
        <time>2021-08-17T22:54:55.134Z</time>
      </trkpt>
      <trkpt lat="41.02476" lon="40.42563">
        <ele>15.687774</ele>
        <time>2021-08-17T22:55:04.172Z</time>
      </trkpt>
      <trkpt lat="41.02428" lon="40.42395">
        <ele>17.41229</ele>
        <time>2021-08-17T22:56:06.775Z</time>
      </trkpt>
      <trkpt lat="41.02375" lon="40.42233">
        <ele>17.044883</ele>
        <time>2021-08-17T22:56:40.719Z</time>
      </trkpt>
      <trkpt lat="41.0238" lon="40.42204">
        <ele>16.769277</ele>
        <time>2021-08-17T22:56:45.768Z</time>
      </trkpt>
      <trkpt lat="41.02394" lon="40.42175">
        <ele>16.439738</ele>
        <time>2021-08-17T22:56:52.242Z</time>
      </trkpt>
      <trkpt lat="41.02427" lon="40.42152">
        <ele>15.981557</ele>
        <time>2021-08-17T22:57:02.494Z</time>
      </trkpt>
      <trkpt lat="41.02441" lon="40.42163">
        <ele>16.014964</ele>
        <time>2021-08-17T22:57:07.918Z</time>
      </trkpt>
      <trkpt lat="41.02446" lon="40.42166">
        <ele>16.144794</ele>
        <time>2021-08-17T22:57:09.433Z</time>
      </trkpt>
      <trkpt lat="41.02466" lon="40.42171">
        <ele>16.659378</ele>
        <time>2021-08-17T22:57:17.303Z</time>
      </trkpt>
      <trkpt lat="41.02482" lon="40.42173">
        <ele>17.060555</ele>
        <time>2021-08-17T22:57:23.381Z</time>
      </trkpt>
      <trkpt lat="41.02492" lon="40.42166">
        <ele>17.360787</ele>
        <time>2021-08-17T22:57:28.712Z</time>
      </trkpt>
      <trkpt lat="41.02496" lon="40.42151">
        <ele>17.658013</ele>
        <time>2021-08-17T22:57:33.628Z</time>
      </trkpt>
      <trkpt lat="41.02493" lon="40.42039">
        <ele>19.81329</ele>
        <time>2021-08-17T22:58:14.956Z</time>
      </trkpt>
      <trkpt lat="41.02483" lon="40.41908">
        <ele>22.038385</ele>
        <time>2021-08-17T22:59:13.673Z</time>
      </trkpt>
      <trkpt lat="41.02452" lon="40.41631">
        <ele>23.742533</ele>
        <time>2021-08-17T23:00:23.161Z</time>
      </trkpt>
      <trkpt lat="41.02452" lon="40.41521">
        <ele>23.331244</ele>
        <time>2021-08-17T23:00:43.894Z</time>
      </trkpt>
      <trkpt lat="41.0246" lon="40.41426">
        <ele>23.089343</ele>
        <time>2021-08-17T23:01:02.799Z</time>
      </trkpt>
      <trkpt lat="41.02506" lon="40.41107">
        <ele>24.058662</ele>
        <time>2021-08-17T23:02:27.571Z</time>
      </trkpt>
      <trkpt lat="41.02511" lon="40.41005">
        <ele>25.003289</ele>
        <time>2021-08-17T23:02:59.773Z</time>
      </trkpt>
      <trkpt lat="41.02493" lon="40.40835">
        <ele>26.916233</ele>
        <time>2021-08-17T23:03:52.848Z</time>
      </trkpt>
      <trkpt lat="41.02471" lon="40.40568">
        <ele>26.99935</ele>
        <time>2021-08-17T23:04:57.436Z</time>
      </trkpt>
      <trkpt lat="41.02465" lon="40.40427">
        <ele>25.288799</ele>
        <time>2021-08-17T23:05:23.815Z</time>
      </trkpt>
      <trkpt lat="41.02474" lon="40.40264">
        <ele>23.456668</ele>
        <time>2021-08-17T23:05:54.091Z</time>
      </trkpt>
      <trkpt lat="41.025" lon="40.39976">
        <ele>21.051245</ele>
        <time>2021-08-17T23:06:53.943Z</time>
      </trkpt>
      <trkpt lat="41.02582" lon="40.39353">
        <ele>17.594615</ele>
        <time>2021-08-17T23:09:07.179Z</time>
      </trkpt>
      <trkpt lat="41.02589" lon="40.39242">
        <ele>17.292631</ele>
        <time>2021-08-17T23:09:32.035Z</time>
      </trkpt>
      <trkpt lat="41.02587" lon="40.39116">
        <ele>17.035092</ele>
        <time>2021-08-17T23:10:01.660Z</time>
      </trkpt>
      <trkpt lat="41.0258" lon="40.39025">
        <ele>16.920381</ele>
        <time>2021-08-17T23:10:22.907Z</time>
      </trkpt>
      <trkpt lat="41.02561" lon="40.38913">
        <ele>16.775314</ele>
        <time>2021-08-17T23:10:48.642Z</time>
      </trkpt>
      <trkpt lat="41.02553" lon="40.38883">
        <ele>16.734299</ele>
        <time>2021-08-17T23:10:55.377Z</time>
      </trkpt>
      <trkpt lat="41.02552" lon="40.38806">
        <ele>16.632756</ele>
        <time>2021-08-17T23:11:12.457Z</time>
      </trkpt>
      <trkpt lat="41.02538" lon="40.38659">
        <ele>16.976561</ele>
        <time>2021-08-17T23:11:46.404Z</time>
      </trkpt>
      <trkpt lat="41.02511" lon="40.38502">
        <ele>18.82269</ele>
        <time>2021-08-17T23:12:35.663Z</time>
      </trkpt>
      <trkpt lat="41.02497" lon="40.38464">
        <ele>19.419071</ele>
        <time>2021-08-17T23:12:50.095Z</time>
      </trkpt>
      <trkpt lat="41.02466" lon="40.38399">
        <ele>21.485383</ele>
        <time>2021-08-17T23:13:18.877Z</time>
      </trkpt>
      <trkpt lat="41.02421" lon="40.38287">
        <ele>24.870856</ele>
        <time>2021-08-17T23:14:10.133Z</time>
      </trkpt>
      <trkpt lat="41.02397" lon="40.38236">
        <ele>26.11743</ele>
        <time>2021-08-17T23:14:34.529Z</time>
      </trkpt>
      <trkpt lat="41.02369" lon="40.38175">
        <ele>27.232687</ele>
        <time>2021-08-17T23:15:02.077Z</time>
      </trkpt>
      <trkpt lat="41.0232" lon="40.38092">
        <ele>28.854422</ele>
        <time>2021-08-17T23:15:33.840Z</time>
      </trkpt>
      <trkpt lat="41.02295" lon="40.38044">
        <ele>28.984027</ele>
        <time>2021-08-17T23:15:47.517Z</time>
      </trkpt>
      <trkpt lat="41.02243" lon="40.37946">
        <ele>27.672766</ele>
        <time>2021-08-17T23:16:09.119Z</time>
      </trkpt>
      <trkpt lat="41.02223" lon="40.37907">
        <ele>27.148505</ele>
        <time>2021-08-17T23:16:17.793Z</time>
      </trkpt>
      <trkpt lat="41.02195" lon="40.37876">
        <ele>26.759191</ele>
        <time>2021-08-17T23:16:27.089Z</time>
      </trkpt>
      <trkpt lat="41.02183" lon="40.37866">
        <ele>26.976309</ele>
        <time>2021-08-17T23:16:30.367Z</time>
      </trkpt>
      <trkpt lat="41.02164" lon="40.37847">
        <ele>27.358757</ele>
        <time>2021-08-17T23:16:38.913Z</time>
      </trkpt>
      <trkpt lat="41.02136" lon="40.37809">
        <ele>27.98608</ele>
        <time>2021-08-17T23:16:53.041Z</time>
      </trkpt>
      <trkpt lat="41.02127" lon="40.3779">
        <ele>28.2548</ele>
        <time>2021-08-17T23:17:00.051Z</time>
      </trkpt>
      <trkpt lat="41.02084" lon="40.37701">
        <ele>29.5103</ele>
        <time>2021-08-17T23:17:39.370Z</time>
      </trkpt>
      <trkpt lat="41.02007" lon="40.37557">
        <ele>33.526666</ele>
        <time>2021-08-17T23:18:51.853Z</time>
      </trkpt>
      <trkpt lat="41.01923" lon="40.37324">
        <ele>35.274627</ele>
        <time>2021-08-17T23:20:00.212Z</time>
      </trkpt>
      <trkpt lat="41.01774" lon="40.37072">
        <ele>31.226222</ele>
        <time>2021-08-17T23:21:00.156Z</time>
      </trkpt>
      <trkpt lat="41.01762" lon="40.37048">
        <ele>30.602173</ele>
        <time>2021-08-17T23:21:05.295Z</time>
      </trkpt>
      <trkpt lat="41.01739" lon="40.37003">
        <ele>29.457636</ele>
        <time>2021-08-17T23:21:14.844Z</time>
      </trkpt>
      <trkpt lat="41.01707" lon="40.36939">
        <ele>27.819875</ele>
        <time>2021-08-17T23:21:28.234Z</time>
      </trkpt>
      <trkpt lat="41.01679" lon="40.36868">
        <ele>26.055343</ele>
        <time>2021-08-17T23:21:41.708Z</time>
      </trkpt>
      <trkpt lat="41.01655" lon="40.36806">
        <ele>24.434048</ele>
        <time>2021-08-17T23:21:54.119Z</time>
      </trkpt>
      <trkpt lat="41.01644" lon="40.36775">
        <ele>23.641661</ele>
        <time>2021-08-17T23:22:00.068Z</time>
      </trkpt>
      <trkpt lat="41.01627" lon="40.36729">
        <ele>22.462344</ele>
        <time>2021-08-17T23:22:09.039Z</time>
      </trkpt>
      <trkpt lat="41.01575" lon="40.36634">
        <ele>19.954258</ele>
        <time>2021-08-17T23:22:29.272Z</time>
      </trkpt>
      <trkpt lat="41.01513" lon="40.36487">
        <ele>16.5655</ele>
        <time>2021-08-17T23:22:59.310Z</time>
      </trkpt>
      <trkpt lat="41.01448" lon="40.36348">
        <ele>14.407497</ele>
        <time>2021-08-17T23:23:29.978Z</time>
      </trkpt>
      <trkpt lat="41.0138" lon="40.36232">
        <ele>13.156085</ele>
        <time>2021-08-17T23:23:59.436Z</time>
      </trkpt>
      <trkpt lat="41.01155" lon="40.35912">
        <ele>12.702498</ele>
        <time>2021-08-17T23:25:38.122Z</time>
      </trkpt>
      <trkpt lat="41.01113" lon="40.35823">
        <ele>14.051614</ele>
        <time>2021-08-17T23:26:11.263Z</time>
      </trkpt>
      <trkpt lat="41.01063" lon="40.35674">
        <ele>16.287612</ele>
        <time>2021-08-17T23:27:07.372Z</time>
      </trkpt>
      <trkpt lat="41.0099" lon="40.35469">
        <ele>19.198187</ele>
        <time>2021-08-17T23:28:17.430Z</time>
      </trkpt>
      <trkpt lat="41.00931" lon="40.35344">
        <ele>20.26266</ele>
        <time>2021-08-17T23:28:56.905Z</time>
      </trkpt>
      <trkpt lat="41.00602" lon="40.34881">
        <ele>22.390965</ele>
        <time>2021-08-17T23:31:40.435Z</time>
      </trkpt>
      <trkpt lat="41.00547" lon="40.34813">
        <ele>22.373539</ele>
        <time>2021-08-17T23:32:02.323Z</time>
      </trkpt>
      <trkpt lat="41.00485" lon="40.34749">
        <ele>21.522147</ele>
        <time>2021-08-17T23:32:23.198Z</time>
      </trkpt>
      <trkpt lat="41.00254" lon="40.34531">
        <ele>17.857479</ele>
        <time>2021-08-17T23:33:36.046Z</time>
      </trkpt>
      <trkpt lat="41.0007" lon="40.34329">
        <ele>16.754442</ele>
        <time>2021-08-17T23:34:49.171Z</time>
      </trkpt>
      <trkpt lat="40.99989" lon="40.34231">
        <ele>15.749059</ele>
        <time>2021-08-17T23:35:17.940Z</time>
      </trkpt>
      <trkpt lat="40.99936" lon="40.34163">
        <ele>14.848773</ele>
        <time>2021-08-17T23:35:37.129Z</time>
      </trkpt>
      <trkpt lat="40.99881" lon="40.34092">
        <ele>13.830429</ele>
        <time>2021-08-17T23:35:57.082Z</time>
      </trkpt>
      <trkpt lat="40.99525" lon="40.33597">
        <ele>8.487061</ele>
        <time>2021-08-17T23:38:15.220Z</time>
      </trkpt>
      <trkpt lat="40.99342" lon="40.33377">
        <ele>7.766722</ele>
        <time>2021-08-17T23:39:29.590Z</time>
      </trkpt>
      <trkpt lat="40.99246" lon="40.3327">
        <ele>7.994494</ele>
        <time>2021-08-17T23:40:12.121Z</time>
      </trkpt>
      <trkpt lat="40.99179" lon="40.33217">
        <ele>7.992204</ele>
        <time>2021-08-17T23:40:36.684Z</time>
      </trkpt>
      <trkpt lat="40.99143" lon="40.33194">
        <ele>7.730526</ele>
        <time>2021-08-17T23:40:48.177Z</time>
      </trkpt>
      <trkpt lat="40.99101" lon="40.33173">
        <ele>7.43817</ele>
        <time>2021-08-17T23:41:00.647Z</time>
      </trkpt>
      <trkpt lat="40.99057" lon="40.33153">
        <ele>7.133144</ele>
        <time>2021-08-17T23:41:13.432Z</time>
      </trkpt>
      <trkpt lat="40.99021" lon="40.33136">
        <ele>6.863541</ele>
        <time>2021-08-17T23:41:23.750Z</time>
      </trkpt>
      <trkpt lat="40.98961" lon="40.33105">
        <ele>6.313284</ele>
        <time>2021-08-17T23:41:40.709Z</time>
      </trkpt>
      <trkpt lat="40.98944" lon="40.33091">
        <ele>6.139044</ele>
        <time>2021-08-17T23:41:46.242Z</time>
      </trkpt>
      <trkpt lat="40.98914" lon="40.33065">
        <ele>5.836163</ele>
        <time>2021-08-17T23:41:55.833Z</time>
      </trkpt>
      <trkpt lat="40.98749" lon="40.32921">
        <ele>5.059578</ele>
        <time>2021-08-17T23:42:52.928Z</time>
      </trkpt>
      <trkpt lat="40.98669" lon="40.32856">
        <ele>5.704371</ele>
        <time>2021-08-17T23:43:25.302Z</time>
      </trkpt>
      <trkpt lat="40.98641" lon="40.32829">
        <ele>6.1201</ele>
        <time>2021-08-17T23:43:38.265Z</time>
      </trkpt>
      <trkpt lat="40.98527" lon="40.32724">
        <ele>8.226917</ele>
        <time>2021-08-17T23:44:35.063Z</time>
      </trkpt>
      <trkpt lat="40.9811" lon="40.32224">
        <ele>19.043162</ele>
        <time>2021-08-17T23:48:35.353Z</time>
      </trkpt>
      <trkpt lat="40.98052" lon="40.32168">
        <ele>19.90885</ele>
        <time>2021-08-17T23:49:01.747Z</time>
      </trkpt>
      <trkpt lat="40.97372" lon="40.3142">
        <ele>19.335595</ele>
        <time>2021-08-17T23:53:35.206Z</time>
      </trkpt>
      <trkpt lat="40.97234" lon="40.31222">
        <ele>15.723107</ele>
        <time>2021-08-17T23:54:25.426Z</time>
      </trkpt>
      <trkpt lat="40.9717" lon="40.31118">
        <ele>12.877838</ele>
        <time>2021-08-17T23:54:48.980Z</time>
      </trkpt>
      <trkpt lat="40.97131" lon="40.31062">
        <ele>11.154577</ele>
        <time>2021-08-17T23:55:02.019Z</time>
      </trkpt>
      <trkpt lat="40.97071" lon="40.30972">
        <ele>8.651657</ele>
        <time>2021-08-17T23:55:22.652Z</time>
      </trkpt>
      <trkpt lat="40.97015" lon="40.30885">
        <ele>6.471425</ele>
        <time>2021-08-17T23:55:43.139Z</time>
      </trkpt>
      <trkpt lat="40.96987" lon="40.30836">
        <ele>5.294714</ele>
        <time>2021-08-17T23:55:54.603Z</time>
      </trkpt>
      <trkpt lat="40.96954" lon="40.30769">
        <ele>4.792762</ele>
        <time>2021-08-17T23:56:09.961Z</time>
      </trkpt>
      <trkpt lat="40.96918" lon="40.30697">
        <ele>4.273342</ele>
        <time>2021-08-17T23:56:28.238Z</time>
      </trkpt>
      <trkpt lat="40.96878" lon="40.30619">
        <ele>3.91747</ele>
        <time>2021-08-17T23:56:50.665Z</time>
      </trkpt>
      <trkpt lat="40.9675" lon="40.30362">
        <ele>5.043718</ele>
        <time>2021-08-17T23:58:12.076Z</time>
      </trkpt>
      <trkpt lat="40.96553" lon="40.30034">
        <ele>5.643071</ele>
        <time>2021-08-17T23:59:52.097Z</time>
      </trkpt>
      <trkpt lat="40.96473" lon="40.29883">
        <ele>5.93503</ele>
        <time>2021-08-18T00:00:36.905Z</time>
      </trkpt>
      <trkpt lat="40.96456" lon="40.29854">
        <ele>6.020975</ele>
        <time>2021-08-18T00:00:45.926Z</time>
      </trkpt>
      <trkpt lat="40.96454" lon="40.2985">
        <ele>6.038533</ele>
        <time>2021-08-18T00:00:47.412Z</time>
      </trkpt>
      <trkpt lat="40.9645" lon="40.29845">
        <ele>6.065328</ele>
        <time>2021-08-18T00:00:49.385Z</time>
      </trkpt>
      <trkpt lat="40.96441" lon="40.29847">
        <ele>6.10679</ele>
        <time>2021-08-18T00:00:52.690Z</time>
      </trkpt>
      <trkpt lat="40.96429" lon="40.29862">
        <ele>6.179868</ele>
        <time>2021-08-18T00:00:57.717Z</time>
      </trkpt>
      <trkpt lat="40.96428" lon="40.29871">
        <ele>6.211396</ele>
        <time>2021-08-18T00:01:00.413Z</time>
      </trkpt>
      <trkpt lat="40.96433" lon="40.29878">
        <ele>6.244008</ele>
        <time>2021-08-18T00:01:02.750Z</time>
      </trkpt>
      <trkpt lat="40.96428" lon="40.29888">
        <ele>6.285378</ele>
        <time>2021-08-18T00:01:06.006Z</time>
      </trkpt>
      <trkpt lat="40.96417" lon="40.29899">
        <ele>6.345674</ele>
        <time>2021-08-18T00:01:10.260Z</time>
      </trkpt>
      <trkpt lat="40.96414" lon="40.29893">
        <ele>6.369898</ele>
        <time>2021-08-18T00:01:12.377Z</time>
      </trkpt>
      <trkpt lat="40.96404" lon="40.29879">
        <ele>6.437794</ele>
        <time>2021-08-18T00:01:17.616Z</time>
      </trkpt>
      <trkpt lat="40.96399" lon="40.29855">
        <ele>6.520729</ele>
        <time>2021-08-18T00:01:23.779Z</time>
      </trkpt>
      <trkpt lat="40.96391" lon="40.29838">
        <ele>6.588577</ele>
        <time>2021-08-18T00:01:29.220Z</time>
      </trkpt>
      <trkpt lat="40.96359" lon="40.29782">
        <ele>6.807048</ele>
        <time>2021-08-18T00:01:47.443Z</time>
      </trkpt>
      <trkpt lat="40.96219" lon="40.29563">
        <ele>7.41068</ele>
        <time>2021-08-18T00:02:57.682Z</time>
      </trkpt>
      <trkpt lat="40.96193" lon="40.29522">
        <ele>7.51105</ele>
        <time>2021-08-18T00:03:10.900Z</time>
      </trkpt>
      <trkpt lat="40.96175" lon="40.29494">
        <ele>7.582085</ele>
        <time>2021-08-18T00:03:20.323Z</time>
      </trkpt>
      <trkpt lat="40.96159" lon="40.29468">
        <ele>7.644362</ele>
        <time>2021-08-18T00:03:28.583Z</time>
      </trkpt>
      <trkpt lat="40.95946" lon="40.29133">
        <ele>7.653819</ele>
        <time>2021-08-18T00:05:14.291Z</time>
      </trkpt>
      <trkpt lat="40.95859" lon="40.28998">
        <ele>6.745068</ele>
        <time>2021-08-18T00:05:50.027Z</time>
      </trkpt>
      <trkpt lat="40.95758" lon="40.28839">
        <ele>5.425521</ele>
        <time>2021-08-18T00:06:32.220Z</time>
      </trkpt>
      <trkpt lat="40.95746" lon="40.28821">
        <ele>5.361596</ele>
        <time>2021-08-18T00:06:37.605Z</time>
      </trkpt>
      <trkpt lat="40.95723" lon="40.28785">
        <ele>5.235303</ele>
        <time>2021-08-18T00:06:48.258Z</time>
      </trkpt>
      <trkpt lat="40.95692" lon="40.28737">
        <ele>5.068131</ele>
        <time>2021-08-18T00:07:02.643Z</time>
      </trkpt>
      <trkpt lat="40.95647" lon="40.28667">
        <ele>5.084274</ele>
        <time>2021-08-18T00:07:25.220Z</time>
      </trkpt>
      <trkpt lat="40.95608" lon="40.28605">
        <ele>5.323854</ele>
        <time>2021-08-18T00:07:45.621Z</time>
      </trkpt>
      <trkpt lat="40.95568" lon="40.28541">
        <ele>5.572044</ele>
        <time>2021-08-18T00:08:07.275Z</time>
      </trkpt>
      <trkpt lat="40.9544" lon="40.28341">
        <ele>6.287314</ele>
        <time>2021-08-18T00:09:13.022Z</time>
      </trkpt>
      <trkpt lat="40.9534" lon="40.28186">
        <ele>6.571746</ele>
        <time>2021-08-18T00:10:00.617Z</time>
      </trkpt>
      <trkpt lat="40.95286" lon="40.28102">
        <ele>7.544745</ele>
        <time>2021-08-18T00:10:29.902Z</time>
      </trkpt>
      <trkpt lat="40.95257" lon="40.2805">
        <ele>8.380139</ele>
        <time>2021-08-18T00:10:49.981Z</time>
      </trkpt>
      <trkpt lat="40.95207" lon="40.27901">
        <ele>10.263853</ele>
        <time>2021-08-18T00:11:46.184Z</time>
      </trkpt>
      <trkpt lat="40.95192" lon="40.27813">
        <ele>11.115127</ele>
        <time>2021-08-18T00:12:16.203Z</time>
      </trkpt>
      <trkpt lat="40.95175" lon="40.2769">
        <ele>11.42147</ele>
        <time>2021-08-18T00:12:42.948Z</time>
      </trkpt>
      <trkpt lat="40.95171" lon="40.27645">
        <ele>10.823788</ele>
        <time>2021-08-18T00:12:51.643Z</time>
      </trkpt>
      <trkpt lat="40.95167" lon="40.27622">
        <ele>10.506214</ele>
        <time>2021-08-18T00:12:56.500Z</time>
      </trkpt>
      <trkpt lat="40.95177" lon="40.27618">
        <ele>10.315225</ele>
        <time>2021-08-18T00:12:58.900Z</time>
      </trkpt>
      <trkpt lat="40.95212" lon="40.27596">
        <ele>9.633875</ele>
        <time>2021-08-18T00:13:08.239Z</time>
      </trkpt>
      <trkpt lat="40.95232" lon="40.27574">
        <ele>9.188059</ele>
        <time>2021-08-18T00:13:14.544Z</time>
      </trkpt>
      <trkpt lat="40.95242" lon="40.27546">
        <ele>8.779918</ele>
        <time>2021-08-18T00:13:20.242Z</time>
      </trkpt>
      <trkpt lat="40.95245" lon="40.27496">
        <ele>8.518028</ele>
        <time>2021-08-18T00:13:29.475Z</time>
      </trkpt>
      <trkpt lat="40.95237" lon="40.27465">
        <ele>8.344773</ele>
        <time>2021-08-18T00:13:35.540Z</time>
      </trkpt>
      <trkpt lat="40.95209" lon="40.2742">
        <ele>8.041416</ele>
        <time>2021-08-18T00:13:47.926Z</time>
      </trkpt>
      <trkpt lat="40.95202" lon="40.27415">
        <ele>7.982575</ele>
        <time>2021-08-18T00:13:50.478Z</time>
      </trkpt>
      <trkpt lat="40.95193" lon="40.27404">
        <ele>7.903339</ele>
        <time>2021-08-18T00:13:54.573Z</time>
      </trkpt>
      <trkpt lat="40.95131" lon="40.27373">
        <ele>7.572246</ele>
        <time>2021-08-18T00:14:17.451Z</time>
      </trkpt>
      <trkpt lat="40.95095" lon="40.27333">
        <ele>7.712329</ele>
        <time>2021-08-18T00:14:34.079Z</time>
      </trkpt>
      <trkpt lat="40.95082" lon="40.27323">
        <ele>7.753846</ele>
        <time>2021-08-18T00:14:39.138Z</time>
      </trkpt>
      <trkpt lat="40.94892" lon="40.26951">
        <ele>8.185929</ele>
        <time>2021-08-18T00:16:26.282Z</time>
      </trkpt>
      <trkpt lat="40.94795" lon="40.26763">
        <ele>8.030245</ele>
        <time>2021-08-18T00:17:20.272Z</time>
      </trkpt>
      <trkpt lat="40.94793" lon="40.26759">
        <ele>8.015258</ele>
        <time>2021-08-18T00:17:21.057Z</time>
      </trkpt>
      <trkpt lat="40.94737" lon="40.26665">
        <ele>7.634627</ele>
        <time>2021-08-18T00:17:47.494Z</time>
      </trkpt>
      <trkpt lat="40.94627" lon="40.26501">
        <ele>6.660988</ele>
        <time>2021-08-18T00:18:33.530Z</time>
      </trkpt>
      <trkpt lat="40.94492" lon="40.26316">
        <ele>5.958403</ele>
        <time>2021-08-18T00:19:30.383Z</time>
      </trkpt>
      <trkpt lat="40.94393" lon="40.2617">
        <ele>5.989341</ele>
        <time>2021-08-18T00:20:17.393Z</time>
      </trkpt>
      <trkpt lat="40.94343" lon="40.261">
        <ele>6.076503</ele>
        <time>2021-08-18T00:20:41.200Z</time>
      </trkpt>
      <trkpt lat="40.94225" lon="40.25929">
        <ele>6.309829</ele>
        <time>2021-08-18T00:21:37.256Z</time>
      </trkpt>
      <trkpt lat="40.94036" lon="40.25651">
        <ele>6.228242</ele>
        <time>2021-08-18T00:23:01.867Z</time>
      </trkpt>
      <trkpt lat="40.94009" lon="40.25611">
        <ele>6.315772</ele>
        <time>2021-08-18T00:23:14.966Z</time>
      </trkpt>
      <trkpt lat="40.93935" lon="40.25502">
        <ele>7.766834</ele>
        <time>2021-08-18T00:23:56.329Z</time>
      </trkpt>
      <trkpt lat="40.93878" lon="40.25413">
        <ele>9.464253</ele>
        <time>2021-08-18T00:24:36.051Z</time>
      </trkpt>
      <trkpt lat="40.93816" lon="40.25302">
        <ele>11.801272</ele>
        <time>2021-08-18T00:25:24.730Z</time>
      </trkpt>
      <trkpt lat="40.93675" lon="40.2502">
        <ele>16.836454</ele>
        <time>2021-08-18T00:27:12.223Z</time>
      </trkpt>
      <trkpt lat="40.93632" lon="40.24906">
        <ele>17.854883</ele>
        <time>2021-08-18T00:27:47.619Z</time>
      </trkpt>
      <trkpt lat="40.93567" lon="40.24673">
        <ele>19.243808</ele>
        <time>2021-08-18T00:28:52.777Z</time>
      </trkpt>
      <trkpt lat="40.93541" lon="40.24594">
        <ele>19.616262</ele>
        <time>2021-08-18T00:29:15.030Z</time>
      </trkpt>
      <trkpt lat="40.93517" lon="40.24539">
        <ele>19.881599</ele>
        <time>2021-08-18T00:29:31.327Z</time>
      </trkpt>
      <trkpt lat="40.93245" lon="40.24041">
        <ele>21.553506</ele>
        <time>2021-08-18T00:32:09.700Z</time>
      </trkpt>
      <trkpt lat="40.9316" lon="40.23788">
        <ele>19.031365</ele>
        <time>2021-08-18T00:33:04.533Z</time>
      </trkpt>
      <trkpt lat="40.93126" lon="40.23712">
        <ele>17.607083</ele>
        <time>2021-08-18T00:33:20.028Z</time>
      </trkpt>
      <trkpt lat="40.92984" lon="40.23469">
        <ele>13.767031</ele>
        <time>2021-08-18T00:34:15.587Z</time>
      </trkpt>
      <trkpt lat="40.92961" lon="40.23427">
        <ele>13.633277</ele>
        <time>2021-08-18T00:34:30.407Z</time>
      </trkpt>
      <trkpt lat="40.92918" lon="40.23352">
        <ele>13.785838</ele>
        <time>2021-08-18T00:35:00.777Z</time>
      </trkpt>
      <trkpt lat="40.9285" lon="40.23207">
        <ele>15.838321</ele>
        <time>2021-08-18T00:35:54.056Z</time>
      </trkpt>
      <trkpt lat="40.92803" lon="40.23083">
        <ele>17.757886</ele>
        <time>2021-08-18T00:36:31.069Z</time>
      </trkpt>
      <trkpt lat="40.92795" lon="40.23064">
        <ele>18.07822</ele>
        <time>2021-08-18T00:36:36.007Z</time>
      </trkpt>
      <trkpt lat="40.92747" lon="40.22959">
        <ele>19.92198</ele>
        <time>2021-08-18T00:37:19.285Z</time>
      </trkpt>
      <trkpt lat="40.92697" lon="40.22834">
        <ele>23.750998</ele>
        <time>2021-08-18T00:38:20.159Z</time>
      </trkpt>
      <trkpt lat="40.92662" lon="40.22689">
        <ele>26.75182</ele>
        <time>2021-08-18T00:39:14.382Z</time>
      </trkpt>
      <trkpt lat="40.92628" lon="40.22468">
        <ele>28.767317</ele>
        <time>2021-08-18T00:40:11.040Z</time>
      </trkpt>
      <trkpt lat="40.92593" lon="40.22197">
        <ele>33.640324</ele>
        <time>2021-08-18T00:41:34.709Z</time>
      </trkpt>
      <trkpt lat="40.92551" lon="40.22005">
        <ele>41.538474</ele>
        <time>2021-08-18T00:43:13.017Z</time>
      </trkpt>
      <trkpt lat="40.9252" lon="40.21894">
        <ele>48.276464</ele>
        <time>2021-08-18T00:44:23.817Z</time>
      </trkpt>
      <trkpt lat="40.92473" lon="40.21701">
        <ele>57.1191</ele>
        <time>2021-08-18T00:46:13.483Z</time>
      </trkpt>
      <trkpt lat="40.92439" lon="40.21479">
        <ele>62.178993</ele>
        <time>2021-08-18T00:47:25.611Z</time>
      </trkpt>
      <trkpt lat="40.92436" lon="40.21459">
        <ele>62.374812</ele>
        <time>2021-08-18T00:47:29.477Z</time>
      </trkpt>
      <trkpt lat="40.92421" lon="40.21365">
        <ele>63.268051</ele>
        <time>2021-08-18T00:47:58.646Z</time>
      </trkpt>
      <trkpt lat="40.92408" lon="40.213">
        <ele>62.379745</ele>
        <time>2021-08-18T00:48:15.037Z</time>
      </trkpt>
      <trkpt lat="40.92393" lon="40.21249">
        <ele>61.596204</ele>
        <time>2021-08-18T00:48:25.113Z</time>
      </trkpt>
      <trkpt lat="40.92386" lon="40.21228">
        <ele>61.268715</ele>
        <time>2021-08-18T00:48:30.356Z</time>
      </trkpt>
      <trkpt lat="40.92377" lon="40.21212">
        <ele>60.978609</ele>
        <time>2021-08-18T00:48:34.034Z</time>
      </trkpt>
      <trkpt lat="40.92337" lon="40.21164">
        <ele>59.959217</ele>
        <time>2021-08-18T00:48:46.714Z</time>
      </trkpt>
      <trkpt lat="40.92238" lon="40.21085">
        <ele>52.079164</ele>
        <time>2021-08-18T00:49:09.770Z</time>
      </trkpt>
      <trkpt lat="40.92206" lon="40.21028">
        <ele>48.319107</ele>
        <time>2021-08-18T00:49:20.198Z</time>
      </trkpt>
      <trkpt lat="40.92195" lon="40.20995">
        <ele>46.562707</ele>
        <time>2021-08-18T00:49:25.562Z</time>
      </trkpt>
      <trkpt lat="40.9219" lon="40.20964">
        <ele>45.150243</ele>
        <time>2021-08-18T00:49:30.433Z</time>
      </trkpt>
      <trkpt lat="40.92196" lon="40.20828">
        <ele>39.178942</ele>
        <time>2021-08-18T00:49:51.645Z</time>
      </trkpt>
      <trkpt lat="40.92196" lon="40.20822">
        <ele>38.893003</ele>
        <time>2021-08-18T00:49:52.702Z</time>
      </trkpt>
      <trkpt lat="40.92194" lon="40.20779">
        <ele>37.019779</ele>
        <time>2021-08-18T00:49:59.706Z</time>
      </trkpt>
      <trkpt lat="40.92192" lon="40.20739">
        <ele>35.830752</ele>
        <time>2021-08-18T00:50:06.524Z</time>
      </trkpt>
      <trkpt lat="40.92183" lon="40.20683">
        <ele>34.277727</ele>
        <time>2021-08-18T00:50:16.270Z</time>
      </trkpt>
      <trkpt lat="40.92121" lon="40.20423">
        <ele>26.913851</ele>
        <time>2021-08-18T00:51:02.892Z</time>
      </trkpt>
      <trkpt lat="40.92103" lon="40.20301">
        <ele>23.509669</ele>
        <time>2021-08-18T00:51:24.003Z</time>
      </trkpt>
      <trkpt lat="40.92097" lon="40.20238">
        <ele>21.517653</ele>
        <time>2021-08-18T00:51:34.698Z</time>
      </trkpt>
      <trkpt lat="40.92092" lon="40.2017">
        <ele>19.38197</ele>
        <time>2021-08-18T00:51:46.011Z</time>
      </trkpt>
      <trkpt lat="40.92079" lon="40.20071">
        <ele>16.282401</ele>
        <time>2021-08-18T00:52:02.275Z</time>
      </trkpt>
      <trkpt lat="40.92048" lon="40.19975">
        <ele>13.959283</ele>
        <time>2021-08-18T00:52:19.268Z</time>
      </trkpt>
      <trkpt lat="40.92031" lon="40.19937">
        <ele>12.958903</ele>
        <time>2021-08-18T00:52:27.065Z</time>
      </trkpt>
      <trkpt lat="40.9201" lon="40.19894">
        <ele>11.818811</ele>
        <time>2021-08-18T00:52:36.311Z</time>
      </trkpt>
      <trkpt lat="40.91825" lon="40.19506">
        <ele>11.688676</ele>
        <time>2021-08-18T00:54:31.821Z</time>
      </trkpt>
      <trkpt lat="40.91715" lon="40.19259">
        <ele>10.737658</ele>
        <time>2021-08-18T00:55:34.194Z</time>
      </trkpt>
      <trkpt lat="40.91667" lon="40.19136">
        <ele>10.157703</ele>
        <time>2021-08-18T00:56:01.874Z</time>
      </trkpt>
      <trkpt lat="40.91656" lon="40.19097">
        <ele>9.987478</ele>
        <time>2021-08-18T00:56:10.538Z</time>
      </trkpt>
      <trkpt lat="40.9165" lon="40.19053">
        <ele>9.79983</ele>
        <time>2021-08-18T00:56:20.868Z</time>
      </trkpt>
      <trkpt lat="40.91644" lon="40.19027">
        <ele>10.057246</ele>
        <time>2021-08-18T00:56:27.124Z</time>
      </trkpt>
      <trkpt lat="40.91634" lon="40.19003">
        <ele>10.65259</ele>
        <time>2021-08-18T00:56:35.520Z</time>
      </trkpt>
      <trkpt lat="40.91584" lon="40.18921">
        <ele>12.941074</ele>
        <time>2021-08-18T00:57:10.219Z</time>
      </trkpt>
      <trkpt lat="40.91519" lon="40.18747">
        <ele>18.670837</ele>
        <time>2021-08-18T00:58:37.203Z</time>
      </trkpt>
      <trkpt lat="40.91487" lon="40.1868">
        <ele>21.578242</ele>
        <time>2021-08-18T00:59:14.196Z</time>
      </trkpt>
      <trkpt lat="40.91476" lon="40.18648">
        <ele>22.879449</ele>
        <time>2021-08-18T00:59:28.823Z</time>
      </trkpt>
      <trkpt lat="40.9146" lon="40.18596">
        <ele>24.369906</ele>
        <time>2021-08-18T00:59:52.098Z</time>
      </trkpt>
      <trkpt lat="40.91436" lon="40.18479">
        <ele>26.888525</ele>
        <time>2021-08-18T01:00:36.604Z</time>
      </trkpt>
      <trkpt lat="40.91421" lon="40.18354">
        <ele>28.614274</ele>
        <time>2021-08-18T01:01:14.142Z</time>
      </trkpt>
      <trkpt lat="40.91417" lon="40.18273">
        <ele>28.661624</ele>
        <time>2021-08-18T01:01:35.356Z</time>
      </trkpt>
      <trkpt lat="40.91408" lon="40.17853">
        <ele>25.558691</ele>
        <time>2021-08-18T01:03:01.093Z</time>
      </trkpt>
      <trkpt lat="40.91393" lon="40.17672">
        <ele>22.404437</ele>
        <time>2021-08-18T01:03:33.103Z</time>
      </trkpt>
      <trkpt lat="40.91351" lon="40.17394">
        <ele>18.161899</ele>
        <time>2021-08-18T01:04:25.110Z</time>
      </trkpt>
      <trkpt lat="40.91346" lon="40.17289">
        <ele>17.513218</ele>
        <time>2021-08-18T01:04:48.559Z</time>
      </trkpt>
      <trkpt lat="40.9135" lon="40.17191">
        <ele>16.824308</ele>
        <time>2021-08-18T01:05:11.496Z</time>
      </trkpt>
      <trkpt lat="40.9137" lon="40.17052">
        <ele>15.480338</ele>
        <time>2021-08-18T01:05:40.674Z</time>
      </trkpt>
      <trkpt lat="40.91397" lon="40.16873">
        <ele>12.956521</ele>
        <time>2021-08-18T01:06:13.780Z</time>
      </trkpt>
      <trkpt lat="40.91425" lon="40.16697">
        <ele>10.486515</ele>
        <time>2021-08-18T01:06:46.857Z</time>
      </trkpt>
      <trkpt lat="40.91429" lon="40.16676">
        <ele>10.339588</ele>
        <time>2021-08-18T01:06:51.050Z</time>
      </trkpt>
      <trkpt lat="40.91431" lon="40.16659">
        <ele>10.22169</ele>
        <time>2021-08-18T01:06:54.554Z</time>
      </trkpt>
      <trkpt lat="40.91445" lon="40.16532">
        <ele>9.33619</ele>
        <time>2021-08-18T01:07:22.308Z</time>
      </trkpt>
      <trkpt lat="40.9144" lon="40.16388">
        <ele>9.707075</ele>
        <time>2021-08-18T01:07:59.227Z</time>
      </trkpt>
      <trkpt lat="40.9142" lon="40.16277">
        <ele>10.141464</ele>
        <time>2021-08-18T01:08:30.026Z</time>
      </trkpt>
      <trkpt lat="40.91287" lon="40.15769">
        <ele>12.108873</ele>
        <time>2021-08-18T01:10:50.155Z</time>
      </trkpt>
      <trkpt lat="40.91273" lon="40.15697">
        <ele>12.010528</ele>
        <time>2021-08-18T01:11:07.289Z</time>
      </trkpt>
      <trkpt lat="40.91262" lon="40.15598">
        <ele>11.873856</ele>
        <time>2021-08-18T01:11:28.568Z</time>
      </trkpt>
      <trkpt lat="40.91258" lon="40.15335">
        <ele>9.853839</ele>
        <time>2021-08-18T01:12:21.272Z</time>
      </trkpt>
      <trkpt lat="40.91261" lon="40.15231">
        <ele>9.599171</ele>
        <time>2021-08-18T01:12:43.581Z</time>
      </trkpt>
      <trkpt lat="40.9126" lon="40.15175">
        <ele>9.461873</ele>
        <time>2021-08-18T01:12:56.569Z</time>
      </trkpt>
      <trkpt lat="40.91257" lon="40.15084">
        <ele>9.80626</ele>
        <time>2021-08-18T01:13:19.595Z</time>
      </trkpt>
      <trkpt lat="40.91243" lon="40.14929">
        <ele>11.643744</ele>
        <time>2021-08-18T01:14:06.753Z</time>
      </trkpt>
      <trkpt lat="40.91199" lon="40.14722">
        <ele>15.399634</ele>
        <time>2021-08-18T01:15:21.834Z</time>
      </trkpt>
      <trkpt lat="40.91187" lon="40.14636">
        <ele>16.783712</ele>
        <time>2021-08-18T01:15:52.213Z</time>
      </trkpt>
      <trkpt lat="40.91184" lon="40.1458">
        <ele>17.164782</ele>
        <time>2021-08-18T01:16:09.575Z</time>
      </trkpt>
      <trkpt lat="40.91186" lon="40.1448">
        <ele>17.845703</ele>
        <time>2021-08-18T01:16:35.974Z</time>
      </trkpt>
      <trkpt lat="40.91192" lon="40.14429">
        <ele>18.196599</ele>
        <time>2021-08-18T01:16:47.225Z</time>
      </trkpt>
      <trkpt lat="40.91202" lon="40.14386">
        <ele>18.390449</ele>
        <time>2021-08-18T01:16:56.209Z</time>
      </trkpt>
      <trkpt lat="40.91253" lon="40.14095">
        <ele>20.891217</ele>
        <time>2021-08-18T01:18:17.082Z</time>
      </trkpt>
      <trkpt lat="40.91251" lon="40.14079">
        <ele>21.170997</ele>
        <time>2021-08-18T01:18:20.112Z</time>
      </trkpt>
      <trkpt lat="40.91206" lon="40.14092">
        <ele>22.254002</ele>
        <time>2021-08-18T01:18:44.488Z</time>
      </trkpt>
      <trkpt lat="40.91201" lon="40.14093">
        <ele>22.362142</ele>
        <time>2021-08-18T01:18:49.117Z</time>
      </trkpt>
      <trkpt lat="40.91194" lon="40.14093">
        <ele>22.543106</ele>
        <time>2021-08-18T01:18:54.863Z</time>
      </trkpt>
      <trkpt lat="40.91183" lon="40.1409">
        <ele>22.79021</ele>
        <time>2021-08-18T01:18:57.204Z</time>
      </trkpt>
      <trkpt lat="40.91179" lon="40.14082">
        <ele>22.968215</ele>
        <time>2021-08-18T01:19:03.146Z</time>
      </trkpt>
      <trkpt lat="40.9118" lon="40.1405">
        <ele>23.468576</ele>
        <time>2021-08-18T01:19:15.791Z</time>
      </trkpt>
      <trkpt lat="40.91199" lon="40.13935">
        <ele>24.612363</ele>
        <time>2021-08-18T01:20:04.029Z</time>
      </trkpt>
      <trkpt lat="40.91198" lon="40.13679">
        <ele>22.791581</ele>
        <time>2021-08-18T01:20:52.140Z</time>
      </trkpt>
      <trkpt lat="40.91206" lon="40.13597">
        <ele>21.144156</ele>
        <time>2021-08-18T01:21:05.923Z</time>
      </trkpt>
      <trkpt lat="40.91221" lon="40.13517">
        <ele>19.538235</ele>
        <time>2021-08-18T01:21:19.893Z</time>
      </trkpt>
      <trkpt lat="40.91239" lon="40.13437">
        <ele>17.921348</ele>
        <time>2021-08-18T01:21:34.276Z</time>
      </trkpt>
      <trkpt lat="40.91247" lon="40.13401">
        <ele>17.192289</ele>
        <time>2021-08-18T01:21:41.082Z</time>
      </trkpt>
      <trkpt lat="40.91251" lon="40.1335">
        <ele>16.36679</ele>
        <time>2021-08-18T01:21:51.498Z</time>
      </trkpt>
      <trkpt lat="40.91248" lon="40.13266">
        <ele>17.060091</ele>
        <time>2021-08-18T01:22:13.288Z</time>
      </trkpt>
      <trkpt lat="40.91243" lon="40.132">
        <ele>17.611714</ele>
        <time>2021-08-18T01:22:35.788Z</time>
      </trkpt>
      <trkpt lat="40.91234" lon="40.132">
        <ele>17.705949</ele>
        <time>2021-08-18T01:22:39.662Z</time>
      </trkpt>
      <trkpt lat="40.91217" lon="40.13201">
        <ele>17.89431</ele>
        <time>2021-08-18T01:22:47.214Z</time>
      </trkpt>
      <trkpt lat="40.91208" lon="40.13192">
        <ele>18.019512</ele>
        <time>2021-08-18T01:22:52.530Z</time>
      </trkpt>
      <trkpt lat="40.91196" lon="40.13132">
        <ele>18.237773</ele>
        <time>2021-08-18T01:23:10.508Z</time>
      </trkpt>
      <trkpt lat="40.9119" lon="40.13109">
        <ele>18.197947</ele>
        <time>2021-08-18T01:23:16.328Z</time>
      </trkpt>
      <trkpt lat="40.91176" lon="40.13056">
        <ele>18.105641</ele>
        <time>2021-08-18T01:23:29.463Z</time>
      </trkpt>
      <trkpt lat="40.91167" lon="40.12997">
        <ele>18.006219</ele>
        <time>2021-08-18T01:23:42.655Z</time>
      </trkpt>
      <trkpt lat="40.91152" lon="40.12902">
        <ele>17.743444</ele>
        <time>2021-08-18T01:24:01.687Z</time>
      </trkpt>
      <trkpt lat="40.91146" lon="40.12802">
        <ele>17.238878</ele>
        <time>2021-08-18T01:24:21.229Z</time>
      </trkpt>
      <trkpt lat="40.91116" lon="40.12571">
        <ele>16.285637</ele>
        <time>2021-08-18T01:25:18.896Z</time>
      </trkpt>
      <trkpt lat="40.91116" lon="40.12454">
        <ele>15.879029</ele>
        <time>2021-08-18T01:25:43.153Z</time>
      </trkpt>
      <trkpt lat="40.91116" lon="40.12444">
        <ele>15.778884</ele>
        <time>2021-08-18T01:25:44.884Z</time>
      </trkpt>
      <trkpt lat="40.91115" lon="40.12346">
        <ele>14.791339</ele>
        <time>2021-08-18T01:26:03.674Z</time>
      </trkpt>
      <trkpt lat="40.91115" lon="40.12321">
        <ele>14.548976</ele>
        <time>2021-08-18T01:26:08.272Z</time>
      </trkpt>
      <trkpt lat="40.91117" lon="40.12031">
        <ele>12.926609</ele>
        <time>2021-08-18T01:27:07.975Z</time>
      </trkpt>
      <trkpt lat="40.91117" lon="40.12024">
        <ele>12.905131</ele>
        <time>2021-08-18T01:27:09.526Z</time>
      </trkpt>
      <trkpt lat="40.91119" lon="40.11986">
        <ele>12.781914</ele>
        <time>2021-08-18T01:27:20.592Z</time>
      </trkpt>
      <trkpt lat="40.9113" lon="40.11927">
        <ele>13.697483</ele>
        <time>2021-08-18T01:27:38.384Z</time>
      </trkpt>
      <trkpt lat="40.91141" lon="40.11877">
        <ele>14.532481</ele>
        <time>2021-08-18T01:27:54.972Z</time>
      </trkpt>
      <trkpt lat="40.91143" lon="40.11868">
        <ele>14.685649</ele>
        <time>2021-08-18T01:27:58.929Z</time>
      </trkpt>
      <trkpt lat="40.91195" lon="40.11655">
        <ele>18.249585</ele>
        <time>2021-08-18T01:29:17.091Z</time>
      </trkpt>
      <trkpt lat="40.91227" lon="40.11558">
        <ele>19.930099</ele>
        <time>2021-08-18T01:29:52.664Z</time>
      </trkpt>
      <trkpt lat="40.91248" lon="40.11488">
        <ele>19.630781</ele>
        <time>2021-08-18T01:30:13.376Z</time>
      </trkpt>
      <trkpt lat="40.91253" lon="40.11473">
        <ele>19.390026</ele>
        <time>2021-08-18T01:30:16.733Z</time>
      </trkpt>
      <trkpt lat="40.91286" lon="40.11346">
        <ele>17.409883</ele>
        <time>2021-08-18T01:30:40.370Z</time>
      </trkpt>
      <trkpt lat="40.91335" lon="40.11363">
        <ele>15.955115</ele>
        <time>2021-08-18T01:30:51.437Z</time>
      </trkpt>
      <trkpt lat="40.91367" lon="40.11374">
        <ele>14.571328</ele>
        <time>2021-08-18T01:30:58.554Z</time>
      </trkpt>
      <trkpt lat="40.91375" lon="40.11378">
        <ele>14.211742</ele>
        <time>2021-08-18T01:31:00.347Z</time>
      </trkpt>
      <trkpt lat="40.91403" lon="40.1129">
        <ele>11.150504</ele>
        <time>2021-08-18T01:31:15.526Z</time>
      </trkpt>
      <trkpt lat="40.91422" lon="40.11218">
        <ele>9.087416</ele>
        <time>2021-08-18T01:31:28.381Z</time>
      </trkpt>
      <trkpt lat="40.91426" lon="40.11204">
        <ele>8.977455</ele>
        <time>2021-08-18T01:31:31.021Z</time>
      </trkpt>
      <trkpt lat="40.91429" lon="40.11196">
        <ele>8.907916</ele>
        <time>2021-08-18T01:31:32.769Z</time>
      </trkpt>
      <trkpt lat="40.91459" lon="40.11098">
        <ele>8.125777</ele>
        <time>2021-08-18T01:31:53.814Z</time>
      </trkpt>
      <trkpt lat="40.91475" lon="40.11037">
        <ele>7.651578</ele>
        <time>2021-08-18T01:32:08.065Z</time>
      </trkpt>
      <trkpt lat="40.91503" lon="40.10937">
        <ele>10.736759</ele>
        <time>2021-08-18T01:32:41.185Z</time>
      </trkpt>
      <trkpt lat="40.91513" lon="40.10887">
        <ele>12.884642</ele>
        <time>2021-08-18T01:33:07.083Z</time>
      </trkpt>
      <trkpt lat="40.91523" lon="40.10854">
        <ele>14.366766</ele>
        <time>2021-08-18T01:33:27.086Z</time>
      </trkpt>
      <trkpt lat="40.91547" lon="40.10774">
        <ele>18.304383</ele>
        <time>2021-08-18T01:34:17.524Z</time>
      </trkpt>
      <trkpt lat="40.91551" lon="40.10755">
        <ele>19.603784</ele>
        <time>2021-08-18T01:34:28.402Z</time>
      </trkpt>
      <trkpt lat="40.91554" lon="40.10744">
        <ele>20.388738</ele>
        <time>2021-08-18T01:34:38.839Z</time>
      </trkpt>
      <trkpt lat="40.91584" lon="40.10592">
        <ele>30.696095</ele>
        <time>2021-08-18T01:36:19.524Z</time>
      </trkpt>
      <trkpt lat="40.91597" lon="40.10495">
        <ele>34.759358</ele>
        <time>2021-08-18T01:37:08.895Z</time>
      </trkpt>
      <trkpt lat="40.91601" lon="40.10461">
        <ele>35.729745</ele>
        <time>2021-08-18T01:37:23.270Z</time>
      </trkpt>
      <trkpt lat="40.91614" lon="40.10346">
        <ele>39.005055</ele>
        <time>2021-08-18T01:38:02.996Z</time>
      </trkpt>
      <trkpt lat="40.91636" lon="40.10145">
        <ele>40.827912</ele>
        <time>2021-08-18T01:38:56.966Z</time>
      </trkpt>
      <trkpt lat="40.9164" lon="40.10103">
        <ele>41.102215</ele>
        <time>2021-08-18T01:39:08.452Z</time>
      </trkpt>
      <trkpt lat="40.91642" lon="40.10081">
        <ele>41.229726</ele>
        <time>2021-08-18T01:39:14.443Z</time>
      </trkpt>
      <trkpt lat="40.91653" lon="40.09935">
        <ele>41.755852</ele>
        <time>2021-08-18T01:39:53.553Z</time>
      </trkpt>
      <trkpt lat="40.91651" lon="40.09764">
        <ele>41.303093</ele>
        <time>2021-08-18T01:40:34.129Z</time>
      </trkpt>
      <trkpt lat="40.9165" lon="40.09645">
        <ele>40.234821</ele>
        <time>2021-08-18T01:40:58.179Z</time>
      </trkpt>
      <trkpt lat="40.9165" lon="40.09597">
        <ele>39.449274</ele>
        <time>2021-08-18T01:41:07.007Z</time>
      </trkpt>
      <trkpt lat="40.91652" lon="40.09439">
        <ele>34.016775</ele>
        <time>2021-08-18T01:41:32.413Z</time>
      </trkpt>
      <trkpt lat="40.91656" lon="40.0941">
        <ele>33.006173</ele>
        <time>2021-08-18T01:41:36.905Z</time>
      </trkpt>
      <trkpt lat="40.91669" lon="40.09368">
        <ele>31.551399</ele>
        <time>2021-08-18T01:41:44.196Z</time>
      </trkpt>
      <trkpt lat="40.91688" lon="40.09332">
        <ele>30.523574</ele>
        <time>2021-08-18T01:41:51.662Z</time>
      </trkpt>
      <trkpt lat="40.91691" lon="40.09328">
        <ele>30.377187</ele>
        <time>2021-08-18T01:41:52.502Z</time>
      </trkpt>
      <trkpt lat="40.91704" lon="40.0931">
        <ele>29.789135</ele>
        <time>2021-08-18T01:41:57.137Z</time>
      </trkpt>
      <trkpt lat="40.91736" lon="40.09257">
        <ele>28.196546</ele>
        <time>2021-08-18T01:42:08.520Z</time>
      </trkpt>
      <trkpt lat="40.91766" lon="40.09186">
        <ele>26.303644</ele>
        <time>2021-08-18T01:42:23.991Z</time>
      </trkpt>
      <trkpt lat="40.91833" lon="40.08945">
        <ele>25.717468</ele>
        <time>2021-08-18T01:43:29.965Z</time>
      </trkpt>
      <trkpt lat="40.91859" lon="40.08883">
        <ele>24.150983</ele>
        <time>2021-08-18T01:43:42.810Z</time>
      </trkpt>
      <trkpt lat="40.91924" lon="40.08765">
        <ele>20.937112</ele>
        <time>2021-08-18T01:44:07.278Z</time>
      </trkpt>
      <trkpt lat="40.9193" lon="40.08753">
        <ele>20.647</ele>
        <time>2021-08-18T01:44:09.400Z</time>
      </trkpt>
      <trkpt lat="40.91961" lon="40.08698">
        <ele>19.304733</ele>
        <time>2021-08-18T01:44:21.002Z</time>
      </trkpt>
      <trkpt lat="40.92023" lon="40.08566">
        <ele>16.258754</ele>
        <time>2021-08-18T01:44:49.254Z</time>
      </trkpt>
      <trkpt lat="40.92061" lon="40.08447">
        <ele>15.963524</ele>
        <time>2021-08-18T01:45:18.809Z</time>
      </trkpt>
      <trkpt lat="40.92069" lon="40.08425">
        <ele>15.930815</ele>
        <time>2021-08-18T01:45:25.113Z</time>
      </trkpt>
      <trkpt lat="40.92077" lon="40.08407">
        <ele>15.904812</ele>
        <time>2021-08-18T01:45:29.769Z</time>
      </trkpt>
      <trkpt lat="40.92111" lon="40.08352">
        <ele>15.810294</ele>
        <time>2021-08-18T01:45:48.716Z</time>
      </trkpt>
      <trkpt lat="40.92148" lon="40.08269">
        <ele>15.314642</ele>
        <time>2021-08-18T01:46:10.919Z</time>
      </trkpt>
      <trkpt lat="40.92159" lon="40.08244">
        <ele>15.165945</ele>
        <time>2021-08-18T01:46:16.678Z</time>
      </trkpt>
      <trkpt lat="40.92165" lon="40.08232">
        <ele>15.089921</ele>
        <time>2021-08-18T01:46:20.188Z</time>
      </trkpt>
      <trkpt lat="40.92177" lon="40.08191">
        <ele>14.868253</ele>
        <time>2021-08-18T01:46:28.995Z</time>
      </trkpt>
      <trkpt lat="40.92182" lon="40.08173">
        <ele>14.766039</ele>
        <time>2021-08-18T01:46:33.463Z</time>
      </trkpt>
      <trkpt lat="40.92188" lon="40.08165">
        <ele>14.710518</ele>
        <time>2021-08-18T01:46:35.310Z</time>
      </trkpt>
      <trkpt lat="40.92208" lon="40.08133">
        <ele>14.326023</ele>
        <time>2021-08-18T01:46:43.521Z</time>
      </trkpt>
      <trkpt lat="40.92267" lon="40.07995">
        <ele>11.92483</ele>
        <time>2021-08-18T01:47:12.624Z</time>
      </trkpt>
      <trkpt lat="40.9229" lon="40.07944">
        <ele>11.037332</ele>
        <time>2021-08-18T01:47:23.408Z</time>
      </trkpt>
      <trkpt lat="40.92294" lon="40.07934">
        <ele>10.946705</ele>
        <time>2021-08-18T01:47:25.627Z</time>
      </trkpt>
      <trkpt lat="40.92306" lon="40.07908">
        <ele>10.778726</ele>
        <time>2021-08-18T01:47:31.531Z</time>
      </trkpt>
      <trkpt lat="40.92332" lon="40.07847">
        <ele>10.394349</ele>
        <time>2021-08-18T01:47:45.382Z</time>
      </trkpt>
      <trkpt lat="40.92354" lon="40.078">
        <ele>10.098419</ele>
        <time>2021-08-18T01:47:56.785Z</time>
      </trkpt>
      <trkpt lat="40.92431" lon="40.07664">
        <ele>10.295159</ele>
        <time>2021-08-18T01:48:41.005Z</time>
      </trkpt>
      <trkpt lat="40.92508" lon="40.0757">
        <ele>11.159811</ele>
        <time>2021-08-18T01:49:21.433Z</time>
      </trkpt>
      <trkpt lat="40.92612" lon="40.07403">
        <ele>11.058804</ele>
        <time>2021-08-18T01:50:13.703Z</time>
      </trkpt>
      <trkpt lat="40.92697" lon="40.07273">
        <ele>9.594215</ele>
        <time>2021-08-18T01:50:46.095Z</time>
      </trkpt>
      <trkpt lat="40.92705" lon="40.07262">
        <ele>9.447937</ele>
        <time>2021-08-18T01:50:48.897Z</time>
      </trkpt>
      <trkpt lat="40.92743" lon="40.07201">
        <ele>8.710015</ele>
        <time>2021-08-18T01:51:05.273Z</time>
      </trkpt>
      <trkpt lat="40.92798" lon="40.07144">
        <ele>8.833208</ele>
        <time>2021-08-18T01:51:26.936Z</time>
      </trkpt>
      <trkpt lat="40.92801" lon="40.07138">
        <ele>8.842349</ele>
        <time>2021-08-18T01:51:28.574Z</time>
      </trkpt>
      <trkpt lat="40.92853" lon="40.07058">
        <ele>8.982982</ele>
        <time>2021-08-18T01:51:57.213Z</time>
      </trkpt>
      <trkpt lat="40.93044" lon="40.06753">
        <ele>9.035695</ele>
        <time>2021-08-18T01:53:31.773Z</time>
      </trkpt>
      <trkpt lat="40.93118" lon="40.06642">
        <ele>8.654506</ele>
        <time>2021-08-18T01:54:03.269Z</time>
      </trkpt>
      <trkpt lat="40.93131" lon="40.06621">
        <ele>8.548305</ele>
        <time>2021-08-18T01:54:08.841Z</time>
      </trkpt>
      <trkpt lat="40.93149" lon="40.06593">
        <ele>8.397831</ele>
        <time>2021-08-18T01:54:17.008Z</time>
      </trkpt>
      <trkpt lat="40.93194" lon="40.06523">
        <ele>8.034783</ele>
        <time>2021-08-18T01:54:36.981Z</time>
      </trkpt>
      <trkpt lat="40.932" lon="40.06516">
        <ele>7.99494</ele>
        <time>2021-08-18T01:54:39.025Z</time>
      </trkpt>
      <trkpt lat="40.9322" lon="40.06488">
        <ele>7.869194</ele>
        <time>2021-08-18T01:54:48.032Z</time>
      </trkpt>
      <trkpt lat="40.93283" lon="40.06401">
        <ele>7.939971</ele>
        <time>2021-08-18T01:55:15.930Z</time>
      </trkpt>
      <trkpt lat="40.93289" lon="40.06392">
        <ele>7.946825</ele>
        <time>2021-08-18T01:55:18.843Z</time>
      </trkpt>
      <trkpt lat="40.93326" lon="40.06344">
        <ele>7.98745</ele>
        <time>2021-08-18T01:55:35.916Z</time>
      </trkpt>
      <trkpt lat="40.93332" lon="40.06335">
        <ele>7.994274</ele>
        <time>2021-08-18T01:55:38.965Z</time>
      </trkpt>
      <trkpt lat="40.93481" lon="40.06145">
        <ele>8.385428</ele>
        <time>2021-08-18T01:56:46.541Z</time>
      </trkpt>
      <trkpt lat="40.93486" lon="40.06138">
        <ele>8.373861</ele>
        <time>2021-08-18T01:56:48.815Z</time>
      </trkpt>
      <trkpt lat="40.93564" lon="40.0604">
        <ele>8.20813</ele>
        <time>2021-08-18T01:57:21.265Z</time>
      </trkpt>
      <trkpt lat="40.93577" lon="40.06023">
        <ele>8.179091</ele>
        <time>2021-08-18T01:57:26.841Z</time>
      </trkpt>
      <trkpt lat="40.93591" lon="40.06009">
        <ele>8.15328</ele>
        <time>2021-08-18T01:57:31.749Z</time>
      </trkpt>
      <trkpt lat="40.9365" lon="40.05943">
        <ele>8.021013</ele>
        <time>2021-08-18T01:57:54.512Z</time>
      </trkpt>
      <trkpt lat="40.93721" lon="40.05857">
        <ele>7.853591</ele>
        <time>2021-08-18T01:58:23.612Z</time>
      </trkpt>
      <trkpt lat="40.93733" lon="40.05871">
        <ele>7.825431</ele>
        <time>2021-08-18T01:58:28.751Z</time>
      </trkpt>
      <trkpt lat="40.93753" lon="40.05886">
        <ele>7.811177</ele>
        <time>2021-08-18T01:58:36.221Z</time>
      </trkpt>
      <trkpt lat="40.93768" lon="40.05893">
        <ele>7.809364</ele>
        <time>2021-08-18T01:58:41.494Z</time>
      </trkpt>
      <trkpt lat="40.93814" lon="40.0592">
        <ele>7.803906</ele>
        <time>2021-08-18T01:58:57.838Z</time>
      </trkpt>
      <trkpt lat="40.93821" lon="40.05925">
        <ele>7.803047</ele>
        <time>2021-08-18T01:59:00.503Z</time>
      </trkpt>
      <trkpt lat="40.93879" lon="40.05802">
        <ele>7.729767</ele>
        <time>2021-08-18T01:59:35.905Z</time>
      </trkpt>
      <trkpt lat="40.93881" lon="40.05799">
        <ele>7.716946</ele>
        <time>2021-08-18T01:59:37.187Z</time>
      </trkpt>
      <trkpt lat="40.93903" lon="40.05766">
        <ele>7.611258</ele>
        <time>2021-08-18T01:59:47.729Z</time>
      </trkpt>
      <trkpt lat="40.93933" lon="40.05716">
        <ele>7.45302</ele>
        <time>2021-08-18T02:00:03.187Z</time>
      </trkpt>
      <trkpt lat="40.93973" lon="40.05652">
        <ele>7.248922</ele>
        <time>2021-08-18T02:00:21.668Z</time>
      </trkpt>
      <trkpt lat="40.94017" lon="40.05581">
        <ele>6.959263</ele>
        <time>2021-08-18T02:00:41.882Z</time>
      </trkpt>
      <trkpt lat="40.94024" lon="40.05569">
        <ele>6.908156</ele>
        <time>2021-08-18T02:00:45.357Z</time>
      </trkpt>
      <trkpt lat="40.94078" lon="40.05485">
        <ele>6.543121</ele>
        <time>2021-08-18T02:01:10.447Z</time>
      </trkpt>
      <trkpt lat="40.94048" lon="40.0544">
        <ele>6.501225</ele>
        <time>2021-08-18T02:01:24.932Z</time>
      </trkpt>
      <trkpt lat="40.94101" lon="40.05375">
        <ele>6.862584</ele>
        <time>2021-08-18T02:01:48.192Z</time>
      </trkpt>
      <trkpt lat="40.94224" lon="40.05248">
        <ele>7.436645</ele>
        <time>2021-08-18T02:02:45.522Z</time>
      </trkpt>
      <trkpt lat="40.94304" lon="40.05186">
        <ele>7.613862</ele>
        <time>2021-08-18T02:03:14.145Z</time>
      </trkpt>
      <trkpt lat="40.94334" lon="40.05171">
        <ele>7.635853</ele>
        <time>2021-08-18T02:03:22.574Z</time>
      </trkpt>
      <trkpt lat="40.94347" lon="40.05169">
        <ele>7.610895</ele>
        <time>2021-08-18T02:03:26.588Z</time>
      </trkpt>
      <trkpt lat="40.94383" lon="40.0514">
        <ele>7.533601</ele>
        <time>2021-08-18T02:03:38.436Z</time>
      </trkpt>
      <trkpt lat="40.94392" lon="40.05133">
        <ele>7.513914</ele>
        <time>2021-08-18T02:03:41.369Z</time>
      </trkpt>
      <trkpt lat="40.94407" lon="40.05133">
        <ele>7.487367</ele>
        <time>2021-08-18T02:03:45.726Z</time>
      </trkpt>
      <trkpt lat="40.94431" lon="40.05148">
        <ele>7.436919</ele>
        <time>2021-08-18T02:03:53.867Z</time>
      </trkpt>
      <trkpt lat="40.9445" lon="40.0515">
        <ele>7.402526</ele>
        <time>2021-08-18T02:04:00.143Z</time>
      </trkpt>
      <trkpt lat="40.94455" lon="40.05149">
        <ele>7.392678</ele>
        <time>2021-08-18T02:04:01.700Z</time>
      </trkpt>
      <trkpt lat="40.94464" lon="40.0515">
        <ele>7.376336</ele>
        <time>2021-08-18T02:04:04.295Z</time>
      </trkpt>
      <trkpt lat="40.94472" lon="40.05145">
        <ele>7.360314</ele>
        <time>2021-08-18T02:04:06.903Z</time>
      </trkpt>
      <trkpt lat="40.94487" lon="40.05135">
        <ele>7.328761</ele>
        <time>2021-08-18T02:04:12.627Z</time>
      </trkpt>
      <trkpt lat="40.9457" lon="40.05073">
        <ele>8.491239</ele>
        <time>2021-08-18T02:04:45.610Z</time>
      </trkpt>
      <trkpt lat="40.94584" lon="40.05066">
        <ele>8.684429</ele>
        <time>2021-08-18T02:04:52.043Z</time>
      </trkpt>
      <trkpt lat="40.94598" lon="40.0506">
        <ele>8.863944</ele>
        <time>2021-08-18T02:04:57.664Z</time>
      </trkpt>
      <trkpt lat="40.94659" lon="40.05071">
        <ele>9.679938</ele>
        <time>2021-08-18T02:05:24.860Z</time>
      </trkpt>
      <trkpt lat="40.94779" lon="40.05111">
        <ele>12.400121</ele>
        <time>2021-08-18T02:06:18.065Z</time>
      </trkpt>
      <trkpt lat="40.94843" lon="40.05106">
        <ele>13.887752</ele>
        <time>2021-08-18T02:06:45.637Z</time>
      </trkpt>
      <trkpt lat="40.949" lon="40.05072">
        <ele>15.825863</ele>
        <time>2021-08-18T02:07:14.411Z</time>
      </trkpt>
      <trkpt lat="40.94931" lon="40.05061">
        <ele>16.803041</ele>
        <time>2021-08-18T02:07:29.415Z</time>
      </trkpt>
      <trkpt lat="40.95038" lon="40.05047">
        <ele>20.389413</ele>
        <time>2021-08-18T02:08:25.190Z</time>
      </trkpt>
      <trkpt lat="40.95077" lon="40.05031">
        <ele>21.997061</ele>
        <time>2021-08-18T02:08:46.799Z</time>
      </trkpt>
      <trkpt lat="40.95114" lon="40.04986">
        <ele>23.972479</ele>
        <time>2021-08-18T02:09:15.799Z</time>
      </trkpt>
      <trkpt lat="40.95166" lon="40.04872">
        <ele>27.643743</ele>
        <time>2021-08-18T02:10:06.889Z</time>
      </trkpt>
      <trkpt lat="40.95195" lon="40.04842">
        <ele>28.887687</ele>
        <time>2021-08-18T02:10:25.075Z</time>
      </trkpt>
      <trkpt lat="40.9521" lon="40.04833">
        <ele>29.4519</ele>
        <time>2021-08-18T02:10:33.653Z</time>
      </trkpt>
      <trkpt lat="40.95224" lon="40.04829">
        <ele>29.937007</ele>
        <time>2021-08-18T02:10:39.861Z</time>
      </trkpt>
      <trkpt lat="40.95305" lon="40.04825">
        <ele>32.87295</ele>
        <time>2021-08-18T02:11:19.412Z</time>
      </trkpt>
      <trkpt lat="40.95353" lon="40.04806">
        <ele>35.472947</ele>
        <time>2021-08-18T02:11:46.206Z</time>
      </trkpt>
      <trkpt lat="40.95403" lon="40.04749">
        <ele>38.846973</ele>
        <time>2021-08-18T02:12:25.740Z</time>
      </trkpt>
      <trkpt lat="40.95447" lon="40.04679">
        <ele>42.357306</ele>
        <time>2021-08-18T02:13:15.001Z</time>
      </trkpt>
      <trkpt lat="40.95485" lon="40.04597">
        <ele>46.003716</ele>
        <time>2021-08-18T02:14:03.934Z</time>
      </trkpt>
      <trkpt lat="40.95506" lon="40.0452">
        <ele>49.060139</ele>
        <time>2021-08-18T02:14:39.488Z</time>
      </trkpt>
      <trkpt lat="40.95515" lon="40.04487">
        <ele>50.405624</ele>
        <time>2021-08-18T02:14:52.244Z</time>
      </trkpt>
      <trkpt lat="40.95569" lon="40.04353">
        <ele>50.08986</ele>
        <time>2021-08-18T02:15:30.205Z</time>
      </trkpt>
      <trkpt lat="40.95609" lon="40.04234">
        <ele>49.558813</ele>
        <time>2021-08-18T02:15:53.408Z</time>
      </trkpt>
      <trkpt lat="40.95613" lon="40.04216">
        <ele>49.404185</ele>
        <time>2021-08-18T02:15:56.822Z</time>
      </trkpt>
      <trkpt lat="40.95651" lon="40.04061">
        <ele>48.123469</ele>
        <time>2021-08-18T02:16:30.387Z</time>
      </trkpt>
      <trkpt lat="40.95672" lon="40.03959">
        <ele>49.056557</ele>
        <time>2021-08-18T02:17:00.871Z</time>
      </trkpt>
      <trkpt lat="40.95676" lon="40.03941">
        <ele>49.266588</ele>
        <time>2021-08-18T02:17:07.035Z</time>
      </trkpt>
      <trkpt lat="40.95688" lon="40.03864">
        <ele>50.158532</ele>
        <time>2021-08-18T02:17:34.027Z</time>
      </trkpt>
      <trkpt lat="40.95718" lon="40.03766">
        <ele>50.340207</ele>
        <time>2021-08-18T02:18:06.359Z</time>
      </trkpt>
      <trkpt lat="40.95747" lon="40.0368">
        <ele>49.766353</ele>
        <time>2021-08-18T02:18:26.848Z</time>
      </trkpt>
      <trkpt lat="40.95806" lon="40.03508">
        <ele>45.976914</ele>
        <time>2021-08-18T02:18:59.785Z</time>
      </trkpt>
      <trkpt lat="40.95817" lon="40.03464">
        <ele>44.525881</ele>
        <time>2021-08-18T02:19:07.173Z</time>
      </trkpt>
      <trkpt lat="40.9582" lon="40.03402">
        <ele>42.547603</ele>
        <time>2021-08-18T02:19:17.113Z</time>
      </trkpt>
      <trkpt lat="40.95809" lon="40.03354">
        <ele>40.71887</ele>
        <time>2021-08-18T02:19:25.031Z</time>
      </trkpt>
      <trkpt lat="40.9578" lon="40.03289">
        <ele>37.498902</ele>
        <time>2021-08-18T02:19:37.030Z</time>
      </trkpt>
      <trkpt lat="40.95768" lon="40.03258">
        <ele>35.998582</ele>
        <time>2021-08-18T02:19:42.586Z</time>
      </trkpt>
      <trkpt lat="40.95756" lon="40.03224">
        <ele>34.3929</ele>
        <time>2021-08-18T02:19:48.448Z</time>
      </trkpt>
      <trkpt lat="40.95748" lon="40.03176">
        <ele>32.30437</ele>
        <time>2021-08-18T02:19:56.056Z</time>
      </trkpt>
      <trkpt lat="40.95747" lon="40.03117">
        <ele>29.645791</ele>
        <time>2021-08-18T02:20:05.226Z</time>
      </trkpt>
      <trkpt lat="40.95777" lon="40.02918">
        <ele>20.588834</ele>
        <time>2021-08-18T02:20:36.328Z</time>
      </trkpt>
      <trkpt lat="40.95786" lon="40.02856">
        <ele>19.591209</ele>
        <time>2021-08-18T02:20:47.113Z</time>
      </trkpt>
      <trkpt lat="40.95788" lon="40.0284">
        <ele>19.336201</ele>
        <time>2021-08-18T02:20:50.809Z</time>
      </trkpt>
      <trkpt lat="40.95794" lon="40.02726">
        <ele>17.536644</ele>
        <time>2021-08-18T02:21:12.210Z</time>
      </trkpt>
      <trkpt lat="40.9579" lon="40.02694">
        <ele>17.022374</ele>
        <time>2021-08-18T02:21:20.277Z</time>
      </trkpt>
      <trkpt lat="40.9579" lon="40.02677">
        <ele>17.110216</ele>
        <time>2021-08-18T02:21:23.635Z</time>
      </trkpt>
      <trkpt lat="40.9579" lon="40.02645">
        <ele>17.651474</ele>
        <time>2021-08-18T02:21:34.508Z</time>
      </trkpt>
      <trkpt lat="40.95791" lon="40.02639">
        <ele>17.736864</ele>
        <time>2021-08-18T02:21:36.075Z</time>
      </trkpt>
      <trkpt lat="40.9579" lon="40.02634">
        <ele>17.828958</ele>
        <time>2021-08-18T02:21:37.822Z</time>
      </trkpt>
      <trkpt lat="40.95788" lon="40.02596">
        <ele>18.457915</ele>
        <time>2021-08-18T02:21:51.081Z</time>
      </trkpt>
      <trkpt lat="40.95782" lon="40.02534">
        <ele>19.510169</ele>
        <time>2021-08-18T02:22:14.628Z</time>
      </trkpt>
      <trkpt lat="40.95766" lon="40.02465">
        <ele>20.710929</ele>
        <time>2021-08-18T02:22:41.412Z</time>
      </trkpt>
      <trkpt lat="40.95771" lon="40.02421">
        <ele>21.143774</ele>
        <time>2021-08-18T02:22:55.547Z</time>
      </trkpt>
      <trkpt lat="40.95781" lon="40.02363">
        <ele>21.591854</ele>
        <time>2021-08-18T02:23:12.942Z</time>
      </trkpt>
      <trkpt lat="40.95788" lon="40.02287">
        <ele>22.165088</ele>
        <time>2021-08-18T02:23:35.898Z</time>
      </trkpt>
      <trkpt lat="40.95789" lon="40.02268">
        <ele>22.314167</ele>
        <time>2021-08-18T02:23:39.845Z</time>
      </trkpt>
      <trkpt lat="40.95791" lon="40.02225">
        <ele>22.632177</ele>
        <time>2021-08-18T02:23:50.814Z</time>
      </trkpt>
      <trkpt lat="40.95784" lon="40.02122">
        <ele>21.316281</ele>
        <time>2021-08-18T02:24:10.574Z</time>
      </trkpt>
      <trkpt lat="40.95689" lon="40.01471">
        <ele>11.928997</ele>
        <time>2021-08-18T02:26:13.474Z</time>
      </trkpt>
      <trkpt lat="40.95674" lon="40.01344">
        <ele>11.121065</ele>
        <time>2021-08-18T02:26:39.934Z</time>
      </trkpt>
      <trkpt lat="40.95654" lon="40.01089">
        <ele>11.869817</ele>
        <time>2021-08-18T02:27:43.850Z</time>
      </trkpt>
      <trkpt lat="40.95648" lon="40.00891">
        <ele>15.599827</ele>
        <time>2021-08-18T02:28:51.202Z</time>
      </trkpt>
      <trkpt lat="40.9567" lon="40.00736">
        <ele>19.52557</ele>
        <time>2021-08-18T02:29:56.538Z</time>
      </trkpt>
      <trkpt lat="40.95689" lon="40.00672">
        <ele>21.417136</ele>
        <time>2021-08-18T02:30:25.111Z</time>
      </trkpt>
      <trkpt lat="40.9572" lon="40.00589">
        <ele>23.955554</ele>
        <time>2021-08-18T02:31:00.727Z</time>
      </trkpt>
      <trkpt lat="40.95813" lon="40.00408">
        <ele>26.205285</ele>
        <time>2021-08-18T02:32:05.208Z</time>
      </trkpt>
      <trkpt lat="40.95839" lon="40.00368">
        <ele>26.015374</ele>
        <time>2021-08-18T02:32:17.432Z</time>
      </trkpt>
      <trkpt lat="40.95871" lon="40.00288">
        <ele>24.590891</ele>
        <time>2021-08-18T02:32:35.810Z</time>
      </trkpt>
      <trkpt lat="40.959" lon="40.002">
        <ele>23.084667</ele>
        <time>2021-08-18T02:32:52.508Z</time>
      </trkpt>
      <trkpt lat="40.95909" lon="40.00164">
        <ele>22.259789</ele>
        <time>2021-08-18T02:32:58.754Z</time>
      </trkpt>
      <trkpt lat="40.95914" lon="40.00145">
        <ele>21.614315</ele>
        <time>2021-08-18T02:33:02.041Z</time>
      </trkpt>
      <trkpt lat="40.95919" lon="40.00127">
        <ele>21.015016</ele>
        <time>2021-08-18T02:33:05.049Z</time>
      </trkpt>
      <trkpt lat="40.95931" lon="40.00081">
        <ele>19.484677</ele>
        <time>2021-08-18T02:33:12.611Z</time>
      </trkpt>
      <trkpt lat="40.95959" lon="39.99985">
        <ele>16.193161</ele>
        <time>2021-08-18T02:33:29.457Z</time>
      </trkpt>
      <trkpt lat="40.95985" lon="39.99918">
        <ele>15.269091</ele>
        <time>2021-08-18T02:33:42.361Z</time>
      </trkpt>
      <trkpt lat="40.96006" lon="39.99873">
        <ele>15.42167</ele>
        <time>2021-08-18T02:33:53.111Z</time>
      </trkpt>
      <trkpt lat="40.96008" lon="39.99869">
        <ele>15.435017</ele>
        <time>2021-08-18T02:33:57.062Z</time>
      </trkpt>
      <trkpt lat="40.96083" lon="39.99754">
        <ele>16.081659</ele>
        <time>2021-08-18T02:34:44.678Z</time>
      </trkpt>
      <trkpt lat="40.96251" lon="39.99547">
        <ele>20.392895</ele>
        <time>2021-08-18T02:36:28.881Z</time>
      </trkpt>
      <trkpt lat="40.96288" lon="39.99491">
        <ele>20.644322</ele>
        <time>2021-08-18T02:36:46.938Z</time>
      </trkpt>
      <trkpt lat="40.96306" lon="39.9946">
        <ele>20.774835</ele>
        <time>2021-08-18T02:36:55.277Z</time>
      </trkpt>
      <trkpt lat="40.96335" lon="39.99391">
        <ele>20.45249</ele>
        <time>2021-08-18T02:37:10.676Z</time>
      </trkpt>
      <trkpt lat="40.96355" lon="39.99307">
        <ele>19.212792</ele>
        <time>2021-08-18T02:37:26.911Z</time>
      </trkpt>
      <trkpt lat="40.96361" lon="39.99259">
        <ele>18.530969</ele>
        <time>2021-08-18T02:37:35.901Z</time>
      </trkpt>
      <trkpt lat="40.96363" lon="39.99213">
        <ele>17.886529</ele>
        <time>2021-08-18T02:37:44.475Z</time>
      </trkpt>
      <trkpt lat="40.96361" lon="39.99159">
        <ele>17.187234</ele>
        <time>2021-08-18T02:37:54.698Z</time>
      </trkpt>
      <trkpt lat="40.96344" lon="39.99065">
        <ele>16.013317</ele>
        <time>2021-08-18T02:38:13.232Z</time>
      </trkpt>
      <trkpt lat="40.96273" lon="39.9885">
        <ele>12.779668</ele>
        <time>2021-08-18T02:38:59.058Z</time>
      </trkpt>
      <trkpt lat="40.96239" lon="39.98721">
        <ele>10.658327</ele>
        <time>2021-08-18T02:39:23.398Z</time>
      </trkpt>
      <trkpt lat="40.96226" lon="39.98639">
        <ele>9.218946</ele>
        <time>2021-08-18T02:39:38.479Z</time>
      </trkpt>
      <trkpt lat="40.96218" lon="39.98583">
        <ele>8.25445</ele>
        <time>2021-08-18T02:39:48.806Z</time>
      </trkpt>
      <trkpt lat="40.96205" lon="39.98485">
        <ele>6.847893</ele>
        <time>2021-08-18T02:40:07.289Z</time>
      </trkpt>
      <trkpt lat="40.96172" lon="39.98249">
        <ele>5.698845</ele>
        <time>2021-08-18T02:40:59.027Z</time>
      </trkpt>
      <trkpt lat="40.96169" lon="39.9823">
        <ele>5.779628</ele>
        <time>2021-08-18T02:41:03.438Z</time>
      </trkpt>
      <trkpt lat="40.96163" lon="39.98156">
        <ele>6.085509</ele>
        <time>2021-08-18T02:41:22.076Z</time>
      </trkpt>
      <trkpt lat="40.9616" lon="39.98105">
        <ele>6.29344</ele>
        <time>2021-08-18T02:41:35.403Z</time>
      </trkpt>
      <trkpt lat="40.9616" lon="39.97983">
        <ele>7.449785</ele>
        <time>2021-08-18T02:42:11.659Z</time>
      </trkpt>
      <trkpt lat="40.96173" lon="39.97883">
        <ele>9.01146</ele>
        <time>2021-08-18T02:42:44.869Z</time>
      </trkpt>
      <trkpt lat="40.96215" lon="39.97656">
        <ele>12.646469</ele>
        <time>2021-08-18T02:44:04.826Z</time>
      </trkpt>
      <trkpt lat="40.96222" lon="39.97571">
        <ele>13.950971</ele>
        <time>2021-08-18T02:44:30.770Z</time>
      </trkpt>
      <trkpt lat="40.96216" lon="39.97458">
        <ele>14.052103</ele>
        <time>2021-08-18T02:44:59.946Z</time>
      </trkpt>
      <trkpt lat="40.96207" lon="39.97399">
        <ele>14.105726</ele>
        <time>2021-08-18T02:45:13.429Z</time>
      </trkpt>
      <trkpt lat="40.96187" lon="39.97324">
        <ele>14.076417</ele>
        <time>2021-08-18T02:45:30.304Z</time>
      </trkpt>
      <trkpt lat="40.96076" lon="39.97024">
        <ele>12.672819</ele>
        <time>2021-08-18T02:46:40.805Z</time>
      </trkpt>
      <trkpt lat="40.96044" lon="39.96885">
        <ele>12.419618</ele>
        <time>2021-08-18T02:47:15.454Z</time>
      </trkpt>
      <trkpt lat="40.9603" lon="39.96779">
        <ele>12.464642</ele>
        <time>2021-08-18T02:47:42.107Z</time>
      </trkpt>
      <trkpt lat="40.96019" lon="39.96274">
        <ele>12.060373</ele>
        <time>2021-08-18T02:49:39.204Z</time>
      </trkpt>
      <trkpt lat="40.96016" lon="39.96189">
        <ele>11.907777</ele>
        <time>2021-08-18T02:49:58.182Z</time>
      </trkpt>
      <trkpt lat="40.96011" lon="39.96141">
        <ele>11.621552</ele>
        <time>2021-08-18T02:50:08.638Z</time>
      </trkpt>
      <trkpt lat="40.95994" lon="39.96018">
        <ele>10.891258</ele>
        <time>2021-08-18T02:50:34.459Z</time>
      </trkpt>
      <trkpt lat="40.95974" lon="39.95906">
        <ele>10.408278</ele>
        <time>2021-08-18T02:50:58.135Z</time>
      </trkpt>
      <trkpt lat="40.95884" lon="39.95425">
        <ele>10.083818</ele>
        <time>2021-08-18T02:52:53.382Z</time>
      </trkpt>
      <trkpt lat="40.95792" lon="39.94928">
        <ele>11.797163</ele>
        <time>2021-08-18T02:55:07.246Z</time>
      </trkpt>
      <trkpt lat="40.95764" lon="39.94696">
        <ele>11.92321</ele>
        <time>2021-08-18T02:56:00.385Z</time>
      </trkpt>
      <trkpt lat="40.95763" lon="39.94687">
        <ele>11.923206</ele>
        <time>2021-08-18T02:56:02.287Z</time>
      </trkpt>
      <trkpt lat="40.95759" lon="39.94672">
        <ele>11.923198</ele>
        <time>2021-08-18T02:56:05.801Z</time>
      </trkpt>
      <trkpt lat="40.95759" lon="39.94669">
        <ele>11.923196</ele>
        <time>2021-08-18T02:56:06.866Z</time>
      </trkpt>
      <trkpt lat="40.95543" lon="39.9391">
        <ele>13.17342</ele>
        <time>2021-08-18T02:59:27.205Z</time>
      </trkpt>
      <trkpt lat="40.95416" lon="39.93228">
        <ele>10.232327</ele>
        <time>2021-08-18T03:01:57.752Z</time>
      </trkpt>
      <trkpt lat="40.9541" lon="39.93186">
        <ele>10.129326</ele>
        <time>2021-08-18T03:02:07.501Z</time>
      </trkpt>
      <trkpt lat="40.95404" lon="39.9313">
        <ele>10.091813</ele>
        <time>2021-08-18T03:02:20.661Z</time>
      </trkpt>
      <trkpt lat="40.954" lon="39.93067">
        <ele>10.049483</ele>
        <time>2021-08-18T03:02:35.438Z</time>
      </trkpt>
      <trkpt lat="40.95399" lon="39.93">
        <ele>10.005171</ele>
        <time>2021-08-18T03:02:51.097Z</time>
      </trkpt>
      <trkpt lat="40.95405" lon="39.9285">
        <ele>9.948991</ele>
        <time>2021-08-18T03:03:27.273Z</time>
      </trkpt>
      <trkpt lat="40.95417" lon="39.92669">
        <ele>9.857409</ele>
        <time>2021-08-18T03:04:08.678Z</time>
      </trkpt>
      <trkpt lat="40.95444" lon="39.92439">
        <ele>9.613419</ele>
        <time>2021-08-18T03:05:02.776Z</time>
      </trkpt>
      <trkpt lat="40.95446" lon="39.92412">
        <ele>9.570909</ele>
        <time>2021-08-18T03:05:09.054Z</time>
      </trkpt>
      <trkpt lat="40.95449" lon="39.92228">
        <ele>9.255162</ele>
        <time>2021-08-18T03:05:50.489Z</time>
      </trkpt>
      <trkpt lat="40.95448" lon="39.91974">
        <ele>8.641067</ele>
        <time>2021-08-18T03:06:46.951Z</time>
      </trkpt>
      <trkpt lat="40.95398" lon="39.91265">
        <ele>7.24735</ele>
        <time>2021-08-18T03:09:27.897Z</time>
      </trkpt>
      <trkpt lat="40.95394" lon="39.91178">
        <ele>7.175452</ele>
        <time>2021-08-18T03:09:47.444Z</time>
      </trkpt>
      <trkpt lat="40.95396" lon="39.91032">
        <ele>7.193525</ele>
        <time>2021-08-18T03:10:22.181Z</time>
      </trkpt>
      <trkpt lat="40.95394" lon="39.91006">
        <ele>7.260705</ele>
        <time>2021-08-18T03:10:28.490Z</time>
      </trkpt>
      <trkpt lat="40.95392" lon="39.90979">
        <ele>7.334455</ele>
        <time>2021-08-18T03:10:35.392Z</time>
      </trkpt>
      <trkpt lat="40.95391" lon="39.9096">
        <ele>7.384806</ele>
        <time>2021-08-18T03:10:40.248Z</time>
      </trkpt>
      <trkpt lat="40.95362" lon="39.90754">
        <ele>7.898251</ele>
        <time>2021-08-18T03:11:33.892Z</time>
      </trkpt>
      <trkpt lat="40.95339" lon="39.90428">
        <ele>8.433074</ele>
        <time>2021-08-18T03:12:53.494Z</time>
      </trkpt>
      <trkpt lat="40.95332" lon="39.90332">
        <ele>8.700102</ele>
        <time>2021-08-18T03:13:16.269Z</time>
      </trkpt>
      <trkpt lat="40.9533" lon="39.90295">
        <ele>8.933613</ele>
        <time>2021-08-18T03:13:25.033Z</time>
      </trkpt>
      <trkpt lat="40.95325" lon="39.90232">
        <ele>9.325908</ele>
        <time>2021-08-18T03:13:40.851Z</time>
      </trkpt>
      <trkpt lat="40.95321" lon="39.90185">
        <ele>9.623398</ele>
        <time>2021-08-18T03:13:54.814Z</time>
      </trkpt>
      <trkpt lat="40.95318" lon="39.90129">
        <ele>9.976624</ele>
        <time>2021-08-18T03:14:12.099Z</time>
      </trkpt>
      <trkpt lat="40.95318" lon="39.90068">
        <ele>11.299038</ele>
        <time>2021-08-18T03:14:31.291Z</time>
      </trkpt>
      <trkpt lat="40.95322" lon="39.89991">
        <ele>13.062844</ele>
        <time>2021-08-18T03:14:58.525Z</time>
      </trkpt>
      <trkpt lat="40.95347" lon="39.89843">
        <ele>17.052496</ele>
        <time>2021-08-18T03:15:59.426Z</time>
      </trkpt>
      <trkpt lat="40.95436" lon="39.89556">
        <ele>27.812929</ele>
        <time>2021-08-18T03:18:12.851Z</time>
      </trkpt>
      <trkpt lat="40.95448" lon="39.89481">
        <ele>30.65222</ele>
        <time>2021-08-18T03:18:48.636Z</time>
      </trkpt>
      <trkpt lat="40.95451" lon="39.89423">
        <ele>32.546765</ele>
        <time>2021-08-18T03:19:14.256Z</time>
      </trkpt>
      <trkpt lat="40.95447" lon="39.8934">
        <ele>34.541245</ele>
        <time>2021-08-18T03:19:50.411Z</time>
      </trkpt>
      <trkpt lat="40.95413" lon="39.88945">
        <ele>40.084458</ele>
        <time>2021-08-18T03:21:56.826Z</time>
      </trkpt>
      <trkpt lat="40.95356" lon="39.88693">
        <ele>34.193048</ele>
        <time>2021-08-18T03:22:41.251Z</time>
      </trkpt>
      <trkpt lat="40.95347" lon="39.88624">
        <ele>32.089635</ele>
        <time>2021-08-18T03:22:52.503Z</time>
      </trkpt>
      <trkpt lat="40.95336" lon="39.88432">
        <ele>27.147255</ele>
        <time>2021-08-18T03:23:24.710Z</time>
      </trkpt>
      <trkpt lat="40.9534" lon="39.88294">
        <ele>24.702381</ele>
        <time>2021-08-18T03:23:49.440Z</time>
      </trkpt>
      <trkpt lat="40.95354" lon="39.88169">
        <ele>26.089506</ele>
        <time>2021-08-18T03:24:24.040Z</time>
      </trkpt>
      <trkpt lat="40.95357" lon="39.88149">
        <ele>26.497669</ele>
        <time>2021-08-18T03:24:31.424Z</time>
      </trkpt>
      <trkpt lat="40.95355" lon="39.88145">
        <ele>26.581461</ele>
        <time>2021-08-18T03:24:35.442Z</time>
      </trkpt>
      <trkpt lat="40.95348" lon="39.88137">
        <ele>26.827626</ele>
        <time>2021-08-18T03:24:38.223Z</time>
      </trkpt>
      <trkpt lat="40.95334" lon="39.88138">
        <ele>27.177042</ele>
        <time>2021-08-18T03:24:42.076Z</time>
      </trkpt>
      <trkpt lat="40.95331" lon="39.88138">
        <ele>27.255342</ele>
        <time>2021-08-18T03:24:45.514Z</time>
      </trkpt>
      <trkpt lat="40.95326" lon="39.88135">
        <ele>27.420557</ele>
        <time>2021-08-18T03:24:48.622Z</time>
      </trkpt>
      <trkpt lat="40.9532" lon="39.88132">
        <ele>27.58259</ele>
        <time>2021-08-18T03:24:54.465Z</time>
      </trkpt>
      <trkpt lat="40.95322" lon="39.88104">
        <ele>28.146855</ele>
        <time>2021-08-18T03:25:02.510Z</time>
      </trkpt>
      <trkpt lat="40.95326" lon="39.88064">
        <ele>29.033916</ele>
        <time>2021-08-18T03:25:20.519Z</time>
      </trkpt>
      <trkpt lat="40.95333" lon="39.88025">
        <ele>30.756429</ele>
        <time>2021-08-18T03:25:41.135Z</time>
      </trkpt>
      <trkpt lat="40.95349" lon="39.87944">
        <ele>34.391745</ele>
        <time>2021-08-18T03:26:27.394Z</time>
      </trkpt>
      <trkpt lat="40.9536" lon="39.87844">
        <ele>38.779888</ele>
        <time>2021-08-18T03:27:13.164Z</time>
      </trkpt>
      <trkpt lat="40.95355" lon="39.87703">
        <ele>41.636042</ele>
        <time>2021-08-18T03:28:12.630Z</time>
      </trkpt>
      <trkpt lat="40.95353" lon="39.87657">
        <ele>42.507101</ele>
        <time>2021-08-18T03:28:26.669Z</time>
      </trkpt>
      <trkpt lat="40.95351" lon="39.87597">
        <ele>43.624553</ele>
        <time>2021-08-18T03:28:40.152Z</time>
      </trkpt>
      <trkpt lat="40.95351" lon="39.87527">
        <ele>41.745622</ele>
        <time>2021-08-18T03:28:53.832Z</time>
      </trkpt>
      <trkpt lat="40.95351" lon="39.87508">
        <ele>41.212962</ele>
        <time>2021-08-18T03:28:57.222Z</time>
      </trkpt>
      <trkpt lat="40.95353" lon="39.8741">
        <ele>38.557237</ele>
        <time>2021-08-18T03:29:13.204Z</time>
      </trkpt>
      <trkpt lat="40.95356" lon="39.87313">
        <ele>34.837358</ele>
        <time>2021-08-18T03:29:28.368Z</time>
      </trkpt>
      <trkpt lat="40.95359" lon="39.8721">
        <ele>29.640719</ele>
        <time>2021-08-18T03:29:44.133Z</time>
      </trkpt>
      <trkpt lat="40.95366" lon="39.87107">
        <ele>24.465163</ele>
        <time>2021-08-18T03:29:59.766Z</time>
      </trkpt>
      <trkpt lat="40.95371" lon="39.87049">
        <ele>21.807349</ele>
        <time>2021-08-18T03:30:08.497Z</time>
      </trkpt>
      <trkpt lat="40.95383" lon="39.86964">
        <ele>17.850936</ele>
        <time>2021-08-18T03:30:21.653Z</time>
      </trkpt>
      <trkpt lat="40.95385" lon="39.86959">
        <ele>17.586959</ele>
        <time>2021-08-18T03:30:22.557Z</time>
      </trkpt>
      <trkpt lat="40.95386" lon="39.86947">
        <ele>17.029412</ele>
        <time>2021-08-18T03:30:24.508Z</time>
      </trkpt>
      <trkpt lat="40.95384" lon="39.86941">
        <ele>16.73529</ele>
        <time>2021-08-18T03:30:25.512Z</time>
      </trkpt>
      <trkpt lat="40.95386" lon="39.86904">
        <ele>15.002243</ele>
        <time>2021-08-18T03:30:31.645Z</time>
      </trkpt>
      <trkpt lat="40.95389" lon="39.86854">
        <ele>13.880691</ele>
        <time>2021-08-18T03:30:39.915Z</time>
      </trkpt>
      <trkpt lat="40.95394" lon="39.86812">
        <ele>13.456324</ele>
        <time>2021-08-18T03:30:47.307Z</time>
      </trkpt>
      <trkpt lat="40.95405" lon="39.86744">
        <ele>12.780568</ele>
        <time>2021-08-18T03:31:01.580Z</time>
      </trkpt>
      <trkpt lat="40.9541" lon="39.86709">
        <ele>12.429014</ele>
        <time>2021-08-18T03:31:10.274Z</time>
      </trkpt>
      <trkpt lat="40.95439" lon="39.86712">
        <ele>12.048748</ele>
        <time>2021-08-18T03:31:20.882Z</time>
      </trkpt>
      <trkpt lat="40.9546" lon="39.86664">
        <ele>12.026933</ele>
        <time>2021-08-18T03:31:36.928Z</time>
      </trkpt>
      <trkpt lat="40.95462" lon="39.86655">
        <ele>12.073395</ele>
        <time>2021-08-18T03:31:40.013Z</time>
      </trkpt>
      <trkpt lat="40.95472" lon="39.86623">
        <ele>12.243363</ele>
        <time>2021-08-18T03:31:50.033Z</time>
      </trkpt>
      <trkpt lat="40.95491" lon="39.86554">
        <ele>12.605605</ele>
        <time>2021-08-18T03:32:11.201Z</time>
      </trkpt>
      <trkpt lat="40.95493" lon="39.86547">
        <ele>12.638499</ele>
        <time>2021-08-18T03:32:12.846Z</time>
      </trkpt>
      <trkpt lat="40.95539" lon="39.86368">
        <ele>12.888956</ele>
        <time>2021-08-18T03:33:00.224Z</time>
      </trkpt>
      <trkpt lat="40.95557" lon="39.86274">
        <ele>12.773546</ele>
        <time>2021-08-18T03:33:22.616Z</time>
      </trkpt>
      <trkpt lat="40.95564" lon="39.86241">
        <ele>12.720824</ele>
        <time>2021-08-18T03:33:30.313Z</time>
      </trkpt>
      <trkpt lat="40.95576" lon="39.86178">
        <ele>12.479513</ele>
        <time>2021-08-18T03:33:45.377Z</time>
      </trkpt>
      <trkpt lat="40.95593" lon="39.86089">
        <ele>12.134837</ele>
        <time>2021-08-18T03:34:06.484Z</time>
      </trkpt>
      <trkpt lat="40.95597" lon="39.86064">
        <ele>12.039407</ele>
        <time>2021-08-18T03:34:11.991Z</time>
      </trkpt>
      <trkpt lat="40.95624" lon="39.85921">
        <ele>11.54642</ele>
        <time>2021-08-18T03:34:45.442Z</time>
      </trkpt>
      <trkpt lat="40.95634" lon="39.85878">
        <ele>11.405935</ele>
        <time>2021-08-18T03:34:55.248Z</time>
      </trkpt>
      <trkpt lat="40.95637" lon="39.85862">
        <ele>11.353058</ele>
        <time>2021-08-18T03:34:59.137Z</time>
      </trkpt>
      <trkpt lat="40.95639" lon="39.8586">
        <ele>11.34381</ele>
        <time>2021-08-18T03:34:59.790Z</time>
      </trkpt>
      <trkpt lat="40.95641" lon="39.85855">
        <ele>11.32604</ele>
        <time>2021-08-18T03:35:01.094Z</time>
      </trkpt>
      <trkpt lat="40.9564" lon="39.85852">
        <ele>11.31685</ele>
        <time>2021-08-18T03:35:01.751Z</time>
      </trkpt>
      <trkpt lat="40.95646" lon="39.85844">
        <ele>11.282883</ele>
        <time>2021-08-18T03:35:04.094Z</time>
      </trkpt>
      <trkpt lat="40.95758" lon="39.85503">
        <ele>11.371667</ele>
        <time>2021-08-18T03:36:36.836Z</time>
      </trkpt>
      <trkpt lat="40.95786" lon="39.85421">
        <ele>11.519118</ele>
        <time>2021-08-18T03:37:00.691Z</time>
      </trkpt>
      <trkpt lat="40.95818" lon="39.85349">
        <ele>11.650697</ele>
        <time>2021-08-18T03:37:20.809Z</time>
      </trkpt>
      <trkpt lat="40.95817" lon="39.85334">
        <ele>11.669144</ele>
        <time>2021-08-18T03:37:24.546Z</time>
      </trkpt>
      <trkpt lat="40.95779" lon="39.85298">
        <ele>11.747798</ele>
        <time>2021-08-18T03:37:41.155Z</time>
      </trkpt>
      <trkpt lat="40.95784" lon="39.85286">
        <ele>11.763585</ele>
        <time>2021-08-18T03:37:43.943Z</time>
      </trkpt>
      <trkpt lat="40.95798" lon="39.85257">
        <ele>11.807211</ele>
        <time>2021-08-18T03:37:52.180Z</time>
      </trkpt>
      <trkpt lat="40.95801" lon="39.85253">
        <ele>11.814481</ele>
        <time>2021-08-18T03:37:53.367Z</time>
      </trkpt>
      <trkpt lat="40.95803" lon="39.85248">
        <ele>11.821794</ele>
        <time>2021-08-18T03:37:54.618Z</time>
      </trkpt>
      <trkpt lat="40.95804" lon="39.85242">
        <ele>11.828812</ele>
        <time>2021-08-18T03:37:55.863Z</time>
      </trkpt>
      <trkpt lat="40.95803" lon="39.85237">
        <ele>11.835754</ele>
        <time>2021-08-18T03:37:57.183Z</time>
      </trkpt>
      <trkpt lat="40.95825" lon="39.85149">
        <ele>12.027003</ele>
        <time>2021-08-18T03:38:19.961Z</time>
      </trkpt>
      <trkpt lat="40.95834" lon="39.85129">
        <ele>12.188583</ele>
        <time>2021-08-18T03:38:26.299Z</time>
      </trkpt>
      <trkpt lat="40.95839" lon="39.85123">
        <ele>12.257404</ele>
        <time>2021-08-18T03:38:28.252Z</time>
      </trkpt>
      <trkpt lat="40.95856" lon="39.85109">
        <ele>12.444811</ele>
        <time>2021-08-18T03:38:35.521Z</time>
      </trkpt>
      <trkpt lat="40.95862" lon="39.85102">
        <ele>12.521</ele>
        <time>2021-08-18T03:38:38.270Z</time>
      </trkpt>
      <trkpt lat="40.95865" lon="39.85107">
        <ele>12.564237</ele>
        <time>2021-08-18T03:38:39.443Z</time>
      </trkpt>
      <trkpt lat="40.95874" lon="39.85113">
        <ele>12.662838</ele>
        <time>2021-08-18T03:38:43.306Z</time>
      </trkpt>
      <trkpt lat="40.95884" lon="39.8511">
        <ele>12.76301</ele>
        <time>2021-08-18T03:38:48.174Z</time>
      </trkpt>
      <trkpt lat="40.95888" lon="39.85107">
        <ele>12.8064</ele>
        <time>2021-08-18T03:38:49.741Z</time>
      </trkpt>
      <trkpt lat="40.95889" lon="39.85095">
        <ele>12.893067</ele>
        <time>2021-08-18T03:38:53.126Z</time>
      </trkpt>
      <trkpt lat="40.9589" lon="39.8508">
        <ele>12.99729</ele>
        <time>2021-08-18T03:38:57.263Z</time>
      </trkpt>
      <trkpt lat="40.95891" lon="39.85062">
        <ele>13.131509</ele>
        <time>2021-08-18T03:39:03.545Z</time>
      </trkpt>
      <trkpt lat="40.95907" lon="39.8495">
        <ele>13.853026</ele>
        <time>2021-08-18T03:39:35.449Z</time>
      </trkpt>
      <trkpt lat="40.95943" lon="39.84834">
        <ele>14.480367</ele>
        <time>2021-08-18T03:40:11.251Z</time>
      </trkpt>
      <trkpt lat="40.96034" lon="39.84597">
        <ele>14.048145</ele>
        <time>2021-08-18T03:41:09.898Z</time>
      </trkpt>
      <trkpt lat="40.9607" lon="39.84497">
        <ele>13.758295</ele>
        <time>2021-08-18T03:41:32.134Z</time>
      </trkpt>
      <trkpt lat="40.9611" lon="39.84385">
        <ele>13.531269</ele>
        <time>2021-08-18T03:42:00.078Z</time>
      </trkpt>
      <trkpt lat="40.96144" lon="39.84298">
        <ele>13.79497</ele>
        <time>2021-08-18T03:42:27.045Z</time>
      </trkpt>
      <trkpt lat="40.96212" lon="39.84152">
        <ele>14.901942</ele>
        <time>2021-08-18T03:43:15.933Z</time>
      </trkpt>
      <trkpt lat="40.96229" lon="39.8412">
        <ele>14.81788</ele>
        <time>2021-08-18T03:43:25.193Z</time>
      </trkpt>
      <trkpt lat="40.96257" lon="39.84069">
        <ele>14.387752</ele>
        <time>2021-08-18T03:43:38.762Z</time>
      </trkpt>
      <trkpt lat="40.96292" lon="39.84016">
        <ele>13.914866</ele>
        <time>2021-08-18T03:43:53.078Z</time>
      </trkpt>
      <trkpt lat="40.96333" lon="39.8397">
        <ele>13.429588</ele>
        <time>2021-08-18T03:44:06.906Z</time>
      </trkpt>
      <trkpt lat="40.96402" lon="39.83881">
        <ele>11.951201</ele>
        <time>2021-08-18T03:44:30.469Z</time>
      </trkpt>
      <trkpt lat="40.96437" lon="39.83841">
        <ele>11.21936</ele>
        <time>2021-08-18T03:44:42.256Z</time>
      </trkpt>
      <trkpt lat="40.96458" lon="39.83819">
        <ele>10.796888</ele>
        <time>2021-08-18T03:44:49.424Z</time>
      </trkpt>
      <trkpt lat="40.96491" lon="39.83789">
        <ele>10.395657</ele>
        <time>2021-08-18T03:45:00.429Z</time>
      </trkpt>
      <trkpt lat="40.96494" lon="39.83786">
        <ele>10.376696</ele>
        <time>2021-08-18T03:45:01.223Z</time>
      </trkpt>
      <trkpt lat="40.9653" lon="39.83754">
        <ele>10.117401</ele>
        <time>2021-08-18T03:45:13.539Z</time>
      </trkpt>
      <trkpt lat="40.96542" lon="39.83745">
        <ele>10.037308</ele>
        <time>2021-08-18T03:45:17.234Z</time>
      </trkpt>
      <trkpt lat="40.96574" lon="39.83718">
        <ele>9.813588</ele>
        <time>2021-08-18T03:45:28.032Z</time>
      </trkpt>
      <trkpt lat="40.96591" lon="39.83706">
        <ele>9.700866</ele>
        <time>2021-08-18T03:45:33.613Z</time>
      </trkpt>
      <trkpt lat="40.96717" lon="39.83631">
        <ele>9.275415</ele>
        <time>2021-08-18T03:46:15.325Z</time>
      </trkpt>
      <trkpt lat="40.9672" lon="39.83629">
        <ele>9.267591</ele>
        <time>2021-08-18T03:46:16.529Z</time>
      </trkpt>
      <trkpt lat="40.96745" lon="39.83614">
        <ele>9.213486</ele>
        <time>2021-08-18T03:46:24.751Z</time>
      </trkpt>
      <trkpt lat="40.9675" lon="39.83612">
        <ele>9.204061</ele>
        <time>2021-08-18T03:46:26.187Z</time>
      </trkpt>
      <trkpt lat="40.96754" lon="39.83609">
        <ele>9.194679</ele>
        <time>2021-08-18T03:46:27.566Z</time>
      </trkpt>
      <trkpt lat="40.96776" lon="39.83592">
        <ele>9.14438</ele>
        <time>2021-08-18T03:46:35.250Z</time>
      </trkpt>
      <trkpt lat="40.96884" lon="39.83525">
        <ele>9.206724</ele>
        <time>2021-08-18T03:47:11.679Z</time>
      </trkpt>
      <trkpt lat="40.97131" lon="39.83352">
        <ele>10.031745</ele>
        <time>2021-08-18T03:48:44.225Z</time>
      </trkpt>
      <trkpt lat="40.97175" lon="39.83314">
        <ele>10.238953</ele>
        <time>2021-08-18T03:49:02.350Z</time>
      </trkpt>
      <trkpt lat="40.97195" lon="39.833">
        <ele>10.324593</ele>
        <time>2021-08-18T03:49:09.613Z</time>
      </trkpt>
      <trkpt lat="40.9723" lon="39.83293">
        <ele>10.466028</ele>
        <time>2021-08-18T03:49:25.269Z</time>
      </trkpt>
      <trkpt lat="40.97256" lon="39.8328">
        <ele>10.572099</ele>
        <time>2021-08-18T03:49:37.005Z</time>
      </trkpt>
      <trkpt lat="40.97268" lon="39.83273">
        <ele>10.622585</ele>
        <time>2021-08-18T03:49:42.359Z</time>
      </trkpt>
      <trkpt lat="40.97274" lon="39.83266">
        <ele>10.661598</ele>
        <time>2021-08-18T03:49:46.083Z</time>
      </trkpt>
      <trkpt lat="40.97294" lon="39.83249">
        <ele>10.798545</ele>
        <time>2021-08-18T03:49:55.958Z</time>
      </trkpt>
      <trkpt lat="40.97317" lon="39.83225">
        <ele>10.963996</ele>
        <time>2021-08-18T03:50:08.443Z</time>
      </trkpt>
      <trkpt lat="40.97342" lon="39.83212">
        <ele>11.116292</ele>
        <time>2021-08-18T03:50:17.263Z</time>
      </trkpt>
      <trkpt lat="40.97376" lon="39.832">
        <ele>11.318169</ele>
        <time>2021-08-18T03:50:29.404Z</time>
      </trkpt>
      <trkpt lat="40.97448" lon="39.83184">
        <ele>11.965225</ele>
        <time>2021-08-18T03:50:55.295Z</time>
      </trkpt>
      <trkpt lat="40.97485" lon="39.83181">
        <ele>12.848404</ele>
        <time>2021-08-18T03:51:08.406Z</time>
      </trkpt>
      <trkpt lat="40.97632" lon="39.83196">
        <ele>16.786046</ele>
        <time>2021-08-18T03:52:17.883Z</time>
      </trkpt>
      <trkpt lat="40.97703" lon="39.83198">
        <ele>20.155906</ele>
        <time>2021-08-18T03:52:58.499Z</time>
      </trkpt>
      <trkpt lat="40.97744" lon="39.83193">
        <ele>22.132226</ele>
        <time>2021-08-18T03:53:23.690Z</time>
      </trkpt>
      <trkpt lat="40.97841" lon="39.8317">
        <ele>26.879764</ele>
        <time>2021-08-18T03:54:25.821Z</time>
      </trkpt>
      <trkpt lat="40.97956" lon="39.83131">
        <ele>32.677052</ele>
        <time>2021-08-18T03:55:33.693Z</time>
      </trkpt>
      <trkpt lat="40.97983" lon="39.83134">
        <ele>33.850191</ele>
        <time>2021-08-18T03:55:51.627Z</time>
      </trkpt>
      <trkpt lat="40.98031" lon="39.83115">
        <ele>35.697857</ele>
        <time>2021-08-18T03:56:23.296Z</time>
      </trkpt>
      <trkpt lat="40.98084" lon="39.83088">
        <ele>37.794561</ele>
        <time>2021-08-18T03:56:58.980Z</time>
      </trkpt>
      <trkpt lat="40.98131" lon="39.83051">
        <ele>39.781199</ele>
        <time>2021-08-18T03:57:31.613Z</time>
      </trkpt>
      <trkpt lat="40.98167" lon="39.83025">
        <ele>40.567725</ele>
        <time>2021-08-18T03:57:53.912Z</time>
      </trkpt>
      <trkpt lat="40.98176" lon="39.8301">
        <ele>40.813485</ele>
        <time>2021-08-18T03:58:01.245Z</time>
      </trkpt>
      <trkpt lat="40.98183" lon="39.82998">
        <ele>41.011346</ele>
        <time>2021-08-18T03:58:08.055Z</time>
      </trkpt>
      <trkpt lat="40.982" lon="39.82981">
        <ele>41.376568</ele>
        <time>2021-08-18T03:58:16.307Z</time>
      </trkpt>
      <trkpt lat="40.98232" lon="39.82944">
        <ele>42.099503</ele>
        <time>2021-08-18T03:58:32.711Z</time>
      </trkpt>
      <trkpt lat="40.9826" lon="39.82907">
        <ele>42.785114</ele>
        <time>2021-08-18T03:58:47.296Z</time>
      </trkpt>
      <trkpt lat="40.98312" lon="39.82824">
        <ele>43.806944</ele>
        <time>2021-08-18T03:59:16.817Z</time>
      </trkpt>
      <trkpt lat="40.98316" lon="39.82815">
        <ele>43.898367</ele>
        <time>2021-08-18T03:59:19.250Z</time>
      </trkpt>
      <trkpt lat="40.98335" lon="39.82776">
        <ele>44.310889</ele>
        <time>2021-08-18T03:59:32.173Z</time>
      </trkpt>
      <trkpt lat="40.98352" lon="39.82738">
        <ele>44.702101</ele>
        <time>2021-08-18T03:59:45.861Z</time>
      </trkpt>
      <trkpt lat="40.98362" lon="39.8271">
        <ele>44.972814</ele>
        <time>2021-08-18T03:59:54.945Z</time>
      </trkpt>
      <trkpt lat="40.98366" lon="39.82699">
        <ele>45.082734</ele>
        <time>2021-08-18T03:59:59.344Z</time>
      </trkpt>
      <trkpt lat="40.98394" lon="39.82607">
        <ele>44.924766</ele>
        <time>2021-08-18T04:00:27.819Z</time>
      </trkpt>
      <trkpt lat="40.98397" lon="39.82593">
        <ele>44.894692</ele>
        <time>2021-08-18T04:00:32.322Z</time>
      </trkpt>
      <trkpt lat="40.98403" lon="39.82563">
        <ele>44.828135</ele>
        <time>2021-08-18T04:00:40.250Z</time>
      </trkpt>
      <trkpt lat="40.98442" lon="39.82204">
        <ele>39.390105</ele>
        <time>2021-08-18T04:01:46.027Z</time>
      </trkpt>
      <trkpt lat="40.98442" lon="39.82201">
        <ele>39.301425</ele>
        <time>2021-08-18T04:01:46.521Z</time>
      </trkpt>
      <trkpt lat="40.98453" lon="39.82104">
        <ele>36.860967</ele>
        <time>2021-08-18T04:02:02.613Z</time>
      </trkpt>
      <trkpt lat="40.98462" lon="39.82015">
        <ele>34.605306</ele>
        <time>2021-08-18T04:02:17.975Z</time>
      </trkpt>
      <trkpt lat="40.98486" lon="39.81864">
        <ele>32.737366</ele>
        <time>2021-08-18T04:02:46.733Z</time>
      </trkpt>
      <trkpt lat="40.9852" lon="39.816">
        <ele>31.193577</ele>
        <time>2021-08-18T04:03:47.864Z</time>
      </trkpt>
      <trkpt lat="40.98522" lon="39.81585">
        <ele>31.146524</ele>
        <time>2021-08-18T04:03:51.234Z</time>
      </trkpt>
      <trkpt lat="40.98534" lon="39.81505">
        <ele>30.787429</ele>
        <time>2021-08-18T04:04:08.260Z</time>
      </trkpt>
      <trkpt lat="40.98536" lon="39.815">
        <ele>30.743898</ele>
        <time>2021-08-18T04:04:09.358Z</time>
      </trkpt>
      <trkpt lat="40.98537" lon="39.81495">
        <ele>30.70038</ele>
        <time>2021-08-18T04:04:10.462Z</time>
      </trkpt>
      <trkpt lat="40.98555" lon="39.81436">
        <ele>30.178226</ele>
        <time>2021-08-18T04:04:23.455Z</time>
      </trkpt>
      <trkpt lat="40.98559" lon="39.81425">
        <ele>30.074392</ele>
        <time>2021-08-18T04:04:25.811Z</time>
      </trkpt>
      <trkpt lat="40.98571" lon="39.8139">
        <ele>29.758258</ele>
        <time>2021-08-18T04:04:33.605Z</time>
      </trkpt>
      <trkpt lat="40.98629" lon="39.81226">
        <ele>29.090789</ele>
        <time>2021-08-18T04:05:09.736Z</time>
      </trkpt>
      <trkpt lat="40.9866" lon="39.81136">
        <ele>29.184747</ele>
        <time>2021-08-18T04:05:34.214Z</time>
      </trkpt>
      <trkpt lat="40.9884" lon="39.80663">
        <ele>35.812506</ele>
        <time>2021-08-18T04:08:20.956Z</time>
      </trkpt>
      <trkpt lat="40.99135" lon="39.79766">
        <ele>47.127787</ele>
        <time>2021-08-18T04:13:13.216Z</time>
      </trkpt>
      <trkpt lat="40.99157" lon="39.79687">
        <ele>48.382585</ele>
        <time>2021-08-18T04:13:39.775Z</time>
      </trkpt>
      <trkpt lat="40.99169" lon="39.79628">
        <ele>49.287242</ele>
        <time>2021-08-18T04:13:59.532Z</time>
      </trkpt>
      <trkpt lat="40.99177" lon="39.79538">
        <ele>50.453524</ele>
        <time>2021-08-18T04:14:30.545Z</time>
      </trkpt>
      <trkpt lat="40.99181" lon="39.79433">
        <ele>51.281369</ele>
        <time>2021-08-18T04:15:03.330Z</time>
      </trkpt>
      <trkpt lat="40.99178" lon="39.79336">
        <ele>52.046686</ele>
        <time>2021-08-18T04:15:27.783Z</time>
      </trkpt>
      <trkpt lat="40.99179" lon="39.79312">
        <ele>51.921765</ele>
        <time>2021-08-18T04:15:33.391Z</time>
      </trkpt>
      <trkpt lat="40.99181" lon="39.79281">
        <ele>51.462018</ele>
        <time>2021-08-18T04:15:39.622Z</time>
      </trkpt>
      <trkpt lat="40.99201" lon="39.79107">
        <ele>48.863144</ele>
        <time>2021-08-18T04:16:11.489Z</time>
      </trkpt>
      <trkpt lat="40.99254" lon="39.78789">
        <ele>43.029288</ele>
        <time>2021-08-18T04:17:08.464Z</time>
      </trkpt>
      <trkpt lat="40.99259" lon="39.78759">
        <ele>42.851469</ele>
        <time>2021-08-18T04:17:14.534Z</time>
      </trkpt>
      <trkpt lat="40.99265" lon="39.78749">
        <ele>42.777183</ele>
        <time>2021-08-18T04:17:17.341Z</time>
      </trkpt>
      <trkpt lat="40.99268" lon="39.78732">
        <ele>42.675617</ele>
        <time>2021-08-18T04:17:20.863Z</time>
      </trkpt>
      <trkpt lat="40.99266" lon="39.78721">
        <ele>42.609589</ele>
        <time>2021-08-18T04:17:23.355Z</time>
      </trkpt>
      <trkpt lat="40.99261" lon="39.78712">
        <ele>42.543921</ele>
        <time>2021-08-18T04:17:26.303Z</time>
      </trkpt>
      <trkpt lat="40.99243" lon="39.78704">
        <ele>42.398077</ele>
        <time>2021-08-18T04:17:31.786Z</time>
      </trkpt>
      <trkpt lat="40.99237" lon="39.78706">
        <ele>42.355489</ele>
        <time>2021-08-18T04:17:33.640Z</time>
      </trkpt>
      <trkpt lat="40.99234" lon="39.78709">
        <ele>42.326838</ele>
        <time>2021-08-18T04:17:34.794Z</time>
      </trkpt>
      <trkpt lat="40.99228" lon="39.78716">
        <ele>42.266324</ele>
        <time>2021-08-18T04:17:37.810Z</time>
      </trkpt>
      <trkpt lat="40.99227" lon="39.787">
        <ele>42.176519</ele>
        <time>2021-08-18T04:17:41.833Z</time>
      </trkpt>
      <trkpt lat="40.99252" lon="39.78551">
        <ele>45.079477</ele>
        <time>2021-08-18T04:18:35.273Z</time>
      </trkpt>
      <trkpt lat="40.99259" lon="39.78454">
        <ele>47.320602</ele>
        <time>2021-08-18T04:19:15.191Z</time>
      </trkpt>
      <trkpt lat="40.99259" lon="39.78442">
        <ele>47.607082</ele>
        <time>2021-08-18T04:19:21.511Z</time>
      </trkpt>
      <trkpt lat="40.99259" lon="39.78434">
        <ele>47.893953</ele>
        <time>2021-08-18T04:19:25.826Z</time>
      </trkpt>
      <trkpt lat="40.99259" lon="39.78419">
        <ele>48.393854</ele>
        <time>2021-08-18T04:19:31.257Z</time>
      </trkpt>
      <trkpt lat="40.99259" lon="39.78408">
        <ele>48.76039</ele>
        <time>2021-08-18T04:19:35.485Z</time>
      </trkpt>
      <trkpt lat="40.99259" lon="39.78404">
        <ele>48.900619</ele>
        <time>2021-08-18T04:19:37.618Z</time>
      </trkpt>
      <trkpt lat="40.99274" lon="39.78303">
        <ele>52.320707</ele>
        <time>2021-08-18T04:20:22.685Z</time>
      </trkpt>
      <trkpt lat="40.99275" lon="39.78298">
        <ele>52.493816</ele>
        <time>2021-08-18T04:20:25.477Z</time>
      </trkpt>
      <trkpt lat="40.99247" lon="39.78292">
        <ele>53.767777</ele>
        <time>2021-08-18T04:20:42.227Z</time>
      </trkpt>
      <trkpt lat="40.99237" lon="39.7829">
        <ele>54.194725</ele>
        <time>2021-08-18T04:20:49.153Z</time>
      </trkpt>
      <trkpt lat="40.99232" lon="39.78288">
        <ele>54.411702</ele>
        <time>2021-08-18T04:20:51.868Z</time>
      </trkpt>
      <trkpt lat="40.99243" lon="39.78236">
        <ele>56.081294</ele>
        <time>2021-08-18T04:21:13.279Z</time>
      </trkpt>
      <trkpt lat="40.99251" lon="39.78185">
        <ele>57.556283</ele>
        <time>2021-08-18T04:21:33.600Z</time>
      </trkpt>
      <trkpt lat="40.99207" lon="39.78168">
        <ele>59.261632</ele>
        <time>2021-08-18T04:21:57.996Z</time>
      </trkpt>
      <trkpt lat="40.99207" lon="39.78165">
        <ele>59.342007</ele>
        <time>2021-08-18T04:21:58.891Z</time>
      </trkpt>
      <trkpt lat="40.99211" lon="39.78151">
        <ele>59.770639</ele>
        <time>2021-08-18T04:22:05.698Z</time>
      </trkpt>
      <trkpt lat="40.99216" lon="39.78128">
        <ele>60.4312</ele>
        <time>2021-08-18T04:22:14.237Z</time>
      </trkpt>
      <trkpt lat="40.99223" lon="39.78101">
        <ele>61.22604</ele>
        <time>2021-08-18T04:22:24.554Z</time>
      </trkpt>
      <trkpt lat="40.99253" lon="39.7802">
        <ele>63.920523</ele>
        <time>2021-08-18T04:23:02.791Z</time>
      </trkpt>
      <trkpt lat="40.99262" lon="39.77992">
        <ele>64.85731</ele>
        <time>2021-08-18T04:23:15.978Z</time>
      </trkpt>
      <trkpt lat="40.9929" lon="39.77919">
        <ele>67.373984</ele>
        <time>2021-08-18T04:23:48.004Z</time>
      </trkpt>
      <trkpt lat="40.99263" lon="39.779">
        <ele>68.600199</ele>
        <time>2021-08-18T04:24:04.647Z</time>
      </trkpt>
      <trkpt lat="40.99238" lon="39.77882">
        <ele>69.699503</ele>
        <time>2021-08-18T04:24:21.213Z</time>
      </trkpt>
      <trkpt lat="40.99233" lon="39.77879">
        <ele>69.887486</ele>
        <time>2021-08-18T04:24:24.510Z</time>
      </trkpt>
      <trkpt lat="40.99228" lon="39.77873">
        <ele>70.121969</ele>
        <time>2021-08-18T04:24:29.052Z</time>
      </trkpt>
      <trkpt lat="40.99242" lon="39.77822">
        <ele>71.508215</ele>
        <time>2021-08-18T04:24:55.880Z</time>
      </trkpt>
      <trkpt lat="40.99241" lon="39.77814">
        <ele>71.721838</ele>
        <time>2021-08-18T04:24:58.880Z</time>
      </trkpt>
      <trkpt lat="40.99234" lon="39.77806">
        <ele>72.025574</ele>
        <time>2021-08-18T04:25:04.628Z</time>
      </trkpt>
      <trkpt lat="40.99227" lon="39.77799">
        <ele>72.327351</ele>
        <time>2021-08-18T04:25:09.635Z</time>
      </trkpt>
      <trkpt lat="40.99209" lon="39.77788">
        <ele>72.997884</ele>
        <time>2021-08-18T04:25:20.678Z</time>
      </trkpt>
      <trkpt lat="40.99177" lon="39.77772">
        <ele>74.151176</ele>
        <time>2021-08-18T04:25:36.158Z</time>
      </trkpt>
      <trkpt lat="40.99158" lon="39.77763">
        <ele>74.837735</ele>
        <time>2021-08-18T04:25:43.964Z</time>
      </trkpt>
      <trkpt lat="40.99145" lon="39.77756">
        <ele>75.320901</ele>
        <time>2021-08-18T04:25:49.277Z</time>
      </trkpt>
      <trkpt lat="40.99115" lon="39.7774">
        <ele>75.669033</ele>
        <time>2021-08-18T04:26:00.108Z</time>
      </trkpt>
      <trkpt lat="40.99124" lon="39.77715">
        <ele>75.769604</ele>
        <time>2021-08-18T04:26:05.584Z</time>
      </trkpt>
      <trkpt lat="40.99136" lon="39.77685">
        <ele>75.890194</ele>
        <time>2021-08-18T04:26:14.330Z</time>
      </trkpt>
      <trkpt lat="40.99141" lon="39.77678">
        <ele>75.928342</ele>
        <time>2021-08-18T04:26:16.458Z</time>
      </trkpt>
      <trkpt lat="40.99151" lon="39.77674">
        <ele>75.975141</ele>
        <time>2021-08-18T04:26:23.254Z</time>
      </trkpt>
      <trkpt lat="40.99158" lon="39.77666">
        <ele>76.019505</ele>
        <time>2021-08-18T04:26:29.674Z</time>
      </trkpt>
      <trkpt lat="40.99166" lon="39.77658">
        <ele>76.070476</ele>
        <time>2021-08-18T04:26:32.453Z</time>
      </trkpt>
      <trkpt lat="40.99195" lon="39.7763">
        <ele>76.242127</ele>
        <time>2021-08-18T04:26:44.912Z</time>
      </trkpt>
      <trkpt lat="40.99216" lon="39.77641">
        <ele>76.349588</ele>
        <time>2021-08-18T04:26:53.938Z</time>
      </trkpt>
      <trkpt lat="40.99228" lon="39.77655">
        <ele>76.632831</ele>
        <time>2021-08-18T04:26:58.525Z</time>
      </trkpt>
      <trkpt lat="40.99229" lon="39.77661">
        <ele>76.898101</ele>
        <time>2021-08-18T04:26:59.890Z</time>
      </trkpt>
      <trkpt lat="40.99231" lon="39.77665">
        <ele>77.086194</ele>
        <time>2021-08-18T04:27:00.816Z</time>
      </trkpt>
      <trkpt lat="40.99235" lon="39.77663">
        <ele>77.387798</ele>
        <time>2021-08-18T04:27:02.843Z</time>
      </trkpt>
      <trkpt lat="40.99243" lon="39.77658">
        <ele>77.913173</ele>
        <time>2021-08-18T04:27:06.040Z</time>
      </trkpt>
      <trkpt lat="40.99252" lon="39.77651">
        <ele>78.564116</ele>
        <time>2021-08-18T04:27:10.094Z</time>
      </trkpt>
      <trkpt lat="40.99247" lon="39.77641">
        <ele>79.13461</ele>
        <time>2021-08-18T04:27:14.277Z</time>
      </trkpt>
      <trkpt lat="40.99233" lon="39.7763">
        <ele>80.127611</ele>
        <time>2021-08-18T04:27:22.437Z</time>
      </trkpt>
      <trkpt lat="40.99226" lon="39.77623">
        <ele>80.712229</ele>
        <time>2021-08-18T04:27:27.104Z</time>
      </trkpt>
      <trkpt lat="40.99209" lon="39.77605">
        <ele>82.065571</ele>
        <time>2021-08-18T04:27:42.599Z</time>
      </trkpt>
      <trkpt lat="40.99189" lon="39.77584">
        <ele>83.603934</ele>
        <time>2021-08-18T04:28:00.624Z</time>
      </trkpt>
      <trkpt lat="40.99183" lon="39.77577">
        <ele>84.142351</ele>
        <time>2021-08-18T04:28:06.170Z</time>
      </trkpt>
      <trkpt lat="40.99173" lon="39.77567">
        <ele>84.878088</ele>
        <time>2021-08-18T04:28:15.982Z</time>
      </trkpt>
      <trkpt lat="40.99161" lon="39.77554">
        <ele>85.865894</ele>
        <time>2021-08-18T04:28:30.035Z</time>
      </trkpt>
      <trkpt lat="40.99148" lon="39.77539">
        <ele>86.899558</ele>
        <time>2021-08-18T04:28:43.959Z</time>
      </trkpt>
      <trkpt lat="40.99137" lon="39.77531">
        <ele>87.857449</ele>
        <time>2021-08-18T04:28:57.976Z</time>
      </trkpt>
      <trkpt lat="40.9913" lon="39.77516">
        <ele>89.36009</ele>
        <time>2021-08-18T04:29:10.653Z</time>
      </trkpt>
      <trkpt lat="40.99119" lon="39.77496">
        <ele>91.528396</ele>
        <time>2021-08-18T04:29:29.308Z</time>
      </trkpt>
      <trkpt lat="40.99121" lon="39.77487">
        <ele>92.299776</ele>
        <time>2021-08-18T04:29:37.788Z</time>
      </trkpt>
      <trkpt lat="40.99134" lon="39.77424">
        <ele>98.015646</ele>
        <time>2021-08-18T04:30:25.142Z</time>
      </trkpt>
      <trkpt lat="40.99136" lon="39.77414">
        <ele>98.904894</ele>
        <time>2021-08-18T04:30:33.529Z</time>
      </trkpt>
      <trkpt lat="40.99146" lon="39.77375">
        <ele>102.426684</ele>
        <time>2021-08-18T04:31:02.548Z</time>
      </trkpt>
      <trkpt lat="40.99151" lon="39.77359">
        <ele>103.920621</ele>
        <time>2021-08-18T04:31:15.374Z</time>
      </trkpt>
      <trkpt lat="40.9916" lon="39.77336">
        <ele>106.201105</ele>
        <time>2021-08-18T04:31:34.329Z</time>
      </trkpt>
      <trkpt lat="40.99182" lon="39.77304">
        <ele>109.449065</ele>
        <time>2021-08-18T04:32:04.166Z</time>
      </trkpt>
      <trkpt lat="40.99235" lon="39.77263">
        <ele>114.550705</ele>
        <time>2021-08-18T04:33:01.188Z</time>
      </trkpt>
      <trkpt lat="40.99259" lon="39.77238">
        <ele>117.157044</ele>
        <time>2021-08-18T04:33:26.980Z</time>
      </trkpt>
      <trkpt lat="40.99274" lon="39.77211">
        <ele>119.245458</ele>
        <time>2021-08-18T04:33:43.745Z</time>
      </trkpt>
      <trkpt lat="40.99281" lon="39.77187">
        <ele>120.855883</ele>
        <time>2021-08-18T04:33:57.775Z</time>
      </trkpt>
      <trkpt lat="40.99274" lon="39.77168">
        <ele>122.172511</ele>
        <time>2021-08-18T04:34:05.145Z</time>
      </trkpt>
      <trkpt lat="40.99268" lon="39.77158">
        <ele>122.958325</ele>
        <time>2021-08-18T04:34:13.568Z</time>
      </trkpt>
      <trkpt lat="40.99285" lon="39.77126">
        <ele>123.167785</ele>
        <time>2021-08-18T04:34:28.352Z</time>
      </trkpt>
      <trkpt lat="40.99335" lon="39.77033">
        <ele>122.913679</ele>
        <time>2021-08-18T04:35:03.073Z</time>
      </trkpt>
      <trkpt lat="40.9934" lon="39.77023">
        <ele>122.886259</ele>
        <time>2021-08-18T04:35:05.370Z</time>
      </trkpt>
      <trkpt lat="40.99344" lon="39.77019">
        <ele>122.869383</ele>
        <time>2021-08-18T04:35:06.476Z</time>
      </trkpt>
      <trkpt lat="40.99376" lon="39.76943">
        <ele>121.599851</ele>
        <time>2021-08-18T04:35:20.721Z</time>
      </trkpt>
      <trkpt lat="40.99382" lon="39.76924">
        <ele>120.247329</ele>
        <time>2021-08-18T04:35:23.657Z</time>
      </trkpt>
      <trkpt lat="40.99384" lon="39.76913">
        <ele>119.48316</ele>
        <time>2021-08-18T04:35:25.409Z</time>
      </trkpt>
      <trkpt lat="40.99386" lon="39.76908">
        <ele>119.130894</ele>
        <time>2021-08-18T04:35:26.251Z</time>
      </trkpt>
      <trkpt lat="40.99394" lon="39.76877">
        <ele>116.961952</ele>
        <time>2021-08-18T04:35:31.048Z</time>
      </trkpt>
      <trkpt lat="40.99412" lon="39.76813">
        <ele>112.418681</ele>
        <time>2021-08-18T04:35:41.024Z</time>
      </trkpt>
      <trkpt lat="40.99415" lon="39.76806">
        <ele>111.89439</ele>
        <time>2021-08-18T04:35:42.093Z</time>
      </trkpt>
      <trkpt lat="40.99424" lon="39.76778">
        <ele>109.866312</ele>
        <time>2021-08-18T04:35:46.462Z</time>
      </trkpt>
      <trkpt lat="40.99459" lon="39.76685">
        <ele>102.232334</ele>
        <time>2021-08-18T04:36:01.347Z</time>
      </trkpt>
      <trkpt lat="40.99464" lon="39.76674">
        <ele>101.200963</ele>
        <time>2021-08-18T04:36:03.125Z</time>
      </trkpt>
      <trkpt lat="40.99469" lon="39.7666">
        <ele>100.011227</ele>
        <time>2021-08-18T04:36:05.328Z</time>
      </trkpt>
      <trkpt lat="40.99473" lon="39.76641">
        <ele>98.401011</ele>
        <time>2021-08-18T04:36:08.340Z</time>
      </trkpt>
      <trkpt lat="40.99476" lon="39.76631">
        <ele>97.613504</ele>
        <time>2021-08-18T04:36:09.674Z</time>
      </trkpt>
      <trkpt lat="40.99498" lon="39.76563">
        <ele>91.751475</ele>
        <time>2021-08-18T04:36:20.440Z</time>
      </trkpt>
      <trkpt lat="40.99509" lon="39.76513">
        <ele>87.845246</ele>
        <time>2021-08-18T04:36:27.919Z</time>
      </trkpt>
      <trkpt lat="40.99513" lon="39.76484">
        <ele>86.308967</ele>
        <time>2021-08-18T04:36:32.220Z</time>
      </trkpt>
      <trkpt lat="40.9954" lon="39.76452">
        <ele>83.812608</ele>
        <time>2021-08-18T04:36:39.662Z</time>
      </trkpt>
      <trkpt lat="40.99551" lon="39.76437">
        <ele>82.762127</ele>
        <time>2021-08-18T04:36:42.998Z</time>
      </trkpt>
      <trkpt lat="40.99569" lon="39.76409">
        <ele>80.913975</ele>
        <time>2021-08-18T04:36:48.652Z</time>
      </trkpt>
      <trkpt lat="40.99584" lon="39.76382">
        <ele>79.193838</ele>
        <time>2021-08-18T04:36:53.820Z</time>
      </trkpt>
      <trkpt lat="40.99594" lon="39.76359">
        <ele>77.856644</ele>
        <time>2021-08-18T04:36:57.965Z</time>
      </trkpt>
      <trkpt lat="40.99603" lon="39.76336">
        <ele>76.546435</ele>
        <time>2021-08-18T04:37:01.863Z</time>
      </trkpt>
      <trkpt lat="40.99613" lon="39.76311">
        <ele>75.203709</ele>
        <time>2021-08-18T04:37:06.345Z</time>
      </trkpt>
      <trkpt lat="40.99625" lon="39.76281">
        <ele>73.67605</ele>
        <time>2021-08-18T04:37:11.836Z</time>
      </trkpt>
      <trkpt lat="40.9965" lon="39.76224">
        <ele>70.704789</ele>
        <time>2021-08-18T04:37:22.617Z</time>
      </trkpt>
      <trkpt lat="40.9967" lon="39.76178">
        <ele>68.329094</ele>
        <time>2021-08-18T04:37:30.843Z</time>
      </trkpt>
      <trkpt lat="40.99697" lon="39.76113">
        <ele>64.769865</ele>
        <time>2021-08-18T04:37:42.214Z</time>
      </trkpt>
      <trkpt lat="40.99714" lon="39.76069">
        <ele>61.078933</ele>
        <time>2021-08-18T04:37:49.381Z</time>
      </trkpt>
      <trkpt lat="40.99718" lon="39.76057">
        <ele>60.083217</ele>
        <time>2021-08-18T04:37:51.384Z</time>
      </trkpt>
      <trkpt lat="40.99722" lon="39.76044">
        <ele>59.020896</ele>
        <time>2021-08-18T04:37:53.367Z</time>
      </trkpt>
      <trkpt lat="40.99723" lon="39.76045">
        <ele>58.86671</ele>
        <time>2021-08-18T04:37:53.658Z</time>
      </trkpt>
      <trkpt lat="40.99724" lon="39.76046">
        <ele>58.710086</ele>
        <time>2021-08-18T04:37:53.953Z</time>
      </trkpt>
      <trkpt lat="40.99726" lon="39.76046">
        <ele>58.549972</ele>
        <time>2021-08-18T04:37:54.266Z</time>
      </trkpt>
      <trkpt lat="40.9973" lon="39.76039">
        <ele>57.914722</ele>
        <time>2021-08-18T04:37:55.527Z</time>
      </trkpt>
      <trkpt lat="40.9973" lon="39.76037">
        <ele>57.748445</ele>
        <time>2021-08-18T04:37:55.841Z</time>
      </trkpt>
      <trkpt lat="40.9973" lon="39.76036">
        <ele>57.628423</ele>
        <time>2021-08-18T04:37:56.090Z</time>
      </trkpt>
      <trkpt lat="40.99729" lon="39.76034">
        <ele>57.501727</ele>
        <time>2021-08-18T04:37:56.335Z</time>
      </trkpt>
      <trkpt lat="40.99728" lon="39.76033">
        <ele>57.379332</ele>
        <time>2021-08-18T04:37:56.579Z</time>
      </trkpt>
      <trkpt lat="40.99724" lon="39.76021">
        <ele>56.387388</ele>
        <time>2021-08-18T04:37:58.603Z</time>
      </trkpt>
      <trkpt lat="40.99715" lon="39.75991">
        <ele>53.915143</ele>
        <time>2021-08-18T04:38:03.477Z</time>
      </trkpt>
      <trkpt lat="40.99719" lon="39.75965">
        <ele>51.905871</ele>
        <time>2021-08-18T04:38:07.435Z</time>
      </trkpt>
      <trkpt lat="40.99721" lon="39.75937">
        <ele>49.814044</ele>
        <time>2021-08-18T04:38:11.591Z</time>
      </trkpt>
      <trkpt lat="40.99717" lon="39.75914">
        <ele>48.061986</ele>
        <time>2021-08-18T04:38:14.952Z</time>
      </trkpt>
      <trkpt lat="40.99726" lon="39.75882">
        <ele>45.086245</ele>
        <time>2021-08-18T04:38:20.035Z</time>
      </trkpt>
      <trkpt lat="40.99728" lon="39.75845">
        <ele>41.571679</ele>
        <time>2021-08-18T04:38:25.570Z</time>
      </trkpt>
      <trkpt lat="40.99728" lon="39.75815">
        <ele>38.8204</ele>
        <time>2021-08-18T04:38:29.864Z</time>
      </trkpt>
      <trkpt lat="40.99723" lon="39.75763">
        <ele>33.908253</ele>
        <time>2021-08-18T04:38:37.572Z</time>
      </trkpt>
      <trkpt lat="40.99718" lon="39.75737">
        <ele>31.402845</ele>
        <time>2021-08-18T04:38:41.449Z</time>
      </trkpt>
      <trkpt lat="40.99713" lon="39.75728">
        <ele>30.323235</ele>
        <time>2021-08-18T04:38:43.136Z</time>
      </trkpt>
      <trkpt lat="40.99697" lon="39.75712">
        <ele>27.836313</ele>
        <time>2021-08-18T04:38:47.086Z</time>
      </trkpt>
      <trkpt lat="40.99712" lon="39.75701">
        <ele>25.669898</ele>
        <time>2021-08-18T04:38:50.480Z</time>
      </trkpt>
      <trkpt lat="40.9972" lon="39.757">
        <ele>24.831299</ele>
        <time>2021-08-18T04:38:52.037Z</time>
      </trkpt>
      <trkpt lat="40.99728" lon="39.75701">
        <ele>24.215344</ele>
        <time>2021-08-18T04:38:53.625Z</time>
      </trkpt>
      <trkpt lat="40.99731" lon="39.75692">
        <ele>23.670645</ele>
        <time>2021-08-18T04:38:55.016Z</time>
      </trkpt>
      <trkpt lat="40.99766" lon="39.75603">
        <ele>17.917532</ele>
        <time>2021-08-18T04:39:15.090Z</time>
      </trkpt>
      <trkpt lat="40.99768" lon="39.75596">
        <ele>17.513485</ele>
        <time>2021-08-18T04:39:16.218Z</time>
      </trkpt>
      <trkpt lat="40.99777" lon="39.75602">
        <ele>16.707716</ele>
        <time>2021-08-18T04:39:18.570Z</time>
      </trkpt>
      <trkpt lat="40.99807" lon="39.75641">
        <ele>13.513458</ele>
        <time>2021-08-18T04:39:27.724Z</time>
      </trkpt>
      <trkpt lat="40.99831" lon="39.75647">
        <ele>11.67577</ele>
        <time>2021-08-18T04:39:33.159Z</time>
      </trkpt>
      <trkpt lat="40.99849" lon="39.75641">
        <ele>11.220844</ele>
        <time>2021-08-18T04:39:37.418Z</time>
      </trkpt>
      <trkpt lat="40.99867" lon="39.75635">
        <ele>10.97783</ele>
        <time>2021-08-18T04:39:42.031Z</time>
      </trkpt>
      <trkpt lat="40.99861" lon="39.75574">
        <ele>10.382763</ele>
        <time>2021-08-18T04:39:55.146Z</time>
      </trkpt>
      <trkpt lat="40.99855" lon="39.75521">
        <ele>9.859968</ele>
        <time>2021-08-18T04:40:08.032Z</time>
      </trkpt>
      <trkpt lat="40.99854" lon="39.75509">
        <ele>9.738163</ele>
        <time>2021-08-18T04:40:10.902Z</time>
      </trkpt>
      <trkpt lat="40.9985" lon="39.75472">
        <ele>9.380555</ele>
        <time>2021-08-18T04:40:19.637Z</time>
      </trkpt>
      <trkpt lat="40.99849" lon="39.75442">
        <ele>9.088629</ele>
        <time>2021-08-18T04:40:26.423Z</time>
      </trkpt>
      <trkpt lat="40.9984" lon="39.75412">
        <ele>9.045647</ele>
        <time>2021-08-18T04:40:34.301Z</time>
      </trkpt>
      <trkpt lat="40.99837" lon="39.75387">
        <ele>9.012204</ele>
        <time>2021-08-18T04:40:40.461Z</time>
      </trkpt>
      <trkpt lat="40.99835" lon="39.75345">
        <ele>8.956317</ele>
        <time>2021-08-18T04:40:50.378Z</time>
      </trkpt>
      <trkpt lat="40.9983" lon="39.75297">
        <ele>8.892681</ele>
        <time>2021-08-18T04:41:01.918Z</time>
      </trkpt>
      <trkpt lat="40.99846" lon="39.75268">
        <ele>8.844571</ele>
        <time>2021-08-18T04:41:10.689Z</time>
      </trkpt>
      <trkpt lat="40.99887" lon="39.75189">
        <ele>8.834083</ele>
        <time>2021-08-18T04:41:33.715Z</time>
      </trkpt>
      <trkpt lat="40.99898" lon="39.75187">
        <ele>8.855668</ele>
        <time>2021-08-18T04:41:37.239Z</time>
      </trkpt>
      <trkpt lat="40.99901" lon="39.7516">
        <ele>8.894699</ele>
        <time>2021-08-18T04:41:43.969Z</time>
      </trkpt>
      <trkpt lat="40.99902" lon="39.7511">
        <ele>8.965947</ele>
        <time>2021-08-18T04:41:56.218Z</time>
      </trkpt>
      <trkpt lat="40.99888" lon="39.75057">
        <ele>9.044309</ele>
        <time>2021-08-18T04:42:10.117Z</time>
      </trkpt>
      <trkpt lat="40.99883" lon="39.7499">
        <ele>9.358224</ele>
        <time>2021-08-18T04:42:28.754Z</time>
      </trkpt>
      <trkpt lat="40.99882" lon="39.74968">
        <ele>9.627372</ele>
        <time>2021-08-18T04:42:35.005Z</time>
      </trkpt>
      <trkpt lat="40.99883" lon="39.7493">
        <ele>10.103197</ele>
        <time>2021-08-18T04:42:46.435Z</time>
      </trkpt>
      <trkpt lat="40.99884" lon="39.74908">
        <ele>10.377872</ele>
        <time>2021-08-18T04:42:53.347Z</time>
      </trkpt>
      <trkpt lat="40.99888" lon="39.74865">
        <ele>10.902836</ele>
        <time>2021-08-18T04:43:06.765Z</time>
      </trkpt>
      <trkpt lat="40.9989" lon="39.74834">
        <ele>11.289445</ele>
        <time>2021-08-18T04:43:16.515Z</time>
      </trkpt>
      <trkpt lat="40.99866" lon="39.74821">
        <ele>11.706704</ele>
        <time>2021-08-18T04:43:28.094Z</time>
      </trkpt>
      <trkpt lat="40.99839" lon="39.74796">
        <ele>12.419976</ele>
        <time>2021-08-18T04:43:44.059Z</time>
      </trkpt>
      <trkpt lat="40.99781" lon="39.74743">
        <ele>14.512923</ele>
        <time>2021-08-18T04:44:17.405Z</time>
      </trkpt>
      <trkpt lat="40.9979" lon="39.74711">
        <ele>15.277455</ele>
        <time>2021-08-18T04:44:28.749Z</time>
      </trkpt>
      <trkpt lat="40.99781" lon="39.74705">
        <ele>15.569432</ele>
        <time>2021-08-18T04:44:33.758Z</time>
      </trkpt>
      <trkpt lat="40.99763" lon="39.74701">
        <ele>16.129608</ele>
        <time>2021-08-18T04:44:43.475Z</time>
      </trkpt>
      <trkpt lat="40.99736" lon="39.74716">
        <ele>17.006555</ele>
        <time>2021-08-18T04:44:58.492Z</time>
      </trkpt>
      <trkpt lat="40.99724" lon="39.74686">
        <ele>18.00141</ele>
        <time>2021-08-18T04:45:11.897Z</time>
      </trkpt>
      <trkpt lat="40.99725" lon="39.74674">
        <ele>18.415101</ele>
        <time>2021-08-18T04:45:16.942Z</time>
      </trkpt>
      <trkpt lat="40.9973" lon="39.74653">
        <ele>19.228526</ele>
        <time>2021-08-18T04:45:25.279Z</time>
      </trkpt>
      <trkpt lat="40.99749" lon="39.74605">
        <ele>21.178662</ele>
        <time>2021-08-18T04:45:46.484Z</time>
      </trkpt>
      <trkpt lat="40.99766" lon="39.7458">
        <ele>22.383342</ele>
        <time>2021-08-18T04:46:00.835Z</time>
      </trkpt>
      <trkpt lat="40.99809" lon="39.74528">
        <ele>25.179978</ele>
        <time>2021-08-18T04:46:33.552Z</time>
      </trkpt>
      <trkpt lat="40.99834" lon="39.74495">
        <ele>28.056907</ele>
        <time>2021-08-18T04:46:58.682Z</time>
      </trkpt>
      <trkpt lat="40.99867" lon="39.74478">
        <ele>32.016313</ele>
        <time>2021-08-18T04:47:27.545Z</time>
      </trkpt>
      <trkpt lat="40.99874" lon="39.74468">
        <ele>33.205734</ele>
        <time>2021-08-18T04:47:37.832Z</time>
      </trkpt>
      <trkpt lat="40.99904" lon="39.74434">
        <ele>37.597106</ele>
        <time>2021-08-18T04:48:15.369Z</time>
      </trkpt>
      <trkpt lat="40.99915" lon="39.74404">
        <ele>40.464519</ele>
        <time>2021-08-18T04:48:41.113Z</time>
      </trkpt>
      <trkpt lat="40.99914" lon="39.74385">
        <ele>42.108199</ele>
        <time>2021-08-18T04:48:58.087Z</time>
      </trkpt>
      <trkpt lat="40.99923" lon="39.74326">
        <ele>47.43203</ele>
        <time>2021-08-18T04:49:48.124Z</time>
      </trkpt>
      <trkpt lat="40.99925" lon="39.74272">
        <ele>52.736949</ele>
        <time>2021-08-18T04:50:34.712Z</time>
      </trkpt>
      <trkpt lat="40.99929" lon="39.74209">
        <ele>59.028636</ele>
        <time>2021-08-18T04:51:30.357Z</time>
      </trkpt>
      <trkpt lat="40.99934" lon="39.74174">
        <ele>62.514298</ele>
        <time>2021-08-18T04:52:00.454Z</time>
      </trkpt>
      <trkpt lat="40.99951" lon="39.74123">
        <ele>68.023864</ele>
        <time>2021-08-18T04:52:44.013Z</time>
      </trkpt>
      <trkpt lat="40.99952" lon="39.74105">
        <ele>69.813749</ele>
        <time>2021-08-18T04:52:56.040Z</time>
      </trkpt>
      <trkpt lat="40.99923" lon="39.73989">
        <ele>73.264997</ele>
        <time>2021-08-18T04:53:57.065Z</time>
      </trkpt>
      <trkpt lat="40.99934" lon="39.73943">
        <ele>74.55169</ele>
        <time>2021-08-18T04:54:10.834Z</time>
      </trkpt>
      <trkpt lat="40.99943" lon="39.73918">
        <ele>75.29119</ele>
        <time>2021-08-18T04:54:17.364Z</time>
      </trkpt>
      <trkpt lat="40.99944" lon="39.73903">
        <ele>75.706102</ele>
        <time>2021-08-18T04:54:20.839Z</time>
      </trkpt>
      <trkpt lat="40.99951" lon="39.73859">
        <ele>75.862294</ele>
        <time>2021-08-18T04:54:29.582Z</time>
      </trkpt>
      <trkpt lat="40.99954" lon="39.73849">
        <ele>75.5224</ele>
        <time>2021-08-18T04:54:31.341Z</time>
      </trkpt>
      <trkpt lat="40.99958" lon="39.73832">
        <ele>74.972356</ele>
        <time>2021-08-18T04:54:34.437Z</time>
      </trkpt>
      <trkpt lat="40.99964" lon="39.73793">
        <ele>73.73019</ele>
        <time>2021-08-18T04:54:40.909Z</time>
      </trkpt>
      <trkpt lat="40.99963" lon="39.73721">
        <ele>71.476402</ele>
        <time>2021-08-18T04:54:52.385Z</time>
      </trkpt>
      <trkpt lat="40.99971" lon="39.7368">
        <ele>70.18334</ele>
        <time>2021-08-18T04:54:58.959Z</time>
      </trkpt>
      <trkpt lat="40.99974" lon="39.73661">
        <ele>69.559921</ele>
        <time>2021-08-18T04:55:02.025Z</time>
      </trkpt>
      <trkpt lat="40.99982" lon="39.73591">
        <ele>68.194142</ele>
        <time>2021-08-18T04:55:13.697Z</time>
      </trkpt>
      <trkpt lat="40.99987" lon="39.73561">
        <ele>67.724748</ele>
        <time>2021-08-18T04:55:18.875Z</time>
      </trkpt>
      <trkpt lat="40.99994" lon="39.73532">
        <ele>67.261039</ele>
        <time>2021-08-18T04:55:24.225Z</time>
      </trkpt>
      <trkpt lat="40.99999" lon="39.73514">
        <ele>66.964927</ele>
        <time>2021-08-18T04:55:27.455Z</time>
      </trkpt>
      <trkpt lat="41.00002" lon="39.73506">
        <ele>66.825381</ele>
        <time>2021-08-18T04:55:29.021Z</time>
      </trkpt>
      <trkpt lat="41.00008" lon="39.73486">
        <ele>66.492893</ele>
        <time>2021-08-18T04:55:32.869Z</time>
      </trkpt>
      <trkpt lat="41.00011" lon="39.73473">
        <ele>66.293603</ele>
        <time>2021-08-18T04:55:35.241Z</time>
      </trkpt>
      <trkpt lat="41.00021" lon="39.73429">
        <ele>65.595355</ele>
        <time>2021-08-18T04:55:45.717Z</time>
      </trkpt>
      <trkpt lat="41.00026" lon="39.73395">
        <ele>66.246755</ele>
        <time>2021-08-18T04:55:58.687Z</time>
      </trkpt>
      <trkpt lat="41.0003" lon="39.73373">
        <ele>67.263502</ele>
        <time>2021-08-18T04:56:07.833Z</time>
      </trkpt>
      <trkpt lat="41.00031" lon="39.73369">
        <ele>67.443609</ele>
        <time>2021-08-18T04:56:09.472Z</time>
      </trkpt>
      <trkpt lat="41.00035" lon="39.73339">
        <ele>68.858692</ele>
        <time>2021-08-18T04:56:23.445Z</time>
      </trkpt>
      <trkpt lat="41.00038" lon="39.73325">
        <ele>69.528495</ele>
        <time>2021-08-18T04:56:29.926Z</time>
      </trkpt>
      <trkpt lat="41.00041" lon="39.73317">
        <ele>69.964535</ele>
        <time>2021-08-18T04:56:34.406Z</time>
      </trkpt>
      <trkpt lat="41.00045" lon="39.73313">
        <ele>70.22931</ele>
        <time>2021-08-18T04:56:36.628Z</time>
      </trkpt>
      <trkpt lat="41.00042" lon="39.73307">
        <ele>70.569334</ele>
        <time>2021-08-18T04:56:40.572Z</time>
      </trkpt>
      <trkpt lat="41.00042" lon="39.733">
        <ele>70.891878</ele>
        <time>2021-08-18T04:56:44.200Z</time>
      </trkpt>
      <trkpt lat="41.00043" lon="39.73277">
        <ele>71.919834</ele>
        <time>2021-08-18T04:56:57.845Z</time>
      </trkpt>
      <trkpt lat="41.00042" lon="39.73246">
        <ele>73.347272</ele>
        <time>2021-08-18T04:57:16.462Z</time>
      </trkpt>
      <trkpt lat="41.00041" lon="39.73199">
        <ele>75.523056</ele>
        <time>2021-08-18T04:57:44.146Z</time>
      </trkpt>
      <trkpt lat="41.00048" lon="39.731">
        <ele>80.830592</ele>
        <time>2021-08-18T04:58:42.927Z</time>
      </trkpt>
      <trkpt lat="41.00044" lon="39.73077">
        <ele>82.094603</ele>
        <time>2021-08-18T04:58:58.972Z</time>
      </trkpt>
      <trkpt lat="41.00044" lon="39.73071">
        <ele>82.411336</ele>
        <time>2021-08-18T04:59:02.804Z</time>
      </trkpt>
      <trkpt lat="41.0005" lon="39.73062">
        <ele>83.071922</ele>
        <time>2021-08-18T04:59:09.109Z</time>
      </trkpt>
      <trkpt lat="41.00059" lon="39.73056">
        <ele>83.812329</ele>
        <time>2021-08-18T04:59:17.314Z</time>
      </trkpt>
      <trkpt lat="41.00068" lon="39.73052">
        <ele>84.511263</ele>
        <time>2021-08-18T04:59:25.037Z</time>
      </trkpt>
      <trkpt lat="41.00087" lon="39.73036">
        <ele>86.149259</ele>
        <time>2021-08-18T04:59:41.222Z</time>
      </trkpt>
      <trkpt lat="41.00092" lon="39.73029">
        <ele>86.682111</ele>
        <time>2021-08-18T04:59:45.960Z</time>
      </trkpt>
      <trkpt lat="41.00096" lon="39.7301">
        <ele>87.759152</ele>
        <time>2021-08-18T04:59:55.794Z</time>
      </trkpt>
      <trkpt lat="41.00103" lon="39.72988">
        <ele>89.050075</ele>
        <time>2021-08-18T05:00:04.822Z</time>
      </trkpt>
      <trkpt lat="41.00109" lon="39.72992">
        <ele>89.364306</ele>
        <time>2021-08-18T05:00:07.379Z</time>
      </trkpt>
      <trkpt lat="41.00113" lon="39.72976">
        <ele>89.515063</ele>
        <time>2021-08-18T05:00:15.691Z</time>
      </trkpt>
      <trkpt lat="41.00119" lon="39.72936">
        <ele>89.874465</ele>
        <time>2021-08-18T05:00:30.529Z</time>
      </trkpt>
      <trkpt lat="41.00121" lon="39.72912">
        <ele>90.097605</ele>
        <time>2021-08-18T05:00:37.854Z</time>
      </trkpt>
      <trkpt lat="41.00123" lon="39.72866">
        <ele>90.507974</ele>
        <time>2021-08-18T05:00:48.067Z</time>
      </trkpt>
      <trkpt lat="41.00123" lon="39.72848">
        <ele>90.664668</ele>
        <time>2021-08-18T05:00:51.536Z</time>
      </trkpt>
      <trkpt lat="41.00125" lon="39.72833">
        <ele>90.805195</ele>
        <time>2021-08-18T05:00:57.060Z</time>
      </trkpt>
      <trkpt lat="41.00148" lon="39.72832">
        <ele>91.080493</ele>
        <time>2021-08-18T05:01:03.910Z</time>
      </trkpt>
      <trkpt lat="41.00145" lon="39.72788">
        <ele>91.454238</ele>
        <time>2021-08-18T05:01:16.278Z</time>
      </trkpt>
      <trkpt lat="41.00144" lon="39.72771">
        <ele>91.117332</ele>
        <time>2021-08-18T05:01:20.708Z</time>
      </trkpt>
      <trkpt lat="41.00135" lon="39.72722">
        <ele>90.135284</ele>
        <time>2021-08-18T05:01:32.290Z</time>
      </trkpt>
      <trkpt lat="41.0014" lon="39.72717">
        <ele>89.98179</ele>
        <time>2021-08-18T05:01:33.739Z</time>
      </trkpt>
      <trkpt lat="41.00122" lon="39.72671">
        <ele>88.950164</ele>
        <time>2021-08-18T05:01:43.732Z</time>
      </trkpt>
      <trkpt lat="41.00119" lon="39.72667">
        <ele>88.829678</ele>
        <time>2021-08-18T05:01:44.871Z</time>
      </trkpt>
      <trkpt lat="41.00115" lon="39.72666">
        <ele>88.740699</ele>
        <time>2021-08-18T05:01:45.788Z</time>
      </trkpt>
      <trkpt lat="41.00102" lon="39.72629">
        <ele>87.941744</ele>
        <time>2021-08-18T05:01:53.059Z</time>
      </trkpt>
      <trkpt lat="41.0008" lon="39.72591">
        <ele>87.002671</ele>
        <time>2021-08-18T05:02:01.258Z</time>
      </trkpt>
      <trkpt lat="41.00067" lon="39.72549">
        <ele>84.560195</ele>
        <time>2021-08-18T05:02:08.782Z</time>
      </trkpt>
      <trkpt lat="41.00056" lon="39.72494">
        <ele>80.905004</ele>
        <time>2021-08-18T05:02:17.841Z</time>
      </trkpt>
      <trkpt lat="41.00068" lon="39.72487">
        <ele>79.817947</ele>
        <time>2021-08-18T05:02:20.317Z</time>
      </trkpt>
      <trkpt lat="41.00091" lon="39.72476">
        <ele>77.70296</ele>
        <time>2021-08-18T05:02:25.098Z</time>
      </trkpt>
      <trkpt lat="41.00116" lon="39.72456">
        <ele>75.244302</ele>
        <time>2021-08-18T05:02:30.605Z</time>
      </trkpt>
      <trkpt lat="41.00111" lon="39.72414">
        <ele>72.534768</ele>
        <time>2021-08-18T05:02:36.956Z</time>
      </trkpt>
      <trkpt lat="41.00123" lon="39.72405">
        <ele>71.357684</ele>
        <time>2021-08-18T05:02:39.607Z</time>
      </trkpt>
      <trkpt lat="41.00149" lon="39.72373">
        <ele>67.784637</ele>
        <time>2021-08-18T05:02:46.632Z</time>
      </trkpt>
      <trkpt lat="41.00159" lon="39.72357">
        <ele>66.24627</ele>
        <time>2021-08-18T05:02:49.640Z</time>
      </trkpt>
      <trkpt lat="41.00181" lon="39.72353">
        <ele>63.961108</ele>
        <time>2021-08-18T05:02:54.127Z</time>
      </trkpt>
      <trkpt lat="41.00213" lon="39.72344">
        <ele>60.730431</ele>
        <time>2021-08-18T05:03:00.497Z</time>
      </trkpt>
      <trkpt lat="41.00246" lon="39.72347">
        <ele>57.403237</ele>
        <time>2021-08-18T05:03:07.178Z</time>
      </trkpt>
      <trkpt lat="41.00263" lon="39.72351">
        <ele>55.734786</ele>
        <time>2021-08-18T05:03:10.548Z</time>
      </trkpt>
      <trkpt lat="41.00269" lon="39.72339">
        <ele>54.689427</ele>
        <time>2021-08-18T05:03:12.863Z</time>
      </trkpt>
      <trkpt lat="41.00305" lon="39.72311">
        <ele>52.128471</ele>
        <time>2021-08-18T05:03:21.744Z</time>
      </trkpt>
      <trkpt lat="41.00308" lon="39.72308">
        <ele>51.97916</ele>
        <time>2021-08-18T05:03:22.392Z</time>
      </trkpt>
      <trkpt lat="41.00317" lon="39.72304">
        <ele>51.512905</ele>
        <time>2021-08-18T05:03:24.569Z</time>
      </trkpt>
      <trkpt lat="41.00322" lon="39.72306">
        <ele>51.282724</ele>
        <time>2021-08-18T05:03:25.581Z</time>
      </trkpt>
      <trkpt lat="41.00323" lon="39.72278">
        <ele>50.311002</ele>
        <time>2021-08-18T05:03:30.199Z</time>
      </trkpt>
      <trkpt lat="41.00318" lon="39.72272">
        <ele>49.970089</ele>
        <time>2021-08-18T05:03:31.832Z</time>
      </trkpt>
      <trkpt lat="41.00315" lon="39.72262">
        <ele>49.617837</ele>
        <time>2021-08-18T05:03:33.423Z</time>
      </trkpt>
      <trkpt lat="41.00318" lon="39.72224">
        <ele>48.246878</ele>
        <time>2021-08-18T05:03:40.026Z</time>
      </trkpt>
      <trkpt lat="41.00315" lon="39.72221">
        <ele>48.064339</ele>
        <time>2021-08-18T05:03:40.822Z</time>
      </trkpt>
      <trkpt lat="41.00295" lon="39.72215">
        <ele>47.12627</ele>
        <time>2021-08-18T05:03:45.920Z</time>
      </trkpt>
      <trkpt lat="41.00293" lon="39.72205">
        <ele>46.750164</ele>
        <time>2021-08-18T05:03:47.660Z</time>
      </trkpt>
      <trkpt lat="41.00291" lon="39.72189">
        <ele>46.175404</ele>
        <time>2021-08-18T05:03:50.383Z</time>
      </trkpt>
      <trkpt lat="41.00287" lon="39.72129">
        <ele>45.071244</ele>
        <time>2021-08-18T05:04:04.723Z</time>
      </trkpt>
      <trkpt lat="41.0029" lon="39.72075">
        <ele>44.835012</ele>
        <time>2021-08-18T05:04:18.616Z</time>
      </trkpt>
      <trkpt lat="41.00293" lon="39.72049">
        <ele>44.724475</ele>
        <time>2021-08-18T05:04:23.277Z</time>
      </trkpt>
      <trkpt lat="41.00296" lon="39.72029">
        <ele>44.635691</ele>
        <time>2021-08-18T05:04:29.973Z</time>
      </trkpt>
      <trkpt lat="41.00301" lon="39.72001">
        <ele>44.511333</ele>
        <time>2021-08-18T05:04:35.205Z</time>
      </trkpt>
      <trkpt lat="41.00306" lon="39.71982">
        <ele>44.423146</ele>
        <time>2021-08-18T05:04:40.537Z</time>
      </trkpt>
      <trkpt lat="41.00309" lon="39.71971">
        <ele>44.371949</ele>
        <time>2021-08-18T05:04:42.843Z</time>
      </trkpt>
      <trkpt lat="41.00313" lon="39.7194">
        <ele>44.237595</ele>
        <time>2021-08-18T05:04:49.068Z</time>
      </trkpt>
      <trkpt lat="41.00314" lon="39.71908">
        <ele>44.469702</ele>
        <time>2021-08-18T05:04:55.105Z</time>
      </trkpt>
      <trkpt lat="41.00313" lon="39.719">
        <ele>44.599345</ele>
        <time>2021-08-18T05:04:57.156Z</time>
      </trkpt>
      <trkpt lat="41.0031" lon="39.71884">
        <ele>44.8412</ele>
        <time>2021-08-18T05:05:02.044Z</time>
      </trkpt>
      <trkpt lat="41.00276" lon="39.71762">
        <ele>46.821699</ele>
        <time>2021-08-18T05:05:46.334Z</time>
      </trkpt>
      <trkpt lat="41.00273" lon="39.71726">
        <ele>47.365983</ele>
        <time>2021-08-18T05:05:58.949Z</time>
      </trkpt>
      <trkpt lat="41.00275" lon="39.71707">
        <ele>47.667988</ele>
        <time>2021-08-18T05:06:05.242Z</time>
      </trkpt>
      <trkpt lat="41.0028" lon="39.71687">
        <ele>48.300455</ele>
        <time>2021-08-18T05:06:13.914Z</time>
      </trkpt>
      <trkpt lat="41.00289" lon="39.71655">
        <ele>49.692282</ele>
        <time>2021-08-18T05:06:27.511Z</time>
      </trkpt>
      <trkpt lat="41.00304" lon="39.71619">
        <ele>51.375487</ele>
        <time>2021-08-18T05:06:44.936Z</time>
      </trkpt>
      <trkpt lat="41.0033" lon="39.71562">
        <ele>54.117092</ele>
        <time>2021-08-18T05:07:17.830Z</time>
      </trkpt>
      <trkpt lat="41.00352" lon="39.7151">
        <ele>56.593716</ele>
        <time>2021-08-18T05:07:51.429Z</time>
      </trkpt>
      <trkpt lat="41.00374" lon="39.71458">
        <ele>58.834718</ele>
        <time>2021-08-18T05:08:21.110Z</time>
      </trkpt>
      <trkpt lat="41.00405" lon="39.71375">
        <ele>62.093173</ele>
        <time>2021-08-18T05:09:01.759Z</time>
      </trkpt>
      <trkpt lat="41.00413" lon="39.71339">
        <ele>63.410473</ele>
        <time>2021-08-18T05:09:17.788Z</time>
      </trkpt>
      <trkpt lat="41.00419" lon="39.71285">
        <ele>65.315025</ele>
        <time>2021-08-18T05:09:37.957Z</time>
      </trkpt>
      <trkpt lat="41.00415" lon="39.71219">
        <ele>67.076733</ele>
        <time>2021-08-18T05:10:02.715Z</time>
      </trkpt>
      <trkpt lat="41.00413" lon="39.71203">
        <ele>67.459435</ele>
        <time>2021-08-18T05:10:09.331Z</time>
      </trkpt>
      <trkpt lat="41.00408" lon="39.71185">
        <ele>67.908525</ele>
        <time>2021-08-18T05:10:17.068Z</time>
      </trkpt>
      <trkpt lat="41.00406" lon="39.71179">
        <ele>68.075691</ele>
        <time>2021-08-18T05:10:19.277Z</time>
      </trkpt>
      <trkpt lat="41.00402" lon="39.71166">
        <ele>68.393661</ele>
        <time>2021-08-18T05:10:24.152Z</time>
      </trkpt>
      <trkpt lat="41.00395" lon="39.71145">
        <ele>68.928476</ele>
        <time>2021-08-18T05:10:33.426Z</time>
      </trkpt>
      <trkpt lat="41.00373" lon="39.71103">
        <ele>70.123266</ele>
        <time>2021-08-18T05:10:51.214Z</time>
      </trkpt>
      <trkpt lat="41.00362" lon="39.71085">
        <ele>70.665797</ele>
        <time>2021-08-18T05:10:58.687Z</time>
      </trkpt>
      <trkpt lat="41.00356" lon="39.71077">
        <ele>70.921546</ele>
        <time>2021-08-18T05:11:02.464Z</time>
      </trkpt>
      <trkpt lat="41.00351" lon="39.7107">
        <ele>71.145457</ele>
        <time>2021-08-18T05:11:06.964Z</time>
      </trkpt>
      <trkpt lat="41.0022" lon="39.70873">
        <ele>75.655765</ele>
        <time>2021-08-18T05:12:36.768Z</time>
      </trkpt>
      <trkpt lat="41.00193" lon="39.70831">
        <ele>75.300117</ele>
        <time>2021-08-18T05:12:51.105Z</time>
      </trkpt>
      <trkpt lat="41.00184" lon="39.70817">
        <ele>75.183466</ele>
        <time>2021-08-18T05:12:55.128Z</time>
      </trkpt>
      <trkpt lat="41.00179" lon="39.7081">
        <ele>75.123853</ele>
        <time>2021-08-18T05:12:56.975Z</time>
      </trkpt>
      <trkpt lat="41.00153" lon="39.70759">
        <ele>74.729358</ele>
        <time>2021-08-18T05:13:09.459Z</time>
      </trkpt>
      <trkpt lat="41.00137" lon="39.70724">
        <ele>74.468127</ele>
        <time>2021-08-18T05:13:16.917Z</time>
      </trkpt>
      <trkpt lat="41.00115" lon="39.70667">
        <ele>73.851279</ele>
        <time>2021-08-18T05:13:28.484Z</time>
      </trkpt>
      <trkpt lat="41.00104" lon="39.70631">
        <ele>73.188145</ele>
        <time>2021-08-18T05:13:35.047Z</time>
      </trkpt>
      <trkpt lat="41.00081" lon="39.7055">
        <ele>71.678915</ele>
        <time>2021-08-18T05:13:50.165Z</time>
      </trkpt>
      <trkpt lat="41.0005" lon="39.70432">
        <ele>69.828508</ele>
        <time>2021-08-18T05:14:14.183Z</time>
      </trkpt>
      <trkpt lat="41.00035" lon="39.7036">
        <ele>69.32873</ele>
        <time>2021-08-18T05:14:30.837Z</time>
      </trkpt>
      <trkpt lat="41.00032" lon="39.70344">
        <ele>69.21475</ele>
        <time>2021-08-18T05:14:35.017Z</time>
      </trkpt>
      <trkpt lat="41.00025" lon="39.70321">
        <ele>69.05125</ele>
        <time>2021-08-18T05:14:40.926Z</time>
      </trkpt>
      <trkpt lat="41.00019" lon="39.70307">
        <ele>68.940356</ele>
        <time>2021-08-18T05:14:45.201Z</time>
      </trkpt>
      <trkpt lat="40.99994" lon="39.70248">
        <ele>68.487431</ele>
        <time>2021-08-18T05:14:58.630Z</time>
      </trkpt>
      <trkpt lat="40.99977" lon="39.70195">
        <ele>67.524837</ele>
        <time>2021-08-18T05:15:09.256Z</time>
      </trkpt>
      <trkpt lat="40.99961" lon="39.70138">
        <ele>66.410581</ele>
        <time>2021-08-18T05:15:20.294Z</time>
      </trkpt>
      <trkpt lat="40.99959" lon="39.7013">
        <ele>66.26551</ele>
        <time>2021-08-18T05:15:21.738Z</time>
      </trkpt>
      <trkpt lat="40.99951" lon="39.70102">
        <ele>65.709253</ele>
        <time>2021-08-18T05:15:26.848Z</time>
      </trkpt>
      <trkpt lat="40.99932" lon="39.70028">
        <ele>64.273012</ele>
        <time>2021-08-18T05:15:40.685Z</time>
      </trkpt>
      <trkpt lat="40.99929" lon="39.70016">
        <ele>64.05453</ele>
        <time>2021-08-18T05:15:42.771Z</time>
      </trkpt>
      <trkpt lat="40.9992" lon="39.69974">
        <ele>63.757215</ele>
        <time>2021-08-18T05:15:50.836Z</time>
      </trkpt>
      <trkpt lat="40.99915" lon="39.69953">
        <ele>63.614697</ele>
        <time>2021-08-18T05:15:55.201Z</time>
      </trkpt>
      <trkpt lat="40.99916" lon="39.69951">
        <ele>63.594334</ele>
        <time>2021-08-18T05:15:55.743Z</time>
      </trkpt>
      <trkpt lat="40.99918" lon="39.69944">
        <ele>63.549168</ele>
        <time>2021-08-18T05:15:56.895Z</time>
      </trkpt>
      <trkpt lat="40.99917" lon="39.69938">
        <ele>63.50475</ele>
        <time>2021-08-18T05:15:58.065Z</time>
      </trkpt>
      <trkpt lat="40.99915" lon="39.69932">
        <ele>63.459966</ele>
        <time>2021-08-18T05:15:59.189Z</time>
      </trkpt>
      <trkpt lat="40.9991" lon="39.69927">
        <ele>63.408128</ele>
        <time>2021-08-18T05:16:00.586Z</time>
      </trkpt>
      <trkpt lat="40.99903" lon="39.69904">
        <ele>63.240178</ele>
        <time>2021-08-18T05:16:05.865Z</time>
      </trkpt>
      <trkpt lat="40.99901" lon="39.69899">
        <ele>63.207036</ele>
        <time>2021-08-18T05:16:06.883Z</time>
      </trkpt>
      <trkpt lat="40.99896" lon="39.6988">
        <ele>63.073253</ele>
        <time>2021-08-18T05:16:10.957Z</time>
      </trkpt>
      <trkpt lat="40.99893" lon="39.6987">
        <ele>62.99761</ele>
        <time>2021-08-18T05:16:14.457Z</time>
      </trkpt>
      <trkpt lat="40.99877" lon="39.69779">
        <ele>62.412774</ele>
        <time>2021-08-18T05:16:39.352Z</time>
      </trkpt>
      <trkpt lat="40.99875" lon="39.69716">
        <ele>62.171814</ele>
        <time>2021-08-18T05:16:56.629Z</time>
      </trkpt>
      <trkpt lat="40.99878" lon="39.69654">
        <ele>61.932756</ele>
        <time>2021-08-18T05:17:11.726Z</time>
      </trkpt>
      <trkpt lat="40.99879" lon="39.69597">
        <ele>61.711261</ele>
        <time>2021-08-18T05:17:22.890Z</time>
      </trkpt>
      <trkpt lat="40.99879" lon="39.69572">
        <ele>61.615565</ele>
        <time>2021-08-18T05:17:27.331Z</time>
      </trkpt>
      <trkpt lat="40.9988" lon="39.6952">
        <ele>60.92449</ele>
        <time>2021-08-18T05:17:36.836Z</time>
      </trkpt>
      <trkpt lat="40.99881" lon="39.69445">
        <ele>59.544282</ele>
        <time>2021-08-18T05:17:50.260Z</time>
      </trkpt>
      <trkpt lat="40.99881" lon="39.69432">
        <ele>59.301932</ele>
        <time>2021-08-18T05:17:52.384Z</time>
      </trkpt>
      <trkpt lat="40.9986" lon="39.69267">
        <ele>56.691639</ele>
        <time>2021-08-18T05:18:23.052Z</time>
      </trkpt>
      <trkpt lat="40.99857" lon="39.69251">
        <ele>56.536194</ele>
        <time>2021-08-18T05:18:25.978Z</time>
      </trkpt>
      <trkpt lat="40.99856" lon="39.69244">
        <ele>56.467256</ele>
        <time>2021-08-18T05:18:27.304Z</time>
      </trkpt>
      <trkpt lat="40.99854" lon="39.69236">
        <ele>56.384337</ele>
        <time>2021-08-18T05:18:29.078Z</time>
      </trkpt>
      <trkpt lat="40.99851" lon="39.69228">
        <ele>56.293231</ele>
        <time>2021-08-18T05:18:31.078Z</time>
      </trkpt>
      <trkpt lat="40.99844" lon="39.69211">
        <ele>56.11555</ele>
        <time>2021-08-18T05:18:34.784Z</time>
      </trkpt>
      <trkpt lat="40.99842" lon="39.69203">
        <ele>56.036197</ele>
        <time>2021-08-18T05:18:36.696Z</time>
      </trkpt>
      <trkpt lat="40.9983" lon="39.69176">
        <ele>55.732655</ele>
        <time>2021-08-18T05:18:43.216Z</time>
      </trkpt>
      <trkpt lat="40.99806" lon="39.69116">
        <ele>55.088918</ele>
        <time>2021-08-18T05:18:57.160Z</time>
      </trkpt>
      <trkpt lat="40.99744" lon="39.68946">
        <ele>54.01714</ele>
        <time>2021-08-18T05:19:40.122Z</time>
      </trkpt>
      <trkpt lat="40.9971" lon="39.6886">
        <ele>53.144171</ele>
        <time>2021-08-18T05:19:59.181Z</time>
      </trkpt>
      <trkpt lat="40.9969" lon="39.68798">
        <ele>51.938769</ele>
        <time>2021-08-18T05:20:11.373Z</time>
      </trkpt>
      <trkpt lat="40.99682" lon="39.68762">
        <ele>51.283287</ele>
        <time>2021-08-18T05:20:17.951Z</time>
      </trkpt>
      <trkpt lat="40.99677" lon="39.68731">
        <ele>50.712363</ele>
        <time>2021-08-18T05:20:23.422Z</time>
      </trkpt>
      <trkpt lat="40.99671" lon="39.68674">
        <ele>49.692342</ele>
        <time>2021-08-18T05:20:33.401Z</time>
      </trkpt>
      <trkpt lat="40.99669" lon="39.68605">
        <ele>49.233908</ele>
        <time>2021-08-18T05:20:46.343Z</time>
      </trkpt>
      <trkpt lat="40.99672" lon="39.68497">
        <ele>48.868259</ele>
        <time>2021-08-18T05:21:08.166Z</time>
      </trkpt>
      <trkpt lat="40.99673" lon="39.68437">
        <ele>48.66642</ele>
        <time>2021-08-18T05:21:24.075Z</time>
      </trkpt>
      <trkpt lat="40.99673" lon="39.68423">
        <ele>48.618246</ele>
        <time>2021-08-18T05:21:27.517Z</time>
      </trkpt>
      <trkpt lat="40.99674" lon="39.68381">
        <ele>49.338414</ele>
        <time>2021-08-18T05:21:44.303Z</time>
      </trkpt>
      <trkpt lat="40.99675" lon="39.68289">
        <ele>51.055901</ele>
        <time>2021-08-18T05:22:21.351Z</time>
      </trkpt>
      <trkpt lat="40.99675" lon="39.68282">
        <ele>51.174574</ele>
        <time>2021-08-18T05:22:22.939Z</time>
      </trkpt>
      <trkpt lat="40.99665" lon="39.68282">
        <ele>51.425193</ele>
        <time>2021-08-18T05:22:27.362Z</time>
      </trkpt>
      <trkpt lat="40.99652" lon="39.68285">
        <ele>51.748476</ele>
        <time>2021-08-18T05:22:36.532Z</time>
      </trkpt>
      <trkpt lat="40.99628" lon="39.68284">
        <ele>52.326181</ele>
        <time>2021-08-18T05:22:44.275Z</time>
      </trkpt>
      <trkpt lat="40.99615" lon="39.68282">
        <ele>52.664411</ele>
        <time>2021-08-18T05:22:53.260Z</time>
      </trkpt>
      <trkpt lat="40.99607" lon="39.6826">
        <ele>53.006956</ele>
        <time>2021-08-18T05:22:57.518Z</time>
      </trkpt>
      <trkpt lat="40.99601" lon="39.68234">
        <ele>52.861338</ele>
        <time>2021-08-18T05:23:05.661Z</time>
      </trkpt>
      <trkpt lat="40.99587" lon="39.68188">
        <ele>52.606835</ele>
        <time>2021-08-18T05:23:16.087Z</time>
      </trkpt>
      <trkpt lat="40.99582" lon="39.68173">
        <ele>52.515263</ele>
        <time>2021-08-18T05:23:19.087Z</time>
      </trkpt>
      <trkpt lat="40.99579" lon="39.68163">
        <ele>52.461644</ele>
        <time>2021-08-18T05:23:22.099Z</time>
      </trkpt>
      <trkpt lat="40.99569" lon="39.68136">
        <ele>52.303938</ele>
        <time>2021-08-18T05:23:30.574Z</time>
      </trkpt>
      <trkpt lat="40.99561" lon="39.68117">
        <ele>52.187292</ele>
        <time>2021-08-18T05:23:34.978Z</time>
      </trkpt>
      <trkpt lat="40.99559" lon="39.68106">
        <ele>52.131827</ele>
        <time>2021-08-18T05:23:38.837Z</time>
      </trkpt>
      <trkpt lat="40.99616" lon="39.68107">
        <ele>51.602947</ele>
        <time>2021-08-18T05:23:52.676Z</time>
      </trkpt>
      <trkpt lat="40.99609" lon="39.6803">
        <ele>49.959871</ele>
        <time>2021-08-18T05:24:07.397Z</time>
      </trkpt>
      <trkpt lat="40.99605" lon="39.67992">
        <ele>49.150595</ele>
        <time>2021-08-18T05:24:14.495Z</time>
      </trkpt>
      <trkpt lat="40.99597" lon="39.67956">
        <ele>48.359842</ele>
        <time>2021-08-18T05:24:21.012Z</time>
      </trkpt>
      <trkpt lat="40.99567" lon="39.67836">
        <ele>45.713462</ele>
        <time>2021-08-18T05:24:44.587Z</time>
      </trkpt>
      <trkpt lat="40.99556" lon="39.67771">
        <ele>44.366496</ele>
        <time>2021-08-18T05:24:56.581Z</time>
      </trkpt>
      <trkpt lat="40.99558" lon="39.67722">
        <ele>43.362633</ele>
        <time>2021-08-18T05:25:05.615Z</time>
      </trkpt>
      <trkpt lat="40.99567" lon="39.67689">
        <ele>42.633162</ele>
        <time>2021-08-18T05:25:12.197Z</time>
      </trkpt>
      <trkpt lat="40.99537" lon="39.67583">
        <ele>40.243766</ele>
        <time>2021-08-18T05:25:34.292Z</time>
      </trkpt>
      <trkpt lat="40.99531" lon="39.67563">
        <ele>39.770837</ele>
        <time>2021-08-18T05:25:38.464Z</time>
      </trkpt>
      <trkpt lat="40.99526" lon="39.67551">
        <ele>39.483252</ele>
        <time>2021-08-18T05:25:40.957Z</time>
      </trkpt>
      <trkpt lat="40.99523" lon="39.67546">
        <ele>39.343593</ele>
        <time>2021-08-18T05:25:42.265Z</time>
      </trkpt>
      <trkpt lat="40.99517" lon="39.67532">
        <ele>38.996295</ele>
        <time>2021-08-18T05:25:45.185Z</time>
      </trkpt>
      <trkpt lat="40.9949" lon="39.67467">
        <ele>37.397137</ele>
        <time>2021-08-18T05:25:58.303Z</time>
      </trkpt>
      <trkpt lat="40.99466" lon="39.67403">
        <ele>35.135958</ele>
        <time>2021-08-18T05:26:11.813Z</time>
      </trkpt>
      <trkpt lat="40.99497" lon="39.67382">
        <ele>33.31156</ele>
        <time>2021-08-18T05:26:19.278Z</time>
      </trkpt>
      <trkpt lat="40.99509" lon="39.67376">
        <ele>32.654553</ele>
        <time>2021-08-18T05:26:21.666Z</time>
      </trkpt>
      <trkpt lat="40.99505" lon="39.67359">
        <ele>31.95074</ele>
        <time>2021-08-18T05:26:24.812Z</time>
      </trkpt>
      <trkpt lat="40.99496" lon="39.67316">
        <ele>30.201233</ele>
        <time>2021-08-18T05:26:32.058Z</time>
      </trkpt>
      <trkpt lat="40.99482" lon="39.67254">
        <ele>27.614984</ele>
        <time>2021-08-18T05:26:42.552Z</time>
      </trkpt>
      <trkpt lat="40.99525" lon="39.67228">
        <ele>25.616221</ele>
        <time>2021-08-18T05:26:52.397Z</time>
      </trkpt>
      <trkpt lat="40.99507" lon="39.67162">
        <ele>23.456416</ele>
        <time>2021-08-18T05:27:04.958Z</time>
      </trkpt>
      <trkpt lat="40.99538" lon="39.6715">
        <ele>22.166877</ele>
        <time>2021-08-18T05:27:12.054Z</time>
      </trkpt>
      <trkpt lat="40.9955" lon="39.67146">
        <ele>21.672822</ele>
        <time>2021-08-18T05:27:14.813Z</time>
      </trkpt>
      <trkpt lat="40.99538" lon="39.67099">
        <ele>20.138891</ele>
        <time>2021-08-18T05:27:23.460Z</time>
      </trkpt>
      <trkpt lat="40.99527" lon="39.67058">
        <ele>19.980802</ele>
        <time>2021-08-18T05:27:32.134Z</time>
      </trkpt>
      <trkpt lat="40.99501" lon="39.66958">
        <ele>19.919163</ele>
        <time>2021-08-18T05:27:56.865Z</time>
      </trkpt>
      <trkpt lat="40.99465" lon="39.66794">
        <ele>20.106066</ele>
        <time>2021-08-18T05:28:45.115Z</time>
      </trkpt>
      <trkpt lat="40.9945" lon="39.66703">
        <ele>20.402157</ele>
        <time>2021-08-18T05:29:08.700Z</time>
      </trkpt>
      <trkpt lat="40.99441" lon="39.66644">
        <ele>20.593374</ele>
        <time>2021-08-18T05:29:23.604Z</time>
      </trkpt>
      <trkpt lat="40.99426" lon="39.66513">
        <ele>18.455688</ele>
        <time>2021-08-18T05:29:50.786Z</time>
      </trkpt>
      <trkpt lat="40.99422" lon="39.66473">
        <ele>17.740999</ele>
        <time>2021-08-18T05:29:58.780Z</time>
      </trkpt>
      <trkpt lat="40.99419" lon="39.66444">
        <ele>17.230646</ele>
        <time>2021-08-18T05:30:03.410Z</time>
      </trkpt>
      <trkpt lat="40.99414" lon="39.66404">
        <ele>16.53732</ele>
        <time>2021-08-18T05:30:09.874Z</time>
      </trkpt>
      <trkpt lat="40.99414" lon="39.66376">
        <ele>15.460368</ele>
        <time>2021-08-18T05:30:14.369Z</time>
      </trkpt>
      <trkpt lat="40.99425" lon="39.66339">
        <ele>13.78696</ele>
        <time>2021-08-18T05:30:20.487Z</time>
      </trkpt>
      <trkpt lat="40.99442" lon="39.66316">
        <ele>12.435495</ele>
        <time>2021-08-18T05:30:25.487Z</time>
      </trkpt>
      <trkpt lat="40.99464" lon="39.66313">
        <ele>11.208524</ele>
        <time>2021-08-18T05:30:30.304Z</time>
      </trkpt>
      <trkpt lat="40.99469" lon="39.66314">
        <ele>10.976107</ele>
        <time>2021-08-18T05:30:31.062Z</time>
      </trkpt>
      <trkpt lat="40.99474" lon="39.66322">
        <ele>10.488907</ele>
        <time>2021-08-18T05:30:32.887Z</time>
      </trkpt>
      <trkpt lat="40.99488" lon="39.66333">
        <ele>9.588227</ele>
        <time>2021-08-18T05:30:36.303Z</time>
      </trkpt>
      <trkpt lat="40.99505" lon="39.66337">
        <ele>8.682355</ele>
        <time>2021-08-18T05:30:39.610Z</time>
      </trkpt>
      <trkpt lat="40.99515" lon="39.66335">
        <ele>8.11151</ele>
        <time>2021-08-18T05:30:41.776Z</time>
      </trkpt>
      <trkpt lat="40.99521" lon="39.66334">
        <ele>7.78075</ele>
        <time>2021-08-18T05:30:43.032Z</time>
      </trkpt>
      <trkpt lat="40.99535" lon="39.66324">
        <ele>6.875769</ele>
        <time>2021-08-18T05:30:46.437Z</time>
      </trkpt>
      <trkpt lat="40.99546" lon="39.66307">
        <ele>6.272891</ele>
        <time>2021-08-18T05:30:49.951Z</time>
      </trkpt>
      <trkpt lat="40.99549" lon="39.66299">
        <ele>6.083368</ele>
        <time>2021-08-18T05:30:51.583Z</time>
      </trkpt>
      <trkpt lat="40.99552" lon="39.66287">
        <ele>5.86075</ele>
        <time>2021-08-18T05:30:53.461Z</time>
      </trkpt>
      <trkpt lat="40.99553" lon="39.66266">
        <ele>5.451278</ele>
        <time>2021-08-18T05:30:56.934Z</time>
      </trkpt>
      <trkpt lat="40.99559" lon="39.66262">
        <ele>5.292569</ele>
        <time>2021-08-18T05:30:58.318Z</time>
      </trkpt>
      <trkpt lat="40.99577" lon="39.66221">
        <ele>4.38585</ele>
        <time>2021-08-18T05:31:06.182Z</time>
      </trkpt>
      <trkpt lat="40.99583" lon="39.66184">
        <ele>3.673</ele>
        <time>2021-08-18T05:31:13.784Z</time>
      </trkpt>
      <trkpt lat="40.99585" lon="39.66114">
        <ele>2.333319</ele>
        <time>2021-08-18T05:31:28.964Z</time>
      </trkpt>
      <trkpt lat="40.99587" lon="39.66072">
        <ele>2.022192</ele>
        <time>2021-08-18T05:31:39.584Z</time>
      </trkpt>
      <trkpt lat="40.99587" lon="39.66061">
        <ele>2.029315</ele>
        <time>2021-08-18T05:31:42.225Z</time>
      </trkpt>
      <trkpt lat="40.99587" lon="39.66048">
        <ele>2.03726</ele>
        <time>2021-08-18T05:31:45.033Z</time>
      </trkpt>
      <trkpt lat="40.99597" lon="39.65751">
        <ele>3.338001</ele>
        <time>2021-08-18T05:32:57.037Z</time>
      </trkpt>
      <trkpt lat="40.99597" lon="39.65712">
        <ele>3.76166</ele>
        <time>2021-08-18T05:33:08.630Z</time>
      </trkpt>
      <trkpt lat="40.99597" lon="39.65671">
        <ele>4.213727</ele>
        <time>2021-08-18T05:33:21.741Z</time>
      </trkpt>
      <trkpt lat="40.99595" lon="39.65647">
        <ele>4.479002</ele>
        <time>2021-08-18T05:33:29.470Z</time>
      </trkpt>
      <trkpt lat="40.99594" lon="39.6563">
        <ele>4.664459</ele>
        <time>2021-08-18T05:33:35.501Z</time>
      </trkpt>
      <trkpt lat="40.99538" lon="39.65222">
        <ele>17.304054</ele>
        <time>2021-08-18T05:36:27.222Z</time>
      </trkpt>
      <trkpt lat="40.99535" lon="39.65149">
        <ele>19.632273</ele>
        <time>2021-08-18T05:36:58.687Z</time>
      </trkpt>
      <trkpt lat="40.99536" lon="39.65078">
        <ele>21.296144</ele>
        <time>2021-08-18T05:37:27.000Z</time>
      </trkpt>
      <trkpt lat="40.99545" lon="39.64932">
        <ele>24.709088</ele>
        <time>2021-08-18T05:38:20.005Z</time>
      </trkpt>
      <trkpt lat="40.99556" lon="39.64827">
        <ele>25.676517</ele>
        <time>2021-08-18T05:38:51.583Z</time>
      </trkpt>
      <trkpt lat="40.99572" lon="39.64712">
        <ele>26.357762</ele>
        <time>2021-08-18T05:39:22.402Z</time>
      </trkpt>
      <trkpt lat="40.99591" lon="39.64628">
        <ele>25.775831</ele>
        <time>2021-08-18T05:39:41.729Z</time>
      </trkpt>
      <trkpt lat="40.99639" lon="39.64482">
        <ele>23.43525</ele>
        <time>2021-08-18T05:40:11.087Z</time>
      </trkpt>
      <trkpt lat="40.9967" lon="39.64414">
        <ele>21.405969</ele>
        <time>2021-08-18T05:40:24.304Z</time>
      </trkpt>
      <trkpt lat="40.99739" lon="39.643">
        <ele>16.85385</ele>
        <time>2021-08-18T05:40:47.619Z</time>
      </trkpt>
      <trkpt lat="40.99771" lon="39.64251">
        <ele>15.614499</ele>
        <time>2021-08-18T05:40:58.971Z</time>
      </trkpt>
      <trkpt lat="40.99778" lon="39.64247">
        <ele>15.604894</ele>
        <time>2021-08-18T05:41:00.662Z</time>
      </trkpt>
      <trkpt lat="40.99786" lon="39.64237">
        <ele>15.590177</ele>
        <time>2021-08-18T05:41:03.541Z</time>
      </trkpt>
      <trkpt lat="40.9979" lon="39.64223">
        <ele>15.575392</ele>
        <time>2021-08-18T05:41:06.360Z</time>
      </trkpt>
      <trkpt lat="40.9979" lon="39.64212">
        <ele>15.565454</ele>
        <time>2021-08-18T05:41:08.613Z</time>
      </trkpt>
      <trkpt lat="40.99839" lon="39.64113">
        <ele>15.449872</ele>
        <time>2021-08-18T05:41:36.418Z</time>
      </trkpt>
      <trkpt lat="40.99883" lon="39.64018">
        <ele>16.580401</ele>
        <time>2021-08-18T05:42:19.761Z</time>
      </trkpt>
      <trkpt lat="40.99926" lon="39.63942">
        <ele>18.217571</ele>
        <time>2021-08-18T05:42:54.802Z</time>
      </trkpt>
      <trkpt lat="40.99938" lon="39.63923">
        <ele>18.634484</ele>
        <time>2021-08-18T05:43:03.263Z</time>
      </trkpt>
      <trkpt lat="40.99966" lon="39.63875">
        <ele>19.331772</ele>
        <time>2021-08-18T05:43:19.393Z</time>
      </trkpt>
      <trkpt lat="41.00012" lon="39.63804">
        <ele>17.925709</ele>
        <time>2021-08-18T05:43:38.712Z</time>
      </trkpt>
      <trkpt lat="41.00099" lon="39.63702">
        <ele>15.427221</ele>
        <time>2021-08-18T05:44:05.137Z</time>
      </trkpt>
      <trkpt lat="41.00126" lon="39.63677">
        <ele>14.44147</ele>
        <time>2021-08-18T05:44:12.305Z</time>
      </trkpt>
      <trkpt lat="41.0015" lon="39.63657">
        <ele>13.570361</ele>
        <time>2021-08-18T05:44:18.713Z</time>
      </trkpt>
      <trkpt lat="41.00344" lon="39.63521">
        <ele>7.807782</ele>
        <time>2021-08-18T05:45:10.327Z</time>
      </trkpt>
      <trkpt lat="41.00434" lon="39.63438">
        <ele>6.046462</ele>
        <time>2021-08-18T05:45:38.362Z</time>
      </trkpt>
      <trkpt lat="41.00455" lon="39.63418">
        <ele>5.865002</ele>
        <time>2021-08-18T05:45:45.222Z</time>
      </trkpt>
      <trkpt lat="41.00471" lon="39.63402">
        <ele>5.72149</ele>
        <time>2021-08-18T05:45:50.727Z</time>
      </trkpt>
      <trkpt lat="41.00597" lon="39.63274">
        <ele>5.344503</ele>
        <time>2021-08-18T05:46:39.034Z</time>
      </trkpt>
      <trkpt lat="41.00625" lon="39.63231">
        <ele>5.497084</ele>
        <time>2021-08-18T05:46:53.610Z</time>
      </trkpt>
      <trkpt lat="41.00632" lon="39.63219">
        <ele>5.537727</ele>
        <time>2021-08-18T05:46:57.846Z</time>
      </trkpt>
      <trkpt lat="41.00648" lon="39.63182">
        <ele>5.651086</ele>
        <time>2021-08-18T05:47:08.760Z</time>
      </trkpt>
      <trkpt lat="41.00663" lon="39.63137">
        <ele>5.930902</ele>
        <time>2021-08-18T05:47:22.005Z</time>
      </trkpt>
      <trkpt lat="41.00672" lon="39.63079">
        <ele>6.553529</ele>
        <time>2021-08-18T05:47:38.304Z</time>
      </trkpt>
      <trkpt lat="41.00674" lon="39.63061">
        <ele>6.749074</ele>
        <time>2021-08-18T05:47:43.547Z</time>
      </trkpt>
      <trkpt lat="41.00674" lon="39.62999">
        <ele>7.404774</ele>
        <time>2021-08-18T05:48:01.461Z</time>
      </trkpt>
      <trkpt lat="41.00667" lon="39.62936">
        <ele>8.083631</ele>
        <time>2021-08-18T05:48:21.096Z</time>
      </trkpt>
      <trkpt lat="41.00663" lon="39.62879">
        <ele>9.268047</ele>
        <time>2021-08-18T05:48:40.475Z</time>
      </trkpt>
      <trkpt lat="41.00666" lon="39.62848">
        <ele>10.032783</ele>
        <time>2021-08-18T05:48:51.336Z</time>
      </trkpt>
      <trkpt lat="41.00689" lon="39.62768">
        <ele>12.141507</ele>
        <time>2021-08-18T05:49:23.236Z</time>
      </trkpt>
      <trkpt lat="41.00689" lon="39.62748">
        <ele>12.651529</ele>
        <time>2021-08-18T05:49:31.378Z</time>
      </trkpt>
      <trkpt lat="41.0068" lon="39.6271">
        <ele>13.631468</ele>
        <time>2021-08-18T05:49:47.295Z</time>
      </trkpt>
      <trkpt lat="41.00655" lon="39.62664">
        <ele>15.494993</ele>
        <time>2021-08-18T05:50:10.819Z</time>
      </trkpt>
      <trkpt lat="41.0065" lon="39.62641">
        <ele>16.421838</ele>
        <time>2021-08-18T05:50:21.252Z</time>
      </trkpt>
      <trkpt lat="41.00652" lon="39.62618">
        <ele>17.266345</ele>
        <time>2021-08-18T05:50:30.935Z</time>
      </trkpt>
      <trkpt lat="41.00721" lon="39.62437">
        <ele>24.839925</ele>
        <time>2021-08-18T05:52:05.624Z</time>
      </trkpt>
      <trkpt lat="41.00752" lon="39.62365">
        <ele>27.756535</ele>
        <time>2021-08-18T05:52:44.318Z</time>
      </trkpt>
      <trkpt lat="41.00794" lon="39.62268">
        <ele>31.592309</ele>
        <time>2021-08-18T05:53:30.657Z</time>
      </trkpt>
      <trkpt lat="41.00836" lon="39.62174">
        <ele>32.403079</ele>
        <time>2021-08-18T05:54:06.723Z</time>
      </trkpt>
      <trkpt lat="41.00863" lon="39.62115">
        <ele>32.9123</ele>
        <time>2021-08-18T05:54:24.023Z</time>
      </trkpt>
      <trkpt lat="41.00938" lon="39.6195">
        <ele>31.369549</ele>
        <time>2021-08-18T05:55:00.706Z</time>
      </trkpt>
      <trkpt lat="41.0108" lon="39.61634">
        <ele>25.637927</ele>
        <time>2021-08-18T05:56:07.655Z</time>
      </trkpt>
      <trkpt lat="41.01137" lon="39.61455">
        <ele>23.947049</ele>
        <time>2021-08-18T05:56:47.823Z</time>
      </trkpt>
      <trkpt lat="41.01167" lon="39.61347">
        <ele>22.424838</ele>
        <time>2021-08-18T05:57:11.711Z</time>
      </trkpt>
      <trkpt lat="41.01204" lon="39.61178">
        <ele>19.883887</ele>
        <time>2021-08-18T05:57:43.266Z</time>
      </trkpt>
      <trkpt lat="41.01226" lon="39.61071">
        <ele>18.039258</ele>
        <time>2021-08-18T05:58:03.049Z</time>
      </trkpt>
      <trkpt lat="41.01233" lon="39.61039">
        <ele>17.495922</ele>
        <time>2021-08-18T05:58:09.130Z</time>
      </trkpt>
      <trkpt lat="41.01237" lon="39.61019">
        <ele>17.152182</ele>
        <time>2021-08-18T05:58:13.124Z</time>
      </trkpt>
      <trkpt lat="41.01248" lon="39.60964">
        <ele>16.585388</ele>
        <time>2021-08-18T05:58:24.061Z</time>
      </trkpt>
      <trkpt lat="41.01238" lon="39.60959">
        <ele>16.625331</ele>
        <time>2021-08-18T05:58:27.129Z</time>
      </trkpt>
      <trkpt lat="41.01227" lon="39.60953">
        <ele>16.665692</ele>
        <time>2021-08-18T05:58:30.404Z</time>
      </trkpt>
      <trkpt lat="41.01221" lon="39.60949">
        <ele>16.689671</ele>
        <time>2021-08-18T05:58:32.382Z</time>
      </trkpt>
      <trkpt lat="41.01217" lon="39.6092">
        <ele>16.769682</ele>
        <time>2021-08-18T05:58:39.074Z</time>
      </trkpt>
      <trkpt lat="41.01218" lon="39.60908">
        <ele>16.801526</ele>
        <time>2021-08-18T05:58:42.115Z</time>
      </trkpt>
      <trkpt lat="41.01197" lon="39.60738">
        <ele>17.351375</ele>
        <time>2021-08-18T05:59:31.593Z</time>
      </trkpt>
      <trkpt lat="41.01175" lon="39.6066">
        <ele>17.784557</ele>
        <time>2021-08-18T05:59:55.172Z</time>
      </trkpt>
      <trkpt lat="41.01174" lon="39.60642">
        <ele>17.880249</ele>
        <time>2021-08-18T05:59:59.311Z</time>
      </trkpt>
      <trkpt lat="41.01176" lon="39.60627">
        <ele>17.961322</ele>
        <time>2021-08-18T06:00:04.868Z</time>
      </trkpt>
      <trkpt lat="41.01178" lon="39.60621">
        <ele>17.990684</ele>
        <time>2021-08-18T06:00:06.220Z</time>
      </trkpt>
      <trkpt lat="41.01184" lon="39.60605">
        <ele>18.087865</ele>
        <time>2021-08-18T06:00:09.995Z</time>
      </trkpt>
      <trkpt lat="41.01193" lon="39.60582">
        <ele>18.223529</ele>
        <time>2021-08-18T06:00:17.837Z</time>
      </trkpt>
      <trkpt lat="41.012" lon="39.60548">
        <ele>18.409133</ele>
        <time>2021-08-18T06:00:25.364Z</time>
      </trkpt>
      <trkpt lat="41.01207" lon="39.60512">
        <ele>18.291713</ele>
        <time>2021-08-18T06:00:33.524Z</time>
      </trkpt>
      <trkpt lat="41.0121" lon="39.60494">
        <ele>18.226311</ele>
        <time>2021-08-18T06:00:38.520Z</time>
      </trkpt>
      <trkpt lat="41.01211" lon="39.60487">
        <ele>18.199371</ele>
        <time>2021-08-18T06:00:40.317Z</time>
      </trkpt>
      <trkpt lat="41.01222" lon="39.60406">
        <ele>17.894005</ele>
        <time>2021-08-18T06:00:56.954Z</time>
      </trkpt>
      <trkpt lat="41.01222" lon="39.60383">
        <ele>17.80703</ele>
        <time>2021-08-18T06:01:01.934Z</time>
      </trkpt>
      <trkpt lat="41.01222" lon="39.60358">
        <ele>17.714108</ele>
        <time>2021-08-18T06:01:07.024Z</time>
      </trkpt>
      <trkpt lat="41.01207" lon="39.60241">
        <ele>17.670488</ele>
        <time>2021-08-18T06:01:33.720Z</time>
      </trkpt>
      <trkpt lat="41.01203" lon="39.60192">
        <ele>17.765805</ele>
        <time>2021-08-18T06:01:45.180Z</time>
      </trkpt>
      <trkpt lat="41.01203" lon="39.60172">
        <ele>17.805043</ele>
        <time>2021-08-18T06:01:49.978Z</time>
      </trkpt>
      <trkpt lat="41.01203" lon="39.60148">
        <ele>17.85065</ele>
        <time>2021-08-18T06:01:55.772Z</time>
      </trkpt>
      <trkpt lat="41.01203" lon="39.60099">
        <ele>17.946106</ele>
        <time>2021-08-18T06:02:08.295Z</time>
      </trkpt>
      <trkpt lat="41.01204" lon="39.60061">
        <ele>18.190031</ele>
        <time>2021-08-18T06:02:18.724Z</time>
      </trkpt>
      <trkpt lat="41.01224" lon="39.59905">
        <ele>20.719588</ele>
        <time>2021-08-18T06:03:09.971Z</time>
      </trkpt>
      <trkpt lat="41.01233" lon="39.59842">
        <ele>21.752966</ele>
        <time>2021-08-18T06:03:33.374Z</time>
      </trkpt>
      <trkpt lat="41.01233" lon="39.59838">
        <ele>21.818385</ele>
        <time>2021-08-18T06:03:35.305Z</time>
      </trkpt>
      <trkpt lat="41.01236" lon="39.59783">
        <ele>22.732158</ele>
        <time>2021-08-18T06:03:54.458Z</time>
      </trkpt>
      <trkpt lat="41.01239" lon="39.5973">
        <ele>23.630678</ele>
        <time>2021-08-18T06:04:12.601Z</time>
      </trkpt>
      <trkpt lat="41.01235" lon="39.59679">
        <ele>24.493028</ele>
        <time>2021-08-18T06:04:29.608Z</time>
      </trkpt>
      <trkpt lat="41.01228" lon="39.59661">
        <ele>24.819784</ele>
        <time>2021-08-18T06:04:36.236Z</time>
      </trkpt>
      <trkpt lat="41.01222" lon="39.59643">
        <ele>25.163088</ele>
        <time>2021-08-18T06:04:42.648Z</time>
      </trkpt>
      <trkpt lat="41.01197" lon="39.59597">
        <ele>26.03286</ele>
        <time>2021-08-18T06:04:58.922Z</time>
      </trkpt>
      <trkpt lat="41.01178" lon="39.59578">
        <ele>26.434465</ele>
        <time>2021-08-18T06:05:08.210Z</time>
      </trkpt>
      <trkpt lat="41.01133" lon="39.59572">
        <ele>27.187842</ele>
        <time>2021-08-18T06:05:24.394Z</time>
      </trkpt>
      <trkpt lat="41.01121" lon="39.59565">
        <ele>27.403696</ele>
        <time>2021-08-18T06:05:29.641Z</time>
      </trkpt>
      <trkpt lat="41.01045" lon="39.59478">
        <ele>29.257517</ele>
        <time>2021-08-18T06:06:09.535Z</time>
      </trkpt>
      <trkpt lat="41.00974" lon="39.59441">
        <ele>31.487336</ele>
        <time>2021-08-18T06:06:52.907Z</time>
      </trkpt>
      <trkpt lat="41.00962" lon="39.59404">
        <ele>32.374625</ele>
        <time>2021-08-18T06:07:12.109Z</time>
      </trkpt>
      <trkpt lat="41.00952" lon="39.59272">
        <ele>32.888962</ele>
        <time>2021-08-18T06:07:48.608Z</time>
      </trkpt>
      <trkpt lat="41.00939" lon="39.59237">
        <ele>32.129192</ele>
        <time>2021-08-18T06:07:56.529Z</time>
      </trkpt>
      <trkpt lat="41.00945" lon="39.59227">
        <ele>31.86813</ele>
        <time>2021-08-18T06:07:58.694Z</time>
      </trkpt>
      <trkpt lat="41.00983" lon="39.59165">
        <ele>30.300454</ele>
        <time>2021-08-18T06:08:12.084Z</time>
      </trkpt>
      <trkpt lat="41.01" lon="39.59142">
        <ele>29.66122</ele>
        <time>2021-08-18T06:08:17.163Z</time>
      </trkpt>
      <trkpt lat="41.01025" lon="39.59112">
        <ele>29.076886</ele>
        <time>2021-08-18T06:08:24.007Z</time>
      </trkpt>
      <trkpt lat="41.01055" lon="39.59092">
        <ele>28.626409</ele>
        <time>2021-08-18T06:08:30.916Z</time>
      </trkpt>
      <trkpt lat="41.01078" lon="39.59083">
        <ele>28.305673</ele>
        <time>2021-08-18T06:08:35.821Z</time>
      </trkpt>
      <trkpt lat="41.0109" lon="39.5908">
        <ele>28.138059</ele>
        <time>2021-08-18T06:08:38.653Z</time>
      </trkpt>
      <trkpt lat="41.01115" lon="39.59066">
        <ele>27.781569</ele>
        <time>2021-08-18T06:08:46.358Z</time>
      </trkpt>
      <trkpt lat="41.01136" lon="39.59058">
        <ele>27.495028</ele>
        <time>2021-08-18T06:08:54.016Z</time>
      </trkpt>
      <trkpt lat="41.01145" lon="39.59055">
        <ele>27.374961</ele>
        <time>2021-08-18T06:09:00.076Z</time>
      </trkpt>
      <trkpt lat="41.01148" lon="39.59052">
        <ele>27.318538</ele>
        <time>2021-08-18T06:09:02.242Z</time>
      </trkpt>
      <trkpt lat="41.01167" lon="39.59037">
        <ele>27.030259</ele>
        <time>2021-08-18T06:09:13.614Z</time>
      </trkpt>
      <trkpt lat="41.01187" lon="39.59013">
        <ele>28.745148</ele>
        <time>2021-08-18T06:09:31.176Z</time>
      </trkpt>
      <trkpt lat="41.01206" lon="39.5899">
        <ele>30.844163</ele>
        <time>2021-08-18T06:09:49.219Z</time>
      </trkpt>
      <trkpt lat="41.01221" lon="39.58972">
        <ele>32.490695</ele>
        <time>2021-08-18T06:10:03.966Z</time>
      </trkpt>
      <trkpt lat="41.01228" lon="39.58964">
        <ele>33.234188</ele>
        <time>2021-08-18T06:10:13.114Z</time>
      </trkpt>
      <trkpt lat="41.01284" lon="39.58935">
        <ele>38.136241</ele>
        <time>2021-08-18T06:11:02.563Z</time>
      </trkpt>
      <trkpt lat="41.01316" lon="39.58892">
        <ele>41.74788</ele>
        <time>2021-08-18T06:11:43.319Z</time>
      </trkpt>
      <trkpt lat="41.01362" lon="39.58864">
        <ele>44.777118</ele>
        <time>2021-08-18T06:12:24.974Z</time>
      </trkpt>
      <trkpt lat="41.01385" lon="39.58838">
        <ele>46.641925</ele>
        <time>2021-08-18T06:12:46.690Z</time>
      </trkpt>
      <trkpt lat="41.01394" lon="39.58825">
        <ele>47.452048</ele>
        <time>2021-08-18T06:12:55.980Z</time>
      </trkpt>
      <trkpt lat="41.01419" lon="39.58783">
        <ele>49.946834</ele>
        <time>2021-08-18T06:13:19.773Z</time>
      </trkpt>
      <trkpt lat="41.01431" lon="39.58761">
        <ele>51.188874</ele>
        <time>2021-08-18T06:13:30.266Z</time>
      </trkpt>
      <trkpt lat="41.01438" lon="39.58747">
        <ele>51.949196</ele>
        <time>2021-08-18T06:13:35.979Z</time>
      </trkpt>
      <trkpt lat="41.01447" lon="39.58719">
        <ele>52.493939</ele>
        <time>2021-08-18T06:13:45.510Z</time>
      </trkpt>
      <trkpt lat="41.01469" lon="39.58653">
        <ele>52.541421</ele>
        <time>2021-08-18T06:14:04.366Z</time>
      </trkpt>
      <trkpt lat="41.01474" lon="39.58631">
        <ele>52.555864</ele>
        <time>2021-08-18T06:14:10.690Z</time>
      </trkpt>
      <trkpt lat="41.01482" lon="39.58604">
        <ele>52.575297</ele>
        <time>2021-08-18T06:14:16.803Z</time>
      </trkpt>
      <trkpt lat="41.01503" lon="39.58578">
        <ele>52.600334</ele>
        <time>2021-08-18T06:14:25.470Z</time>
      </trkpt>
      <trkpt lat="41.01538" lon="39.58538">
        <ele>52.580633</ele>
        <time>2021-08-18T06:14:37.274Z</time>
      </trkpt>
      <trkpt lat="41.01545" lon="39.58531">
        <ele>52.372206</ele>
        <time>2021-08-18T06:14:40.030Z</time>
      </trkpt>
      <trkpt lat="41.01572" lon="39.58509">
        <ele>51.686967</ele>
        <time>2021-08-18T06:14:47.172Z</time>
      </trkpt>
      <trkpt lat="41.01596" lon="39.58486">
        <ele>51.022464</ele>
        <time>2021-08-18T06:14:54.006Z</time>
      </trkpt>
      <trkpt lat="41.01652" lon="39.58436">
        <ele>49.531829</ele>
        <time>2021-08-18T06:15:10.381Z</time>
      </trkpt>
      <trkpt lat="41.01686" lon="39.58403">
        <ele>48.56542</ele>
        <time>2021-08-18T06:15:21.327Z</time>
      </trkpt>
      <trkpt lat="41.01731" lon="39.58357">
        <ele>46.772655</ele>
        <time>2021-08-18T06:15:34.802Z</time>
      </trkpt>
      <trkpt lat="41.01746" lon="39.58338">
        <ele>46.131062</ele>
        <time>2021-08-18T06:15:39.631Z</time>
      </trkpt>
      <trkpt lat="41.01792" lon="39.58277">
        <ele>44.063589</ele>
        <time>2021-08-18T06:15:54.800Z</time>
      </trkpt>
      <trkpt lat="41.01809" lon="39.58248">
        <ele>43.183111</ele>
        <time>2021-08-18T06:16:01.300Z</time>
      </trkpt>
      <trkpt lat="41.01822" lon="39.58233">
        <ele>42.508418</ele>
        <time>2021-08-18T06:16:05.190Z</time>
      </trkpt>
      <trkpt lat="41.01831" lon="39.58209">
        <ele>41.580607</ele>
        <time>2021-08-18T06:16:09.996Z</time>
      </trkpt>
      <trkpt lat="41.0185" lon="39.58151">
        <ele>39.374868</ele>
        <time>2021-08-18T06:16:21.024Z</time>
      </trkpt>
      <trkpt lat="41.01859" lon="39.58127">
        <ele>38.476142</ele>
        <time>2021-08-18T06:16:25.497Z</time>
      </trkpt>
      <trkpt lat="41.0187" lon="39.58097">
        <ele>37.306582</ele>
        <time>2021-08-18T06:16:31.170Z</time>
      </trkpt>
      <trkpt lat="41.01887" lon="39.58051">
        <ele>35.560968</ele>
        <time>2021-08-18T06:16:39.611Z</time>
      </trkpt>
      <trkpt lat="41.01903" lon="39.5801">
        <ele>33.884887</ele>
        <time>2021-08-18T06:16:47.290Z</time>
      </trkpt>
      <trkpt lat="41.01937" lon="39.57932">
        <ele>30.395463</ele>
        <time>2021-08-18T06:17:02.570Z</time>
      </trkpt>
      <trkpt lat="41.01954" lon="39.57891">
        <ele>28.59781</ele>
        <time>2021-08-18T06:17:10.311Z</time>
      </trkpt>
      <trkpt lat="41.01972" lon="39.5786">
        <ele>27.056079</ele>
        <time>2021-08-18T06:17:16.862Z</time>
      </trkpt>
      <trkpt lat="41.01991" lon="39.57836">
        <ele>25.716096</ele>
        <time>2021-08-18T06:17:22.553Z</time>
      </trkpt>
      <trkpt lat="41.02011" lon="39.57798">
        <ele>24.521829</ele>
        <time>2021-08-18T06:17:30.236Z</time>
      </trkpt>
      <trkpt lat="41.0202" lon="39.57767">
        <ele>23.718006</ele>
        <time>2021-08-18T06:17:35.704Z</time>
      </trkpt>
      <trkpt lat="41.02028" lon="39.57747">
        <ele>23.144132</ele>
        <time>2021-08-18T06:17:39.908Z</time>
      </trkpt>
      <trkpt lat="41.02056" lon="39.57688">
        <ele>21.420891</ele>
        <time>2021-08-18T06:17:52.649Z</time>
      </trkpt>
      <trkpt lat="41.02058" lon="39.57685">
        <ele>21.33008</ele>
        <time>2021-08-18T06:17:53.255Z</time>
      </trkpt>
      <trkpt lat="41.0208" lon="39.57621">
        <ele>19.661828</ele>
        <time>2021-08-18T06:18:07.324Z</time>
      </trkpt>
      <trkpt lat="41.02084" lon="39.57595">
        <ele>19.665361</ele>
        <time>2021-08-18T06:18:12.425Z</time>
      </trkpt>
      <trkpt lat="41.02085" lon="39.57587">
        <ele>19.666421</ele>
        <time>2021-08-18T06:18:14.768Z</time>
      </trkpt>
      <trkpt lat="41.02095" lon="39.57515">
        <ele>19.676227</ele>
        <time>2021-08-18T06:18:31.952Z</time>
      </trkpt>
      <trkpt lat="41.02099" lon="39.57484">
        <ele>19.68042</ele>
        <time>2021-08-18T06:18:40.996Z</time>
      </trkpt>
      <trkpt lat="41.02102" lon="39.57466">
        <ele>19.68289</ele>
        <time>2021-08-18T06:18:46.284Z</time>
      </trkpt>
      <trkpt lat="41.02106" lon="39.5743">
        <ele>19.687775</ele>
        <time>2021-08-18T06:18:57.092Z</time>
      </trkpt>
      <trkpt lat="41.02111" lon="39.57399">
        <ele>19.691981</ele>
        <time>2021-08-18T06:19:06.218Z</time>
      </trkpt>
      <trkpt lat="41.02116" lon="39.57362">
        <ele>19.609369</ele>
        <time>2021-08-18T06:19:16.362Z</time>
      </trkpt>
      <trkpt lat="41.02122" lon="39.57312">
        <ele>19.459551</ele>
        <time>2021-08-18T06:19:29.003Z</time>
      </trkpt>
      <trkpt lat="41.02129" lon="39.57265">
        <ele>19.316993</ele>
        <time>2021-08-18T06:19:40.640Z</time>
      </trkpt>
      <trkpt lat="41.02142" lon="39.57195">
        <ele>19.10084</ele>
        <time>2021-08-18T06:19:56.161Z</time>
      </trkpt>
      <trkpt lat="41.02149" lon="39.57157">
        <ele>18.983013</ele>
        <time>2021-08-18T06:20:04.503Z</time>
      </trkpt>
      <trkpt lat="41.02157" lon="39.57109">
        <ele>18.650744</ele>
        <time>2021-08-18T06:20:14.388Z</time>
      </trkpt>
      <trkpt lat="41.02168" lon="39.57064">
        <ele>18.332826</ele>
        <time>2021-08-18T06:20:23.768Z</time>
      </trkpt>
      <trkpt lat="41.02172" lon="39.57058">
        <ele>18.273313</ele>
        <time>2021-08-18T06:20:25.382Z</time>
      </trkpt>
      <trkpt lat="41.02216" lon="39.56936">
        <ele>17.367017</ele>
        <time>2021-08-18T06:20:56.333Z</time>
      </trkpt>
      <trkpt lat="41.02225" lon="39.569">
        <ele>17.466206</ele>
        <time>2021-08-18T06:21:05.206Z</time>
      </trkpt>
      <trkpt lat="41.02251" lon="39.56827">
        <ele>17.679087</ele>
        <time>2021-08-18T06:21:25.749Z</time>
      </trkpt>
      <trkpt lat="41.02304" lon="39.56714">
        <ele>17.935718</ele>
        <time>2021-08-18T06:22:03.581Z</time>
      </trkpt>
      <trkpt lat="41.02361" lon="39.56577">
        <ele>17.342293</ele>
        <time>2021-08-18T06:22:40.949Z</time>
      </trkpt>
      <trkpt lat="41.02364" lon="39.56559">
        <ele>17.270632</ele>
        <time>2021-08-18T06:22:45.709Z</time>
      </trkpt>
      <trkpt lat="41.02369" lon="39.56552">
        <ele>17.232747</ele>
        <time>2021-08-18T06:22:47.703Z</time>
      </trkpt>
      <trkpt lat="41.02378" lon="39.56543">
        <ele>17.178036</ele>
        <time>2021-08-18T06:22:50.764Z</time>
      </trkpt>
      <trkpt lat="41.02452" lon="39.56462">
        <ele>14.74004</ele>
        <time>2021-08-18T06:23:14.390Z</time>
      </trkpt>
      <trkpt lat="41.0249" lon="39.5642">
        <ele>13.252018</ele>
        <time>2021-08-18T06:23:25.764Z</time>
      </trkpt>
      <trkpt lat="41.02546" lon="39.56511">
        <ele>10.972321</ele>
        <time>2021-08-18T06:23:46.851Z</time>
      </trkpt>
      <trkpt lat="41.02544" lon="39.56514">
        <ele>10.914059</ele>
        <time>2021-08-18T06:23:47.566Z</time>
      </trkpt>
      <trkpt lat="41.02542" lon="39.56519">
        <ele>10.837471</ele>
        <time>2021-08-18T06:23:48.592Z</time>
      </trkpt>
      <trkpt lat="41.0254" lon="39.56524">
        <ele>10.76158</ele>
        <time>2021-08-18T06:23:49.604Z</time>
      </trkpt>
      <trkpt lat="41.02544" lon="39.56538">
        <ele>10.539985</ele>
        <time>2021-08-18T06:23:52.572Z</time>
      </trkpt>
      <trkpt lat="41.02556" lon="39.56543">
        <ele>10.318447</ele>
        <time>2021-08-18T06:23:55.324Z</time>
      </trkpt>
      <trkpt lat="41.02559" lon="39.56541">
        <ele>10.242387</ele>
        <time>2021-08-18T06:23:56.250Z</time>
      </trkpt>
      <trkpt lat="41.02569" lon="39.56532">
        <ele>10.01451</ele>
        <time>2021-08-18T06:23:59.357Z</time>
      </trkpt>
      <trkpt lat="41.02654" lon="39.56451">
        <ele>8.249311</ele>
        <time>2021-08-18T06:24:26.149Z</time>
      </trkpt>
      <trkpt lat="41.03216" lon="39.56092">
        <ele>8.840675</ele>
        <time>2021-08-18T06:27:47.117Z</time>
      </trkpt>
      <trkpt lat="41.03237" lon="39.56079">
        <ele>8.846339</ele>
        <time>2021-08-18T06:27:54.377Z</time>
      </trkpt>
      <trkpt lat="41.03261" lon="39.56064">
        <ele>8.852815</ele>
        <time>2021-08-18T06:28:02.390Z</time>
      </trkpt>
      <trkpt lat="41.03271" lon="39.56058">
        <ele>8.855459</ele>
        <time>2021-08-18T06:28:05.699Z</time>
      </trkpt>
      <trkpt lat="41.03279" lon="39.56081">
        <ele>8.860092</ele>
        <time>2021-08-18T06:28:11.545Z</time>
      </trkpt>
      <trkpt lat="41.03289" lon="39.56105">
        <ele>8.862718</ele>
        <time>2021-08-18T06:28:18.199Z</time>
      </trkpt>
      <trkpt lat="41.03296" lon="39.56108">
        <ele>8.863331</ele>
        <time>2021-08-18T06:28:20.388Z</time>
      </trkpt>
      <trkpt lat="41.03368" lon="39.56045">
        <ele>8.870698</ele>
        <time>2021-08-18T06:28:47.805Z</time>
      </trkpt>
      <trkpt lat="41.03405" lon="39.56002">
        <ele>8.87487</ele>
        <time>2021-08-18T06:29:03.499Z</time>
      </trkpt>
      <trkpt lat="41.03474" lon="39.5599">
        <ele>9.27504</ele>
        <time>2021-08-18T06:29:28.949Z</time>
      </trkpt>
      <trkpt lat="41.03509" lon="39.55871">
        <ele>10.057858</ele>
        <time>2021-08-18T06:30:04.622Z</time>
      </trkpt>
      <trkpt lat="41.03506" lon="39.55847">
        <ele>10.207622</ele>
        <time>2021-08-18T06:30:12.057Z</time>
      </trkpt>
      <trkpt lat="41.03599" lon="39.55711">
        <ele>11.58217</ele>
        <time>2021-08-18T06:31:03.086Z</time>
      </trkpt>
      <trkpt lat="41.03658" lon="39.55651">
        <ele>12.36379</ele>
        <time>2021-08-18T06:31:29.920Z</time>
      </trkpt>
      <trkpt lat="41.03718" lon="39.55602">
        <ele>13.188096</ele>
        <time>2021-08-18T06:31:56.632Z</time>
      </trkpt>
      <trkpt lat="41.03783" lon="39.55559">
        <ele>14.037244</ele>
        <time>2021-08-18T06:32:24.701Z</time>
      </trkpt>
      <trkpt lat="41.0383" lon="39.5554">
        <ele>14.38374</ele>
        <time>2021-08-18T06:32:43.442Z</time>
      </trkpt>
      <trkpt lat="41.03895" lon="39.55515">
        <ele>14.620756</ele>
        <time>2021-08-18T06:33:07.252Z</time>
      </trkpt>
      <trkpt lat="41.03953" lon="39.55488">
        <ele>14.83765</ele>
        <time>2021-08-18T06:33:26.379Z</time>
      </trkpt>
      <trkpt lat="41.03997" lon="39.55455">
        <ele>14.546948</ele>
        <time>2021-08-18T06:33:40.752Z</time>
      </trkpt>
      <trkpt lat="41.04051" lon="39.55414">
        <ele>13.731749</ele>
        <time>2021-08-18T06:33:56.950Z</time>
      </trkpt>
      <trkpt lat="41.04105" lon="39.5536">
        <ele>12.827039</ele>
        <time>2021-08-18T06:34:14.208Z</time>
      </trkpt>
      <trkpt lat="41.0414" lon="39.5531">
        <ele>12.120153</ele>
        <time>2021-08-18T06:34:27.053Z</time>
      </trkpt>
      <trkpt lat="41.04166" lon="39.55273">
        <ele>11.587549</ele>
        <time>2021-08-18T06:34:36.625Z</time>
      </trkpt>
      <trkpt lat="41.04245" lon="39.55149">
        <ele>9.957257</ele>
        <time>2021-08-18T06:35:08.573Z</time>
      </trkpt>
      <trkpt lat="41.04316" lon="39.55037">
        <ele>9.411873</ele>
        <time>2021-08-18T06:35:40.595Z</time>
      </trkpt>
      <trkpt lat="41.04377" lon="39.54945">
        <ele>8.970092</ele>
        <time>2021-08-18T06:36:08.639Z</time>
      </trkpt>
      <trkpt lat="41.04429" lon="39.54878">
        <ele>8.650801</ele>
        <time>2021-08-18T06:36:30.011Z</time>
      </trkpt>
      <trkpt lat="41.04662" lon="39.54572">
        <ele>7.361471</ele>
        <time>2021-08-18T06:38:02.431Z</time>
      </trkpt>
      <trkpt lat="41.04834" lon="39.54345">
        <ele>8.662271</ele>
        <time>2021-08-18T06:39:29.513Z</time>
      </trkpt>
      <trkpt lat="41.04884" lon="39.54282">
        <ele>9.026821</ele>
        <time>2021-08-18T06:39:53.714Z</time>
      </trkpt>
      <trkpt lat="41.04934" lon="39.54181">
        <ele>9.149078</ele>
        <time>2021-08-18T06:40:23.022Z</time>
      </trkpt>
      <trkpt lat="41.04941" lon="39.54166">
        <ele>9.167982</ele>
        <time>2021-08-18T06:40:27.324Z</time>
      </trkpt>
      <trkpt lat="41.04946" lon="39.54155">
        <ele>9.180324</ele>
        <time>2021-08-18T06:40:30.085Z</time>
      </trkpt>
      <trkpt lat="41.04973" lon="39.54077">
        <ele>9.147446</ele>
        <time>2021-08-18T06:40:49.422Z</time>
      </trkpt>
      <trkpt lat="41.05017" lon="39.53972">
        <ele>8.824978</ele>
        <time>2021-08-18T06:41:15.644Z</time>
      </trkpt>
      <trkpt lat="41.05061" lon="39.53885">
        <ele>8.618485</ele>
        <time>2021-08-18T06:41:38.934Z</time>
      </trkpt>
      <trkpt lat="41.05115" lon="39.53812">
        <ele>8.737</ele>
        <time>2021-08-18T06:42:02.363Z</time>
      </trkpt>
      <trkpt lat="41.05501" lon="39.53345">
        <ele>12.070813</ele>
        <time>2021-08-18T06:45:00.628Z</time>
      </trkpt>
      <trkpt lat="41.05555" lon="39.53273">
        <ele>13.362331</ele>
        <time>2021-08-18T06:45:34.577Z</time>
      </trkpt>
      <trkpt lat="41.05626" lon="39.53113">
        <ele>16.452892</ele>
        <time>2021-08-18T06:46:40.281Z</time>
      </trkpt>
      <trkpt lat="41.05641" lon="39.5311">
        <ele>16.797293</ele>
        <time>2021-08-18T06:46:48.025Z</time>
      </trkpt>
      <trkpt lat="41.05655" lon="39.53078">
        <ele>17.456774</ele>
        <time>2021-08-18T06:47:03.084Z</time>
      </trkpt>
      <trkpt lat="41.05667" lon="39.53051">
        <ele>18.002357</ele>
        <time>2021-08-18T06:47:14.768Z</time>
      </trkpt>
      <trkpt lat="41.05669" lon="39.53046">
        <ele>18.072724</ele>
        <time>2021-08-18T06:47:17.306Z</time>
      </trkpt>
      <trkpt lat="41.05668" lon="39.5302">
        <ele>18.155032</ele>
        <time>2021-08-18T06:47:26.801Z</time>
      </trkpt>
      <trkpt lat="41.057" lon="39.52947">
        <ele>18.417727</ele>
        <time>2021-08-18T06:47:48.958Z</time>
      </trkpt>
      <trkpt lat="41.05724" lon="39.52898">
        <ele>18.598085</ele>
        <time>2021-08-18T06:48:03.041Z</time>
      </trkpt>
      <trkpt lat="41.05781" lon="39.52834">
        <ele>18.699942</ele>
        <time>2021-08-18T06:48:24.521Z</time>
      </trkpt>
      <trkpt lat="41.06027" lon="39.52625">
        <ele>17.808922</ele>
        <time>2021-08-18T06:49:49.010Z</time>
      </trkpt>
      <trkpt lat="41.06084" lon="39.52568">
        <ele>17.927231</ele>
        <time>2021-08-18T06:50:13.964Z</time>
      </trkpt>
      <trkpt lat="41.06121" lon="39.52518">
        <ele>18.269698</ele>
        <time>2021-08-18T06:50:33.215Z</time>
      </trkpt>
      <trkpt lat="41.06162" lon="39.52449">
        <ele>18.698889</ele>
        <time>2021-08-18T06:50:57.905Z</time>
      </trkpt>
      <trkpt lat="41.06253" lon="39.52271">
        <ele>17.830005</ele>
        <time>2021-08-18T06:51:47.376Z</time>
      </trkpt>
      <trkpt lat="41.06326" lon="39.52156">
        <ele>16.190131</ele>
        <time>2021-08-18T06:52:14.074Z</time>
      </trkpt>
      <trkpt lat="41.06404" lon="39.5206">
        <ele>14.129071</ele>
        <time>2021-08-18T06:52:39.648Z</time>
      </trkpt>
      <trkpt lat="41.06545" lon="39.51894">
        <ele>14.396307</ele>
        <time>2021-08-18T06:53:41.926Z</time>
      </trkpt>
      <trkpt lat="41.06764" lon="39.51639">
        <ele>17.778956</ele>
        <time>2021-08-18T06:55:39.397Z</time>
      </trkpt>
      <trkpt lat="41.07061" lon="39.51237">
        <ele>15.18894</ele>
        <time>2021-08-18T06:57:37.635Z</time>
      </trkpt>
      <trkpt lat="41.07123" lon="39.51139">
        <ele>13.672744</ele>
        <time>2021-08-18T06:58:00.345Z</time>
      </trkpt>
      <trkpt lat="41.07162" lon="39.51075">
        <ele>12.679492</ele>
        <time>2021-08-18T06:58:15.652Z</time>
      </trkpt>
      <trkpt lat="41.0733" lon="39.50831">
        <ele>12.593084</ele>
        <time>2021-08-18T06:59:41.416Z</time>
      </trkpt>
      <trkpt lat="41.07463" lon="39.50648">
        <ele>10.876145</ele>
        <time>2021-08-18T07:00:31.771Z</time>
      </trkpt>
      <trkpt lat="41.07541" lon="39.50573">
        <ele>9.763626</ele>
        <time>2021-08-18T07:00:56.542Z</time>
      </trkpt>
      <trkpt lat="41.07564" lon="39.50556">
        <ele>9.467476</ele>
        <time>2021-08-18T07:01:03.504Z</time>
      </trkpt>
      <trkpt lat="41.07607" lon="39.50522">
        <ele>9.913755</ele>
        <time>2021-08-18T07:01:18.665Z</time>
      </trkpt>
      <trkpt lat="41.07864" lon="39.50321">
        <ele>14.99713</ele>
        <time>2021-08-18T07:03:20.635Z</time>
      </trkpt>
      <trkpt lat="41.07903" lon="39.50296">
        <ele>16.733127</ele>
        <time>2021-08-18T07:03:44.296Z</time>
      </trkpt>
      <trkpt lat="41.08011" lon="39.50219">
        <ele>22.826018</ele>
        <time>2021-08-18T07:04:59.481Z</time>
      </trkpt>
      <trkpt lat="41.08057" lon="39.50174">
        <ele>25.231975</ele>
        <time>2021-08-18T07:05:36.558Z</time>
      </trkpt>
      <trkpt lat="41.08111" lon="39.50096">
        <ele>27.960942</ele>
        <time>2021-08-18T07:06:21.167Z</time>
      </trkpt>
      <trkpt lat="41.08148" lon="39.50033">
        <ele>30.018127</ele>
        <time>2021-08-18T07:06:47.737Z</time>
      </trkpt>
      <trkpt lat="41.08353" lon="39.49487">
        <ele>28.278417</ele>
        <time>2021-08-18T07:08:58.887Z</time>
      </trkpt>
      <trkpt lat="41.08401" lon="39.494">
        <ele>27.78355</ele>
        <time>2021-08-18T07:09:21.732Z</time>
      </trkpt>
      <trkpt lat="41.08452" lon="39.49329">
        <ele>27.283831</ele>
        <time>2021-08-18T07:09:42.706Z</time>
      </trkpt>
      <trkpt lat="41.09016" lon="39.4878">
        <ele>22.921246</ele>
        <time>2021-08-18T07:12:58.949Z</time>
      </trkpt>
      <trkpt lat="41.09043" lon="39.48744">
        <ele>22.962824</ele>
        <time>2021-08-18T07:13:12.019Z</time>
      </trkpt>
      <trkpt lat="41.09075" lon="39.48701">
        <ele>23.012539</ele>
        <time>2021-08-18T07:13:27.772Z</time>
      </trkpt>
      <trkpt lat="41.09112" lon="39.48602">
        <ele>22.875083</ele>
        <time>2021-08-18T07:13:55.470Z</time>
      </trkpt>
      <trkpt lat="41.09134" lon="39.485">
        <ele>22.38416</ele>
        <time>2021-08-18T07:14:17.625Z</time>
      </trkpt>
      <trkpt lat="41.09169" lon="39.48282">
        <ele>21.546257</ele>
        <time>2021-08-18T07:15:02.735Z</time>
      </trkpt>
      <trkpt lat="41.09181" lon="39.48072">
        <ele>21.793658</ele>
        <time>2021-08-18T07:15:55.645Z</time>
      </trkpt>
      <trkpt lat="41.09218" lon="39.47808">
        <ele>23.427443</ele>
        <time>2021-08-18T07:17:10.952Z</time>
      </trkpt>
      <trkpt lat="41.09248" lon="39.47683">
        <ele>24.196934</ele>
        <time>2021-08-18T07:17:45.831Z</time>
      </trkpt>
      <trkpt lat="41.09393" lon="39.4725">
        <ele>25.290071</ele>
        <time>2021-08-18T07:19:44.353Z</time>
      </trkpt>
      <trkpt lat="41.09519" lon="39.46918">
        <ele>23.54308</ele>
        <time>2021-08-18T07:21:02.643Z</time>
      </trkpt>
      <trkpt lat="41.09557" lon="39.46803">
        <ele>22.793724</ele>
        <time>2021-08-18T07:21:28.840Z</time>
      </trkpt>
      <trkpt lat="41.09691" lon="39.46342">
        <ele>19.812776</ele>
        <time>2021-08-18T07:23:11.375Z</time>
      </trkpt>
      <trkpt lat="41.09742" lon="39.46175">
        <ele>19.237588</ele>
        <time>2021-08-18T07:23:50.052Z</time>
      </trkpt>
      <trkpt lat="41.09744" lon="39.4617">
        <ele>19.28996</ele>
        <time>2021-08-18T07:23:51.789Z</time>
      </trkpt>
      <trkpt lat="41.09746" lon="39.46162">
        <ele>19.34813</ele>
        <time>2021-08-18T07:23:53.706Z</time>
      </trkpt>
      <trkpt lat="41.09818" lon="39.4591">
        <ele>21.186376</ele>
        <time>2021-08-18T07:25:11.716Z</time>
      </trkpt>
      <trkpt lat="41.09854" lon="39.45793">
        <ele>21.668507</ele>
        <time>2021-08-18T07:25:45.539Z</time>
      </trkpt>
      <trkpt lat="41.09884" lon="39.4556">
        <ele>21.285959</ele>
        <time>2021-08-18T07:26:37.206Z</time>
      </trkpt>
      <trkpt lat="41.09925" lon="39.45145">
        <ele>19.20806</ele>
        <time>2021-08-18T07:28:05.551Z</time>
      </trkpt>
      <trkpt lat="41.09943" lon="39.4502">
        <ele>18.547865</ele>
        <time>2021-08-18T07:28:32.338Z</time>
      </trkpt>
      <trkpt lat="41.09994" lon="39.44808">
        <ele>18.865291</ele>
        <time>2021-08-18T07:29:23.032Z</time>
      </trkpt>
      <trkpt lat="41.10089" lon="39.44553">
        <ele>25.450202</ele>
        <time>2021-08-18T07:31:01.136Z</time>
      </trkpt>
      <trkpt lat="41.10108" lon="39.44464">
        <ele>30.870072</ele>
        <time>2021-08-18T07:31:50.988Z</time>
      </trkpt>
      <trkpt lat="41.10112" lon="39.44421">
        <ele>33.468894</ele>
        <time>2021-08-18T07:32:18.512Z</time>
      </trkpt>
      <trkpt lat="41.10116" lon="39.44365">
        <ele>36.785604</ele>
        <time>2021-08-18T07:32:56.382Z</time>
      </trkpt>
      <trkpt lat="41.10113" lon="39.44314">
        <ele>40.14086</ele>
        <time>2021-08-18T07:33:32.332Z</time>
      </trkpt>
      <trkpt lat="41.10096" lon="39.44195">
        <ele>48.571972</ele>
        <time>2021-08-18T07:34:57.055Z</time>
      </trkpt>
      <trkpt lat="41.1002" lon="39.43941">
        <ele>60.781736</ele>
        <time>2021-08-18T07:37:15.027Z</time>
      </trkpt>
      <trkpt lat="41.10009" lon="39.43873">
        <ele>61.800533</ele>
        <time>2021-08-18T07:37:29.780Z</time>
      </trkpt>
      <trkpt lat="41.10008" lon="39.43807">
        <ele>59.694746</ele>
        <time>2021-08-18T07:37:41.393Z</time>
      </trkpt>
      <trkpt lat="41.10012" lon="39.43744">
        <ele>57.697893</ele>
        <time>2021-08-18T07:37:51.404Z</time>
      </trkpt>
      <trkpt lat="41.10048" lon="39.43503">
        <ele>46.378661</ele>
        <time>2021-08-18T07:38:28.825Z</time>
      </trkpt>
      <trkpt lat="41.10047" lon="39.43376">
        <ele>39.214978</ele>
        <time>2021-08-18T07:38:47.707Z</time>
      </trkpt>
      <trkpt lat="41.10034" lon="39.43114">
        <ele>25.477811</ele>
        <time>2021-08-18T07:39:26.742Z</time>
      </trkpt>
      <trkpt lat="41.10046" lon="39.4303">
        <ele>22.680053</ele>
        <time>2021-08-18T07:39:40.797Z</time>
      </trkpt>
      <trkpt lat="41.10074" lon="39.42941">
        <ele>19.824442</ele>
        <time>2021-08-18T07:39:58.628Z</time>
      </trkpt>
      <trkpt lat="41.1009" lon="39.42912">
        <ele>19.588687</ele>
        <time>2021-08-18T07:40:07.527Z</time>
      </trkpt>
      <trkpt lat="41.10134" lon="39.42851">
        <ele>19.037397</ele>
        <time>2021-08-18T07:40:25.988Z</time>
      </trkpt>
      <trkpt lat="41.1016" lon="39.4282">
        <ele>18.73842</ele>
        <time>2021-08-18T07:40:35.068Z</time>
      </trkpt>
      <trkpt lat="41.10228" lon="39.42748">
        <ele>18.596582</ele>
        <time>2021-08-18T07:40:58.548Z</time>
      </trkpt>
      <trkpt lat="41.10276" lon="39.42694">
        <ele>18.978222</ele>
        <time>2021-08-18T07:41:20.432Z</time>
      </trkpt>
      <trkpt lat="41.10307" lon="39.42666">
        <ele>19.205074</ele>
        <time>2021-08-18T07:41:34.664Z</time>
      </trkpt>
      <trkpt lat="41.10497" lon="39.42509">
        <ele>22.638336</ele>
        <time>2021-08-18T07:43:09.140Z</time>
      </trkpt>
      <trkpt lat="41.10536" lon="39.42448">
        <ele>22.382781</ele>
        <time>2021-08-18T07:43:29.917Z</time>
      </trkpt>
      <trkpt lat="41.10561" lon="39.42387">
        <ele>22.161633</ele>
        <time>2021-08-18T07:43:45.026Z</time>
      </trkpt>
      <trkpt lat="41.1068" lon="39.41994">
        <ele>17.623868</ele>
        <time>2021-08-18T07:45:03.978Z</time>
      </trkpt>
      <trkpt lat="41.10691" lon="39.41903">
        <ele>16.844357</ele>
        <time>2021-08-18T07:45:23.464Z</time>
      </trkpt>
      <trkpt lat="41.1069" lon="39.41856">
        <ele>16.484569</ele>
        <time>2021-08-18T07:45:34.110Z</time>
      </trkpt>
      <trkpt lat="41.10673" lon="39.41766">
        <ele>16.562339</ele>
        <time>2021-08-18T07:45:56.498Z</time>
      </trkpt>
      <trkpt lat="41.10659" lon="39.41719">
        <ele>16.604127</ele>
        <time>2021-08-18T07:46:08.426Z</time>
      </trkpt>
      <trkpt lat="41.10398" lon="39.40988">
        <ele>18.349935</ele>
        <time>2021-08-18T07:49:27.557Z</time>
      </trkpt>
      <trkpt lat="41.1036" lon="39.40897">
        <ele>18.720887</ele>
        <time>2021-08-18T07:49:58.453Z</time>
      </trkpt>
      <trkpt lat="41.10317" lon="39.40812">
        <ele>19.084883</ele>
        <time>2021-08-18T07:50:26.437Z</time>
      </trkpt>
      <trkpt lat="41.101" lon="39.40476">
        <ele>14.960754</ele>
        <time>2021-08-18T07:51:50.744Z</time>
      </trkpt>
      <trkpt lat="41.10023" lon="39.40336">
        <ele>15.666607</ele>
        <time>2021-08-18T07:52:31.245Z</time>
      </trkpt>
      <trkpt lat="41.10022" lon="39.40331">
        <ele>15.723831</ele>
        <time>2021-08-18T07:52:33.312Z</time>
      </trkpt>
      <trkpt lat="41.10012" lon="39.40317">
        <ele>15.949254</ele>
        <time>2021-08-18T07:52:38.572Z</time>
      </trkpt>
      <trkpt lat="41.10009" lon="39.40316">
        <ele>16.006866</ele>
        <time>2021-08-18T07:52:40.604Z</time>
      </trkpt>
      <trkpt lat="41.09951" lon="39.40256">
        <ele>17.161927</ele>
        <time>2021-08-18T07:53:15.206Z</time>
      </trkpt>
      <trkpt lat="41.09879" lon="39.40182">
        <ele>19.758138</ele>
        <time>2021-08-18T07:54:04.595Z</time>
      </trkpt>
      <trkpt lat="41.09845" lon="39.4014">
        <ele>21.09901</ele>
        <time>2021-08-18T07:54:27.340Z</time>
      </trkpt>
      <trkpt lat="41.09835" lon="39.40128">
        <ele>21.475857</ele>
        <time>2021-08-18T07:54:33.016Z</time>
      </trkpt>
      <trkpt lat="41.09646" lon="39.39935">
        <ele>24.451647</ele>
        <time>2021-08-18T07:55:59.178Z</time>
      </trkpt>
      <trkpt lat="41.09595" lon="39.39872">
        <ele>25.158031</ele>
        <time>2021-08-18T07:56:24.511Z</time>
      </trkpt>
      <trkpt lat="41.09549" lon="39.398">
        <ele>25.884729</ele>
        <time>2021-08-18T07:56:51.757Z</time>
      </trkpt>
      <trkpt lat="41.09386" lon="39.39463">
        <ele>27.280854</ele>
        <time>2021-08-18T07:58:38.853Z</time>
      </trkpt>
      <trkpt lat="41.09322" lon="39.39353">
        <ele>26.314324</ele>
        <time>2021-08-18T07:59:05.795Z</time>
      </trkpt>
      <trkpt lat="41.0904" lon="39.38945">
        <ele>16.456477</ele>
        <time>2021-08-18T08:00:44.207Z</time>
      </trkpt>
      <trkpt lat="41.08933" lon="39.38755">
        <ele>14.143703</ele>
        <time>2021-08-18T08:01:31.597Z</time>
      </trkpt>
      <trkpt lat="41.08929" lon="39.38751">
        <ele>14.108053</ele>
        <time>2021-08-18T08:01:34.182Z</time>
      </trkpt>
      <trkpt lat="41.08914" lon="39.38753">
        <ele>14.004969</ele>
        <time>2021-08-18T08:01:39.170Z</time>
      </trkpt>
      <trkpt lat="41.08908" lon="39.38764">
        <ele>13.93487</ele>
        <time>2021-08-18T08:01:41.624Z</time>
      </trkpt>
      <trkpt lat="41.08909" lon="39.38778">
        <ele>13.864444</ele>
        <time>2021-08-18T08:01:44.877Z</time>
      </trkpt>
      <trkpt lat="41.08912" lon="39.38783">
        <ele>13.829003</ele>
        <time>2021-08-18T08:01:47.390Z</time>
      </trkpt>
      <trkpt lat="41.08909" lon="39.38788">
        <ele>13.795397</ele>
        <time>2021-08-18T08:01:48.817Z</time>
      </trkpt>
      <trkpt lat="41.08891" lon="39.38761">
        <ele>13.608082</ele>
        <time>2021-08-18T08:01:56.033Z</time>
      </trkpt>
      <trkpt lat="41.0882" lon="39.38653">
        <ele>12.812713</ele>
        <time>2021-08-18T08:02:28.133Z</time>
      </trkpt>
      <trkpt lat="41.08808" lon="39.38635">
        <ele>12.678405</ele>
        <time>2021-08-18T08:02:33.250Z</time>
      </trkpt>
      <trkpt lat="41.08746" lon="39.38538">
        <ele>11.880841</ele>
        <time>2021-08-18T08:02:58.376Z</time>
      </trkpt>
      <trkpt lat="41.0874" lon="39.38528">
        <ele>11.783871</ele>
        <time>2021-08-18T08:03:00.833Z</time>
      </trkpt>
      <trkpt lat="41.08712" lon="39.38483">
        <ele>11.341454</ele>
        <time>2021-08-18T08:03:12.652Z</time>
      </trkpt>
      <trkpt lat="41.08642" lon="39.38365">
        <ele>10.163838</ele>
        <time>2021-08-18T08:03:44.015Z</time>
      </trkpt>
      <trkpt lat="41.086" lon="39.38292">
        <ele>9.351047</ele>
        <time>2021-08-18T08:04:02.202Z</time>
      </trkpt>
      <trkpt lat="41.08552" lon="39.38208">
        <ele>8.423239</ele>
        <time>2021-08-18T08:04:22.971Z</time>
      </trkpt>
      <trkpt lat="41.08446" lon="39.38026">
        <ele>7.197315</ele>
        <time>2021-08-18T08:05:10.250Z</time>
      </trkpt>
      <trkpt lat="41.08396" lon="39.37939">
        <ele>7.522833</ele>
        <time>2021-08-18T08:05:37.713Z</time>
      </trkpt>
      <trkpt lat="41.08394" lon="39.37936">
        <ele>7.549859</ele>
        <time>2021-08-18T08:05:38.934Z</time>
      </trkpt>
      <trkpt lat="41.08389" lon="39.37926">
        <ele>7.614301</ele>
        <time>2021-08-18T08:05:42.496Z</time>
      </trkpt>
      <trkpt lat="41.08358" lon="39.3787">
        <ele>8.006977</ele>
        <time>2021-08-18T08:06:01.255Z</time>
      </trkpt>
      <trkpt lat="41.08335" lon="39.37832">
        <ele>8.279429</ele>
        <time>2021-08-18T08:06:14.700Z</time>
      </trkpt>
      <trkpt lat="41.08301" lon="39.37773">
        <ele>8.838839</ele>
        <time>2021-08-18T08:06:36.968Z</time>
      </trkpt>
      <trkpt lat="41.08272" lon="39.37723">
        <ele>9.363658</ele>
        <time>2021-08-18T08:06:55.292Z</time>
      </trkpt>
      <trkpt lat="41.08257" lon="39.37696">
        <ele>9.65041</ele>
        <time>2021-08-18T08:07:04.646Z</time>
      </trkpt>
      <trkpt lat="41.08254" lon="39.37691">
        <ele>9.707094</ele>
        <time>2021-08-18T08:07:06.526Z</time>
      </trkpt>
      <trkpt lat="41.08233" lon="39.37654">
        <ele>10.084537</ele>
        <time>2021-08-18T08:07:18.998Z</time>
      </trkpt>
      <trkpt lat="41.08216" lon="39.37625">
        <ele>10.395294</ele>
        <time>2021-08-18T08:07:29.702Z</time>
      </trkpt>
      <trkpt lat="41.08134" lon="39.37483">
        <ele>11.445025</ele>
        <time>2021-08-18T08:08:16.310Z</time>
      </trkpt>
      <trkpt lat="41.08116" lon="39.37453">
        <ele>11.668329</ele>
        <time>2021-08-18T08:08:27.245Z</time>
      </trkpt>
      <trkpt lat="41.08122" lon="39.37448">
        <ele>11.728577</ele>
        <time>2021-08-18T08:08:29.357Z</time>
      </trkpt>
      <trkpt lat="41.0813" lon="39.37443">
        <ele>11.794696</ele>
        <time>2021-08-18T08:08:32.050Z</time>
      </trkpt>
      <trkpt lat="41.08137" lon="39.37437">
        <ele>11.932659</ele>
        <time>2021-08-18T08:08:36.235Z</time>
      </trkpt>
      <trkpt lat="41.08143" lon="39.37431">
        <ele>12.044079</ele>
        <time>2021-08-18T08:08:38.795Z</time>
      </trkpt>
      <trkpt lat="41.08129" lon="39.37408">
        <ele>12.384577</ele>
        <time>2021-08-18T08:08:46.064Z</time>
      </trkpt>
      <trkpt lat="41.08122" lon="39.37399">
        <ele>12.537042</ele>
        <time>2021-08-18T08:08:50.704Z</time>
      </trkpt>
      <trkpt lat="41.08051" lon="39.37299">
        <ele>14.149032</ele>
        <time>2021-08-18T08:09:30.416Z</time>
      </trkpt>
      <trkpt lat="41.07948" lon="39.37131">
        <ele>18.725401</ele>
        <time>2021-08-18T08:10:47.644Z</time>
      </trkpt>
      <trkpt lat="41.07886" lon="39.36998">
        <ele>22.749393</ele>
        <time>2021-08-18T08:11:50.375Z</time>
      </trkpt>
      <trkpt lat="41.07877" lon="39.36963">
        <ele>23.738623</ele>
        <time>2021-08-18T08:12:05.045Z</time>
      </trkpt>
      <trkpt lat="41.07872" lon="39.36896">
        <ele>25.588481</ele>
        <time>2021-08-18T08:12:32.543Z</time>
      </trkpt>
      <trkpt lat="41.07889" lon="39.36689">
        <ele>28.726262</ele>
        <time>2021-08-18T08:13:43.201Z</time>
      </trkpt>
      <trkpt lat="41.07887" lon="39.36612">
        <ele>29.440699</ele>
        <time>2021-08-18T08:14:01.316Z</time>
      </trkpt>
      <trkpt lat="41.07869" lon="39.36516">
        <ele>28.116004</ele>
        <time>2021-08-18T08:14:21.017Z</time>
      </trkpt>
      <trkpt lat="41.07805" lon="39.36304">
        <ele>24.413137</ele>
        <time>2021-08-18T08:15:01.566Z</time>
      </trkpt>
      <trkpt lat="41.07757" lon="39.36189">
        <ele>21.767295</ele>
        <time>2021-08-18T08:15:25.134Z</time>
      </trkpt>
      <trkpt lat="41.07701" lon="39.36069">
        <ele>18.908133</ele>
        <time>2021-08-18T08:15:49.860Z</time>
      </trkpt>
      <trkpt lat="41.0765" lon="39.35976">
        <ele>16.565244</ele>
        <time>2021-08-18T08:16:10.252Z</time>
      </trkpt>
      <trkpt lat="41.07526" lon="39.35771">
        <ele>12.77909</ele>
        <time>2021-08-18T08:16:58.201Z</time>
      </trkpt>
      <trkpt lat="41.07509" lon="39.35746">
        <ele>12.783598</ele>
        <time>2021-08-18T08:17:05.131Z</time>
      </trkpt>
      <trkpt lat="41.07507" lon="39.3574">
        <ele>12.78447</ele>
        <time>2021-08-18T08:17:06.574Z</time>
      </trkpt>
      <trkpt lat="41.07503" lon="39.35736">
        <ele>12.78533</ele>
        <time>2021-08-18T08:17:08.024Z</time>
      </trkpt>
      <trkpt lat="41.07385" lon="39.35566">
        <ele>13.754295</ele>
        <time>2021-08-18T08:18:10.175Z</time>
      </trkpt>
      <trkpt lat="41.07078" lon="39.35049">
        <ele>22.169424</ele>
        <time>2021-08-18T08:21:39.020Z</time>
      </trkpt>
      <trkpt lat="41.07031" lon="39.34927">
        <ele>21.494352</ele>
        <time>2021-08-18T08:22:10.442Z</time>
      </trkpt>
      <trkpt lat="41.06858" lon="39.3443">
        <ele>12.905835</ele>
        <time>2021-08-18T08:23:49.365Z</time>
      </trkpt>
      <trkpt lat="41.06801" lon="39.34246">
        <ele>10.607145</ele>
        <time>2021-08-18T08:24:27.371Z</time>
      </trkpt>
      <trkpt lat="41.06706" lon="39.33927">
        <ele>9.435506</ele>
        <time>2021-08-18T08:25:40.062Z</time>
      </trkpt>
      <trkpt lat="41.06688" lon="39.33876">
        <ele>10.079338</ele>
        <time>2021-08-18T08:25:57.183Z</time>
      </trkpt>
      <trkpt lat="41.06666" lon="39.33818">
        <ele>10.8088</ele>
        <time>2021-08-18T08:26:18.438Z</time>
      </trkpt>
      <trkpt lat="41.06613" lon="39.33696">
        <ele>12.327913</ele>
        <time>2021-08-18T08:27:07.876Z</time>
      </trkpt>
      <trkpt lat="41.06551" lon="39.33573">
        <ele>13.829089</ele>
        <time>2021-08-18T08:27:50.316Z</time>
      </trkpt>
      <trkpt lat="41.064" lon="39.33301">
        <ele>12.515988</ele>
        <time>2021-08-18T08:28:59.897Z</time>
      </trkpt>
      <trkpt lat="41.06377" lon="39.33246">
        <ele>12.335342</ele>
        <time>2021-08-18T08:29:13.118Z</time>
      </trkpt>
      <trkpt lat="41.06294" lon="39.33044">
        <ele>12.679582</ele>
        <time>2021-08-18T08:30:10.505Z</time>
      </trkpt>
      <trkpt lat="41.06257" lon="39.32927">
        <ele>13.246456</ele>
        <time>2021-08-18T08:30:46.517Z</time>
      </trkpt>
      <trkpt lat="41.06224" lon="39.32792">
        <ele>13.744279</ele>
        <time>2021-08-18T08:31:21.147Z</time>
      </trkpt>
      <trkpt lat="41.06205" lon="39.32667">
        <ele>14.515099</ele>
        <time>2021-08-18T08:31:53.250Z</time>
      </trkpt>
      <trkpt lat="41.06198" lon="39.32591">
        <ele>15.246334</ele>
        <time>2021-08-18T08:32:15.772Z</time>
      </trkpt>
      <trkpt lat="41.06197" lon="39.32583">
        <ele>15.316089</ele>
        <time>2021-08-18T08:32:17.768Z</time>
      </trkpt>
      <trkpt lat="41.06194" lon="39.32577">
        <ele>15.386588</ele>
        <time>2021-08-18T08:32:20.085Z</time>
      </trkpt>
      <trkpt lat="41.0619" lon="39.32572">
        <ele>15.457273</ele>
        <time>2021-08-18T08:32:22.010Z</time>
      </trkpt>
      <trkpt lat="41.06185" lon="39.32569">
        <ele>15.527838</ele>
        <time>2021-08-18T08:32:24.178Z</time>
      </trkpt>
      <trkpt lat="41.0618" lon="39.32569">
        <ele>15.597397</ele>
        <time>2021-08-18T08:32:26.954Z</time>
      </trkpt>
      <trkpt lat="41.0617" lon="39.32575">
        <ele>15.736567</ele>
        <time>2021-08-18T08:32:30.913Z</time>
      </trkpt>
      <trkpt lat="41.06166" lon="39.32582">
        <ele>15.80737</ele>
        <time>2021-08-18T08:32:33.372Z</time>
      </trkpt>
      <trkpt lat="41.06158" lon="39.32582">
        <ele>15.9189</ele>
        <time>2021-08-18T08:32:36.689Z</time>
      </trkpt>
      <trkpt lat="41.06141" lon="39.32597">
        <ele>16.175372</ele>
        <time>2021-08-18T08:32:45.342Z</time>
      </trkpt>
      <trkpt lat="41.0613" lon="39.3238">
        <ele>18.378049</ele>
        <time>2021-08-18T08:33:53.908Z</time>
      </trkpt>
      <trkpt lat="41.06125" lon="39.32042">
        <ele>17.095405</ele>
        <time>2021-08-18T08:35:05.038Z</time>
      </trkpt>
      <trkpt lat="41.06124" lon="39.31936">
        <ele>16.209671</ele>
        <time>2021-08-18T08:35:26.349Z</time>
      </trkpt>
      <trkpt lat="41.06112" lon="39.31852">
        <ele>15.474196</ele>
        <time>2021-08-18T08:35:43.208Z</time>
      </trkpt>
      <trkpt lat="41.06085" lon="39.31754">
        <ele>14.496842</ele>
        <time>2021-08-18T08:36:03.315Z</time>
      </trkpt>
      <trkpt lat="41.06047" lon="39.31664">
        <ele>13.543693</ele>
        <time>2021-08-18T08:36:23.457Z</time>
      </trkpt>
      <trkpt lat="41.05999" lon="39.31555">
        <ele>13.607225</ele>
        <time>2021-08-18T08:36:53.316Z</time>
      </trkpt>
      <trkpt lat="41.05962" lon="39.31577">
        <ele>13.684091</ele>
        <time>2021-08-18T08:37:07.050Z</time>
      </trkpt>
      <trkpt lat="41.05932" lon="39.31595">
        <ele>13.747967</ele>
        <time>2021-08-18T08:37:18.874Z</time>
      </trkpt>
      <trkpt lat="41.05917" lon="39.31572">
        <ele>13.815045</ele>
        <time>2021-08-18T08:37:27.729Z</time>
      </trkpt>
      <trkpt lat="41.05907" lon="39.31554">
        <ele>13.937852</ele>
        <time>2021-08-18T08:37:33.895Z</time>
      </trkpt>
      <trkpt lat="41.05878" lon="39.31501">
        <ele>14.302448</ele>
        <time>2021-08-18T08:37:53.433Z</time>
      </trkpt>
      <trkpt lat="41.05856" lon="39.3145">
        <ele>14.629852</ele>
        <time>2021-08-18T08:38:10.593Z</time>
      </trkpt>
      <trkpt lat="41.05831" lon="39.31398">
        <ele>14.966713</ele>
        <time>2021-08-18T08:38:26.190Z</time>
      </trkpt>
      <trkpt lat="41.05821" lon="39.31382">
        <ele>15.08449</ele>
        <time>2021-08-18T08:38:31.334Z</time>
      </trkpt>
      <trkpt lat="41.05802" lon="39.31347">
        <ele>15.127638</ele>
        <time>2021-08-18T08:38:42.208Z</time>
      </trkpt>
      <trkpt lat="41.05755" lon="39.31255">
        <ele>15.180714</ele>
        <time>2021-08-18T08:39:10.609Z</time>
      </trkpt>
      <trkpt lat="41.05726" lon="39.31205">
        <ele>15.210569</ele>
        <time>2021-08-18T08:39:26.265Z</time>
      </trkpt>
      <trkpt lat="41.05718" lon="39.3119">
        <ele>15.219237</ele>
        <time>2021-08-18T08:39:30.850Z</time>
      </trkpt>
      <trkpt lat="41.05713" lon="39.3118">
        <ele>15.180342</ele>
        <time>2021-08-18T08:39:33.863Z</time>
      </trkpt>
      <trkpt lat="41.05689" lon="39.31137">
        <ele>14.721818</ele>
        <time>2021-08-18T08:39:45.850Z</time>
      </trkpt>
      <trkpt lat="41.05636" lon="39.31012">
        <ele>13.497032</ele>
        <time>2021-08-18T08:40:15.438Z</time>
      </trkpt>
      <trkpt lat="41.05629" lon="39.30995">
        <ele>13.327805</ele>
        <time>2021-08-18T08:40:19.421Z</time>
      </trkpt>
      <trkpt lat="41.05619" lon="39.30969">
        <ele>13.015284</ele>
        <time>2021-08-18T08:40:25.206Z</time>
      </trkpt>
      <trkpt lat="41.0548" lon="39.30837">
        <ele>9.967253</ele>
        <time>2021-08-18T08:41:09.302Z</time>
      </trkpt>
      <trkpt lat="41.05453" lon="39.30812">
        <ele>10.288896</ele>
        <time>2021-08-18T08:41:18.502Z</time>
      </trkpt>
      <trkpt lat="41.0544" lon="39.30799">
        <ele>10.449498</ele>
        <time>2021-08-18T08:41:23.391Z</time>
      </trkpt>
      <trkpt lat="41.05411" lon="39.30754">
        <ele>10.899797</ele>
        <time>2021-08-18T08:41:39.267Z</time>
      </trkpt>
      <trkpt lat="41.05412" lon="39.30736">
        <ele>11.033435</ele>
        <time>2021-08-18T08:41:45.393Z</time>
      </trkpt>
      <trkpt lat="41.05414" lon="39.3073">
        <ele>11.088423</ele>
        <time>2021-08-18T08:41:47.197Z</time>
      </trkpt>
      <trkpt lat="41.05421" lon="39.30708">
        <ele>11.266021</ele>
        <time>2021-08-18T08:41:54.640Z</time>
      </trkpt>
      <trkpt lat="41.05426" lon="39.30692">
        <ele>11.393465</ele>
        <time>2021-08-18T08:42:00.997Z</time>
      </trkpt>
      <trkpt lat="41.05423" lon="39.30678">
        <ele>11.504151</ele>
        <time>2021-08-18T08:42:04.919Z</time>
      </trkpt>
      <trkpt lat="41.0541" lon="39.30648">
        <ele>11.774541</ele>
        <time>2021-08-18T08:42:17.935Z</time>
      </trkpt>
      <trkpt lat="41.05405" lon="39.30637">
        <ele>12.150114</ele>
        <time>2021-08-18T08:42:21.757Z</time>
      </trkpt>
      <trkpt lat="41.05404" lon="39.30615">
        <ele>12.80205</ele>
        <time>2021-08-18T08:42:30.574Z</time>
      </trkpt>
      <trkpt lat="41.05406" lon="39.30607">
        <ele>13.056594</ele>
        <time>2021-08-18T08:42:34.850Z</time>
      </trkpt>
      <trkpt lat="41.05403" lon="39.30574">
        <ele>14.017781</ele>
        <time>2021-08-18T08:42:47.665Z</time>
      </trkpt>
      <trkpt lat="41.05388" lon="39.30542">
        <ele>15.12215</ele>
        <time>2021-08-18T08:43:02.443Z</time>
      </trkpt>
      <trkpt lat="41.05387" lon="39.30541">
        <ele>15.195577</ele>
        <time>2021-08-18T08:43:04.636Z</time>
      </trkpt>
      <trkpt lat="41.05376" lon="39.3053">
        <ele>15.728772</ele>
        <time>2021-08-18T08:43:12.342Z</time>
      </trkpt>
      <trkpt lat="41.05336" lon="39.30495">
        <ele>17.619743</ele>
        <time>2021-08-18T08:43:39.249Z</time>
      </trkpt>
      <trkpt lat="41.0531" lon="39.30472">
        <ele>18.809727</ele>
        <time>2021-08-18T08:43:56.763Z</time>
      </trkpt>
      <trkpt lat="41.05291" lon="39.30456">
        <ele>19.244625</ele>
        <time>2021-08-18T08:44:09.216Z</time>
      </trkpt>
      <trkpt lat="41.05277" lon="39.30442">
        <ele>19.592607</ele>
        <time>2021-08-18T08:44:15.965Z</time>
      </trkpt>
      <trkpt lat="41.05248" lon="39.30386">
        <ele>20.611132</ele>
        <time>2021-08-18T08:44:40.045Z</time>
      </trkpt>
      <trkpt lat="41.05204" lon="39.30334">
        <ele>21.770982</ele>
        <time>2021-08-18T08:45:01.182Z</time>
      </trkpt>
      <trkpt lat="41.05197" lon="39.30313">
        <ele>22.101229</ele>
        <time>2021-08-18T08:45:08.464Z</time>
      </trkpt>
      <trkpt lat="41.05197" lon="39.30311">
        <ele>22.135388</ele>
        <time>2021-08-18T08:45:08.785Z</time>
      </trkpt>
      <trkpt lat="41.05189" lon="39.30236">
        <ele>22.216349</ele>
        <time>2021-08-18T08:45:27.028Z</time>
      </trkpt>
      <trkpt lat="41.05161" lon="39.30157">
        <ele>22.051418</ele>
        <time>2021-08-18T08:45:46.572Z</time>
      </trkpt>
      <trkpt lat="41.05158" lon="39.30153">
        <ele>22.040291</ele>
        <time>2021-08-18T08:45:47.583Z</time>
      </trkpt>
      <trkpt lat="41.05156" lon="39.30148">
        <ele>22.028868</ele>
        <time>2021-08-18T08:45:49.666Z</time>
      </trkpt>
      <trkpt lat="41.05139" lon="39.30134">
        <ele>21.978591</ele>
        <time>2021-08-18T08:45:55.079Z</time>
      </trkpt>
      <trkpt lat="41.05106" lon="39.3012">
        <ele>21.890183</ele>
        <time>2021-08-18T08:46:04.795Z</time>
      </trkpt>
      <trkpt lat="41.0508" lon="39.30075">
        <ele>21.790342</ele>
        <time>2021-08-18T08:46:16.594Z</time>
      </trkpt>
      <trkpt lat="41.05073" lon="39.30044">
        <ele>21.732697</ele>
        <time>2021-08-18T08:46:23.202Z</time>
      </trkpt>
      <trkpt lat="41.0507" lon="39.3003">
        <ele>21.706457</ele>
        <time>2021-08-18T08:46:26.596Z</time>
      </trkpt>
      <trkpt lat="41.05068" lon="39.30024">
        <ele>21.695887</ele>
        <time>2021-08-18T08:46:27.615Z</time>
      </trkpt>
      <trkpt lat="41.0505" lon="39.29966">
        <ele>21.582813</ele>
        <time>2021-08-18T08:46:42.727Z</time>
      </trkpt>
      <trkpt lat="41.05028" lon="39.29925">
        <ele>21.494629</ele>
        <time>2021-08-18T08:46:54.910Z</time>
      </trkpt>
      <trkpt lat="41.05018" lon="39.29893">
        <ele>21.507708</ele>
        <time>2021-08-18T08:47:04.564Z</time>
      </trkpt>
      <trkpt lat="41.05018" lon="39.29879">
        <ele>21.55576</ele>
        <time>2021-08-18T08:47:07.620Z</time>
      </trkpt>
      <trkpt lat="41.0502" lon="39.29865">
        <ele>21.602221</ele>
        <time>2021-08-18T08:47:11.372Z</time>
      </trkpt>
      <trkpt lat="41.05019" lon="39.29838">
        <ele>21.696961</ele>
        <time>2021-08-18T08:47:18.145Z</time>
      </trkpt>
      <trkpt lat="41.05008" lon="39.29821">
        <ele>21.772209</ele>
        <time>2021-08-18T08:47:23.560Z</time>
      </trkpt>
      <trkpt lat="41.05" lon="39.29817">
        <ele>21.815135</ele>
        <time>2021-08-18T08:47:26.849Z</time>
      </trkpt>
      <trkpt lat="41.04994" lon="39.29819">
        <ele>21.839684</ele>
        <time>2021-08-18T08:47:29.306Z</time>
      </trkpt>
      <trkpt lat="41.04975" lon="39.298">
        <ele>21.950519</ele>
        <time>2021-08-18T08:47:36.889Z</time>
      </trkpt>
      <trkpt lat="41.04972" lon="39.2978">
        <ele>22.018567</ele>
        <time>2021-08-18T08:47:42.312Z</time>
      </trkpt>
      <trkpt lat="41.04979" lon="39.29712">
        <ele>22.254995</ele>
        <time>2021-08-18T08:47:59.733Z</time>
      </trkpt>
      <trkpt lat="41.04982" lon="39.29683">
        <ele>22.239784</ele>
        <time>2021-08-18T08:48:07.793Z</time>
      </trkpt>
      <trkpt lat="41.04979" lon="39.29651">
        <ele>22.189967</ele>
        <time>2021-08-18T08:48:15.722Z</time>
      </trkpt>
      <trkpt lat="41.04959" lon="39.29609">
        <ele>22.113778</ele>
        <time>2021-08-18T08:48:27.225Z</time>
      </trkpt>
      <trkpt lat="41.04957" lon="39.29596">
        <ele>22.092659</ele>
        <time>2021-08-18T08:48:29.985Z</time>
      </trkpt>
      <trkpt lat="41.04963" lon="39.29514">
        <ele>21.964642</ele>
        <time>2021-08-18T08:48:47.168Z</time>
      </trkpt>
      <trkpt lat="41.0494" lon="39.29472">
        <ele>21.910378</ele>
        <time>2021-08-18T08:48:58.875Z</time>
      </trkpt>
      <trkpt lat="41.04936" lon="39.2946">
        <ele>21.914264</ele>
        <time>2021-08-18T08:49:01.621Z</time>
      </trkpt>
      <trkpt lat="41.04934" lon="39.29453">
        <ele>21.916314</ele>
        <time>2021-08-18T08:49:03.333Z</time>
      </trkpt>
      <trkpt lat="41.04933" lon="39.29439">
        <ele>21.920385</ele>
        <time>2021-08-18T08:49:06.768Z</time>
      </trkpt>
      <trkpt lat="41.04932" lon="39.29433">
        <ele>21.922069</ele>
        <time>2021-08-18T08:49:08.362Z</time>
      </trkpt>
      <trkpt lat="41.04933" lon="39.29402">
        <ele>21.931151</ele>
        <time>2021-08-18T08:49:15.840Z</time>
      </trkpt>
      <trkpt lat="41.04935" lon="39.29379">
        <ele>21.937623</ele>
        <time>2021-08-18T08:49:22.027Z</time>
      </trkpt>
      <trkpt lat="41.04937" lon="39.29354">
        <ele>21.944933</ele>
        <time>2021-08-18T08:49:27.859Z</time>
      </trkpt>
      <trkpt lat="41.04937" lon="39.29344">
        <ele>21.947739</ele>
        <time>2021-08-18T08:49:30.503Z</time>
      </trkpt>
      <trkpt lat="41.04937" lon="39.29332">
        <ele>21.951259</ele>
        <time>2021-08-18T08:49:34.415Z</time>
      </trkpt>
      <trkpt lat="41.04935" lon="39.29317">
        <ele>21.9555</ele>
        <time>2021-08-18T08:49:37.364Z</time>
      </trkpt>
      <trkpt lat="41.04932" lon="39.29295">
        <ele>21.961991</ele>
        <time>2021-08-18T08:49:43.424Z</time>
      </trkpt>
      <trkpt lat="41.0493" lon="39.29286">
        <ele>21.964657</ele>
        <time>2021-08-18T08:49:46.551Z</time>
      </trkpt>
      <trkpt lat="41.04917" lon="39.2923">
        <ele>21.746722</ele>
        <time>2021-08-18T08:49:59.559Z</time>
      </trkpt>
      <trkpt lat="41.0489" lon="39.29171">
        <ele>21.088314</ele>
        <time>2021-08-18T08:50:13.740Z</time>
      </trkpt>
      <trkpt lat="41.04882" lon="39.2916">
        <ele>20.941232</ele>
        <time>2021-08-18T08:50:18.285Z</time>
      </trkpt>
      <trkpt lat="41.04874" lon="39.29149">
        <ele>20.793472</ele>
        <time>2021-08-18T08:50:20.859Z</time>
      </trkpt>
      <trkpt lat="41.04842" lon="39.29106">
        <ele>20.217736</ele>
        <time>2021-08-18T08:50:31.511Z</time>
      </trkpt>
      <trkpt lat="41.04832" lon="39.29087">
        <ele>19.986094</ele>
        <time>2021-08-18T08:50:36.673Z</time>
      </trkpt>
      <trkpt lat="41.04826" lon="39.29072">
        <ele>19.830262</ele>
        <time>2021-08-18T08:50:39.293Z</time>
      </trkpt>
      <trkpt lat="41.04822" lon="39.29029">
        <ele>20.252873</ele>
        <time>2021-08-18T08:50:47.932Z</time>
      </trkpt>
      <trkpt lat="41.04829" lon="39.28988">
        <ele>21.073726</ele>
        <time>2021-08-18T08:50:57.591Z</time>
      </trkpt>
      <trkpt lat="41.04836" lon="39.28977">
        <ele>21.348539</ele>
        <time>2021-08-18T08:51:00.070Z</time>
      </trkpt>
      <trkpt lat="41.04846" lon="39.28963">
        <ele>21.724389</ele>
        <time>2021-08-18T08:51:06.228Z</time>
      </trkpt>
      <trkpt lat="41.04867" lon="39.28942">
        <ele>22.428532</ele>
        <time>2021-08-18T08:51:16.639Z</time>
      </trkpt>
      <trkpt lat="41.04828" lon="39.2885">
        <ele>24.720053</ele>
        <time>2021-08-18T08:52:08.112Z</time>
      </trkpt>
      <trkpt lat="41.04819" lon="39.28829">
        <ele>26.147839</ele>
        <time>2021-08-18T08:52:23.105Z</time>
      </trkpt>
      <trkpt lat="41.04795" lon="39.28766">
        <ele>30.255158</ele>
        <time>2021-08-18T08:53:05.958Z</time>
      </trkpt>
      <trkpt lat="41.04783" lon="39.28741">
        <ele>32.045268</ele>
        <time>2021-08-18T08:53:29.553Z</time>
      </trkpt>
      <trkpt lat="41.04738" lon="39.28644">
        <ele>38.355305</ele>
        <time>2021-08-18T08:54:33.384Z</time>
      </trkpt>
      <trkpt lat="41.04715" lon="39.28603">
        <ele>38.299112</ele>
        <time>2021-08-18T08:54:55.148Z</time>
      </trkpt>
      <trkpt lat="41.04707" lon="39.28589">
        <ele>38.279557</ele>
        <time>2021-08-18T08:55:04.361Z</time>
      </trkpt>
      <trkpt lat="41.04725" lon="39.28558">
        <ele>38.235951</ele>
        <time>2021-08-18T08:55:13.398Z</time>
      </trkpt>
      <trkpt lat="41.04739" lon="39.28541">
        <ele>38.208405</ele>
        <time>2021-08-18T08:55:18.811Z</time>
      </trkpt>
      <trkpt lat="41.04729" lon="39.28504">
        <ele>38.164639</ele>
        <time>2021-08-18T08:55:26.283Z</time>
      </trkpt>
      <trkpt lat="41.04721" lon="39.28483">
        <ele>38.13923</ele>
        <time>2021-08-18T08:55:30.111Z</time>
      </trkpt>
      <trkpt lat="41.04793" lon="39.2842">
        <ele>34.061844</ele>
        <time>2021-08-18T08:55:48.704Z</time>
      </trkpt>
      <trkpt lat="41.04807" lon="39.28399">
        <ele>32.599844</ele>
        <time>2021-08-18T08:55:53.061Z</time>
      </trkpt>
      <trkpt lat="41.04814" lon="39.2838">
        <ele>31.466284</ele>
        <time>2021-08-18T08:55:56.372Z</time>
      </trkpt>
      <trkpt lat="41.04821" lon="39.28348">
        <ele>29.746485</ele>
        <time>2021-08-18T08:56:01.412Z</time>
      </trkpt>
      <trkpt lat="41.04833" lon="39.28278">
        <ele>25.986941</ele>
        <time>2021-08-18T08:56:12.703Z</time>
      </trkpt>
      <trkpt lat="41.04835" lon="39.28251">
        <ele>24.784042</ele>
        <time>2021-08-18T08:56:17.022Z</time>
      </trkpt>
      <trkpt lat="41.04854" lon="39.28239">
        <ele>23.660092</ele>
        <time>2021-08-18T08:56:21.503Z</time>
      </trkpt>
      <trkpt lat="41.0487" lon="39.28231">
        <ele>22.718536</ele>
        <time>2021-08-18T08:56:25.175Z</time>
      </trkpt>
      <trkpt lat="41.04879" lon="39.28228">
        <ele>22.239452</ele>
        <time>2021-08-18T08:56:27.084Z</time>
      </trkpt>
      <trkpt lat="41.04877" lon="39.28199">
        <ele>21.027865</ele>
        <time>2021-08-18T08:56:31.721Z</time>
      </trkpt>
      <trkpt lat="41.04867" lon="39.28039">
        <ele>15.295217</ele>
        <time>2021-08-18T08:56:57.785Z</time>
      </trkpt>
      <trkpt lat="41.04855" lon="39.27862">
        <ele>12.034817</ele>
        <time>2021-08-18T08:57:30.762Z</time>
      </trkpt>
      <trkpt lat="41.04854" lon="39.27847">
        <ele>11.754033</ele>
        <time>2021-08-18T08:57:33.732Z</time>
      </trkpt>
      <trkpt lat="41.04852" lon="39.27821">
        <ele>11.531369</ele>
        <time>2021-08-18T08:57:38.736Z</time>
      </trkpt>
      <trkpt lat="41.0485" lon="39.27798">
        <ele>11.525651</ele>
        <time>2021-08-18T08:57:43.400Z</time>
      </trkpt>
      <trkpt lat="41.04846" lon="39.27741">
        <ele>11.51165</ele>
        <time>2021-08-18T08:57:54.913Z</time>
      </trkpt>
      <trkpt lat="41.04845" lon="39.27705">
        <ele>11.502846</ele>
        <time>2021-08-18T08:58:03.171Z</time>
      </trkpt>
      <trkpt lat="41.04836" lon="39.27551">
        <ele>12.390986</ele>
        <time>2021-08-18T08:58:46.195Z</time>
      </trkpt>
      <trkpt lat="41.04832" lon="39.27487">
        <ele>13.665772</ele>
        <time>2021-08-18T08:59:09.126Z</time>
      </trkpt>
      <trkpt lat="41.04824" lon="39.27381">
        <ele>15.758548</ele>
        <time>2021-08-18T08:59:48.818Z</time>
      </trkpt>
      <trkpt lat="41.04815" lon="39.27257">
        <ele>18.092038</ele>
        <time>2021-08-18T09:00:35.459Z</time>
      </trkpt>
      <trkpt lat="41.04776" lon="39.26773">
        <ele>24.549129</ele>
        <time>2021-08-18T09:03:07.615Z</time>
      </trkpt>
      <trkpt lat="41.0477" lon="39.26758">
        <ele>24.646639</ele>
        <time>2021-08-18T09:03:12.267Z</time>
      </trkpt>
      <trkpt lat="41.04766" lon="39.2672">
        <ele>24.860137</ele>
        <time>2021-08-18T09:03:22.350Z</time>
      </trkpt>
      <trkpt lat="41.04741" lon="39.26436">
        <ele>23.430006</ele>
        <time>2021-08-18T09:04:21.469Z</time>
      </trkpt>
      <trkpt lat="41.04739" lon="39.26418">
        <ele>23.273033</ele>
        <time>2021-08-18T09:04:24.879Z</time>
      </trkpt>
      <trkpt lat="41.04723" lon="39.26312">
        <ele>21.602147</ele>
        <time>2021-08-18T09:04:44.584Z</time>
      </trkpt>
      <trkpt lat="41.0471" lon="39.26188">
        <ele>19.632272</ele>
        <time>2021-08-18T09:05:07.402Z</time>
      </trkpt>
      <trkpt lat="41.04708" lon="39.26154">
        <ele>19.164895</ele>
        <time>2021-08-18T09:05:13.736Z</time>
      </trkpt>
      <trkpt lat="41.04701" lon="39.2604">
        <ele>17.709248</ele>
        <time>2021-08-18T09:05:35.336Z</time>
      </trkpt>
      <trkpt lat="41.04698" lon="39.25895">
        <ele>15.969066</ele>
        <time>2021-08-18T09:06:04.206Z</time>
      </trkpt>
      <trkpt lat="41.04699" lon="39.25668">
        <ele>13.465217</ele>
        <time>2021-08-18T09:06:48.928Z</time>
      </trkpt>
      <trkpt lat="41.04699" lon="39.25651">
        <ele>13.203881</ele>
        <time>2021-08-18T09:06:52.200Z</time>
      </trkpt>
      <trkpt lat="41.04699" lon="39.25587">
        <ele>12.205197</ele>
        <time>2021-08-18T09:07:04.285Z</time>
      </trkpt>
      <trkpt lat="41.04705" lon="39.25278">
        <ele>7.088902</ele>
        <time>2021-08-18T09:07:59.820Z</time>
      </trkpt>
      <trkpt lat="41.04715" lon="39.25176">
        <ele>5.749959</ele>
        <time>2021-08-18T09:08:19.266Z</time>
      </trkpt>
      <trkpt lat="41.04744" lon="39.25028">
        <ele>4.435125</ele>
        <time>2021-08-18T09:08:50.171Z</time>
      </trkpt>
      <trkpt lat="41.04768" lon="39.24944">
        <ele>4.064689</ele>
        <time>2021-08-18T09:09:10.086Z</time>
      </trkpt>
      <trkpt lat="41.0485" lon="39.24664">
        <ele>3.925418</ele>
        <time>2021-08-18T09:10:20.105Z</time>
      </trkpt>
      <trkpt lat="41.04863" lon="39.24619">
        <ele>3.961041</ele>
        <time>2021-08-18T09:10:31.784Z</time>
      </trkpt>
      <trkpt lat="41.04896" lon="39.24501">
        <ele>4.104365</ele>
        <time>2021-08-18T09:11:03.020Z</time>
      </trkpt>
      <trkpt lat="41.04983" lon="39.24168">
        <ele>4.716841</ele>
        <time>2021-08-18T09:12:29.400Z</time>
      </trkpt>
      <trkpt lat="41.05026" lon="39.2403">
        <ele>5.007288</ele>
        <time>2021-08-18T09:13:05.678Z</time>
      </trkpt>
      <trkpt lat="41.05115" lon="39.23775">
        <ele>5.730931</ele>
        <time>2021-08-18T09:14:15.339Z</time>
      </trkpt>
      <trkpt lat="41.05128" lon="39.23736">
        <ele>5.868017</ele>
        <time>2021-08-18T09:14:26.139Z</time>
      </trkpt>
      <trkpt lat="41.05298" lon="39.23255">
        <ele>8.306938</ele>
        <time>2021-08-18T09:16:46.425Z</time>
      </trkpt>
      <trkpt lat="41.0531" lon="39.23223">
        <ele>8.394358</ele>
        <time>2021-08-18T09:16:55.554Z</time>
      </trkpt>
      <trkpt lat="41.05451" lon="39.22821">
        <ele>7.755893</ele>
        <time>2021-08-18T09:18:35.742Z</time>
      </trkpt>
      <trkpt lat="41.05457" lon="39.22802">
        <ele>7.713559</ele>
        <time>2021-08-18T09:18:40.308Z</time>
      </trkpt>
      <trkpt lat="41.05526" lon="39.22605">
        <ele>7.312159</ele>
        <time>2021-08-18T09:19:28.595Z</time>
      </trkpt>
      <trkpt lat="41.05583" lon="39.22471">
        <ele>7.616064</ele>
        <time>2021-08-18T09:20:05.746Z</time>
      </trkpt>
      <trkpt lat="41.05643" lon="39.22362">
        <ele>7.944209</ele>
        <time>2021-08-18T09:20:41.580Z</time>
      </trkpt>
      <trkpt lat="41.05666" lon="39.2233">
        <ele>8.030312</ele>
        <time>2021-08-18T09:20:53.039Z</time>
      </trkpt>
      <trkpt lat="41.05732" lon="39.22223">
        <ele>8.299286</ele>
        <time>2021-08-18T09:21:26.273Z</time>
      </trkpt>
      <trkpt lat="41.05737" lon="39.22218">
        <ele>8.31491</ele>
        <time>2021-08-18T09:21:28.070Z</time>
      </trkpt>
      <trkpt lat="41.05793" lon="39.2215">
        <ele>8.567877</ele>
        <time>2021-08-18T09:21:51.255Z</time>
      </trkpt>
      <trkpt lat="41.05818" lon="39.22126">
        <ele>8.677176</ele>
        <time>2021-08-18T09:22:00.984Z</time>
      </trkpt>
      <trkpt lat="41.05837" lon="39.22106">
        <ele>8.764646</ele>
        <time>2021-08-18T09:22:08.953Z</time>
      </trkpt>
      <trkpt lat="41.05872" lon="39.22065">
        <ele>8.927954</ele>
        <time>2021-08-18T09:22:24.102Z</time>
      </trkpt>
      <trkpt lat="41.05886" lon="39.22047">
        <ele>9.0429</ele>
        <time>2021-08-18T09:22:31.475Z</time>
      </trkpt>
      <trkpt lat="41.0597" lon="39.21951">
        <ele>10.902125</ele>
        <time>2021-08-18T09:23:17.977Z</time>
      </trkpt>
      <trkpt lat="41.06036" lon="39.21882">
        <ele>12.110606</ele>
        <time>2021-08-18T09:23:53.287Z</time>
      </trkpt>
      <trkpt lat="41.06048" lon="39.2187">
        <ele>12.182065</ele>
        <time>2021-08-18T09:23:59.141Z</time>
      </trkpt>
      <trkpt lat="41.06063" lon="39.21854">
        <ele>12.279573</ele>
        <time>2021-08-18T09:24:06.189Z</time>
      </trkpt>
      <trkpt lat="41.06136" lon="39.21789">
        <ele>12.724233</ele>
        <time>2021-08-18T09:24:35.309Z</time>
      </trkpt>
      <trkpt lat="41.06192" lon="39.2173">
        <ele>13.59156</ele>
        <time>2021-08-18T09:24:54.910Z</time>
      </trkpt>
      <trkpt lat="41.062" lon="39.21723">
        <ele>13.778459</ele>
        <time>2021-08-18T09:24:57.814Z</time>
      </trkpt>
      <trkpt lat="41.06264" lon="39.21669">
        <ele>15.34019</ele>
        <time>2021-08-18T09:25:28.615Z</time>
      </trkpt>
      <trkpt lat="41.06275" lon="39.21658">
        <ele>15.617706</ele>
        <time>2021-08-18T09:25:35.083Z</time>
      </trkpt>
      <trkpt lat="41.06271" lon="39.21626">
        <ele>16.117246</ele>
        <time>2021-08-18T09:25:48.294Z</time>
      </trkpt>
      <trkpt lat="41.06274" lon="39.21579">
        <ele>17.329765</ele>
        <time>2021-08-18T09:26:08.574Z</time>
      </trkpt>
      <trkpt lat="41.06276" lon="39.21561">
        <ele>18.205048</ele>
        <time>2021-08-18T09:26:17.332Z</time>
      </trkpt>
      <trkpt lat="41.06279" lon="39.21531">
        <ele>19.584268</ele>
        <time>2021-08-18T09:26:30.797Z</time>
      </trkpt>
      <trkpt lat="41.06278" lon="39.21523">
        <ele>19.96257</ele>
        <time>2021-08-18T09:26:35.169Z</time>
      </trkpt>
      <trkpt lat="41.06265" lon="39.21462">
        <ele>22.912756</ele>
        <time>2021-08-18T09:27:06.961Z</time>
      </trkpt>
      <trkpt lat="41.06259" lon="39.21453">
        <ele>23.442205</ele>
        <time>2021-08-18T09:27:13.551Z</time>
      </trkpt>
      <trkpt lat="41.06246" lon="39.21436">
        <ele>24.567451</ele>
        <time>2021-08-18T09:27:27.574Z</time>
      </trkpt>
      <trkpt lat="41.06231" lon="39.21403">
        <ele>26.374839</ele>
        <time>2021-08-18T09:27:48.070Z</time>
      </trkpt>
      <trkpt lat="41.06223" lon="39.21349">
        <ele>28.785075</ele>
        <time>2021-08-18T09:28:16.840Z</time>
      </trkpt>
      <trkpt lat="41.06201" lon="39.21244">
        <ele>33.365414</ele>
        <time>2021-08-18T09:29:09.692Z</time>
      </trkpt>
      <trkpt lat="41.0622" lon="39.21243">
        <ele>34.448301</ele>
        <time>2021-08-18T09:29:20.938Z</time>
      </trkpt>
      <trkpt lat="41.06233" lon="39.21238">
        <ele>35.191866</ele>
        <time>2021-08-18T09:29:28.676Z</time>
      </trkpt>
      <trkpt lat="41.06249" lon="39.2122">
        <ele>36.34753</ele>
        <time>2021-08-18T09:29:40.647Z</time>
      </trkpt>
      <trkpt lat="41.06274" lon="39.21195">
        <ele>37.955391</ele>
        <time>2021-08-18T09:29:58.385Z</time>
      </trkpt>
      <trkpt lat="41.06288" lon="39.21176">
        <ele>38.7718</ele>
        <time>2021-08-18T09:30:10.044Z</time>
      </trkpt>
      <trkpt lat="41.06341" lon="39.2112">
        <ele>41.470374</ele>
        <time>2021-08-18T09:30:47.173Z</time>
      </trkpt>
      <trkpt lat="41.0636" lon="39.21099">
        <ele>42.46571</ele>
        <time>2021-08-18T09:31:00.040Z</time>
      </trkpt>
      <trkpt lat="41.064" lon="39.21052">
        <ele>44.606497</ele>
        <time>2021-08-18T09:31:29.025Z</time>
      </trkpt>
      <trkpt lat="41.06437" lon="39.21004">
        <ele>45.809784</ele>
        <time>2021-08-18T09:31:53.196Z</time>
      </trkpt>
      <trkpt lat="41.06454" lon="39.20967">
        <ele>46.48675</ele>
        <time>2021-08-18T09:32:06.816Z</time>
      </trkpt>
      <trkpt lat="41.06462" lon="39.20954">
        <ele>46.746262</ele>
        <time>2021-08-18T09:32:12.228Z</time>
      </trkpt>
      <trkpt lat="41.06489" lon="39.20906">
        <ele>47.676961</ele>
        <time>2021-08-18T09:32:29.498Z</time>
      </trkpt>
      <trkpt lat="41.0652" lon="39.20849">
        <ele>48.734913</ele>
        <time>2021-08-18T09:32:50.277Z</time>
      </trkpt>
      <trkpt lat="41.06521" lon="39.20846">
        <ele>48.770041</ele>
        <time>2021-08-18T09:32:51.132Z</time>
      </trkpt>
      <trkpt lat="41.06539" lon="39.20811">
        <ele>49.267705</ele>
        <time>2021-08-18T09:33:04.011Z</time>
      </trkpt>
      <trkpt lat="41.06558" lon="39.2077">
        <ele>49.84684</ele>
        <time>2021-08-18T09:33:20.139Z</time>
      </trkpt>
      <trkpt lat="41.06571" lon="39.20742">
        <ele>50.234954</ele>
        <time>2021-08-18T09:33:30.242Z</time>
      </trkpt>
      <trkpt lat="41.06577" lon="39.20728">
        <ele>50.4215</ele>
        <time>2021-08-18T09:33:35.386Z</time>
      </trkpt>
      <trkpt lat="41.06585" lon="39.20694">
        <ele>50.851386</ele>
        <time>2021-08-18T09:33:45.487Z</time>
      </trkpt>
      <trkpt lat="41.06591" lon="39.2067">
        <ele>51.148499</ele>
        <time>2021-08-18T09:33:53.562Z</time>
      </trkpt>
      <trkpt lat="41.06592" lon="39.20611">
        <ele>51.024707</ele>
        <time>2021-08-18T09:34:09.861Z</time>
      </trkpt>
      <trkpt lat="41.06595" lon="39.20569">
        <ele>50.566097</ele>
        <time>2021-08-18T09:34:21.972Z</time>
      </trkpt>
      <trkpt lat="41.06598" lon="39.20492">
        <ele>49.736985</ele>
        <time>2021-08-18T09:34:37.353Z</time>
      </trkpt>
      <trkpt lat="41.06602" lon="39.20441">
        <ele>49.185624</ele>
        <time>2021-08-18T09:34:46.040Z</time>
      </trkpt>
      <trkpt lat="41.06614" lon="39.2041">
        <ele>48.721268</ele>
        <time>2021-08-18T09:34:52.213Z</time>
      </trkpt>
      <trkpt lat="41.06632" lon="39.20382">
        <ele>47.25379</ele>
        <time>2021-08-18T09:34:58.035Z</time>
      </trkpt>
      <trkpt lat="41.06645" lon="39.20364">
        <ele>46.213901</ele>
        <time>2021-08-18T09:35:01.845Z</time>
      </trkpt>
      <trkpt lat="41.06664" lon="39.2033">
        <ele>44.536199</ele>
        <time>2021-08-18T09:35:08.290Z</time>
      </trkpt>
      <trkpt lat="41.06669" lon="39.20287">
        <ele>42.761952</ele>
        <time>2021-08-18T09:35:15.404Z</time>
      </trkpt>
      <trkpt lat="41.06669" lon="39.20285">
        <ele>42.687761</ele>
        <time>2021-08-18T09:35:15.649Z</time>
      </trkpt>
      <trkpt lat="41.0668" lon="39.20175">
        <ele>38.811928</ele>
        <time>2021-08-18T09:35:33.056Z</time>
      </trkpt>
      <trkpt lat="41.06699" lon="39.20134">
        <ele>37.972587</ele>
        <time>2021-08-18T09:35:41.305Z</time>
      </trkpt>
      <trkpt lat="41.06722" lon="39.20112">
        <ele>37.336945</ele>
        <time>2021-08-18T09:35:47.805Z</time>
      </trkpt>
      <trkpt lat="41.06804" lon="39.20085">
        <ele>35.412113</ele>
        <time>2021-08-18T09:36:10.563Z</time>
      </trkpt>
      <trkpt lat="41.06818" lon="39.20067">
        <ele>35.330153</ele>
        <time>2021-08-18T09:36:16.696Z</time>
      </trkpt>
      <trkpt lat="41.06831" lon="39.20036">
        <ele>35.978621</ele>
        <time>2021-08-18T09:36:24.489Z</time>
      </trkpt>
      <trkpt lat="41.06836" lon="39.20015">
        <ele>36.394513</ele>
        <time>2021-08-18T09:36:31.050Z</time>
      </trkpt>
      <trkpt lat="41.06886" lon="39.2">
        <ele>37.649372</ele>
        <time>2021-08-18T09:36:49.970Z</time>
      </trkpt>
      <trkpt lat="41.06887" lon="39.19977">
        <ele>38.060192</ele>
        <time>2021-08-18T09:36:59.768Z</time>
      </trkpt>
      <trkpt lat="41.06914" lon="39.19943">
        <ele>38.989502</ele>
        <time>2021-08-18T09:37:21.241Z</time>
      </trkpt>
      <trkpt lat="41.06968" lon="39.19891">
        <ele>43.911151</ele>
        <time>2021-08-18T09:38:04.305Z</time>
      </trkpt>
      <trkpt lat="41.06971" lon="39.19871">
        <ele>45.371364</ele>
        <time>2021-08-18T09:38:13.079Z</time>
      </trkpt>
      <trkpt lat="41.06958" lon="39.19861">
        <ele>46.911449</ele>
        <time>2021-08-18T09:38:26.429Z</time>
      </trkpt>
      <trkpt lat="41.06933" lon="39.19833">
        <ele>50.161772</ele>
        <time>2021-08-18T09:38:55.879Z</time>
      </trkpt>
      <trkpt lat="41.06908" lon="39.19793">
        <ele>53.997151</ele>
        <time>2021-08-18T09:39:34.936Z</time>
      </trkpt>
      <trkpt lat="41.06858" lon="39.19733">
        <ele>63.083454</ele>
        <time>2021-08-18T09:40:53.432Z</time>
      </trkpt>
      <trkpt lat="41.0685" lon="39.19711">
        <ele>66.167717</ele>
        <time>2021-08-18T09:41:12.455Z</time>
      </trkpt>
      <trkpt lat="41.06854" lon="39.19688">
        <ele>69.240976</ele>
        <time>2021-08-18T09:41:39.503Z</time>
      </trkpt>
      <trkpt lat="41.06859" lon="39.19673">
        <ele>71.351079</ele>
        <time>2021-08-18T09:41:51.398Z</time>
      </trkpt>
      <trkpt lat="41.06865" lon="39.1965">
        <ele>74.489791</ele>
        <time>2021-08-18T09:42:18.576Z</time>
      </trkpt>
      <trkpt lat="41.06867" lon="39.19597">
        <ele>81.176512</ele>
        <time>2021-08-18T09:43:10.871Z</time>
      </trkpt>
      <trkpt lat="41.06874" lon="39.19577">
        <ele>84.039926</ele>
        <time>2021-08-18T09:43:29.476Z</time>
      </trkpt>
      <trkpt lat="41.06867" lon="39.19568">
        <ele>85.799171</ele>
        <time>2021-08-18T09:43:46.191Z</time>
      </trkpt>
      <trkpt lat="41.06884" lon="39.19563">
        <ele>88.845334</ele>
        <time>2021-08-18T09:44:10.636Z</time>
      </trkpt>
      <trkpt lat="41.06891" lon="39.19535">
        <ele>92.906318</ele>
        <time>2021-08-18T09:44:43.812Z</time>
      </trkpt>
      <trkpt lat="41.06887" lon="39.19478">
        <ele>100.853105</ele>
        <time>2021-08-18T09:45:44.673Z</time>
      </trkpt>
      <trkpt lat="41.06916" lon="39.19328">
        <ele>122.013141</ele>
        <time>2021-08-18T09:48:20.733Z</time>
      </trkpt>
      <trkpt lat="41.06899" lon="39.19276">
        <ele>128.821571</ele>
        <time>2021-08-18T09:49:14.973Z</time>
      </trkpt>
      <trkpt lat="41.06863" lon="39.19024">
        <ele>157.713893</ele>
        <time>2021-08-18T09:53:02.694Z</time>
      </trkpt>
      <trkpt lat="41.06861" lon="39.18956">
        <ele>164.444117</ele>
        <time>2021-08-18T09:53:57.634Z</time>
      </trkpt>
      <trkpt lat="41.06867" lon="39.18934">
        <ele>166.79498</ele>
        <time>2021-08-18T09:54:15.131Z</time>
      </trkpt>
      <trkpt lat="41.06867" lon="39.18913">
        <ele>168.894267</ele>
        <time>2021-08-18T09:54:31.409Z</time>
      </trkpt>
      <trkpt lat="41.06864" lon="39.18901">
        <ele>170.141892</ele>
        <time>2021-08-18T09:54:42.017Z</time>
      </trkpt>
      <trkpt lat="41.06858" lon="39.18843">
        <ele>174.289649</ele>
        <time>2021-08-18T09:55:22.578Z</time>
      </trkpt>
      <trkpt lat="41.06841" lon="39.18808">
        <ele>176.106885</ele>
        <time>2021-08-18T09:55:49.459Z</time>
      </trkpt>
      <trkpt lat="41.06848" lon="39.18783">
        <ele>177.287127</ele>
        <time>2021-08-18T09:56:04.129Z</time>
      </trkpt>
      <trkpt lat="41.06849" lon="39.18748">
        <ele>178.808632</ele>
        <time>2021-08-18T09:56:22.693Z</time>
      </trkpt>
      <trkpt lat="41.06843" lon="39.18666">
        <ele>182.44299</ele>
        <time>2021-08-18T09:56:56.614Z</time>
      </trkpt>
      <trkpt lat="41.06846" lon="39.1859">
        <ele>181.70498</ele>
        <time>2021-08-18T09:57:12.806Z</time>
      </trkpt>
      <trkpt lat="41.06831" lon="39.18513">
        <ele>179.165366</ele>
        <time>2021-08-18T09:57:26.699Z</time>
      </trkpt>
      <trkpt lat="41.06838" lon="39.18487">
        <ele>178.301267</ele>
        <time>2021-08-18T09:57:31.026Z</time>
      </trkpt>
      <trkpt lat="41.06854" lon="39.18481">
        <ele>177.5811</ele>
        <time>2021-08-18T09:57:34.441Z</time>
      </trkpt>
      <trkpt lat="41.0689" lon="39.18489">
        <ele>176.057306</ele>
        <time>2021-08-18T09:57:42.060Z</time>
      </trkpt>
      <trkpt lat="41.06895" lon="39.18415">
        <ele>175.429594</ele>
        <time>2021-08-18T09:57:54.139Z</time>
      </trkpt>
      <trkpt lat="41.06918" lon="39.18394">
        <ele>175.198014</ele>
        <time>2021-08-18T09:58:00.910Z</time>
      </trkpt>
      <trkpt lat="41.06957" lon="39.18374">
        <ele>174.846364</ele>
        <time>2021-08-18T09:58:12.691Z</time>
      </trkpt>
      <trkpt lat="41.06952" lon="39.18358">
        <ele>174.735805</ele>
        <time>2021-08-18T09:58:24.653Z</time>
      </trkpt>
      <trkpt lat="41.06925" lon="39.18249">
        <ele>176.636399</ele>
        <time>2021-08-18T09:59:09.503Z</time>
      </trkpt>
      <trkpt lat="41.06926" lon="39.18204">
        <ele>178.554818</ele>
        <time>2021-08-18T09:59:33.504Z</time>
      </trkpt>
      <trkpt lat="41.06922" lon="39.18197">
        <ele>178.91736</ele>
        <time>2021-08-18T09:59:35.743Z</time>
      </trkpt>
      <trkpt lat="41.06917" lon="39.18194">
        <ele>179.266127</ele>
        <time>2021-08-18T09:59:45.007Z</time>
      </trkpt>
      <trkpt lat="41.06924" lon="39.18181">
        <ele>179.957134</ele>
        <time>2021-08-18T09:59:58.066Z</time>
      </trkpt>
      <trkpt lat="41.06913" lon="39.18151">
        <ele>181.404324</ele>
        <time>2021-08-18T10:00:17.339Z</time>
      </trkpt>
      <trkpt lat="41.06887" lon="39.18109">
        <ele>183.689413</ele>
        <time>2021-08-18T10:00:42.244Z</time>
      </trkpt>
      <trkpt lat="41.06903" lon="39.17993">
        <ele>183.445976</ele>
        <time>2021-08-18T10:01:16.831Z</time>
      </trkpt>
      <trkpt lat="41.06918" lon="39.17982">
        <ele>183.218326</ele>
        <time>2021-08-18T10:01:20.733Z</time>
      </trkpt>
      <trkpt lat="41.06926" lon="39.17963">
        <ele>182.997868</ele>
        <time>2021-08-18T10:01:24.375Z</time>
      </trkpt>
      <trkpt lat="41.06958" lon="39.17824">
        <ele>181.121603</ele>
        <time>2021-08-18T10:01:49.855Z</time>
      </trkpt>
      <trkpt lat="41.06952" lon="39.17797">
        <ele>180.622937</ele>
        <time>2021-08-18T10:01:54.944Z</time>
      </trkpt>
      <trkpt lat="41.0697" lon="39.17776">
        <ele>180.058904</ele>
        <time>2021-08-18T10:02:00.583Z</time>
      </trkpt>
      <trkpt lat="41.07029" lon="39.17657">
        <ele>177.644525</ele>
        <time>2021-08-18T10:02:29.076Z</time>
      </trkpt>
      <trkpt lat="41.07037" lon="39.17544">
        <ele>176.776179</ele>
        <time>2021-08-18T10:02:56.355Z</time>
      </trkpt>
      <trkpt lat="41.0705" lon="39.17505">
        <ele>176.448695</ele>
        <time>2021-08-18T10:03:05.367Z</time>
      </trkpt>
      <trkpt lat="41.07048" lon="39.17472">
        <ele>176.195488</ele>
        <time>2021-08-18T10:03:12.254Z</time>
      </trkpt>
      <trkpt lat="41.07043" lon="39.17416">
        <ele>175.569761</ele>
        <time>2021-08-18T10:03:23.379Z</time>
      </trkpt>
      <trkpt lat="41.07022" lon="39.17395">
        <ele>174.967207</ele>
        <time>2021-08-18T10:03:30.249Z</time>
      </trkpt>
      <trkpt lat="41.06999" lon="39.17346">
        <ele>173.982345</ele>
        <time>2021-08-18T10:03:41.075Z</time>
      </trkpt>
      <trkpt lat="41.06993" lon="39.17288">
        <ele>172.974764</ele>
        <time>2021-08-18T10:03:51.981Z</time>
      </trkpt>
      <trkpt lat="41.06998" lon="39.17226">
        <ele>171.899883</ele>
        <time>2021-08-18T10:04:03.616Z</time>
      </trkpt>
      <trkpt lat="41.07049" lon="39.17147">
        <ele>171.175599</ele>
        <time>2021-08-18T10:04:23.920Z</time>
      </trkpt>
      <trkpt lat="41.07086" lon="39.17008">
        <ele>170.188581</ele>
        <time>2021-08-18T10:05:00.464Z</time>
      </trkpt>
      <trkpt lat="41.07153" lon="39.16947">
        <ele>168.910069</ele>
        <time>2021-08-18T10:05:27.099Z</time>
      </trkpt>
      <trkpt lat="41.0716" lon="39.16917">
        <ele>168.545574</ele>
        <time>2021-08-18T10:05:32.743Z</time>
      </trkpt>
      <trkpt lat="41.07159" lon="39.16867">
        <ele>167.948078</ele>
        <time>2021-08-18T10:05:42.274Z</time>
      </trkpt>
      <trkpt lat="41.07148" lon="39.16855">
        <ele>167.723505</ele>
        <time>2021-08-18T10:05:46.072Z</time>
      </trkpt>
      <trkpt lat="41.07149" lon="39.16806">
        <ele>166.346812</ele>
        <time>2021-08-18T10:05:54.594Z</time>
      </trkpt>
      <trkpt lat="41.07147" lon="39.16787">
        <ele>165.468917</ele>
        <time>2021-08-18T10:05:57.895Z</time>
      </trkpt>
      <trkpt lat="41.07137" lon="39.16767">
        <ele>164.425093</ele>
        <time>2021-08-18T10:06:02.391Z</time>
      </trkpt>
      <trkpt lat="41.07132" lon="39.16748">
        <ele>163.537188</ele>
        <time>2021-08-18T10:06:05.624Z</time>
      </trkpt>
      <trkpt lat="41.07122" lon="39.16715">
        <ele>161.963727</ele>
        <time>2021-08-18T10:06:11.719Z</time>
      </trkpt>
      <trkpt lat="41.07108" lon="39.16685">
        <ele>160.425961</ele>
        <time>2021-08-18T10:06:17.477Z</time>
      </trkpt>
      <trkpt lat="41.07095" lon="39.16674">
        <ele>159.575861</ele>
        <time>2021-08-18T10:06:20.454Z</time>
      </trkpt>
      <trkpt lat="41.07089" lon="39.16658">
        <ele>158.808578</ele>
        <time>2021-08-18T10:06:23.107Z</time>
      </trkpt>
      <trkpt lat="41.07097" lon="39.1659">
        <ele>154.813308</ele>
        <time>2021-08-18T10:06:33.318Z</time>
      </trkpt>
      <trkpt lat="41.07112" lon="39.16552">
        <ele>151.418919</ele>
        <time>2021-08-18T10:06:39.630Z</time>
      </trkpt>
      <trkpt lat="41.07115" lon="39.16524">
        <ele>149.19885</ele>
        <time>2021-08-18T10:06:43.765Z</time>
      </trkpt>
      <trkpt lat="41.07086" lon="39.16444">
        <ele>142.253892</ele>
        <time>2021-08-18T10:06:56.472Z</time>
      </trkpt>
      <trkpt lat="41.07085" lon="39.16423">
        <ele>140.584312</ele>
        <time>2021-08-18T10:06:59.490Z</time>
      </trkpt>
      <trkpt lat="41.071" lon="39.16349">
        <ele>132.228677</ele>
        <time>2021-08-18T10:07:09.972Z</time>
      </trkpt>
      <trkpt lat="41.0709" lon="39.16294">
        <ele>124.943495</ele>
        <time>2021-08-18T10:07:17.576Z</time>
      </trkpt>
      <trkpt lat="41.07099" lon="39.16256">
        <ele>119.785388</ele>
        <time>2021-08-18T10:07:22.972Z</time>
      </trkpt>
      <trkpt lat="41.07123" lon="39.1622">
        <ele>113.477838</ele>
        <time>2021-08-18T10:07:29.528Z</time>
      </trkpt>
      <trkpt lat="41.07129" lon="39.16203">
        <ele>111.144048</ele>
        <time>2021-08-18T10:07:31.929Z</time>
      </trkpt>
      <trkpt lat="41.07143" lon="39.16161">
        <ele>105.102464</ele>
        <time>2021-08-18T10:07:38.185Z</time>
      </trkpt>
      <trkpt lat="41.07144" lon="39.1615">
        <ele>103.613176</ele>
        <time>2021-08-18T10:07:39.708Z</time>
      </trkpt>
      <trkpt lat="41.07129" lon="39.16136">
        <ele>100.432868</ele>
        <time>2021-08-18T10:07:42.983Z</time>
      </trkpt>
      <trkpt lat="41.07148" lon="39.16091">
        <ele>93.682771</ele>
        <time>2021-08-18T10:07:49.900Z</time>
      </trkpt>
      <trkpt lat="41.07161" lon="39.16081">
        <ele>90.967351</ele>
        <time>2021-08-18T10:07:52.664Z</time>
      </trkpt>
      <trkpt lat="41.07183" lon="39.16094">
        <ele>86.771868</ele>
        <time>2021-08-18T10:07:56.958Z</time>
      </trkpt>
      <trkpt lat="41.07185" lon="39.16087">
        <ele>85.831162</ele>
        <time>2021-08-18T10:07:57.907Z</time>
      </trkpt>
      <trkpt lat="41.0718" lon="39.16073">
        <ele>83.849597</ele>
        <time>2021-08-18T10:07:59.952Z</time>
      </trkpt>
      <trkpt lat="41.07131" lon="39.16023">
        <ele>73.657291</ele>
        <time>2021-08-18T10:08:11.178Z</time>
      </trkpt>
      <trkpt lat="41.07112" lon="39.16012">
        <ele>70.702359</ele>
        <time>2021-08-18T10:08:15.051Z</time>
      </trkpt>
      <trkpt lat="41.07114" lon="39.16002">
        <ele>69.539893</ele>
        <time>2021-08-18T10:08:16.569Z</time>
      </trkpt>
      <trkpt lat="41.07127" lon="39.15994">
        <ele>67.567807</ele>
        <time>2021-08-18T10:08:19.149Z</time>
      </trkpt>
      <trkpt lat="41.07138" lon="39.15995">
        <ele>65.985306</ele>
        <time>2021-08-18T10:08:21.271Z</time>
      </trkpt>
      <trkpt lat="41.07142" lon="39.15989">
        <ele>65.090213</ele>
        <time>2021-08-18T10:08:22.429Z</time>
      </trkpt>
      <trkpt lat="41.07121" lon="39.15972">
        <ele>61.74026</ele>
        <time>2021-08-18T10:08:26.773Z</time>
      </trkpt>
      <trkpt lat="41.07129" lon="39.15964">
        <ele>60.372202</ele>
        <time>2021-08-18T10:08:28.602Z</time>
      </trkpt>
      <trkpt lat="41.07144" lon="39.15965">
        <ele>58.267213</ele>
        <time>2021-08-18T10:08:31.316Z</time>
      </trkpt>
      <trkpt lat="41.07191" lon="39.15911">
        <ele>49.757266</ele>
        <time>2021-08-18T10:08:42.654Z</time>
      </trkpt>
      <trkpt lat="41.07195" lon="39.15895">
        <ele>48.179792</ele>
        <time>2021-08-18T10:08:44.970Z</time>
      </trkpt>
      <trkpt lat="41.07185" lon="39.15877">
        <ele>46.100614</ele>
        <time>2021-08-18T10:08:48.136Z</time>
      </trkpt>
      <trkpt lat="41.07184" lon="39.15863">
        <ele>44.767368</ele>
        <time>2021-08-18T10:08:50.086Z</time>
      </trkpt>
      <trkpt lat="41.07183" lon="39.15853">
        <ele>43.834645</ele>
        <time>2021-08-18T10:08:51.459Z</time>
      </trkpt>
      <trkpt lat="41.07196" lon="39.15823">
        <ele>40.619214</ele>
        <time>2021-08-18T10:08:56.290Z</time>
      </trkpt>
      <trkpt lat="41.0721" lon="39.15813">
        <ele>38.695103</ele>
        <time>2021-08-18T10:08:59.183Z</time>
      </trkpt>
      <trkpt lat="41.07212" lon="39.15804">
        <ele>37.844003</ele>
        <time>2021-08-18T10:09:00.485Z</time>
      </trkpt>
      <trkpt lat="41.07204" lon="39.15769">
        <ele>34.442782</ele>
        <time>2021-08-18T10:09:05.631Z</time>
      </trkpt>
      <trkpt lat="41.07203" lon="39.15756">
        <ele>33.223209</ele>
        <time>2021-08-18T10:09:07.550Z</time>
      </trkpt>
      <trkpt lat="41.0721" lon="39.15747">
        <ele>32.069067</ele>
        <time>2021-08-18T10:09:09.282Z</time>
      </trkpt>
      <trkpt lat="41.07261" lon="39.15723">
        <ele>26.606893</ele>
        <time>2021-08-18T10:09:19.479Z</time>
      </trkpt>
      <trkpt lat="41.07244" lon="39.15717">
        <ele>25.313771</ele>
        <time>2021-08-18T10:09:22.854Z</time>
      </trkpt>
      <trkpt lat="41.07212" lon="39.15699">
        <ele>22.670867</ele>
        <time>2021-08-18T10:09:29.732Z</time>
      </trkpt>
      <trkpt lat="41.07204" lon="39.15686">
        <ele>21.696033</ele>
        <time>2021-08-18T10:09:32.267Z</time>
      </trkpt>
      <trkpt lat="41.07198" lon="39.15648">
        <ele>19.523445</ele>
        <time>2021-08-18T10:09:38.180Z</time>
      </trkpt>
      <trkpt lat="41.07199" lon="39.15613">
        <ele>17.581974</ele>
        <time>2021-08-18T10:09:43.565Z</time>
      </trkpt>
      <trkpt lat="41.07199" lon="39.15602">
        <ele>16.92342</ele>
        <time>2021-08-18T10:09:45.392Z</time>
      </trkpt>
      <trkpt lat="41.07199" lon="39.15569">
        <ele>15.105636</ele>
        <time>2021-08-18T10:09:50.721Z</time>
      </trkpt>
      <trkpt lat="41.07183" lon="39.15506">
        <ele>13.793608</ele>
        <time>2021-08-18T10:10:02.179Z</time>
      </trkpt>
      <trkpt lat="41.0717" lon="39.15456">
        <ele>12.749705</ele>
        <time>2021-08-18T10:10:11.518Z</time>
      </trkpt>
      <trkpt lat="41.07151" lon="39.15402">
        <ele>11.591556</ele>
        <time>2021-08-18T10:10:22.277Z</time>
      </trkpt>
      <trkpt lat="41.07122" lon="39.15367">
        <ele>10.565358</ele>
        <time>2021-08-18T10:10:32.478Z</time>
      </trkpt>
      <trkpt lat="41.07069" lon="39.15298">
        <ele>10.096799</ele>
        <time>2021-08-18T10:10:52.790Z</time>
      </trkpt>
      <trkpt lat="41.06979" lon="39.15202">
        <ele>9.626387</ele>
        <time>2021-08-18T10:11:28.091Z</time>
      </trkpt>
      <trkpt lat="41.06927" lon="39.15147">
        <ele>10.116395</ele>
        <time>2021-08-18T10:11:49.732Z</time>
      </trkpt>
      <trkpt lat="41.06657" lon="39.14896">
        <ele>12.766319</ele>
        <time>2021-08-18T10:13:53.097Z</time>
      </trkpt>
      <trkpt lat="41.06617" lon="39.14857">
        <ele>12.648285</ele>
        <time>2021-08-18T10:14:08.860Z</time>
      </trkpt>
      <trkpt lat="41.06571" lon="39.14811">
        <ele>12.510631</ele>
        <time>2021-08-18T10:14:24.233Z</time>
      </trkpt>
      <trkpt lat="41.06507" lon="39.14748">
        <ele>12.09601</ele>
        <time>2021-08-18T10:14:45.475Z</time>
      </trkpt>
      <trkpt lat="41.06463" lon="39.14705">
        <ele>11.711588</ele>
        <time>2021-08-18T10:15:00.078Z</time>
      </trkpt>
      <trkpt lat="41.06433" lon="39.14677">
        <ele>11.454852</ele>
        <time>2021-08-18T10:15:10.621Z</time>
      </trkpt>
      <trkpt lat="41.06425" lon="39.14667">
        <ele>11.372425</ele>
        <time>2021-08-18T10:15:14.431Z</time>
      </trkpt>
      <trkpt lat="41.06409" lon="39.14613">
        <ele>11.348288</ele>
        <time>2021-08-18T10:15:27.629Z</time>
      </trkpt>
      <trkpt lat="41.06404" lon="39.14579">
        <ele>11.680127</ele>
        <time>2021-08-18T10:15:36.293Z</time>
      </trkpt>
      <trkpt lat="41.06418" lon="39.1455">
        <ele>12.01266</ele>
        <time>2021-08-18T10:15:45.724Z</time>
      </trkpt>
      <trkpt lat="41.06457" lon="39.1448">
        <ele>12.857763</ele>
        <time>2021-08-18T10:16:13.855Z</time>
      </trkpt>
      <trkpt lat="41.06466" lon="39.14463">
        <ele>13.053137</ele>
        <time>2021-08-18T10:16:19.891Z</time>
      </trkpt>
      <trkpt lat="41.06445" lon="39.14424">
        <ele>13.50033</ele>
        <time>2021-08-18T10:16:35.211Z</time>
      </trkpt>
      <trkpt lat="41.06405" lon="39.14348">
        <ele>14.061725</ele>
        <time>2021-08-18T10:17:05.134Z</time>
      </trkpt>
      <trkpt lat="41.06402" lon="39.14343">
        <ele>14.0941</ele>
        <time>2021-08-18T10:17:06.770Z</time>
      </trkpt>
      <trkpt lat="41.06353" lon="39.1426">
        <ele>14.740263</ele>
        <time>2021-08-18T10:17:35.414Z</time>
      </trkpt>
      <trkpt lat="41.06384" lon="39.14221">
        <ele>14.571523</ele>
        <time>2021-08-18T10:17:47.583Z</time>
      </trkpt>
      <trkpt lat="41.06369" lon="39.14198">
        <ele>14.18163</ele>
        <time>2021-08-18T10:17:54.567Z</time>
      </trkpt>
      <trkpt lat="41.06342" lon="39.14155">
        <ele>13.486409</ele>
        <time>2021-08-18T10:18:05.819Z</time>
      </trkpt>
      <trkpt lat="41.06338" lon="39.14148">
        <ele>13.373723</ele>
        <time>2021-08-18T10:18:07.359Z</time>
      </trkpt>
      <trkpt lat="41.06306" lon="39.14093">
        <ele>12.49738</ele>
        <time>2021-08-18T10:18:21.066Z</time>
      </trkpt>
      <trkpt lat="41.06319" lon="39.14078">
        <ele>12.204799</ele>
        <time>2021-08-18T10:18:25.237Z</time>
      </trkpt>
      <trkpt lat="41.06351" lon="39.14045">
        <ele>11.61038</ele>
        <time>2021-08-18T10:18:34.948Z</time>
      </trkpt>
      <trkpt lat="41.06361" lon="39.14044">
        <ele>11.470956</ele>
        <time>2021-08-18T10:18:37.518Z</time>
      </trkpt>
      <trkpt lat="41.06373" lon="39.14031">
        <ele>11.25347</ele>
        <time>2021-08-18T10:18:41.286Z</time>
      </trkpt>
      <trkpt lat="41.06378" lon="39.14032">
        <ele>11.195662</ele>
        <time>2021-08-18T10:18:42.171Z</time>
      </trkpt>
      <trkpt lat="41.0639" lon="39.1403">
        <ele>11.030169</ele>
        <time>2021-08-18T10:18:45.245Z</time>
      </trkpt>
      <trkpt lat="41.06398" lon="39.14015">
        <ele>10.839848</ele>
        <time>2021-08-18T10:18:48.864Z</time>
      </trkpt>
      <trkpt lat="41.06398" lon="39.14009">
        <ele>10.779882</ele>
        <time>2021-08-18T10:18:49.840Z</time>
      </trkpt>
      <trkpt lat="41.06386" lon="39.13991">
        <ele>10.530013</ele>
        <time>2021-08-18T10:18:54.676Z</time>
      </trkpt>
      <trkpt lat="41.06191" lon="39.13742">
        <ele>9.037419</ele>
        <time>2021-08-18T10:20:15.944Z</time>
      </trkpt>
      <trkpt lat="41.06057" lon="39.13549">
        <ele>8.133789</ele>
        <time>2021-08-18T10:21:13.995Z</time>
      </trkpt>
      <trkpt lat="41.05882" lon="39.13282">
        <ele>6.236865</ele>
        <time>2021-08-18T10:22:26.890Z</time>
      </trkpt>
      <trkpt lat="41.05847" lon="39.1323">
        <ele>5.914576</ele>
        <time>2021-08-18T10:22:42.064Z</time>
      </trkpt>
      <trkpt lat="41.05748" lon="39.13076">
        <ele>6.52695</ele>
        <time>2021-08-18T10:23:31.962Z</time>
      </trkpt>
      <trkpt lat="41.05561" lon="39.12712">
        <ele>11.235542</ele>
        <time>2021-08-18T10:25:41.437Z</time>
      </trkpt>
      <trkpt lat="41.05155" lon="39.11812">
        <ele>30.980555</ele>
        <time>2021-08-18T10:31:45.316Z</time>
      </trkpt>
      <trkpt lat="41.05061" lon="39.11568">
        <ele>32.267545</ele>
        <time>2021-08-18T10:32:51.159Z</time>
      </trkpt>
      <trkpt lat="41.05018" lon="39.11432">
        <ele>33.348483</ele>
        <time>2021-08-18T10:33:33.030Z</time>
      </trkpt>
      <trkpt lat="41.0498" lon="39.11284">
        <ele>33.340369</ele>
        <time>2021-08-18T10:34:19.126Z</time>
      </trkpt>
      <trkpt lat="41.04824" lon="39.10423">
        <ele>29.298436</ele>
        <time>2021-08-18T10:37:25.484Z</time>
      </trkpt>
      <trkpt lat="41.04784" lon="39.10259">
        <ele>26.686873</ele>
        <time>2021-08-18T10:37:57.621Z</time>
      </trkpt>
      <trkpt lat="41.04727" lon="39.10065">
        <ele>21.557005</ele>
        <time>2021-08-18T10:38:32.523Z</time>
      </trkpt>
      <trkpt lat="41.04684" lon="39.09934">
        <ele>19.311393</ele>
        <time>2021-08-18T10:38:57.319Z</time>
      </trkpt>
      <trkpt lat="41.04616" lon="39.09727">
        <ele>18.496097</ele>
        <time>2021-08-18T10:39:49.438Z</time>
      </trkpt>
      <trkpt lat="41.04592" lon="39.09616">
        <ele>19.376174</ele>
        <time>2021-08-18T10:40:25.251Z</time>
      </trkpt>
      <trkpt lat="41.04573" lon="39.09479">
        <ele>19.999272</ele>
        <time>2021-08-18T10:41:04.717Z</time>
      </trkpt>
      <trkpt lat="41.04562" lon="39.09169">
        <ele>20.21691</ele>
        <time>2021-08-18T10:42:15.903Z</time>
      </trkpt>
      <trkpt lat="41.04555" lon="39.09096">
        <ele>20.129522</ele>
        <time>2021-08-18T10:42:32.099Z</time>
      </trkpt>
      <trkpt lat="41.04477" lon="39.08712">
        <ele>21.772786</ele>
        <time>2021-08-18T10:44:09.868Z</time>
      </trkpt>
      <trkpt lat="41.04463" lon="39.08616">
        <ele>22.853462</ele>
        <time>2021-08-18T10:44:43.240Z</time>
      </trkpt>
      <trkpt lat="41.04439" lon="39.08348">
        <ele>28.567938</ele>
        <time>2021-08-18T10:46:25.946Z</time>
      </trkpt>
      <trkpt lat="41.04391" lon="39.08052">
        <ele>29.781611</ele>
        <time>2021-08-18T10:47:46.542Z</time>
      </trkpt>
      <trkpt lat="41.04363" lon="39.07643">
        <ele>22.502345</ele>
        <time>2021-08-18T10:49:00.763Z</time>
      </trkpt>
      <trkpt lat="41.04349" lon="39.07554">
        <ele>19.054723</ele>
        <time>2021-08-18T10:49:14.947Z</time>
      </trkpt>
      <trkpt lat="41.04329" lon="39.0747">
        <ele>15.720582</ele>
        <time>2021-08-18T10:49:28.461Z</time>
      </trkpt>
      <trkpt lat="41.04298" lon="39.07369">
        <ele>13.235265</ele>
        <time>2021-08-18T10:49:45.779Z</time>
      </trkpt>
      <trkpt lat="41.0426" lon="39.07248">
        <ele>10.568589</ele>
        <time>2021-08-18T10:50:10.589Z</time>
      </trkpt>
      <trkpt lat="41.04198" lon="39.07044">
        <ele>12.779285</ele>
        <time>2021-08-18T10:51:23.074Z</time>
      </trkpt>
      <trkpt lat="41.04179" lon="39.0698">
        <ele>13.107352</ele>
        <time>2021-08-18T10:51:43.778Z</time>
      </trkpt>
      <trkpt lat="41.04142" lon="39.06821">
        <ele>12.930989</ele>
        <time>2021-08-18T10:52:19.365Z</time>
      </trkpt>
      <trkpt lat="41.04104" lon="39.06699">
        <ele>13.765078</ele>
        <time>2021-08-18T10:52:47.063Z</time>
      </trkpt>
      <trkpt lat="41.04072" lon="39.06607">
        <ele>14.666334</ele>
        <time>2021-08-18T10:53:19.607Z</time>
      </trkpt>
      <trkpt lat="41.04066" lon="39.06582">
        <ele>14.90229</ele>
        <time>2021-08-18T10:53:28.635Z</time>
      </trkpt>
      <trkpt lat="41.04057" lon="39.06584">
        <ele>15.004908</ele>
        <time>2021-08-18T10:53:33.481Z</time>
      </trkpt>
      <trkpt lat="41.04047" lon="39.06592">
        <ele>15.395557</ele>
        <time>2021-08-18T10:53:39.143Z</time>
      </trkpt>
      <trkpt lat="41.0404" lon="39.06605">
        <ele>15.829414</ele>
        <time>2021-08-18T10:53:45.547Z</time>
      </trkpt>
      <trkpt lat="41.04043" lon="39.06612">
        <ele>16.041785</ele>
        <time>2021-08-18T10:53:48.101Z</time>
      </trkpt>
      <trkpt lat="41.04027" lon="39.06621">
        <ele>16.639323</ele>
        <time>2021-08-18T10:53:57.426Z</time>
      </trkpt>
      <trkpt lat="41.04016" lon="39.06633">
        <ele>17.14966</ele>
        <time>2021-08-18T10:54:05.281Z</time>
      </trkpt>
      <trkpt lat="41.04007" lon="39.06596">
        <ele>18.184381</ele>
        <time>2021-08-18T10:54:21.039Z</time>
      </trkpt>
      <trkpt lat="41.03993" lon="39.06571">
        <ele>19.016137</ele>
        <time>2021-08-18T10:54:34.248Z</time>
      </trkpt>
      <trkpt lat="41.03982" lon="39.06548">
        <ele>19.755999</ele>
        <time>2021-08-18T10:54:45.279Z</time>
      </trkpt>
      <trkpt lat="41.03974" lon="39.06532">
        <ele>20.260671</ele>
        <time>2021-08-18T10:54:53.885Z</time>
      </trkpt>
      <trkpt lat="41.03926" lon="39.06379">
        <ele>22.567814</ele>
        <time>2021-08-18T10:55:50.547Z</time>
      </trkpt>
      <trkpt lat="41.03838" lon="39.06148">
        <ele>23.358759</ele>
        <time>2021-08-18T10:56:49.019Z</time>
      </trkpt>
      <trkpt lat="41.03837" lon="39.06135">
        <ele>23.33072</ele>
        <time>2021-08-18T10:56:51.287Z</time>
      </trkpt>
      <trkpt lat="41.0378" lon="39.0599">
        <ele>23.838011</ele>
        <time>2021-08-18T10:57:28.778Z</time>
      </trkpt>
      <trkpt lat="41.0376" lon="39.0594">
        <ele>24.319201</ele>
        <time>2021-08-18T10:57:44.182Z</time>
      </trkpt>
      <trkpt lat="41.03751" lon="39.05908">
        <ele>24.608898</ele>
        <time>2021-08-18T10:57:54.721Z</time>
      </trkpt>
      <trkpt lat="41.03742" lon="39.05879">
        <ele>24.86848</ele>
        <time>2021-08-18T10:58:04.906Z</time>
      </trkpt>
      <trkpt lat="41.03715" lon="39.05782">
        <ele>26.617561</ele>
        <time>2021-08-18T10:58:41.151Z</time>
      </trkpt>
      <trkpt lat="41.03677" lon="39.05611">
        <ele>30.36509</ele>
        <time>2021-08-18T10:59:47.154Z</time>
      </trkpt>
      <trkpt lat="41.03628" lon="39.05296">
        <ele>33.449066</ele>
        <time>2021-08-18T11:01:26.873Z</time>
      </trkpt>
      <trkpt lat="41.03596" lon="39.05042">
        <ele>32.824989</ele>
        <time>2021-08-18T11:02:15.624Z</time>
      </trkpt>
      <trkpt lat="41.03595" lon="39.05036">
        <ele>32.815889</ele>
        <time>2021-08-18T11:02:16.463Z</time>
      </trkpt>
      <trkpt lat="41.03579" lon="39.04925">
        <ele>32.647289</ele>
        <time>2021-08-18T11:02:49.257Z</time>
      </trkpt>
      <trkpt lat="41.03532" lon="39.04611">
        <ele>39.426354</ele>
        <time>2021-08-18T11:04:56.095Z</time>
      </trkpt>
      <trkpt lat="41.03514" lon="39.0445">
        <ele>40.652181</ele>
        <time>2021-08-18T11:05:35.678Z</time>
      </trkpt>
      <trkpt lat="41.03489" lon="39.04127">
        <ele>35.243305</ele>
        <time>2021-08-18T11:06:33.915Z</time>
      </trkpt>
      <trkpt lat="41.03468" lon="39.04006">
        <ele>33.082155</ele>
        <time>2021-08-18T11:06:56.306Z</time>
      </trkpt>
      <trkpt lat="41.03464" lon="39.03984">
        <ele>32.685548</ele>
        <time>2021-08-18T11:07:00.115Z</time>
      </trkpt>
      <trkpt lat="41.03452" lon="39.03922">
        <ele>32.294548</ele>
        <time>2021-08-18T11:07:12.853Z</time>
      </trkpt>
      <trkpt lat="41.03379" lon="39.03507">
        <ele>30.663449</ele>
        <time>2021-08-18T11:08:52.345Z</time>
      </trkpt>
      <trkpt lat="41.03312" lon="39.0317">
        <ele>23.430471</ele>
        <time>2021-08-18T11:09:52.594Z</time>
      </trkpt>
      <trkpt lat="41.0331" lon="39.03158">
        <ele>23.172775</ele>
        <time>2021-08-18T11:09:54.458Z</time>
      </trkpt>
      <trkpt lat="41.03302" lon="39.03115">
        <ele>22.24354</ele>
        <time>2021-08-18T11:10:02.371Z</time>
      </trkpt>
      <trkpt lat="41.03297" lon="39.03086">
        <ele>21.611197</ele>
        <time>2021-08-18T11:10:08.719Z</time>
      </trkpt>
      <trkpt lat="41.03261" lon="39.02889">
        <ele>19.149864</ele>
        <time>2021-08-18T11:10:47.026Z</time>
      </trkpt>
      <trkpt lat="41.0325" lon="39.02772">
        <ele>18.978123</ele>
        <time>2021-08-18T11:11:12.008Z</time>
      </trkpt>
      <trkpt lat="41.03249" lon="39.02711">
        <ele>19.745061</ele>
        <time>2021-08-18T11:11:28.642Z</time>
      </trkpt>
      <trkpt lat="41.03248" lon="39.02666">
        <ele>20.318169</ele>
        <time>2021-08-18T11:11:42.336Z</time>
      </trkpt>
      <trkpt lat="41.03247" lon="39.02652">
        <ele>20.494431</ele>
        <time>2021-08-18T11:11:49.610Z</time>
      </trkpt>
      <trkpt lat="41.03245" lon="39.02555">
        <ele>21.910609</ele>
        <time>2021-08-18T11:12:24.853Z</time>
      </trkpt>
      <trkpt lat="41.03234" lon="39.02475">
        <ele>23.60252</ele>
        <time>2021-08-18T11:12:56.861Z</time>
      </trkpt>
      <trkpt lat="41.03202" lon="39.02317">
        <ele>26.596468</ele>
        <time>2021-08-18T11:13:51.644Z</time>
      </trkpt>
      <trkpt lat="41.03185" lon="39.02222">
        <ele>27.381322</ele>
        <time>2021-08-18T11:14:17.354Z</time>
      </trkpt>
      <trkpt lat="41.03176" lon="39.02185">
        <ele>27.695605</ele>
        <time>2021-08-18T11:14:27.735Z</time>
      </trkpt>
      <trkpt lat="41.03161" lon="39.02096">
        <ele>28.319523</ele>
        <time>2021-08-18T11:14:52.511Z</time>
      </trkpt>
      <trkpt lat="41.03144" lon="39.01935">
        <ele>28.744781</ele>
        <time>2021-08-18T11:15:36.329Z</time>
      </trkpt>
      <trkpt lat="41.03133" lon="39.01766">
        <ele>27.340839</ele>
        <time>2021-08-18T11:16:11.276Z</time>
      </trkpt>
      <trkpt lat="41.03133" lon="39.01731">
        <ele>26.863954</ele>
        <time>2021-08-18T11:16:17.530Z</time>
      </trkpt>
      <trkpt lat="41.03149" lon="39.01588">
        <ele>24.919099</ele>
        <time>2021-08-18T11:16:43.022Z</time>
      </trkpt>
      <trkpt lat="41.03151" lon="39.01494">
        <ele>23.684087</ele>
        <time>2021-08-18T11:16:59.793Z</time>
      </trkpt>
      <trkpt lat="41.03157" lon="39.01301">
        <ele>23.696103</ele>
        <time>2021-08-18T11:17:43.749Z</time>
      </trkpt>
      <trkpt lat="41.03147" lon="39.01301">
        <ele>23.856722</ele>
        <time>2021-08-18T11:17:48.539Z</time>
      </trkpt>
      <trkpt lat="41.03131" lon="39.01296">
        <ele>24.098337</ele>
        <time>2021-08-18T11:17:54.722Z</time>
      </trkpt>
      <trkpt lat="41.03123" lon="39.01287">
        <ele>24.263822</ele>
        <time>2021-08-18T11:17:59.433Z</time>
      </trkpt>
      <trkpt lat="41.03113" lon="39.0116">
        <ele>25.851218</ele>
        <time>2021-08-18T11:18:48.333Z</time>
      </trkpt>
      <trkpt lat="41.03096" lon="39.01034">
        <ele>27.666982</ele>
        <time>2021-08-18T11:19:33.987Z</time>
      </trkpt>
      <trkpt lat="41.03094" lon="39.00976">
        <ele>28.498783</ele>
        <time>2021-08-18T11:19:48.616Z</time>
      </trkpt>
      <trkpt lat="41.03089" lon="39.00829">
        <ele>25.843212</ele>
        <time>2021-08-18T11:20:16.168Z</time>
      </trkpt>
      <trkpt lat="41.0309" lon="39.008">
        <ele>25.241847</ele>
        <time>2021-08-18T11:20:20.768Z</time>
      </trkpt>
      <trkpt lat="41.03091" lon="39.00774">
        <ele>24.716256</ele>
        <time>2021-08-18T11:20:25.034Z</time>
      </trkpt>
      <trkpt lat="41.03098" lon="39.00719">
        <ele>23.5066</ele>
        <time>2021-08-18T11:20:34.220Z</time>
      </trkpt>
      <trkpt lat="41.03123" lon="39.00617">
        <ele>20.505122</ele>
        <time>2021-08-18T11:20:52.139Z</time>
      </trkpt>
      <trkpt lat="41.03174" lon="39.00455">
        <ele>16.136141</ele>
        <time>2021-08-18T11:21:21.939Z</time>
      </trkpt>
      <trkpt lat="41.03214" lon="39.00341">
        <ele>13.861569</ele>
        <time>2021-08-18T11:21:45.366Z</time>
      </trkpt>
      <trkpt lat="41.03217" lon="39.00332">
        <ele>13.701542</ele>
        <time>2021-08-18T11:21:47.022Z</time>
      </trkpt>
      <trkpt lat="41.03243" lon="39.00281">
        <ele>12.786857</ele>
        <time>2021-08-18T11:21:58.554Z</time>
      </trkpt>
      <trkpt lat="41.03246" lon="39.00276">
        <ele>12.776719</ele>
        <time>2021-08-18T11:21:59.510Z</time>
      </trkpt>
      <trkpt lat="41.03272" lon="39.00231">
        <ele>12.674996</ele>
        <time>2021-08-18T11:22:10.514Z</time>
      </trkpt>
      <trkpt lat="41.03286" lon="39.0022">
        <ele>12.636586</ele>
        <time>2021-08-18T11:22:15.187Z</time>
      </trkpt>
      <trkpt lat="41.03297" lon="39.00211">
        <ele>12.607266</ele>
        <time>2021-08-18T11:22:18.811Z</time>
      </trkpt>
      <trkpt lat="41.03326" lon="39.00196">
        <ele>12.533308</ele>
        <time>2021-08-18T11:22:30.010Z</time>
      </trkpt>
      <trkpt lat="41.03337" lon="39.00189">
        <ele>12.504062</ele>
        <time>2021-08-18T11:22:34.218Z</time>
      </trkpt>
      <trkpt lat="41.03338" lon="39.00091">
        <ele>12.313343</ele>
        <time>2021-08-18T11:23:00.938Z</time>
      </trkpt>
      <trkpt lat="41.03339" lon="39.00008">
        <ele>12.125178</ele>
        <time>2021-08-18T11:23:23.340Z</time>
      </trkpt>
      <trkpt lat="41.03344" lon="38.9969">
        <ele>9.790352</ele>
        <time>2021-08-18T11:24:26.110Z</time>
      </trkpt>
      <trkpt lat="41.03344" lon="38.99669">
        <ele>9.563685</ele>
        <time>2021-08-18T11:24:29.838Z</time>
      </trkpt>
      <trkpt lat="41.03349" lon="38.99497">
        <ele>9.019274</ele>
        <time>2021-08-18T11:25:03.828Z</time>
      </trkpt>
      <trkpt lat="41.03352" lon="38.99451">
        <ele>8.931248</ele>
        <time>2021-08-18T11:25:15.471Z</time>
      </trkpt>
      <trkpt lat="41.0336" lon="38.9928">
        <ele>11.093011</ele>
        <time>2021-08-18T11:26:13.637Z</time>
      </trkpt>
      <trkpt lat="41.03365" lon="38.99196">
        <ele>12.579564</ele>
        <time>2021-08-18T11:26:43.680Z</time>
      </trkpt>
      <trkpt lat="41.03365" lon="38.99187">
        <ele>12.732335</ele>
        <time>2021-08-18T11:26:46.605Z</time>
      </trkpt>
      <trkpt lat="41.03378" lon="38.99054">
        <ele>13.6688</ele>
        <time>2021-08-18T11:27:27.897Z</time>
      </trkpt>
      <trkpt lat="41.03411" lon="38.98853">
        <ele>13.648719</ele>
        <time>2021-08-18T11:28:13.286Z</time>
      </trkpt>
      <trkpt lat="41.03423" lon="38.98785">
        <ele>13.096669</ele>
        <time>2021-08-18T11:28:26.309Z</time>
      </trkpt>
      <trkpt lat="41.03441" lon="38.98691">
        <ele>12.460282</ele>
        <time>2021-08-18T11:28:45.426Z</time>
      </trkpt>
      <trkpt lat="41.03444" lon="38.98677">
        <ele>12.523683</ele>
        <time>2021-08-18T11:28:48.649Z</time>
      </trkpt>
      <trkpt lat="41.03455" lon="38.986">
        <ele>12.856422</ele>
        <time>2021-08-18T11:29:06.329Z</time>
      </trkpt>
      <trkpt lat="41.03471" lon="38.98501">
        <ele>13.290204</ele>
        <time>2021-08-18T11:29:31.201Z</time>
      </trkpt>
      <trkpt lat="41.03475" lon="38.98474">
        <ele>13.407213</ele>
        <time>2021-08-18T11:29:39.717Z</time>
      </trkpt>
      <trkpt lat="41.03507" lon="38.98296">
        <ele>19.546602</ele>
        <time>2021-08-18T11:30:58.475Z</time>
      </trkpt>
      <trkpt lat="41.03512" lon="38.98287">
        <ele>19.934071</ele>
        <time>2021-08-18T11:31:03.636Z</time>
      </trkpt>
      <trkpt lat="41.03538" lon="38.98228">
        <ele>22.442904</ele>
        <time>2021-08-18T11:31:36.295Z</time>
      </trkpt>
      <trkpt lat="41.03608" lon="38.98124">
        <ele>28.475998</ele>
        <time>2021-08-18T11:32:46.961Z</time>
      </trkpt>
      <trkpt lat="41.0364" lon="38.98084">
        <ele>31.035155</ele>
        <time>2021-08-18T11:33:15.217Z</time>
      </trkpt>
      <trkpt lat="41.0367" lon="38.9802">
        <ele>33.115101</ele>
        <time>2021-08-18T11:33:46.301Z</time>
      </trkpt>
      <trkpt lat="41.03689" lon="38.97936">
        <ele>34.97835</ele>
        <time>2021-08-18T11:34:19.203Z</time>
      </trkpt>
      <trkpt lat="41.03698" lon="38.9786">
        <ele>36.622582</ele>
        <time>2021-08-18T11:34:43.481Z</time>
      </trkpt>
      <trkpt lat="41.03698" lon="38.97777">
        <ele>36.809158</ele>
        <time>2021-08-18T11:35:05.042Z</time>
      </trkpt>
      <trkpt lat="41.03626" lon="38.9736">
        <ele>32.15481</ele>
        <time>2021-08-18T11:36:31.130Z</time>
      </trkpt>
      <trkpt lat="41.03608" lon="38.97251">
        <ele>26.384666</ele>
        <time>2021-08-18T11:36:47.803Z</time>
      </trkpt>
      <trkpt lat="41.03619" lon="38.9724">
        <ele>25.404552</ele>
        <time>2021-08-18T11:36:50.476Z</time>
      </trkpt>
      <trkpt lat="41.03634" lon="38.97234">
        <ele>24.370183</ele>
        <time>2021-08-18T11:36:53.800Z</time>
      </trkpt>
      <trkpt lat="41.03646" lon="38.97237">
        <ele>23.533387</ele>
        <time>2021-08-18T11:36:56.056Z</time>
      </trkpt>
      <trkpt lat="41.03679" lon="38.97228">
        <ele>21.212159</ele>
        <time>2021-08-18T11:37:02.698Z</time>
      </trkpt>
      <trkpt lat="41.03677" lon="38.97209">
        <ele>20.298374</ele>
        <time>2021-08-18T11:37:05.453Z</time>
      </trkpt>
      <trkpt lat="41.03675" lon="38.97195">
        <ele>19.701982</ele>
        <time>2021-08-18T11:37:07.840Z</time>
      </trkpt>
      <trkpt lat="41.03636" lon="38.96929">
        <ele>10.242633</ele>
        <time>2021-08-18T11:37:50.960Z</time>
      </trkpt>
      <trkpt lat="41.03618" lon="38.96747">
        <ele>8.173692</ele>
        <time>2021-08-18T11:38:30.873Z</time>
      </trkpt>
      <trkpt lat="41.03598" lon="38.96538">
        <ele>10.524335</ele>
        <time>2021-08-18T11:39:32.819Z</time>
      </trkpt>
      <trkpt lat="41.03596" lon="38.96428">
        <ele>13.298896</ele>
        <time>2021-08-18T11:40:13.125Z</time>
      </trkpt>
      <trkpt lat="41.03604" lon="38.96333">
        <ele>16.256918</ele>
        <time>2021-08-18T11:40:53.906Z</time>
      </trkpt>
      <trkpt lat="41.03621" lon="38.96236">
        <ele>19.423913</ele>
        <time>2021-08-18T11:41:39.056Z</time>
      </trkpt>
      <trkpt lat="41.03663" lon="38.96092">
        <ele>24.648378</ele>
        <time>2021-08-18T11:42:47.860Z</time>
      </trkpt>
      <trkpt lat="41.03682" lon="38.95939">
        <ele>27.098184</ele>
        <time>2021-08-18T11:43:43.243Z</time>
      </trkpt>
      <trkpt lat="41.03687" lon="38.95635">
        <ele>26.863169</ele>
        <time>2021-08-18T11:44:47.693Z</time>
      </trkpt>
      <trkpt lat="41.03696" lon="38.95489">
        <ele>25.161047</ele>
        <time>2021-08-18T11:45:15.931Z</time>
      </trkpt>
      <trkpt lat="41.03694" lon="38.95379">
        <ele>23.49389</ele>
        <time>2021-08-18T11:45:36.418Z</time>
      </trkpt>
      <trkpt lat="41.03686" lon="38.95275">
        <ele>21.623746</ele>
        <time>2021-08-18T11:45:55.066Z</time>
      </trkpt>
      <trkpt lat="41.03665" lon="38.95156">
        <ele>19.141824</ele>
        <time>2021-08-18T11:46:16.488Z</time>
      </trkpt>
      <trkpt lat="41.03656" lon="38.95077">
        <ele>17.884665</ele>
        <time>2021-08-18T11:46:30.584Z</time>
      </trkpt>
      <trkpt lat="41.03652" lon="38.94979">
        <ele>17.504735</ele>
        <time>2021-08-18T11:46:49.929Z</time>
      </trkpt>
      <trkpt lat="41.03654" lon="38.94908">
        <ele>17.227794</ele>
        <time>2021-08-18T11:47:06.656Z</time>
      </trkpt>
      <trkpt lat="41.03671" lon="38.94792">
        <ele>18.109455</ele>
        <time>2021-08-18T11:47:41.738Z</time>
      </trkpt>
      <trkpt lat="41.03719" lon="38.94583">
        <ele>21.131954</ele>
        <time>2021-08-18T11:48:55.962Z</time>
      </trkpt>
      <trkpt lat="41.03733" lon="38.94489">
        <ele>22.003628</ele>
        <time>2021-08-18T11:49:24.317Z</time>
      </trkpt>
      <trkpt lat="41.03765" lon="38.94337">
        <ele>22.99004</ele>
        <time>2021-08-18T11:50:03.172Z</time>
      </trkpt>
      <trkpt lat="41.03794" lon="38.94239">
        <ele>23.221469</ele>
        <time>2021-08-18T11:50:27.056Z</time>
      </trkpt>
      <trkpt lat="41.03834" lon="38.94131">
        <ele>24.380846</ele>
        <time>2021-08-18T11:50:58.348Z</time>
      </trkpt>
      <trkpt lat="41.04065" lon="38.93653">
        <ele>35.998348</ele>
        <time>2021-08-18T11:54:20.026Z</time>
      </trkpt>
      <trkpt lat="41.04093" lon="38.93579">
        <ele>37.994445</ele>
        <time>2021-08-18T11:54:53.291Z</time>
      </trkpt>
      <trkpt lat="41.04119" lon="38.93483">
        <ele>39.963016</ele>
        <time>2021-08-18T11:55:32.968Z</time>
      </trkpt>
      <trkpt lat="41.04134" lon="38.93404">
        <ele>41.480151</ele>
        <time>2021-08-18T11:56:01.427Z</time>
      </trkpt>
      <trkpt lat="41.0414" lon="38.93329">
        <ele>42.647096</ele>
        <time>2021-08-18T11:56:23.162Z</time>
      </trkpt>
      <trkpt lat="41.04139" lon="38.93237">
        <ele>41.783583</ele>
        <time>2021-08-18T11:56:43.420Z</time>
      </trkpt>
      <trkpt lat="41.04128" lon="38.93147">
        <ele>40.926909</ele>
        <time>2021-08-18T11:57:00.534Z</time>
      </trkpt>
      <trkpt lat="41.04078" lon="38.92967">
        <ele>37.295889</ele>
        <time>2021-08-18T11:57:34.256Z</time>
      </trkpt>
      <trkpt lat="41.03955" lon="38.92681">
        <ele>29.706326</ele>
        <time>2021-08-18T11:58:31.462Z</time>
      </trkpt>
      <trkpt lat="41.03906" lon="38.92441">
        <ele>23.377797</ele>
        <time>2021-08-18T11:59:13.809Z</time>
      </trkpt>
      <trkpt lat="41.03857" lon="38.92118">
        <ele>16.838837</ele>
        <time>2021-08-18T12:00:10.748Z</time>
      </trkpt>
      <trkpt lat="41.03844" lon="38.92041">
        <ele>16.027622</ele>
        <time>2021-08-18T12:00:27.406Z</time>
      </trkpt>
      <trkpt lat="41.03827" lon="38.9197">
        <ele>15.494281</ele>
        <time>2021-08-18T12:00:45.602Z</time>
      </trkpt>
      <trkpt lat="41.03792" lon="38.9189">
        <ele>16.133965</ele>
        <time>2021-08-18T12:01:11.606Z</time>
      </trkpt>
      <trkpt lat="41.03735" lon="38.91782">
        <ele>17.06101</ele>
        <time>2021-08-18T12:01:49.538Z</time>
      </trkpt>
      <trkpt lat="41.03164" lon="38.90841">
        <ele>21.862055</ele>
        <time>2021-08-18T12:07:03.073Z</time>
      </trkpt>
      <trkpt lat="41.02893" lon="38.90443">
        <ele>15.383534</ele>
        <time>2021-08-18T12:08:44.194Z</time>
      </trkpt>
      <trkpt lat="41.028" lon="38.90298">
        <ele>13.647202</ele>
        <time>2021-08-18T12:09:21.878Z</time>
      </trkpt>
      <trkpt lat="41.0268" lon="38.90104">
        <ele>13.327874</ele>
        <time>2021-08-18T12:10:20.008Z</time>
      </trkpt>
      <trkpt lat="41.0264" lon="38.90042">
        <ele>13.587966</ele>
        <time>2021-08-18T12:10:41.233Z</time>
      </trkpt>
      <trkpt lat="41.02487" lon="38.89844">
        <ele>14.439171</ele>
        <time>2021-08-18T12:11:54.196Z</time>
      </trkpt>
      <trkpt lat="41.02228" lon="38.89432">
        <ele>14.963773</ele>
        <time>2021-08-18T12:14:03.293Z</time>
      </trkpt>
      <trkpt lat="41.01827" lon="38.88775">
        <ele>12.637729</ele>
        <time>2021-08-18T12:17:09.710Z</time>
      </trkpt>
      <trkpt lat="41.01778" lon="38.88682">
        <ele>12.341595</ele>
        <time>2021-08-18T12:17:34.023Z</time>
      </trkpt>
      <trkpt lat="41.01681" lon="38.88449">
        <ele>12.593382</ele>
        <time>2021-08-18T12:18:37.871Z</time>
      </trkpt>
      <trkpt lat="41.01643" lon="38.88371">
        <ele>13.031655</ele>
        <time>2021-08-18T12:19:03.034Z</time>
      </trkpt>
      <trkpt lat="41.01607" lon="38.88307">
        <ele>13.410029</ele>
        <time>2021-08-18T12:19:25.108Z</time>
      </trkpt>
      <trkpt lat="41.01517" lon="38.88179">
        <ele>13.421271</ele>
        <time>2021-08-18T12:20:09.204Z</time>
      </trkpt>
      <trkpt lat="41.01459" lon="38.88086">
        <ele>13.145018</ele>
        <time>2021-08-18T12:20:34.383Z</time>
      </trkpt>
      <trkpt lat="41.01405" lon="38.8798">
        <ele>12.001344</ele>
        <time>2021-08-18T12:20:59.028Z</time>
      </trkpt>
      <trkpt lat="41.0137" lon="38.8789">
        <ele>11.098859</ele>
        <time>2021-08-18T12:21:18.906Z</time>
      </trkpt>
      <trkpt lat="41.01318" lon="38.87727">
        <ele>11.521316</ele>
        <time>2021-08-18T12:22:00.718Z</time>
      </trkpt>
      <trkpt lat="41.01269" lon="38.87611">
        <ele>12.453536</ele>
        <time>2021-08-18T12:22:41.189Z</time>
      </trkpt>
      <trkpt lat="41.01179" lon="38.87445">
        <ele>14.163572</ele>
        <time>2021-08-18T12:23:43.140Z</time>
      </trkpt>
      <trkpt lat="41.01124" lon="38.87332">
        <ele>13.756182</ele>
        <time>2021-08-18T12:24:13.859Z</time>
      </trkpt>
      <trkpt lat="41.01093" lon="38.87253">
        <ele>13.117447</ele>
        <time>2021-08-18T12:24:30.329Z</time>
      </trkpt>
      <trkpt lat="41.01063" lon="38.87154">
        <ele>11.049833</ele>
        <time>2021-08-18T12:24:49.073Z</time>
      </trkpt>
      <trkpt lat="41.01043" lon="38.87053">
        <ele>9.027607</ele>
        <time>2021-08-18T12:25:07.544Z</time>
      </trkpt>
      <trkpt lat="41.01034" lon="38.86992">
        <ele>8.276133</ele>
        <time>2021-08-18T12:25:18.853Z</time>
      </trkpt>
      <trkpt lat="41.01026" lon="38.86924">
        <ele>7.478987</ele>
        <time>2021-08-18T12:25:31.886Z</time>
      </trkpt>
      <trkpt lat="41.01024" lon="38.86861">
        <ele>6.757365</ele>
        <time>2021-08-18T12:25:44.557Z</time>
      </trkpt>
      <trkpt lat="41.01023" lon="38.86786">
        <ele>6.157477</ele>
        <time>2021-08-18T12:26:01.035Z</time>
      </trkpt>
      <trkpt lat="41.01027" lon="38.86696">
        <ele>6.011983</ele>
        <time>2021-08-18T12:26:21.312Z</time>
      </trkpt>
      <trkpt lat="41.01038" lon="38.86624">
        <ele>5.891872</ele>
        <time>2021-08-18T12:26:38.312Z</time>
      </trkpt>
      <trkpt lat="41.01051" lon="38.86564">
        <ele>5.800472</ele>
        <time>2021-08-18T12:26:52.847Z</time>
      </trkpt>
      <trkpt lat="41.01105" lon="38.86375">
        <ele>5.594384</ele>
        <time>2021-08-18T12:27:40.529Z</time>
      </trkpt>
      <trkpt lat="41.01138" lon="38.86197">
        <ele>4.598234</ele>
        <time>2021-08-18T12:28:19.395Z</time>
      </trkpt>
      <trkpt lat="41.01148" lon="38.86083">
        <ele>3.874974</ele>
        <time>2021-08-18T12:28:42.481Z</time>
      </trkpt>
      <trkpt lat="41.01153" lon="38.86017">
        <ele>3.421107</ele>
        <time>2021-08-18T12:28:55.865Z</time>
      </trkpt>
      <trkpt lat="41.01156" lon="38.85913">
        <ele>2.709562</ele>
        <time>2021-08-18T12:29:17.304Z</time>
      </trkpt>
      <trkpt lat="41.01154" lon="38.85806">
        <ele>2.385975</ele>
        <time>2021-08-18T12:29:40.701Z</time>
      </trkpt>
      <trkpt lat="41.01144" lon="38.85686">
        <ele>2.199179</ele>
        <time>2021-08-18T12:30:08.635Z</time>
      </trkpt>
      <trkpt lat="41.01131" lon="38.85588">
        <ele>2.304012</ele>
        <time>2021-08-18T12:30:32.244Z</time>
      </trkpt>
      <trkpt lat="41.01095" lon="38.85414">
        <ele>2.820022</ele>
        <time>2021-08-18T12:31:18.215Z</time>
      </trkpt>
      <trkpt lat="41.01029" lon="38.85184">
        <ele>4.428416</ele>
        <time>2021-08-18T12:32:25.988Z</time>
      </trkpt>
      <trkpt lat="41.01004" lon="38.85059">
        <ele>5.021034</ele>
        <time>2021-08-18T12:33:00.426Z</time>
      </trkpt>
      <trkpt lat="41.00997" lon="38.84969">
        <ele>5.439274</ele>
        <time>2021-08-18T12:33:23.680Z</time>
      </trkpt>
      <trkpt lat="41.00992" lon="38.84765">
        <ele>5.656725</ele>
        <time>2021-08-18T12:34:13.736Z</time>
      </trkpt>
      <trkpt lat="41.0099" lon="38.84688">
        <ele>5.547235</ele>
        <time>2021-08-18T12:34:31.168Z</time>
      </trkpt>
      <trkpt lat="41.00983" lon="38.84566">
        <ele>4.995684</ele>
        <time>2021-08-18T12:34:57.098Z</time>
      </trkpt>
      <trkpt lat="41.00963" lon="38.84431">
        <ele>4.55339</ele>
        <time>2021-08-18T12:35:25.792Z</time>
      </trkpt>
      <trkpt lat="41.00952" lon="38.84371">
        <ele>4.474166</ele>
        <time>2021-08-18T12:35:39.307Z</time>
      </trkpt>
      <trkpt lat="41.00934" lon="38.84302">
        <ele>4.381674</ele>
        <time>2021-08-18T12:35:56.278Z</time>
      </trkpt>
      <trkpt lat="41.00903" lon="38.84203">
        <ele>4.790801</ele>
        <time>2021-08-18T12:36:24.267Z</time>
      </trkpt>
      <trkpt lat="41.00876" lon="38.84127">
        <ele>5.487584</ele>
        <time>2021-08-18T12:36:48.527Z</time>
      </trkpt>
      <trkpt lat="41.00826" lon="38.84041">
        <ele>6.55555</ele>
        <time>2021-08-18T12:37:20.190Z</time>
      </trkpt>
      <trkpt lat="41.00778" lon="38.83967">
        <ele>8.737434</ele>
        <time>2021-08-18T12:37:48.678Z</time>
      </trkpt>
      <trkpt lat="41.00715" lon="38.8389">
        <ele>11.308252</ele>
        <time>2021-08-18T12:38:30.556Z</time>
      </trkpt>
      <trkpt lat="41.0065" lon="38.83822">
        <ele>17.213776</ele>
        <time>2021-08-18T12:39:30.031Z</time>
      </trkpt>
      <trkpt lat="41.00594" lon="38.83763">
        <ele>22.837235</ele>
        <time>2021-08-18T12:40:28.539Z</time>
      </trkpt>
      <trkpt lat="41.00559" lon="38.83718">
        <ele>26.359863</ele>
        <time>2021-08-18T12:41:07.628Z</time>
      </trkpt>
      <trkpt lat="41.00537" lon="38.83689">
        <ele>28.191566</ele>
        <time>2021-08-18T12:41:32.697Z</time>
      </trkpt>
      <trkpt lat="41.00495" lon="38.83635">
        <ele>31.650973</ele>
        <time>2021-08-18T12:42:15.849Z</time>
      </trkpt>
      <trkpt lat="41.00458" lon="38.8354">
        <ele>36.275564</ele>
        <time>2021-08-18T12:42:58.555Z</time>
      </trkpt>
      <trkpt lat="41.00417" lon="38.8341">
        <ele>37.124405</ele>
        <time>2021-08-18T12:43:33.694Z</time>
      </trkpt>
      <trkpt lat="41.003" lon="38.83012">
        <ele>38.415227</ele>
        <time>2021-08-18T12:45:19.578Z</time>
      </trkpt>
      <trkpt lat="41.00258" lon="38.82276">
        <ele>39.943227</ele>
        <time>2021-08-18T12:48:22.591Z</time>
      </trkpt>
      <trkpt lat="41.00016" lon="38.80448">
        <ele>39.647066</ele>
        <time>2021-08-18T12:55:48.681Z</time>
      </trkpt>
      <trkpt lat="40.99988" lon="38.80229">
        <ele>33.55524</ele>
        <time>2021-08-18T12:56:24.078Z</time>
      </trkpt>
      <trkpt lat="40.99932" lon="38.79832">
        <ele>24.739058</ele>
        <time>2021-08-18T12:57:32.355Z</time>
      </trkpt>
      <trkpt lat="40.99918" lon="38.79746">
        <ele>26.892464</ele>
        <time>2021-08-18T12:58:14.938Z</time>
      </trkpt>
      <trkpt lat="40.9991" lon="38.79691">
        <ele>29.039081</ele>
        <time>2021-08-18T12:58:45.822Z</time>
      </trkpt>
      <trkpt lat="40.99895" lon="38.7964">
        <ele>31.12717</ele>
        <time>2021-08-18T12:59:16.749Z</time>
      </trkpt>
      <trkpt lat="40.99853" lon="38.79546">
        <ele>32.594335</ele>
        <time>2021-08-18T13:00:03.930Z</time>
      </trkpt>
      <trkpt lat="40.99832" lon="38.79505">
        <ele>31.638549</ele>
        <time>2021-08-18T13:00:13.826Z</time>
      </trkpt>
      <trkpt lat="40.99791" lon="38.7944">
        <ele>30.03674</ele>
        <time>2021-08-18T13:00:27.153Z</time>
      </trkpt>
      <trkpt lat="40.99745" lon="38.79384">
        <ele>28.004016</ele>
        <time>2021-08-18T13:00:39.933Z</time>
      </trkpt>
      <trkpt lat="40.99697" lon="38.79336">
        <ele>25.011494</ele>
        <time>2021-08-18T13:00:52.134Z</time>
      </trkpt>
      <trkpt lat="40.99575" lon="38.79251">
        <ele>19.744441</ele>
        <time>2021-08-18T13:01:22.100Z</time>
      </trkpt>
      <trkpt lat="40.99523" lon="38.79206">
        <ele>19.339631</ele>
        <time>2021-08-18T13:01:38.857Z</time>
      </trkpt>
      <trkpt lat="40.995" lon="38.79187">
        <ele>19.162358</ele>
        <time>2021-08-18T13:01:47.470Z</time>
      </trkpt>
      <trkpt lat="40.99464" lon="38.79149">
        <ele>18.866893</ele>
        <time>2021-08-18T13:02:04.905Z</time>
      </trkpt>
      <trkpt lat="40.99396" lon="38.79057">
        <ele>22.602322</ele>
        <time>2021-08-18T13:02:54.541Z</time>
      </trkpt>
      <trkpt lat="40.99366" lon="38.79004">
        <ele>24.666723</ele>
        <time>2021-08-18T13:03:24.353Z</time>
      </trkpt>
      <trkpt lat="40.99316" lon="38.78894">
        <ele>28.981775</ele>
        <time>2021-08-18T13:04:25.547Z</time>
      </trkpt>
      <trkpt lat="40.99195" lon="38.78606">
        <ele>37.175482</ele>
        <time>2021-08-18T13:06:40.231Z</time>
      </trkpt>
      <trkpt lat="40.99173" lon="38.78525">
        <ele>37.619198</ele>
        <time>2021-08-18T13:06:56.993Z</time>
      </trkpt>
      <trkpt lat="40.99168" lon="38.7848">
        <ele>35.641456</ele>
        <time>2021-08-18T13:07:04.661Z</time>
      </trkpt>
      <trkpt lat="40.99162" lon="38.78308">
        <ele>28.126036</ele>
        <time>2021-08-18T13:07:30.789Z</time>
      </trkpt>
      <trkpt lat="40.99156" lon="38.78261">
        <ele>25.739054</ele>
        <time>2021-08-18T13:07:37.879Z</time>
      </trkpt>
      <trkpt lat="40.99144" lon="38.78208">
        <ele>22.949734</ele>
        <time>2021-08-18T13:07:46.039Z</time>
      </trkpt>
      <trkpt lat="40.99109" lon="38.78119">
        <ele>17.853635</ele>
        <time>2021-08-18T13:08:01.353Z</time>
      </trkpt>
      <trkpt lat="40.99061" lon="38.78037">
        <ele>15.139446</ele>
        <time>2021-08-18T13:08:18.122Z</time>
      </trkpt>
      <trkpt lat="40.9878" lon="38.77628">
        <ele>10.42144</ele>
        <time>2021-08-18T13:10:14.268Z</time>
      </trkpt>
      <trkpt lat="40.98726" lon="38.77565">
        <ele>10.158671</ele>
        <time>2021-08-18T13:10:37.018Z</time>
      </trkpt>
      <trkpt lat="40.98673" lon="38.77501">
        <ele>10.563297</ele>
        <time>2021-08-18T13:11:00.858Z</time>
      </trkpt>
      <trkpt lat="40.98205" lon="38.76867">
        <ele>14.168286</ele>
        <time>2021-08-18T13:14:54.057Z</time>
      </trkpt>
      <trkpt lat="40.97848" lon="38.76346">
        <ele>9.546575</ele>
        <time>2021-08-18T13:17:17.210Z</time>
      </trkpt>
      <trkpt lat="40.97829" lon="38.76319">
        <ele>9.597403</ele>
        <time>2021-08-18T13:17:25.704Z</time>
      </trkpt>
      <trkpt lat="40.97626" lon="38.76024">
        <ele>10.285471</ele>
        <time>2021-08-18T13:19:07.080Z</time>
      </trkpt>
      <trkpt lat="40.97519" lon="38.7585">
        <ele>9.520552</ele>
        <time>2021-08-18T13:19:55.347Z</time>
      </trkpt>
      <trkpt lat="40.97442" lon="38.75754">
        <ele>8.892667</ele>
        <time>2021-08-18T13:20:24.780Z</time>
      </trkpt>
      <trkpt lat="40.97212" lon="38.75421">
        <ele>7.182997</ele>
        <time>2021-08-18T13:22:02.710Z</time>
      </trkpt>
      <trkpt lat="40.97166" lon="38.75351">
        <ele>7.030396</ele>
        <time>2021-08-18T13:22:23.538Z</time>
      </trkpt>
      <trkpt lat="40.97136" lon="38.75305">
        <ele>6.930601</ele>
        <time>2021-08-18T13:22:37.680Z</time>
      </trkpt>
      <trkpt lat="40.97108" lon="38.75263">
        <ele>7.116345</ele>
        <time>2021-08-18T13:22:51.406Z</time>
      </trkpt>
      <trkpt lat="40.97015" lon="38.7511">
        <ele>7.964812</ele>
        <time>2021-08-18T13:23:43.802Z</time>
      </trkpt>
      <trkpt lat="40.96935" lon="38.7497">
        <ele>8.689582</ele>
        <time>2021-08-18T13:24:29.416Z</time>
      </trkpt>
      <trkpt lat="40.96925" lon="38.7498">
        <ele>8.760716</ele>
        <time>2021-08-18T13:24:33.768Z</time>
      </trkpt>
      <trkpt lat="40.96915" lon="38.7499">
        <ele>8.829785</ele>
        <time>2021-08-18T13:24:38.043Z</time>
      </trkpt>
      <trkpt lat="40.96909" lon="38.74976">
        <ele>8.898292</ele>
        <time>2021-08-18T13:24:42.017Z</time>
      </trkpt>
      <trkpt lat="40.96857" lon="38.74916">
        <ele>9.077526</ele>
        <time>2021-08-18T13:25:04.869Z</time>
      </trkpt>
      <trkpt lat="40.96838" lon="38.74906">
        <ele>9.125009</ele>
        <time>2021-08-18T13:25:11.574Z</time>
      </trkpt>
      <trkpt lat="40.96785" lon="38.74898">
        <ele>9.248254</ele>
        <time>2021-08-18T13:25:28.473Z</time>
      </trkpt>
      <trkpt lat="40.96772" lon="38.7489">
        <ele>9.283064</ele>
        <time>2021-08-18T13:25:33.173Z</time>
      </trkpt>
      <trkpt lat="40.96764" lon="38.74873">
        <ele>9.31877</ele>
        <time>2021-08-18T13:25:38.090Z</time>
      </trkpt>
      <trkpt lat="40.9676" lon="38.74865">
        <ele>9.336001</ele>
        <time>2021-08-18T13:25:40.439Z</time>
      </trkpt>
      <trkpt lat="40.96754" lon="38.74851">
        <ele>9.352255</ele>
        <time>2021-08-18T13:25:44.248Z</time>
      </trkpt>
      <trkpt lat="40.96714" lon="38.74757">
        <ele>9.374633</ele>
        <time>2021-08-18T13:26:10.041Z</time>
      </trkpt>
      <trkpt lat="40.96669" lon="38.74648">
        <ele>9.39961</ele>
        <time>2021-08-18T13:26:39.168Z</time>
      </trkpt>
      <trkpt lat="40.96606" lon="38.74539">
        <ele>9.354556</ele>
        <time>2021-08-18T13:27:11.137Z</time>
      </trkpt>
      <trkpt lat="40.96576" lon="38.74487">
        <ele>9.333141</ele>
        <time>2021-08-18T13:27:26.384Z</time>
      </trkpt>
      <trkpt lat="40.96502" lon="38.74357">
        <ele>9.340169</ele>
        <time>2021-08-18T13:28:04.624Z</time>
      </trkpt>
      <trkpt lat="40.96413" lon="38.74207">
        <ele>9.398587</ele>
        <time>2021-08-18T13:28:49.983Z</time>
      </trkpt>
      <trkpt lat="40.96402" lon="38.74174">
        <ele>9.416976</ele>
        <time>2021-08-18T13:28:58.484Z</time>
      </trkpt>
      <trkpt lat="40.964" lon="38.74152">
        <ele>9.428625</ele>
        <time>2021-08-18T13:29:03.892Z</time>
      </trkpt>
      <trkpt lat="40.96411" lon="38.74099">
        <ele>9.457014</ele>
        <time>2021-08-18T13:29:17.022Z</time>
      </trkpt>
      <trkpt lat="40.96405" lon="38.74075">
        <ele>9.470295</ele>
        <time>2021-08-18T13:29:23.085Z</time>
      </trkpt>
      <trkpt lat="40.96392" lon="38.74054">
        <ele>9.470934</ele>
        <time>2021-08-18T13:29:29.619Z</time>
      </trkpt>
      <trkpt lat="40.96331" lon="38.73951">
        <ele>9.332427</ele>
        <time>2021-08-18T13:30:00.221Z</time>
      </trkpt>
      <trkpt lat="40.96277" lon="38.73857">
        <ele>9.179335</ele>
        <time>2021-08-18T13:30:26.588Z</time>
      </trkpt>
      <trkpt lat="40.96212" lon="38.73743">
        <ele>8.829163</ele>
        <time>2021-08-18T13:30:58.107Z</time>
      </trkpt>
      <trkpt lat="40.96054" lon="38.73471">
        <ele>8.5331</ele>
        <time>2021-08-18T13:32:17.051Z</time>
      </trkpt>
      <trkpt lat="40.9597" lon="38.73321">
        <ele>8.896507</ele>
        <time>2021-08-18T13:33:03.300Z</time>
      </trkpt>
      <trkpt lat="40.95942" lon="38.73268">
        <ele>9.09079</ele>
        <time>2021-08-18T13:33:19.970Z</time>
      </trkpt>
      <trkpt lat="40.95837" lon="38.73099">
        <ele>9.79392</ele>
        <time>2021-08-18T13:34:15.940Z</time>
      </trkpt>
      <trkpt lat="40.9584" lon="38.73088">
        <ele>9.801328</ele>
        <time>2021-08-18T13:34:18.934Z</time>
      </trkpt>
      <trkpt lat="40.95844" lon="38.73091">
        <ele>9.805475</ele>
        <time>2021-08-18T13:34:20.679Z</time>
      </trkpt>
      <trkpt lat="40.95858" lon="38.73088">
        <ele>9.817275</ele>
        <time>2021-08-18T13:34:25.077Z</time>
      </trkpt>
      <trkpt lat="40.95864" lon="38.7307">
        <ele>9.82916</ele>
        <time>2021-08-18T13:34:29.593Z</time>
      </trkpt>
      <trkpt lat="40.95862" lon="38.73064">
        <ele>9.833258</ele>
        <time>2021-08-18T13:34:31.378Z</time>
      </trkpt>
      <trkpt lat="40.95859" lon="38.73059">
        <ele>9.837342</ele>
        <time>2021-08-18T13:34:32.933Z</time>
      </trkpt>
      <trkpt lat="40.95776" lon="38.72958">
        <ele>9.921885</ele>
        <time>2021-08-18T13:35:07.946Z</time>
      </trkpt>
      <trkpt lat="40.95692" lon="38.72845">
        <ele>9.542493</ele>
        <time>2021-08-18T13:35:43.348Z</time>
      </trkpt>
      <trkpt lat="40.95647" lon="38.72775">
        <ele>9.331432</ele>
        <time>2021-08-18T13:36:03.519Z</time>
      </trkpt>
      <trkpt lat="40.95596" lon="38.72689">
        <ele>9.134932</ele>
        <time>2021-08-18T13:36:27.579Z</time>
      </trkpt>
      <trkpt lat="40.95315" lon="38.72145">
        <ele>8.519315</ele>
        <time>2021-08-18T13:39:01.061Z</time>
      </trkpt>
      <trkpt lat="40.95118" lon="38.717">
        <ele>7.646202</ele>
        <time>2021-08-18T13:40:56.916Z</time>
      </trkpt>
      <trkpt lat="40.95076" lon="38.71581">
        <ele>7.553554</ele>
        <time>2021-08-18T13:41:27.624Z</time>
      </trkpt>
      <trkpt lat="40.95063" lon="38.71535">
        <ele>7.72847</ele>
        <time>2021-08-18T13:41:39.383Z</time>
      </trkpt>
      <trkpt lat="40.95052" lon="38.71494">
        <ele>7.887599</ele>
        <time>2021-08-18T13:41:50.394Z</time>
      </trkpt>
      <trkpt lat="40.95034" lon="38.71392">
        <ele>8.267708</ele>
        <time>2021-08-18T13:42:17.766Z</time>
      </trkpt>
      <trkpt lat="40.95028" lon="38.71337">
        <ele>8.50675</ele>
        <time>2021-08-18T13:42:32.751Z</time>
      </trkpt>
      <trkpt lat="40.9502" lon="38.71261">
        <ele>8.951137</ele>
        <time>2021-08-18T13:42:53.790Z</time>
      </trkpt>
      <trkpt lat="40.9502" lon="38.71117">
        <ele>9.77926</ele>
        <time>2021-08-18T13:43:32.627Z</time>
      </trkpt>
      <trkpt lat="40.95024" lon="38.70898">
        <ele>10.221202</ele>
        <time>2021-08-18T13:44:27.429Z</time>
      </trkpt>
      <trkpt lat="40.95022" lon="38.70801">
        <ele>9.982897</ele>
        <time>2021-08-18T13:44:49.310Z</time>
      </trkpt>
      <trkpt lat="40.95003" lon="38.7062">
        <ele>9.312753</ele>
        <time>2021-08-18T13:45:28.272Z</time>
      </trkpt>
      <trkpt lat="40.94964" lon="38.7044">
        <ele>8.486242</ele>
        <time>2021-08-18T13:46:07.874Z</time>
      </trkpt>
      <trkpt lat="40.94932" lon="38.70337">
        <ele>8.20146</ele>
        <time>2021-08-18T13:46:32.665Z</time>
      </trkpt>
      <trkpt lat="40.94901" lon="38.70246">
        <ele>8.013272</ele>
        <time>2021-08-18T13:46:54.927Z</time>
      </trkpt>
      <trkpt lat="40.9488" lon="38.70173">
        <ele>8.022218</ele>
        <time>2021-08-18T13:47:13.295Z</time>
      </trkpt>
      <trkpt lat="40.94864" lon="38.70105">
        <ele>8.395598</ele>
        <time>2021-08-18T13:47:31.898Z</time>
      </trkpt>
      <trkpt lat="40.94857" lon="38.70081">
        <ele>8.528926</ele>
        <time>2021-08-18T13:47:38.633Z</time>
      </trkpt>
      <trkpt lat="40.9485" lon="38.70046">
        <ele>8.716114</ele>
        <time>2021-08-18T13:47:48.217Z</time>
      </trkpt>
      <trkpt lat="40.94835" lon="38.69978">
        <ele>9.08441</ele>
        <time>2021-08-18T13:48:08.031Z</time>
      </trkpt>
      <trkpt lat="40.94803" lon="38.69772">
        <ele>10.516152</ele>
        <time>2021-08-18T13:49:08.917Z</time>
      </trkpt>
      <trkpt lat="40.94781" lon="38.69461">
        <ele>10.027807</ele>
        <time>2021-08-18T13:50:20.241Z</time>
      </trkpt>
      <trkpt lat="40.94766" lon="38.69318">
        <ele>8.772119</ele>
        <time>2021-08-18T13:50:46.720Z</time>
      </trkpt>
      <trkpt lat="40.94734" lon="38.69111">
        <ele>9.734415</ele>
        <time>2021-08-18T13:51:37.008Z</time>
      </trkpt>
      <trkpt lat="40.94711" lon="38.68961">
        <ele>11.861329</ele>
        <time>2021-08-18T13:52:36.364Z</time>
      </trkpt>
      <trkpt lat="40.94682" lon="38.68778">
        <ele>15.133735</ele>
        <time>2021-08-18T13:53:40.377Z</time>
      </trkpt>
      <trkpt lat="40.94673" lon="38.68714">
        <ele>15.107377</ele>
        <time>2021-08-18T13:53:54.886Z</time>
      </trkpt>
      <trkpt lat="40.94683" lon="38.68629">
        <ele>15.072812</ele>
        <time>2021-08-18T13:54:13.416Z</time>
      </trkpt>
      <trkpt lat="40.94695" lon="38.68551">
        <ele>15.049027</ele>
        <time>2021-08-18T13:54:29.770Z</time>
      </trkpt>
      <trkpt lat="40.94715" lon="38.68459">
        <ele>15.107968</ele>
        <time>2021-08-18T13:54:52.185Z</time>
      </trkpt>
      <trkpt lat="40.94732" lon="38.68391">
        <ele>15.152008</ele>
        <time>2021-08-18T13:55:09.993Z</time>
      </trkpt>
      <trkpt lat="40.94847" lon="38.68134">
        <ele>15.86468</ele>
        <time>2021-08-18T13:56:25.541Z</time>
      </trkpt>
      <trkpt lat="40.94877" lon="38.68041">
        <ele>15.744021</ele>
        <time>2021-08-18T13:56:50.504Z</time>
      </trkpt>
      <trkpt lat="40.94886" lon="38.67957">
        <ele>15.633909</ele>
        <time>2021-08-18T13:57:09.639Z</time>
      </trkpt>
      <trkpt lat="40.94886" lon="38.67919">
        <ele>15.584884</ele>
        <time>2021-08-18T13:57:17.753Z</time>
      </trkpt>
      <trkpt lat="40.94862" lon="38.67667">
        <ele>14.555668</ele>
        <time>2021-08-18T13:58:10.808Z</time>
      </trkpt>
      <trkpt lat="40.94866" lon="38.67563">
        <ele>15.862763</ele>
        <time>2021-08-18T13:58:39.011Z</time>
      </trkpt>
      <trkpt lat="40.94882" lon="38.67463">
        <ele>17.142385</ele>
        <time>2021-08-18T13:59:13.484Z</time>
      </trkpt>
      <trkpt lat="40.94895" lon="38.67417">
        <ele>18.121168</ele>
        <time>2021-08-18T13:59:30.724Z</time>
      </trkpt>
      <trkpt lat="40.94933" lon="38.67319">
        <ele>21.702516</ele>
        <time>2021-08-18T14:00:14.096Z</time>
      </trkpt>
      <trkpt lat="40.94947" lon="38.67286">
        <ele>22.976826</ele>
        <time>2021-08-18T14:00:31.868Z</time>
      </trkpt>
      <trkpt lat="40.94966" lon="38.67243">
        <ele>24.582641</ele>
        <time>2021-08-18T14:00:55.544Z</time>
      </trkpt>
      <trkpt lat="40.95128" lon="38.66851">
        <ele>38.524309</ele>
        <time>2021-08-18T14:04:23.620Z</time>
      </trkpt>
      <trkpt lat="40.9516" lon="38.66795">
        <ele>38.951065</ele>
        <time>2021-08-18T14:04:35.306Z</time>
      </trkpt>
      <trkpt lat="40.95167" lon="38.66782">
        <ele>38.400032</ele>
        <time>2021-08-18T14:04:38.046Z</time>
      </trkpt>
      <trkpt lat="40.95257" lon="38.66589">
        <ele>30.742091</ele>
        <time>2021-08-18T14:05:13.462Z</time>
      </trkpt>
      <trkpt lat="40.9544" lon="38.66224">
        <ele>24.855659</ele>
        <time>2021-08-18T14:06:38.923Z</time>
      </trkpt>
      <trkpt lat="40.9549" lon="38.66141">
        <ele>23.876037</ele>
        <time>2021-08-18T14:07:01.303Z</time>
      </trkpt>
      <trkpt lat="40.95545" lon="38.66068">
        <ele>22.949522</ele>
        <time>2021-08-18T14:07:22.327Z</time>
      </trkpt>
      <trkpt lat="40.95599" lon="38.66003">
        <ele>21.336449</ele>
        <time>2021-08-18T14:07:40.752Z</time>
      </trkpt>
      <trkpt lat="40.95687" lon="38.65896">
        <ele>17.600766</ele>
        <time>2021-08-18T14:08:07.772Z</time>
      </trkpt>
      <trkpt lat="40.95744" lon="38.65848">
        <ele>15.217709</ele>
        <time>2021-08-18T14:08:22.326Z</time>
      </trkpt>
      <trkpt lat="40.95821" lon="38.658">
        <ele>12.027157</ele>
        <time>2021-08-18T14:08:41.047Z</time>
      </trkpt>
      <trkpt lat="40.95907" lon="38.6576">
        <ele>9.53313</ele>
        <time>2021-08-18T14:09:01.930Z</time>
      </trkpt>
      <trkpt lat="40.96044" lon="38.65732">
        <ele>7.285433</ele>
        <time>2021-08-18T14:09:38.604Z</time>
      </trkpt>
      <trkpt lat="40.96066" lon="38.65726">
        <ele>7.225154</ele>
        <time>2021-08-18T14:09:45.139Z</time>
      </trkpt>
      <trkpt lat="40.96111" lon="38.65701">
        <ele>7.093679</ele>
        <time>2021-08-18T14:09:59.176Z</time>
      </trkpt>
      <trkpt lat="40.96137" lon="38.65684">
        <ele>7.017389</ele>
        <time>2021-08-18T14:10:07.403Z</time>
      </trkpt>
      <trkpt lat="40.96164" lon="38.65664">
        <ele>6.93415</ele>
        <time>2021-08-18T14:10:16.410Z</time>
      </trkpt>
      <trkpt lat="40.96426" lon="38.65456">
        <ele>9.293666</ele>
        <time>2021-08-18T14:12:01.301Z</time>
      </trkpt>
      <trkpt lat="40.96503" lon="38.65395">
        <ele>11.03055</ele>
        <time>2021-08-18T14:12:44.279Z</time>
      </trkpt>
      <trkpt lat="40.96532" lon="38.65373">
        <ele>11.623955</ele>
        <time>2021-08-18T14:13:00.629Z</time>
      </trkpt>
      <trkpt lat="40.96565" lon="38.65347">
        <ele>12.255864</ele>
        <time>2021-08-18T14:13:18.794Z</time>
      </trkpt>
      <trkpt lat="40.96623" lon="38.65283">
        <ele>13.535064</ele>
        <time>2021-08-18T14:13:50.603Z</time>
      </trkpt>
      <trkpt lat="40.96651" lon="38.65241">
        <ele>14.237328</ele>
        <time>2021-08-18T14:14:04.033Z</time>
      </trkpt>
      <trkpt lat="40.96718" lon="38.6512">
        <ele>13.528651</ele>
        <time>2021-08-18T14:14:35.126Z</time>
      </trkpt>
      <trkpt lat="40.96767" lon="38.6505">
        <ele>13.129982</ele>
        <time>2021-08-18T14:14:54.239Z</time>
      </trkpt>
      <trkpt lat="40.96794" lon="38.65025">
        <ele>13.65606</ele>
        <time>2021-08-18T14:15:03.516Z</time>
      </trkpt>
      <trkpt lat="40.9689" lon="38.6495">
        <ele>15.464573</ele>
        <time>2021-08-18T14:15:46.847Z</time>
      </trkpt>
      <trkpt lat="40.96932" lon="38.64905">
        <ele>17.344895</ele>
        <time>2021-08-18T14:16:17.026Z</time>
      </trkpt>
      <trkpt lat="40.96955" lon="38.64874">
        <ele>19.353</ele>
        <time>2021-08-18T14:16:37.754Z</time>
      </trkpt>
      <trkpt lat="40.96986" lon="38.64805">
        <ele>23.065623</ele>
        <time>2021-08-18T14:17:19.344Z</time>
      </trkpt>
      <trkpt lat="40.9701" lon="38.64711">
        <ele>27.522327</ele>
        <time>2021-08-18T14:18:15.085Z</time>
      </trkpt>
      <trkpt lat="40.97014" lon="38.64528">
        <ele>34.290757</ele>
        <time>2021-08-18T14:19:41.240Z</time>
      </trkpt>
      <trkpt lat="40.97024" lon="38.64454">
        <ele>35.713285</ele>
        <time>2021-08-18T14:20:05.356Z</time>
      </trkpt>
      <trkpt lat="40.97069" lon="38.6431">
        <ele>35.275064</ele>
        <time>2021-08-18T14:20:38.376Z</time>
      </trkpt>
      <trkpt lat="40.97089" lon="38.64229">
        <ele>34.455893</ele>
        <time>2021-08-18T14:20:53.800Z</time>
      </trkpt>
      <trkpt lat="40.97106" lon="38.64144">
        <ele>32.813758</ele>
        <time>2021-08-18T14:21:09.547Z</time>
      </trkpt>
      <trkpt lat="40.97111" lon="38.64099">
        <ele>31.965703</ele>
        <time>2021-08-18T14:21:17.664Z</time>
      </trkpt>
      <trkpt lat="40.97113" lon="38.63963">
        <ele>29.696011</ele>
        <time>2021-08-18T14:21:42.272Z</time>
      </trkpt>
      <trkpt lat="40.97091" lon="38.63727">
        <ele>26.485099</ele>
        <time>2021-08-18T14:22:27.459Z</time>
      </trkpt>
      <trkpt lat="40.9708" lon="38.63678">
        <ele>25.951169</ele>
        <time>2021-08-18T14:22:37.506Z</time>
      </trkpt>
      <trkpt lat="40.97063" lon="38.63613">
        <ele>25.237061</ele>
        <time>2021-08-18T14:22:50.822Z</time>
      </trkpt>
      <trkpt lat="40.97038" lon="38.63537">
        <ele>24.963251</ele>
        <time>2021-08-18T14:23:06.928Z</time>
      </trkpt>
      <trkpt lat="40.96996" lon="38.63363">
        <ele>26.389935</ele>
        <time>2021-08-18T14:23:59.478Z</time>
      </trkpt>
      <trkpt lat="40.96957" lon="38.63197">
        <ele>29.064059</ele>
        <time>2021-08-18T14:25:04.747Z</time>
      </trkpt>
      <trkpt lat="40.96731" lon="38.62304">
        <ele>34.973534</ele>
        <time>2021-08-18T14:29:28.741Z</time>
      </trkpt>
      <trkpt lat="40.96712" lon="38.62203">
        <ele>34.861812</ele>
        <time>2021-08-18T14:29:51.252Z</time>
      </trkpt>
      <trkpt lat="40.96694" lon="38.62085">
        <ele>33.314607</ele>
        <time>2021-08-18T14:30:14.261Z</time>
      </trkpt>
      <trkpt lat="40.96687" lon="38.62013">
        <ele>32.377912</ele>
        <time>2021-08-18T14:30:27.709Z</time>
      </trkpt>
      <trkpt lat="40.96682" lon="38.61895">
        <ele>32.414851</ele>
        <time>2021-08-18T14:30:52.371Z</time>
      </trkpt>
      <trkpt lat="40.96684" lon="38.61852">
        <ele>32.720131</ele>
        <time>2021-08-18T14:31:02.289Z</time>
      </trkpt>
      <trkpt lat="40.96687" lon="38.61824">
        <ele>32.914797</ele>
        <time>2021-08-18T14:31:10.729Z</time>
      </trkpt>
      <trkpt lat="40.96715" lon="38.61532">
        <ele>37.380469</ele>
        <time>2021-08-18T14:32:57.892Z</time>
      </trkpt>
      <trkpt lat="40.96708" lon="38.61452">
        <ele>37.713386</ele>
        <time>2021-08-18T14:33:19.293Z</time>
      </trkpt>
      <trkpt lat="40.96685" lon="38.61371">
        <ele>37.246324</ele>
        <time>2021-08-18T14:33:37.573Z</time>
      </trkpt>
      <trkpt lat="40.96644" lon="38.61296">
        <ele>36.751668</ele>
        <time>2021-08-18T14:33:54.878Z</time>
      </trkpt>
      <trkpt lat="40.96603" lon="38.61249">
        <ele>36.147447</ele>
        <time>2021-08-18T14:34:08.154Z</time>
      </trkpt>
      <trkpt lat="40.96576" lon="38.61225">
        <ele>35.756671</ele>
        <time>2021-08-18T14:34:16.290Z</time>
      </trkpt>
      <trkpt lat="40.96547" lon="38.61207">
        <ele>35.378709</ele>
        <time>2021-08-18T14:34:24.158Z</time>
      </trkpt>
      <trkpt lat="40.96491" lon="38.61187">
        <ele>34.685282</ele>
        <time>2021-08-18T14:34:40.973Z</time>
      </trkpt>
      <trkpt lat="40.96432" lon="38.61182">
        <ele>35.610525</ele>
        <time>2021-08-18T14:35:01.276Z</time>
      </trkpt>
      <trkpt lat="40.96394" lon="38.61183">
        <ele>36.44077</ele>
        <time>2021-08-18T14:35:17.119Z</time>
      </trkpt>
      <trkpt lat="40.9638" lon="38.61182">
        <ele>36.74831</ele>
        <time>2021-08-18T14:35:24.399Z</time>
      </trkpt>
      <trkpt lat="40.96318" lon="38.61166">
        <ele>38.151079</ele>
        <time>2021-08-18T14:35:54.656Z</time>
      </trkpt>
      <trkpt lat="40.96262" lon="38.61133">
        <ele>39.22186</ele>
        <time>2021-08-18T14:36:27.216Z</time>
      </trkpt>
      <trkpt lat="40.96238" lon="38.61112">
        <ele>39.680046</ele>
        <time>2021-08-18T14:36:44.091Z</time>
      </trkpt>
      <trkpt lat="40.96175" lon="38.61025">
        <ele>41.131509</ele>
        <time>2021-08-18T14:37:19.114Z</time>
      </trkpt>
      <trkpt lat="40.9613" lon="38.60959">
        <ele>39.316375</ele>
        <time>2021-08-18T14:37:34.346Z</time>
      </trkpt>
      <trkpt lat="40.96084" lon="38.60899">
        <ele>36.70316</ele>
        <time>2021-08-18T14:37:47.824Z</time>
      </trkpt>
      <trkpt lat="40.9605" lon="38.60857">
        <ele>34.84904</ele>
        <time>2021-08-18T14:37:57.583Z</time>
      </trkpt>
      <trkpt lat="40.96017" lon="38.6082">
        <ele>34.227872</ele>
        <time>2021-08-18T14:38:06.606Z</time>
      </trkpt>
      <trkpt lat="40.95807" lon="38.60571">
        <ele>36.543765</ele>
        <time>2021-08-18T14:40:00.286Z</time>
      </trkpt>
      <trkpt lat="40.95753" lon="38.60497">
        <ele>37.328435</ele>
        <time>2021-08-18T14:40:32.721Z</time>
      </trkpt>
      <trkpt lat="40.95236" lon="38.59656">
        <ele>35.860505</ele>
        <time>2021-08-18T14:44:37.914Z</time>
      </trkpt>
      <trkpt lat="40.95177" lon="38.59573">
        <ele>34.978665</ele>
        <time>2021-08-18T14:45:02.150Z</time>
      </trkpt>
      <trkpt lat="40.95108" lon="38.595">
        <ele>33.215185</ele>
        <time>2021-08-18T14:45:24.495Z</time>
      </trkpt>
      <trkpt lat="40.95033" lon="38.59437">
        <ele>30.680601</ele>
        <time>2021-08-18T14:45:44.883Z</time>
      </trkpt>
      <trkpt lat="40.94894" lon="38.59344">
        <ele>23.483027</ele>
        <time>2021-08-18T14:46:17.604Z</time>
      </trkpt>
      <trkpt lat="40.94797" lon="38.59279">
        <ele>19.133754</ele>
        <time>2021-08-18T14:46:40.991Z</time>
      </trkpt>
      <trkpt lat="40.94795" lon="38.59274">
        <ele>18.970284</ele>
        <time>2021-08-18T14:46:41.912Z</time>
      </trkpt>
      <trkpt lat="40.94788" lon="38.59268">
        <ele>18.646395</ele>
        <time>2021-08-18T14:46:43.733Z</time>
      </trkpt>
      <trkpt lat="40.94784" lon="38.59267">
        <ele>18.4862</ele>
        <time>2021-08-18T14:46:44.650Z</time>
      </trkpt>
      <trkpt lat="40.94729" lon="38.59218">
        <ele>16.390772</ele>
        <time>2021-08-18T14:46:59.934Z</time>
      </trkpt>
      <trkpt lat="40.94681" lon="38.59168">
        <ele>15.966583</ele>
        <time>2021-08-18T14:47:15.830Z</time>
      </trkpt>
      <trkpt lat="40.94646" lon="38.59122">
        <ele>15.628171</ele>
        <time>2021-08-18T14:47:30.981Z</time>
      </trkpt>
      <trkpt lat="40.94446" lon="38.58805">
        <ele>18.548752</ele>
        <time>2021-08-18T14:49:21.959Z</time>
      </trkpt>
      <trkpt lat="40.94398" lon="38.58713">
        <ele>20.540528</ele>
        <time>2021-08-18T14:50:03.641Z</time>
      </trkpt>
      <trkpt lat="40.94381" lon="38.58665">
        <ele>22.062729</ele>
        <time>2021-08-18T14:50:25.637Z</time>
      </trkpt>
      <trkpt lat="40.94356" lon="38.58565">
        <ele>25.766192</ele>
        <time>2021-08-18T14:51:10.773Z</time>
      </trkpt>
      <trkpt lat="40.94333" lon="38.58269">
        <ele>37.290904</ele>
        <time>2021-08-18T14:53:26.180Z</time>
      </trkpt>
      <trkpt lat="40.94321" lon="38.5815">
        <ele>41.357925</ele>
        <time>2021-08-18T14:54:25.465Z</time>
      </trkpt>
      <trkpt lat="40.94309" lon="38.58089">
        <ele>43.286954</ele>
        <time>2021-08-18T14:54:54.327Z</time>
      </trkpt>
      <trkpt lat="40.94294" lon="38.58042">
        <ele>44.835676</ele>
        <time>2021-08-18T14:55:15.315Z</time>
      </trkpt>
      <trkpt lat="40.9427" lon="38.57994">
        <ele>45.957219</ele>
        <time>2021-08-18T14:55:33.165Z</time>
      </trkpt>
      <trkpt lat="40.94215" lon="38.57913">
        <ele>43.350514</ele>
        <time>2021-08-18T14:55:52.803Z</time>
      </trkpt>
      <trkpt lat="40.94186" lon="38.57887">
        <ele>42.250938</ele>
        <time>2021-08-18T14:56:00.249Z</time>
      </trkpt>
      <trkpt lat="40.94115" lon="38.57842">
        <ele>39.404218</ele>
        <time>2021-08-18T14:56:16.421Z</time>
      </trkpt>
      <trkpt lat="40.94098" lon="38.57831">
        <ele>38.483857</ele>
        <time>2021-08-18T14:56:20.429Z</time>
      </trkpt>
      <trkpt lat="40.94037" lon="38.57783">
        <ele>35.135979</ele>
        <time>2021-08-18T14:56:35.199Z</time>
      </trkpt>
      <trkpt lat="40.93983" lon="38.57715">
        <ele>31.767374</ele>
        <time>2021-08-18T14:56:51.720Z</time>
      </trkpt>
      <trkpt lat="40.9395" lon="38.57645">
        <ele>29.679756</ele>
        <time>2021-08-18T14:57:06.987Z</time>
      </trkpt>
      <trkpt lat="40.93903" lon="38.57503">
        <ele>25.6447</ele>
        <time>2021-08-18T14:57:33.466Z</time>
      </trkpt>
      <trkpt lat="40.9386" lon="38.5744">
        <ele>22.58094</ele>
        <time>2021-08-18T14:57:47.033Z</time>
      </trkpt>
      <trkpt lat="40.93829" lon="38.57408">
        <ele>20.705791</ele>
        <time>2021-08-18T14:57:55.372Z</time>
      </trkpt>
      <trkpt lat="40.93808" lon="38.57386">
        <ele>19.443852</ele>
        <time>2021-08-18T14:58:00.861Z</time>
      </trkpt>
      <trkpt lat="40.93682" lon="38.5726">
        <ele>13.882135</ele>
        <time>2021-08-18T14:58:34.925Z</time>
      </trkpt>
      <trkpt lat="40.93614" lon="38.57182">
        <ele>12.062749</ele>
        <time>2021-08-18T14:58:59.863Z</time>
      </trkpt>
      <trkpt lat="40.93593" lon="38.57152">
        <ele>12.20455</ele>
        <time>2021-08-18T14:59:09.359Z</time>
      </trkpt>
      <trkpt lat="40.93564" lon="38.57112">
        <ele>12.39723</ele>
        <time>2021-08-18T14:59:23.661Z</time>
      </trkpt>
      <trkpt lat="40.93553" lon="38.57095">
        <ele>12.474974</ele>
        <time>2021-08-18T14:59:29.938Z</time>
      </trkpt>
      <trkpt lat="40.93315" lon="38.56735">
        <ele>16.974389</ele>
        <time>2021-08-18T15:01:49.597Z</time>
      </trkpt>
      <trkpt lat="40.93203" lon="38.56539">
        <ele>19.96064</ele>
        <time>2021-08-18T15:03:05.958Z</time>
      </trkpt>
      <trkpt lat="40.93173" lon="38.56477">
        <ele>20.868906</ele>
        <time>2021-08-18T15:03:29.022Z</time>
      </trkpt>
      <trkpt lat="40.93122" lon="38.56345">
        <ele>21.031363</ele>
        <time>2021-08-18T15:04:09.323Z</time>
      </trkpt>
      <trkpt lat="40.93084" lon="38.56267">
        <ele>21.073313</ele>
        <time>2021-08-18T15:04:28.714Z</time>
      </trkpt>
      <trkpt lat="40.92973" lon="38.56102">
        <ele>17.498213</ele>
        <time>2021-08-18T15:05:08.620Z</time>
      </trkpt>
      <trkpt lat="40.92923" lon="38.56004">
        <ele>16.952083</ele>
        <time>2021-08-18T15:05:30.747Z</time>
      </trkpt>
      <trkpt lat="40.92877" lon="38.55897">
        <ele>16.563107</ele>
        <time>2021-08-18T15:06:02.695Z</time>
      </trkpt>
      <trkpt lat="40.92824" lon="38.55786">
        <ele>17.537477</ele>
        <time>2021-08-18T15:06:43.423Z</time>
      </trkpt>
      <trkpt lat="40.92709" lon="38.55538">
        <ele>18.156589</ele>
        <time>2021-08-18T15:08:00.056Z</time>
      </trkpt>
      <trkpt lat="40.92527" lon="38.5513">
        <ele>11.250341</ele>
        <time>2021-08-18T15:09:25.583Z</time>
      </trkpt>
      <trkpt lat="40.92406" lon="38.5486">
        <ele>9.760905</ele>
        <time>2021-08-18T15:10:35.124Z</time>
      </trkpt>
      <trkpt lat="40.92287" lon="38.54593">
        <ele>10.617762</ele>
        <time>2021-08-18T15:11:52.505Z</time>
      </trkpt>
      <trkpt lat="40.92257" lon="38.54526">
        <ele>11.074434</ele>
        <time>2021-08-18T15:12:13.573Z</time>
      </trkpt>
      <trkpt lat="40.91985" lon="38.5391">
        <ele>16.003888</ele>
        <time>2021-08-18T15:15:34.291Z</time>
      </trkpt>
      <trkpt lat="40.91948" lon="38.53816">
        <ele>16.277393</ele>
        <time>2021-08-18T15:15:57.319Z</time>
      </trkpt>
      <trkpt lat="40.91892" lon="38.53709">
        <ele>16.168343</ele>
        <time>2021-08-18T15:16:25.249Z</time>
      </trkpt>
      <trkpt lat="40.91846" lon="38.53595">
        <ele>16.487905</ele>
        <time>2021-08-18T15:16:58.931Z</time>
      </trkpt>
      <trkpt lat="40.91783" lon="38.5341">
        <ele>18.060896</ele>
        <time>2021-08-18T15:17:58.027Z</time>
      </trkpt>
      <trkpt lat="40.91759" lon="38.53311">
        <ele>18.390686</ele>
        <time>2021-08-18T15:18:26.547Z</time>
      </trkpt>
      <trkpt lat="40.91752" lon="38.5327">
        <ele>18.525267</ele>
        <time>2021-08-18T15:18:37.640Z</time>
      </trkpt>
      <trkpt lat="40.91699" lon="38.52996">
        <ele>17.149885</ele>
        <time>2021-08-18T15:19:38.098Z</time>
      </trkpt>
      <trkpt lat="40.91687" lon="38.52863">
        <ele>15.069132</ele>
        <time>2021-08-18T15:20:01.842Z</time>
      </trkpt>
      <trkpt lat="40.91695" lon="38.52777">
        <ele>13.484554</ele>
        <time>2021-08-18T15:20:17.269Z</time>
      </trkpt>
      <trkpt lat="40.91704" lon="38.52733">
        <ele>12.652096</ele>
        <time>2021-08-18T15:20:25.526Z</time>
      </trkpt>
      <trkpt lat="40.91717" lon="38.52675">
        <ele>12.132042</ele>
        <time>2021-08-18T15:20:36.837Z</time>
      </trkpt>
      <trkpt lat="40.91744" lon="38.52577">
        <ele>11.332679</ele>
        <time>2021-08-18T15:20:58.018Z</time>
      </trkpt>
      <trkpt lat="40.91778" lon="38.52421">
        <ele>10.755707</ele>
        <time>2021-08-18T15:21:36.367Z</time>
      </trkpt>
      <trkpt lat="40.91786" lon="38.52359">
        <ele>10.772705</ele>
        <time>2021-08-18T15:21:51.494Z</time>
      </trkpt>
      <trkpt lat="40.91791" lon="38.52245">
        <ele>10.773127</ele>
        <time>2021-08-18T15:22:18.722Z</time>
      </trkpt>
      <trkpt lat="40.91783" lon="38.52135">
        <ele>10.649522</ele>
        <time>2021-08-18T15:22:44.788Z</time>
      </trkpt>
      <trkpt lat="40.91723" lon="38.51628">
        <ele>9.505502</ele>
        <time>2021-08-18T15:24:39.203Z</time>
      </trkpt>
      <trkpt lat="40.91717" lon="38.51575">
        <ele>9.369766</ele>
        <time>2021-08-18T15:24:51.055Z</time>
      </trkpt>
      <trkpt lat="40.91716" lon="38.51521">
        <ele>9.438352</ele>
        <time>2021-08-18T15:25:03.094Z</time>
      </trkpt>
      <trkpt lat="40.91716" lon="38.51442">
        <ele>9.648843</ele>
        <time>2021-08-18T15:25:21.989Z</time>
      </trkpt>
      <trkpt lat="40.91732" lon="38.51293">
        <ele>10.201369</ele>
        <time>2021-08-18T15:26:02.665Z</time>
      </trkpt>
      <trkpt lat="40.91723" lon="38.51128">
        <ele>11.462733</ele>
        <time>2021-08-18T15:26:49.880Z</time>
      </trkpt>
      <trkpt lat="40.91725" lon="38.50963">
        <ele>12.565118</ele>
        <time>2021-08-18T15:27:34.063Z</time>
      </trkpt>
      <trkpt lat="40.91766" lon="38.50723">
        <ele>14.920822</ele>
        <time>2021-08-18T15:28:41.589Z</time>
      </trkpt>
      <trkpt lat="40.91764" lon="38.50626">
        <ele>16.120227</ele>
        <time>2021-08-18T15:29:13.565Z</time>
      </trkpt>
      <trkpt lat="40.91745" lon="38.50548">
        <ele>17.954169</ele>
        <time>2021-08-18T15:29:43.357Z</time>
      </trkpt>
      <trkpt lat="40.91589" lon="38.50136">
        <ele>28.552489</ele>
        <time>2021-08-18T15:32:36.890Z</time>
      </trkpt>
      <trkpt lat="40.91565" lon="38.50039">
        <ele>29.963955</ele>
        <time>2021-08-18T15:33:08.160Z</time>
      </trkpt>
      <trkpt lat="40.91556" lon="38.49938">
        <ele>31.125486</ele>
        <time>2021-08-18T15:33:36.067Z</time>
      </trkpt>
      <trkpt lat="40.9156" lon="38.49851">
        <ele>31.391631</ele>
        <time>2021-08-18T15:33:58.263Z</time>
      </trkpt>
      <trkpt lat="40.916" lon="38.49646">
        <ele>31.940695</ele>
        <time>2021-08-18T15:34:49.755Z</time>
      </trkpt>
      <trkpt lat="40.91608" lon="38.49564">
        <ele>32.097987</ele>
        <time>2021-08-18T15:35:09.874Z</time>
      </trkpt>
      <trkpt lat="40.91608" lon="38.4948">
        <ele>32.292644</ele>
        <time>2021-08-18T15:35:31.249Z</time>
      </trkpt>
      <trkpt lat="40.91599" lon="38.49358">
        <ele>32.838436</ele>
        <time>2021-08-18T15:36:03.393Z</time>
      </trkpt>
      <trkpt lat="40.91586" lon="38.49235">
        <ele>33.226513</ele>
        <time>2021-08-18T15:36:36.667Z</time>
      </trkpt>
      <trkpt lat="40.91559" lon="38.4911">
        <ele>32.784426</ele>
        <time>2021-08-18T15:37:07.997Z</time>
      </trkpt>
      <trkpt lat="40.91509" lon="38.48943">
        <ele>30.44854</ele>
        <time>2021-08-18T15:37:42.284Z</time>
      </trkpt>
      <trkpt lat="40.91452" lon="38.4871">
        <ele>25.51308</ele>
        <time>2021-08-18T15:38:23.474Z</time>
      </trkpt>
      <trkpt lat="40.91421" lon="38.48594">
        <ele>23.318767</ele>
        <time>2021-08-18T15:38:46.334Z</time>
      </trkpt>
      <trkpt lat="40.91376" lon="38.48419">
        <ele>24.344371</ele>
        <time>2021-08-18T15:39:35.161Z</time>
      </trkpt>
      <trkpt lat="40.91358" lon="38.48309">
        <ele>25.410573</ele>
        <time>2021-08-18T15:40:15.020Z</time>
      </trkpt>
      <trkpt lat="40.91342" lon="38.4816">
        <ele>27.244925</ele>
        <time>2021-08-18T15:41:02.610Z</time>
      </trkpt>
      <trkpt lat="40.91343" lon="38.48079">
        <ele>27.340373</ele>
        <time>2021-08-18T15:41:23.079Z</time>
      </trkpt>
      <trkpt lat="40.91357" lon="38.47948">
        <ele>25.780903</ele>
        <time>2021-08-18T15:41:49.091Z</time>
      </trkpt>
      <trkpt lat="40.91388" lon="38.47825">
        <ele>23.483671</ele>
        <time>2021-08-18T15:42:11.450Z</time>
      </trkpt>
      <trkpt lat="40.91435" lon="38.47708">
        <ele>20.318122</ele>
        <time>2021-08-18T15:42:33.738Z</time>
      </trkpt>
      <trkpt lat="40.91497" lon="38.47609">
        <ele>18.928522</ele>
        <time>2021-08-18T15:42:57.166Z</time>
      </trkpt>
      <trkpt lat="40.91666" lon="38.47438">
        <ele>19.453226</ele>
        <time>2021-08-18T15:44:10.245Z</time>
      </trkpt>
      <trkpt lat="40.91712" lon="38.47386">
        <ele>20.164804</ele>
        <time>2021-08-18T15:44:35.260Z</time>
      </trkpt>
      <trkpt lat="40.91742" lon="38.47337">
        <ele>20.849429</ele>
        <time>2021-08-18T15:44:55.266Z</time>
      </trkpt>
      <trkpt lat="40.91765" lon="38.47288">
        <ele>21.579462</ele>
        <time>2021-08-18T15:45:13.943Z</time>
      </trkpt>
      <trkpt lat="40.91784" lon="38.47227">
        <ele>22.42122</ele>
        <time>2021-08-18T15:45:34.905Z</time>
      </trkpt>
      <trkpt lat="40.91799" lon="38.47151">
        <ele>23.412052</ele>
        <time>2021-08-18T15:45:58.069Z</time>
      </trkpt>
      <trkpt lat="40.91802" lon="38.47109">
        <ele>23.543492</ele>
        <time>2021-08-18T15:46:09.650Z</time>
      </trkpt>
      <trkpt lat="40.91798" lon="38.47028">
        <ele>23.757988</ele>
        <time>2021-08-18T15:46:30.809Z</time>
      </trkpt>
      <trkpt lat="40.91777" lon="38.46934">
        <ele>24.014567</ele>
        <time>2021-08-18T15:46:53.964Z</time>
      </trkpt>
      <trkpt lat="40.91502" lon="38.45997">
        <ele>20.440828</ele>
        <time>2021-08-18T15:50:34.450Z</time>
      </trkpt>
      <trkpt lat="40.9148" lon="38.45861">
        <ele>19.038959</ele>
        <time>2021-08-18T15:51:01.275Z</time>
      </trkpt>
      <trkpt lat="40.91475" lon="38.4578">
        <ele>18.411583</ele>
        <time>2021-08-18T15:51:17.012Z</time>
      </trkpt>
      <trkpt lat="40.91475" lon="38.45756">
        <ele>18.441073</ele>
        <time>2021-08-18T15:51:21.458Z</time>
      </trkpt>
      <trkpt lat="40.91475" lon="38.45735">
        <ele>18.466812</ele>
        <time>2021-08-18T15:51:25.824Z</time>
      </trkpt>
      <trkpt lat="40.91473" lon="38.45685">
        <ele>18.530235</ele>
        <time>2021-08-18T15:51:36.451Z</time>
      </trkpt>
      <trkpt lat="40.91475" lon="38.45629">
        <ele>18.599672</ele>
        <time>2021-08-18T15:51:48.637Z</time>
      </trkpt>
      <trkpt lat="40.91488" lon="38.45549">
        <ele>19.151493</ele>
        <time>2021-08-18T15:52:10.922Z</time>
      </trkpt>
      <trkpt lat="40.91529" lon="38.45437">
        <ele>24.458659</ele>
        <time>2021-08-18T15:53:13.106Z</time>
      </trkpt>
      <trkpt lat="40.91556" lon="38.45366">
        <ele>27.813654</ele>
        <time>2021-08-18T15:54:00.431Z</time>
      </trkpt>
      <trkpt lat="40.91567" lon="38.45329">
        <ele>28.778491</ele>
        <time>2021-08-18T15:54:18.863Z</time>
      </trkpt>
      <trkpt lat="40.91572" lon="38.45258">
        <ele>28.742416</ele>
        <time>2021-08-18T15:54:46.629Z</time>
      </trkpt>
      <trkpt lat="40.9157" lon="38.45222">
        <ele>28.724059</ele>
        <time>2021-08-18T15:54:58.478Z</time>
      </trkpt>
      <trkpt lat="40.91563" lon="38.45143">
        <ele>28.683471</ele>
        <time>2021-08-18T15:55:13.372Z</time>
      </trkpt>
      <trkpt lat="40.91552" lon="38.45066">
        <ele>26.771212</ele>
        <time>2021-08-18T15:55:25.194Z</time>
      </trkpt>
      <trkpt lat="40.91536" lon="38.44995">
        <ele>23.623544</ele>
        <time>2021-08-18T15:55:35.861Z</time>
      </trkpt>
      <trkpt lat="40.91516" lon="38.4491">
        <ele>19.811571</ele>
        <time>2021-08-18T15:55:50.055Z</time>
      </trkpt>
      <trkpt lat="40.91504" lon="38.44861">
        <ele>18.757954</ele>
        <time>2021-08-18T15:55:59.923Z</time>
      </trkpt>
      <trkpt lat="40.91481" lon="38.44759">
        <ele>20.012119</ele>
        <time>2021-08-18T15:56:31.153Z</time>
      </trkpt>
      <trkpt lat="40.91442" lon="38.44591">
        <ele>21.059707</ele>
        <time>2021-08-18T15:57:40.225Z</time>
      </trkpt>
      <trkpt lat="40.91417" lon="38.44489">
        <ele>20.624293</ele>
        <time>2021-08-18T15:58:01.869Z</time>
      </trkpt>
      <trkpt lat="40.91378" lon="38.44326">
        <ele>17.236822</ele>
        <time>2021-08-18T15:58:30.444Z</time>
      </trkpt>
      <trkpt lat="40.91356" lon="38.4422">
        <ele>13.974436</ele>
        <time>2021-08-18T15:58:48.486Z</time>
      </trkpt>
      <trkpt lat="40.91336" lon="38.44137">
        <ele>12.112394</ele>
        <time>2021-08-18T15:59:03.064Z</time>
      </trkpt>
      <trkpt lat="40.913" lon="38.43952">
        <ele>8.900719</ele>
        <time>2021-08-18T15:59:38.498Z</time>
      </trkpt>
      <trkpt lat="40.91263" lon="38.43771">
        <ele>9.121129</ele>
        <time>2021-08-18T16:00:24.760Z</time>
      </trkpt>
      <trkpt lat="40.91183" lon="38.43383">
        <ele>11.92735</ele>
        <time>2021-08-18T16:02:27.107Z</time>
      </trkpt>
      <trkpt lat="40.91171" lon="38.433">
        <ele>11.942738</ele>
        <time>2021-08-18T16:02:44.282Z</time>
      </trkpt>
      <trkpt lat="40.91167" lon="38.43224">
        <ele>10.423469</ele>
        <time>2021-08-18T16:02:57.681Z</time>
      </trkpt>
      <trkpt lat="40.9117" lon="38.43142">
        <ele>8.124297</ele>
        <time>2021-08-18T16:03:11.213Z</time>
      </trkpt>
      <trkpt lat="40.91173" lon="38.43108">
        <ele>7.139659</ele>
        <time>2021-08-18T16:03:16.808Z</time>
      </trkpt>
      <trkpt lat="40.91177" lon="38.43081">
        <ele>6.365982</ele>
        <time>2021-08-18T16:03:21.347Z</time>
      </trkpt>
      <trkpt lat="40.91184" lon="38.43041">
        <ele>5.221701</ele>
        <time>2021-08-18T16:03:28.045Z</time>
      </trkpt>
      <trkpt lat="40.91203" lon="38.42957">
        <ele>3.551656</ele>
        <time>2021-08-18T16:03:42.699Z</time>
      </trkpt>
      <trkpt lat="40.91207" lon="38.42935">
        <ele>3.116385</ele>
        <time>2021-08-18T16:03:46.505Z</time>
      </trkpt>
      <trkpt lat="40.91238" lon="38.42852">
        <ele>1.35042</ele>
        <time>2021-08-18T16:04:04.072Z</time>
      </trkpt>
      <trkpt lat="40.9129" lon="38.42651">
        <ele>0.518406</ele>
        <time>2021-08-18T16:04:52.231Z</time>
      </trkpt>
      <trkpt lat="40.91301" lon="38.42601">
        <ele>0.464992</ele>
        <time>2021-08-18T16:05:05.035Z</time>
      </trkpt>
      <trkpt lat="40.91304" lon="38.42588">
        <ele>0.528657</ele>
        <time>2021-08-18T16:05:08.593Z</time>
      </trkpt>
      <trkpt lat="40.91317" lon="38.42532">
        <ele>1.229532</ele>
        <time>2021-08-18T16:05:23.703Z</time>
      </trkpt>
      <trkpt lat="40.91364" lon="38.42393">
        <ele>3.056767</ele>
        <time>2021-08-18T16:06:07.663Z</time>
      </trkpt>
      <trkpt lat="40.91424" lon="38.4227">
        <ele>8.693656</ele>
        <time>2021-08-18T16:07:11.461Z</time>
      </trkpt>
      <trkpt lat="40.91439" lon="38.42249">
        <ele>9.923768</ele>
        <time>2021-08-18T16:07:25.615Z</time>
      </trkpt>
      <trkpt lat="40.91461" lon="38.42213">
        <ele>11.928718</ele>
        <time>2021-08-18T16:07:50.532Z</time>
      </trkpt>
      <trkpt lat="40.91494" lon="38.42163">
        <ele>15.152616</ele>
        <time>2021-08-18T16:08:28.623Z</time>
      </trkpt>
      <trkpt lat="40.9151" lon="38.42136">
        <ele>17.107102</ele>
        <time>2021-08-18T16:08:48.878Z</time>
      </trkpt>
      <trkpt lat="40.91536" lon="38.42076">
        <ele>21.032991</ele>
        <time>2021-08-18T16:09:31.143Z</time>
      </trkpt>
      <trkpt lat="40.91555" lon="38.42008">
        <ele>25.127538</ele>
        <time>2021-08-18T16:10:12.126Z</time>
      </trkpt>
      <trkpt lat="40.9156" lon="38.41946">
        <ele>27.570374</ele>
        <time>2021-08-18T16:10:40.892Z</time>
      </trkpt>
      <trkpt lat="40.91556" lon="38.41912">
        <ele>28.237734</ele>
        <time>2021-08-18T16:10:55.351Z</time>
      </trkpt>
      <trkpt lat="40.91544" lon="38.41874">
        <ele>29.043626</ele>
        <time>2021-08-18T16:11:11.402Z</time>
      </trkpt>
      <trkpt lat="40.91479" lon="38.41721">
        <ele>31.242451</ele>
        <time>2021-08-18T16:12:00.111Z</time>
      </trkpt>
      <trkpt lat="40.91461" lon="38.41632">
        <ele>30.346355</ele>
        <time>2021-08-18T16:12:18.003Z</time>
      </trkpt>
      <trkpt lat="40.91455" lon="38.41579">
        <ele>29.823158</ele>
        <time>2021-08-18T16:12:27.992Z</time>
      </trkpt>
      <trkpt lat="40.91461" lon="38.41484">
        <ele>28.610254</ele>
        <time>2021-08-18T16:12:45.117Z</time>
      </trkpt>
      <trkpt lat="40.91505" lon="38.41289">
        <ele>25.421218</ele>
        <time>2021-08-18T16:13:22.608Z</time>
      </trkpt>
      <trkpt lat="40.91514" lon="38.41226">
        <ele>24.925221</ele>
        <time>2021-08-18T16:13:35.505Z</time>
      </trkpt>
      <trkpt lat="40.91514" lon="38.41146">
        <ele>24.303967</ele>
        <time>2021-08-18T16:13:52.210Z</time>
      </trkpt>
      <trkpt lat="40.91502" lon="38.41027">
        <ele>23.285058</ele>
        <time>2021-08-18T16:14:18.518Z</time>
      </trkpt>
      <trkpt lat="40.91439" lon="38.40777">
        <ele>20.177195</ele>
        <time>2021-08-18T16:15:09.619Z</time>
      </trkpt>
      <trkpt lat="40.9143" lon="38.40725">
        <ele>19.266066</ele>
        <time>2021-08-18T16:15:19.069Z</time>
      </trkpt>
      <trkpt lat="40.91422" lon="38.40633">
        <ele>17.660976</ele>
        <time>2021-08-18T16:15:35.653Z</time>
      </trkpt>
      <trkpt lat="40.91427" lon="38.40452">
        <ele>14.944249</ele>
        <time>2021-08-18T16:16:08.255Z</time>
      </trkpt>
      <trkpt lat="40.9145" lon="38.40293">
        <ele>13.84915</ele>
        <time>2021-08-18T16:16:41.583Z</time>
      </trkpt>
      <trkpt lat="40.91468" lon="38.40226">
        <ele>14.002486</ele>
        <time>2021-08-18T16:17:00.423Z</time>
      </trkpt>
      <trkpt lat="40.91474" lon="38.4021">
        <ele>14.039277</ele>
        <time>2021-08-18T16:17:04.324Z</time>
      </trkpt>
      <trkpt lat="40.91445" lon="38.40194">
        <ele>14.127376</ele>
        <time>2021-08-18T16:17:15.594Z</time>
      </trkpt>
      <trkpt lat="40.91424" lon="38.40183">
        <ele>14.190974</ele>
        <time>2021-08-18T16:17:24.962Z</time>
      </trkpt>
      <trkpt lat="40.91432" lon="38.4016">
        <ele>14.521309</ele>
        <time>2021-08-18T16:17:30.968Z</time>
      </trkpt>
      <trkpt lat="40.91458" lon="38.40098">
        <ele>15.574539</ele>
        <time>2021-08-18T16:17:53.240Z</time>
      </trkpt>
      <trkpt lat="40.91496" lon="38.40024">
        <ele>16.927135</ele>
        <time>2021-08-18T16:18:21.735Z</time>
      </trkpt>
      <trkpt lat="40.91571" lon="38.39913">
        <ele>21.997123</ele>
        <time>2021-08-18T16:19:14.088Z</time>
      </trkpt>
      <trkpt lat="40.91596" lon="38.39879">
        <ele>24.195476</ele>
        <time>2021-08-18T16:19:39.441Z</time>
      </trkpt>
      <trkpt lat="40.91571" lon="38.39859">
        <ele>25.967862</ele>
        <time>2021-08-18T16:20:02.688Z</time>
      </trkpt>
      <trkpt lat="40.91541" lon="38.39887">
        <ele>28.161098</ele>
        <time>2021-08-18T16:20:32.910Z</time>
      </trkpt>
      <trkpt lat="40.91524" lon="38.39837">
        <ele>31.403766</ele>
        <time>2021-08-18T16:21:07.994Z</time>
      </trkpt>
      <trkpt lat="40.91483" lon="38.39793">
        <ele>35.706205</ele>
        <time>2021-08-18T16:21:52.036Z</time>
      </trkpt>
      <trkpt lat="40.91452" lon="38.39757">
        <ele>39.075753</ele>
        <time>2021-08-18T16:22:24.520Z</time>
      </trkpt>
      <trkpt lat="40.91431" lon="38.39733">
        <ele>41.328253</ele>
        <time>2021-08-18T16:22:45.672Z</time>
      </trkpt>
      <trkpt lat="40.91448" lon="38.39681">
        <ele>43.965399</ele>
        <time>2021-08-18T16:23:17.490Z</time>
      </trkpt>
      <trkpt lat="40.91458" lon="38.39642">
        <ele>44.940506</ele>
        <time>2021-08-18T16:23:36.080Z</time>
      </trkpt>
      <trkpt lat="40.91461" lon="38.39623">
        <ele>45.409809</ele>
        <time>2021-08-18T16:23:43.362Z</time>
      </trkpt>
      <trkpt lat="40.91443" lon="38.39627">
        <ele>45.977515</ele>
        <time>2021-08-18T16:23:51.802Z</time>
      </trkpt>
      <trkpt lat="40.91436" lon="38.3958">
        <ele>47.112614</ele>
        <time>2021-08-18T16:24:07.058Z</time>
      </trkpt>
      <trkpt lat="40.91436" lon="38.39574">
        <ele>47.267352</ele>
        <time>2021-08-18T16:24:09.141Z</time>
      </trkpt>
      <trkpt lat="40.9143" lon="38.39565">
        <ele>47.545473</ele>
        <time>2021-08-18T16:24:12.655Z</time>
      </trkpt>
      <trkpt lat="40.91409" lon="38.39548">
        <ele>48.303855</ele>
        <time>2021-08-18T16:24:21.745Z</time>
      </trkpt>
      <trkpt lat="40.91436" lon="38.39505">
        <ele>49.592075</ele>
        <time>2021-08-18T16:24:37.923Z</time>
      </trkpt>
      <trkpt lat="40.91461" lon="38.39471">
        <ele>50.609177</ele>
        <time>2021-08-18T16:24:51.611Z</time>
      </trkpt>
      <trkpt lat="40.91487" lon="38.39437">
        <ele>51.65427</ele>
        <time>2021-08-18T16:25:07.866Z</time>
      </trkpt>
      <trkpt lat="40.91496" lon="38.39422">
        <ele>52.071267</ele>
        <time>2021-08-18T16:25:14.078Z</time>
      </trkpt>
      <trkpt lat="40.91523" lon="38.39376">
        <ele>53.339696</ele>
        <time>2021-08-18T16:25:36.933Z</time>
      </trkpt>
      <trkpt lat="40.91533" lon="38.39361">
        <ele>53.777641</ele>
        <time>2021-08-18T16:25:44.275Z</time>
      </trkpt>
      <trkpt lat="40.91538" lon="38.39353">
        <ele>53.985361</ele>
        <time>2021-08-18T16:25:47.756Z</time>
      </trkpt>
      <trkpt lat="40.91553" lon="38.39338">
        <ele>54.783734</ele>
        <time>2021-08-18T16:26:00.475Z</time>
      </trkpt>
      <trkpt lat="40.91565" lon="38.39334">
        <ele>55.457107</ele>
        <time>2021-08-18T16:26:07.455Z</time>
      </trkpt>
      <trkpt lat="40.91572" lon="38.39333">
        <ele>55.798013</ele>
        <time>2021-08-18T16:26:10.767Z</time>
      </trkpt>
      <trkpt lat="40.91578" lon="38.39325">
        <ele>56.238978</ele>
        <time>2021-08-18T16:26:18.056Z</time>
      </trkpt>
      <trkpt lat="40.91577" lon="38.39284">
        <ele>57.865701</ele>
        <time>2021-08-18T16:26:38.651Z</time>
      </trkpt>
      <trkpt lat="40.91568" lon="38.39246">
        <ele>59.451799</ele>
        <time>2021-08-18T16:26:59.852Z</time>
      </trkpt>
      <trkpt lat="40.9155" lon="38.39169">
        <ele>62.671307</ele>
        <time>2021-08-18T16:27:39.866Z</time>
      </trkpt>
      <trkpt lat="40.91545" lon="38.39136">
        <ele>63.596412</ele>
        <time>2021-08-18T16:27:53.503Z</time>
      </trkpt>
      <trkpt lat="40.91527" lon="38.39097">
        <ele>62.932217</ele>
        <time>2021-08-18T16:28:07.350Z</time>
      </trkpt>
      <trkpt lat="40.91511" lon="38.39062">
        <ele>62.327341</ele>
        <time>2021-08-18T16:28:17.104Z</time>
      </trkpt>
      <trkpt lat="40.91502" lon="38.39041">
        <ele>61.963546</ele>
        <time>2021-08-18T16:28:21.848Z</time>
      </trkpt>
      <trkpt lat="40.91489" lon="38.39008">
        <ele>61.413262</ele>
        <time>2021-08-18T16:28:28.198Z</time>
      </trkpt>
      <trkpt lat="40.91456" lon="38.38861">
        <ele>56.306771</ele>
        <time>2021-08-18T16:28:51.937Z</time>
      </trkpt>
      <trkpt lat="40.91422" lon="38.38746">
        <ele>49.490502</ele>
        <time>2021-08-18T16:29:10.377Z</time>
      </trkpt>
      <trkpt lat="40.9142" lon="38.38722">
        <ele>48.158326</ele>
        <time>2021-08-18T16:29:13.978Z</time>
      </trkpt>
      <trkpt lat="40.91419" lon="38.3871">
        <ele>47.506613</ele>
        <time>2021-08-18T16:29:15.736Z</time>
      </trkpt>
      <trkpt lat="40.91413" lon="38.38628">
        <ele>43.226794</ele>
        <time>2021-08-18T16:29:28.180Z</time>
      </trkpt>
      <trkpt lat="40.91411" lon="38.38622">
        <ele>42.881377</ele>
        <time>2021-08-18T16:29:29.165Z</time>
      </trkpt>
      <trkpt lat="40.91389" lon="38.3854">
        <ele>38.384317</ele>
        <time>2021-08-18T16:29:42.517Z</time>
      </trkpt>
      <trkpt lat="40.91379" lon="38.38507">
        <ele>36.563251</ele>
        <time>2021-08-18T16:29:47.917Z</time>
      </trkpt>
      <trkpt lat="40.91378" lon="38.38494">
        <ele>35.871837</ele>
        <time>2021-08-18T16:29:49.957Z</time>
      </trkpt>
      <trkpt lat="40.91365" lon="38.38392">
        <ele>32.993818</ele>
        <time>2021-08-18T16:30:06.013Z</time>
      </trkpt>
      <trkpt lat="40.91373" lon="38.38345">
        <ele>31.945342</ele>
        <time>2021-08-18T16:30:14.578Z</time>
      </trkpt>
      <trkpt lat="40.91374" lon="38.38339">
        <ele>31.807366</ele>
        <time>2021-08-18T16:30:15.661Z</time>
      </trkpt>
      <trkpt lat="40.91384" lon="38.38308">
        <ele>31.070844</ele>
        <time>2021-08-18T16:30:22.715Z</time>
      </trkpt>
      <trkpt lat="40.91398" lon="38.38267">
        <ele>30.093883</ele>
        <time>2021-08-18T16:30:34.167Z</time>
      </trkpt>
      <trkpt lat="40.91401" lon="38.38258">
        <ele>29.870101</ele>
        <time>2021-08-18T16:30:36.261Z</time>
      </trkpt>
      <trkpt lat="40.91399" lon="38.38248">
        <ele>29.664556</ele>
        <time>2021-08-18T16:30:38.027Z</time>
      </trkpt>
      <trkpt lat="40.91393" lon="38.38247">
        <ele>29.596772</ele>
        <time>2021-08-18T16:30:41.415Z</time>
      </trkpt>
      <trkpt lat="40.91387" lon="38.38232">
        <ele>29.575312</ele>
        <time>2021-08-18T16:30:45.586Z</time>
      </trkpt>
      <trkpt lat="40.91378" lon="38.38208">
        <ele>29.541482</ele>
        <time>2021-08-18T16:30:50.853Z</time>
      </trkpt>
      <trkpt lat="40.91377" lon="38.38206">
        <ele>29.538084</ele>
        <time>2021-08-18T16:30:52.867Z</time>
      </trkpt>
      <trkpt lat="40.91341" lon="38.38125">
        <ele>29.419178</ele>
        <time>2021-08-18T16:31:13.652Z</time>
      </trkpt>
      <trkpt lat="40.91333" lon="38.38104">
        <ele>29.389542</ele>
        <time>2021-08-18T16:31:19.930Z</time>
      </trkpt>
      <trkpt lat="40.91306" lon="38.38036">
        <ele>29.274284</ele>
        <time>2021-08-18T16:31:38.194Z</time>
      </trkpt>
      <trkpt lat="40.91261" lon="38.37915">
        <ele>28.830475</ele>
        <time>2021-08-18T16:32:04.900Z</time>
      </trkpt>
      <trkpt lat="40.91249" lon="38.37883">
        <ele>28.712181</ele>
        <time>2021-08-18T16:32:12.551Z</time>
      </trkpt>
      <trkpt lat="40.91239" lon="38.37862">
        <ele>28.627787</ele>
        <time>2021-08-18T16:32:18.115Z</time>
      </trkpt>
      <trkpt lat="40.91236" lon="38.37837">
        <ele>28.543568</ele>
        <time>2021-08-18T16:32:24.804Z</time>
      </trkpt>
      <trkpt lat="40.91234" lon="38.3783">
        <ele>28.519351</ele>
        <time>2021-08-18T16:32:26.364Z</time>
      </trkpt>
      <trkpt lat="40.91235" lon="38.37824">
        <ele>28.583224</ele>
        <time>2021-08-18T16:32:27.714Z</time>
      </trkpt>
      <trkpt lat="40.91235" lon="38.37823">
        <ele>28.613679</ele>
        <time>2021-08-18T16:32:28.177Z</time>
      </trkpt>
      <trkpt lat="40.91232" lon="38.37818">
        <ele>28.732105</ele>
        <time>2021-08-18T16:32:29.939Z</time>
      </trkpt>
      <trkpt lat="40.91231" lon="38.37817">
        <ele>28.763588</ele>
        <time>2021-08-18T16:32:30.423Z</time>
      </trkpt>
      <trkpt lat="40.91188" lon="38.37766">
        <ele>30.197238</ele>
        <time>2021-08-18T16:32:53.827Z</time>
      </trkpt>
      <trkpt lat="40.91155" lon="38.37714">
        <ele>31.472406</ele>
        <time>2021-08-18T16:33:18.275Z</time>
      </trkpt>
      <trkpt lat="40.91083" lon="38.37601">
        <ele>34.198959</ele>
        <time>2021-08-18T16:34:17.404Z</time>
      </trkpt>
      <trkpt lat="40.91044" lon="38.37538">
        <ele>35.669261</ele>
        <time>2021-08-18T16:34:42.975Z</time>
      </trkpt>
      <trkpt lat="40.91023" lon="38.37503">
        <ele>36.482724</ele>
        <time>2021-08-18T16:34:56.461Z</time>
      </trkpt>
      <trkpt lat="40.90995" lon="38.37449">
        <ele>37.418216</ele>
        <time>2021-08-18T16:35:16.645Z</time>
      </trkpt>
      <trkpt lat="40.90965" lon="38.37401">
        <ele>37.80056</ele>
        <time>2021-08-18T16:35:36.393Z</time>
      </trkpt>
      <trkpt lat="40.90963" lon="38.37394">
        <ele>37.850967</ele>
        <time>2021-08-18T16:35:38.704Z</time>
      </trkpt>
      <trkpt lat="40.90964" lon="38.37389">
        <ele>37.884271</ele>
        <time>2021-08-18T16:35:40.114Z</time>
      </trkpt>
      <trkpt lat="40.90964" lon="38.37386">
        <ele>37.901606</ele>
        <time>2021-08-18T16:35:40.699Z</time>
      </trkpt>
      <trkpt lat="40.90962" lon="38.3738">
        <ele>37.941571</ele>
        <time>2021-08-18T16:35:42.269Z</time>
      </trkpt>
      <trkpt lat="40.9096" lon="38.37377">
        <ele>37.970855</ele>
        <time>2021-08-18T16:35:43.234Z</time>
      </trkpt>
      <trkpt lat="40.90957" lon="38.37376">
        <ele>37.991872</ele>
        <time>2021-08-18T16:35:44.222Z</time>
      </trkpt>
      <trkpt lat="40.90955" lon="38.37376">
        <ele>38.008255</ele>
        <time>2021-08-18T16:35:45.065Z</time>
      </trkpt>
      <trkpt lat="40.90944" lon="38.37355">
        <ele>38.165465</ele>
        <time>2021-08-18T16:35:52.519Z</time>
      </trkpt>
      <trkpt lat="40.90932" lon="38.37335">
        <ele>38.320237</ele>
        <time>2021-08-18T16:35:58.335Z</time>
      </trkpt>
      <trkpt lat="40.90918" lon="38.37318">
        <ele>38.481665</ele>
        <time>2021-08-18T16:36:05.411Z</time>
      </trkpt>
      <trkpt lat="40.90889" lon="38.37286">
        <ele>38.731847</ele>
        <time>2021-08-18T16:36:15.414Z</time>
      </trkpt>
      <trkpt lat="40.9084" lon="38.37144">
        <ele>37.811542</ele>
        <time>2021-08-18T16:36:53.882Z</time>
      </trkpt>
      <trkpt lat="40.90837" lon="38.37135">
        <ele>37.755557</ele>
        <time>2021-08-18T16:36:55.381Z</time>
      </trkpt>
      <trkpt lat="40.90834" lon="38.37127">
        <ele>37.704272</ele>
        <time>2021-08-18T16:36:57.221Z</time>
      </trkpt>
      <trkpt lat="40.90832" lon="38.3712">
        <ele>37.655833</ele>
        <time>2021-08-18T16:36:59.027Z</time>
      </trkpt>
      <trkpt lat="40.90816" lon="38.37076">
        <ele>37.367812</ele>
        <time>2021-08-18T16:37:08.520Z</time>
      </trkpt>
      <trkpt lat="40.908" lon="38.37036">
        <ele>35.942551</ele>
        <time>2021-08-18T16:37:16.048Z</time>
      </trkpt>
      <trkpt lat="40.90795" lon="38.3701">
        <ele>35.024802</ele>
        <time>2021-08-18T16:37:21.264Z</time>
      </trkpt>
      <trkpt lat="40.90788" lon="38.36968">
        <ele>33.60394</ele>
        <time>2021-08-18T16:37:28.102Z</time>
      </trkpt>
      <trkpt lat="40.9076" lon="38.36903">
        <ele>31.099378</ele>
        <time>2021-08-18T16:37:39.946Z</time>
      </trkpt>
      <trkpt lat="40.90751" lon="38.36884">
        <ele>30.37136</ele>
        <time>2021-08-18T16:37:43.559Z</time>
      </trkpt>
      <trkpt lat="40.90749" lon="38.36877">
        <ele>30.122664</ele>
        <time>2021-08-18T16:37:44.923Z</time>
      </trkpt>
      <trkpt lat="40.90755" lon="38.36873">
        <ele>29.814135</ele>
        <time>2021-08-18T16:37:46.333Z</time>
      </trkpt>
      <trkpt lat="40.9079" lon="38.36863">
        <ele>27.899327</ele>
        <time>2021-08-18T16:37:54.249Z</time>
      </trkpt>
      <trkpt lat="40.90806" lon="38.36859">
        <ele>27.022204</ele>
        <time>2021-08-18T16:37:57.624Z</time>
      </trkpt>
      <trkpt lat="40.9082" lon="38.36854">
        <ele>26.195701</ele>
        <time>2021-08-18T16:38:00.963Z</time>
      </trkpt>
      <trkpt lat="40.90842" lon="38.36847">
        <ele>24.970045</ele>
        <time>2021-08-18T16:38:05.626Z</time>
      </trkpt>
      <trkpt lat="40.90815" lon="38.36755">
        <ele>20.859508</ele>
        <time>2021-08-18T16:38:21.564Z</time>
      </trkpt>
      <trkpt lat="40.90808" lon="38.3673">
        <ele>19.741987</ele>
        <time>2021-08-18T16:38:26.094Z</time>
      </trkpt>
      <trkpt lat="40.90776" lon="38.36613">
        <ele>16.020538</ele>
        <time>2021-08-18T16:38:47.583Z</time>
      </trkpt>
      <trkpt lat="40.90798" lon="38.36607">
        <ele>15.148183</ele>
        <time>2021-08-18T16:38:52.647Z</time>
      </trkpt>
      <trkpt lat="40.90824" lon="38.36606">
        <ele>14.152811</ele>
        <time>2021-08-18T16:38:58.423Z</time>
      </trkpt>
      <trkpt lat="40.9084" lon="38.36606">
        <ele>13.53199</ele>
        <time>2021-08-18T16:39:02.106Z</time>
      </trkpt>
      <trkpt lat="40.90858" lon="38.36601">
        <ele>12.817162</ele>
        <time>2021-08-18T16:39:06.381Z</time>
      </trkpt>
      <trkpt lat="40.90852" lon="38.36574">
        <ele>12.312073</ele>
        <time>2021-08-18T16:39:11.251Z</time>
      </trkpt>
      <trkpt lat="40.90843" lon="38.36527">
        <ele>11.731808</ele>
        <time>2021-08-18T16:39:19.931Z</time>
      </trkpt>
      <trkpt lat="40.9083" lon="38.36429">
        <ele>10.546949</ele>
        <time>2021-08-18T16:39:38.547Z</time>
      </trkpt>
      <trkpt lat="40.90823" lon="38.36275">
        <ele>9.999915</ele>
        <time>2021-08-18T16:40:15.343Z</time>
      </trkpt>
      <trkpt lat="40.9084" lon="38.35934">
        <ele>11.289577</ele>
        <time>2021-08-18T16:41:48.102Z</time>
      </trkpt>
      <trkpt lat="40.90843" lon="38.35885">
        <ele>11.470234</ele>
        <time>2021-08-18T16:41:59.443Z</time>
      </trkpt>
      <trkpt lat="40.90844" lon="38.35881">
        <ele>11.475152</ele>
        <time>2021-08-18T16:42:00.272Z</time>
      </trkpt>
      <trkpt lat="40.90844" lon="38.35877">
        <ele>11.426119</ele>
        <time>2021-08-18T16:42:01.244Z</time>
      </trkpt>
      <trkpt lat="40.90849" lon="38.35833">
        <ele>10.912688</ele>
        <time>2021-08-18T16:42:10.603Z</time>
      </trkpt>
      <trkpt lat="40.90855" lon="38.35788">
        <ele>10.374257</ele>
        <time>2021-08-18T16:42:19.762Z</time>
      </trkpt>
      <trkpt lat="40.90882" lon="38.35661">
        <ele>8.833119</ele>
        <time>2021-08-18T16:42:44.148Z</time>
      </trkpt>
      <trkpt lat="40.90895" lon="38.35619">
        <ele>8.259745</ele>
        <time>2021-08-18T16:42:52.440Z</time>
      </trkpt>
      <trkpt lat="40.90924" lon="38.35526">
        <ele>6.980189</ele>
        <time>2021-08-18T16:43:11.002Z</time>
      </trkpt>
      <trkpt lat="40.90939" lon="38.35477">
        <ele>6.292405</ele>
        <time>2021-08-18T16:43:21.237Z</time>
      </trkpt>
      <trkpt lat="40.90972" lon="38.35379">
        <ele>5.562038</ele>
        <time>2021-08-18T16:43:43.007Z</time>
      </trkpt>
      <trkpt lat="40.9106" lon="38.35096">
        <ele>5.634417</ele>
        <time>2021-08-18T16:44:57.392Z</time>
      </trkpt>
      <trkpt lat="40.91078" lon="38.35039">
        <ele>5.810443</ele>
        <time>2021-08-18T16:45:13.682Z</time>
      </trkpt>
      <trkpt lat="40.91081" lon="38.35028">
        <ele>5.845345</ele>
        <time>2021-08-18T16:45:16.923Z</time>
      </trkpt>
      <trkpt lat="40.91104" lon="38.34951">
        <ele>6.07105</ele>
        <time>2021-08-18T16:45:38.685Z</time>
      </trkpt>
      <trkpt lat="40.91181" lon="38.3471">
        <ele>6.772042</ele>
        <time>2021-08-18T16:46:42.991Z</time>
      </trkpt>
      <trkpt lat="40.91227" lon="38.34585">
        <ele>7.175144</ele>
        <time>2021-08-18T16:47:17.747Z</time>
      </trkpt>
      <trkpt lat="40.91244" lon="38.34545">
        <ele>7.324621</ele>
        <time>2021-08-18T16:47:29.665Z</time>
      </trkpt>
      <trkpt lat="40.91247" lon="38.34532">
        <ele>7.38078</ele>
        <time>2021-08-18T16:47:33.363Z</time>
      </trkpt>
      <trkpt lat="40.91252" lon="38.34518">
        <ele>7.444407</ele>
        <time>2021-08-18T16:47:37.381Z</time>
      </trkpt>
      <trkpt lat="40.91271" lon="38.34437">
        <ele>7.794394</ele>
        <time>2021-08-18T16:48:00.076Z</time>
      </trkpt>
      <trkpt lat="40.91347" lon="38.34168">
        <ele>8.517896</ele>
        <time>2021-08-18T16:49:12.699Z</time>
      </trkpt>
      <trkpt lat="40.91358" lon="38.34134">
        <ele>8.575424</ele>
        <time>2021-08-18T16:49:21.044Z</time>
      </trkpt>
      <trkpt lat="40.91368" lon="38.3409">
        <ele>8.60877</ele>
        <time>2021-08-18T16:49:31.482Z</time>
      </trkpt>
      <trkpt lat="40.91379" lon="38.34055">
        <ele>8.602536</ele>
        <time>2021-08-18T16:49:39.983Z</time>
      </trkpt>
      <trkpt lat="40.91394" lon="38.3401">
        <ele>8.594463</ele>
        <time>2021-08-18T16:49:50.901Z</time>
      </trkpt>
      <trkpt lat="40.91445" lon="38.3385">
        <ele>8.629392</ele>
        <time>2021-08-18T16:50:32.895Z</time>
      </trkpt>
      <trkpt lat="40.91452" lon="38.33829">
        <ele>8.658243</ele>
        <time>2021-08-18T16:50:38.566Z</time>
      </trkpt>
      <trkpt lat="40.91466" lon="38.33781">
        <ele>8.724751</ele>
        <time>2021-08-18T16:50:51.934Z</time>
      </trkpt>
      <trkpt lat="40.91491" lon="38.33697">
        <ele>8.839799</ele>
        <time>2021-08-18T16:51:14.994Z</time>
      </trkpt>
      <trkpt lat="40.91537" lon="38.33544">
        <ele>8.344881</ele>
        <time>2021-08-18T16:51:50.686Z</time>
      </trkpt>
      <trkpt lat="40.9156" lon="38.33467">
        <ele>8.019136</ele>
        <time>2021-08-18T16:52:08.191Z</time>
      </trkpt>
      <trkpt lat="40.9158" lon="38.33408">
        <ele>7.657346</ele>
        <time>2021-08-18T16:52:21.920Z</time>
      </trkpt>
      <trkpt lat="40.91597" lon="38.33354">
        <ele>7.283695</ele>
        <time>2021-08-18T16:52:34.098Z</time>
      </trkpt>
      <trkpt lat="40.9164" lon="38.33217">
        <ele>6.41504</ele>
        <time>2021-08-18T16:53:04.605Z</time>
      </trkpt>
      <trkpt lat="40.91653" lon="38.33178">
        <ele>6.357736</ele>
        <time>2021-08-18T16:53:14.075Z</time>
      </trkpt>
      <trkpt lat="40.91683" lon="38.33079">
        <ele>6.21285</ele>
        <time>2021-08-18T16:53:38.156Z</time>
      </trkpt>
      <trkpt lat="40.91731" lon="38.32922">
        <ele>6.701011</ele>
        <time>2021-08-18T16:54:19.636Z</time>
      </trkpt>
      <trkpt lat="40.91733" lon="38.32915">
        <ele>6.742645</ele>
        <time>2021-08-18T16:54:21.716Z</time>
      </trkpt>
      <trkpt lat="40.91761" lon="38.32827">
        <ele>7.341622</ele>
        <time>2021-08-18T16:54:49.614Z</time>
      </trkpt>
      <trkpt lat="40.9179" lon="38.32738">
        <ele>7.961681</ele>
        <time>2021-08-18T16:55:17.570Z</time>
      </trkpt>
      <trkpt lat="40.91861" lon="38.3251">
        <ele>9.094458</ele>
        <time>2021-08-18T16:56:23.703Z</time>
      </trkpt>
      <trkpt lat="40.91889" lon="38.32431">
        <ele>9.003352</ele>
        <time>2021-08-18T16:56:42.140Z</time>
      </trkpt>
      <trkpt lat="40.91921" lon="38.32361">
        <ele>8.917444</ele>
        <time>2021-08-18T16:56:59.244Z</time>
      </trkpt>
      <trkpt lat="40.91947" lon="38.32315">
        <ele>9.852445</ele>
        <time>2021-08-18T16:57:12.991Z</time>
      </trkpt>
      <trkpt lat="40.91982" lon="38.32256">
        <ele>11.182262</ele>
        <time>2021-08-18T16:57:37.410Z</time>
      </trkpt>
      <trkpt lat="40.91995" lon="38.32242">
        <ele>11.583664</ele>
        <time>2021-08-18T16:57:45.864Z</time>
      </trkpt>
      <trkpt lat="40.91997" lon="38.32238">
        <ele>11.658309</ele>
        <time>2021-08-18T16:57:47.057Z</time>
      </trkpt>
      <trkpt lat="40.92009" lon="38.32214">
        <ele>12.171403</ele>
        <time>2021-08-18T16:57:57.829Z</time>
      </trkpt>
      <trkpt lat="40.92021" lon="38.322">
        <ele>12.527264</ele>
        <time>2021-08-18T16:58:05.740Z</time>
      </trkpt>
      <trkpt lat="40.92018" lon="38.32172">
        <ele>13.036345</ele>
        <time>2021-08-18T16:58:17.283Z</time>
      </trkpt>
      <trkpt lat="40.92016" lon="38.32166">
        <ele>13.182326</ele>
        <time>2021-08-18T16:58:20.257Z</time>
      </trkpt>
      <trkpt lat="40.92041" lon="38.32127">
        <ele>15.217813</ele>
        <time>2021-08-18T16:58:44.212Z</time>
      </trkpt>
      <trkpt lat="40.92118" lon="38.3204">
        <ele>20.523047</ele>
        <time>2021-08-18T16:59:51.798Z</time>
      </trkpt>
      <trkpt lat="40.92172" lon="38.31952">
        <ele>22.971667</ele>
        <time>2021-08-18T17:00:41.908Z</time>
      </trkpt>
      <trkpt lat="40.92216" lon="38.31878">
        <ele>23.592976</ele>
        <time>2021-08-18T17:01:11.886Z</time>
      </trkpt>
      <trkpt lat="40.92245" lon="38.31795">
        <ele>23.844797</ele>
        <time>2021-08-18T17:01:29.217Z</time>
      </trkpt>
      <trkpt lat="40.9226" lon="38.31741">
        <ele>22.092476</ele>
        <time>2021-08-18T17:01:38.747Z</time>
      </trkpt>
      <trkpt lat="40.92305" lon="38.31777">
        <ele>19.933475</ele>
        <time>2021-08-18T17:01:50.759Z</time>
      </trkpt>
      <trkpt lat="40.92302" lon="38.31782">
        <ele>19.752681</ele>
        <time>2021-08-18T17:01:51.983Z</time>
      </trkpt>
      <trkpt lat="40.92301" lon="38.31787">
        <ele>19.572035</ele>
        <time>2021-08-18T17:01:52.973Z</time>
      </trkpt>
      <trkpt lat="40.923" lon="38.31793">
        <ele>19.389241</ele>
        <time>2021-08-18T17:01:53.881Z</time>
      </trkpt>
      <trkpt lat="40.92301" lon="38.318">
        <ele>19.185255</ele>
        <time>2021-08-18T17:01:54.851Z</time>
      </trkpt>
      <trkpt lat="40.9231" lon="38.31814">
        <ele>18.590216</ele>
        <time>2021-08-18T17:01:58.091Z</time>
      </trkpt>
      <trkpt lat="40.9232" lon="38.31816">
        <ele>18.183193</ele>
        <time>2021-08-18T17:02:00.671Z</time>
      </trkpt>
      <trkpt lat="40.92325" lon="38.31813">
        <ele>17.980211</ele>
        <time>2021-08-18T17:02:01.671Z</time>
      </trkpt>
      <trkpt lat="40.92329" lon="38.31809">
        <ele>17.772053</ele>
        <time>2021-08-18T17:02:02.668Z</time>
      </trkpt>
      <trkpt lat="40.92332" lon="38.31804">
        <ele>17.569282</ele>
        <time>2021-08-18T17:02:03.769Z</time>
      </trkpt>
      <trkpt lat="40.92334" lon="38.31798">
        <ele>17.361647</ele>
        <time>2021-08-18T17:02:04.852Z</time>
      </trkpt>
      <trkpt lat="40.92396" lon="38.3169">
        <ele>16.308727</ele>
        <time>2021-08-18T17:02:28.849Z</time>
      </trkpt>
      <trkpt lat="40.92526" lon="38.31491">
        <ele>17.163729</ele>
        <time>2021-08-18T17:03:52.472Z</time>
      </trkpt>
      <trkpt lat="40.92623" lon="38.31291">
        <ele>17.569009</ele>
        <time>2021-08-18T17:04:51.437Z</time>
      </trkpt>
      <trkpt lat="40.92796" lon="38.31033">
        <ele>13.928739</ele>
        <time>2021-08-18T17:05:57.794Z</time>
      </trkpt>
      <trkpt lat="40.92849" lon="38.30964">
        <ele>12.314517</ele>
        <time>2021-08-18T17:06:15.013Z</time>
      </trkpt>
      <trkpt lat="40.92926" lon="38.3088">
        <ele>10.222844</ele>
        <time>2021-08-18T17:06:38.981Z</time>
      </trkpt>
      <trkpt lat="40.9293" lon="38.30875">
        <ele>10.221786</ele>
        <time>2021-08-18T17:06:40.217Z</time>
      </trkpt>
      <trkpt lat="40.93344" lon="38.30551">
        <ele>11.04082</ele>
        <time>2021-08-18T17:09:15.109Z</time>
      </trkpt>
      <trkpt lat="40.93406" lon="38.30492">
        <ele>11.680816</ele>
        <time>2021-08-18T17:09:46.648Z</time>
      </trkpt>
      <trkpt lat="40.93453" lon="38.30415">
        <ele>12.547535</ele>
        <time>2021-08-18T17:10:17.144Z</time>
      </trkpt>
      <trkpt lat="40.93484" lon="38.30336">
        <ele>13.325217</ele>
        <time>2021-08-18T17:10:42.699Z</time>
      </trkpt>
      <trkpt lat="40.93527" lon="38.30137">
        <ele>11.993967</ele>
        <time>2021-08-18T17:11:25.906Z</time>
      </trkpt>
      <trkpt lat="40.93565" lon="38.29972">
        <ele>10.021082</ele>
        <time>2021-08-18T17:11:57.264Z</time>
      </trkpt>
      <trkpt lat="40.93573" lon="38.29907">
        <ele>9.180977</ele>
        <time>2021-08-18T17:12:09.596Z</time>
      </trkpt>
      <trkpt lat="40.93579" lon="38.29845">
        <ele>8.763994</ele>
        <time>2021-08-18T17:12:22.627Z</time>
      </trkpt>
      <trkpt lat="40.93585" lon="38.2979">
        <ele>9.321291</ele>
        <time>2021-08-18T17:12:36.040Z</time>
      </trkpt>
      <trkpt lat="40.93607" lon="38.2964">
        <ele>10.846048</ele>
        <time>2021-08-18T17:13:24.221Z</time>
      </trkpt>
      <trkpt lat="40.93704" lon="38.29057">
        <ele>23.649591</ele>
        <time>2021-08-18T17:17:08.873Z</time>
      </trkpt>
      <trkpt lat="40.93733" lon="38.28971">
        <ele>24.490764</ele>
        <time>2021-08-18T17:17:31.821Z</time>
      </trkpt>
      <trkpt lat="40.93769" lon="38.28902">
        <ele>23.979282</ele>
        <time>2021-08-18T17:17:48.309Z</time>
      </trkpt>
      <trkpt lat="40.9385" lon="38.28805">
        <ele>21.473645</ele>
        <time>2021-08-18T17:18:13.579Z</time>
      </trkpt>
      <trkpt lat="40.93896" lon="38.2877">
        <ele>20.768505</ele>
        <time>2021-08-18T17:18:25.965Z</time>
      </trkpt>
      <trkpt lat="40.9392" lon="38.28756">
        <ele>20.871899</ele>
        <time>2021-08-18T17:18:32.671Z</time>
      </trkpt>
      <trkpt lat="40.94003" lon="38.28724">
        <ele>21.213494</ele>
        <time>2021-08-18T17:18:59.671Z</time>
      </trkpt>
      <trkpt lat="40.94148" lon="38.28645">
        <ele>25.353595</ele>
        <time>2021-08-18T17:20:19.232Z</time>
      </trkpt>
      <trkpt lat="40.94205" lon="38.28604">
        <ele>27.751721</ele>
        <time>2021-08-18T17:20:56.286Z</time>
      </trkpt>
      <trkpt lat="40.94245" lon="38.28568">
        <ele>28.841908</ele>
        <time>2021-08-18T17:21:20.898Z</time>
      </trkpt>
      <trkpt lat="40.94288" lon="38.28519">
        <ele>29.986572</ele>
        <time>2021-08-18T17:21:46.275Z</time>
      </trkpt>
      <trkpt lat="40.94318" lon="38.28475">
        <ele>30.896539</ele>
        <time>2021-08-18T17:22:03.828Z</time>
      </trkpt>
      <trkpt lat="40.94365" lon="38.28383">
        <ele>31.397823</ele>
        <time>2021-08-18T17:22:30.313Z</time>
      </trkpt>
      <trkpt lat="40.94412" lon="38.2824">
        <ele>30.82255</ele>
        <time>2021-08-18T17:23:02.436Z</time>
      </trkpt>
      <trkpt lat="40.94469" lon="38.28034">
        <ele>29.791027</ele>
        <time>2021-08-18T17:23:49.698Z</time>
      </trkpt>
      <trkpt lat="40.94489" lon="38.27943">
        <ele>28.94319</ele>
        <time>2021-08-18T17:24:10.185Z</time>
      </trkpt>
      <trkpt lat="40.94502" lon="38.27848">
        <ele>27.801301</ele>
        <time>2021-08-18T17:24:29.722Z</time>
      </trkpt>
      <trkpt lat="40.94507" lon="38.27771">
        <ele>26.887627</ele>
        <time>2021-08-18T17:24:43.932Z</time>
      </trkpt>
      <trkpt lat="40.94507" lon="38.27676">
        <ele>24.663798</ele>
        <time>2021-08-18T17:25:00.016Z</time>
      </trkpt>
      <trkpt lat="40.94494" lon="38.27406">
        <ele>20.44928</ele>
        <time>2021-08-18T17:25:46.674Z</time>
      </trkpt>
      <trkpt lat="40.94496" lon="38.27399">
        <ele>20.417841</ele>
        <time>2021-08-18T17:25:48.659Z</time>
      </trkpt>
      <trkpt lat="40.94495" lon="38.27385">
        <ele>20.356049</ele>
        <time>2021-08-18T17:25:52.220Z</time>
      </trkpt>
      <trkpt lat="40.94492" lon="38.27378">
        <ele>20.324475</ele>
        <time>2021-08-18T17:25:54.184Z</time>
      </trkpt>
      <trkpt lat="40.94466" lon="38.27249">
        <ele>20.954175</ele>
        <time>2021-08-18T17:26:38.891Z</time>
      </trkpt>
      <trkpt lat="40.94446" lon="38.2714">
        <ele>23.506556</ele>
        <time>2021-08-18T17:27:26.634Z</time>
      </trkpt>
      <trkpt lat="40.94427" lon="38.26988">
        <ele>25.33046</ele>
        <time>2021-08-18T17:28:15.619Z</time>
      </trkpt>
      <trkpt lat="40.94434" lon="38.26973">
        <ele>25.330971</ele>
        <time>2021-08-18T17:28:20.547Z</time>
      </trkpt>
      <trkpt lat="40.94432" lon="38.26938">
        <ele>25.332045</ele>
        <time>2021-08-18T17:28:31.298Z</time>
      </trkpt>
      <trkpt lat="40.94417" lon="38.2691">
        <ele>25.333094</ele>
        <time>2021-08-18T17:28:40.986Z</time>
      </trkpt>
      <trkpt lat="40.94399" lon="38.26811">
        <ele>25.148411</ele>
        <time>2021-08-18T17:29:00.780Z</time>
      </trkpt>
      <trkpt lat="40.94384" lon="38.26673">
        <ele>24.049429</ele>
        <time>2021-08-18T17:29:27.550Z</time>
      </trkpt>
      <trkpt lat="40.94385" lon="38.26617">
        <ele>23.605004</ele>
        <time>2021-08-18T17:29:39.933Z</time>
      </trkpt>
      <trkpt lat="40.944" lon="38.26527">
        <ele>24.063764</ele>
        <time>2021-08-18T17:30:03.737Z</time>
      </trkpt>
      <trkpt lat="40.94442" lon="38.2638">
        <ele>25.378375</ele>
        <time>2021-08-18T17:30:51.375Z</time>
      </trkpt>
      <trkpt lat="40.94457" lon="38.26296">
        <ele>25.911464</ele>
        <time>2021-08-18T17:31:16.947Z</time>
      </trkpt>
      <trkpt lat="40.94458" lon="38.26209">
        <ele>26.432142</ele>
        <time>2021-08-18T17:31:40.518Z</time>
      </trkpt>
      <trkpt lat="40.94454" lon="38.26161">
        <ele>26.716128</ele>
        <time>2021-08-18T17:31:52.471Z</time>
      </trkpt>
      <trkpt lat="40.94435" lon="38.26075">
        <ele>26.284082</ele>
        <time>2021-08-18T17:32:13.797Z</time>
      </trkpt>
      <trkpt lat="40.94386" lon="38.25886">
        <ele>24.301174</ele>
        <time>2021-08-18T17:32:52.096Z</time>
      </trkpt>
      <trkpt lat="40.9437" lon="38.25794">
        <ele>22.721482</ele>
        <time>2021-08-18T17:33:09.274Z</time>
      </trkpt>
      <trkpt lat="40.9436" lon="38.25689">
        <ele>20.942802</ele>
        <time>2021-08-18T17:33:28.313Z</time>
      </trkpt>
      <trkpt lat="40.9436" lon="38.25496">
        <ele>18.072335</ele>
        <time>2021-08-18T17:34:03.668Z</time>
      </trkpt>
      <trkpt lat="40.94351" lon="38.254">
        <ele>17.270917</ele>
        <time>2021-08-18T17:34:23.006Z</time>
      </trkpt>
      <trkpt lat="40.94344" lon="38.25344">
        <ele>17.304913</ele>
        <time>2021-08-18T17:34:35.856Z</time>
      </trkpt>
      <trkpt lat="40.94335" lon="38.25286">
        <ele>17.340395</ele>
        <time>2021-08-18T17:34:51.213Z</time>
      </trkpt>
      <trkpt lat="40.94325" lon="38.25279">
        <ele>17.349196</ele>
        <time>2021-08-18T17:34:55.944Z</time>
      </trkpt>
      <trkpt lat="40.94307" lon="38.25278">
        <ele>17.362926</ele>
        <time>2021-08-18T17:35:00.654Z</time>
      </trkpt>
      <trkpt lat="40.943" lon="38.25286">
        <ele>17.370456</ele>
        <time>2021-08-18T17:35:04.955Z</time>
      </trkpt>
      <trkpt lat="40.94268" lon="38.25257">
        <ele>17.58501</ele>
        <time>2021-08-18T17:35:18.466Z</time>
      </trkpt>
      <trkpt lat="40.9426" lon="38.25228">
        <ele>17.890847</ele>
        <time>2021-08-18T17:35:26.267Z</time>
      </trkpt>
      <trkpt lat="40.94251" lon="38.25228">
        <ele>18.011315</ele>
        <time>2021-08-18T17:35:31.008Z</time>
      </trkpt>
      <trkpt lat="40.9423" lon="38.25202">
        <ele>18.3879</ele>
        <time>2021-08-18T17:35:43.118Z</time>
      </trkpt>
      <trkpt lat="40.94225" lon="38.2517">
        <ele>18.697159</ele>
        <time>2021-08-18T17:35:54.952Z</time>
      </trkpt>
      <trkpt lat="40.94218" lon="38.25155">
        <ele>18.869221</ele>
        <time>2021-08-18T17:36:00.685Z</time>
      </trkpt>
      <trkpt lat="40.94194" lon="38.25109">
        <ele>19.419788</ele>
        <time>2021-08-18T17:36:18.299Z</time>
      </trkpt>
      <trkpt lat="40.94191" lon="38.25102">
        <ele>19.502524</ele>
        <time>2021-08-18T17:36:20.712Z</time>
      </trkpt>
      <trkpt lat="40.94186" lon="38.25049">
        <ele>19.616042</ele>
        <time>2021-08-18T17:36:33.954Z</time>
      </trkpt>
      <trkpt lat="40.94177" lon="38.25008">
        <ele>19.48929</ele>
        <time>2021-08-18T17:36:43.720Z</time>
      </trkpt>
      <trkpt lat="40.94158" lon="38.24914">
        <ele>19.193075</ele>
        <time>2021-08-18T17:37:04.849Z</time>
      </trkpt>
      <trkpt lat="40.94131" lon="38.2479">
        <ele>19.015755</ele>
        <time>2021-08-18T17:37:33.631Z</time>
      </trkpt>
      <trkpt lat="40.94126" lon="38.24771">
        <ele>19.023733</ele>
        <time>2021-08-18T17:37:38.822Z</time>
      </trkpt>
      <trkpt lat="40.94117" lon="38.24739">
        <ele>19.037569</ele>
        <time>2021-08-18T17:37:47.095Z</time>
      </trkpt>
      <trkpt lat="40.94107" lon="38.24719">
        <ele>19.047417</ele>
        <time>2021-08-18T17:37:53.931Z</time>
      </trkpt>
      <trkpt lat="40.94093" lon="38.247">
        <ele>19.058406</ele>
        <time>2021-08-18T17:38:00.157Z</time>
      </trkpt>
      <trkpt lat="40.94074" lon="38.2467">
        <ele>19.074217</ele>
        <time>2021-08-18T17:38:10.357Z</time>
      </trkpt>
      <trkpt lat="40.9406" lon="38.24644">
        <ele>19.086844</ele>
        <time>2021-08-18T17:38:18.836Z</time>
      </trkpt>
      <trkpt lat="40.94056" lon="38.24613">
        <ele>19.222568</ele>
        <time>2021-08-18T17:38:26.663Z</time>
      </trkpt>
      <trkpt lat="40.94055" lon="38.24563">
        <ele>19.438361</ele>
        <time>2021-08-18T17:38:40.206Z</time>
      </trkpt>
      <trkpt lat="40.94038" lon="38.24486">
        <ele>19.780489</ele>
        <time>2021-08-18T17:39:03.167Z</time>
      </trkpt>
      <trkpt lat="40.94036" lon="38.24478">
        <ele>19.817331</ele>
        <time>2021-08-18T17:39:05.550Z</time>
      </trkpt>
      <trkpt lat="40.94015" lon="38.24402">
        <ele>20.114986</ele>
        <time>2021-08-18T17:39:24.057Z</time>
      </trkpt>
      <trkpt lat="40.93991" lon="38.24328">
        <ele>20.1705</ele>
        <time>2021-08-18T17:39:42.303Z</time>
      </trkpt>
      <trkpt lat="40.93979" lon="38.24291">
        <ele>20.197876</ele>
        <time>2021-08-18T17:39:51.513Z</time>
      </trkpt>
      <trkpt lat="40.93973" lon="38.24275">
        <ele>20.210345</ele>
        <time>2021-08-18T17:39:56.058Z</time>
      </trkpt>
      <trkpt lat="40.93971" lon="38.24268">
        <ele>20.215068</ele>
        <time>2021-08-18T17:39:57.751Z</time>
      </trkpt>
      <trkpt lat="40.93959" lon="38.24233">
        <ele>20.241895</ele>
        <time>2021-08-18T17:40:07.523Z</time>
      </trkpt>
      <trkpt lat="40.93957" lon="38.24226">
        <ele>20.247005</ele>
        <time>2021-08-18T17:40:09.521Z</time>
      </trkpt>
      <trkpt lat="40.93951" lon="38.24199">
        <ele>20.265969</ele>
        <time>2021-08-18T17:40:16.076Z</time>
      </trkpt>
      <trkpt lat="40.93948" lon="38.24185">
        <ele>20.266039</ele>
        <time>2021-08-18T17:40:20.397Z</time>
      </trkpt>
      <trkpt lat="40.93925" lon="38.24098">
        <ele>20.236228</ele>
        <time>2021-08-18T17:40:43.586Z</time>
      </trkpt>
      <trkpt lat="40.93911" lon="38.24048">
        <ele>20.219059</ele>
        <time>2021-08-18T17:40:56.689Z</time>
      </trkpt>
      <trkpt lat="40.93903" lon="38.2401">
        <ele>20.206123</ele>
        <time>2021-08-18T17:41:06.052Z</time>
      </trkpt>
      <trkpt lat="40.93868" lon="38.23911">
        <ele>19.263293</ele>
        <time>2021-08-18T17:41:28.119Z</time>
      </trkpt>
      <trkpt lat="40.93861" lon="38.23893">
        <ele>18.978243</ele>
        <time>2021-08-18T17:41:32.111Z</time>
      </trkpt>
      <trkpt lat="40.93855" lon="38.23878">
        <ele>18.727653</ele>
        <time>2021-08-18T17:41:35.130Z</time>
      </trkpt>
      <trkpt lat="40.93816" lon="38.23817">
        <ele>17.608402</ele>
        <time>2021-08-18T17:41:49.688Z</time>
      </trkpt>
      <trkpt lat="40.93804" lon="38.23801">
        <ele>17.292617</ele>
        <time>2021-08-18T17:41:53.578Z</time>
      </trkpt>
      <trkpt lat="40.93802" lon="38.23794">
        <ele>17.190785</ele>
        <time>2021-08-18T17:41:54.916Z</time>
      </trkpt>
      <trkpt lat="40.93795" lon="38.23768">
        <ele>16.807097</ele>
        <time>2021-08-18T17:42:00.073Z</time>
      </trkpt>
      <trkpt lat="40.93789" lon="38.23734">
        <ele>16.564089</ele>
        <time>2021-08-18T17:42:06.678Z</time>
      </trkpt>
      <trkpt lat="40.93786" lon="38.23722">
        <ele>16.47566</ele>
        <time>2021-08-18T17:42:08.792Z</time>
      </trkpt>
      <trkpt lat="40.93782" lon="38.23706">
        <ele>16.354533</ele>
        <time>2021-08-18T17:42:11.987Z</time>
      </trkpt>
      <trkpt lat="40.93776" lon="38.23684">
        <ele>16.188074</ele>
        <time>2021-08-18T17:42:16.764Z</time>
      </trkpt>
      <trkpt lat="40.93775" lon="38.23679">
        <ele>16.150954</ele>
        <time>2021-08-18T17:42:17.713Z</time>
      </trkpt>
      <trkpt lat="40.93771" lon="38.23657">
        <ele>15.995418</ele>
        <time>2021-08-18T17:42:22.105Z</time>
      </trkpt>
      <trkpt lat="40.93769" lon="38.23608">
        <ele>15.6476</ele>
        <time>2021-08-18T17:42:32.292Z</time>
      </trkpt>
      <trkpt lat="40.93767" lon="38.23595">
        <ele>15.558575</ele>
        <time>2021-08-18T17:42:35.268Z</time>
      </trkpt>
      <trkpt lat="40.93764" lon="38.23568">
        <ele>15.360602</ele>
        <time>2021-08-18T17:42:41.641Z</time>
      </trkpt>
      <trkpt lat="40.93762" lon="38.23518">
        <ele>15.365748</ele>
        <time>2021-08-18T17:42:54.869Z</time>
      </trkpt>
      <trkpt lat="40.93761" lon="38.23508">
        <ele>15.479313</ele>
        <time>2021-08-18T17:42:57.907Z</time>
      </trkpt>
      <trkpt lat="40.9376" lon="38.23486">
        <ele>15.724183</ele>
        <time>2021-08-18T17:43:04.422Z</time>
      </trkpt>
      <trkpt lat="40.93762" lon="38.23466">
        <ele>15.944167</ele>
        <time>2021-08-18T17:43:10.254Z</time>
      </trkpt>
      <trkpt lat="40.93766" lon="38.23448">
        <ele>16.1556</ele>
        <time>2021-08-18T17:43:16.280Z</time>
      </trkpt>
      <trkpt lat="40.93769" lon="38.23432">
        <ele>16.334828</ele>
        <time>2021-08-18T17:43:21.115Z</time>
      </trkpt>
      <trkpt lat="40.93773" lon="38.2339">
        <ele>16.808284</ele>
        <time>2021-08-18T17:43:34.507Z</time>
      </trkpt>
      <trkpt lat="40.93771" lon="38.23366">
        <ele>17.080968</ele>
        <time>2021-08-18T17:43:42.447Z</time>
      </trkpt>
      <trkpt lat="40.93769" lon="38.23346">
        <ele>17.306786</ele>
        <time>2021-08-18T17:43:49.089Z</time>
      </trkpt>
      <trkpt lat="40.9376" lon="38.23281">
        <ele>17.927073</ele>
        <time>2021-08-18T17:44:09.697Z</time>
      </trkpt>
      <trkpt lat="40.93758" lon="38.23266">
        <ele>18.015027</ele>
        <time>2021-08-18T17:44:13.876Z</time>
      </trkpt>
      <trkpt lat="40.93754" lon="38.2324">
        <ele>18.172782</ele>
        <time>2021-08-18T17:44:21.289Z</time>
      </trkpt>
      <trkpt lat="40.9375" lon="38.23205">
        <ele>18.386787</ele>
        <time>2021-08-18T17:44:31.275Z</time>
      </trkpt>
      <trkpt lat="40.93741" lon="38.23164">
        <ele>18.644719</ele>
        <time>2021-08-18T17:44:42.303Z</time>
      </trkpt>
      <trkpt lat="40.93732" lon="38.23119">
        <ele>18.925982</ele>
        <time>2021-08-18T17:44:54.016Z</time>
      </trkpt>
      <trkpt lat="40.93749" lon="38.23117">
        <ele>19.060015</ele>
        <time>2021-08-18T17:44:59.614Z</time>
      </trkpt>
      <trkpt lat="40.93757" lon="38.23114">
        <ele>19.128615</ele>
        <time>2021-08-18T17:45:02.267Z</time>
      </trkpt>
      <trkpt lat="40.93753" lon="38.23021">
        <ele>19.664988</ele>
        <time>2021-08-18T17:45:26.559Z</time>
      </trkpt>
      <trkpt lat="40.9376" lon="38.23012">
        <ele>19.739427</ele>
        <time>2021-08-18T17:45:30.460Z</time>
      </trkpt>
      <trkpt lat="40.93747" lon="38.22998">
        <ele>19.868725</ele>
        <time>2021-08-18T17:45:37.471Z</time>
      </trkpt>
      <trkpt lat="40.93736" lon="38.2298">
        <ele>19.996236</ele>
        <time>2021-08-18T17:45:44.077Z</time>
      </trkpt>
      <trkpt lat="40.93725" lon="38.22954">
        <ele>20.160597</ele>
        <time>2021-08-18T17:45:52.744Z</time>
      </trkpt>
      <trkpt lat="40.93722" lon="38.22935">
        <ele>20.273794</ele>
        <time>2021-08-18T17:45:58.350Z</time>
      </trkpt>
      <trkpt lat="40.93716" lon="38.22912">
        <ele>20.41072</ele>
        <time>2021-08-18T17:46:05.615Z</time>
      </trkpt>
      <trkpt lat="40.93701" lon="38.22888">
        <ele>20.564528</ele>
        <time>2021-08-18T17:46:14.215Z</time>
      </trkpt>
      <trkpt lat="40.93687" lon="38.22866">
        <ele>20.536489</ele>
        <time>2021-08-18T17:46:22.287Z</time>
      </trkpt>
      <trkpt lat="40.93671" lon="38.2284">
        <ele>20.504585</ele>
        <time>2021-08-18T17:46:30.276Z</time>
      </trkpt>
      <trkpt lat="40.93668" lon="38.22836">
        <ele>20.498801</ele>
        <time>2021-08-18T17:46:31.995Z</time>
      </trkpt>
      <trkpt lat="40.93664" lon="38.22826">
        <ele>20.487718</ele>
        <time>2021-08-18T17:46:35.294Z</time>
      </trkpt>
      <trkpt lat="40.93657" lon="38.22802">
        <ele>20.462765</ele>
        <time>2021-08-18T17:46:41.387Z</time>
      </trkpt>
      <trkpt lat="40.93652" lon="38.22778">
        <ele>20.439149</ele>
        <time>2021-08-18T17:46:47.922Z</time>
      </trkpt>
      <trkpt lat="40.93651" lon="38.22771">
        <ele>20.431896</ele>
        <time>2021-08-18T17:46:49.563Z</time>
      </trkpt>
      <trkpt lat="40.93646" lon="38.2275">
        <ele>20.410765</ele>
        <time>2021-08-18T17:46:54.607Z</time>
      </trkpt>
      <trkpt lat="40.9364" lon="38.22719">
        <ele>20.379776</ele>
        <time>2021-08-18T17:47:02.295Z</time>
      </trkpt>
      <trkpt lat="40.93661" lon="38.2272">
        <ele>20.353405</ele>
        <time>2021-08-18T17:47:08.877Z</time>
      </trkpt>
      <trkpt lat="40.93659" lon="38.22699">
        <ele>20.271668</ele>
        <time>2021-08-18T17:47:13.140Z</time>
      </trkpt>
      <trkpt lat="40.93654" lon="38.2262">
        <ele>18.974994</ele>
        <time>2021-08-18T17:47:28.437Z</time>
      </trkpt>
      <trkpt lat="40.93654" lon="38.22578">
        <ele>18.282419</ele>
        <time>2021-08-18T17:47:36.256Z</time>
      </trkpt>
      <trkpt lat="40.93654" lon="38.22554">
        <ele>17.891027</ele>
        <time>2021-08-18T17:47:40.841Z</time>
      </trkpt>
      <trkpt lat="40.93651" lon="38.22521">
        <ele>17.341969</ele>
        <time>2021-08-18T17:47:47.204Z</time>
      </trkpt>
      <trkpt lat="40.93681" lon="38.22507">
        <ele>16.667416</ele>
        <time>2021-08-18T17:47:55.154Z</time>
      </trkpt>
      <trkpt lat="40.93685" lon="38.22425">
        <ele>15.173473</ele>
        <time>2021-08-18T17:48:10.610Z</time>
      </trkpt>
      <trkpt lat="40.93686" lon="38.22411">
        <ele>14.908028</ele>
        <time>2021-08-18T17:48:13.203Z</time>
      </trkpt>
      <trkpt lat="40.93688" lon="38.22377">
        <ele>14.274155</ele>
        <time>2021-08-18T17:48:19.574Z</time>
      </trkpt>
      <trkpt lat="40.93691" lon="38.22355">
        <ele>13.857584</ele>
        <time>2021-08-18T17:48:23.685Z</time>
      </trkpt>
      <trkpt lat="40.93704" lon="38.22307">
        <ele>12.891397</ele>
        <time>2021-08-18T17:48:33.443Z</time>
      </trkpt>
      <trkpt lat="40.93715" lon="38.22264">
        <ele>12.047028</ele>
        <time>2021-08-18T17:48:42.180Z</time>
      </trkpt>
      <trkpt lat="40.93752" lon="38.22277">
        <ele>11.538814</ele>
        <time>2021-08-18T17:48:52.035Z</time>
      </trkpt>
      <trkpt lat="40.93749" lon="38.22256">
        <ele>11.335323</ele>
        <time>2021-08-18T17:48:56.285Z</time>
      </trkpt>
      <trkpt lat="40.93748" lon="38.22248">
        <ele>11.257102</ele>
        <time>2021-08-18T17:48:57.846Z</time>
      </trkpt>
      <trkpt lat="40.93742" lon="38.22212">
        <ele>10.903991</ele>
        <time>2021-08-18T17:49:05.202Z</time>
      </trkpt>
      <trkpt lat="40.93735" lon="38.22151">
        <ele>10.323659</ele>
        <time>2021-08-18T17:49:18.109Z</time>
      </trkpt>
      <trkpt lat="40.93736" lon="38.2209">
        <ele>9.74126</ele>
        <time>2021-08-18T17:49:32.203Z</time>
      </trkpt>
      <trkpt lat="40.93731" lon="38.21996">
        <ele>10.150408</ele>
        <time>2021-08-18T17:49:56.945Z</time>
      </trkpt>
      <trkpt lat="40.93724" lon="38.21959">
        <ele>10.321893</ele>
        <time>2021-08-18T17:50:07.899Z</time>
      </trkpt>
      <trkpt lat="40.93711" lon="38.21887">
        <ele>10.652013</ele>
        <time>2021-08-18T17:50:29.361Z</time>
      </trkpt>
      <trkpt lat="40.93702" lon="38.21852">
        <ele>10.788856</ele>
        <time>2021-08-18T17:50:40.050Z</time>
      </trkpt>
      <trkpt lat="40.93693" lon="38.21822">
        <ele>10.741175</ele>
        <time>2021-08-18T17:50:49.007Z</time>
      </trkpt>
      <trkpt lat="40.93689" lon="38.21808">
        <ele>10.718045</ele>
        <time>2021-08-18T17:50:52.940Z</time>
      </trkpt>
      <trkpt lat="40.9369" lon="38.21806">
        <ele>10.714175</ele>
        <time>2021-08-18T17:50:53.634Z</time>
      </trkpt>
      <trkpt lat="40.9369" lon="38.21803">
        <ele>10.710278</ele>
        <time>2021-08-18T17:50:54.283Z</time>
      </trkpt>
      <trkpt lat="40.9369" lon="38.21801">
        <ele>10.706505</ele>
        <time>2021-08-18T17:50:54.973Z</time>
      </trkpt>
      <trkpt lat="40.9369" lon="38.21798">
        <ele>10.701682</ele>
        <time>2021-08-18T17:50:55.855Z</time>
      </trkpt>
      <trkpt lat="40.93687" lon="38.21793">
        <ele>10.692034</ele>
        <time>2021-08-18T17:50:57.490Z</time>
      </trkpt>
      <trkpt lat="40.93684" lon="38.21792">
        <ele>10.687342</ele>
        <time>2021-08-18T17:50:58.180Z</time>
      </trkpt>
      <trkpt lat="40.93694" lon="38.2175">
        <ele>10.622104</ele>
        <time>2021-08-18T17:51:08.574Z</time>
      </trkpt>
      <trkpt lat="40.93702" lon="38.21696">
        <ele>10.538679</ele>
        <time>2021-08-18T17:51:20.497Z</time>
      </trkpt>
      <trkpt lat="40.93706" lon="38.21641">
        <ele>10.455912</ele>
        <time>2021-08-18T17:51:32.696Z</time>
      </trkpt>
      <trkpt lat="40.93695" lon="38.2161">
        <ele>10.400981</ele>
        <time>2021-08-18T17:51:40.528Z</time>
      </trkpt>
      <trkpt lat="40.93693" lon="38.21605">
        <ele>10.392035</ele>
        <time>2021-08-18T17:51:41.523Z</time>
      </trkpt>
      <trkpt lat="40.93682" lon="38.21574">
        <ele>10.337757</ele>
        <time>2021-08-18T17:51:49.168Z</time>
      </trkpt>
      <trkpt lat="40.93667" lon="38.21524">
        <ele>10.250334</ele>
        <time>2021-08-18T17:52:01.220Z</time>
      </trkpt>
      <trkpt lat="40.93664" lon="38.21513">
        <ele>10.231369</ele>
        <time>2021-08-18T17:52:03.684Z</time>
      </trkpt>
      <trkpt lat="40.9366" lon="38.21448">
        <ele>10.125351</ele>
        <time>2021-08-18T17:52:19.967Z</time>
      </trkpt>
      <trkpt lat="40.93657" lon="38.21367">
        <ele>10.313643</ele>
        <time>2021-08-18T17:52:41.891Z</time>
      </trkpt>
      <trkpt lat="40.93656" lon="38.21313">
        <ele>10.70949</ele>
        <time>2021-08-18T17:52:58.270Z</time>
      </trkpt>
      <trkpt lat="40.93656" lon="38.2131">
        <ele>10.733544</ele>
        <time>2021-08-18T17:52:59.490Z</time>
      </trkpt>
      <trkpt lat="40.93657" lon="38.21282">
        <ele>10.936186</ele>
        <time>2021-08-18T17:53:07.817Z</time>
      </trkpt>
      <trkpt lat="40.93657" lon="38.21162">
        <ele>11.791565</ele>
        <time>2021-08-18T17:53:42.815Z</time>
      </trkpt>
      <trkpt lat="40.93659" lon="38.21048">
        <ele>11.90077</ele>
        <time>2021-08-18T17:54:12.168Z</time>
      </trkpt>
      <trkpt lat="40.9366" lon="38.21008">
        <ele>11.938218</ele>
        <time>2021-08-18T17:54:21.779Z</time>
      </trkpt>
      <trkpt lat="40.9366" lon="38.2098">
        <ele>11.964825</ele>
        <time>2021-08-18T17:54:28.392Z</time>
      </trkpt>
      <trkpt lat="40.93663" lon="38.20903">
        <ele>12.145779</ele>
        <time>2021-08-18T17:54:46.376Z</time>
      </trkpt>
      <trkpt lat="40.93664" lon="38.2083">
        <ele>12.541541</ele>
        <time>2021-08-18T17:55:04.174Z</time>
      </trkpt>
      <trkpt lat="40.93671" lon="38.207">
        <ele>13.247683</ele>
        <time>2021-08-18T17:55:40.765Z</time>
      </trkpt>
      <trkpt lat="40.93671" lon="38.20652">
        <ele>14.283458</ele>
        <time>2021-08-18T17:55:57.159Z</time>
      </trkpt>
      <trkpt lat="40.9367" lon="38.20624">
        <ele>15.041632</ele>
        <time>2021-08-18T17:56:08.822Z</time>
      </trkpt>
      <trkpt lat="40.93673" lon="38.20508">
        <ele>18.088661</ele>
        <time>2021-08-18T17:56:51.218Z</time>
      </trkpt>
      <trkpt lat="40.93673" lon="38.20502">
        <ele>18.263323</ele>
        <time>2021-08-18T17:56:55.523Z</time>
      </trkpt>
      <trkpt lat="40.93677" lon="38.20423">
        <ele>20.354772</ele>
        <time>2021-08-18T17:57:34.194Z</time>
      </trkpt>
      <trkpt lat="40.93678" lon="38.20408">
        <ele>20.748039</ele>
        <time>2021-08-18T17:57:41.809Z</time>
      </trkpt>
      <trkpt lat="40.93683" lon="38.20347">
        <ele>22.364343</ele>
        <time>2021-08-18T17:58:08.522Z</time>
      </trkpt>
      <trkpt lat="40.93685" lon="38.20327">
        <ele>22.924653</ele>
        <time>2021-08-18T17:58:16.402Z</time>
      </trkpt>
      <trkpt lat="40.9366" lon="38.20321">
        <ele>23.825606</ele>
        <time>2021-08-18T17:58:31.415Z</time>
      </trkpt>
      <trkpt lat="40.93627" lon="38.20275">
        <ele>25.502727</ele>
        <time>2021-08-18T17:58:52.635Z</time>
      </trkpt>
      <trkpt lat="40.93637" lon="38.20247">
        <ele>25.6885</ele>
        <time>2021-08-18T17:59:01.398Z</time>
      </trkpt>
      <trkpt lat="40.93638" lon="38.20237">
        <ele>25.556183</ele>
        <time>2021-08-18T17:59:03.448Z</time>
      </trkpt>
      <trkpt lat="40.93638" lon="38.20218">
        <ele>25.294269</ele>
        <time>2021-08-18T17:59:08.112Z</time>
      </trkpt>
      <trkpt lat="40.93629" lon="38.20194">
        <ele>24.930507</ele>
        <time>2021-08-18T17:59:15.005Z</time>
      </trkpt>
      <trkpt lat="40.93625" lon="38.20122">
        <ele>23.949887</ele>
        <time>2021-08-18T17:59:29.836Z</time>
      </trkpt>
      <trkpt lat="40.93628" lon="38.20086">
        <ele>23.444755</ele>
        <time>2021-08-18T17:59:36.406Z</time>
      </trkpt>
      <trkpt lat="40.93628" lon="38.20081">
        <ele>23.383039</ele>
        <time>2021-08-18T17:59:37.100Z</time>
      </trkpt>
      <trkpt lat="40.93636" lon="38.2001">
        <ele>22.200426</ele>
        <time>2021-08-18T17:59:49.407Z</time>
      </trkpt>
      <trkpt lat="40.93643" lon="38.19978">
        <ele>21.383864</ele>
        <time>2021-08-18T17:59:55.224Z</time>
      </trkpt>
      <trkpt lat="40.93657" lon="38.19947">
        <ele>20.517983</ele>
        <time>2021-08-18T18:00:01.457Z</time>
      </trkpt>
      <trkpt lat="40.93678" lon="38.19952">
        <ele>19.821801</ele>
        <time>2021-08-18T18:00:06.329Z</time>
      </trkpt>
      <trkpt lat="40.93692" lon="38.19946">
        <ele>19.334307</ele>
        <time>2021-08-18T18:00:09.576Z</time>
      </trkpt>
      <trkpt lat="40.93688" lon="38.19896">
        <ele>18.086053</ele>
        <time>2021-08-18T18:00:18.520Z</time>
      </trkpt>
      <trkpt lat="40.93699" lon="38.19893">
        <ele>17.72857</ele>
        <time>2021-08-18T18:00:21.330Z</time>
      </trkpt>
      <trkpt lat="40.93704" lon="38.19879">
        <ele>17.351059</ele>
        <time>2021-08-18T18:00:24.271Z</time>
      </trkpt>
      <trkpt lat="40.93713" lon="38.19791">
        <ele>16.42776</ele>
        <time>2021-08-18T18:00:42.162Z</time>
      </trkpt>
      <trkpt lat="40.93713" lon="38.19787">
        <ele>16.405738</ele>
        <time>2021-08-18T18:00:42.958Z</time>
      </trkpt>
      <trkpt lat="40.93717" lon="38.19767">
        <ele>16.279954</ele>
        <time>2021-08-18T18:00:47.429Z</time>
      </trkpt>
      <trkpt lat="40.93718" lon="38.19732">
        <ele>16.072767</ele>
        <time>2021-08-18T18:00:55.775Z</time>
      </trkpt>
      <trkpt lat="40.93735" lon="38.19586">
        <ele>15.123847</ele>
        <time>2021-08-18T18:01:31.083Z</time>
      </trkpt>
      <trkpt lat="40.93744" lon="38.19518">
        <ele>14.60006</ele>
        <time>2021-08-18T18:01:46.625Z</time>
      </trkpt>
      <trkpt lat="40.93756" lon="38.19375">
        <ele>13.378829</ele>
        <time>2021-08-18T18:02:16.666Z</time>
      </trkpt>
      <trkpt lat="40.9377" lon="38.19374">
        <ele>13.018586</ele>
        <time>2021-08-18T18:02:20.282Z</time>
      </trkpt>
      <trkpt lat="40.93786" lon="38.19374">
        <ele>12.631284</ele>
        <time>2021-08-18T18:02:24.310Z</time>
      </trkpt>
      <trkpt lat="40.93808" lon="38.19374">
        <ele>12.074124</ele>
        <time>2021-08-18T18:02:29.659Z</time>
      </trkpt>
      <trkpt lat="40.93807" lon="38.1934">
        <ele>11.427998</ele>
        <time>2021-08-18T18:02:35.555Z</time>
      </trkpt>
      <trkpt lat="40.93809" lon="38.19261">
        <ele>9.939943</ele>
        <time>2021-08-18T18:02:49.399Z</time>
      </trkpt>
      <trkpt lat="40.93839" lon="38.19266">
        <ele>9.191987</ele>
        <time>2021-08-18T18:02:56.394Z</time>
      </trkpt>
      <trkpt lat="40.93892" lon="38.19279">
        <ele>8.456215</ele>
        <time>2021-08-18T18:03:09.691Z</time>
      </trkpt>
      <trkpt lat="40.93904" lon="38.19288">
        <ele>8.279343</ele>
        <time>2021-08-18T18:03:13.470Z</time>
      </trkpt>
      <trkpt lat="40.93921" lon="38.19312">
        <ele>7.964402</ele>
        <time>2021-08-18T18:03:19.825Z</time>
      </trkpt>
      <trkpt lat="40.93925" lon="38.19327">
        <ele>7.80566</ele>
        <time>2021-08-18T18:03:23.274Z</time>
      </trkpt>
      <trkpt lat="40.93927" lon="38.19348">
        <ele>7.597175</ele>
        <time>2021-08-18T18:03:27.428Z</time>
      </trkpt>
      <trkpt lat="40.93924" lon="38.19365">
        <ele>7.426123</ele>
        <time>2021-08-18T18:03:31.099Z</time>
      </trkpt>
      <trkpt lat="40.93915" lon="38.1938">
        <ele>7.245533</ele>
        <time>2021-08-18T18:03:34.898Z</time>
      </trkpt>
      <trkpt lat="40.93905" lon="38.19383">
        <ele>7.113652</ele>
        <time>2021-08-18T18:03:37.665Z</time>
      </trkpt>
      <trkpt lat="40.93893" lon="38.19378">
        <ele>6.951121</ele>
        <time>2021-08-18T18:03:41.537Z</time>
      </trkpt>
      <trkpt lat="40.9388" lon="38.19356">
        <ele>6.828215</ele>
        <time>2021-08-18T18:03:47.561Z</time>
      </trkpt>
      <trkpt lat="40.93874" lon="38.19331">
        <ele>6.861784</ele>
        <time>2021-08-18T18:03:54.611Z</time>
      </trkpt>
      <trkpt lat="40.93868" lon="38.19126">
        <ele>7.091925</ele>
        <time>2021-08-18T18:04:46.162Z</time>
      </trkpt>
      <trkpt lat="40.93874" lon="38.19012">
        <ele>6.745674</ele>
        <time>2021-08-18T18:05:11.596Z</time>
      </trkpt>
      <trkpt lat="40.93895" lon="38.18856">
        <ele>6.246758</ele>
        <time>2021-08-18T18:05:45.735Z</time>
      </trkpt>
      <trkpt lat="40.93941" lon="38.18666">
        <ele>5.536428</ele>
        <time>2021-08-18T18:06:29.287Z</time>
      </trkpt>
      <trkpt lat="40.93982" lon="38.18549">
        <ele>5.220045</ele>
        <time>2021-08-18T18:06:57.978Z</time>
      </trkpt>
      <trkpt lat="40.94006" lon="38.1849">
        <ele>5.055898</ele>
        <time>2021-08-18T18:07:12.996Z</time>
      </trkpt>
      <trkpt lat="40.94061" lon="38.18383">
        <ele>4.853682</ele>
        <time>2021-08-18T18:07:42.392Z</time>
      </trkpt>
      <trkpt lat="40.94376" lon="38.17842">
        <ele>4.133297</ele>
        <time>2021-08-18T18:10:19.318Z</time>
      </trkpt>
      <trkpt lat="40.94416" lon="38.17748">
        <ele>4.082637</ele>
        <time>2021-08-18T18:10:44.536Z</time>
      </trkpt>
      <trkpt lat="40.94446" lon="38.17646">
        <ele>4.033905</ele>
        <time>2021-08-18T18:11:10.316Z</time>
      </trkpt>
      <trkpt lat="40.94469" lon="38.17539">
        <ele>3.988972</ele>
        <time>2021-08-18T18:11:36.412Z</time>
      </trkpt>
      <trkpt lat="40.94495" lon="38.17361">
        <ele>3.979235</ele>
        <time>2021-08-18T18:12:18.506Z</time>
      </trkpt>
      <trkpt lat="40.94586" lon="38.16765">
        <ele>4.504994</ele>
        <time>2021-08-18T18:14:43.627Z</time>
      </trkpt>
      <trkpt lat="40.94591" lon="38.16727">
        <ele>4.754879</ele>
        <time>2021-08-18T18:14:54.197Z</time>
      </trkpt>
      <trkpt lat="40.94617" lon="38.1654">
        <ele>6.504829</ele>
        <time>2021-08-18T18:15:50.157Z</time>
      </trkpt>
      <trkpt lat="40.94642" lon="38.16424">
        <ele>7.849115</ele>
        <time>2021-08-18T18:16:25.650Z</time>
      </trkpt>
      <trkpt lat="40.94684" lon="38.16318">
        <ele>9.230406</ele>
        <time>2021-08-18T18:17:00.475Z</time>
      </trkpt>
      <trkpt lat="40.94736" lon="38.16221">
        <ele>11.793867</ele>
        <time>2021-08-18T18:17:40.857Z</time>
      </trkpt>
      <trkpt lat="40.94861" lon="38.1603">
        <ele>17.309374</ele>
        <time>2021-08-18T18:19:21.175Z</time>
      </trkpt>
      <trkpt lat="40.94921" lon="38.15906">
        <ele>19.588841</ele>
        <time>2021-08-18T18:20:06.603Z</time>
      </trkpt>
      <trkpt lat="40.94937" lon="38.15848">
        <ele>19.252854</ele>
        <time>2021-08-18T18:20:20.225Z</time>
      </trkpt>
      <trkpt lat="40.94961" lon="38.15736">
        <ele>18.613025</ele>
        <time>2021-08-18T18:20:43.099Z</time>
      </trkpt>
      <trkpt lat="40.95011" lon="38.1538">
        <ele>15.532125</ele>
        <time>2021-08-18T18:21:52.543Z</time>
      </trkpt>
      <trkpt lat="40.9503" lon="38.15261">
        <ele>15.583244</ele>
        <time>2021-08-18T18:22:23.928Z</time>
      </trkpt>
      <trkpt lat="40.95057" lon="38.15146">
        <ele>17.540463</ele>
        <time>2021-08-18T18:23:03.546Z</time>
      </trkpt>
      <trkpt lat="40.95093" lon="38.15039">
        <ele>20.123094</ele>
        <time>2021-08-18T18:23:50.235Z</time>
      </trkpt>
      <trkpt lat="40.95187" lon="38.1481">
        <ele>25.02607</ele>
        <time>2021-08-18T18:25:23.464Z</time>
      </trkpt>
      <trkpt lat="40.95229" lon="38.14686">
        <ele>23.849287</ele>
        <time>2021-08-18T18:25:51.699Z</time>
      </trkpt>
      <trkpt lat="40.95247" lon="38.14605">
        <ele>22.941693</ele>
        <time>2021-08-18T18:26:06.529Z</time>
      </trkpt>
      <trkpt lat="40.95255" lon="38.1452">
        <ele>21.772772</ele>
        <time>2021-08-18T18:26:21.399Z</time>
      </trkpt>
      <trkpt lat="40.95284" lon="38.13402">
        <ele>5.394326</ele>
        <time>2021-08-18T18:29:51.599Z</time>
      </trkpt>
      <trkpt lat="40.95301" lon="38.13166">
        <ele>3.985858</ele>
        <time>2021-08-18T18:30:41.542Z</time>
      </trkpt>
      <trkpt lat="40.95328" lon="38.12946">
        <ele>4.37299</ele>
        <time>2021-08-18T18:31:36.156Z</time>
      </trkpt>
      <trkpt lat="40.95332" lon="38.12894">
        <ele>4.672049</ele>
        <time>2021-08-18T18:31:50.674Z</time>
      </trkpt>
      <trkpt lat="40.95312" lon="38.12879">
        <ele>4.986505</ele>
        <time>2021-08-18T18:31:59.018Z</time>
      </trkpt>
      <trkpt lat="40.95301" lon="38.12868">
        <ele>5.181786</ele>
        <time>2021-08-18T18:32:04.456Z</time>
      </trkpt>
      <trkpt lat="40.95289" lon="38.12849">
        <ele>5.440354</ele>
        <time>2021-08-18T18:32:11.423Z</time>
      </trkpt>
      <trkpt lat="40.95281" lon="38.12829">
        <ele>5.677525</ele>
        <time>2021-08-18T18:32:18.232Z</time>
      </trkpt>
      <trkpt lat="40.95276" lon="38.12815">
        <ele>5.850874</ele>
        <time>2021-08-18T18:32:23.078Z</time>
      </trkpt>
      <trkpt lat="40.95276" lon="38.12792">
        <ele>6.088396</ele>
        <time>2021-08-18T18:32:29.905Z</time>
      </trkpt>
      <trkpt lat="40.95278" lon="38.12637">
        <ele>7.851106</ele>
        <time>2021-08-18T18:33:18.262Z</time>
      </trkpt>
      <trkpt lat="40.95288" lon="38.12436">
        <ele>10.325173</ele>
        <time>2021-08-18T18:34:19.062Z</time>
      </trkpt>
      <trkpt lat="40.95303" lon="38.12341">
        <ele>11.529026</ele>
        <time>2021-08-18T18:34:48.111Z</time>
      </trkpt>
      <trkpt lat="40.95324" lon="38.12253">
        <ele>12.679428</ele>
        <time>2021-08-18T18:35:16.368Z</time>
      </trkpt>
      <trkpt lat="40.95364" lon="38.12156">
        <ele>13.929187</ele>
        <time>2021-08-18T18:35:51.685Z</time>
      </trkpt>
      <trkpt lat="40.95485" lon="38.11921">
        <ele>15.310553</ele>
        <time>2021-08-18T18:37:12.549Z</time>
      </trkpt>
      <trkpt lat="40.95551" lon="38.11801">
        <ele>13.967649</ele>
        <time>2021-08-18T18:37:40.071Z</time>
      </trkpt>
      <trkpt lat="40.95589" lon="38.11732">
        <ele>12.021682</ele>
        <time>2021-08-18T18:37:54.578Z</time>
      </trkpt>
      <trkpt lat="40.95641" lon="38.11643">
        <ele>9.639829</ele>
        <time>2021-08-18T18:38:13.906Z</time>
      </trkpt>
      <trkpt lat="40.95666" lon="38.11602">
        <ele>9.065667</ele>
        <time>2021-08-18T18:38:23.339Z</time>
      </trkpt>
      <trkpt lat="40.95685" lon="38.11569">
        <ele>8.607724</ele>
        <time>2021-08-18T18:38:30.823Z</time>
      </trkpt>
      <trkpt lat="40.95702" lon="38.1153">
        <ele>8.111798</ele>
        <time>2021-08-18T18:38:39.077Z</time>
      </trkpt>
      <trkpt lat="40.95714" lon="38.115">
        <ele>7.744336</ele>
        <time>2021-08-18T18:38:46.570Z</time>
      </trkpt>
      <trkpt lat="40.95725" lon="38.11472">
        <ele>7.400978</ele>
        <time>2021-08-18T18:38:54.541Z</time>
      </trkpt>
      <trkpt lat="40.95744" lon="38.11443">
        <ele>7.661273</ele>
        <time>2021-08-18T18:39:04.769Z</time>
      </trkpt>
      <trkpt lat="40.95754" lon="38.11436">
        <ele>8.010387</ele>
        <time>2021-08-18T18:39:09.898Z</time>
      </trkpt>
      <trkpt lat="40.95765" lon="38.11431">
        <ele>8.357267</ele>
        <time>2021-08-18T18:39:13.741Z</time>
      </trkpt>
      <trkpt lat="40.95778" lon="38.11431">
        <ele>8.759994</ele>
        <time>2021-08-18T18:39:19.466Z</time>
      </trkpt>
      <trkpt lat="40.95788" lon="38.11427">
        <ele>9.094013</ele>
        <time>2021-08-18T18:39:25.136Z</time>
      </trkpt>
      <trkpt lat="40.95798" lon="38.11411">
        <ele>9.562461</ele>
        <time>2021-08-18T18:39:31.137Z</time>
      </trkpt>
      <trkpt lat="40.95797" lon="38.11386">
        <ele>10.152178</ele>
        <time>2021-08-18T18:39:41.769Z</time>
      </trkpt>
      <trkpt lat="40.95791" lon="38.113">
        <ele>12.173262</ele>
        <time>2021-08-18T18:40:16.803Z</time>
      </trkpt>
      <trkpt lat="40.95791" lon="38.11219">
        <ele>14.375716</ele>
        <time>2021-08-18T18:40:53.077Z</time>
      </trkpt>
      <trkpt lat="40.95801" lon="38.11135">
        <ele>16.793113</ele>
        <time>2021-08-18T18:41:30.472Z</time>
      </trkpt>
      <trkpt lat="40.95822" lon="38.11045">
        <ele>19.502143</ele>
        <time>2021-08-18T18:42:04.425Z</time>
      </trkpt>
      <trkpt lat="40.95853" lon="38.10954">
        <ele>19.44915</ele>
        <time>2021-08-18T18:42:32.558Z</time>
      </trkpt>
      <trkpt lat="40.96123" lon="38.10345">
        <ele>17.920357</ele>
        <time>2021-08-18T18:45:02.751Z</time>
      </trkpt>
      <trkpt lat="40.96136" lon="38.10304">
        <ele>18.048391</ele>
        <time>2021-08-18T18:45:14.144Z</time>
      </trkpt>
      <trkpt lat="40.96254" lon="38.09681">
        <ele>22.974599</ele>
        <time>2021-08-18T18:48:21.170Z</time>
      </trkpt>
      <trkpt lat="40.96267" lon="38.09596">
        <ele>22.903948</ele>
        <time>2021-08-18T18:48:41.831Z</time>
      </trkpt>
      <trkpt lat="40.96275" lon="38.0951">
        <ele>22.833413</ele>
        <time>2021-08-18T18:48:59.734Z</time>
      </trkpt>
      <trkpt lat="40.96279" lon="38.09417">
        <ele>21.501473</ele>
        <time>2021-08-18T18:49:17.068Z</time>
      </trkpt>
      <trkpt lat="40.96274" lon="38.09165">
        <ele>18.441096</ele>
        <time>2021-08-18T18:50:03.304Z</time>
      </trkpt>
      <trkpt lat="40.96296" lon="38.0887">
        <ele>17.397682</ele>
        <time>2021-08-18T18:51:11.622Z</time>
      </trkpt>
      <trkpt lat="40.96298" lon="38.08755">
        <ele>17.372442</ele>
        <time>2021-08-18T18:51:41.090Z</time>
      </trkpt>
      <trkpt lat="40.96286" lon="38.08082">
        <ele>16.478138</ele>
        <time>2021-08-18T18:54:13.860Z</time>
      </trkpt>
      <trkpt lat="40.96291" lon="38.07994">
        <ele>16.21882</ele>
        <time>2021-08-18T18:54:33.556Z</time>
      </trkpt>
      <trkpt lat="40.96324" lon="38.07813">
        <ele>15.617194</ele>
        <time>2021-08-18T18:55:14.510Z</time>
      </trkpt>
      <trkpt lat="40.96351" lon="38.0772">
        <ele>15.179919</ele>
        <time>2021-08-18T18:55:35.541Z</time>
      </trkpt>
      <trkpt lat="40.96421" lon="38.07557">
        <ele>14.560477</ele>
        <time>2021-08-18T18:56:16.410Z</time>
      </trkpt>
      <trkpt lat="40.96443" lon="38.07494">
        <ele>14.432693</ele>
        <time>2021-08-18T18:56:32.242Z</time>
      </trkpt>
      <trkpt lat="40.96457" lon="38.07445">
        <ele>14.335628</ele>
        <time>2021-08-18T18:56:44.291Z</time>
      </trkpt>
      <trkpt lat="40.9646" lon="38.07442">
        <ele>14.327405</ele>
        <time>2021-08-18T18:56:45.169Z</time>
      </trkpt>
      <trkpt lat="40.96463" lon="38.07437">
        <ele>14.315279</ele>
        <time>2021-08-18T18:56:46.639Z</time>
      </trkpt>
      <trkpt lat="40.96464" lon="38.07431">
        <ele>14.302965</ele>
        <time>2021-08-18T18:56:48.126Z</time>
      </trkpt>
      <trkpt lat="40.96464" lon="38.07424">
        <ele>14.290549</ele>
        <time>2021-08-18T18:56:49.865Z</time>
      </trkpt>
      <trkpt lat="40.96464" lon="38.0742">
        <ele>14.283123</ele>
        <time>2021-08-18T18:56:51.029Z</time>
      </trkpt>
      <trkpt lat="40.96487" lon="38.07273">
        <ele>14.046296</ele>
        <time>2021-08-18T18:57:26.051Z</time>
      </trkpt>
      <trkpt lat="40.96585" lon="38.0675">
        <ele>12.579117</ele>
        <time>2021-08-18T18:59:24.876Z</time>
      </trkpt>
      <trkpt lat="40.96595" lon="38.06695">
        <ele>12.451688</ele>
        <time>2021-08-18T18:59:37.492Z</time>
      </trkpt>
      <trkpt lat="40.96597" lon="38.06652">
        <ele>12.383216</ele>
        <time>2021-08-18T18:59:47.612Z</time>
      </trkpt>
      <trkpt lat="40.96612" lon="38.06461">
        <ele>12.069545</ele>
        <time>2021-08-18T19:00:31.741Z</time>
      </trkpt>
      <trkpt lat="40.96639" lon="38.0626">
        <ele>11.631708</ele>
        <time>2021-08-18T19:01:16.987Z</time>
      </trkpt>
      <trkpt lat="40.96713" lon="38.05655">
        <ele>11.082931</ele>
        <time>2021-08-18T19:03:36.866Z</time>
      </trkpt>
      <trkpt lat="40.96717" lon="38.05651">
        <ele>11.09278</ele>
        <time>2021-08-18T19:03:38.358Z</time>
      </trkpt>
      <trkpt lat="40.9672" lon="38.05634">
        <ele>11.121224</ele>
        <time>2021-08-18T19:03:42.763Z</time>
      </trkpt>
      <trkpt lat="40.96719" lon="38.05628">
        <ele>11.131073</ele>
        <time>2021-08-18T19:03:44.282Z</time>
      </trkpt>
      <trkpt lat="40.96735" lon="38.05492">
        <ele>11.702172</ele>
        <time>2021-08-18T19:04:20.407Z</time>
      </trkpt>
      <trkpt lat="40.96849" lon="38.04771">
        <ele>17.519178</ele>
        <time>2021-08-18T19:07:50.089Z</time>
      </trkpt>
      <trkpt lat="40.96854" lon="38.04728">
        <ele>17.692508</ele>
        <time>2021-08-18T19:08:01.173Z</time>
      </trkpt>
      <trkpt lat="40.96877" lon="38.04532">
        <ele>18.00838</ele>
        <time>2021-08-18T19:08:49.669Z</time>
      </trkpt>
      <trkpt lat="40.96891" lon="38.04457">
        <ele>17.856724</ele>
        <time>2021-08-18T19:09:06.502Z</time>
      </trkpt>
      <trkpt lat="40.96913" lon="38.04388">
        <ele>17.707796</ele>
        <time>2021-08-18T19:09:22.758Z</time>
      </trkpt>
      <trkpt lat="40.96943" lon="38.04325">
        <ele>16.993764</ele>
        <time>2021-08-18T19:09:38.494Z</time>
      </trkpt>
      <trkpt lat="40.96981" lon="38.04268">
        <ele>16.204784</ele>
        <time>2021-08-18T19:09:53.616Z</time>
      </trkpt>
      <trkpt lat="40.97082" lon="38.04163">
        <ele>14.66702</ele>
        <time>2021-08-18T19:10:25.438Z</time>
      </trkpt>
      <trkpt lat="40.97115" lon="38.04116">
        <ele>14.18988</ele>
        <time>2021-08-18T19:10:38.072Z</time>
      </trkpt>
      <trkpt lat="40.97139" lon="38.04059">
        <ele>13.705691</ele>
        <time>2021-08-18T19:10:52.085Z</time>
      </trkpt>
      <trkpt lat="40.97157" lon="38.03999">
        <ele>13.776316</ele>
        <time>2021-08-18T19:11:07.958Z</time>
      </trkpt>
      <trkpt lat="40.97169" lon="38.03928">
        <ele>14.486086</ele>
        <time>2021-08-18T19:11:28.332Z</time>
      </trkpt>
      <trkpt lat="40.97216" lon="38.03453">
        <ele>19.319793</ele>
        <time>2021-08-18T19:13:59.179Z</time>
      </trkpt>
      <trkpt lat="40.97255" lon="38.03163">
        <ele>18.492119</ele>
        <time>2021-08-18T19:14:58.156Z</time>
      </trkpt>
      <trkpt lat="40.97259" lon="38.03159">
        <ele>18.4528</ele>
        <time>2021-08-18T19:14:59.386Z</time>
      </trkpt>
      <trkpt lat="40.97261" lon="38.03146">
        <ele>18.375368</ele>
        <time>2021-08-18T19:15:02.041Z</time>
      </trkpt>
      <trkpt lat="40.97259" lon="38.0314">
        <ele>18.336662</ele>
        <time>2021-08-18T19:15:03.310Z</time>
      </trkpt>
      <trkpt lat="40.97306" lon="38.02733">
        <ele>18.544228</ele>
        <time>2021-08-18T19:16:46.253Z</time>
      </trkpt>
      <trkpt lat="40.9733" lon="38.02548">
        <ele>18.103373</ele>
        <time>2021-08-18T19:17:28.406Z</time>
      </trkpt>
      <trkpt lat="40.97341" lon="38.02491">
        <ele>17.713265</ele>
        <time>2021-08-18T19:17:40.541Z</time>
      </trkpt>
      <trkpt lat="40.97366" lon="38.02412">
        <ele>17.144848</ele>
        <time>2021-08-18T19:17:57.793Z</time>
      </trkpt>
      <trkpt lat="40.97398" lon="38.02345">
        <ele>16.356232</ele>
        <time>2021-08-18T19:18:13.428Z</time>
      </trkpt>
      <trkpt lat="40.97439" lon="38.0228">
        <ele>15.42381</ele>
        <time>2021-08-18T19:18:29.824Z</time>
      </trkpt>
      <trkpt lat="40.97541" lon="38.02152">
        <ele>13.514274</ele>
        <time>2021-08-18T19:19:05.540Z</time>
      </trkpt>
      <trkpt lat="40.97588" lon="38.02073">
        <ele>12.55064</ele>
        <time>2021-08-18T19:19:25.672Z</time>
      </trkpt>
      <trkpt lat="40.97617" lon="38.01992">
        <ele>12.047822</ele>
        <time>2021-08-18T19:19:44.446Z</time>
      </trkpt>
      <trkpt lat="40.97632" lon="38.01917">
        <ele>11.93381</ele>
        <time>2021-08-18T19:20:01.650Z</time>
      </trkpt>
      <trkpt lat="40.97642" lon="38.01766">
        <ele>11.890329</ele>
        <time>2021-08-18T19:20:38.439Z</time>
      </trkpt>
      <trkpt lat="40.97637" lon="38.0095">
        <ele>14.615908</ele>
        <time>2021-08-18T19:24:08.582Z</time>
      </trkpt>
      <trkpt lat="40.97627" lon="38.00223">
        <ele>12.08292</ele>
        <time>2021-08-18T19:26:50.867Z</time>
      </trkpt>
      <trkpt lat="40.97627" lon="38.00178">
        <ele>11.65506</ele>
        <time>2021-08-18T19:26:58.859Z</time>
      </trkpt>
      <trkpt lat="40.97631" lon="37.99888">
        <ele>6.941943</ele>
        <time>2021-08-18T19:27:50.412Z</time>
      </trkpt>
      <trkpt lat="40.97629" lon="37.99736">
        <ele>7.756082</ele>
        <time>2021-08-18T19:28:26.897Z</time>
      </trkpt>
      <trkpt lat="40.97627" lon="37.99676">
        <ele>8.076799</ele>
        <time>2021-08-18T19:28:47.460Z</time>
      </trkpt>
      <trkpt lat="40.97626" lon="37.99638">
        <ele>8.553316</ele>
        <time>2021-08-18T19:29:01.798Z</time>
      </trkpt>
      <trkpt lat="40.97627" lon="37.996">
        <ele>9.306701</ele>
        <time>2021-08-18T19:29:16.680Z</time>
      </trkpt>
      <trkpt lat="40.97626" lon="37.99495">
        <ele>11.412735</ele>
        <time>2021-08-18T19:29:56.253Z</time>
      </trkpt>
      <trkpt lat="40.97626" lon="37.99396">
        <ele>12.832553</ele>
        <time>2021-08-18T19:30:27.497Z</time>
      </trkpt>
      <trkpt lat="40.97626" lon="37.993">
        <ele>12.3103</ele>
        <time>2021-08-18T19:30:51.165Z</time>
      </trkpt>
      <trkpt lat="40.97625" lon="37.99132">
        <ele>10.952458</ele>
        <time>2021-08-18T19:31:21.751Z</time>
      </trkpt>
      <trkpt lat="40.97627" lon="37.98849">
        <ele>7.513071</ele>
        <time>2021-08-18T19:32:15.166Z</time>
      </trkpt>
      <trkpt lat="40.97636" lon="37.9856">
        <ele>6.480474</ele>
        <time>2021-08-18T19:33:20.566Z</time>
      </trkpt>
      <trkpt lat="40.97652" lon="37.97988">
        <ele>7.056923</ele>
        <time>2021-08-18T19:35:40.230Z</time>
      </trkpt>
      <trkpt lat="40.97656" lon="37.97787">
        <ele>7.045348</ele>
        <time>2021-08-18T19:36:27.574Z</time>
      </trkpt>
      <trkpt lat="40.97668" lon="37.9761">
        <ele>6.921451</ele>
        <time>2021-08-18T19:37:08.247Z</time>
      </trkpt>
      <trkpt lat="40.97669" lon="37.97606">
        <ele>6.917835</ele>
        <time>2021-08-18T19:37:09.165Z</time>
      </trkpt>
      <trkpt lat="40.97669" lon="37.97598">
        <ele>6.9107</ele>
        <time>2021-08-18T19:37:11.089Z</time>
      </trkpt>
      <trkpt lat="40.97669" lon="37.97594">
        <ele>6.907116</ele>
        <time>2021-08-18T19:37:11.992Z</time>
      </trkpt>
      <trkpt lat="40.97669" lon="37.97494">
        <ele>6.827174</ele>
        <time>2021-08-18T19:37:34.986Z</time>
      </trkpt>
      <trkpt lat="40.97668" lon="37.97393">
        <ele>6.768966</ele>
        <time>2021-08-18T19:37:58.944Z</time>
      </trkpt>
      <trkpt lat="40.97676" lon="37.97155">
        <ele>6.289485</ele>
        <time>2021-08-18T19:38:53.809Z</time>
      </trkpt>
      <trkpt lat="40.97685" lon="37.96825">
        <ele>4.80731</ele>
        <time>2021-08-18T19:40:03.100Z</time>
      </trkpt>
      <trkpt lat="40.97692" lon="37.96825">
        <ele>4.754777</ele>
        <time>2021-08-18T19:40:05.429Z</time>
      </trkpt>
      <trkpt lat="40.97699" lon="37.96598">
        <ele>4.678588</ele>
        <time>2021-08-18T19:41:00.128Z</time>
      </trkpt>
      <trkpt lat="40.97702" lon="37.96493">
        <ele>5.239364</ele>
        <time>2021-08-18T19:41:29.254Z</time>
      </trkpt>
      <trkpt lat="40.97707" lon="37.96357">
        <ele>6.196489</ele>
        <time>2021-08-18T19:42:09.486Z</time>
      </trkpt>
      <trkpt lat="40.9771" lon="37.96286">
        <ele>6.478255</ele>
        <time>2021-08-18T19:42:30.737Z</time>
      </trkpt>
      <trkpt lat="40.97721" lon="37.96123">
        <ele>6.868692</ele>
        <time>2021-08-18T19:43:12.693Z</time>
      </trkpt>
      <trkpt lat="40.97733" lon="37.96119">
        <ele>6.90593</ele>
        <time>2021-08-18T19:43:16.043Z</time>
      </trkpt>
      <trkpt lat="40.97765" lon="37.96115">
        <ele>6.793648</ele>
        <time>2021-08-18T19:43:25.121Z</time>
      </trkpt>
      <trkpt lat="40.97805" lon="37.96109">
        <ele>6.563992</ele>
        <time>2021-08-18T19:43:36.382Z</time>
      </trkpt>
      <trkpt lat="40.97796" lon="37.95971">
        <ele>5.972275</ele>
        <time>2021-08-18T19:44:05.836Z</time>
      </trkpt>
      <trkpt lat="40.97795" lon="37.95892">
        <ele>5.674452</ele>
        <time>2021-08-18T19:44:23.392Z</time>
      </trkpt>
      <trkpt lat="40.97798" lon="37.95772">
        <ele>5.231768</ele>
        <time>2021-08-18T19:44:49.656Z</time>
      </trkpt>
      <trkpt lat="40.97811" lon="37.95587">
        <ele>4.701436</ele>
        <time>2021-08-18T19:45:30.522Z</time>
      </trkpt>
      <trkpt lat="40.97813" lon="37.95416">
        <ele>4.475996</ele>
        <time>2021-08-18T19:46:09.302Z</time>
      </trkpt>
      <trkpt lat="40.97836" lon="37.95343">
        <ele>4.526425</ele>
        <time>2021-08-18T19:46:28.364Z</time>
      </trkpt>
      <trkpt lat="40.97838" lon="37.95295">
        <ele>4.557295</ele>
        <time>2021-08-18T19:46:40.372Z</time>
      </trkpt>
      <trkpt lat="40.97843" lon="37.95226">
        <ele>4.601125</ele>
        <time>2021-08-18T19:46:57.558Z</time>
      </trkpt>
      <trkpt lat="40.97845" lon="37.95205">
        <ele>4.614211</ele>
        <time>2021-08-18T19:47:02.582Z</time>
      </trkpt>
      <trkpt lat="40.97847" lon="37.9516">
        <ele>4.642542</ele>
        <time>2021-08-18T19:47:13.314Z</time>
      </trkpt>
      <trkpt lat="40.9785" lon="37.95054">
        <ele>4.708758</ele>
        <time>2021-08-18T19:47:38.181Z</time>
      </trkpt>
      <trkpt lat="40.97849" lon="37.9496">
        <ele>4.700455</ele>
        <time>2021-08-18T19:48:01.079Z</time>
      </trkpt>
      <trkpt lat="40.97854" lon="37.94813">
        <ele>4.603479</ele>
        <time>2021-08-18T19:48:34.572Z</time>
      </trkpt>
      <trkpt lat="40.97856" lon="37.94691">
        <ele>4.557203</ele>
        <time>2021-08-18T19:49:02.927Z</time>
      </trkpt>
      <trkpt lat="40.97848" lon="37.94492">
        <ele>4.542657</ele>
        <time>2021-08-18T19:49:49.977Z</time>
      </trkpt>
      <trkpt lat="40.97839" lon="37.94369">
        <ele>4.609201</ele>
        <time>2021-08-18T19:50:19.925Z</time>
      </trkpt>
      <trkpt lat="40.97846" lon="37.94294">
        <ele>4.645802</ele>
        <time>2021-08-18T19:50:37.745Z</time>
      </trkpt>
      <trkpt lat="40.97849" lon="37.94282">
        <ele>4.643231</ele>
        <time>2021-08-18T19:50:40.708Z</time>
      </trkpt>
      <trkpt lat="40.97814" lon="37.94254">
        <ele>4.632588</ele>
        <time>2021-08-18T19:50:53.078Z</time>
      </trkpt>
      <trkpt lat="40.97745" lon="37.94189">
        <ele>4.610657</ele>
        <time>2021-08-18T19:51:19.582Z</time>
      </trkpt>
      <trkpt lat="40.97728" lon="37.94167">
        <ele>4.60448</ele>
        <time>2021-08-18T19:51:26.990Z</time>
      </trkpt>
      <trkpt lat="40.97709" lon="37.94137">
        <ele>4.604149</ele>
        <time>2021-08-18T19:51:36.143Z</time>
      </trkpt>
      <trkpt lat="40.97696" lon="37.94107">
        <ele>4.612</ele>
        <time>2021-08-18T19:51:44.271Z</time>
      </trkpt>
      <trkpt lat="40.97679" lon="37.94059">
        <ele>4.624193</ele>
        <time>2021-08-18T19:51:56.839Z</time>
      </trkpt>
      <trkpt lat="40.97637" lon="37.93859">
        <ele>4.573314</ele>
        <time>2021-08-18T19:52:46.520Z</time>
      </trkpt>
      <trkpt lat="40.97613" lon="37.9375">
        <ele>4.448999</ele>
        <time>2021-08-18T19:53:12.207Z</time>
      </trkpt>
      <trkpt lat="40.97603" lon="37.93698">
        <ele>4.388115</ele>
        <time>2021-08-18T19:53:24.021Z</time>
      </trkpt>
      <trkpt lat="40.97545" lon="37.93442">
        <ele>3.859174</ele>
        <time>2021-08-18T19:54:24.027Z</time>
      </trkpt>
      <trkpt lat="40.97541" lon="37.9342">
        <ele>3.832728</ele>
        <time>2021-08-18T19:54:29.252Z</time>
      </trkpt>
      <trkpt lat="40.97599" lon="37.93395">
        <ele>3.737686</ele>
        <time>2021-08-18T19:54:48.939Z</time>
      </trkpt>
      <trkpt lat="40.97599" lon="37.93362">
        <ele>3.698949</ele>
        <time>2021-08-18T19:54:57.082Z</time>
      </trkpt>
      <trkpt lat="40.9759" lon="37.93188">
        <ele>3.693694</ele>
        <time>2021-08-18T19:55:38.735Z</time>
      </trkpt>
      <trkpt lat="40.97591" lon="37.93166">
        <ele>3.709836</ele>
        <time>2021-08-18T19:55:44.697Z</time>
      </trkpt>
      <trkpt lat="40.97608" lon="37.9312">
        <ele>3.747007</ele>
        <time>2021-08-18T19:55:57.531Z</time>
      </trkpt>
      <trkpt lat="40.97617" lon="37.93104">
        <ele>3.7612</ele>
        <time>2021-08-18T19:56:02.133Z</time>
      </trkpt>
      <trkpt lat="40.97643" lon="37.93033">
        <ele>3.940505</ele>
        <time>2021-08-18T19:56:23.006Z</time>
      </trkpt>
      <trkpt lat="40.9765" lon="37.92974">
        <ele>4.16786</ele>
        <time>2021-08-18T19:56:38.534Z</time>
      </trkpt>
      <trkpt lat="40.97781" lon="37.92974">
        <ele>4.817227</ele>
        <time>2021-08-18T19:57:25.975Z</time>
      </trkpt>
      <trkpt lat="40.97901" lon="37.92973">
        <ele>5.358341</ele>
        <time>2021-08-18T19:58:08.090Z</time>
      </trkpt>
      <trkpt lat="40.97904" lon="37.92964">
        <ele>5.392162</ele>
        <time>2021-08-18T19:58:10.624Z</time>
      </trkpt>
      <trkpt lat="40.97914" lon="37.92901">
        <ele>5.524424</ele>
        <time>2021-08-18T19:58:27.067Z</time>
      </trkpt>
      <trkpt lat="40.97916" lon="37.92842">
        <ele>5.554808</ele>
        <time>2021-08-18T19:58:41.727Z</time>
      </trkpt>
      <trkpt lat="40.97991" lon="37.92843">
        <ele>5.606639</ele>
        <time>2021-08-18T19:59:06.378Z</time>
      </trkpt>
      <trkpt lat="40.98084" lon="37.92844">
        <ele>5.503787</ele>
        <time>2021-08-18T19:59:35.896Z</time>
      </trkpt>
      <trkpt lat="40.98085" lon="37.92809">
        <ele>5.442439</ele>
        <time>2021-08-18T19:59:44.199Z</time>
      </trkpt>
      <trkpt lat="40.9818" lon="37.92811">
        <ele>5.221784</ele>
        <time>2021-08-18T20:00:13.506Z</time>
      </trkpt>
      <trkpt lat="40.98185" lon="37.92711">
        <ele>4.793893</ele>
        <time>2021-08-18T20:00:36.213Z</time>
      </trkpt>
      <trkpt lat="40.98269" lon="37.92712">
        <ele>4.30294</ele>
        <time>2021-08-18T20:01:00.802Z</time>
      </trkpt>
      <trkpt lat="40.98268" lon="37.92541">
        <ele>3.59396</ele>
        <time>2021-08-18T20:01:39.039Z</time>
      </trkpt>
      <trkpt lat="40.98275" lon="37.9254">
        <ele>3.557666</ele>
        <time>2021-08-18T20:01:40.995Z</time>
      </trkpt>
      <trkpt lat="40.98322" lon="37.92534">
        <ele>3.300019</ele>
        <time>2021-08-18T20:01:54.852Z</time>
      </trkpt>
      <trkpt lat="40.98355" lon="37.92477">
        <ele>3.083584</ele>
        <time>2021-08-18T20:02:10.932Z</time>
      </trkpt>
      <trkpt lat="40.98431" lon="37.9235">
        <ele>2.695753</ele>
        <time>2021-08-18T20:02:47.287Z</time>
      </trkpt>
      <trkpt lat="40.98446" lon="37.92302">
        <ele>2.595835</ele>
        <time>2021-08-18T20:02:58.725Z</time>
      </trkpt>
      <trkpt lat="40.98446" lon="37.92295">
        <ele>2.586661</ele>
        <time>2021-08-18T20:03:00.103Z</time>
      </trkpt>
      <trkpt lat="40.98451" lon="37.92287">
        <ele>2.573512</ele>
        <time>2021-08-18T20:03:02.421Z</time>
      </trkpt>
      <trkpt lat="40.9845" lon="37.91974">
        <ele>2.446622</ele>
        <time>2021-08-18T20:04:17.721Z</time>
      </trkpt>
      <trkpt lat="40.98419" lon="37.91569">
        <ele>3.481142</ele>
        <time>2021-08-18T20:06:05.351Z</time>
      </trkpt>
      <trkpt lat="40.98422" lon="37.91542">
        <ele>3.547146</ele>
        <time>2021-08-18T20:06:12.398Z</time>
      </trkpt>
      <trkpt lat="40.98417" lon="37.91533">
        <ele>3.575291</ele>
        <time>2021-08-18T20:06:15.398Z</time>
      </trkpt>
      <trkpt lat="40.98413" lon="37.91449">
        <ele>3.783761</ele>
        <time>2021-08-18T20:06:37.527Z</time>
      </trkpt>
      <trkpt lat="40.98404" lon="37.91129">
        <ele>4.156744</ele>
        <time>2021-08-18T20:07:57.820Z</time>
      </trkpt>
      <trkpt lat="40.98399" lon="37.91117">
        <ele>4.157895</ele>
        <time>2021-08-18T20:08:01.096Z</time>
      </trkpt>
      <trkpt lat="40.98384" lon="37.90949">
        <ele>4.172281</ele>
        <time>2021-08-18T20:08:41.951Z</time>
      </trkpt>
      <trkpt lat="40.98383" lon="37.90129">
        <ele>4.655194</ele>
        <time>2021-08-18T20:12:09.007Z</time>
      </trkpt>
      <trkpt lat="40.98388" lon="37.90117">
        <ele>4.587789</ele>
        <time>2021-08-18T20:12:11.866Z</time>
      </trkpt>
      <trkpt lat="40.98383" lon="37.90107">
        <ele>4.525164</ele>
        <time>2021-08-18T20:12:14.479Z</time>
      </trkpt>
      <trkpt lat="40.98383" lon="37.9006">
        <ele>4.283903</ele>
        <time>2021-08-18T20:12:24.523Z</time>
      </trkpt>
      <trkpt lat="40.98386" lon="37.90039">
        <ele>4.178035</ele>
        <time>2021-08-18T20:12:28.908Z</time>
      </trkpt>
      <trkpt lat="40.98388" lon="37.89946">
        <ele>3.751335</ele>
        <time>2021-08-18T20:12:48.797Z</time>
      </trkpt>
      <trkpt lat="40.98385" lon="37.89933">
        <ele>3.755353</ele>
        <time>2021-08-18T20:12:52.044Z</time>
      </trkpt>
      <trkpt lat="40.98386" lon="37.89905">
        <ele>3.763193</ele>
        <time>2021-08-18T20:12:58.021Z</time>
      </trkpt>
      <trkpt lat="40.98354" lon="37.89887">
        <ele>3.776386</ele>
        <time>2021-08-18T20:13:08.287Z</time>
      </trkpt>
      <trkpt lat="40.98336" lon="37.89894">
        <ele>3.783329</ele>
        <time>2021-08-18T20:13:13.842Z</time>
      </trkpt>
      <trkpt lat="40.98366" lon="37.89635">
        <ele>4.707992</ele>
        <time>2021-08-18T20:14:27.271Z</time>
      </trkpt>
      <trkpt lat="40.98368" lon="37.89576">
        <ele>5.068541</ele>
        <time>2021-08-18T20:14:44.098Z</time>
      </trkpt>
      <trkpt lat="40.98355" lon="37.89437">
        <ele>5.735504</ele>
        <time>2021-08-18T20:15:22.895Z</time>
      </trkpt>
      <trkpt lat="40.98355" lon="37.89379">
        <ele>5.984394</ele>
        <time>2021-08-18T20:15:38.305Z</time>
      </trkpt>
      <trkpt lat="40.98361" lon="37.89308">
        <ele>6.292111</ele>
        <time>2021-08-18T20:15:56.938Z</time>
      </trkpt>
      <trkpt lat="40.98358" lon="37.89302">
        <ele>6.312113</ele>
        <time>2021-08-18T20:15:58.938Z</time>
      </trkpt>
      <trkpt lat="40.98373" lon="37.8887">
        <ele>6.471245</ele>
        <time>2021-08-18T20:17:46.561Z</time>
      </trkpt>
      <trkpt lat="40.98377" lon="37.88861">
        <ele>6.469318</ele>
        <time>2021-08-18T20:17:48.901Z</time>
      </trkpt>
      <trkpt lat="40.98386" lon="37.88861">
        <ele>6.467171</ele>
        <time>2021-08-18T20:17:51.486Z</time>
      </trkpt>
      <trkpt lat="40.98415" lon="37.88869">
        <ele>6.433296</ele>
        <time>2021-08-18T20:18:00.589Z</time>
      </trkpt>
      <trkpt lat="40.98433" lon="37.8888">
        <ele>6.393789</ele>
        <time>2021-08-18T20:18:06.726Z</time>
      </trkpt>
      <trkpt lat="40.98448" lon="37.88876">
        <ele>6.364485</ele>
        <time>2021-08-18T20:18:11.307Z</time>
      </trkpt>
      <trkpt lat="40.98459" lon="37.88863">
        <ele>6.336527</ele>
        <time>2021-08-18T20:18:15.647Z</time>
      </trkpt>
      <trkpt lat="40.98463" lon="37.88851">
        <ele>6.317399</ele>
        <time>2021-08-18T20:18:18.689Z</time>
      </trkpt>
      <trkpt lat="40.98467" lon="37.88755">
        <ele>6.175832</ele>
        <time>2021-08-18T20:18:41.591Z</time>
      </trkpt>
      <trkpt lat="40.98473" lon="37.88707">
        <ele>6.134228</ele>
        <time>2021-08-18T20:18:53.702Z</time>
      </trkpt>
      <trkpt lat="40.98479" lon="37.88694">
        <ele>6.181401</ele>
        <time>2021-08-18T20:18:57.831Z</time>
      </trkpt>
      <trkpt lat="40.98478" lon="37.88666">
        <ele>6.265922</ele>
        <time>2021-08-18T20:19:04.564Z</time>
      </trkpt>
      <trkpt lat="40.98453" lon="37.88634">
        <ele>6.409807</ele>
        <time>2021-08-18T20:19:16.705Z</time>
      </trkpt>
      <trkpt lat="40.98443" lon="37.88622">
        <ele>6.463548</ele>
        <time>2021-08-18T20:19:21.664Z</time>
      </trkpt>
      <trkpt lat="40.9845" lon="37.88608">
        <ele>6.5125</ele>
        <time>2021-08-18T20:19:25.831Z</time>
      </trkpt>
      <trkpt lat="40.98454" lon="37.88599">
        <ele>6.545806</ele>
        <time>2021-08-18T20:19:28.569Z</time>
      </trkpt>
      <trkpt lat="40.98466" lon="37.88576">
        <ele>6.632185</ele>
        <time>2021-08-18T20:19:36.502Z</time>
      </trkpt>
      <trkpt lat="40.98453" lon="37.88573">
        <ele>6.687957</ele>
        <time>2021-08-18T20:19:41.149Z</time>
      </trkpt>
      <trkpt lat="40.98393" lon="37.88514">
        <ele>6.910934</ele>
        <time>2021-08-18T20:20:07.652Z</time>
      </trkpt>
      <trkpt lat="40.98414" lon="37.88466">
        <ele>6.988815</ele>
        <time>2021-08-18T20:20:21.874Z</time>
      </trkpt>
      <trkpt lat="40.98432" lon="37.88422">
        <ele>7.061981</ele>
        <time>2021-08-18T20:20:34.930Z</time>
      </trkpt>
      <trkpt lat="40.98647" lon="37.87953">
        <ele>6.651381</ele>
        <time>2021-08-18T20:22:45.380Z</time>
      </trkpt>
      <trkpt lat="40.98657" lon="37.87931">
        <ele>6.635533</ele>
        <time>2021-08-18T20:22:51.519Z</time>
      </trkpt>
      <trkpt lat="40.98666" lon="37.8791">
        <ele>6.632635</ele>
        <time>2021-08-18T20:22:57.853Z</time>
      </trkpt>
      <trkpt lat="40.98662" lon="37.87906">
        <ele>6.631949</ele>
        <time>2021-08-18T20:23:00.961Z</time>
      </trkpt>
      <trkpt lat="40.98728" lon="37.87757">
        <ele>6.611905</ele>
        <time>2021-08-18T20:23:41.873Z</time>
      </trkpt>
      <trkpt lat="40.98778" lon="37.87667">
        <ele>6.342563</ele>
        <time>2021-08-18T20:24:07.587Z</time>
      </trkpt>
      <trkpt lat="40.98826" lon="37.87613">
        <ele>6.091905</ele>
        <time>2021-08-18T20:24:25.614Z</time>
      </trkpt>
      <trkpt lat="40.98879" lon="37.87577">
        <ele>5.900593</ele>
        <time>2021-08-18T20:24:42.360Z</time>
      </trkpt>
      <trkpt lat="40.98939" lon="37.87556">
        <ele>5.954951</ele>
        <time>2021-08-18T20:25:00.347Z</time>
      </trkpt>
      <trkpt lat="40.98989" lon="37.87554">
        <ele>5.998701</ele>
        <time>2021-08-18T20:25:15.298Z</time>
      </trkpt>
      <trkpt lat="40.99527" lon="37.87589">
        <ele>12.052277</ele>
        <time>2021-08-18T20:28:35.016Z</time>
      </trkpt>
      <trkpt lat="40.99571" lon="37.87578">
        <ele>12.877066</ele>
        <time>2021-08-18T20:28:56.707Z</time>
      </trkpt>
      <trkpt lat="40.9961" lon="37.87555">
        <ele>14.024452</ele>
        <time>2021-08-18T20:29:18.122Z</time>
      </trkpt>
      <trkpt lat="40.99653" lon="37.87513">
        <ele>15.70769</ele>
        <time>2021-08-18T20:29:46.206Z</time>
      </trkpt>
      <trkpt lat="40.99749" lon="37.87378">
        <ele>19.101999</ele>
        <time>2021-08-18T20:30:52.792Z</time>
      </trkpt>
      <trkpt lat="40.99851" lon="37.87273">
        <ele>20.137095</ele>
        <time>2021-08-18T20:31:35.788Z</time>
      </trkpt>
      <trkpt lat="40.99935" lon="37.87214">
        <ele>19.027502</ele>
        <time>2021-08-18T20:32:00.669Z</time>
      </trkpt>
      <trkpt lat="41.00034" lon="37.87172">
        <ele>17.727539</ele>
        <time>2021-08-18T20:32:26.567Z</time>
      </trkpt>
      <trkpt lat="41.00049" lon="37.87166">
        <ele>17.669456</ele>
        <time>2021-08-18T20:32:30.416Z</time>
      </trkpt>
      <trkpt lat="41.0008" lon="37.87162">
        <ele>17.555757</ele>
        <time>2021-08-18T20:32:38.995Z</time>
      </trkpt>
      <trkpt lat="41.00122" lon="37.87157">
        <ele>17.401649</ele>
        <time>2021-08-18T20:32:51.181Z</time>
      </trkpt>
      <trkpt lat="41.00171" lon="37.87181">
        <ele>17.211647</ele>
        <time>2021-08-18T20:33:08.264Z</time>
      </trkpt>
      <trkpt lat="41.00186" lon="37.87183">
        <ele>17.153815</ele>
        <time>2021-08-18T20:33:13.904Z</time>
      </trkpt>
      <trkpt lat="41.00202" lon="37.87185">
        <ele>17.183913</ele>
        <time>2021-08-18T20:33:19.318Z</time>
      </trkpt>
      <trkpt lat="41.00212" lon="37.87181">
        <ele>17.470969</ele>
        <time>2021-08-18T20:33:24.150Z</time>
      </trkpt>
      <trkpt lat="41.00231" lon="37.87161">
        <ele>18.121819</ele>
        <time>2021-08-18T20:33:34.033Z</time>
      </trkpt>
      <trkpt lat="41.00284" lon="37.87161">
        <ele>19.515095</ele>
        <time>2021-08-18T20:34:01.268Z</time>
      </trkpt>
      <trkpt lat="41.00305" lon="37.87152">
        <ele>20.100425</ele>
        <time>2021-08-18T20:34:12.541Z</time>
      </trkpt>
      <trkpt lat="41.00377" lon="37.87085">
        <ele>22.235554</ele>
        <time>2021-08-18T20:34:57.022Z</time>
      </trkpt>
      <trkpt lat="41.00379" lon="37.87047">
        <ele>22.685238</ele>
        <time>2021-08-18T20:35:11.102Z</time>
      </trkpt>
      <trkpt lat="41.00454" lon="37.87022">
        <ele>23.892163</ele>
        <time>2021-08-18T20:35:40.415Z</time>
      </trkpt>
      <trkpt lat="41.00515" lon="37.87002">
        <ele>24.809628</ele>
        <time>2021-08-18T20:36:03.736Z</time>
      </trkpt>
      <trkpt lat="41.00576" lon="37.8698">
        <ele>25.407068</ele>
        <time>2021-08-18T20:36:21.932Z</time>
      </trkpt>
      <trkpt lat="41.0064" lon="37.86959">
        <ele>26.025924</ele>
        <time>2021-08-18T20:36:44.925Z</time>
      </trkpt>
      <trkpt lat="41.00809" lon="37.86905">
        <ele>29.903311</ele>
        <time>2021-08-18T20:38:04.931Z</time>
      </trkpt>
      <trkpt lat="41.00892" lon="37.86878">
        <ele>31.770905</ele>
        <time>2021-08-18T20:38:45.392Z</time>
      </trkpt>
      <trkpt lat="41.00945" lon="37.86858">
        <ele>32.676292</ele>
        <time>2021-08-18T20:39:09.050Z</time>
      </trkpt>
      <trkpt lat="41.00978" lon="37.86844">
        <ele>33.253545</ele>
        <time>2021-08-18T20:39:22.473Z</time>
      </trkpt>
      <trkpt lat="41.01008" lon="37.8683">
        <ele>33.784843</ele>
        <time>2021-08-18T20:39:33.917Z</time>
      </trkpt>
      <trkpt lat="41.01053" lon="37.86805">
        <ele>33.945835</ele>
        <time>2021-08-18T20:39:49.220Z</time>
      </trkpt>
      <trkpt lat="41.011" lon="37.86775">
        <ele>33.662469</ele>
        <time>2021-08-18T20:40:04.476Z</time>
      </trkpt>
      <trkpt lat="41.01114" lon="37.86766">
        <ele>33.580326</ele>
        <time>2021-08-18T20:40:08.366Z</time>
      </trkpt>
      <trkpt lat="41.01154" lon="37.86736">
        <ele>33.331344</ele>
        <time>2021-08-18T20:40:20.813Z</time>
      </trkpt>
      <trkpt lat="41.01259" lon="37.8663">
        <ele>32.312023</ele>
        <time>2021-08-18T20:40:57.735Z</time>
      </trkpt>
      <trkpt lat="41.01278" lon="37.86606">
        <ele>32.086409</ele>
        <time>2021-08-18T20:41:05.266Z</time>
      </trkpt>
      <trkpt lat="41.01346" lon="37.86518">
        <ele>31.163564</ele>
        <time>2021-08-18T20:41:30.787Z</time>
      </trkpt>
      <trkpt lat="41.01363" lon="37.86496">
        <ele>30.900448</ele>
        <time>2021-08-18T20:41:36.653Z</time>
      </trkpt>
      <trkpt lat="41.01396" lon="37.86439">
        <ele>30.291759</ele>
        <time>2021-08-18T20:41:51.281Z</time>
      </trkpt>
      <trkpt lat="41.01399" lon="37.86437">
        <ele>30.253604</ele>
        <time>2021-08-18T20:41:52.065Z</time>
      </trkpt>
      <trkpt lat="41.01402" lon="37.86435">
        <ele>30.215652</ele>
        <time>2021-08-18T20:41:52.859Z</time>
      </trkpt>
      <trkpt lat="41.01404" lon="37.86432">
        <ele>30.177662</ele>
        <time>2021-08-18T20:41:53.744Z</time>
      </trkpt>
      <trkpt lat="41.01406" lon="37.86428">
        <ele>30.140263</ele>
        <time>2021-08-18T20:41:54.699Z</time>
      </trkpt>
      <trkpt lat="41.01406" lon="37.86423">
        <ele>30.102338</ele>
        <time>2021-08-18T20:41:55.601Z</time>
      </trkpt>
      <trkpt lat="41.01437" lon="37.86353">
        <ele>29.511685</ele>
        <time>2021-08-18T20:42:11.642Z</time>
      </trkpt>
      <trkpt lat="41.01499" lon="37.86125">
        <ele>28.812997</ele>
        <time>2021-08-18T20:43:07.065Z</time>
      </trkpt>
      <trkpt lat="41.0166" lon="37.85402">
        <ele>24.848211</ele>
        <time>2021-08-18T20:45:52.345Z</time>
      </trkpt>
      <trkpt lat="41.01717" lon="37.85012">
        <ele>13.490994</ele>
        <time>2021-08-18T20:46:57.596Z</time>
      </trkpt>
      <trkpt lat="41.0173" lon="37.84911">
        <ele>10.809758</ele>
        <time>2021-08-18T20:47:14.476Z</time>
      </trkpt>
      <trkpt lat="41.01743" lon="37.84845">
        <ele>9.157691</ele>
        <time>2021-08-18T20:47:26.493Z</time>
      </trkpt>
      <trkpt lat="41.01745" lon="37.84835">
        <ele>8.883074</ele>
        <time>2021-08-18T20:47:28.560Z</time>
      </trkpt>
      <trkpt lat="41.01757" lon="37.84832">
        <ele>8.494909</ele>
        <time>2021-08-18T20:47:31.396Z</time>
      </trkpt>
      <trkpt lat="41.01763" lon="37.84835">
        <ele>8.278662</ele>
        <time>2021-08-18T20:47:32.976Z</time>
      </trkpt>
      <trkpt lat="41.01756" lon="37.8482">
        <ele>7.847015</ele>
        <time>2021-08-18T20:47:36.306Z</time>
      </trkpt>
      <trkpt lat="41.01753" lon="37.84788">
        <ele>7.042913</ele>
        <time>2021-08-18T20:47:42.490Z</time>
      </trkpt>
      <trkpt lat="41.01768" lon="37.84638">
        <ele>6.10355</ele>
        <time>2021-08-18T20:48:15.510Z</time>
      </trkpt>
      <trkpt lat="41.01769" lon="37.84578">
        <ele>5.741883</ele>
        <time>2021-08-18T20:48:29.474Z</time>
      </trkpt>
      <trkpt lat="41.01781" lon="37.84473">
        <ele>5.627567</ele>
        <time>2021-08-18T20:48:54.312Z</time>
      </trkpt>
      <trkpt lat="41.0179" lon="37.84388">
        <ele>5.695859</ele>
        <time>2021-08-18T20:49:14.947Z</time>
      </trkpt>
      <trkpt lat="41.01809" lon="37.8423">
        <ele>6.111836</ele>
        <time>2021-08-18T20:49:54.291Z</time>
      </trkpt>
      <trkpt lat="41.01819" lon="37.84136">
        <ele>6.513326</ele>
        <time>2021-08-18T20:50:19.933Z</time>
      </trkpt>
      <trkpt lat="41.01805" lon="37.84132">
        <ele>6.594893</ele>
        <time>2021-08-18T20:50:25.145Z</time>
      </trkpt>
      <trkpt lat="41.0179" lon="37.84129">
        <ele>6.680041</ele>
        <time>2021-08-18T20:50:30.426Z</time>
      </trkpt>
      <trkpt lat="41.018" lon="37.84046">
        <ele>6.945287</ele>
        <time>2021-08-18T20:50:52.965Z</time>
      </trkpt>
      <trkpt lat="41.01807" lon="37.84001">
        <ele>7.077573</ele>
        <time>2021-08-18T20:51:05.281Z</time>
      </trkpt>
      <trkpt lat="41.01815" lon="37.83964">
        <ele>7.190213</ele>
        <time>2021-08-18T20:51:15.810Z</time>
      </trkpt>
      <trkpt lat="41.01821" lon="37.83923">
        <ele>7.309176</ele>
        <time>2021-08-18T20:51:26.982Z</time>
      </trkpt>
      <trkpt lat="41.01826" lon="37.83881">
        <ele>7.431701</ele>
        <time>2021-08-18T20:51:37.641Z</time>
      </trkpt>
      <trkpt lat="41.01829" lon="37.83851">
        <ele>7.350603</ele>
        <time>2021-08-18T20:51:44.819Z</time>
      </trkpt>
      <trkpt lat="41.01824" lon="37.83817">
        <ele>7.221128</ele>
        <time>2021-08-18T20:51:52.561Z</time>
      </trkpt>
      <trkpt lat="41.01824" lon="37.83777">
        <ele>7.069838</ele>
        <time>2021-08-18T20:52:01.305Z</time>
      </trkpt>
      <trkpt lat="41.01824" lon="37.83755">
        <ele>6.98604</ele>
        <time>2021-08-18T20:52:06.287Z</time>
      </trkpt>
      <trkpt lat="41.01829" lon="37.83714">
        <ele>6.829773</ele>
        <time>2021-08-18T20:52:15.433Z</time>
      </trkpt>
      <trkpt lat="41.01852" lon="37.83707">
        <ele>6.708703</ele>
        <time>2021-08-18T20:52:22.383Z</time>
      </trkpt>
      <trkpt lat="41.01877" lon="37.83702">
        <ele>6.583461</ele>
        <time>2021-08-18T20:52:29.618Z</time>
      </trkpt>
      <trkpt lat="41.01916" lon="37.83433">
        <ele>5.843601</ele>
        <time>2021-08-18T20:53:30.235Z</time>
      </trkpt>
      <trkpt lat="41.01934" lon="37.83309">
        <ele>5.624095</ele>
        <time>2021-08-18T20:54:01.876Z</time>
      </trkpt>
      <trkpt lat="41.01965" lon="37.83126">
        <ele>4.852273</ele>
        <time>2021-08-18T20:54:40.864Z</time>
      </trkpt>
      <trkpt lat="41.01978" lon="37.83033">
        <ele>4.272244</ele>
        <time>2021-08-18T20:54:59.982Z</time>
      </trkpt>
      <trkpt lat="41.01979" lon="37.8302">
        <ele>4.190446</ele>
        <time>2021-08-18T20:55:02.653Z</time>
      </trkpt>
      <trkpt lat="41.02022" lon="37.82719">
        <ele>3.544131</ele>
        <time>2021-08-18T20:56:10.958Z</time>
      </trkpt>
      <trkpt lat="41.0208" lon="37.82392">
        <ele>4.935385</ele>
        <time>2021-08-18T20:57:40.159Z</time>
      </trkpt>
      <trkpt lat="41.02121" lon="37.82164">
        <ele>5.918271</ele>
        <time>2021-08-18T20:58:40.702Z</time>
      </trkpt>
      <trkpt lat="41.0215" lon="37.81961">
        <ele>6.499471</ele>
        <time>2021-08-18T20:59:32.983Z</time>
      </trkpt>
      <trkpt lat="41.02157" lon="37.81904">
        <ele>6.608669</ele>
        <time>2021-08-18T20:59:47.159Z</time>
      </trkpt>
      <trkpt lat="41.02182" lon="37.8184">
        <ele>6.745263</ele>
        <time>2021-08-18T21:00:05.361Z</time>
      </trkpt>
      <trkpt lat="41.02223" lon="37.81727">
        <ele>6.772942</ele>
        <time>2021-08-18T21:00:35.988Z</time>
      </trkpt>
      <trkpt lat="41.02338" lon="37.81172">
        <ele>6.695121</ele>
        <time>2021-08-18T21:02:57.408Z</time>
      </trkpt>
      <trkpt lat="41.02359" lon="37.81096">
        <ele>6.481147</ele>
        <time>2021-08-18T21:03:16.191Z</time>
      </trkpt>
      <trkpt lat="41.02385" lon="37.81022">
        <ele>6.188781</ele>
        <time>2021-08-18T21:03:34.688Z</time>
      </trkpt>
      <trkpt lat="41.02379" lon="37.80996">
        <ele>6.094796</ele>
        <time>2021-08-18T21:03:40.595Z</time>
      </trkpt>
      <trkpt lat="41.02343" lon="37.80953">
        <ele>5.865347</ele>
        <time>2021-08-18T21:03:54.881Z</time>
      </trkpt>
      <trkpt lat="41.02312" lon="37.80912">
        <ele>5.621775</ele>
        <time>2021-08-18T21:04:07.734Z</time>
      </trkpt>
      <trkpt lat="41.02317" lon="37.80899">
        <ele>5.558831</ele>
        <time>2021-08-18T21:04:10.780Z</time>
      </trkpt>
      <trkpt lat="41.02376" lon="37.8074">
        <ele>4.790694</ele>
        <time>2021-08-18T21:04:48.855Z</time>
      </trkpt>
      <trkpt lat="41.02392" lon="37.80697">
        <ele>4.712745</ele>
        <time>2021-08-18T21:04:59.490Z</time>
      </trkpt>
      <trkpt lat="41.02401" lon="37.80671">
        <ele>4.665486</ele>
        <time>2021-08-18T21:05:06.033Z</time>
      </trkpt>
      <trkpt lat="41.02437" lon="37.80622">
        <ele>4.553987</ele>
        <time>2021-08-18T21:05:21.516Z</time>
      </trkpt>
      <trkpt lat="41.02459" lon="37.80592">
        <ele>4.485028</ele>
        <time>2021-08-18T21:05:31.248Z</time>
      </trkpt>
      <trkpt lat="41.02489" lon="37.80552">
        <ele>4.406496</ele>
        <time>2021-08-18T21:05:44.202Z</time>
      </trkpt>
      <trkpt lat="41.02559" lon="37.80457">
        <ele>4.50315</ele>
        <time>2021-08-18T21:06:14.625Z</time>
      </trkpt>
      <trkpt lat="41.02595" lon="37.80421">
        <ele>4.54636</ele>
        <time>2021-08-18T21:06:29.005Z</time>
      </trkpt>
      <trkpt lat="41.02646" lon="37.80372">
        <ele>5.02652</ele>
        <time>2021-08-18T21:06:50.001Z</time>
      </trkpt>
      <trkpt lat="41.02816" lon="37.80255">
        <ele>8.221012</ele>
        <time>2021-08-18T21:08:07.321Z</time>
      </trkpt>
      <trkpt lat="41.03043" lon="37.80177">
        <ele>14.30768</ele>
        <time>2021-08-18T21:09:59.460Z</time>
      </trkpt>
      <trkpt lat="41.03102" lon="37.80167">
        <ele>15.859095</ele>
        <time>2021-08-18T21:10:25.931Z</time>
      </trkpt>
      <trkpt lat="41.03177" lon="37.80173">
        <ele>17.243445</ele>
        <time>2021-08-18T21:10:56.972Z</time>
      </trkpt>
      <trkpt lat="41.03364" lon="37.80207">
        <ele>20.01688</ele>
        <time>2021-08-18T21:12:09.614Z</time>
      </trkpt>
      <trkpt lat="41.03431" lon="37.80205">
        <ele>20.930624</ele>
        <time>2021-08-18T21:12:36.366Z</time>
      </trkpt>
      <trkpt lat="41.03528" lon="37.80179">
        <ele>22.250293</ele>
        <time>2021-08-18T21:13:13.585Z</time>
      </trkpt>
      <trkpt lat="41.03613" lon="37.80137">
        <ele>23.446558</ele>
        <time>2021-08-18T21:13:48.940Z</time>
      </trkpt>
      <trkpt lat="41.03654" lon="37.80104">
        <ele>24.057036</ele>
        <time>2021-08-18T21:14:07.545Z</time>
      </trkpt>
      <trkpt lat="41.03794" lon="37.79957">
        <ele>25.850662</ele>
        <time>2021-08-18T21:15:14.950Z</time>
      </trkpt>
      <trkpt lat="41.03882" lon="37.79887">
        <ele>25.427214</ele>
        <time>2021-08-18T21:15:45.891Z</time>
      </trkpt>
      <trkpt lat="41.0408" lon="37.79773">
        <ele>23.319003</ele>
        <time>2021-08-18T21:16:42.119Z</time>
      </trkpt>
      <trkpt lat="41.04166" lon="37.79711">
        <ele>22.468039</ele>
        <time>2021-08-18T21:17:08.646Z</time>
      </trkpt>
      <trkpt lat="41.04241" lon="37.79635">
        <ele>21.848578</ele>
        <time>2021-08-18T21:17:35.774Z</time>
      </trkpt>
      <trkpt lat="41.049" lon="37.7874">
        <ele>20.76913</ele>
        <time>2021-08-18T21:22:20.835Z</time>
      </trkpt>
      <trkpt lat="41.04934" lon="37.78686">
        <ele>21.624989</ele>
        <time>2021-08-18T21:22:45.662Z</time>
      </trkpt>
      <trkpt lat="41.04953" lon="37.78661">
        <ele>22.053584</ele>
        <time>2021-08-18T21:22:57.438Z</time>
      </trkpt>
      <trkpt lat="41.05021" lon="37.78564">
        <ele>23.158441</ele>
        <time>2021-08-18T21:23:38.363Z</time>
      </trkpt>
      <trkpt lat="41.05042" lon="37.78534">
        <ele>22.931386</ele>
        <time>2021-08-18T21:23:49.533Z</time>
      </trkpt>
      <trkpt lat="41.05111" lon="37.78454">
        <ele>22.26918</ele>
        <time>2021-08-18T21:24:15.239Z</time>
      </trkpt>
      <trkpt lat="41.05194" lon="37.78383">
        <ele>20.078357</ele>
        <time>2021-08-18T21:24:37.478Z</time>
      </trkpt>
      <trkpt lat="41.05322" lon="37.78291">
        <ele>15.985707</ele>
        <time>2021-08-18T21:25:10.635Z</time>
      </trkpt>
      <trkpt lat="41.05741" lon="37.77982">
        <ele>7.382307</ele>
        <time>2021-08-18T21:27:11.158Z</time>
      </trkpt>
      <trkpt lat="41.05748" lon="37.77976">
        <ele>7.25519</ele>
        <time>2021-08-18T21:27:13.300Z</time>
      </trkpt>
      <trkpt lat="41.05787" lon="37.77947">
        <ele>6.767723</ele>
        <time>2021-08-18T21:27:25.313Z</time>
      </trkpt>
      <trkpt lat="41.05953" lon="37.7784">
        <ele>5.813383</ele>
        <time>2021-08-18T21:28:18.748Z</time>
      </trkpt>
      <trkpt lat="41.06357" lon="37.77536">
        <ele>5.313571</ele>
        <time>2021-08-18T21:30:40.545Z</time>
      </trkpt>
      <trkpt lat="41.06364" lon="37.77531">
        <ele>5.311874</ele>
        <time>2021-08-18T21:30:43.442Z</time>
      </trkpt>
      <trkpt lat="41.0649" lon="37.77435">
        <ele>5.286164</ele>
        <time>2021-08-18T21:31:29.989Z</time>
      </trkpt>
      <trkpt lat="41.06551" lon="37.77404">
        <ele>5.275367</ele>
        <time>2021-08-18T21:31:49.279Z</time>
      </trkpt>
      <trkpt lat="41.06618" lon="37.77387">
        <ele>5.196396</ele>
        <time>2021-08-18T21:32:09.468Z</time>
      </trkpt>
      <trkpt lat="41.06696" lon="37.77382">
        <ele>5.09171</ele>
        <time>2021-08-18T21:32:33.104Z</time>
      </trkpt>
      <trkpt lat="41.06765" lon="37.77377">
        <ele>5.06769</ele>
        <time>2021-08-18T21:32:54.757Z</time>
      </trkpt>
      <trkpt lat="41.06858" lon="37.77354">
        <ele>5.202691</ele>
        <time>2021-08-18T21:33:25.075Z</time>
      </trkpt>
      <trkpt lat="41.06904" lon="37.77331">
        <ele>5.273685</ele>
        <time>2021-08-18T21:33:41.173Z</time>
      </trkpt>
      <trkpt lat="41.07009" lon="37.77262">
        <ele>5.412354</ele>
        <time>2021-08-18T21:34:17.844Z</time>
      </trkpt>
      <trkpt lat="41.07063" lon="37.77236">
        <ele>5.480558</ele>
        <time>2021-08-18T21:34:36.287Z</time>
      </trkpt>
      <trkpt lat="41.07133" lon="37.77217">
        <ele>5.810962</ele>
        <time>2021-08-18T21:34:59.763Z</time>
      </trkpt>
      <trkpt lat="41.07207" lon="37.7721">
        <ele>6.223782</ele>
        <time>2021-08-18T21:35:25.376Z</time>
      </trkpt>
      <trkpt lat="41.07255" lon="37.77214">
        <ele>6.491348</ele>
        <time>2021-08-18T21:35:42.337Z</time>
      </trkpt>
      <trkpt lat="41.07413" lon="37.7726">
        <ele>7.69194</ele>
        <time>2021-08-18T21:36:39.784Z</time>
      </trkpt>
      <trkpt lat="41.07464" lon="37.7727">
        <ele>8.088689</ele>
        <time>2021-08-18T21:36:57.931Z</time>
      </trkpt>
      <trkpt lat="41.07516" lon="37.77269">
        <ele>8.489626</ele>
        <time>2021-08-18T21:37:15.919Z</time>
      </trkpt>
      <trkpt lat="41.07528" lon="37.77268">
        <ele>8.582991</ele>
        <time>2021-08-18T21:37:20.476Z</time>
      </trkpt>
      <trkpt lat="41.0756" lon="37.77265">
        <ele>8.831889</ele>
        <time>2021-08-18T21:37:31.733Z</time>
      </trkpt>
      <trkpt lat="41.07705" lon="37.77247">
        <ele>10.287294</ele>
        <time>2021-08-18T21:38:23.873Z</time>
      </trkpt>
      <trkpt lat="41.07743" lon="37.77259">
        <ele>10.723945</ele>
        <time>2021-08-18T21:38:39.452Z</time>
      </trkpt>
      <trkpt lat="41.07806" lon="37.77312">
        <ele>11.416652</ele>
        <time>2021-08-18T21:39:08.756Z</time>
      </trkpt>
      <trkpt lat="41.07831" lon="37.77324">
        <ele>11.565723</ele>
        <time>2021-08-18T21:39:18.765Z</time>
      </trkpt>
      <trkpt lat="41.07855" lon="37.77329">
        <ele>11.701198</ele>
        <time>2021-08-18T21:39:27.575Z</time>
      </trkpt>
      <trkpt lat="41.0787" lon="37.7733">
        <ele>11.784946</ele>
        <time>2021-08-18T21:39:33.207Z</time>
      </trkpt>
      <trkpt lat="41.07934" lon="37.77327">
        <ele>12.150993</ele>
        <time>2021-08-18T21:39:53.975Z</time>
      </trkpt>
      <trkpt lat="41.07959" lon="37.77334">
        <ele>12.227543</ele>
        <time>2021-08-18T21:40:01.554Z</time>
      </trkpt>
      <trkpt lat="41.08005" lon="37.77366">
        <ele>11.388531</ele>
        <time>2021-08-18T21:40:15.805Z</time>
      </trkpt>
      <trkpt lat="41.0801" lon="37.77373">
        <ele>11.278763</ele>
        <time>2021-08-18T21:40:17.297Z</time>
      </trkpt>
      <trkpt lat="41.08051" lon="37.77429">
        <ele>10.307696</ele>
        <time>2021-08-18T21:40:32.283Z</time>
      </trkpt>
      <trkpt lat="41.08086" lon="37.77461">
        <ele>9.6203</ele>
        <time>2021-08-18T21:40:42.473Z</time>
      </trkpt>
      <trkpt lat="41.08089" lon="37.77462">
        <ele>9.564197</ele>
        <time>2021-08-18T21:40:43.156Z</time>
      </trkpt>
      <trkpt lat="41.08127" lon="37.77477">
        <ele>9.075629</ele>
        <time>2021-08-18T21:40:52.437Z</time>
      </trkpt>
      <trkpt lat="41.08153" lon="37.77485">
        <ele>8.792832</ele>
        <time>2021-08-18T21:40:59.109Z</time>
      </trkpt>
      <trkpt lat="41.08168" lon="37.7749">
        <ele>8.621163</ele>
        <time>2021-08-18T21:41:03.070Z</time>
      </trkpt>
      <trkpt lat="41.08217" lon="37.77504">
        <ele>8.089324</ele>
        <time>2021-08-18T21:41:16.432Z</time>
      </trkpt>
      <trkpt lat="41.08261" lon="37.7752">
        <ele>7.605381</ele>
        <time>2021-08-18T21:41:29.496Z</time>
      </trkpt>
      <trkpt lat="41.0827" lon="37.77523">
        <ele>7.508236</ele>
        <time>2021-08-18T21:41:32.929Z</time>
      </trkpt>
      <trkpt lat="41.08324" lon="37.77548">
        <ele>8.303456</ele>
        <time>2021-08-18T21:41:53.213Z</time>
      </trkpt>
      <trkpt lat="41.08394" lon="37.77609">
        <ele>9.734117</ele>
        <time>2021-08-18T21:42:28.352Z</time>
      </trkpt>
      <trkpt lat="41.08438" lon="37.77652">
        <ele>10.750488</ele>
        <time>2021-08-18T21:42:54.150Z</time>
      </trkpt>
      <trkpt lat="41.08487" lon="37.77699">
        <ele>12.239103</ele>
        <time>2021-08-18T21:43:21.722Z</time>
      </trkpt>
      <trkpt lat="41.08504" lon="37.77716">
        <ele>12.775409</ele>
        <time>2021-08-18T21:43:32.343Z</time>
      </trkpt>
      <trkpt lat="41.08564" lon="37.77766">
        <ele>14.525514</ele>
        <time>2021-08-18T21:44:04.090Z</time>
      </trkpt>
      <trkpt lat="41.08641" lon="37.77814">
        <ele>15.497231</ele>
        <time>2021-08-18T21:44:39.002Z</time>
      </trkpt>
      <trkpt lat="41.08835" lon="37.7792">
        <ele>16.00248</ele>
        <time>2021-08-18T21:45:45.312Z</time>
      </trkpt>
      <trkpt lat="41.08898" lon="37.7796">
        <ele>15.751918</ele>
        <time>2021-08-18T21:46:04.412Z</time>
      </trkpt>
      <trkpt lat="41.08961" lon="37.77991">
        <ele>15.123857</ele>
        <time>2021-08-18T21:46:22.525Z</time>
      </trkpt>
      <trkpt lat="41.09181" lon="37.78072">
        <ele>12.659684</ele>
        <time>2021-08-18T21:47:23.230Z</time>
      </trkpt>
      <trkpt lat="41.09241" lon="37.78072">
        <ele>12.007802</ele>
        <time>2021-08-18T21:47:39.403Z</time>
      </trkpt>
      <trkpt lat="41.09555" lon="37.77975">
        <ele>9.911158</ele>
        <time>2021-08-18T21:49:08.673Z</time>
      </trkpt>
      <trkpt lat="41.0958" lon="37.77972">
        <ele>9.819336</ele>
        <time>2021-08-18T21:49:16.761Z</time>
      </trkpt>
      <trkpt lat="41.09612" lon="37.77979">
        <ele>9.724903</ele>
        <time>2021-08-18T21:49:27.629Z</time>
      </trkpt>
      <trkpt lat="41.09676" lon="37.78018">
        <ele>10.16238</ele>
        <time>2021-08-18T21:49:52.189Z</time>
      </trkpt>
      <trkpt lat="41.09705" lon="37.78043">
        <ele>10.375968</ele>
        <time>2021-08-18T21:50:04.399Z</time>
      </trkpt>
      <trkpt lat="41.09727" lon="37.78076">
        <ele>10.585092</ele>
        <time>2021-08-18T21:50:16.321Z</time>
      </trkpt>
      <trkpt lat="41.09757" lon="37.78143">
        <ele>10.88776</ele>
        <time>2021-08-18T21:50:36.468Z</time>
      </trkpt>
      <trkpt lat="41.0979" lon="37.78201">
        <ele>11.065785</ele>
        <time>2021-08-18T21:50:54.871Z</time>
      </trkpt>
      <trkpt lat="41.09864" lon="37.78306">
        <ele>11.415286</ele>
        <time>2021-08-18T21:51:29.780Z</time>
      </trkpt>
      <trkpt lat="41.099" lon="37.78333">
        <ele>11.517227</ele>
        <time>2021-08-18T21:51:43.013Z</time>
      </trkpt>
      <trkpt lat="41.09938" lon="37.7834">
        <ele>11.614018</ele>
        <time>2021-08-18T21:51:55.674Z</time>
      </trkpt>
      <trkpt lat="41.10024" lon="37.78333">
        <ele>11.82717</ele>
        <time>2021-08-18T21:52:23.457Z</time>
      </trkpt>
      <trkpt lat="41.10142" lon="37.78352">
        <ele>12.170384</ele>
        <time>2021-08-18T21:53:02.849Z</time>
      </trkpt>
      <trkpt lat="41.10169" lon="37.78368">
        <ele>12.256624</ele>
        <time>2021-08-18T21:53:12.515Z</time>
      </trkpt>
      <trkpt lat="41.10215" lon="37.78411">
        <ele>12.426922</ele>
        <time>2021-08-18T21:53:30.513Z</time>
      </trkpt>
      <trkpt lat="41.10257" lon="37.78433">
        <ele>12.581741</ele>
        <time>2021-08-18T21:53:45.232Z</time>
      </trkpt>
      <trkpt lat="41.10359" lon="37.78435">
        <ele>12.933119</ele>
        <time>2021-08-18T21:54:19.555Z</time>
      </trkpt>
      <trkpt lat="41.10415" lon="37.78467">
        <ele>13.282696</ele>
        <time>2021-08-18T21:54:39.570Z</time>
      </trkpt>
      <trkpt lat="41.10491" lon="37.78496">
        <ele>13.812695</ele>
        <time>2021-08-18T21:55:05.783Z</time>
      </trkpt>
      <trkpt lat="41.10514" lon="37.78509">
        <ele>13.979172</ele>
        <time>2021-08-18T21:55:14.323Z</time>
      </trkpt>
      <trkpt lat="41.10563" lon="37.78568">
        <ele>14.811637</ele>
        <time>2021-08-18T21:55:40.800Z</time>
      </trkpt>
      <trkpt lat="41.10601" lon="37.78593">
        <ele>15.600201</ele>
        <time>2021-08-18T21:55:57.726Z</time>
      </trkpt>
      <trkpt lat="41.10606" lon="37.78594">
        <ele>15.69289</ele>
        <time>2021-08-18T21:56:00.599Z</time>
      </trkpt>
      <trkpt lat="41.10641" lon="37.78602">
        <ele>16.356198</ele>
        <time>2021-08-18T21:56:15.194Z</time>
      </trkpt>
      <trkpt lat="41.10653" lon="37.78604">
        <ele>16.581598</ele>
        <time>2021-08-18T21:56:20.435Z</time>
      </trkpt>
      <trkpt lat="41.10679" lon="37.78608">
        <ele>17.064551</ele>
        <time>2021-08-18T21:56:31.562Z</time>
      </trkpt>
      <trkpt lat="41.10938" lon="37.78638">
        <ele>22.381786</ele>
        <time>2021-08-18T21:58:23.443Z</time>
      </trkpt>
      <trkpt lat="41.10986" lon="37.78636">
        <ele>23.310095</ele>
        <time>2021-08-18T21:58:43.706Z</time>
      </trkpt>
      <trkpt lat="41.11059" lon="37.7862">
        <ele>24.731261</ele>
        <time>2021-08-18T21:59:14.418Z</time>
      </trkpt>
      <trkpt lat="41.11088" lon="37.78622">
        <ele>25.146865</ele>
        <time>2021-08-18T21:59:26.073Z</time>
      </trkpt>
      <trkpt lat="41.11114" lon="37.78632">
        <ele>25.520507</ele>
        <time>2021-08-18T21:59:36.916Z</time>
      </trkpt>
      <trkpt lat="41.11163" lon="37.78669">
        <ele>26.311739</ele>
        <time>2021-08-18T21:59:58.984Z</time>
      </trkpt>
      <trkpt lat="41.11191" lon="37.78679">
        <ele>26.701343</ele>
        <time>2021-08-18T22:00:09.392Z</time>
      </trkpt>
      <trkpt lat="41.11283" lon="37.78672">
        <ele>28.509938</ele>
        <time>2021-08-18T22:00:43.997Z</time>
      </trkpt>
      <trkpt lat="41.11326" lon="37.78675">
        <ele>29.561317</ele>
        <time>2021-08-18T22:01:01.554Z</time>
      </trkpt>
      <trkpt lat="41.11384" lon="37.78666">
        <ele>30.984366</ele>
        <time>2021-08-18T22:01:27.095Z</time>
      </trkpt>
      <trkpt lat="41.11437" lon="37.78703">
        <ele>34.646497</ele>
        <time>2021-08-18T22:01:58.064Z</time>
      </trkpt>
      <trkpt lat="41.11462" lon="37.78713">
        <ele>37.137549</ele>
        <time>2021-08-18T22:02:20.102Z</time>
      </trkpt>
      <trkpt lat="41.1149" lon="37.78701">
        <ele>39.885102</ele>
        <time>2021-08-18T22:02:45.995Z</time>
      </trkpt>
      <trkpt lat="41.11545" lon="37.78645">
        <ele>46.486333</ele>
        <time>2021-08-18T22:03:53.482Z</time>
      </trkpt>
      <trkpt lat="41.11553" lon="37.78637">
        <ele>47.39508</ele>
        <time>2021-08-18T22:04:03.621Z</time>
      </trkpt>
      <trkpt lat="41.11563" lon="37.78617">
        <ele>49.176664</ele>
        <time>2021-08-18T22:04:22.166Z</time>
      </trkpt>
      <trkpt lat="41.11563" lon="37.7859">
        <ele>51.187586</ele>
        <time>2021-08-18T22:04:43.545Z</time>
      </trkpt>
      <trkpt lat="41.11559" lon="37.78557">
        <ele>53.759097</ele>
        <time>2021-08-18T22:05:09.185Z</time>
      </trkpt>
      <trkpt lat="41.11428" lon="37.78293">
        <ele>71.653448</ele>
        <time>2021-08-18T22:08:24.392Z</time>
      </trkpt>
      <trkpt lat="41.11408" lon="37.78151">
        <ele>72.85651</ele>
        <time>2021-08-18T22:08:51.422Z</time>
      </trkpt>
      <trkpt lat="41.11395" lon="37.77968">
        <ele>65.664335</ele>
        <time>2021-08-18T22:09:19.549Z</time>
      </trkpt>
      <trkpt lat="41.11378" lon="37.77898">
        <ele>63.161072</ele>
        <time>2021-08-18T22:09:30.880Z</time>
      </trkpt>
      <trkpt lat="41.1136" lon="37.77849">
        <ele>61.299856</ele>
        <time>2021-08-18T22:09:39.712Z</time>
      </trkpt>
      <trkpt lat="41.1133" lon="37.77795">
        <ele>59.012461</ele>
        <time>2021-08-18T22:09:50.985Z</time>
      </trkpt>
      <trkpt lat="41.11269" lon="37.77728">
        <ele>55.535391</ele>
        <time>2021-08-18T22:10:09.220Z</time>
      </trkpt>
      <trkpt lat="41.1124" lon="37.77672">
        <ele>53.400898</ele>
        <time>2021-08-18T22:10:20.462Z</time>
      </trkpt>
      <trkpt lat="41.11224" lon="37.77608">
        <ele>51.248273</ele>
        <time>2021-08-18T22:10:31.425Z</time>
      </trkpt>
      <trkpt lat="41.11215" lon="37.77554">
        <ele>49.458901</ele>
        <time>2021-08-18T22:10:40.194Z</time>
      </trkpt>
      <trkpt lat="41.11212" lon="37.77496">
        <ele>47.39707</ele>
        <time>2021-08-18T22:10:49.334Z</time>
      </trkpt>
      <trkpt lat="41.11223" lon="37.77458">
        <ele>45.934222</ele>
        <time>2021-08-18T22:10:55.864Z</time>
      </trkpt>
      <trkpt lat="41.11261" lon="37.77417">
        <ele>43.597445</ele>
        <time>2021-08-18T22:11:06.500Z</time>
      </trkpt>
      <trkpt lat="41.1127" lon="37.77392">
        <ele>42.644501</ele>
        <time>2021-08-18T22:11:10.807Z</time>
      </trkpt>
      <trkpt lat="41.11257" lon="37.77272">
        <ele>38.276562</ele>
        <time>2021-08-18T22:11:30.508Z</time>
      </trkpt>
      <trkpt lat="41.11264" lon="37.7723">
        <ele>36.722048</ele>
        <time>2021-08-18T22:11:37.533Z</time>
      </trkpt>
      <trkpt lat="41.11279" lon="37.77177">
        <ele>34.670388</ele>
        <time>2021-08-18T22:11:46.824Z</time>
      </trkpt>
      <trkpt lat="41.11281" lon="37.77158">
        <ele>33.984079</ele>
        <time>2021-08-18T22:11:49.798Z</time>
      </trkpt>
      <trkpt lat="41.1128" lon="37.77029">
        <ele>29.422161</ele>
        <time>2021-08-18T22:12:10.146Z</time>
      </trkpt>
      <trkpt lat="41.11286" lon="37.76985">
        <ele>27.896684</ele>
        <time>2021-08-18T22:12:17.086Z</time>
      </trkpt>
      <trkpt lat="41.11297" lon="37.76951">
        <ele>26.614389</ele>
        <time>2021-08-18T22:12:23.080Z</time>
      </trkpt>
      <trkpt lat="41.11319" lon="37.769">
        <ele>24.550627</ele>
        <time>2021-08-18T22:12:33.161Z</time>
      </trkpt>
      <trkpt lat="41.11363" lon="37.76815">
        <ele>22.820711</ele>
        <time>2021-08-18T22:12:51.461Z</time>
      </trkpt>
      <trkpt lat="41.11384" lon="37.76763">
        <ele>21.917081</ele>
        <time>2021-08-18T22:13:02.128Z</time>
      </trkpt>
      <trkpt lat="41.11387" lon="37.76716">
        <ele>21.191118</ele>
        <time>2021-08-18T22:13:11.604Z</time>
      </trkpt>
      <trkpt lat="41.1139" lon="37.76685">
        <ele>20.697462</ele>
        <time>2021-08-18T22:13:19.211Z</time>
      </trkpt>
      <trkpt lat="41.11392" lon="37.76668">
        <ele>20.562882</ele>
        <time>2021-08-18T22:13:22.366Z</time>
      </trkpt>
      <trkpt lat="41.11405" lon="37.76616">
        <ele>20.284763</ele>
        <time>2021-08-18T22:13:34.091Z</time>
      </trkpt>
      <trkpt lat="41.11472" lon="37.7648">
        <ele>19.47685</ele>
        <time>2021-08-18T22:14:08.092Z</time>
      </trkpt>
      <trkpt lat="41.11481" lon="37.76447">
        <ele>19.294129</ele>
        <time>2021-08-18T22:14:15.931Z</time>
      </trkpt>
      <trkpt lat="41.115" lon="37.76341">
        <ele>18.732395</ele>
        <time>2021-08-18T22:14:40.075Z</time>
      </trkpt>
      <trkpt lat="41.11508" lon="37.76296">
        <ele>18.493485</ele>
        <time>2021-08-18T22:14:50.021Z</time>
      </trkpt>
      <trkpt lat="41.11524" lon="37.76233">
        <ele>18.082598</ele>
        <time>2021-08-18T22:15:03.765Z</time>
      </trkpt>
      <trkpt lat="41.11545" lon="37.7619">
        <ele>17.425227</ele>
        <time>2021-08-18T22:15:13.586Z</time>
      </trkpt>
      <trkpt lat="41.11571" lon="37.76157">
        <ele>16.805601</ele>
        <time>2021-08-18T22:15:22.390Z</time>
      </trkpt>
      <trkpt lat="41.11604" lon="37.76126">
        <ele>16.12548</ele>
        <time>2021-08-18T22:15:31.786Z</time>
      </trkpt>
      <trkpt lat="41.11694" lon="37.76054">
        <ele>15.692368</ele>
        <time>2021-08-18T22:15:59.326Z</time>
      </trkpt>
      <trkpt lat="41.11712" lon="37.76036">
        <ele>15.96546</ele>
        <time>2021-08-18T22:16:05.736Z</time>
      </trkpt>
      <trkpt lat="41.11741" lon="37.76007">
        <ele>16.415106</ele>
        <time>2021-08-18T22:16:19.158Z</time>
      </trkpt>
      <trkpt lat="41.11766" lon="37.75964">
        <ele>16.921113</ele>
        <time>2021-08-18T22:16:37.531Z</time>
      </trkpt>
      <trkpt lat="41.11786" lon="37.75904">
        <ele>18.101445</ele>
        <time>2021-08-18T22:17:03.451Z</time>
      </trkpt>
      <trkpt lat="41.118" lon="37.75807">
        <ele>21.692591</ele>
        <time>2021-08-18T22:17:48.602Z</time>
      </trkpt>
      <trkpt lat="41.11806" lon="37.75709">
        <ele>25.244051</ele>
        <time>2021-08-18T22:18:33.494Z</time>
      </trkpt>
      <trkpt lat="41.11809" lon="37.75555">
        <ele>30.252737</ele>
        <time>2021-08-18T22:19:39.624Z</time>
      </trkpt>
      <trkpt lat="41.11823" lon="37.75395">
        <ele>35.412064</ele>
        <time>2021-08-18T22:20:42.042Z</time>
      </trkpt>
      <trkpt lat="41.11823" lon="37.75311">
        <ele>38.186841</ele>
        <time>2021-08-18T22:21:16.172Z</time>
      </trkpt>
      <trkpt lat="41.11806" lon="37.75117">
        <ele>45.536547</ele>
        <time>2021-08-18T22:22:44.088Z</time>
      </trkpt>
      <trkpt lat="41.11731" lon="37.74809">
        <ele>58.835435</ele>
        <time>2021-08-18T22:25:23.797Z</time>
      </trkpt>
      <trkpt lat="41.11705" lon="37.74608">
        <ele>63.12684</ele>
        <time>2021-08-18T22:26:37.234Z</time>
      </trkpt>
      <trkpt lat="41.11672" lon="37.74439">
        <ele>62.854259</ele>
        <time>2021-08-18T22:27:16.956Z</time>
      </trkpt>
      <trkpt lat="41.11676" lon="37.74353">
        <ele>61.216424</ele>
        <time>2021-08-18T22:27:32.295Z</time>
      </trkpt>
      <trkpt lat="41.11691" lon="37.74258">
        <ele>58.766365</ele>
        <time>2021-08-18T22:27:47.963Z</time>
      </trkpt>
      <trkpt lat="41.11685" lon="37.74182">
        <ele>55.518527</ele>
        <time>2021-08-18T22:27:59.880Z</time>
      </trkpt>
      <trkpt lat="41.11702" lon="37.74073">
        <ele>50.754336</ele>
        <time>2021-08-18T22:28:17.015Z</time>
      </trkpt>
      <trkpt lat="41.11697" lon="37.74031">
        <ele>49.202912</ele>
        <time>2021-08-18T22:28:23.679Z</time>
      </trkpt>
      <trkpt lat="41.11669" lon="37.73953">
        <ele>46.832191</ele>
        <time>2021-08-18T22:28:37.585Z</time>
      </trkpt>
      <trkpt lat="41.11621" lon="37.73905">
        <ele>44.681011</ele>
        <time>2021-08-18T22:28:51.266Z</time>
      </trkpt>
      <trkpt lat="41.11603" lon="37.7388">
        <ele>43.736666</ele>
        <time>2021-08-18T22:28:57.813Z</time>
      </trkpt>
      <trkpt lat="41.1159" lon="37.73843">
        <ele>43.113724</ele>
        <time>2021-08-18T22:29:05.972Z</time>
      </trkpt>
      <trkpt lat="41.11589" lon="37.73775">
        <ele>42.861188</ele>
        <time>2021-08-18T22:29:20.326Z</time>
      </trkpt>
      <trkpt lat="41.11583" lon="37.73744">
        <ele>42.739701</ele>
        <time>2021-08-18T22:29:27.997Z</time>
      </trkpt>
      <trkpt lat="41.1149" lon="37.73544">
        <ele>42.345818</ele>
        <time>2021-08-18T22:30:21.983Z</time>
      </trkpt>
      <trkpt lat="41.11461" lon="37.73475">
        <ele>42.37643</ele>
        <time>2021-08-18T22:30:39.783Z</time>
      </trkpt>
      <trkpt lat="41.11433" lon="37.73387">
        <ele>43.165825</ele>
        <time>2021-08-18T22:31:04.149Z</time>
      </trkpt>
      <trkpt lat="41.11385" lon="37.73147">
        <ele>47.387142</ele>
        <time>2021-08-18T22:32:28.649Z</time>
      </trkpt>
      <trkpt lat="41.11381" lon="37.73099">
        <ele>48.528411</ele>
        <time>2021-08-18T22:32:46.770Z</time>
      </trkpt>
      <trkpt lat="41.11391" lon="37.73058">
        <ele>49.560756</ele>
        <time>2021-08-18T22:33:02.983Z</time>
      </trkpt>
      <trkpt lat="41.11478" lon="37.72894">
        <ele>54.259764</ele>
        <time>2021-08-18T22:34:20.109Z</time>
      </trkpt>
      <trkpt lat="41.11502" lon="37.72838">
        <ele>55.760809</ele>
        <time>2021-08-18T22:34:43.892Z</time>
      </trkpt>
      <trkpt lat="41.11507" lon="37.72734">
        <ele>57.26637</ele>
        <time>2021-08-18T22:35:19.265Z</time>
      </trkpt>
      <trkpt lat="41.11513" lon="37.72586">
        <ele>57.818612</ele>
        <time>2021-08-18T22:35:56.620Z</time>
      </trkpt>
      <trkpt lat="41.11491" lon="37.7246">
        <ele>56.28761</ele>
        <time>2021-08-18T22:36:22.064Z</time>
      </trkpt>
      <trkpt lat="41.11487" lon="37.72405">
        <ele>55.177093</ele>
        <time>2021-08-18T22:36:32.162Z</time>
      </trkpt>
      <trkpt lat="41.11506" lon="37.72243">
        <ele>49.642104</ele>
        <time>2021-08-18T22:36:59.326Z</time>
      </trkpt>
      <trkpt lat="41.11507" lon="37.72169">
        <ele>45.614052</ele>
        <time>2021-08-18T22:37:10.569Z</time>
      </trkpt>
      <trkpt lat="41.11497" lon="37.7211">
        <ele>42.335114</ele>
        <time>2021-08-18T22:37:19.287Z</time>
      </trkpt>
      <trkpt lat="41.1148" lon="37.72068">
        <ele>39.916492</ele>
        <time>2021-08-18T22:37:26.006Z</time>
      </trkpt>
      <trkpt lat="41.11445" lon="37.72017">
        <ele>37.56505</ele>
        <time>2021-08-18T22:37:36.112Z</time>
      </trkpt>
      <trkpt lat="41.11375" lon="37.71943">
        <ele>33.475282</ele>
        <time>2021-08-18T22:37:55.906Z</time>
      </trkpt>
      <trkpt lat="41.11371" lon="37.71938">
        <ele>33.250344</ele>
        <time>2021-08-18T22:37:57.083Z</time>
      </trkpt>
      <trkpt lat="41.11353" lon="37.71916">
        <ele>32.120328</ele>
        <time>2021-08-18T22:38:04.147Z</time>
      </trkpt>
      <trkpt lat="41.11348" lon="37.7191">
        <ele>32.217731</ele>
        <time>2021-08-18T22:38:09.958Z</time>
      </trkpt>
      <trkpt lat="41.11318" lon="37.71828">
        <ele>35.064465</ele>
        <time>2021-08-18T22:38:40.750Z</time>
      </trkpt>
      <trkpt lat="41.11307" lon="37.71772">
        <ele>36.839392</ele>
        <time>2021-08-18T22:39:08.634Z</time>
      </trkpt>
      <trkpt lat="41.11305" lon="37.71763">
        <ele>37.121431</ele>
        <time>2021-08-18T22:39:17.746Z</time>
      </trkpt>
      <trkpt lat="41.11318" lon="37.71707">
        <ele>38.929033</ele>
        <time>2021-08-18T22:39:50.292Z</time>
      </trkpt>
      <trkpt lat="41.11305" lon="37.71565">
        <ele>39.517284</ele>
        <time>2021-08-18T22:40:39.354Z</time>
      </trkpt>
      <trkpt lat="41.11285" lon="37.71533">
        <ele>39.555654</ele>
        <time>2021-08-18T22:40:46.871Z</time>
      </trkpt>
      <trkpt lat="41.11283" lon="37.71413">
        <ele>37.596639</ele>
        <time>2021-08-18T22:41:07.326Z</time>
      </trkpt>
      <trkpt lat="41.11286" lon="37.71217">
        <ele>29.620088</ele>
        <time>2021-08-18T22:41:38.089Z</time>
      </trkpt>
      <trkpt lat="41.11288" lon="37.71128">
        <ele>24.993243</ele>
        <time>2021-08-18T22:41:51.203Z</time>
      </trkpt>
      <trkpt lat="41.11288" lon="37.71023">
        <ele>19.54052</ele>
        <time>2021-08-18T22:42:06.901Z</time>
      </trkpt>
      <trkpt lat="41.11289" lon="37.71003">
        <ele>18.502685</ele>
        <time>2021-08-18T22:42:09.910Z</time>
      </trkpt>
      <trkpt lat="41.1129" lon="37.70958">
        <ele>17.096943</ele>
        <time>2021-08-18T22:42:17.100Z</time>
      </trkpt>
      <trkpt lat="41.11296" lon="37.70877">
        <ele>15.674143</ele>
        <time>2021-08-18T22:42:30.880Z</time>
      </trkpt>
      <trkpt lat="41.11321" lon="37.70687">
        <ele>14.022028</ele>
        <time>2021-08-18T22:43:13.229Z</time>
      </trkpt>
      <trkpt lat="41.11326" lon="37.7065">
        <ele>14.378845</ele>
        <time>2021-08-18T22:43:25.665Z</time>
      </trkpt>
      <trkpt lat="41.1139" lon="37.70264">
        <ele>18.710486</ele>
        <time>2021-08-18T22:45:30.510Z</time>
      </trkpt>
      <trkpt lat="41.11407" lon="37.70205">
        <ele>18.395105</ele>
        <time>2021-08-18T22:45:45.227Z</time>
      </trkpt>
      <trkpt lat="41.1143" lon="37.7015">
        <ele>18.073727</ele>
        <time>2021-08-18T22:45:58.807Z</time>
      </trkpt>
      <trkpt lat="41.11442" lon="37.70128">
        <ele>17.938131</ele>
        <time>2021-08-18T22:46:04.150Z</time>
      </trkpt>
      <trkpt lat="41.11464" lon="37.70106">
        <ele>17.753095</ele>
        <time>2021-08-18T22:46:11.237Z</time>
      </trkpt>
      <trkpt lat="41.11586" lon="37.70031">
        <ele>14.56631</ele>
        <time>2021-08-18T22:46:42.575Z</time>
      </trkpt>
      <trkpt lat="41.11609" lon="37.70012">
        <ele>13.815147</ele>
        <time>2021-08-18T22:46:48.748Z</time>
      </trkpt>
      <trkpt lat="41.1161" lon="37.7001">
        <ele>13.776982</ele>
        <time>2021-08-18T22:46:49.072Z</time>
      </trkpt>
      <trkpt lat="41.11618" lon="37.69999">
        <ele>13.457184</ele>
        <time>2021-08-18T22:46:51.671Z</time>
      </trkpt>
      <trkpt lat="41.11628" lon="37.69944">
        <ele>12.627693</ele>
        <time>2021-08-18T22:47:01.447Z</time>
      </trkpt>
      <trkpt lat="41.11628" lon="37.69911">
        <ele>12.509711</ele>
        <time>2021-08-18T22:47:07.841Z</time>
      </trkpt>
      <trkpt lat="41.11631" lon="37.69851">
        <ele>12.296394</ele>
        <time>2021-08-18T22:47:19.992Z</time>
      </trkpt>
      <trkpt lat="41.11635" lon="37.69809">
        <ele>12.148832</ele>
        <time>2021-08-18T22:47:29.413Z</time>
      </trkpt>
      <trkpt lat="41.1164" lon="37.69779">
        <ele>12.041089</ele>
        <time>2021-08-18T22:47:36.677Z</time>
      </trkpt>
      <trkpt lat="41.1165" lon="37.69752">
        <ele>11.934496</ele>
        <time>2021-08-18T22:47:44.737Z</time>
      </trkpt>
      <trkpt lat="41.11653" lon="37.69744">
        <ele>11.902358</ele>
        <time>2021-08-18T22:47:47.018Z</time>
      </trkpt>
      <trkpt lat="41.11663" lon="37.69721">
        <ele>12.129459</ele>
        <time>2021-08-18T22:47:55.575Z</time>
      </trkpt>
      <trkpt lat="41.11775" lon="37.69565">
        <ele>16.637288</ele>
        <time>2021-08-18T22:49:17.262Z</time>
      </trkpt>
      <trkpt lat="41.11801" lon="37.69543">
        <ele>17.028627</ele>
        <time>2021-08-18T22:49:29.358Z</time>
      </trkpt>
      <trkpt lat="41.11812" lon="37.69537">
        <ele>17.122922</ele>
        <time>2021-08-18T22:49:35.631Z</time>
      </trkpt>
      <trkpt lat="41.11824" lon="37.69529">
        <ele>17.232656</ele>
        <time>2021-08-18T22:49:39.759Z</time>
      </trkpt>
      <trkpt lat="41.11891" lon="37.69515">
        <ele>17.755617</ele>
        <time>2021-08-18T22:50:03.536Z</time>
      </trkpt>
      <trkpt lat="41.12062" lon="37.69522">
        <ele>18.42977</ele>
        <time>2021-08-18T22:50:53.926Z</time>
      </trkpt>
      <trkpt lat="41.1211" lon="37.69511">
        <ele>18.509135</ele>
        <time>2021-08-18T22:51:10.894Z</time>
      </trkpt>
      <trkpt lat="41.1216" lon="37.69485">
        <ele>18.845368</ele>
        <time>2021-08-18T22:51:30.793Z</time>
      </trkpt>
      <trkpt lat="41.12282" lon="37.694">
        <ele>20.229118</ele>
        <time>2021-08-18T22:52:23.075Z</time>
      </trkpt>
      <trkpt lat="41.12326" lon="37.69353">
        <ele>19.997511</ele>
        <time>2021-08-18T22:52:41.916Z</time>
      </trkpt>
      <trkpt lat="41.12348" lon="37.6932">
        <ele>19.73534</ele>
        <time>2021-08-18T22:52:51.909Z</time>
      </trkpt>
      <trkpt lat="41.12461" lon="37.69139">
        <ele>17.461487</ele>
        <time>2021-08-18T22:53:36.878Z</time>
      </trkpt>
      <trkpt lat="41.12534" lon="37.69023">
        <ele>15.292566</ele>
        <time>2021-08-18T22:54:04.248Z</time>
      </trkpt>
      <trkpt lat="41.12694" lon="37.68768">
        <ele>13.001855</ele>
        <time>2021-08-18T22:55:10.098Z</time>
      </trkpt>
      <trkpt lat="41.12733" lon="37.68696">
        <ele>13.100057</ele>
        <time>2021-08-18T22:55:33.709Z</time>
      </trkpt>
      <trkpt lat="41.12771" lon="37.68622">
        <ele>14.012118</ele>
        <time>2021-08-18T22:56:00.807Z</time>
      </trkpt>
      <trkpt lat="41.12854" lon="37.68417">
        <ele>18.870526</ele>
        <time>2021-08-18T22:57:24.257Z</time>
      </trkpt>
      <trkpt lat="41.12893" lon="37.68292">
        <ele>22.51263</ele>
        <time>2021-08-18T22:58:16.311Z</time>
      </trkpt>
      <trkpt lat="41.12907" lon="37.6817">
        <ele>25.822167</ele>
        <time>2021-08-18T22:59:06.321Z</time>
      </trkpt>
      <trkpt lat="41.12906" lon="37.68129">
        <ele>26.918089</ele>
        <time>2021-08-18T22:59:22.726Z</time>
      </trkpt>
      <trkpt lat="41.12898" lon="37.68069">
        <ele>28.563318</ele>
        <time>2021-08-18T22:59:46.748Z</time>
      </trkpt>
      <trkpt lat="41.12862" lon="37.67907">
        <ele>31.76153</ele>
        <time>2021-08-18T23:00:47.761Z</time>
      </trkpt>
      <trkpt lat="41.12703" lon="37.67361">
        <ele>38.344761</ele>
        <time>2021-08-18T23:03:36.286Z</time>
      </trkpt>
      <trkpt lat="41.1267" lon="37.67311">
        <ele>38.849161</ele>
        <time>2021-08-18T23:03:56.461Z</time>
      </trkpt>
      <trkpt lat="41.12581" lon="37.67206">
        <ele>39.521532</ele>
        <time>2021-08-18T23:04:40.208Z</time>
      </trkpt>
      <trkpt lat="41.12486" lon="37.67104">
        <ele>37.927139</ele>
        <time>2021-08-18T23:05:13.355Z</time>
      </trkpt>
      <trkpt lat="41.12419" lon="37.67011">
        <ele>35.732597</ele>
        <time>2021-08-18T23:05:35.248Z</time>
      </trkpt>
      <trkpt lat="41.12356" lon="37.66927">
        <ele>33.180301</ele>
        <time>2021-08-18T23:05:55.219Z</time>
      </trkpt>
      <trkpt lat="41.12345" lon="37.66913">
        <ele>32.749306</ele>
        <time>2021-08-18T23:05:58.499Z</time>
      </trkpt>
      <trkpt lat="41.12307" lon="37.66852">
        <ele>31.035011</ele>
        <time>2021-08-18T23:06:12.533Z</time>
      </trkpt>
      <trkpt lat="41.12256" lon="37.66723">
        <ele>31.328654</ele>
        <time>2021-08-18T23:06:43.852Z</time>
      </trkpt>
      <trkpt lat="41.1218" lon="37.66491">
        <ele>35.104844</ele>
        <time>2021-08-18T23:08:12.485Z</time>
      </trkpt>
      <trkpt lat="41.12178" lon="37.66484">
        <ele>35.280801</ele>
        <time>2021-08-18T23:08:15.281Z</time>
      </trkpt>
      <trkpt lat="41.12071" lon="37.66155">
        <ele>42.952123</ele>
        <time>2021-08-18T23:10:27.737Z</time>
      </trkpt>
      <trkpt lat="41.12054" lon="37.66127">
        <ele>43.053608</ele>
        <time>2021-08-18T23:10:38.788Z</time>
      </trkpt>
      <trkpt lat="41.12019" lon="37.66087">
        <ele>43.229788</ele>
        <time>2021-08-18T23:10:55.866Z</time>
      </trkpt>
      <trkpt lat="41.11972" lon="37.66057">
        <ele>43.427059</ele>
        <time>2021-08-18T23:11:11.501Z</time>
      </trkpt>
      <trkpt lat="41.11876" lon="37.66021">
        <ele>41.652094</ele>
        <time>2021-08-18T23:11:35.626Z</time>
      </trkpt>
      <trkpt lat="41.11851" lon="37.66004">
        <ele>40.801165</ele>
        <time>2021-08-18T23:11:41.928Z</time>
      </trkpt>
      <trkpt lat="41.1183" lon="37.65981">
        <ele>39.969242</ele>
        <time>2021-08-18T23:11:48.015Z</time>
      </trkpt>
      <trkpt lat="41.11803" lon="37.6594">
        <ele>38.741259</ele>
        <time>2021-08-18T23:11:56.890Z</time>
      </trkpt>
      <trkpt lat="41.11698" lon="37.65676">
        <ele>32.849791</ele>
        <time>2021-08-18T23:12:48.743Z</time>
      </trkpt>
      <trkpt lat="41.1166" lon="37.65618">
        <ele>32.850224</ele>
        <time>2021-08-18T23:13:05.870Z</time>
      </trkpt>
      <trkpt lat="41.11631" lon="37.65584">
        <ele>32.850502</ele>
        <time>2021-08-18T23:13:18.726Z</time>
      </trkpt>
      <trkpt lat="41.11575" lon="37.65544">
        <ele>32.999224</ele>
        <time>2021-08-18T23:13:44.316Z</time>
      </trkpt>
      <trkpt lat="41.11523" lon="37.65518">
        <ele>34.493713</ele>
        <time>2021-08-18T23:14:09.165Z</time>
      </trkpt>
      <trkpt lat="41.11421" lon="37.65484">
        <ele>37.375637</ele>
        <time>2021-08-18T23:15:00.553Z</time>
      </trkpt>
      <trkpt lat="41.11285" lon="37.65437">
        <ele>40.283046</ele>
        <time>2021-08-18T23:16:06.748Z</time>
      </trkpt>
      <trkpt lat="41.11244" lon="37.65434">
        <ele>41.094647</ele>
        <time>2021-08-18T23:16:22.252Z</time>
      </trkpt>
      <trkpt lat="41.11152" lon="37.65446">
        <ele>38.563965</ele>
        <time>2021-08-18T23:16:47.204Z</time>
      </trkpt>
      <trkpt lat="41.11058" lon="37.65471">
        <ele>35.255603</ele>
        <time>2021-08-18T23:17:07.455Z</time>
      </trkpt>
      <trkpt lat="41.10986" lon="37.65478">
        <ele>30.895218</ele>
        <time>2021-08-18T23:17:21.391Z</time>
      </trkpt>
      <trkpt lat="41.1086" lon="37.65426">
        <ele>24.331105</ele>
        <time>2021-08-18T23:17:48.621Z</time>
      </trkpt>
      <trkpt lat="41.10841" lon="37.65415">
        <ele>24.670879</ele>
        <time>2021-08-18T23:17:53.281Z</time>
      </trkpt>
      <trkpt lat="41.10821" lon="37.65406">
        <ele>25.014121</ele>
        <time>2021-08-18T23:18:00.810Z</time>
      </trkpt>
      <trkpt lat="41.10781" lon="37.65386">
        <ele>25.721426</ele>
        <time>2021-08-18T23:18:16.837Z</time>
      </trkpt>
      <trkpt lat="41.10763" lon="37.65374">
        <ele>26.057224</ele>
        <time>2021-08-18T23:18:29.569Z</time>
      </trkpt>
      <trkpt lat="41.10741" lon="37.65336">
        <ele>26.660787</ele>
        <time>2021-08-18T23:18:51.065Z</time>
      </trkpt>
      <trkpt lat="41.10747" lon="37.65225">
        <ele>31.508198</ele>
        <time>2021-08-18T23:19:54.290Z</time>
      </trkpt>
      <trkpt lat="41.10729" lon="37.65189">
        <ele>33.756519</ele>
        <time>2021-08-18T23:20:20.192Z</time>
      </trkpt>
      <trkpt lat="41.10713" lon="37.65176">
        <ele>35.019922</ele>
        <time>2021-08-18T23:20:32.102Z</time>
      </trkpt>
      <trkpt lat="41.10629" lon="37.65142">
        <ele>40.58035</ele>
        <time>2021-08-18T23:21:30.232Z</time>
      </trkpt>
      <trkpt lat="41.10576" lon="37.65113">
        <ele>43.196268</ele>
        <time>2021-08-18T23:22:06.500Z</time>
      </trkpt>
      <trkpt lat="41.10538" lon="37.65084">
        <ele>45.202614</ele>
        <time>2021-08-18T23:22:30.756Z</time>
      </trkpt>
      <trkpt lat="41.10504" lon="37.65056">
        <ele>47.033591</ele>
        <time>2021-08-18T23:22:51.461Z</time>
      </trkpt>
      <trkpt lat="41.10497" lon="37.6505">
        <ele>47.405912</ele>
        <time>2021-08-18T23:22:56.443Z</time>
      </trkpt>
      <trkpt lat="41.10396" lon="37.64962">
        <ele>47.995883</ele>
        <time>2021-08-18T23:23:42.787Z</time>
      </trkpt>
      <trkpt lat="41.10259" lon="37.64895">
        <ele>46.78919</ele>
        <time>2021-08-18T23:24:18.149Z</time>
      </trkpt>
      <trkpt lat="41.1014" lon="37.64864">
        <ele>45.088413</ele>
        <time>2021-08-18T23:24:49.133Z</time>
      </trkpt>
      <trkpt lat="41.10113" lon="37.64851">
        <ele>45.057134</ele>
        <time>2021-08-18T23:24:57.655Z</time>
      </trkpt>
      <trkpt lat="41.10094" lon="37.64835">
        <ele>45.032092</ele>
        <time>2021-08-18T23:25:05.034Z</time>
      </trkpt>
      <trkpt lat="41.10072" lon="37.64809">
        <ele>45.000212</ele>
        <time>2021-08-18T23:25:14.759Z</time>
      </trkpt>
      <trkpt lat="41.10069" lon="37.64791">
        <ele>44.984684</ele>
        <time>2021-08-18T23:25:19.549Z</time>
      </trkpt>
      <trkpt lat="41.10071" lon="37.64666">
        <ele>44.333965</ele>
        <time>2021-08-18T23:25:51.511Z</time>
      </trkpt>
      <trkpt lat="41.10069" lon="37.64639">
        <ele>43.957257</ele>
        <time>2021-08-18T23:25:57.087Z</time>
      </trkpt>
      <trkpt lat="41.10056" lon="37.6461">
        <ele>43.48486</ele>
        <time>2021-08-18T23:26:03.784Z</time>
      </trkpt>
      <trkpt lat="41.10012" lon="37.64532">
        <ele>42.12932</ele>
        <time>2021-08-18T23:26:21.362Z</time>
      </trkpt>
      <trkpt lat="41.09992" lon="37.64496">
        <ele>41.379599</ele>
        <time>2021-08-18T23:26:29.034Z</time>
      </trkpt>
      <trkpt lat="41.09936" lon="37.64425">
        <ele>38.134471</ele>
        <time>2021-08-18T23:26:45.594Z</time>
      </trkpt>
      <trkpt lat="41.099" lon="37.64394">
        <ele>36.354676</ele>
        <time>2021-08-18T23:26:54.464Z</time>
      </trkpt>
      <trkpt lat="41.09799" lon="37.64329">
        <ele>33.406805</ele>
        <time>2021-08-18T23:27:19.622Z</time>
      </trkpt>
      <trkpt lat="41.09734" lon="37.64298">
        <ele>32.670014</ele>
        <time>2021-08-18T23:27:38.320Z</time>
      </trkpt>
      <trkpt lat="41.0971" lon="37.64294">
        <ele>32.416937</ele>
        <time>2021-08-18T23:27:47.618Z</time>
      </trkpt>
      <trkpt lat="41.09611" lon="37.64319">
        <ele>33.099008</ele>
        <time>2021-08-18T23:28:29.380Z</time>
      </trkpt>
      <trkpt lat="41.09577" lon="37.64324">
        <ele>33.590559</ele>
        <time>2021-08-18T23:28:44.250Z</time>
      </trkpt>
      <trkpt lat="41.09564" lon="37.64317">
        <ele>33.781132</ele>
        <time>2021-08-18T23:28:49.714Z</time>
      </trkpt>
      <trkpt lat="41.09538" lon="37.64282">
        <ele>34.303401</ele>
        <time>2021-08-18T23:29:03.986Z</time>
      </trkpt>
      <trkpt lat="41.09535" lon="37.6426">
        <ele>34.539578</ele>
        <time>2021-08-18T23:29:10.001Z</time>
      </trkpt>
      <trkpt lat="41.09547" lon="37.64187">
        <ele>34.008187</ele>
        <time>2021-08-18T23:29:27.930Z</time>
      </trkpt>
      <trkpt lat="41.09537" lon="37.6415">
        <ele>33.6351</ele>
        <time>2021-08-18T23:29:35.936Z</time>
      </trkpt>
      <trkpt lat="41.09484" lon="37.64093">
        <ele>32.76597</ele>
        <time>2021-08-18T23:29:52.225Z</time>
      </trkpt>
      <trkpt lat="41.09437" lon="37.63994">
        <ele>32.069741</ele>
        <time>2021-08-18T23:30:13.925Z</time>
      </trkpt>
      <trkpt lat="41.09403" lon="37.63967">
        <ele>31.859642</ele>
        <time>2021-08-18T23:30:24.523Z</time>
      </trkpt>
      <trkpt lat="41.09256" lon="37.63894">
        <ele>32.727854</ele>
        <time>2021-08-18T23:31:20.731Z</time>
      </trkpt>
      <trkpt lat="41.09218" lon="37.63893">
        <ele>33.420947</ele>
        <time>2021-08-18T23:31:37.543Z</time>
      </trkpt>
      <trkpt lat="41.09145" lon="37.63907">
        <ele>34.731625</ele>
        <time>2021-08-18T23:32:11.172Z</time>
      </trkpt>
      <trkpt lat="41.09116" lon="37.639">
        <ele>35.184558</ele>
        <time>2021-08-18T23:32:25.174Z</time>
      </trkpt>
      <trkpt lat="41.09003" lon="37.63802">
        <ele>37.250753</ele>
        <time>2021-08-18T23:33:20.150Z</time>
      </trkpt>
      <trkpt lat="41.08959" lon="37.63755">
        <ele>36.367675</ele>
        <time>2021-08-18T23:33:36.348Z</time>
      </trkpt>
      <trkpt lat="41.08845" lon="37.6369">
        <ele>33.488396</ele>
        <time>2021-08-18T23:34:05.107Z</time>
      </trkpt>
      <trkpt lat="41.08765" lon="37.63596">
        <ele>29.962865</ele>
        <time>2021-08-18T23:34:28.000Z</time>
      </trkpt>
      <trkpt lat="41.08737" lon="37.63577">
        <ele>28.889628</ele>
        <time>2021-08-18T23:34:35.052Z</time>
      </trkpt>
      <trkpt lat="41.08696" lon="37.63574">
        <ele>27.500997</ele>
        <time>2021-08-18T23:34:44.978Z</time>
      </trkpt>
      <trkpt lat="41.08611" lon="37.6361">
        <ele>27.02945</ele>
        <time>2021-08-18T23:35:08.780Z</time>
      </trkpt>
      <trkpt lat="41.08604" lon="37.63611">
        <ele>27.019934</ele>
        <time>2021-08-18T23:35:10.478Z</time>
      </trkpt>
      <trkpt lat="41.08589" lon="37.63611">
        <ele>26.997758</ele>
        <time>2021-08-18T23:35:16.934Z</time>
      </trkpt>
      <trkpt lat="41.08558" lon="37.63594">
        <ele>26.948781</ele>
        <time>2021-08-18T23:35:28.064Z</time>
      </trkpt>
      <trkpt lat="41.08529" lon="37.63557">
        <ele>26.889648</ele>
        <time>2021-08-18T23:35:43.249Z</time>
      </trkpt>
      <trkpt lat="41.08518" lon="37.63523">
        <ele>26.919778</ele>
        <time>2021-08-18T23:35:54.096Z</time>
      </trkpt>
      <trkpt lat="41.08502" lon="37.63334">
        <ele>27.163936</ele>
        <time>2021-08-18T23:36:41.610Z</time>
      </trkpt>
      <trkpt lat="41.08489" lon="37.63285">
        <ele>26.708323</ele>
        <time>2021-08-18T23:36:51.835Z</time>
      </trkpt>
      <trkpt lat="41.08475" lon="37.63252">
        <ele>26.172689</ele>
        <time>2021-08-18T23:36:59.056Z</time>
      </trkpt>
      <trkpt lat="41.08231" lon="37.62931">
        <ele>21.02703</ele>
        <time>2021-08-18T23:38:21.850Z</time>
      </trkpt>
      <trkpt lat="41.08205" lon="37.6292">
        <ele>21.731528</ele>
        <time>2021-08-18T23:38:35.988Z</time>
      </trkpt>
      <trkpt lat="41.08186" lon="37.62926">
        <ele>22.231345</ele>
        <time>2021-08-18T23:38:42.523Z</time>
      </trkpt>
      <trkpt lat="41.08171" lon="37.62938">
        <ele>22.659992</ele>
        <time>2021-08-18T23:38:54.668Z</time>
      </trkpt>
      <trkpt lat="41.08157" lon="37.62961">
        <ele>23.229268</ele>
        <time>2021-08-18T23:39:02.563Z</time>
      </trkpt>
      <trkpt lat="41.08151" lon="37.6297">
        <ele>23.460175</ele>
        <time>2021-08-18T23:39:11.252Z</time>
      </trkpt>
      <trkpt lat="41.08132" lon="37.63005">
        <ele>24.280848</ele>
        <time>2021-08-18T23:39:27.791Z</time>
      </trkpt>
      <trkpt lat="41.08101" lon="37.63017">
        <ele>25.62799</ele>
        <time>2021-08-18T23:39:46.470Z</time>
      </trkpt>
      <trkpt lat="41.08092" lon="37.63014">
        <ele>26.128983</ele>
        <time>2021-08-18T23:39:56.383Z</time>
      </trkpt>
      <trkpt lat="41.08083" lon="37.6301">
        <ele>26.602424</ele>
        <time>2021-08-18T23:40:01.598Z</time>
      </trkpt>
      <trkpt lat="41.08062" lon="37.62985">
        <ele>28.121439</ele>
        <time>2021-08-18T23:40:20.923Z</time>
      </trkpt>
      <trkpt lat="41.08025" lon="37.62922">
        <ele>31.275105</ele>
        <time>2021-08-18T23:40:57.871Z</time>
      </trkpt>
      <trkpt lat="41.07952" lon="37.62833">
        <ele>35.752242</ele>
        <time>2021-08-18T23:41:54.477Z</time>
      </trkpt>
      <trkpt lat="41.0791" lon="37.62737">
        <ele>38.725978</ele>
        <time>2021-08-18T23:42:34.735Z</time>
      </trkpt>
      <trkpt lat="41.07866" lon="37.62681">
        <ele>40.827571</ele>
        <time>2021-08-18T23:43:04.707Z</time>
      </trkpt>
      <trkpt lat="41.07824" lon="37.62645">
        <ele>42.276267</ele>
        <time>2021-08-18T23:43:29.440Z</time>
      </trkpt>
      <trkpt lat="41.07737" lon="37.62591">
        <ele>45.095766</ele>
        <time>2021-08-18T23:44:16.820Z</time>
      </trkpt>
      <trkpt lat="41.07663" lon="37.62491">
        <ele>46.852279</ele>
        <time>2021-08-18T23:44:59.135Z</time>
      </trkpt>
      <trkpt lat="41.07616" lon="37.62428">
        <ele>47.725802</ele>
        <time>2021-08-18T23:45:22.964Z</time>
      </trkpt>
      <trkpt lat="41.07562" lon="37.6238">
        <ele>49.028674</ele>
        <time>2021-08-18T23:45:46.204Z</time>
      </trkpt>
      <trkpt lat="41.07507" lon="37.62319">
        <ele>50.938782</ele>
        <time>2021-08-18T23:46:15.752Z</time>
      </trkpt>
      <trkpt lat="41.07467" lon="37.62257">
        <ele>52.571148</ele>
        <time>2021-08-18T23:46:47.983Z</time>
      </trkpt>
      <trkpt lat="41.07418" lon="37.62223">
        <ele>55.151948</ele>
        <time>2021-08-18T23:47:21.351Z</time>
      </trkpt>
      <trkpt lat="41.07327" lon="37.622">
        <ele>60.070476</ele>
        <time>2021-08-18T23:48:20.887Z</time>
      </trkpt>
      <trkpt lat="41.07276" lon="37.62173">
        <ele>62.769168</ele>
        <time>2021-08-18T23:48:55.489Z</time>
      </trkpt>
      <trkpt lat="41.07032" lon="37.61928">
        <ele>70.430999</ele>
        <time>2021-08-18T23:51:24.288Z</time>
      </trkpt>
      <trkpt lat="41.07014" lon="37.61919">
        <ele>70.665744</ele>
        <time>2021-08-18T23:51:29.163Z</time>
      </trkpt>
      <trkpt lat="41.06989" lon="37.61919">
        <ele>70.912592</ele>
        <time>2021-08-18T23:51:34.938Z</time>
      </trkpt>
      <trkpt lat="41.06971" lon="37.61912">
        <ele>69.48035</ele>
        <time>2021-08-18T23:51:39.021Z</time>
      </trkpt>
      <trkpt lat="41.0691" lon="37.61914">
        <ele>64.774111</ele>
        <time>2021-08-18T23:51:51.493Z</time>
      </trkpt>
      <trkpt lat="41.06868" lon="37.61905">
        <ele>61.476022</ele>
        <time>2021-08-18T23:51:59.743Z</time>
      </trkpt>
      <trkpt lat="41.06829" lon="37.61879">
        <ele>58.170748</ele>
        <time>2021-08-18T23:52:07.827Z</time>
      </trkpt>
      <trkpt lat="41.06771" lon="37.61819">
        <ele>51.286066</ele>
        <time>2021-08-18T23:52:21.605Z</time>
      </trkpt>
      <trkpt lat="41.06744" lon="37.61815">
        <ele>48.604942</ele>
        <time>2021-08-18T23:52:26.794Z</time>
      </trkpt>
      <trkpt lat="41.0672" lon="37.61834">
        <ele>45.898662</ele>
        <time>2021-08-18T23:52:32.068Z</time>
      </trkpt>
      <trkpt lat="41.0669" lon="37.61888">
        <ele>40.937888</ele>
        <time>2021-08-18T23:52:41.923Z</time>
      </trkpt>
      <trkpt lat="41.06652" lon="37.62044">
        <ele>35.599331</ele>
        <time>2021-08-18T23:53:07.677Z</time>
      </trkpt>
      <trkpt lat="41.06637" lon="37.62085">
        <ele>34.335146</ele>
        <time>2021-08-18T23:53:16.375Z</time>
      </trkpt>
      <trkpt lat="41.06607" lon="37.62118">
        <ele>33.196405</ele>
        <time>2021-08-18T23:53:29.113Z</time>
      </trkpt>
      <trkpt lat="41.06596" lon="37.6212">
        <ele>33.696912</ele>
        <time>2021-08-18T23:53:33.751Z</time>
      </trkpt>
      <trkpt lat="41.06576" lon="37.62122">
        <ele>34.61149</ele>
        <time>2021-08-18T23:53:41.737Z</time>
      </trkpt>
      <trkpt lat="41.06547" lon="37.6211">
        <ele>35.979308</ele>
        <time>2021-08-18T23:53:56.539Z</time>
      </trkpt>
      <trkpt lat="41.06526" lon="37.62078">
        <ele>37.415828</ele>
        <time>2021-08-18T23:54:14.433Z</time>
      </trkpt>
      <trkpt lat="41.06459" lon="37.61845">
        <ele>47.272676</ele>
        <time>2021-08-18T23:56:27.966Z</time>
      </trkpt>
      <trkpt lat="41.06455" lon="37.61817">
        <ele>48.480386</ele>
        <time>2021-08-18T23:56:41.673Z</time>
      </trkpt>
      <trkpt lat="41.0646" lon="37.61803">
        <ele>49.190968</ele>
        <time>2021-08-18T23:56:48.879Z</time>
      </trkpt>
      <trkpt lat="41.06461" lon="37.61775">
        <ele>50.414499</ele>
        <time>2021-08-18T23:57:01.036Z</time>
      </trkpt>
      <trkpt lat="41.06472" lon="37.61713">
        <ele>51.750423</ele>
        <time>2021-08-18T23:57:24.010Z</time>
      </trkpt>
      <trkpt lat="41.06467" lon="37.61687">
        <ele>51.867531</ele>
        <time>2021-08-18T23:57:32.251Z</time>
      </trkpt>
      <trkpt lat="41.06457" lon="37.61665">
        <ele>51.978739</ele>
        <time>2021-08-18T23:57:38.898Z</time>
      </trkpt>
      <trkpt lat="41.0638" lon="37.61566">
        <ele>52.602764</ele>
        <time>2021-08-18T23:58:08.844Z</time>
      </trkpt>
      <trkpt lat="41.0635" lon="37.61552">
        <ele>53.105129</ele>
        <time>2021-08-18T23:58:17.569Z</time>
      </trkpt>
      <trkpt lat="41.06317" lon="37.61546">
        <ele>53.702026</ele>
        <time>2021-08-18T23:58:27.513Z</time>
      </trkpt>
      <trkpt lat="41.06285" lon="37.6155">
        <ele>54.281052</ele>
        <time>2021-08-18T23:58:38.797Z</time>
      </trkpt>
      <trkpt lat="41.06102" lon="37.6161">
        <ele>59.618791</ele>
        <time>2021-08-19T00:00:17.681Z</time>
      </trkpt>
      <trkpt lat="41.06006" lon="37.61611">
        <ele>62.673454</ele>
        <time>2021-08-19T00:01:09.452Z</time>
      </trkpt>
      <trkpt lat="41.05923" lon="37.61582">
        <ele>63.226003</ele>
        <time>2021-08-19T00:01:44.548Z</time>
      </trkpt>
      <trkpt lat="41.05798" lon="37.61488">
        <ele>61.965036</ele>
        <time>2021-08-19T00:02:20.771Z</time>
      </trkpt>
      <trkpt lat="41.05736" lon="37.61451">
        <ele>60.163055</ele>
        <time>2021-08-19T00:02:36.344Z</time>
      </trkpt>
      <trkpt lat="41.05727" lon="37.61446">
        <ele>59.908505</ele>
        <time>2021-08-19T00:02:38.589Z</time>
      </trkpt>
      <trkpt lat="41.05687" lon="37.61441">
        <ele>58.760561</ele>
        <time>2021-08-19T00:02:47.707Z</time>
      </trkpt>
      <trkpt lat="41.05586" lon="37.61445">
        <ele>54.03763</ele>
        <time>2021-08-19T00:03:10.298Z</time>
      </trkpt>
      <trkpt lat="41.05554" lon="37.61437">
        <ele>52.513324</ele>
        <time>2021-08-19T00:03:17.179Z</time>
      </trkpt>
      <trkpt lat="41.05511" lon="37.61411">
        <ele>50.06286</ele>
        <time>2021-08-19T00:03:26.818Z</time>
      </trkpt>
      <trkpt lat="41.05469" lon="37.61396">
        <ele>46.238692</ele>
        <time>2021-08-19T00:03:35.364Z</time>
      </trkpt>
      <trkpt lat="41.0545" lon="37.61392">
        <ele>44.508794</ele>
        <time>2021-08-19T00:03:39.130Z</time>
      </trkpt>
      <trkpt lat="41.05335" lon="37.61383">
        <ele>34.406259</ele>
        <time>2021-08-19T00:04:01.040Z</time>
      </trkpt>
      <trkpt lat="41.0528" lon="37.61389">
        <ele>29.820639</ele>
        <time>2021-08-19T00:04:11.635Z</time>
      </trkpt>
      <trkpt lat="41.0525" lon="37.61407">
        <ele>27.152751</ele>
        <time>2021-08-19T00:04:17.920Z</time>
      </trkpt>
      <trkpt lat="41.05183" lon="37.61474">
        <ele>20.210941</ele>
        <time>2021-08-19T00:04:34.730Z</time>
      </trkpt>
      <trkpt lat="41.05139" lon="37.61528">
        <ele>18.65292</ele>
        <time>2021-08-19T00:04:47.089Z</time>
      </trkpt>
      <trkpt lat="41.05115" lon="37.61548">
        <ele>17.997318</ele>
        <time>2021-08-19T00:04:53.393Z</time>
      </trkpt>
      <trkpt lat="41.05093" lon="37.61552">
        <ele>17.490474</ele>
        <time>2021-08-19T00:04:58.521Z</time>
      </trkpt>
      <trkpt lat="41.05077" lon="37.6155">
        <ele>17.14506</ele>
        <time>2021-08-19T00:05:02.448Z</time>
      </trkpt>
      <trkpt lat="41.05057" lon="37.6154">
        <ele>16.658837</ele>
        <time>2021-08-19T00:05:08.822Z</time>
      </trkpt>
      <trkpt lat="41.0505" lon="37.61529">
        <ele>16.407474</ele>
        <time>2021-08-19T00:05:13.009Z</time>
      </trkpt>
      <trkpt lat="41.05043" lon="37.61518">
        <ele>16.164394</ele>
        <time>2021-08-19T00:05:17.661Z</time>
      </trkpt>
      <trkpt lat="41.05034" lon="37.61477">
        <ele>17.097608</ele>
        <time>2021-08-19T00:05:33.906Z</time>
      </trkpt>
      <trkpt lat="41.05033" lon="37.61445">
        <ele>18.789296</ele>
        <time>2021-08-19T00:05:48.030Z</time>
      </trkpt>
      <trkpt lat="41.05032" lon="37.61401">
        <ele>21.098597</ele>
        <time>2021-08-19T00:06:09.337Z</time>
      </trkpt>
      <trkpt lat="41.05026" lon="37.61318">
        <ele>25.470585</ele>
        <time>2021-08-19T00:06:57.222Z</time>
      </trkpt>
      <trkpt lat="41.05021" lon="37.61265">
        <ele>28.23916</ele>
        <time>2021-08-19T00:07:31.775Z</time>
      </trkpt>
      <trkpt lat="41.0501" lon="37.61197">
        <ele>33.507955</ele>
        <time>2021-08-19T00:08:21.702Z</time>
      </trkpt>
      <trkpt lat="41.04989" lon="37.61126">
        <ele>39.266286</ele>
        <time>2021-08-19T00:09:15.429Z</time>
      </trkpt>
      <trkpt lat="41.04976" lon="37.61104">
        <ele>41.344472</ele>
        <time>2021-08-19T00:09:33.393Z</time>
      </trkpt>
      <trkpt lat="41.04959" lon="37.6109">
        <ele>43.371867</ele>
        <time>2021-08-19T00:09:50.419Z</time>
      </trkpt>
      <trkpt lat="41.04689" lon="37.61011">
        <ele>64.963306</ele>
        <time>2021-08-19T00:13:22.258Z</time>
      </trkpt>
      <trkpt lat="41.04663" lon="37.60981">
        <ele>66.967107</ele>
        <time>2021-08-19T00:13:43.948Z</time>
      </trkpt>
      <trkpt lat="41.04655" lon="37.60942">
        <ele>68.7291</ele>
        <time>2021-08-19T00:14:01.581Z</time>
      </trkpt>
      <trkpt lat="41.04656" lon="37.60905">
        <ele>70.341253</ele>
        <time>2021-08-19T00:14:16.533Z</time>
      </trkpt>
      <trkpt lat="41.04668" lon="37.60804">
        <ele>73.865148</ele>
        <time>2021-08-19T00:14:54.048Z</time>
      </trkpt>
      <trkpt lat="41.04687" lon="37.6072">
        <ele>76.632478</ele>
        <time>2021-08-19T00:15:27.766Z</time>
      </trkpt>
      <trkpt lat="41.04687" lon="37.60695">
        <ele>77.424564</ele>
        <time>2021-08-19T00:15:38.759Z</time>
      </trkpt>
      <trkpt lat="41.04674" lon="37.60672">
        <ele>78.325504</ele>
        <time>2021-08-19T00:15:51.719Z</time>
      </trkpt>
      <trkpt lat="41.04644" lon="37.60659">
        <ele>80.134233</ele>
        <time>2021-08-19T00:16:11.667Z</time>
      </trkpt>
      <trkpt lat="41.04613" lon="37.60633">
        <ele>82.865637</ele>
        <time>2021-08-19T00:16:36.272Z</time>
      </trkpt>
      <trkpt lat="41.04603" lon="37.60615">
        <ele>84.082952</ele>
        <time>2021-08-19T00:16:47.953Z</time>
      </trkpt>
      <trkpt lat="41.04584" lon="37.6054">
        <ele>88.49837</ele>
        <time>2021-08-19T00:17:32.359Z</time>
      </trkpt>
      <trkpt lat="41.04574" lon="37.60523">
        <ele>89.676394</ele>
        <time>2021-08-19T00:17:45.246Z</time>
      </trkpt>
      <trkpt lat="41.04479" lon="37.60467">
        <ele>97.738758</ele>
        <time>2021-08-19T00:19:10.292Z</time>
      </trkpt>
      <trkpt lat="41.04412" lon="37.60389">
        <ele>104.788404</ele>
        <time>2021-08-19T00:20:17.309Z</time>
      </trkpt>
      <trkpt lat="41.04312" lon="37.6033">
        <ele>109.948182</ele>
        <time>2021-08-19T00:21:28.259Z</time>
      </trkpt>
      <trkpt lat="41.04298" lon="37.60307">
        <ele>110.819999</ele>
        <time>2021-08-19T00:21:39.861Z</time>
      </trkpt>
      <trkpt lat="41.04294" lon="37.60218">
        <ele>113.416394</ele>
        <time>2021-08-19T00:22:07.905Z</time>
      </trkpt>
      <trkpt lat="41.04287" lon="37.60197">
        <ele>113.106241</ele>
        <time>2021-08-19T00:22:13.751Z</time>
      </trkpt>
      <trkpt lat="41.04223" lon="37.60151">
        <ele>111.044338</ele>
        <time>2021-08-19T00:22:32.928Z</time>
      </trkpt>
      <trkpt lat="41.04191" lon="37.60107">
        <ele>109.720767</ele>
        <time>2021-08-19T00:22:43.073Z</time>
      </trkpt>
      <trkpt lat="41.04164" lon="37.60107">
        <ele>108.957451</ele>
        <time>2021-08-19T00:22:48.666Z</time>
      </trkpt>
      <trkpt lat="41.04096" lon="37.60138">
        <ele>103.91806</ele>
        <time>2021-08-19T00:23:03.206Z</time>
      </trkpt>
      <trkpt lat="41.0406" lon="37.60144">
        <ele>100.801517</ele>
        <time>2021-08-19T00:23:10.347Z</time>
      </trkpt>
      <trkpt lat="41.04024" lon="37.60125">
        <ele>97.456857</ele>
        <time>2021-08-19T00:23:17.838Z</time>
      </trkpt>
      <trkpt lat="41.04011" lon="37.6011">
        <ele>95.954723</ele>
        <time>2021-08-19T00:23:21.154Z</time>
      </trkpt>
      <trkpt lat="41.03993" lon="37.60054">
        <ele>91.638787</ele>
        <time>2021-08-19T00:23:29.759Z</time>
      </trkpt>
      <trkpt lat="41.03985" lon="37.59991">
        <ele>85.759094</ele>
        <time>2021-08-19T00:23:38.720Z</time>
      </trkpt>
      <trkpt lat="41.03953" lon="37.59949">
        <ele>80.196513</ele>
        <time>2021-08-19T00:23:47.189Z</time>
      </trkpt>
      <trkpt lat="41.03934" lon="37.59913">
        <ele>76.201988</ele>
        <time>2021-08-19T00:23:53.224Z</time>
      </trkpt>
      <trkpt lat="41.03932" lon="37.59887">
        <ele>73.747423</ele>
        <time>2021-08-19T00:23:56.937Z</time>
      </trkpt>
      <trkpt lat="41.03951" lon="37.59813">
        <ele>66.399671</ele>
        <time>2021-08-19T00:24:07.857Z</time>
      </trkpt>
      <trkpt lat="41.03949" lon="37.59777">
        <ele>62.981536</ele>
        <time>2021-08-19T00:24:12.896Z</time>
      </trkpt>
      <trkpt lat="41.03931" lon="37.5973">
        <ele>58.039823</ele>
        <time>2021-08-19T00:24:20.203Z</time>
      </trkpt>
      <trkpt lat="41.03891" lon="37.59717">
        <ele>52.893576</ele>
        <time>2021-08-19T00:24:27.839Z</time>
      </trkpt>
      <trkpt lat="41.03783" lon="37.59739">
        <ele>42.283087</ele>
        <time>2021-08-19T00:24:48.511Z</time>
      </trkpt>
      <trkpt lat="41.03749" lon="37.59759">
        <ele>39.215517</ele>
        <time>2021-08-19T00:24:55.671Z</time>
      </trkpt>
      <trkpt lat="41.03737" lon="37.59777">
        <ele>37.719894</ele>
        <time>2021-08-19T00:24:59.290Z</time>
      </trkpt>
      <trkpt lat="41.03718" lon="37.5987">
        <ele>33.288338</ele>
        <time>2021-08-19T00:25:14.475Z</time>
      </trkpt>
      <trkpt lat="41.03707" lon="37.5991">
        <ele>32.976776</ele>
        <time>2021-08-19T00:25:22.021Z</time>
      </trkpt>
      <trkpt lat="41.03693" lon="37.59941">
        <ele>32.706288</ele>
        <time>2021-08-19T00:25:29.405Z</time>
      </trkpt>
      <trkpt lat="41.03681" lon="37.59957">
        <ele>32.530239</ele>
        <time>2021-08-19T00:25:34.317Z</time>
      </trkpt>
      <trkpt lat="41.03666" lon="37.59973">
        <ele>32.342432</ele>
        <time>2021-08-19T00:25:40.911Z</time>
      </trkpt>
      <trkpt lat="41.03632" lon="37.59995">
        <ele>31.964405</ele>
        <time>2021-08-19T00:25:54.939Z</time>
      </trkpt>
      <trkpt lat="41.03616" lon="37.59996">
        <ele>31.805503</ele>
        <time>2021-08-19T00:26:01.165Z</time>
      </trkpt>
      <trkpt lat="41.03611" lon="37.59994">
        <ele>31.748872</ele>
        <time>2021-08-19T00:26:02.990Z</time>
      </trkpt>
      <trkpt lat="41.03599" lon="37.5999">
        <ele>31.762472</ele>
        <time>2021-08-19T00:26:09.401Z</time>
      </trkpt>
      <trkpt lat="41.0357" lon="37.5996">
        <ele>31.926934</ele>
        <time>2021-08-19T00:26:26.351Z</time>
      </trkpt>
      <trkpt lat="41.03558" lon="37.59936">
        <ele>32.020471</ele>
        <time>2021-08-19T00:26:33.677Z</time>
      </trkpt>
      <trkpt lat="41.03549" lon="37.59885">
        <ele>32.196455</ele>
        <time>2021-08-19T00:26:47.802Z</time>
      </trkpt>
      <trkpt lat="41.03544" lon="37.59785">
        <ele>32.445764</ele>
        <time>2021-08-19T00:27:10.262Z</time>
      </trkpt>
      <trkpt lat="41.03543" lon="37.59751">
        <ele>31.75315</ele>
        <time>2021-08-19T00:27:16.377Z</time>
      </trkpt>
      <trkpt lat="41.03552" lon="37.59679">
        <ele>30.276672</ele>
        <time>2021-08-19T00:27:29.308Z</time>
      </trkpt>
      <trkpt lat="41.03574" lon="37.59624">
        <ele>29.007048</ele>
        <time>2021-08-19T00:27:39.883Z</time>
      </trkpt>
      <trkpt lat="41.03628" lon="37.59524">
        <ele>26.977101</ele>
        <time>2021-08-19T00:28:01.027Z</time>
      </trkpt>
      <trkpt lat="41.03643" lon="37.59485">
        <ele>26.447556</ele>
        <time>2021-08-19T00:28:09.411Z</time>
      </trkpt>
      <trkpt lat="41.03657" lon="37.59419">
        <ele>25.618969</ele>
        <time>2021-08-19T00:28:23.576Z</time>
      </trkpt>
      <trkpt lat="41.03655" lon="37.59353">
        <ele>24.82384</ele>
        <time>2021-08-19T00:28:37.927Z</time>
      </trkpt>
      <trkpt lat="41.03621" lon="37.59218">
        <ele>24.151514</ele>
        <time>2021-08-19T00:29:07.513Z</time>
      </trkpt>
      <trkpt lat="41.03605" lon="37.59175">
        <ele>23.933342</ele>
        <time>2021-08-19T00:29:18.194Z</time>
      </trkpt>
      <trkpt lat="41.03589" lon="37.5913">
        <ele>23.706645</ele>
        <time>2021-08-19T00:29:29.488Z</time>
      </trkpt>
      <trkpt lat="41.03454" lon="37.58807">
        <ele>19.825647</ele>
        <time>2021-08-19T00:30:49.400Z</time>
      </trkpt>
      <trkpt lat="41.03428" lon="37.58747">
        <ele>18.212972</ele>
        <time>2021-08-19T00:31:00.540Z</time>
      </trkpt>
      <trkpt lat="41.03421" lon="37.58735">
        <ele>17.882692</ele>
        <time>2021-08-19T00:31:02.661Z</time>
      </trkpt>
      <trkpt lat="41.03339" lon="37.58549">
        <ele>8.817561</ele>
        <time>2021-08-19T00:31:35.361Z</time>
      </trkpt>
      <trkpt lat="41.03312" lon="37.58483">
        <ele>6.45823</ele>
        <time>2021-08-19T00:31:47.963Z</time>
      </trkpt>
      <trkpt lat="41.0329" lon="37.58429">
        <ele>5.919172</ele>
        <time>2021-08-19T00:31:59.222Z</time>
      </trkpt>
      <trkpt lat="41.03284" lon="37.58412">
        <ele>5.750242</ele>
        <time>2021-08-19T00:32:03.211Z</time>
      </trkpt>
      <trkpt lat="41.03245" lon="37.58317">
        <ele>4.804317</ele>
        <time>2021-08-19T00:32:29.091Z</time>
      </trkpt>
      <trkpt lat="41.03231" lon="37.5827">
        <ele>4.749671</ele>
        <time>2021-08-19T00:32:42.505Z</time>
      </trkpt>
      <trkpt lat="41.03203" lon="37.58105">
        <ele>5.597775</ele>
        <time>2021-08-19T00:33:27.362Z</time>
      </trkpt>
      <trkpt lat="41.03179" lon="37.58014">
        <ele>6.248591</ele>
        <time>2021-08-19T00:33:53.243Z</time>
      </trkpt>
      <trkpt lat="41.03153" lon="37.57959">
        <ele>6.781403</ele>
        <time>2021-08-19T00:34:11.449Z</time>
      </trkpt>
      <trkpt lat="41.03041" lon="37.57803">
        <ele>8.322792</ele>
        <time>2021-08-19T00:35:12.917Z</time>
      </trkpt>
      <trkpt lat="41.03032" lon="37.57796">
        <ele>8.40664</ele>
        <time>2021-08-19T00:35:17.266Z</time>
      </trkpt>
      <trkpt lat="41.03018" lon="37.57764">
        <ele>8.620885</ele>
        <time>2021-08-19T00:35:26.670Z</time>
      </trkpt>
      <trkpt lat="41.0293" lon="37.57548">
        <ele>9.501734</ele>
        <time>2021-08-19T00:36:28.098Z</time>
      </trkpt>
      <trkpt lat="41.02843" lon="37.57299">
        <ele>9.921649</ele>
        <time>2021-08-19T00:37:34.295Z</time>
      </trkpt>
      <trkpt lat="41.02817" lon="37.57211">
        <ele>9.935362</ele>
        <time>2021-08-19T00:37:57.727Z</time>
      </trkpt>
      <trkpt lat="41.02782" lon="37.57086">
        <ele>9.806881</ele>
        <time>2021-08-19T00:38:28.920Z</time>
      </trkpt>
      <trkpt lat="41.02746" lon="37.56938">
        <ele>9.281333</ele>
        <time>2021-08-19T00:39:02.809Z</time>
      </trkpt>
      <trkpt lat="41.02738" lon="37.56901">
        <ele>9.099611</ele>
        <time>2021-08-19T00:39:10.734Z</time>
      </trkpt>
      <trkpt lat="41.02688" lon="37.56668">
        <ele>8.023431</ele>
        <time>2021-08-19T00:40:01.708Z</time>
      </trkpt>
      <trkpt lat="41.02647" lon="37.56471">
        <ele>7.559724</ele>
        <time>2021-08-19T00:40:47.645Z</time>
      </trkpt>
      <trkpt lat="41.02634" lon="37.56412">
        <ele>7.530289</ele>
        <time>2021-08-19T00:41:01.891Z</time>
      </trkpt>
      <trkpt lat="41.0252" lon="37.55873">
        <ele>8.012702</ele>
        <time>2021-08-19T00:43:17.872Z</time>
      </trkpt>
      <trkpt lat="41.02484" lon="37.55702">
        <ele>7.792182</ele>
        <time>2021-08-19T00:43:58.473Z</time>
      </trkpt>
      <trkpt lat="41.02476" lon="37.55661">
        <ele>7.739719</ele>
        <time>2021-08-19T00:44:07.845Z</time>
      </trkpt>
      <trkpt lat="41.02402" lon="37.55309">
        <ele>6.758354</ele>
        <time>2021-08-19T00:45:27.963Z</time>
      </trkpt>
      <trkpt lat="41.02299" lon="37.54816">
        <ele>7.486124</ele>
        <time>2021-08-19T00:47:30.127Z</time>
      </trkpt>
      <trkpt lat="41.02162" lon="37.54147">
        <ele>13.448066</ele>
        <time>2021-08-19T00:50:57.163Z</time>
      </trkpt>
      <trkpt lat="41.02134" lon="37.53999">
        <ele>12.728035</ele>
        <time>2021-08-19T00:51:27.928Z</time>
      </trkpt>
      <trkpt lat="41.02121" lon="37.53907">
        <ele>10.919732</ele>
        <time>2021-08-19T00:51:44.277Z</time>
      </trkpt>
      <trkpt lat="41.02109" lon="37.53765">
        <ele>8.30593</ele>
        <time>2021-08-19T00:52:09.006Z</time>
      </trkpt>
      <trkpt lat="41.02109" lon="37.53731">
        <ele>7.777911</ele>
        <time>2021-08-19T00:52:14.926Z</time>
      </trkpt>
      <trkpt lat="41.02108" lon="37.53637">
        <ele>6.291551</ele>
        <time>2021-08-19T00:52:32.290Z</time>
      </trkpt>
      <trkpt lat="41.02109" lon="37.5357">
        <ele>5.262198</ele>
        <time>2021-08-19T00:52:45.669Z</time>
      </trkpt>
      <trkpt lat="41.02112" lon="37.53478">
        <ele>5.111973</ele>
        <time>2021-08-19T00:53:06.129Z</time>
      </trkpt>
      <trkpt lat="41.02129" lon="37.5332">
        <ele>4.879919</ele>
        <time>2021-08-19T00:53:44.283Z</time>
      </trkpt>
      <trkpt lat="41.02149" lon="37.53199">
        <ele>4.909782</ele>
        <time>2021-08-19T00:54:13.960Z</time>
      </trkpt>
      <trkpt lat="41.02173" lon="37.53097">
        <ele>4.942218</ele>
        <time>2021-08-19T00:54:38.968Z</time>
      </trkpt>
      <trkpt lat="41.02216" lon="37.5295">
        <ele>5.139213</ele>
        <time>2021-08-19T00:55:17.009Z</time>
      </trkpt>
      <trkpt lat="41.02251" lon="37.52846">
        <ele>5.273046</ele>
        <time>2021-08-19T00:55:45.025Z</time>
      </trkpt>
      <trkpt lat="41.02293" lon="37.52747">
        <ele>5.389686</ele>
        <time>2021-08-19T00:56:12.662Z</time>
      </trkpt>
      <trkpt lat="41.02329" lon="37.52665">
        <ele>5.473981</ele>
        <time>2021-08-19T00:56:35.202Z</time>
      </trkpt>
      <trkpt lat="41.02428" lon="37.52437">
        <ele>5.624013</ele>
        <time>2021-08-19T00:57:35.821Z</time>
      </trkpt>
      <trkpt lat="41.02438" lon="37.52414">
        <ele>5.78535</ele>
        <time>2021-08-19T00:57:42.519Z</time>
      </trkpt>
      <trkpt lat="41.02485" lon="37.52333">
        <ele>6.397871</ele>
        <time>2021-08-19T00:58:10.385Z</time>
      </trkpt>
      <trkpt lat="41.02499" lon="37.52298">
        <ele>6.638693</ele>
        <time>2021-08-19T00:58:21.937Z</time>
      </trkpt>
      <trkpt lat="41.02507" lon="37.52278">
        <ele>6.773068</ele>
        <time>2021-08-19T00:58:28.407Z</time>
      </trkpt>
      <trkpt lat="41.02502" lon="37.52265">
        <ele>6.873497</ele>
        <time>2021-08-19T00:58:32.981Z</time>
      </trkpt>
      <trkpt lat="41.02493" lon="37.52258">
        <ele>7.021473</ele>
        <time>2021-08-19T00:58:37.048Z</time>
      </trkpt>
      <trkpt lat="41.02482" lon="37.5226">
        <ele>7.171239</ele>
        <time>2021-08-19T00:58:41.326Z</time>
      </trkpt>
      <trkpt lat="41.02467" lon="37.52258">
        <ele>7.378384</ele>
        <time>2021-08-19T00:58:47.329Z</time>
      </trkpt>
      <trkpt lat="41.02454" lon="37.52249">
        <ele>7.573562</ele>
        <time>2021-08-19T00:58:52.777Z</time>
      </trkpt>
      <trkpt lat="41.02466" lon="37.52207">
        <ele>8.038719</ele>
        <time>2021-08-19T00:59:06.534Z</time>
      </trkpt>
      <trkpt lat="41.02487" lon="37.52103">
        <ele>9.155256</ele>
        <time>2021-08-19T00:59:39.783Z</time>
      </trkpt>
      <trkpt lat="41.02557" lon="37.5183">
        <ele>11.55869</ele>
        <time>2021-08-19T01:01:03.314Z</time>
      </trkpt>
      <trkpt lat="41.02518" lon="37.51841">
        <ele>12.018409</ele>
        <time>2021-08-19T01:01:19.119Z</time>
      </trkpt>
      <trkpt lat="41.02522" lon="37.51797">
        <ele>12.394051</ele>
        <time>2021-08-19T01:01:31.535Z</time>
      </trkpt>
      <trkpt lat="41.0253" lon="37.51744">
        <ele>12.85555</ele>
        <time>2021-08-19T01:01:46.789Z</time>
      </trkpt>
      <trkpt lat="41.02534" lon="37.5172">
        <ele>13.071107</ele>
        <time>2021-08-19T01:01:54.155Z</time>
      </trkpt>
      <trkpt lat="41.02538" lon="37.517">
        <ele>13.244221</ele>
        <time>2021-08-19T01:02:00.069Z</time>
      </trkpt>
      <trkpt lat="41.02558" lon="37.51538">
        <ele>14.211671</ele>
        <time>2021-08-19T01:02:45.382Z</time>
      </trkpt>
      <trkpt lat="41.0256" lon="37.51523">
        <ele>14.299728</ele>
        <time>2021-08-19T01:02:49.591Z</time>
      </trkpt>
      <trkpt lat="41.02562" lon="37.51487">
        <ele>14.511216</ele>
        <time>2021-08-19T01:02:58.793Z</time>
      </trkpt>
      <trkpt lat="41.02573" lon="37.51315">
        <ele>14.669899</ele>
        <time>2021-08-19T01:03:40.222Z</time>
      </trkpt>
      <trkpt lat="41.02572" lon="37.51291">
        <ele>14.66744</ele>
        <time>2021-08-19T01:03:46.119Z</time>
      </trkpt>
      <trkpt lat="41.02564" lon="37.51234">
        <ele>14.661399</ele>
        <time>2021-08-19T01:03:58.955Z</time>
      </trkpt>
      <trkpt lat="41.02563" lon="37.51219">
        <ele>14.658166</ele>
        <time>2021-08-19T01:04:02.034Z</time>
      </trkpt>
      <trkpt lat="41.02562" lon="37.51202">
        <ele>14.619113</ele>
        <time>2021-08-19T01:04:06.061Z</time>
      </trkpt>
      <trkpt lat="41.02565" lon="37.51173">
        <ele>14.554014</ele>
        <time>2021-08-19T01:04:12.130Z</time>
      </trkpt>
      <trkpt lat="41.02567" lon="37.51156">
        <ele>14.514091</ele>
        <time>2021-08-19T01:04:16.241Z</time>
      </trkpt>
      <trkpt lat="41.02576" lon="37.51115">
        <ele>14.418104</ele>
        <time>2021-08-19T01:04:25.545Z</time>
      </trkpt>
      <trkpt lat="41.02586" lon="37.51073">
        <ele>14.319917</ele>
        <time>2021-08-19T01:04:35.104Z</time>
      </trkpt>
      <trkpt lat="41.02598" lon="37.51024">
        <ele>14.204376</ele>
        <time>2021-08-19T01:04:46.882Z</time>
      </trkpt>
      <trkpt lat="41.0261" lon="37.50973">
        <ele>14.222264</ele>
        <time>2021-08-19T01:04:59.595Z</time>
      </trkpt>
      <trkpt lat="41.02625" lon="37.50915">
        <ele>14.564466</ele>
        <time>2021-08-19T01:05:13.669Z</time>
      </trkpt>
      <trkpt lat="41.02647" lon="37.5082">
        <ele>15.118196</ele>
        <time>2021-08-19T01:05:40.717Z</time>
      </trkpt>
      <trkpt lat="41.02653" lon="37.50799">
        <ele>15.243163</ele>
        <time>2021-08-19T01:05:47.493Z</time>
      </trkpt>
      <trkpt lat="41.02655" lon="37.50792">
        <ele>15.282556</ele>
        <time>2021-08-19T01:05:49.602Z</time>
      </trkpt>
      <trkpt lat="41.02661" lon="37.5077">
        <ele>15.41587</ele>
        <time>2021-08-19T01:05:56.931Z</time>
      </trkpt>
      <trkpt lat="41.02669" lon="37.5074">
        <ele>15.710676</ele>
        <time>2021-08-19T01:06:06.587Z</time>
      </trkpt>
      <trkpt lat="41.0268" lon="37.50698">
        <ele>16.163611</ele>
        <time>2021-08-19T01:06:20.235Z</time>
      </trkpt>
      <trkpt lat="41.02691" lon="37.50654">
        <ele>16.628956</ele>
        <time>2021-08-19T01:06:34.162Z</time>
      </trkpt>
      <trkpt lat="41.02717" lon="37.50541">
        <ele>17.832292</ele>
        <time>2021-08-19T01:07:08.039Z</time>
      </trkpt>
      <trkpt lat="41.02726" lon="37.50498">
        <ele>17.908133</ele>
        <time>2021-08-19T01:07:20.863Z</time>
      </trkpt>
      <trkpt lat="41.02748" lon="37.50422">
        <ele>17.972394</ele>
        <time>2021-08-19T01:07:41.993Z</time>
      </trkpt>
      <trkpt lat="41.02755" lon="37.50404">
        <ele>17.988559</ele>
        <time>2021-08-19T01:07:46.200Z</time>
      </trkpt>
      <trkpt lat="41.02772" lon="37.50364">
        <ele>18.024267</ele>
        <time>2021-08-19T01:07:55.953Z</time>
      </trkpt>
      <trkpt lat="41.02773" lon="37.50351">
        <ele>18.034688</ele>
        <time>2021-08-19T01:07:59.174Z</time>
      </trkpt>
      <trkpt lat="41.02774" lon="37.50338">
        <ele>18.044626</ele>
        <time>2021-08-19T01:08:02.048Z</time>
      </trkpt>
      <trkpt lat="41.0276" lon="37.50281">
        <ele>17.888314</ele>
        <time>2021-08-19T01:08:14.234Z</time>
      </trkpt>
      <trkpt lat="41.02761" lon="37.50267">
        <ele>17.817887</ele>
        <time>2021-08-19T01:08:16.975Z</time>
      </trkpt>
      <trkpt lat="41.02762" lon="37.50263">
        <ele>17.796401</ele>
        <time>2021-08-19T01:08:18.476Z</time>
      </trkpt>
      <trkpt lat="41.02764" lon="37.50254">
        <ele>17.7504</ele>
        <time>2021-08-19T01:08:20.411Z</time>
      </trkpt>
      <trkpt lat="41.02776" lon="37.50216">
        <ele>17.542327</ele>
        <time>2021-08-19T01:08:29.192Z</time>
      </trkpt>
      <trkpt lat="41.02784" lon="37.50185">
        <ele>17.378389</ele>
        <time>2021-08-19T01:08:35.998Z</time>
      </trkpt>
      <trkpt lat="41.02798" lon="37.50135">
        <ele>17.111027</ele>
        <time>2021-08-19T01:08:47.978Z</time>
      </trkpt>
      <trkpt lat="41.02806" lon="37.50109">
        <ele>16.97466</ele>
        <time>2021-08-19T01:08:53.815Z</time>
      </trkpt>
      <trkpt lat="41.02826" lon="37.50031">
        <ele>16.82638</ele>
        <time>2021-08-19T01:09:11.037Z</time>
      </trkpt>
      <trkpt lat="41.02829" lon="37.50031">
        <ele>16.823649</ele>
        <time>2021-08-19T01:09:11.762Z</time>
      </trkpt>
      <trkpt lat="41.02854" lon="37.50023">
        <ele>16.79756</ele>
        <time>2021-08-19T01:09:19.652Z</time>
      </trkpt>
      <trkpt lat="41.0287" lon="37.50019">
        <ele>16.7814</ele>
        <time>2021-08-19T01:09:24.805Z</time>
      </trkpt>
      <trkpt lat="41.02876" lon="37.50007">
        <ele>16.770024</ele>
        <time>2021-08-19T01:09:28.631Z</time>
      </trkpt>
      <trkpt lat="41.02907" lon="37.49999">
        <ele>16.738419</ele>
        <time>2021-08-19T01:09:39.543Z</time>
      </trkpt>
      <trkpt lat="41.02933" lon="37.49993">
        <ele>16.712358</ele>
        <time>2021-08-19T01:09:48.647Z</time>
      </trkpt>
      <trkpt lat="41.02936" lon="37.49987">
        <ele>16.705969</ele>
        <time>2021-08-19T01:09:50.836Z</time>
      </trkpt>
      <trkpt lat="41.02974" lon="37.49917">
        <ele>16.380632</ele>
        <time>2021-08-19T01:10:13.158Z</time>
      </trkpt>
      <trkpt lat="41.0301" lon="37.49855">
        <ele>16.023381</ele>
        <time>2021-08-19T01:10:31.550Z</time>
      </trkpt>
      <trkpt lat="41.03045" lon="37.49794">
        <ele>15.673435</ele>
        <time>2021-08-19T01:10:47.306Z</time>
      </trkpt>
      <trkpt lat="41.03058" lon="37.49764">
        <ele>15.261493</ele>
        <time>2021-08-19T01:10:54.180Z</time>
      </trkpt>
      <trkpt lat="41.03063" lon="37.49757">
        <ele>15.095683</ele>
        <time>2021-08-19T01:10:55.985Z</time>
      </trkpt>
      <trkpt lat="41.03077" lon="37.49743">
        <ele>14.679376</ele>
        <time>2021-08-19T01:11:00.473Z</time>
      </trkpt>
      <trkpt lat="41.03124" lon="37.49698">
        <ele>13.290388</ele>
        <time>2021-08-19T01:11:14.757Z</time>
      </trkpt>
      <trkpt lat="41.03151" lon="37.4967">
        <ele>12.475349</ele>
        <time>2021-08-19T01:11:23.105Z</time>
      </trkpt>
      <trkpt lat="41.03177" lon="37.49662">
        <ele>11.857111</ele>
        <time>2021-08-19T01:11:29.484Z</time>
      </trkpt>
      <trkpt lat="41.03237" lon="37.49662">
        <ele>10.936633</ele>
        <time>2021-08-19T01:11:44.674Z</time>
      </trkpt>
      <trkpt lat="41.03248" lon="37.49662">
        <ele>10.816481</ele>
        <time>2021-08-19T01:11:47.810Z</time>
      </trkpt>
      <trkpt lat="41.03248" lon="37.49613">
        <ele>10.436931</ele>
        <time>2021-08-19T01:11:57.643Z</time>
      </trkpt>
      <trkpt lat="41.03281" lon="37.49611">
        <ele>10.092863</ele>
        <time>2021-08-19T01:12:07.553Z</time>
      </trkpt>
      <trkpt lat="41.03281" lon="37.49506">
        <ele>9.42264</ele>
        <time>2021-08-19T01:12:32.783Z</time>
      </trkpt>
      <trkpt lat="41.03331" lon="37.49505">
        <ele>9.285991</ele>
        <time>2021-08-19T01:12:49.317Z</time>
      </trkpt>
      <trkpt lat="41.0338" lon="37.49503">
        <ele>9.149069</ele>
        <time>2021-08-19T01:13:04.929Z</time>
      </trkpt>
      <trkpt lat="41.03379" lon="37.49391">
        <ele>8.782668</ele>
        <time>2021-08-19T01:13:30.040Z</time>
      </trkpt>
      <trkpt lat="41.03429" lon="37.49384">
        <ele>8.351894</ele>
        <time>2021-08-19T01:13:43.504Z</time>
      </trkpt>
      <trkpt lat="41.03477" lon="37.49377">
        <ele>7.939343</ele>
        <time>2021-08-19T01:13:56.808Z</time>
      </trkpt>
      <trkpt lat="41.03503" lon="37.49381">
        <ele>7.712788</ele>
        <time>2021-08-19T01:14:04.017Z</time>
      </trkpt>
      <trkpt lat="41.03519" lon="37.49392">
        <ele>7.564252</ele>
        <time>2021-08-19T01:14:08.868Z</time>
      </trkpt>
      <trkpt lat="41.03527" lon="37.49403">
        <ele>7.463036</ele>
        <time>2021-08-19T01:14:11.979Z</time>
      </trkpt>
      <trkpt lat="41.03543" lon="37.49447">
        <ele>7.219144</ele>
        <time>2021-08-19T01:14:21.874Z</time>
      </trkpt>
      <trkpt lat="41.03549" lon="37.49462">
        <ele>7.129626</ele>
        <time>2021-08-19T01:14:25.732Z</time>
      </trkpt>
      <trkpt lat="41.03562" lon="37.49469">
        <ele>7.039473</ele>
        <time>2021-08-19T01:14:29.502Z</time>
      </trkpt>
      <trkpt lat="41.03575" lon="37.49451">
        <ele>6.917605</ele>
        <time>2021-08-19T01:14:34.683Z</time>
      </trkpt>
      <trkpt lat="41.03655" lon="37.49342">
        <ele>6.181162</ele>
        <time>2021-08-19T01:15:07.481Z</time>
      </trkpt>
      <trkpt lat="41.03675" lon="37.49319">
        <ele>6.047372</ele>
        <time>2021-08-19T01:15:15.011Z</time>
      </trkpt>
      <trkpt lat="41.03794" lon="37.49174">
        <ele>5.277893</ele>
        <time>2021-08-19T01:16:01.790Z</time>
      </trkpt>
      <trkpt lat="41.03881" lon="37.49079">
        <ele>5.022968</ele>
        <time>2021-08-19T01:16:34.833Z</time>
      </trkpt>
      <trkpt lat="41.03936" lon="37.49031">
        <ele>4.979639</ele>
        <time>2021-08-19T01:16:55.887Z</time>
      </trkpt>
      <trkpt lat="41.03961" lon="37.49009">
        <ele>5.060578</ele>
        <time>2021-08-19T01:17:05.444Z</time>
      </trkpt>
      <trkpt lat="41.03979" lon="37.48984">
        <ele>5.130604</ele>
        <time>2021-08-19T01:17:14.187Z</time>
      </trkpt>
      <trkpt lat="41.04075" lon="37.48849">
        <ele>5.526077</ele>
        <time>2021-08-19T01:18:00.244Z</time>
      </trkpt>
      <trkpt lat="41.04126" lon="37.48794">
        <ele>5.739668</ele>
        <time>2021-08-19T01:18:22.456Z</time>
      </trkpt>
      <trkpt lat="41.04397" lon="37.4855">
        <ele>7.108368</ele>
        <time>2021-08-19T01:20:08.366Z</time>
      </trkpt>
      <trkpt lat="41.04548" lon="37.48427">
        <ele>9.116252</ele>
        <time>2021-08-19T01:21:17.794Z</time>
      </trkpt>
      <trkpt lat="41.04576" lon="37.48405">
        <ele>9.579923</ele>
        <time>2021-08-19T01:21:31.597Z</time>
      </trkpt>
      <trkpt lat="41.04671" lon="37.4833">
        <ele>10.569391</ele>
        <time>2021-08-19T01:22:15.254Z</time>
      </trkpt>
      <trkpt lat="41.05052" lon="37.48037">
        <ele>8.526916</ele>
        <time>2021-08-19T01:24:18.871Z</time>
      </trkpt>
      <trkpt lat="41.05214" lon="37.47931">
        <ele>7.7484</ele>
        <time>2021-08-19T01:25:11.905Z</time>
      </trkpt>
      <trkpt lat="41.05383" lon="37.47846">
        <ele>6.753804</ele>
        <time>2021-08-19T01:26:05.212Z</time>
      </trkpt>
      <trkpt lat="41.05537" lon="37.47797">
        <ele>5.491693</ele>
        <time>2021-08-19T01:26:46.723Z</time>
      </trkpt>
      <trkpt lat="41.05562" lon="37.4779">
        <ele>5.273339</ele>
        <time>2021-08-19T01:26:53.966Z</time>
      </trkpt>
      <trkpt lat="41.05564" lon="37.47798">
        <ele>5.222002</ele>
        <time>2021-08-19T01:26:55.176Z</time>
      </trkpt>
      <trkpt lat="41.05576" lon="37.4781">
        <ele>5.083042</ele>
        <time>2021-08-19T01:27:00.080Z</time>
      </trkpt>
      <trkpt lat="41.05593" lon="37.47809">
        <ele>4.938368</ele>
        <time>2021-08-19T01:27:04.804Z</time>
      </trkpt>
      <trkpt lat="41.05595" lon="37.47808">
        <ele>4.920896</ele>
        <time>2021-08-19T01:27:05.168Z</time>
      </trkpt>
      <trkpt lat="41.056" lon="37.47805">
        <ele>4.86848</ele>
        <time>2021-08-19T01:27:06.933Z</time>
      </trkpt>
      <trkpt lat="41.05652" lon="37.47774">
        <ele>5.912663</ele>
        <time>2021-08-19T01:27:23.724Z</time>
      </trkpt>
      <trkpt lat="41.05773" lon="37.47734">
        <ele>9.600251</ele>
        <time>2021-08-19T01:28:28.220Z</time>
      </trkpt>
      <trkpt lat="41.05788" lon="37.4774">
        <ele>10.107552</ele>
        <time>2021-08-19T01:28:37.787Z</time>
      </trkpt>
      <trkpt lat="41.05801" lon="37.47756">
        <ele>11.176469</ele>
        <time>2021-08-19T01:28:49.049Z</time>
      </trkpt>
      <trkpt lat="41.058" lon="37.47744">
        <ele>11.76294</ele>
        <time>2021-08-19T01:28:57.807Z</time>
      </trkpt>
      <trkpt lat="41.05801" lon="37.47731">
        <ele>12.364405</ele>
        <time>2021-08-19T01:29:02.652Z</time>
      </trkpt>
      <trkpt lat="41.05809" lon="37.47721">
        <ele>13.028414</ele>
        <time>2021-08-19T01:29:08.487Z</time>
      </trkpt>
      <trkpt lat="41.0582" lon="37.4771">
        <ele>13.850235</ele>
        <time>2021-08-19T01:29:21.453Z</time>
      </trkpt>
      <trkpt lat="41.05836" lon="37.47705">
        <ele>14.876286</ele>
        <time>2021-08-19T01:29:30.304Z</time>
      </trkpt>
      <trkpt lat="41.05843" lon="37.47704">
        <ele>15.272978</ele>
        <time>2021-08-19T01:29:34.086Z</time>
      </trkpt>
      <trkpt lat="41.0585" lon="37.47701">
        <ele>15.745837</ele>
        <time>2021-08-19T01:29:42.387Z</time>
      </trkpt>
      <trkpt lat="41.05909" lon="37.4768">
        <ele>19.463445</ele>
        <time>2021-08-19T01:30:22.733Z</time>
      </trkpt>
      <trkpt lat="41.05968" lon="37.47641">
        <ele>21.681486</ele>
        <time>2021-08-19T01:31:06.209Z</time>
      </trkpt>
      <trkpt lat="41.06037" lon="37.47581">
        <ele>23.095539</ele>
        <time>2021-08-19T01:31:38.370Z</time>
      </trkpt>
      <trkpt lat="41.06102" lon="37.47508">
        <ele>23.276819</ele>
        <time>2021-08-19T01:32:00.598Z</time>
      </trkpt>
      <trkpt lat="41.0612" lon="37.47485">
        <ele>22.601505</ele>
        <time>2021-08-19T01:32:06.585Z</time>
      </trkpt>
      <trkpt lat="41.06133" lon="37.47468">
        <ele>22.116585</ele>
        <time>2021-08-19T01:32:10.820Z</time>
      </trkpt>
      <trkpt lat="41.06193" lon="37.47379">
        <ele>19.684886</ele>
        <time>2021-08-19T01:32:31.262Z</time>
      </trkpt>
      <trkpt lat="41.06221" lon="37.47326">
        <ele>18.347417</ele>
        <time>2021-08-19T01:32:42.236Z</time>
      </trkpt>
      <trkpt lat="41.06262" lon="37.47254">
        <ele>16.49604</ele>
        <time>2021-08-19T01:32:58.177Z</time>
      </trkpt>
      <trkpt lat="41.06338" lon="37.47116">
        <ele>13.458997</ele>
        <time>2021-08-19T01:33:28.877Z</time>
      </trkpt>
      <trkpt lat="41.06377" lon="37.47058">
        <ele>12.494642</ele>
        <time>2021-08-19T01:33:43.378Z</time>
      </trkpt>
      <trkpt lat="41.06403" lon="37.47025">
        <ele>11.892567</ele>
        <time>2021-08-19T01:33:52.687Z</time>
      </trkpt>
      <trkpt lat="41.06413" lon="37.47011">
        <ele>11.642536</ele>
        <time>2021-08-19T01:33:56.558Z</time>
      </trkpt>
      <trkpt lat="41.06615" lon="37.4679">
        <ele>10.588993</ele>
        <time>2021-08-19T01:35:14.323Z</time>
      </trkpt>
      <trkpt lat="41.06647" lon="37.46752">
        <ele>10.584441</ele>
        <time>2021-08-19T01:35:28.454Z</time>
      </trkpt>
      <trkpt lat="41.06656" lon="37.46753">
        <ele>10.583506</ele>
        <time>2021-08-19T01:35:31.576Z</time>
      </trkpt>
      <trkpt lat="41.06746" lon="37.46634">
        <ele>10.306495</ele>
        <time>2021-08-19T01:36:12.784Z</time>
      </trkpt>
      <trkpt lat="41.06771" lon="37.46591">
        <ele>10.116103</ele>
        <time>2021-08-19T01:36:25.226Z</time>
      </trkpt>
      <trkpt lat="41.06808" lon="37.46518">
        <ele>9.81236</ele>
        <time>2021-08-19T01:36:44.470Z</time>
      </trkpt>
      <trkpt lat="41.06853" lon="37.46418">
        <ele>9.125142</ele>
        <time>2021-08-19T01:37:09.778Z</time>
      </trkpt>
      <trkpt lat="41.0689" lon="37.46312">
        <ele>8.382975</ele>
        <time>2021-08-19T01:37:35.087Z</time>
      </trkpt>
      <trkpt lat="41.06888" lon="37.4629">
        <ele>8.245177</ele>
        <time>2021-08-19T01:37:39.865Z</time>
      </trkpt>
      <trkpt lat="41.06913" lon="37.46189">
        <ele>7.897968</ele>
        <time>2021-08-19T01:38:02.859Z</time>
      </trkpt>
      <trkpt lat="41.06937" lon="37.46049">
        <ele>7.472552</ele>
        <time>2021-08-19T01:38:34.799Z</time>
      </trkpt>
      <trkpt lat="41.06965" lon="37.45829">
        <ele>7.454007</ele>
        <time>2021-08-19T01:39:27.150Z</time>
      </trkpt>
      <trkpt lat="41.07008" lon="37.45591">
        <ele>7.916393</ele>
        <time>2021-08-19T01:40:26.808Z</time>
      </trkpt>
      <trkpt lat="41.07068" lon="37.4535">
        <ele>9.109362</ele>
        <time>2021-08-19T01:41:34.452Z</time>
      </trkpt>
      <trkpt lat="41.0713" lon="37.45151">
        <ele>9.755625</ele>
        <time>2021-08-19T01:42:29.253Z</time>
      </trkpt>
      <trkpt lat="41.07228" lon="37.44904">
        <ele>9.567706</ele>
        <time>2021-08-19T01:43:33.041Z</time>
      </trkpt>
      <trkpt lat="41.07236" lon="37.44882">
        <ele>9.53515</ele>
        <time>2021-08-19T01:43:38.613Z</time>
      </trkpt>
      <trkpt lat="41.07318" lon="37.44635">
        <ele>8.911159</ele>
        <time>2021-08-19T01:44:40.282Z</time>
      </trkpt>
      <trkpt lat="41.07493" lon="37.44149">
        <ele>6.963771</ele>
        <time>2021-08-19T01:46:34.729Z</time>
      </trkpt>
      <trkpt lat="41.0751" lon="37.44102">
        <ele>6.862774</ele>
        <time>2021-08-19T01:46:46.948Z</time>
      </trkpt>
      <trkpt lat="41.07558" lon="37.43954">
        <ele>7.860683</ele>
        <time>2021-08-19T01:47:29.598Z</time>
      </trkpt>
      <trkpt lat="41.07588" lon="37.43839">
        <ele>8.909994</ele>
        <time>2021-08-19T01:48:07.444Z</time>
      </trkpt>
      <trkpt lat="41.07613" lon="37.43716">
        <ele>10.019075</ele>
        <time>2021-08-19T01:48:45.596Z</time>
      </trkpt>
      <trkpt lat="41.07618" lon="37.43694">
        <ele>10.215242</ele>
        <time>2021-08-19T01:48:51.915Z</time>
      </trkpt>
      <trkpt lat="41.07629" lon="37.43623">
        <ele>10.843329</ele>
        <time>2021-08-19T01:49:11.885Z</time>
      </trkpt>
      <trkpt lat="41.07632" lon="37.43604">
        <ele>10.896133</ele>
        <time>2021-08-19T01:49:16.926Z</time>
      </trkpt>
      <trkpt lat="41.07776" lon="37.42566">
        <ele>9.05855</ele>
        <time>2021-08-19T01:53:14.387Z</time>
      </trkpt>
      <trkpt lat="41.07799" lon="37.4245">
        <ele>8.776327</ele>
        <time>2021-08-19T01:53:40.792Z</time>
      </trkpt>
      <trkpt lat="41.07827" lon="37.42339">
        <ele>8.826911</ele>
        <time>2021-08-19T01:54:07.795Z</time>
      </trkpt>
      <trkpt lat="41.07902" lon="37.4215">
        <ele>9.096841</ele>
        <time>2021-08-19T01:55:00.964Z</time>
      </trkpt>
      <trkpt lat="41.07952" lon="37.42054">
        <ele>9.363448</ele>
        <time>2021-08-19T01:55:30.411Z</time>
      </trkpt>
      <trkpt lat="41.08008" lon="37.41963">
        <ele>9.367804</ele>
        <time>2021-08-19T01:55:57.862Z</time>
      </trkpt>
      <trkpt lat="41.08074" lon="37.41882">
        <ele>9.254086</ele>
        <time>2021-08-19T01:56:24.660Z</time>
      </trkpt>
      <trkpt lat="41.08134" lon="37.41821">
        <ele>9.224922</ele>
        <time>2021-08-19T01:56:47.311Z</time>
      </trkpt>
      <trkpt lat="41.08143" lon="37.41836">
        <ele>9.227178</ele>
        <time>2021-08-19T01:56:52.137Z</time>
      </trkpt>
      <trkpt lat="41.08302" lon="37.41827">
        <ele>9.398638</ele>
        <time>2021-08-19T01:57:44.647Z</time>
      </trkpt>
      <trkpt lat="41.08357" lon="37.41809">
        <ele>9.614081</ele>
        <time>2021-08-19T01:58:04.856Z</time>
      </trkpt>
      <trkpt lat="41.08386" lon="37.41793">
        <ele>9.731166</ele>
        <time>2021-08-19T01:58:15.958Z</time>
      </trkpt>
      <trkpt lat="41.08656" lon="37.41366">
        <ele>11.086035</ele>
        <time>2021-08-19T02:00:41.851Z</time>
      </trkpt>
      <trkpt lat="41.08653" lon="37.41348">
        <ele>10.942977</ele>
        <time>2021-08-19T02:00:46.064Z</time>
      </trkpt>
      <trkpt lat="41.08914" lon="37.41118">
        <ele>7.746258</ele>
        <time>2021-08-19T02:02:08.129Z</time>
      </trkpt>
      <trkpt lat="41.0932" lon="37.40749">
        <ele>8.269127</ele>
        <time>2021-08-19T02:04:45.496Z</time>
      </trkpt>
      <trkpt lat="41.0938" lon="37.40696">
        <ele>8.545038</ele>
        <time>2021-08-19T02:05:11.052Z</time>
      </trkpt>
      <trkpt lat="41.0945" lon="37.40635">
        <ele>8.772467</ele>
        <time>2021-08-19T02:05:40.046Z</time>
      </trkpt>
      <trkpt lat="41.09556" lon="37.40543">
        <ele>8.887194</ele>
        <time>2021-08-19T02:06:19.177Z</time>
      </trkpt>
      <trkpt lat="41.09574" lon="37.40523">
        <ele>8.784827</ele>
        <time>2021-08-19T02:06:25.909Z</time>
      </trkpt>
      <trkpt lat="41.0962" lon="37.40471">
        <ele>8.519796</ele>
        <time>2021-08-19T02:06:43.014Z</time>
      </trkpt>
      <trkpt lat="41.0983" lon="37.40202">
        <ele>7.441387</ele>
        <time>2021-08-19T02:08:07.808Z</time>
      </trkpt>
      <trkpt lat="41.09969" lon="37.39996">
        <ele>7.144049</ele>
        <time>2021-08-19T02:09:12.258Z</time>
      </trkpt>
      <trkpt lat="41.10037" lon="37.39881">
        <ele>7.010841</ele>
        <time>2021-08-19T02:09:45.655Z</time>
      </trkpt>
      <trkpt lat="41.10157" lon="37.39654">
        <ele>6.841724</ele>
        <time>2021-08-19T02:10:49.086Z</time>
      </trkpt>
      <trkpt lat="41.10262" lon="37.39424">
        <ele>7.402652</ele>
        <time>2021-08-19T02:11:55.054Z</time>
      </trkpt>
      <trkpt lat="41.10398" lon="37.39052">
        <ele>9.739728</ele>
        <time>2021-08-19T02:13:45.475Z</time>
      </trkpt>
      <trkpt lat="41.10436" lon="37.38926">
        <ele>11.3817</ele>
        <time>2021-08-19T02:14:26.163Z</time>
      </trkpt>
      <trkpt lat="41.10468" lon="37.388">
        <ele>12.904301</ele>
        <time>2021-08-19T02:15:08.924Z</time>
      </trkpt>
      <trkpt lat="41.10495" lon="37.38679">
        <ele>14.198127</ele>
        <time>2021-08-19T02:15:46.671Z</time>
      </trkpt>
      <trkpt lat="41.10519" lon="37.38557">
        <ele>14.941507</ele>
        <time>2021-08-19T02:16:20.154Z</time>
      </trkpt>
      <trkpt lat="41.10559" lon="37.38301">
        <ele>14.988101</ele>
        <time>2021-08-19T02:17:20.065Z</time>
      </trkpt>
      <trkpt lat="41.10566" lon="37.38231">
        <ele>14.898308</ele>
        <time>2021-08-19T02:17:36.005Z</time>
      </trkpt>
      <trkpt lat="41.10572" lon="37.38176">
        <ele>14.827513</ele>
        <time>2021-08-19T02:17:48.622Z</time>
      </trkpt>
      <trkpt lat="41.10576" lon="37.38128">
        <ele>14.758651</ele>
        <time>2021-08-19T02:17:59.800Z</time>
      </trkpt>
      <trkpt lat="41.1058" lon="37.38077">
        <ele>14.673249</ele>
        <time>2021-08-19T02:18:11.616Z</time>
      </trkpt>
      <trkpt lat="41.10645" lon="37.37259">
        <ele>13.182739</ele>
        <time>2021-08-19T02:21:17.668Z</time>
      </trkpt>
      <trkpt lat="41.10672" lon="37.3701">
        <ele>12.375574</ele>
        <time>2021-08-19T02:22:12.329Z</time>
      </trkpt>
      <trkpt lat="41.10685" lon="37.3671">
        <ele>11.792336</ele>
        <time>2021-08-19T02:23:19.510Z</time>
      </trkpt>
      <trkpt lat="41.10727" lon="37.36153">
        <ele>13.829963</ele>
        <time>2021-08-19T02:25:41.435Z</time>
      </trkpt>
      <trkpt lat="41.10763" lon="37.3585">
        <ele>16.045498</ele>
        <time>2021-08-19T02:27:09.242Z</time>
      </trkpt>
      <trkpt lat="41.10787" lon="37.35708">
        <ele>16.712946</ele>
        <time>2021-08-19T02:27:47.481Z</time>
      </trkpt>
      <trkpt lat="41.10823" lon="37.35533">
        <ele>16.887973</ele>
        <time>2021-08-19T02:28:30.125Z</time>
      </trkpt>
      <trkpt lat="41.10939" lon="37.34878">
        <ele>14.637973</ele>
        <time>2021-08-19T02:30:58.063Z</time>
      </trkpt>
      <trkpt lat="41.11163" lon="37.33741">
        <ele>6.515131</ele>
        <time>2021-08-19T02:34:59.227Z</time>
      </trkpt>
      <trkpt lat="41.11206" lon="37.33559">
        <ele>5.810108</ele>
        <time>2021-08-19T02:35:39.877Z</time>
      </trkpt>
      <trkpt lat="41.11246" lon="37.33309">
        <ele>5.499388</ele>
        <time>2021-08-19T02:36:40.109Z</time>
      </trkpt>
      <trkpt lat="41.11287" lon="37.33107">
        <ele>5.501367</ele>
        <time>2021-08-19T02:37:27.908Z</time>
      </trkpt>
      <trkpt lat="41.11309" lon="37.32999">
        <ele>5.523538</ele>
        <time>2021-08-19T02:37:54.449Z</time>
      </trkpt>
      <trkpt lat="41.11365" lon="37.32783">
        <ele>7.0742</ele>
        <time>2021-08-19T02:38:57.108Z</time>
      </trkpt>
      <trkpt lat="41.11367" lon="37.32774">
        <ele>7.143632</ele>
        <time>2021-08-19T02:39:00.423Z</time>
      </trkpt>
      <trkpt lat="41.11372" lon="37.32757">
        <ele>7.278163</ele>
        <time>2021-08-19T02:39:05.465Z</time>
      </trkpt>
      <trkpt lat="41.11375" lon="37.32747">
        <ele>7.365877</ele>
        <time>2021-08-19T02:39:08.743Z</time>
      </trkpt>
      <trkpt lat="41.11402" lon="37.32521">
        <ele>9.067208</ele>
        <time>2021-08-19T02:40:13.436Z</time>
      </trkpt>
      <trkpt lat="41.115" lon="37.3202">
        <ele>9.912184</ele>
        <time>2021-08-19T02:42:20.309Z</time>
      </trkpt>
      <trkpt lat="41.11611" lon="37.3145">
        <ele>7.22662</ele>
        <time>2021-08-19T02:44:25.888Z</time>
      </trkpt>
      <trkpt lat="41.11632" lon="37.31346">
        <ele>6.543324</ele>
        <time>2021-08-19T02:44:47.331Z</time>
      </trkpt>
      <trkpt lat="41.11653" lon="37.31235">
        <ele>5.832238</ele>
        <time>2021-08-19T02:45:10.156Z</time>
      </trkpt>
      <trkpt lat="41.11675" lon="37.31114">
        <ele>5.507483</ele>
        <time>2021-08-19T02:45:37.826Z</time>
      </trkpt>
      <trkpt lat="41.11682" lon="37.31093">
        <ele>5.635931</ele>
        <time>2021-08-19T02:45:43.701Z</time>
      </trkpt>
      <trkpt lat="41.11692" lon="37.31062">
        <ele>5.816093</ele>
        <time>2021-08-19T02:45:52.411Z</time>
      </trkpt>
      <trkpt lat="41.11715" lon="37.31003">
        <ele>6.183846</ele>
        <time>2021-08-19T02:46:10.838Z</time>
      </trkpt>
      <trkpt lat="41.11715" lon="37.31001">
        <ele>6.195951</ele>
        <time>2021-08-19T02:46:11.480Z</time>
      </trkpt>
      <trkpt lat="41.11716" lon="37.30997">
        <ele>6.218075</ele>
        <time>2021-08-19T02:46:12.633Z</time>
      </trkpt>
      <trkpt lat="41.11744" lon="37.30894">
        <ele>6.857736</ele>
        <time>2021-08-19T02:46:44.536Z</time>
      </trkpt>
      <trkpt lat="41.1177" lon="37.30783">
        <ele>7.617033</ele>
        <time>2021-08-19T02:47:18.310Z</time>
      </trkpt>
      <trkpt lat="41.12054" lon="37.29993">
        <ele>8.667859</ele>
        <time>2021-08-19T02:50:48.597Z</time>
      </trkpt>
      <trkpt lat="41.12136" lon="37.29812">
        <ele>7.962542</ele>
        <time>2021-08-19T02:51:33.544Z</time>
      </trkpt>
      <trkpt lat="41.12396" lon="37.2932">
        <ele>5.95832</ele>
        <time>2021-08-19T02:53:43.432Z</time>
      </trkpt>
      <trkpt lat="41.12389" lon="37.29316">
        <ele>5.944129</ele>
        <time>2021-08-19T02:53:46.071Z</time>
      </trkpt>
      <trkpt lat="41.12336" lon="37.29276">
        <ele>6.034942</ele>
        <time>2021-08-19T02:54:07.008Z</time>
      </trkpt>
      <trkpt lat="41.12335" lon="37.29259">
        <ele>6.145507</ele>
        <time>2021-08-19T02:54:11.350Z</time>
      </trkpt>
      <trkpt lat="41.12335" lon="37.29245">
        <ele>6.240497</ele>
        <time>2021-08-19T02:54:15.145Z</time>
      </trkpt>
      <trkpt lat="41.12334" lon="37.29205">
        <ele>6.51462</ele>
        <time>2021-08-19T02:54:26.413Z</time>
      </trkpt>
      <trkpt lat="41.12334" lon="37.29202">
        <ele>6.536323</ele>
        <time>2021-08-19T02:54:27.315Z</time>
      </trkpt>
      <trkpt lat="41.12336" lon="37.2916">
        <ele>6.818984</ele>
        <time>2021-08-19T02:54:39.351Z</time>
      </trkpt>
      <trkpt lat="41.12338" lon="37.29152">
        <ele>6.875508</ele>
        <time>2021-08-19T02:54:41.787Z</time>
      </trkpt>
      <trkpt lat="41.12345" lon="37.29142">
        <ele>6.96416</ele>
        <time>2021-08-19T02:54:45.699Z</time>
      </trkpt>
      <trkpt lat="41.1235" lon="37.29138">
        <ele>7.016679</ele>
        <time>2021-08-19T02:54:48.001Z</time>
      </trkpt>
      <trkpt lat="41.12363" lon="37.29126">
        <ele>7.164842</ele>
        <time>2021-08-19T02:54:54.024Z</time>
      </trkpt>
      <trkpt lat="41.12383" lon="37.29107">
        <ele>7.383541</ele>
        <time>2021-08-19T02:55:02.911Z</time>
      </trkpt>
      <trkpt lat="41.12387" lon="37.29104">
        <ele>7.428177</ele>
        <time>2021-08-19T02:55:04.624Z</time>
      </trkpt>
      <trkpt lat="41.12478" lon="37.29022">
        <ele>7.970453</ele>
        <time>2021-08-19T02:55:42.400Z</time>
      </trkpt>
      <trkpt lat="41.12526" lon="37.28992">
        <ele>8.220522</ele>
        <time>2021-08-19T02:56:00.158Z</time>
      </trkpt>
      <trkpt lat="41.12545" lon="37.28979">
        <ele>8.319942</ele>
        <time>2021-08-19T02:56:06.855Z</time>
      </trkpt>
      <trkpt lat="41.12647" lon="37.28914">
        <ele>8.304471</ele>
        <time>2021-08-19T02:56:41.524Z</time>
      </trkpt>
      <trkpt lat="41.1266" lon="37.28906">
        <ele>8.300964</ele>
        <time>2021-08-19T02:56:45.828Z</time>
      </trkpt>
      <trkpt lat="41.12705" lon="37.28878">
        <ele>8.288629</ele>
        <time>2021-08-19T02:57:01.496Z</time>
      </trkpt>
      <trkpt lat="41.12722" lon="37.28867">
        <ele>8.281109</ele>
        <time>2021-08-19T02:57:07.348Z</time>
      </trkpt>
      <trkpt lat="41.12827" lon="37.28797">
        <ele>8.226505</ele>
        <time>2021-08-19T02:57:43.418Z</time>
      </trkpt>
      <trkpt lat="41.12832" lon="37.28794">
        <ele>8.224107</ele>
        <time>2021-08-19T02:57:44.969Z</time>
      </trkpt>
      <trkpt lat="41.12833" lon="37.28794">
        <ele>8.223656</ele>
        <time>2021-08-19T02:57:45.400Z</time>
      </trkpt>
      <trkpt lat="41.12834" lon="37.28793">
        <ele>8.222993</ele>
        <time>2021-08-19T02:57:45.835Z</time>
      </trkpt>
      <trkpt lat="41.12837" lon="37.28791">
        <ele>8.221652</ele>
        <time>2021-08-19T02:57:46.696Z</time>
      </trkpt>
      <trkpt lat="41.12897" lon="37.28755">
        <ele>8.191564</ele>
        <time>2021-08-19T02:58:06.949Z</time>
      </trkpt>
      <trkpt lat="41.1293" lon="37.28734">
        <ele>8.175288</ele>
        <time>2021-08-19T02:58:18.281Z</time>
      </trkpt>
      <trkpt lat="41.12947" lon="37.28723">
        <ele>8.166564</ele>
        <time>2021-08-19T02:58:24.506Z</time>
      </trkpt>
      <trkpt lat="41.12968" lon="37.28711">
        <ele>8.156368</ele>
        <time>2021-08-19T02:58:31.648Z</time>
      </trkpt>
      <trkpt lat="41.12974" lon="37.28707">
        <ele>8.1536</ele>
        <time>2021-08-19T02:58:33.499Z</time>
      </trkpt>
      <trkpt lat="41.12988" lon="37.28698">
        <ele>8.146688</ele>
        <time>2021-08-19T02:58:38.287Z</time>
      </trkpt>
      <trkpt lat="41.13027" lon="37.28674">
        <ele>8.127182</ele>
        <time>2021-08-19T02:58:51.533Z</time>
      </trkpt>
      <trkpt lat="41.13063" lon="37.28652">
        <ele>7.898875</ele>
        <time>2021-08-19T02:59:03.607Z</time>
      </trkpt>
      <trkpt lat="41.13059" lon="37.28637">
        <ele>7.813476</ele>
        <time>2021-08-19T02:59:07.129Z</time>
      </trkpt>
      <trkpt lat="41.13056" lon="37.28625">
        <ele>7.739872</ele>
        <time>2021-08-19T02:59:10.395Z</time>
      </trkpt>
      <trkpt lat="41.13058" lon="37.28624">
        <ele>7.721801</ele>
        <time>2021-08-19T02:59:11.146Z</time>
      </trkpt>
      <trkpt lat="41.13063" lon="37.28616">
        <ele>7.668617</ele>
        <time>2021-08-19T02:59:13.342Z</time>
      </trkpt>
      <trkpt lat="41.13063" lon="37.28612">
        <ele>7.650062</ele>
        <time>2021-08-19T02:59:14.114Z</time>
      </trkpt>
      <trkpt lat="41.13127" lon="37.28583">
        <ele>7.154407</ele>
        <time>2021-08-19T02:59:33.545Z</time>
      </trkpt>
      <trkpt lat="41.13149" lon="37.28586">
        <ele>7.00024</ele>
        <time>2021-08-19T02:59:39.484Z</time>
      </trkpt>
      <trkpt lat="41.13158" lon="37.28609">
        <ele>6.855193</ele>
        <time>2021-08-19T02:59:44.643Z</time>
      </trkpt>
      <trkpt lat="41.13166" lon="37.28614">
        <ele>6.755873</ele>
        <time>2021-08-19T02:59:46.942Z</time>
      </trkpt>
      <trkpt lat="41.13214" lon="37.2863">
        <ele>5.81414</ele>
        <time>2021-08-19T02:59:59.712Z</time>
      </trkpt>
      <trkpt lat="41.13237" lon="37.28644">
        <ele>5.323447</ele>
        <time>2021-08-19T03:00:06.410Z</time>
      </trkpt>
      <trkpt lat="41.13239" lon="37.28654">
        <ele>5.190201</ele>
        <time>2021-08-19T03:00:08.146Z</time>
      </trkpt>
      <trkpt lat="41.13241" lon="37.28662">
        <ele>5.06294</ele>
        <time>2021-08-19T03:00:09.799Z</time>
      </trkpt>
      <trkpt lat="41.13242" lon="37.28671">
        <ele>4.931083</ele>
        <time>2021-08-19T03:00:11.490Z</time>
      </trkpt>
      <trkpt lat="41.13278" lon="37.28677">
        <ele>4.241129</ele>
        <time>2021-08-19T03:00:20.319Z</time>
      </trkpt>
      <trkpt lat="41.13338" lon="37.28706">
        <ele>3.294833</ele>
        <time>2021-08-19T03:00:36.163Z</time>
      </trkpt>
      <trkpt lat="41.13433" lon="37.28765">
        <ele>2.667163</ele>
        <time>2021-08-19T03:01:07.037Z</time>
      </trkpt>
      <trkpt lat="41.13447" lon="37.28778">
        <ele>2.56471</ele>
        <time>2021-08-19T03:01:11.815Z</time>
      </trkpt>
      <trkpt lat="41.13464" lon="37.28798">
        <ele>2.42606</ele>
        <time>2021-08-19T03:01:19.765Z</time>
      </trkpt>
      <trkpt lat="41.13488" lon="37.28857">
        <ele>2.424419</ele>
        <time>2021-08-19T03:01:33.742Z</time>
      </trkpt>
      <trkpt lat="41.13493" lon="37.28876">
        <ele>2.462633</ele>
        <time>2021-08-19T03:01:39.273Z</time>
      </trkpt>
      <trkpt lat="41.135" lon="37.28874">
        <ele>2.479636</ele>
        <time>2021-08-19T03:01:41.464Z</time>
      </trkpt>
      <trkpt lat="41.13504" lon="37.28871">
        <ele>2.491647</ele>
        <time>2021-08-19T03:01:42.753Z</time>
      </trkpt>
      <trkpt lat="41.1351" lon="37.28921">
        <ele>2.586436</ele>
        <time>2021-08-19T03:01:54.341Z</time>
      </trkpt>
      <trkpt lat="41.13516" lon="37.28971">
        <ele>2.681185</ele>
        <time>2021-08-19T03:02:06.922Z</time>
      </trkpt>
      <trkpt lat="41.13521" lon="37.29001">
        <ele>2.738579</ele>
        <time>2021-08-19T03:02:15.174Z</time>
      </trkpt>
      <trkpt lat="41.13527" lon="37.29011">
        <ele>2.762516</ele>
        <time>2021-08-19T03:02:18.913Z</time>
      </trkpt>
      <trkpt lat="41.1355" lon="37.2903">
        <ele>3.456968</ele>
        <time>2021-08-19T03:02:31.759Z</time>
      </trkpt>
      <trkpt lat="41.13589" lon="37.29045">
        <ele>4.920171</ele>
        <time>2021-08-19T03:02:49.405Z</time>
      </trkpt>
      <trkpt lat="41.13612" lon="37.29051">
        <ele>5.754966</ele>
        <time>2021-08-19T03:02:58.629Z</time>
      </trkpt>
      <trkpt lat="41.13648" lon="37.29076">
        <ele>7.210451</ele>
        <time>2021-08-19T03:03:22.067Z</time>
      </trkpt>
      <trkpt lat="41.13653" lon="37.29082">
        <ele>7.46008</ele>
        <time>2021-08-19T03:03:27.531Z</time>
      </trkpt>
      <trkpt lat="41.13656" lon="37.29076">
        <ele>7.662382</ele>
        <time>2021-08-19T03:03:31.934Z</time>
      </trkpt>
      <trkpt lat="41.13673" lon="37.29073">
        <ele>8.247005</ele>
        <time>2021-08-19T03:03:38.952Z</time>
      </trkpt>
      <trkpt lat="41.13681" lon="37.29075">
        <ele>8.563982</ele>
        <time>2021-08-19T03:03:46.048Z</time>
      </trkpt>
      <trkpt lat="41.13716" lon="37.29062">
        <ele>10.238273</ele>
        <time>2021-08-19T03:04:09.383Z</time>
      </trkpt>
      <trkpt lat="41.1373" lon="37.29052">
        <ele>11.190347</ele>
        <time>2021-08-19T03:04:23.304Z</time>
      </trkpt>
      <trkpt lat="41.13724" lon="37.29071">
        <ele>12.124655</ele>
        <time>2021-08-19T03:04:28.448Z</time>
      </trkpt>
      <trkpt lat="41.13739" lon="37.29059">
        <ele>13.171788</ele>
        <time>2021-08-19T03:04:45.089Z</time>
      </trkpt>
      <trkpt lat="41.13754" lon="37.29052">
        <ele>14.127768</ele>
        <time>2021-08-19T03:04:51.444Z</time>
      </trkpt>
      <trkpt lat="41.13792" lon="37.29056">
        <ele>16.359962</ele>
        <time>2021-08-19T03:05:18.109Z</time>
      </trkpt>
      <trkpt lat="41.13806" lon="37.29052">
        <ele>17.168824</ele>
        <time>2021-08-19T03:05:32.968Z</time>
      </trkpt>
      <trkpt lat="41.13808" lon="37.29065">
        <ele>17.752488</ele>
        <time>2021-08-19T03:05:38.864Z</time>
      </trkpt>
      <trkpt lat="41.13823" lon="37.29137">
        <ele>20.51435</ele>
        <time>2021-08-19T03:06:12.659Z</time>
      </trkpt>
      <trkpt lat="41.13881" lon="37.29146">
        <ele>22.42198</ele>
        <time>2021-08-19T03:06:40.787Z</time>
      </trkpt>
      <trkpt lat="41.13894" lon="37.29145">
        <ele>22.853598</ele>
        <time>2021-08-19T03:06:47.673Z</time>
      </trkpt>
      <trkpt lat="41.13901" lon="37.2914">
        <ele>23.103953</ele>
        <time>2021-08-19T03:06:53.149Z</time>
      </trkpt>
      <trkpt lat="41.13925" lon="37.29131">
        <ele>23.913623</ele>
        <time>2021-08-19T03:07:01.426Z</time>
      </trkpt>
      <trkpt lat="41.13945" lon="37.2913">
        <ele>24.566526</ele>
        <time>2021-08-19T03:07:11.290Z</time>
      </trkpt>
      <trkpt lat="41.13939" lon="37.29185">
        <ele>25.689476</ele>
        <time>2021-08-19T03:07:29.528Z</time>
      </trkpt>
      <trkpt lat="41.14002" lon="37.29209">
        <ele>25.801408</ele>
        <time>2021-08-19T03:07:59.943Z</time>
      </trkpt>
      <trkpt lat="41.14049" lon="37.29227">
        <ele>25.884925</ele>
        <time>2021-08-19T03:08:13.668Z</time>
      </trkpt>
      <trkpt lat="41.14069" lon="37.29231">
        <ele>25.918383</ele>
        <time>2021-08-19T03:08:18.871Z</time>
      </trkpt>
      <trkpt lat="41.14087" lon="37.29234">
        <ele>25.950194</ele>
        <time>2021-08-19T03:08:23.913Z</time>
      </trkpt>
      <trkpt lat="41.14094" lon="37.29236">
        <ele>25.96127</ele>
        <time>2021-08-19T03:08:25.742Z</time>
      </trkpt>
      <trkpt lat="41.14109" lon="37.29239">
        <ele>25.948585</ele>
        <time>2021-08-19T03:08:30.086Z</time>
      </trkpt>
      <trkpt lat="41.14125" lon="37.2924">
        <ele>25.790221</ele>
        <time>2021-08-19T03:08:34.137Z</time>
      </trkpt>
      <trkpt lat="41.14186" lon="37.2924">
        <ele>25.184757</ele>
        <time>2021-08-19T03:08:50.353Z</time>
      </trkpt>
      <trkpt lat="41.14212" lon="37.29278">
        <ele>24.799172</ele>
        <time>2021-08-19T03:09:01.531Z</time>
      </trkpt>
      <trkpt lat="41.14247" lon="37.29336">
        <ele>24.239339</ele>
        <time>2021-08-19T03:09:17.698Z</time>
      </trkpt>
      <trkpt lat="41.14251" lon="37.29344">
        <ele>24.223316</ele>
        <time>2021-08-19T03:09:19.461Z</time>
      </trkpt>
      <trkpt lat="41.14256" lon="37.29335">
        <ele>24.35266</ele>
        <time>2021-08-19T03:09:23.510Z</time>
      </trkpt>
      <trkpt lat="41.14279" lon="37.29292">
        <ele>24.974653</ele>
        <time>2021-08-19T03:09:36.161Z</time>
      </trkpt>
      <trkpt lat="41.14297" lon="37.29219">
        <ele>25.887252</ele>
        <time>2021-08-19T03:09:56.643Z</time>
      </trkpt>
      <trkpt lat="41.14302" lon="37.29151">
        <ele>26.70068</ele>
        <time>2021-08-19T03:10:23.803Z</time>
      </trkpt>
      <trkpt lat="41.14316" lon="37.28924">
        <ele>30.613249</ele>
        <time>2021-08-19T03:11:45.231Z</time>
      </trkpt>
      <trkpt lat="41.14326" lon="37.28773">
        <ele>30.963758</ele>
        <time>2021-08-19T03:12:22.412Z</time>
      </trkpt>
      <trkpt lat="41.14333" lon="37.28674">
        <ele>30.664022</ele>
        <time>2021-08-19T03:12:42.313Z</time>
      </trkpt>
      <trkpt lat="41.14338" lon="37.2859">
        <ele>30.087882</ele>
        <time>2021-08-19T03:12:58.712Z</time>
      </trkpt>
      <trkpt lat="41.14342" lon="37.28525">
        <ele>29.52232</ele>
        <time>2021-08-19T03:13:11.402Z</time>
      </trkpt>
      <trkpt lat="41.14347" lon="37.28455">
        <ele>28.910695</ele>
        <time>2021-08-19T03:13:25.504Z</time>
      </trkpt>
      <trkpt lat="41.14351" lon="37.2839">
        <ele>28.430371</ele>
        <time>2021-08-19T03:13:39.246Z</time>
      </trkpt>
      <trkpt lat="41.14354" lon="37.28345">
        <ele>28.243093</ele>
        <time>2021-08-19T03:13:49.481Z</time>
      </trkpt>
      <trkpt lat="41.14358" lon="37.28291">
        <ele>28.013423</ele>
        <time>2021-08-19T03:14:02.212Z</time>
      </trkpt>
      <trkpt lat="41.14361" lon="37.28242">
        <ele>27.804553</ele>
        <time>2021-08-19T03:14:12.852Z</time>
      </trkpt>
      <trkpt lat="41.14367" lon="37.28156">
        <ele>27.310242</ele>
        <time>2021-08-19T03:14:30.806Z</time>
      </trkpt>
      <trkpt lat="41.14369" lon="37.28118">
        <ele>26.830065</ele>
        <time>2021-08-19T03:14:38.767Z</time>
      </trkpt>
      <trkpt lat="41.14376" lon="37.2801">
        <ele>25.461741</ele>
        <time>2021-08-19T03:14:59.823Z</time>
      </trkpt>
      <trkpt lat="41.14407" lon="37.27585">
        <ele>18.709951</ele>
        <time>2021-08-19T03:16:16.180Z</time>
      </trkpt>
      <trkpt lat="41.14409" lon="37.27501">
        <ele>17.786926</ele>
        <time>2021-08-19T03:16:33.000Z</time>
      </trkpt>
      <trkpt lat="41.14404" lon="37.27418">
        <ele>17.64353</ele>
        <time>2021-08-19T03:16:52.737Z</time>
      </trkpt>
      <trkpt lat="41.14391" lon="37.27313">
        <ele>18.569205</ele>
        <time>2021-08-19T03:17:22.007Z</time>
      </trkpt>
      <trkpt lat="41.1439" lon="37.27307">
        <ele>18.626556</ele>
        <time>2021-08-19T03:17:24.465Z</time>
      </trkpt>
      <trkpt lat="41.14336" lon="37.27018">
        <ele>22.677629</ele>
        <time>2021-08-19T03:19:00.624Z</time>
      </trkpt>
      <trkpt lat="41.1431" lon="37.26871">
        <ele>24.509441</ele>
        <time>2021-08-19T03:19:49.207Z</time>
      </trkpt>
      <trkpt lat="41.14309" lon="37.26844">
        <ele>24.816896</ele>
        <time>2021-08-19T03:19:57.841Z</time>
      </trkpt>
      <trkpt lat="41.14306" lon="37.2679">
        <ele>25.426267</ele>
        <time>2021-08-19T03:20:12.829Z</time>
      </trkpt>
      <trkpt lat="41.14314" lon="37.26707">
        <ele>25.613451</ele>
        <time>2021-08-19T03:20:34.428Z</time>
      </trkpt>
      <trkpt lat="41.1437" lon="37.26338">
        <ele>23.249154</ele>
        <time>2021-08-19T03:21:51.562Z</time>
      </trkpt>
      <trkpt lat="41.14392" lon="37.26226">
        <ele>22.001764</ele>
        <time>2021-08-19T03:22:13.839Z</time>
      </trkpt>
      <trkpt lat="41.14415" lon="37.26113">
        <ele>20.51185</ele>
        <time>2021-08-19T03:22:35.771Z</time>
      </trkpt>
      <trkpt lat="41.14439" lon="37.25996">
        <ele>19.314519</ele>
        <time>2021-08-19T03:22:59.227Z</time>
      </trkpt>
      <trkpt lat="41.14448" lon="37.2595">
        <ele>18.967236</ele>
        <time>2021-08-19T03:23:08.656Z</time>
      </trkpt>
      <trkpt lat="41.14467" lon="37.25858">
        <ele>18.273375</ele>
        <time>2021-08-19T03:23:28.457Z</time>
      </trkpt>
      <trkpt lat="41.14468" lon="37.2585">
        <ele>18.217611</ele>
        <time>2021-08-19T03:23:30.060Z</time>
      </trkpt>
      <trkpt lat="41.145" lon="37.25661">
        <ele>17.749504</ele>
        <time>2021-08-19T03:24:15.173Z</time>
      </trkpt>
      <trkpt lat="41.14511" lon="37.25592">
        <ele>17.626606</ele>
        <time>2021-08-19T03:24:30.841Z</time>
      </trkpt>
      <trkpt lat="41.14522" lon="37.25527">
        <ele>17.494956</ele>
        <time>2021-08-19T03:24:45.741Z</time>
      </trkpt>
      <trkpt lat="41.14524" lon="37.25516">
        <ele>17.473088</ele>
        <time>2021-08-19T03:24:47.873Z</time>
      </trkpt>
      <trkpt lat="41.14538" lon="37.2542">
        <ele>17.279679</ele>
        <time>2021-08-19T03:25:09.983Z</time>
      </trkpt>
      <trkpt lat="41.14539" lon="37.2533">
        <ele>17.153594</ele>
        <time>2021-08-19T03:25:30.522Z</time>
      </trkpt>
      <trkpt lat="41.14521" lon="37.2509">
        <ele>17.043175</ele>
        <time>2021-08-19T03:26:28.154Z</time>
      </trkpt>
      <trkpt lat="41.14499" lon="37.24847">
        <ele>16.282357</ele>
        <time>2021-08-19T03:27:21.352Z</time>
      </trkpt>
      <trkpt lat="41.14469" lon="37.24502">
        <ele>14.317251</ele>
        <time>2021-08-19T03:28:34.096Z</time>
      </trkpt>
      <trkpt lat="41.14431" lon="37.24068">
        <ele>12.029917</ele>
        <time>2021-08-19T03:30:05.760Z</time>
      </trkpt>
      <trkpt lat="41.14412" lon="37.23796">
        <ele>11.129457</ele>
        <time>2021-08-19T03:31:07.602Z</time>
      </trkpt>
      <trkpt lat="41.1441" lon="37.23543">
        <ele>9.868593</ele>
        <time>2021-08-19T03:32:01.361Z</time>
      </trkpt>
      <trkpt lat="41.14409" lon="37.23521">
        <ele>9.732487</ele>
        <time>2021-08-19T03:32:05.665Z</time>
      </trkpt>
      <trkpt lat="41.14416" lon="37.22702">
        <ele>3.926848</ele>
        <time>2021-08-19T03:34:52.545Z</time>
      </trkpt>
      <trkpt lat="41.14417" lon="37.22566">
        <ele>3.763728</ele>
        <time>2021-08-19T03:35:23.635Z</time>
      </trkpt>
      <trkpt lat="41.14425" lon="37.22428">
        <ele>4.026495</ele>
        <time>2021-08-19T03:35:59.111Z</time>
      </trkpt>
      <trkpt lat="41.14425" lon="37.22418">
        <ele>4.071985</ele>
        <time>2021-08-19T03:36:01.980Z</time>
      </trkpt>
      <trkpt lat="41.14424" lon="37.22404">
        <ele>4.135507</ele>
        <time>2021-08-19T03:36:05.581Z</time>
      </trkpt>
      <trkpt lat="41.14424" lon="37.22389">
        <ele>4.208345</ele>
        <time>2021-08-19T03:36:09.721Z</time>
      </trkpt>
      <trkpt lat="41.14423" lon="37.22375">
        <ele>4.2719</ele>
        <time>2021-08-19T03:36:13.596Z</time>
      </trkpt>
      <trkpt lat="41.14406" lon="37.22011">
        <ele>5.704696</ele>
        <time>2021-08-19T03:37:48.140Z</time>
      </trkpt>
      <trkpt lat="41.14311" lon="37.20524">
        <ele>4.55759</ele>
        <time>2021-08-19T03:43:31.421Z</time>
      </trkpt>
      <trkpt lat="41.14305" lon="37.20378">
        <ele>4.527412</ele>
        <time>2021-08-19T03:44:06.134Z</time>
      </trkpt>
      <trkpt lat="41.14301" lon="37.20027">
        <ele>4.593497</ele>
        <time>2021-08-19T03:45:29.904Z</time>
      </trkpt>
      <trkpt lat="41.1431" lon="37.19791">
        <ele>4.364338</ele>
        <time>2021-08-19T03:46:23.783Z</time>
      </trkpt>
      <trkpt lat="41.1433" lon="37.1937">
        <ele>3.783286</ele>
        <time>2021-08-19T03:47:58.765Z</time>
      </trkpt>
      <trkpt lat="41.14339" lon="37.1919">
        <ele>4.037437</ele>
        <time>2021-08-19T03:48:44.078Z</time>
      </trkpt>
      <trkpt lat="41.14403" lon="37.17753">
        <ele>4.879606</ele>
        <time>2021-08-19T03:54:26.696Z</time>
      </trkpt>
      <trkpt lat="41.14407" lon="37.17621">
        <ele>4.976023</ele>
        <time>2021-08-19T03:54:58.024Z</time>
      </trkpt>
      <trkpt lat="41.14406" lon="37.17562">
        <ele>5.021038</ele>
        <time>2021-08-19T03:55:11.826Z</time>
      </trkpt>
      <trkpt lat="41.14382" lon="37.17355">
        <ele>5.710182</ele>
        <time>2021-08-19T03:56:03.849Z</time>
      </trkpt>
      <trkpt lat="41.14353" lon="37.17163">
        <ele>6.63245</ele>
        <time>2021-08-19T03:56:57.952Z</time>
      </trkpt>
      <trkpt lat="41.14346" lon="37.17117">
        <ele>6.861129</ele>
        <time>2021-08-19T03:57:10.892Z</time>
      </trkpt>
      <trkpt lat="41.14338" lon="37.17065">
        <ele>7.126406</ele>
        <time>2021-08-19T03:57:24.961Z</time>
      </trkpt>
      <trkpt lat="41.14313" lon="37.16922">
        <ele>6.999078</ele>
        <time>2021-08-19T03:57:57.955Z</time>
      </trkpt>
      <trkpt lat="41.14291" lon="37.16781">
        <ele>6.615797</ele>
        <time>2021-08-19T03:58:28.406Z</time>
      </trkpt>
      <trkpt lat="41.14215" lon="37.16304">
        <ele>6.775373</ele>
        <time>2021-08-19T04:00:24.306Z</time>
      </trkpt>
      <trkpt lat="41.1419" lon="37.16079">
        <ele>7.254552</ele>
        <time>2021-08-19T04:01:21.141Z</time>
      </trkpt>
      <trkpt lat="41.14178" lon="37.15938">
        <ele>7.447628</ele>
        <time>2021-08-19T04:01:56.028Z</time>
      </trkpt>
      <trkpt lat="41.14173" lon="37.15808">
        <ele>7.638903</ele>
        <time>2021-08-19T04:02:27.127Z</time>
      </trkpt>
      <trkpt lat="41.14174" lon="37.15652">
        <ele>7.903612</ele>
        <time>2021-08-19T04:03:04.138Z</time>
      </trkpt>
      <trkpt lat="41.14184" lon="37.15466">
        <ele>8.995124</ele>
        <time>2021-08-19T04:03:53.261Z</time>
      </trkpt>
      <trkpt lat="41.14184" lon="37.15458">
        <ele>9.053862</ele>
        <time>2021-08-19T04:03:55.802Z</time>
      </trkpt>
      <trkpt lat="41.14185" lon="37.1544">
        <ele>9.175591</ele>
        <time>2021-08-19T04:04:00.833Z</time>
      </trkpt>
      <trkpt lat="41.14201" lon="37.15154">
        <ele>11.886978</ele>
        <time>2021-08-19T04:05:25.771Z</time>
      </trkpt>
      <trkpt lat="41.14214" lon="37.15038">
        <ele>12.409572</ele>
        <time>2021-08-19T04:05:58.253Z</time>
      </trkpt>
      <trkpt lat="41.14231" lon="37.14925">
        <ele>12.821536</ele>
        <time>2021-08-19T04:06:27.361Z</time>
      </trkpt>
      <trkpt lat="41.14258" lon="37.14778">
        <ele>11.64876</ele>
        <time>2021-08-19T04:06:57.972Z</time>
      </trkpt>
      <trkpt lat="41.14276" lon="37.14676">
        <ele>10.629222</ele>
        <time>2021-08-19T04:07:17.955Z</time>
      </trkpt>
      <trkpt lat="41.14277" lon="37.14672">
        <ele>10.584295</ele>
        <time>2021-08-19T04:07:18.663Z</time>
      </trkpt>
      <trkpt lat="41.14339" lon="37.14425">
        <ele>7.481129</ele>
        <time>2021-08-19T04:08:08.127Z</time>
      </trkpt>
      <trkpt lat="41.14392" lon="37.14243">
        <ele>6.289107</ele>
        <time>2021-08-19T04:08:49.325Z</time>
      </trkpt>
      <trkpt lat="41.14407" lon="37.14193">
        <ele>6.108224</ele>
        <time>2021-08-19T04:09:01.292Z</time>
      </trkpt>
      <trkpt lat="41.1455" lon="37.13713">
        <ele>5.520545</ele>
        <time>2021-08-19T04:11:00.737Z</time>
      </trkpt>
      <trkpt lat="41.14623" lon="37.13467">
        <ele>5.057684</ele>
        <time>2021-08-19T04:11:59.823Z</time>
      </trkpt>
      <trkpt lat="41.14635" lon="37.13427">
        <ele>4.98566</ele>
        <time>2021-08-19T04:12:09.490Z</time>
      </trkpt>
      <trkpt lat="41.1466" lon="37.13343">
        <ele>4.83694</ele>
        <time>2021-08-19T04:12:29.603Z</time>
      </trkpt>
      <trkpt lat="41.14964" lon="37.12322">
        <ele>4.793115</ele>
        <time>2021-08-19T04:16:46.372Z</time>
      </trkpt>
      <trkpt lat="41.15033" lon="37.12082">
        <ele>5.493375</ele>
        <time>2021-08-19T04:17:53.468Z</time>
      </trkpt>
      <trkpt lat="41.15077" lon="37.11926">
        <ele>5.679702</ele>
        <time>2021-08-19T04:18:33.673Z</time>
      </trkpt>
      <trkpt lat="41.15178" lon="37.11585">
        <ele>5.019949</ele>
        <time>2021-08-19T04:19:54.736Z</time>
      </trkpt>
      <trkpt lat="41.1521" lon="37.11478">
        <ele>5.051019</ele>
        <time>2021-08-19T04:20:21.756Z</time>
      </trkpt>
      <trkpt lat="41.15284" lon="37.11224">
        <ele>5.416916</ele>
        <time>2021-08-19T04:21:28.768Z</time>
      </trkpt>
      <trkpt lat="41.15394" lon="37.10885">
        <ele>5.809258</ele>
        <time>2021-08-19T04:22:57.611Z</time>
      </trkpt>
      <trkpt lat="41.1544" lon="37.10721">
        <ele>5.966812</ele>
        <time>2021-08-19T04:23:39.580Z</time>
      </trkpt>
      <trkpt lat="41.155" lon="37.10496">
        <ele>6.077722</ele>
        <time>2021-08-19T04:24:36.091Z</time>
      </trkpt>
      <trkpt lat="41.15603" lon="37.10144">
        <ele>6.115262</ele>
        <time>2021-08-19T04:26:05.046Z</time>
      </trkpt>
      <trkpt lat="41.15643" lon="37.10008">
        <ele>6.138845</ele>
        <time>2021-08-19T04:26:39.822Z</time>
      </trkpt>
      <trkpt lat="41.159" lon="37.09144">
        <ele>5.151985</ele>
        <time>2021-08-19T04:30:12.182Z</time>
      </trkpt>
      <trkpt lat="41.16" lon="37.08801">
        <ele>4.869192</ele>
        <time>2021-08-19T04:31:38.870Z</time>
      </trkpt>
      <trkpt lat="41.16056" lon="37.08633">
        <ele>4.321589</ele>
        <time>2021-08-19T04:32:18.545Z</time>
      </trkpt>
      <trkpt lat="41.16119" lon="37.08394">
        <ele>3.309123</ele>
        <time>2021-08-19T04:33:11.718Z</time>
      </trkpt>
      <trkpt lat="41.16331" lon="37.0767">
        <ele>4.287446</ele>
        <time>2021-08-19T04:36:21.086Z</time>
      </trkpt>
      <trkpt lat="41.16407" lon="37.07437">
        <ele>4.84195</ele>
        <time>2021-08-19T04:37:25.290Z</time>
      </trkpt>
      <trkpt lat="41.16448" lon="37.0728">
        <ele>5.023546</ele>
        <time>2021-08-19T04:38:04.721Z</time>
      </trkpt>
      <trkpt lat="41.16891" lon="37.0578">
        <ele>4.022648</ele>
        <time>2021-08-19T04:44:17.497Z</time>
      </trkpt>
      <trkpt lat="41.16908" lon="37.05728">
        <ele>4.023678</ele>
        <time>2021-08-19T04:44:30.761Z</time>
      </trkpt>
      <trkpt lat="41.16962" lon="37.05554">
        <ele>4.047932</ele>
        <time>2021-08-19T04:45:15.176Z</time>
      </trkpt>
      <trkpt lat="41.16978" lon="37.05495">
        <ele>4.104973</ele>
        <time>2021-08-19T04:45:30.183Z</time>
      </trkpt>
      <trkpt lat="41.17" lon="37.05429">
        <ele>4.173095</ele>
        <time>2021-08-19T04:45:47.543Z</time>
      </trkpt>
      <trkpt lat="41.17037" lon="37.05346">
        <ele>4.264138</ele>
        <time>2021-08-19T04:46:10.717Z</time>
      </trkpt>
      <trkpt lat="41.17081" lon="37.0527">
        <ele>4.273226</ele>
        <time>2021-08-19T04:46:33.540Z</time>
      </trkpt>
      <trkpt lat="41.17163" lon="37.05151">
        <ele>4.269881</ele>
        <time>2021-08-19T04:47:11.218Z</time>
      </trkpt>
      <trkpt lat="41.17271" lon="37.05037">
        <ele>4.23056</ele>
        <time>2021-08-19T04:47:53.042Z</time>
      </trkpt>
      <trkpt lat="41.17472" lon="37.04853">
        <ele>4.844651</ele>
        <time>2021-08-19T04:49:12.535Z</time>
      </trkpt>
      <trkpt lat="41.17515" lon="37.04814">
        <ele>5.139938</ele>
        <time>2021-08-19T04:49:30.970Z</time>
      </trkpt>
      <trkpt lat="41.17561" lon="37.04777">
        <ele>5.441997</ele>
        <time>2021-08-19T04:49:49.827Z</time>
      </trkpt>
      <trkpt lat="41.17644" lon="37.0471">
        <ele>5.715388</ele>
        <time>2021-08-19T04:50:22.824Z</time>
      </trkpt>
      <trkpt lat="41.17655" lon="37.04702">
        <ele>5.7188</ele>
        <time>2021-08-19T04:50:26.760Z</time>
      </trkpt>
      <trkpt lat="41.17665" lon="37.04691">
        <ele>5.722593</ele>
        <time>2021-08-19T04:50:30.928Z</time>
      </trkpt>
      <trkpt lat="41.17697" lon="37.04659">
        <ele>5.733661</ele>
        <time>2021-08-19T04:50:42.727Z</time>
      </trkpt>
      <trkpt lat="41.17749" lon="37.0459">
        <ele>5.733559</ele>
        <time>2021-08-19T04:51:04.910Z</time>
      </trkpt>
      <trkpt lat="41.17794" lon="37.04516">
        <ele>5.612505</ele>
        <time>2021-08-19T04:51:26.402Z</time>
      </trkpt>
      <trkpt lat="41.17826" lon="37.04463">
        <ele>5.525938</ele>
        <time>2021-08-19T04:51:42.050Z</time>
      </trkpt>
      <trkpt lat="41.18031" lon="37.04122">
        <ele>5.184751</ele>
        <time>2021-08-19T04:53:21.976Z</time>
      </trkpt>
      <trkpt lat="41.18302" lon="37.03674">
        <ele>5.383147</ele>
        <time>2021-08-19T04:55:38.710Z</time>
      </trkpt>
      <trkpt lat="41.18307" lon="37.03665">
        <ele>5.38627</ele>
        <time>2021-08-19T04:55:41.199Z</time>
      </trkpt>
      <trkpt lat="41.18309" lon="37.03662">
        <ele>5.386517</ele>
        <time>2021-08-19T04:55:42.192Z</time>
      </trkpt>
      <trkpt lat="41.18546" lon="37.03269">
        <ele>5.625426</ele>
        <time>2021-08-19T04:57:40.381Z</time>
      </trkpt>
      <trkpt lat="41.18609" lon="37.03165">
        <ele>6.238091</ele>
        <time>2021-08-19T04:58:14.852Z</time>
      </trkpt>
      <trkpt lat="41.18662" lon="37.0308">
        <ele>6.890462</ele>
        <time>2021-08-19T04:58:45.400Z</time>
      </trkpt>
      <trkpt lat="41.18701" lon="37.03019">
        <ele>7.548125</ele>
        <time>2021-08-19T04:59:08.664Z</time>
      </trkpt>
      <trkpt lat="41.18749" lon="37.02944">
        <ele>8.355889</ele>
        <time>2021-08-19T04:59:37.543Z</time>
      </trkpt>
      <trkpt lat="41.18757" lon="37.02931">
        <ele>8.494645</ele>
        <time>2021-08-19T04:59:41.931Z</time>
      </trkpt>
      <trkpt lat="41.18763" lon="37.02921">
        <ele>8.524887</ele>
        <time>2021-08-19T04:59:45.287Z</time>
      </trkpt>
      <trkpt lat="41.18769" lon="37.0291">
        <ele>8.510046</ele>
        <time>2021-08-19T04:59:49.033Z</time>
      </trkpt>
      <trkpt lat="41.18797" lon="37.02861">
        <ele>8.445921</ele>
        <time>2021-08-19T05:00:03.439Z</time>
      </trkpt>
      <trkpt lat="41.18924" lon="37.02641">
        <ele>7.791434</ele>
        <time>2021-08-19T05:01:03.332Z</time>
      </trkpt>
      <trkpt lat="41.19038" lon="37.0245">
        <ele>6.786939</ele>
        <time>2021-08-19T05:01:55.935Z</time>
      </trkpt>
      <trkpt lat="41.19048" lon="37.02434">
        <ele>6.699824</ele>
        <time>2021-08-19T05:02:00.366Z</time>
      </trkpt>
      <trkpt lat="41.19084" lon="37.02374">
        <ele>6.378951</ele>
        <time>2021-08-19T05:02:16.668Z</time>
      </trkpt>
      <trkpt lat="41.19134" lon="37.02291">
        <ele>5.980292</ele>
        <time>2021-08-19T05:02:39.374Z</time>
      </trkpt>
      <trkpt lat="41.19202" lon="37.02176">
        <ele>5.444943</ele>
        <time>2021-08-19T05:03:11.529Z</time>
      </trkpt>
      <trkpt lat="41.19248" lon="37.02099">
        <ele>5.361448</ele>
        <time>2021-08-19T05:03:33.751Z</time>
      </trkpt>
      <trkpt lat="41.195" lon="37.01677">
        <ele>5.08324</ele>
        <time>2021-08-19T05:05:38.500Z</time>
      </trkpt>
      <trkpt lat="41.1951" lon="37.01662">
        <ele>5.086445</ele>
        <time>2021-08-19T05:05:43.280Z</time>
      </trkpt>
      <trkpt lat="41.19652" lon="37.01443">
        <ele>5.382276</ele>
        <time>2021-08-19T05:06:53.312Z</time>
      </trkpt>
      <trkpt lat="41.19655" lon="37.01441">
        <ele>5.388102</ele>
        <time>2021-08-19T05:06:54.450Z</time>
      </trkpt>
      <trkpt lat="41.19657" lon="37.01438">
        <ele>5.393793</ele>
        <time>2021-08-19T05:06:55.591Z</time>
      </trkpt>
      <trkpt lat="41.19659" lon="37.01434">
        <ele>5.399208</ele>
        <time>2021-08-19T05:06:56.726Z</time>
      </trkpt>
      <trkpt lat="41.19659" lon="37.01429">
        <ele>5.403982</ele>
        <time>2021-08-19T05:06:57.861Z</time>
      </trkpt>
      <trkpt lat="41.19745" lon="37.01298">
        <ele>5.584176</ele>
        <time>2021-08-19T05:07:39.775Z</time>
      </trkpt>
      <trkpt lat="41.19879" lon="37.01129">
        <ele>5.759989</ele>
        <time>2021-08-19T05:08:38.031Z</time>
      </trkpt>
      <trkpt lat="41.19975" lon="37.0102">
        <ele>5.783511</ele>
        <time>2021-08-19T05:09:17.730Z</time>
      </trkpt>
      <trkpt lat="41.20055" lon="37.0093">
        <ele>5.759832</ele>
        <time>2021-08-19T05:09:50.158Z</time>
      </trkpt>
      <trkpt lat="41.20358" lon="37.00588">
        <ele>5.160531</ele>
        <time>2021-08-19T05:11:50.684Z</time>
      </trkpt>
      <trkpt lat="41.20435" lon="37.00501">
        <ele>4.938915</ele>
        <time>2021-08-19T05:12:21.051Z</time>
      </trkpt>
      <trkpt lat="41.20544" lon="37.00375">
        <ele>4.764717</ele>
        <time>2021-08-19T05:13:04.795Z</time>
      </trkpt>
      <trkpt lat="41.20645" lon="37.00234">
        <ele>4.611678</ele>
        <time>2021-08-19T05:13:50.328Z</time>
      </trkpt>
      <trkpt lat="41.20706" lon="37.00132">
        <ele>4.504337</ele>
        <time>2021-08-19T05:14:19.852Z</time>
      </trkpt>
      <trkpt lat="41.20794" lon="36.99951">
        <ele>4.229973</ele>
        <time>2021-08-19T05:15:08.626Z</time>
      </trkpt>
      <trkpt lat="41.20798" lon="36.99943">
        <ele>4.217695</ele>
        <time>2021-08-19T05:15:10.970Z</time>
      </trkpt>
      <trkpt lat="41.20811" lon="36.99908">
        <ele>4.169097</ele>
        <time>2021-08-19T05:15:20.189Z</time>
      </trkpt>
      <trkpt lat="41.20814" lon="36.99905">
        <ele>4.162672</ele>
        <time>2021-08-19T05:15:21.429Z</time>
      </trkpt>
      <trkpt lat="41.20817" lon="36.999">
        <ele>4.156233</ele>
        <time>2021-08-19T05:15:22.678Z</time>
      </trkpt>
      <trkpt lat="41.20818" lon="36.99896">
        <ele>4.149834</ele>
        <time>2021-08-19T05:15:23.931Z</time>
      </trkpt>
      <trkpt lat="41.20819" lon="36.9989">
        <ele>4.143209</ele>
        <time>2021-08-19T05:15:25.159Z</time>
      </trkpt>
      <trkpt lat="41.20813" lon="36.99876">
        <ele>4.124002</ele>
        <time>2021-08-19T05:15:28.804Z</time>
      </trkpt>
      <trkpt lat="41.2081" lon="36.99873">
        <ele>4.117435</ele>
        <time>2021-08-19T05:15:29.947Z</time>
      </trkpt>
      <trkpt lat="41.20808" lon="36.9987">
        <ele>4.11267</ele>
        <time>2021-08-19T05:15:30.895Z</time>
      </trkpt>
      <trkpt lat="41.20806" lon="36.99857">
        <ele>4.096441</ele>
        <time>2021-08-19T05:15:33.948Z</time>
      </trkpt>
      <trkpt lat="41.20793" lon="36.99796">
        <ele>4.018848</ele>
        <time>2021-08-19T05:15:48.226Z</time>
      </trkpt>
      <trkpt lat="41.2079" lon="36.99778">
        <ele>3.996919</ele>
        <time>2021-08-19T05:15:52.100Z</time>
      </trkpt>
      <trkpt lat="41.20788" lon="36.99747">
        <ele>3.958474</ele>
        <time>2021-08-19T05:15:59.367Z</time>
      </trkpt>
      <trkpt lat="41.20785" lon="36.99694">
        <ele>3.9</ele>
        <time>2021-08-19T05:16:11.524Z</time>
      </trkpt>
      <trkpt lat="41.20782" lon="36.99633">
        <ele>3.857512</ele>
        <time>2021-08-19T05:16:25.896Z</time>
      </trkpt>
      <trkpt lat="41.20813" lon="36.99622">
        <ele>3.82749</ele>
        <time>2021-08-19T05:16:36.109Z</time>
      </trkpt>
      <trkpt lat="41.20829" lon="36.99553">
        <ele>3.777561</ele>
        <time>2021-08-19T05:16:52.856Z</time>
      </trkpt>
      <trkpt lat="41.20835" lon="36.99501">
        <ele>3.748456</ele>
        <time>2021-08-19T05:17:05.736Z</time>
      </trkpt>
      <trkpt lat="41.20841" lon="36.99453">
        <ele>3.904373</ele>
        <time>2021-08-19T05:17:18.471Z</time>
      </trkpt>
      <trkpt lat="41.20845" lon="36.99399">
        <ele>4.075959</ele>
        <time>2021-08-19T05:17:32.930Z</time>
      </trkpt>
      <trkpt lat="41.2085" lon="36.99355">
        <ele>4.21725</ele>
        <time>2021-08-19T05:17:44.816Z</time>
      </trkpt>
      <trkpt lat="41.20862" lon="36.99282">
        <ele>4.457762</ele>
        <time>2021-08-19T05:18:04.884Z</time>
      </trkpt>
      <trkpt lat="41.20873" lon="36.99228">
        <ele>4.594799</ele>
        <time>2021-08-19T05:18:19.572Z</time>
      </trkpt>
      <trkpt lat="41.20882" lon="36.99185">
        <ele>4.692176</ele>
        <time>2021-08-19T05:18:31.092Z</time>
      </trkpt>
      <trkpt lat="41.2089" lon="36.99143">
        <ele>4.786988</ele>
        <time>2021-08-19T05:18:42.296Z</time>
      </trkpt>
      <trkpt lat="41.209" lon="36.99095">
        <ele>4.896013</ele>
        <time>2021-08-19T05:18:54.925Z</time>
      </trkpt>
      <trkpt lat="41.20909" lon="36.99052">
        <ele>4.993178</ele>
        <time>2021-08-19T05:19:05.985Z</time>
      </trkpt>
      <trkpt lat="41.20916" lon="36.98997">
        <ele>5.088701</ele>
        <time>2021-08-19T05:19:20.068Z</time>
      </trkpt>
      <trkpt lat="41.20945" lon="36.98851">
        <ele>5.31872</ele>
        <time>2021-08-19T05:19:58.167Z</time>
      </trkpt>
      <trkpt lat="41.20953" lon="36.98837">
        <ele>5.345617</ele>
        <time>2021-08-19T05:20:02.460Z</time>
      </trkpt>
      <trkpt lat="41.20965" lon="36.98824">
        <ele>5.376923</ele>
        <time>2021-08-19T05:20:07.600Z</time>
      </trkpt>
      <trkpt lat="41.20969" lon="36.9881">
        <ele>5.413183</ele>
        <time>2021-08-19T05:20:11.453Z</time>
      </trkpt>
      <trkpt lat="41.21016" lon="36.9856">
        <ele>6.593786</ele>
        <time>2021-08-19T05:21:19.869Z</time>
      </trkpt>
      <trkpt lat="41.2103" lon="36.98486">
        <ele>7.356136</ele>
        <time>2021-08-19T05:21:43.926Z</time>
      </trkpt>
      <trkpt lat="41.21043" lon="36.98417">
        <ele>8.064192</ele>
        <time>2021-08-19T05:22:05.906Z</time>
      </trkpt>
      <trkpt lat="41.21045" lon="36.98405">
        <ele>8.18531</ele>
        <time>2021-08-19T05:22:10.019Z</time>
      </trkpt>
      <trkpt lat="41.21067" lon="36.98283">
        <ele>9.084887</ele>
        <time>2021-08-19T05:22:47.354Z</time>
      </trkpt>
      <trkpt lat="41.21078" lon="36.9822">
        <ele>9.406591</ele>
        <time>2021-08-19T05:23:05.981Z</time>
      </trkpt>
      <trkpt lat="41.21079" lon="36.98214">
        <ele>9.436158</ele>
        <time>2021-08-19T05:23:07.466Z</time>
      </trkpt>
      <trkpt lat="41.21089" lon="36.9818">
        <ele>9.618946</ele>
        <time>2021-08-19T05:23:17.309Z</time>
      </trkpt>
      <trkpt lat="41.21073" lon="36.98155">
        <ele>9.779246</ele>
        <time>2021-08-19T05:23:24.939Z</time>
      </trkpt>
      <trkpt lat="41.2111" lon="36.98121">
        <ele>9.866343</ele>
        <time>2021-08-19T05:23:38.855Z</time>
      </trkpt>
      <trkpt lat="41.21114" lon="36.98028">
        <ele>9.686696</ele>
        <time>2021-08-19T05:23:59.688Z</time>
      </trkpt>
      <trkpt lat="41.21113" lon="36.98021">
        <ele>9.673151</ele>
        <time>2021-08-19T05:24:01.668Z</time>
      </trkpt>
      <trkpt lat="41.21106" lon="36.97973">
        <ele>9.578437</ele>
        <time>2021-08-19T05:24:13.383Z</time>
      </trkpt>
      <trkpt lat="41.21105" lon="36.97943">
        <ele>9.521571</ele>
        <time>2021-08-19T05:24:20.729Z</time>
      </trkpt>
      <trkpt lat="41.211" lon="36.97941">
        <ele>9.507519</ele>
        <time>2021-08-19T05:24:22.165Z</time>
      </trkpt>
      <trkpt lat="41.21059" lon="36.9791">
        <ele>9.44914</ele>
        <time>2021-08-19T05:24:36.742Z</time>
      </trkpt>
      <trkpt lat="41.21044" lon="36.97898">
        <ele>9.439301</ele>
        <time>2021-08-19T05:24:42.393Z</time>
      </trkpt>
      <trkpt lat="41.20992" lon="36.97832">
        <ele>9.39929</ele>
        <time>2021-08-19T05:25:04.134Z</time>
      </trkpt>
      <trkpt lat="41.20969" lon="36.9779">
        <ele>9.377454</ele>
        <time>2021-08-19T05:25:16.194Z</time>
      </trkpt>
      <trkpt lat="41.20931" lon="36.97703">
        <ele>9.353005</ele>
        <time>2021-08-19T05:25:40.597Z</time>
      </trkpt>
      <trkpt lat="41.2093" lon="36.97701">
        <ele>9.352586</ele>
        <time>2021-08-19T05:25:41.034Z</time>
      </trkpt>
      <trkpt lat="41.20881" lon="36.9757">
        <ele>9.326203</ele>
        <time>2021-08-19T05:26:14.541Z</time>
      </trkpt>
      <trkpt lat="41.20865" lon="36.97523">
        <ele>9.364077</ele>
        <time>2021-08-19T05:26:26.680Z</time>
      </trkpt>
      <trkpt lat="41.20889" lon="36.97508">
        <ele>9.406466</ele>
        <time>2021-08-19T05:26:35.740Z</time>
      </trkpt>
      <trkpt lat="41.2093" lon="36.97481">
        <ele>9.478381</ele>
        <time>2021-08-19T05:26:50.913Z</time>
      </trkpt>
      <trkpt lat="41.20934" lon="36.97478">
        <ele>9.484743</ele>
        <time>2021-08-19T05:26:52.204Z</time>
      </trkpt>
      <trkpt lat="41.20939" lon="36.97476">
        <ele>9.492619</ele>
        <time>2021-08-19T05:26:53.751Z</time>
      </trkpt>
      <trkpt lat="41.20942" lon="36.97474">
        <ele>9.49835</ele>
        <time>2021-08-19T05:26:54.914Z</time>
      </trkpt>
      <trkpt lat="41.20936" lon="36.97462">
        <ele>9.514295</ele>
        <time>2021-08-19T05:26:58.240Z</time>
      </trkpt>
      <trkpt lat="41.2092" lon="36.97412">
        <ele>9.578337</ele>
        <time>2021-08-19T05:27:11.175Z</time>
      </trkpt>
      <trkpt lat="41.20914" lon="36.97391">
        <ele>9.607523</ele>
        <time>2021-08-19T05:27:16.823Z</time>
      </trkpt>
      <trkpt lat="41.2092" lon="36.97376">
        <ele>9.692929</ele>
        <time>2021-08-19T05:27:21.159Z</time>
      </trkpt>
      <trkpt lat="41.20925" lon="36.97358">
        <ele>9.794645</ele>
        <time>2021-08-19T05:27:26.219Z</time>
      </trkpt>
      <trkpt lat="41.20928" lon="36.97349">
        <ele>9.846062</ele>
        <time>2021-08-19T05:27:28.811Z</time>
      </trkpt>
      <trkpt lat="41.20931" lon="36.97332">
        <ele>9.936423</ele>
        <time>2021-08-19T05:27:33.901Z</time>
      </trkpt>
      <trkpt lat="41.20932" lon="36.97314">
        <ele>10.028147</ele>
        <time>2021-08-19T05:27:38.764Z</time>
      </trkpt>
      <trkpt lat="41.20933" lon="36.97299">
        <ele>10.104498</ele>
        <time>2021-08-19T05:27:42.750Z</time>
      </trkpt>
      <trkpt lat="41.20933" lon="36.97294">
        <ele>10.133596</ele>
        <time>2021-08-19T05:27:44.420Z</time>
      </trkpt>
      <trkpt lat="41.20933" lon="36.97254">
        <ele>10.337406</ele>
        <time>2021-08-19T05:27:55.200Z</time>
      </trkpt>
      <trkpt lat="41.20933" lon="36.9725">
        <ele>10.357686</ele>
        <time>2021-08-19T05:27:56.299Z</time>
      </trkpt>
      <trkpt lat="41.20932" lon="36.9724">
        <ele>10.411076</ele>
        <time>2021-08-19T05:27:59.117Z</time>
      </trkpt>
      <trkpt lat="41.20932" lon="36.97228">
        <ele>10.473853</ele>
        <time>2021-08-19T05:28:02.245Z</time>
      </trkpt>
      <trkpt lat="41.20929" lon="36.97219">
        <ele>10.521301</ele>
        <time>2021-08-19T05:28:04.806Z</time>
      </trkpt>
      <trkpt lat="41.20931" lon="36.97217">
        <ele>10.536605</ele>
        <time>2021-08-19T05:28:05.691Z</time>
      </trkpt>
      <trkpt lat="41.20932" lon="36.97211">
        <ele>10.568114</ele>
        <time>2021-08-19T05:28:07.242Z</time>
      </trkpt>
      <trkpt lat="41.20932" lon="36.97208">
        <ele>10.584165</ele>
        <time>2021-08-19T05:28:08.052Z</time>
      </trkpt>
      <trkpt lat="41.20938" lon="36.9718">
        <ele>10.733582</ele>
        <time>2021-08-19T05:28:15.771Z</time>
      </trkpt>
      <trkpt lat="41.20945" lon="36.97163">
        <ele>10.836107</ele>
        <time>2021-08-19T05:28:20.684Z</time>
      </trkpt>
      <trkpt lat="41.20949" lon="36.97152">
        <ele>10.844128</ele>
        <time>2021-08-19T05:28:24.011Z</time>
      </trkpt>
      <trkpt lat="41.2096" lon="36.97127">
        <ele>10.850334</ele>
        <time>2021-08-19T05:28:31.080Z</time>
      </trkpt>
      <trkpt lat="41.20982" lon="36.97073">
        <ele>10.864073</ele>
        <time>2021-08-19T05:28:46.812Z</time>
      </trkpt>
      <trkpt lat="41.2099" lon="36.97056">
        <ele>10.868226</ele>
        <time>2021-08-19T05:28:51.513Z</time>
      </trkpt>
      <trkpt lat="41.21011" lon="36.97017">
        <ele>10.878883</ele>
        <time>2021-08-19T05:29:02.908Z</time>
      </trkpt>
      <trkpt lat="41.2103" lon="36.96964">
        <ele>10.891871</ele>
        <time>2021-08-19T05:29:15.565Z</time>
      </trkpt>
      <trkpt lat="41.21044" lon="36.96927">
        <ele>10.752464</ele>
        <time>2021-08-19T05:29:23.938Z</time>
      </trkpt>
      <trkpt lat="41.21051" lon="36.96906">
        <ele>10.644128</ele>
        <time>2021-08-19T05:29:28.671Z</time>
      </trkpt>
      <trkpt lat="41.21059" lon="36.9688">
        <ele>10.506136</ele>
        <time>2021-08-19T05:29:34.859Z</time>
      </trkpt>
      <trkpt lat="41.2106" lon="36.96876">
        <ele>10.488649</ele>
        <time>2021-08-19T05:29:35.570Z</time>
      </trkpt>
      <trkpt lat="41.21075" lon="36.96818">
        <ele>10.199058</ele>
        <time>2021-08-19T05:29:48.547Z</time>
      </trkpt>
      <trkpt lat="41.21076" lon="36.9681">
        <ele>10.162673</ele>
        <time>2021-08-19T05:29:50.071Z</time>
      </trkpt>
      <trkpt lat="41.21078" lon="36.968">
        <ele>10.109479</ele>
        <time>2021-08-19T05:29:52.490Z</time>
      </trkpt>
      <trkpt lat="41.21084" lon="36.96769">
        <ele>9.961823</ele>
        <time>2021-08-19T05:29:59.218Z</time>
      </trkpt>
      <trkpt lat="41.21094" lon="36.96714">
        <ele>9.755815</ele>
        <time>2021-08-19T05:30:11.382Z</time>
      </trkpt>
      <trkpt lat="41.21096" lon="36.96706">
        <ele>9.750875</ele>
        <time>2021-08-19T05:30:13.385Z</time>
      </trkpt>
      <trkpt lat="41.21115" lon="36.96587">
        <ele>9.683758</ele>
        <time>2021-08-19T05:30:41.323Z</time>
      </trkpt>
      <trkpt lat="41.21136" lon="36.96461">
        <ele>9.62062</ele>
        <time>2021-08-19T05:31:12.502Z</time>
      </trkpt>
      <trkpt lat="41.21144" lon="36.96414">
        <ele>9.60488</ele>
        <time>2021-08-19T05:31:24.357Z</time>
      </trkpt>
      <trkpt lat="41.21154" lon="36.96372">
        <ele>9.590725</ele>
        <time>2021-08-19T05:31:34.685Z</time>
      </trkpt>
      <trkpt lat="41.21162" lon="36.96336">
        <ele>9.578489</ele>
        <time>2021-08-19T05:31:43.382Z</time>
      </trkpt>
      <trkpt lat="41.21175" lon="36.96318">
        <ele>9.570372</ele>
        <time>2021-08-19T05:31:49.178Z</time>
      </trkpt>
      <trkpt lat="41.21188" lon="36.96311">
        <ele>9.564216</ele>
        <time>2021-08-19T05:31:53.343Z</time>
      </trkpt>
      <trkpt lat="41.21195" lon="36.96311">
        <ele>9.561405</ele>
        <time>2021-08-19T05:31:55.258Z</time>
      </trkpt>
      <trkpt lat="41.21201" lon="36.96311">
        <ele>9.558677</ele>
        <time>2021-08-19T05:31:57.139Z</time>
      </trkpt>
      <trkpt lat="41.21201" lon="36.96296">
        <ele>9.548954</ele>
        <time>2021-08-19T05:32:00.547Z</time>
      </trkpt>
      <trkpt lat="41.21208" lon="36.96207">
        <ele>9.177973</ele>
        <time>2021-08-19T05:32:20.189Z</time>
      </trkpt>
      <trkpt lat="41.2121" lon="36.96161">
        <ele>8.989932</ele>
        <time>2021-08-19T05:32:30.197Z</time>
      </trkpt>
      <trkpt lat="41.21215" lon="36.96102">
        <ele>8.746853</ele>
        <time>2021-08-19T05:32:42.833Z</time>
      </trkpt>
      <trkpt lat="41.21217" lon="36.96077">
        <ele>8.643101</ele>
        <time>2021-08-19T05:32:48.003Z</time>
      </trkpt>
      <trkpt lat="41.2122" lon="36.96017">
        <ele>8.41254</ele>
        <time>2021-08-19T05:33:00.418Z</time>
      </trkpt>
      <trkpt lat="41.21229" lon="36.95907">
        <ele>8.001471</ele>
        <time>2021-08-19T05:33:23.915Z</time>
      </trkpt>
      <trkpt lat="41.21235" lon="36.95836">
        <ele>7.73369</ele>
        <time>2021-08-19T05:33:39.899Z</time>
      </trkpt>
      <trkpt lat="41.21258" lon="36.95653">
        <ele>7.862658</ele>
        <time>2021-08-19T05:34:24.937Z</time>
      </trkpt>
      <trkpt lat="41.21259" lon="36.95621">
        <ele>7.896821</ele>
        <time>2021-08-19T05:34:32.899Z</time>
      </trkpt>
      <trkpt lat="41.21262" lon="36.95528">
        <ele>8.084684</ele>
        <time>2021-08-19T05:34:55.510Z</time>
      </trkpt>
      <trkpt lat="41.21266" lon="36.95389">
        <ele>8.44843</ele>
        <time>2021-08-19T05:35:30.350Z</time>
      </trkpt>
      <trkpt lat="41.21271" lon="36.95309">
        <ele>8.689174</ele>
        <time>2021-08-19T05:35:50.448Z</time>
      </trkpt>
      <trkpt lat="41.21279" lon="36.95178">
        <ele>9.138762</ele>
        <time>2021-08-19T05:36:23.754Z</time>
      </trkpt>
      <trkpt lat="41.21291" lon="36.9503">
        <ele>9.540073</ele>
        <time>2021-08-19T05:37:01.871Z</time>
      </trkpt>
      <trkpt lat="41.21303" lon="36.94888">
        <ele>9.833574</ele>
        <time>2021-08-19T05:37:36.645Z</time>
      </trkpt>
      <trkpt lat="41.21338" lon="36.94547">
        <ele>9.9</ele>
        <time>2021-08-19T05:38:57.513Z</time>
      </trkpt>
      <trkpt lat="41.21359" lon="36.94356">
        <ele>9.9</ele>
        <time>2021-08-19T05:39:42.727Z</time>
      </trkpt>
      <trkpt lat="41.21371" lon="36.94275">
        <ele>9.9</ele>
        <time>2021-08-19T05:40:02.301Z</time>
      </trkpt>
      <trkpt lat="41.21379" lon="36.94232">
        <ele>9.9</ele>
        <time>2021-08-19T05:40:12.685Z</time>
      </trkpt>
      <trkpt lat="41.21386" lon="36.94195">
        <ele>9.9</ele>
        <time>2021-08-19T05:40:21.594Z</time>
      </trkpt>
      <trkpt lat="41.21387" lon="36.94188">
        <ele>9.9</ele>
        <time>2021-08-19T05:40:23.251Z</time>
      </trkpt>
      <trkpt lat="41.21457" lon="36.93844">
        <ele>9.913007</ele>
        <time>2021-08-19T05:41:47.226Z</time>
      </trkpt>
      <trkpt lat="41.21474" lon="36.93718">
        <ele>9.929311</ele>
        <time>2021-08-19T05:42:17.200Z</time>
      </trkpt>
      <trkpt lat="41.215" lon="36.93486">
        <ele>9.674028</ele>
        <time>2021-08-19T05:43:10.897Z</time>
      </trkpt>
      <trkpt lat="41.21549" lon="36.93056">
        <ele>9.104525</ele>
        <time>2021-08-19T05:44:49.098Z</time>
      </trkpt>
      <trkpt lat="41.21554" lon="36.93016">
        <ele>9.078229</ele>
        <time>2021-08-19T05:44:58.944Z</time>
      </trkpt>
      <trkpt lat="41.21566" lon="36.9291">
        <ele>9.170541</ele>
        <time>2021-08-19T05:45:25.324Z</time>
      </trkpt>
      <trkpt lat="41.21594" lon="36.92659">
        <ele>9.436822</ele>
        <time>2021-08-19T05:46:26.709Z</time>
      </trkpt>
      <trkpt lat="41.21616" lon="36.92493">
        <ele>9.534305</ele>
        <time>2021-08-19T05:47:06.216Z</time>
      </trkpt>
      <trkpt lat="41.21634" lon="36.92358">
        <ele>9.646336</ele>
        <time>2021-08-19T05:47:38.918Z</time>
      </trkpt>
      <trkpt lat="41.21636" lon="36.92343">
        <ele>9.658843</ele>
        <time>2021-08-19T05:47:42.678Z</time>
      </trkpt>
      <trkpt lat="41.21638" lon="36.92328">
        <ele>9.671835</ele>
        <time>2021-08-19T05:47:46.622Z</time>
      </trkpt>
      <trkpt lat="41.21679" lon="36.91898">
        <ele>10.043955</ele>
        <time>2021-08-19T05:49:30.014Z</time>
      </trkpt>
      <trkpt lat="41.21684" lon="36.91859">
        <ele>10.083889</ele>
        <time>2021-08-19T05:49:39.623Z</time>
      </trkpt>
      <trkpt lat="41.21781" lon="36.91014">
        <ele>11.993798</ele>
        <time>2021-08-19T05:53:10.963Z</time>
      </trkpt>
      <trkpt lat="41.2181" lon="36.90733">
        <ele>12.686258</ele>
        <time>2021-08-19T05:54:23.265Z</time>
      </trkpt>
      <trkpt lat="41.21811" lon="36.9072">
        <ele>12.704655</ele>
        <time>2021-08-19T05:54:26.305Z</time>
      </trkpt>
      <trkpt lat="41.21812" lon="36.90703">
        <ele>12.730444</ele>
        <time>2021-08-19T05:54:30.472Z</time>
      </trkpt>
      <trkpt lat="41.21831" lon="36.9038">
        <ele>12.462637</ele>
        <time>2021-08-19T05:55:43.726Z</time>
      </trkpt>
      <trkpt lat="41.21842" lon="36.9023">
        <ele>12.502446</ele>
        <time>2021-08-19T05:56:18.759Z</time>
      </trkpt>
      <trkpt lat="41.21863" lon="36.89957">
        <ele>12.786818</ele>
        <time>2021-08-19T05:57:25.790Z</time>
      </trkpt>
      <trkpt lat="41.21877" lon="36.89785">
        <ele>12.874118</ele>
        <time>2021-08-19T05:58:07.145Z</time>
      </trkpt>
      <trkpt lat="41.21893" lon="36.8957">
        <ele>12.785707</ele>
        <time>2021-08-19T05:58:56.985Z</time>
      </trkpt>
      <trkpt lat="41.21926" lon="36.8923">
        <ele>12.495954</ele>
        <time>2021-08-19T06:00:15.493Z</time>
      </trkpt>
      <trkpt lat="41.21937" lon="36.88965">
        <ele>12.761762</ele>
        <time>2021-08-19T06:01:19.166Z</time>
      </trkpt>
      <trkpt lat="41.2194" lon="36.88897">
        <ele>12.941276</ele>
        <time>2021-08-19T06:01:36.108Z</time>
      </trkpt>
      <trkpt lat="41.2195" lon="36.88679">
        <ele>13.5072</ele>
        <time>2021-08-19T06:02:31.637Z</time>
      </trkpt>
      <trkpt lat="41.21981" lon="36.88144">
        <ele>14.192869</ele>
        <time>2021-08-19T06:04:40.610Z</time>
      </trkpt>
      <trkpt lat="41.21982" lon="36.88127">
        <ele>14.2112</ele>
        <time>2021-08-19T06:04:44.705Z</time>
      </trkpt>
      <trkpt lat="41.21982" lon="36.88116">
        <ele>14.222951</ele>
        <time>2021-08-19T06:04:47.405Z</time>
      </trkpt>
      <trkpt lat="41.21993" lon="36.87799">
        <ele>14.609358</ele>
        <time>2021-08-19T06:06:04.420Z</time>
      </trkpt>
      <trkpt lat="41.21994" lon="36.87767">
        <ele>14.651867</ele>
        <time>2021-08-19T06:06:12.270Z</time>
      </trkpt>
      <trkpt lat="41.22032" lon="36.86987">
        <ele>15.156873</ele>
        <time>2021-08-19T06:09:17.981Z</time>
      </trkpt>
      <trkpt lat="41.22048" lon="36.86494">
        <ele>15.6683</ele>
        <time>2021-08-19T06:11:18.283Z</time>
      </trkpt>
      <trkpt lat="41.22055" lon="36.86274">
        <ele>15.436556</ele>
        <time>2021-08-19T06:12:06.926Z</time>
      </trkpt>
      <trkpt lat="41.22066" lon="36.85965">
        <ele>15.502991</ele>
        <time>2021-08-19T06:13:20.075Z</time>
      </trkpt>
      <trkpt lat="41.22069" lon="36.85887">
        <ele>15.626029</ele>
        <time>2021-08-19T06:13:40.262Z</time>
      </trkpt>
      <trkpt lat="41.22075" lon="36.8572">
        <ele>15.749953</ele>
        <time>2021-08-19T06:14:20.624Z</time>
      </trkpt>
      <trkpt lat="41.2208" lon="36.85577">
        <ele>15.73577</ele>
        <time>2021-08-19T06:14:53.797Z</time>
      </trkpt>
      <trkpt lat="41.22088" lon="36.85203">
        <ele>15.255395</ele>
        <time>2021-08-19T06:16:17.797Z</time>
      </trkpt>
      <trkpt lat="41.22089" lon="36.85165">
        <ele>15.229739</ele>
        <time>2021-08-19T06:16:26.843Z</time>
      </trkpt>
      <trkpt lat="41.22096" lon="36.84578">
        <ele>16.78364</ele>
        <time>2021-08-19T06:18:54.552Z</time>
      </trkpt>
      <trkpt lat="41.22086" lon="36.84079">
        <ele>17.898073</ele>
        <time>2021-08-19T06:20:58.826Z</time>
      </trkpt>
      <trkpt lat="41.22085" lon="36.84066">
        <ele>17.906723</ele>
        <time>2021-08-19T06:21:01.959Z</time>
      </trkpt>
      <trkpt lat="41.22085" lon="36.84053">
        <ele>17.915306</ele>
        <time>2021-08-19T06:21:05.048Z</time>
      </trkpt>
      <trkpt lat="41.22082" lon="36.83933">
        <ele>17.972878</ele>
        <time>2021-08-19T06:21:32.815Z</time>
      </trkpt>
      <trkpt lat="41.22066" lon="36.8363">
        <ele>17.599331</ele>
        <time>2021-08-19T06:22:41.528Z</time>
      </trkpt>
      <trkpt lat="41.22039" lon="36.82987">
        <ele>17.464236</ele>
        <time>2021-08-19T06:25:11.818Z</time>
      </trkpt>
      <trkpt lat="41.21997" lon="36.8248">
        <ele>18.365237</ele>
        <time>2021-08-19T06:27:17.231Z</time>
      </trkpt>
      <trkpt lat="41.2199" lon="36.82389">
        <ele>18.486997</ele>
        <time>2021-08-19T06:27:39.835Z</time>
      </trkpt>
      <trkpt lat="41.21967" lon="36.82142">
        <ele>18.716608</ele>
        <time>2021-08-19T06:28:39.696Z</time>
      </trkpt>
      <trkpt lat="41.21953" lon="36.81989">
        <ele>18.702956</ele>
        <time>2021-08-19T06:29:15.694Z</time>
      </trkpt>
      <trkpt lat="41.21933" lon="36.81799">
        <ele>18.413245</ele>
        <time>2021-08-19T06:29:58.636Z</time>
      </trkpt>
      <trkpt lat="41.2192" lon="36.8168">
        <ele>18.20827</ele>
        <time>2021-08-19T06:30:25.976Z</time>
      </trkpt>
      <trkpt lat="41.21908" lon="36.81569">
        <ele>18.018708</ele>
        <time>2021-08-19T06:30:51.271Z</time>
      </trkpt>
      <trkpt lat="41.21902" lon="36.81507">
        <ele>17.986709</ele>
        <time>2021-08-19T06:31:05.664Z</time>
      </trkpt>
      <trkpt lat="41.21883" lon="36.81323">
        <ele>17.914586</ele>
        <time>2021-08-19T06:31:48.821Z</time>
      </trkpt>
      <trkpt lat="41.21746" lon="36.80016">
        <ele>18.430279</ele>
        <time>2021-08-19T06:37:01.937Z</time>
      </trkpt>
      <trkpt lat="41.21713" lon="36.796">
        <ele>18.360488</ele>
        <time>2021-08-19T06:38:38.979Z</time>
      </trkpt>
      <trkpt lat="41.21711" lon="36.7957">
        <ele>18.400111</ele>
        <time>2021-08-19T06:38:46.242Z</time>
      </trkpt>
      <trkpt lat="41.21704" lon="36.79488">
        <ele>18.507443</ele>
        <time>2021-08-19T06:39:06.623Z</time>
      </trkpt>
      <trkpt lat="41.21677" lon="36.79234">
        <ele>18.755487</ele>
        <time>2021-08-19T06:40:09.086Z</time>
      </trkpt>
      <trkpt lat="41.21635" lon="36.78817">
        <ele>18.318145</ele>
        <time>2021-08-19T06:41:44.429Z</time>
      </trkpt>
      <trkpt lat="41.21608" lon="36.78542">
        <ele>18.233936</ele>
        <time>2021-08-19T06:42:50.094Z</time>
      </trkpt>
      <trkpt lat="41.21599" lon="36.78449">
        <ele>18.194728</ele>
        <time>2021-08-19T06:43:11.613Z</time>
      </trkpt>
      <trkpt lat="41.21595" lon="36.78417">
        <ele>18.157354</ele>
        <time>2021-08-19T06:43:19.127Z</time>
      </trkpt>
      <trkpt lat="41.21576" lon="36.78227">
        <ele>17.964662</ele>
        <time>2021-08-19T06:44:02.624Z</time>
      </trkpt>
      <trkpt lat="41.2155" lon="36.78058">
        <ele>17.978673</ele>
        <time>2021-08-19T06:44:43.284Z</time>
      </trkpt>
      <trkpt lat="41.21439" lon="36.77295">
        <ele>19.051511</ele>
        <time>2021-08-19T06:47:51.820Z</time>
      </trkpt>
      <trkpt lat="41.21428" lon="36.7723">
        <ele>19.215032</ele>
        <time>2021-08-19T06:48:08.251Z</time>
      </trkpt>
      <trkpt lat="41.21405" lon="36.77092">
        <ele>19.565425</ele>
        <time>2021-08-19T06:48:43.753Z</time>
      </trkpt>
      <trkpt lat="41.21391" lon="36.7699">
        <ele>19.604893</ele>
        <time>2021-08-19T06:49:09.366Z</time>
      </trkpt>
      <trkpt lat="41.21383" lon="36.76933">
        <ele>19.599436</ele>
        <time>2021-08-19T06:49:22.978Z</time>
      </trkpt>
      <trkpt lat="41.21372" lon="36.76859">
        <ele>19.592221</ele>
        <time>2021-08-19T06:49:40.189Z</time>
      </trkpt>
      <trkpt lat="41.21345" lon="36.76711">
        <ele>19.279664</ele>
        <time>2021-08-19T06:50:13.498Z</time>
      </trkpt>
      <trkpt lat="41.21318" lon="36.76575">
        <ele>19.047157</ele>
        <time>2021-08-19T06:50:44.891Z</time>
      </trkpt>
      <trkpt lat="41.21243" lon="36.76223">
        <ele>19.472393</ele>
        <time>2021-08-19T06:52:13.524Z</time>
      </trkpt>
      <trkpt lat="41.21183" lon="36.75974">
        <ele>20.295431</ele>
        <time>2021-08-19T06:53:19.272Z</time>
      </trkpt>
      <trkpt lat="41.21086" lon="36.75617">
        <ele>22.354107</ele>
        <time>2021-08-19T06:55:02.181Z</time>
      </trkpt>
      <trkpt lat="41.21068" lon="36.75549">
        <ele>22.621777</ele>
        <time>2021-08-19T06:55:20.526Z</time>
      </trkpt>
      <trkpt lat="41.2103" lon="36.75409">
        <ele>22.834252</ele>
        <time>2021-08-19T06:55:56.041Z</time>
      </trkpt>
      <trkpt lat="41.21029" lon="36.75404">
        <ele>22.825991</ele>
        <time>2021-08-19T06:55:57.248Z</time>
      </trkpt>
      <trkpt lat="41.20865" lon="36.74883">
        <ele>21.956634</ele>
        <time>2021-08-19T06:58:04.187Z</time>
      </trkpt>
      <trkpt lat="41.20847" lon="36.7483">
        <ele>21.864787</ele>
        <time>2021-08-19T06:58:17.367Z</time>
      </trkpt>
      <trkpt lat="41.20842" lon="36.74815">
        <ele>21.83852</ele>
        <time>2021-08-19T06:58:21.175Z</time>
      </trkpt>
      <trkpt lat="41.20829" lon="36.74778">
        <ele>21.793286</ele>
        <time>2021-08-19T06:58:30.714Z</time>
      </trkpt>
      <trkpt lat="41.2082" lon="36.74747">
        <ele>21.760692</ele>
        <time>2021-08-19T06:58:38.376Z</time>
      </trkpt>
      <trkpt lat="41.20794" lon="36.74674">
        <ele>21.680821</ele>
        <time>2021-08-19T06:58:57.232Z</time>
      </trkpt>
      <trkpt lat="41.20786" lon="36.74653">
        <ele>21.657489</ele>
        <time>2021-08-19T06:59:02.833Z</time>
      </trkpt>
      <trkpt lat="41.20754" lon="36.7457">
        <ele>21.522801</ele>
        <time>2021-08-19T06:59:24.312Z</time>
      </trkpt>
      <trkpt lat="41.20542" lon="36.73924">
        <ele>19.413687</ele>
        <time>2021-08-19T07:01:59.381Z</time>
      </trkpt>
      <trkpt lat="41.20525" lon="36.7387">
        <ele>19.00307</ele>
        <time>2021-08-19T07:02:11.209Z</time>
      </trkpt>
      <trkpt lat="41.20465" lon="36.73688">
        <ele>17.714008</ele>
        <time>2021-08-19T07:02:51.197Z</time>
      </trkpt>
      <trkpt lat="41.20401" lon="36.73496">
        <ele>16.96482</ele>
        <time>2021-08-19T07:03:37.521Z</time>
      </trkpt>
      <trkpt lat="41.20382" lon="36.734">
        <ele>17.125997</ele>
        <time>2021-08-19T07:04:01.597Z</time>
      </trkpt>
      <trkpt lat="41.20364" lon="36.73296">
        <ele>17.300193</ele>
        <time>2021-08-19T07:04:28.349Z</time>
      </trkpt>
      <trkpt lat="41.20352" lon="36.73195">
        <ele>17.496763</ele>
        <time>2021-08-19T07:04:53.974Z</time>
      </trkpt>
      <trkpt lat="41.20344" lon="36.73048">
        <ele>17.800976</ele>
        <time>2021-08-19T07:05:30.499Z</time>
      </trkpt>
      <trkpt lat="41.20342" lon="36.73029">
        <ele>17.839147</ele>
        <time>2021-08-19T07:05:34.962Z</time>
      </trkpt>
      <trkpt lat="41.20342" lon="36.72952">
        <ele>17.845679</ele>
        <time>2021-08-19T07:05:53.338Z</time>
      </trkpt>
      <trkpt lat="41.20343" lon="36.72936">
        <ele>17.846324</ele>
        <time>2021-08-19T07:05:57.069Z</time>
      </trkpt>
      <trkpt lat="41.20347" lon="36.72833">
        <ele>17.850396</ele>
        <time>2021-08-19T07:06:20.450Z</time>
      </trkpt>
      <trkpt lat="41.20369" lon="36.72558">
        <ele>18.526042</ele>
        <time>2021-08-19T07:07:26.496Z</time>
      </trkpt>
      <trkpt lat="41.20406" lon="36.7223">
        <ele>23.214446</ele>
        <time>2021-08-19T07:09:16.288Z</time>
      </trkpt>
      <trkpt lat="41.20408" lon="36.72225">
        <ele>23.27236</ele>
        <time>2021-08-19T07:09:17.751Z</time>
      </trkpt>
      <trkpt lat="41.20408" lon="36.72221">
        <ele>23.330117</ele>
        <time>2021-08-19T07:09:19.211Z</time>
      </trkpt>
      <trkpt lat="41.20408" lon="36.72217">
        <ele>23.376008</ele>
        <time>2021-08-19T07:09:20.362Z</time>
      </trkpt>
      <trkpt lat="41.20407" lon="36.72214">
        <ele>23.420598</ele>
        <time>2021-08-19T07:09:21.517Z</time>
      </trkpt>
      <trkpt lat="41.20414" lon="36.72138">
        <ele>24.364762</ele>
        <time>2021-08-19T07:09:45.082Z</time>
      </trkpt>
      <trkpt lat="41.20427" lon="36.72033">
        <ele>25.085484</ele>
        <time>2021-08-19T07:10:14.231Z</time>
      </trkpt>
      <trkpt lat="41.20434" lon="36.71945">
        <ele>25.040929</ele>
        <time>2021-08-19T07:10:35.731Z</time>
      </trkpt>
      <trkpt lat="41.20446" lon="36.71818">
        <ele>24.887141</ele>
        <time>2021-08-19T07:11:04.765Z</time>
      </trkpt>
      <trkpt lat="41.20433" lon="36.71812">
        <ele>24.811613</ele>
        <time>2021-08-19T07:11:08.859Z</time>
      </trkpt>
      <trkpt lat="41.20434" lon="36.71807">
        <ele>24.78916</ele>
        <time>2021-08-19T07:11:09.921Z</time>
      </trkpt>
      <trkpt lat="41.20468" lon="36.71388">
        <ele>23.037256</ele>
        <time>2021-08-19T07:12:40.331Z</time>
      </trkpt>
      <trkpt lat="41.20479" lon="36.71385">
        <ele>22.976739</ele>
        <time>2021-08-19T07:12:44.025Z</time>
      </trkpt>
      <trkpt lat="41.20483" lon="36.71337">
        <ele>22.806672</ele>
        <time>2021-08-19T07:12:55.233Z</time>
      </trkpt>
      <trkpt lat="41.20488" lon="36.71256">
        <ele>22.519941</ele>
        <time>2021-08-19T07:13:14.156Z</time>
      </trkpt>
      <trkpt lat="41.20489" lon="36.71247">
        <ele>22.491246</ele>
        <time>2021-08-19T07:13:16.053Z</time>
      </trkpt>
      <trkpt lat="41.20489" lon="36.71241">
        <ele>22.468604</ele>
        <time>2021-08-19T07:13:17.688Z</time>
      </trkpt>
      <trkpt lat="41.20503" lon="36.71101">
        <ele>21.895386</ele>
        <time>2021-08-19T07:13:49.018Z</time>
      </trkpt>
      <trkpt lat="41.20508" lon="36.71051">
        <ele>21.642337</ele>
        <time>2021-08-19T07:14:00.446Z</time>
      </trkpt>
      <trkpt lat="41.20511" lon="36.7105">
        <ele>21.621101</ele>
        <time>2021-08-19T07:14:01.188Z</time>
      </trkpt>
      <trkpt lat="41.20565" lon="36.7103">
        <ele>21.25152</ele>
        <time>2021-08-19T07:14:17.049Z</time>
      </trkpt>
      <trkpt lat="41.20609" lon="36.71021">
        <ele>20.959922</ele>
        <time>2021-08-19T07:14:29.435Z</time>
      </trkpt>
      <trkpt lat="41.20678" lon="36.7103">
        <ele>20.647589</ele>
        <time>2021-08-19T07:14:48.685Z</time>
      </trkpt>
      <trkpt lat="41.20723" lon="36.71028">
        <ele>20.447459</ele>
        <time>2021-08-19T07:15:01.761Z</time>
      </trkpt>
      <trkpt lat="41.20768" lon="36.71016">
        <ele>20.239742</ele>
        <time>2021-08-19T07:15:15.575Z</time>
      </trkpt>
      <trkpt lat="41.20861" lon="36.70961">
        <ele>20.242056</ele>
        <time>2021-08-19T07:15:46.608Z</time>
      </trkpt>
      <trkpt lat="41.20947" lon="36.70899">
        <ele>20.344646</ele>
        <time>2021-08-19T07:16:18.411Z</time>
      </trkpt>
      <trkpt lat="41.21008" lon="36.70842">
        <ele>20.609451</ele>
        <time>2021-08-19T07:16:43.362Z</time>
      </trkpt>
      <trkpt lat="41.2103" lon="36.70809">
        <ele>20.72602</ele>
        <time>2021-08-19T07:16:54.882Z</time>
      </trkpt>
      <trkpt lat="41.21044" lon="36.70786">
        <ele>20.804365</ele>
        <time>2021-08-19T07:17:02.634Z</time>
      </trkpt>
      <trkpt lat="41.21054" lon="36.70703">
        <ele>20.96532</ele>
        <time>2021-08-19T07:17:24.537Z</time>
      </trkpt>
      <trkpt lat="41.21078" lon="36.7059">
        <ele>20.901822</ele>
        <time>2021-08-19T07:17:54.037Z</time>
      </trkpt>
      <trkpt lat="41.21131" lon="36.70521">
        <ele>20.848601</ele>
        <time>2021-08-19T07:18:16.882Z</time>
      </trkpt>
      <trkpt lat="41.21132" lon="36.705">
        <ele>20.743248</ele>
        <time>2021-08-19T07:18:21.621Z</time>
      </trkpt>
      <trkpt lat="41.21102" lon="36.70432">
        <ele>20.286246</ele>
        <time>2021-08-19T07:18:38.942Z</time>
      </trkpt>
      <trkpt lat="41.21097" lon="36.70398">
        <ele>20.082507</ele>
        <time>2021-08-19T07:18:46.544Z</time>
      </trkpt>
      <trkpt lat="41.21101" lon="36.70356">
        <ele>19.840322</ele>
        <time>2021-08-19T07:18:55.513Z</time>
      </trkpt>
      <trkpt lat="41.21131" lon="36.70282">
        <ele>19.352077</ele>
        <time>2021-08-19T07:19:13.486Z</time>
      </trkpt>
      <trkpt lat="41.21185" lon="36.70056">
        <ele>18.129936</ele>
        <time>2021-08-19T07:20:05.273Z</time>
      </trkpt>
      <trkpt lat="41.21207" lon="36.70016">
        <ele>18.213049</ele>
        <time>2021-08-19T07:20:17.213Z</time>
      </trkpt>
      <trkpt lat="41.21213" lon="36.69992">
        <ele>18.254808</ele>
        <time>2021-08-19T07:20:23.437Z</time>
      </trkpt>
      <trkpt lat="41.21218" lon="36.69894">
        <ele>18.418161</ele>
        <time>2021-08-19T07:20:49.191Z</time>
      </trkpt>
      <trkpt lat="41.21269" lon="36.6967">
        <ele>19.701748</ele>
        <time>2021-08-19T07:21:55.708Z</time>
      </trkpt>
      <trkpt lat="41.2128" lon="36.69629">
        <ele>19.982484</ele>
        <time>2021-08-19T07:22:07.371Z</time>
      </trkpt>
      <trkpt lat="41.21299" lon="36.69491">
        <ele>20.415426</ele>
        <time>2021-08-19T07:22:43.543Z</time>
      </trkpt>
      <trkpt lat="41.21305" lon="36.69415">
        <ele>20.632519</ele>
        <time>2021-08-19T07:23:02.306Z</time>
      </trkpt>
      <trkpt lat="41.21309" lon="36.69273">
        <ele>20.555076</ele>
        <time>2021-08-19T07:23:35.239Z</time>
      </trkpt>
      <trkpt lat="41.21304" lon="36.69228">
        <ele>20.484348</ele>
        <time>2021-08-19T07:23:45.551Z</time>
      </trkpt>
      <trkpt lat="41.21246" lon="36.69036">
        <ele>20.026192</ele>
        <time>2021-08-19T07:24:31.114Z</time>
      </trkpt>
      <trkpt lat="41.21214" lon="36.68898">
        <ele>19.715263</ele>
        <time>2021-08-19T07:25:03.046Z</time>
      </trkpt>
      <trkpt lat="41.21181" lon="36.6875">
        <ele>19.721877</ele>
        <time>2021-08-19T07:25:38.556Z</time>
      </trkpt>
      <trkpt lat="41.21136" lon="36.68488">
        <ele>20.341365</ele>
        <time>2021-08-19T07:26:46.496Z</time>
      </trkpt>
      <trkpt lat="41.21119" lon="36.68379">
        <ele>20.482976</ele>
        <time>2021-08-19T07:27:13.973Z</time>
      </trkpt>
      <trkpt lat="41.21091" lon="36.68425">
        <ele>20.526444</ele>
        <time>2021-08-19T07:27:45.130Z</time>
      </trkpt>
      <trkpt lat="41.21082" lon="36.68443">
        <ele>20.542429</ele>
        <time>2021-08-19T07:27:56.594Z</time>
      </trkpt>
      <trkpt lat="41.21058" lon="36.68424">
        <ele>20.569425</ele>
        <time>2021-08-19T07:28:15.928Z</time>
      </trkpt>
      <trkpt lat="41.21066" lon="36.68405">
        <ele>20.58539</ele>
        <time>2021-08-19T07:28:27.409Z</time>
      </trkpt>
      <trkpt lat="41.21064" lon="36.68388">
        <ele>20.590942</ele>
        <time>2021-08-19T07:28:31.568Z</time>
      </trkpt>
      <trkpt lat="41.21062" lon="36.68372">
        <ele>20.556692</ele>
        <time>2021-08-19T07:28:35.390Z</time>
      </trkpt>
      <trkpt lat="41.2106" lon="36.68335">
        <ele>20.479243</ele>
        <time>2021-08-19T07:28:43.822Z</time>
      </trkpt>
      <trkpt lat="41.21066" lon="36.68309">
        <ele>20.422897</ele>
        <time>2021-08-19T07:28:49.928Z</time>
      </trkpt>
      <trkpt lat="41.21079" lon="36.68291">
        <ele>20.369889</ele>
        <time>2021-08-19T07:28:55.750Z</time>
      </trkpt>
      <trkpt lat="41.21103" lon="36.68287">
        <ele>20.300793</ele>
        <time>2021-08-19T07:29:03.536Z</time>
      </trkpt>
      <trkpt lat="41.21073" lon="36.68234">
        <ele>20.162244</ele>
        <time>2021-08-19T07:29:18.331Z</time>
      </trkpt>
      <trkpt lat="41.21018" lon="36.68107">
        <ele>19.799025</ele>
        <time>2021-08-19T07:29:50.955Z</time>
      </trkpt>
      <trkpt lat="41.20982" lon="36.68048">
        <ele>19.604614</ele>
        <time>2021-08-19T07:30:07.689Z</time>
      </trkpt>
      <trkpt lat="41.20906" lon="36.67876">
        <ele>18.933311</ele>
        <time>2021-08-19T07:30:52.024Z</time>
      </trkpt>
      <trkpt lat="41.20893" lon="36.67802">
        <ele>18.658034</ele>
        <time>2021-08-19T07:31:07.958Z</time>
      </trkpt>
      <trkpt lat="41.20889" lon="36.67697">
        <ele>18.39695</ele>
        <time>2021-08-19T07:31:30.648Z</time>
      </trkpt>
      <trkpt lat="41.20888" lon="36.67635">
        <ele>18.252859</ele>
        <time>2021-08-19T07:31:44.397Z</time>
      </trkpt>
      <trkpt lat="41.20887" lon="36.676">
        <ele>18.171587</ele>
        <time>2021-08-19T07:31:52.233Z</time>
      </trkpt>
      <trkpt lat="41.20887" lon="36.67579">
        <ele>18.122546</ele>
        <time>2021-08-19T07:31:57.248Z</time>
      </trkpt>
      <trkpt lat="41.20881" lon="36.67503">
        <ele>18.229974</ele>
        <time>2021-08-19T07:32:15.079Z</time>
      </trkpt>
      <trkpt lat="41.20889" lon="36.67377">
        <ele>18.676318</ele>
        <time>2021-08-19T07:32:48.107Z</time>
      </trkpt>
      <trkpt lat="41.20912" lon="36.67168">
        <ele>19.536934</ele>
        <time>2021-08-19T07:33:43.693Z</time>
      </trkpt>
      <trkpt lat="41.20925" lon="36.67132">
        <ele>19.708077</ele>
        <time>2021-08-19T07:33:53.866Z</time>
      </trkpt>
      <trkpt lat="41.20958" lon="36.67093">
        <ele>19.93821</ele>
        <time>2021-08-19T07:34:08.657Z</time>
      </trkpt>
      <trkpt lat="41.21017" lon="36.67046">
        <ele>20.071921</ele>
        <time>2021-08-19T07:34:31.350Z</time>
      </trkpt>
      <trkpt lat="41.21057" lon="36.66967">
        <ele>20.212887</ele>
        <time>2021-08-19T07:34:54.763Z</time>
      </trkpt>
      <trkpt lat="41.21104" lon="36.66858">
        <ele>20.064354</ele>
        <time>2021-08-19T07:35:23.100Z</time>
      </trkpt>
      <trkpt lat="41.21121" lon="36.66748">
        <ele>19.763015</ele>
        <time>2021-08-19T07:35:47.677Z</time>
      </trkpt>
      <trkpt lat="41.21126" lon="36.66705">
        <ele>19.647789</ele>
        <time>2021-08-19T07:35:57.017Z</time>
      </trkpt>
      <trkpt lat="41.21127" lon="36.66691">
        <ele>19.624315</ele>
        <time>2021-08-19T07:36:00.088Z</time>
      </trkpt>
      <trkpt lat="41.2113" lon="36.66601">
        <ele>19.497979</ele>
        <time>2021-08-19T07:36:19.739Z</time>
      </trkpt>
      <trkpt lat="41.21151" lon="36.66372">
        <ele>19.434044</ele>
        <time>2021-08-19T07:37:14.010Z</time>
      </trkpt>
      <trkpt lat="41.2115" lon="36.66292">
        <ele>19.546883</ele>
        <time>2021-08-19T07:37:33.947Z</time>
      </trkpt>
      <trkpt lat="41.21121" lon="36.6611">
        <ele>19.757972</ele>
        <time>2021-08-19T07:38:19.922Z</time>
      </trkpt>
      <trkpt lat="41.21118" lon="36.66036">
        <ele>19.830483</ele>
        <time>2021-08-19T07:38:37.733Z</time>
      </trkpt>
      <trkpt lat="41.21121" lon="36.65953">
        <ele>19.795927</ele>
        <time>2021-08-19T07:38:57.106Z</time>
      </trkpt>
      <trkpt lat="41.21083" lon="36.65795">
        <ele>19.448967</ele>
        <time>2021-08-19T07:39:34.167Z</time>
      </trkpt>
      <trkpt lat="41.21049" lon="36.65621">
        <ele>18.634792</ele>
        <time>2021-08-19T07:40:12.583Z</time>
      </trkpt>
      <trkpt lat="41.21067" lon="36.65486">
        <ele>17.937834</ele>
        <time>2021-08-19T07:40:41.103Z</time>
      </trkpt>
      <trkpt lat="41.2109" lon="36.65383">
        <ele>17.404636</ele>
        <time>2021-08-19T07:41:03.561Z</time>
      </trkpt>
      <trkpt lat="41.21114" lon="36.65339">
        <ele>17.133746</ele>
        <time>2021-08-19T07:41:15.168Z</time>
      </trkpt>
      <trkpt lat="41.21161" lon="36.65322">
        <ele>16.961268</ele>
        <time>2021-08-19T07:41:29.080Z</time>
      </trkpt>
      <trkpt lat="41.21126" lon="36.65261">
        <ele>16.97075</ele>
        <time>2021-08-19T07:41:46.504Z</time>
      </trkpt>
      <trkpt lat="41.21094" lon="36.65203">
        <ele>16.979515</ele>
        <time>2021-08-19T07:42:03.766Z</time>
      </trkpt>
      <trkpt lat="41.21046" lon="36.65169">
        <ele>17.030657</ele>
        <time>2021-08-19T07:42:21.897Z</time>
      </trkpt>
      <trkpt lat="41.21021" lon="36.6515">
        <ele>17.196679</ele>
        <time>2021-08-19T07:42:31.771Z</time>
      </trkpt>
      <trkpt lat="41.20943" lon="36.65104">
        <ele>17.684527</ele>
        <time>2021-08-19T07:43:00.296Z</time>
      </trkpt>
      <trkpt lat="41.20936" lon="36.651">
        <ele>17.730443</ele>
        <time>2021-08-19T07:43:03.378Z</time>
      </trkpt>
      <trkpt lat="41.20914" lon="36.65089">
        <ele>17.865898</ele>
        <time>2021-08-19T07:43:11.373Z</time>
      </trkpt>
      <trkpt lat="41.20879" lon="36.65049">
        <ele>18.172677</ele>
        <time>2021-08-19T07:43:28.508Z</time>
      </trkpt>
      <trkpt lat="41.20834" lon="36.65002">
        <ele>18.61846</ele>
        <time>2021-08-19T07:43:48.773Z</time>
      </trkpt>
      <trkpt lat="41.20795" lon="36.64907">
        <ele>19.263572</ele>
        <time>2021-08-19T07:44:17.855Z</time>
      </trkpt>
      <trkpt lat="41.20757" lon="36.6482">
        <ele>19.61927</ele>
        <time>2021-08-19T07:44:44.229Z</time>
      </trkpt>
      <trkpt lat="41.2072" lon="36.64747">
        <ele>19.848865</ele>
        <time>2021-08-19T07:45:06.582Z</time>
      </trkpt>
      <trkpt lat="41.20666" lon="36.64679">
        <ele>19.986534</ele>
        <time>2021-08-19T07:45:29.912Z</time>
      </trkpt>
      <trkpt lat="41.20616" lon="36.64605">
        <ele>19.624292</ele>
        <time>2021-08-19T07:45:51.333Z</time>
      </trkpt>
      <trkpt lat="41.20598" lon="36.64529">
        <ele>19.329576</ele>
        <time>2021-08-19T07:46:08.330Z</time>
      </trkpt>
      <trkpt lat="41.20603" lon="36.64474">
        <ele>19.111472</ele>
        <time>2021-08-19T07:46:19.956Z</time>
      </trkpt>
      <trkpt lat="41.20621" lon="36.6434">
        <ele>18.468086</ele>
        <time>2021-08-19T07:46:48.633Z</time>
      </trkpt>
      <trkpt lat="41.20589" lon="36.6394">
        <ele>17.088812</ele>
        <time>2021-08-19T07:48:15.918Z</time>
      </trkpt>
      <trkpt lat="41.20664" lon="36.63767">
        <ele>17.171089</ele>
        <time>2021-08-19T07:49:03.691Z</time>
      </trkpt>
      <trkpt lat="41.2065" lon="36.63588">
        <ele>17.919033</ele>
        <time>2021-08-19T07:49:50.550Z</time>
      </trkpt>
      <trkpt lat="41.20678" lon="36.63495">
        <ele>18.346955</ele>
        <time>2021-08-19T07:50:17.400Z</time>
      </trkpt>
      <trkpt lat="41.20692" lon="36.63483">
        <ele>18.437084</ele>
        <time>2021-08-19T07:50:22.962Z</time>
      </trkpt>
      <trkpt lat="41.20703" lon="36.63454">
        <ele>18.577156</ele>
        <time>2021-08-19T07:50:31.600Z</time>
      </trkpt>
      <trkpt lat="41.20697" lon="36.63416">
        <ele>18.74232</ele>
        <time>2021-08-19T07:50:41.597Z</time>
      </trkpt>
      <trkpt lat="41.20683" lon="36.63384">
        <ele>18.901529</ele>
        <time>2021-08-19T07:50:51.040Z</time>
      </trkpt>
      <trkpt lat="41.20672" lon="36.63314">
        <ele>19.060049</ele>
        <time>2021-08-19T07:51:08.711Z</time>
      </trkpt>
      <trkpt lat="41.20668" lon="36.63254">
        <ele>19.086678</ele>
        <time>2021-08-19T07:51:23.238Z</time>
      </trkpt>
      <trkpt lat="41.20711" lon="36.63252">
        <ele>19.112215</ele>
        <time>2021-08-19T07:51:36.802Z</time>
      </trkpt>
      <trkpt lat="41.20759" lon="36.63227">
        <ele>19.142519</ele>
        <time>2021-08-19T07:51:52.613Z</time>
      </trkpt>
      <trkpt lat="41.20793" lon="36.63156">
        <ele>19.003797</ele>
        <time>2021-08-19T07:52:11.765Z</time>
      </trkpt>
      <trkpt lat="41.20985" lon="36.62989">
        <ele>18.182642</ele>
        <time>2021-08-19T07:53:19.405Z</time>
      </trkpt>
      <trkpt lat="41.21013" lon="36.62933">
        <ele>17.949954</ele>
        <time>2021-08-19T07:53:33.714Z</time>
      </trkpt>
      <trkpt lat="41.21082" lon="36.62744">
        <ele>17.060922</ele>
        <time>2021-08-19T07:54:18.550Z</time>
      </trkpt>
      <trkpt lat="41.21154" lon="36.62653">
        <ele>16.706651</ele>
        <time>2021-08-19T07:54:47.180Z</time>
      </trkpt>
      <trkpt lat="41.2125" lon="36.62546">
        <ele>16.525344</ele>
        <time>2021-08-19T07:55:25.651Z</time>
      </trkpt>
      <trkpt lat="41.21427" lon="36.62383">
        <ele>17.243913</ele>
        <time>2021-08-19T07:56:37.401Z</time>
      </trkpt>
      <trkpt lat="41.21569" lon="36.62233">
        <ele>17.675963</ele>
        <time>2021-08-19T07:57:36.674Z</time>
      </trkpt>
      <trkpt lat="41.21584" lon="36.62193">
        <ele>17.688909</ele>
        <time>2021-08-19T07:57:46.853Z</time>
      </trkpt>
      <trkpt lat="41.21608" lon="36.62059">
        <ele>17.72904</ele>
        <time>2021-08-19T07:58:19.531Z</time>
      </trkpt>
      <trkpt lat="41.21628" lon="36.62041">
        <ele>17.701903</ele>
        <time>2021-08-19T07:58:27.130Z</time>
      </trkpt>
      <trkpt lat="41.21646" lon="36.62042">
        <ele>17.664721</ele>
        <time>2021-08-19T07:58:32.356Z</time>
      </trkpt>
      <trkpt lat="41.21629" lon="36.62025">
        <ele>17.620924</ele>
        <time>2021-08-19T07:58:39.414Z</time>
      </trkpt>
      <trkpt lat="41.21618" lon="36.61997">
        <ele>17.572742</ele>
        <time>2021-08-19T07:58:46.603Z</time>
      </trkpt>
      <trkpt lat="41.21617" lon="36.61993">
        <ele>17.565455</ele>
        <time>2021-08-19T07:58:48.056Z</time>
      </trkpt>
      <trkpt lat="41.21605" lon="36.61862">
        <ele>17.362773</ele>
        <time>2021-08-19T07:59:18.895Z</time>
      </trkpt>
      <trkpt lat="41.21604" lon="36.61718">
        <ele>17.105089</ele>
        <time>2021-08-19T07:59:52.148Z</time>
      </trkpt>
      <trkpt lat="41.21606" lon="36.61638">
        <ele>16.960919</ele>
        <time>2021-08-19T08:00:11.455Z</time>
      </trkpt>
      <trkpt lat="41.21607" lon="36.61586">
        <ele>16.920557</ele>
        <time>2021-08-19T08:00:23.991Z</time>
      </trkpt>
      <trkpt lat="41.21608" lon="36.6155">
        <ele>16.904734</ele>
        <time>2021-08-19T08:00:33.099Z</time>
      </trkpt>
      <trkpt lat="41.2161" lon="36.61475">
        <ele>16.872111</ele>
        <time>2021-08-19T08:00:51.643Z</time>
      </trkpt>
      <trkpt lat="41.2161" lon="36.61422">
        <ele>16.84928</ele>
        <time>2021-08-19T08:01:04.162Z</time>
      </trkpt>
      <trkpt lat="41.21615" lon="36.61381">
        <ele>16.824052</ele>
        <time>2021-08-19T08:01:14.096Z</time>
      </trkpt>
      <trkpt lat="41.21626" lon="36.61355">
        <ele>16.77107</ele>
        <time>2021-08-19T08:01:21.014Z</time>
      </trkpt>
      <trkpt lat="41.21631" lon="36.61348">
        <ele>16.752858</ele>
        <time>2021-08-19T08:01:23.534Z</time>
      </trkpt>
      <trkpt lat="41.21609" lon="36.61319">
        <ele>16.677694</ele>
        <time>2021-08-19T08:01:33.180Z</time>
      </trkpt>
      <trkpt lat="41.21577" lon="36.61287">
        <ele>16.583054</ele>
        <time>2021-08-19T08:01:45.315Z</time>
      </trkpt>
      <trkpt lat="41.21552" lon="36.61315">
        <ele>16.503762</ele>
        <time>2021-08-19T08:01:55.585Z</time>
      </trkpt>
      <trkpt lat="41.21515" lon="36.6135">
        <ele>16.409865</ele>
        <time>2021-08-19T08:02:09.694Z</time>
      </trkpt>
      <trkpt lat="41.21482" lon="36.61384">
        <ele>16.510961</ele>
        <time>2021-08-19T08:02:22.911Z</time>
      </trkpt>
      <trkpt lat="41.21475" lon="36.61346">
        <ele>16.582006</ele>
        <time>2021-08-19T08:02:32.690Z</time>
      </trkpt>
      <trkpt lat="41.21467" lon="36.61309">
        <ele>16.653817</ele>
        <time>2021-08-19T08:02:42.908Z</time>
      </trkpt>
      <trkpt lat="41.21447" lon="36.61207">
        <ele>16.844857</ele>
        <time>2021-08-19T08:03:10.886Z</time>
      </trkpt>
      <trkpt lat="41.21525" lon="36.61045">
        <ele>17.138828</ele>
        <time>2021-08-19T08:03:58.077Z</time>
      </trkpt>
      <trkpt lat="41.21556" lon="36.60974">
        <ele>17.164701</ele>
        <time>2021-08-19T08:04:17.127Z</time>
      </trkpt>
      <trkpt lat="41.21669" lon="36.60788">
        <ele>16.837357</ele>
        <time>2021-08-19T08:05:11.596Z</time>
      </trkpt>
      <trkpt lat="41.21692" lon="36.60731">
        <ele>16.657546</ele>
        <time>2021-08-19T08:05:26.118Z</time>
      </trkpt>
      <trkpt lat="41.21794" lon="36.60417">
        <ele>15.486108</ele>
        <time>2021-08-19T08:06:40.051Z</time>
      </trkpt>
      <trkpt lat="41.21803" lon="36.60372">
        <ele>15.314169</ele>
        <time>2021-08-19T08:06:50.192Z</time>
      </trkpt>
      <trkpt lat="41.218" lon="36.60329">
        <ele>15.179985</ele>
        <time>2021-08-19T08:06:59.492Z</time>
      </trkpt>
      <trkpt lat="41.2175" lon="36.60127">
        <ele>14.560387</ele>
        <time>2021-08-19T08:07:46.425Z</time>
      </trkpt>
      <trkpt lat="41.21738" lon="36.60054">
        <ele>14.436557</ele>
        <time>2021-08-19T08:08:03.441Z</time>
      </trkpt>
      <trkpt lat="41.2173" lon="36.5969">
        <ele>13.890983</ele>
        <time>2021-08-19T08:09:26.208Z</time>
      </trkpt>
      <trkpt lat="41.21733" lon="36.59631">
        <ele>13.852276</ele>
        <time>2021-08-19T08:09:39.630Z</time>
      </trkpt>
      <trkpt lat="41.21749" lon="36.59569">
        <ele>13.817327</ele>
        <time>2021-08-19T08:09:54.954Z</time>
      </trkpt>
      <trkpt lat="41.21828" lon="36.59361">
        <ele>13.712518</ele>
        <time>2021-08-19T08:10:49.782Z</time>
      </trkpt>
      <trkpt lat="41.21842" lon="36.59331">
        <ele>13.699491</ele>
        <time>2021-08-19T08:10:58.098Z</time>
      </trkpt>
      <trkpt lat="41.21829" lon="36.59315">
        <ele>13.690776</ele>
        <time>2021-08-19T08:11:03.547Z</time>
      </trkpt>
      <trkpt lat="41.21619" lon="36.59129">
        <ele>13.298667</ele>
        <time>2021-08-19T08:12:18.919Z</time>
      </trkpt>
      <trkpt lat="41.21538" lon="36.59018">
        <ele>13.416528</ele>
        <time>2021-08-19T08:12:55.385Z</time>
      </trkpt>
      <trkpt lat="41.21477" lon="36.58966">
        <ele>13.619913</ele>
        <time>2021-08-19T08:13:19.934Z</time>
      </trkpt>
      <trkpt lat="41.21451" lon="36.58953">
        <ele>13.778034</ele>
        <time>2021-08-19T08:13:29.564Z</time>
      </trkpt>
      <trkpt lat="41.2143" lon="36.58951">
        <ele>13.892119</ele>
        <time>2021-08-19T08:13:36.612Z</time>
      </trkpt>
      <trkpt lat="41.2142" lon="36.5895">
        <ele>13.952778</ele>
        <time>2021-08-19T08:13:40.304Z</time>
      </trkpt>
      <trkpt lat="41.21402" lon="36.58952">
        <ele>14.049121</ele>
        <time>2021-08-19T08:13:46.292Z</time>
      </trkpt>
      <trkpt lat="41.21395" lon="36.58952">
        <ele>14.091144</ele>
        <time>2021-08-19T08:13:48.883Z</time>
      </trkpt>
      <trkpt lat="41.21358" lon="36.58952">
        <ele>14.299015</ele>
        <time>2021-08-19T08:14:01.718Z</time>
      </trkpt>
      <trkpt lat="41.21276" lon="36.58963">
        <ele>14.630212</ele>
        <time>2021-08-19T08:14:29.994Z</time>
      </trkpt>
      <trkpt lat="41.21142" lon="36.59013">
        <ele>15.023723</ele>
        <time>2021-08-19T08:15:15.363Z</time>
      </trkpt>
      <trkpt lat="41.21131" lon="36.59008">
        <ele>15.019743</ele>
        <time>2021-08-19T08:15:18.971Z</time>
      </trkpt>
      <trkpt lat="41.21" lon="36.58749">
        <ele>14.702199</ele>
        <time>2021-08-19T08:16:30.866Z</time>
      </trkpt>
      <trkpt lat="41.20975" lon="36.58688">
        <ele>14.525715</ele>
        <time>2021-08-19T08:16:45.985Z</time>
      </trkpt>
      <trkpt lat="41.20966" lon="36.58653">
        <ele>14.428968</ele>
        <time>2021-08-19T08:16:54.052Z</time>
      </trkpt>
      <trkpt lat="41.20961" lon="36.58631">
        <ele>14.371139</ele>
        <time>2021-08-19T08:16:58.999Z</time>
      </trkpt>
      <trkpt lat="41.20956" lon="36.58626">
        <ele>14.349486</ele>
        <time>2021-08-19T08:17:00.459Z</time>
      </trkpt>
      <trkpt lat="41.20896" lon="36.58645">
        <ele>14.037256</ele>
        <time>2021-08-19T08:17:17.946Z</time>
      </trkpt>
      <trkpt lat="41.20857" lon="36.58644">
        <ele>13.83923</ele>
        <time>2021-08-19T08:17:28.939Z</time>
      </trkpt>
      <trkpt lat="41.20823" lon="36.58635">
        <ele>13.661509</ele>
        <time>2021-08-19T08:17:38.830Z</time>
      </trkpt>
      <trkpt lat="41.20795" lon="36.5862">
        <ele>13.506248</ele>
        <time>2021-08-19T08:17:47.549Z</time>
      </trkpt>
      <trkpt lat="41.20771" lon="36.58508">
        <ele>13.686355</ele>
        <time>2021-08-19T08:18:16.406Z</time>
      </trkpt>
      <trkpt lat="41.20746" lon="36.58432">
        <ele>13.891742</ele>
        <time>2021-08-19T08:18:38.858Z</time>
      </trkpt>
      <trkpt lat="41.20709" lon="36.58359">
        <ele>14.078594</ele>
        <time>2021-08-19T08:19:02.643Z</time>
      </trkpt>
      <trkpt lat="41.20657" lon="36.58291">
        <ele>14.22187</ele>
        <time>2021-08-19T08:19:27.826Z</time>
      </trkpt>
      <trkpt lat="41.20731" lon="36.58175">
        <ele>14.253161</ele>
        <time>2021-08-19T08:20:04.534Z</time>
      </trkpt>
      <trkpt lat="41.20921" lon="36.58005">
        <ele>13.337816</ele>
        <time>2021-08-19T08:21:13.431Z</time>
      </trkpt>
      <trkpt lat="41.20937" lon="36.58">
        <ele>13.282924</ele>
        <time>2021-08-19T08:21:18.222Z</time>
      </trkpt>
      <trkpt lat="41.20968" lon="36.58004">
        <ele>13.171447</ele>
        <time>2021-08-19T08:21:28.014Z</time>
      </trkpt>
      <trkpt lat="41.20986" lon="36.57998">
        <ele>13.106587</ele>
        <time>2021-08-19T08:21:33.719Z</time>
      </trkpt>
      <trkpt lat="41.2107" lon="36.57924">
        <ele>12.857099</ele>
        <time>2021-08-19T08:22:05.317Z</time>
      </trkpt>
      <trkpt lat="41.21105" lon="36.57883">
        <ele>12.766954</ele>
        <time>2021-08-19T08:22:19.946Z</time>
      </trkpt>
      <trkpt lat="41.21155" lon="36.57733">
        <ele>12.610762</ele>
        <time>2021-08-19T08:22:59.051Z</time>
      </trkpt>
      <trkpt lat="41.21161" lon="36.57704">
        <ele>12.599613</ele>
        <time>2021-08-19T08:23:06.321Z</time>
      </trkpt>
      <trkpt lat="41.21157" lon="36.57563">
        <ele>12.560976</ele>
        <time>2021-08-19T08:23:40.877Z</time>
      </trkpt>
      <trkpt lat="41.21135" lon="36.57509">
        <ele>12.641218</ele>
        <time>2021-08-19T08:23:56.304Z</time>
      </trkpt>
      <trkpt lat="41.21131" lon="36.57484">
        <ele>12.674358</ele>
        <time>2021-08-19T08:24:02.732Z</time>
      </trkpt>
      <trkpt lat="41.21168" lon="36.57371">
        <ele>12.835724</ele>
        <time>2021-08-19T08:24:33.764Z</time>
      </trkpt>
      <trkpt lat="41.21174" lon="36.57357">
        <ele>12.856195</ele>
        <time>2021-08-19T08:24:37.820Z</time>
      </trkpt>
      <trkpt lat="41.21186" lon="36.57275">
        <ele>13.068863</ele>
        <time>2021-08-19T08:24:59.347Z</time>
      </trkpt>
      <trkpt lat="41.21181" lon="36.57177">
        <ele>13.32291</ele>
        <time>2021-08-19T08:25:24.833Z</time>
      </trkpt>
      <trkpt lat="41.21193" lon="36.56909">
        <ele>14.125546</ele>
        <time>2021-08-19T08:26:35.239Z</time>
      </trkpt>
      <trkpt lat="41.21193" lon="36.56877">
        <ele>14.224266</ele>
        <time>2021-08-19T08:26:43.763Z</time>
      </trkpt>
      <trkpt lat="41.21187" lon="36.56871">
        <ele>14.264011</ele>
        <time>2021-08-19T08:26:46.181Z</time>
      </trkpt>
      <trkpt lat="41.21176" lon="36.56862">
        <ele>14.334133</ele>
        <time>2021-08-19T08:26:50.812Z</time>
      </trkpt>
      <trkpt lat="41.21168" lon="36.56856">
        <ele>14.38607</ele>
        <time>2021-08-19T08:26:54.269Z</time>
      </trkpt>
      <trkpt lat="41.21155" lon="36.56845">
        <ele>14.469397</ele>
        <time>2021-08-19T08:26:59.284Z</time>
      </trkpt>
      <trkpt lat="41.21132" lon="36.56827">
        <ele>14.612668</ele>
        <time>2021-08-19T08:27:08.638Z</time>
      </trkpt>
      <trkpt lat="41.21085" lon="36.56801">
        <ele>14.891787</ele>
        <time>2021-08-19T08:27:26.863Z</time>
      </trkpt>
      <trkpt lat="41.21074" lon="36.56795">
        <ele>14.953626</ele>
        <time>2021-08-19T08:27:31.326Z</time>
      </trkpt>
      <trkpt lat="41.2105" lon="36.56771">
        <ele>15.11916</ele>
        <time>2021-08-19T08:27:42.137Z</time>
      </trkpt>
      <trkpt lat="41.21025" lon="36.56705">
        <ele>15.460325</ele>
        <time>2021-08-19T08:28:01.871Z</time>
      </trkpt>
      <trkpt lat="41.21025" lon="36.56681">
        <ele>15.576902</ele>
        <time>2021-08-19T08:28:08.740Z</time>
      </trkpt>
      <trkpt lat="41.21043" lon="36.56616">
        <ele>15.908284</ele>
        <time>2021-08-19T08:28:27.717Z</time>
      </trkpt>
      <trkpt lat="41.21043" lon="36.56574">
        <ele>16.112539</ele>
        <time>2021-08-19T08:28:39.278Z</time>
      </trkpt>
      <trkpt lat="41.21034" lon="36.56531">
        <ele>16.3269</ele>
        <time>2021-08-19T08:28:51.269Z</time>
      </trkpt>
      <trkpt lat="41.20993" lon="36.5642">
        <ele>16.339257</ele>
        <time>2021-08-19T08:29:23.102Z</time>
      </trkpt>
      <trkpt lat="41.20991" lon="36.5639">
        <ele>16.335929</ele>
        <time>2021-08-19T08:29:30.354Z</time>
      </trkpt>
      <trkpt lat="41.20986" lon="36.5639">
        <ele>16.335127</ele>
        <time>2021-08-19T08:29:32.165Z</time>
      </trkpt>
      <trkpt lat="41.2097" lon="36.56379">
        <ele>16.332475</ele>
        <time>2021-08-19T08:29:37.374Z</time>
      </trkpt>
      <trkpt lat="41.20947" lon="36.56358">
        <ele>16.328298</ele>
        <time>2021-08-19T08:29:45.590Z</time>
      </trkpt>
      <trkpt lat="41.20901" lon="36.56285">
        <ele>15.886363</ele>
        <time>2021-08-19T08:30:05.734Z</time>
      </trkpt>
      <trkpt lat="41.20881" lon="36.56268">
        <ele>15.69753</ele>
        <time>2021-08-19T08:30:12.215Z</time>
      </trkpt>
      <trkpt lat="41.20894" lon="36.56176">
        <ele>15.132787</ele>
        <time>2021-08-19T08:30:31.288Z</time>
      </trkpt>
      <trkpt lat="41.20987" lon="36.55927">
        <ele>13.710005</ele>
        <time>2021-08-19T08:31:29.461Z</time>
      </trkpt>
      <trkpt lat="41.21012" lon="36.55836">
        <ele>13.773805</ele>
        <time>2021-08-19T08:31:52.637Z</time>
      </trkpt>
      <trkpt lat="41.21014" lon="36.55772">
        <ele>13.824717</ele>
        <time>2021-08-19T08:32:08.405Z</time>
      </trkpt>
      <trkpt lat="41.20993" lon="36.55733">
        <ele>13.863264</ele>
        <time>2021-08-19T08:32:20.484Z</time>
      </trkpt>
      <trkpt lat="41.20963" lon="36.55698">
        <ele>13.886218</ele>
        <time>2021-08-19T08:32:33.758Z</time>
      </trkpt>
      <trkpt lat="41.2094" lon="36.55683">
        <ele>13.881807</ele>
        <time>2021-08-19T08:32:41.851Z</time>
      </trkpt>
      <trkpt lat="41.20901" lon="36.55677">
        <ele>13.874787</ele>
        <time>2021-08-19T08:32:54.382Z</time>
      </trkpt>
      <trkpt lat="41.20837" lon="36.55653">
        <ele>13.862977</ele>
        <time>2021-08-19T08:33:14.880Z</time>
      </trkpt>
      <trkpt lat="41.20833" lon="36.55645">
        <ele>13.861732</ele>
        <time>2021-08-19T08:33:16.906Z</time>
      </trkpt>
      <trkpt lat="41.20832" lon="36.55623">
        <ele>13.858775</ele>
        <time>2021-08-19T08:33:21.932Z</time>
      </trkpt>
      <trkpt lat="41.20838" lon="36.55584">
        <ele>13.779751</ele>
        <time>2021-08-19T08:33:30.753Z</time>
      </trkpt>
      <trkpt lat="41.20844" lon="36.55096">
        <ele>12.41487</ele>
        <time>2021-08-19T08:35:18.156Z</time>
      </trkpt>
      <trkpt lat="41.20841" lon="36.5507">
        <ele>12.356734</ele>
        <time>2021-08-19T08:35:23.964Z</time>
      </trkpt>
      <trkpt lat="41.20833" lon="36.55071">
        <ele>12.333539</ele>
        <time>2021-08-19T08:35:26.127Z</time>
      </trkpt>
      <trkpt lat="41.20827" lon="36.55059">
        <ele>12.302728</ele>
        <time>2021-08-19T08:35:29.195Z</time>
      </trkpt>
      <trkpt lat="41.20827" lon="36.54986">
        <ele>12.136164</ele>
        <time>2021-08-19T08:35:45.742Z</time>
      </trkpt>
      <trkpt lat="41.20836" lon="36.54649">
        <ele>11.442781</ele>
        <time>2021-08-19T08:37:01.502Z</time>
      </trkpt>
      <trkpt lat="41.20837" lon="36.54418">
        <ele>10.807731</ele>
        <time>2021-08-19T08:37:51.856Z</time>
      </trkpt>
      <trkpt lat="41.20836" lon="36.54389">
        <ele>10.817841</ele>
        <time>2021-08-19T08:37:58.436Z</time>
      </trkpt>
      <trkpt lat="41.2085" lon="36.53903">
        <ele>11.583208</ele>
        <time>2021-08-19T08:39:56.951Z</time>
      </trkpt>
      <trkpt lat="41.20851" lon="36.53864">
        <ele>11.808873</ele>
        <time>2021-08-19T08:40:07.669Z</time>
      </trkpt>
      <trkpt lat="41.20841" lon="36.53729">
        <ele>12.603584</ele>
        <time>2021-08-19T08:40:45.607Z</time>
      </trkpt>
      <trkpt lat="41.20842" lon="36.53683">
        <ele>12.685301</ele>
        <time>2021-08-19T08:40:58.236Z</time>
      </trkpt>
      <trkpt lat="41.2086" lon="36.53528">
        <ele>12.649236</ele>
        <time>2021-08-19T08:41:34.911Z</time>
      </trkpt>
      <trkpt lat="41.2086" lon="36.53509">
        <ele>12.644729</ele>
        <time>2021-08-19T08:41:39.050Z</time>
      </trkpt>
      <trkpt lat="41.20861" lon="36.53439">
        <ele>12.42187</ele>
        <time>2021-08-19T08:41:53.449Z</time>
      </trkpt>
      <trkpt lat="41.20854" lon="36.53413">
        <ele>12.263694</ele>
        <time>2021-08-19T08:41:59.055Z</time>
      </trkpt>
      <trkpt lat="41.20858" lon="36.53388">
        <ele>12.116436</ele>
        <time>2021-08-19T08:42:04.308Z</time>
      </trkpt>
      <trkpt lat="41.20859" lon="36.53378">
        <ele>12.055601</ele>
        <time>2021-08-19T08:42:06.456Z</time>
      </trkpt>
      <trkpt lat="41.20863" lon="36.53351">
        <ele>11.899107</ele>
        <time>2021-08-19T08:42:12.046Z</time>
      </trkpt>
      <trkpt lat="41.20868" lon="36.53214">
        <ele>11.170058</ele>
        <time>2021-08-19T08:42:40.840Z</time>
      </trkpt>
      <trkpt lat="41.20873" lon="36.53064">
        <ele>10.692535</ele>
        <time>2021-08-19T08:43:14.405Z</time>
      </trkpt>
      <trkpt lat="41.20872" lon="36.52875">
        <ele>10.213751</ele>
        <time>2021-08-19T08:43:56.025Z</time>
      </trkpt>
      <trkpt lat="41.20882" lon="36.5246">
        <ele>9.763049</ele>
        <time>2021-08-19T08:45:30.895Z</time>
      </trkpt>
      <trkpt lat="41.2088" lon="36.52443">
        <ele>9.78003</ele>
        <time>2021-08-19T08:45:34.996Z</time>
      </trkpt>
      <trkpt lat="41.20872" lon="36.5243">
        <ele>9.796736</ele>
        <time>2021-08-19T08:45:39.068Z</time>
      </trkpt>
      <trkpt lat="41.20838" lon="36.52414">
        <ele>9.843937</ele>
        <time>2021-08-19T08:45:50.691Z</time>
      </trkpt>
      <trkpt lat="41.20807" lon="36.52389">
        <ele>9.89192</ele>
        <time>2021-08-19T08:46:02.480Z</time>
      </trkpt>
      <trkpt lat="41.20786" lon="36.52361">
        <ele>9.931079</ele>
        <time>2021-08-19T08:46:12.037Z</time>
      </trkpt>
      <trkpt lat="41.20747" lon="36.52263">
        <ele>10.083888</ele>
        <time>2021-08-19T08:46:39.358Z</time>
      </trkpt>
      <trkpt lat="41.20744" lon="36.52242">
        <ele>10.113509</ele>
        <time>2021-08-19T08:46:44.441Z</time>
      </trkpt>
      <trkpt lat="41.20743" lon="36.5222">
        <ele>10.143577</ele>
        <time>2021-08-19T08:46:49.715Z</time>
      </trkpt>
      <trkpt lat="41.20749" lon="36.52198">
        <ele>10.176836</ele>
        <time>2021-08-19T08:46:55.410Z</time>
      </trkpt>
      <trkpt lat="41.20762" lon="36.52174">
        <ele>10.217209</ele>
        <time>2021-08-19T08:47:02.457Z</time>
      </trkpt>
      <trkpt lat="41.20819" lon="36.52112">
        <ele>10.265312</ele>
        <time>2021-08-19T08:47:25.810Z</time>
      </trkpt>
      <trkpt lat="41.20851" lon="36.52087">
        <ele>10.259991</ele>
        <time>2021-08-19T08:47:37.075Z</time>
      </trkpt>
      <trkpt lat="41.20925" lon="36.52057">
        <ele>10.248807</ele>
        <time>2021-08-19T08:48:01.009Z</time>
      </trkpt>
      <trkpt lat="41.21044" lon="36.52042">
        <ele>10.248864</ele>
        <time>2021-08-19T08:48:38.185Z</time>
      </trkpt>
      <trkpt lat="41.21053" lon="36.52036">
        <ele>10.249179</ele>
        <time>2021-08-19T08:48:41.319Z</time>
      </trkpt>
      <trkpt lat="41.2106" lon="36.52024">
        <ele>10.249548</ele>
        <time>2021-08-19T08:48:44.936Z</time>
      </trkpt>
      <trkpt lat="41.21062" lon="36.52005">
        <ele>10.249999</ele>
        <time>2021-08-19T08:48:49.412Z</time>
      </trkpt>
      <trkpt lat="41.21052" lon="36.51877">
        <ele>10.236794</ele>
        <time>2021-08-19T08:49:19.452Z</time>
      </trkpt>
      <trkpt lat="41.21054" lon="36.5183">
        <ele>10.226625</ele>
        <time>2021-08-19T08:49:30.526Z</time>
      </trkpt>
      <trkpt lat="41.21091" lon="36.51591">
        <ele>10.200003</ele>
        <time>2021-08-19T08:50:27.465Z</time>
      </trkpt>
      <trkpt lat="41.21093" lon="36.51558">
        <ele>10.200004</ele>
        <time>2021-08-19T08:50:35.219Z</time>
      </trkpt>
      <trkpt lat="41.21088" lon="36.51504">
        <ele>10.200005</ele>
        <time>2021-08-19T08:50:48.116Z</time>
      </trkpt>
      <trkpt lat="41.21064" lon="36.51358">
        <ele>10.417044</ele>
        <time>2021-08-19T08:51:23.570Z</time>
      </trkpt>
      <trkpt lat="41.21058" lon="36.51324">
        <ele>10.480384</ele>
        <time>2021-08-19T08:51:32.023Z</time>
      </trkpt>
      <trkpt lat="41.21037" lon="36.51168">
        <ele>11.065926</ele>
        <time>2021-08-19T08:52:12.347Z</time>
      </trkpt>
      <trkpt lat="41.21031" lon="36.51117">
        <ele>11.371633</ele>
        <time>2021-08-19T08:52:26.163Z</time>
      </trkpt>
      <trkpt lat="41.21033" lon="36.50968">
        <ele>12.276452</ele>
        <time>2021-08-19T08:53:07.422Z</time>
      </trkpt>
      <trkpt lat="41.21031" lon="36.5093">
        <ele>12.517711</ele>
        <time>2021-08-19T08:53:17.918Z</time>
      </trkpt>
      <trkpt lat="41.21016" lon="36.50882">
        <ele>12.851602</ele>
        <time>2021-08-19T08:53:32.380Z</time>
      </trkpt>
      <trkpt lat="41.20987" lon="36.5072">
        <ele>13.665456</ele>
        <time>2021-08-19T08:54:16.638Z</time>
      </trkpt>
      <trkpt lat="41.20974" lon="36.50678">
        <ele>13.731683</ele>
        <time>2021-08-19T08:54:28.020Z</time>
      </trkpt>
      <trkpt lat="41.20955" lon="36.50637">
        <ele>13.800581</ele>
        <time>2021-08-19T08:54:39.493Z</time>
      </trkpt>
      <trkpt lat="41.20951" lon="36.50617">
        <ele>13.830877</ele>
        <time>2021-08-19T08:54:44.427Z</time>
      </trkpt>
      <trkpt lat="41.20946" lon="36.50467">
        <ele>13.669414</ele>
        <time>2021-08-19T08:55:18.525Z</time>
      </trkpt>
      <trkpt lat="41.20933" lon="36.50403">
        <ele>13.43945</ele>
        <time>2021-08-19T08:55:32.853Z</time>
      </trkpt>
      <trkpt lat="41.20944" lon="36.49955">
        <ele>11.398984</ele>
        <time>2021-08-19T08:57:07.978Z</time>
      </trkpt>
      <trkpt lat="41.20954" lon="36.49943">
        <ele>11.321624</ele>
        <time>2021-08-19T08:57:11.737Z</time>
      </trkpt>
      <trkpt lat="41.20987" lon="36.49924">
        <ele>11.120024</ele>
        <time>2021-08-19T08:57:21.870Z</time>
      </trkpt>
      <trkpt lat="41.21101" lon="36.49875">
        <ele>10.883097</ele>
        <time>2021-08-19T08:57:57.248Z</time>
      </trkpt>
      <trkpt lat="41.21118" lon="36.4986">
        <ele>10.888442</ele>
        <time>2021-08-19T08:58:03.811Z</time>
      </trkpt>
      <trkpt lat="41.21128" lon="36.49835">
        <ele>10.894063</ele>
        <time>2021-08-19T08:58:10.823Z</time>
      </trkpt>
      <trkpt lat="41.21148" lon="36.49736">
        <ele>10.988161</ele>
        <time>2021-08-19T08:58:36.232Z</time>
      </trkpt>
      <trkpt lat="41.2118" lon="36.49628">
        <ele>11.477692</ele>
        <time>2021-08-19T08:59:06.205Z</time>
      </trkpt>
      <trkpt lat="41.21194" lon="36.49554">
        <ele>11.798411</ele>
        <time>2021-08-19T08:59:26.154Z</time>
      </trkpt>
      <trkpt lat="41.212" lon="36.49424">
        <ele>12.242252</ele>
        <time>2021-08-19T09:00:00.143Z</time>
      </trkpt>
      <trkpt lat="41.21193" lon="36.49345">
        <ele>12.492823</ele>
        <time>2021-08-19T09:00:20.053Z</time>
      </trkpt>
      <trkpt lat="41.21193" lon="36.49301">
        <ele>12.63398</ele>
        <time>2021-08-19T09:00:31.017Z</time>
      </trkpt>
      <trkpt lat="41.21201" lon="36.49234">
        <ele>12.658588</ele>
        <time>2021-08-19T09:00:47.408Z</time>
      </trkpt>
      <trkpt lat="41.21225" lon="36.48778">
        <ele>12.37884</ele>
        <time>2021-08-19T09:02:32.030Z</time>
      </trkpt>
      <trkpt lat="41.21217" lon="36.48671">
        <ele>12.415649</ele>
        <time>2021-08-19T09:02:57.729Z</time>
      </trkpt>
      <trkpt lat="41.21189" lon="36.48591">
        <ele>12.445405</ele>
        <time>2021-08-19T09:03:18.729Z</time>
      </trkpt>
      <trkpt lat="41.2118" lon="36.48549">
        <ele>12.475775</ele>
        <time>2021-08-19T09:03:29.302Z</time>
      </trkpt>
      <trkpt lat="41.21179" lon="36.48512">
        <ele>12.505461</ele>
        <time>2021-08-19T09:03:38.225Z</time>
      </trkpt>
      <trkpt lat="41.21192" lon="36.48298">
        <ele>12.631873</ele>
        <time>2021-08-19T09:04:29.493Z</time>
      </trkpt>
      <trkpt lat="41.21191" lon="36.47926">
        <ele>12.346957</ele>
        <time>2021-08-19T09:05:55.479Z</time>
      </trkpt>
      <trkpt lat="41.2127" lon="36.47907">
        <ele>12.139068</ele>
        <time>2021-08-19T09:06:19.094Z</time>
      </trkpt>
      <trkpt lat="41.21295" lon="36.47901">
        <ele>12.052612</ele>
        <time>2021-08-19T09:06:26.219Z</time>
      </trkpt>
      <trkpt lat="41.21306" lon="36.47897">
        <ele>12.011594</ele>
        <time>2021-08-19T09:06:29.631Z</time>
      </trkpt>
      <trkpt lat="41.21298" lon="36.47881">
        <ele>11.962093</ele>
        <time>2021-08-19T09:06:36.714Z</time>
      </trkpt>
      <trkpt lat="41.2129" lon="36.47778">
        <ele>11.688494</ele>
        <time>2021-08-19T09:06:59.467Z</time>
      </trkpt>
      <trkpt lat="41.2129" lon="36.47745">
        <ele>11.624826</ele>
        <time>2021-08-19T09:07:07.069Z</time>
      </trkpt>
      <trkpt lat="41.21306" lon="36.47656">
        <ele>11.566031</ele>
        <time>2021-08-19T09:07:28.474Z</time>
      </trkpt>
      <trkpt lat="41.21303" lon="36.47602">
        <ele>11.531784</ele>
        <time>2021-08-19T09:07:40.865Z</time>
      </trkpt>
      <trkpt lat="41.21301" lon="36.47502">
        <ele>11.495629</ele>
        <time>2021-08-19T09:08:04.140Z</time>
      </trkpt>
      <trkpt lat="41.21343" lon="36.47496">
        <ele>11.547777</ele>
        <time>2021-08-19T09:08:17.784Z</time>
      </trkpt>
      <trkpt lat="41.21354" lon="36.47493">
        <ele>11.561424</ele>
        <time>2021-08-19T09:08:21.433Z</time>
      </trkpt>
      <trkpt lat="41.21362" lon="36.47482">
        <ele>11.574726</ele>
        <time>2021-08-19T09:08:25.040Z</time>
      </trkpt>
      <trkpt lat="41.21377" lon="36.47432">
        <ele>11.624141</ele>
        <time>2021-08-19T09:08:38.475Z</time>
      </trkpt>
      <trkpt lat="41.21405" lon="36.47372">
        <ele>11.689603</ele>
        <time>2021-08-19T09:08:56.506Z</time>
      </trkpt>
      <trkpt lat="41.21404" lon="36.47314">
        <ele>11.925734</ele>
        <time>2021-08-19T09:09:11.611Z</time>
      </trkpt>
      <trkpt lat="41.21409" lon="36.47266">
        <ele>12.158073</ele>
        <time>2021-08-19T09:09:24.543Z</time>
      </trkpt>
      <trkpt lat="41.21436" lon="36.4716">
        <ele>12.690801</ele>
        <time>2021-08-19T09:09:55.349Z</time>
      </trkpt>
      <trkpt lat="41.21447" lon="36.47016">
        <ele>13.685464</ele>
        <time>2021-08-19T09:10:36.555Z</time>
      </trkpt>
      <trkpt lat="41.21444" lon="36.46958">
        <ele>14.116078</ele>
        <time>2021-08-19T09:10:53.081Z</time>
      </trkpt>
      <trkpt lat="41.21426" lon="36.46886">
        <ele>14.689539</ele>
        <time>2021-08-19T09:11:15.328Z</time>
      </trkpt>
      <trkpt lat="41.21414" lon="36.46734">
        <ele>15.995661</ele>
        <time>2021-08-19T09:12:00.328Z</time>
      </trkpt>
      <trkpt lat="41.21407" lon="36.46697">
        <ele>16.324482</ele>
        <time>2021-08-19T09:12:11.629Z</time>
      </trkpt>
      <trkpt lat="41.21401" lon="36.46622">
        <ele>16.905051</ele>
        <time>2021-08-19T09:12:32.514Z</time>
      </trkpt>
      <trkpt lat="41.21367" lon="36.46398">
        <ele>18.511497</ele>
        <time>2021-08-19T09:13:34.419Z</time>
      </trkpt>
      <trkpt lat="41.21352" lon="36.46342">
        <ele>19.042485</ele>
        <time>2021-08-19T09:13:50.978Z</time>
      </trkpt>
      <trkpt lat="41.2133" lon="36.4631">
        <ele>19.425476</ele>
        <time>2021-08-19T09:14:03.268Z</time>
      </trkpt>
      <trkpt lat="41.21314" lon="36.46298">
        <ele>19.644413</ele>
        <time>2021-08-19T09:14:10.476Z</time>
      </trkpt>
      <trkpt lat="41.21299" lon="36.46286">
        <ele>19.843394</ele>
        <time>2021-08-19T09:14:16.873Z</time>
      </trkpt>
      <trkpt lat="41.21304" lon="36.4626">
        <ele>20.079781</ele>
        <time>2021-08-19T09:14:24.717Z</time>
      </trkpt>
      <trkpt lat="41.21317" lon="36.46184">
        <ele>20.741201</ele>
        <time>2021-08-19T09:14:47.251Z</time>
      </trkpt>
      <trkpt lat="41.21318" lon="36.46127">
        <ele>21.221657</ele>
        <time>2021-08-19T09:15:04.908Z</time>
      </trkpt>
      <trkpt lat="41.2131" lon="36.46035">
        <ele>21.991474</ele>
        <time>2021-08-19T09:15:30.784Z</time>
      </trkpt>
      <trkpt lat="41.21298" lon="36.45969">
        <ele>22.375406</ele>
        <time>2021-08-19T09:15:48.300Z</time>
      </trkpt>
      <trkpt lat="41.21289" lon="36.45945">
        <ele>22.357572</ele>
        <time>2021-08-19T09:15:55.604Z</time>
      </trkpt>
      <trkpt lat="41.21326" lon="36.45902">
        <ele>22.31318</ele>
        <time>2021-08-19T09:16:11.798Z</time>
      </trkpt>
      <trkpt lat="41.21363" lon="36.45856">
        <ele>22.268117</ele>
        <time>2021-08-19T09:16:27.449Z</time>
      </trkpt>
      <trkpt lat="41.21332" lon="36.45812">
        <ele>22.222623</ele>
        <time>2021-08-19T09:16:40.880Z</time>
      </trkpt>
      <trkpt lat="41.21489" lon="36.45618">
        <ele>20.063556</ele>
        <time>2021-08-19T09:17:38.055Z</time>
      </trkpt>
      <trkpt lat="41.21523" lon="36.45578">
        <ele>19.716342</ele>
        <time>2021-08-19T09:17:50.493Z</time>
      </trkpt>
      <trkpt lat="41.21557" lon="36.45536">
        <ele>19.359714</ele>
        <time>2021-08-19T09:18:03.737Z</time>
      </trkpt>
      <trkpt lat="41.21579" lon="36.45512">
        <ele>19.140092</ele>
        <time>2021-08-19T09:18:11.933Z</time>
      </trkpt>
      <trkpt lat="41.21576" lon="36.45507">
        <ele>19.103058</ele>
        <time>2021-08-19T09:18:13.544Z</time>
      </trkpt>
      <trkpt lat="41.21619" lon="36.45357">
        <ele>18.131847</ele>
        <time>2021-08-19T09:18:48.886Z</time>
      </trkpt>
      <trkpt lat="41.21628" lon="36.4533">
        <ele>17.947659</ele>
        <time>2021-08-19T09:18:55.406Z</time>
      </trkpt>
      <trkpt lat="41.21645" lon="36.45279">
        <ele>17.607169</ele>
        <time>2021-08-19T09:19:07.288Z</time>
      </trkpt>
      <trkpt lat="41.21663" lon="36.45228">
        <ele>17.194332</ele>
        <time>2021-08-19T09:19:19.091Z</time>
      </trkpt>
      <trkpt lat="41.21684" lon="36.4518">
        <ele>16.752164</ele>
        <time>2021-08-19T09:19:30.605Z</time>
      </trkpt>
      <trkpt lat="41.21839" lon="36.44894">
        <ele>14.235134</ele>
        <time>2021-08-19T09:20:45.569Z</time>
      </trkpt>
      <trkpt lat="41.21842" lon="36.44887">
        <ele>14.182567</ele>
        <time>2021-08-19T09:20:47.252Z</time>
      </trkpt>
      <trkpt lat="41.21862" lon="36.44848">
        <ele>14.062204</ele>
        <time>2021-08-19T09:20:58.210Z</time>
      </trkpt>
      <trkpt lat="41.21884" lon="36.448">
        <ele>14.169557</ele>
        <time>2021-08-19T09:21:12.064Z</time>
      </trkpt>
      <trkpt lat="41.21903" lon="36.44751">
        <ele>14.276068</ele>
        <time>2021-08-19T09:21:26.802Z</time>
      </trkpt>
      <trkpt lat="41.21924" lon="36.44697">
        <ele>14.392418</ele>
        <time>2021-08-19T09:21:43.025Z</time>
      </trkpt>
      <trkpt lat="41.21966" lon="36.44589">
        <ele>14.830206</ele>
        <time>2021-08-19T09:22:15.348Z</time>
      </trkpt>
      <trkpt lat="41.21974" lon="36.4457">
        <ele>14.930558</ele>
        <time>2021-08-19T09:22:21.404Z</time>
      </trkpt>
      <trkpt lat="41.22016" lon="36.44471">
        <ele>15.453447</ele>
        <time>2021-08-19T09:22:52.351Z</time>
      </trkpt>
      <trkpt lat="41.22009" lon="36.44433">
        <ele>15.629008</ele>
        <time>2021-08-19T09:23:02.825Z</time>
      </trkpt>
      <trkpt lat="41.22008" lon="36.4442">
        <ele>15.686743</ele>
        <time>2021-08-19T09:23:06.294Z</time>
      </trkpt>
      <trkpt lat="41.22064" lon="36.44118">
        <ele>16.723628</ele>
        <time>2021-08-19T09:24:29.904Z</time>
      </trkpt>
      <trkpt lat="41.22071" lon="36.44062">
        <ele>16.801217</ele>
        <time>2021-08-19T09:24:44.356Z</time>
      </trkpt>
      <trkpt lat="41.22098" lon="36.43988">
        <ele>16.911038</ele>
        <time>2021-08-19T09:25:04.223Z</time>
      </trkpt>
      <trkpt lat="41.22123" lon="36.4385">
        <ele>15.99421</ele>
        <time>2021-08-19T09:25:35.517Z</time>
      </trkpt>
      <trkpt lat="41.22144" lon="36.43775">
        <ele>15.462526</ele>
        <time>2021-08-19T09:25:52.157Z</time>
      </trkpt>
      <trkpt lat="41.22162" lon="36.43757">
        <ele>15.253411</ele>
        <time>2021-08-19T09:25:58.093Z</time>
      </trkpt>
      <trkpt lat="41.22198" lon="36.43753">
        <ele>14.884182</ele>
        <time>2021-08-19T09:26:08.084Z</time>
      </trkpt>
      <trkpt lat="41.22214" lon="36.43746">
        <ele>14.721679</ele>
        <time>2021-08-19T09:26:12.760Z</time>
      </trkpt>
      <trkpt lat="41.22226" lon="36.43731">
        <ele>14.552804</ele>
        <time>2021-08-19T09:26:17.172Z</time>
      </trkpt>
      <trkpt lat="41.22283" lon="36.43588">
        <ele>13.482292</ele>
        <time>2021-08-19T09:26:51.959Z</time>
      </trkpt>
      <trkpt lat="41.223" lon="36.43565">
        <ele>13.453487</ele>
        <time>2021-08-19T09:26:59.702Z</time>
      </trkpt>
      <trkpt lat="41.22348" lon="36.43518">
        <ele>13.38196</ele>
        <time>2021-08-19T09:27:20.073Z</time>
      </trkpt>
      <trkpt lat="41.22376" lon="36.43478">
        <ele>13.333524</ele>
        <time>2021-08-19T09:27:33.981Z</time>
      </trkpt>
      <trkpt lat="41.22409" lon="36.43446">
        <ele>13.271928</ele>
        <time>2021-08-19T09:27:47.115Z</time>
      </trkpt>
      <trkpt lat="41.22425" lon="36.4341">
        <ele>13.11433</ele>
        <time>2021-08-19T09:27:56.968Z</time>
      </trkpt>
      <trkpt lat="41.22455" lon="36.43365">
        <ele>12.890563</ele>
        <time>2021-08-19T09:28:09.804Z</time>
      </trkpt>
      <trkpt lat="41.22518" lon="36.43256">
        <ele>12.407783</ele>
        <time>2021-08-19T09:28:40.307Z</time>
      </trkpt>
      <trkpt lat="41.22528" lon="36.43236">
        <ele>12.44721</ele>
        <time>2021-08-19T09:28:46.346Z</time>
      </trkpt>
      <trkpt lat="41.22547" lon="36.43206">
        <ele>12.511404</ele>
        <time>2021-08-19T09:28:55.708Z</time>
      </trkpt>
      <trkpt lat="41.22561" lon="36.43181">
        <ele>12.563667</ele>
        <time>2021-08-19T09:29:03.314Z</time>
      </trkpt>
      <trkpt lat="41.22569" lon="36.43158">
        <ele>12.605768</ele>
        <time>2021-08-19T09:29:09.743Z</time>
      </trkpt>
      <trkpt lat="41.2258" lon="36.43105">
        <ele>12.696574</ele>
        <time>2021-08-19T09:29:23.675Z</time>
      </trkpt>
      <trkpt lat="41.22581" lon="36.43085">
        <ele>12.730358</ele>
        <time>2021-08-19T09:29:28.960Z</time>
      </trkpt>
      <trkpt lat="41.22579" lon="36.43039">
        <ele>12.814387</ele>
        <time>2021-08-19T09:29:41.622Z</time>
      </trkpt>
      <trkpt lat="41.22592" lon="36.4299">
        <ele>12.969017</ele>
        <time>2021-08-19T09:29:57.018Z</time>
      </trkpt>
      <trkpt lat="41.22614" lon="36.42917">
        <ele>13.200325</ele>
        <time>2021-08-19T09:30:18.468Z</time>
      </trkpt>
      <trkpt lat="41.22639" lon="36.42848">
        <ele>13.426206</ele>
        <time>2021-08-19T09:30:36.425Z</time>
      </trkpt>
      <trkpt lat="41.22671" lon="36.42766">
        <ele>12.941925</ele>
        <time>2021-08-19T09:30:55.548Z</time>
      </trkpt>
      <trkpt lat="41.22726" lon="36.42669">
        <ele>11.951359</ele>
        <time>2021-08-19T09:31:19.744Z</time>
      </trkpt>
      <trkpt lat="41.22751" lon="36.4265">
        <ele>11.642323</ele>
        <time>2021-08-19T09:31:27.090Z</time>
      </trkpt>
      <trkpt lat="41.22783" lon="36.42637">
        <ele>11.223949</ele>
        <time>2021-08-19T09:31:35.765Z</time>
      </trkpt>
      <trkpt lat="41.22853" lon="36.42629">
        <ele>10.327335</ele>
        <time>2021-08-19T09:31:53.668Z</time>
      </trkpt>
      <trkpt lat="41.22868" lon="36.42617">
        <ele>10.100619</ele>
        <time>2021-08-19T09:31:58.298Z</time>
      </trkpt>
      <trkpt lat="41.22889" lon="36.42586">
        <ele>9.690009</ele>
        <time>2021-08-19T09:32:06.779Z</time>
      </trkpt>
      <trkpt lat="41.22901" lon="36.42576">
        <ele>9.513721</ele>
        <time>2021-08-19T09:32:10.452Z</time>
      </trkpt>
      <trkpt lat="41.22925" lon="36.42571">
        <ele>9.206739</ele>
        <time>2021-08-19T09:32:17.157Z</time>
      </trkpt>
      <trkpt lat="41.22947" lon="36.42586">
        <ele>8.999087</ele>
        <time>2021-08-19T09:32:23.818Z</time>
      </trkpt>
      <trkpt lat="41.23049" lon="36.42679">
        <ele>7.944834</ele>
        <time>2021-08-19T09:32:57.926Z</time>
      </trkpt>
      <trkpt lat="41.23078" lon="36.42709">
        <ele>7.655414</ele>
        <time>2021-08-19T09:33:08.086Z</time>
      </trkpt>
      <trkpt lat="41.23119" lon="36.42749">
        <ele>7.382784</ele>
        <time>2021-08-19T09:33:22.390Z</time>
      </trkpt>
      <trkpt lat="41.23136" lon="36.42766">
        <ele>7.268559</ele>
        <time>2021-08-19T09:33:28.434Z</time>
      </trkpt>
      <trkpt lat="41.23201" lon="36.42831">
        <ele>6.834178</ele>
        <time>2021-08-19T09:33:51.916Z</time>
      </trkpt>
      <trkpt lat="41.23211" lon="36.4284">
        <ele>6.770827</ele>
        <time>2021-08-19T09:33:55.386Z</time>
      </trkpt>
      <trkpt lat="41.23218" lon="36.42828">
        <ele>6.723102</ele>
        <time>2021-08-19T09:33:58.753Z</time>
      </trkpt>
      <trkpt lat="41.23281" lon="36.42727">
        <ele>6.49676</ele>
        <time>2021-08-19T09:34:28.129Z</time>
      </trkpt>
      <trkpt lat="41.23312" lon="36.42679">
        <ele>6.39018</ele>
        <time>2021-08-19T09:34:42.532Z</time>
      </trkpt>
      <trkpt lat="41.23343" lon="36.42629">
        <ele>6.364276</ele>
        <time>2021-08-19T09:34:57.811Z</time>
      </trkpt>
      <trkpt lat="41.23378" lon="36.42574">
        <ele>6.471169</ele>
        <time>2021-08-19T09:35:14.736Z</time>
      </trkpt>
      <trkpt lat="41.23409" lon="36.42525">
        <ele>6.565615</ele>
        <time>2021-08-19T09:35:30.086Z</time>
      </trkpt>
      <trkpt lat="41.23442" lon="36.42474">
        <ele>6.664681</ele>
        <time>2021-08-19T09:35:46.922Z</time>
      </trkpt>
      <trkpt lat="41.23509" lon="36.42367">
        <ele>6.977787</ele>
        <time>2021-08-19T09:36:23.131Z</time>
      </trkpt>
      <trkpt lat="41.2353" lon="36.42334">
        <ele>7.077916</ele>
        <time>2021-08-19T09:36:33.996Z</time>
      </trkpt>
      <trkpt lat="41.2357" lon="36.42271">
        <ele>7.165259</ele>
        <time>2021-08-19T09:36:53.537Z</time>
      </trkpt>
      <trkpt lat="41.23572" lon="36.4227">
        <ele>7.153811</ele>
        <time>2021-08-19T09:36:54.245Z</time>
      </trkpt>
      <trkpt lat="41.23575" lon="36.42268">
        <ele>7.138869</ele>
        <time>2021-08-19T09:36:55.170Z</time>
      </trkpt>
      <trkpt lat="41.23576" lon="36.42266">
        <ele>7.127641</ele>
        <time>2021-08-19T09:36:55.849Z</time>
      </trkpt>
      <trkpt lat="41.23577" lon="36.42263">
        <ele>7.116174</ele>
        <time>2021-08-19T09:36:56.531Z</time>
      </trkpt>
      <trkpt lat="41.237" lon="36.42072">
        <ele>6.334375</ele>
        <time>2021-08-19T09:37:49.969Z</time>
      </trkpt>
      <trkpt lat="41.23731" lon="36.42023">
        <ele>6.319403</ele>
        <time>2021-08-19T09:38:04.171Z</time>
      </trkpt>
      <trkpt lat="41.23761" lon="36.41977">
        <ele>6.305276</ele>
        <time>2021-08-19T09:38:18.502Z</time>
      </trkpt>
      <trkpt lat="41.23791" lon="36.4193">
        <ele>6.29068</ele>
        <time>2021-08-19T09:38:34.087Z</time>
      </trkpt>
      <trkpt lat="41.23825" lon="36.41878">
        <ele>6.485356</ele>
        <time>2021-08-19T09:38:51.804Z</time>
      </trkpt>
      <trkpt lat="41.23834" lon="36.41863">
        <ele>6.548788</ele>
        <time>2021-08-19T09:38:56.848Z</time>
      </trkpt>
      <trkpt lat="41.23873" lon="36.41802">
        <ele>6.819791</ele>
        <time>2021-08-19T09:39:17.615Z</time>
      </trkpt>
      <trkpt lat="41.23897" lon="36.41765">
        <ele>6.983788</ele>
        <time>2021-08-19T09:39:29.877Z</time>
      </trkpt>
      <trkpt lat="41.24025" lon="36.4157">
        <ele>7.451335</ele>
        <time>2021-08-19T09:40:32.599Z</time>
      </trkpt>
      <trkpt lat="41.24028" lon="36.41569">
        <ele>7.458612</ele>
        <time>2021-08-19T09:40:33.723Z</time>
      </trkpt>
      <trkpt lat="41.24034" lon="36.4156">
        <ele>7.485138</ele>
        <time>2021-08-19T09:40:36.644Z</time>
      </trkpt>
      <trkpt lat="41.24034" lon="36.41555">
        <ele>7.5016</ele>
        <time>2021-08-19T09:40:37.780Z</time>
      </trkpt>
      <trkpt lat="41.24066" lon="36.41504">
        <ele>7.73434</ele>
        <time>2021-08-19T09:40:54.088Z</time>
      </trkpt>
      <trkpt lat="41.24099" lon="36.41453">
        <ele>7.968752</ele>
        <time>2021-08-19T09:41:10.931Z</time>
      </trkpt>
      <trkpt lat="41.24123" lon="36.41415">
        <ele>8.142328</ele>
        <time>2021-08-19T09:41:23.793Z</time>
      </trkpt>
      <trkpt lat="41.24114" lon="36.41405">
        <ele>8.199608</ele>
        <time>2021-08-19T09:41:28.099Z</time>
      </trkpt>
      <trkpt lat="41.24162" lon="36.4133">
        <ele>8.655017</ele>
        <time>2021-08-19T09:41:54.617Z</time>
      </trkpt>
      <trkpt lat="41.24179" lon="36.41306">
        <ele>8.81792</ele>
        <time>2021-08-19T09:42:03.046Z</time>
      </trkpt>
      <trkpt lat="41.24184" lon="36.41298">
        <ele>8.87636</ele>
        <time>2021-08-19T09:42:06.064Z</time>
      </trkpt>
      <trkpt lat="41.24246" lon="36.41201">
        <ele>9.525753</ele>
        <time>2021-08-19T09:42:39.762Z</time>
      </trkpt>
      <trkpt lat="41.24247" lon="36.41205">
        <ele>9.5316</ele>
        <time>2021-08-19T09:42:40.942Z</time>
      </trkpt>
      <trkpt lat="41.24252" lon="36.41212">
        <ele>9.533129</ele>
        <time>2021-08-19T09:42:43.676Z</time>
      </trkpt>
      <trkpt lat="41.24256" lon="36.41213">
        <ele>9.533856</ele>
        <time>2021-08-19T09:42:44.980Z</time>
      </trkpt>
      <trkpt lat="41.24259" lon="36.41212">
        <ele>9.534522</ele>
        <time>2021-08-19T09:42:46.118Z</time>
      </trkpt>
      <trkpt lat="41.24265" lon="36.41202">
        <ele>9.536467</ele>
        <time>2021-08-19T09:42:49.494Z</time>
      </trkpt>
      <trkpt lat="41.24265" lon="36.41198">
        <ele>9.537139</ele>
        <time>2021-08-19T09:42:50.615Z</time>
      </trkpt>
      <trkpt lat="41.24333" lon="36.41051">
        <ele>9.562789</ele>
        <time>2021-08-19T09:43:30.470Z</time>
      </trkpt>
      <trkpt lat="41.24373" lon="36.40965">
        <ele>9.11404</ele>
        <time>2021-08-19T09:43:52.072Z</time>
      </trkpt>
      <trkpt lat="41.24376" lon="36.40964">
        <ele>9.087622</ele>
        <time>2021-08-19T09:43:52.954Z</time>
      </trkpt>
      <trkpt lat="41.24382" lon="36.40954">
        <ele>9.011304</ele>
        <time>2021-08-19T09:43:55.650Z</time>
      </trkpt>
      <trkpt lat="41.24382" lon="36.40949">
        <ele>8.984716</ele>
        <time>2021-08-19T09:43:56.537Z</time>
      </trkpt>
      <trkpt lat="41.24381" lon="36.40945">
        <ele>8.954417</ele>
        <time>2021-08-19T09:43:57.552Z</time>
      </trkpt>
      <trkpt lat="41.24408" lon="36.40884">
        <ele>8.528974</ele>
        <time>2021-08-19T09:44:12.034Z</time>
      </trkpt>
      <trkpt lat="41.24429" lon="36.40812">
        <ele>8.054365</ele>
        <time>2021-08-19T09:44:28.038Z</time>
      </trkpt>
      <trkpt lat="41.24453" lon="36.40699">
        <ele>7.328505</ele>
        <time>2021-08-19T09:44:52.224Z</time>
      </trkpt>
      <trkpt lat="41.24462" lon="36.40674">
        <ele>7.157903</ele>
        <time>2021-08-19T09:44:57.949Z</time>
      </trkpt>
      <trkpt lat="41.24478" lon="36.40656">
        <ele>6.983974</ele>
        <time>2021-08-19T09:45:03.845Z</time>
      </trkpt>
      <trkpt lat="41.24505" lon="36.40636">
        <ele>6.729324</ele>
        <time>2021-08-19T09:45:12.455Z</time>
      </trkpt>
      <trkpt lat="41.24535" lon="36.40629">
        <ele>6.540804</ele>
        <time>2021-08-19T09:45:20.775Z</time>
      </trkpt>
      <trkpt lat="41.24557" lon="36.40628">
        <ele>6.428153</ele>
        <time>2021-08-19T09:45:26.934Z</time>
      </trkpt>
      <trkpt lat="41.24583" lon="36.40614">
        <ele>6.284724</ele>
        <time>2021-08-19T09:45:34.801Z</time>
      </trkpt>
      <trkpt lat="41.24618" lon="36.40612">
        <ele>6.103057</ele>
        <time>2021-08-19T09:45:44.798Z</time>
      </trkpt>
      <trkpt lat="41.24637" lon="36.40595">
        <ele>5.984412</ele>
        <time>2021-08-19T09:45:51.366Z</time>
      </trkpt>
      <trkpt lat="41.24697" lon="36.40523">
        <ele>5.730457</ele>
        <time>2021-08-19T09:46:15.316Z</time>
      </trkpt>
      <trkpt lat="41.24742" lon="36.40437">
        <ele>5.766216</ele>
        <time>2021-08-19T09:46:40.538Z</time>
      </trkpt>
      <trkpt lat="41.24756" lon="36.4042">
        <ele>5.774446</ele>
        <time>2021-08-19T09:46:46.461Z</time>
      </trkpt>
      <trkpt lat="41.24772" lon="36.40396">
        <ele>5.785381</ele>
        <time>2021-08-19T09:46:59.368Z</time>
      </trkpt>
      <trkpt lat="41.24789" lon="36.40362">
        <ele>5.799296</ele>
        <time>2021-08-19T09:47:15.611Z</time>
      </trkpt>
      <trkpt lat="41.24798" lon="36.4032">
        <ele>5.820304</ele>
        <time>2021-08-19T09:47:33.237Z</time>
      </trkpt>
      <trkpt lat="41.24796" lon="36.40294">
        <ele>5.832816</ele>
        <time>2021-08-19T09:47:39.966Z</time>
      </trkpt>
      <trkpt lat="41.24938" lon="36.39685">
        <ele>5.96516</ele>
        <time>2021-08-19T09:50:16.384Z</time>
      </trkpt>
      <trkpt lat="41.24948" lon="36.39691">
        <ele>5.939966</ele>
        <time>2021-08-19T09:50:19.881Z</time>
      </trkpt>
      <trkpt lat="41.24958" lon="36.39696">
        <ele>5.892647</ele>
        <time>2021-08-19T09:50:22.997Z</time>
      </trkpt>
      <trkpt lat="41.25071" lon="36.39743">
        <ele>5.340856</ele>
        <time>2021-08-19T09:50:58.772Z</time>
      </trkpt>
      <trkpt lat="41.25136" lon="36.39556">
        <ele>4.430747</ele>
        <time>2021-08-19T09:51:44.609Z</time>
      </trkpt>
      <trkpt lat="41.25165" lon="36.39429">
        <ele>3.784791</ele>
        <time>2021-08-19T09:52:14.157Z</time>
      </trkpt>
      <trkpt lat="41.25175" lon="36.39407">
        <ele>3.659163</ele>
        <time>2021-08-19T09:52:19.754Z</time>
      </trkpt>
      <trkpt lat="41.25202" lon="36.39431">
        <ele>3.453085</ele>
        <time>2021-08-19T09:52:28.855Z</time>
      </trkpt>
      <trkpt lat="41.25219" lon="36.39369">
        <ele>3.134465</ele>
        <time>2021-08-19T09:52:43.156Z</time>
      </trkpt>
      <trkpt lat="41.25259" lon="36.39271">
        <ele>2.92803</ele>
        <time>2021-08-19T09:53:08.833Z</time>
      </trkpt>
      <trkpt lat="41.25496" lon="36.38731">
        <ele>4.428857</ele>
        <time>2021-08-19T09:55:53.161Z</time>
      </trkpt>
      <trkpt lat="41.25517" lon="36.38684">
        <ele>4.501158</ele>
        <time>2021-08-19T09:56:06.094Z</time>
      </trkpt>
      <trkpt lat="41.25534" lon="36.3865">
        <ele>4.375882</ele>
        <time>2021-08-19T09:56:15.580Z</time>
      </trkpt>
      <trkpt lat="41.25579" lon="36.38575">
        <ele>4.086261</ele>
        <time>2021-08-19T09:56:36.980Z</time>
      </trkpt>
      <trkpt lat="41.25619" lon="36.38532">
        <ele>3.876336</ele>
        <time>2021-08-19T09:56:52.412Z</time>
      </trkpt>
      <trkpt lat="41.25679" lon="36.38493">
        <ele>3.932947</ele>
        <time>2021-08-19T09:57:12.848Z</time>
      </trkpt>
      <trkpt lat="41.2571" lon="36.38483">
        <ele>4.028363</ele>
        <time>2021-08-19T09:57:23.286Z</time>
      </trkpt>
      <trkpt lat="41.26071" lon="36.3846">
        <ele>6.042882</ele>
        <time>2021-08-19T09:59:35.017Z</time>
      </trkpt>
      <trkpt lat="41.26151" lon="36.38449">
        <ele>6.464755</ele>
        <time>2021-08-19T10:00:03.225Z</time>
      </trkpt>
      <trkpt lat="41.26245" lon="36.3842">
        <ele>6.671112</ele>
        <time>2021-08-19T10:00:35.308Z</time>
      </trkpt>
      <trkpt lat="41.26336" lon="36.38364">
        <ele>6.809259</ele>
        <time>2021-08-19T10:01:08.371Z</time>
      </trkpt>
      <trkpt lat="41.26389" lon="36.38318">
        <ele>6.814633</ele>
        <time>2021-08-19T10:01:28.890Z</time>
      </trkpt>
      <trkpt lat="41.26467" lon="36.38234">
        <ele>6.81743</ele>
        <time>2021-08-19T10:02:02.089Z</time>
      </trkpt>
      <trkpt lat="41.26523" lon="36.38162">
        <ele>6.778414</ele>
        <time>2021-08-19T10:02:26.044Z</time>
      </trkpt>
      <trkpt lat="41.26569" lon="36.38098">
        <ele>6.733254</ele>
        <time>2021-08-19T10:02:47.283Z</time>
      </trkpt>
      <trkpt lat="41.26591" lon="36.38071">
        <ele>6.713233</ele>
        <time>2021-08-19T10:02:56.796Z</time>
      </trkpt>
      <trkpt lat="41.26622" lon="36.38036">
        <ele>6.759768</ele>
        <time>2021-08-19T10:03:10.491Z</time>
      </trkpt>
      <trkpt lat="41.26701" lon="36.37922">
        <ele>7.212003</ele>
        <time>2021-08-19T10:03:50.156Z</time>
      </trkpt>
      <trkpt lat="41.26726" lon="36.37883">
        <ele>7.361241</ele>
        <time>2021-08-19T10:04:04.416Z</time>
      </trkpt>
      <trkpt lat="41.26824" lon="36.37749">
        <ele>8.146717</ele>
        <time>2021-08-19T10:04:56.212Z</time>
      </trkpt>
      <trkpt lat="41.26875" lon="36.37667">
        <ele>8.305352</ele>
        <time>2021-08-19T10:05:23.264Z</time>
      </trkpt>
      <trkpt lat="41.26948" lon="36.37527">
        <ele>7.84156</ele>
        <time>2021-08-19T10:06:01.410Z</time>
      </trkpt>
      <trkpt lat="41.26982" lon="36.3748">
        <ele>7.812456</ele>
        <time>2021-08-19T10:06:15.799Z</time>
      </trkpt>
      <trkpt lat="41.27034" lon="36.37418">
        <ele>7.910997</ele>
        <time>2021-08-19T10:06:37.573Z</time>
      </trkpt>
      <trkpt lat="41.27042" lon="36.37401">
        <ele>7.932988</ele>
        <time>2021-08-19T10:06:43.158Z</time>
      </trkpt>
      <trkpt lat="41.27053" lon="36.3737">
        <ele>7.970214</ele>
        <time>2021-08-19T10:06:52.034Z</time>
      </trkpt>
      <trkpt lat="41.27073" lon="36.37241">
        <ele>8.767375</ele>
        <time>2021-08-19T10:07:29.474Z</time>
      </trkpt>
      <trkpt lat="41.27097" lon="36.37176">
        <ele>9.454923</ele>
        <time>2021-08-19T10:07:52.923Z</time>
      </trkpt>
      <trkpt lat="41.27146" lon="36.37072">
        <ele>10.346197</ele>
        <time>2021-08-19T10:08:29.310Z</time>
      </trkpt>
      <trkpt lat="41.27189" lon="36.36959">
        <ele>10.548293</ele>
        <time>2021-08-19T10:09:02.289Z</time>
      </trkpt>
      <trkpt lat="41.2725" lon="36.36759">
        <ele>9.879756</ele>
        <time>2021-08-19T10:09:50.201Z</time>
      </trkpt>
      <trkpt lat="41.27295" lon="36.36629">
        <ele>9.05644</ele>
        <time>2021-08-19T10:10:20.874Z</time>
      </trkpt>
      <trkpt lat="41.27307" lon="36.36598">
        <ele>8.8536</ele>
        <time>2021-08-19T10:10:28.511Z</time>
      </trkpt>
      <trkpt lat="41.27309" lon="36.36594">
        <ele>8.828549</ele>
        <time>2021-08-19T10:10:29.421Z</time>
      </trkpt>
      <trkpt lat="41.27482" lon="36.36719">
        <ele>7.662681</ele>
        <time>2021-08-19T10:11:25.000Z</time>
      </trkpt>
      <trkpt lat="41.27776" lon="36.36031">
        <ele>5.859546</ele>
        <time>2021-08-19T10:14:29.907Z</time>
      </trkpt>
      <trkpt lat="41.27819" lon="36.35931">
        <ele>5.737182</ele>
        <time>2021-08-19T10:14:57.408Z</time>
      </trkpt>
      <trkpt lat="41.2787" lon="36.35801">
        <ele>5.683019</ele>
        <time>2021-08-19T10:15:32.622Z</time>
      </trkpt>
      <trkpt lat="41.2789" lon="36.35754">
        <ele>5.709246</ele>
        <time>2021-08-19T10:15:45.837Z</time>
      </trkpt>
      <trkpt lat="41.27956" lon="36.35584">
        <ele>6.221407</ele>
        <time>2021-08-19T10:16:35.561Z</time>
      </trkpt>
      <trkpt lat="41.27912" lon="36.3542">
        <ele>6.761266</ele>
        <time>2021-08-19T10:17:23.288Z</time>
      </trkpt>
      <trkpt lat="41.27866" lon="36.35287">
        <ele>6.870027</ele>
        <time>2021-08-19T10:17:59.977Z</time>
      </trkpt>
      <trkpt lat="41.27869" lon="36.3528">
        <ele>6.83769</ele>
        <time>2021-08-19T10:18:01.875Z</time>
      </trkpt>
      <trkpt lat="41.27866" lon="36.35273">
        <ele>6.803342</ele>
        <time>2021-08-19T10:18:03.774Z</time>
      </trkpt>
      <trkpt lat="41.2787" lon="36.35267">
        <ele>6.768573</ele>
        <time>2021-08-19T10:18:05.711Z</time>
      </trkpt>
      <trkpt lat="41.27897" lon="36.35235">
        <ele>6.571611</ele>
        <time>2021-08-19T10:18:16.495Z</time>
      </trkpt>
      <trkpt lat="41.27923" lon="36.35205">
        <ele>6.386568</ele>
        <time>2021-08-19T10:18:26.335Z</time>
      </trkpt>
      <trkpt lat="41.27931" lon="36.35197">
        <ele>6.331595</ele>
        <time>2021-08-19T10:18:29.174Z</time>
      </trkpt>
      <trkpt lat="41.27941" lon="36.35187">
        <ele>6.263883</ele>
        <time>2021-08-19T10:18:32.789Z</time>
      </trkpt>
      <trkpt lat="41.27943" lon="36.35195">
        <ele>6.228312</ele>
        <time>2021-08-19T10:18:34.598Z</time>
      </trkpt>
      <trkpt lat="41.27946" lon="36.35193">
        <ele>6.208916</ele>
        <time>2021-08-19T10:18:35.633Z</time>
      </trkpt>
      <trkpt lat="41.27953" lon="36.35219">
        <ele>6.098137</ele>
        <time>2021-08-19T10:18:41.322Z</time>
      </trkpt>
      <trkpt lat="41.28034" lon="36.35333">
        <ele>5.488834</ele>
        <time>2021-08-19T10:19:15.030Z</time>
      </trkpt>
      <trkpt lat="41.28072" lon="36.354">
        <ele>5.177086</ele>
        <time>2021-08-19T10:19:35.705Z</time>
      </trkpt>
      <trkpt lat="41.28079" lon="36.35404">
        <ele>5.236142</ele>
        <time>2021-08-19T10:19:38.356Z</time>
      </trkpt>
      <trkpt lat="41.28082" lon="36.35401">
        <ele>5.273884</ele>
        <time>2021-08-19T10:19:39.859Z</time>
      </trkpt>
      <trkpt lat="41.28085" lon="36.35364">
        <ele>5.502957</ele>
        <time>2021-08-19T10:19:49.669Z</time>
      </trkpt>
      <trkpt lat="41.28084" lon="36.35339">
        <ele>5.658851</ele>
        <time>2021-08-19T10:19:56.269Z</time>
      </trkpt>
      <trkpt lat="41.28083" lon="36.3531">
        <ele>5.842188</ele>
        <time>2021-08-19T10:20:05.505Z</time>
      </trkpt>
      <trkpt lat="41.28096" lon="36.3515">
        <ele>6.632954</ele>
        <time>2021-08-19T10:20:51.678Z</time>
      </trkpt>
      <trkpt lat="41.281" lon="36.35125">
        <ele>6.607477</ele>
        <time>2021-08-19T10:20:59.596Z</time>
      </trkpt>
      <trkpt lat="41.28101" lon="36.35121">
        <ele>6.602789</ele>
        <time>2021-08-19T10:21:00.898Z</time>
      </trkpt>
      <trkpt lat="41.28115" lon="36.35083">
        <ele>6.560005</ele>
        <time>2021-08-19T10:21:11.452Z</time>
      </trkpt>
      <trkpt lat="41.28132" lon="36.35056">
        <ele>6.524207</ele>
        <time>2021-08-19T10:21:19.711Z</time>
      </trkpt>
      <trkpt lat="41.2815" lon="36.35042">
        <ele>6.495924</ele>
        <time>2021-08-19T10:21:26.111Z</time>
      </trkpt>
      <trkpt lat="41.28561" lon="36.34825">
        <ele>2.327537</ele>
        <time>2021-08-19T10:23:28.683Z</time>
      </trkpt>
      <trkpt lat="41.28639" lon="36.34793">
        <ele>2.277542</ele>
        <time>2021-08-19T10:23:55.151Z</time>
      </trkpt>
      <trkpt lat="41.28646" lon="36.34784">
        <ele>2.271632</ele>
        <time>2021-08-19T10:23:58.037Z</time>
      </trkpt>
      <trkpt lat="41.28653" lon="36.34778">
        <ele>2.266811</ele>
        <time>2021-08-19T10:24:01.582Z</time>
      </trkpt>
      <trkpt lat="41.28664" lon="36.34739">
        <ele>2.247508</ele>
        <time>2021-08-19T10:24:12.170Z</time>
      </trkpt>
      <trkpt lat="41.28657" lon="36.3461">
        <ele>2.426656</ele>
        <time>2021-08-19T10:24:46.711Z</time>
      </trkpt>
      <trkpt lat="41.28657" lon="36.34601">
        <ele>2.445657</ele>
        <time>2021-08-19T10:24:48.918Z</time>
      </trkpt>
      <trkpt lat="41.28659" lon="36.34601">
        <ele>2.451897</ele>
        <time>2021-08-19T10:24:50.552Z</time>
      </trkpt>
      <trkpt lat="41.28658" lon="36.3459">
        <ele>2.473058</ele>
        <time>2021-08-19T10:24:54.090Z</time>
      </trkpt>
      <trkpt lat="41.28668" lon="36.34502">
        <ele>2.645905</ele>
        <time>2021-08-19T10:25:15.708Z</time>
      </trkpt>
      <trkpt lat="41.28673" lon="36.34484">
        <ele>2.68369</ele>
        <time>2021-08-19T10:25:20.326Z</time>
      </trkpt>
      <trkpt lat="41.28692" lon="36.34449">
        <ele>2.594049</ele>
        <time>2021-08-19T10:25:30.295Z</time>
      </trkpt>
      <trkpt lat="41.28711" lon="36.34433">
        <ele>2.501821</ele>
        <time>2021-08-19T10:25:36.967Z</time>
      </trkpt>
      <trkpt lat="41.28879" lon="36.34352">
        <ele>1.857963</ele>
        <time>2021-08-19T10:26:30.619Z</time>
      </trkpt>
      <trkpt lat="41.29255" lon="36.34009">
        <ele>1.019182</ele>
        <time>2021-08-19T10:28:54.711Z</time>
      </trkpt>
      <trkpt lat="41.29272" lon="36.33993">
        <ele>0.989957</ele>
        <time>2021-08-19T10:29:01.301Z</time>
      </trkpt>
      <trkpt lat="41.29288" lon="36.3398">
        <ele>0.979049</ele>
        <time>2021-08-19T10:29:07.236Z</time>
      </trkpt>
      <trkpt lat="41.29323" lon="36.33941">
        <ele>1.188373</ele>
        <time>2021-08-19T10:29:21.951Z</time>
      </trkpt>
      <trkpt lat="41.29367" lon="36.33827">
        <ele>1.627399</ele>
        <time>2021-08-19T10:29:55.307Z</time>
      </trkpt>
      <trkpt lat="41.29389" lon="36.33787">
        <ele>1.823225</ele>
        <time>2021-08-19T10:30:09.548Z</time>
      </trkpt>
      <trkpt lat="41.29516" lon="36.33685">
        <ele>4.013377</ele>
        <time>2021-08-19T10:31:10.901Z</time>
      </trkpt>
      <trkpt lat="41.2959" lon="36.33641">
        <ele>4.96777</ele>
        <time>2021-08-19T10:31:44.034Z</time>
      </trkpt>
      <trkpt lat="41.29628" lon="36.33626">
        <ele>5.375593</ele>
        <time>2021-08-19T10:31:59.597Z</time>
      </trkpt>
      <trkpt lat="41.29653" lon="36.33614">
        <ele>5.641304</ele>
        <time>2021-08-19T10:32:10.284Z</time>
      </trkpt>
      <trkpt lat="41.29664" lon="36.3361">
        <ele>5.7588</ele>
        <time>2021-08-19T10:32:13.750Z</time>
      </trkpt>
      <trkpt lat="41.29659" lon="36.33586">
        <ele>5.95</ele>
        <time>2021-08-19T10:32:21.299Z</time>
      </trkpt>
      <trkpt lat="41.2965" lon="36.33521">
        <ele>6.25995</ele>
        <time>2021-08-19T10:32:37.733Z</time>
      </trkpt>
      <trkpt lat="41.29646" lon="36.33492">
        <ele>6.236572</ele>
        <time>2021-08-19T10:32:45.489Z</time>
      </trkpt>
      <trkpt lat="41.29778" lon="36.33445">
        <ele>6.093913</ele>
        <time>2021-08-19T10:33:25.624Z</time>
      </trkpt>
      <trkpt lat="41.30105" lon="36.33325">
        <ele>6.181552</ele>
        <time>2021-08-19T10:35:12.417Z</time>
      </trkpt>
      <trkpt lat="41.3014" lon="36.33323">
        <ele>6.186627</ele>
        <time>2021-08-19T10:35:23.535Z</time>
      </trkpt>
      <trkpt lat="41.3019" lon="36.33336">
        <ele>6.158955</ele>
        <time>2021-08-19T10:35:39.366Z</time>
      </trkpt>
      <trkpt lat="41.30218" lon="36.33346">
        <ele>6.143342</ele>
        <time>2021-08-19T10:35:48.242Z</time>
      </trkpt>
      <trkpt lat="41.30236" lon="36.33353">
        <ele>6.132994</ele>
        <time>2021-08-19T10:35:54.293Z</time>
      </trkpt>
      <trkpt lat="41.3025" lon="36.33357">
        <ele>6.125022</ele>
        <time>2021-08-19T10:35:58.961Z</time>
      </trkpt>
      <trkpt lat="41.30254" lon="36.33365">
        <ele>6.121216</ele>
        <time>2021-08-19T10:36:01.212Z</time>
      </trkpt>
      <trkpt lat="41.30651" lon="36.33478">
        <ele>5.376706</ele>
        <time>2021-08-19T10:38:08.211Z</time>
      </trkpt>
      <trkpt lat="41.30741" lon="36.33539">
        <ele>5.235566</ele>
        <time>2021-08-19T10:38:39.529Z</time>
      </trkpt>
      <trkpt lat="41.3077" lon="36.33586">
        <ele>5.173428</ele>
        <time>2021-08-19T10:38:53.675Z</time>
      </trkpt>
      <trkpt lat="41.30784" lon="36.33623">
        <ele>5.131101</ele>
        <time>2021-08-19T10:39:03.785Z</time>
      </trkpt>
      <trkpt lat="41.30888" lon="36.337">
        <ele>5.626024</ele>
        <time>2021-08-19T10:39:45.153Z</time>
      </trkpt>
      <trkpt lat="41.309" lon="36.3371">
        <ele>5.690696</ele>
        <time>2021-08-19T10:39:50.307Z</time>
      </trkpt>
      <trkpt lat="41.30912" lon="36.33722">
        <ele>5.755138</ele>
        <time>2021-08-19T10:39:55.478Z</time>
      </trkpt>
      <trkpt lat="41.3092" lon="36.33726">
        <ele>5.795033</ele>
        <time>2021-08-19T10:39:58.904Z</time>
      </trkpt>
      <trkpt lat="41.30926" lon="36.33725">
        <ele>5.819422</ele>
        <time>2021-08-19T10:40:00.879Z</time>
      </trkpt>
      <trkpt lat="41.30937" lon="36.33718">
        <ele>5.87422</ele>
        <time>2021-08-19T10:40:05.193Z</time>
      </trkpt>
      <trkpt lat="41.30939" lon="36.33715">
        <ele>5.887672</ele>
        <time>2021-08-19T10:40:06.231Z</time>
      </trkpt>
      <trkpt lat="41.30941" lon="36.33713">
        <ele>5.898364</ele>
        <time>2021-08-19T10:40:07.115Z</time>
      </trkpt>
      <trkpt lat="41.30944" lon="36.33707">
        <ele>5.926763</ele>
        <time>2021-08-19T10:40:09.259Z</time>
      </trkpt>
      <trkpt lat="41.30947" lon="36.33703">
        <ele>5.952321</ele>
        <time>2021-08-19T10:40:10.865Z</time>
      </trkpt>
      <trkpt lat="41.30953" lon="36.33698">
        <ele>5.997585</ele>
        <time>2021-08-19T10:40:13.255Z</time>
      </trkpt>
      <trkpt lat="41.30976" lon="36.33633">
        <ele>6.349844</ele>
        <time>2021-08-19T10:40:33.030Z</time>
      </trkpt>
      <trkpt lat="41.3098" lon="36.33622">
        <ele>6.410959</ele>
        <time>2021-08-19T10:40:36.684Z</time>
      </trkpt>
      <trkpt lat="41.30981" lon="36.33619">
        <ele>6.429719</ele>
        <time>2021-08-19T10:40:37.707Z</time>
      </trkpt>
      <trkpt lat="41.30999" lon="36.33598">
        <ele>6.585581</ele>
        <time>2021-08-19T10:40:46.405Z</time>
      </trkpt>
      <trkpt lat="41.31045" lon="36.3361">
        <ele>6.892378</ele>
        <time>2021-08-19T10:41:03.522Z</time>
      </trkpt>
      <trkpt lat="41.31056" lon="36.33613">
        <ele>6.968822</ele>
        <time>2021-08-19T10:41:07.407Z</time>
      </trkpt>
      <trkpt lat="41.31065" lon="36.33615">
        <ele>7.022664</ele>
        <time>2021-08-19T10:41:10.452Z</time>
      </trkpt>
      <trkpt lat="41.31149" lon="36.33636">
        <ele>7.278153</ele>
        <time>2021-08-19T10:41:40.037Z</time>
      </trkpt>
      <trkpt lat="41.31209" lon="36.33643">
        <ele>7.426179</ele>
        <time>2021-08-19T10:42:00.535Z</time>
      </trkpt>
      <trkpt lat="41.31265" lon="36.33648">
        <ele>7.49912</ele>
        <time>2021-08-19T10:42:18.661Z</time>
      </trkpt>
      <trkpt lat="41.31343" lon="36.33644">
        <ele>7.229008</ele>
        <time>2021-08-19T10:42:42.793Z</time>
      </trkpt>
      <trkpt lat="41.31428" lon="36.33619">
        <ele>6.928753</ele>
        <time>2021-08-19T10:43:08.877Z</time>
      </trkpt>
      <trkpt lat="41.31518" lon="36.33582">
        <ele>6.716019</ele>
        <time>2021-08-19T10:43:37.512Z</time>
      </trkpt>
      <trkpt lat="41.31555" lon="36.33558">
        <ele>6.625419</ele>
        <time>2021-08-19T10:43:50.482Z</time>
      </trkpt>
      <trkpt lat="41.31643" lon="36.33478">
        <ele>6.765409</ele>
        <time>2021-08-19T10:44:26.080Z</time>
      </trkpt>
      <trkpt lat="41.31713" lon="36.33391">
        <ele>7.169596</ele>
        <time>2021-08-19T10:45:00.163Z</time>
      </trkpt>
      <trkpt lat="41.31882" lon="36.33118">
        <ele>8.917676</ele>
        <time>2021-08-19T10:46:35.466Z</time>
      </trkpt>
      <trkpt lat="41.31908" lon="36.3307">
        <ele>9.284206</ele>
        <time>2021-08-19T10:46:51.799Z</time>
      </trkpt>
      <trkpt lat="41.31936" lon="36.32998">
        <ele>9.795632</ele>
        <time>2021-08-19T10:47:15.491Z</time>
      </trkpt>
      <trkpt lat="41.31938" lon="36.32989">
        <ele>9.851348</ele>
        <time>2021-08-19T10:47:18.020Z</time>
      </trkpt>
      <trkpt lat="41.31948" lon="36.32953">
        <ele>10.064517</ele>
        <time>2021-08-19T10:47:29.514Z</time>
      </trkpt>
      <trkpt lat="41.31967" lon="36.32852">
        <ele>10.601639</ele>
        <time>2021-08-19T10:47:57.913Z</time>
      </trkpt>
      <trkpt lat="41.31972" lon="36.3283">
        <ele>10.71839</ele>
        <time>2021-08-19T10:48:04.339Z</time>
      </trkpt>
      <trkpt lat="41.31972" lon="36.32826">
        <ele>10.740365</ele>
        <time>2021-08-19T10:48:05.464Z</time>
      </trkpt>
      <trkpt lat="41.31976" lon="36.32807">
        <ele>10.842859</ele>
        <time>2021-08-19T10:48:10.330Z</time>
      </trkpt>
      <trkpt lat="41.31987" lon="36.32777">
        <ele>11.016208</ele>
        <time>2021-08-19T10:48:19.624Z</time>
      </trkpt>
      <trkpt lat="41.31989" lon="36.32768">
        <ele>11.06383</ele>
        <time>2021-08-19T10:48:21.726Z</time>
      </trkpt>
      <trkpt lat="41.31999" lon="36.32759">
        <ele>11.146356</ele>
        <time>2021-08-19T10:48:25.896Z</time>
      </trkpt>
      <trkpt lat="41.32" lon="36.32743">
        <ele>11.184356</ele>
        <time>2021-08-19T10:48:30.234Z</time>
      </trkpt>
      <trkpt lat="41.32002" lon="36.32722">
        <ele>11.226487</ele>
        <time>2021-08-19T10:48:35.095Z</time>
      </trkpt>
      <trkpt lat="41.32005" lon="36.32686">
        <ele>11.301415</ele>
        <time>2021-08-19T10:48:44.711Z</time>
      </trkpt>
      <trkpt lat="41.32008" lon="36.3266">
        <ele>11.353223</ele>
        <time>2021-08-19T10:48:51.305Z</time>
      </trkpt>
      <trkpt lat="41.32019" lon="36.32613">
        <ele>11.45418</ele>
        <time>2021-08-19T10:49:04.036Z</time>
      </trkpt>
      <trkpt lat="41.32041" lon="36.32524">
        <ele>11.631928</ele>
        <time>2021-08-19T10:49:28.039Z</time>
      </trkpt>
      <trkpt lat="41.32053" lon="36.32485">
        <ele>11.451553</ele>
        <time>2021-08-19T10:49:39.259Z</time>
      </trkpt>
      <trkpt lat="41.32057" lon="36.32472">
        <ele>11.389147</ele>
        <time>2021-08-19T10:49:42.413Z</time>
      </trkpt>
      <trkpt lat="41.32087" lon="36.32361">
        <ele>10.884741</ele>
        <time>2021-08-19T10:50:08.030Z</time>
      </trkpt>
      <trkpt lat="41.32089" lon="36.32349">
        <ele>10.833434</ele>
        <time>2021-08-19T10:50:11.265Z</time>
      </trkpt>
      <trkpt lat="41.32093" lon="36.32333">
        <ele>10.76037</ele>
        <time>2021-08-19T10:50:14.390Z</time>
      </trkpt>
      <trkpt lat="41.32098" lon="36.32306">
        <ele>10.643821</ele>
        <time>2021-08-19T10:50:21.295Z</time>
      </trkpt>
      <trkpt lat="41.32102" lon="36.32301">
        <ele>10.607115</ele>
        <time>2021-08-19T10:50:22.942Z</time>
      </trkpt>
      <trkpt lat="41.3211" lon="36.3229">
        <ele>10.476897</ele>
        <time>2021-08-19T10:50:25.801Z</time>
      </trkpt>
      <trkpt lat="41.32124" lon="36.3227">
        <ele>10.252471</ele>
        <time>2021-08-19T10:50:32.817Z</time>
      </trkpt>
      <trkpt lat="41.32132" lon="36.3226">
        <ele>10.137649</ele>
        <time>2021-08-19T10:50:35.233Z</time>
      </trkpt>
      <trkpt lat="41.32136" lon="36.32255">
        <ele>10.069468</ele>
        <time>2021-08-19T10:50:36.814Z</time>
      </trkpt>
      <trkpt lat="41.3214" lon="36.32247">
        <ele>9.99617</ele>
        <time>2021-08-19T10:50:38.959Z</time>
      </trkpt>
      <trkpt lat="41.32146" lon="36.32235">
        <ele>9.869441</ele>
        <time>2021-08-19T10:50:43.076Z</time>
      </trkpt>
      <trkpt lat="41.32161" lon="36.32174">
        <ele>9.341886</ele>
        <time>2021-08-19T10:50:55.583Z</time>
      </trkpt>
      <trkpt lat="41.32164" lon="36.32162">
        <ele>9.234348</ele>
        <time>2021-08-19T10:50:58.133Z</time>
      </trkpt>
      <trkpt lat="41.32169" lon="36.32137">
        <ele>9.018182</ele>
        <time>2021-08-19T10:51:04.032Z</time>
      </trkpt>
      <trkpt lat="41.32188" lon="36.32044">
        <ele>8.435282</ele>
        <time>2021-08-19T10:51:24.667Z</time>
      </trkpt>
      <trkpt lat="41.322" lon="36.3201">
        <ele>8.29098</ele>
        <time>2021-08-19T10:51:33.610Z</time>
      </trkpt>
      <trkpt lat="41.32204" lon="36.32002">
        <ele>8.254196</ele>
        <time>2021-08-19T10:51:36.201Z</time>
      </trkpt>
      <trkpt lat="41.32212" lon="36.31988">
        <ele>8.188012</ele>
        <time>2021-08-19T10:51:40.107Z</time>
      </trkpt>
      <trkpt lat="41.32242" lon="36.31933">
        <ele>7.928274</ele>
        <time>2021-08-19T10:51:56.030Z</time>
      </trkpt>
      <trkpt lat="41.32262" lon="36.31898">
        <ele>7.758889</ele>
        <time>2021-08-19T10:52:06.028Z</time>
      </trkpt>
      <trkpt lat="41.32276" lon="36.31875">
        <ele>7.629312</ele>
        <time>2021-08-19T10:52:12.664Z</time>
      </trkpt>
      <trkpt lat="41.32308" lon="36.31821">
        <ele>7.298554</ele>
        <time>2021-08-19T10:52:27.738Z</time>
      </trkpt>
      <trkpt lat="41.32311" lon="36.31815">
        <ele>7.261893</ele>
        <time>2021-08-19T10:52:29.379Z</time>
      </trkpt>
      <trkpt lat="41.32326" lon="36.31789">
        <ele>7.107544</ele>
        <time>2021-08-19T10:52:36.397Z</time>
      </trkpt>
      <trkpt lat="41.32389" lon="36.31679">
        <ele>6.471564</ele>
        <time>2021-08-19T10:53:07.071Z</time>
      </trkpt>
      <trkpt lat="41.32394" lon="36.31671">
        <ele>6.435979</ele>
        <time>2021-08-19T10:53:09.298Z</time>
      </trkpt>
      <trkpt lat="41.32403" lon="36.31656">
        <ele>6.370239</ele>
        <time>2021-08-19T10:53:13.671Z</time>
      </trkpt>
      <trkpt lat="41.32439" lon="36.31586">
        <ele>6.082991</ele>
        <time>2021-08-19T10:53:32.969Z</time>
      </trkpt>
      <trkpt lat="41.32503" lon="36.3151">
        <ele>5.714063</ele>
        <time>2021-08-19T10:53:59.086Z</time>
      </trkpt>
      <trkpt lat="41.32522" lon="36.31486">
        <ele>5.647237</ele>
        <time>2021-08-19T10:54:07.425Z</time>
      </trkpt>
      <trkpt lat="41.32552" lon="36.31451">
        <ele>5.548661</ele>
        <time>2021-08-19T10:54:19.792Z</time>
      </trkpt>
      <trkpt lat="41.32568" lon="36.31431">
        <ele>5.493531</ele>
        <time>2021-08-19T10:54:26.578Z</time>
      </trkpt>
      <trkpt lat="41.3259" lon="36.31399">
        <ele>5.412523</ele>
        <time>2021-08-19T10:54:36.740Z</time>
      </trkpt>
      <trkpt lat="41.32612" lon="36.31344">
        <ele>5.29615</ele>
        <time>2021-08-19T10:54:51.373Z</time>
      </trkpt>
      <trkpt lat="41.32662" lon="36.31155">
        <ele>5.091342</ele>
        <time>2021-08-19T10:55:39.123Z</time>
      </trkpt>
      <trkpt lat="41.32696" lon="36.30781">
        <ele>5.497558</ele>
        <time>2021-08-19T10:57:11.699Z</time>
      </trkpt>
      <trkpt lat="41.32707" lon="36.30685">
        <ele>5.853912</ele>
        <time>2021-08-19T10:57:38.355Z</time>
      </trkpt>
      <trkpt lat="41.32742" lon="36.30506">
        <ele>6.78998</ele>
        <time>2021-08-19T10:58:30.412Z</time>
      </trkpt>
      <trkpt lat="41.32821" lon="36.30217">
        <ele>8.105094</ele>
        <time>2021-08-19T10:59:53.323Z</time>
      </trkpt>
      <trkpt lat="41.32853" lon="36.3004">
        <ele>7.825185</ele>
        <time>2021-08-19T11:00:37.721Z</time>
      </trkpt>
      <trkpt lat="41.32875" lon="36.29962">
        <ele>7.594488</ele>
        <time>2021-08-19T11:00:55.120Z</time>
      </trkpt>
      <trkpt lat="41.32878" lon="36.29954">
        <ele>7.570326</ele>
        <time>2021-08-19T11:00:57.523Z</time>
      </trkpt>
      <trkpt lat="41.32881" lon="36.29943">
        <ele>7.493693</ele>
        <time>2021-08-19T11:00:59.762Z</time>
      </trkpt>
      <trkpt lat="41.32901" lon="36.29887">
        <ele>7.071942</ele>
        <time>2021-08-19T11:01:13.305Z</time>
      </trkpt>
      <trkpt lat="41.3292" lon="36.29848">
        <ele>6.755706</ele>
        <time>2021-08-19T11:01:23.258Z</time>
      </trkpt>
      <trkpt lat="41.32928" lon="36.29837">
        <ele>6.651749</ele>
        <time>2021-08-19T11:01:26.331Z</time>
      </trkpt>
      <trkpt lat="41.32962" lon="36.29751">
        <ele>5.990422</ele>
        <time>2021-08-19T11:01:46.832Z</time>
      </trkpt>
      <trkpt lat="41.33016" lon="36.29541">
        <ele>5.31773</ele>
        <time>2021-08-19T11:02:38.639Z</time>
      </trkpt>
      <trkpt lat="41.33102" lon="36.29294">
        <ele>4.75229</ele>
        <time>2021-08-19T11:03:41.891Z</time>
      </trkpt>
      <trkpt lat="41.33129" lon="36.29194">
        <ele>4.77961</ele>
        <time>2021-08-19T11:04:07.541Z</time>
      </trkpt>
      <trkpt lat="41.3319" lon="36.29033">
        <ele>4.920858</ele>
        <time>2021-08-19T11:04:52.993Z</time>
      </trkpt>
      <trkpt lat="41.33353" lon="36.28483">
        <ele>6.060585</ele>
        <time>2021-08-19T11:07:24.005Z</time>
      </trkpt>
      <trkpt lat="41.33432" lon="36.28277">
        <ele>6.346914</ele>
        <time>2021-08-19T11:08:21.999Z</time>
      </trkpt>
      <trkpt lat="41.33509" lon="36.28022">
        <ele>6.510251</ele>
        <time>2021-08-19T11:09:29.748Z</time>
      </trkpt>
      <trkpt lat="41.33664" lon="36.27565">
        <ele>6.751784</ele>
        <time>2021-08-19T11:11:33.781Z</time>
      </trkpt>
      <trkpt lat="41.33714" lon="36.27428">
        <ele>6.687485</ele>
        <time>2021-08-19T11:12:10.364Z</time>
      </trkpt>
      <trkpt lat="41.33742" lon="36.27365">
        <ele>6.646756</ele>
        <time>2021-08-19T11:12:27.750Z</time>
      </trkpt>
      <trkpt lat="41.33772" lon="36.27313">
        <ele>6.643004</ele>
        <time>2021-08-19T11:12:43.681Z</time>
      </trkpt>
      <trkpt lat="41.33784" lon="36.27281">
        <ele>6.665154</ele>
        <time>2021-08-19T11:12:52.520Z</time>
      </trkpt>
      <trkpt lat="41.339" lon="36.26905">
        <ele>6.96503</ele>
        <time>2021-08-19T11:14:34.132Z</time>
      </trkpt>
      <trkpt lat="41.33943" lon="36.26816">
        <ele>6.851039</ele>
        <time>2021-08-19T11:14:59.494Z</time>
      </trkpt>
      <trkpt lat="41.34063" lon="36.26506">
        <ele>6.296289</ele>
        <time>2021-08-19T11:16:20.840Z</time>
      </trkpt>
      <trkpt lat="41.34202" lon="36.26214">
        <ele>6.188942</ele>
        <time>2021-08-19T11:17:44.978Z</time>
      </trkpt>
      <trkpt lat="41.34245" lon="36.26136">
        <ele>6.174132</ele>
        <time>2021-08-19T11:18:08.725Z</time>
      </trkpt>
      <trkpt lat="41.34321" lon="36.25958">
        <ele>6.02897</ele>
        <time>2021-08-19T11:18:58.104Z</time>
      </trkpt>
      <trkpt lat="41.34373" lon="36.25791">
        <ele>5.796814</ele>
        <time>2021-08-19T11:19:40.705Z</time>
      </trkpt>
      <trkpt lat="41.34394" lon="36.25744">
        <ele>5.705319</ele>
        <time>2021-08-19T11:19:53.300Z</time>
      </trkpt>
      <trkpt lat="41.34492" lon="36.25538">
        <ele>5.436721</ele>
        <time>2021-08-19T11:20:50.641Z</time>
      </trkpt>
      <trkpt lat="41.34517" lon="36.25503">
        <ele>5.406238</ele>
        <time>2021-08-19T11:21:02.502Z</time>
      </trkpt>
      <trkpt lat="41.3456" lon="36.25473">
        <ele>5.388931</ele>
        <time>2021-08-19T11:21:18.541Z</time>
      </trkpt>
      <trkpt lat="41.3458" lon="36.25451">
        <ele>5.463338</ele>
        <time>2021-08-19T11:21:27.460Z</time>
      </trkpt>
      <trkpt lat="41.34661" lon="36.25291">
        <ele>5.868804</ele>
        <time>2021-08-19T11:22:17.188Z</time>
      </trkpt>
      <trkpt lat="41.34671" lon="36.2527">
        <ele>5.903943</ele>
        <time>2021-08-19T11:22:23.678Z</time>
      </trkpt>
      <trkpt lat="41.34686" lon="36.2524">
        <ele>5.95051</ele>
        <time>2021-08-19T11:22:32.855Z</time>
      </trkpt>
      <trkpt lat="41.34692" lon="36.25214">
        <ele>5.984839</ele>
        <time>2021-08-19T11:22:39.378Z</time>
      </trkpt>
      <trkpt lat="41.34764" lon="36.25072">
        <ele>6.201215</ele>
        <time>2021-08-19T11:23:22.316Z</time>
      </trkpt>
      <trkpt lat="41.34829" lon="36.24957">
        <ele>6.33809</ele>
        <time>2021-08-19T11:23:58.246Z</time>
      </trkpt>
      <trkpt lat="41.3487" lon="36.24871">
        <ele>6.430273</ele>
        <time>2021-08-19T11:24:23.231Z</time>
      </trkpt>
      <trkpt lat="41.34933" lon="36.24795">
        <ele>6.519054</ele>
        <time>2021-08-19T11:24:51.301Z</time>
      </trkpt>
      <trkpt lat="41.3497" lon="36.24724">
        <ele>6.586566</ele>
        <time>2021-08-19T11:25:12.727Z</time>
      </trkpt>
      <trkpt lat="41.35049" lon="36.24612">
        <ele>6.693084</ele>
        <time>2021-08-19T11:25:51.153Z</time>
      </trkpt>
      <trkpt lat="41.3511" lon="36.24516">
        <ele>6.735024</ele>
        <time>2021-08-19T11:26:22.230Z</time>
      </trkpt>
      <trkpt lat="41.3514" lon="36.2446">
        <ele>6.649548</ele>
        <time>2021-08-19T11:26:38.762Z</time>
      </trkpt>
      <trkpt lat="41.35166" lon="36.24428">
        <ele>6.592053</ele>
        <time>2021-08-19T11:26:49.722Z</time>
      </trkpt>
      <trkpt lat="41.35197" lon="36.24403">
        <ele>6.531788</ele>
        <time>2021-08-19T11:27:01.079Z</time>
      </trkpt>
      <trkpt lat="41.35214" lon="36.24382">
        <ele>6.493403</ele>
        <time>2021-08-19T11:27:08.292Z</time>
      </trkpt>
      <trkpt lat="41.35233" lon="36.2435">
        <ele>6.437073</ele>
        <time>2021-08-19T11:27:17.612Z</time>
      </trkpt>
      <trkpt lat="41.35295" lon="36.24269">
        <ele>6.253937</ele>
        <time>2021-08-19T11:27:44.616Z</time>
      </trkpt>
      <trkpt lat="41.35357" lon="36.2415">
        <ele>6.085695</ele>
        <time>2021-08-19T11:28:19.289Z</time>
      </trkpt>
      <trkpt lat="41.35409" lon="36.24093">
        <ele>6.078825</ele>
        <time>2021-08-19T11:28:41.291Z</time>
      </trkpt>
      <trkpt lat="41.35461" lon="36.24009">
        <ele>6.07043</ele>
        <time>2021-08-19T11:29:07.875Z</time>
      </trkpt>
      <trkpt lat="41.35526" lon="36.23945">
        <ele>5.79481</ele>
        <time>2021-08-19T11:29:33.449Z</time>
      </trkpt>
      <trkpt lat="41.35705" lon="36.23778">
        <ele>4.799163</ele>
        <time>2021-08-19T11:30:38.813Z</time>
      </trkpt>
      <trkpt lat="41.35817" lon="36.2371">
        <ele>4.343463</ele>
        <time>2021-08-19T11:31:15.361Z</time>
      </trkpt>
      <trkpt lat="41.35928" lon="36.23672">
        <ele>4.124738</ele>
        <time>2021-08-19T11:31:51.736Z</time>
      </trkpt>
      <trkpt lat="41.35975" lon="36.23636">
        <ele>4.352822</ele>
        <time>2021-08-19T11:32:10.571Z</time>
      </trkpt>
      <trkpt lat="41.36049" lon="36.23552">
        <ele>4.802757</ele>
        <time>2021-08-19T11:32:45.861Z</time>
      </trkpt>
      <trkpt lat="41.3613" lon="36.23436">
        <ele>5.031161</ele>
        <time>2021-08-19T11:33:27.770Z</time>
      </trkpt>
      <trkpt lat="41.36314" lon="36.23252">
        <ele>4.721535</ele>
        <time>2021-08-19T11:34:38.587Z</time>
      </trkpt>
      <trkpt lat="41.36419" lon="36.23174">
        <ele>4.539735</ele>
        <time>2021-08-19T11:35:16.082Z</time>
      </trkpt>
      <trkpt lat="41.36562" lon="36.23084">
        <ele>4.411173</ele>
        <time>2021-08-19T11:36:08.310Z</time>
      </trkpt>
      <trkpt lat="41.36639" lon="36.23052">
        <ele>4.338577</ele>
        <time>2021-08-19T11:36:34.359Z</time>
      </trkpt>
      <trkpt lat="41.3672" lon="36.23037">
        <ele>4.241632</ele>
        <time>2021-08-19T11:36:59.177Z</time>
      </trkpt>
      <trkpt lat="41.36783" lon="36.23036">
        <ele>4.147665</ele>
        <time>2021-08-19T11:37:17.506Z</time>
      </trkpt>
      <trkpt lat="41.36813" lon="36.23039">
        <ele>4.101528</ele>
        <time>2021-08-19T11:37:27.234Z</time>
      </trkpt>
      <trkpt lat="41.36883" lon="36.2306">
        <ele>4.220133</ele>
        <time>2021-08-19T11:37:52.789Z</time>
      </trkpt>
      <trkpt lat="41.36926" lon="36.23077">
        <ele>4.576398</ele>
        <time>2021-08-19T11:38:08.703Z</time>
      </trkpt>
      <trkpt lat="41.36935" lon="36.23073">
        <ele>4.655769</ele>
        <time>2021-08-19T11:38:15.597Z</time>
      </trkpt>
      <trkpt lat="41.36932" lon="36.23061">
        <ele>4.734143</ele>
        <time>2021-08-19T11:38:22.460Z</time>
      </trkpt>
      <trkpt lat="41.36987" lon="36.23008">
        <ele>5.272258</ele>
        <time>2021-08-19T11:38:46.709Z</time>
      </trkpt>
      <trkpt lat="41.37063" lon="36.23032">
        <ele>5.892794</ele>
        <time>2021-08-19T11:39:16.487Z</time>
      </trkpt>
      <trkpt lat="41.37122" lon="36.23036">
        <ele>6.365985</ele>
        <time>2021-08-19T11:39:38.176Z</time>
      </trkpt>
      <trkpt lat="41.37156" lon="36.23039">
        <ele>6.637178</ele>
        <time>2021-08-19T11:39:49.158Z</time>
      </trkpt>
      <trkpt lat="41.37172" lon="36.23034">
        <ele>6.766935</ele>
        <time>2021-08-19T11:39:54.426Z</time>
      </trkpt>
      <trkpt lat="41.37213" lon="36.23021">
        <ele>6.809987</ele>
        <time>2021-08-19T11:40:08.548Z</time>
      </trkpt>
      <trkpt lat="41.37219" lon="36.23019">
        <ele>6.789482</ele>
        <time>2021-08-19T11:40:10.667Z</time>
      </trkpt>
      <trkpt lat="41.3724" lon="36.23013">
        <ele>6.721894</ele>
        <time>2021-08-19T11:40:17.837Z</time>
      </trkpt>
      <trkpt lat="41.37262" lon="36.22996">
        <ele>6.637067</ele>
        <time>2021-08-19T11:40:26.558Z</time>
      </trkpt>
      <trkpt lat="41.37306" lon="36.22963">
        <ele>6.471468</ele>
        <time>2021-08-19T11:40:41.499Z</time>
      </trkpt>
      <trkpt lat="41.37333" lon="36.22943">
        <ele>6.370925</ele>
        <time>2021-08-19T11:40:49.604Z</time>
      </trkpt>
      <trkpt lat="41.37341" lon="36.22937">
        <ele>6.340877</ele>
        <time>2021-08-19T11:40:51.924Z</time>
      </trkpt>
      <trkpt lat="41.37346" lon="36.22933">
        <ele>6.321465</ele>
        <time>2021-08-19T11:40:53.435Z</time>
      </trkpt>
      <trkpt lat="41.37354" lon="36.22928">
        <ele>6.245384</ele>
        <time>2021-08-19T11:40:55.637Z</time>
      </trkpt>
      <trkpt lat="41.37361" lon="36.2292">
        <ele>6.125409</ele>
        <time>2021-08-19T11:40:57.932Z</time>
      </trkpt>
      <trkpt lat="41.37377" lon="36.22898">
        <ele>5.812309</ele>
        <time>2021-08-19T11:41:03.763Z</time>
      </trkpt>
      <trkpt lat="41.37405" lon="36.22849">
        <ele>5.177199</ele>
        <time>2021-08-19T11:41:15.739Z</time>
      </trkpt>
      <trkpt lat="41.37448" lon="36.22785">
        <ele>4.288701</ele>
        <time>2021-08-19T11:41:32.506Z</time>
      </trkpt>
      <trkpt lat="41.37455" lon="36.22775">
        <ele>4.147471</ele>
        <time>2021-08-19T11:41:35.306Z</time>
      </trkpt>
      <trkpt lat="41.37504" lon="36.22706">
        <ele>3.801422</ele>
        <time>2021-08-19T11:41:53.579Z</time>
      </trkpt>
      <trkpt lat="41.37597" lon="36.22582">
        <ele>3.697916</ele>
        <time>2021-08-19T11:42:35.659Z</time>
      </trkpt>
      <trkpt lat="41.37624" lon="36.22547">
        <ele>4.161774</ele>
        <time>2021-08-19T11:42:51.593Z</time>
      </trkpt>
      <trkpt lat="41.37647" lon="36.22505">
        <ele>4.656106</ele>
        <time>2021-08-19T11:43:08.300Z</time>
      </trkpt>
      <trkpt lat="41.37703" lon="36.22376">
        <ele>5.953639</ele>
        <time>2021-08-19T11:43:50.844Z</time>
      </trkpt>
      <trkpt lat="41.37791" lon="36.22244">
        <ele>6.148836</ele>
        <time>2021-08-19T11:44:35.553Z</time>
      </trkpt>
      <trkpt lat="41.37905" lon="36.22088">
        <ele>4.983608</ele>
        <time>2021-08-19T11:45:18.830Z</time>
      </trkpt>
      <trkpt lat="41.37987" lon="36.21986">
        <ele>4.341388</ele>
        <time>2021-08-19T11:45:50.232Z</time>
      </trkpt>
      <trkpt lat="41.38047" lon="36.21894">
        <ele>4.164272</ele>
        <time>2021-08-19T11:46:18.931Z</time>
      </trkpt>
      <trkpt lat="41.38068" lon="36.21861">
        <ele>4.109804</ele>
        <time>2021-08-19T11:46:29.214Z</time>
      </trkpt>
      <trkpt lat="41.38094" lon="36.21814">
        <ele>4.231399</ele>
        <time>2021-08-19T11:46:42.938Z</time>
      </trkpt>
      <trkpt lat="41.3812" lon="36.21776">
        <ele>4.342156</ele>
        <time>2021-08-19T11:46:55.693Z</time>
      </trkpt>
      <trkpt lat="41.38126" lon="36.21768">
        <ele>4.36519</ele>
        <time>2021-08-19T11:46:58.436Z</time>
      </trkpt>
      <trkpt lat="41.3817" lon="36.21704">
        <ele>4.550499</ele>
        <time>2021-08-19T11:47:20.662Z</time>
      </trkpt>
      <trkpt lat="41.38238" lon="36.21616">
        <ele>4.718912</ele>
        <time>2021-08-19T11:47:51.467Z</time>
      </trkpt>
      <trkpt lat="41.38255" lon="36.21594">
        <ele>4.752558</ele>
        <time>2021-08-19T11:47:58.878Z</time>
      </trkpt>
      <trkpt lat="41.38317" lon="36.21524">
        <ele>4.870405</ele>
        <time>2021-08-19T11:48:24.667Z</time>
      </trkpt>
      <trkpt lat="41.38336" lon="36.215">
        <ele>4.837863</ele>
        <time>2021-08-19T11:48:32.904Z</time>
      </trkpt>
      <trkpt lat="41.38352" lon="36.21476">
        <ele>4.801362</ele>
        <time>2021-08-19T11:48:40.406Z</time>
      </trkpt>
      <trkpt lat="41.38376" lon="36.21436">
        <ele>4.742777</ele>
        <time>2021-08-19T11:48:52.123Z</time>
      </trkpt>
      <trkpt lat="41.38396" lon="36.21427">
        <ele>4.710048</ele>
        <time>2021-08-19T11:48:58.601Z</time>
      </trkpt>
      <trkpt lat="41.38579" lon="36.21198">
        <ele>4.420589</ele>
        <time>2021-08-19T11:50:16.533Z</time>
      </trkpt>
      <trkpt lat="41.38593" lon="36.212">
        <ele>4.536674</ele>
        <time>2021-08-19T11:50:21.611Z</time>
      </trkpt>
      <trkpt lat="41.3861" lon="36.2118">
        <ele>4.74844</ele>
        <time>2021-08-19T11:50:30.601Z</time>
      </trkpt>
      <trkpt lat="41.38642" lon="36.2115">
        <ele>5.103409</ele>
        <time>2021-08-19T11:50:46.006Z</time>
      </trkpt>
      <trkpt lat="41.38641" lon="36.21132">
        <ele>5.231347</ele>
        <time>2021-08-19T11:50:51.396Z</time>
      </trkpt>
      <trkpt lat="41.38706" lon="36.21069">
        <ele>5.972693</ele>
        <time>2021-08-19T11:51:22.404Z</time>
      </trkpt>
      <trkpt lat="41.38711" lon="36.21044">
        <ele>6.075278</ele>
        <time>2021-08-19T11:51:30.442Z</time>
      </trkpt>
      <trkpt lat="41.38785" lon="36.2096">
        <ele>6.075806</ele>
        <time>2021-08-19T11:52:03.594Z</time>
      </trkpt>
      <trkpt lat="41.38884" lon="36.20831">
        <ele>5.392735</ele>
        <time>2021-08-19T11:52:40.709Z</time>
      </trkpt>
      <trkpt lat="41.38913" lon="36.20793">
        <ele>4.963567</ele>
        <time>2021-08-19T11:52:51.321Z</time>
      </trkpt>
      <trkpt lat="41.38938" lon="36.20783">
        <ele>4.678742</ele>
        <time>2021-08-19T11:52:58.421Z</time>
      </trkpt>
      <trkpt lat="41.39009" lon="36.20705">
        <ele>3.978102</ele>
        <time>2021-08-19T11:53:23.330Z</time>
      </trkpt>
      <trkpt lat="41.39049" lon="36.20664">
        <ele>3.776884</ele>
        <time>2021-08-19T11:53:37.732Z</time>
      </trkpt>
      <trkpt lat="41.39075" lon="36.20635">
        <ele>3.643563</ele>
        <time>2021-08-19T11:53:48.212Z</time>
      </trkpt>
      <trkpt lat="41.39105" lon="36.20604">
        <ele>3.492407</ele>
        <time>2021-08-19T11:54:00.190Z</time>
      </trkpt>
      <trkpt lat="41.39122" lon="36.20588">
        <ele>3.426079</ele>
        <time>2021-08-19T11:54:06.932Z</time>
      </trkpt>
      <trkpt lat="41.39271" lon="36.20426">
        <ele>3.139827</ele>
        <time>2021-08-19T11:55:05.718Z</time>
      </trkpt>
      <trkpt lat="41.39281" lon="36.20416">
        <ele>3.073046</ele>
        <time>2021-08-19T11:55:09.092Z</time>
      </trkpt>
      <trkpt lat="41.39331" lon="36.20357">
        <ele>2.707772</ele>
        <time>2021-08-19T11:55:28.289Z</time>
      </trkpt>
      <trkpt lat="41.39371" lon="36.20302">
        <ele>2.396567</ele>
        <time>2021-08-19T11:55:44.237Z</time>
      </trkpt>
      <trkpt lat="41.39433" lon="36.20236">
        <ele>2.133057</ele>
        <time>2021-08-19T11:56:06.682Z</time>
      </trkpt>
      <trkpt lat="41.39476" lon="36.2019">
        <ele>2.0056</ele>
        <time>2021-08-19T11:56:23.069Z</time>
      </trkpt>
      <trkpt lat="41.39548" lon="36.20114">
        <ele>1.950199</ele>
        <time>2021-08-19T11:56:51.907Z</time>
      </trkpt>
      <trkpt lat="41.39723" lon="36.19899">
        <ele>3.053623</ele>
        <time>2021-08-19T11:58:13.874Z</time>
      </trkpt>
      <trkpt lat="41.39767" lon="36.19851">
        <ele>3.282435</ele>
        <time>2021-08-19T11:58:32.981Z</time>
      </trkpt>
      <trkpt lat="41.39813" lon="36.19797">
        <ele>3.376941</ele>
        <time>2021-08-19T11:58:53.110Z</time>
      </trkpt>
      <trkpt lat="41.39879" lon="36.19722">
        <ele>2.975072</ele>
        <time>2021-08-19T11:59:18.916Z</time>
      </trkpt>
      <trkpt lat="41.39884" lon="36.19719">
        <ele>2.946468</ele>
        <time>2021-08-19T11:59:20.642Z</time>
      </trkpt>
      <trkpt lat="41.39901" lon="36.19735">
        <ele>2.851457</ele>
        <time>2021-08-19T11:59:26.308Z</time>
      </trkpt>
      <trkpt lat="41.39909" lon="36.19733">
        <ele>2.812164</ele>
        <time>2021-08-19T11:59:28.729Z</time>
      </trkpt>
      <trkpt lat="41.39937" lon="36.197">
        <ele>2.637571</ele>
        <time>2021-08-19T11:59:38.771Z</time>
      </trkpt>
      <trkpt lat="41.3995" lon="36.19686">
        <ele>2.48603</ele>
        <time>2021-08-19T11:59:42.954Z</time>
      </trkpt>
      <trkpt lat="41.39976" lon="36.19658">
        <ele>2.146316</ele>
        <time>2021-08-19T11:59:51.857Z</time>
      </trkpt>
      <trkpt lat="41.39998" lon="36.19633">
        <ele>1.850948</ele>
        <time>2021-08-19T11:59:59.680Z</time>
      </trkpt>
      <trkpt lat="41.40029" lon="36.19596">
        <ele>1.423782</ele>
        <time>2021-08-19T12:00:10.807Z</time>
      </trkpt>
      <trkpt lat="41.4004" lon="36.19583">
        <ele>1.274961</ele>
        <time>2021-08-19T12:00:14.751Z</time>
      </trkpt>
      <trkpt lat="41.40056" lon="36.19566">
        <ele>1.067154</ele>
        <time>2021-08-19T12:00:20.224Z</time>
      </trkpt>
      <trkpt lat="41.40068" lon="36.19552">
        <ele>0.908167</ele>
        <time>2021-08-19T12:00:24.462Z</time>
      </trkpt>
      <trkpt lat="41.40103" lon="36.19517">
        <ele>0.756726</ele>
        <time>2021-08-19T12:00:37.058Z</time>
      </trkpt>
      <trkpt lat="41.40107" lon="36.19513">
        <ele>0.752435</ele>
        <time>2021-08-19T12:00:38.177Z</time>
      </trkpt>
      <trkpt lat="41.40132" lon="36.19489">
        <ele>0.720226</ele>
        <time>2021-08-19T12:00:47.037Z</time>
      </trkpt>
      <trkpt lat="41.40141" lon="36.19481">
        <ele>0.709058</ele>
        <time>2021-08-19T12:00:50.085Z</time>
      </trkpt>
      <trkpt lat="41.4028" lon="36.19337">
        <ele>1.153738</ele>
        <time>2021-08-19T12:01:48.474Z</time>
      </trkpt>
      <trkpt lat="41.40303" lon="36.1932">
        <ele>1.34538</ele>
        <time>2021-08-19T12:01:57.992Z</time>
      </trkpt>
      <trkpt lat="41.4032" lon="36.19307">
        <ele>1.491203</ele>
        <time>2021-08-19T12:02:04.941Z</time>
      </trkpt>
      <trkpt lat="41.40358" lon="36.19271">
        <ele>1.831641</ele>
        <time>2021-08-19T12:02:21.943Z</time>
      </trkpt>
      <trkpt lat="41.40385" lon="36.19245">
        <ele>2.180963</ele>
        <time>2021-08-19T12:02:34.587Z</time>
      </trkpt>
      <trkpt lat="41.4039" lon="36.1924">
        <ele>2.260188</ele>
        <time>2021-08-19T12:02:37.402Z</time>
      </trkpt>
      <trkpt lat="41.40437" lon="36.1919">
        <ele>2.991826</ele>
        <time>2021-08-19T12:03:00.432Z</time>
      </trkpt>
      <trkpt lat="41.40461" lon="36.19164">
        <ele>3.369328</ele>
        <time>2021-08-19T12:03:13.016Z</time>
      </trkpt>
      <trkpt lat="41.40467" lon="36.19158">
        <ele>3.456003</ele>
        <time>2021-08-19T12:03:15.613Z</time>
      </trkpt>
      <trkpt lat="41.40502" lon="36.19123">
        <ele>3.987797</ele>
        <time>2021-08-19T12:03:32.216Z</time>
      </trkpt>
      <trkpt lat="41.40538" lon="36.19084">
        <ele>4.336382</ele>
        <time>2021-08-19T12:03:48.606Z</time>
      </trkpt>
      <trkpt lat="41.40551" lon="36.1906">
        <ele>4.477521</ele>
        <time>2021-08-19T12:03:56.487Z</time>
      </trkpt>
      <trkpt lat="41.40565" lon="36.19034">
        <ele>4.626911</ele>
        <time>2021-08-19T12:04:05.208Z</time>
      </trkpt>
      <trkpt lat="41.40585" lon="36.19012">
        <ele>4.784821</ele>
        <time>2021-08-19T12:04:14.005Z</time>
      </trkpt>
      <trkpt lat="41.40605" lon="36.18995">
        <ele>4.937073</ele>
        <time>2021-08-19T12:04:22.278Z</time>
      </trkpt>
      <trkpt lat="41.40651" lon="36.18945">
        <ele>5.199117</ele>
        <time>2021-08-19T12:04:41.860Z</time>
      </trkpt>
      <trkpt lat="41.40686" lon="36.1891">
        <ele>5.061126</ele>
        <time>2021-08-19T12:04:55.222Z</time>
      </trkpt>
      <trkpt lat="41.4069" lon="36.18905">
        <ele>5.043439</ele>
        <time>2021-08-19T12:04:56.827Z</time>
      </trkpt>
      <trkpt lat="41.40726" lon="36.18874">
        <ele>4.910128</ele>
        <time>2021-08-19T12:05:08.943Z</time>
      </trkpt>
      <trkpt lat="41.40752" lon="36.18852">
        <ele>4.814626</ele>
        <time>2021-08-19T12:05:17.735Z</time>
      </trkpt>
      <trkpt lat="41.40767" lon="36.18838">
        <ele>4.756403</ele>
        <time>2021-08-19T12:05:23.120Z</time>
      </trkpt>
      <trkpt lat="41.40804" lon="36.18809">
        <ele>4.64479</ele>
        <time>2021-08-19T12:05:35.571Z</time>
      </trkpt>
      <trkpt lat="41.40814" lon="36.18801">
        <ele>4.627028</ele>
        <time>2021-08-19T12:05:38.843Z</time>
      </trkpt>
      <trkpt lat="41.40847" lon="36.18768">
        <ele>4.564664</ele>
        <time>2021-08-19T12:05:50.599Z</time>
      </trkpt>
      <trkpt lat="41.40848" lon="36.18767">
        <ele>4.56196</ele>
        <time>2021-08-19T12:05:51.115Z</time>
      </trkpt>
      <trkpt lat="41.40854" lon="36.18761">
        <ele>4.54941</ele>
        <time>2021-08-19T12:05:53.490Z</time>
      </trkpt>
      <trkpt lat="41.40862" lon="36.18753">
        <ele>4.533964</ele>
        <time>2021-08-19T12:05:56.467Z</time>
      </trkpt>
      <trkpt lat="41.40937" lon="36.18669">
        <ele>4.416843</ele>
        <time>2021-08-19T12:06:26.807Z</time>
      </trkpt>
      <trkpt lat="41.40989" lon="36.18621">
        <ele>4.698222</ele>
        <time>2021-08-19T12:06:48.267Z</time>
      </trkpt>
      <trkpt lat="41.40996" lon="36.18613">
        <ele>4.739182</ele>
        <time>2021-08-19T12:06:51.490Z</time>
      </trkpt>
      <trkpt lat="41.41019" lon="36.18589">
        <ele>4.864991</ele>
        <time>2021-08-19T12:07:01.739Z</time>
      </trkpt>
      <trkpt lat="41.41061" lon="36.18544">
        <ele>5.104573</ele>
        <time>2021-08-19T12:07:19.787Z</time>
      </trkpt>
      <trkpt lat="41.41096" lon="36.18507">
        <ele>5.33559</ele>
        <time>2021-08-19T12:07:34.548Z</time>
      </trkpt>
      <trkpt lat="41.41134" lon="36.18472">
        <ele>5.595204</ele>
        <time>2021-08-19T12:07:50.596Z</time>
      </trkpt>
      <trkpt lat="41.4119" lon="36.18421">
        <ele>5.976993</ele>
        <time>2021-08-19T12:08:13.485Z</time>
      </trkpt>
      <trkpt lat="41.41201" lon="36.18412">
        <ele>6.045921</ele>
        <time>2021-08-19T12:08:17.780Z</time>
      </trkpt>
      <trkpt lat="41.41223" lon="36.1839">
        <ele>6.200622</ele>
        <time>2021-08-19T12:08:27.777Z</time>
      </trkpt>
      <trkpt lat="41.4126" lon="36.18352">
        <ele>6.471512</ele>
        <time>2021-08-19T12:08:44.563Z</time>
      </trkpt>
      <trkpt lat="41.41297" lon="36.1831">
        <ele>6.747936</ele>
        <time>2021-08-19T12:09:00.766Z</time>
      </trkpt>
      <trkpt lat="41.41344" lon="36.18261">
        <ele>7.091469</ele>
        <time>2021-08-19T12:09:21.613Z</time>
      </trkpt>
      <trkpt lat="41.41393" lon="36.18214">
        <ele>7.287393</ele>
        <time>2021-08-19T12:09:41.878Z</time>
      </trkpt>
      <trkpt lat="41.41396" lon="36.1821">
        <ele>7.294138</ele>
        <time>2021-08-19T12:09:43.307Z</time>
      </trkpt>
      <trkpt lat="41.41425" lon="36.18176">
        <ele>7.351548</ele>
        <time>2021-08-19T12:09:55.684Z</time>
      </trkpt>
      <trkpt lat="41.41451" lon="36.18167">
        <ele>7.393026</ele>
        <time>2021-08-19T12:10:04.495Z</time>
      </trkpt>
      <trkpt lat="41.41476" lon="36.18141">
        <ele>7.440219</ele>
        <time>2021-08-19T12:10:14.356Z</time>
      </trkpt>
      <trkpt lat="41.41561" lon="36.18075">
        <ele>7.393714</ele>
        <time>2021-08-19T12:10:44.088Z</time>
      </trkpt>
      <trkpt lat="41.41597" lon="36.18045">
        <ele>7.30849</ele>
        <time>2021-08-19T12:10:57.131Z</time>
      </trkpt>
      <trkpt lat="41.41606" lon="36.18037">
        <ele>7.286059</ele>
        <time>2021-08-19T12:11:00.440Z</time>
      </trkpt>
      <trkpt lat="41.41645" lon="36.17999">
        <ele>7.190269</ele>
        <time>2021-08-19T12:11:14.778Z</time>
      </trkpt>
      <trkpt lat="41.41698" lon="36.17951">
        <ele>6.879724</ele>
        <time>2021-08-19T12:11:33.718Z</time>
      </trkpt>
      <trkpt lat="41.4171" lon="36.1794">
        <ele>6.788326</ele>
        <time>2021-08-19T12:11:37.713Z</time>
      </trkpt>
      <trkpt lat="41.41745" lon="36.17905">
        <ele>6.506101</ele>
        <time>2021-08-19T12:11:49.938Z</time>
      </trkpt>
      <trkpt lat="41.4178" lon="36.17859">
        <ele>6.194992</ele>
        <time>2021-08-19T12:12:03.487Z</time>
      </trkpt>
      <trkpt lat="41.41846" lon="36.17805">
        <ele>5.939161</ele>
        <time>2021-08-19T12:12:25.184Z</time>
      </trkpt>
      <trkpt lat="41.41889" lon="36.17755">
        <ele>5.871178</ele>
        <time>2021-08-19T12:12:42.280Z</time>
      </trkpt>
      <trkpt lat="41.41916" lon="36.17736">
        <ele>5.834223</ele>
        <time>2021-08-19T12:12:52.587Z</time>
      </trkpt>
      <trkpt lat="41.41948" lon="36.17703">
        <ele>5.786348</ele>
        <time>2021-08-19T12:13:05.766Z</time>
      </trkpt>
      <trkpt lat="41.41954" lon="36.1769">
        <ele>5.797118</ele>
        <time>2021-08-19T12:13:09.558Z</time>
      </trkpt>
      <trkpt lat="41.41965" lon="36.17679">
        <ele>5.835232</ele>
        <time>2021-08-19T12:13:13.673Z</time>
      </trkpt>
      <trkpt lat="41.41977" lon="36.17672">
        <ele>5.874091</ele>
        <time>2021-08-19T12:13:18.397Z</time>
      </trkpt>
      <trkpt lat="41.42003" lon="36.17657">
        <ele>5.954585</ele>
        <time>2021-08-19T12:13:27.782Z</time>
      </trkpt>
      <trkpt lat="41.42025" lon="36.17632">
        <ele>6.035545</ele>
        <time>2021-08-19T12:13:37.086Z</time>
      </trkpt>
      <trkpt lat="41.42035" lon="36.17614">
        <ele>6.083889</ele>
        <time>2021-08-19T12:13:43.061Z</time>
      </trkpt>
      <trkpt lat="41.42059" lon="36.17587">
        <ele>6.173651</ele>
        <time>2021-08-19T12:13:53.190Z</time>
      </trkpt>
      <trkpt lat="41.42091" lon="36.17559">
        <ele>6.283931</ele>
        <time>2021-08-19T12:14:06.017Z</time>
      </trkpt>
      <trkpt lat="41.42104" lon="36.17548">
        <ele>6.26848</ele>
        <time>2021-08-19T12:14:10.505Z</time>
      </trkpt>
      <trkpt lat="41.42127" lon="36.17528">
        <ele>6.211798</ele>
        <time>2021-08-19T12:14:19.528Z</time>
      </trkpt>
      <trkpt lat="41.42229" lon="36.17431">
        <ele>5.959878</ele>
        <time>2021-08-19T12:14:55.945Z</time>
      </trkpt>
      <trkpt lat="41.42304" lon="36.17362">
        <ele>5.804501</ele>
        <time>2021-08-19T12:15:23.789Z</time>
      </trkpt>
      <trkpt lat="41.42338" lon="36.17332">
        <ele>5.738856</ele>
        <time>2021-08-19T12:15:36.490Z</time>
      </trkpt>
      <trkpt lat="41.42352" lon="36.17317">
        <ele>5.709525</ele>
        <time>2021-08-19T12:15:42.158Z</time>
      </trkpt>
      <trkpt lat="41.42375" lon="36.17301">
        <ele>5.667139</ele>
        <time>2021-08-19T12:15:50.260Z</time>
      </trkpt>
      <trkpt lat="41.424" lon="36.17276">
        <ele>5.593555</ele>
        <time>2021-08-19T12:15:59.416Z</time>
      </trkpt>
      <trkpt lat="41.42436" lon="36.17245">
        <ele>5.441983</ele>
        <time>2021-08-19T12:16:11.558Z</time>
      </trkpt>
      <trkpt lat="41.42467" lon="36.17219">
        <ele>5.313631</ele>
        <time>2021-08-19T12:16:21.938Z</time>
      </trkpt>
      <trkpt lat="41.42528" lon="36.1716">
        <ele>5.04956</ele>
        <time>2021-08-19T12:16:44.918Z</time>
      </trkpt>
      <trkpt lat="41.42579" lon="36.17107">
        <ele>5.004487</ele>
        <time>2021-08-19T12:17:03.647Z</time>
      </trkpt>
      <trkpt lat="41.42605" lon="36.17074">
        <ele>5.004516</ele>
        <time>2021-08-19T12:17:14.425Z</time>
      </trkpt>
      <trkpt lat="41.42628" lon="36.17046">
        <ele>5.004541</ele>
        <time>2021-08-19T12:17:24.216Z</time>
      </trkpt>
      <trkpt lat="41.42653" lon="36.17019">
        <ele>5.004568</ele>
        <time>2021-08-19T12:17:34.954Z</time>
      </trkpt>
      <trkpt lat="41.42673" lon="36.16998">
        <ele>5.004589</ele>
        <time>2021-08-19T12:17:43.445Z</time>
      </trkpt>
      <trkpt lat="41.42689" lon="36.16984">
        <ele>4.992268</ele>
        <time>2021-08-19T12:17:49.787Z</time>
      </trkpt>
      <trkpt lat="41.42727" lon="36.16949">
        <ele>4.955573</ele>
        <time>2021-08-19T12:18:04.890Z</time>
      </trkpt>
      <trkpt lat="41.42807" lon="36.16877">
        <ele>4.878211</ele>
        <time>2021-08-19T12:18:33.974Z</time>
      </trkpt>
      <trkpt lat="41.42874" lon="36.16812">
        <ele>4.637214</ele>
        <time>2021-08-19T12:18:57.719Z</time>
      </trkpt>
      <trkpt lat="41.42909" lon="36.16779">
        <ele>4.482126</ele>
        <time>2021-08-19T12:19:10.060Z</time>
      </trkpt>
      <trkpt lat="41.42948" lon="36.1674">
        <ele>4.302974</ele>
        <time>2021-08-19T12:19:24.637Z</time>
      </trkpt>
      <trkpt lat="41.42964" lon="36.16722">
        <ele>4.227397</ele>
        <time>2021-08-19T12:19:31.012Z</time>
      </trkpt>
      <trkpt lat="41.43" lon="36.1668">
        <ele>4.160052</ele>
        <time>2021-08-19T12:19:45.324Z</time>
      </trkpt>
      <trkpt lat="41.43033" lon="36.16641">
        <ele>4.112199</ele>
        <time>2021-08-19T12:19:59.026Z</time>
      </trkpt>
      <trkpt lat="41.43067" lon="36.16601">
        <ele>4.062642</ele>
        <time>2021-08-19T12:20:13.351Z</time>
      </trkpt>
      <trkpt lat="41.43164" lon="36.16504">
        <ele>3.819503</ele>
        <time>2021-08-19T12:20:50.041Z</time>
      </trkpt>
      <trkpt lat="41.43201" lon="36.16466">
        <ele>3.698304</ele>
        <time>2021-08-19T12:21:03.451Z</time>
      </trkpt>
      <trkpt lat="41.43221" lon="36.16445">
        <ele>3.630717</ele>
        <time>2021-08-19T12:21:10.929Z</time>
      </trkpt>
      <trkpt lat="41.43248" lon="36.16416">
        <ele>3.54041</ele>
        <time>2021-08-19T12:21:21.019Z</time>
      </trkpt>
      <trkpt lat="41.43351" lon="36.16306">
        <ele>3.491974</ele>
        <time>2021-08-19T12:22:01.155Z</time>
      </trkpt>
      <trkpt lat="41.43387" lon="36.16267">
        <ele>3.475255</ele>
        <time>2021-08-19T12:22:16.182Z</time>
      </trkpt>
      <trkpt lat="41.43418" lon="36.16234">
        <ele>3.570928</ele>
        <time>2021-08-19T12:22:29.253Z</time>
      </trkpt>
      <trkpt lat="41.43445" lon="36.16205">
        <ele>3.663032</ele>
        <time>2021-08-19T12:22:41.014Z</time>
      </trkpt>
      <trkpt lat="41.43468" lon="36.16181">
        <ele>3.737412</ele>
        <time>2021-08-19T12:22:50.468Z</time>
      </trkpt>
      <trkpt lat="41.43508" lon="36.16127">
        <ele>3.887015</ele>
        <time>2021-08-19T12:23:08.968Z</time>
      </trkpt>
      <trkpt lat="41.43536" lon="36.1609">
        <ele>4.014604</ele>
        <time>2021-08-19T12:23:21.226Z</time>
      </trkpt>
      <trkpt lat="41.43568" lon="36.16048">
        <ele>4.200583</ele>
        <time>2021-08-19T12:23:36.202Z</time>
      </trkpt>
      <trkpt lat="41.43596" lon="36.16011">
        <ele>4.361702</ele>
        <time>2021-08-19T12:23:49.912Z</time>
      </trkpt>
      <trkpt lat="41.43619" lon="36.1598">
        <ele>4.496005</ele>
        <time>2021-08-19T12:24:01.251Z</time>
      </trkpt>
      <trkpt lat="41.43625" lon="36.15969">
        <ele>4.535856</ele>
        <time>2021-08-19T12:24:04.271Z</time>
      </trkpt>
      <trkpt lat="41.43643" lon="36.15941">
        <ele>4.649188</ele>
        <time>2021-08-19T12:24:13.803Z</time>
      </trkpt>
      <trkpt lat="41.43673" lon="36.15902">
        <ele>4.801965</ele>
        <time>2021-08-19T12:24:27.581Z</time>
      </trkpt>
      <trkpt lat="41.43699" lon="36.15871">
        <ele>4.926699</ele>
        <time>2021-08-19T12:24:39.297Z</time>
      </trkpt>
      <trkpt lat="41.43716" lon="36.15851">
        <ele>5.010537</ele>
        <time>2021-08-19T12:24:47.294Z</time>
      </trkpt>
      <trkpt lat="41.4373" lon="36.15836">
        <ele>5.0741</ele>
        <time>2021-08-19T12:24:53.094Z</time>
      </trkpt>
      <trkpt lat="41.43761" lon="36.15804">
        <ele>5.212518</ele>
        <time>2021-08-19T12:25:06.418Z</time>
      </trkpt>
      <trkpt lat="41.43794" lon="36.1577">
        <ele>5.280696</ele>
        <time>2021-08-19T12:25:20.139Z</time>
      </trkpt>
      <trkpt lat="41.4386" lon="36.15702">
        <ele>4.976534</ele>
        <time>2021-08-19T12:25:44.156Z</time>
      </trkpt>
      <trkpt lat="41.43906" lon="36.15653">
        <ele>4.761855</ele>
        <time>2021-08-19T12:26:00.902Z</time>
      </trkpt>
      <trkpt lat="41.43952" lon="36.15598">
        <ele>4.620591</ele>
        <time>2021-08-19T12:26:19.288Z</time>
      </trkpt>
      <trkpt lat="41.43992" lon="36.15553">
        <ele>4.553277</ele>
        <time>2021-08-19T12:26:34.974Z</time>
      </trkpt>
      <trkpt lat="41.4403" lon="36.1551">
        <ele>4.488821</ele>
        <time>2021-08-19T12:26:50.528Z</time>
      </trkpt>
      <trkpt lat="41.44336" lon="36.15141">
        <ele>4.6772</ele>
        <time>2021-08-19T12:29:00.376Z</time>
      </trkpt>
      <trkpt lat="41.44359" lon="36.15105">
        <ele>4.69216</ele>
        <time>2021-08-19T12:29:11.142Z</time>
      </trkpt>
      <trkpt lat="41.44412" lon="36.15026">
        <ele>4.725619</ele>
        <time>2021-08-19T12:29:35.756Z</time>
      </trkpt>
      <trkpt lat="41.44453" lon="36.14957">
        <ele>4.791728</ele>
        <time>2021-08-19T12:29:57.144Z</time>
      </trkpt>
      <trkpt lat="41.4448" lon="36.14917">
        <ele>4.945187</ele>
        <time>2021-08-19T12:30:10.151Z</time>
      </trkpt>
      <trkpt lat="41.44512" lon="36.14887">
        <ele>5.092716</ele>
        <time>2021-08-19T12:30:23.465Z</time>
      </trkpt>
      <trkpt lat="41.44531" lon="36.14866">
        <ele>5.184971</ele>
        <time>2021-08-19T12:30:32.243Z</time>
      </trkpt>
      <trkpt lat="41.44579" lon="36.14797">
        <ele>5.41537</ele>
        <time>2021-08-19T12:30:56.087Z</time>
      </trkpt>
      <trkpt lat="41.44653" lon="36.14738">
        <ele>5.274805</ele>
        <time>2021-08-19T12:31:22.585Z</time>
      </trkpt>
      <trkpt lat="41.44692" lon="36.14688">
        <ele>5.185581</ele>
        <time>2021-08-19T12:31:38.468Z</time>
      </trkpt>
      <trkpt lat="41.44748" lon="36.14604">
        <ele>4.931031</ele>
        <time>2021-08-19T12:32:02.713Z</time>
      </trkpt>
      <trkpt lat="41.44765" lon="36.14589">
        <ele>4.851672</ele>
        <time>2021-08-19T12:32:08.512Z</time>
      </trkpt>
      <trkpt lat="41.44811" lon="36.1458">
        <ele>4.670323</ele>
        <time>2021-08-19T12:32:21.860Z</time>
      </trkpt>
      <trkpt lat="41.4483" lon="36.14571">
        <ele>4.587995</ele>
        <time>2021-08-19T12:32:28.001Z</time>
      </trkpt>
      <trkpt lat="41.44888" lon="36.14506">
        <ele>4.476962</ele>
        <time>2021-08-19T12:32:50.583Z</time>
      </trkpt>
      <trkpt lat="41.44974" lon="36.14437">
        <ele>4.622582</ele>
        <time>2021-08-19T12:33:22.648Z</time>
      </trkpt>
      <trkpt lat="41.45065" lon="36.14318">
        <ele>4.922955</ele>
        <time>2021-08-19T12:34:05.139Z</time>
      </trkpt>
      <trkpt lat="41.45113" lon="36.14238">
        <ele>5.14178</ele>
        <time>2021-08-19T12:34:30.527Z</time>
      </trkpt>
      <trkpt lat="41.45249" lon="36.14068">
        <ele>5.374379</ele>
        <time>2021-08-19T12:35:29.565Z</time>
      </trkpt>
      <trkpt lat="41.453" lon="36.1401">
        <ele>5.449484</ele>
        <time>2021-08-19T12:35:50.331Z</time>
      </trkpt>
      <trkpt lat="41.45611" lon="36.13699">
        <ele>5.969772</ele>
        <time>2021-08-19T12:37:55.177Z</time>
      </trkpt>
      <trkpt lat="41.45662" lon="36.13647">
        <ele>6.044687</ele>
        <time>2021-08-19T12:38:15.384Z</time>
      </trkpt>
      <trkpt lat="41.45738" lon="36.13568">
        <ele>6.035495</ele>
        <time>2021-08-19T12:38:45.610Z</time>
      </trkpt>
      <trkpt lat="41.4583" lon="36.13484">
        <ele>5.9484</ele>
        <time>2021-08-19T12:39:19.835Z</time>
      </trkpt>
      <trkpt lat="41.45968" lon="36.13345">
        <ele>5.50833</ele>
        <time>2021-08-19T12:40:11.061Z</time>
      </trkpt>
      <trkpt lat="41.46069" lon="36.13256">
        <ele>5.328498</ele>
        <time>2021-08-19T12:40:46.935Z</time>
      </trkpt>
      <trkpt lat="41.46268" lon="36.13047">
        <ele>5.350087</ele>
        <time>2021-08-19T12:42:06.430Z</time>
      </trkpt>
      <trkpt lat="41.46277" lon="36.13038">
        <ele>5.372928</ele>
        <time>2021-08-19T12:42:10.244Z</time>
      </trkpt>
      <trkpt lat="41.46324" lon="36.12995">
        <ele>5.487808</ele>
        <time>2021-08-19T12:42:28.949Z</time>
      </trkpt>
      <trkpt lat="41.46377" lon="36.12972">
        <ele>5.600412</ele>
        <time>2021-08-19T12:42:46.923Z</time>
      </trkpt>
      <trkpt lat="41.46405" lon="36.12956">
        <ele>5.660912</ele>
        <time>2021-08-19T12:42:56.630Z</time>
      </trkpt>
      <trkpt lat="41.46409" lon="36.12953">
        <ele>5.671487</ele>
        <time>2021-08-19T12:42:58.182Z</time>
      </trkpt>
      <trkpt lat="41.46479" lon="36.12906">
        <ele>5.632347</ele>
        <time>2021-08-19T12:43:23.321Z</time>
      </trkpt>
      <trkpt lat="41.46522" lon="36.12876">
        <ele>5.567807</ele>
        <time>2021-08-19T12:43:39.071Z</time>
      </trkpt>
      <trkpt lat="41.46644" lon="36.12794">
        <ele>5.126012</ele>
        <time>2021-08-19T12:44:17.949Z</time>
      </trkpt>
      <trkpt lat="41.46682" lon="36.12768">
        <ele>4.897212</ele>
        <time>2021-08-19T12:44:30.113Z</time>
      </trkpt>
      <trkpt lat="41.46741" lon="36.12742">
        <ele>4.564216</ele>
        <time>2021-08-19T12:44:47.771Z</time>
      </trkpt>
      <trkpt lat="41.46759" lon="36.12734">
        <ele>4.473646</ele>
        <time>2021-08-19T12:44:53.228Z</time>
      </trkpt>
      <trkpt lat="41.4684" lon="36.12693">
        <ele>4.139899</ele>
        <time>2021-08-19T12:45:17.690Z</time>
      </trkpt>
      <trkpt lat="41.46878" lon="36.12665">
        <ele>3.976288</ele>
        <time>2021-08-19T12:45:30.599Z</time>
      </trkpt>
      <trkpt lat="41.46886" lon="36.12656">
        <ele>3.932629</ele>
        <time>2021-08-19T12:45:34.286Z</time>
      </trkpt>
      <trkpt lat="41.46908" lon="36.12631">
        <ele>3.825835</ele>
        <time>2021-08-19T12:45:42.831Z</time>
      </trkpt>
      <trkpt lat="41.46915" lon="36.12617">
        <ele>3.824333</ele>
        <time>2021-08-19T12:45:46.925Z</time>
      </trkpt>
      <trkpt lat="41.46932" lon="36.12585">
        <ele>3.849463</ele>
        <time>2021-08-19T12:45:56.374Z</time>
      </trkpt>
      <trkpt lat="41.46931" lon="36.1255">
        <ele>3.871964</ele>
        <time>2021-08-19T12:46:04.873Z</time>
      </trkpt>
      <trkpt lat="41.46922" lon="36.12487">
        <ele>3.913262</ele>
        <time>2021-08-19T12:46:20.827Z</time>
      </trkpt>
      <trkpt lat="41.46922" lon="36.12484">
        <ele>3.914745</ele>
        <time>2021-08-19T12:46:21.358Z</time>
      </trkpt>
      <trkpt lat="41.46916" lon="36.12424">
        <ele>3.953873</ele>
        <time>2021-08-19T12:46:36.666Z</time>
      </trkpt>
      <trkpt lat="41.46916" lon="36.12393">
        <ele>3.982192</ele>
        <time>2021-08-19T12:46:44.544Z</time>
      </trkpt>
      <trkpt lat="41.46956" lon="36.12366">
        <ele>4.094835</ele>
        <time>2021-08-19T12:46:59.302Z</time>
      </trkpt>
      <trkpt lat="41.47011" lon="36.12255">
        <ele>4.342662</ele>
        <time>2021-08-19T12:47:32.022Z</time>
      </trkpt>
      <trkpt lat="41.47074" lon="36.12185">
        <ele>4.516378</ele>
        <time>2021-08-19T12:47:58.726Z</time>
      </trkpt>
      <trkpt lat="41.47143" lon="36.12131">
        <ele>4.67018</ele>
        <time>2021-08-19T12:48:24.159Z</time>
      </trkpt>
      <trkpt lat="41.47215" lon="36.12091">
        <ele>4.804218</ele>
        <time>2021-08-19T12:48:49.121Z</time>
      </trkpt>
      <trkpt lat="41.47336" lon="36.11997">
        <ele>4.99473</ele>
        <time>2021-08-19T12:49:33.815Z</time>
      </trkpt>
      <trkpt lat="41.47544" lon="36.11822">
        <ele>5.251682</ele>
        <time>2021-08-19T12:50:52.468Z</time>
      </trkpt>
      <trkpt lat="41.47605" lon="36.11776">
        <ele>5.276592</ele>
        <time>2021-08-19T12:51:14.381Z</time>
      </trkpt>
      <trkpt lat="41.47667" lon="36.11758">
        <ele>5.275923</ele>
        <time>2021-08-19T12:51:33.890Z</time>
      </trkpt>
      <trkpt lat="41.47747" lon="36.11689">
        <ele>5.094914</ele>
        <time>2021-08-19T12:52:02.282Z</time>
      </trkpt>
      <trkpt lat="41.47775" lon="36.1167">
        <ele>5.034998</ele>
        <time>2021-08-19T12:52:11.607Z</time>
      </trkpt>
      <trkpt lat="41.47791" lon="36.1164">
        <ele>4.982119</ele>
        <time>2021-08-19T12:52:19.827Z</time>
      </trkpt>
      <trkpt lat="41.47795" lon="36.11631">
        <ele>4.96641</ele>
        <time>2021-08-19T12:52:22.333Z</time>
      </trkpt>
      <trkpt lat="41.47804" lon="36.11611">
        <ele>4.949298</ele>
        <time>2021-08-19T12:52:27.653Z</time>
      </trkpt>
      <trkpt lat="41.47809" lon="36.11605">
        <ele>4.947668</ele>
        <time>2021-08-19T12:52:29.439Z</time>
      </trkpt>
      <trkpt lat="41.47812" lon="36.11602">
        <ele>4.946491</ele>
        <time>2021-08-19T12:52:30.657Z</time>
      </trkpt>
      <trkpt lat="41.47932" lon="36.11516">
        <ele>4.909006</ele>
        <time>2021-08-19T12:53:12.305Z</time>
      </trkpt>
      <trkpt lat="41.48004" lon="36.11474">
        <ele>5.046867</ele>
        <time>2021-08-19T12:53:37.974Z</time>
      </trkpt>
      <trkpt lat="41.48083" lon="36.11406">
        <ele>5.292663</ele>
        <time>2021-08-19T12:54:09.216Z</time>
      </trkpt>
      <trkpt lat="41.48264" lon="36.11212">
        <ele>5.634949</ele>
        <time>2021-08-19T12:55:24.697Z</time>
      </trkpt>
      <trkpt lat="41.48297" lon="36.11183">
        <ele>5.435799</ele>
        <time>2021-08-19T12:55:36.231Z</time>
      </trkpt>
      <trkpt lat="41.48364" lon="36.11141">
        <ele>5.066522</ele>
        <time>2021-08-19T12:55:56.813Z</time>
      </trkpt>
      <trkpt lat="41.48417" lon="36.11093">
        <ele>4.768105</ele>
        <time>2021-08-19T12:56:14.744Z</time>
      </trkpt>
      <trkpt lat="41.48425" lon="36.11085">
        <ele>4.731372</ele>
        <time>2021-08-19T12:56:17.189Z</time>
      </trkpt>
      <trkpt lat="41.4843" lon="36.1108">
        <ele>4.704914</ele>
        <time>2021-08-19T12:56:19.174Z</time>
      </trkpt>
      <trkpt lat="41.48442" lon="36.11074">
        <ele>4.657072</ele>
        <time>2021-08-19T12:56:22.760Z</time>
      </trkpt>
      <trkpt lat="41.48458" lon="36.11059">
        <ele>4.582774</ele>
        <time>2021-08-19T12:56:31.934Z</time>
      </trkpt>
      <trkpt lat="41.48713" lon="36.10845">
        <ele>3.933208</ele>
        <time>2021-08-19T12:59:06.031Z</time>
      </trkpt>
      <trkpt lat="41.48772" lon="36.10806">
        <ele>3.911228</ele>
        <time>2021-08-19T12:59:40.419Z</time>
      </trkpt>
      <trkpt lat="41.48823" lon="36.10782">
        <ele>3.893121</ele>
        <time>2021-08-19T13:00:08.571Z</time>
      </trkpt>
      <trkpt lat="41.49031" lon="36.10646">
        <ele>3.873735</ele>
        <time>2021-08-19T13:02:07.851Z</time>
      </trkpt>
      <trkpt lat="41.49029" lon="36.1059">
        <ele>4.033018</ele>
        <time>2021-08-19T13:02:21.541Z</time>
      </trkpt>
      <trkpt lat="41.49027" lon="36.1048">
        <ele>4.342735</ele>
        <time>2021-08-19T13:02:49.101Z</time>
      </trkpt>
      <trkpt lat="41.49071" lon="36.10274">
        <ele>5.076926</ele>
        <time>2021-08-19T13:03:44.862Z</time>
      </trkpt>
      <trkpt lat="41.49096" lon="36.102">
        <ele>5.380047</ele>
        <time>2021-08-19T13:04:04.868Z</time>
      </trkpt>
      <trkpt lat="41.49107" lon="36.10179">
        <ele>5.468508</ele>
        <time>2021-08-19T13:04:11.315Z</time>
      </trkpt>
      <trkpt lat="41.49116" lon="36.10162">
        <ele>5.526439</ele>
        <time>2021-08-19T13:04:16.325Z</time>
      </trkpt>
      <trkpt lat="41.49215" lon="36.10117">
        <ele>5.916668</ele>
        <time>2021-08-19T13:04:50.858Z</time>
      </trkpt>
      <trkpt lat="41.4922" lon="36.10107">
        <ele>5.950355</ele>
        <time>2021-08-19T13:04:53.735Z</time>
      </trkpt>
      <trkpt lat="41.49228" lon="36.10104">
        <ele>5.980763</ele>
        <time>2021-08-19T13:04:56.604Z</time>
      </trkpt>
      <trkpt lat="41.49236" lon="36.10107">
        <ele>6.01249</ele>
        <time>2021-08-19T13:04:59.559Z</time>
      </trkpt>
      <trkpt lat="41.49245" lon="36.10086">
        <ele>6.07983</ele>
        <time>2021-08-19T13:05:05.697Z</time>
      </trkpt>
      <trkpt lat="41.49273" lon="36.10029">
        <ele>6.407385</ele>
        <time>2021-08-19T13:05:23.765Z</time>
      </trkpt>
      <trkpt lat="41.49279" lon="36.09983">
        <ele>6.651595</ele>
        <time>2021-08-19T13:05:36.621Z</time>
      </trkpt>
      <trkpt lat="41.49273" lon="36.09881">
        <ele>7.189061</ele>
        <time>2021-08-19T13:06:05.481Z</time>
      </trkpt>
      <trkpt lat="41.49262" lon="36.09817">
        <ele>7.46298</ele>
        <time>2021-08-19T13:06:23.440Z</time>
      </trkpt>
      <trkpt lat="41.49257" lon="36.09811">
        <ele>7.488427</ele>
        <time>2021-08-19T13:06:25.960Z</time>
      </trkpt>
      <trkpt lat="41.49275" lon="36.09797">
        <ele>7.566481</ele>
        <time>2021-08-19T13:06:32.990Z</time>
      </trkpt>
      <trkpt lat="41.49285" lon="36.09783">
        <ele>7.622445</ele>
        <time>2021-08-19T13:06:38.036Z</time>
      </trkpt>
      <trkpt lat="41.49283" lon="36.09723">
        <ele>7.797364</ele>
        <time>2021-08-19T13:06:53.639Z</time>
      </trkpt>
      <trkpt lat="41.49283" lon="36.09669">
        <ele>7.95381</ele>
        <time>2021-08-19T13:07:07.316Z</time>
      </trkpt>
      <trkpt lat="41.49308" lon="36.09671">
        <ele>8.054173</ele>
        <time>2021-08-19T13:07:15.966Z</time>
      </trkpt>
      <trkpt lat="41.49337" lon="36.09674">
        <ele>8.120372</ele>
        <time>2021-08-19T13:07:25.196Z</time>
      </trkpt>
      <trkpt lat="41.49356" lon="36.09668">
        <ele>8.158659</ele>
        <time>2021-08-19T13:07:31.446Z</time>
      </trkpt>
      <trkpt lat="41.49375" lon="36.09642">
        <ele>8.211705</ele>
        <time>2021-08-19T13:07:40.081Z</time>
      </trkpt>
      <trkpt lat="41.49381" lon="36.0962">
        <ele>8.245387</ele>
        <time>2021-08-19T13:07:45.786Z</time>
      </trkpt>
      <trkpt lat="41.49383" lon="36.09455">
        <ele>8.558425</ele>
        <time>2021-08-19T13:08:28.392Z</time>
      </trkpt>
      <trkpt lat="41.49388" lon="36.09439">
        <ele>8.611268</ele>
        <time>2021-08-19T13:08:33.023Z</time>
      </trkpt>
      <trkpt lat="41.49405" lon="36.09337">
        <ele>8.939949</ele>
        <time>2021-08-19T13:09:00.870Z</time>
      </trkpt>
      <trkpt lat="41.49473" lon="36.09107">
        <ele>9.565662</ele>
        <time>2021-08-19T13:10:04.302Z</time>
      </trkpt>
      <trkpt lat="41.4948" lon="36.09057">
        <ele>9.681397</ele>
        <time>2021-08-19T13:10:17.094Z</time>
      </trkpt>
      <trkpt lat="41.49486" lon="36.08971">
        <ele>9.975002</ele>
        <time>2021-08-19T13:10:38.814Z</time>
      </trkpt>
      <trkpt lat="41.4938" lon="36.08713">
        <ele>11.288666</ele>
        <time>2021-08-19T13:11:57.878Z</time>
      </trkpt>
      <trkpt lat="41.49352" lon="36.08664">
        <ele>11.627979</ele>
        <time>2021-08-19T13:12:15.041Z</time>
      </trkpt>
      <trkpt lat="41.49315" lon="36.08541">
        <ele>12.324593</ele>
        <time>2021-08-19T13:12:52.169Z</time>
      </trkpt>
      <trkpt lat="41.49299" lon="36.08519">
        <ele>12.481609</ele>
        <time>2021-08-19T13:13:00.728Z</time>
      </trkpt>
      <trkpt lat="41.49284" lon="36.08487">
        <ele>12.672105</ele>
        <time>2021-08-19T13:13:11.023Z</time>
      </trkpt>
      <trkpt lat="41.49267" lon="36.08423">
        <ele>13.012287</ele>
        <time>2021-08-19T13:13:28.836Z</time>
      </trkpt>
      <trkpt lat="41.49249" lon="36.08406">
        <ele>13.16188</ele>
        <time>2021-08-19T13:13:36.606Z</time>
      </trkpt>
      <trkpt lat="41.49254" lon="36.08395">
        <ele>13.224821</ele>
        <time>2021-08-19T13:13:39.919Z</time>
      </trkpt>
      <trkpt lat="41.49319" lon="36.08244">
        <ele>14.044353</ele>
        <time>2021-08-19T13:14:24.224Z</time>
      </trkpt>
      <trkpt lat="41.49337" lon="36.08195">
        <ele>14.317125</ele>
        <time>2021-08-19T13:14:39.039Z</time>
      </trkpt>
      <trkpt lat="41.49347" lon="36.08167">
        <ele>14.624849</ele>
        <time>2021-08-19T13:14:47.775Z</time>
      </trkpt>
      <trkpt lat="41.4936" lon="36.08128">
        <ele>15.055271</ele>
        <time>2021-08-19T13:15:00.308Z</time>
      </trkpt>
      <trkpt lat="41.49366" lon="36.0811">
        <ele>15.249671</ele>
        <time>2021-08-19T13:15:06.080Z</time>
      </trkpt>
      <trkpt lat="41.49385" lon="36.08057">
        <ele>15.841739</ele>
        <time>2021-08-19T13:15:24.036Z</time>
      </trkpt>
      <trkpt lat="41.49403" lon="36.08007">
        <ele>16.399834</ele>
        <time>2021-08-19T13:15:40.669Z</time>
      </trkpt>
      <trkpt lat="41.49426" lon="36.07948">
        <ele>16.779473</ele>
        <time>2021-08-19T13:15:59.487Z</time>
      </trkpt>
      <trkpt lat="41.49451" lon="36.07882">
        <ele>16.948753</ele>
        <time>2021-08-19T13:16:19.156Z</time>
      </trkpt>
      <trkpt lat="41.49455" lon="36.07872">
        <ele>16.97604</ele>
        <time>2021-08-19T13:16:22.064Z</time>
      </trkpt>
      <trkpt lat="41.49461" lon="36.07855">
        <ele>17.020369</ele>
        <time>2021-08-19T13:16:26.759Z</time>
      </trkpt>
      <trkpt lat="41.49476" lon="36.07812">
        <ele>17.128715</ele>
        <time>2021-08-19T13:16:37.550Z</time>
      </trkpt>
      <trkpt lat="41.49488" lon="36.07781">
        <ele>17.207609</ele>
        <time>2021-08-19T13:16:44.939Z</time>
      </trkpt>
      <trkpt lat="41.49503" lon="36.07739">
        <ele>17.038104</ele>
        <time>2021-08-19T13:16:54.765Z</time>
      </trkpt>
      <trkpt lat="41.49568" lon="36.07769">
        <ele>16.410012</ele>
        <time>2021-08-19T13:17:13.881Z</time>
      </trkpt>
      <trkpt lat="41.49599" lon="36.07667">
        <ele>15.651859</ele>
        <time>2021-08-19T13:17:37.302Z</time>
      </trkpt>
      <trkpt lat="41.49645" lon="36.0752">
        <ele>14.844684</ele>
        <time>2021-08-19T13:18:11.874Z</time>
      </trkpt>
      <trkpt lat="41.49689" lon="36.07391">
        <ele>14.252882</ele>
        <time>2021-08-19T13:18:44.150Z</time>
      </trkpt>
      <trkpt lat="41.49729" lon="36.07286">
        <ele>13.929177</ele>
        <time>2021-08-19T13:19:10.981Z</time>
      </trkpt>
      <trkpt lat="41.49841" lon="36.06936">
        <ele>13.275825</ele>
        <time>2021-08-19T13:20:39.374Z</time>
      </trkpt>
      <trkpt lat="41.49855" lon="36.06894">
        <ele>13.332387</ele>
        <time>2021-08-19T13:20:50.750Z</time>
      </trkpt>
      <trkpt lat="41.49816" lon="36.06869">
        <ele>13.404003</ele>
        <time>2021-08-19T13:21:05.599Z</time>
      </trkpt>
      <trkpt lat="41.49879" lon="36.06693">
        <ele>14.192091</ele>
        <time>2021-08-19T13:21:55.577Z</time>
      </trkpt>
      <trkpt lat="41.49909" lon="36.06707">
        <ele>14.425009</ele>
        <time>2021-08-19T13:22:07.461Z</time>
      </trkpt>
      <trkpt lat="41.49926" lon="36.06705">
        <ele>14.551187</ele>
        <time>2021-08-19T13:22:13.987Z</time>
      </trkpt>
      <trkpt lat="41.4998" lon="36.06674">
        <ele>15.143223</ele>
        <time>2021-08-19T13:22:36.278Z</time>
      </trkpt>
      <trkpt lat="41.49986" lon="36.06672">
        <ele>15.230727</ele>
        <time>2021-08-19T13:22:38.694Z</time>
      </trkpt>
      <trkpt lat="41.49977" lon="36.06627">
        <ele>15.719378</ele>
        <time>2021-08-19T13:22:52.228Z</time>
      </trkpt>
      <trkpt lat="41.49987" lon="36.06586">
        <ele>16.17011</ele>
        <time>2021-08-19T13:23:04.842Z</time>
      </trkpt>
      <trkpt lat="41.50183" lon="36.06037">
        <ele>23.59561</ele>
        <time>2021-08-19T13:26:17.376Z</time>
      </trkpt>
      <trkpt lat="41.5024" lon="36.05923">
        <ele>24.652718</ele>
        <time>2021-08-19T13:26:56.918Z</time>
      </trkpt>
      <trkpt lat="41.50445" lon="36.05344">
        <ele>28.247985</ele>
        <time>2021-08-19T13:29:50.265Z</time>
      </trkpt>
      <trkpt lat="41.50413" lon="36.0533">
        <ele>28.592833</ele>
        <time>2021-08-19T13:30:04.287Z</time>
      </trkpt>
      <trkpt lat="41.50381" lon="36.05307">
        <ele>28.95959</ele>
        <time>2021-08-19T13:30:18.737Z</time>
      </trkpt>
      <trkpt lat="41.50466" lon="36.05085">
        <ele>30.708748</ele>
        <time>2021-08-19T13:31:25.428Z</time>
      </trkpt>
      <trkpt lat="41.50561" lon="36.04822">
        <ele>33.495718</ele>
        <time>2021-08-19T13:32:47.145Z</time>
      </trkpt>
      <trkpt lat="41.50745" lon="36.04338">
        <ele>44.727643</ele>
        <time>2021-08-19T13:36:03.316Z</time>
      </trkpt>
      <trkpt lat="41.50842" lon="36.04091">
        <ele>47.78595</ele>
        <time>2021-08-19T13:37:22.608Z</time>
      </trkpt>
      <trkpt lat="41.50931" lon="36.0383">
        <ele>49.871447</ele>
        <time>2021-08-19T13:38:40.460Z</time>
      </trkpt>
      <trkpt lat="41.51198" lon="36.03115">
        <ele>53.212453</ele>
        <time>2021-08-19T13:42:16.345Z</time>
      </trkpt>
      <trkpt lat="41.51344" lon="36.02689">
        <ele>36.968111</ele>
        <time>2021-08-19T13:43:29.350Z</time>
      </trkpt>
      <trkpt lat="41.51492" lon="36.02296">
        <ele>31.79108</ele>
        <time>2021-08-19T13:44:57.974Z</time>
      </trkpt>
      <trkpt lat="41.51525" lon="36.02183">
        <ele>30.211273</ele>
        <time>2021-08-19T13:45:21.700Z</time>
      </trkpt>
      <trkpt lat="41.51573" lon="36.01972">
        <ele>25.710265</ele>
        <time>2021-08-19T13:45:59.990Z</time>
      </trkpt>
      <trkpt lat="41.51619" lon="36.01761">
        <ele>20.143373</ele>
        <time>2021-08-19T13:46:36.539Z</time>
      </trkpt>
      <trkpt lat="41.51645" lon="36.01598">
        <ele>17.628642</ele>
        <time>2021-08-19T13:47:06.775Z</time>
      </trkpt>
      <trkpt lat="41.5165" lon="36.01561">
        <ele>17.065119</ele>
        <time>2021-08-19T13:47:14.224Z</time>
      </trkpt>
      <trkpt lat="41.51703" lon="36.01272">
        <ele>15.675039</ele>
        <time>2021-08-19T13:48:18.083Z</time>
      </trkpt>
      <trkpt lat="41.51772" lon="36.00911">
        <ele>17.508507</ele>
        <time>2021-08-19T13:49:51.475Z</time>
      </trkpt>
      <trkpt lat="41.51803" lon="36.00756">
        <ele>20.572627</ele>
        <time>2021-08-19T13:50:47.324Z</time>
      </trkpt>
      <trkpt lat="41.51806" lon="36.00742">
        <ele>21.002174</ele>
        <time>2021-08-19T13:50:53.144Z</time>
      </trkpt>
      <trkpt lat="41.5181" lon="36.00727">
        <ele>21.472925</ele>
        <time>2021-08-19T13:50:59.510Z</time>
      </trkpt>
      <trkpt lat="41.51848" lon="36.00579">
        <ele>26.244874</ele>
        <time>2021-08-19T13:52:07.464Z</time>
      </trkpt>
      <trkpt lat="41.52009" lon="36.00109">
        <ele>43.28395</ele>
        <time>2021-08-19T13:55:52.337Z</time>
      </trkpt>
      <trkpt lat="41.52097" lon="35.9955">
        <ele>48.866197</ele>
        <time>2021-08-19T13:58:35.445Z</time>
      </trkpt>
      <trkpt lat="41.52145" lon="35.99236">
        <ele>47.070088</ele>
        <time>2021-08-19T13:59:36.041Z</time>
      </trkpt>
      <trkpt lat="41.5234" lon="35.97794">
        <ele>70.41436</ele>
        <time>2021-08-19T14:07:36.358Z</time>
      </trkpt>
      <trkpt lat="41.52466" lon="35.96928">
        <ele>79.366334</ele>
        <time>2021-08-19T14:11:48.165Z</time>
      </trkpt>
      <trkpt lat="41.52492" lon="35.96802">
        <ele>81.635458</ele>
        <time>2021-08-19T14:12:33.147Z</time>
      </trkpt>
      <trkpt lat="41.52508" lon="35.96706">
        <ele>83.79022</ele>
        <time>2021-08-19T14:13:09.234Z</time>
      </trkpt>
      <trkpt lat="41.52531" lon="35.96493">
        <ele>88.276044</ele>
        <time>2021-08-19T14:14:27.591Z</time>
      </trkpt>
      <trkpt lat="41.52549" lon="35.96336">
        <ele>91.029552</ele>
        <time>2021-08-19T14:15:19.339Z</time>
      </trkpt>
      <trkpt lat="41.52649" lon="35.95709">
        <ele>98.44181</ele>
        <time>2021-08-19T14:18:31.416Z</time>
      </trkpt>
      <trkpt lat="41.52676" lon="35.95613">
        <ele>98.419779</ele>
        <time>2021-08-19T14:18:55.183Z</time>
      </trkpt>
      <trkpt lat="41.52711" lon="35.95532">
        <ele>98.173046</ele>
        <time>2021-08-19T14:19:15.055Z</time>
      </trkpt>
      <trkpt lat="41.52779" lon="35.95418">
        <ele>97.717033</ele>
        <time>2021-08-19T14:19:44.978Z</time>
      </trkpt>
      <trkpt lat="41.52837" lon="35.95352">
        <ele>97.356303</ele>
        <time>2021-08-19T14:20:06.946Z</time>
      </trkpt>
      <trkpt lat="41.52887" lon="35.95294">
        <ele>97.091378</ele>
        <time>2021-08-19T14:20:27.385Z</time>
      </trkpt>
      <trkpt lat="41.52931" lon="35.95259">
        <ele>96.959114</ele>
        <time>2021-08-19T14:20:43.911Z</time>
      </trkpt>
      <trkpt lat="41.53073" lon="35.95153">
        <ele>95.65132</ele>
        <time>2021-08-19T14:21:31.211Z</time>
      </trkpt>
      <trkpt lat="41.5332" lon="35.94975">
        <ele>88.980777</ele>
        <time>2021-08-19T14:22:37.999Z</time>
      </trkpt>
      <trkpt lat="41.53517" lon="35.94835">
        <ele>79.787425</ele>
        <time>2021-08-19T14:23:26.596Z</time>
      </trkpt>
      <trkpt lat="41.53684" lon="35.94727">
        <ele>70.561626</ele>
        <time>2021-08-19T14:24:05.480Z</time>
      </trkpt>
      <trkpt lat="41.53689" lon="35.94727">
        <ele>70.34085</ele>
        <time>2021-08-19T14:24:06.454Z</time>
      </trkpt>
      <trkpt lat="41.53693" lon="35.94725">
        <ele>70.121144</ele>
        <time>2021-08-19T14:24:07.439Z</time>
      </trkpt>
      <trkpt lat="41.53697" lon="35.94721">
        <ele>69.898724</ele>
        <time>2021-08-19T14:24:08.417Z</time>
      </trkpt>
      <trkpt lat="41.53699" lon="35.94715">
        <ele>69.678663</ele>
        <time>2021-08-19T14:24:09.374Z</time>
      </trkpt>
      <trkpt lat="41.53699" lon="35.94713">
        <ele>69.57627</ele>
        <time>2021-08-19T14:24:09.799Z</time>
      </trkpt>
      <trkpt lat="41.53808" lon="35.94631">
        <ele>63.568384</ele>
        <time>2021-08-19T14:24:36.322Z</time>
      </trkpt>
      <trkpt lat="41.53954" lon="35.94488">
        <ele>57.645392</ele>
        <time>2021-08-19T14:25:16.952Z</time>
      </trkpt>
      <trkpt lat="41.54008" lon="35.9441">
        <ele>59.204298</ele>
        <time>2021-08-19T14:25:39.477Z</time>
      </trkpt>
      <trkpt lat="41.54046" lon="35.94333">
        <ele>60.848249</ele>
        <time>2021-08-19T14:26:14.451Z</time>
      </trkpt>
      <trkpt lat="41.54081" lon="35.94248">
        <ele>64.591548</ele>
        <time>2021-08-19T14:27:05.177Z</time>
      </trkpt>
      <trkpt lat="41.541" lon="35.94185">
        <ele>68.726636</ele>
        <time>2021-08-19T14:27:44.402Z</time>
      </trkpt>
      <trkpt lat="41.54109" lon="35.94157">
        <ele>70.531186</ele>
        <time>2021-08-19T14:28:03.531Z</time>
      </trkpt>
      <trkpt lat="41.54132" lon="35.94051">
        <ele>76.946745</ele>
        <time>2021-08-19T14:29:11.705Z</time>
      </trkpt>
      <trkpt lat="41.54152" lon="35.93912">
        <ele>83.143349</ele>
        <time>2021-08-19T14:30:26.990Z</time>
      </trkpt>
      <trkpt lat="41.54153" lon="35.93799">
        <ele>86.59645</ele>
        <time>2021-08-19T14:31:08.476Z</time>
      </trkpt>
      <trkpt lat="41.54148" lon="35.93745">
        <ele>86.270107</ele>
        <time>2021-08-19T14:31:24.414Z</time>
      </trkpt>
      <trkpt lat="41.54129" lon="35.93555">
        <ele>83.873675</ele>
        <time>2021-08-19T14:31:58.868Z</time>
      </trkpt>
      <trkpt lat="41.54123" lon="35.93477">
        <ele>80.61669</ele>
        <time>2021-08-19T14:32:11.079Z</time>
      </trkpt>
      <trkpt lat="41.54127" lon="35.93402">
        <ele>77.478711</ele>
        <time>2021-08-19T14:32:22.555Z</time>
      </trkpt>
      <trkpt lat="41.54143" lon="35.93322">
        <ele>74.281275</ele>
        <time>2021-08-19T14:32:34.953Z</time>
      </trkpt>
      <trkpt lat="41.54165" lon="35.93254">
        <ele>71.770041</ele>
        <time>2021-08-19T14:32:46.251Z</time>
      </trkpt>
      <trkpt lat="41.54195" lon="35.93199">
        <ele>69.458991</ele>
        <time>2021-08-19T14:32:57.110Z</time>
      </trkpt>
      <trkpt lat="41.54248" lon="35.93126">
        <ele>67.956459</ele>
        <time>2021-08-19T14:33:15.878Z</time>
      </trkpt>
      <trkpt lat="41.54315" lon="35.93064">
        <ele>70.266115</ele>
        <time>2021-08-19T14:33:48.975Z</time>
      </trkpt>
      <trkpt lat="41.54656" lon="35.92849">
        <ele>92.362023</ele>
        <time>2021-08-19T14:38:06.718Z</time>
      </trkpt>
      <trkpt lat="41.54676" lon="35.92837">
        <ele>93.810009</ele>
        <time>2021-08-19T14:38:22.592Z</time>
      </trkpt>
      <trkpt lat="41.54699" lon="35.92823">
        <ele>95.40081</ele>
        <time>2021-08-19T14:38:38.742Z</time>
      </trkpt>
      <trkpt lat="41.54735" lon="35.92801">
        <ele>97.353901</ele>
        <time>2021-08-19T14:39:04.943Z</time>
      </trkpt>
      <trkpt lat="41.54788" lon="35.92769">
        <ele>99.914865</ele>
        <time>2021-08-19T14:39:39.435Z</time>
      </trkpt>
      <trkpt lat="41.54881" lon="35.92714">
        <ele>104.117131</ele>
        <time>2021-08-19T14:40:31.150Z</time>
      </trkpt>
      <trkpt lat="41.55004" lon="35.92648">
        <ele>106.583242</ele>
        <time>2021-08-19T14:41:26.152Z</time>
      </trkpt>
      <trkpt lat="41.55045" lon="35.92622">
        <ele>107.244245</ele>
        <time>2021-08-19T14:41:42.723Z</time>
      </trkpt>
      <trkpt lat="41.5507" lon="35.92605">
        <ele>107.257009</ele>
        <time>2021-08-19T14:41:52.251Z</time>
      </trkpt>
      <trkpt lat="41.55108" lon="35.9258">
        <ele>107.276302</ele>
        <time>2021-08-19T14:42:06.289Z</time>
      </trkpt>
      <trkpt lat="41.55237" lon="35.92478">
        <ele>106.80508</ele>
        <time>2021-08-19T14:42:49.545Z</time>
      </trkpt>
      <trkpt lat="41.55244" lon="35.92465">
        <ele>106.688246</ele>
        <time>2021-08-19T14:42:52.829Z</time>
      </trkpt>
      <trkpt lat="41.55248" lon="35.92453">
        <ele>106.586462</ele>
        <time>2021-08-19T14:42:55.642Z</time>
      </trkpt>
      <trkpt lat="41.55254" lon="35.92431">
        <ele>106.406351</ele>
        <time>2021-08-19T14:43:00.404Z</time>
      </trkpt>
      <trkpt lat="41.55335" lon="35.92319">
        <ele>104.750356</ele>
        <time>2021-08-19T14:43:30.706Z</time>
      </trkpt>
      <trkpt lat="41.55369" lon="35.9226">
        <ele>103.169449</ele>
        <time>2021-08-19T14:43:44.524Z</time>
      </trkpt>
      <trkpt lat="41.55439" lon="35.9227">
        <ele>101.174408</ele>
        <time>2021-08-19T14:44:01.254Z</time>
      </trkpt>
      <trkpt lat="41.55449" lon="35.92271">
        <ele>100.895809</ele>
        <time>2021-08-19T14:44:03.540Z</time>
      </trkpt>
      <trkpt lat="41.5546" lon="35.92273">
        <ele>100.583292</ele>
        <time>2021-08-19T14:44:06.090Z</time>
      </trkpt>
      <trkpt lat="41.55467" lon="35.92209">
        <ele>98.162062</ele>
        <time>2021-08-19T14:44:17.059Z</time>
      </trkpt>
      <trkpt lat="41.55468" lon="35.92194">
        <ele>97.570064</ele>
        <time>2021-08-19T14:44:19.559Z</time>
      </trkpt>
      <trkpt lat="41.55472" lon="35.92161">
        <ele>96.224676</ele>
        <time>2021-08-19T14:44:25.161Z</time>
      </trkpt>
      <trkpt lat="41.55493" lon="35.92092">
        <ele>93.274822</ele>
        <time>2021-08-19T14:44:37.223Z</time>
      </trkpt>
      <trkpt lat="41.55518" lon="35.92002">
        <ele>89.359763</ele>
        <time>2021-08-19T14:44:52.588Z</time>
      </trkpt>
      <trkpt lat="41.55545" lon="35.91905">
        <ele>84.944394</ele>
        <time>2021-08-19T14:45:09.307Z</time>
      </trkpt>
      <trkpt lat="41.55561" lon="35.91829">
        <ele>81.57183</ele>
        <time>2021-08-19T14:45:22.275Z</time>
      </trkpt>
      <trkpt lat="41.55566" lon="35.91809">
        <ele>80.694771</ele>
        <time>2021-08-19T14:45:25.680Z</time>
      </trkpt>
      <trkpt lat="41.55568" lon="35.91797">
        <ele>80.204512</ele>
        <time>2021-08-19T14:45:27.781Z</time>
      </trkpt>
      <trkpt lat="41.55574" lon="35.91762">
        <ele>78.84991</ele>
        <time>2021-08-19T14:45:33.750Z</time>
      </trkpt>
      <trkpt lat="41.55584" lon="35.91704">
        <ele>76.571113</ele>
        <time>2021-08-19T14:45:43.838Z</time>
      </trkpt>
      <trkpt lat="41.55542" lon="35.91687">
        <ele>74.385132</ele>
        <time>2021-08-19T14:45:53.466Z</time>
      </trkpt>
      <trkpt lat="41.55561" lon="35.91588">
        <ele>70.400549</ele>
        <time>2021-08-19T14:46:09.504Z</time>
      </trkpt>
      <trkpt lat="41.55582" lon="35.91473">
        <ele>65.402551</ele>
        <time>2021-08-19T14:46:27.974Z</time>
      </trkpt>
      <trkpt lat="41.55594" lon="35.91407">
        <ele>62.560755</ele>
        <time>2021-08-19T14:46:38.360Z</time>
      </trkpt>
      <trkpt lat="41.55627" lon="35.91224">
        <ele>55.39526</ele>
        <time>2021-08-19T14:47:07.848Z</time>
      </trkpt>
      <trkpt lat="41.55649" lon="35.91248">
        <ele>54.018919</ele>
        <time>2021-08-19T14:47:14.077Z</time>
      </trkpt>
      <trkpt lat="41.55671" lon="35.91207">
        <ele>52.180965</ele>
        <time>2021-08-19T14:47:22.609Z</time>
      </trkpt>
      <trkpt lat="41.55684" lon="35.9114">
        <ele>50.053371</ele>
        <time>2021-08-19T14:47:34.830Z</time>
      </trkpt>
      <trkpt lat="41.557" lon="35.91051">
        <ele>47.285017</ele>
        <time>2021-08-19T14:47:50.883Z</time>
      </trkpt>
      <trkpt lat="41.55704" lon="35.91027">
        <ele>46.553785</ele>
        <time>2021-08-19T14:47:55.038Z</time>
      </trkpt>
      <trkpt lat="41.55717" lon="35.9103">
        <ele>46.054118</ele>
        <time>2021-08-19T14:47:57.837Z</time>
      </trkpt>
      <trkpt lat="41.55741" lon="35.91041">
        <ele>45.008386</ele>
        <time>2021-08-19T14:48:03.657Z</time>
      </trkpt>
      <trkpt lat="41.55766" lon="35.90994">
        <ele>43.010655</ele>
        <time>2021-08-19T14:48:13.381Z</time>
      </trkpt>
      <trkpt lat="41.5578" lon="35.9097">
        <ele>41.970302</ele>
        <time>2021-08-19T14:48:18.450Z</time>
      </trkpt>
      <trkpt lat="41.55794" lon="35.90943">
        <ele>40.846898</ele>
        <time>2021-08-19T14:48:23.931Z</time>
      </trkpt>
      <trkpt lat="41.558" lon="35.90933">
        <ele>40.412517</ele>
        <time>2021-08-19T14:48:26.050Z</time>
      </trkpt>
      <trkpt lat="41.55818" lon="35.90877">
        <ele>38.315948</ele>
        <time>2021-08-19T14:48:36.269Z</time>
      </trkpt>
      <trkpt lat="41.55835" lon="35.90821">
        <ele>36.269628</ele>
        <time>2021-08-19T14:48:46.523Z</time>
      </trkpt>
      <trkpt lat="41.5586" lon="35.90742">
        <ele>33.653327</ele>
        <time>2021-08-19T14:49:00.863Z</time>
      </trkpt>
      <trkpt lat="41.55863" lon="35.90735">
        <ele>33.407289</ele>
        <time>2021-08-19T14:49:02.230Z</time>
      </trkpt>
      <trkpt lat="41.5587" lon="35.90711">
        <ele>32.63827</ele>
        <time>2021-08-19T14:49:06.514Z</time>
      </trkpt>
      <trkpt lat="41.55874" lon="35.907">
        <ele>32.259679</ele>
        <time>2021-08-19T14:49:08.623Z</time>
      </trkpt>
      <trkpt lat="41.55888" lon="35.90661">
        <ele>30.949137</ele>
        <time>2021-08-19T14:49:16.083Z</time>
      </trkpt>
      <trkpt lat="41.55909" lon="35.90601">
        <ele>29.17535</ele>
        <time>2021-08-19T14:49:28.295Z</time>
      </trkpt>
      <trkpt lat="41.55916" lon="35.9059">
        <ele>28.956927</ele>
        <time>2021-08-19T14:49:30.948Z</time>
      </trkpt>
      <trkpt lat="41.55933" lon="35.90494">
        <ele>27.444235</ele>
        <time>2021-08-19T14:49:49.914Z</time>
      </trkpt>
      <trkpt lat="41.55934" lon="35.90484">
        <ele>27.293217</ele>
        <time>2021-08-19T14:49:51.862Z</time>
      </trkpt>
      <trkpt lat="41.55937" lon="35.90471">
        <ele>27.082293</ele>
        <time>2021-08-19T14:49:54.515Z</time>
      </trkpt>
      <trkpt lat="41.55939" lon="35.90457">
        <ele>26.862426</ele>
        <time>2021-08-19T14:49:57.311Z</time>
      </trkpt>
      <trkpt lat="41.55947" lon="35.90413">
        <ele>26.171711</ele>
        <time>2021-08-19T14:50:06.189Z</time>
      </trkpt>
      <trkpt lat="41.5596" lon="35.9034">
        <ele>25.458345</ele>
        <time>2021-08-19T14:50:21.886Z</time>
      </trkpt>
      <trkpt lat="41.55964" lon="35.90316">
        <ele>25.306742</ele>
        <time>2021-08-19T14:50:27.005Z</time>
      </trkpt>
      <trkpt lat="41.55971" lon="35.90279">
        <ele>25.069488</ele>
        <time>2021-08-19T14:50:35.351Z</time>
      </trkpt>
      <trkpt lat="41.55982" lon="35.90221">
        <ele>24.689357</ele>
        <time>2021-08-19T14:50:48.627Z</time>
      </trkpt>
      <trkpt lat="41.55995" lon="35.90155">
        <ele>24.264582</ele>
        <time>2021-08-19T14:51:03.582Z</time>
      </trkpt>
      <trkpt lat="41.56014" lon="35.90053">
        <ele>24.068197</ele>
        <time>2021-08-19T14:51:27.579Z</time>
      </trkpt>
      <trkpt lat="41.56043" lon="35.89951">
        <ele>23.872338</ele>
        <time>2021-08-19T14:51:53.848Z</time>
      </trkpt>
      <trkpt lat="41.56074" lon="35.89956">
        <ele>23.835246</ele>
        <time>2021-08-19T14:52:03.612Z</time>
      </trkpt>
      <trkpt lat="41.56098" lon="35.89898">
        <ele>23.900661</ele>
        <time>2021-08-19T14:52:19.932Z</time>
      </trkpt>
      <trkpt lat="41.56122" lon="35.89849">
        <ele>23.95836</ele>
        <time>2021-08-19T14:52:34.547Z</time>
      </trkpt>
      <trkpt lat="41.5613" lon="35.89833">
        <ele>23.977482</ele>
        <time>2021-08-19T14:52:39.412Z</time>
      </trkpt>
      <trkpt lat="41.56166" lon="35.89772">
        <ele>24.054052</ele>
        <time>2021-08-19T14:52:58.940Z</time>
      </trkpt>
      <trkpt lat="41.5623" lon="35.89664">
        <ele>24.255321</ele>
        <time>2021-08-19T14:53:33.275Z</time>
      </trkpt>
      <trkpt lat="41.56219" lon="35.89652">
        <ele>24.283435</ele>
        <time>2021-08-19T14:53:38.010Z</time>
      </trkpt>
      <trkpt lat="41.56242" lon="35.89611">
        <ele>24.359174</ele>
        <time>2021-08-19T14:53:51.274Z</time>
      </trkpt>
      <trkpt lat="41.56255" lon="35.89588">
        <ele>24.400229</ele>
        <time>2021-08-19T14:53:58.331Z</time>
      </trkpt>
      <trkpt lat="41.56281" lon="35.89542">
        <ele>24.498353</ele>
        <time>2021-08-19T14:54:13.205Z</time>
      </trkpt>
      <trkpt lat="41.56303" lon="35.89499">
        <ele>24.587055</ele>
        <time>2021-08-19T14:54:26.292Z</time>
      </trkpt>
      <trkpt lat="41.56325" lon="35.89453">
        <ele>24.680834</ele>
        <time>2021-08-19T14:54:40.050Z</time>
      </trkpt>
      <trkpt lat="41.56329" lon="35.89446">
        <ele>24.69624</ele>
        <time>2021-08-19T14:54:42.309Z</time>
      </trkpt>
      <trkpt lat="41.56346" lon="35.8942">
        <ele>24.75515</ele>
        <time>2021-08-19T14:54:50.951Z</time>
      </trkpt>
      <trkpt lat="41.56365" lon="35.89397">
        <ele>24.813843</ele>
        <time>2021-08-19T14:54:59.609Z</time>
      </trkpt>
      <trkpt lat="41.56385" lon="35.89371">
        <ele>24.801858</ele>
        <time>2021-08-19T14:55:09.151Z</time>
      </trkpt>
      <trkpt lat="41.56401" lon="35.89348">
        <ele>24.777099</ele>
        <time>2021-08-19T14:55:16.888Z</time>
      </trkpt>
      <trkpt lat="41.56432" lon="35.89301">
        <ele>24.727755</ele>
        <time>2021-08-19T14:55:32.214Z</time>
      </trkpt>
      <trkpt lat="41.56403" lon="35.89255">
        <ele>24.680366</ele>
        <time>2021-08-19T14:55:46.162Z</time>
      </trkpt>
      <trkpt lat="41.56408" lon="35.89237">
        <ele>24.665182</ele>
        <time>2021-08-19T14:55:50.535Z</time>
      </trkpt>
      <trkpt lat="41.56429" lon="35.89197">
        <ele>24.579422</ele>
        <time>2021-08-19T14:56:01.554Z</time>
      </trkpt>
      <trkpt lat="41.56405" lon="35.89166">
        <ele>24.348927</ele>
        <time>2021-08-19T14:56:11.502Z</time>
      </trkpt>
      <trkpt lat="41.56403" lon="35.89153">
        <ele>24.280696</ele>
        <time>2021-08-19T14:56:14.481Z</time>
      </trkpt>
      <trkpt lat="41.56411" lon="35.89151">
        <ele>24.224973</ele>
        <time>2021-08-19T14:56:16.795Z</time>
      </trkpt>
      <trkpt lat="41.56428" lon="35.89147">
        <ele>24.105167</ele>
        <time>2021-08-19T14:56:21.764Z</time>
      </trkpt>
      <trkpt lat="41.56443" lon="35.89134">
        <ele>23.985623</ele>
        <time>2021-08-19T14:56:26.805Z</time>
      </trkpt>
      <trkpt lat="41.56456" lon="35.89122">
        <ele>23.878602</ele>
        <time>2021-08-19T14:56:31.229Z</time>
      </trkpt>
      <trkpt lat="41.56469" lon="35.8911">
        <ele>23.764463</ele>
        <time>2021-08-19T14:56:36.080Z</time>
      </trkpt>
      <trkpt lat="41.56444" lon="35.89047">
        <ele>23.402588</ele>
        <time>2021-08-19T14:56:51.780Z</time>
      </trkpt>
      <trkpt lat="41.56479" lon="35.89018">
        <ele>23.31853</ele>
        <time>2021-08-19T14:57:03.947Z</time>
      </trkpt>
      <trkpt lat="41.56521" lon="35.88996">
        <ele>23.225277</ele>
        <time>2021-08-19T14:57:17.858Z</time>
      </trkpt>
      <trkpt lat="41.56519" lon="35.88981">
        <ele>23.20246</ele>
        <time>2021-08-19T14:57:21.529Z</time>
      </trkpt>
      <trkpt lat="41.56503" lon="35.88911">
        <ele>23.090871</ele>
        <time>2021-08-19T14:57:39.446Z</time>
      </trkpt>
      <trkpt lat="41.56479" lon="35.88806">
        <ele>23.215433</ele>
        <time>2021-08-19T14:58:07.573Z</time>
      </trkpt>
      <trkpt lat="41.56469" lon="35.88775">
        <ele>23.293492</ele>
        <time>2021-08-19T14:58:16.452Z</time>
      </trkpt>
      <trkpt lat="41.56476" lon="35.8876">
        <ele>23.335015</ele>
        <time>2021-08-19T14:58:20.948Z</time>
      </trkpt>
      <trkpt lat="41.56485" lon="35.88755">
        <ele>23.365725</ele>
        <time>2021-08-19T14:58:24.338Z</time>
      </trkpt>
      <trkpt lat="41.56531" lon="35.88764">
        <ele>23.51232</ele>
        <time>2021-08-19T14:58:40.357Z</time>
      </trkpt>
      <trkpt lat="41.56509" lon="35.88676">
        <ele>23.553511</ele>
        <time>2021-08-19T14:59:03.002Z</time>
      </trkpt>
      <trkpt lat="41.56502" lon="35.88642">
        <ele>23.520075</ele>
        <time>2021-08-19T14:59:11.154Z</time>
      </trkpt>
      <trkpt lat="41.56498" lon="35.88634">
        <ele>23.510987</ele>
        <time>2021-08-19T14:59:13.376Z</time>
      </trkpt>
      <trkpt lat="41.56493" lon="35.88629">
        <ele>23.503405</ele>
        <time>2021-08-19T14:59:15.059Z</time>
      </trkpt>
      <trkpt lat="41.56506" lon="35.88603">
        <ele>23.473321</ele>
        <time>2021-08-19T14:59:22.435Z</time>
      </trkpt>
      <trkpt lat="41.5663" lon="35.88296">
        <ele>22.471537</ele>
        <time>2021-08-19T15:00:38.608Z</time>
      </trkpt>
      <trkpt lat="41.56648" lon="35.88259">
        <ele>22.174557</ele>
        <time>2021-08-19T15:00:47.478Z</time>
      </trkpt>
      <trkpt lat="41.56776" lon="35.87985">
        <ele>20.498422</ele>
        <time>2021-08-19T15:01:53.138Z</time>
      </trkpt>
      <trkpt lat="41.56799" lon="35.87939">
        <ele>20.336596</ele>
        <time>2021-08-19T15:02:06.071Z</time>
      </trkpt>
      <trkpt lat="41.56909" lon="35.8772">
        <ele>21.048899</ele>
        <time>2021-08-19T15:03:13.857Z</time>
      </trkpt>
      <trkpt lat="41.56949" lon="35.87641">
        <ele>21.300306</ele>
        <time>2021-08-19T15:03:38.207Z</time>
      </trkpt>
      <trkpt lat="41.56988" lon="35.87566">
        <ele>21.483706</ele>
        <time>2021-08-19T15:04:00.798Z</time>
      </trkpt>
      <trkpt lat="41.57013" lon="35.87526">
        <ele>21.587596</ele>
        <time>2021-08-19T15:04:13.032Z</time>
      </trkpt>
      <trkpt lat="41.57029" lon="35.8749">
        <ele>21.622144</ele>
        <time>2021-08-19T15:04:22.782Z</time>
      </trkpt>
      <trkpt lat="41.57069" lon="35.87386">
        <ele>21.3545</ele>
        <time>2021-08-19T15:04:49.288Z</time>
      </trkpt>
      <trkpt lat="41.57122" lon="35.87267">
        <ele>21.038383</ele>
        <time>2021-08-19T15:05:19.087Z</time>
      </trkpt>
      <trkpt lat="41.57167" lon="35.87165">
        <ele>20.759158</ele>
        <time>2021-08-19T15:05:44.971Z</time>
      </trkpt>
      <trkpt lat="41.57203" lon="35.87085">
        <ele>20.542479</ele>
        <time>2021-08-19T15:06:05.839Z</time>
      </trkpt>
      <trkpt lat="41.57237" lon="35.86994">
        <ele>20.69096</ele>
        <time>2021-08-19T15:06:29.849Z</time>
      </trkpt>
      <trkpt lat="41.57358" lon="35.86614">
        <ele>21.578816</ele>
        <time>2021-08-19T15:08:12.729Z</time>
      </trkpt>
      <trkpt lat="41.57515" lon="35.86112">
        <ele>21.626302</ele>
        <time>2021-08-19T15:10:20.018Z</time>
      </trkpt>
      <trkpt lat="41.57726" lon="35.85433">
        <ele>20.879602</ele>
        <time>2021-08-19T15:13:08.066Z</time>
      </trkpt>
      <trkpt lat="41.57812" lon="35.85189">
        <ele>20.272036</ele>
        <time>2021-08-19T15:14:06.796Z</time>
      </trkpt>
      <trkpt lat="41.57854" lon="35.85043">
        <ele>20.041509</ele>
        <time>2021-08-19T15:14:41.827Z</time>
      </trkpt>
      <trkpt lat="41.5789" lon="35.84929">
        <ele>20.086471</ele>
        <time>2021-08-19T15:15:10.755Z</time>
      </trkpt>
      <trkpt lat="41.57944" lon="35.84801">
        <ele>20.934523</ele>
        <time>2021-08-19T15:15:47.166Z</time>
      </trkpt>
      <trkpt lat="41.58002" lon="35.8468">
        <ele>22.353898</ele>
        <time>2021-08-19T15:16:28.750Z</time>
      </trkpt>
      <trkpt lat="41.58076" lon="35.84546">
        <ele>27.79714</ele>
        <time>2021-08-19T15:17:33.185Z</time>
      </trkpt>
      <trkpt lat="41.58152" lon="35.84426">
        <ele>35.124051</ele>
        <time>2021-08-19T15:18:54.275Z</time>
      </trkpt>
      <trkpt lat="41.58227" lon="35.84327">
        <ele>43.790448</ele>
        <time>2021-08-19T15:20:19.173Z</time>
      </trkpt>
      <trkpt lat="41.58326" lon="35.84207">
        <ele>55.463851</ele>
        <time>2021-08-19T15:22:10.070Z</time>
      </trkpt>
      <trkpt lat="41.58521" lon="35.8402">
        <ele>74.9671</ele>
        <time>2021-08-19T15:25:15.579Z</time>
      </trkpt>
      <trkpt lat="41.58586" lon="35.83977">
        <ele>77.833362</ele>
        <time>2021-08-19T15:26:02.670Z</time>
      </trkpt>
      <trkpt lat="41.58726" lon="35.83895">
        <ele>81.046987</ele>
        <time>2021-08-19T15:27:05.946Z</time>
      </trkpt>
      <trkpt lat="41.58835" lon="35.83818">
        <ele>78.68574</ele>
        <time>2021-08-19T15:27:35.012Z</time>
      </trkpt>
      <trkpt lat="41.58884" lon="35.83784">
        <ele>76.680075</ele>
        <time>2021-08-19T15:27:46.743Z</time>
      </trkpt>
      <trkpt lat="41.59114" lon="35.83672">
        <ele>65.927994</ele>
        <time>2021-08-19T15:28:39.043Z</time>
      </trkpt>
      <trkpt lat="41.59274" lon="35.83617">
        <ele>60.400866</ele>
        <time>2021-08-19T15:29:16.107Z</time>
      </trkpt>
      <trkpt lat="41.59649" lon="35.83514">
        <ele>50.615819</ele>
        <time>2021-08-19T15:30:48.413Z</time>
      </trkpt>
      <trkpt lat="41.5973" lon="35.83491">
        <ele>48.515051</ele>
        <time>2021-08-19T15:31:07.793Z</time>
      </trkpt>
      <trkpt lat="41.59773" lon="35.83474">
        <ele>47.170973</ele>
        <time>2021-08-19T15:31:18.257Z</time>
      </trkpt>
      <trkpt lat="41.59882" lon="35.83404">
        <ele>43.585403</ele>
        <time>2021-08-19T15:31:45.883Z</time>
      </trkpt>
      <trkpt lat="41.59936" lon="35.83358">
        <ele>41.635809</ele>
        <time>2021-08-19T15:32:00.548Z</time>
      </trkpt>
      <trkpt lat="41.60001" lon="35.83284">
        <ele>39.009573</ele>
        <time>2021-08-19T15:32:20.262Z</time>
      </trkpt>
      <trkpt lat="41.60058" lon="35.83206">
        <ele>36.650566</ele>
        <time>2021-08-19T15:32:39.083Z</time>
      </trkpt>
      <trkpt lat="41.60108" lon="35.83113">
        <ele>34.274208</ele>
        <time>2021-08-19T15:32:59.057Z</time>
      </trkpt>
      <trkpt lat="41.6015" lon="35.83008">
        <ele>32.140104</ele>
        <time>2021-08-19T15:33:20.338Z</time>
      </trkpt>
      <trkpt lat="41.60175" lon="35.82901">
        <ele>30.463742</ele>
        <time>2021-08-19T15:33:40.823Z</time>
      </trkpt>
      <trkpt lat="41.60311" lon="35.82161">
        <ele>22.251204</ele>
        <time>2021-08-19T15:36:09.413Z</time>
      </trkpt>
      <trkpt lat="41.60347" lon="35.81975">
        <ele>19.942346</ele>
        <time>2021-08-19T15:36:46.330Z</time>
      </trkpt>
      <trkpt lat="41.60351" lon="35.81971">
        <ele>19.858961</ele>
        <time>2021-08-19T15:36:47.601Z</time>
      </trkpt>
      <trkpt lat="41.60357" lon="35.81953">
        <ele>19.616035</ele>
        <time>2021-08-19T15:36:51.342Z</time>
      </trkpt>
      <trkpt lat="41.60356" lon="35.81946">
        <ele>19.532207</ele>
        <time>2021-08-19T15:36:52.603Z</time>
      </trkpt>
      <trkpt lat="41.60376" lon="35.81824">
        <ele>17.814245</ele>
        <time>2021-08-19T15:37:15.631Z</time>
      </trkpt>
      <trkpt lat="41.6038" lon="35.81798">
        <ele>17.416519</ele>
        <time>2021-08-19T15:37:20.603Z</time>
      </trkpt>
      <trkpt lat="41.60412" lon="35.81582">
        <ele>14.753086</ele>
        <time>2021-08-19T15:38:01.479Z</time>
      </trkpt>
      <trkpt lat="41.60427" lon="35.81461">
        <ele>13.708393</ele>
        <time>2021-08-19T15:38:26.825Z</time>
      </trkpt>
      <trkpt lat="41.60429" lon="35.81414">
        <ele>13.471268</ele>
        <time>2021-08-19T15:38:37.104Z</time>
      </trkpt>
      <trkpt lat="41.60432" lon="35.81326">
        <ele>13.523148</ele>
        <time>2021-08-19T15:38:57.936Z</time>
      </trkpt>
      <trkpt lat="41.6043" lon="35.81181">
        <ele>13.593585</ele>
        <time>2021-08-19T15:39:33.739Z</time>
      </trkpt>
      <trkpt lat="41.60421" lon="35.81028">
        <ele>13.4798</ele>
        <time>2021-08-19T15:40:09.923Z</time>
      </trkpt>
      <trkpt lat="41.60336" lon="35.80488">
        <ele>11.77511</ele>
        <time>2021-08-19T15:42:09.314Z</time>
      </trkpt>
      <trkpt lat="41.60314" lon="35.80324">
        <ele>11.389156</ele>
        <time>2021-08-19T15:42:45.089Z</time>
      </trkpt>
      <trkpt lat="41.60259" lon="35.80063">
        <ele>11.476246</ele>
        <time>2021-08-19T15:43:49.526Z</time>
      </trkpt>
      <trkpt lat="41.59987" lon="35.78471">
        <ele>15.638822</ele>
        <time>2021-08-19T15:50:35.014Z</time>
      </trkpt>
      <trkpt lat="41.59966" lon="35.78293">
        <ele>15.875026</ele>
        <time>2021-08-19T15:51:18.593Z</time>
      </trkpt>
      <trkpt lat="41.59954" lon="35.78105">
        <ele>15.895867</ele>
        <time>2021-08-19T15:52:02.382Z</time>
      </trkpt>
      <trkpt lat="41.59953" lon="35.77991">
        <ele>15.842993</ele>
        <time>2021-08-19T15:52:28.350Z</time>
      </trkpt>
      <trkpt lat="41.59954" lon="35.77837">
        <ele>15.85142</ele>
        <time>2021-08-19T15:53:03.957Z</time>
      </trkpt>
      <trkpt lat="41.59957" lon="35.77832">
        <ele>15.857845</ele>
        <time>2021-08-19T15:53:05.456Z</time>
      </trkpt>
      <trkpt lat="41.59958" lon="35.77825">
        <ele>15.864348</ele>
        <time>2021-08-19T15:53:06.997Z</time>
      </trkpt>
      <trkpt lat="41.59957" lon="35.77819">
        <ele>15.870138</ele>
        <time>2021-08-19T15:53:08.433Z</time>
      </trkpt>
      <trkpt lat="41.59955" lon="35.77814">
        <ele>15.875979</ele>
        <time>2021-08-19T15:53:09.905Z</time>
      </trkpt>
      <trkpt lat="41.59943" lon="35.77537">
        <ele>16.047248</ele>
        <time>2021-08-19T15:54:16.893Z</time>
      </trkpt>
      <trkpt lat="41.5994" lon="35.77399">
        <ele>16.031429</ele>
        <time>2021-08-19T15:54:48.860Z</time>
      </trkpt>
      <trkpt lat="41.59945" lon="35.77178">
        <ele>15.526515</ele>
        <time>2021-08-19T15:55:37.677Z</time>
      </trkpt>
      <trkpt lat="41.59963" lon="35.77015">
        <ele>15.321915</ele>
        <time>2021-08-19T15:56:14.374Z</time>
      </trkpt>
      <trkpt lat="41.60034" lon="35.76566">
        <ele>15.336902</ele>
        <time>2021-08-19T15:58:02.248Z</time>
      </trkpt>
      <trkpt lat="41.6004" lon="35.76538">
        <ele>15.350785</ele>
        <time>2021-08-19T15:58:09.204Z</time>
      </trkpt>
      <trkpt lat="41.60042" lon="35.76529">
        <ele>15.355416</ele>
        <time>2021-08-19T15:58:11.387Z</time>
      </trkpt>
      <trkpt lat="41.60049" lon="35.76478">
        <ele>15.380585</ele>
        <time>2021-08-19T15:58:23.676Z</time>
      </trkpt>
      <trkpt lat="41.60067" lon="35.76371">
        <ele>15.260905</ele>
        <time>2021-08-19T15:58:49.230Z</time>
      </trkpt>
      <trkpt lat="41.60073" lon="35.76342">
        <ele>15.223586</ele>
        <time>2021-08-19T15:58:55.942Z</time>
      </trkpt>
      <trkpt lat="41.60089" lon="35.76258">
        <ele>15.112519</ele>
        <time>2021-08-19T15:59:15.187Z</time>
      </trkpt>
      <trkpt lat="41.60092" lon="35.76255">
        <ele>15.105726</ele>
        <time>2021-08-19T15:59:16.408Z</time>
      </trkpt>
      <trkpt lat="41.60095" lon="35.7625">
        <ele>15.098876</ele>
        <time>2021-08-19T15:59:17.619Z</time>
      </trkpt>
      <trkpt lat="41.60096" lon="35.76245">
        <ele>15.091944</ele>
        <time>2021-08-19T15:59:18.802Z</time>
      </trkpt>
      <trkpt lat="41.60097" lon="35.7624">
        <ele>15.085127</ele>
        <time>2021-08-19T15:59:19.980Z</time>
      </trkpt>
      <trkpt lat="41.60096" lon="35.76235">
        <ele>15.077307</ele>
        <time>2021-08-19T15:59:21.161Z</time>
      </trkpt>
      <trkpt lat="41.60095" lon="35.7623">
        <ele>15.064202</ele>
        <time>2021-08-19T15:59:22.346Z</time>
      </trkpt>
      <trkpt lat="41.60112" lon="35.76103">
        <ele>14.747823</ele>
        <time>2021-08-19T15:59:50.812Z</time>
      </trkpt>
      <trkpt lat="41.6018" lon="35.75714">
        <ele>13.940337</ele>
        <time>2021-08-19T16:01:19.374Z</time>
      </trkpt>
      <trkpt lat="41.60325" lon="35.74817">
        <ele>12.557171</ele>
        <time>2021-08-19T16:04:47.533Z</time>
      </trkpt>
      <trkpt lat="41.60353" lon="35.74648">
        <ele>11.774762</ele>
        <time>2021-08-19T16:05:23.826Z</time>
      </trkpt>
      <trkpt lat="41.60381" lon="35.74482">
        <ele>11.568496</ele>
        <time>2021-08-19T16:06:00.475Z</time>
      </trkpt>
      <trkpt lat="41.60638" lon="35.73486">
        <ele>12.206433</ele>
        <time>2021-08-19T16:10:12.425Z</time>
      </trkpt>
      <trkpt lat="41.60684" lon="35.7333">
        <ele>12.171522</ele>
        <time>2021-08-19T16:10:52.429Z</time>
      </trkpt>
      <trkpt lat="41.60688" lon="35.73328">
        <ele>12.168456</ele>
        <time>2021-08-19T16:10:53.530Z</time>
      </trkpt>
      <trkpt lat="41.60691" lon="35.73324">
        <ele>12.165354</ele>
        <time>2021-08-19T16:10:54.675Z</time>
      </trkpt>
      <trkpt lat="41.60693" lon="35.7332">
        <ele>12.162318</ele>
        <time>2021-08-19T16:10:55.883Z</time>
      </trkpt>
      <trkpt lat="41.60694" lon="35.73314">
        <ele>12.158305</ele>
        <time>2021-08-19T16:10:57.526Z</time>
      </trkpt>
      <trkpt lat="41.60695" lon="35.73307">
        <ele>12.154284</ele>
        <time>2021-08-19T16:10:59.227Z</time>
      </trkpt>
      <trkpt lat="41.60693" lon="35.733">
        <ele>12.150264</ele>
        <time>2021-08-19T16:11:00.954Z</time>
      </trkpt>
      <trkpt lat="41.60698" lon="35.73281">
        <ele>12.138529</ele>
        <time>2021-08-19T16:11:05.216Z</time>
      </trkpt>
      <trkpt lat="41.6075" lon="35.73049">
        <ele>11.648804</ele>
        <time>2021-08-19T16:11:57.750Z</time>
      </trkpt>
      <trkpt lat="41.6104" lon="35.71921">
        <ele>11.484151</ele>
        <time>2021-08-19T16:16:35.263Z</time>
      </trkpt>
      <trkpt lat="41.61111" lon="35.71644">
        <ele>12.259509</ele>
        <time>2021-08-19T16:17:49.181Z</time>
      </trkpt>
      <trkpt lat="41.61167" lon="35.7143">
        <ele>12.892118</ele>
        <time>2021-08-19T16:18:44.860Z</time>
      </trkpt>
      <trkpt lat="41.61221" lon="35.71227">
        <ele>14.142736</ele>
        <time>2021-08-19T16:19:40.423Z</time>
      </trkpt>
      <trkpt lat="41.61228" lon="35.71187">
        <ele>14.397038</ele>
        <time>2021-08-19T16:19:52.123Z</time>
      </trkpt>
      <trkpt lat="41.61245" lon="35.70987">
        <ele>17.209296</ele>
        <time>2021-08-19T16:20:55.614Z</time>
      </trkpt>
      <trkpt lat="41.6125" lon="35.70785">
        <ele>20.02614</ele>
        <time>2021-08-19T16:22:01.542Z</time>
      </trkpt>
      <trkpt lat="41.61239" lon="35.70577">
        <ele>21.862858</ele>
        <time>2021-08-19T16:23:01.060Z</time>
      </trkpt>
      <trkpt lat="41.61189" lon="35.70336">
        <ele>22.480677</ele>
        <time>2021-08-19T16:24:00.768Z</time>
      </trkpt>
      <trkpt lat="41.61108" lon="35.7002">
        <ele>22.416642</ele>
        <time>2021-08-19T16:25:16.393Z</time>
      </trkpt>
      <trkpt lat="41.61095" lon="35.69966">
        <ele>22.567391</ele>
        <time>2021-08-19T16:25:31.333Z</time>
      </trkpt>
      <trkpt lat="41.61062" lon="35.69854">
        <ele>23.006285</ele>
        <time>2021-08-19T16:26:02.410Z</time>
      </trkpt>
      <trkpt lat="41.61046" lon="35.69787">
        <ele>23.263225</ele>
        <time>2021-08-19T16:26:20.922Z</time>
      </trkpt>
      <trkpt lat="41.60946" lon="35.69325">
        <ele>24.268399</ele>
        <time>2021-08-19T16:28:16.222Z</time>
      </trkpt>
      <trkpt lat="41.60892" lon="35.69005">
        <ele>27.25193</ele>
        <time>2021-08-19T16:29:55.184Z</time>
      </trkpt>
      <trkpt lat="41.60854" lon="35.6863">
        <ele>27.335745</ele>
        <time>2021-08-19T16:31:24.627Z</time>
      </trkpt>
      <trkpt lat="41.60858" lon="35.68318">
        <ele>22.435367</ele>
        <time>2021-08-19T16:32:20.065Z</time>
      </trkpt>
      <trkpt lat="41.60858" lon="35.68305">
        <ele>22.272643</ele>
        <time>2021-08-19T16:32:22.282Z</time>
      </trkpt>
      <trkpt lat="41.60858" lon="35.68292">
        <ele>22.099317</ele>
        <time>2021-08-19T16:32:24.651Z</time>
      </trkpt>
      <trkpt lat="41.60848" lon="35.67966">
        <ele>18.601133</ele>
        <time>2021-08-19T16:33:28.156Z</time>
      </trkpt>
      <trkpt lat="41.60849" lon="35.6678">
        <ele>12.917576</ele>
        <time>2021-08-19T16:37:39.743Z</time>
      </trkpt>
      <trkpt lat="41.60857" lon="35.66644">
        <ele>12.669404</ele>
        <time>2021-08-19T16:38:10.324Z</time>
      </trkpt>
      <trkpt lat="41.60939" lon="35.65846">
        <ele>13.963814</ele>
        <time>2021-08-19T16:41:26.677Z</time>
      </trkpt>
      <trkpt lat="41.61051" lon="35.64985">
        <ele>14.764508</ele>
        <time>2021-08-19T16:44:56.729Z</time>
      </trkpt>
      <trkpt lat="41.61091" lon="35.64673">
        <ele>13.519079</ele>
        <time>2021-08-19T16:46:01.779Z</time>
      </trkpt>
      <trkpt lat="41.61131" lon="35.64335">
        <ele>13.669982</ele>
        <time>2021-08-19T16:47:25.641Z</time>
      </trkpt>
      <trkpt lat="41.61181" lon="35.64116">
        <ele>13.76808</ele>
        <time>2021-08-19T16:48:20.930Z</time>
      </trkpt>
      <trkpt lat="41.61308" lon="35.63656">
        <ele>12.210905</ele>
        <time>2021-08-19T16:50:06.265Z</time>
      </trkpt>
      <trkpt lat="41.61532" lon="35.62872">
        <ele>11.335169</ele>
        <time>2021-08-19T16:53:16.890Z</time>
      </trkpt>
      <trkpt lat="41.6154" lon="35.62842">
        <ele>11.381857</ele>
        <time>2021-08-19T16:53:24.259Z</time>
      </trkpt>
      <trkpt lat="41.61543" lon="35.62836">
        <ele>11.392782</ele>
        <time>2021-08-19T16:53:26.023Z</time>
      </trkpt>
      <trkpt lat="41.61544" lon="35.62828">
        <ele>11.403633</ele>
        <time>2021-08-19T16:53:27.858Z</time>
      </trkpt>
      <trkpt lat="41.61543" lon="35.62822">
        <ele>11.413744</ele>
        <time>2021-08-19T16:53:29.393Z</time>
      </trkpt>
      <trkpt lat="41.61547" lon="35.62799">
        <ele>11.447907</ele>
        <time>2021-08-19T16:53:35.029Z</time>
      </trkpt>
      <trkpt lat="41.61586" lon="35.62513">
        <ele>12.608146</ele>
        <time>2021-08-19T16:54:50.277Z</time>
      </trkpt>
      <trkpt lat="41.61607" lon="35.6222">
        <ele>14.612534</ele>
        <time>2021-08-19T16:56:10.408Z</time>
      </trkpt>
      <trkpt lat="41.61618" lon="35.61871">
        <ele>17.049378</ele>
        <time>2021-08-19T16:57:46.836Z</time>
      </trkpt>
      <trkpt lat="41.61621" lon="35.61715">
        <ele>17.874585</ele>
        <time>2021-08-19T16:58:27.554Z</time>
      </trkpt>
      <trkpt lat="41.61626" lon="35.6148">
        <ele>18.628972</ele>
        <time>2021-08-19T16:59:25.577Z</time>
      </trkpt>
      <trkpt lat="41.61632" lon="35.61289">
        <ele>19.236469</ele>
        <time>2021-08-19T17:00:13.395Z</time>
      </trkpt>
      <trkpt lat="41.6164" lon="35.61243">
        <ele>19.559262</ele>
        <time>2021-08-19T17:00:25.798Z</time>
      </trkpt>
      <trkpt lat="41.61652" lon="35.60915">
        <ele>21.968845</ele>
        <time>2021-08-19T17:01:56.742Z</time>
      </trkpt>
      <trkpt lat="41.61656" lon="35.60802">
        <ele>22.829157</ele>
        <time>2021-08-19T17:02:28.280Z</time>
      </trkpt>
      <trkpt lat="41.61656" lon="35.608">
        <ele>22.836742</ele>
        <time>2021-08-19T17:02:28.760Z</time>
      </trkpt>
      <trkpt lat="41.61657" lon="35.60793">
        <ele>22.869627</ele>
        <time>2021-08-19T17:02:30.859Z</time>
      </trkpt>
      <trkpt lat="41.61657" lon="35.60757">
        <ele>23.018404</ele>
        <time>2021-08-19T17:02:40.410Z</time>
      </trkpt>
      <trkpt lat="41.61659" lon="35.60742">
        <ele>23.083917</ele>
        <time>2021-08-19T17:02:44.545Z</time>
      </trkpt>
      <trkpt lat="41.61661" lon="35.60736">
        <ele>23.111983</ele>
        <time>2021-08-19T17:02:46.285Z</time>
      </trkpt>
      <trkpt lat="41.6166" lon="35.60723">
        <ele>23.16564</ele>
        <time>2021-08-19T17:02:49.624Z</time>
      </trkpt>
      <trkpt lat="41.61659" lon="35.60721">
        <ele>23.178515</ele>
        <time>2021-08-19T17:02:50.421Z</time>
      </trkpt>
      <trkpt lat="41.6166" lon="35.60697">
        <ele>23.278433</ele>
        <time>2021-08-19T17:02:56.735Z</time>
      </trkpt>
      <trkpt lat="41.61661" lon="35.60665">
        <ele>23.413532</ele>
        <time>2021-08-19T17:03:05.021Z</time>
      </trkpt>
      <trkpt lat="41.61662" lon="35.6064">
        <ele>23.519054</ele>
        <time>2021-08-19T17:03:11.360Z</time>
      </trkpt>
      <trkpt lat="41.61671" lon="35.60409">
        <ele>24.071395</ele>
        <time>2021-08-19T17:04:07.448Z</time>
      </trkpt>
      <trkpt lat="41.61673" lon="35.60319">
        <ele>24.193216</ele>
        <time>2021-08-19T17:04:29.144Z</time>
      </trkpt>
      <trkpt lat="41.61675" lon="35.6028">
        <ele>24.158999</ele>
        <time>2021-08-19T17:04:38.507Z</time>
      </trkpt>
      <trkpt lat="41.61679" lon="35.60196">
        <ele>24.085582</ele>
        <time>2021-08-19T17:04:58.039Z</time>
      </trkpt>
      <trkpt lat="41.61683" lon="35.60113">
        <ele>24.012476</ele>
        <time>2021-08-19T17:05:16.709Z</time>
      </trkpt>
      <trkpt lat="41.61685" lon="35.60034">
        <ele>23.786732</ele>
        <time>2021-08-19T17:05:33.981Z</time>
      </trkpt>
      <trkpt lat="41.61688" lon="35.60006">
        <ele>23.677384</ele>
        <time>2021-08-19T17:05:39.748Z</time>
      </trkpt>
      <trkpt lat="41.61709" lon="35.59888">
        <ele>23.208262</ele>
        <time>2021-08-19T17:06:05.055Z</time>
      </trkpt>
      <trkpt lat="41.61736" lon="35.59771">
        <ele>23.490541</ele>
        <time>2021-08-19T17:06:33.069Z</time>
      </trkpt>
      <trkpt lat="41.61751" lon="35.59708">
        <ele>23.837937</ele>
        <time>2021-08-19T17:06:50.578Z</time>
      </trkpt>
      <trkpt lat="41.61798" lon="35.59453">
        <ele>25.865429</ele>
        <time>2021-08-19T17:08:08.032Z</time>
      </trkpt>
      <trkpt lat="41.61851" lon="35.59164">
        <ele>27.386675</ele>
        <time>2021-08-19T17:09:25.486Z</time>
      </trkpt>
      <trkpt lat="41.61871" lon="35.59024">
        <ele>27.102226</ele>
        <time>2021-08-19T17:09:57.427Z</time>
      </trkpt>
      <trkpt lat="41.61903" lon="35.58339">
        <ele>23.712389</ele>
        <time>2021-08-19T17:12:21.710Z</time>
      </trkpt>
      <trkpt lat="41.62022" lon="35.57213">
        <ele>16.824381</ele>
        <time>2021-08-19T17:16:16.343Z</time>
      </trkpt>
      <trkpt lat="41.62027" lon="35.57171">
        <ele>16.718517</ele>
        <time>2021-08-19T17:16:25.098Z</time>
      </trkpt>
      <trkpt lat="41.62058" lon="35.56951">
        <ele>16.444324</ele>
        <time>2021-08-19T17:17:16.257Z</time>
      </trkpt>
      <trkpt lat="41.62063" lon="35.56857">
        <ele>16.698895</ele>
        <time>2021-08-19T17:17:40.223Z</time>
      </trkpt>
      <trkpt lat="41.62158" lon="35.56266">
        <ele>18.641624</ele>
        <time>2021-08-19T17:20:14.408Z</time>
      </trkpt>
      <trkpt lat="41.62193" lon="35.56133">
        <ele>18.467243</ele>
        <time>2021-08-19T17:20:45.739Z</time>
      </trkpt>
      <trkpt lat="41.62381" lon="35.55577">
        <ele>17.025898</ele>
        <time>2021-08-19T17:22:58.733Z</time>
      </trkpt>
      <trkpt lat="41.62446" lon="35.55413">
        <ele>17.301709</ele>
        <time>2021-08-19T17:23:45.248Z</time>
      </trkpt>
      <trkpt lat="41.62448" lon="35.55409">
        <ele>17.313829</ele>
        <time>2021-08-19T17:23:46.592Z</time>
      </trkpt>
      <trkpt lat="41.62452" lon="35.55404">
        <ele>17.329458</ele>
        <time>2021-08-19T17:23:48.424Z</time>
      </trkpt>
      <trkpt lat="41.62454" lon="35.55398">
        <ele>17.345494</ele>
        <time>2021-08-19T17:23:50.182Z</time>
      </trkpt>
      <trkpt lat="41.62454" lon="35.55391">
        <ele>17.361454</ele>
        <time>2021-08-19T17:23:52.035Z</time>
      </trkpt>
      <trkpt lat="41.62498" lon="35.55252">
        <ele>17.707715</ele>
        <time>2021-08-19T17:24:30.057Z</time>
      </trkpt>
      <trkpt lat="41.6263" lon="35.54859">
        <ele>17.54266</ele>
        <time>2021-08-19T17:26:09.549Z</time>
      </trkpt>
      <trkpt lat="41.62681" lon="35.54723">
        <ele>17.311516</ele>
        <time>2021-08-19T17:26:42.193Z</time>
      </trkpt>
      <trkpt lat="41.6273" lon="35.54543">
        <ele>17.082085</ele>
        <time>2021-08-19T17:27:25.673Z</time>
      </trkpt>
      <trkpt lat="41.62794" lon="35.54312">
        <ele>17.880847</ele>
        <time>2021-08-19T17:28:28.838Z</time>
      </trkpt>
      <trkpt lat="41.62842" lon="35.5415">
        <ele>18.314979</ele>
        <time>2021-08-19T17:29:12.688Z</time>
      </trkpt>
      <trkpt lat="41.62962" lon="35.53822">
        <ele>18.412138</ele>
        <time>2021-08-19T17:30:37.822Z</time>
      </trkpt>
      <trkpt lat="41.62998" lon="35.53701">
        <ele>18.230745</ele>
        <time>2021-08-19T17:31:07.711Z</time>
      </trkpt>
      <trkpt lat="41.63034" lon="35.53557">
        <ele>17.392271</ele>
        <time>2021-08-19T17:31:39.981Z</time>
      </trkpt>
      <trkpt lat="41.6305" lon="35.5349">
        <ele>16.855968</ele>
        <time>2021-08-19T17:31:53.656Z</time>
      </trkpt>
      <trkpt lat="41.6309" lon="35.53318">
        <ele>15.433459</ele>
        <time>2021-08-19T17:32:28.683Z</time>
      </trkpt>
      <trkpt lat="41.631" lon="35.53268">
        <ele>15.021901</ele>
        <time>2021-08-19T17:32:39.145Z</time>
      </trkpt>
      <trkpt lat="41.63118" lon="35.53186">
        <ele>14.377849</ele>
        <time>2021-08-19T17:32:57.129Z</time>
      </trkpt>
      <trkpt lat="41.63146" lon="35.53047">
        <ele>14.055172</ele>
        <time>2021-08-19T17:33:28.635Z</time>
      </trkpt>
      <trkpt lat="41.63149" lon="35.53045">
        <ele>14.044555</ele>
        <time>2021-08-19T17:33:29.755Z</time>
      </trkpt>
      <trkpt lat="41.63152" lon="35.53042">
        <ele>14.033821</ele>
        <time>2021-08-19T17:33:30.861Z</time>
      </trkpt>
      <trkpt lat="41.63182" lon="35.53031">
        <ele>13.940764</ele>
        <time>2021-08-19T17:33:40.962Z</time>
      </trkpt>
      <trkpt lat="41.63205" lon="35.53028">
        <ele>13.871405</ele>
        <time>2021-08-19T17:33:48.189Z</time>
      </trkpt>
      <trkpt lat="41.63259" lon="35.5271">
        <ele>13.198079</ele>
        <time>2021-08-19T17:35:04.937Z</time>
      </trkpt>
      <trkpt lat="41.63276" lon="35.52611">
        <ele>12.794177</ele>
        <time>2021-08-19T17:35:27.596Z</time>
      </trkpt>
      <trkpt lat="41.63289" lon="35.5254">
        <ele>12.487016</ele>
        <time>2021-08-19T17:35:43.204Z</time>
      </trkpt>
      <trkpt lat="41.63371" lon="35.52122">
        <ele>10.219099</ele>
        <time>2021-08-19T17:37:17.242Z</time>
      </trkpt>
      <trkpt lat="41.63422" lon="35.52138">
        <ele>10.039062</ele>
        <time>2021-08-19T17:37:34.057Z</time>
      </trkpt>
      <trkpt lat="41.63439" lon="35.51982">
        <ele>10.033654</ele>
        <time>2021-08-19T17:38:13.046Z</time>
      </trkpt>
      <trkpt lat="41.63497" lon="35.5151">
        <ele>10.305857</ele>
        <time>2021-08-19T17:40:10.501Z</time>
      </trkpt>
      <trkpt lat="41.63498" lon="35.51504">
        <ele>10.310098</ele>
        <time>2021-08-19T17:40:12.044Z</time>
      </trkpt>
      <trkpt lat="41.63518" lon="35.5138">
        <ele>10.4142</ele>
        <time>2021-08-19T17:40:43.357Z</time>
      </trkpt>
      <trkpt lat="41.63561" lon="35.51089">
        <ele>10.974891</ele>
        <time>2021-08-19T17:41:57.462Z</time>
      </trkpt>
      <trkpt lat="41.63571" lon="35.50992">
        <ele>11.27541</ele>
        <time>2021-08-19T17:42:23.923Z</time>
      </trkpt>
      <trkpt lat="41.63582" lon="35.50875">
        <ele>12.119948</ele>
        <time>2021-08-19T17:42:57.162Z</time>
      </trkpt>
      <trkpt lat="41.63676" lon="35.50414">
        <ele>15.709805</ele>
        <time>2021-08-19T17:45:11.146Z</time>
      </trkpt>
      <trkpt lat="41.63705" lon="35.50282">
        <ele>16.444505</ele>
        <time>2021-08-19T17:45:46.753Z</time>
      </trkpt>
      <trkpt lat="41.63729" lon="35.50165">
        <ele>15.712465</ele>
        <time>2021-08-19T17:46:13.950Z</time>
      </trkpt>
      <trkpt lat="41.63765" lon="35.50045">
        <ele>14.819722</ele>
        <time>2021-08-19T17:46:39.070Z</time>
      </trkpt>
      <trkpt lat="41.63806" lon="35.49934">
        <ele>13.001408</ele>
        <time>2021-08-19T17:47:01.098Z</time>
      </trkpt>
      <trkpt lat="41.63869" lon="35.49796">
        <ele>11.562161</ele>
        <time>2021-08-19T17:47:31.509Z</time>
      </trkpt>
      <trkpt lat="41.63873" lon="35.49794">
        <ele>11.568436</ele>
        <time>2021-08-19T17:47:32.448Z</time>
      </trkpt>
      <trkpt lat="41.63876" lon="35.49791">
        <ele>11.574511</ele>
        <time>2021-08-19T17:47:33.470Z</time>
      </trkpt>
      <trkpt lat="41.63879" lon="35.49786">
        <ele>11.581776</ele>
        <time>2021-08-19T17:47:35.042Z</time>
      </trkpt>
      <trkpt lat="41.6388" lon="35.49779">
        <ele>11.58892</ele>
        <time>2021-08-19T17:47:36.620Z</time>
      </trkpt>
      <trkpt lat="41.6388" lon="35.49773">
        <ele>11.596082</ele>
        <time>2021-08-19T17:47:38.201Z</time>
      </trkpt>
      <trkpt lat="41.63962" lon="35.4959">
        <ele>12.347404</ele>
        <time>2021-08-19T17:48:37.533Z</time>
      </trkpt>
      <trkpt lat="41.63979" lon="35.49554">
        <ele>12.739096</ele>
        <time>2021-08-19T17:48:50.957Z</time>
      </trkpt>
      <trkpt lat="41.63992" lon="35.49528">
        <ele>13.030019</ele>
        <time>2021-08-19T17:49:00.542Z</time>
      </trkpt>
      <trkpt lat="41.64134" lon="35.49231">
        <ele>15.535711</ele>
        <time>2021-08-19T17:50:36.534Z</time>
      </trkpt>
      <trkpt lat="41.64184" lon="35.49101">
        <ele>15.697784</ele>
        <time>2021-08-19T17:51:11.818Z</time>
      </trkpt>
      <trkpt lat="41.64226" lon="35.48964">
        <ele>15.551012</ele>
        <time>2021-08-19T17:51:45.103Z</time>
      </trkpt>
      <trkpt lat="41.64468" lon="35.47882">
        <ele>11.276135</ele>
        <time>2021-08-19T17:55:46.338Z</time>
      </trkpt>
      <trkpt lat="41.64476" lon="35.47846">
        <ele>11.600356</ele>
        <time>2021-08-19T17:55:55.582Z</time>
      </trkpt>
      <trkpt lat="41.64479" lon="35.47842">
        <ele>11.684678</ele>
        <time>2021-08-19T17:55:56.997Z</time>
      </trkpt>
      <trkpt lat="41.6448" lon="35.47837">
        <ele>11.770194</ele>
        <time>2021-08-19T17:55:58.422Z</time>
      </trkpt>
      <trkpt lat="41.64492" lon="35.47763">
        <ele>12.945442</ele>
        <time>2021-08-19T17:56:19.935Z</time>
      </trkpt>
      <trkpt lat="41.64513" lon="35.4765">
        <ele>14.744203</ele>
        <time>2021-08-19T17:57:00.749Z</time>
      </trkpt>
      <trkpt lat="41.64527" lon="35.47576">
        <ele>17.116853</ele>
        <time>2021-08-19T17:57:32.408Z</time>
      </trkpt>
      <trkpt lat="41.64536" lon="35.47531">
        <ele>18.711654</ele>
        <time>2021-08-19T17:57:51.913Z</time>
      </trkpt>
      <trkpt lat="41.64582" lon="35.47316">
        <ele>25.732238</ele>
        <time>2021-08-19T17:59:31.864Z</time>
      </trkpt>
      <trkpt lat="41.64606" lon="35.47179">
        <ele>29.46114</ele>
        <time>2021-08-19T18:00:23.559Z</time>
      </trkpt>
      <trkpt lat="41.64665" lon="35.46992">
        <ele>29.897823</ele>
        <time>2021-08-19T18:01:15.403Z</time>
      </trkpt>
      <trkpt lat="41.6518" lon="35.45829">
        <ele>10.109303</ele>
        <time>2021-08-19T18:05:22.078Z</time>
      </trkpt>
      <trkpt lat="41.65253" lon="35.45699">
        <ele>8.987131</ele>
        <time>2021-08-19T18:05:55.985Z</time>
      </trkpt>
      <trkpt lat="41.65818" lon="35.44811">
        <ele>15.025035</ele>
        <time>2021-08-19T18:11:07.494Z</time>
      </trkpt>
      <trkpt lat="41.66157" lon="35.44322">
        <ele>8.998525</ele>
        <time>2021-08-19T18:13:16.814Z</time>
      </trkpt>
      <trkpt lat="41.66222" lon="35.44247">
        <ele>8.442902</ele>
        <time>2021-08-19T18:13:40.835Z</time>
      </trkpt>
      <trkpt lat="41.6625" lon="35.44215">
        <ele>8.476401</ele>
        <time>2021-08-19T18:13:51.714Z</time>
      </trkpt>
      <trkpt lat="41.66283" lon="35.44178">
        <ele>8.516087</ele>
        <time>2021-08-19T18:14:05.374Z</time>
      </trkpt>
      <trkpt lat="41.66394" lon="35.44018">
        <ele>9.434168</ele>
        <time>2021-08-19T18:15:03.788Z</time>
      </trkpt>
      <trkpt lat="41.66417" lon="35.4399">
        <ele>9.706885</ele>
        <time>2021-08-19T18:15:15.199Z</time>
      </trkpt>
      <trkpt lat="41.66455" lon="35.43938">
        <ele>10.154679</ele>
        <time>2021-08-19T18:15:35.433Z</time>
      </trkpt>
      <trkpt lat="41.66493" lon="35.43872">
        <ele>10.080496</ele>
        <time>2021-08-19T18:15:57.671Z</time>
      </trkpt>
      <trkpt lat="41.67275" lon="35.42331">
        <ele>8.076421</ele>
        <time>2021-08-19T18:22:58.441Z</time>
      </trkpt>
      <trkpt lat="41.67403" lon="35.42156">
        <ele>6.733341</ele>
        <time>2021-08-19T18:23:48.187Z</time>
      </trkpt>
      <trkpt lat="41.67594" lon="35.41999">
        <ele>6.537036</ele>
        <time>2021-08-19T18:24:55.281Z</time>
      </trkpt>
      <trkpt lat="41.67926" lon="35.41823">
        <ele>9.762426</ele>
        <time>2021-08-19T18:27:07.248Z</time>
      </trkpt>
      <trkpt lat="41.68001" lon="35.41787">
        <ele>10.649928</ele>
        <time>2021-08-19T18:27:39.153Z</time>
      </trkpt>
      <trkpt lat="41.68068" lon="35.41755">
        <ele>10.824787</ele>
        <time>2021-08-19T18:28:03.376Z</time>
      </trkpt>
      <trkpt lat="41.6812" lon="35.41725">
        <ele>10.428632</ele>
        <time>2021-08-19T18:28:20.516Z</time>
      </trkpt>
      <trkpt lat="41.68148" lon="35.41708">
        <ele>10.21114</ele>
        <time>2021-08-19T18:28:28.884Z</time>
      </trkpt>
      <trkpt lat="41.68169" lon="35.41696">
        <ele>10.058571</ele>
        <time>2021-08-19T18:28:34.546Z</time>
      </trkpt>
      <trkpt lat="41.68256" lon="35.416">
        <ele>8.432751</ele>
        <time>2021-08-19T18:29:02.271Z</time>
      </trkpt>
      <trkpt lat="41.68287" lon="35.41553">
        <ele>7.58717</ele>
        <time>2021-08-19T18:29:13.901Z</time>
      </trkpt>
      <trkpt lat="41.68317" lon="35.41498">
        <ele>6.683228</ele>
        <time>2021-08-19T18:29:26.850Z</time>
      </trkpt>
      <trkpt lat="41.6833" lon="35.41462">
        <ele>6.533137</ele>
        <time>2021-08-19T18:29:34.764Z</time>
      </trkpt>
      <trkpt lat="41.68346" lon="35.41414">
        <ele>6.448038</ele>
        <time>2021-08-19T18:29:45.331Z</time>
      </trkpt>
      <trkpt lat="41.68365" lon="35.4132">
        <ele>6.292466</ele>
        <time>2021-08-19T18:30:06.277Z</time>
      </trkpt>
      <trkpt lat="41.68381" lon="35.41233">
        <ele>7.129893</ele>
        <time>2021-08-19T18:30:31.738Z</time>
      </trkpt>
      <trkpt lat="41.68384" lon="35.41157">
        <ele>9.325109</ele>
        <time>2021-08-19T18:30:57.391Z</time>
      </trkpt>
      <trkpt lat="41.68411" lon="35.40686">
        <ele>25.853407</ele>
        <time>2021-08-19T18:34:37.170Z</time>
      </trkpt>
      <trkpt lat="41.68476" lon="35.39628">
        <ele>52.422193</ele>
        <time>2021-08-19T18:41:20.802Z</time>
      </trkpt>
      <trkpt lat="41.68502" lon="35.39462">
        <ele>46.586375</ele>
        <time>2021-08-19T18:41:48.458Z</time>
      </trkpt>
      <trkpt lat="41.68547" lon="35.39272">
        <ele>34.756654</ele>
        <time>2021-08-19T18:42:16.612Z</time>
      </trkpt>
      <trkpt lat="41.68601" lon="35.39146">
        <ele>24.419001</ele>
        <time>2021-08-19T18:42:37.286Z</time>
      </trkpt>
      <trkpt lat="41.68879" lon="35.38574">
        <ele>9.350318</ele>
        <time>2021-08-19T18:44:34.525Z</time>
      </trkpt>
      <trkpt lat="41.68905" lon="35.38482">
        <ele>10.055087</ele>
        <time>2021-08-19T18:45:12.107Z</time>
      </trkpt>
      <trkpt lat="41.68927" lon="35.38307">
        <ele>14.662147</ele>
        <time>2021-08-19T18:46:27.939Z</time>
      </trkpt>
      <trkpt lat="41.68961" lon="35.3763">
        <ele>19.801698</ele>
        <time>2021-08-19T18:49:31.723Z</time>
      </trkpt>
      <trkpt lat="41.68976" lon="35.37491">
        <ele>19.559019</ele>
        <time>2021-08-19T18:50:03.565Z</time>
      </trkpt>
      <trkpt lat="41.69006" lon="35.37384">
        <ele>18.808106</ele>
        <time>2021-08-19T18:50:27.009Z</time>
      </trkpt>
      <trkpt lat="41.6917" lon="35.36865">
        <ele>11.014642</ele>
        <time>2021-08-19T18:52:10.849Z</time>
      </trkpt>
      <trkpt lat="41.69278" lon="35.36559">
        <ele>7.78193</ele>
        <time>2021-08-19T18:53:16.679Z</time>
      </trkpt>
      <trkpt lat="41.69354" lon="35.36307">
        <ele>6.193208</ele>
        <time>2021-08-19T18:54:15.047Z</time>
      </trkpt>
      <trkpt lat="41.69495" lon="35.35619">
        <ele>1.385536</ele>
        <time>2021-08-19T18:56:39.599Z</time>
      </trkpt>
      <trkpt lat="41.69564" lon="35.35261">
        <ele>0.378729</ele>
        <time>2021-08-19T18:58:01.212Z</time>
      </trkpt>
      <trkpt lat="41.69629" lon="35.35046">
        <ele>0.678765</ele>
        <time>2021-08-19T18:58:57.036Z</time>
      </trkpt>
      <trkpt lat="41.69991" lon="35.3408">
        <ele>5.956541</ele>
        <time>2021-08-19T19:03:39.160Z</time>
      </trkpt>
      <trkpt lat="41.70058" lon="35.33867">
        <ele>6.83463</ele>
        <time>2021-08-19T19:04:38.571Z</time>
      </trkpt>
      <trkpt lat="41.70072" lon="35.33692">
        <ele>7.08918</ele>
        <time>2021-08-19T19:05:21.201Z</time>
      </trkpt>
      <trkpt lat="41.70075" lon="35.3341">
        <ele>6.843936</ele>
        <time>2021-08-19T19:06:24.264Z</time>
      </trkpt>
      <trkpt lat="41.70086" lon="35.33251">
        <ele>6.770999</ele>
        <time>2021-08-19T19:07:01.388Z</time>
      </trkpt>
      <trkpt lat="41.70108" lon="35.33071">
        <ele>6.968178</ele>
        <time>2021-08-19T19:07:45.956Z</time>
      </trkpt>
      <trkpt lat="41.7016" lon="35.32813">
        <ele>6.511747</ele>
        <time>2021-08-19T19:08:46.364Z</time>
      </trkpt>
      <trkpt lat="41.70227" lon="35.32448">
        <ele>4.852725</ele>
        <time>2021-08-19T19:10:02.237Z</time>
      </trkpt>
      <trkpt lat="41.70278" lon="35.32214">
        <ele>6.512134</ele>
        <time>2021-08-19T19:11:11.093Z</time>
      </trkpt>
      <trkpt lat="41.70372" lon="35.31895">
        <ele>11.775163</ele>
        <time>2021-08-19T19:13:03.789Z</time>
      </trkpt>
      <trkpt lat="41.70449" lon="35.31554">
        <ele>15.61171</ele>
        <time>2021-08-19T19:14:53.343Z</time>
      </trkpt>
      <trkpt lat="41.70489" lon="35.31218">
        <ele>15.110041</ele>
        <time>2021-08-19T19:16:07.287Z</time>
      </trkpt>
      <trkpt lat="41.7053" lon="35.30944">
        <ele>11.901984</ele>
        <time>2021-08-19T19:16:59.761Z</time>
      </trkpt>
      <trkpt lat="41.7057" lon="35.30796">
        <ele>10.477542</ele>
        <time>2021-08-19T19:17:29.870Z</time>
      </trkpt>
      <trkpt lat="41.70636" lon="35.30656">
        <ele>10.24412</ele>
        <time>2021-08-19T19:18:06.125Z</time>
      </trkpt>
      <trkpt lat="41.70703" lon="35.30497">
        <ele>11.231539</ele>
        <time>2021-08-19T19:18:57.624Z</time>
      </trkpt>
      <trkpt lat="41.70738" lon="35.30395">
        <ele>12.406149</ele>
        <time>2021-08-19T19:19:32.235Z</time>
      </trkpt>
      <trkpt lat="41.70775" lon="35.30251">
        <ele>13.523664</ele>
        <time>2021-08-19T19:20:15.677Z</time>
      </trkpt>
      <trkpt lat="41.70831" lon="35.29993">
        <ele>13.957393</ele>
        <time>2021-08-19T19:21:18.064Z</time>
      </trkpt>
      <trkpt lat="41.70917" lon="35.29605">
        <ele>13.893862</ele>
        <time>2021-08-19T19:22:50.869Z</time>
      </trkpt>
      <trkpt lat="41.70921" lon="35.29602">
        <ele>13.929694</ele>
        <time>2021-08-19T19:22:51.983Z</time>
      </trkpt>
      <trkpt lat="41.70926" lon="35.29586">
        <ele>14.045462</ele>
        <time>2021-08-19T19:22:56.573Z</time>
      </trkpt>
      <trkpt lat="41.70925" lon="35.29579">
        <ele>14.086931</ele>
        <time>2021-08-19T19:22:57.989Z</time>
      </trkpt>
      <trkpt lat="41.71174" lon="35.28844">
        <ele>18.667747</ele>
        <time>2021-08-19T19:26:37.198Z</time>
      </trkpt>
      <trkpt lat="41.71384" lon="35.28115">
        <ele>16.810632</ele>
        <time>2021-08-19T19:29:25.589Z</time>
      </trkpt>
      <trkpt lat="41.71451" lon="35.27912">
        <ele>16.887736</ele>
        <time>2021-08-19T19:30:20.742Z</time>
      </trkpt>
      <trkpt lat="41.71567" lon="35.27621">
        <ele>16.252394</ele>
        <time>2021-08-19T19:31:34.833Z</time>
      </trkpt>
      <trkpt lat="41.71651" lon="35.27493">
        <ele>14.510244</ele>
        <time>2021-08-19T19:32:07.780Z</time>
      </trkpt>
      <trkpt lat="41.71703" lon="35.2743">
        <ele>13.570662</ele>
        <time>2021-08-19T19:32:25.179Z</time>
      </trkpt>
      <trkpt lat="41.71771" lon="35.27366">
        <ele>12.449169</ele>
        <time>2021-08-19T19:32:46.584Z</time>
      </trkpt>
      <trkpt lat="41.71919" lon="35.27247">
        <ele>10.573909</ele>
        <time>2021-08-19T19:33:33.497Z</time>
      </trkpt>
      <trkpt lat="41.7207" lon="35.27082">
        <ele>8.560231</ele>
        <time>2021-08-19T19:34:27.259Z</time>
      </trkpt>
      <trkpt lat="41.72249" lon="35.26824">
        <ele>4.648613</ele>
        <time>2021-08-19T19:35:33.955Z</time>
      </trkpt>
      <trkpt lat="41.72381" lon="35.26675">
        <ele>2.299742</ele>
        <time>2021-08-19T19:36:18.086Z</time>
      </trkpt>
      <trkpt lat="41.72757" lon="35.26371">
        <ele>3.064272</ele>
        <time>2021-08-19T19:38:29.679Z</time>
      </trkpt>
      <trkpt lat="41.72875" lon="35.2628">
        <ele>8.213667</ele>
        <time>2021-08-19T19:39:44.909Z</time>
      </trkpt>
      <trkpt lat="41.72898" lon="35.26263">
        <ele>9.971512</ele>
        <time>2021-08-19T19:40:03.797Z</time>
      </trkpt>
      <trkpt lat="41.73087" lon="35.26133">
        <ele>23.549023</ele>
        <time>2021-08-19T19:42:45.195Z</time>
      </trkpt>
      <trkpt lat="41.73567" lon="35.25773">
        <ele>42.059741</ele>
        <time>2021-08-19T19:47:09.303Z</time>
      </trkpt>
      <trkpt lat="41.73809" lon="35.25626">
        <ele>47.902271</ele>
        <time>2021-08-19T19:49:08.664Z</time>
      </trkpt>
      <trkpt lat="41.74227" lon="35.25301">
        <ele>43.760321</ele>
        <time>2021-08-19T19:51:35.022Z</time>
      </trkpt>
      <trkpt lat="41.74294" lon="35.25245">
        <ele>37.080331</ele>
        <time>2021-08-19T19:51:49.644Z</time>
      </trkpt>
      <trkpt lat="41.74344" lon="35.2518">
        <ele>28.965169</ele>
        <time>2021-08-19T19:52:02.275Z</time>
      </trkpt>
      <trkpt lat="41.74399" lon="35.25096">
        <ele>21.0115</ele>
        <time>2021-08-19T19:52:17.932Z</time>
      </trkpt>
      <trkpt lat="41.74673" lon="35.24509">
        <ele>6.513953</ele>
        <time>2021-08-19T19:54:23.227Z</time>
      </trkpt>
      <trkpt lat="41.748" lon="35.24269">
        <ele>3.72901</ele>
        <time>2021-08-19T19:55:21.153Z</time>
      </trkpt>
      <trkpt lat="41.74863" lon="35.24182">
        <ele>3.064672</ele>
        <time>2021-08-19T19:55:45.314Z</time>
      </trkpt>
      <trkpt lat="41.74889" lon="35.24148">
        <ele>2.794387</ele>
        <time>2021-08-19T19:55:56.137Z</time>
      </trkpt>
      <trkpt lat="41.74893" lon="35.24143">
        <ele>2.75825</ele>
        <time>2021-08-19T19:55:57.640Z</time>
      </trkpt>
      <trkpt lat="41.7496" lon="35.24061">
        <ele>4.051964</ele>
        <time>2021-08-19T19:56:29.231Z</time>
      </trkpt>
      <trkpt lat="41.75047" lon="35.23922">
        <ele>6.667008</ele>
        <time>2021-08-19T19:57:31.917Z</time>
      </trkpt>
      <trkpt lat="41.75084" lon="35.23839">
        <ele>8.602361</ele>
        <time>2021-08-19T19:58:05.980Z</time>
      </trkpt>
      <trkpt lat="41.7512" lon="35.23742">
        <ele>10.726318</ele>
        <time>2021-08-19T19:58:42.600Z</time>
      </trkpt>
      <trkpt lat="41.75158" lon="35.23631">
        <ele>13.140596</ele>
        <time>2021-08-19T19:59:22.378Z</time>
      </trkpt>
      <trkpt lat="41.75189" lon="35.23513">
        <ele>15.702872</ele>
        <time>2021-08-19T20:00:06.941Z</time>
      </trkpt>
      <trkpt lat="41.75198" lon="35.23476">
        <ele>16.669177</ele>
        <time>2021-08-19T20:00:21.563Z</time>
      </trkpt>
      <trkpt lat="41.75213" lon="35.23435">
        <ele>17.822644</ele>
        <time>2021-08-19T20:00:38.823Z</time>
      </trkpt>
      <trkpt lat="41.75237" lon="35.23365">
        <ele>19.729331</ele>
        <time>2021-08-19T20:01:07.292Z</time>
      </trkpt>
      <trkpt lat="41.7527" lon="35.23239">
        <ele>22.002762</ele>
        <time>2021-08-19T20:01:58.953Z</time>
      </trkpt>
      <trkpt lat="41.75291" lon="35.23158">
        <ele>22.932788</ele>
        <time>2021-08-19T20:02:25.136Z</time>
      </trkpt>
      <trkpt lat="41.75295" lon="35.2314">
        <ele>23.139035</ele>
        <time>2021-08-19T20:02:30.252Z</time>
      </trkpt>
      <trkpt lat="41.75304" lon="35.23104">
        <ele>23.553751</ele>
        <time>2021-08-19T20:02:38.172Z</time>
      </trkpt>
      <trkpt lat="41.7532" lon="35.23027">
        <ele>22.690832</ele>
        <time>2021-08-19T20:02:54.106Z</time>
      </trkpt>
      <trkpt lat="41.75324" lon="35.23014">
        <ele>22.402045</ele>
        <time>2021-08-19T20:02:56.330Z</time>
      </trkpt>
      <trkpt lat="41.75334" lon="35.22986">
        <ele>21.777141</ele>
        <time>2021-08-19T20:03:02.407Z</time>
      </trkpt>
      <trkpt lat="41.75364" lon="35.22921">
        <ele>20.242362</ele>
        <time>2021-08-19T20:03:15.112Z</time>
      </trkpt>
      <trkpt lat="41.75405" lon="35.22848">
        <ele>18.599573</ele>
        <time>2021-08-19T20:03:30.041Z</time>
      </trkpt>
      <trkpt lat="41.75472" lon="35.2274">
        <ele>16.791351</ele>
        <time>2021-08-19T20:03:55.228Z</time>
      </trkpt>
      <trkpt lat="41.75529" lon="35.22646">
        <ele>16.35309</ele>
        <time>2021-08-19T20:04:25.309Z</time>
      </trkpt>
      <trkpt lat="41.75732" lon="35.2231">
        <ele>21.232429</ele>
        <time>2021-08-19T20:06:38.704Z</time>
      </trkpt>
      <trkpt lat="41.75764" lon="35.22245">
        <ele>21.164041</ele>
        <time>2021-08-19T20:06:57.709Z</time>
      </trkpt>
      <trkpt lat="41.75877" lon="35.21993">
        <ele>20.535208</ele>
        <time>2021-08-19T20:07:59.263Z</time>
      </trkpt>
      <trkpt lat="41.76183" lon="35.21461">
        <ele>19.478614</ele>
        <time>2021-08-19T20:10:31.555Z</time>
      </trkpt>
      <trkpt lat="41.76223" lon="35.21403">
        <ele>19.363783</ele>
        <time>2021-08-19T20:10:49.239Z</time>
      </trkpt>
      <trkpt lat="41.76436" lon="35.21161">
        <ele>18.250527</ele>
        <time>2021-08-19T20:12:12.724Z</time>
      </trkpt>
      <trkpt lat="41.7655" lon="35.21007">
        <ele>15.863822</ele>
        <time>2021-08-19T20:12:54.864Z</time>
      </trkpt>
      <trkpt lat="41.76618" lon="35.20936">
        <ele>13.1259</ele>
        <time>2021-08-19T20:13:14.282Z</time>
      </trkpt>
      <trkpt lat="41.76736" lon="35.20855">
        <ele>9.563896</ele>
        <time>2021-08-19T20:13:43.587Z</time>
      </trkpt>
      <trkpt lat="41.76919" lon="35.2078">
        <ele>7.235041</ele>
        <time>2021-08-19T20:14:34.398Z</time>
      </trkpt>
      <trkpt lat="41.77032" lon="35.20724">
        <ele>7.564041</ele>
        <time>2021-08-19T20:15:20.266Z</time>
      </trkpt>
      <trkpt lat="41.77116" lon="35.20664">
        <ele>7.904641</ele>
        <time>2021-08-19T20:15:54.932Z</time>
      </trkpt>
      <trkpt lat="41.7717" lon="35.20616">
        <ele>8.138102</ele>
        <time>2021-08-19T20:16:14.279Z</time>
      </trkpt>
      <trkpt lat="41.77247" lon="35.20533">
        <ele>7.038051</ele>
        <time>2021-08-19T20:16:40.318Z</time>
      </trkpt>
      <trkpt lat="41.77294" lon="35.20479">
        <ele>6.226615</ele>
        <time>2021-08-19T20:16:56.164Z</time>
      </trkpt>
      <trkpt lat="41.77299" lon="35.20478">
        <ele>6.157708</ele>
        <time>2021-08-19T20:16:57.524Z</time>
      </trkpt>
      <trkpt lat="41.77307" lon="35.20469">
        <ele>6.021287</ele>
        <time>2021-08-19T20:17:00.175Z</time>
      </trkpt>
      <trkpt lat="41.77309" lon="35.20462">
        <ele>5.952554</ele>
        <time>2021-08-19T20:17:01.548Z</time>
      </trkpt>
      <trkpt lat="41.77344" lon="35.20431">
        <ele>5.340224</ele>
        <time>2021-08-19T20:17:12.247Z</time>
      </trkpt>
      <trkpt lat="41.77438" lon="35.20357">
        <ele>3.716869</ele>
        <time>2021-08-19T20:17:40.130Z</time>
      </trkpt>
      <trkpt lat="41.77522" lon="35.20317">
        <ele>2.779287</ele>
        <time>2021-08-19T20:18:03.222Z</time>
      </trkpt>
      <trkpt lat="41.7757" lon="35.20304">
        <ele>2.411571</ele>
        <time>2021-08-19T20:18:16.493Z</time>
      </trkpt>
      <trkpt lat="41.77945" lon="35.2025">
        <ele>2.312392</ele>
        <time>2021-08-19T20:20:11.706Z</time>
      </trkpt>
      <trkpt lat="41.78028" lon="35.20225">
        <ele>3.197492</ele>
        <time>2021-08-19T20:20:46.063Z</time>
      </trkpt>
      <trkpt lat="41.78108" lon="35.20185">
        <ele>5.143261</ele>
        <time>2021-08-19T20:21:24.481Z</time>
      </trkpt>
      <trkpt lat="41.78204" lon="35.20118">
        <ele>7.416192</ele>
        <time>2021-08-19T20:22:12.973Z</time>
      </trkpt>
      <trkpt lat="41.78283" lon="35.20042">
        <ele>9.133258</ele>
        <time>2021-08-19T20:22:52.447Z</time>
      </trkpt>
      <trkpt lat="41.78331" lon="35.19981">
        <ele>10.34763</ele>
        <time>2021-08-19T20:23:17.765Z</time>
      </trkpt>
      <trkpt lat="41.78424" lon="35.1983">
        <ele>13.159393</ele>
        <time>2021-08-19T20:24:14.965Z</time>
      </trkpt>
      <trkpt lat="41.78545" lon="35.19634">
        <ele>22.079025</ele>
        <time>2021-08-19T20:26:02.488Z</time>
      </trkpt>
      <trkpt lat="41.78632" lon="35.19483">
        <ele>35.180697</ele>
        <time>2021-08-19T20:28:02.001Z</time>
      </trkpt>
      <trkpt lat="41.78691" lon="35.1939">
        <ele>44.237424</ele>
        <time>2021-08-19T20:29:27.824Z</time>
      </trkpt>
      <trkpt lat="41.7874" lon="35.1932">
        <ele>51.805383</ele>
        <time>2021-08-19T20:30:32.673Z</time>
      </trkpt>
      <trkpt lat="41.78813" lon="35.19227">
        <ele>61.798815</ele>
        <time>2021-08-19T20:32:00.595Z</time>
      </trkpt>
      <trkpt lat="41.78866" lon="35.19167">
        <ele>68.194778</ele>
        <time>2021-08-19T20:33:01.542Z</time>
      </trkpt>
      <trkpt lat="41.79056" lon="35.18987">
        <ele>86.421494</ele>
        <time>2021-08-19T20:36:01.883Z</time>
      </trkpt>
      <trkpt lat="41.79201" lon="35.18855">
        <ele>93.543076</ele>
        <time>2021-08-19T20:37:30.830Z</time>
      </trkpt>
      <trkpt lat="41.79337" lon="35.18743">
        <ele>97.944542</ele>
        <time>2021-08-19T20:38:43.993Z</time>
      </trkpt>
      <trkpt lat="41.79389" lon="35.18701">
        <ele>99.334382</ele>
        <time>2021-08-19T20:39:12.397Z</time>
      </trkpt>
      <trkpt lat="41.79646" lon="35.18443">
        <ele>103.060175</ele>
        <time>2021-08-19T20:41:17.174Z</time>
      </trkpt>
      <trkpt lat="41.79866" lon="35.18188">
        <ele>99.530642</ele>
        <time>2021-08-19T20:42:26.402Z</time>
      </trkpt>
      <trkpt lat="41.79901" lon="35.18156">
        <ele>99.647081</ele>
        <time>2021-08-19T20:42:40.324Z</time>
      </trkpt>
      <trkpt lat="41.80121" lon="35.17921">
        <ele>111.350285</ele>
        <time>2021-08-19T20:45:28.097Z</time>
      </trkpt>
      <trkpt lat="41.80178" lon="35.17853">
        <ele>114.980068</ele>
        <time>2021-08-19T20:46:17.091Z</time>
      </trkpt>
      <trkpt lat="41.8021" lon="35.17816">
        <ele>117.015168</ele>
        <time>2021-08-19T20:46:41.882Z</time>
      </trkpt>
      <trkpt lat="41.80307" lon="35.17683">
        <ele>117.072791</ele>
        <time>2021-08-19T20:47:32.653Z</time>
      </trkpt>
      <trkpt lat="41.8032" lon="35.1766">
        <ele>117.043111</ele>
        <time>2021-08-19T20:47:37.684Z</time>
      </trkpt>
      <trkpt lat="41.8046" lon="35.17488">
        <ele>108.185454</ele>
        <time>2021-08-19T20:48:17.666Z</time>
      </trkpt>
      <trkpt lat="41.8047" lon="35.17489">
        <ele>107.682383</ele>
        <time>2021-08-19T20:48:19.516Z</time>
      </trkpt>
      <trkpt lat="41.80478" lon="35.17491">
        <ele>107.146146</ele>
        <time>2021-08-19T20:48:21.267Z</time>
      </trkpt>
      <trkpt lat="41.80487" lon="35.17495">
        <ele>106.434459</ele>
        <time>2021-08-19T20:48:23.092Z</time>
      </trkpt>
      <trkpt lat="41.80508" lon="35.17515">
        <ele>104.425465</ele>
        <time>2021-08-19T20:48:28.221Z</time>
      </trkpt>
      <trkpt lat="41.80564" lon="35.17542">
        <ele>99.787935</ele>
        <time>2021-08-19T20:48:39.965Z</time>
      </trkpt>
      <trkpt lat="41.80594" lon="35.17557">
        <ele>97.366362</ele>
        <time>2021-08-19T20:48:46.087Z</time>
      </trkpt>
      <trkpt lat="41.80621" lon="35.17579">
        <ele>94.869897</ele>
        <time>2021-08-19T20:48:52.332Z</time>
      </trkpt>
      <trkpt lat="41.80655" lon="35.17606">
        <ele>92.232949</ele>
        <time>2021-08-19T20:49:00.008Z</time>
      </trkpt>
      <trkpt lat="41.8067" lon="35.17621">
        <ele>91.123451</ele>
        <time>2021-08-19T20:49:03.760Z</time>
      </trkpt>
      <trkpt lat="41.80684" lon="35.17632">
        <ele>90.150069</ele>
        <time>2021-08-19T20:49:07.061Z</time>
      </trkpt>
      <trkpt lat="41.80707" lon="35.17651">
        <ele>88.597583</ele>
        <time>2021-08-19T20:49:12.375Z</time>
      </trkpt>
      <trkpt lat="41.80729" lon="35.17675">
        <ele>86.909825</ele>
        <time>2021-08-19T20:49:18.283Z</time>
      </trkpt>
      <trkpt lat="41.80734" lon="35.17673">
        <ele>86.651745</ele>
        <time>2021-08-19T20:49:19.175Z</time>
      </trkpt>
      <trkpt lat="41.80813" lon="35.17703">
        <ele>82.620435</ele>
        <time>2021-08-19T20:49:37.839Z</time>
      </trkpt>
      <trkpt lat="41.80856" lon="35.17709">
        <ele>82.042998</ele>
        <time>2021-08-19T20:49:48.966Z</time>
      </trkpt>
      <trkpt lat="41.80902" lon="35.17679">
        <ele>81.36786</ele>
        <time>2021-08-19T20:50:04.215Z</time>
      </trkpt>
      <trkpt lat="41.80926" lon="35.17656">
        <ele>80.987403</ele>
        <time>2021-08-19T20:50:12.802Z</time>
      </trkpt>
      <trkpt lat="41.80925" lon="35.17644">
        <ele>80.862754</ele>
        <time>2021-08-19T20:50:17.002Z</time>
      </trkpt>
      <trkpt lat="41.80914" lon="35.1759">
        <ele>80.474231</ele>
        <time>2021-08-19T20:50:30.587Z</time>
      </trkpt>
      <trkpt lat="41.80914" lon="35.17568">
        <ele>80.461216</ele>
        <time>2021-08-19T20:50:35.631Z</time>
      </trkpt>
      <trkpt lat="41.80922" lon="35.17541">
        <ele>80.444761</ele>
        <time>2021-08-19T20:50:43.406Z</time>
      </trkpt>
      <trkpt lat="41.80949" lon="35.17492">
        <ele>80.409276</ele>
        <time>2021-08-19T20:50:58.413Z</time>
      </trkpt>
      <trkpt lat="41.80965" lon="35.17479">
        <ele>80.395019</ele>
        <time>2021-08-19T20:51:05.179Z</time>
      </trkpt>
      <trkpt lat="41.80991" lon="35.1747">
        <ele>80.373462</ele>
        <time>2021-08-19T20:51:13.963Z</time>
      </trkpt>
      <trkpt lat="41.81054" lon="35.17472">
        <ele>80.355887</ele>
        <time>2021-08-19T20:51:31.986Z</time>
      </trkpt>
      <trkpt lat="41.81099" lon="35.17493">
        <ele>80.377585</ele>
        <time>2021-08-19T20:51:45.728Z</time>
      </trkpt>
      <trkpt lat="41.81155" lon="35.17541">
        <ele>80.408506</ele>
        <time>2021-08-19T20:52:06.773Z</time>
      </trkpt>
      <trkpt lat="41.81174" lon="35.17556">
        <ele>80.418415</ele>
        <time>2021-08-19T20:52:13.693Z</time>
      </trkpt>
      <trkpt lat="41.8127" lon="35.1736">
        <ele>83.560524</ele>
        <time>2021-08-19T20:53:29.394Z</time>
      </trkpt>
      <trkpt lat="41.81302" lon="35.173">
        <ele>84.130981</ele>
        <time>2021-08-19T20:53:55.874Z</time>
      </trkpt>
      <trkpt lat="41.8137" lon="35.17177">
        <ele>84.41863</ele>
        <time>2021-08-19T20:54:33.748Z</time>
      </trkpt>
      <trkpt lat="41.81412" lon="35.17209">
        <ele>83.93207</ele>
        <time>2021-08-19T20:54:46.522Z</time>
      </trkpt>
      <trkpt lat="41.81482" lon="35.17225">
        <ele>80.885295</ele>
        <time>2021-08-19T20:55:03.322Z</time>
      </trkpt>
      <trkpt lat="41.81546" lon="35.17194">
        <ele>77.951521</ele>
        <time>2021-08-19T20:55:18.335Z</time>
      </trkpt>
      <trkpt lat="41.81562" lon="35.17171">
        <ele>76.956514</ele>
        <time>2021-08-19T20:55:23.340Z</time>
      </trkpt>
      <trkpt lat="41.81616" lon="35.17131">
        <ele>71.733777</ele>
        <time>2021-08-19T20:55:36.497Z</time>
      </trkpt>
      <trkpt lat="41.81647" lon="35.17073">
        <ele>67.191234</ele>
        <time>2021-08-19T20:55:47.251Z</time>
      </trkpt>
      <trkpt lat="41.8167" lon="35.1705">
        <ele>64.68156</ele>
        <time>2021-08-19T20:55:53.031Z</time>
      </trkpt>
      <trkpt lat="41.81756" lon="35.17038">
        <ele>55.733382</ele>
        <time>2021-08-19T20:56:09.911Z</time>
      </trkpt>
      <trkpt lat="41.81839" lon="35.17065">
        <ele>45.520235</ele>
        <time>2021-08-19T20:56:26.521Z</time>
      </trkpt>
      <trkpt lat="41.81889" lon="35.17122">
        <ele>38.065151</ele>
        <time>2021-08-19T20:56:39.289Z</time>
      </trkpt>
      <trkpt lat="41.81938" lon="35.1715">
        <ele>32.828632</ele>
        <time>2021-08-19T20:56:49.785Z</time>
      </trkpt>
      <trkpt lat="41.81994" lon="35.17161">
        <ele>27.385353</ele>
        <time>2021-08-19T20:57:01.045Z</time>
      </trkpt>
      <trkpt lat="41.81998" lon="35.17162">
        <ele>26.964779</ele>
        <time>2021-08-19T20:57:01.856Z</time>
      </trkpt>
      <trkpt lat="41.82059" lon="35.17169">
        <ele>21.581165</ele>
        <time>2021-08-19T20:57:14.140Z</time>
      </trkpt>
      <trkpt lat="41.82103" lon="35.17157">
        <ele>19.40155</ele>
        <time>2021-08-19T20:57:23.107Z</time>
      </trkpt>
      <trkpt lat="41.82163" lon="35.17118">
        <ele>16.109674</ele>
        <time>2021-08-19T20:57:37.143Z</time>
      </trkpt>
      <trkpt lat="41.82293" lon="35.16952">
        <ele>11.240993</ele>
        <time>2021-08-19T20:58:20.199Z</time>
      </trkpt>
      <trkpt lat="41.82324" lon="35.16911">
        <ele>10.501351</ele>
        <time>2021-08-19T20:58:32.715Z</time>
      </trkpt>
      <trkpt lat="41.82357" lon="35.1687">
        <ele>10.403115</ele>
        <time>2021-08-19T20:58:46.623Z</time>
      </trkpt>
      <trkpt lat="41.82375" lon="35.16846">
        <ele>10.495884</ele>
        <time>2021-08-19T20:58:54.751Z</time>
      </trkpt>
      <trkpt lat="41.82416" lon="35.16792">
        <ele>10.708548</ele>
        <time>2021-08-19T20:59:20.601Z</time>
      </trkpt>
      <trkpt lat="41.82427" lon="35.16776">
        <ele>10.76727</ele>
        <time>2021-08-19T20:59:27.684Z</time>
      </trkpt>
      <trkpt lat="41.82494" lon="35.16685">
        <ele>11.207394</ele>
        <time>2021-08-19T21:00:00.734Z</time>
      </trkpt>
      <trkpt lat="41.826" lon="35.16565">
        <ele>11.979625</ele>
        <time>2021-08-19T21:00:47.441Z</time>
      </trkpt>
      <trkpt lat="41.82616" lon="35.16542">
        <ele>12.143254</ele>
        <time>2021-08-19T21:00:55.967Z</time>
      </trkpt>
      <trkpt lat="41.82716" lon="35.16412">
        <ele>13.111761</ele>
        <time>2021-08-19T21:01:46.177Z</time>
      </trkpt>
      <trkpt lat="41.82929" lon="35.16143">
        <ele>13.342644</ele>
        <time>2021-08-19T21:03:19.224Z</time>
      </trkpt>
      <trkpt lat="41.83001" lon="35.16061">
        <ele>13.064868</ele>
        <time>2021-08-19T21:03:46.165Z</time>
      </trkpt>
      <trkpt lat="41.83061" lon="35.16002">
        <ele>12.560762</ele>
        <time>2021-08-19T21:04:06.660Z</time>
      </trkpt>
      <trkpt lat="41.83234" lon="35.15873">
        <ele>11.543508</ele>
        <time>2021-08-19T21:05:02.700Z</time>
      </trkpt>
      <trkpt lat="41.83407" lon="35.15736">
        <ele>11.23705</ele>
        <time>2021-08-19T21:06:04.824Z</time>
      </trkpt>
      <trkpt lat="41.83464" lon="35.15688">
        <ele>11.29681</ele>
        <time>2021-08-19T21:06:25.234Z</time>
      </trkpt>
      <trkpt lat="41.83724" lon="35.15464">
        <ele>12.989187</ele>
        <time>2021-08-19T21:08:11.105Z</time>
      </trkpt>
      <trkpt lat="41.83824" lon="35.15378">
        <ele>14.438127</ele>
        <time>2021-08-19T21:08:55.348Z</time>
      </trkpt>
      <trkpt lat="41.83859" lon="35.1534">
        <ele>15.087024</ele>
        <time>2021-08-19T21:09:13.105Z</time>
      </trkpt>
      <trkpt lat="41.83902" lon="35.1528">
        <ele>16.180259</ele>
        <time>2021-08-19T21:09:38.785Z</time>
      </trkpt>
      <trkpt lat="41.83931" lon="35.15227">
        <ele>17.725679</ele>
        <time>2021-08-19T21:10:00.360Z</time>
      </trkpt>
      <trkpt lat="41.83986" lon="35.1509">
        <ele>21.367718</ele>
        <time>2021-08-19T21:10:59.559Z</time>
      </trkpt>
      <trkpt lat="41.84008" lon="35.1501">
        <ele>24.461194</ele>
        <time>2021-08-19T21:11:35.408Z</time>
      </trkpt>
      <trkpt lat="41.84016" lon="35.1498">
        <ele>25.630864</ele>
        <time>2021-08-19T21:11:49.371Z</time>
      </trkpt>
      <trkpt lat="41.84037" lon="35.14936">
        <ele>27.525148</ele>
        <time>2021-08-19T21:12:11.873Z</time>
      </trkpt>
      <trkpt lat="41.84068" lon="35.14861">
        <ele>30.772766</ele>
        <time>2021-08-19T21:12:51.925Z</time>
      </trkpt>
      <trkpt lat="41.84093" lon="35.14785">
        <ele>34.299139</ele>
        <time>2021-08-19T21:13:32.349Z</time>
      </trkpt>
      <trkpt lat="41.84119" lon="35.14694">
        <ele>38.479809</ele>
        <time>2021-08-19T21:14:18.292Z</time>
      </trkpt>
      <trkpt lat="41.84145" lon="35.14612">
        <ele>42.086888</ele>
        <time>2021-08-19T21:14:59.876Z</time>
      </trkpt>
      <trkpt lat="41.84196" lon="35.1447">
        <ele>48.140375</ele>
        <time>2021-08-19T21:16:11.995Z</time>
      </trkpt>
      <trkpt lat="41.84206" lon="35.14432">
        <ele>49.660149</ele>
        <time>2021-08-19T21:16:28.650Z</time>
      </trkpt>
      <trkpt lat="41.84232" lon="35.14331">
        <ele>52.683356</ele>
        <time>2021-08-19T21:17:10.923Z</time>
      </trkpt>
      <trkpt lat="41.84287" lon="35.1418">
        <ele>57.310137</ele>
        <time>2021-08-19T21:18:14.302Z</time>
      </trkpt>
      <trkpt lat="41.84369" lon="35.14003">
        <ele>62.748487</ele>
        <time>2021-08-19T21:19:32.356Z</time>
      </trkpt>
      <trkpt lat="41.84483" lon="35.13801">
        <ele>70.273676</ele>
        <time>2021-08-19T21:21:13.598Z</time>
      </trkpt>
      <trkpt lat="41.84562" lon="35.13639">
        <ele>76.510117</ele>
        <time>2021-08-19T21:22:33.529Z</time>
      </trkpt>
      <trkpt lat="41.846" lon="35.13545">
        <ele>80.384914</ele>
        <time>2021-08-19T21:23:18.658Z</time>
      </trkpt>
      <trkpt lat="41.84642" lon="35.13423">
        <ele>85.564309</ele>
        <time>2021-08-19T21:24:19.242Z</time>
      </trkpt>
      <trkpt lat="41.84668" lon="35.13343">
        <ele>89.504321</ele>
        <time>2021-08-19T21:25:00.412Z</time>
      </trkpt>
      <trkpt lat="41.84693" lon="35.13268">
        <ele>93.68475</ele>
        <time>2021-08-19T21:25:41.853Z</time>
      </trkpt>
      <trkpt lat="41.84719" lon="35.13185">
        <ele>98.275921</ele>
        <time>2021-08-19T21:26:30.404Z</time>
      </trkpt>
      <trkpt lat="41.84722" lon="35.13175">
        <ele>98.814864</ele>
        <time>2021-08-19T21:26:37.640Z</time>
      </trkpt>
      <trkpt lat="41.84731" lon="35.13143">
        <ele>100.840464</ele>
        <time>2021-08-19T21:26:55.853Z</time>
      </trkpt>
      <trkpt lat="41.8477" lon="35.13005">
        <ele>110.131965</ele>
        <time>2021-08-19T21:28:21.120Z</time>
      </trkpt>
      <trkpt lat="41.84935" lon="35.12491">
        <ele>148.370925</ele>
        <time>2021-08-19T21:34:06.405Z</time>
      </trkpt>
      <trkpt lat="41.84959" lon="35.12436">
        <ele>153.191687</ele>
        <time>2021-08-19T21:34:49.317Z</time>
      </trkpt>
      <trkpt lat="41.84996" lon="35.12356">
        <ele>160.401116</ele>
        <time>2021-08-19T21:35:53.399Z</time>
      </trkpt>
      <trkpt lat="41.85075" lon="35.12209">
        <ele>172.41651</ele>
        <time>2021-08-19T21:37:51.487Z</time>
      </trkpt>
      <trkpt lat="41.85185" lon="35.12003">
        <ele>182.536106</ele>
        <time>2021-08-19T21:39:56.052Z</time>
      </trkpt>
      <trkpt lat="41.85229" lon="35.11923">
        <ele>184.287199</ele>
        <time>2021-08-19T21:40:23.542Z</time>
      </trkpt>
      <trkpt lat="41.85465" lon="35.11489">
        <ele>165.443567</ele>
        <time>2021-08-19T21:41:48.609Z</time>
      </trkpt>
      <trkpt lat="41.85556" lon="35.11258">
        <ele>147.914743</ele>
        <time>2021-08-19T21:42:25.848Z</time>
      </trkpt>
      <trkpt lat="41.85609" lon="35.11081">
        <ele>134.38848</ele>
        <time>2021-08-19T21:42:53.080Z</time>
      </trkpt>
      <trkpt lat="41.85711" lon="35.10599">
        <ele>98.697783</ele>
        <time>2021-08-19T21:44:04.836Z</time>
      </trkpt>
      <trkpt lat="41.85715" lon="35.10579">
        <ele>97.387774</ele>
        <time>2021-08-19T21:44:07.672Z</time>
      </trkpt>
      <trkpt lat="41.85737" lon="35.10584">
        <ele>95.504804</ele>
        <time>2021-08-19T21:44:12.247Z</time>
      </trkpt>
      <trkpt lat="41.85742" lon="35.10552">
        <ele>93.463125</ele>
        <time>2021-08-19T21:44:16.818Z</time>
      </trkpt>
      <trkpt lat="41.85751" lon="35.10521">
        <ele>91.368633</ele>
        <time>2021-08-19T21:44:21.562Z</time>
      </trkpt>
      <trkpt lat="41.85779" lon="35.10475">
        <ele>87.666087</ele>
        <time>2021-08-19T21:44:30.292Z</time>
      </trkpt>
      <trkpt lat="41.85818" lon="35.10449">
        <ele>84.214462</ele>
        <time>2021-08-19T21:44:39.149Z</time>
      </trkpt>
      <trkpt lat="41.85903" lon="35.10435">
        <ele>80.540559</ele>
        <time>2021-08-19T21:44:57.745Z</time>
      </trkpt>
      <trkpt lat="41.86077" lon="35.10428">
        <ele>72.151694</ele>
        <time>2021-08-19T21:45:36.351Z</time>
      </trkpt>
      <trkpt lat="41.86412" lon="35.10569">
        <ele>51.817203</ele>
        <time>2021-08-19T21:46:47.154Z</time>
      </trkpt>
      <trkpt lat="41.86902" lon="35.10346">
        <ele>31.037874</ele>
        <time>2021-08-19T21:48:41.089Z</time>
      </trkpt>
      <trkpt lat="41.86985" lon="35.10302">
        <ele>29.420455</ele>
        <time>2021-08-19T21:49:04.020Z</time>
      </trkpt>
      <trkpt lat="41.87057" lon="35.10255">
        <ele>29.350157</ele>
        <time>2021-08-19T21:49:29.691Z</time>
      </trkpt>
      <trkpt lat="41.87099" lon="35.10136">
        <ele>30.671367</ele>
        <time>2021-08-19T21:50:08.463Z</time>
      </trkpt>
      <trkpt lat="41.8678" lon="35.09714">
        <ele>44.40125</ele>
        <time>2021-08-19T21:53:34.073Z</time>
      </trkpt>
      <trkpt lat="41.86758" lon="35.09587">
        <ele>51.372023</ele>
        <time>2021-08-19T21:54:49.661Z</time>
      </trkpt>
      <trkpt lat="41.86893" lon="35.09355">
        <ele>73.088103</ele>
        <time>2021-08-19T21:58:09.262Z</time>
      </trkpt>
      <trkpt lat="41.86895" lon="35.0928">
        <ele>78.525194</ele>
        <time>2021-08-19T21:58:56.118Z</time>
      </trkpt>
      <trkpt lat="41.86822" lon="35.0922">
        <ele>86.930219</ele>
        <time>2021-08-19T22:00:07.809Z</time>
      </trkpt>
      <trkpt lat="41.86953" lon="35.08909">
        <ele>114.346934</ele>
        <time>2021-08-19T22:04:07.344Z</time>
      </trkpt>
      <trkpt lat="41.86986" lon="35.08718">
        <ele>129.073148</ele>
        <time>2021-08-19T22:06:16.369Z</time>
      </trkpt>
      <trkpt lat="41.87065" lon="35.08527">
        <ele>144.281648</ele>
        <time>2021-08-19T22:08:29.936Z</time>
      </trkpt>
      <trkpt lat="41.87068" lon="35.08344">
        <ele>157.273955</ele>
        <time>2021-08-19T22:10:24.543Z</time>
      </trkpt>
      <trkpt lat="41.87068" lon="35.08317">
        <ele>159.260713</ele>
        <time>2021-08-19T22:10:43.089Z</time>
      </trkpt>
      <trkpt lat="41.87119" lon="35.08096">
        <ele>175.996085</ele>
        <time>2021-08-19T22:13:12.898Z</time>
      </trkpt>
      <trkpt lat="41.87135" lon="35.07883">
        <ele>190.01047</ele>
        <time>2021-08-19T22:15:22.671Z</time>
      </trkpt>
      <trkpt lat="41.87109" lon="35.07849">
        <ele>193.126961</ele>
        <time>2021-08-19T22:15:49.977Z</time>
      </trkpt>
      <trkpt lat="41.87068" lon="35.07789">
        <ele>197.598632</ele>
        <time>2021-08-19T22:16:34.482Z</time>
      </trkpt>
      <trkpt lat="41.87161" lon="35.07523">
        <ele>210.753641</ele>
        <time>2021-08-19T22:19:04.858Z</time>
      </trkpt>
      <trkpt lat="41.87202" lon="35.07416">
        <ele>214.86133</ele>
        <time>2021-08-19T22:19:52.905Z</time>
      </trkpt>
      <trkpt lat="41.8748" lon="35.07154">
        <ele>211.200989</ele>
        <time>2021-08-19T22:21:19.777Z</time>
      </trkpt>
      <trkpt lat="41.8756" lon="35.07081">
        <ele>211.024324</ele>
        <time>2021-08-19T22:21:46.806Z</time>
      </trkpt>
      <trkpt lat="41.8757" lon="35.06948">
        <ele>211.207522</ele>
        <time>2021-08-19T22:22:24.021Z</time>
      </trkpt>
      <trkpt lat="41.87773" lon="35.06793">
        <ele>209.489445</ele>
        <time>2021-08-19T22:23:38.856Z</time>
      </trkpt>
      <trkpt lat="41.87808" lon="35.06853">
        <ele>207.201791</ele>
        <time>2021-08-19T22:23:50.991Z</time>
      </trkpt>
      <trkpt lat="41.87882" lon="35.06939">
        <ele>202.873425</ele>
        <time>2021-08-19T22:24:10.655Z</time>
      </trkpt>
      <trkpt lat="41.879" lon="35.0708">
        <ele>196.601149</ele>
        <time>2021-08-19T22:24:32.749Z</time>
      </trkpt>
      <trkpt lat="41.87953" lon="35.06964">
        <ele>190.810171</ele>
        <time>2021-08-19T22:24:53.875Z</time>
      </trkpt>
      <trkpt lat="41.88052" lon="35.0699">
        <ele>185.154757</ele>
        <time>2021-08-19T22:25:15.193Z</time>
      </trkpt>
      <trkpt lat="41.88138" lon="35.0708">
        <ele>178.960469</ele>
        <time>2021-08-19T22:25:37.236Z</time>
      </trkpt>
      <trkpt lat="41.88183" lon="35.07274">
        <ele>170.572298</ele>
        <time>2021-08-19T22:26:08.908Z</time>
      </trkpt>
      <trkpt lat="41.88216" lon="35.07381">
        <ele>166.152407</ele>
        <time>2021-08-19T22:26:27.217Z</time>
      </trkpt>
      <trkpt lat="41.88314" lon="35.07505">
        <ele>159.941042</ele>
        <time>2021-08-19T22:26:55.647Z</time>
      </trkpt>
      <trkpt lat="41.88464" lon="35.07552">
        <ele>154.269378</ele>
        <time>2021-08-19T22:27:29.703Z</time>
      </trkpt>
      <trkpt lat="41.88547" lon="35.07531">
        <ele>151.964458</ele>
        <time>2021-08-19T22:27:50.852Z</time>
      </trkpt>
      <trkpt lat="41.88653" lon="35.07563">
        <ele>148.856418</ele>
        <time>2021-08-19T22:28:16.893Z</time>
      </trkpt>
      <trkpt lat="41.88892" lon="35.07608">
        <ele>141.676759</ele>
        <time>2021-08-19T22:29:11.165Z</time>
      </trkpt>
      <trkpt lat="41.89003" lon="35.07628">
        <ele>139.049052</ele>
        <time>2021-08-19T22:29:39.645Z</time>
      </trkpt>
      <trkpt lat="41.89039" lon="35.07632">
        <ele>138.306084</ele>
        <time>2021-08-19T22:29:49.546Z</time>
      </trkpt>
      <trkpt lat="41.89271" lon="35.07666">
        <ele>132.005914</ele>
        <time>2021-08-19T22:30:43.798Z</time>
      </trkpt>
      <trkpt lat="41.89527" lon="35.07707">
        <ele>123.309636</ele>
        <time>2021-08-19T22:31:40.577Z</time>
      </trkpt>
      <trkpt lat="41.89825" lon="35.07675">
        <ele>117.109675</ele>
        <time>2021-08-19T22:32:56.321Z</time>
      </trkpt>
      <trkpt lat="41.89953" lon="35.07561">
        <ele>111.69133</ele>
        <time>2021-08-19T22:33:31.802Z</time>
      </trkpt>
      <trkpt lat="41.90169" lon="35.07325">
        <ele>94.375301</ele>
        <time>2021-08-19T22:34:28.114Z</time>
      </trkpt>
      <trkpt lat="41.90336" lon="35.07349">
        <ele>82.126423</ele>
        <time>2021-08-19T22:35:01.821Z</time>
      </trkpt>
      <trkpt lat="41.90596" lon="35.07156">
        <ele>57.90502</ele>
        <time>2021-08-19T22:35:59.576Z</time>
      </trkpt>
      <trkpt lat="41.90634" lon="35.07005">
        <ele>51.223485</ele>
        <time>2021-08-19T22:36:23.215Z</time>
      </trkpt>
      <trkpt lat="41.90655" lon="35.06911">
        <ele>47.928149</ele>
        <time>2021-08-19T22:36:39.413Z</time>
      </trkpt>
      <trkpt lat="41.90747" lon="35.06637">
        <ele>54.680874</ele>
        <time>2021-08-19T22:38:32.184Z</time>
      </trkpt>
      <trkpt lat="41.90814" lon="35.06458">
        <ele>61.822426</ele>
        <time>2021-08-19T22:40:12.039Z</time>
      </trkpt>
      <trkpt lat="41.90832" lon="35.06474">
        <ele>62.30349</ele>
        <time>2021-08-19T22:40:24.762Z</time>
      </trkpt>
      <trkpt lat="41.90934" lon="35.06588">
        <ele>65.33443</ele>
        <time>2021-08-19T22:41:18.579Z</time>
      </trkpt>
      <trkpt lat="41.9094" lon="35.06595">
        <ele>65.246926</ele>
        <time>2021-08-19T22:41:20.449Z</time>
      </trkpt>
      <trkpt lat="41.90988" lon="35.06656">
        <ele>62.954456</ele>
        <time>2021-08-19T22:41:35.681Z</time>
      </trkpt>
      <trkpt lat="41.91027" lon="35.06705">
        <ele>61.082125</ele>
        <time>2021-08-19T22:41:47.441Z</time>
      </trkpt>
      <trkpt lat="41.9122" lon="35.06944">
        <ele>48.362456</ele>
        <time>2021-08-19T22:42:42.311Z</time>
      </trkpt>
      <trkpt lat="41.91305" lon="35.0703">
        <ele>43.655815</ele>
        <time>2021-08-19T22:43:05.153Z</time>
      </trkpt>
      <trkpt lat="41.91404" lon="35.07122">
        <ele>39.226917</ele>
        <time>2021-08-19T22:43:32.146Z</time>
      </trkpt>
      <trkpt lat="41.91698" lon="35.07376">
        <ele>28.523215</ele>
        <time>2021-08-19T22:44:53.287Z</time>
      </trkpt>
      <trkpt lat="41.91724" lon="35.074">
        <ele>27.502539</ele>
        <time>2021-08-19T22:45:00.242Z</time>
      </trkpt>
      <trkpt lat="41.91772" lon="35.07456">
        <ele>25.389158</ele>
        <time>2021-08-19T22:45:14.595Z</time>
      </trkpt>
      <trkpt lat="41.91874" lon="35.07576">
        <ele>20.989994</ele>
        <time>2021-08-19T22:45:45.005Z</time>
      </trkpt>
      <trkpt lat="41.91905" lon="35.07605">
        <ele>19.784853</ele>
        <time>2021-08-19T22:45:53.766Z</time>
      </trkpt>
      <trkpt lat="41.91913" lon="35.07613">
        <ele>19.453191</ele>
        <time>2021-08-19T22:45:56.099Z</time>
      </trkpt>
      <trkpt lat="41.91954" lon="35.07653">
        <ele>18.242371</ele>
        <time>2021-08-19T22:46:08.186Z</time>
      </trkpt>
      <trkpt lat="41.92064" lon="35.07735">
        <ele>15.779234</ele>
        <time>2021-08-19T22:46:39.160Z</time>
      </trkpt>
      <trkpt lat="41.92131" lon="35.07786">
        <ele>14.677081</ele>
        <time>2021-08-19T22:46:59.604Z</time>
      </trkpt>
      <trkpt lat="41.92225" lon="35.07869">
        <ele>13.306448</ele>
        <time>2021-08-19T22:47:29.683Z</time>
      </trkpt>
      <trkpt lat="41.9241" lon="35.08041">
        <ele>10.73934</ele>
        <time>2021-08-19T22:48:29.484Z</time>
      </trkpt>
      <trkpt lat="41.92554" lon="35.08175">
        <ele>9.258927</ele>
        <time>2021-08-19T22:49:16.109Z</time>
      </trkpt>
      <trkpt lat="41.92583" lon="35.08211">
        <ele>9.352573</ele>
        <time>2021-08-19T22:49:27.743Z</time>
      </trkpt>
      <trkpt lat="41.92742" lon="35.08369">
        <ele>11.099393</ele>
        <time>2021-08-19T22:50:38.996Z</time>
      </trkpt>
      <trkpt lat="41.92781" lon="35.08409">
        <ele>11.937897</ele>
        <time>2021-08-19T22:50:59.583Z</time>
      </trkpt>
      <trkpt lat="41.92775" lon="35.08423">
        <ele>12.141</ele>
        <time>2021-08-19T22:51:04.750Z</time>
      </trkpt>
      <trkpt lat="41.92772" lon="35.08456">
        <ele>12.568175</ele>
        <time>2021-08-19T22:51:16.019Z</time>
      </trkpt>
      <trkpt lat="41.92783" lon="35.08476">
        <ele>13.116361</ele>
        <time>2021-08-19T22:51:24.793Z</time>
      </trkpt>
      <trkpt lat="41.92793" lon="35.08481">
        <ele>13.51565</ele>
        <time>2021-08-19T22:51:29.653Z</time>
      </trkpt>
      <trkpt lat="41.92893" lon="35.0848">
        <ele>17.519131</ele>
        <time>2021-08-19T22:52:22.689Z</time>
      </trkpt>
      <trkpt lat="41.9295" lon="35.08527">
        <ele>20.227878</ele>
        <time>2021-08-19T22:53:01.462Z</time>
      </trkpt>
      <trkpt lat="41.93024" lon="35.08569">
        <ele>24.076575</ele>
        <time>2021-08-19T22:53:49.010Z</time>
      </trkpt>
      <trkpt lat="41.93093" lon="35.08597">
        <ele>27.572137</ele>
        <time>2021-08-19T22:54:31.439Z</time>
      </trkpt>
      <trkpt lat="41.93175" lon="35.0862">
        <ele>31.516764</ele>
        <time>2021-08-19T22:55:17.903Z</time>
      </trkpt>
      <trkpt lat="41.93236" lon="35.08627">
        <ele>34.392393</ele>
        <time>2021-08-19T22:55:52.188Z</time>
      </trkpt>
      <trkpt lat="41.93322" lon="35.08627">
        <ele>38.980653</ele>
        <time>2021-08-19T22:56:42.755Z</time>
      </trkpt>
      <trkpt lat="41.93554" lon="35.08638">
        <ele>54.804421</ele>
        <time>2021-08-19T22:59:23.261Z</time>
      </trkpt>
      <trkpt lat="41.93634" lon="35.08632">
        <ele>60.957841</ele>
        <time>2021-08-19T23:00:24.726Z</time>
      </trkpt>
      <trkpt lat="41.9368" lon="35.08608">
        <ele>65.174786</ele>
        <time>2021-08-19T23:01:04.592Z</time>
      </trkpt>
      <trkpt lat="41.93718" lon="35.08578">
        <ele>69.118723</ele>
        <time>2021-08-19T23:01:41.356Z</time>
      </trkpt>
      <trkpt lat="41.93762" lon="35.08525">
        <ele>74.421773</ele>
        <time>2021-08-19T23:02:30.513Z</time>
      </trkpt>
      <trkpt lat="41.93787" lon="35.08481">
        <ele>78.111048</ele>
        <time>2021-08-19T23:03:04.153Z</time>
      </trkpt>
      <trkpt lat="41.93795" lon="35.08467">
        <ele>79.190071</ele>
        <time>2021-08-19T23:03:14.832Z</time>
      </trkpt>
      <trkpt lat="41.93803" lon="35.08454">
        <ele>80.1589</ele>
        <time>2021-08-19T23:03:24.423Z</time>
      </trkpt>
      <trkpt lat="41.93821" lon="35.08421">
        <ele>82.511011</ele>
        <time>2021-08-19T23:03:47.867Z</time>
      </trkpt>
      <trkpt lat="41.93859" lon="35.08361">
        <ele>87.07732</ele>
        <time>2021-08-19T23:04:31.094Z</time>
      </trkpt>
      <trkpt lat="41.9391" lon="35.08291">
        <ele>92.675102</ele>
        <time>2021-08-19T23:05:25.742Z</time>
      </trkpt>
      <trkpt lat="41.93943" lon="35.0826">
        <ele>94.88334</ele>
        <time>2021-08-19T23:05:52.937Z</time>
      </trkpt>
      <trkpt lat="41.93972" lon="35.08248">
        <ele>96.500764</ele>
        <time>2021-08-19T23:06:11.115Z</time>
      </trkpt>
      <trkpt lat="41.93979" lon="35.08246">
        <ele>96.911169</ele>
        <time>2021-08-19T23:06:16.436Z</time>
      </trkpt>
      <trkpt lat="41.94005" lon="35.08239">
        <ele>98.369949</ele>
        <time>2021-08-19T23:06:32.123Z</time>
      </trkpt>
      <trkpt lat="41.94025" lon="35.08234">
        <ele>99.508244</ele>
        <time>2021-08-19T23:06:44.777Z</time>
      </trkpt>
      <trkpt lat="41.94098" lon="35.0818">
        <ele>102.766643</ele>
        <time>2021-08-19T23:07:30.691Z</time>
      </trkpt>
      <trkpt lat="41.94168" lon="35.08151">
        <ele>103.921068</ele>
        <time>2021-08-19T23:08:02.991Z</time>
      </trkpt>
      <trkpt lat="41.94177" lon="35.08146">
        <ele>104.074791</ele>
        <time>2021-08-19T23:08:07.344Z</time>
      </trkpt>
      <trkpt lat="41.94187" lon="35.08146">
        <ele>104.23806</ele>
        <time>2021-08-19T23:08:10.195Z</time>
      </trkpt>
      <trkpt lat="41.94231" lon="35.08146">
        <ele>104.926995</ele>
        <time>2021-08-19T23:08:23.432Z</time>
      </trkpt>
      <trkpt lat="41.94251" lon="35.0816">
        <ele>104.72327</ele>
        <time>2021-08-19T23:08:29.939Z</time>
      </trkpt>
      <trkpt lat="41.94383" lon="35.08281">
        <ele>100.376086</ele>
        <time>2021-08-19T23:09:06.930Z</time>
      </trkpt>
      <trkpt lat="41.94493" lon="35.08402">
        <ele>94.053228</ele>
        <time>2021-08-19T23:09:37.572Z</time>
      </trkpt>
      <trkpt lat="41.94517" lon="35.085">
        <ele>90.404934</ele>
        <time>2021-08-19T23:09:53.748Z</time>
      </trkpt>
      <trkpt lat="41.94524" lon="35.08599">
        <ele>86.665715</ele>
        <time>2021-08-19T23:10:09.274Z</time>
      </trkpt>
      <trkpt lat="41.94557" lon="35.08834">
        <ele>78.509347</ele>
        <time>2021-08-19T23:10:47.310Z</time>
      </trkpt>
      <trkpt lat="41.94573" lon="35.089">
        <ele>76.321334</ele>
        <time>2021-08-19T23:10:58.851Z</time>
      </trkpt>
      <trkpt lat="41.94596" lon="35.08952">
        <ele>74.39656</ele>
        <time>2021-08-19T23:11:09.064Z</time>
      </trkpt>
      <trkpt lat="41.94613" lon="35.08976">
        <ele>73.35267</ele>
        <time>2021-08-19T23:11:14.539Z</time>
      </trkpt>
      <trkpt lat="41.9466" lon="35.09004">
        <ele>71.098737</ele>
        <time>2021-08-19T23:11:26.148Z</time>
      </trkpt>
      <trkpt lat="41.94695" lon="35.09011">
        <ele>69.589291</ele>
        <time>2021-08-19T23:11:33.661Z</time>
      </trkpt>
      <trkpt lat="41.94721" lon="35.09009">
        <ele>68.467603</ele>
        <time>2021-08-19T23:11:39.148Z</time>
      </trkpt>
      <trkpt lat="41.94755" lon="35.08995">
        <ele>66.539145</ele>
        <time>2021-08-19T23:11:46.607Z</time>
      </trkpt>
      <trkpt lat="41.94779" lon="35.08973">
        <ele>64.506018</ele>
        <time>2021-08-19T23:11:52.514Z</time>
      </trkpt>
      <trkpt lat="41.94804" lon="35.08939">
        <ele>61.998989</ele>
        <time>2021-08-19T23:11:59.723Z</time>
      </trkpt>
      <trkpt lat="41.94814" lon="35.0891">
        <ele>60.37386</ele>
        <time>2021-08-19T23:12:04.338Z</time>
      </trkpt>
      <trkpt lat="41.94849" lon="35.08742">
        <ele>50.662969</ele>
        <time>2021-08-19T23:12:29.997Z</time>
      </trkpt>
      <trkpt lat="41.9485" lon="35.08624">
        <ele>43.463287</ele>
        <time>2021-08-19T23:12:47.200Z</time>
      </trkpt>
      <trkpt lat="41.94859" lon="35.08586">
        <ele>41.039816</ele>
        <time>2021-08-19T23:12:52.973Z</time>
      </trkpt>
      <trkpt lat="41.94878" lon="35.0851">
        <ele>36.063804</ele>
        <time>2021-08-19T23:13:04.697Z</time>
      </trkpt>
      <trkpt lat="41.94892" lon="35.08488">
        <ele>34.286702</ele>
        <time>2021-08-19T23:13:08.776Z</time>
      </trkpt>
      <trkpt lat="41.94917" lon="35.08475">
        <ele>32.077656</ele>
        <time>2021-08-19T23:13:13.939Z</time>
      </trkpt>
      <trkpt lat="41.95034" lon="35.08513">
        <ele>23.371077</ele>
        <time>2021-08-19T23:13:37.567Z</time>
      </trkpt>
      <trkpt lat="41.95093" lon="35.08538">
        <ele>20.442122</ele>
        <time>2021-08-19T23:13:50.490Z</time>
      </trkpt>
      <trkpt lat="41.95138" lon="35.08589">
        <ele>17.647924</ele>
        <time>2021-08-19T23:14:03.658Z</time>
      </trkpt>
      <trkpt lat="41.95156" lon="35.08637">
        <ele>16.617024</ele>
        <time>2021-08-19T23:14:13.439Z</time>
      </trkpt>
      <trkpt lat="41.95199" lon="35.08928">
        <ele>18.326764</ele>
        <time>2021-08-19T23:15:28.185Z</time>
      </trkpt>
      <trkpt lat="41.95237" lon="35.08996">
        <ele>20.28405</ele>
        <time>2021-08-19T23:16:00.663Z</time>
      </trkpt>
      <trkpt lat="41.95301" lon="35.09076">
        <ele>24.093292</ele>
        <time>2021-08-19T23:16:52.335Z</time>
      </trkpt>
      <trkpt lat="41.95315" lon="35.0909">
        <ele>25.306665</ele>
        <time>2021-08-19T23:17:04.503Z</time>
      </trkpt>
      <trkpt lat="41.95355" lon="35.09113">
        <ele>28.246941</ele>
        <time>2021-08-19T23:17:34.309Z</time>
      </trkpt>
      <trkpt lat="41.95412" lon="35.09133">
        <ele>32.265382</ele>
        <time>2021-08-19T23:18:17.294Z</time>
      </trkpt>
      <trkpt lat="41.95449" lon="35.09137">
        <ele>34.813518</ele>
        <time>2021-08-19T23:18:46.005Z</time>
      </trkpt>
      <trkpt lat="41.95511" lon="35.0912">
        <ele>39.185381</ele>
        <time>2021-08-19T23:19:34.122Z</time>
      </trkpt>
      <trkpt lat="41.95598" lon="35.0908">
        <ele>45.551675</ele>
        <time>2021-08-19T23:20:37.673Z</time>
      </trkpt>
      <trkpt lat="41.95674" lon="35.09053">
        <ele>48.712295</ele>
        <time>2021-08-19T23:21:23.520Z</time>
      </trkpt>
      <trkpt lat="41.95693" lon="35.09049">
        <ele>49.341437</ele>
        <time>2021-08-19T23:21:33.598Z</time>
      </trkpt>
      <trkpt lat="41.95724" lon="35.09046">
        <ele>50.36753</ele>
        <time>2021-08-19T23:21:49.153Z</time>
      </trkpt>
      <trkpt lat="41.95781" lon="35.09049">
        <ele>52.207376</ele>
        <time>2021-08-19T23:22:13.336Z</time>
      </trkpt>
      <trkpt lat="41.95858" lon="35.09052">
        <ele>51.568911</ele>
        <time>2021-08-19T23:22:37.562Z</time>
      </trkpt>
      <trkpt lat="41.96124" lon="35.09029">
        <ele>44.48939</ele>
        <time>2021-08-19T23:23:39.778Z</time>
      </trkpt>
      <trkpt lat="41.96205" lon="35.09017">
        <ele>39.822015</ele>
        <time>2021-08-19T23:23:56.397Z</time>
      </trkpt>
      <trkpt lat="41.96231" lon="35.0901">
        <ele>37.983047</ele>
        <time>2021-08-19T23:24:01.782Z</time>
      </trkpt>
      <trkpt lat="41.96369" lon="35.08991">
        <ele>28.45793</ele>
        <time>2021-08-19T23:24:29.080Z</time>
      </trkpt>
      <trkpt lat="41.96454" lon="35.08989">
        <ele>22.560856</ele>
        <time>2021-08-19T23:24:46.045Z</time>
      </trkpt>
      <trkpt lat="41.96492" lon="35.08988">
        <ele>19.907244</ele>
        <time>2021-08-19T23:24:53.820Z</time>
      </trkpt>
      <trkpt lat="41.96493" lon="35.09022">
        <ele>18.485172</ele>
        <time>2021-08-19T23:24:59.052Z</time>
      </trkpt>
      <trkpt lat="41.96497" lon="35.09044">
        <ele>18.004691</ele>
        <time>2021-08-19T23:25:02.510Z</time>
      </trkpt>
      <trkpt lat="41.96499" lon="35.0906">
        <ele>17.640215</ele>
        <time>2021-08-19T23:25:05.002Z</time>
      </trkpt>
      <trkpt lat="41.96546" lon="35.09041">
        <ele>16.209178</ele>
        <time>2021-08-19T23:25:15.280Z</time>
      </trkpt>
      <trkpt lat="41.96701" lon="35.08988">
        <ele>15.711477</ele>
        <time>2021-08-19T23:25:59.809Z</time>
      </trkpt>
      <trkpt lat="41.96749" lon="35.08976">
        <ele>17.391933</ele>
        <time>2021-08-19T23:26:24.684Z</time>
      </trkpt>
      <trkpt lat="41.96772" lon="35.08982">
        <ele>18.210038</ele>
        <time>2021-08-19T23:26:39.311Z</time>
      </trkpt>
      <trkpt lat="41.9692" lon="35.09097">
        <ele>31.690905</ele>
        <time>2021-08-19T23:28:53.566Z</time>
      </trkpt>
      <trkpt lat="41.9694" lon="35.0912">
        <ele>34.206236</ele>
        <time>2021-08-19T23:29:17.004Z</time>
      </trkpt>
      <trkpt lat="41.97007" lon="35.09217">
        <ele>44.953342</ele>
        <time>2021-08-19T23:30:57.199Z</time>
      </trkpt>
      <trkpt lat="41.97014" lon="35.09249">
        <ele>47.732907</ele>
        <time>2021-08-19T23:31:22.697Z</time>
      </trkpt>
      <trkpt lat="41.97015" lon="35.09287">
        <ele>51.046408</ele>
        <time>2021-08-19T23:31:45.437Z</time>
      </trkpt>
      <trkpt lat="41.97017" lon="35.09289">
        <ele>51.381218</ele>
        <time>2021-08-19T23:31:50.018Z</time>
      </trkpt>
      <trkpt lat="41.9702" lon="35.09287">
        <ele>51.738121</ele>
        <time>2021-08-19T23:31:54.976Z</time>
      </trkpt>
      <trkpt lat="41.97041" lon="35.0925">
        <ele>55.744463</ele>
        <time>2021-08-19T23:32:26.923Z</time>
      </trkpt>
      <trkpt lat="41.97049" lon="35.09246">
        <ele>56.66307</ele>
        <time>2021-08-19T23:32:35.049Z</time>
      </trkpt>
      <trkpt lat="41.97062" lon="35.09255">
        <ele>57.870183</ele>
        <time>2021-08-19T23:32:44.995Z</time>
      </trkpt>
      <trkpt lat="41.97089" lon="35.09303">
        <ele>61.197924</ele>
        <time>2021-08-19T23:33:21.931Z</time>
      </trkpt>
      <trkpt lat="41.97113" lon="35.09317">
        <ele>63.119377</ele>
        <time>2021-08-19T23:33:44.718Z</time>
      </trkpt>
      <trkpt lat="41.97157" lon="35.09331">
        <ele>66.515485</ele>
        <time>2021-08-19T23:34:17.047Z</time>
      </trkpt>
      <trkpt lat="41.9717" lon="35.09341">
        <ele>67.605995</ele>
        <time>2021-08-19T23:34:27.080Z</time>
      </trkpt>
      <trkpt lat="41.97192" lon="35.09363">
        <ele>69.625233</ele>
        <time>2021-08-19T23:34:41.029Z</time>
      </trkpt>
      <trkpt lat="41.97267" lon="35.09433">
        <ele>72.671687</ele>
        <time>2021-08-19T23:35:28.354Z</time>
      </trkpt>
      <trkpt lat="41.97284" lon="35.09441">
        <ele>73.164213</ele>
        <time>2021-08-19T23:35:36.719Z</time>
      </trkpt>
      <trkpt lat="41.97518" lon="35.0947">
        <ele>77.263421</ele>
        <time>2021-08-19T23:37:11.274Z</time>
      </trkpt>
      <trkpt lat="41.97527" lon="35.09462">
        <ele>77.391409</ele>
        <time>2021-08-19T23:37:16.016Z</time>
      </trkpt>
      <trkpt lat="41.97531" lon="35.09473">
        <ele>77.491959</ele>
        <time>2021-08-19T23:37:17.993Z</time>
      </trkpt>
      <trkpt lat="41.976" lon="35.09527">
        <ele>77.072409</ele>
        <time>2021-08-19T23:37:39.846Z</time>
      </trkpt>
      <trkpt lat="41.97639" lon="35.0957">
        <ele>76.739133</ele>
        <time>2021-08-19T23:37:54.406Z</time>
      </trkpt>
      <trkpt lat="41.97664" lon="35.09621">
        <ele>76.433602</ele>
        <time>2021-08-19T23:38:06.551Z</time>
      </trkpt>
      <trkpt lat="41.97673" lon="35.09664">
        <ele>75.955028</ele>
        <time>2021-08-19T23:38:15.514Z</time>
      </trkpt>
      <trkpt lat="41.97706" lon="35.09688">
        <ele>75.277627</ele>
        <time>2021-08-19T23:38:26.238Z</time>
      </trkpt>
      <trkpt lat="41.97725" lon="35.09729">
        <ele>74.631447</ele>
        <time>2021-08-19T23:38:35.991Z</time>
      </trkpt>
      <trkpt lat="41.97728" lon="35.09734">
        <ele>74.555369</ele>
        <time>2021-08-19T23:38:37.020Z</time>
      </trkpt>
      <trkpt lat="41.97762" lon="35.09782">
        <ele>73.664952</ele>
        <time>2021-08-19T23:38:49.354Z</time>
      </trkpt>
      <trkpt lat="41.97772" lon="35.0981">
        <ele>73.258247</ele>
        <time>2021-08-19T23:38:55.053Z</time>
      </trkpt>
      <trkpt lat="41.97782" lon="35.09818">
        <ele>73.000457</ele>
        <time>2021-08-19T23:38:58.023Z</time>
      </trkpt>
      <trkpt lat="41.97805" lon="35.09896">
        <ele>71.247383</ele>
        <time>2021-08-19T23:39:13.570Z</time>
      </trkpt>
      <trkpt lat="41.97822" lon="35.09957">
        <ele>69.890701</ele>
        <time>2021-08-19T23:39:33.515Z</time>
      </trkpt>
      <trkpt lat="41.97842" lon="35.09965">
        <ele>69.283543</ele>
        <time>2021-08-19T23:39:38.648Z</time>
      </trkpt>
      <trkpt lat="41.9788" lon="35.09989">
        <ele>68.116041</ele>
        <time>2021-08-19T23:39:48.150Z</time>
      </trkpt>
      <trkpt lat="41.97887" lon="35.09998">
        <ele>67.919535</ele>
        <time>2021-08-19T23:39:50.406Z</time>
      </trkpt>
      <trkpt lat="41.97905" lon="35.1002">
        <ele>67.488828</ele>
        <time>2021-08-19T23:39:56.137Z</time>
      </trkpt>
      <trkpt lat="41.97941" lon="35.10058">
        <ele>66.653281</ele>
        <time>2021-08-19T23:40:07.189Z</time>
      </trkpt>
      <trkpt lat="41.97953" lon="35.10066">
        <ele>66.407571</ele>
        <time>2021-08-19T23:40:11.675Z</time>
      </trkpt>
      <trkpt lat="41.97968" lon="35.10074">
        <ele>66.106516</ele>
        <time>2021-08-19T23:40:15.971Z</time>
      </trkpt>
      <trkpt lat="41.97987" lon="35.1008">
        <ele>65.765671</ele>
        <time>2021-08-19T23:40:20.985Z</time>
      </trkpt>
      <trkpt lat="41.98002" lon="35.10078">
        <ele>65.487395</ele>
        <time>2021-08-19T23:40:24.937Z</time>
      </trkpt>
      <trkpt lat="41.98008" lon="35.10077">
        <ele>65.372135</ele>
        <time>2021-08-19T23:40:26.492Z</time>
      </trkpt>
      <trkpt lat="41.98065" lon="35.10035">
        <ele>64.229127</ele>
        <time>2021-08-19T23:40:43.261Z</time>
      </trkpt>
      <trkpt lat="41.98084" lon="35.10032">
        <ele>63.902813</ele>
        <time>2021-08-19T23:40:48.041Z</time>
      </trkpt>
      <trkpt lat="41.98106" lon="35.10039">
        <ele>63.518363</ele>
        <time>2021-08-19T23:40:53.608Z</time>
      </trkpt>
      <trkpt lat="41.98114" lon="35.10048">
        <ele>63.334278</ele>
        <time>2021-08-19T23:40:56.135Z</time>
      </trkpt>
      <trkpt lat="41.98128" lon="35.10064">
        <ele>63.027749</ele>
        <time>2021-08-19T23:41:00.714Z</time>
      </trkpt>
      <trkpt lat="41.98151" lon="35.10111">
        <ele>62.30413</ele>
        <time>2021-08-19T23:41:11.497Z</time>
      </trkpt>
      <trkpt lat="41.98166" lon="35.10131">
        <ele>61.943564</ele>
        <time>2021-08-19T23:41:16.778Z</time>
      </trkpt>
      <trkpt lat="41.98172" lon="35.10139">
        <ele>61.802173</ele>
        <time>2021-08-19T23:41:18.941Z</time>
      </trkpt>
      <trkpt lat="41.98228" lon="35.1018">
        <ele>60.263273</ele>
        <time>2021-08-19T23:41:34.756Z</time>
      </trkpt>
      <trkpt lat="41.98313" lon="35.1021">
        <ele>58.12922</ele>
        <time>2021-08-19T23:41:55.622Z</time>
      </trkpt>
      <trkpt lat="41.98344" lon="35.10218">
        <ele>57.361506</ele>
        <time>2021-08-19T23:42:02.832Z</time>
      </trkpt>
      <trkpt lat="41.98357" lon="35.1022">
        <ele>56.928663</ele>
        <time>2021-08-19T23:42:05.765Z</time>
      </trkpt>
      <trkpt lat="41.98374" lon="35.10224">
        <ele>56.339475</ele>
        <time>2021-08-19T23:42:09.800Z</time>
      </trkpt>
      <trkpt lat="41.98375" lon="35.10225">
        <ele>56.314799</ele>
        <time>2021-08-19T23:42:09.950Z</time>
      </trkpt>
      <trkpt lat="41.98411" lon="35.10239">
        <ele>55.03417</ele>
        <time>2021-08-19T23:42:18.458Z</time>
      </trkpt>
      <trkpt lat="41.9843" lon="35.10246">
        <ele>54.384756</ele>
        <time>2021-08-19T23:42:22.613Z</time>
      </trkpt>
      <trkpt lat="41.98508" lon="35.10285">
        <ele>51.567885</ele>
        <time>2021-08-19T23:42:41.483Z</time>
      </trkpt>
      <trkpt lat="41.98526" lon="35.10294">
        <ele>51.10314</ele>
        <time>2021-08-19T23:42:45.790Z</time>
      </trkpt>
      <trkpt lat="41.98529" lon="35.10296">
        <ele>51.046753</ele>
        <time>2021-08-19T23:42:46.469Z</time>
      </trkpt>
      <trkpt lat="41.98554" lon="35.10302">
        <ele>50.580036</ele>
        <time>2021-08-19T23:42:52.808Z</time>
      </trkpt>
      <trkpt lat="41.98558" lon="35.10302">
        <ele>50.509256</ele>
        <time>2021-08-19T23:42:53.676Z</time>
      </trkpt>
      <trkpt lat="41.98571" lon="35.10302">
        <ele>50.278752</ele>
        <time>2021-08-19T23:42:56.771Z</time>
      </trkpt>
      <trkpt lat="41.98581" lon="35.10299">
        <ele>50.08749</ele>
        <time>2021-08-19T23:42:59.694Z</time>
      </trkpt>
      <trkpt lat="41.9859" lon="35.10297">
        <ele>49.923976</ele>
        <time>2021-08-19T23:43:02.050Z</time>
      </trkpt>
      <trkpt lat="41.98616" lon="35.1028">
        <ele>49.399575</ele>
        <time>2021-08-19T23:43:09.673Z</time>
      </trkpt>
      <trkpt lat="41.98694" lon="35.10224">
        <ele>47.624552</ele>
        <time>2021-08-19T23:43:32.704Z</time>
      </trkpt>
      <trkpt lat="41.98709" lon="35.10215">
        <ele>47.142844</ele>
        <time>2021-08-19T23:43:37.030Z</time>
      </trkpt>
      <trkpt lat="41.98728" lon="35.10204">
        <ele>46.507586</ele>
        <time>2021-08-19T23:43:42.109Z</time>
      </trkpt>
      <trkpt lat="41.98751" lon="35.10192">
        <ele>45.772223</ele>
        <time>2021-08-19T23:43:48.281Z</time>
      </trkpt>
      <trkpt lat="41.98784" lon="35.10172">
        <ele>44.671079</ele>
        <time>2021-08-19T23:43:56.688Z</time>
      </trkpt>
      <trkpt lat="41.98794" lon="35.10167">
        <ele>44.365897</ele>
        <time>2021-08-19T23:43:58.862Z</time>
      </trkpt>
      <trkpt lat="41.98814" lon="35.10164">
        <ele>43.760047</ele>
        <time>2021-08-19T23:44:03.398Z</time>
      </trkpt>
      <trkpt lat="41.98824" lon="35.10165">
        <ele>43.428973</ele>
        <time>2021-08-19T23:44:05.716Z</time>
      </trkpt>
      <trkpt lat="41.98852" lon="35.10169">
        <ele>42.555823</ele>
        <time>2021-08-19T23:44:11.799Z</time>
      </trkpt>
      <trkpt lat="41.98897" lon="35.10179">
        <ele>39.878832</ele>
        <time>2021-08-19T23:44:21.306Z</time>
      </trkpt>
      <trkpt lat="41.98946" lon="35.10191">
        <ele>36.998029</ele>
        <time>2021-08-19T23:44:31.390Z</time>
      </trkpt>
      <trkpt lat="41.98967" lon="35.10196">
        <ele>35.720603</ele>
        <time>2021-08-19T23:44:35.841Z</time>
      </trkpt>
      <trkpt lat="41.98977" lon="35.10198">
        <ele>35.144028</ele>
        <time>2021-08-19T23:44:37.836Z</time>
      </trkpt>
      <trkpt lat="41.98988" lon="35.102">
        <ele>34.515374</ele>
        <time>2021-08-19T23:44:40.030Z</time>
      </trkpt>
      <trkpt lat="41.99031" lon="35.10209">
        <ele>31.90823</ele>
        <time>2021-08-19T23:44:48.996Z</time>
      </trkpt>
      <trkpt lat="41.99064" lon="35.10216">
        <ele>29.761713</ele>
        <time>2021-08-19T23:44:55.653Z</time>
      </trkpt>
      <trkpt lat="41.9908" lon="35.10219">
        <ele>28.675221</ele>
        <time>2021-08-19T23:44:59.003Z</time>
      </trkpt>
      <trkpt lat="41.99141" lon="35.10232">
        <ele>24.663966</ele>
        <time>2021-08-19T23:45:11.506Z</time>
      </trkpt>
      <trkpt lat="41.99163" lon="35.10236">
        <ele>23.270576</ele>
        <time>2021-08-19T23:45:15.795Z</time>
      </trkpt>
      <trkpt lat="41.99241" lon="35.10251">
        <ele>18.588169</ele>
        <time>2021-08-19T23:45:31.858Z</time>
      </trkpt>
      <trkpt lat="41.99268" lon="35.10259">
        <ele>17.192616</ele>
        <time>2021-08-19T23:45:37.371Z</time>
      </trkpt>
      <trkpt lat="41.99343" lon="35.10274">
        <ele>13.301868</ele>
        <time>2021-08-19T23:45:53.292Z</time>
      </trkpt>
      <trkpt lat="41.99386" lon="35.10283">
        <ele>11.137605</ele>
        <time>2021-08-19T23:46:02.914Z</time>
      </trkpt>
      <trkpt lat="41.99405" lon="35.10286">
        <ele>11.110831</ele>
        <time>2021-08-19T23:46:07.242Z</time>
      </trkpt>
      <trkpt lat="41.99425" lon="35.10288">
        <ele>11.081523</ele>
        <time>2021-08-19T23:46:12.416Z</time>
      </trkpt>
      <trkpt lat="41.99455" lon="35.10292">
        <ele>11.039745</ele>
        <time>2021-08-19T23:46:20.401Z</time>
      </trkpt>
      <trkpt lat="41.99514" lon="35.10305">
        <ele>10.955933</ele>
        <time>2021-08-19T23:46:39.472Z</time>
      </trkpt>
      <trkpt lat="41.9952" lon="35.10308">
        <ele>10.946031</ele>
        <time>2021-08-19T23:46:42.325Z</time>
      </trkpt>
      <trkpt lat="41.99534" lon="35.10316">
        <ele>10.924815</ele>
        <time>2021-08-19T23:46:48.197Z</time>
      </trkpt>
      <trkpt lat="41.99602" lon="35.10354">
        <ele>13.309329</ele>
        <time>2021-08-19T23:47:22.265Z</time>
      </trkpt>
      <trkpt lat="41.99667" lon="35.10393">
        <ele>17.121649</ele>
        <time>2021-08-19T23:48:07.038Z</time>
      </trkpt>
      <trkpt lat="41.99699" lon="35.1042">
        <ele>19.12187</ele>
        <time>2021-08-19T23:48:33.549Z</time>
      </trkpt>
      <trkpt lat="41.99713" lon="35.10442">
        <ele>20.25141</ele>
        <time>2021-08-19T23:48:49.299Z</time>
      </trkpt>
      <trkpt lat="41.99719" lon="35.10462">
        <ele>21.491526</ele>
        <time>2021-08-19T23:49:00.002Z</time>
      </trkpt>
      <trkpt lat="41.99723" lon="35.10504">
        <ele>24.103968</ele>
        <time>2021-08-19T23:49:23.671Z</time>
      </trkpt>
      <trkpt lat="41.9973" lon="35.10527">
        <ele>25.609327</ele>
        <time>2021-08-19T23:49:39.294Z</time>
      </trkpt>
      <trkpt lat="41.99778" lon="35.106">
        <ele>31.660055</ele>
        <time>2021-08-19T23:50:37.941Z</time>
      </trkpt>
      <trkpt lat="41.99794" lon="35.10633">
        <ele>34.071263</ele>
        <time>2021-08-19T23:51:00.717Z</time>
      </trkpt>
      <trkpt lat="41.99809" lon="35.10682">
        <ele>36.656364</ele>
        <time>2021-08-19T23:51:33.023Z</time>
      </trkpt>
      <trkpt lat="41.99829" lon="35.10751">
        <ele>39.580217</ele>
        <time>2021-08-19T23:52:11.307Z</time>
      </trkpt>
      <trkpt lat="41.99854" lon="35.10804">
        <ele>42.077145</ele>
        <time>2021-08-19T23:52:40.208Z</time>
      </trkpt>
      <trkpt lat="41.99904" lon="35.10884">
        <ele>44.614919</ele>
        <time>2021-08-19T23:53:16.190Z</time>
      </trkpt>
      <trkpt lat="41.99931" lon="35.10904">
        <ele>44.096961</ele>
        <time>2021-08-19T23:53:26.012Z</time>
      </trkpt>
      <trkpt lat="41.99983" lon="35.10943">
        <ele>43.129713</ele>
        <time>2021-08-19T23:53:40.965Z</time>
      </trkpt>
      <trkpt lat="42.00167" lon="35.11057">
        <ele>35.62376</ele>
        <time>2021-08-19T23:54:24.282Z</time>
      </trkpt>
      <trkpt lat="42.00238" lon="35.11092">
        <ele>32.374042</ele>
        <time>2021-08-19T23:54:40.435Z</time>
      </trkpt>
      <trkpt lat="42.0029" lon="35.11128">
        <ele>30.236903</ele>
        <time>2021-08-19T23:54:52.784Z</time>
      </trkpt>
      <trkpt lat="42.00344" lon="35.11178">
        <ele>27.816771</ele>
        <time>2021-08-19T23:55:07.561Z</time>
      </trkpt>
      <trkpt lat="42.00369" lon="35.11191">
        <ele>26.927797</ele>
        <time>2021-08-19T23:55:14.275Z</time>
      </trkpt>
      <trkpt lat="42.00402" lon="35.11208">
        <ele>26.82799</ele>
        <time>2021-08-19T23:55:23.707Z</time>
      </trkpt>
      <trkpt lat="42.00419" lon="35.1122">
        <ele>26.774357</ele>
        <time>2021-08-19T23:55:29.040Z</time>
      </trkpt>
      <trkpt lat="42.00446" lon="35.11242">
        <ele>26.684864</ele>
        <time>2021-08-19T23:55:39.393Z</time>
      </trkpt>
      <trkpt lat="42.00454" lon="35.11248">
        <ele>26.660758</ele>
        <time>2021-08-19T23:55:42.008Z</time>
      </trkpt>
      <trkpt lat="42.00487" lon="35.11273">
        <ele>26.553934</ele>
        <time>2021-08-19T23:55:54.271Z</time>
      </trkpt>
      <trkpt lat="42.00496" lon="35.1128">
        <ele>26.522595</ele>
        <time>2021-08-19T23:55:58.103Z</time>
      </trkpt>
      <trkpt lat="42.00557" lon="35.11325">
        <ele>26.447572</ele>
        <time>2021-08-19T23:56:22.057Z</time>
      </trkpt>
      <trkpt lat="42.00565" lon="35.11331">
        <ele>26.452156</ele>
        <time>2021-08-19T23:56:26.241Z</time>
      </trkpt>
      <trkpt lat="42.00595" lon="35.11351">
        <ele>26.467791</ele>
        <time>2021-08-19T23:56:38.435Z</time>
      </trkpt>
      <trkpt lat="42.00624" lon="35.1137">
        <ele>26.482744</ele>
        <time>2021-08-19T23:56:49.178Z</time>
      </trkpt>
      <trkpt lat="42.00653" lon="35.11389">
        <ele>26.497458</ele>
        <time>2021-08-19T23:56:58.720Z</time>
      </trkpt>
      <trkpt lat="42.00679" lon="35.11407">
        <ele>26.511433</ele>
        <time>2021-08-19T23:57:07.369Z</time>
      </trkpt>
      <trkpt lat="42.00781" lon="35.11495">
        <ele>23.903347</ele>
        <time>2021-08-19T23:57:36.798Z</time>
      </trkpt>
      <trkpt lat="42.00819" lon="35.11531">
        <ele>22.856243</ele>
        <time>2021-08-19T23:57:47.413Z</time>
      </trkpt>
      <trkpt lat="42.00865" lon="35.11579">
        <ele>21.96093</ele>
        <time>2021-08-19T23:58:00.743Z</time>
      </trkpt>
      <trkpt lat="42.00868" lon="35.11582">
        <ele>21.920832</ele>
        <time>2021-08-19T23:58:01.489Z</time>
      </trkpt>
      <trkpt lat="42.00878" lon="35.11592">
        <ele>21.7698</ele>
        <time>2021-08-19T23:58:04.473Z</time>
      </trkpt>
      <trkpt lat="42.00934" lon="35.11644">
        <ele>20.981069</ele>
        <time>2021-08-19T23:58:22.220Z</time>
      </trkpt>
      <trkpt lat="42.00971" lon="35.11678">
        <ele>20.46585</ele>
        <time>2021-08-19T23:58:36.439Z</time>
      </trkpt>
      <trkpt lat="42.00998" lon="35.11704">
        <ele>20.767662</ele>
        <time>2021-08-19T23:58:49.329Z</time>
      </trkpt>
      <trkpt lat="42.01013" lon="35.11679">
        <ele>21.258697</ele>
        <time>2021-08-19T23:59:00.660Z</time>
      </trkpt>
      <trkpt lat="42.0105" lon="35.11624">
        <ele>22.413227</ele>
        <time>2021-08-19T23:59:24.191Z</time>
      </trkpt>
      <trkpt lat="42.01064" lon="35.116">
        <ele>22.892741</ele>
        <time>2021-08-19T23:59:35.101Z</time>
      </trkpt>
      <trkpt lat="42.01071" lon="35.11595">
        <ele>23.043424</ele>
        <time>2021-08-19T23:59:38.376Z</time>
      </trkpt>
      <trkpt lat="42.01077" lon="35.11597">
        <ele>23.189039</ele>
        <time>2021-08-19T23:59:41.863Z</time>
      </trkpt>
      <trkpt lat="42.01137" lon="35.11655">
        <ele>24.765963</ele>
        <time>2021-08-20T00:00:18.031Z</time>
      </trkpt>
      <trkpt lat="42.01139" lon="35.11658">
        <ele>24.823384</ele>
        <time>2021-08-20T00:00:18.944Z</time>
      </trkpt>
      <trkpt lat="42.0114" lon="35.11659">
        <ele>24.857194</ele>
        <time>2021-08-20T00:00:19.591Z</time>
      </trkpt>
      <trkpt lat="42.01144" lon="35.11663">
        <ele>24.960135</ele>
        <time>2021-08-20T00:00:21.711Z</time>
      </trkpt>
      <trkpt lat="42.01171" lon="35.11688">
        <ele>25.677866</ele>
        <time>2021-08-20T00:00:36.105Z</time>
      </trkpt>
      <trkpt lat="42.01184" lon="35.11692">
        <ele>25.984119</ele>
        <time>2021-08-20T00:00:42.458Z</time>
      </trkpt>
      <trkpt lat="42.01196" lon="35.11696">
        <ele>26.250044</ele>
        <time>2021-08-20T00:00:48.137Z</time>
      </trkpt>
      <trkpt lat="42.0125" lon="35.11722">
        <ele>27.516105</ele>
        <time>2021-08-20T00:01:11.497Z</time>
      </trkpt>
      <trkpt lat="42.01287" lon="35.11755">
        <ele>28.521231</ele>
        <time>2021-08-20T00:01:30.825Z</time>
      </trkpt>
      <trkpt lat="42.01345" lon="35.11808">
        <ele>30.247097</ele>
        <time>2021-08-20T00:02:04.677Z</time>
      </trkpt>
      <trkpt lat="42.01357" lon="35.11818">
        <ele>30.585501</ele>
        <time>2021-08-20T00:02:11.196Z</time>
      </trkpt>
      <trkpt lat="42.01385" lon="35.11828">
        <ele>31.296404</ele>
        <time>2021-08-20T00:02:23.899Z</time>
      </trkpt>
      <trkpt lat="42.01392" lon="35.1183">
        <ele>31.463162</ele>
        <time>2021-08-20T00:02:27.169Z</time>
      </trkpt>
      <trkpt lat="42.01399" lon="35.11826">
        <ele>31.645804</ele>
        <time>2021-08-20T00:02:30.231Z</time>
      </trkpt>
      <trkpt lat="42.01402" lon="35.11826">
        <ele>31.7363</ele>
        <time>2021-08-20T00:02:31.695Z</time>
      </trkpt>
      <trkpt lat="42.01418" lon="35.11826">
        <ele>32.125228</ele>
        <time>2021-08-20T00:02:38.620Z</time>
      </trkpt>
      <trkpt lat="42.01439" lon="35.11827">
        <ele>32.616485</ele>
        <time>2021-08-20T00:02:48.251Z</time>
      </trkpt>
      <trkpt lat="42.01458" lon="35.11828">
        <ele>33.072091</ele>
        <time>2021-08-20T00:02:57.932Z</time>
      </trkpt>
      <trkpt lat="42.01469" lon="35.11826">
        <ele>33.322363</ele>
        <time>2021-08-20T00:03:03.041Z</time>
      </trkpt>
      <trkpt lat="42.01483" lon="35.11825">
        <ele>33.63933</ele>
        <time>2021-08-20T00:03:09.179Z</time>
      </trkpt>
      <trkpt lat="42.01495" lon="35.11834">
        <ele>33.960457</ele>
        <time>2021-08-20T00:03:16.343Z</time>
      </trkpt>
      <trkpt lat="42.01505" lon="35.11843">
        <ele>34.240852</ele>
        <time>2021-08-20T00:03:21.650Z</time>
      </trkpt>
      <trkpt lat="42.01519" lon="35.11865">
        <ele>34.747925</ele>
        <time>2021-08-20T00:03:31.773Z</time>
      </trkpt>
      <trkpt lat="42.01535" lon="35.11889">
        <ele>35.306294</ele>
        <time>2021-08-20T00:03:42.282Z</time>
      </trkpt>
      <trkpt lat="42.01539" lon="35.11896">
        <ele>35.4604</ele>
        <time>2021-08-20T00:03:44.944Z</time>
      </trkpt>
      <trkpt lat="42.0154" lon="35.11899">
        <ele>35.511658</ele>
        <time>2021-08-20T00:03:46.690Z</time>
      </trkpt>
      <trkpt lat="42.01558" lon="35.1193">
        <ele>36.183544</ele>
        <time>2021-08-20T00:03:59.012Z</time>
      </trkpt>
      <trkpt lat="42.01566" lon="35.11949">
        <ele>36.565414</ele>
        <time>2021-08-20T00:04:05.986Z</time>
      </trkpt>
      <trkpt lat="42.01576" lon="35.11976">
        <ele>36.65046</ele>
        <time>2021-08-20T00:04:13.839Z</time>
      </trkpt>
      <trkpt lat="42.01581" lon="35.12013">
        <ele>36.715463</ele>
        <time>2021-08-20T00:04:23.848Z</time>
      </trkpt>
      <trkpt lat="42.01586" lon="35.12059">
        <ele>36.79449</ele>
        <time>2021-08-20T00:04:34.955Z</time>
      </trkpt>
      <trkpt lat="42.01582" lon="35.1211">
        <ele>36.883291</ele>
        <time>2021-08-20T00:04:47.977Z</time>
      </trkpt>
      <trkpt lat="42.01582" lon="35.12117">
        <ele>36.895835</ele>
        <time>2021-08-20T00:04:49.722Z</time>
      </trkpt>
      <trkpt lat="42.0158" lon="35.12127">
        <ele>36.913269</ele>
        <time>2021-08-20T00:04:51.790Z</time>
      </trkpt>
      <trkpt lat="42.0158" lon="35.12133">
        <ele>36.923699</ele>
        <time>2021-08-20T00:04:53.234Z</time>
      </trkpt>
      <trkpt lat="42.01577" lon="35.12163">
        <ele>36.97415</ele>
        <time>2021-08-20T00:05:00.415Z</time>
      </trkpt>
      <trkpt lat="42.01576" lon="35.1221">
        <ele>36.9784</ele>
        <time>2021-08-20T00:05:10.211Z</time>
      </trkpt>
      <trkpt lat="42.01581" lon="35.12224">
        <ele>36.951532</ele>
        <time>2021-08-20T00:05:12.993Z</time>
      </trkpt>
      <trkpt lat="42.01589" lon="35.12235">
        <ele>36.923662</ele>
        <time>2021-08-20T00:05:16.273Z</time>
      </trkpt>
      <trkpt lat="42.01663" lon="35.12302">
        <ele>36.712662</ele>
        <time>2021-08-20T00:05:40.661Z</time>
      </trkpt>
      <trkpt lat="42.01699" lon="35.12391">
        <ele>37.059549</ele>
        <time>2021-08-20T00:06:13.765Z</time>
      </trkpt>
      <trkpt lat="42.01717" lon="35.12439">
        <ele>37.829726</ele>
        <time>2021-08-20T00:06:31.652Z</time>
      </trkpt>
      <trkpt lat="42.01721" lon="35.12455">
        <ele>38.052944</ele>
        <time>2021-08-20T00:06:38.345Z</time>
      </trkpt>
      <trkpt lat="42.01729" lon="35.12466">
        <ele>38.283727</ele>
        <time>2021-08-20T00:06:41.971Z</time>
      </trkpt>
      <trkpt lat="42.0177" lon="35.12486">
        <ele>39.103134</ele>
        <time>2021-08-20T00:06:59.341Z</time>
      </trkpt>
      <trkpt lat="42.01781" lon="35.12524">
        <ele>39.690417</ele>
        <time>2021-08-20T00:07:12.704Z</time>
      </trkpt>
      <trkpt lat="42.01792" lon="35.12558">
        <ele>40.105362</ele>
        <time>2021-08-20T00:07:26.571Z</time>
      </trkpt>
      <trkpt lat="42.01797" lon="35.12567">
        <ele>40.173822</ele>
        <time>2021-08-20T00:07:28.939Z</time>
      </trkpt>
      <trkpt lat="42.01817" lon="35.12587">
        <ele>40.373988</ele>
        <time>2021-08-20T00:07:43.567Z</time>
      </trkpt>
      <trkpt lat="42.01839" lon="35.12611">
        <ele>40.601261</ele>
        <time>2021-08-20T00:07:54.084Z</time>
      </trkpt>
      <trkpt lat="42.01843" lon="35.12615">
        <ele>40.640233</ele>
        <time>2021-08-20T00:07:56.420Z</time>
      </trkpt>
      <trkpt lat="42.01883" lon="35.12643">
        <ele>41.008446</ele>
        <time>2021-08-20T00:08:09.888Z</time>
      </trkpt>
      <trkpt lat="42.01895" lon="35.12637">
        <ele>41.115103</ele>
        <time>2021-08-20T00:08:13.372Z</time>
      </trkpt>
      <trkpt lat="42.01913" lon="35.12601">
        <ele>41.373257</ele>
        <time>2021-08-20T00:08:21.963Z</time>
      </trkpt>
      <trkpt lat="42.01919" lon="35.12589">
        <ele>41.462895</ele>
        <time>2021-08-20T00:08:26.898Z</time>
      </trkpt>
      <trkpt lat="42.01925" lon="35.12593">
        <ele>41.580128</ele>
        <time>2021-08-20T00:08:29.278Z</time>
      </trkpt>
      <trkpt lat="42.01955" lon="35.12617">
        <ele>42.452412</ele>
        <time>2021-08-20T00:08:41.506Z</time>
      </trkpt>
      <trkpt lat="42.01963" lon="35.12636">
        <ele>42.875234</ele>
        <time>2021-08-20T00:08:47.930Z</time>
      </trkpt>
      <trkpt lat="42.01967" lon="35.12654">
        <ele>43.21835</ele>
        <time>2021-08-20T00:08:55.812Z</time>
      </trkpt>
      <trkpt lat="42.01976" lon="35.12742">
        <ele>44.876106</ele>
        <time>2021-08-20T00:09:28.795Z</time>
      </trkpt>
      <trkpt lat="42.01978" lon="35.12758">
        <ele>45.184057</ele>
        <time>2021-08-20T00:09:35.714Z</time>
      </trkpt>
      <trkpt lat="42.01988" lon="35.12791">
        <ele>45.83738</ele>
        <time>2021-08-20T00:09:47.237Z</time>
      </trkpt>
      <trkpt lat="42.01998" lon="35.12822">
        <ele>46.856751</ele>
        <time>2021-08-20T00:09:59.804Z</time>
      </trkpt>
      <trkpt lat="42.02015" lon="35.12857">
        <ele>48.243764</ele>
        <time>2021-08-20T00:10:16.870Z</time>
      </trkpt>
      <trkpt lat="42.02027" lon="35.12871">
        <ele>48.942618</ele>
        <time>2021-08-20T00:10:25.999Z</time>
      </trkpt>
      <trkpt lat="42.02025" lon="35.12919">
        <ele>50.540336</ele>
        <time>2021-08-20T00:10:47.864Z</time>
      </trkpt>
      <trkpt lat="42.02025" lon="35.12952">
        <ele>51.606528</ele>
        <time>2021-08-20T00:11:03.217Z</time>
      </trkpt>
      <trkpt lat="42.02026" lon="35.12978">
        <ele>52.49908</ele>
        <time>2021-08-20T00:11:16.148Z</time>
      </trkpt>
      <trkpt lat="42.02027" lon="35.12988">
        <ele>52.830933</ele>
        <time>2021-08-20T00:11:20.673Z</time>
      </trkpt>
      <trkpt lat="42.02028" lon="35.13007">
        <ele>53.453696</ele>
        <time>2021-08-20T00:11:29.287Z</time>
      </trkpt>
      <trkpt lat="42.02034" lon="35.13044">
        <ele>54.101317</ele>
        <time>2021-08-20T00:11:44.508Z</time>
      </trkpt>
      <trkpt lat="42.02046" lon="35.13117">
        <ele>54.458973</ele>
        <time>2021-08-20T00:12:07.284Z</time>
      </trkpt>
      <trkpt lat="42.02056" lon="35.13175">
        <ele>54.742562</ele>
        <time>2021-08-20T00:12:22.361Z</time>
      </trkpt>
      <trkpt lat="42.02061" lon="35.13206">
        <ele>54.893985</ele>
        <time>2021-08-20T00:12:29.209Z</time>
      </trkpt>
      <trkpt lat="42.02067" lon="35.13239">
        <ele>55.055213</ele>
        <time>2021-08-20T00:12:35.900Z</time>
      </trkpt>
      <trkpt lat="42.02077" lon="35.13292">
        <ele>53.822945</ele>
        <time>2021-08-20T00:12:45.388Z</time>
      </trkpt>
      <trkpt lat="42.02102" lon="35.13377">
        <ele>50.195929</ele>
        <time>2021-08-20T00:12:59.998Z</time>
      </trkpt>
      <trkpt lat="42.02121" lon="35.13419">
        <ele>48.222586</ele>
        <time>2021-08-20T00:13:07.450Z</time>
      </trkpt>
      <trkpt lat="42.02137" lon="35.13455">
        <ele>46.556387</ele>
        <time>2021-08-20T00:13:13.621Z</time>
      </trkpt>
      <trkpt lat="42.02164" lon="35.13507">
        <ele>43.49946</ele>
        <time>2021-08-20T00:13:22.979Z</time>
      </trkpt>
      <trkpt lat="42.0218" lon="35.1354">
        <ele>41.374407</ele>
        <time>2021-08-20T00:13:28.820Z</time>
      </trkpt>
      <trkpt lat="42.02184" lon="35.13548">
        <ele>40.826658</ele>
        <time>2021-08-20T00:13:30.290Z</time>
      </trkpt>
      <trkpt lat="42.02188" lon="35.13557">
        <ele>40.28273</ele>
        <time>2021-08-20T00:13:31.777Z</time>
      </trkpt>
      <trkpt lat="42.02194" lon="35.13576">
        <ele>39.16654</ele>
        <time>2021-08-20T00:13:34.809Z</time>
      </trkpt>
      <trkpt lat="42.022" lon="35.13601">
        <ele>37.733481</ele>
        <time>2021-08-20T00:13:38.671Z</time>
      </trkpt>
      <trkpt lat="42.02205" lon="35.13624">
        <ele>36.462547</ele>
        <time>2021-08-20T00:13:42.213Z</time>
      </trkpt>
      <trkpt lat="42.02206" lon="35.13627">
        <ele>36.283346</ele>
        <time>2021-08-20T00:13:42.715Z</time>
      </trkpt>
      <trkpt lat="42.02208" lon="35.13629">
        <ele>36.09924</ele>
        <time>2021-08-20T00:13:43.215Z</time>
      </trkpt>
      <trkpt lat="42.0221" lon="35.13631">
        <ele>35.922406</ele>
        <time>2021-08-20T00:13:43.710Z</time>
      </trkpt>
      <trkpt lat="42.02218" lon="35.13639">
        <ele>35.20141</ele>
        <time>2021-08-20T00:13:45.661Z</time>
      </trkpt>
      <trkpt lat="42.02228" lon="35.13649">
        <ele>34.317218</ele>
        <time>2021-08-20T00:13:48.163Z</time>
      </trkpt>
      <trkpt lat="42.02245" lon="35.13668">
        <ele>32.6744</ele>
        <time>2021-08-20T00:13:52.625Z</time>
      </trkpt>
      <trkpt lat="42.02271" lon="35.13723">
        <ele>30.297788</ele>
        <time>2021-08-20T00:14:02.567Z</time>
      </trkpt>
      <trkpt lat="42.02276" lon="35.13731">
        <ele>29.932418</ele>
        <time>2021-08-20T00:14:04.089Z</time>
      </trkpt>
      <trkpt lat="42.02289" lon="35.13753">
        <ele>28.924885</ele>
        <time>2021-08-20T00:14:08.484Z</time>
      </trkpt>
      <trkpt lat="42.02312" lon="35.13789">
        <ele>27.226645</ele>
        <time>2021-08-20T00:14:16.068Z</time>
      </trkpt>
      <trkpt lat="42.02331" lon="35.13812">
        <ele>26.028132</ele>
        <time>2021-08-20T00:14:21.567Z</time>
      </trkpt>
      <trkpt lat="42.02346" lon="35.1383">
        <ele>25.079779</ele>
        <time>2021-08-20T00:14:26.301Z</time>
      </trkpt>
      <trkpt lat="42.02372" lon="35.13855">
        <ele>23.743752</ele>
        <time>2021-08-20T00:14:33.713Z</time>
      </trkpt>
      <trkpt lat="42.02395" lon="35.13878">
        <ele>23.222848</ele>
        <time>2021-08-20T00:14:40.147Z</time>
      </trkpt>
      <trkpt lat="42.02404" lon="35.13887">
        <ele>23.014501</ele>
        <time>2021-08-20T00:14:42.944Z</time>
      </trkpt>
      <trkpt lat="42.02416" lon="35.139">
        <ele>22.746577</ele>
        <time>2021-08-20T00:14:46.408Z</time>
      </trkpt>
      <trkpt lat="42.02426" lon="35.13915">
        <ele>22.477508</ele>
        <time>2021-08-20T00:14:50.505Z</time>
      </trkpt>
      <trkpt lat="42.02442" lon="35.13947">
        <ele>21.948967</ele>
        <time>2021-08-20T00:14:57.673Z</time>
      </trkpt>
      <trkpt lat="42.02444" lon="35.13952">
        <ele>21.880079</ele>
        <time>2021-08-20T00:14:59.067Z</time>
      </trkpt>
      <trkpt lat="42.02466" lon="35.14006">
        <ele>21.041441</ele>
        <time>2021-08-20T00:15:11.636Z</time>
      </trkpt>
      <trkpt lat="42.02483" lon="35.14048">
        <ele>20.558581</ele>
        <time>2021-08-20T00:15:21.400Z</time>
      </trkpt>
      <trkpt lat="42.02492" lon="35.14071">
        <ele>20.481234</ele>
        <time>2021-08-20T00:15:26.580Z</time>
      </trkpt>
      <trkpt lat="42.02517" lon="35.14142">
        <ele>20.244938</ele>
        <time>2021-08-20T00:15:42.865Z</time>
      </trkpt>
      <trkpt lat="42.0252" lon="35.14152">
        <ele>20.212312</ele>
        <time>2021-08-20T00:15:45.076Z</time>
      </trkpt>
      <trkpt lat="42.02524" lon="35.14164">
        <ele>20.170627</ele>
        <time>2021-08-20T00:15:47.912Z</time>
      </trkpt>
      <trkpt lat="42.02527" lon="35.14174">
        <ele>20.138162</ele>
        <time>2021-08-20T00:15:50.128Z</time>
      </trkpt>
      <trkpt lat="42.02537" lon="35.14183">
        <ele>20.089173</ele>
        <time>2021-08-20T00:15:54.637Z</time>
      </trkpt>
      <trkpt lat="42.02547" lon="35.14181">
        <ele>20.051474</ele>
        <time>2021-08-20T00:15:58.373Z</time>
      </trkpt>
      <trkpt lat="42.02553" lon="35.14177">
        <ele>20.023824</ele>
        <time>2021-08-20T00:16:01.151Z</time>
      </trkpt>
      <trkpt lat="42.02547" lon="35.14181">
        <ele>19.996173</ele>
        <time>2021-08-20T00:16:03.943Z</time>
      </trkpt>
      <trkpt lat="42.02537" lon="35.14183">
        <ele>19.958474</ele>
        <time>2021-08-20T00:16:07.767Z</time>
      </trkpt>
      <trkpt lat="42.02527" lon="35.14174">
        <ele>19.909486</ele>
        <time>2021-08-20T00:16:13.228Z</time>
      </trkpt>
      <trkpt lat="42.02524" lon="35.14164">
        <ele>19.87702</ele>
        <time>2021-08-20T00:16:16.068Z</time>
      </trkpt>
      <trkpt lat="42.0252" lon="35.14152">
        <ele>19.961304</ele>
        <time>2021-08-20T00:16:19.733Z</time>
      </trkpt>
      <trkpt lat="42.02517" lon="35.14142">
        <ele>20.031777</ele>
        <time>2021-08-20T00:16:22.591Z</time>
      </trkpt>
      <trkpt lat="42.02492" lon="35.14071">
        <ele>20.542187</ele>
        <time>2021-08-20T00:16:43.049Z</time>
      </trkpt>
      <trkpt lat="42.02483" lon="35.14048">
        <ele>20.709259</ele>
        <time>2021-08-20T00:16:49.974Z</time>
      </trkpt>
      <trkpt lat="42.02466" lon="35.14006">
        <ele>21.024024</ele>
        <time>2021-08-20T00:17:03.003Z</time>
      </trkpt>
      <trkpt lat="42.02444" lon="35.13952">
        <ele>21.430163</ele>
        <time>2021-08-20T00:17:19.923Z</time>
      </trkpt>
      <trkpt lat="42.02442" lon="35.13947">
        <ele>21.482229</ele>
        <time>2021-08-20T00:17:20.949Z</time>
      </trkpt>
      <trkpt lat="42.02426" lon="35.13915">
        <ele>22.345702</ele>
        <time>2021-08-20T00:17:33.414Z</time>
      </trkpt>
      <trkpt lat="42.02416" lon="35.139">
        <ele>22.785276</ele>
        <time>2021-08-20T00:17:38.657Z</time>
      </trkpt>
      <trkpt lat="42.02404" lon="35.13887">
        <ele>23.222981</ele>
        <time>2021-08-20T00:17:45.537Z</time>
      </trkpt>
      <trkpt lat="42.02395" lon="35.13878">
        <ele>23.563356</ele>
        <time>2021-08-20T00:17:50.565Z</time>
      </trkpt>
      <trkpt lat="42.02372" lon="35.13855">
        <ele>24.41435</ele>
        <time>2021-08-20T00:18:05.076Z</time>
      </trkpt>
      <trkpt lat="42.02346" lon="35.1383">
        <ele>25.370728</ele>
        <time>2021-08-20T00:18:20.761Z</time>
      </trkpt>
      <trkpt lat="42.02331" lon="35.13812">
        <ele>25.958484</ele>
        <time>2021-08-20T00:18:29.934Z</time>
      </trkpt>
      <trkpt lat="42.02312" lon="35.13789">
        <ele>26.701282</ele>
        <time>2021-08-20T00:18:43.885Z</time>
      </trkpt>
      <trkpt lat="42.02289" lon="35.13753">
        <ele>28.77536</ele>
        <time>2021-08-20T00:19:05.340Z</time>
      </trkpt>
      <trkpt lat="42.02276" lon="35.13731">
        <ele>30.059701</ele>
        <time>2021-08-20T00:19:18.836Z</time>
      </trkpt>
      <trkpt lat="42.02271" lon="35.13723">
        <ele>30.525452</ele>
        <time>2021-08-20T00:19:24.182Z</time>
      </trkpt>
      <trkpt lat="42.02245" lon="35.13668">
        <ele>33.467154</ele>
        <time>2021-08-20T00:19:56.318Z</time>
      </trkpt>
      <trkpt lat="42.02235" lon="35.13648">
        <ele>34.578373</ele>
        <time>2021-08-20T00:20:10.463Z</time>
      </trkpt>
      <trkpt lat="42.02229" lon="35.13633">
        <ele>35.346878</ele>
        <time>2021-08-20T00:20:19.018Z</time>
      </trkpt>
      <trkpt lat="42.0222" lon="35.13616">
        <ele>36.293074</ele>
        <time>2021-08-20T00:20:30.403Z</time>
      </trkpt>
      <trkpt lat="42.02218" lon="35.13613">
        <ele>36.464039</ele>
        <time>2021-08-20T00:20:32.364Z</time>
      </trkpt>
      <trkpt lat="42.0221" lon="35.13596">
        <ele>37.395571</ele>
        <time>2021-08-20T00:20:43.105Z</time>
      </trkpt>
      <trkpt lat="42.02198" lon="35.13573">
        <ele>38.36646</ele>
        <time>2021-08-20T00:20:57.459Z</time>
      </trkpt>
      <trkpt lat="42.02188" lon="35.13557">
        <ele>39.026091</ele>
        <time>2021-08-20T00:21:07.711Z</time>
      </trkpt>
      <trkpt lat="42.02184" lon="35.13548">
        <ele>39.343043</ele>
        <time>2021-08-20T00:21:11.917Z</time>
      </trkpt>
      <trkpt lat="42.02183" lon="35.13525">
        <ele>40.098303</ele>
        <time>2021-08-20T00:21:23.015Z</time>
      </trkpt>
      <trkpt lat="42.02182" lon="35.1349">
        <ele>41.197141</ele>
        <time>2021-08-20T00:21:36.804Z</time>
      </trkpt>
      <trkpt lat="42.0218" lon="35.13475">
        <ele>41.666506</ele>
        <time>2021-08-20T00:21:42.890Z</time>
      </trkpt>
      <trkpt lat="42.02181" lon="35.13435">
        <ele>42.939175</ele>
        <time>2021-08-20T00:21:57.439Z</time>
      </trkpt>
      <trkpt lat="42.02196" lon="35.13398">
        <ele>44.250346</ele>
        <time>2021-08-20T00:22:12.617Z</time>
      </trkpt>
      <trkpt lat="42.02232" lon="35.13306">
        <ele>46.07204</ele>
        <time>2021-08-20T00:22:48.518Z</time>
      </trkpt>
      <trkpt lat="42.02243" lon="35.13268">
        <ele>46.489904</ele>
        <time>2021-08-20T00:23:00.616Z</time>
      </trkpt>
      <trkpt lat="42.02248" lon="35.13227">
        <ele>46.92542</ele>
        <time>2021-08-20T00:23:12.062Z</time>
      </trkpt>
      <trkpt lat="42.02252" lon="35.13144">
        <ele>47.778768</ele>
        <time>2021-08-20T00:23:32.308Z</time>
      </trkpt>
      <trkpt lat="42.02257" lon="35.13064">
        <ele>47.525259</ele>
        <time>2021-08-20T00:23:52.864Z</time>
      </trkpt>
      <trkpt lat="42.02263" lon="35.12981">
        <ele>47.13722</ele>
        <time>2021-08-20T00:24:11.397Z</time>
      </trkpt>
      <trkpt lat="42.02262" lon="35.12956">
        <ele>47.01844</ele>
        <time>2021-08-20T00:24:16.354Z</time>
      </trkpt>
      <trkpt lat="42.02259" lon="35.12912">
        <ele>46.810774</ele>
        <time>2021-08-20T00:24:24.432Z</time>
      </trkpt>
      <trkpt lat="42.02257" lon="35.12895">
        <ele>46.733328</ele>
        <time>2021-08-20T00:24:27.411Z</time>
      </trkpt>
      <trkpt lat="42.02238" lon="35.12754">
        <ele>44.750633</ele>
        <time>2021-08-20T00:24:53.508Z</time>
      </trkpt>
      <trkpt lat="42.02233" lon="35.12722">
        <ele>44.297046</ele>
        <time>2021-08-20T00:24:59.661Z</time>
      </trkpt>
      <trkpt lat="42.02227" lon="35.12696">
        <ele>43.916264</ele>
        <time>2021-08-20T00:25:04.855Z</time>
      </trkpt>
      <trkpt lat="42.02215" lon="35.12667">
        <ele>43.462716</ele>
        <time>2021-08-20T00:25:11.105Z</time>
      </trkpt>
      <trkpt lat="42.022" lon="35.1261">
        <ele>42.071069</ele>
        <time>2021-08-20T00:25:22.883Z</time>
      </trkpt>
      <trkpt lat="42.02186" lon="35.12568">
        <ele>40.955679</ele>
        <time>2021-08-20T00:25:31.789Z</time>
      </trkpt>
      <trkpt lat="42.02164" lon="35.12529">
        <ele>39.771609</ele>
        <time>2021-08-20T00:25:40.131Z</time>
      </trkpt>
      <trkpt lat="42.02145" lon="35.12479">
        <ele>38.421314</ele>
        <time>2021-08-20T00:25:49.142Z</time>
      </trkpt>
      <trkpt lat="42.02142" lon="35.1246">
        <ele>37.96516</ele>
        <time>2021-08-20T00:25:51.902Z</time>
      </trkpt>
      <trkpt lat="42.02144" lon="35.12434">
        <ele>37.186616</ele>
        <time>2021-08-20T00:25:56.283Z</time>
      </trkpt>
      <trkpt lat="42.02151" lon="35.12408">
        <ele>36.005257</ele>
        <time>2021-08-20T00:26:00.465Z</time>
      </trkpt>
      <trkpt lat="42.02164" lon="35.12382">
        <ele>34.682335</ele>
        <time>2021-08-20T00:26:05.638Z</time>
      </trkpt>
      <trkpt lat="42.02175" lon="35.12378">
        <ele>34.07058</ele>
        <time>2021-08-20T00:26:07.712Z</time>
      </trkpt>
      <trkpt lat="42.02196" lon="35.12384">
        <ele>32.871585</ele>
        <time>2021-08-20T00:26:12.569Z</time>
      </trkpt>
      <trkpt lat="42.02204" lon="35.12381">
        <ele>32.394798</ele>
        <time>2021-08-20T00:26:14.163Z</time>
      </trkpt>
      <trkpt lat="42.0221" lon="35.12372">
        <ele>31.871022</ele>
        <time>2021-08-20T00:26:16.041Z</time>
      </trkpt>
      <trkpt lat="42.02255" lon="35.12167">
        <ele>24.891532</ele>
        <time>2021-08-20T00:26:49.301Z</time>
      </trkpt>
      <trkpt lat="42.02261" lon="35.12095">
        <ele>23.161535</ele>
        <time>2021-08-20T00:27:02.923Z</time>
      </trkpt>
      <trkpt lat="42.02261" lon="35.12085">
        <ele>22.926312</ele>
        <time>2021-08-20T00:27:04.795Z</time>
      </trkpt>
      <trkpt lat="42.02251" lon="35.12">
        <ele>21.58661</ele>
        <time>2021-08-20T00:27:21.363Z</time>
      </trkpt>
      <trkpt lat="42.02269" lon="35.11883">
        <ele>21.229446</ele>
        <time>2021-08-20T00:27:47.288Z</time>
      </trkpt>
      <trkpt lat="42.02272" lon="35.11857">
        <ele>21.150069</ele>
        <time>2021-08-20T00:27:53.188Z</time>
      </trkpt>
      <trkpt lat="42.02274" lon="35.11844">
        <ele>21.108984</ele>
        <time>2021-08-20T00:27:56.848Z</time>
      </trkpt>
      <trkpt lat="42.02272" lon="35.1178">
        <ele>20.930348</ele>
        <time>2021-08-20T00:28:12.128Z</time>
      </trkpt>
      <trkpt lat="42.02273" lon="35.11744">
        <ele>20.852353</ele>
        <time>2021-08-20T00:28:21.067Z</time>
      </trkpt>
      <trkpt lat="42.0227" lon="35.11651">
        <ele>20.648947</ele>
        <time>2021-08-20T00:28:42.409Z</time>
      </trkpt>
      <trkpt lat="42.02268" lon="35.11557">
        <ele>20.445752</ele>
        <time>2021-08-20T00:29:02.204Z</time>
      </trkpt>
      <trkpt lat="42.02274" lon="35.11488">
        <ele>19.834564</ele>
        <time>2021-08-20T00:29:16.074Z</time>
      </trkpt>
      <trkpt lat="42.02283" lon="35.11421">
        <ele>19.200208</ele>
        <time>2021-08-20T00:29:29.465Z</time>
      </trkpt>
      <trkpt lat="42.02293" lon="35.11369">
        <ele>18.713814</ele>
        <time>2021-08-20T00:29:39.612Z</time>
      </trkpt>
      <trkpt lat="42.02317" lon="35.11188">
        <ele>16.708553</ele>
        <time>2021-08-20T00:30:14.854Z</time>
      </trkpt>
      <trkpt lat="42.02312" lon="35.11142">
        <ele>16.171745</ele>
        <time>2021-08-20T00:30:23.636Z</time>
      </trkpt>
      <trkpt lat="42.02291" lon="35.11083">
        <ele>15.417483</ele>
        <time>2021-08-20T00:30:35.598Z</time>
      </trkpt>
      <trkpt lat="42.02291" lon="35.11015">
        <ele>15.272774</ele>
        <time>2021-08-20T00:30:48.790Z</time>
      </trkpt>
      <trkpt lat="42.02299" lon="35.10867">
        <ele>15.00428</ele>
        <time>2021-08-20T00:31:21.353Z</time>
      </trkpt>
      <trkpt lat="42.02293" lon="35.10826">
        <ele>15.322504</ele>
        <time>2021-08-20T00:31:33.466Z</time>
      </trkpt>
      <trkpt lat="42.02267" lon="35.10715">
        <ele>18.398022</ele>
        <time>2021-08-20T00:32:14.275Z</time>
      </trkpt>
      <trkpt lat="42.02261" lon="35.10668">
        <ele>19.654353</ele>
        <time>2021-08-20T00:32:34.221Z</time>
      </trkpt>
      <trkpt lat="42.02245" lon="35.10603">
        <ele>21.547717</ele>
        <time>2021-08-20T00:33:04.454Z</time>
      </trkpt>
      <trkpt lat="42.0221" lon="35.10479">
        <ele>27.391327</ele>
        <time>2021-08-20T00:34:09.744Z</time>
      </trkpt>
      <trkpt lat="42.02179" lon="35.10401">
        <ele>31.319668</ele>
        <time>2021-08-20T00:34:54.096Z</time>
      </trkpt>
      <trkpt lat="42.02162" lon="35.10376">
        <ele>32.504263</ele>
        <time>2021-08-20T00:35:10.270Z</time>
      </trkpt>
      <trkpt lat="42.02149" lon="35.10358">
        <ele>33.210218</ele>
        <time>2021-08-20T00:35:21.123Z</time>
      </trkpt>
      <trkpt lat="42.02111" lon="35.10324">
        <ele>34.921036</ele>
        <time>2021-08-20T00:35:46.577Z</time>
      </trkpt>
      <trkpt lat="42.02105" lon="35.10316">
        <ele>35.22721</ele>
        <time>2021-08-20T00:35:51.961Z</time>
      </trkpt>
      <trkpt lat="42.02101" lon="35.10304">
        <ele>35.615573</ele>
        <time>2021-08-20T00:35:56.784Z</time>
      </trkpt>
      <trkpt lat="42.021" lon="35.10277">
        <ele>36.349552</ele>
        <time>2021-08-20T00:36:06.795Z</time>
      </trkpt>
      <trkpt lat="42.02102" lon="35.10262">
        <ele>36.786574</ele>
        <time>2021-08-20T00:36:12.803Z</time>
      </trkpt>
      <trkpt lat="42.02102" lon="35.10229">
        <ele>37.70607</ele>
        <time>2021-08-20T00:36:24.264Z</time>
      </trkpt>
      <trkpt lat="42.02098" lon="35.10207">
        <ele>38.316543</ele>
        <time>2021-08-20T00:36:31.539Z</time>
      </trkpt>
      <trkpt lat="42.02083" lon="35.10147">
        <ele>39.068914</ele>
        <time>2021-08-20T00:36:48.229Z</time>
      </trkpt>
      <trkpt lat="42.02071" lon="35.10109">
        <ele>39.355614</ele>
        <time>2021-08-20T00:36:59.943Z</time>
      </trkpt>
      <trkpt lat="42.0206" lon="35.10067">
        <ele>39.664685</ele>
        <time>2021-08-20T00:37:11.337Z</time>
      </trkpt>
      <trkpt lat="42.02039" lon="35.10008">
        <ele>40.113451</ele>
        <time>2021-08-20T00:37:27.526Z</time>
      </trkpt>
      <trkpt lat="42.02035" lon="35.10001">
        <ele>40.172908</ele>
        <time>2021-08-20T00:37:30.243Z</time>
      </trkpt>
      <trkpt lat="42.02018" lon="35.09971">
        <ele>40.456726</ele>
        <time>2021-08-20T00:37:39.647Z</time>
      </trkpt>
      <trkpt lat="42.02013" lon="35.09963">
        <ele>40.569129</ele>
        <time>2021-08-20T00:37:42.881Z</time>
      </trkpt>
      <trkpt lat="42.01996" lon="35.09939">
        <ele>40.93179</ele>
        <time>2021-08-20T00:37:51.275Z</time>
      </trkpt>
      <trkpt lat="42.01977" lon="35.09918">
        <ele>41.297365</ele>
        <time>2021-08-20T00:38:00.918Z</time>
      </trkpt>
      <trkpt lat="42.01955" lon="35.09894">
        <ele>41.702103</ele>
        <time>2021-08-20T00:38:11.916Z</time>
      </trkpt>
      <trkpt lat="42.01875" lon="35.09824">
        <ele>43.054803</ele>
        <time>2021-08-20T00:38:52.475Z</time>
      </trkpt>
      <trkpt lat="42.01869" lon="35.09808">
        <ele>43.055264</ele>
        <time>2021-08-20T00:38:57.869Z</time>
      </trkpt>
      <trkpt lat="42.01868" lon="35.09805">
        <ele>43.055366</ele>
        <time>2021-08-20T00:38:58.979Z</time>
      </trkpt>
      <trkpt lat="42.01864" lon="35.09794">
        <ele>43.055676</ele>
        <time>2021-08-20T00:39:03.471Z</time>
      </trkpt>
      <trkpt lat="42.01859" lon="35.09763">
        <ele>43.056516</ele>
        <time>2021-08-20T00:39:11.602Z</time>
      </trkpt>
      <trkpt lat="42.01873" lon="35.09692">
        <ele>43.058443</ele>
        <time>2021-08-20T00:39:29.942Z</time>
      </trkpt>
      <trkpt lat="42.01875" lon="35.09652">
        <ele>43.059482</ele>
        <time>2021-08-20T00:39:38.440Z</time>
      </trkpt>
      <trkpt lat="42.01868" lon="35.09605">
        <ele>43.060747</ele>
        <time>2021-08-20T00:39:48.053Z</time>
      </trkpt>
      <trkpt lat="42.01856" lon="35.09602">
        <ele>42.825666</ele>
        <time>2021-08-20T00:39:51.340Z</time>
      </trkpt>
      <trkpt lat="42.01863" lon="35.09578">
        <ele>41.969263</ele>
        <time>2021-08-20T00:39:55.718Z</time>
      </trkpt>
      <trkpt lat="42.01872" lon="35.09477">
        <ele>38.545052</ele>
        <time>2021-08-20T00:40:12.775Z</time>
      </trkpt>
      <trkpt lat="42.01909" lon="35.09259">
        <ele>29.708781</ele>
        <time>2021-08-20T00:40:46.391Z</time>
      </trkpt>
      <trkpt lat="42.0192" lon="35.09201">
        <ele>26.973415</ele>
        <time>2021-08-20T00:40:55.576Z</time>
      </trkpt>
      <trkpt lat="42.01922" lon="35.09189">
        <ele>26.448451</ele>
        <time>2021-08-20T00:40:57.379Z</time>
      </trkpt>
      <trkpt lat="42.01923" lon="35.09179">
        <ele>25.990096</ele>
        <time>2021-08-20T00:40:58.962Z</time>
      </trkpt>
      <trkpt lat="42.01944" lon="35.09135">
        <ele>23.73757</ele>
        <time>2021-08-20T00:41:07.184Z</time>
      </trkpt>
      <trkpt lat="42.01949" lon="35.09129">
        <ele>23.503202</ele>
        <time>2021-08-20T00:41:08.401Z</time>
      </trkpt>
      <trkpt lat="42.02002" lon="35.09047">
        <ele>20.342433</ele>
        <time>2021-08-20T00:41:25.805Z</time>
      </trkpt>
      <trkpt lat="42.02019" lon="35.09004">
        <ele>18.920075</ele>
        <time>2021-08-20T00:41:34.147Z</time>
      </trkpt>
      <trkpt lat="42.0205" lon="35.08896">
        <ele>16.119532</ele>
        <time>2021-08-20T00:41:54.530Z</time>
      </trkpt>
      <trkpt lat="42.02094" lon="35.08737">
        <ele>13.146074</ele>
        <time>2021-08-20T00:42:24.784Z</time>
      </trkpt>
      <trkpt lat="42.0216" lon="35.0853">
        <ele>10.075733</ele>
        <time>2021-08-20T00:43:06.453Z</time>
      </trkpt>
      <trkpt lat="42.02179" lon="35.08499">
        <ele>9.553352</ele>
        <time>2021-08-20T00:43:14.261Z</time>
      </trkpt>
      <trkpt lat="42.02186" lon="35.08487">
        <ele>9.421125</ele>
        <time>2021-08-20T00:43:17.451Z</time>
      </trkpt>
      <trkpt lat="42.02249" lon="35.08429">
        <ele>8.62812</ele>
        <time>2021-08-20T00:43:37.818Z</time>
      </trkpt>
      <trkpt lat="42.02258" lon="35.08423">
        <ele>8.525159</ele>
        <time>2021-08-20T00:43:40.524Z</time>
      </trkpt>
      <trkpt lat="42.02267" lon="35.08418">
        <ele>8.428561</ele>
        <time>2021-08-20T00:43:42.988Z</time>
      </trkpt>
      <trkpt lat="42.02351" lon="35.08362">
        <ele>7.454524</ele>
        <time>2021-08-20T00:44:08.922Z</time>
      </trkpt>
      <trkpt lat="42.02399" lon="35.08329">
        <ele>6.910071</ele>
        <time>2021-08-20T00:44:23.518Z</time>
      </trkpt>
      <trkpt lat="42.02434" lon="35.08302">
        <ele>6.495501</ele>
        <time>2021-08-20T00:44:34.253Z</time>
      </trkpt>
      <trkpt lat="42.02454" lon="35.08274">
        <ele>6.200425</ele>
        <time>2021-08-20T00:44:41.943Z</time>
      </trkpt>
      <trkpt lat="42.02491" lon="35.08201">
        <ele>5.626092</ele>
        <time>2021-08-20T00:44:59.704Z</time>
      </trkpt>
      <trkpt lat="42.02505" lon="35.08162">
        <ele>5.405421</ele>
        <time>2021-08-20T00:45:08.405Z</time>
      </trkpt>
      <trkpt lat="42.0253" lon="35.08082">
        <ele>4.958051</ele>
        <time>2021-08-20T00:45:26.386Z</time>
      </trkpt>
      <trkpt lat="42.02563" lon="35.07934">
        <ele>4.56075</ele>
        <time>2021-08-20T00:46:00.312Z</time>
      </trkpt>
      <trkpt lat="42.02575" lon="35.07882">
        <ele>4.544686</ele>
        <time>2021-08-20T00:46:13.129Z</time>
      </trkpt>
      <trkpt lat="42.02581" lon="35.07857">
        <ele>4.537184</ele>
        <time>2021-08-20T00:46:19.280Z</time>
      </trkpt>
      <trkpt lat="42.02654" lon="35.07584">
        <ele>4.715966</ele>
        <time>2021-08-20T00:47:29.050Z</time>
      </trkpt>
      <trkpt lat="42.02781" lon="35.0717">
        <ele>4.53599</ele>
        <time>2021-08-20T00:49:11.136Z</time>
      </trkpt>
      <trkpt lat="42.02823" lon="35.07058">
        <ele>4.552186</ele>
        <time>2021-08-20T00:49:39.994Z</time>
      </trkpt>
      <trkpt lat="42.02838" lon="35.07016">
        <ele>4.591029</ele>
        <time>2021-08-20T00:49:51.030Z</time>
      </trkpt>
      <trkpt lat="42.02867" lon="35.0694">
        <ele>4.661404</ele>
        <time>2021-08-20T00:50:11.304Z</time>
      </trkpt>
      <trkpt lat="42.0289" lon="35.06874">
        <ele>4.756467</ele>
        <time>2021-08-20T00:50:28.766Z</time>
      </trkpt>
      <trkpt lat="42.0297" lon="35.06657">
        <ele>5.304924</ele>
        <time>2021-08-20T00:51:28.723Z</time>
      </trkpt>
      <trkpt lat="42.03011" lon="35.06535">
        <ele>5.370581</ele>
        <time>2021-08-20T00:52:00.189Z</time>
      </trkpt>
      <trkpt lat="42.03023" lon="35.065">
        <ele>5.389263</ele>
        <time>2021-08-20T00:52:08.998Z</time>
      </trkpt>
      <trkpt lat="42.03062" lon="35.06392">
        <ele>5.3574</ele>
        <time>2021-08-20T00:52:36.244Z</time>
      </trkpt>
      <trkpt lat="42.03083" lon="35.06332">
        <ele>5.305633</ele>
        <time>2021-08-20T00:52:51.353Z</time>
      </trkpt>
      <trkpt lat="42.031" lon="35.06288">
        <ele>5.267337</ele>
        <time>2021-08-20T00:53:02.259Z</time>
      </trkpt>
      <trkpt lat="42.03138" lon="35.06182">
        <ele>5.234894</ele>
        <time>2021-08-20T00:53:29.402Z</time>
      </trkpt>
      <trkpt lat="42.03168" lon="35.0609">
        <ele>5.250425</ele>
        <time>2021-08-20T00:53:53.708Z</time>
      </trkpt>
      <trkpt lat="42.03171" lon="35.06044">
        <ele>5.257612</ele>
        <time>2021-08-20T00:54:04.623Z</time>
      </trkpt>
      <trkpt lat="42.03164" lon="35.05978">
        <ele>5.251385</ele>
        <time>2021-08-20T00:54:19.369Z</time>
      </trkpt>
      <trkpt lat="42.03158" lon="35.05959">
        <ele>5.244664</ele>
        <time>2021-08-20T00:54:24.227Z</time>
      </trkpt>
      <trkpt lat="42.03149" lon="35.0593">
        <ele>5.234633</ele>
        <time>2021-08-20T00:54:30.985Z</time>
      </trkpt>
      <trkpt lat="42.03142" lon="35.05898">
        <ele>5.223729</ele>
        <time>2021-08-20T00:54:38.643Z</time>
      </trkpt>
      <trkpt lat="42.03137" lon="35.0581">
        <ele>5.194833</ele>
        <time>2021-08-20T00:54:59.318Z</time>
      </trkpt>
      <trkpt lat="42.03142" lon="35.05796">
        <ele>5.190147</ele>
        <time>2021-08-20T00:55:02.399Z</time>
      </trkpt>
      <trkpt lat="42.03146" lon="35.05784">
        <ele>5.185675</ele>
        <time>2021-08-20T00:55:05.918Z</time>
      </trkpt>
      <trkpt lat="42.03189" lon="35.05707">
        <ele>5.328725</ele>
        <time>2021-08-20T00:55:28.642Z</time>
      </trkpt>
      <trkpt lat="42.03201" lon="35.05687">
        <ele>5.368788</ele>
        <time>2021-08-20T00:55:34.580Z</time>
      </trkpt>
      <trkpt lat="42.03332" lon="35.0547">
        <ele>5.695258</ele>
        <time>2021-08-20T00:56:43.001Z</time>
      </trkpt>
      <trkpt lat="42.03382" lon="35.05387">
        <ele>5.76497</ele>
        <time>2021-08-20T00:57:06.787Z</time>
      </trkpt>
      <trkpt lat="42.03384" lon="35.05384">
        <ele>5.764607</ele>
        <time>2021-08-20T00:57:07.753Z</time>
      </trkpt>
      <trkpt lat="42.03413" lon="35.05337">
        <ele>5.759207</ele>
        <time>2021-08-20T00:57:21.855Z</time>
      </trkpt>
      <trkpt lat="42.03445" lon="35.05289">
        <ele>5.753465</ele>
        <time>2021-08-20T00:57:36.766Z</time>
      </trkpt>
      <trkpt lat="42.03455" lon="35.05276">
        <ele>5.751836</ele>
        <time>2021-08-20T00:57:40.967Z</time>
      </trkpt>
      <trkpt lat="42.03465" lon="35.05273">
        <ele>5.750559</ele>
        <time>2021-08-20T00:57:44.367Z</time>
      </trkpt>
      <trkpt lat="42.03488" lon="35.05263">
        <ele>5.747748</ele>
        <time>2021-08-20T00:57:51.608Z</time>
      </trkpt>
      <trkpt lat="42.03509" lon="35.05257">
        <ele>5.745183</ele>
        <time>2021-08-20T00:57:58.391Z</time>
      </trkpt>
      <trkpt lat="42.03534" lon="35.0525">
        <ele>5.77456</ele>
        <time>2021-08-20T00:58:06.520Z</time>
      </trkpt>
      <trkpt lat="42.03555" lon="35.05236">
        <ele>5.802559</ele>
        <time>2021-08-20T00:58:14.165Z</time>
      </trkpt>
      <trkpt lat="42.03575" lon="35.05212">
        <ele>5.834058</ele>
        <time>2021-08-20T00:58:22.960Z</time>
      </trkpt>
      <trkpt lat="42.03655" lon="35.05078">
        <ele>5.909309</ele>
        <time>2021-08-20T00:59:03.724Z</time>
      </trkpt>
      <trkpt lat="42.03667" lon="35.0506">
        <ele>5.875394</ele>
        <time>2021-08-20T00:59:08.831Z</time>
      </trkpt>
      <trkpt lat="42.03693" lon="35.05019">
        <ele>5.796972</ele>
        <time>2021-08-20T00:59:20.930Z</time>
      </trkpt>
      <trkpt lat="42.03699" lon="35.05009">
        <ele>5.779067</ele>
        <time>2021-08-20T00:59:23.750Z</time>
      </trkpt>
      <trkpt lat="42.03739" lon="35.0494">
        <ele>5.652479</ele>
        <time>2021-08-20T00:59:43.088Z</time>
      </trkpt>
      <trkpt lat="42.03757" lon="35.04909">
        <ele>5.583865</ele>
        <time>2021-08-20T00:59:51.864Z</time>
      </trkpt>
      <trkpt lat="42.03769" lon="35.04889">
        <ele>5.514994</ele>
        <time>2021-08-20T00:59:57.492Z</time>
      </trkpt>
      <trkpt lat="42.0381" lon="35.04817">
        <ele>5.265616</ele>
        <time>2021-08-20T01:00:17.342Z</time>
      </trkpt>
      <trkpt lat="42.03818" lon="35.04805">
        <ele>5.224087</ele>
        <time>2021-08-20T01:00:20.513Z</time>
      </trkpt>
      <trkpt lat="42.03827" lon="35.04791">
        <ele>5.172858</ele>
        <time>2021-08-20T01:00:24.646Z</time>
      </trkpt>
      <trkpt lat="42.03842" lon="35.04767">
        <ele>5.085745</ele>
        <time>2021-08-20T01:00:31.435Z</time>
      </trkpt>
      <trkpt lat="42.03853" lon="35.0475">
        <ele>5.025225</ele>
        <time>2021-08-20T01:00:36.296Z</time>
      </trkpt>
      <trkpt lat="42.03872" lon="35.04722">
        <ele>4.953542</ele>
        <time>2021-08-20T01:00:44.368Z</time>
      </trkpt>
      <trkpt lat="42.03879" lon="35.04713">
        <ele>4.968858</ele>
        <time>2021-08-20T01:00:47.359Z</time>
      </trkpt>
      <trkpt lat="42.03887" lon="35.04705">
        <ele>4.984841</ele>
        <time>2021-08-20T01:00:50.411Z</time>
      </trkpt>
      <trkpt lat="42.03906" lon="35.04685">
        <ele>5.022648</ele>
        <time>2021-08-20T01:00:58.186Z</time>
      </trkpt>
      <trkpt lat="42.03953" lon="35.04635">
        <ele>5.117878</ele>
        <time>2021-08-20T01:01:18.103Z</time>
      </trkpt>
      <trkpt lat="42.03985" lon="35.04606">
        <ele>5.178567</ele>
        <time>2021-08-20T01:01:29.920Z</time>
      </trkpt>
      <trkpt lat="42.04031" lon="35.04566">
        <ele>5.428749</ele>
        <time>2021-08-20T01:01:48.500Z</time>
      </trkpt>
      <trkpt lat="42.04045" lon="35.04554">
        <ele>5.571921</ele>
        <time>2021-08-20T01:01:54.312Z</time>
      </trkpt>
      <trkpt lat="42.0407" lon="35.04534">
        <ele>5.825791</ele>
        <time>2021-08-20T01:02:04.306Z</time>
      </trkpt>
      <trkpt lat="42.04097" lon="35.04509">
        <ele>6.103307</ele>
        <time>2021-08-20T01:02:15.449Z</time>
      </trkpt>
      <trkpt lat="42.04104" lon="35.045">
        <ele>6.188494</ele>
        <time>2021-08-20T01:02:19.140Z</time>
      </trkpt>
      <trkpt lat="42.0411" lon="35.04488">
        <ele>6.27935</ele>
        <time>2021-08-20T01:02:23.652Z</time>
      </trkpt>
      <trkpt lat="42.04116" lon="35.04475">
        <ele>6.379397</ele>
        <time>2021-08-20T01:02:27.516Z</time>
      </trkpt>
      <trkpt lat="42.0412" lon="35.04457">
        <ele>6.495153</ele>
        <time>2021-08-20T01:02:32.987Z</time>
      </trkpt>
      <trkpt lat="42.04121" lon="35.04422">
        <ele>6.718299</ele>
        <time>2021-08-20T01:02:42.680Z</time>
      </trkpt>
      <trkpt lat="42.04122" lon="35.04385">
        <ele>7.372327</ele>
        <time>2021-08-20T01:02:53.431Z</time>
      </trkpt>
      <trkpt lat="42.04127" lon="35.0436">
        <ele>7.914714</ele>
        <time>2021-08-20T01:03:00.192Z</time>
      </trkpt>
      <trkpt lat="42.04136" lon="35.04334">
        <ele>8.522949</ele>
        <time>2021-08-20T01:03:09.389Z</time>
      </trkpt>
      <trkpt lat="42.04139" lon="35.04325">
        <ele>8.742269</ele>
        <time>2021-08-20T01:03:12.738Z</time>
      </trkpt>
      <trkpt lat="42.0414" lon="35.04311">
        <ele>9.039008</ele>
        <time>2021-08-20T01:03:17.299Z</time>
      </trkpt>
      <trkpt lat="42.04138" lon="35.043">
        <ele>9.280213</ele>
        <time>2021-08-20T01:03:21.763Z</time>
      </trkpt>
      <trkpt lat="42.04133" lon="35.0429">
        <ele>9.550596</ele>
        <time>2021-08-20T01:03:26.025Z</time>
      </trkpt>
      <trkpt lat="42.04107" lon="35.0424">
        <ele>10.836958</ele>
        <time>2021-08-20T01:03:48.848Z</time>
      </trkpt>
      <trkpt lat="42.04091" lon="35.0421">
        <ele>11.628442</ele>
        <time>2021-08-20T01:04:03.964Z</time>
      </trkpt>
      <trkpt lat="42.04074" lon="35.04185">
        <ele>12.516284</ele>
        <time>2021-08-20T01:04:17.695Z</time>
      </trkpt>
      <trkpt lat="42.04062" lon="35.04174">
        <ele>13.137781</ele>
        <time>2021-08-20T01:04:26.142Z</time>
      </trkpt>
      <trkpt lat="42.0403" lon="35.04148">
        <ele>14.737554</ele>
        <time>2021-08-20T01:04:48.106Z</time>
      </trkpt>
      <trkpt lat="42.04012" lon="35.04134">
        <ele>15.592621</ele>
        <time>2021-08-20T01:04:59.373Z</time>
      </trkpt>
      <trkpt lat="42.03993" lon="35.0412">
        <ele>16.51374</ele>
        <time>2021-08-20T01:05:11.941Z</time>
      </trkpt>
      <trkpt lat="42.03962" lon="35.04098">
        <ele>17.989934</ele>
        <time>2021-08-20T01:05:31.131Z</time>
      </trkpt>
      <trkpt lat="42.03955" lon="35.04088">
        <ele>18.403964</ele>
        <time>2021-08-20T01:05:36.006Z</time>
      </trkpt>
      <trkpt lat="42.03948" lon="35.04079">
        <ele>18.815711</ele>
        <time>2021-08-20T01:05:41.381Z</time>
      </trkpt>
      <trkpt lat="42.03942" lon="35.04043">
        <ele>19.730081</ele>
        <time>2021-08-20T01:05:55.759Z</time>
      </trkpt>
      <trkpt lat="42.03943" lon="35.04027">
        <ele>19.982351</ele>
        <time>2021-08-20T01:06:01.928Z</time>
      </trkpt>
      <trkpt lat="42.03953" lon="35.03974">
        <ele>20.838025</ele>
        <time>2021-08-20T01:06:21.496Z</time>
      </trkpt>
      <trkpt lat="42.0397" lon="35.03878">
        <ele>22.389684</ele>
        <time>2021-08-20T01:06:51.694Z</time>
      </trkpt>
      <trkpt lat="42.03975" lon="35.03848">
        <ele>22.887242</ele>
        <time>2021-08-20T01:07:00.474Z</time>
      </trkpt>
      <trkpt lat="42.03983" lon="35.03804">
        <ele>23.284377</ele>
        <time>2021-08-20T01:07:12.871Z</time>
      </trkpt>
      <trkpt lat="42.04026" lon="35.03557">
        <ele>22.614877</ele>
        <time>2021-08-20T01:08:09.583Z</time>
      </trkpt>
      <trkpt lat="42.04029" lon="35.03481">
        <ele>21.292201</ele>
        <time>2021-08-20T01:08:23.804Z</time>
      </trkpt>
      <trkpt lat="42.0403" lon="35.03472">
        <ele>21.132041</ele>
        <time>2021-08-20T01:08:25.178Z</time>
      </trkpt>
      <trkpt lat="42.04057" lon="35.03292">
        <ele>17.968363</ele>
        <time>2021-08-20T01:08:56.774Z</time>
      </trkpt>
      <trkpt lat="42.04057" lon="35.03279">
        <ele>17.759377</ele>
        <time>2021-08-20T01:08:58.636Z</time>
      </trkpt>
      <trkpt lat="42.04064" lon="35.03136">
        <ele>15.344576</ele>
        <time>2021-08-20T01:09:24.632Z</time>
      </trkpt>
      <trkpt lat="42.04069" lon="35.0307">
        <ele>14.856249</ele>
        <time>2021-08-20T01:09:38.028Z</time>
      </trkpt>
      <trkpt lat="42.04075" lon="35.02977">
        <ele>14.86539</ele>
        <time>2021-08-20T01:10:00.187Z</time>
      </trkpt>
      <trkpt lat="42.04082" lon="35.02869">
        <ele>14.875924</ele>
        <time>2021-08-20T01:10:28.218Z</time>
      </trkpt>
      <trkpt lat="42.04067" lon="35.02601">
        <ele>15.336664</ele>
        <time>2021-08-20T01:11:35.795Z</time>
      </trkpt>
      <trkpt lat="42.04067" lon="35.02594">
        <ele>15.271546</ele>
        <time>2021-08-20T01:11:37.581Z</time>
      </trkpt>
      <trkpt lat="42.04063" lon="35.02518">
        <ele>14.606931</ele>
        <time>2021-08-20T01:11:52.443Z</time>
      </trkpt>
      <trkpt lat="42.04062" lon="35.02496">
        <ele>14.409753</ele>
        <time>2021-08-20T01:11:56.903Z</time>
      </trkpt>
      <trkpt lat="42.04059" lon="35.02428">
        <ele>13.815518</ele>
        <time>2021-08-20T01:12:09.589Z</time>
      </trkpt>
      <trkpt lat="42.04055" lon="35.02349">
        <ele>12.944185</ele>
        <time>2021-08-20T01:12:24.246Z</time>
      </trkpt>
      <trkpt lat="42.04043" lon="35.02158">
        <ele>10.306943</ele>
        <time>2021-08-20T01:12:59.883Z</time>
      </trkpt>
      <trkpt lat="42.04041" lon="35.02127">
        <ele>9.86453</ele>
        <time>2021-08-20T01:13:05.588Z</time>
      </trkpt>
      <trkpt lat="42.04036" lon="35.0205">
        <ele>8.732469</ele>
        <time>2021-08-20T01:13:19.934Z</time>
      </trkpt>
      <trkpt lat="42.04033" lon="35.02011">
        <ele>8.163696</ele>
        <time>2021-08-20T01:13:27.336Z</time>
      </trkpt>
      <trkpt lat="42.04033" lon="35.02001">
        <ele>8.012257</ele>
        <time>2021-08-20T01:13:29.049Z</time>
      </trkpt>
      <trkpt lat="42.0403" lon="35.01954">
        <ele>7.32934</ele>
        <time>2021-08-20T01:13:37.541Z</time>
      </trkpt>
      <trkpt lat="42.04021" lon="35.01919">
        <ele>6.785535</ele>
        <time>2021-08-20T01:13:44.475Z</time>
      </trkpt>
      <trkpt lat="42.03986" lon="35.01872">
        <ele>6.099102</ele>
        <time>2021-08-20T01:13:56.503Z</time>
      </trkpt>
      <trkpt lat="42.0397" lon="35.0186">
        <ele>5.879181</ele>
        <time>2021-08-20T01:14:01.244Z</time>
      </trkpt>
      <trkpt lat="42.03934" lon="35.01837">
        <ele>5.411939</ele>
        <time>2021-08-20T01:14:11.240Z</time>
      </trkpt>
      <trkpt lat="42.03857" lon="35.01804">
        <ele>4.471539</ele>
        <time>2021-08-20T01:14:33.967Z</time>
      </trkpt>
      <trkpt lat="42.03831" lon="35.0179">
        <ele>4.642525</ele>
        <time>2021-08-20T01:14:42.463Z</time>
      </trkpt>
      <trkpt lat="42.0381" lon="35.01769">
        <ele>4.896851</ele>
        <time>2021-08-20T01:14:51.159Z</time>
      </trkpt>
      <trkpt lat="42.03603" lon="35.01496">
        <ele>8.3875</ele>
        <time>2021-08-20T01:16:44.363Z</time>
      </trkpt>
      <trkpt lat="42.03581" lon="35.01458">
        <ele>8.844519</ele>
        <time>2021-08-20T01:16:58.411Z</time>
      </trkpt>
      <trkpt lat="42.03568" lon="35.01423">
        <ele>9.185798</ele>
        <time>2021-08-20T01:17:09.961Z</time>
      </trkpt>
      <trkpt lat="42.03547" lon="35.01284">
        <ele>10.407633</ele>
        <time>2021-08-20T01:17:49.817Z</time>
      </trkpt>
      <trkpt lat="42.03529" lon="35.01152">
        <ele>11.177617</ele>
        <time>2021-08-20T01:18:25.070Z</time>
      </trkpt>
      <trkpt lat="42.03511" lon="35.01026">
        <ele>11.754912</ele>
        <time>2021-08-20T01:18:57.706Z</time>
      </trkpt>
      <trkpt lat="42.03471" lon="35.00773">
        <ele>12.452151</ele>
        <time>2021-08-20T01:20:01.896Z</time>
      </trkpt>
      <trkpt lat="42.03453" lon="35.00651">
        <ele>12.28701</ele>
        <time>2021-08-20T01:20:29.953Z</time>
      </trkpt>
      <trkpt lat="42.03435" lon="35.00535">
        <ele>12.117408</ele>
        <time>2021-08-20T01:20:55.954Z</time>
      </trkpt>
      <trkpt lat="42.03429" lon="35.00432">
        <ele>12.055315</ele>
        <time>2021-08-20T01:21:18.514Z</time>
      </trkpt>
      <trkpt lat="42.03429" lon="35.00426">
        <ele>12.051442</ele>
        <time>2021-08-20T01:21:20.081Z</time>
      </trkpt>
      <trkpt lat="42.03428" lon="35.00415">
        <ele>12.045395</ele>
        <time>2021-08-20T01:21:22.394Z</time>
      </trkpt>
      <trkpt lat="42.03422" lon="35.00223">
        <ele>12.046816</ele>
        <time>2021-08-20T01:22:08.004Z</time>
      </trkpt>
      <trkpt lat="42.0342" lon="35.00168">
        <ele>12.106905</ele>
        <time>2021-08-20T01:22:21.121Z</time>
      </trkpt>
      <trkpt lat="42.03416" lon="35.00032">
        <ele>12.269957</ele>
        <time>2021-08-20T01:22:53.245Z</time>
      </trkpt>
      <trkpt lat="42.03412" lon="35.00003">
        <ele>12.327056</ele>
        <time>2021-08-20T01:23:00.615Z</time>
      </trkpt>
      <trkpt lat="42.03411" lon="35.00001">
        <ele>12.332455</ele>
        <time>2021-08-20T01:23:01.248Z</time>
      </trkpt>
      <trkpt lat="42.03401" lon="34.99971">
        <ele>12.395693</ele>
        <time>2021-08-20T01:23:09.182Z</time>
      </trkpt>
      <trkpt lat="42.03381" lon="34.99926">
        <ele>12.497546</ele>
        <time>2021-08-20T01:23:21.817Z</time>
      </trkpt>
      <trkpt lat="42.03369" lon="34.99899">
        <ele>12.559268</ele>
        <time>2021-08-20T01:23:29.311Z</time>
      </trkpt>
      <trkpt lat="42.03363" lon="34.99887">
        <ele>12.587336</ele>
        <time>2021-08-20T01:23:33.029Z</time>
      </trkpt>
      <trkpt lat="42.03354" lon="34.99869">
        <ele>12.629704</ele>
        <time>2021-08-20T01:23:38.262Z</time>
      </trkpt>
      <trkpt lat="42.03344" lon="34.99847">
        <ele>12.679121</ele>
        <time>2021-08-20T01:23:44.590Z</time>
      </trkpt>
      <trkpt lat="42.03332" lon="34.99822">
        <ele>12.716757</ele>
        <time>2021-08-20T01:23:51.696Z</time>
      </trkpt>
      <trkpt lat="42.03307" lon="34.99769">
        <ele>12.754257</ele>
        <time>2021-08-20T01:24:07.322Z</time>
      </trkpt>
      <trkpt lat="42.03285" lon="34.99723">
        <ele>12.786574</ele>
        <time>2021-08-20T01:24:20.630Z</time>
      </trkpt>
      <trkpt lat="42.03279" lon="34.99712">
        <ele>12.794512</ele>
        <time>2021-08-20T01:24:23.921Z</time>
      </trkpt>
      <trkpt lat="42.03267" lon="34.9968">
        <ele>12.815392</ele>
        <time>2021-08-20T01:24:32.315Z</time>
      </trkpt>
      <trkpt lat="42.03245" lon="34.99624">
        <ele>12.83766</ele>
        <time>2021-08-20T01:24:46.418Z</time>
      </trkpt>
      <trkpt lat="42.03238" lon="34.99606">
        <ele>12.741282</ele>
        <time>2021-08-20T01:24:50.768Z</time>
      </trkpt>
      <trkpt lat="42.03235" lon="34.99598">
        <ele>12.701225</ele>
        <time>2021-08-20T01:24:52.447Z</time>
      </trkpt>
      <trkpt lat="42.03202" lon="34.99492">
        <ele>12.162573</ele>
        <time>2021-08-20T01:25:16.447Z</time>
      </trkpt>
      <trkpt lat="42.03198" lon="34.9948">
        <ele>12.099686</ele>
        <time>2021-08-20T01:25:19.160Z</time>
      </trkpt>
      <trkpt lat="42.03182" lon="34.99429">
        <ele>11.837481</ele>
        <time>2021-08-20T01:25:30.480Z</time>
      </trkpt>
      <trkpt lat="42.0307" lon="34.99074">
        <ele>11.2812</ele>
        <time>2021-08-20T01:26:54.738Z</time>
      </trkpt>
      <trkpt lat="42.03061" lon="34.99048">
        <ele>11.346358</ele>
        <time>2021-08-20T01:27:01.938Z</time>
      </trkpt>
      <trkpt lat="42.03059" lon="34.99041">
        <ele>11.364397</ele>
        <time>2021-08-20T01:27:03.942Z</time>
      </trkpt>
      <trkpt lat="42.03042" lon="34.98988">
        <ele>11.499428</ele>
        <time>2021-08-20T01:27:18.781Z</time>
      </trkpt>
      <trkpt lat="42.0303" lon="34.9895">
        <ele>11.721199</ele>
        <time>2021-08-20T01:27:29.965Z</time>
      </trkpt>
      <trkpt lat="42.02955" lon="34.98714">
        <ele>15.857026</ele>
        <time>2021-08-20T01:28:50.765Z</time>
      </trkpt>
      <trkpt lat="42.02946" lon="34.98674">
        <ele>17.174164</ele>
        <time>2021-08-20T01:29:06.694Z</time>
      </trkpt>
      <trkpt lat="42.02945" lon="34.98665">
        <ele>17.458519</ele>
        <time>2021-08-20T01:29:09.928Z</time>
      </trkpt>
      <trkpt lat="42.02942" lon="34.9865">
        <ele>17.942078</ele>
        <time>2021-08-20T01:29:16.923Z</time>
      </trkpt>
      <trkpt lat="42.02942" lon="34.98646">
        <ele>18.060928</ele>
        <time>2021-08-20T01:29:18.293Z</time>
      </trkpt>
      <trkpt lat="42.02937" lon="34.98462">
        <ele>24.109147</ele>
        <time>2021-08-20T01:30:39.034Z</time>
      </trkpt>
      <trkpt lat="42.02933" lon="34.98338">
        <ele>28.923187</ele>
        <time>2021-08-20T01:31:35.200Z</time>
      </trkpt>
      <trkpt lat="42.02916" lon="34.97737">
        <ele>52.165565</ele>
        <time>2021-08-20T01:36:06.810Z</time>
      </trkpt>
      <trkpt lat="42.02908" lon="34.97578">
        <ele>57.609435</ele>
        <time>2021-08-20T01:37:14.983Z</time>
      </trkpt>
      <trkpt lat="42.02844" lon="34.97411">
        <ele>62.903042</ele>
        <time>2021-08-20T01:38:27.736Z</time>
      </trkpt>
      <trkpt lat="42.02788" lon="34.9716">
        <ele>69.935079</ele>
        <time>2021-08-20T01:40:02.828Z</time>
      </trkpt>
      <trkpt lat="42.02783" lon="34.97115">
        <ele>71.173054</ele>
        <time>2021-08-20T01:40:21.131Z</time>
      </trkpt>
      <trkpt lat="42.02791" lon="34.97005">
        <ele>75.409009</ele>
        <time>2021-08-20T01:41:08.819Z</time>
      </trkpt>
      <trkpt lat="42.02757" lon="34.96873">
        <ele>81.530853</ele>
        <time>2021-08-20T01:42:17.145Z</time>
      </trkpt>
      <trkpt lat="42.02755" lon="34.96788">
        <ele>86.033574</ele>
        <time>2021-08-20T01:43:02.201Z</time>
      </trkpt>
      <trkpt lat="42.02725" lon="34.96663">
        <ele>93.604826</ele>
        <time>2021-08-20T01:44:15.819Z</time>
      </trkpt>
      <trkpt lat="42.02704" lon="34.96617">
        <ele>96.737224</ele>
        <time>2021-08-20T01:44:47.740Z</time>
      </trkpt>
      <trkpt lat="42.02611" lon="34.96499">
        <ele>106.197409</ele>
        <time>2021-08-20T01:46:27.787Z</time>
      </trkpt>
      <trkpt lat="42.02562" lon="34.9644">
        <ele>110.212313</ele>
        <time>2021-08-20T01:47:09.360Z</time>
      </trkpt>
      <trkpt lat="42.02497" lon="34.96364">
        <ele>111.689426</ele>
        <time>2021-08-20T01:47:52.652Z</time>
      </trkpt>
      <trkpt lat="42.02433" lon="34.96266">
        <ele>112.592405</ele>
        <time>2021-08-20T01:48:18.800Z</time>
      </trkpt>
      <trkpt lat="42.02418" lon="34.96228">
        <ele>111.770303</ele>
        <time>2021-08-20T01:48:26.037Z</time>
      </trkpt>
      <trkpt lat="42.02418" lon="34.96209">
        <ele>111.383703</ele>
        <time>2021-08-20T01:48:29.382Z</time>
      </trkpt>
      <trkpt lat="42.02417" lon="34.96184">
        <ele>110.911134</ele>
        <time>2021-08-20T01:48:33.456Z</time>
      </trkpt>
      <trkpt lat="42.0243" lon="34.96042">
        <ele>108.225058</ele>
        <time>2021-08-20T01:48:58.069Z</time>
      </trkpt>
      <trkpt lat="42.02433" lon="34.96022">
        <ele>108.040178</ele>
        <time>2021-08-20T01:49:01.422Z</time>
      </trkpt>
      <trkpt lat="42.02464" lon="34.95734">
        <ele>105.91128</ele>
        <time>2021-08-20T01:50:01.514Z</time>
      </trkpt>
      <trkpt lat="42.02477" lon="34.95619">
        <ele>105.644683</ele>
        <time>2021-08-20T01:50:29.398Z</time>
      </trkpt>
      <trkpt lat="42.02488" lon="34.95569">
        <ele>105.500128</ele>
        <time>2021-08-20T01:50:41.257Z</time>
      </trkpt>
      <trkpt lat="42.02552" lon="34.95365">
        <ele>104.279271</ele>
        <time>2021-08-20T01:51:26.131Z</time>
      </trkpt>
      <trkpt lat="42.02561" lon="34.95175">
        <ele>103.889059</ele>
        <time>2021-08-20T01:52:06.364Z</time>
      </trkpt>
      <trkpt lat="42.02562" lon="34.95164">
        <ele>103.868491</ele>
        <time>2021-08-20T01:52:08.761Z</time>
      </trkpt>
      <trkpt lat="42.02566" lon="34.95079">
        <ele>104.147666</ele>
        <time>2021-08-20T01:52:30.905Z</time>
      </trkpt>
      <trkpt lat="42.02567" lon="34.95016">
        <ele>104.936948</ele>
        <time>2021-08-20T01:52:48.465Z</time>
      </trkpt>
      <trkpt lat="42.02582" lon="34.94938">
        <ele>105.940709</ele>
        <time>2021-08-20T01:53:14.101Z</time>
      </trkpt>
      <trkpt lat="42.02617" lon="34.94843">
        <ele>107.447783</ele>
        <time>2021-08-20T01:53:49.478Z</time>
      </trkpt>
      <trkpt lat="42.0263" lon="34.94776">
        <ele>108.675613</ele>
        <time>2021-08-20T01:54:12.417Z</time>
      </trkpt>
      <trkpt lat="42.02603" lon="34.94582">
        <ele>111.903736</ele>
        <time>2021-08-20T01:55:17.638Z</time>
      </trkpt>
      <trkpt lat="42.02597" lon="34.94308">
        <ele>114.907036</ele>
        <time>2021-08-20T01:56:40.121Z</time>
      </trkpt>
      <trkpt lat="42.02574" lon="34.94097">
        <ele>115.161824</ele>
        <time>2021-08-20T01:57:32.154Z</time>
      </trkpt>
      <trkpt lat="42.02575" lon="34.94056">
        <ele>114.778455</ele>
        <time>2021-08-20T01:57:40.442Z</time>
      </trkpt>
      <trkpt lat="42.0261" lon="34.93944">
        <ele>113.640775</ele>
        <time>2021-08-20T01:58:03.197Z</time>
      </trkpt>
      <trkpt lat="42.02638" lon="34.93863">
        <ele>110.62093</ele>
        <time>2021-08-20T01:58:30.698Z</time>
      </trkpt>
      <trkpt lat="42.0268" lon="34.93784">
        <ele>106.89671</ele>
        <time>2021-08-20T01:58:58.347Z</time>
      </trkpt>
      <trkpt lat="42.02722" lon="34.93743">
        <ele>104.233122</ele>
        <time>2021-08-20T01:59:17.043Z</time>
      </trkpt>
      <trkpt lat="42.02735" lon="34.93709">
        <ele>101.405312</ele>
        <time>2021-08-20T01:59:27.285Z</time>
      </trkpt>
      <trkpt lat="42.02733" lon="34.93684">
        <ele>99.560451</ele>
        <time>2021-08-20T01:59:33.828Z</time>
      </trkpt>
      <trkpt lat="42.02697" lon="34.93648">
        <ele>95.077226</ele>
        <time>2021-08-20T01:59:49.481Z</time>
      </trkpt>
      <trkpt lat="42.02654" lon="34.93588">
        <ele>89.019628</ele>
        <time>2021-08-20T02:00:10.241Z</time>
      </trkpt>
      <trkpt lat="42.02562" lon="34.9344">
        <ele>74.188781</ele>
        <time>2021-08-20T02:00:58.519Z</time>
      </trkpt>
      <trkpt lat="42.02558" lon="34.93406">
        <ele>71.473143</ele>
        <time>2021-08-20T02:01:07.430Z</time>
      </trkpt>
      <trkpt lat="42.0257" lon="34.93358">
        <ele>67.560018</ele>
        <time>2021-08-20T02:01:20.499Z</time>
      </trkpt>
      <trkpt lat="42.02594" lon="34.93316">
        <ele>64.550768</ele>
        <time>2021-08-20T02:01:34.435Z</time>
      </trkpt>
      <trkpt lat="42.0259" lon="34.93276">
        <ele>62.285605</ele>
        <time>2021-08-20T02:01:45.044Z</time>
      </trkpt>
      <trkpt lat="42.02555" lon="34.9318">
        <ele>56.286063</ele>
        <time>2021-08-20T02:02:13.685Z</time>
      </trkpt>
      <trkpt lat="42.02528" lon="34.93149">
        <ele>53.654871</ele>
        <time>2021-08-20T02:02:26.811Z</time>
      </trkpt>
      <trkpt lat="42.02489" lon="34.9302">
        <ele>47.428608</ele>
        <time>2021-08-20T02:03:05.519Z</time>
      </trkpt>
      <trkpt lat="42.0249" lon="34.92972">
        <ele>45.299291</ele>
        <time>2021-08-20T02:03:18.740Z</time>
      </trkpt>
      <trkpt lat="42.02497" lon="34.92912">
        <ele>42.795886</ele>
        <time>2021-08-20T02:03:35.942Z</time>
      </trkpt>
      <trkpt lat="42.0251" lon="34.92835">
        <ele>40.643205</ele>
        <time>2021-08-20T02:03:58.618Z</time>
      </trkpt>
      <trkpt lat="42.02519" lon="34.92789">
        <ele>39.325787</ele>
        <time>2021-08-20T02:04:06.608Z</time>
      </trkpt>
      <trkpt lat="42.02531" lon="34.92733">
        <ele>37.725998</ele>
        <time>2021-08-20T02:04:16.644Z</time>
      </trkpt>
      <trkpt lat="42.02535" lon="34.92711">
        <ele>37.095307</ele>
        <time>2021-08-20T02:04:20.717Z</time>
      </trkpt>
      <trkpt lat="42.02561" lon="34.92581">
        <ele>33.918878</ele>
        <time>2021-08-20T02:04:45.427Z</time>
      </trkpt>
      <trkpt lat="42.02578" lon="34.92532">
        <ele>32.705952</ele>
        <time>2021-08-20T02:04:54.372Z</time>
      </trkpt>
      <trkpt lat="42.02607" lon="34.92476">
        <ele>31.143569</ele>
        <time>2021-08-20T02:05:05.545Z</time>
      </trkpt>
      <trkpt lat="42.02611" lon="34.92459">
        <ele>30.630684</ele>
        <time>2021-08-20T02:05:08.558Z</time>
      </trkpt>
      <trkpt lat="42.02617" lon="34.92433">
        <ele>29.739257</ele>
        <time>2021-08-20T02:05:12.811Z</time>
      </trkpt>
      <trkpt lat="42.02615" lon="34.92397">
        <ele>28.545801</ele>
        <time>2021-08-20T02:05:18.809Z</time>
      </trkpt>
      <trkpt lat="42.02609" lon="34.92367">
        <ele>27.50775</ele>
        <time>2021-08-20T02:05:23.843Z</time>
      </trkpt>
      <trkpt lat="42.02607" lon="34.92356">
        <ele>27.151101</ele>
        <time>2021-08-20T02:05:25.589Z</time>
      </trkpt>
      <trkpt lat="42.02605" lon="34.92351">
        <ele>26.973973</ele>
        <time>2021-08-20T02:05:26.432Z</time>
      </trkpt>
      <trkpt lat="42.02595" lon="34.92318">
        <ele>25.77551</ele>
        <time>2021-08-20T02:05:32.182Z</time>
      </trkpt>
      <trkpt lat="42.02588" lon="34.92306">
        <ele>25.281147</ele>
        <time>2021-08-20T02:05:34.490Z</time>
      </trkpt>
      <trkpt lat="42.02582" lon="34.92297">
        <ele>24.869256</ele>
        <time>2021-08-20T02:05:36.392Z</time>
      </trkpt>
      <trkpt lat="42.02538" lon="34.92212">
        <ele>21.937487</ele>
        <time>2021-08-20T02:05:52.757Z</time>
      </trkpt>
      <trkpt lat="42.02508" lon="34.92153">
        <ele>20.299008</ele>
        <time>2021-08-20T02:06:05.064Z</time>
      </trkpt>
      <trkpt lat="42.02458" lon="34.92046">
        <ele>17.426944</ele>
        <time>2021-08-20T02:06:27.546Z</time>
      </trkpt>
      <trkpt lat="42.02416" lon="34.91894">
        <ele>15.067212</ele>
        <time>2021-08-20T02:06:56.868Z</time>
      </trkpt>
      <trkpt lat="42.02346" lon="34.91093">
        <ele>6.46718</ele>
        <time>2021-08-20T02:09:32.992Z</time>
      </trkpt>
      <trkpt lat="42.02318" lon="34.91017">
        <ele>5.743078</ele>
        <time>2021-08-20T02:09:49.377Z</time>
      </trkpt>
      <trkpt lat="42.02245" lon="34.90893">
        <ele>4.428908</ele>
        <time>2021-08-20T02:10:20.691Z</time>
      </trkpt>
      <trkpt lat="42.02223" lon="34.90855">
        <ele>4.433966</ele>
        <time>2021-08-20T02:10:30.807Z</time>
      </trkpt>
      <trkpt lat="42.02145" lon="34.90721">
        <ele>4.451889</ele>
        <time>2021-08-20T02:11:10.632Z</time>
      </trkpt>
      <trkpt lat="42.02088" lon="34.90594">
        <ele>5.928879</ele>
        <time>2021-08-20T02:11:52.388Z</time>
      </trkpt>
      <trkpt lat="42.02043" lon="34.90493">
        <ele>7.342226</ele>
        <time>2021-08-20T02:12:28.686Z</time>
      </trkpt>
      <trkpt lat="42.02025" lon="34.90449">
        <ele>8.80259</ele>
        <time>2021-08-20T02:12:46.515Z</time>
      </trkpt>
      <trkpt lat="42.01982" lon="34.90318">
        <ele>12.909464</ele>
        <time>2021-08-20T02:13:43.405Z</time>
      </trkpt>
      <trkpt lat="42.01977" lon="34.90308">
        <ele>13.227489</ele>
        <time>2021-08-20T02:13:48.624Z</time>
      </trkpt>
      <trkpt lat="42.01933" lon="34.90215">
        <ele>17.576006</ele>
        <time>2021-08-20T02:14:38.116Z</time>
      </trkpt>
      <trkpt lat="42.01861" lon="34.90122">
        <ele>23.447223</ele>
        <time>2021-08-20T02:15:44.411Z</time>
      </trkpt>
      <trkpt lat="42.01837" lon="34.90099">
        <ele>25.19974</ele>
        <time>2021-08-20T02:16:04.409Z</time>
      </trkpt>
      <trkpt lat="42.01817" lon="34.90089">
        <ele>26.490824</ele>
        <time>2021-08-20T02:16:18.847Z</time>
      </trkpt>
      <trkpt lat="42.01557" lon="34.9004">
        <ele>41.266226</ele>
        <time>2021-08-20T02:19:08.243Z</time>
      </trkpt>
      <trkpt lat="42.01412" lon="34.89987">
        <ele>47.224446</ele>
        <time>2021-08-20T02:20:24.778Z</time>
      </trkpt>
      <trkpt lat="42.013" lon="34.89923">
        <ele>51.06981</ele>
        <time>2021-08-20T02:21:20.578Z</time>
      </trkpt>
      <trkpt lat="42.01185" lon="34.89758">
        <ele>56.9112</ele>
        <time>2021-08-20T02:22:45.464Z</time>
      </trkpt>
      <trkpt lat="42.01139" lon="34.89679">
        <ele>60.359087</ele>
        <time>2021-08-20T02:23:27.291Z</time>
      </trkpt>
      <trkpt lat="42.00991" lon="34.89486">
        <ele>70.39974</ele>
        <time>2021-08-20T02:25:30.751Z</time>
      </trkpt>
      <trkpt lat="42.00961" lon="34.89467">
        <ele>72.095168</ele>
        <time>2021-08-20T02:25:50.645Z</time>
      </trkpt>
      <trkpt lat="42.00787" lon="34.89452">
        <ele>80.610359</ele>
        <time>2021-08-20T02:27:31.789Z</time>
      </trkpt>
      <trkpt lat="42.00576" lon="34.89348">
        <ele>91.491969</ele>
        <time>2021-08-20T02:29:42.822Z</time>
      </trkpt>
      <trkpt lat="42.00471" lon="34.89309">
        <ele>96.556126</ele>
        <time>2021-08-20T02:30:46.828Z</time>
      </trkpt>
      <trkpt lat="42.00373" lon="34.89319">
        <ele>100.708262</ele>
        <time>2021-08-20T02:31:40.957Z</time>
      </trkpt>
      <trkpt lat="42.00336" lon="34.8931">
        <ele>101.986771</ele>
        <time>2021-08-20T02:32:00.460Z</time>
      </trkpt>
      <trkpt lat="42.00254" lon="34.89269">
        <ele>104.977616</ele>
        <time>2021-08-20T02:32:43.118Z</time>
      </trkpt>
      <trkpt lat="42.00036" lon="34.89131">
        <ele>112.092569</ele>
        <time>2021-08-20T02:34:34.034Z</time>
      </trkpt>
      <trkpt lat="41.99997" lon="34.891">
        <ele>113.755834</ele>
        <time>2021-08-20T02:34:57.455Z</time>
      </trkpt>
      <trkpt lat="41.99769" lon="34.88941">
        <ele>122.989845</ele>
        <time>2021-08-20T02:37:18.074Z</time>
      </trkpt>
      <trkpt lat="41.99541" lon="34.88787">
        <ele>125.391931</ele>
        <time>2021-08-20T02:38:43.938Z</time>
      </trkpt>
      <trkpt lat="41.99459" lon="34.88706">
        <ele>126.055113</ele>
        <time>2021-08-20T02:39:17.998Z</time>
      </trkpt>
      <trkpt lat="41.99354" lon="34.88623">
        <ele>128.283203</ele>
        <time>2021-08-20T02:40:06.778Z</time>
      </trkpt>
      <trkpt lat="41.99163" lon="34.88441">
        <ele>134.164441</ele>
        <time>2021-08-20T02:41:58.211Z</time>
      </trkpt>
      <trkpt lat="41.98997" lon="34.88304">
        <ele>137.520916</ele>
        <time>2021-08-20T02:43:19.851Z</time>
      </trkpt>
      <trkpt lat="41.98881" lon="34.88287">
        <ele>136.614863</ele>
        <time>2021-08-20T02:43:52.567Z</time>
      </trkpt>
      <trkpt lat="41.98741" lon="34.88202">
        <ele>134.994794</ele>
        <time>2021-08-20T02:44:29.886Z</time>
      </trkpt>
      <trkpt lat="41.98703" lon="34.88195">
        <ele>134.59733</ele>
        <time>2021-08-20T02:44:39.391Z</time>
      </trkpt>
      <trkpt lat="41.98686" lon="34.88182">
        <ele>134.386347</ele>
        <time>2021-08-20T02:44:44.441Z</time>
      </trkpt>
      <trkpt lat="41.98554" lon="34.88097">
        <ele>136.679383</ele>
        <time>2021-08-20T02:45:41.510Z</time>
      </trkpt>
      <trkpt lat="41.98503" lon="34.88064">
        <ele>138.18508</ele>
        <time>2021-08-20T02:46:12.790Z</time>
      </trkpt>
      <trkpt lat="41.98489" lon="34.88047">
        <ele>138.687472</ele>
        <time>2021-08-20T02:46:23.722Z</time>
      </trkpt>
      <trkpt lat="41.98457" lon="34.88009">
        <ele>140.547271</ele>
        <time>2021-08-20T02:46:48.919Z</time>
      </trkpt>
      <trkpt lat="41.98375" lon="34.87878">
        <ele>146.181805</ele>
        <time>2021-08-20T02:48:03.561Z</time>
      </trkpt>
      <trkpt lat="41.98277" lon="34.87758">
        <ele>148.61067</ele>
        <time>2021-08-20T02:49:00.982Z</time>
      </trkpt>
      <trkpt lat="41.98239" lon="34.87697">
        <ele>149.543442</ele>
        <time>2021-08-20T02:49:20.581Z</time>
      </trkpt>
      <trkpt lat="41.98167" lon="34.87564">
        <ele>148.114583</ele>
        <time>2021-08-20T02:49:52.138Z</time>
      </trkpt>
      <trkpt lat="41.98141" lon="34.87537">
        <ele>147.730855</ele>
        <time>2021-08-20T02:50:00.543Z</time>
      </trkpt>
      <trkpt lat="41.98097" lon="34.87515">
        <ele>147.335756</ele>
        <time>2021-08-20T02:50:12.580Z</time>
      </trkpt>
      <trkpt lat="41.98059" lon="34.87495">
        <ele>147.136753</ele>
        <time>2021-08-20T02:50:23.909Z</time>
      </trkpt>
      <trkpt lat="41.97871" lon="34.8745">
        <ele>145.619219</ele>
        <time>2021-08-20T02:51:22.576Z</time>
      </trkpt>
      <trkpt lat="41.97829" lon="34.87419">
        <ele>145.005621</ele>
        <time>2021-08-20T02:51:35.115Z</time>
      </trkpt>
      <trkpt lat="41.978" lon="34.87377">
        <ele>144.457197</ele>
        <time>2021-08-20T02:51:45.555Z</time>
      </trkpt>
      <trkpt lat="41.978" lon="34.87342">
        <ele>143.843422</ele>
        <time>2021-08-20T02:51:51.864Z</time>
      </trkpt>
      <trkpt lat="41.97793" lon="34.87294">
        <ele>142.467242</ele>
        <time>2021-08-20T02:52:00.387Z</time>
      </trkpt>
      <trkpt lat="41.97753" lon="34.87199">
        <ele>139.372955</ele>
        <time>2021-08-20T02:52:18.733Z</time>
      </trkpt>
      <trkpt lat="41.9765" lon="34.86984">
        <ele>133.041082</ele>
        <time>2021-08-20T02:53:02.539Z</time>
      </trkpt>
      <trkpt lat="41.97597" lon="34.86908">
        <ele>132.472927</ele>
        <time>2021-08-20T02:53:24.809Z</time>
      </trkpt>
      <trkpt lat="41.97551" lon="34.86856">
        <ele>133.721189</ele>
        <time>2021-08-20T02:53:49.929Z</time>
      </trkpt>
      <trkpt lat="41.97507" lon="34.86744">
        <ele>135.873492</ele>
        <time>2021-08-20T02:54:39.487Z</time>
      </trkpt>
      <trkpt lat="41.97469" lon="34.86659">
        <ele>138.993042</ele>
        <time>2021-08-20T02:55:23.763Z</time>
      </trkpt>
      <trkpt lat="41.97428" lon="34.86582">
        <ele>141.971938</ele>
        <time>2021-08-20T02:56:03.429Z</time>
      </trkpt>
      <trkpt lat="41.97382" lon="34.86522">
        <ele>143.69703</ele>
        <time>2021-08-20T02:56:33.770Z</time>
      </trkpt>
      <trkpt lat="41.97331" lon="34.8647">
        <ele>144.781741</ele>
        <time>2021-08-20T02:57:00.223Z</time>
      </trkpt>
      <trkpt lat="41.97274" lon="34.86423">
        <ele>145.914949</ele>
        <time>2021-08-20T02:57:24.309Z</time>
      </trkpt>
      <trkpt lat="41.97172" lon="34.86364">
        <ele>145.817221</ele>
        <time>2021-08-20T02:58:00.059Z</time>
      </trkpt>
      <trkpt lat="41.97138" lon="34.86351">
        <ele>145.723349</ele>
        <time>2021-08-20T02:58:10.819Z</time>
      </trkpt>
      <trkpt lat="41.97006" lon="34.86298">
        <ele>142.865009</ele>
        <time>2021-08-20T02:58:46.055Z</time>
      </trkpt>
      <trkpt lat="41.96975" lon="34.86277">
        <ele>141.850239</ele>
        <time>2021-08-20T02:58:53.942Z</time>
      </trkpt>
      <trkpt lat="41.96918" lon="34.8624">
        <ele>139.610374</ele>
        <time>2021-08-20T02:59:07.493Z</time>
      </trkpt>
      <trkpt lat="41.96866" lon="34.86178">
        <ele>135.316102</ele>
        <time>2021-08-20T02:59:21.704Z</time>
      </trkpt>
      <trkpt lat="41.96828" lon="34.86109">
        <ele>131.370841</ele>
        <time>2021-08-20T02:59:34.512Z</time>
      </trkpt>
      <trkpt lat="41.96798" lon="34.86031">
        <ele>127.495725</ele>
        <time>2021-08-20T02:59:47.684Z</time>
      </trkpt>
      <trkpt lat="41.96673" lon="34.85631">
        <ele>110.162981</ele>
        <time>2021-08-20T03:00:55.384Z</time>
      </trkpt>
      <trkpt lat="41.96401" lon="34.85565">
        <ele>97.492531</ele>
        <time>2021-08-20T03:01:56.450Z</time>
      </trkpt>
      <trkpt lat="41.96372" lon="34.85586">
        <ele>95.641295</ele>
        <time>2021-08-20T03:02:03.077Z</time>
      </trkpt>
      <trkpt lat="41.96315" lon="34.8573">
        <ele>87.600834</ele>
        <time>2021-08-20T03:02:27.068Z</time>
      </trkpt>
      <trkpt lat="41.95991" lon="34.85895">
        <ele>61.415127</ele>
        <time>2021-08-20T03:03:35.981Z</time>
      </trkpt>
      <trkpt lat="41.95881" lon="34.86001">
        <ele>50.002282</ele>
        <time>2021-08-20T03:04:02.037Z</time>
      </trkpt>
      <trkpt lat="41.95835" lon="34.86013">
        <ele>46.40118</ele>
        <time>2021-08-20T03:04:10.928Z</time>
      </trkpt>
      <trkpt lat="41.95778" lon="34.86028">
        <ele>41.878808</ele>
        <time>2021-08-20T03:04:22.238Z</time>
      </trkpt>
      <trkpt lat="41.95654" lon="34.8596">
        <ele>34.018822</ele>
        <time>2021-08-20T03:04:49.623Z</time>
      </trkpt>
      <trkpt lat="41.95632" lon="34.8593">
        <ele>32.807851</ele>
        <time>2021-08-20T03:04:56.724Z</time>
      </trkpt>
      <trkpt lat="41.95629" lon="34.85768">
        <ele>29.726774</ele>
        <time>2021-08-20T03:05:26.241Z</time>
      </trkpt>
      <trkpt lat="41.95625" lon="34.85756">
        <ele>29.744384</ele>
        <time>2021-08-20T03:05:29.006Z</time>
      </trkpt>
      <trkpt lat="41.95608" lon="34.85735">
        <ele>29.785833</ele>
        <time>2021-08-20T03:05:35.654Z</time>
      </trkpt>
      <trkpt lat="41.95389" lon="34.85649">
        <ele>33.231992</ele>
        <time>2021-08-20T03:07:03.784Z</time>
      </trkpt>
      <trkpt lat="41.9538" lon="34.85645">
        <ele>33.475447</ele>
        <time>2021-08-20T03:07:08.636Z</time>
      </trkpt>
      <trkpt lat="41.95239" lon="34.85591">
        <ele>41.210362</ele>
        <time>2021-08-20T03:08:38.670Z</time>
      </trkpt>
      <trkpt lat="41.95215" lon="34.85582">
        <ele>42.856903</ele>
        <time>2021-08-20T03:08:57.327Z</time>
      </trkpt>
      <trkpt lat="41.95166" lon="34.85536">
        <ele>46.830648</ele>
        <time>2021-08-20T03:09:42.797Z</time>
      </trkpt>
      <trkpt lat="41.95145" lon="34.855">
        <ele>49.879319</ele>
        <time>2021-08-20T03:10:10.294Z</time>
      </trkpt>
      <trkpt lat="41.95062" lon="34.85359">
        <ele>61.925595</ele>
        <time>2021-08-20T03:12:01.016Z</time>
      </trkpt>
      <trkpt lat="41.95025" lon="34.85297">
        <ele>67.106922</ele>
        <time>2021-08-20T03:12:51.033Z</time>
      </trkpt>
      <trkpt lat="41.94991" lon="34.85185">
        <ele>74.909503</ele>
        <time>2021-08-20T03:13:59.991Z</time>
      </trkpt>
      <trkpt lat="41.94981" lon="34.85157">
        <ele>76.902588</ele>
        <time>2021-08-20T03:14:18.655Z</time>
      </trkpt>
      <trkpt lat="41.9497" lon="34.85128">
        <ele>79.059279</ele>
        <time>2021-08-20T03:14:38.037Z</time>
      </trkpt>
      <trkpt lat="41.94949" lon="34.85073">
        <ele>83.389868</ele>
        <time>2021-08-20T03:15:14.473Z</time>
      </trkpt>
      <trkpt lat="41.94933" lon="34.85012">
        <ele>87.984701</ele>
        <time>2021-08-20T03:15:54.183Z</time>
      </trkpt>
      <trkpt lat="41.9493" lon="34.84991">
        <ele>89.509033</ele>
        <time>2021-08-20T03:16:08.460Z</time>
      </trkpt>
      <trkpt lat="41.94924" lon="34.84944">
        <ele>92.899177</ele>
        <time>2021-08-20T03:16:38.940Z</time>
      </trkpt>
      <trkpt lat="41.94924" lon="34.84899">
        <ele>96.203762</ele>
        <time>2021-08-20T03:17:07.694Z</time>
      </trkpt>
      <trkpt lat="41.94973" lon="34.84775">
        <ele>108.271519</ele>
        <time>2021-08-20T03:18:49.300Z</time>
      </trkpt>
      <trkpt lat="41.94976" lon="34.84726">
        <ele>112.518698</ele>
        <time>2021-08-20T03:19:26.297Z</time>
      </trkpt>
      <trkpt lat="41.94955" lon="34.84705">
        <ele>115.556828</ele>
        <time>2021-08-20T03:19:51.775Z</time>
      </trkpt>
      <trkpt lat="41.94916" lon="34.84681">
        <ele>120.047037</ele>
        <time>2021-08-20T03:20:33.552Z</time>
      </trkpt>
      <trkpt lat="41.94883" lon="34.84659">
        <ele>123.81276</ele>
        <time>2021-08-20T03:21:08.415Z</time>
      </trkpt>
      <trkpt lat="41.94862" lon="34.84592">
        <ele>129.299057</ele>
        <time>2021-08-20T03:21:56.957Z</time>
      </trkpt>
      <trkpt lat="41.94833" lon="34.84415">
        <ele>140.084761</ele>
        <time>2021-08-20T03:23:40.995Z</time>
      </trkpt>
      <trkpt lat="41.94824" lon="34.84322">
        <ele>144.570353</ele>
        <time>2021-08-20T03:24:22.158Z</time>
      </trkpt>
      <trkpt lat="41.94827" lon="34.84322">
        <ele>144.751439</ele>
        <time>2021-08-20T03:24:26.131Z</time>
      </trkpt>
      <trkpt lat="41.94905" lon="34.84192">
        <ele>149.810056</ele>
        <time>2021-08-20T03:25:34.791Z</time>
      </trkpt>
      <trkpt lat="41.94962" lon="34.84129">
        <ele>152.300386</ele>
        <time>2021-08-20T03:26:09.720Z</time>
      </trkpt>
      <trkpt lat="41.95048" lon="34.83963">
        <ele>153.277811</ele>
        <time>2021-08-20T03:27:00.291Z</time>
      </trkpt>
      <trkpt lat="41.9506" lon="34.83862">
        <ele>153.777885</ele>
        <time>2021-08-20T03:27:22.021Z</time>
      </trkpt>
      <trkpt lat="41.95115" lon="34.83706">
        <ele>154.848895</ele>
        <time>2021-08-20T03:28:06.451Z</time>
      </trkpt>
      <trkpt lat="41.95121" lon="34.83655">
        <ele>156.091169</ele>
        <time>2021-08-20T03:28:24.915Z</time>
      </trkpt>
      <trkpt lat="41.95123" lon="34.83628">
        <ele>157.004631</ele>
        <time>2021-08-20T03:28:35.116Z</time>
      </trkpt>
      <trkpt lat="41.95131" lon="34.83493">
        <ele>161.611933</ele>
        <time>2021-08-20T03:29:34.439Z</time>
      </trkpt>
      <trkpt lat="41.95155" lon="34.83402">
        <ele>165.071857</ele>
        <time>2021-08-20T03:30:22.754Z</time>
      </trkpt>
      <trkpt lat="41.95197" lon="34.83318">
        <ele>168.876326</ele>
        <time>2021-08-20T03:31:11.058Z</time>
      </trkpt>
      <trkpt lat="41.95216" lon="34.83303">
        <ele>170.017247</ele>
        <time>2021-08-20T03:31:24.108Z</time>
      </trkpt>
      <trkpt lat="41.95277" lon="34.83277">
        <ele>172.142569</ele>
        <time>2021-08-20T03:31:57.561Z</time>
      </trkpt>
      <trkpt lat="41.95306" lon="34.83188">
        <ele>171.6068</ele>
        <time>2021-08-20T03:32:25.529Z</time>
      </trkpt>
      <trkpt lat="41.95307" lon="34.83154">
        <ele>171.42153</ele>
        <time>2021-08-20T03:32:31.685Z</time>
      </trkpt>
      <trkpt lat="41.95281" lon="34.83054">
        <ele>169.901452</ele>
        <time>2021-08-20T03:32:49.104Z</time>
      </trkpt>
      <trkpt lat="41.95283" lon="34.83027">
        <ele>168.520892</ele>
        <time>2021-08-20T03:32:53.409Z</time>
      </trkpt>
      <trkpt lat="41.95284" lon="34.83013">
        <ele>167.820855</ele>
        <time>2021-08-20T03:32:55.446Z</time>
      </trkpt>
      <trkpt lat="41.95309" lon="34.82977">
        <ele>165.355891</ele>
        <time>2021-08-20T03:33:02.764Z</time>
      </trkpt>
      <trkpt lat="41.95343" lon="34.82927">
        <ele>161.908303</ele>
        <time>2021-08-20T03:33:12.806Z</time>
      </trkpt>
      <trkpt lat="41.95394" lon="34.82863">
        <ele>157.3835</ele>
        <time>2021-08-20T03:33:26.255Z</time>
      </trkpt>
      <trkpt lat="41.95394" lon="34.82748">
        <ele>152.223004</ele>
        <time>2021-08-20T03:33:43.816Z</time>
      </trkpt>
      <trkpt lat="41.95378" lon="34.82615">
        <ele>146.812755</ele>
        <time>2021-08-20T03:34:05.570Z</time>
      </trkpt>
      <trkpt lat="41.95454" lon="34.82503">
        <ele>142.340825</ele>
        <time>2021-08-20T03:34:30.654Z</time>
      </trkpt>
      <trkpt lat="41.95435" lon="34.82276">
        <ele>135.835974</ele>
        <time>2021-08-20T03:35:08.087Z</time>
      </trkpt>
      <trkpt lat="41.95451" lon="34.82228">
        <ele>134.377167</ele>
        <time>2021-08-20T03:35:16.687Z</time>
      </trkpt>
      <trkpt lat="41.95525" lon="34.82164">
        <ele>131.674734</ele>
        <time>2021-08-20T03:35:37.216Z</time>
      </trkpt>
      <trkpt lat="41.9549" lon="34.81946">
        <ele>125.054654</ele>
        <time>2021-08-20T03:36:15.655Z</time>
      </trkpt>
      <trkpt lat="41.95408" lon="34.81769">
        <ele>115.033191</ele>
        <time>2021-08-20T03:36:46.872Z</time>
      </trkpt>
      <trkpt lat="41.95346" lon="34.81633">
        <ele>104.292823</ele>
        <time>2021-08-20T03:37:09.547Z</time>
      </trkpt>
      <trkpt lat="41.95338" lon="34.81602">
        <ele>102.074476</ele>
        <time>2021-08-20T03:37:14.214Z</time>
      </trkpt>
      <trkpt lat="41.95335" lon="34.81548">
        <ele>98.335503</ele>
        <time>2021-08-20T03:37:21.891Z</time>
      </trkpt>
      <trkpt lat="41.95354" lon="34.81472">
        <ele>92.799303</ele>
        <time>2021-08-20T03:37:33.344Z</time>
      </trkpt>
      <trkpt lat="41.95432" lon="34.81236">
        <ele>75.990171</ele>
        <time>2021-08-20T03:38:10.713Z</time>
      </trkpt>
      <trkpt lat="41.95465" lon="34.81153">
        <ele>70.154979</ele>
        <time>2021-08-20T03:38:24.438Z</time>
      </trkpt>
      <trkpt lat="41.95541" lon="34.80957">
        <ele>57.226387</ele>
        <time>2021-08-20T03:38:56.936Z</time>
      </trkpt>
      <trkpt lat="41.9556" lon="34.8089">
        <ele>53.04423</ele>
        <time>2021-08-20T03:39:07.490Z</time>
      </trkpt>
      <trkpt lat="41.95557" lon="34.80821">
        <ele>49.014829</ele>
        <time>2021-08-20T03:39:17.644Z</time>
      </trkpt>
      <trkpt lat="41.95527" lon="34.80768">
        <ele>45.131844</ele>
        <time>2021-08-20T03:39:27.397Z</time>
      </trkpt>
      <trkpt lat="41.95476" lon="34.80756">
        <ele>41.177567</ele>
        <time>2021-08-20T03:39:37.562Z</time>
      </trkpt>
      <trkpt lat="41.95356" lon="34.80798">
        <ele>32.283576</ele>
        <time>2021-08-20T03:40:02.142Z</time>
      </trkpt>
      <trkpt lat="41.95295" lon="34.80801">
        <ele>28.454887</ele>
        <time>2021-08-20T03:40:14.557Z</time>
      </trkpt>
      <trkpt lat="41.95242" lon="34.80771">
        <ele>25.846033</ele>
        <time>2021-08-20T03:40:26.578Z</time>
      </trkpt>
      <trkpt lat="41.95198" lon="34.80717">
        <ele>23.143387</ele>
        <time>2021-08-20T03:40:39.552Z</time>
      </trkpt>
      <trkpt lat="41.9517" lon="34.80648">
        <ele>20.9137</ele>
        <time>2021-08-20T03:40:53.076Z</time>
      </trkpt>
      <trkpt lat="41.95163" lon="34.80576">
        <ele>19.844614</ele>
        <time>2021-08-20T03:41:06.389Z</time>
      </trkpt>
      <trkpt lat="41.95178" lon="34.80504">
        <ele>18.743741</ele>
        <time>2021-08-20T03:41:20.534Z</time>
      </trkpt>
      <trkpt lat="41.95211" lon="34.80438">
        <ele>17.71287</ele>
        <time>2021-08-20T03:41:35.557Z</time>
      </trkpt>
      <trkpt lat="41.95257" lon="34.80389">
        <ele>18.0696</ele>
        <time>2021-08-20T03:41:50.354Z</time>
      </trkpt>
      <trkpt lat="41.95373" lon="34.80286">
        <ele>20.236949</ele>
        <time>2021-08-20T03:42:45.722Z</time>
      </trkpt>
      <trkpt lat="41.95417" lon="34.80234">
        <ele>23.925787</ele>
        <time>2021-08-20T03:43:20.851Z</time>
      </trkpt>
      <trkpt lat="41.95434" lon="34.80176">
        <ele>26.845338</ele>
        <time>2021-08-20T03:43:53.578Z</time>
      </trkpt>
      <trkpt lat="41.95427" lon="34.8013">
        <ele>29.044202</ele>
        <time>2021-08-20T03:44:22.096Z</time>
      </trkpt>
      <trkpt lat="41.95395" lon="34.80104">
        <ele>32.08525</ele>
        <time>2021-08-20T03:44:55.577Z</time>
      </trkpt>
      <trkpt lat="41.95346" lon="34.80082">
        <ele>37.058096</ele>
        <time>2021-08-20T03:45:40.670Z</time>
      </trkpt>
      <trkpt lat="41.95321" lon="34.80046">
        <ele>40.612064</ele>
        <time>2021-08-20T03:46:12.586Z</time>
      </trkpt>
      <trkpt lat="41.95297" lon="34.79976">
        <ele>46.133801</ele>
        <time>2021-08-20T03:47:01.775Z</time>
      </trkpt>
      <trkpt lat="41.95229" lon="34.79863">
        <ele>54.918107</ele>
        <time>2021-08-20T03:48:28.911Z</time>
      </trkpt>
      <trkpt lat="41.95182" lon="34.79693">
        <ele>64.055748</ele>
        <time>2021-08-20T03:50:02.982Z</time>
      </trkpt>
      <trkpt lat="41.9516" lon="34.79641">
        <ele>66.186955</ele>
        <time>2021-08-20T03:50:28.901Z</time>
      </trkpt>
      <trkpt lat="41.95142" lon="34.79591">
        <ele>68.17436</ele>
        <time>2021-08-20T03:50:52.109Z</time>
      </trkpt>
      <trkpt lat="41.951" lon="34.79439">
        <ele>72.028124</ele>
        <time>2021-08-20T03:51:50.796Z</time>
      </trkpt>
      <trkpt lat="41.95078" lon="34.79365">
        <ele>73.365443</ele>
        <time>2021-08-20T03:52:15.229Z</time>
      </trkpt>
      <trkpt lat="41.95049" lon="34.79298">
        <ele>74.740713</ele>
        <time>2021-08-20T03:52:39.631Z</time>
      </trkpt>
      <trkpt lat="41.95044" lon="34.7924">
        <ele>75.970068</ele>
        <time>2021-08-20T03:52:59.356Z</time>
      </trkpt>
      <trkpt lat="41.95033" lon="34.79192">
        <ele>76.991071</ele>
        <time>2021-08-20T03:53:16.346Z</time>
      </trkpt>
      <trkpt lat="41.94987" lon="34.79069">
        <ele>80.031927</ele>
        <time>2021-08-20T03:54:08.466Z</time>
      </trkpt>
      <trkpt lat="41.94954" lon="34.79012">
        <ele>82.15452</ele>
        <time>2021-08-20T03:54:39.629Z</time>
      </trkpt>
      <trkpt lat="41.94912" lon="34.78958">
        <ele>84.470065</ele>
        <time>2021-08-20T03:55:13.228Z</time>
      </trkpt>
      <trkpt lat="41.94832" lon="34.78888">
        <ele>87.154453</ele>
        <time>2021-08-20T03:56:03.910Z</time>
      </trkpt>
      <trkpt lat="41.947" lon="34.78811">
        <ele>89.045912</ele>
        <time>2021-08-20T03:56:58.700Z</time>
      </trkpt>
      <trkpt lat="41.94685" lon="34.78787">
        <ele>88.660316</ele>
        <time>2021-08-20T03:57:05.035Z</time>
      </trkpt>
      <trkpt lat="41.94648" lon="34.78659">
        <ele>86.990136</ele>
        <time>2021-08-20T03:57:31.395Z</time>
      </trkpt>
      <trkpt lat="41.94633" lon="34.78606">
        <ele>86.293893</ele>
        <time>2021-08-20T03:57:42.019Z</time>
      </trkpt>
      <trkpt lat="41.94625" lon="34.78533">
        <ele>84.999505</ele>
        <time>2021-08-20T03:57:55.019Z</time>
      </trkpt>
      <trkpt lat="41.94607" lon="34.78447">
        <ele>83.382977</ele>
        <time>2021-08-20T03:58:10.775Z</time>
      </trkpt>
      <trkpt lat="41.94601" lon="34.78373">
        <ele>82.03934</ele>
        <time>2021-08-20T03:58:24.178Z</time>
      </trkpt>
      <trkpt lat="41.9461" lon="34.78303">
        <ele>80.803799</ele>
        <time>2021-08-20T03:58:37.181Z</time>
      </trkpt>
      <trkpt lat="41.94626" lon="34.78237">
        <ele>79.603874</ele>
        <time>2021-08-20T03:58:49.693Z</time>
      </trkpt>
      <trkpt lat="41.94666" lon="34.78118">
        <ele>77.331572</ele>
        <time>2021-08-20T03:59:12.816Z</time>
      </trkpt>
      <trkpt lat="41.94699" lon="34.7808">
        <ele>76.276338</ele>
        <time>2021-08-20T03:59:23.236Z</time>
      </trkpt>
      <trkpt lat="41.94739" lon="34.7806">
        <ele>75.239865</ele>
        <time>2021-08-20T03:59:33.471Z</time>
      </trkpt>
      <trkpt lat="41.94872" lon="34.78022">
        <ele>70.858486</ele>
        <time>2021-08-20T04:00:05.958Z</time>
      </trkpt>
      <trkpt lat="41.94913" lon="34.78004">
        <ele>68.988278</ele>
        <time>2021-08-20T04:00:15.246Z</time>
      </trkpt>
      <trkpt lat="41.94945" lon="34.77969">
        <ele>67.199581</ele>
        <time>2021-08-20T04:00:24.014Z</time>
      </trkpt>
      <trkpt lat="41.94958" lon="34.7792">
        <ele>65.521814</ele>
        <time>2021-08-20T04:00:32.059Z</time>
      </trkpt>
      <trkpt lat="41.94953" lon="34.77871">
        <ele>62.523697</ele>
        <time>2021-08-20T04:00:39.539Z</time>
      </trkpt>
      <trkpt lat="41.94946" lon="34.77862">
        <ele>61.749616</ele>
        <time>2021-08-20T04:00:41.388Z</time>
      </trkpt>
      <trkpt lat="41.94956" lon="34.77844">
        <ele>60.408244</ele>
        <time>2021-08-20T04:00:44.805Z</time>
      </trkpt>
      <trkpt lat="41.94977" lon="34.77831">
        <ele>58.517817</ele>
        <time>2021-08-20T04:00:49.622Z</time>
      </trkpt>
      <trkpt lat="41.95003" lon="34.77795">
        <ele>55.496237</ele>
        <time>2021-08-20T04:00:57.158Z</time>
      </trkpt>
      <trkpt lat="41.9507" lon="34.77681">
        <ele>45.602237</ele>
        <time>2021-08-20T04:01:18.737Z</time>
      </trkpt>
      <trkpt lat="41.95093" lon="34.77579">
        <ele>37.36869</ele>
        <time>2021-08-20T04:01:34.639Z</time>
      </trkpt>
      <trkpt lat="41.95086" lon="34.77557">
        <ele>35.508003</ele>
        <time>2021-08-20T04:01:38.201Z</time>
      </trkpt>
      <trkpt lat="41.94987" lon="34.77545">
        <ele>27.079627</ele>
        <time>2021-08-20T04:01:57.626Z</time>
      </trkpt>
      <trkpt lat="41.9499" lon="34.77497">
        <ele>24.32108</ele>
        <time>2021-08-20T04:02:04.898Z</time>
      </trkpt>
      <trkpt lat="41.94996" lon="34.7742">
        <ele>19.870417</ele>
        <time>2021-08-20T04:02:17.345Z</time>
      </trkpt>
      <trkpt lat="41.94972" lon="34.77379">
        <ele>18.73251</ele>
        <time>2021-08-20T04:02:26.712Z</time>
      </trkpt>
      <trkpt lat="41.94959" lon="34.77338">
        <ele>19.310921</ele>
        <time>2021-08-20T04:02:36.151Z</time>
      </trkpt>
      <trkpt lat="41.9495" lon="34.77325">
        <ele>19.534061</ele>
        <time>2021-08-20T04:02:41.063Z</time>
      </trkpt>
      <trkpt lat="41.94939" lon="34.77309">
        <ele>19.807462</ele>
        <time>2021-08-20T04:02:46.640Z</time>
      </trkpt>
      <trkpt lat="41.94924" lon="34.77301">
        <ele>20.082243</ele>
        <time>2021-08-20T04:02:53.414Z</time>
      </trkpt>
      <trkpt lat="41.94955" lon="34.77211">
        <ele>21.334194</ele>
        <time>2021-08-20T04:03:35.823Z</time>
      </trkpt>
      <trkpt lat="41.94955" lon="34.77163">
        <ele>23.163823</ele>
        <time>2021-08-20T04:04:01.680Z</time>
      </trkpt>
      <trkpt lat="41.9497" lon="34.77046">
        <ele>28.536825</ele>
        <time>2021-08-20T04:05:03.248Z</time>
      </trkpt>
      <trkpt lat="41.94969" lon="34.77012">
        <ele>30.069898</ele>
        <time>2021-08-20T04:05:20.711Z</time>
      </trkpt>
      <trkpt lat="41.94998" lon="34.76814">
        <ele>37.55762</ele>
        <time>2021-08-20T04:06:51.883Z</time>
      </trkpt>
      <trkpt lat="41.95004" lon="34.76722">
        <ele>40.716474</ele>
        <time>2021-08-20T04:07:26.705Z</time>
      </trkpt>
      <trkpt lat="41.94997" lon="34.76635">
        <ele>42.898743</ele>
        <time>2021-08-20T04:07:59.065Z</time>
      </trkpt>
      <trkpt lat="41.94964" lon="34.76484">
        <ele>46.839462</ele>
        <time>2021-08-20T04:08:56.762Z</time>
      </trkpt>
      <trkpt lat="41.94946" lon="34.76427">
        <ele>48.801182</ele>
        <time>2021-08-20T04:09:20.505Z</time>
      </trkpt>
      <trkpt lat="41.94917" lon="34.76368">
        <ele>51.042734</ele>
        <time>2021-08-20T04:09:49.080Z</time>
      </trkpt>
      <trkpt lat="41.94858" lon="34.7627">
        <ele>54.994657</ele>
        <time>2021-08-20T04:10:43.259Z</time>
      </trkpt>
      <trkpt lat="41.9481" lon="34.76194">
        <ele>58.076944</ele>
        <time>2021-08-20T04:11:28.243Z</time>
      </trkpt>
      <trkpt lat="41.94724" lon="34.76081">
        <ele>61.828561</ele>
        <time>2021-08-20T04:12:29.235Z</time>
      </trkpt>
      <trkpt lat="41.94675" lon="34.76018">
        <ele>61.877469</ele>
        <time>2021-08-20T04:12:53.717Z</time>
      </trkpt>
      <trkpt lat="41.94631" lon="34.75988">
        <ele>61.912913</ele>
        <time>2021-08-20T04:13:06.909Z</time>
      </trkpt>
      <trkpt lat="41.94538" lon="34.75979">
        <ele>59.689368</ele>
        <time>2021-08-20T04:13:28.217Z</time>
      </trkpt>
      <trkpt lat="41.94498" lon="34.75932">
        <ele>57.691635</ele>
        <time>2021-08-20T04:13:39.709Z</time>
      </trkpt>
      <trkpt lat="41.94478" lon="34.75864">
        <ele>55.646317</ele>
        <time>2021-08-20T04:13:51.269Z</time>
      </trkpt>
      <trkpt lat="41.94478" lon="34.75794">
        <ele>54.879762</ele>
        <time>2021-08-20T04:14:03.115Z</time>
      </trkpt>
      <trkpt lat="41.94492" lon="34.75756">
        <ele>54.643417</ele>
        <time>2021-08-20T04:14:11.051Z</time>
      </trkpt>
      <trkpt lat="41.94537" lon="34.75731">
        <ele>54.28188</ele>
        <time>2021-08-20T04:14:24.494Z</time>
      </trkpt>
      <trkpt lat="41.94591" lon="34.75713">
        <ele>53.86878</ele>
        <time>2021-08-20T04:14:46.058Z</time>
      </trkpt>
      <trkpt lat="41.94633" lon="34.75688">
        <ele>55.391597</ele>
        <time>2021-08-20T04:15:07.601Z</time>
      </trkpt>
      <trkpt lat="41.94651" lon="34.75643">
        <ele>56.808085</ele>
        <time>2021-08-20T04:15:28.156Z</time>
      </trkpt>
      <trkpt lat="41.94651" lon="34.75576">
        <ele>58.665503</ele>
        <time>2021-08-20T04:15:58.701Z</time>
      </trkpt>
      <trkpt lat="41.94638" lon="34.75504">
        <ele>60.644253</ele>
        <time>2021-08-20T04:16:30.221Z</time>
      </trkpt>
      <trkpt lat="41.94556" lon="34.7518">
        <ele>63.616478</ele>
        <time>2021-08-20T04:18:14.288Z</time>
      </trkpt>
      <trkpt lat="41.94538" lon="34.75023">
        <ele>62.084764</ele>
        <time>2021-08-20T04:18:41.567Z</time>
      </trkpt>
      <trkpt lat="41.94546" lon="34.74946">
        <ele>60.368972</ele>
        <time>2021-08-20T04:18:54.327Z</time>
      </trkpt>
      <trkpt lat="41.9457" lon="34.74859">
        <ele>58.321192</ele>
        <time>2021-08-20T04:19:10.330Z</time>
      </trkpt>
      <trkpt lat="41.94629" lon="34.7468">
        <ele>55.170472</ele>
        <time>2021-08-20T04:19:46.719Z</time>
      </trkpt>
      <trkpt lat="41.94645" lon="34.74578">
        <ele>53.854797</ele>
        <time>2021-08-20T04:20:05.764Z</time>
      </trkpt>
      <trkpt lat="41.94656" lon="34.74492">
        <ele>53.933036</ele>
        <time>2021-08-20T04:20:22.307Z</time>
      </trkpt>
      <trkpt lat="41.94663" lon="34.74411">
        <ele>54.006215</ele>
        <time>2021-08-20T04:20:40.995Z</time>
      </trkpt>
      <trkpt lat="41.94648" lon="34.74348">
        <ele>54.22457</ele>
        <time>2021-08-20T04:21:01.385Z</time>
      </trkpt>
      <trkpt lat="41.94608" lon="34.74296">
        <ele>57.343966</ele>
        <time>2021-08-20T04:21:32.906Z</time>
      </trkpt>
      <trkpt lat="41.94556" lon="34.7425">
        <ele>60.833709</ele>
        <time>2021-08-20T04:22:15.065Z</time>
      </trkpt>
      <trkpt lat="41.94498" lon="34.7421">
        <ele>64.415621</ele>
        <time>2021-08-20T04:23:02.101Z</time>
      </trkpt>
      <trkpt lat="41.94448" lon="34.74163">
        <ele>67.11039</ele>
        <time>2021-08-20T04:23:43.790Z</time>
      </trkpt>
      <trkpt lat="41.94418" lon="34.74093">
        <ele>69.764584</ele>
        <time>2021-08-20T04:24:17.144Z</time>
      </trkpt>
      <trkpt lat="41.94401" lon="34.74023">
        <ele>72.083014</ele>
        <time>2021-08-20T04:24:41.066Z</time>
      </trkpt>
      <trkpt lat="41.94402" lon="34.74016">
        <ele>72.063719</ele>
        <time>2021-08-20T04:24:43.356Z</time>
      </trkpt>
      <trkpt lat="41.94413" lon="34.73949">
        <ele>71.881515</ele>
        <time>2021-08-20T04:25:00.106Z</time>
      </trkpt>
      <trkpt lat="41.94441" lon="34.73872">
        <ele>71.653489</ele>
        <time>2021-08-20T04:25:17.884Z</time>
      </trkpt>
      <trkpt lat="41.94455" lon="34.73788">
        <ele>71.333446</ele>
        <time>2021-08-20T04:25:34.202Z</time>
      </trkpt>
      <trkpt lat="41.94453" lon="34.737">
        <ele>70.16193</ele>
        <time>2021-08-20T04:25:51.218Z</time>
      </trkpt>
      <trkpt lat="41.94434" lon="34.73618">
        <ele>69.019078</ele>
        <time>2021-08-20T04:26:07.548Z</time>
      </trkpt>
      <trkpt lat="41.94407" lon="34.73546">
        <ele>67.57322</ele>
        <time>2021-08-20T04:26:22.085Z</time>
      </trkpt>
      <trkpt lat="41.94373" lon="34.73492">
        <ele>65.3926</ele>
        <time>2021-08-20T04:26:34.118Z</time>
      </trkpt>
      <trkpt lat="41.94335" lon="34.73456">
        <ele>63.466284</ele>
        <time>2021-08-20T04:26:44.159Z</time>
      </trkpt>
      <trkpt lat="41.94312" lon="34.7341">
        <ele>61.757911</ele>
        <time>2021-08-20T04:26:52.755Z</time>
      </trkpt>
      <trkpt lat="41.9431" lon="34.73332">
        <ele>59.482576</ele>
        <time>2021-08-20T04:27:04.790Z</time>
      </trkpt>
      <trkpt lat="41.94322" lon="34.73189">
        <ele>55.457141</ele>
        <time>2021-08-20T04:27:28.115Z</time>
      </trkpt>
      <trkpt lat="41.94334" lon="34.73036">
        <ele>54.500782</ele>
        <time>2021-08-20T04:27:58.723Z</time>
      </trkpt>
      <trkpt lat="41.94326" lon="34.72957">
        <ele>54.88814</ele>
        <time>2021-08-20T04:28:23.651Z</time>
      </trkpt>
      <trkpt lat="41.94278" lon="34.72746">
        <ele>57.032203</ele>
        <time>2021-08-20T04:29:37.001Z</time>
      </trkpt>
      <trkpt lat="41.94248" lon="34.72719">
        <ele>57.589626</ele>
        <time>2021-08-20T04:29:50.170Z</time>
      </trkpt>
      <trkpt lat="41.94235" lon="34.72672">
        <ele>57.711381</ele>
        <time>2021-08-20T04:30:02.154Z</time>
      </trkpt>
      <trkpt lat="41.9421" lon="34.72609">
        <ele>56.671147</ele>
        <time>2021-08-20T04:30:17.394Z</time>
      </trkpt>
      <trkpt lat="41.94237" lon="34.72569">
        <ele>55.893541</ele>
        <time>2021-08-20T04:30:27.758Z</time>
      </trkpt>
      <trkpt lat="41.94302" lon="34.7253">
        <ele>54.503949</ele>
        <time>2021-08-20T04:30:44.928Z</time>
      </trkpt>
      <trkpt lat="41.94311" lon="34.72497">
        <ele>53.193434</ele>
        <time>2021-08-20T04:30:50.988Z</time>
      </trkpt>
      <trkpt lat="41.94296" lon="34.72491">
        <ele>52.370721</ele>
        <time>2021-08-20T04:30:54.454Z</time>
      </trkpt>
      <trkpt lat="41.94248" lon="34.72439">
        <ele>49.055248</ele>
        <time>2021-08-20T04:31:08.208Z</time>
      </trkpt>
      <trkpt lat="41.94205" lon="34.72342">
        <ele>44.376437</ele>
        <time>2021-08-20T04:31:26.368Z</time>
      </trkpt>
      <trkpt lat="41.94153" lon="34.72255">
        <ele>37.561415</ele>
        <time>2021-08-20T04:31:43.376Z</time>
      </trkpt>
      <trkpt lat="41.94056" lon="34.7221">
        <ele>29.38329</ele>
        <time>2021-08-20T04:32:04.154Z</time>
      </trkpt>
      <trkpt lat="41.93978" lon="34.72184">
        <ele>24.771646</ele>
        <time>2021-08-20T04:32:20.611Z</time>
      </trkpt>
      <trkpt lat="41.93965" lon="34.72174">
        <ele>23.881313</ele>
        <time>2021-08-20T04:32:23.952Z</time>
      </trkpt>
      <trkpt lat="41.93957" lon="34.7214">
        <ele>22.348189</ele>
        <time>2021-08-20T04:32:29.704Z</time>
      </trkpt>
      <trkpt lat="41.93954" lon="34.72097">
        <ele>20.48977</ele>
        <time>2021-08-20T04:32:37.019Z</time>
      </trkpt>
      <trkpt lat="41.94111" lon="34.71839">
        <ele>22.496958</ele>
        <time>2021-08-20T04:33:57.932Z</time>
      </trkpt>
      <trkpt lat="41.94141" lon="34.71758">
        <ele>26.288373</ele>
        <time>2021-08-20T04:34:43.729Z</time>
      </trkpt>
      <trkpt lat="41.9415" lon="34.71677">
        <ele>29.766344</ele>
        <time>2021-08-20T04:35:33.588Z</time>
      </trkpt>
      <trkpt lat="41.94137" lon="34.71599">
        <ele>35.324676</ele>
        <time>2021-08-20T04:36:27.254Z</time>
      </trkpt>
      <trkpt lat="41.94102" lon="34.71543">
        <ele>40.410874</ele>
        <time>2021-08-20T04:37:15.847Z</time>
      </trkpt>
      <trkpt lat="41.9406" lon="34.71505">
        <ele>45.143588</ele>
        <time>2021-08-20T04:37:57.795Z</time>
      </trkpt>
      <trkpt lat="41.94033" lon="34.71466">
        <ele>47.893175</ele>
        <time>2021-08-20T04:38:26.956Z</time>
      </trkpt>
      <trkpt lat="41.94044" lon="34.71418">
        <ele>49.986457</ele>
        <time>2021-08-20T04:38:51.118Z</time>
      </trkpt>
      <trkpt lat="41.94085" lon="34.71388">
        <ele>52.601875</ele>
        <time>2021-08-20T04:39:18.303Z</time>
      </trkpt>
      <trkpt lat="41.94182" lon="34.71356">
        <ele>58.11162</ele>
        <time>2021-08-20T04:40:13.959Z</time>
      </trkpt>
      <trkpt lat="41.94199" lon="34.71314">
        <ele>60.000486</ele>
        <time>2021-08-20T04:40:34.608Z</time>
      </trkpt>
      <trkpt lat="41.9418" lon="34.71258">
        <ele>62.43192</ele>
        <time>2021-08-20T04:41:03.020Z</time>
      </trkpt>
      <trkpt lat="41.94073" lon="34.71074">
        <ele>69.958475</ele>
        <time>2021-08-20T04:42:55.052Z</time>
      </trkpt>
      <trkpt lat="41.94066" lon="34.71029">
        <ele>71.2198</ele>
        <time>2021-08-20T04:43:11.605Z</time>
      </trkpt>
      <trkpt lat="41.94075" lon="34.70993">
        <ele>72.261786</ele>
        <time>2021-08-20T04:43:23.598Z</time>
      </trkpt>
      <trkpt lat="41.94237" lon="34.70829">
        <ele>67.841787</ele>
        <time>2021-08-20T04:44:11.401Z</time>
      </trkpt>
      <trkpt lat="41.94247" lon="34.70816">
        <ele>67.134839</ele>
        <time>2021-08-20T04:44:14.318Z</time>
      </trkpt>
      <trkpt lat="41.94254" lon="34.70788">
        <ele>66.041412</ele>
        <time>2021-08-20T04:44:18.835Z</time>
      </trkpt>
      <trkpt lat="41.9425" lon="34.70754">
        <ele>64.750177</ele>
        <time>2021-08-20T04:44:24.163Z</time>
      </trkpt>
      <trkpt lat="41.94236" lon="34.70735">
        <ele>63.750046</ele>
        <time>2021-08-20T04:44:28.274Z</time>
      </trkpt>
      <trkpt lat="41.94215" lon="34.70729">
        <ele>62.670869</ele>
        <time>2021-08-20T04:44:32.715Z</time>
      </trkpt>
      <trkpt lat="41.94124" lon="34.70743">
        <ele>57.981357</ele>
        <time>2021-08-20T04:44:51.815Z</time>
      </trkpt>
      <trkpt lat="41.94052" lon="34.70741">
        <ele>54.169582</ele>
        <time>2021-08-20T04:45:06.879Z</time>
      </trkpt>
      <trkpt lat="41.94028" lon="34.70723">
        <ele>52.744955</ele>
        <time>2021-08-20T04:45:12.532Z</time>
      </trkpt>
      <trkpt lat="41.9402" lon="34.70695">
        <ele>51.602463</ele>
        <time>2021-08-20T04:45:17.108Z</time>
      </trkpt>
      <trkpt lat="41.9403" lon="34.70667">
        <ele>50.380217</ele>
        <time>2021-08-20T04:45:22.059Z</time>
      </trkpt>
      <trkpt lat="41.94105" lon="34.70595">
        <ele>47.406879</ele>
        <time>2021-08-20T04:45:42.037Z</time>
      </trkpt>
      <trkpt lat="41.94256" lon="34.70428">
        <ele>44.671295</ele>
        <time>2021-08-20T04:46:31.227Z</time>
      </trkpt>
      <trkpt lat="41.94285" lon="34.7037">
        <ele>44.769002</ele>
        <time>2021-08-20T04:46:52.578Z</time>
      </trkpt>
      <trkpt lat="41.94271" lon="34.70126">
        <ele>48.552905</ele>
        <time>2021-08-20T04:48:22.174Z</time>
      </trkpt>
      <trkpt lat="41.94272" lon="34.70038">
        <ele>47.784843</ele>
        <time>2021-08-20T04:48:45.640Z</time>
      </trkpt>
      <trkpt lat="41.94281" lon="34.69964">
        <ele>45.546842</ele>
        <time>2021-08-20T04:48:59.050Z</time>
      </trkpt>
      <trkpt lat="41.943" lon="34.69812">
        <ele>39.587637</ele>
        <time>2021-08-20T04:49:21.848Z</time>
      </trkpt>
      <trkpt lat="41.94312" lon="34.69787">
        <ele>37.602932</ele>
        <time>2021-08-20T04:49:26.117Z</time>
      </trkpt>
      <trkpt lat="41.94321" lon="34.69768">
        <ele>36.06323</ele>
        <time>2021-08-20T04:49:29.318Z</time>
      </trkpt>
      <trkpt lat="41.94415" lon="34.69646">
        <ele>24.751064</ele>
        <time>2021-08-20T04:49:54.244Z</time>
      </trkpt>
      <trkpt lat="41.94469" lon="34.69528">
        <ele>18.60452</ele>
        <time>2021-08-20T04:50:15.111Z</time>
      </trkpt>
      <trkpt lat="41.94491" lon="34.69462">
        <ele>15.395866</ele>
        <time>2021-08-20T04:50:26.900Z</time>
      </trkpt>
      <trkpt lat="41.94504" lon="34.69395">
        <ele>15.454044</ele>
        <time>2021-08-20T04:50:39.518Z</time>
      </trkpt>
      <trkpt lat="41.94513" lon="34.69332">
        <ele>15.885197</ele>
        <time>2021-08-20T04:50:56.256Z</time>
      </trkpt>
      <trkpt lat="41.94517" lon="34.69261">
        <ele>16.363745</ele>
        <time>2021-08-20T04:51:20.079Z</time>
      </trkpt>
      <trkpt lat="41.94515" lon="34.69202">
        <ele>17.188916</ele>
        <time>2021-08-20T04:51:43.100Z</time>
      </trkpt>
      <trkpt lat="41.94507" lon="34.69137">
        <ele>19.666609</ele>
        <time>2021-08-20T04:52:11.458Z</time>
      </trkpt>
      <trkpt lat="41.94456" lon="34.6895">
        <ele>27.268564</ele>
        <time>2021-08-20T04:53:43.881Z</time>
      </trkpt>
      <trkpt lat="41.94392" lon="34.68653">
        <ele>40.752933</ele>
        <time>2021-08-20T04:56:05.566Z</time>
      </trkpt>
      <trkpt lat="41.94367" lon="34.68562">
        <ele>45.552417</ele>
        <time>2021-08-20T04:56:57.185Z</time>
      </trkpt>
      <trkpt lat="41.94338" lon="34.68486">
        <ele>50.459705</ele>
        <time>2021-08-20T04:57:45.760Z</time>
      </trkpt>
      <trkpt lat="41.9432" lon="34.68419">
        <ele>55.060168</ele>
        <time>2021-08-20T04:58:28.262Z</time>
      </trkpt>
      <trkpt lat="41.94291" lon="34.68158">
        <ele>72.290683</ele>
        <time>2021-08-20T05:01:09.158Z</time>
      </trkpt>
      <trkpt lat="41.94265" lon="34.68004">
        <ele>81.94258</ele>
        <time>2021-08-20T05:02:43.342Z</time>
      </trkpt>
      <trkpt lat="41.94252" lon="34.67951">
        <ele>84.84353</ele>
        <time>2021-08-20T05:03:14.011Z</time>
      </trkpt>
      <trkpt lat="41.9423" lon="34.6789">
        <ele>88.379775</ele>
        <time>2021-08-20T05:03:48.581Z</time>
      </trkpt>
      <trkpt lat="41.94194" lon="34.67849">
        <ele>91.655737</ele>
        <time>2021-08-20T05:04:16.979Z</time>
      </trkpt>
      <trkpt lat="41.94141" lon="34.67801">
        <ele>95.509621</ele>
        <time>2021-08-20T05:04:56.367Z</time>
      </trkpt>
      <trkpt lat="41.94125" lon="34.67776">
        <ele>96.987864</ele>
        <time>2021-08-20T05:05:11.070Z</time>
      </trkpt>
      <trkpt lat="41.94126" lon="34.67764">
        <ele>97.546299</ele>
        <time>2021-08-20T05:05:17.082Z</time>
      </trkpt>
      <trkpt lat="41.94132" lon="34.67745">
        <ele>98.458174</ele>
        <time>2021-08-20T05:05:25.532Z</time>
      </trkpt>
      <trkpt lat="41.94111" lon="34.6768">
        <ele>101.623945</ele>
        <time>2021-08-20T05:06:01.617Z</time>
      </trkpt>
      <trkpt lat="41.94063" lon="34.67577">
        <ele>107.573417</ele>
        <time>2021-08-20T05:07:08.697Z</time>
      </trkpt>
      <trkpt lat="41.94048" lon="34.67516">
        <ele>110.781381</ele>
        <time>2021-08-20T05:07:47.166Z</time>
      </trkpt>
      <trkpt lat="41.94012" lon="34.67504">
        <ele>113.203325</ele>
        <time>2021-08-20T05:08:11.700Z</time>
      </trkpt>
      <trkpt lat="41.93984" lon="34.6748">
        <ele>114.272775</ele>
        <time>2021-08-20T05:08:29.087Z</time>
      </trkpt>
      <trkpt lat="41.93983" lon="34.67455">
        <ele>113.872546</ele>
        <time>2021-08-20T05:08:36.857Z</time>
      </trkpt>
      <trkpt lat="41.93949" lon="34.67429">
        <ele>113.039952</ele>
        <time>2021-08-20T05:08:50.649Z</time>
      </trkpt>
      <trkpt lat="41.93936" lon="34.67404">
        <ele>112.550173</ele>
        <time>2021-08-20T05:08:56.553Z</time>
      </trkpt>
      <trkpt lat="41.93913" lon="34.67377">
        <ele>111.891653</ele>
        <time>2021-08-20T05:09:03.376Z</time>
      </trkpt>
      <trkpt lat="41.93921" lon="34.67317">
        <ele>110.913798</ele>
        <time>2021-08-20T05:09:12.661Z</time>
      </trkpt>
      <trkpt lat="41.93956" lon="34.67268">
        <ele>107.04738</ele>
        <time>2021-08-20T05:09:22.421Z</time>
      </trkpt>
      <trkpt lat="41.93956" lon="34.67223">
        <ele>103.993976</ele>
        <time>2021-08-20T05:09:28.804Z</time>
      </trkpt>
      <trkpt lat="41.93965" lon="34.67186">
        <ele>101.334561</ele>
        <time>2021-08-20T05:09:34.319Z</time>
      </trkpt>
      <trkpt lat="41.93903" lon="34.67071">
        <ele>92.437345</ele>
        <time>2021-08-20T05:09:54.736Z</time>
      </trkpt>
      <trkpt lat="41.93873" lon="34.67016">
        <ele>89.098836</ele>
        <time>2021-08-20T05:10:04.707Z</time>
      </trkpt>
      <trkpt lat="41.93866" lon="34.66979">
        <ele>87.23005</ele>
        <time>2021-08-20T05:10:10.561Z</time>
      </trkpt>
      <trkpt lat="41.93871" lon="34.66946">
        <ele>85.581551</ele>
        <time>2021-08-20T05:10:15.762Z</time>
      </trkpt>
      <trkpt lat="41.9389" lon="34.66922">
        <ele>83.865938</ele>
        <time>2021-08-20T05:10:21.201Z</time>
      </trkpt>
      <trkpt lat="41.93918" lon="34.66912">
        <ele>82.30336</ele>
        <time>2021-08-20T05:10:27.362Z</time>
      </trkpt>
      <trkpt lat="41.94025" lon="34.669">
        <ele>79.817065</ele>
        <time>2021-08-20T05:10:52.650Z</time>
      </trkpt>
      <trkpt lat="41.94058" lon="34.66883">
        <ele>78.998737</ele>
        <time>2021-08-20T05:11:02.210Z</time>
      </trkpt>
      <trkpt lat="41.9408" lon="34.66857">
        <ele>78.320709</ele>
        <time>2021-08-20T05:11:10.980Z</time>
      </trkpt>
      <trkpt lat="41.9409" lon="34.66822">
        <ele>77.7106</ele>
        <time>2021-08-20T05:11:18.802Z</time>
      </trkpt>
      <trkpt lat="41.94089" lon="34.66784">
        <ele>77.091858</ele>
        <time>2021-08-20T05:11:26.435Z</time>
      </trkpt>
      <trkpt lat="41.94068" lon="34.66671">
        <ele>75.19654</ele>
        <time>2021-08-20T05:11:48.413Z</time>
      </trkpt>
      <trkpt lat="41.9404" lon="34.66546">
        <ele>71.228037</ele>
        <time>2021-08-20T05:12:09.188Z</time>
      </trkpt>
      <trkpt lat="41.94027" lon="34.66521">
        <ele>70.021537</ele>
        <time>2021-08-20T05:12:14.150Z</time>
      </trkpt>
      <trkpt lat="41.94017" lon="34.66498">
        <ele>69.007361</ele>
        <time>2021-08-20T05:12:18.451Z</time>
      </trkpt>
      <trkpt lat="41.94009" lon="34.66464">
        <ele>67.606581</ele>
        <time>2021-08-20T05:12:24.232Z</time>
      </trkpt>
      <trkpt lat="41.94023" lon="34.66445">
        <ele>66.598059</ele>
        <time>2021-08-20T05:12:28.342Z</time>
      </trkpt>
      <trkpt lat="41.94044" lon="34.66422">
        <ele>65.180413</ele>
        <time>2021-08-20T05:12:34.345Z</time>
      </trkpt>
      <trkpt lat="41.94065" lon="34.66394">
        <ele>63.53743</ele>
        <time>2021-08-20T05:12:40.826Z</time>
      </trkpt>
      <trkpt lat="41.9407" lon="34.66339">
        <ele>61.250198</ele>
        <time>2021-08-20T05:12:49.491Z</time>
      </trkpt>
      <trkpt lat="41.94058" lon="34.66287">
        <ele>59.002766</ele>
        <time>2021-08-20T05:12:57.858Z</time>
      </trkpt>
      <trkpt lat="41.94036" lon="34.66238">
        <ele>56.640193</ele>
        <time>2021-08-20T05:13:06.835Z</time>
      </trkpt>
      <trkpt lat="41.94019" lon="34.66184">
        <ele>53.993755</ele>
        <time>2021-08-20T05:13:16.053Z</time>
      </trkpt>
      <trkpt lat="41.94022" lon="34.6611">
        <ele>50.038305</ele>
        <time>2021-08-20T05:13:27.294Z</time>
      </trkpt>
      <trkpt lat="41.94035" lon="34.66024">
        <ele>45.338179</ele>
        <time>2021-08-20T05:13:40.225Z</time>
      </trkpt>
      <trkpt lat="41.9406" lon="34.65907">
        <ele>39.057732</ele>
        <time>2021-08-20T05:13:57.941Z</time>
      </trkpt>
      <trkpt lat="41.94104" lon="34.6569">
        <ele>29.361893</ele>
        <time>2021-08-20T05:14:31.944Z</time>
      </trkpt>
      <trkpt lat="41.94155" lon="34.65358">
        <ele>26.526671</ele>
        <time>2021-08-20T05:15:40.706Z</time>
      </trkpt>
      <trkpt lat="41.94158" lon="34.65306">
        <ele>26.68607</ele>
        <time>2021-08-20T05:15:56.798Z</time>
      </trkpt>
      <trkpt lat="41.94072" lon="34.65032">
        <ele>31.139979</ele>
        <time>2021-08-20T05:17:38.541Z</time>
      </trkpt>
      <trkpt lat="41.9406" lon="34.64955">
        <ele>31.353795</ele>
        <time>2021-08-20T05:17:59.842Z</time>
      </trkpt>
      <trkpt lat="41.94052" lon="34.6471">
        <ele>33.000168</ele>
        <time>2021-08-20T05:18:53.324Z</time>
      </trkpt>
      <trkpt lat="41.9406" lon="34.64634">
        <ele>34.055823</ele>
        <time>2021-08-20T05:19:14.989Z</time>
      </trkpt>
      <trkpt lat="41.94159" lon="34.64258">
        <ele>46.461579</ele>
        <time>2021-08-20T05:22:09.356Z</time>
      </trkpt>
      <trkpt lat="41.94169" lon="34.64185">
        <ele>48.86017</ele>
        <time>2021-08-20T05:22:42.928Z</time>
      </trkpt>
      <trkpt lat="41.94163" lon="34.6403">
        <ele>51.763551</ele>
        <time>2021-08-20T05:23:40.929Z</time>
      </trkpt>
      <trkpt lat="41.94135" lon="34.63817">
        <ele>50.714128</ele>
        <time>2021-08-20T05:24:24.744Z</time>
      </trkpt>
      <trkpt lat="41.94132" lon="34.6375">
        <ele>48.680318</ele>
        <time>2021-08-20T05:24:35.350Z</time>
      </trkpt>
      <trkpt lat="41.94138" lon="34.63688">
        <ele>46.793244</ele>
        <time>2021-08-20T05:24:44.902Z</time>
      </trkpt>
      <trkpt lat="41.94155" lon="34.63523">
        <ele>44.263816</ele>
        <time>2021-08-20T05:25:11.914Z</time>
      </trkpt>
      <trkpt lat="41.94156" lon="34.63514">
        <ele>44.224752</ele>
        <time>2021-08-20T05:25:13.502Z</time>
      </trkpt>
      <trkpt lat="41.94159" lon="34.6341">
        <ele>43.772089</ele>
        <time>2021-08-20T05:25:39.537Z</time>
      </trkpt>
      <trkpt lat="41.94155" lon="34.63056">
        <ele>54.818153</ele>
        <time>2021-08-20T05:28:27.884Z</time>
      </trkpt>
      <trkpt lat="41.94158" lon="34.62596">
        <ele>58.51559</ele>
        <time>2021-08-20T05:30:26.349Z</time>
      </trkpt>
      <trkpt lat="41.94151" lon="34.62313">
        <ele>56.687677</ele>
        <time>2021-08-20T05:31:23.888Z</time>
      </trkpt>
      <trkpt lat="41.94163" lon="34.61986">
        <ele>52.46866</ele>
        <time>2021-08-20T05:32:24.602Z</time>
      </trkpt>
      <trkpt lat="41.94197" lon="34.61669">
        <ele>49.192407</ele>
        <time>2021-08-20T05:33:23.392Z</time>
      </trkpt>
      <trkpt lat="41.94213" lon="34.61422">
        <ele>54.05444</ele>
        <time>2021-08-20T05:34:50.387Z</time>
      </trkpt>
      <trkpt lat="41.94216" lon="34.61353">
        <ele>57.075073</ele>
        <time>2021-08-20T05:35:23.572Z</time>
      </trkpt>
      <trkpt lat="41.94208" lon="34.61286">
        <ele>60.040642</ele>
        <time>2021-08-20T05:35:57.772Z</time>
      </trkpt>
      <trkpt lat="41.94212" lon="34.61243">
        <ele>61.934499</ele>
        <time>2021-08-20T05:36:20.205Z</time>
      </trkpt>
      <trkpt lat="41.94222" lon="34.61215">
        <ele>63.291919</ele>
        <time>2021-08-20T05:36:36.514Z</time>
      </trkpt>
      <trkpt lat="41.94248" lon="34.61168">
        <ele>65.954613</ele>
        <time>2021-08-20T05:37:07.611Z</time>
      </trkpt>
      <trkpt lat="41.94254" lon="34.61122">
        <ele>68.082688</ele>
        <time>2021-08-20T05:37:32.364Z</time>
      </trkpt>
      <trkpt lat="41.94253" lon="34.61022">
        <ele>72.639818</ele>
        <time>2021-08-20T05:38:22.180Z</time>
      </trkpt>
      <trkpt lat="41.94269" lon="34.60953">
        <ele>74.819924</ele>
        <time>2021-08-20T05:38:52.372Z</time>
      </trkpt>
      <trkpt lat="41.94292" lon="34.60885">
        <ele>75.653006</ele>
        <time>2021-08-20T05:39:19.165Z</time>
      </trkpt>
      <trkpt lat="41.94345" lon="34.60666">
        <ele>75.307784</ele>
        <time>2021-08-20T05:40:09.231Z</time>
      </trkpt>
      <trkpt lat="41.94371" lon="34.60529">
        <ele>72.563775</ele>
        <time>2021-08-20T05:40:32.565Z</time>
      </trkpt>
      <trkpt lat="41.94385" lon="34.60456">
        <ele>69.862245</ele>
        <time>2021-08-20T05:40:44.540Z</time>
      </trkpt>
      <trkpt lat="41.94395" lon="34.60393">
        <ele>67.476118</ele>
        <time>2021-08-20T05:40:54.788Z</time>
      </trkpt>
      <trkpt lat="41.94399" lon="34.60299">
        <ele>63.966907</ele>
        <time>2021-08-20T05:41:09.516Z</time>
      </trkpt>
      <trkpt lat="41.94468" lon="34.60115">
        <ele>54.623428</ele>
        <time>2021-08-20T05:41:41.228Z</time>
      </trkpt>
      <trkpt lat="41.94579" lon="34.59734">
        <ele>33.565056</ele>
        <time>2021-08-20T05:42:41.543Z</time>
      </trkpt>
      <trkpt lat="41.94606" lon="34.59579">
        <ele>27.070441</ele>
        <time>2021-08-20T05:43:07.033Z</time>
      </trkpt>
      <trkpt lat="41.94606" lon="34.59506">
        <ele>24.997787</ele>
        <time>2021-08-20T05:43:19.648Z</time>
      </trkpt>
      <trkpt lat="41.94594" lon="34.5944">
        <ele>23.048847</ele>
        <time>2021-08-20T05:43:31.239Z</time>
      </trkpt>
      <trkpt lat="41.9457" lon="34.59388">
        <ele>21.2847</ele>
        <time>2021-08-20T05:43:41.167Z</time>
      </trkpt>
      <trkpt lat="41.94517" lon="34.5932">
        <ele>17.856228</ele>
        <time>2021-08-20T05:43:56.738Z</time>
      </trkpt>
      <trkpt lat="41.94496" lon="34.59292">
        <ele>16.462811</ele>
        <time>2021-08-20T05:44:03.230Z</time>
      </trkpt>
      <trkpt lat="41.94488" lon="34.5926">
        <ele>15.279984</ele>
        <time>2021-08-20T05:44:08.745Z</time>
      </trkpt>
      <trkpt lat="41.94483" lon="34.59093">
        <ele>10.744384</ele>
        <time>2021-08-20T05:44:35.676Z</time>
      </trkpt>
      <trkpt lat="41.94507" lon="34.59046">
        <ele>9.573634</ele>
        <time>2021-08-20T05:44:46.164Z</time>
      </trkpt>
      <trkpt lat="41.94512" lon="34.59046">
        <ele>9.429215</ele>
        <time>2021-08-20T05:44:47.629Z</time>
      </trkpt>
      <trkpt lat="41.94591" lon="34.59058">
        <ele>7.66005</ele>
        <time>2021-08-20T05:45:09.549Z</time>
      </trkpt>
      <trkpt lat="41.94605" lon="34.59074">
        <ele>7.619449</ele>
        <time>2021-08-20T05:45:14.948Z</time>
      </trkpt>
      <trkpt lat="41.94647" lon="34.59087">
        <ele>7.527334</ele>
        <time>2021-08-20T05:45:28.078Z</time>
      </trkpt>
      <trkpt lat="41.9469" lon="34.59086">
        <ele>7.431828</ele>
        <time>2021-08-20T05:45:41.644Z</time>
      </trkpt>
      <trkpt lat="41.94742" lon="34.59043">
        <ele>7.347064</ele>
        <time>2021-08-20T05:46:02.605Z</time>
      </trkpt>
      <trkpt lat="41.94741" lon="34.5896">
        <ele>8.247445</ele>
        <time>2021-08-20T05:46:25.373Z</time>
      </trkpt>
      <trkpt lat="41.9473" lon="34.58926">
        <ele>8.649833</ele>
        <time>2021-08-20T05:46:35.523Z</time>
      </trkpt>
      <trkpt lat="41.94732" lon="34.58849">
        <ele>9.481262</ele>
        <time>2021-08-20T05:46:58.705Z</time>
      </trkpt>
      <trkpt lat="41.94725" lon="34.58849">
        <ele>9.582879</ele>
        <time>2021-08-20T05:47:01.658Z</time>
      </trkpt>
      <trkpt lat="41.94697" lon="34.58738">
        <ele>12.34201</ele>
        <time>2021-08-20T05:47:47.790Z</time>
      </trkpt>
      <trkpt lat="41.94681" lon="34.58663">
        <ele>14.557021</ele>
        <time>2021-08-20T05:48:15.281Z</time>
      </trkpt>
      <trkpt lat="41.94664" lon="34.58601">
        <ele>16.43554</ele>
        <time>2021-08-20T05:48:40.849Z</time>
      </trkpt>
      <trkpt lat="41.94653" lon="34.5857">
        <ele>17.843296</ele>
        <time>2021-08-20T05:48:58.718Z</time>
      </trkpt>
      <trkpt lat="41.94702" lon="34.58538">
        <ele>21.260447</ele>
        <time>2021-08-20T05:49:43.493Z</time>
      </trkpt>
      <trkpt lat="41.94723" lon="34.58522">
        <ele>22.824195</ele>
        <time>2021-08-20T05:49:58.547Z</time>
      </trkpt>
      <trkpt lat="41.94698" lon="34.58476">
        <ele>25.49511</ele>
        <time>2021-08-20T05:50:33.433Z</time>
      </trkpt>
      <trkpt lat="41.94671" lon="34.58432">
        <ele>28.12127</ele>
        <time>2021-08-20T05:51:00.024Z</time>
      </trkpt>
      <trkpt lat="41.94655" lon="34.58414">
        <ele>28.681405</ele>
        <time>2021-08-20T05:51:05.293Z</time>
      </trkpt>
      <trkpt lat="41.94639" lon="34.58407">
        <ele>29.100847</ele>
        <time>2021-08-20T05:51:20.412Z</time>
      </trkpt>
      <trkpt lat="41.94644" lon="34.5839">
        <ele>29.447543</ele>
        <time>2021-08-20T05:51:23.358Z</time>
      </trkpt>
      <trkpt lat="41.94672" lon="34.58322">
        <ele>30.984186</ele>
        <time>2021-08-20T05:52:00.878Z</time>
      </trkpt>
      <trkpt lat="41.94681" lon="34.5827">
        <ele>32.023549</ele>
        <time>2021-08-20T05:52:14.110Z</time>
      </trkpt>
      <trkpt lat="41.94688" lon="34.58227">
        <ele>32.846398</ele>
        <time>2021-08-20T05:52:25.182Z</time>
      </trkpt>
      <trkpt lat="41.9468" lon="34.58157">
        <ele>33.502102</ele>
        <time>2021-08-20T05:52:37.253Z</time>
      </trkpt>
      <trkpt lat="41.94682" lon="34.58038">
        <ele>34.590403</ele>
        <time>2021-08-20T05:53:06.408Z</time>
      </trkpt>
      <trkpt lat="41.94692" lon="34.57859">
        <ele>43.242389</ele>
        <time>2021-08-20T05:54:37.908Z</time>
      </trkpt>
      <trkpt lat="41.9469" lon="34.57684">
        <ele>54.684417</ele>
        <time>2021-08-20T05:56:40.713Z</time>
      </trkpt>
      <trkpt lat="41.94711" lon="34.57483">
        <ele>67.676562</ele>
        <time>2021-08-20T05:58:45.226Z</time>
      </trkpt>
      <trkpt lat="41.94707" lon="34.57402">
        <ele>69.554421</ele>
        <time>2021-08-20T05:59:18.491Z</time>
      </trkpt>
      <trkpt lat="41.94725" lon="34.57283">
        <ele>72.362891</ele>
        <time>2021-08-20T05:59:53.104Z</time>
      </trkpt>
      <trkpt lat="41.94753" lon="34.57199">
        <ele>72.843101</ele>
        <time>2021-08-20T06:00:12.056Z</time>
      </trkpt>
      <trkpt lat="41.94761" lon="34.57156">
        <ele>72.93376</ele>
        <time>2021-08-20T06:00:21.406Z</time>
      </trkpt>
      <trkpt lat="41.94763" lon="34.57079">
        <ele>73.093185</ele>
        <time>2021-08-20T06:00:39.652Z</time>
      </trkpt>
      <trkpt lat="41.94797" lon="34.5694">
        <ele>75.963381</ele>
        <time>2021-08-20T06:01:23.814Z</time>
      </trkpt>
      <trkpt lat="41.9483" lon="34.56742">
        <ele>81.775835</ele>
        <time>2021-08-20T06:02:54.331Z</time>
      </trkpt>
      <trkpt lat="41.94829" lon="34.56719">
        <ele>82.541697</ele>
        <time>2021-08-20T06:03:05.908Z</time>
      </trkpt>
      <trkpt lat="41.94821" lon="34.56702">
        <ele>83.193156</ele>
        <time>2021-08-20T06:03:15.771Z</time>
      </trkpt>
      <trkpt lat="41.94781" lon="34.56659">
        <ele>85.454798</ele>
        <time>2021-08-20T06:03:46.550Z</time>
      </trkpt>
      <trkpt lat="41.94764" lon="34.56632">
        <ele>86.614647</ele>
        <time>2021-08-20T06:04:00.687Z</time>
      </trkpt>
      <trkpt lat="41.94755" lon="34.56582">
        <ele>86.990613</ele>
        <time>2021-08-20T06:04:17.665Z</time>
      </trkpt>
      <trkpt lat="41.94746" lon="34.56552">
        <ele>86.087991</ele>
        <time>2021-08-20T06:04:26.546Z</time>
      </trkpt>
      <trkpt lat="41.94708" lon="34.56469">
        <ele>83.399847</ele>
        <time>2021-08-20T06:04:43.757Z</time>
      </trkpt>
      <trkpt lat="41.94704" lon="34.5644">
        <ele>82.564685</ele>
        <time>2021-08-20T06:04:48.287Z</time>
      </trkpt>
      <trkpt lat="41.94715" lon="34.5637">
        <ele>79.97243</ele>
        <time>2021-08-20T06:04:58.589Z</time>
      </trkpt>
      <trkpt lat="41.94715" lon="34.56335">
        <ele>77.092553</ele>
        <time>2021-08-20T06:05:03.458Z</time>
      </trkpt>
      <trkpt lat="41.94709" lon="34.56315">
        <ele>75.258288</ele>
        <time>2021-08-20T06:05:06.537Z</time>
      </trkpt>
      <trkpt lat="41.94652" lon="34.56227">
        <ele>65.637043</ele>
        <time>2021-08-20T06:05:22.583Z</time>
      </trkpt>
      <trkpt lat="41.94608" lon="34.56144">
        <ele>57.895215</ele>
        <time>2021-08-20T06:05:36.795Z</time>
      </trkpt>
      <trkpt lat="41.94574" lon="34.5606">
        <ele>51.482063</ele>
        <time>2021-08-20T06:05:50.467Z</time>
      </trkpt>
      <trkpt lat="41.94559" lon="34.56006">
        <ele>47.656095</ele>
        <time>2021-08-20T06:05:58.925Z</time>
      </trkpt>
      <trkpt lat="41.94553" lon="34.55957">
        <ele>44.581348</ele>
        <time>2021-08-20T06:06:06.544Z</time>
      </trkpt>
      <trkpt lat="41.94545" lon="34.55941">
        <ele>44.269392</ele>
        <time>2021-08-20T06:06:09.391Z</time>
      </trkpt>
      <trkpt lat="41.94517" lon="34.55911">
        <ele>43.458038</ele>
        <time>2021-08-20T06:06:16.795Z</time>
      </trkpt>
      <trkpt lat="41.94504" lon="34.55885">
        <ele>42.923711</ele>
        <time>2021-08-20T06:06:21.860Z</time>
      </trkpt>
      <trkpt lat="41.945" lon="34.55859">
        <ele>42.483478</ele>
        <time>2021-08-20T06:06:27.699Z</time>
      </trkpt>
      <trkpt lat="41.94505" lon="34.55838">
        <ele>42.121797</ele>
        <time>2021-08-20T06:06:31.377Z</time>
      </trkpt>
      <trkpt lat="41.94515" lon="34.55828">
        <ele>41.831094</ele>
        <time>2021-08-20T06:06:36.890Z</time>
      </trkpt>
      <trkpt lat="41.94557" lon="34.55816">
        <ele>40.868346</ele>
        <time>2021-08-20T06:06:54.262Z</time>
      </trkpt>
      <trkpt lat="41.94569" lon="34.55808">
        <ele>40.673635</ele>
        <time>2021-08-20T06:06:58.169Z</time>
      </trkpt>
      <trkpt lat="41.94615" lon="34.55679">
        <ele>42.195436</ele>
        <time>2021-08-20T06:07:45.948Z</time>
      </trkpt>
      <trkpt lat="41.94635" lon="34.55643">
        <ele>42.661772</ele>
        <time>2021-08-20T06:07:59.087Z</time>
      </trkpt>
      <trkpt lat="41.94675" lon="34.55609">
        <ele>43.283875</ele>
        <time>2021-08-20T06:08:11.810Z</time>
      </trkpt>
      <trkpt lat="41.94709" lon="34.55571">
        <ele>43.670467</ele>
        <time>2021-08-20T06:08:27.696Z</time>
      </trkpt>
      <trkpt lat="41.94752" lon="34.55569">
        <ele>44.038038</ele>
        <time>2021-08-20T06:08:43.608Z</time>
      </trkpt>
      <trkpt lat="41.94788" lon="34.55605">
        <ele>44.421095</ele>
        <time>2021-08-20T06:09:00.369Z</time>
      </trkpt>
      <trkpt lat="41.94804" lon="34.55603">
        <ele>44.556466</ele>
        <time>2021-08-20T06:09:03.429Z</time>
      </trkpt>
      <trkpt lat="41.94807" lon="34.55578">
        <ele>44.718876</ele>
        <time>2021-08-20T06:09:19.090Z</time>
      </trkpt>
      <trkpt lat="41.94767" lon="34.55469">
        <ele>47.918917</ele>
        <time>2021-08-20T06:09:56.139Z</time>
      </trkpt>
      <trkpt lat="41.94764" lon="34.55438">
        <ele>48.764186</ele>
        <time>2021-08-20T06:10:14.959Z</time>
      </trkpt>
      <trkpt lat="41.94773" lon="34.55417">
        <ele>49.429859</ele>
        <time>2021-08-20T06:10:23.810Z</time>
      </trkpt>
      <trkpt lat="41.94802" lon="34.55377">
        <ele>50.928872</ele>
        <time>2021-08-20T06:10:52.987Z</time>
      </trkpt>
      <trkpt lat="41.9483" lon="34.55304">
        <ele>51.068064</ele>
        <time>2021-08-20T06:11:20.989Z</time>
      </trkpt>
      <trkpt lat="41.9483" lon="34.55274">
        <ele>50.970687</ele>
        <time>2021-08-20T06:11:29.190Z</time>
      </trkpt>
      <trkpt lat="41.94821" lon="34.55254">
        <ele>50.895482</ele>
        <time>2021-08-20T06:11:34.672Z</time>
      </trkpt>
      <trkpt lat="41.94807" lon="34.5524">
        <ele>50.820182</ele>
        <time>2021-08-20T06:11:39.598Z</time>
      </trkpt>
      <trkpt lat="41.94626" lon="34.55196">
        <ele>44.646356</ele>
        <time>2021-08-20T06:12:19.505Z</time>
      </trkpt>
      <trkpt lat="41.94607" lon="34.55182">
        <ele>43.493091</ele>
        <time>2021-08-20T06:12:23.958Z</time>
      </trkpt>
      <trkpt lat="41.94603" lon="34.55163">
        <ele>42.723941</ele>
        <time>2021-08-20T06:12:26.931Z</time>
      </trkpt>
      <trkpt lat="41.94606" lon="34.5515">
        <ele>42.193761</ele>
        <time>2021-08-20T06:12:28.959Z</time>
      </trkpt>
      <trkpt lat="41.94696" lon="34.55074">
        <ele>35.23261</ele>
        <time>2021-08-20T06:12:50.108Z</time>
      </trkpt>
      <trkpt lat="41.94739" lon="34.55023">
        <ele>31.279851</ele>
        <time>2021-08-20T06:13:01.577Z</time>
      </trkpt>
      <trkpt lat="41.94764" lon="34.5497">
        <ele>28.52289</ele>
        <time>2021-08-20T06:13:10.987Z</time>
      </trkpt>
      <trkpt lat="41.94766" lon="34.54929">
        <ele>27.882876</ele>
        <time>2021-08-20T06:13:17.281Z</time>
      </trkpt>
      <trkpt lat="41.94755" lon="34.54843">
        <ele>26.50691</ele>
        <time>2021-08-20T06:13:32.045Z</time>
      </trkpt>
      <trkpt lat="41.94732" lon="34.54765">
        <ele>25.189198</ele>
        <time>2021-08-20T06:13:49.771Z</time>
      </trkpt>
      <trkpt lat="41.9474" lon="34.5435">
        <ele>38.828628</ele>
        <time>2021-08-20T06:16:49.035Z</time>
      </trkpt>
      <trkpt lat="41.94733" lon="34.54318">
        <ele>40.152925</ele>
        <time>2021-08-20T06:17:05.271Z</time>
      </trkpt>
      <trkpt lat="41.94714" lon="34.54285">
        <ele>41.809815</ele>
        <time>2021-08-20T06:17:25.680Z</time>
      </trkpt>
      <trkpt lat="41.9464" lon="34.54232">
        <ele>47.640946</ele>
        <time>2021-08-20T06:18:22.417Z</time>
      </trkpt>
      <trkpt lat="41.94583" lon="34.54173">
        <ele>52.764652</ele>
        <time>2021-08-20T06:19:12.901Z</time>
      </trkpt>
      <trkpt lat="41.94564" lon="34.54138">
        <ele>55.066404</ele>
        <time>2021-08-20T06:19:36.936Z</time>
      </trkpt>
      <trkpt lat="41.94553" lon="34.54098">
        <ele>58.107789</ele>
        <time>2021-08-20T06:20:03.148Z</time>
      </trkpt>
      <trkpt lat="41.94557" lon="34.54075">
        <ele>59.792305</ele>
        <time>2021-08-20T06:20:18.398Z</time>
      </trkpt>
      <trkpt lat="41.9457" lon="34.54046">
        <ele>62.207059</ele>
        <time>2021-08-20T06:20:40.486Z</time>
      </trkpt>
      <trkpt lat="41.94613" lon="34.53989">
        <ele>67.996986</ele>
        <time>2021-08-20T06:21:33.232Z</time>
      </trkpt>
      <trkpt lat="41.94631" lon="34.53949">
        <ele>71.331077</ele>
        <time>2021-08-20T06:22:03.607Z</time>
      </trkpt>
      <trkpt lat="41.9465" lon="34.53899">
        <ele>75.403267</ele>
        <time>2021-08-20T06:22:40.452Z</time>
      </trkpt>
      <trkpt lat="41.94668" lon="34.53905">
        <ele>77.162644</ele>
        <time>2021-08-20T06:22:56.216Z</time>
      </trkpt>
      <trkpt lat="41.94674" lon="34.54047">
        <ele>87.398447</ele>
        <time>2021-08-20T06:24:28.683Z</time>
      </trkpt>
      <trkpt lat="41.947" lon="34.54029">
        <ele>90.105695</ele>
        <time>2021-08-20T06:24:51.494Z</time>
      </trkpt>
      <trkpt lat="41.94715" lon="34.53959">
        <ele>94.639187</ele>
        <time>2021-08-20T06:25:34.135Z</time>
      </trkpt>
      <trkpt lat="41.94751" lon="34.53933">
        <ele>97.928921</ele>
        <time>2021-08-20T06:26:05.049Z</time>
      </trkpt>
      <trkpt lat="41.94781" lon="34.54057">
        <ele>105.724654</ele>
        <time>2021-08-20T06:27:19.485Z</time>
      </trkpt>
      <trkpt lat="41.94889" lon="34.54173">
        <ele>115.338776</ele>
        <time>2021-08-20T06:28:56.856Z</time>
      </trkpt>
      <trkpt lat="41.94926" lon="34.54171">
        <ele>117.685757</ele>
        <time>2021-08-20T06:29:20.761Z</time>
      </trkpt>
      <trkpt lat="41.94918" lon="34.54115">
        <ele>119.936167</ele>
        <time>2021-08-20T06:29:47.385Z</time>
      </trkpt>
      <trkpt lat="41.94873" lon="34.54107">
        <ele>122.340496</ele>
        <time>2021-08-20T06:30:14.572Z</time>
      </trkpt>
      <trkpt lat="41.94858" lon="34.54051">
        <ele>124.706871</ele>
        <time>2021-08-20T06:30:40.345Z</time>
      </trkpt>
      <trkpt lat="41.94783" lon="34.53725">
        <ele>138.742342</ele>
        <time>2021-08-20T06:33:10.833Z</time>
      </trkpt>
      <trkpt lat="41.94736" lon="34.53553">
        <ele>149.105253</ele>
        <time>2021-08-20T06:34:54.740Z</time>
      </trkpt>
      <trkpt lat="41.94736" lon="34.53396">
        <ele>161.036627</ele>
        <time>2021-08-20T06:36:38.880Z</time>
      </trkpt>
      <trkpt lat="41.94706" lon="34.53332">
        <ele>166.916414</ele>
        <time>2021-08-20T06:37:31.301Z</time>
      </trkpt>
      <trkpt lat="41.94669" lon="34.53205">
        <ele>177.787037</ele>
        <time>2021-08-20T06:39:05.966Z</time>
      </trkpt>
      <trkpt lat="41.94684" lon="34.53128">
        <ele>184.191011</ele>
        <time>2021-08-20T06:40:01.143Z</time>
      </trkpt>
      <trkpt lat="41.94727" lon="34.53094">
        <ele>189.274059</ele>
        <time>2021-08-20T06:40:45.751Z</time>
      </trkpt>
      <trkpt lat="41.94741" lon="34.53019">
        <ele>194.473337</ele>
        <time>2021-08-20T06:41:33.872Z</time>
      </trkpt>
      <trkpt lat="41.94736" lon="34.52972">
        <ele>197.667036</ele>
        <time>2021-08-20T06:42:01.856Z</time>
      </trkpt>
      <trkpt lat="41.94715" lon="34.52886">
        <ele>203.716857</ele>
        <time>2021-08-20T06:42:53.883Z</time>
      </trkpt>
      <trkpt lat="41.94706" lon="34.52819">
        <ele>208.2655</ele>
        <time>2021-08-20T06:43:34.137Z</time>
      </trkpt>
      <trkpt lat="41.94717" lon="34.5277">
        <ele>211.70773</ele>
        <time>2021-08-20T06:44:05.028Z</time>
      </trkpt>
      <trkpt lat="41.94754" lon="34.5269">
        <ele>218.032414</ele>
        <time>2021-08-20T06:45:01.498Z</time>
      </trkpt>
      <trkpt lat="41.9476" lon="34.52677">
        <ele>219.052959</ele>
        <time>2021-08-20T06:45:12.863Z</time>
      </trkpt>
      <trkpt lat="41.94768" lon="34.52635">
        <ele>222.141424</ele>
        <time>2021-08-20T06:45:39.634Z</time>
      </trkpt>
      <trkpt lat="41.94752" lon="34.52586">
        <ele>226.070501</ele>
        <time>2021-08-20T06:46:15.305Z</time>
      </trkpt>
      <trkpt lat="41.94724" lon="34.52527">
        <ele>231.209081</ele>
        <time>2021-08-20T06:47:00.979Z</time>
      </trkpt>
      <trkpt lat="41.94709" lon="34.52477">
        <ele>235.167541</ele>
        <time>2021-08-20T06:47:36.798Z</time>
      </trkpt>
      <trkpt lat="41.94668" lon="34.52431">
        <ele>239.85574</ele>
        <time>2021-08-20T06:48:21.259Z</time>
      </trkpt>
      <trkpt lat="41.94636" lon="34.52362">
        <ele>244.501524</ele>
        <time>2021-08-20T06:49:10.791Z</time>
      </trkpt>
      <trkpt lat="41.94604" lon="34.52325">
        <ele>247.743607</ele>
        <time>2021-08-20T06:49:41.960Z</time>
      </trkpt>
      <trkpt lat="41.9457" lon="34.52298">
        <ele>250.776903</ele>
        <time>2021-08-20T06:50:08.257Z</time>
      </trkpt>
      <trkpt lat="41.94553" lon="34.52264">
        <ele>252.084835</ele>
        <time>2021-08-20T06:50:26.488Z</time>
      </trkpt>
      <trkpt lat="41.94546" lon="34.52229">
        <ele>252.721366</ele>
        <time>2021-08-20T06:50:40.787Z</time>
      </trkpt>
      <trkpt lat="41.94537" lon="34.52103">
        <ele>254.944456</ele>
        <time>2021-08-20T06:51:19.835Z</time>
      </trkpt>
      <trkpt lat="41.94541" lon="34.5209">
        <ele>255.191537</ele>
        <time>2021-08-20T06:51:23.381Z</time>
      </trkpt>
      <trkpt lat="41.94592" lon="34.52069">
        <ele>256.49577</ele>
        <time>2021-08-20T06:51:39.579Z</time>
      </trkpt>
      <trkpt lat="41.9461" lon="34.52042">
        <ele>257.181936</ele>
        <time>2021-08-20T06:51:48.471Z</time>
      </trkpt>
      <trkpt lat="41.94631" lon="34.52023">
        <ele>257.825966</ele>
        <time>2021-08-20T06:51:57.984Z</time>
      </trkpt>
      <trkpt lat="41.94671" lon="34.52">
        <ele>258.932872</ele>
        <time>2021-08-20T06:52:17.487Z</time>
      </trkpt>
      <trkpt lat="41.94685" lon="34.51978">
        <ele>259.48079</ele>
        <time>2021-08-20T06:52:28.427Z</time>
      </trkpt>
      <trkpt lat="41.94701" lon="34.51932">
        <ele>260.441781</ele>
        <time>2021-08-20T06:52:50.477Z</time>
      </trkpt>
      <trkpt lat="41.94704" lon="34.51893">
        <ele>262.107438</ele>
        <time>2021-08-20T06:53:09.439Z</time>
      </trkpt>
      <trkpt lat="41.9469" lon="34.5177">
        <ele>267.426264</ele>
        <time>2021-08-20T06:54:13.767Z</time>
      </trkpt>
      <trkpt lat="41.94704" lon="34.51673">
        <ele>270.973387</ele>
        <time>2021-08-20T06:55:00.032Z</time>
      </trkpt>
      <trkpt lat="41.94695" lon="34.51565">
        <ele>271.977104</ele>
        <time>2021-08-20T06:55:36.002Z</time>
      </trkpt>
      <trkpt lat="41.94706" lon="34.51546">
        <ele>272.199483</ele>
        <time>2021-08-20T06:55:41.419Z</time>
      </trkpt>
      <trkpt lat="41.94735" lon="34.51517">
        <ele>272.648283</ele>
        <time>2021-08-20T06:55:51.267Z</time>
      </trkpt>
      <trkpt lat="41.94848" lon="34.51418">
        <ele>271.426367</ele>
        <time>2021-08-20T06:56:24.549Z</time>
      </trkpt>
      <trkpt lat="41.94872" lon="34.5139">
        <ele>270.943511</ele>
        <time>2021-08-20T06:56:32.757Z</time>
      </trkpt>
      <trkpt lat="41.94888" lon="34.51362">
        <ele>270.544442</ele>
        <time>2021-08-20T06:56:39.915Z</time>
      </trkpt>
      <trkpt lat="41.949" lon="34.51282">
        <ele>270.214191</ele>
        <time>2021-08-20T06:56:56.733Z</time>
      </trkpt>
      <trkpt lat="41.94893" lon="34.51258">
        <ele>270.182191</ele>
        <time>2021-08-20T06:57:01.755Z</time>
      </trkpt>
      <trkpt lat="41.94845" lon="34.51212">
        <ele>270.083811</ele>
        <time>2021-08-20T06:57:19.268Z</time>
      </trkpt>
      <trkpt lat="41.94831" lon="34.51189">
        <ele>270.046918</ele>
        <time>2021-08-20T06:57:27.049Z</time>
      </trkpt>
      <trkpt lat="41.94831" lon="34.51161">
        <ele>270.012161</ele>
        <time>2021-08-20T06:57:34.571Z</time>
      </trkpt>
      <trkpt lat="41.9486" lon="34.51087">
        <ele>270.899402</ele>
        <time>2021-08-20T06:57:56.745Z</time>
      </trkpt>
      <trkpt lat="41.94867" lon="34.51032">
        <ele>271.690974</ele>
        <time>2021-08-20T06:58:13.115Z</time>
      </trkpt>
      <trkpt lat="41.94792" lon="34.50896">
        <ele>274.906692</ele>
        <time>2021-08-20T06:59:11.093Z</time>
      </trkpt>
      <trkpt lat="41.94757" lon="34.5087">
        <ele>276.605528</ele>
        <time>2021-08-20T06:59:33.310Z</time>
      </trkpt>
      <trkpt lat="41.94741" lon="34.50788">
        <ele>279.242442</ele>
        <time>2021-08-20T07:00:08.046Z</time>
      </trkpt>
      <trkpt lat="41.94741" lon="34.50527">
        <ele>288.877367</ele>
        <time>2021-08-20T07:02:07.251Z</time>
      </trkpt>
      <trkpt lat="41.94785" lon="34.50239">
        <ele>298.953651</ele>
        <time>2021-08-20T07:04:11.995Z</time>
      </trkpt>
      <trkpt lat="41.94913" lon="34.50239">
        <ele>304.353364</ele>
        <time>2021-08-20T07:05:16.444Z</time>
      </trkpt>
      <trkpt lat="41.94974" lon="34.50226">
        <ele>307.696193</ele>
        <time>2021-08-20T07:05:52.519Z</time>
      </trkpt>
      <trkpt lat="41.95044" lon="34.50123">
        <ele>315.844149</ele>
        <time>2021-08-20T07:07:10.256Z</time>
      </trkpt>
      <trkpt lat="41.95076" lon="34.4996">
        <ele>326.618713</ele>
        <time>2021-08-20T07:08:58.331Z</time>
      </trkpt>
      <trkpt lat="41.95124" lon="34.4981">
        <ele>337.403105</ele>
        <time>2021-08-20T07:10:38.397Z</time>
      </trkpt>
      <trkpt lat="41.9514" lon="34.49688">
        <ele>343.033822</ele>
        <time>2021-08-20T07:11:44.416Z</time>
      </trkpt>
      <trkpt lat="41.95076" lon="34.49572">
        <ele>347.921612</ele>
        <time>2021-08-20T07:12:43.991Z</time>
      </trkpt>
      <trkpt lat="41.95057" lon="34.49435">
        <ele>348.817639</ele>
        <time>2021-08-20T07:13:20.387Z</time>
      </trkpt>
      <trkpt lat="41.95021" lon="34.49278">
        <ele>348.226509</ele>
        <time>2021-08-20T07:13:51.187Z</time>
      </trkpt>
      <trkpt lat="41.94942" lon="34.49249">
        <ele>347.192802</ele>
        <time>2021-08-20T07:14:13.076Z</time>
      </trkpt>
      <trkpt lat="41.94918" lon="34.492">
        <ele>346.061833</ele>
        <time>2021-08-20T07:14:26.576Z</time>
      </trkpt>
      <trkpt lat="41.94844" lon="34.49169">
        <ele>343.193428</ele>
        <time>2021-08-20T07:14:45.859Z</time>
      </trkpt>
      <trkpt lat="41.94772" lon="34.49179">
        <ele>340.472708</ele>
        <time>2021-08-20T07:15:01.266Z</time>
      </trkpt>
      <trkpt lat="41.94875" lon="34.49014">
        <ele>324.591929</ele>
        <time>2021-08-20T07:15:31.758Z</time>
      </trkpt>
      <trkpt lat="41.95105" lon="34.48825">
        <ele>292.984855</ele>
        <time>2021-08-20T07:16:21.726Z</time>
      </trkpt>
      <trkpt lat="41.95178" lon="34.48645">
        <ele>277.65672</ele>
        <time>2021-08-20T07:16:50.676Z</time>
      </trkpt>
      <trkpt lat="41.95246" lon="34.48491">
        <ele>268.501792</ele>
        <time>2021-08-20T07:17:17.634Z</time>
      </trkpt>
      <trkpt lat="41.95134" lon="34.48418">
        <ele>266.340677</ele>
        <time>2021-08-20T07:17:48.104Z</time>
      </trkpt>
      <trkpt lat="41.95139" lon="34.48396">
        <ele>266.118656</ele>
        <time>2021-08-20T07:17:53.436Z</time>
      </trkpt>
      <trkpt lat="41.95219" lon="34.48329">
        <ele>266.57719</ele>
        <time>2021-08-20T07:18:29.849Z</time>
      </trkpt>
      <trkpt lat="41.95386" lon="34.48134">
        <ele>274.195606</ele>
        <time>2021-08-20T07:20:13.795Z</time>
      </trkpt>
      <trkpt lat="41.95456" lon="34.48263">
        <ele>281.842726</ele>
        <time>2021-08-20T07:21:36.764Z</time>
      </trkpt>
      <trkpt lat="41.95498" lon="34.48237">
        <ele>286.929836</ele>
        <time>2021-08-20T07:22:16.211Z</time>
      </trkpt>
      <trkpt lat="41.95475" lon="34.48091">
        <ele>299.363165</ele>
        <time>2021-08-20T07:24:07.933Z</time>
      </trkpt>
      <trkpt lat="41.95434" lon="34.47997">
        <ele>312.321164</ele>
        <time>2021-08-20T07:25:43.361Z</time>
      </trkpt>
      <trkpt lat="41.95351" lon="34.47993">
        <ele>325.519508</ele>
        <time>2021-08-20T07:27:28.488Z</time>
      </trkpt>
      <trkpt lat="41.9515" lon="34.47933">
        <ele>360.075967</ele>
        <time>2021-08-20T07:31:56.109Z</time>
      </trkpt>
      <trkpt lat="41.95108" lon="34.47718">
        <ele>381.849516</ele>
        <time>2021-08-20T07:34:47.751Z</time>
      </trkpt>
      <trkpt lat="41.94984" lon="34.47675">
        <ele>393.932201</ele>
        <time>2021-08-20T07:36:31.847Z</time>
      </trkpt>
      <trkpt lat="41.94856" lon="34.47808">
        <ele>408.723119</ele>
        <time>2021-08-20T07:38:40.929Z</time>
      </trkpt>
      <trkpt lat="41.94655" lon="34.47735">
        <ele>427.134275</ele>
        <time>2021-08-20T07:41:38.329Z</time>
      </trkpt>
      <trkpt lat="41.94543" lon="34.47679">
        <ele>434.596646</ele>
        <time>2021-08-20T07:42:57.928Z</time>
      </trkpt>
      <trkpt lat="41.9439" lon="34.47622">
        <ele>442.265005</ele>
        <time>2021-08-20T07:44:18.949Z</time>
      </trkpt>
      <trkpt lat="41.94336" lon="34.47507">
        <ele>447.120003</ele>
        <time>2021-08-20T07:45:15.152Z</time>
      </trkpt>
      <trkpt lat="41.94269" lon="34.47412">
        <ele>455.400367</ele>
        <time>2021-08-20T07:46:28.622Z</time>
      </trkpt>
      <trkpt lat="41.94269" lon="34.47232">
        <ele>468.702654</ele>
        <time>2021-08-20T07:48:35.466Z</time>
      </trkpt>
      <trkpt lat="41.94196" lon="34.47176">
        <ele>477.742101</ele>
        <time>2021-08-20T07:49:59.099Z</time>
      </trkpt>
      <trkpt lat="41.94196" lon="34.46979">
        <ele>490.816555</ele>
        <time>2021-08-20T07:51:58.240Z</time>
      </trkpt>
      <trkpt lat="41.94103" lon="34.46919">
        <ele>498.309923</ele>
        <time>2021-08-20T07:53:07.265Z</time>
      </trkpt>
      <trkpt lat="41.94017" lon="34.46923">
        <ele>501.633034</ele>
        <time>2021-08-20T07:53:57.674Z</time>
      </trkpt>
      <trkpt lat="41.93972" lon="34.46859">
        <ele>504.157164</ele>
        <time>2021-08-20T07:54:30.141Z</time>
      </trkpt>
      <trkpt lat="41.93998" lon="34.46756">
        <ele>504.958527</ele>
        <time>2021-08-20T07:55:02.209Z</time>
      </trkpt>
      <trkpt lat="41.93979" lon="34.46635">
        <ele>504.634644</ele>
        <time>2021-08-20T07:55:27.647Z</time>
      </trkpt>
      <trkpt lat="41.93991" lon="34.46468">
        <ele>502.238629</ele>
        <time>2021-08-20T07:55:57.087Z</time>
      </trkpt>
      <trkpt lat="41.93963" lon="34.46296">
        <ele>499.322114</ele>
        <time>2021-08-20T07:56:28.334Z</time>
      </trkpt>
      <trkpt lat="41.93911" lon="34.4609">
        <ele>496.690298</ele>
        <time>2021-08-20T07:57:10.194Z</time>
      </trkpt>
      <trkpt lat="41.9388" lon="34.46017">
        <ele>495.882695</ele>
        <time>2021-08-20T07:57:27.394Z</time>
      </trkpt>
      <trkpt lat="41.93979" lon="34.4558">
        <ele>490.583028</ele>
        <time>2021-08-20T07:58:55.690Z</time>
      </trkpt>
      <trkpt lat="41.94001" lon="34.45429">
        <ele>487.948024</ele>
        <time>2021-08-20T07:59:22.660Z</time>
      </trkpt>
      <trkpt lat="41.9402" lon="34.45348">
        <ele>485.819063</ele>
        <time>2021-08-20T07:59:36.811Z</time>
      </trkpt>
      <trkpt lat="41.94172" lon="34.45083">
        <ele>478.557045</ele>
        <time>2021-08-20T08:00:33.313Z</time>
      </trkpt>
      <trkpt lat="41.94158" lon="34.45072">
        <ele>478.139306</ele>
        <time>2021-08-20T08:00:39.014Z</time>
      </trkpt>
      <trkpt lat="41.94176" lon="34.44982">
        <ele>476.765506</ele>
        <time>2021-08-20T08:00:58.398Z</time>
      </trkpt>
      <trkpt lat="41.94072" lon="34.4477">
        <ele>471.751672</ele>
        <time>2021-08-20T08:01:46.331Z</time>
      </trkpt>
      <trkpt lat="41.94011" lon="34.44724">
        <ele>467.834829</ele>
        <time>2021-08-20T08:02:00.653Z</time>
      </trkpt>
      <trkpt lat="41.93941" lon="34.448">
        <ele>461.503781</ele>
        <time>2021-08-20T08:02:18.095Z</time>
      </trkpt>
      <trkpt lat="41.9382" lon="34.44763">
        <ele>449.075587</ele>
        <time>2021-08-20T08:02:41.478Z</time>
      </trkpt>
      <trkpt lat="41.93766" lon="34.44703">
        <ele>442.774684</ele>
        <time>2021-08-20T08:02:54.812Z</time>
      </trkpt>
      <trkpt lat="41.93988" lon="34.44027">
        <ele>397.171854</ele>
        <time>2021-08-20T08:04:43.037Z</time>
      </trkpt>
      <trkpt lat="41.94002" lon="34.43849">
        <ele>384.895801</ele>
        <time>2021-08-20T08:05:08.564Z</time>
      </trkpt>
      <trkpt lat="41.93954" lon="34.4369">
        <ele>373.279388</ele>
        <time>2021-08-20T08:05:33.053Z</time>
      </trkpt>
      <trkpt lat="41.93948" lon="34.4354">
        <ele>364.280406</ele>
        <time>2021-08-20T08:05:55.144Z</time>
      </trkpt>
      <trkpt lat="41.94056" lon="34.4333">
        <ele>350.724266</ele>
        <time>2021-08-20T08:06:33.458Z</time>
      </trkpt>
      <trkpt lat="41.94078" lon="34.43119">
        <ele>339.463191</ele>
        <time>2021-08-20T08:07:05.402Z</time>
      </trkpt>
      <trkpt lat="41.94108" lon="34.43061">
        <ele>335.472583</ele>
        <time>2021-08-20T08:07:15.934Z</time>
      </trkpt>
      <trkpt lat="41.94115" lon="34.43032">
        <ele>333.751079</ele>
        <time>2021-08-20T08:07:20.401Z</time>
      </trkpt>
      <trkpt lat="41.94103" lon="34.42963">
        <ele>329.560848</ele>
        <time>2021-08-20T08:07:30.872Z</time>
      </trkpt>
      <trkpt lat="41.94104" lon="34.42959">
        <ele>329.236074</ele>
        <time>2021-08-20T08:07:31.355Z</time>
      </trkpt>
      <trkpt lat="41.94082" lon="34.42828">
        <ele>317.244491</ele>
        <time>2021-08-20T08:07:50.467Z</time>
      </trkpt>
      <trkpt lat="41.94225" lon="34.4269">
        <ele>291.730006</ele>
        <time>2021-08-20T08:08:22.531Z</time>
      </trkpt>
      <trkpt lat="41.94248" lon="34.42497">
        <ele>266.812479</ele>
        <time>2021-08-20T08:08:48.624Z</time>
      </trkpt>
      <trkpt lat="41.94133" lon="34.42368">
        <ele>240.267115</ele>
        <time>2021-08-20T08:09:15.381Z</time>
      </trkpt>
      <trkpt lat="41.94193" lon="34.42223">
        <ele>219.565127</ele>
        <time>2021-08-20T08:09:37.825Z</time>
      </trkpt>
      <trkpt lat="41.94213" lon="34.42162">
        <ele>212.67077</ele>
        <time>2021-08-20T08:09:46.696Z</time>
      </trkpt>
      <trkpt lat="41.94171" lon="34.4212">
        <ele>205.970867</ele>
        <time>2021-08-20T08:09:56.297Z</time>
      </trkpt>
      <trkpt lat="41.94101" lon="34.4212">
        <ele>196.98643</ele>
        <time>2021-08-20T08:10:09.354Z</time>
      </trkpt>
      <trkpt lat="41.9404" lon="34.42068">
        <ele>189.659786</ele>
        <time>2021-08-20T08:10:22.968Z</time>
      </trkpt>
      <trkpt lat="41.94142" lon="34.41986">
        <ele>179.272919</ele>
        <time>2021-08-20T08:10:46.160Z</time>
      </trkpt>
      <trkpt lat="41.94155" lon="34.41905">
        <ele>175.355399</ele>
        <time>2021-08-20T08:10:58.531Z</time>
      </trkpt>
      <trkpt lat="41.94096" lon="34.41671">
        <ele>167.517981</ele>
        <time>2021-08-20T08:11:37.635Z</time>
      </trkpt>
      <trkpt lat="41.94193" lon="34.41549">
        <ele>166.388692</ele>
        <time>2021-08-20T08:12:23.450Z</time>
      </trkpt>
      <trkpt lat="41.94333" lon="34.41186">
        <ele>167.789241</ele>
        <time>2021-08-20T08:14:29.166Z</time>
      </trkpt>
      <trkpt lat="41.94307" lon="34.40959">
        <ele>155.678511</ele>
        <time>2021-08-20T08:15:03.055Z</time>
      </trkpt>
      <trkpt lat="41.94246" lon="34.40852">
        <ele>143.985494</ele>
        <time>2021-08-20T08:15:21.461Z</time>
      </trkpt>
      <trkpt lat="41.94155" lon="34.40836">
        <ele>130.399656</ele>
        <time>2021-08-20T08:15:38.103Z</time>
      </trkpt>
      <trkpt lat="41.94085" lon="34.40854">
        <ele>120.780971</ele>
        <time>2021-08-20T08:15:51.049Z</time>
      </trkpt>
      <trkpt lat="41.94047" lon="34.40948">
        <ele>112.272807</ele>
        <time>2021-08-20T08:16:05.926Z</time>
      </trkpt>
      <trkpt lat="41.94018" lon="34.40948">
        <ele>109.219906</ele>
        <time>2021-08-20T08:16:11.400Z</time>
      </trkpt>
      <trkpt lat="41.94008" lon="34.40909">
        <ele>105.999495</ele>
        <time>2021-08-20T08:16:17.368Z</time>
      </trkpt>
      <trkpt lat="41.94059" lon="34.40776">
        <ele>100.056671</ele>
        <time>2021-08-20T08:16:41.330Z</time>
      </trkpt>
      <trkpt lat="41.9412" lon="34.40682">
        <ele>95.982133</ele>
        <time>2021-08-20T08:17:03.107Z</time>
      </trkpt>
      <trkpt lat="41.94187" lon="34.4063">
        <ele>91.159033</ele>
        <time>2021-08-20T08:17:19.293Z</time>
      </trkpt>
      <trkpt lat="41.94225" lon="34.40583">
        <ele>87.915746</ele>
        <time>2021-08-20T08:17:29.888Z</time>
      </trkpt>
      <trkpt lat="41.94213" lon="34.40519">
        <ele>84.585795</ele>
        <time>2021-08-20T08:17:39.713Z</time>
      </trkpt>
      <trkpt lat="41.94312" lon="34.4054">
        <ele>73.222928</ele>
        <time>2021-08-20T08:17:58.554Z</time>
      </trkpt>
      <trkpt lat="41.94356" lon="34.40534">
        <ele>68.200571</ele>
        <time>2021-08-20T08:18:06.685Z</time>
      </trkpt>
      <trkpt lat="41.94353" lon="34.40497">
        <ele>65.131362</ele>
        <time>2021-08-20T08:18:11.706Z</time>
      </trkpt>
      <trkpt lat="41.94375" lon="34.40411">
        <ele>56.843538</ele>
        <time>2021-08-20T08:18:24.233Z</time>
      </trkpt>
      <trkpt lat="41.94369" lon="34.40349">
        <ele>51.069061</ele>
        <time>2021-08-20T08:18:32.950Z</time>
      </trkpt>
      <trkpt lat="41.94361" lon="34.40264">
        <ele>43.232286</ele>
        <time>2021-08-20T08:18:44.810Z</time>
      </trkpt>
      <trkpt lat="41.94352" lon="34.40126">
        <ele>35.522929</ele>
        <time>2021-08-20T08:19:04.662Z</time>
      </trkpt>
      <trkpt lat="41.9439" lon="34.39959">
        <ele>28.458239</ele>
        <time>2021-08-20T08:19:32.733Z</time>
      </trkpt>
      <trkpt lat="41.94556" lon="34.39809">
        <ele>24.707753</ele>
        <time>2021-08-20T08:20:25.078Z</time>
      </trkpt>
      <trkpt lat="41.94684" lon="34.39684">
        <ele>22.519882</ele>
        <time>2021-08-20T08:21:07.646Z</time>
      </trkpt>
      <trkpt lat="41.94741" lon="34.39611">
        <ele>20.961731</ele>
        <time>2021-08-20T08:21:27.548Z</time>
      </trkpt>
      <trkpt lat="41.94835" lon="34.39625">
        <ele>18.669171</ele>
        <time>2021-08-20T08:21:49.127Z</time>
      </trkpt>
      <trkpt lat="41.94853" lon="34.39629">
        <ele>18.119481</ele>
        <time>2021-08-20T08:21:53.345Z</time>
      </trkpt>
      <trkpt lat="41.94891" lon="34.39536">
        <ele>15.698176</ele>
        <time>2021-08-20T08:22:12.436Z</time>
      </trkpt>
      <trkpt lat="41.94928" lon="34.39495">
        <ele>14.265928</ele>
        <time>2021-08-20T08:22:23.810Z</time>
      </trkpt>
      <trkpt lat="41.94967" lon="34.39486">
        <ele>13.351764</ele>
        <time>2021-08-20T08:22:33.281Z</time>
      </trkpt>
      <trkpt lat="41.94937" lon="34.39422">
        <ele>12.066686</ele>
        <time>2021-08-20T08:22:46.095Z</time>
      </trkpt>
      <trkpt lat="41.94855" lon="34.39265">
        <ele>11.260435</ele>
        <time>2021-08-20T08:23:24.738Z</time>
      </trkpt>
      <trkpt lat="41.94837" lon="34.3923">
        <ele>11.756801</ele>
        <time>2021-08-20T08:23:36.033Z</time>
      </trkpt>
      <trkpt lat="41.94803" lon="34.39165">
        <ele>12.688952</ele>
        <time>2021-08-20T08:24:01.823Z</time>
      </trkpt>
      <trkpt lat="41.94921" lon="34.39034">
        <ele>20.707903</ele>
        <time>2021-08-20T08:25:39.819Z</time>
      </trkpt>
      <trkpt lat="41.94933" lon="34.3899">
        <ele>22.767961</ele>
        <time>2021-08-20T08:26:04.684Z</time>
      </trkpt>
      <trkpt lat="41.9493" lon="34.38927">
        <ele>25.639797</ele>
        <time>2021-08-20T08:26:37.746Z</time>
      </trkpt>
      <trkpt lat="41.94936" lon="34.38902">
        <ele>26.85746</ele>
        <time>2021-08-20T08:26:49.146Z</time>
      </trkpt>
      <trkpt lat="41.9494" lon="34.38895">
        <ele>27.257337</ele>
        <time>2021-08-20T08:26:56.304Z</time>
      </trkpt>
      <trkpt lat="41.94948" lon="34.38882">
        <ele>28.053282</ele>
        <time>2021-08-20T08:27:04.377Z</time>
      </trkpt>
      <trkpt lat="41.95084" lon="34.38764">
        <ele>37.021447</ele>
        <time>2021-08-20T08:28:49.200Z</time>
      </trkpt>
      <trkpt lat="41.95129" lon="34.38673">
        <ele>40.139166</ele>
        <time>2021-08-20T08:29:29.377Z</time>
      </trkpt>
      <trkpt lat="41.9514" lon="34.38659">
        <ele>40.70518</ele>
        <time>2021-08-20T08:29:36.334Z</time>
      </trkpt>
      <trkpt lat="41.9519" lon="34.38623">
        <ele>42.231677</ele>
        <time>2021-08-20T08:30:01.854Z</time>
      </trkpt>
      <trkpt lat="41.95194" lon="34.38601">
        <ele>42.395755</ele>
        <time>2021-08-20T08:30:09.294Z</time>
      </trkpt>
      <trkpt lat="41.95194" lon="34.38527">
        <ele>42.916208</ele>
        <time>2021-08-20T08:30:30.952Z</time>
      </trkpt>
      <trkpt lat="41.95175" lon="34.38409">
        <ele>43.663217</ele>
        <time>2021-08-20T08:30:59.847Z</time>
      </trkpt>
      <trkpt lat="41.95147" lon="34.38341">
        <ele>42.608647</ele>
        <time>2021-08-20T08:31:15.256Z</time>
      </trkpt>
      <trkpt lat="41.95096" lon="34.38313">
        <ele>41.603674</ele>
        <time>2021-08-20T08:31:28.910Z</time>
      </trkpt>
      <trkpt lat="41.95061" lon="34.38273">
        <ele>40.765679</ele>
        <time>2021-08-20T08:31:39.851Z</time>
      </trkpt>
      <trkpt lat="41.95022" lon="34.38024">
        <ele>34.823129</ele>
        <time>2021-08-20T08:32:22.654Z</time>
      </trkpt>
      <trkpt lat="41.95032" lon="34.37983">
        <ele>34.111055</ele>
        <time>2021-08-20T08:32:30.032Z</time>
      </trkpt>
      <trkpt lat="41.95051" lon="34.37942">
        <ele>33.445172</ele>
        <time>2021-08-20T08:32:38.223Z</time>
      </trkpt>
      <trkpt lat="41.95188" lon="34.3774">
        <ele>31.680062</ele>
        <time>2021-08-20T08:33:32.357Z</time>
      </trkpt>
      <trkpt lat="41.95196" lon="34.37715">
        <ele>31.797126</ele>
        <time>2021-08-20T08:33:40.246Z</time>
      </trkpt>
      <trkpt lat="41.95183" lon="34.3765">
        <ele>32.086347</ele>
        <time>2021-08-20T08:34:00.811Z</time>
      </trkpt>
      <trkpt lat="41.9515" lon="34.37611">
        <ele>32.939718</ele>
        <time>2021-08-20T08:34:20.782Z</time>
      </trkpt>
      <trkpt lat="41.95102" lon="34.37583">
        <ele>34.930065</ele>
        <time>2021-08-20T08:34:46.716Z</time>
      </trkpt>
      <trkpt lat="41.95044" lon="34.37536">
        <ele>37.506092</ele>
        <time>2021-08-20T08:35:23.535Z</time>
      </trkpt>
      <trkpt lat="41.95" lon="34.37463">
        <ele>40.462798</ele>
        <time>2021-08-20T08:36:04.259Z</time>
      </trkpt>
      <trkpt lat="41.94941" lon="34.37243">
        <ele>48.43783</ele>
        <time>2021-08-20T08:37:47.926Z</time>
      </trkpt>
      <trkpt lat="41.94862" lon="34.37092">
        <ele>52.351521</ele>
        <time>2021-08-20T08:38:53.419Z</time>
      </trkpt>
      <trkpt lat="41.94807" lon="34.36927">
        <ele>52.701125</ele>
        <time>2021-08-20T08:39:36.303Z</time>
      </trkpt>
      <trkpt lat="41.94678" lon="34.36465">
        <ele>48.317746</ele>
        <time>2021-08-20T08:41:13.154Z</time>
      </trkpt>
      <trkpt lat="41.94596" lon="34.35999">
        <ele>39.967754</ele>
        <time>2021-08-20T08:42:37.338Z</time>
      </trkpt>
      <trkpt lat="41.94541" lon="34.35582">
        <ele>34.655808</ele>
        <time>2021-08-20T08:43:58.369Z</time>
      </trkpt>
      <trkpt lat="41.94533" lon="34.35434">
        <ele>32.871552</ele>
        <time>2021-08-20T08:44:26.722Z</time>
      </trkpt>
      <trkpt lat="41.94533" lon="34.3532">
        <ele>30.942998</ele>
        <time>2021-08-20T08:44:47.564Z</time>
      </trkpt>
      <trkpt lat="41.94541" lon="34.35206">
        <ele>29.008392</ele>
        <time>2021-08-20T08:45:07.808Z</time>
      </trkpt>
      <trkpt lat="41.94565" lon="34.35003">
        <ele>25.032787</ele>
        <time>2021-08-20T08:45:43.296Z</time>
      </trkpt>
      <trkpt lat="41.94596" lon="34.34807">
        <ele>22.549232</ele>
        <time>2021-08-20T08:46:20.627Z</time>
      </trkpt>
      <trkpt lat="41.94625" lon="34.34617">
        <ele>21.04557</ele>
        <time>2021-08-20T08:47:02.864Z</time>
      </trkpt>
      <trkpt lat="41.94636" lon="34.34565">
        <ele>20.742728</ele>
        <time>2021-08-20T08:47:14.321Z</time>
      </trkpt>
      <trkpt lat="41.94659" lon="34.34455">
        <ele>19.743685</ele>
        <time>2021-08-20T08:47:37.148Z</time>
      </trkpt>
      <trkpt lat="41.94681" lon="34.34396">
        <ele>18.743302</ele>
        <time>2021-08-20T08:47:49.080Z</time>
      </trkpt>
      <trkpt lat="41.94718" lon="34.34303">
        <ele>17.132132</ele>
        <time>2021-08-20T08:48:07.702Z</time>
      </trkpt>
      <trkpt lat="41.94731" lon="34.34279">
        <ele>16.671039</ele>
        <time>2021-08-20T08:48:13.019Z</time>
      </trkpt>
      <trkpt lat="41.94794" lon="34.34165">
        <ele>14.602908</ele>
        <time>2021-08-20T08:48:38.802Z</time>
      </trkpt>
      <trkpt lat="41.94811" lon="34.34135">
        <ele>14.071356</ele>
        <time>2021-08-20T08:48:45.506Z</time>
      </trkpt>
      <trkpt lat="41.94819" lon="34.34109">
        <ele>13.659469</ele>
        <time>2021-08-20T08:48:50.775Z</time>
      </trkpt>
      <trkpt lat="41.94822" lon="34.34066">
        <ele>13.069494</ele>
        <time>2021-08-20T08:48:59.046Z</time>
      </trkpt>
      <trkpt lat="41.94824" lon="34.3406">
        <ele>13.05029</ele>
        <time>2021-08-20T08:49:00.371Z</time>
      </trkpt>
      <trkpt lat="41.9483" lon="34.34049">
        <ele>13.012152</ele>
        <time>2021-08-20T08:49:02.997Z</time>
      </trkpt>
      <trkpt lat="41.94837" lon="34.33979">
        <ele>12.810451</ele>
        <time>2021-08-20T08:49:17.418Z</time>
      </trkpt>
      <trkpt lat="41.94838" lon="34.33969">
        <ele>12.781648</ele>
        <time>2021-08-20T08:49:19.598Z</time>
      </trkpt>
      <trkpt lat="41.94839" lon="34.33931">
        <ele>12.673865</ele>
        <time>2021-08-20T08:49:27.664Z</time>
      </trkpt>
      <trkpt lat="41.94841" lon="34.33902">
        <ele>12.591739</ele>
        <time>2021-08-20T08:49:33.942Z</time>
      </trkpt>
      <trkpt lat="41.94843" lon="34.33861">
        <ele>12.472833</ele>
        <time>2021-08-20T08:49:43.246Z</time>
      </trkpt>
      <trkpt lat="41.94849" lon="34.33584">
        <ele>15.283022</ele>
        <time>2021-08-20T08:51:03.310Z</time>
      </trkpt>
      <trkpt lat="41.94848" lon="34.33564">
        <ele>15.899661</ele>
        <time>2021-08-20T08:51:10.332Z</time>
      </trkpt>
      <trkpt lat="41.94847" lon="34.33518">
        <ele>17.303933</ele>
        <time>2021-08-20T08:51:28.435Z</time>
      </trkpt>
      <trkpt lat="41.94837" lon="34.33504">
        <ele>17.889239</ele>
        <time>2021-08-20T08:51:36.493Z</time>
      </trkpt>
      <trkpt lat="41.948" lon="34.33464">
        <ele>19.865582</ele>
        <time>2021-08-20T08:52:03.134Z</time>
      </trkpt>
      <trkpt lat="41.94775" lon="34.33459">
        <ele>20.901189</ele>
        <time>2021-08-20T08:52:17.284Z</time>
      </trkpt>
      <trkpt lat="41.94737" lon="34.33458">
        <ele>22.446626</ele>
        <time>2021-08-20T08:52:39.810Z</time>
      </trkpt>
      <trkpt lat="41.94727" lon="34.33458">
        <ele>23.015538</ele>
        <time>2021-08-20T08:52:46.456Z</time>
      </trkpt>
      <trkpt lat="41.94688" lon="34.33433">
        <ele>25.556866</ele>
        <time>2021-08-20T08:53:13.020Z</time>
      </trkpt>
      <trkpt lat="41.94636" lon="34.33384">
        <ele>29.292087</ele>
        <time>2021-08-20T08:53:55.617Z</time>
      </trkpt>
      <trkpt lat="41.94593" lon="34.33343">
        <ele>32.392526</ele>
        <time>2021-08-20T08:54:31.641Z</time>
      </trkpt>
      <trkpt lat="41.94563" lon="34.33322">
        <ele>33.822265</ele>
        <time>2021-08-20T08:54:52.022Z</time>
      </trkpt>
      <trkpt lat="41.94543" lon="34.33312">
        <ele>34.552523</ele>
        <time>2021-08-20T08:55:05.243Z</time>
      </trkpt>
      <trkpt lat="41.94482" lon="34.33281">
        <ele>36.713876</ele>
        <time>2021-08-20T08:55:39.745Z</time>
      </trkpt>
      <trkpt lat="41.94452" lon="34.33265">
        <ele>37.794554</ele>
        <time>2021-08-20T08:55:54.364Z</time>
      </trkpt>
      <trkpt lat="41.94418" lon="34.33234">
        <ele>39.054526</ele>
        <time>2021-08-20T08:56:10.973Z</time>
      </trkpt>
      <trkpt lat="41.94391" lon="34.33191">
        <ele>38.174188</ele>
        <time>2021-08-20T08:56:23.917Z</time>
      </trkpt>
      <trkpt lat="41.94373" lon="34.33136">
        <ele>37.234163</ele>
        <time>2021-08-20T08:56:34.823Z</time>
      </trkpt>
      <trkpt lat="41.94304" lon="34.32812">
        <ele>29.640704</ele>
        <time>2021-08-20T08:57:30.720Z</time>
      </trkpt>
      <trkpt lat="41.94275" lon="34.32701">
        <ele>27.500627</ele>
        <time>2021-08-20T08:57:50.918Z</time>
      </trkpt>
      <trkpt lat="41.94238" lon="34.32454">
        <ele>24.755783</ele>
        <time>2021-08-20T08:58:39.323Z</time>
      </trkpt>
      <trkpt lat="41.94229" lon="34.32348">
        <ele>24.363425</ele>
        <time>2021-08-20T08:59:04.098Z</time>
      </trkpt>
      <trkpt lat="41.94211" lon="34.32247">
        <ele>24.497207</ele>
        <time>2021-08-20T08:59:30.838Z</time>
      </trkpt>
      <trkpt lat="41.94165" lon="34.31908">
        <ele>24.773626</ele>
        <time>2021-08-20T09:00:58.110Z</time>
      </trkpt>
      <trkpt lat="41.94165" lon="34.31848">
        <ele>24.641646</ele>
        <time>2021-08-20T09:01:09.768Z</time>
      </trkpt>
      <trkpt lat="41.94194" lon="34.31431">
        <ele>16.858348</ele>
        <time>2021-08-20T09:02:22.300Z</time>
      </trkpt>
      <trkpt lat="41.94193" lon="34.31378">
        <ele>15.935209</ele>
        <time>2021-08-20T09:02:32.352Z</time>
      </trkpt>
      <trkpt lat="41.94188" lon="34.31345">
        <ele>15.490132</ele>
        <time>2021-08-20T09:02:38.929Z</time>
      </trkpt>
      <trkpt lat="41.94177" lon="34.31314">
        <ele>15.323811</ele>
        <time>2021-08-20T09:02:45.980Z</time>
      </trkpt>
      <trkpt lat="41.94126" lon="34.31234">
        <ele>14.823992</ele>
        <time>2021-08-20T09:03:08.319Z</time>
      </trkpt>
      <trkpt lat="41.94117" lon="34.31213">
        <ele>14.704318</ele>
        <time>2021-08-20T09:03:14.363Z</time>
      </trkpt>
      <trkpt lat="41.9411" lon="34.31175">
        <ele>14.51872</ele>
        <time>2021-08-20T09:03:23.053Z</time>
      </trkpt>
      <trkpt lat="41.94067" lon="34.305">
        <ele>12.442954</ele>
        <time>2021-08-20T09:05:49.666Z</time>
      </trkpt>
      <trkpt lat="41.94051" lon="34.30388">
        <ele>12.279541</ele>
        <time>2021-08-20T09:06:15.330Z</time>
      </trkpt>
      <trkpt lat="41.94041" lon="34.30199">
        <ele>12.351707</ele>
        <time>2021-08-20T09:07:00.012Z</time>
      </trkpt>
      <trkpt lat="41.9404" lon="34.3009">
        <ele>12.592823</ele>
        <time>2021-08-20T09:07:26.683Z</time>
      </trkpt>
      <trkpt lat="41.94048" lon="34.29965">
        <ele>12.899995</ele>
        <time>2021-08-20T09:07:57.679Z</time>
      </trkpt>
      <trkpt lat="41.94087" lon="34.29651">
        <ele>13.932617</ele>
        <time>2021-08-20T09:09:16.944Z</time>
      </trkpt>
      <trkpt lat="41.94107" lon="34.29528">
        <ele>14.548687</ele>
        <time>2021-08-20T09:09:49.575Z</time>
      </trkpt>
      <trkpt lat="41.94154" lon="34.29371">
        <ele>15.736823</ele>
        <time>2021-08-20T09:10:35.501Z</time>
      </trkpt>
      <trkpt lat="41.94165" lon="34.29314">
        <ele>16.217035</ele>
        <time>2021-08-20T09:10:52.130Z</time>
      </trkpt>
      <trkpt lat="41.9417" lon="34.29251">
        <ele>16.733703</ele>
        <time>2021-08-20T09:11:10.202Z</time>
      </trkpt>
      <trkpt lat="41.9418" lon="34.29091">
        <ele>18.337789</ele>
        <time>2021-08-20T09:11:56.465Z</time>
      </trkpt>
      <trkpt lat="41.94188" lon="34.28795">
        <ele>21.231386</ele>
        <time>2021-08-20T09:13:22.494Z</time>
      </trkpt>
      <trkpt lat="41.94205" lon="34.28711">
        <ele>22.023043</ele>
        <time>2021-08-20T09:13:45.779Z</time>
      </trkpt>
      <trkpt lat="41.94268" lon="34.28615">
        <ele>23.134344</ele>
        <time>2021-08-20T09:14:19.626Z</time>
      </trkpt>
      <trkpt lat="41.94286" lon="34.28588">
        <ele>23.447253</ele>
        <time>2021-08-20T09:14:29.745Z</time>
      </trkpt>
      <trkpt lat="41.94309" lon="34.28552">
        <ele>24.203144</ele>
        <time>2021-08-20T09:14:44.681Z</time>
      </trkpt>
      <trkpt lat="41.94322" lon="34.28516">
        <ele>25.220148</ele>
        <time>2021-08-20T09:14:57.747Z</time>
      </trkpt>
      <trkpt lat="41.94331" lon="34.28493">
        <ele>25.886348</ele>
        <time>2021-08-20T09:15:08.033Z</time>
      </trkpt>
      <trkpt lat="41.94329" lon="34.28372">
        <ele>28.937227</ele>
        <time>2021-08-20T09:15:54.653Z</time>
      </trkpt>
      <trkpt lat="41.94361" lon="34.2812">
        <ele>35.941345</ele>
        <time>2021-08-20T09:17:44.120Z</time>
      </trkpt>
      <trkpt lat="41.94407" lon="34.27961">
        <ele>34.63696</ele>
        <time>2021-08-20T09:18:20.260Z</time>
      </trkpt>
      <trkpt lat="41.94454" lon="34.2788">
        <ele>33.128494</ele>
        <time>2021-08-20T09:18:36.805Z</time>
      </trkpt>
      <trkpt lat="41.94483" lon="34.27843">
        <ele>31.359051</ele>
        <time>2021-08-20T09:18:45.156Z</time>
      </trkpt>
      <trkpt lat="41.94522" lon="34.27806">
        <ele>29.191248</ele>
        <time>2021-08-20T09:18:55.347Z</time>
      </trkpt>
      <trkpt lat="41.94604" lon="34.27744">
        <ele>25.253717</ele>
        <time>2021-08-20T09:19:15.662Z</time>
      </trkpt>
      <trkpt lat="41.94643" lon="34.27699">
        <ele>24.241594</ele>
        <time>2021-08-20T09:19:27.441Z</time>
      </trkpt>
      <trkpt lat="41.9466" lon="34.27652">
        <ele>23.46949</ele>
        <time>2021-08-20T09:19:36.767Z</time>
      </trkpt>
      <trkpt lat="41.9467" lon="34.27552">
        <ele>21.990132</ele>
        <time>2021-08-20T09:19:56.678Z</time>
      </trkpt>
      <trkpt lat="41.94677" lon="34.27445">
        <ele>23.171196</ele>
        <time>2021-08-20T09:20:26.479Z</time>
      </trkpt>
      <trkpt lat="41.94683" lon="34.27322">
        <ele>24.694457</ele>
        <time>2021-08-20T09:21:07.504Z</time>
      </trkpt>
      <trkpt lat="41.94693" lon="34.27229">
        <ele>26.019505</ele>
        <time>2021-08-20T09:21:41.260Z</time>
      </trkpt>
      <trkpt lat="41.94704" lon="34.27141">
        <ele>27.298409</ele>
        <time>2021-08-20T09:22:12.259Z</time>
      </trkpt>
      <trkpt lat="41.94774" lon="34.26101">
        <ele>29.235736</ele>
        <time>2021-08-20T09:26:20.377Z</time>
      </trkpt>
      <trkpt lat="41.94786" lon="34.25927">
        <ele>29.297639</ele>
        <time>2021-08-20T09:26:57.166Z</time>
      </trkpt>
      <trkpt lat="41.9481" lon="34.25869">
        <ele>29.324507</ele>
        <time>2021-08-20T09:27:20.090Z</time>
      </trkpt>
      <trkpt lat="41.94813" lon="34.25858">
        <ele>29.461802</ele>
        <time>2021-08-20T09:27:25.090Z</time>
      </trkpt>
      <trkpt lat="41.94819" lon="34.25771">
        <ele>30.425962</ele>
        <time>2021-08-20T09:27:56.995Z</time>
      </trkpt>
      <trkpt lat="41.9481" lon="34.25731">
        <ele>30.890242</ele>
        <time>2021-08-20T09:28:12.460Z</time>
      </trkpt>
      <trkpt lat="41.94803" lon="34.25697">
        <ele>31.278535</ele>
        <time>2021-08-20T09:28:26.672Z</time>
      </trkpt>
      <trkpt lat="41.94808" lon="34.25615">
        <ele>32.026268</ele>
        <time>2021-08-20T09:28:52.791Z</time>
      </trkpt>
      <trkpt lat="41.9486" lon="34.24946">
        <ele>32.499415</ele>
        <time>2021-08-20T09:31:27.913Z</time>
      </trkpt>
      <trkpt lat="41.94932" lon="34.24354">
        <ele>34.049529</ele>
        <time>2021-08-20T09:33:53.644Z</time>
      </trkpt>
      <trkpt lat="41.94964" lon="34.24151">
        <ele>35.921848</ele>
        <time>2021-08-20T09:34:53.560Z</time>
      </trkpt>
      <trkpt lat="41.94981" lon="34.24023">
        <ele>37.887937</ele>
        <time>2021-08-20T09:35:30.658Z</time>
      </trkpt>
      <trkpt lat="41.95006" lon="34.23876">
        <ele>41.21319</ele>
        <time>2021-08-20T09:36:28.746Z</time>
      </trkpt>
      <trkpt lat="41.94999" lon="34.23873">
        <ele>41.469447</ele>
        <time>2021-08-20T09:36:36.837Z</time>
      </trkpt>
      <trkpt lat="41.94986" lon="34.23851">
        <ele>42.261853</ele>
        <time>2021-08-20T09:36:45.569Z</time>
      </trkpt>
      <trkpt lat="41.94956" lon="34.23764">
        <ele>44.875051</ele>
        <time>2021-08-20T09:37:23.546Z</time>
      </trkpt>
      <trkpt lat="41.94964" lon="34.23657">
        <ele>45.010483</ele>
        <time>2021-08-20T09:38:05.332Z</time>
      </trkpt>
      <trkpt lat="41.94947" lon="34.23627">
        <ele>44.791212</ele>
        <time>2021-08-20T09:38:14.139Z</time>
      </trkpt>
      <trkpt lat="41.94941" lon="34.23598">
        <ele>44.614961</ele>
        <time>2021-08-20T09:38:20.187Z</time>
      </trkpt>
      <trkpt lat="41.94953" lon="34.23545">
        <ele>44.294948</ele>
        <time>2021-08-20T09:38:30.137Z</time>
      </trkpt>
      <trkpt lat="41.94984" lon="34.2349">
        <ele>41.895881</ele>
        <time>2021-08-20T09:38:41.216Z</time>
      </trkpt>
      <trkpt lat="41.95034" lon="34.23378">
        <ele>33.649493</ele>
        <time>2021-08-20T09:39:01.074Z</time>
      </trkpt>
      <trkpt lat="41.95051" lon="34.23342">
        <ele>30.9644</ele>
        <time>2021-08-20T09:39:07.338Z</time>
      </trkpt>
      <trkpt lat="41.95091" lon="34.23232">
        <ele>23.523714</ele>
        <time>2021-08-20T09:39:25.385Z</time>
      </trkpt>
      <trkpt lat="41.95155" lon="34.23238">
        <ele>18.303922</ele>
        <time>2021-08-20T09:39:38.533Z</time>
      </trkpt>
      <trkpt lat="41.95165" lon="34.23196">
        <ele>15.635499</ele>
        <time>2021-08-20T09:39:45.354Z</time>
      </trkpt>
      <trkpt lat="41.95169" lon="34.23178">
        <ele>14.513191</ele>
        <time>2021-08-20T09:39:48.302Z</time>
      </trkpt>
      <trkpt lat="41.95153" lon="34.23174">
        <ele>13.957106</ele>
        <time>2021-08-20T09:39:51.759Z</time>
      </trkpt>
      <trkpt lat="41.95147" lon="34.23144">
        <ele>13.381953</ele>
        <time>2021-08-20T09:39:57.067Z</time>
      </trkpt>
      <trkpt lat="41.95147" lon="34.23095">
        <ele>12.476214</ele>
        <time>2021-08-20T09:40:05.682Z</time>
      </trkpt>
      <trkpt lat="41.95141" lon="34.23064">
        <ele>11.897085</ele>
        <time>2021-08-20T09:40:11.511Z</time>
      </trkpt>
      <trkpt lat="41.95138" lon="34.23052">
        <ele>11.658623</ele>
        <time>2021-08-20T09:40:14.313Z</time>
      </trkpt>
      <trkpt lat="41.95182" lon="34.22923">
        <ele>9.686636</ele>
        <time>2021-08-20T09:40:45.951Z</time>
      </trkpt>
      <trkpt lat="41.95201" lon="34.22911">
        <ele>9.586247</ele>
        <time>2021-08-20T09:40:52.024Z</time>
      </trkpt>
      <trkpt lat="41.95217" lon="34.22909">
        <ele>9.514919</ele>
        <time>2021-08-20T09:40:56.503Z</time>
      </trkpt>
      <trkpt lat="41.95231" lon="34.22909">
        <ele>9.448846</ele>
        <time>2021-08-20T09:41:00.422Z</time>
      </trkpt>
      <trkpt lat="41.9525" lon="34.22878">
        <ele>9.310161</ele>
        <time>2021-08-20T09:41:09.153Z</time>
      </trkpt>
      <trkpt lat="41.95259" lon="34.22855">
        <ele>9.222011</ele>
        <time>2021-08-20T09:41:14.848Z</time>
      </trkpt>
      <trkpt lat="41.95264" lon="34.22827">
        <ele>9.125168</ele>
        <time>2021-08-20T09:41:21.272Z</time>
      </trkpt>
      <trkpt lat="41.95265" lon="34.22805">
        <ele>9.048357</ele>
        <time>2021-08-20T09:41:26.426Z</time>
      </trkpt>
      <trkpt lat="41.95262" lon="34.22798">
        <ele>9.020028</ele>
        <time>2021-08-20T09:41:28.312Z</time>
      </trkpt>
      <trkpt lat="41.95264" lon="34.2279">
        <ele>9.036426</ele>
        <time>2021-08-20T09:41:29.945Z</time>
      </trkpt>
      <trkpt lat="41.95272" lon="34.22761">
        <ele>9.482073</ele>
        <time>2021-08-20T09:41:37.026Z</time>
      </trkpt>
      <trkpt lat="41.95285" lon="34.22697">
        <ele>10.415807</ele>
        <time>2021-08-20T09:41:55.512Z</time>
      </trkpt>
      <trkpt lat="41.95286" lon="34.22677">
        <ele>10.700676</ele>
        <time>2021-08-20T09:42:01.971Z</time>
      </trkpt>
      <trkpt lat="41.95271" lon="34.22676">
        <ele>10.990668</ele>
        <time>2021-08-20T09:42:07.732Z</time>
      </trkpt>
      <trkpt lat="41.95263" lon="34.22677">
        <ele>11.147444</ele>
        <time>2021-08-20T09:42:11.338Z</time>
      </trkpt>
      <trkpt lat="41.95251" lon="34.22679">
        <ele>11.365583</ele>
        <time>2021-08-20T09:42:16.756Z</time>
      </trkpt>
      <trkpt lat="41.95203" lon="34.22678">
        <ele>12.293602</ele>
        <time>2021-08-20T09:42:39.221Z</time>
      </trkpt>
      <trkpt lat="41.95212" lon="34.22638">
        <ele>13.627805</ele>
        <time>2021-08-20T09:42:57.075Z</time>
      </trkpt>
      <trkpt lat="41.95251" lon="34.22513">
        <ele>18.668905</ele>
        <time>2021-08-20T09:44:02.207Z</time>
      </trkpt>
      <trkpt lat="41.95281" lon="34.22411">
        <ele>22.009741</ele>
        <time>2021-08-20T09:44:52.322Z</time>
      </trkpt>
      <trkpt lat="41.95287" lon="34.22376">
        <ele>22.626166</ele>
        <time>2021-08-20T09:45:06.890Z</time>
      </trkpt>
      <trkpt lat="41.95285" lon="34.22296">
        <ele>23.988155</ele>
        <time>2021-08-20T09:45:34.737Z</time>
      </trkpt>
      <trkpt lat="41.95288" lon="34.22276">
        <ele>24.339155</ele>
        <time>2021-08-20T09:45:41.483Z</time>
      </trkpt>
      <trkpt lat="41.95293" lon="34.22244">
        <ele>24.881568</ele>
        <time>2021-08-20T09:45:49.597Z</time>
      </trkpt>
      <trkpt lat="41.95298" lon="34.22213">
        <ele>25.436092</ele>
        <time>2021-08-20T09:45:57.434Z</time>
      </trkpt>
      <trkpt lat="41.95302" lon="34.22182">
        <ele>25.074236</ele>
        <time>2021-08-20T09:46:04.452Z</time>
      </trkpt>
      <trkpt lat="41.953" lon="34.22129">
        <ele>24.198518</ele>
        <time>2021-08-20T09:46:15.009Z</time>
      </trkpt>
      <trkpt lat="41.95302" lon="34.22086">
        <ele>23.492379</ele>
        <time>2021-08-20T09:46:23.265Z</time>
      </trkpt>
      <trkpt lat="41.95304" lon="34.22008">
        <ele>22.215473</ele>
        <time>2021-08-20T09:46:37.674Z</time>
      </trkpt>
      <trkpt lat="41.95319" lon="34.21809">
        <ele>17.087191</ele>
        <time>2021-08-20T09:47:11.623Z</time>
      </trkpt>
      <trkpt lat="41.95398" lon="34.21813">
        <ele>14.522467</ele>
        <time>2021-08-20T09:47:30.173Z</time>
      </trkpt>
      <trkpt lat="41.95407" lon="34.21812">
        <ele>14.407601</ele>
        <time>2021-08-20T09:47:32.335Z</time>
      </trkpt>
      <trkpt lat="41.95434" lon="34.21449">
        <ele>12.874948</ele>
        <time>2021-08-20T09:48:49.712Z</time>
      </trkpt>
      <trkpt lat="41.95514" lon="34.20706">
        <ele>22.693045</ele>
        <time>2021-08-20T09:52:45.233Z</time>
      </trkpt>
      <trkpt lat="41.95541" lon="34.20389">
        <ele>26.731888</ele>
        <time>2021-08-20T09:54:22.145Z</time>
      </trkpt>
      <trkpt lat="41.95602" lon="34.19792">
        <ele>33.065939</ele>
        <time>2021-08-20T09:57:18.232Z</time>
      </trkpt>
      <trkpt lat="41.95614" lon="34.19631">
        <ele>33.468203</ele>
        <time>2021-08-20T09:58:03.082Z</time>
      </trkpt>
      <trkpt lat="41.95649" lon="34.19486">
        <ele>32.058538</ele>
        <time>2021-08-20T09:58:34.043Z</time>
      </trkpt>
      <trkpt lat="41.9566" lon="34.19424">
        <ele>30.712324</ele>
        <time>2021-08-20T09:58:44.126Z</time>
      </trkpt>
      <trkpt lat="41.95667" lon="34.19368">
        <ele>28.820304</ele>
        <time>2021-08-20T09:58:52.897Z</time>
      </trkpt>
      <trkpt lat="41.95678" lon="34.19244">
        <ele>24.756005</ele>
        <time>2021-08-20T09:59:11.919Z</time>
      </trkpt>
      <trkpt lat="41.95683" lon="34.19155">
        <ele>25.851471</ele>
        <time>2021-08-20T09:59:30.838Z</time>
      </trkpt>
      <trkpt lat="41.95686" lon="34.1911">
        <ele>27.317637</ele>
        <time>2021-08-20T09:59:44.915Z</time>
      </trkpt>
      <trkpt lat="41.95689" lon="34.19044">
        <ele>29.468224</ele>
        <time>2021-08-20T10:00:13.834Z</time>
      </trkpt>
      <trkpt lat="41.95683" lon="34.1902">
        <ele>30.306332</ele>
        <time>2021-08-20T10:00:30.313Z</time>
      </trkpt>
      <trkpt lat="41.95671" lon="34.18905">
        <ele>37.501666</ele>
        <time>2021-08-20T10:01:52.224Z</time>
      </trkpt>
      <trkpt lat="41.95681" lon="34.18776">
        <ele>47.840442</ele>
        <time>2021-08-20T10:03:27.227Z</time>
      </trkpt>
      <trkpt lat="41.95664" lon="34.18736">
        <ele>51.194747</ele>
        <time>2021-08-20T10:03:55.175Z</time>
      </trkpt>
      <trkpt lat="41.95662" lon="34.18706">
        <ele>52.243254</ele>
        <time>2021-08-20T10:04:12.542Z</time>
      </trkpt>
      <trkpt lat="41.95669" lon="34.1864">
        <ele>54.561282</ele>
        <time>2021-08-20T10:04:45.549Z</time>
      </trkpt>
      <trkpt lat="41.95659" lon="34.18648">
        <ele>55.119734</ele>
        <time>2021-08-20T10:04:52.449Z</time>
      </trkpt>
      <trkpt lat="41.95636" lon="34.18705">
        <ele>57.372453</ele>
        <time>2021-08-20T10:05:16.532Z</time>
      </trkpt>
      <trkpt lat="41.95622" lon="34.18761">
        <ele>59.374805</ele>
        <time>2021-08-20T10:05:33.284Z</time>
      </trkpt>
      <trkpt lat="41.95602" lon="34.18809">
        <ele>59.945971</ele>
        <time>2021-08-20T10:05:46.353Z</time>
      </trkpt>
      <trkpt lat="41.95596" lon="34.18832">
        <ele>60.192032</ele>
        <time>2021-08-20T10:05:51.709Z</time>
      </trkpt>
      <trkpt lat="41.95587" lon="34.1895">
        <ele>61.418927</ele>
        <time>2021-08-20T10:06:18.130Z</time>
      </trkpt>
      <trkpt lat="41.95582" lon="34.18961">
        <ele>61.553563</ele>
        <time>2021-08-20T10:06:21.385Z</time>
      </trkpt>
      <trkpt lat="41.95565" lon="34.18969">
        <ele>61.80845</ele>
        <time>2021-08-20T10:06:28.124Z</time>
      </trkpt>
      <trkpt lat="41.95556" lon="34.18964">
        <ele>62.594447</ele>
        <time>2021-08-20T10:06:36.897Z</time>
      </trkpt>
      <trkpt lat="41.9555" lon="34.18949">
        <ele>63.988709</ele>
        <time>2021-08-20T10:06:44.965Z</time>
      </trkpt>
      <trkpt lat="41.95546" lon="34.18903">
        <ele>67.77637</ele>
        <time>2021-08-20T10:07:12.247Z</time>
      </trkpt>
      <trkpt lat="41.95553" lon="34.18787">
        <ele>77.512174</ele>
        <time>2021-08-20T10:08:33.027Z</time>
      </trkpt>
      <trkpt lat="41.95551" lon="34.18769">
        <ele>78.97481</ele>
        <time>2021-08-20T10:08:52.830Z</time>
      </trkpt>
      <trkpt lat="41.95533" lon="34.18725">
        <ele>83.954768</ele>
        <time>2021-08-20T10:09:41.962Z</time>
      </trkpt>
      <trkpt lat="41.95523" lon="34.18696">
        <ele>88.311563</ele>
        <time>2021-08-20T10:10:11.932Z</time>
      </trkpt>
      <trkpt lat="41.95494" lon="34.1866">
        <ele>95.482745</ele>
        <time>2021-08-20T10:11:06.976Z</time>
      </trkpt>
      <trkpt lat="41.95482" lon="34.18614">
        <ele>102.088386</ele>
        <time>2021-08-20T10:11:58.580Z</time>
      </trkpt>
      <trkpt lat="41.95478" lon="34.18599">
        <ele>104.203294</ele>
        <time>2021-08-20T10:12:16.522Z</time>
      </trkpt>
      <trkpt lat="41.95476" lon="34.18581">
        <ele>106.681692</ele>
        <time>2021-08-20T10:12:35.438Z</time>
      </trkpt>
      <trkpt lat="41.9548" lon="34.18568">
        <ele>108.666911</ele>
        <time>2021-08-20T10:12:47.767Z</time>
      </trkpt>
      <trkpt lat="41.95501" lon="34.18539">
        <ele>114.098121</ele>
        <time>2021-08-20T10:13:24.778Z</time>
      </trkpt>
      <trkpt lat="41.95523" lon="34.18516">
        <ele>119.15361</ele>
        <time>2021-08-20T10:14:00.145Z</time>
      </trkpt>
      <trkpt lat="41.95533" lon="34.1849">
        <ele>123.104251</ele>
        <time>2021-08-20T10:14:29.517Z</time>
      </trkpt>
      <trkpt lat="41.95535" lon="34.18448">
        <ele>128.751486</ele>
        <time>2021-08-20T10:15:14.883Z</time>
      </trkpt>
      <trkpt lat="41.95515" lon="34.18381">
        <ele>138.338492</ele>
        <time>2021-08-20T10:16:24.864Z</time>
      </trkpt>
      <trkpt lat="41.95492" lon="34.18327">
        <ele>146.710953</ele>
        <time>2021-08-20T10:17:24.291Z</time>
      </trkpt>
      <trkpt lat="41.95474" lon="34.18294">
        <ele>152.05266</ele>
        <time>2021-08-20T10:18:05.243Z</time>
      </trkpt>
      <trkpt lat="41.95433" lon="34.1822">
        <ele>163.798989</ele>
        <time>2021-08-20T10:19:36.391Z</time>
      </trkpt>
      <trkpt lat="41.95429" lon="34.18195">
        <ele>167.211238</ele>
        <time>2021-08-20T10:20:03.420Z</time>
      </trkpt>
      <trkpt lat="41.95397" lon="34.1811">
        <ele>179.102878</ele>
        <time>2021-08-20T10:21:33.676Z</time>
      </trkpt>
      <trkpt lat="41.95325" lon="34.17989">
        <ele>192.793631</ele>
        <time>2021-08-20T10:23:29.308Z</time>
      </trkpt>
      <trkpt lat="41.9531" lon="34.17913">
        <ele>199.73936</ele>
        <time>2021-08-20T10:24:19.051Z</time>
      </trkpt>
      <trkpt lat="41.95313" lon="34.17824">
        <ele>204.700934</ele>
        <time>2021-08-20T10:25:09.478Z</time>
      </trkpt>
      <trkpt lat="41.95342" lon="34.17699">
        <ele>211.973359</ele>
        <time>2021-08-20T10:26:16.334Z</time>
      </trkpt>
      <trkpt lat="41.95364" lon="34.1763">
        <ele>216.043885</ele>
        <time>2021-08-20T10:26:55.699Z</time>
      </trkpt>
      <trkpt lat="41.95376" lon="34.17382">
        <ele>230.19838</ele>
        <time>2021-08-20T10:29:07.214Z</time>
      </trkpt>
      <trkpt lat="41.9538" lon="34.17357">
        <ele>231.97469</ele>
        <time>2021-08-20T10:29:24.020Z</time>
      </trkpt>
      <trkpt lat="41.95391" lon="34.17337">
        <ele>233.645708</ele>
        <time>2021-08-20T10:29:40.001Z</time>
      </trkpt>
      <trkpt lat="41.9542" lon="34.17324">
        <ele>236.526679</ele>
        <time>2021-08-20T10:30:07.937Z</time>
      </trkpt>
      <trkpt lat="41.95454" lon="34.17298">
        <ele>240.071521</ele>
        <time>2021-08-20T10:30:40.777Z</time>
      </trkpt>
      <trkpt lat="41.95472" lon="34.17255">
        <ele>243.561701</ele>
        <time>2021-08-20T10:31:12.833Z</time>
      </trkpt>
      <trkpt lat="41.95476" lon="34.17232">
        <ele>245.271762</ele>
        <time>2021-08-20T10:31:27.895Z</time>
      </trkpt>
      <trkpt lat="41.9547" lon="34.17215">
        <ele>246.643773</ele>
        <time>2021-08-20T10:31:41.197Z</time>
      </trkpt>
      <trkpt lat="41.95442" lon="34.17131">
        <ele>253.234578</ele>
        <time>2021-08-20T10:32:40.771Z</time>
      </trkpt>
      <trkpt lat="41.95435" lon="34.17061">
        <ele>258.3457</ele>
        <time>2021-08-20T10:33:27.776Z</time>
      </trkpt>
      <trkpt lat="41.95465" lon="34.16898">
        <ele>267.086714</ele>
        <time>2021-08-20T10:35:01.705Z</time>
      </trkpt>
      <trkpt lat="41.95476" lon="34.16856">
        <ele>269.292215</ele>
        <time>2021-08-20T10:35:22.120Z</time>
      </trkpt>
      <trkpt lat="41.95491" lon="34.16834">
        <ele>270.751493</ele>
        <time>2021-08-20T10:35:35.549Z</time>
      </trkpt>
      <trkpt lat="41.95502" lon="34.16827">
        <ele>271.534693</ele>
        <time>2021-08-20T10:35:40.920Z</time>
      </trkpt>
      <trkpt lat="41.95519" lon="34.16821">
        <ele>272.115777</ele>
        <time>2021-08-20T10:35:51.646Z</time>
      </trkpt>
      <trkpt lat="41.9552" lon="34.16798">
        <ele>272.422939</ele>
        <time>2021-08-20T10:35:58.639Z</time>
      </trkpt>
      <trkpt lat="41.95528" lon="34.16692">
        <ele>273.795392</ele>
        <time>2021-08-20T10:36:31.921Z</time>
      </trkpt>
      <trkpt lat="41.95525" lon="34.16652">
        <ele>274.326138</ele>
        <time>2021-08-20T10:36:42.384Z</time>
      </trkpt>
      <trkpt lat="41.95517" lon="34.16617">
        <ele>274.800355</ele>
        <time>2021-08-20T10:36:52.390Z</time>
      </trkpt>
      <trkpt lat="41.95482" lon="34.16532">
        <ele>276.179816</ele>
        <time>2021-08-20T10:37:13.488Z</time>
      </trkpt>
      <trkpt lat="41.95477" lon="34.16509">
        <ele>276.524158</ele>
        <time>2021-08-20T10:37:19.501Z</time>
      </trkpt>
      <trkpt lat="41.9548" lon="34.16474">
        <ele>277.020504</ele>
        <time>2021-08-20T10:37:28.802Z</time>
      </trkpt>
      <trkpt lat="41.95507" lon="34.1638">
        <ele>278.483627</ele>
        <time>2021-08-20T10:38:05.344Z</time>
      </trkpt>
      <trkpt lat="41.95515" lon="34.1627">
        <ele>284.552059</ele>
        <time>2021-08-20T10:39:01.102Z</time>
      </trkpt>
      <trkpt lat="41.95514" lon="34.16256">
        <ele>285.337811</ele>
        <time>2021-08-20T10:39:10.778Z</time>
      </trkpt>
      <trkpt lat="41.95499" lon="34.16235">
        <ele>287.02267</ele>
        <time>2021-08-20T10:39:26.050Z</time>
      </trkpt>
      <trkpt lat="41.9549" lon="34.16168">
        <ele>290.806887</ele>
        <time>2021-08-20T10:40:08.955Z</time>
      </trkpt>
      <trkpt lat="41.95482" lon="34.16143">
        <ele>292.429771</ele>
        <time>2021-08-20T10:40:24.886Z</time>
      </trkpt>
      <trkpt lat="41.95471" lon="34.15999">
        <ele>302.179312</ele>
        <time>2021-08-20T10:41:59.098Z</time>
      </trkpt>
      <trkpt lat="41.95432" lon="34.15969">
        <ele>306.266771</ele>
        <time>2021-08-20T10:42:32.805Z</time>
      </trkpt>
      <trkpt lat="41.95426" lon="34.15958">
        <ele>307.205857</ele>
        <time>2021-08-20T10:42:39.969Z</time>
      </trkpt>
      <trkpt lat="41.95431" lon="34.15885">
        <ele>312.048092</ele>
        <time>2021-08-20T10:43:21.676Z</time>
      </trkpt>
      <trkpt lat="41.95427" lon="34.15872">
        <ele>312.996539</ele>
        <time>2021-08-20T10:43:30.583Z</time>
      </trkpt>
      <trkpt lat="41.954" lon="34.15848">
        <ele>315.890297</ele>
        <time>2021-08-20T10:43:57.080Z</time>
      </trkpt>
      <trkpt lat="41.95364" lon="34.15803">
        <ele>320.243501</ele>
        <time>2021-08-20T10:44:36.390Z</time>
      </trkpt>
      <trkpt lat="41.95347" lon="34.15772">
        <ele>322.805324</ele>
        <time>2021-08-20T10:45:00.355Z</time>
      </trkpt>
      <trkpt lat="41.95333" lon="34.15731">
        <ele>325.877871</ele>
        <time>2021-08-20T10:45:29.329Z</time>
      </trkpt>
      <trkpt lat="41.95295" lon="34.1565">
        <ele>332.466247</ele>
        <time>2021-08-20T10:46:31.726Z</time>
      </trkpt>
      <trkpt lat="41.95295" lon="34.15609">
        <ele>335.309462</ele>
        <time>2021-08-20T10:46:59.353Z</time>
      </trkpt>
      <trkpt lat="41.95308" lon="34.15561">
        <ele>338.863054</ele>
        <time>2021-08-20T10:47:34.506Z</time>
      </trkpt>
      <trkpt lat="41.95296" lon="34.15507">
        <ele>341.714064</ele>
        <time>2021-08-20T10:48:02.363Z</time>
      </trkpt>
      <trkpt lat="41.95281" lon="34.1547">
        <ele>342.687996</ele>
        <time>2021-08-20T10:48:22.614Z</time>
      </trkpt>
      <trkpt lat="41.95236" lon="34.1542">
        <ele>344.471698</ele>
        <time>2021-08-20T10:48:50.980Z</time>
      </trkpt>
      <trkpt lat="41.95233" lon="34.1541">
        <ele>344.730471</ele>
        <time>2021-08-20T10:48:57.152Z</time>
      </trkpt>
      <trkpt lat="41.95225" lon="34.15396">
        <ele>345.133095</ele>
        <time>2021-08-20T10:49:00.436Z</time>
      </trkpt>
      <trkpt lat="41.95215" lon="34.15379">
        <ele>345.621904</ele>
        <time>2021-08-20T10:49:06.762Z</time>
      </trkpt>
      <trkpt lat="41.95215" lon="34.15324">
        <ele>346.600847</ele>
        <time>2021-08-20T10:49:20.531Z</time>
      </trkpt>
      <trkpt lat="41.95232" lon="34.15234">
        <ele>344.464759</ele>
        <time>2021-08-20T10:49:36.811Z</time>
      </trkpt>
      <trkpt lat="41.95254" lon="34.15157">
        <ele>342.583502</ele>
        <time>2021-08-20T10:49:50.225Z</time>
      </trkpt>
      <trkpt lat="41.95268" lon="34.1512">
        <ele>341.628738</ele>
        <time>2021-08-20T10:49:57.175Z</time>
      </trkpt>
      <trkpt lat="41.95274" lon="34.15107">
        <ele>341.270054</ele>
        <time>2021-08-20T10:49:59.626Z</time>
      </trkpt>
      <trkpt lat="41.95312" lon="34.15037">
        <ele>338.700936</ele>
        <time>2021-08-20T10:50:13.591Z</time>
      </trkpt>
      <trkpt lat="41.95324" lon="34.14965">
        <ele>336.491236</ele>
        <time>2021-08-20T10:50:25.334Z</time>
      </trkpt>
      <trkpt lat="41.95347" lon="34.14939">
        <ele>335.26341</ele>
        <time>2021-08-20T10:50:31.899Z</time>
      </trkpt>
      <trkpt lat="41.95356" lon="34.14917">
        <ele>334.49269</ele>
        <time>2021-08-20T10:50:36.321Z</time>
      </trkpt>
      <trkpt lat="41.95367" lon="34.14913">
        <ele>334.031556</ele>
        <time>2021-08-20T10:50:38.826Z</time>
      </trkpt>
      <trkpt lat="41.95384" lon="34.14888">
        <ele>333.814109</ele>
        <time>2021-08-20T10:50:44.773Z</time>
      </trkpt>
      <trkpt lat="41.9542" lon="34.14816">
        <ele>333.465548</ele>
        <time>2021-08-20T10:51:00.557Z</time>
      </trkpt>
      <trkpt lat="41.95433" lon="34.14803">
        <ele>333.378632</ele>
        <time>2021-08-20T10:51:04.666Z</time>
      </trkpt>
      <trkpt lat="41.9548" lon="34.1478">
        <ele>333.10863</ele>
        <time>2021-08-20T10:51:20.025Z</time>
      </trkpt>
      <trkpt lat="41.95527" lon="34.1467">
        <ele>337.153375</ele>
        <time>2021-08-20T10:52:10.698Z</time>
      </trkpt>
      <trkpt lat="41.95525" lon="34.14654">
        <ele>337.90631</ele>
        <time>2021-08-20T10:52:18.657Z</time>
      </trkpt>
      <trkpt lat="41.95493" lon="34.14599">
        <ele>341.112256</ele>
        <time>2021-08-20T10:52:55.283Z</time>
      </trkpt>
      <trkpt lat="41.95485" lon="34.14593">
        <ele>341.698953</ele>
        <time>2021-08-20T10:53:02.560Z</time>
      </trkpt>
      <trkpt lat="41.95459" lon="34.14601">
        <ele>343.319873</ele>
        <time>2021-08-20T10:53:26.128Z</time>
      </trkpt>
      <trkpt lat="41.95447" lon="34.14594">
        <ele>344.155627</ele>
        <time>2021-08-20T10:53:35.864Z</time>
      </trkpt>
      <trkpt lat="41.95436" lon="34.14534">
        <ele>346.998257</ele>
        <time>2021-08-20T10:54:15.423Z</time>
      </trkpt>
      <trkpt lat="41.95428" lon="34.14527">
        <ele>347.533608</ele>
        <time>2021-08-20T10:54:21.216Z</time>
      </trkpt>
      <trkpt lat="41.95376" lon="34.14545">
        <ele>350.864467</ele>
        <time>2021-08-20T10:54:56.804Z</time>
      </trkpt>
      <trkpt lat="41.95365" lon="34.14547">
        <ele>351.528446</ele>
        <time>2021-08-20T10:55:07.128Z</time>
      </trkpt>
      <trkpt lat="41.95359" lon="34.14531">
        <ele>352.326196</ele>
        <time>2021-08-20T10:55:12.929Z</time>
      </trkpt>
      <trkpt lat="41.9534" lon="34.14474">
        <ele>355.217665</ele>
        <time>2021-08-20T10:55:36.325Z</time>
      </trkpt>
      <trkpt lat="41.9533" lon="34.14416">
        <ele>355.111856</ele>
        <time>2021-08-20T10:55:56.726Z</time>
      </trkpt>
      <trkpt lat="41.95337" lon="34.14361">
        <ele>355.009996</ele>
        <time>2021-08-20T10:56:10.769Z</time>
      </trkpt>
      <trkpt lat="41.9535" lon="34.14328">
        <ele>354.941563</ele>
        <time>2021-08-20T10:56:17.086Z</time>
      </trkpt>
      <trkpt lat="41.95354" lon="34.14301">
        <ele>354.891889</ele>
        <time>2021-08-20T10:56:21.765Z</time>
      </trkpt>
      <trkpt lat="41.95351" lon="34.14271">
        <ele>354.836576</ele>
        <time>2021-08-20T10:56:27.106Z</time>
      </trkpt>
      <trkpt lat="41.95283" lon="34.14277">
        <ele>354.730418</ele>
        <time>2021-08-20T10:56:44.513Z</time>
      </trkpt>
      <trkpt lat="41.95264" lon="34.14252">
        <ele>354.702286</ele>
        <time>2021-08-20T10:56:53.282Z</time>
      </trkpt>
      <trkpt lat="41.95257" lon="34.14219">
        <ele>354.674788</ele>
        <time>2021-08-20T10:57:01.243Z</time>
      </trkpt>
      <trkpt lat="41.95251" lon="34.14163">
        <ele>354.629021</ele>
        <time>2021-08-20T10:57:16.322Z</time>
      </trkpt>
      <trkpt lat="41.9525" lon="34.14151">
        <ele>354.620109</ele>
        <time>2021-08-20T10:57:19.088Z</time>
      </trkpt>
      <trkpt lat="41.95245" lon="34.14084">
        <ele>354.541632</ele>
        <time>2021-08-20T10:57:36.966Z</time>
      </trkpt>
      <trkpt lat="41.95238" lon="34.14063">
        <ele>354.499343</ele>
        <time>2021-08-20T10:57:44.262Z</time>
      </trkpt>
      <trkpt lat="41.95229" lon="34.14051">
        <ele>354.469216</ele>
        <time>2021-08-20T10:57:48.076Z</time>
      </trkpt>
      <trkpt lat="41.95213" lon="34.14044">
        <ele>354.427248</ele>
        <time>2021-08-20T10:57:54.559Z</time>
      </trkpt>
      <trkpt lat="41.95205" lon="34.14028">
        <ele>354.392027</ele>
        <time>2021-08-20T10:57:59.226Z</time>
      </trkpt>
      <trkpt lat="41.95201" lon="34.14">
        <ele>354.340286</ele>
        <time>2021-08-20T10:58:06.322Z</time>
      </trkpt>
      <trkpt lat="41.95211" lon="34.13951">
        <ele>354.247887</ele>
        <time>2021-08-20T10:58:17.504Z</time>
      </trkpt>
      <trkpt lat="41.9523" lon="34.13899">
        <ele>354.117684</ele>
        <time>2021-08-20T10:58:28.664Z</time>
      </trkpt>
      <trkpt lat="41.95256" lon="34.13801">
        <ele>352.345596</ele>
        <time>2021-08-20T10:58:46.529Z</time>
      </trkpt>
      <trkpt lat="41.9531" lon="34.13728">
        <ele>350.600508</ele>
        <time>2021-08-20T10:59:03.848Z</time>
      </trkpt>
      <trkpt lat="41.95386" lon="34.1369">
        <ele>352.092397</ele>
        <time>2021-08-20T10:59:29.797Z</time>
      </trkpt>
      <trkpt lat="41.95423" lon="34.13682">
        <ele>353.441246</ele>
        <time>2021-08-20T10:59:48.782Z</time>
      </trkpt>
      <trkpt lat="41.9545" lon="34.13663">
        <ele>354.529047</ele>
        <time>2021-08-20T11:00:06.187Z</time>
      </trkpt>
      <trkpt lat="41.95457" lon="34.13656">
        <ele>354.853951</ele>
        <time>2021-08-20T11:00:12.517Z</time>
      </trkpt>
      <trkpt lat="41.95471" lon="34.13643">
        <ele>355.46658</ele>
        <time>2021-08-20T11:00:22.607Z</time>
      </trkpt>
      <trkpt lat="41.95466" lon="34.13614">
        <ele>356.266728</ele>
        <time>2021-08-20T11:00:40.179Z</time>
      </trkpt>
      <trkpt lat="41.95495" lon="34.13509">
        <ele>362.229911</ele>
        <time>2021-08-20T11:01:45.152Z</time>
      </trkpt>
      <trkpt lat="41.95479" lon="34.13431">
        <ele>366.754677</ele>
        <time>2021-08-20T11:02:37.947Z</time>
      </trkpt>
      <trkpt lat="41.95481" lon="34.13339">
        <ele>370.089325</ele>
        <time>2021-08-20T11:03:21.353Z</time>
      </trkpt>
      <trkpt lat="41.95486" lon="34.13317">
        <ele>370.197727</ele>
        <time>2021-08-20T11:03:28.655Z</time>
      </trkpt>
      <trkpt lat="41.95544" lon="34.13261">
        <ele>370.641529</ele>
        <time>2021-08-20T11:03:55.423Z</time>
      </trkpt>
      <trkpt lat="41.95559" lon="34.13217">
        <ele>370.864089</ele>
        <time>2021-08-20T11:04:05.013Z</time>
      </trkpt>
      <trkpt lat="41.95579" lon="34.13205">
        <ele>370.999725</ele>
        <time>2021-08-20T11:04:10.777Z</time>
      </trkpt>
      <trkpt lat="41.95581" lon="34.13212">
        <ele>371.033341</ele>
        <time>2021-08-20T11:04:11.808Z</time>
      </trkpt>
      <trkpt lat="41.9559" lon="34.13218">
        <ele>370.579933</ele>
        <time>2021-08-20T11:04:14.169Z</time>
      </trkpt>
      <trkpt lat="41.95608" lon="34.13218">
        <ele>369.471572</ele>
        <time>2021-08-20T11:04:18.219Z</time>
      </trkpt>
      <trkpt lat="41.95653" lon="34.13201">
        <ele>366.529858</ele>
        <time>2021-08-20T11:04:27.935Z</time>
      </trkpt>
      <trkpt lat="41.9594" lon="34.13069">
        <ele>344.880757</ele>
        <time>2021-08-20T11:05:27.835Z</time>
      </trkpt>
      <trkpt lat="41.96022" lon="34.13056">
        <ele>338.881248</ele>
        <time>2021-08-20T11:05:43.954Z</time>
      </trkpt>
      <trkpt lat="41.96091" lon="34.1307">
        <ele>333.880663</ele>
        <time>2021-08-20T11:05:58.028Z</time>
      </trkpt>
      <trkpt lat="41.96117" lon="34.13055">
        <ele>332.454421</ele>
        <time>2021-08-20T11:06:04.170Z</time>
      </trkpt>
      <trkpt lat="41.96133" lon="34.13054">
        <ele>331.922946</ele>
        <time>2021-08-20T11:06:07.205Z</time>
      </trkpt>
      <trkpt lat="41.96146" lon="34.13035">
        <ele>331.250505</ele>
        <time>2021-08-20T11:06:12.051Z</time>
      </trkpt>
      <trkpt lat="41.96176" lon="34.13006">
        <ele>329.968832</ele>
        <time>2021-08-20T11:06:20.317Z</time>
      </trkpt>
      <trkpt lat="41.96183" lon="34.12964">
        <ele>328.868761</ele>
        <time>2021-08-20T11:06:27.602Z</time>
      </trkpt>
      <trkpt lat="41.96174" lon="34.12884">
        <ele>326.835975</ele>
        <time>2021-08-20T11:06:41.874Z</time>
      </trkpt>
      <trkpt lat="41.96162" lon="34.12835">
        <ele>326.659578</ele>
        <time>2021-08-20T11:06:53.173Z</time>
      </trkpt>
      <trkpt lat="41.96166" lon="34.12821">
        <ele>326.608813</ele>
        <time>2021-08-20T11:06:56.126Z</time>
      </trkpt>
      <trkpt lat="41.96178" lon="34.12806">
        <ele>326.530955</ele>
        <time>2021-08-20T11:07:00.601Z</time>
      </trkpt>
      <trkpt lat="41.96229" lon="34.1281">
        <ele>326.295116</ele>
        <time>2021-08-20T11:07:14.310Z</time>
      </trkpt>
      <trkpt lat="41.96252" lon="34.12827">
        <ele>326.170519</ele>
        <time>2021-08-20T11:07:22.168Z</time>
      </trkpt>
      <trkpt lat="41.96279" lon="34.12835">
        <ele>326.045181</ele>
        <time>2021-08-20T11:07:30.930Z</time>
      </trkpt>
      <trkpt lat="41.96294" lon="34.12834">
        <ele>326.302177</ele>
        <time>2021-08-20T11:07:36.577Z</time>
      </trkpt>
      <trkpt lat="41.96334" lon="34.12807">
        <ele>328.240238</ele>
        <time>2021-08-20T11:07:55.758Z</time>
      </trkpt>
      <trkpt lat="41.96353" lon="34.12801">
        <ele>329.086382</ele>
        <time>2021-08-20T11:08:05.530Z</time>
      </trkpt>
      <trkpt lat="41.96384" lon="34.12783">
        <ele>330.574758</ele>
        <time>2021-08-20T11:08:24.750Z</time>
      </trkpt>
      <trkpt lat="41.964" lon="34.12764">
        <ele>331.473358</ele>
        <time>2021-08-20T11:08:37.729Z</time>
      </trkpt>
      <trkpt lat="41.96423" lon="34.12689">
        <ele>334.326894</ele>
        <time>2021-08-20T11:09:19.749Z</time>
      </trkpt>
      <trkpt lat="41.96435" lon="34.1267">
        <ele>335.804435</ele>
        <time>2021-08-20T11:09:33.496Z</time>
      </trkpt>
      <trkpt lat="41.96456" lon="34.12666">
        <ele>337.521271</ele>
        <time>2021-08-20T11:09:50.031Z</time>
      </trkpt>
      <trkpt lat="41.96478" lon="34.12669">
        <ele>339.252727</ele>
        <time>2021-08-20T11:10:06.733Z</time>
      </trkpt>
      <trkpt lat="41.96492" lon="34.12663">
        <ele>340.365177</ele>
        <time>2021-08-20T11:10:17.822Z</time>
      </trkpt>
      <trkpt lat="41.9652" lon="34.12642">
        <ele>342.940453</ele>
        <time>2021-08-20T11:10:43.418Z</time>
      </trkpt>
      <trkpt lat="41.96602" lon="34.12562">
        <ele>350.544213</ele>
        <time>2021-08-20T11:12:01.068Z</time>
      </trkpt>
      <trkpt lat="41.96671" lon="34.12523">
        <ele>355.660495</ele>
        <time>2021-08-20T11:12:54.161Z</time>
      </trkpt>
      <trkpt lat="41.96705" lon="34.12498">
        <ele>358.290993</ele>
        <time>2021-08-20T11:13:19.820Z</time>
      </trkpt>
      <trkpt lat="41.96809" lon="34.12481">
        <ele>363.237786</ele>
        <time>2021-08-20T11:14:23.209Z</time>
      </trkpt>
      <trkpt lat="41.96886" lon="34.12425">
        <ele>366.653015</ele>
        <time>2021-08-20T11:15:07.057Z</time>
      </trkpt>
      <trkpt lat="41.969" lon="34.12398">
        <ele>367.305622</ele>
        <time>2021-08-20T11:15:18.152Z</time>
      </trkpt>
      <trkpt lat="41.96887" lon="34.12319">
        <ele>367.057503</ele>
        <time>2021-08-20T11:15:40.502Z</time>
      </trkpt>
      <trkpt lat="41.96865" lon="34.12291">
        <ele>366.9309</ele>
        <time>2021-08-20T11:15:50.040Z</time>
      </trkpt>
      <trkpt lat="41.9681" lon="34.12244">
        <ele>366.658809</ele>
        <time>2021-08-20T11:16:07.712Z</time>
      </trkpt>
      <trkpt lat="41.96649" lon="34.12179">
        <ele>358.232336</ele>
        <time>2021-08-20T11:16:43.551Z</time>
      </trkpt>
      <trkpt lat="41.965" lon="34.1205">
        <ele>342.197861</ele>
        <time>2021-08-20T11:17:17.395Z</time>
      </trkpt>
      <trkpt lat="41.96449" lon="34.12043">
        <ele>337.919185</ele>
        <time>2021-08-20T11:17:26.936Z</time>
      </trkpt>
      <trkpt lat="41.96438" lon="34.12027">
        <ele>336.838621</ele>
        <time>2021-08-20T11:17:30.095Z</time>
      </trkpt>
      <trkpt lat="41.96449" lon="34.11973">
        <ele>334.071485</ele>
        <time>2021-08-20T11:17:38.356Z</time>
      </trkpt>
      <trkpt lat="41.96439" lon="34.1194">
        <ele>332.371211</ele>
        <time>2021-08-20T11:17:43.567Z</time>
      </trkpt>
      <trkpt lat="41.96427" lon="34.11921">
        <ele>331.138182</ele>
        <time>2021-08-20T11:17:47.414Z</time>
      </trkpt>
      <trkpt lat="41.96393" lon="34.11906">
        <ele>328.760824</ele>
        <time>2021-08-20T11:17:55.131Z</time>
      </trkpt>
      <trkpt lat="41.96239" lon="34.1189">
        <ele>322.333488</ele>
        <time>2021-08-20T11:18:32.204Z</time>
      </trkpt>
      <trkpt lat="41.96213" lon="34.11873">
        <ele>321.239413</ele>
        <time>2021-08-20T11:18:39.050Z</time>
      </trkpt>
      <trkpt lat="41.96106" lon="34.11742">
        <ele>307.579853</ele>
        <time>2021-08-20T11:19:06.794Z</time>
      </trkpt>
      <trkpt lat="41.96088" lon="34.11699">
        <ele>303.79804</ele>
        <time>2021-08-20T11:19:13.554Z</time>
      </trkpt>
      <trkpt lat="41.96071" lon="34.11667">
        <ele>300.337254</ele>
        <time>2021-08-20T11:19:18.980Z</time>
      </trkpt>
      <trkpt lat="41.96065" lon="34.11645">
        <ele>298.075767</ele>
        <time>2021-08-20T11:19:22.048Z</time>
      </trkpt>
      <trkpt lat="41.96023" lon="34.11556">
        <ele>287.549693</ele>
        <time>2021-08-20T11:19:36.407Z</time>
      </trkpt>
      <trkpt lat="41.96033" lon="34.11538">
        <ele>285.26943</ele>
        <time>2021-08-20T11:19:39.543Z</time>
      </trkpt>
      <trkpt lat="41.96073" lon="34.11542">
        <ele>279.902684</ele>
        <time>2021-08-20T11:19:46.861Z</time>
      </trkpt>
      <trkpt lat="41.96133" lon="34.11536">
        <ele>273.556555</ele>
        <time>2021-08-20T11:19:58.265Z</time>
      </trkpt>
      <trkpt lat="41.96141" lon="34.11539">
        <ele>272.743157</ele>
        <time>2021-08-20T11:19:59.854Z</time>
      </trkpt>
      <trkpt lat="41.96154" lon="34.11568">
        <ele>270.307938</ele>
        <time>2021-08-20T11:20:04.715Z</time>
      </trkpt>
      <trkpt lat="41.96184" lon="34.11669">
        <ele>262.413828</ele>
        <time>2021-08-20T11:20:20.482Z</time>
      </trkpt>
      <trkpt lat="41.96186" lon="34.11699">
        <ele>260.18362</ele>
        <time>2021-08-20T11:20:24.826Z</time>
      </trkpt>
      <trkpt lat="41.96195" lon="34.11711">
        <ele>258.688266</ele>
        <time>2021-08-20T11:20:27.199Z</time>
      </trkpt>
      <trkpt lat="41.9629" lon="34.11752">
        <ele>246.699471</ele>
        <time>2021-08-20T11:20:45.913Z</time>
      </trkpt>
      <trkpt lat="41.96336" lon="34.11737">
        <ele>240.966642</ele>
        <time>2021-08-20T11:20:54.725Z</time>
      </trkpt>
      <trkpt lat="41.96422" lon="34.11752">
        <ele>227.393562</ele>
        <time>2021-08-20T11:21:10.346Z</time>
      </trkpt>
      <trkpt lat="41.96438" lon="34.11747">
        <ele>224.787102</ele>
        <time>2021-08-20T11:21:13.199Z</time>
      </trkpt>
      <trkpt lat="41.96443" lon="34.11741">
        <ele>223.603594</ele>
        <time>2021-08-20T11:21:14.459Z</time>
      </trkpt>
      <trkpt lat="41.96441" lon="34.11733">
        <ele>222.587151</ele>
        <time>2021-08-20T11:21:15.542Z</time>
      </trkpt>
      <trkpt lat="41.96426" lon="34.11726">
        <ele>220.056938</ele>
        <time>2021-08-20T11:21:18.293Z</time>
      </trkpt>
      <trkpt lat="41.96399" lon="34.11687">
        <ele>213.521805</ele>
        <time>2021-08-20T11:21:25.412Z</time>
      </trkpt>
      <trkpt lat="41.96396" lon="34.11669">
        <ele>211.19178</ele>
        <time>2021-08-20T11:21:27.924Z</time>
      </trkpt>
      <trkpt lat="41.96392" lon="34.11651">
        <ele>208.937469</ele>
        <time>2021-08-20T11:21:30.407Z</time>
      </trkpt>
      <trkpt lat="41.964" lon="34.1152">
        <ele>194.878413</ele>
        <time>2021-08-20T11:21:48.223Z</time>
      </trkpt>
      <trkpt lat="41.9639" lon="34.1147">
        <ele>189.450146</ele>
        <time>2021-08-20T11:21:55.116Z</time>
      </trkpt>
      <trkpt lat="41.96374" lon="34.11431">
        <ele>184.669407</ele>
        <time>2021-08-20T11:22:01.413Z</time>
      </trkpt>
      <trkpt lat="41.9636" lon="34.11393">
        <ele>181.109932</ele>
        <time>2021-08-20T11:22:07.548Z</time>
      </trkpt>
      <trkpt lat="41.96341" lon="34.11344">
        <ele>177.141112</ele>
        <time>2021-08-20T11:22:15.367Z</time>
      </trkpt>
      <trkpt lat="41.96349" lon="34.11269">
        <ele>171.664385</ele>
        <time>2021-08-20T11:22:26.157Z</time>
      </trkpt>
      <trkpt lat="41.964" lon="34.11103">
        <ele>160.10195</ele>
        <time>2021-08-20T11:22:51.998Z</time>
      </trkpt>
      <trkpt lat="41.96404" lon="34.1105">
        <ele>156.961179</ele>
        <time>2021-08-20T11:22:59.943Z</time>
      </trkpt>
      <trkpt lat="41.96394" lon="34.10984">
        <ele>152.999099</ele>
        <time>2021-08-20T11:23:09.957Z</time>
      </trkpt>
      <trkpt lat="41.96378" lon="34.10948">
        <ele>150.673186</ele>
        <time>2021-08-20T11:23:16.143Z</time>
      </trkpt>
      <trkpt lat="41.96341" lon="34.10888">
        <ele>146.59289</ele>
        <time>2021-08-20T11:23:27.712Z</time>
      </trkpt>
      <trkpt lat="41.96289" lon="34.10834">
        <ele>141.969589</ele>
        <time>2021-08-20T11:23:40.793Z</time>
      </trkpt>
      <trkpt lat="41.96274" lon="34.10807">
        <ele>140.214356</ele>
        <time>2021-08-20T11:23:45.811Z</time>
      </trkpt>
      <trkpt lat="41.96264" lon="34.10774">
        <ele>138.779657</ele>
        <time>2021-08-20T11:23:51.287Z</time>
      </trkpt>
      <trkpt lat="41.96276" lon="34.10739">
        <ele>138.186205</ele>
        <time>2021-08-20T11:23:57.000Z</time>
      </trkpt>
      <trkpt lat="41.96297" lon="34.10731">
        <ele>137.70805</ele>
        <time>2021-08-20T11:24:01.608Z</time>
      </trkpt>
      <trkpt lat="41.96321" lon="34.10731">
        <ele>137.186946</ele>
        <time>2021-08-20T11:24:06.926Z</time>
      </trkpt>
      <trkpt lat="41.96439" lon="34.10782">
        <ele>136.811675</ele>
        <time>2021-08-20T11:24:48.735Z</time>
      </trkpt>
      <trkpt lat="41.96478" lon="34.10767">
        <ele>139.254842</ele>
        <time>2021-08-20T11:25:14.262Z</time>
      </trkpt>
      <trkpt lat="41.96495" lon="34.1074">
        <ele>140.824406</ele>
        <time>2021-08-20T11:25:32.599Z</time>
      </trkpt>
      <trkpt lat="41.96515" lon="34.10664">
        <ele>144.420697</ele>
        <time>2021-08-20T11:26:18.078Z</time>
      </trkpt>
      <trkpt lat="41.96518" lon="34.10614">
        <ele>146.889299</ele>
        <time>2021-08-20T11:26:48.209Z</time>
      </trkpt>
      <trkpt lat="41.96508" lon="34.10585">
        <ele>148.762177</ele>
        <time>2021-08-20T11:27:07.164Z</time>
      </trkpt>
      <trkpt lat="41.96492" lon="34.10569">
        <ele>150.391001</ele>
        <time>2021-08-20T11:27:23.595Z</time>
      </trkpt>
      <trkpt lat="41.96464" lon="34.10569">
        <ele>152.599394</ele>
        <time>2021-08-20T11:27:44.978Z</time>
      </trkpt>
      <trkpt lat="41.96446" lon="34.10587">
        <ele>154.343228</ele>
        <time>2021-08-20T11:28:01.064Z</time>
      </trkpt>
      <trkpt lat="41.96433" lon="34.10627">
        <ele>156.901183</ele>
        <time>2021-08-20T11:28:23.974Z</time>
      </trkpt>
      <trkpt lat="41.96415" lon="34.10644">
        <ele>158.704417</ele>
        <time>2021-08-20T11:28:40.363Z</time>
      </trkpt>
      <trkpt lat="41.96395" lon="34.1065">
        <ele>160.285808</ele>
        <time>2021-08-20T11:28:54.369Z</time>
      </trkpt>
      <trkpt lat="41.96347" lon="34.10621">
        <ele>164.861624</ele>
        <time>2021-08-20T11:29:34.556Z</time>
      </trkpt>
      <trkpt lat="41.96296" lon="34.10601">
        <ele>169.405301</ele>
        <time>2021-08-20T11:30:16.335Z</time>
      </trkpt>
      <trkpt lat="41.96293" lon="34.10587">
        <ele>170.320046</ele>
        <time>2021-08-20T11:30:25.236Z</time>
      </trkpt>
      <trkpt lat="41.96296" lon="34.10572">
        <ele>171.322871</ele>
        <time>2021-08-20T11:30:35.402Z</time>
      </trkpt>
      <trkpt lat="41.96307" lon="34.10564">
        <ele>172.3281</ele>
        <time>2021-08-20T11:30:44.931Z</time>
      </trkpt>
      <trkpt lat="41.96345" lon="34.10562">
        <ele>175.645112</ele>
        <time>2021-08-20T11:31:17.222Z</time>
      </trkpt>
      <trkpt lat="41.96355" lon="34.10556">
        <ele>176.540099</ele>
        <time>2021-08-20T11:31:26.430Z</time>
      </trkpt>
      <trkpt lat="41.96363" lon="34.10542">
        <ele>177.611459</ele>
        <time>2021-08-20T11:31:37.733Z</time>
      </trkpt>
      <trkpt lat="41.96373" lon="34.10483">
        <ele>181.302665</ele>
        <time>2021-08-20T11:32:15.084Z</time>
      </trkpt>
      <trkpt lat="41.96392" lon="34.1045">
        <ele>183.845001</ele>
        <time>2021-08-20T11:32:40.549Z</time>
      </trkpt>
      <trkpt lat="41.96411" lon="34.1043">
        <ele>185.796123</ele>
        <time>2021-08-20T11:32:58.856Z</time>
      </trkpt>
      <trkpt lat="41.9644" lon="34.10416">
        <ele>188.303049</ele>
        <time>2021-08-20T11:33:21.211Z</time>
      </trkpt>
      <trkpt lat="41.9654" lon="34.10469">
        <ele>195.959369</ele>
        <time>2021-08-20T11:34:30.075Z</time>
      </trkpt>
      <trkpt lat="41.96581" lon="34.10459">
        <ele>198.726592</ele>
        <time>2021-08-20T11:34:56.427Z</time>
      </trkpt>
      <trkpt lat="41.966" lon="34.10463">
        <ele>200.072568</ele>
        <time>2021-08-20T11:35:11.102Z</time>
      </trkpt>
      <trkpt lat="41.96643" lon="34.10495">
        <ele>203.946447</ele>
        <time>2021-08-20T11:35:45.803Z</time>
      </trkpt>
      <trkpt lat="41.96723" lon="34.10533">
        <ele>213.7638</ele>
        <time>2021-08-20T11:37:01.624Z</time>
      </trkpt>
      <trkpt lat="41.96737" lon="34.10542">
        <ele>215.603745</ele>
        <time>2021-08-20T11:37:19.428Z</time>
      </trkpt>
      <trkpt lat="41.96779" lon="34.10571">
        <ele>221.127604</ele>
        <time>2021-08-20T11:38:09.648Z</time>
      </trkpt>
      <trkpt lat="41.96804" lon="34.10574">
        <ele>224.233454</ele>
        <time>2021-08-20T11:38:39.074Z</time>
      </trkpt>
      <trkpt lat="41.96816" lon="34.1057">
        <ele>225.964134</ele>
        <time>2021-08-20T11:38:52.164Z</time>
      </trkpt>
      <trkpt lat="41.96824" lon="34.10543">
        <ele>228.915177</ele>
        <time>2021-08-20T11:39:17.246Z</time>
      </trkpt>
      <trkpt lat="41.96831" lon="34.10463">
        <ele>237.291465</ele>
        <time>2021-08-20T11:40:27.575Z</time>
      </trkpt>
      <trkpt lat="41.96799" lon="34.10337">
        <ele>249.959948</ele>
        <time>2021-08-20T11:42:15.379Z</time>
      </trkpt>
      <trkpt lat="41.96797" lon="34.10315">
        <ele>251.163383</ele>
        <time>2021-08-20T11:42:29.486Z</time>
      </trkpt>
      <trkpt lat="41.968" lon="34.10301">
        <ele>251.986513</ele>
        <time>2021-08-20T11:42:38.895Z</time>
      </trkpt>
      <trkpt lat="41.96861" lon="34.10112">
        <ele>262.067751</ele>
        <time>2021-08-20T11:44:19.412Z</time>
      </trkpt>
      <trkpt lat="41.96871" lon="34.10058">
        <ele>262.180884</ele>
        <time>2021-08-20T11:44:33.714Z</time>
      </trkpt>
      <trkpt lat="41.96876" lon="34.1003">
        <ele>262.239589</ele>
        <time>2021-08-20T11:44:40.372Z</time>
      </trkpt>
      <trkpt lat="41.96882" lon="34.0999">
        <ele>262.323301</ele>
        <time>2021-08-20T11:44:49.080Z</time>
      </trkpt>
      <trkpt lat="41.96891" lon="34.09933">
        <ele>262.441918</ele>
        <time>2021-08-20T11:45:00.547Z</time>
      </trkpt>
      <trkpt lat="41.96916" lon="34.09665">
        <ele>257.212549</ele>
        <time>2021-08-20T11:45:46.754Z</time>
      </trkpt>
      <trkpt lat="41.9694" lon="34.0954">
        <ele>254.047973</ele>
        <time>2021-08-20T11:46:08.378Z</time>
      </trkpt>
      <trkpt lat="41.96997" lon="34.09326">
        <ele>248.485951</ele>
        <time>2021-08-20T11:46:46.979Z</time>
      </trkpt>
      <trkpt lat="41.97005" lon="34.09284">
        <ele>247.420163</ele>
        <time>2021-08-20T11:46:54.468Z</time>
      </trkpt>
      <trkpt lat="41.97009" lon="34.09264">
        <ele>246.92741</ele>
        <time>2021-08-20T11:46:57.947Z</time>
      </trkpt>
      <trkpt lat="41.97016" lon="34.09222">
        <ele>245.890246</ele>
        <time>2021-08-20T11:47:05.191Z</time>
      </trkpt>
      <trkpt lat="41.97016" lon="34.09156">
        <ele>243.638611</ele>
        <time>2021-08-20T11:47:16.215Z</time>
      </trkpt>
      <trkpt lat="41.9701" lon="34.09089">
        <ele>240.906239</ele>
        <time>2021-08-20T11:47:27.427Z</time>
      </trkpt>
      <trkpt lat="41.96984" lon="34.09028">
        <ele>238.050909</ele>
        <time>2021-08-20T11:47:38.820Z</time>
      </trkpt>
      <trkpt lat="41.96972" lon="34.08962">
        <ele>235.076975</ele>
        <time>2021-08-20T11:47:48.726Z</time>
      </trkpt>
      <trkpt lat="41.96975" lon="34.08927">
        <ele>232.113649</ele>
        <time>2021-08-20T11:47:53.656Z</time>
      </trkpt>
      <trkpt lat="41.96992" lon="34.08872">
        <ele>227.005798</ele>
        <time>2021-08-20T11:48:02.031Z</time>
      </trkpt>
      <trkpt lat="41.97008" lon="34.08841">
        <ele>223.699665</ele>
        <time>2021-08-20T11:48:07.409Z</time>
      </trkpt>
      <trkpt lat="41.97049" lon="34.0881">
        <ele>218.336587</ele>
        <time>2021-08-20T11:48:16.412Z</time>
      </trkpt>
      <trkpt lat="41.97134" lon="34.08723">
        <ele>205.349707</ele>
        <time>2021-08-20T11:48:36.838Z</time>
      </trkpt>
      <trkpt lat="41.97161" lon="34.08661">
        <ele>198.675593</ele>
        <time>2021-08-20T11:48:47.232Z</time>
      </trkpt>
      <trkpt lat="41.97189" lon="34.08579">
        <ele>191.004273</ele>
        <time>2021-08-20T11:49:00.478Z</time>
      </trkpt>
      <trkpt lat="41.97237" lon="34.08483">
        <ele>183.635557</ele>
        <time>2021-08-20T11:49:17.899Z</time>
      </trkpt>
      <trkpt lat="41.97272" lon="34.08396">
        <ele>177.35141</ele>
        <time>2021-08-20T11:49:33.189Z</time>
      </trkpt>
      <trkpt lat="41.97294" lon="34.08323">
        <ele>174.562615</ele>
        <time>2021-08-20T11:49:45.896Z</time>
      </trkpt>
      <trkpt lat="41.97324" lon="34.08253">
        <ele>171.853762</ele>
        <time>2021-08-20T11:49:59.852Z</time>
      </trkpt>
      <trkpt lat="41.97327" lon="34.08209">
        <ele>170.377339</ele>
        <time>2021-08-20T11:50:07.909Z</time>
      </trkpt>
      <trkpt lat="41.97317" lon="34.08176">
        <ele>169.178816</ele>
        <time>2021-08-20T11:50:14.801Z</time>
      </trkpt>
      <trkpt lat="41.97304" lon="34.0816">
        <ele>168.250974</ele>
        <time>2021-08-20T11:50:18.842Z</time>
      </trkpt>
      <trkpt lat="41.97286" lon="34.0811">
        <ele>165.778851</ele>
        <time>2021-08-20T11:50:27.610Z</time>
      </trkpt>
      <trkpt lat="41.97255" lon="34.08039">
        <ele>162.146287</ele>
        <time>2021-08-20T11:50:40.267Z</time>
      </trkpt>
      <trkpt lat="41.97248" lon="34.08015">
        <ele>161.008342</ele>
        <time>2021-08-20T11:50:44.157Z</time>
      </trkpt>
      <trkpt lat="41.97256" lon="34.08004">
        <ele>160.319501</ele>
        <time>2021-08-20T11:50:46.466Z</time>
      </trkpt>
      <trkpt lat="41.97265" lon="34.08003">
        <ele>159.808159</ele>
        <time>2021-08-20T11:50:48.253Z</time>
      </trkpt>
      <trkpt lat="41.97283" lon="34.07977">
        <ele>158.206352</ele>
        <time>2021-08-20T11:50:53.499Z</time>
      </trkpt>
      <trkpt lat="41.97305" lon="34.07925">
        <ele>153.799353</ele>
        <time>2021-08-20T11:51:02.277Z</time>
      </trkpt>
      <trkpt lat="41.973" lon="34.07774">
        <ele>142.854361</ele>
        <time>2021-08-20T11:51:23.428Z</time>
      </trkpt>
      <trkpt lat="41.97316" lon="34.07707">
        <ele>137.713391</ele>
        <time>2021-08-20T11:51:33.539Z</time>
      </trkpt>
      <trkpt lat="41.97334" lon="34.07663">
        <ele>134.063336</ele>
        <time>2021-08-20T11:51:40.696Z</time>
      </trkpt>
      <trkpt lat="41.97375" lon="34.07556">
        <ele>125.352895</ele>
        <time>2021-08-20T11:51:57.875Z</time>
      </trkpt>
      <trkpt lat="41.97408" lon="34.07483">
        <ele>119.491776</ele>
        <time>2021-08-20T11:52:10.092Z</time>
      </trkpt>
      <trkpt lat="41.97504" lon="34.07289">
        <ele>103.572261</ele>
        <time>2021-08-20T11:52:43.652Z</time>
      </trkpt>
      <trkpt lat="41.97508" lon="34.07251">
        <ele>100.561833</ele>
        <time>2021-08-20T11:52:49.151Z</time>
      </trkpt>
      <trkpt lat="41.97518" lon="34.07231">
        <ele>98.64817</ele>
        <time>2021-08-20T11:52:52.709Z</time>
      </trkpt>
      <trkpt lat="41.97525" lon="34.07193">
        <ele>95.644328</ele>
        <time>2021-08-20T11:52:58.156Z</time>
      </trkpt>
      <trkpt lat="41.97537" lon="34.07162">
        <ele>92.933542</ele>
        <time>2021-08-20T11:53:03.053Z</time>
      </trkpt>
      <trkpt lat="41.97554" lon="34.07135">
        <ele>90.228186</ele>
        <time>2021-08-20T11:53:07.986Z</time>
      </trkpt>
      <trkpt lat="41.97564" lon="34.07128">
        <ele>89.000199</ele>
        <time>2021-08-20T11:53:10.160Z</time>
      </trkpt>
      <trkpt lat="41.97572" lon="34.07101">
        <ele>86.328626</ele>
        <time>2021-08-20T11:53:14.237Z</time>
      </trkpt>
      <trkpt lat="41.97578" lon="34.07091">
        <ele>85.124601</ele>
        <time>2021-08-20T11:53:15.880Z</time>
      </trkpt>
      <trkpt lat="41.976" lon="34.0705">
        <ele>80.118754</ele>
        <time>2021-08-20T11:53:22.859Z</time>
      </trkpt>
      <trkpt lat="41.9764" lon="34.06941">
        <ele>68.092102</ele>
        <time>2021-08-20T11:53:39.526Z</time>
      </trkpt>
      <trkpt lat="41.97655" lon="34.06925">
        <ele>65.616424</ele>
        <time>2021-08-20T11:53:42.900Z</time>
      </trkpt>
      <trkpt lat="41.97671" lon="34.06917">
        <ele>63.498001</ele>
        <time>2021-08-20T11:53:45.997Z</time>
      </trkpt>
      <trkpt lat="41.97716" lon="34.06927">
        <ele>58.117699</ele>
        <time>2021-08-20T11:53:54.418Z</time>
      </trkpt>
      <trkpt lat="41.97741" lon="34.06926">
        <ele>55.131603</ele>
        <time>2021-08-20T11:53:59.136Z</time>
      </trkpt>
      <trkpt lat="41.97761" lon="34.06918">
        <ele>52.791569</ele>
        <time>2021-08-20T11:54:02.818Z</time>
      </trkpt>
      <trkpt lat="41.97784" lon="34.0692">
        <ele>50.08174</ele>
        <time>2021-08-20T11:54:07.187Z</time>
      </trkpt>
      <trkpt lat="41.97829" lon="34.06936">
        <ele>44.581764</ele>
        <time>2021-08-20T11:54:16.089Z</time>
      </trkpt>
      <trkpt lat="41.9785" lon="34.06854">
        <ele>40.626914</ele>
        <time>2021-08-20T11:54:28.869Z</time>
      </trkpt>
      <trkpt lat="41.97856" lon="34.06799">
        <ele>38.51308</ele>
        <time>2021-08-20T11:54:37.393Z</time>
      </trkpt>
      <trkpt lat="41.97854" lon="34.06717">
        <ele>35.386126</ele>
        <time>2021-08-20T11:54:51.387Z</time>
      </trkpt>
      <trkpt lat="41.9784" lon="34.06608">
        <ele>33.696593</ele>
        <time>2021-08-20T11:55:12.888Z</time>
      </trkpt>
      <trkpt lat="41.97847" lon="34.06555">
        <ele>33.341909</ele>
        <time>2021-08-20T11:55:23.353Z</time>
      </trkpt>
      <trkpt lat="41.979" lon="34.06276">
        <ele>34.018091</ele>
        <time>2021-08-20T11:56:29.469Z</time>
      </trkpt>
      <trkpt lat="41.97932" lon="34.06178">
        <ele>36.295346</ele>
        <time>2021-08-20T11:57:09.977Z</time>
      </trkpt>
      <trkpt lat="41.97942" lon="34.0613">
        <ele>38.299793</ele>
        <time>2021-08-20T11:57:32.529Z</time>
      </trkpt>
      <trkpt lat="41.97942" lon="34.06079">
        <ele>40.350506</ele>
        <time>2021-08-20T11:57:57.650Z</time>
      </trkpt>
      <trkpt lat="41.97957" lon="34.05904">
        <ele>46.814771</ele>
        <time>2021-08-20T11:59:25.696Z</time>
      </trkpt>
      <trkpt lat="41.97984" lon="34.05729">
        <ele>52.147888</ele>
        <time>2021-08-20T12:00:34.757Z</time>
      </trkpt>
      <trkpt lat="41.97987" lon="34.05623">
        <ele>52.59102</ele>
        <time>2021-08-20T12:01:03.518Z</time>
      </trkpt>
      <trkpt lat="41.97969" lon="34.05291">
        <ele>50.940463</ele>
        <time>2021-08-20T12:02:12.880Z</time>
      </trkpt>
      <trkpt lat="41.97948" lon="34.05097">
        <ele>44.033332</ele>
        <time>2021-08-20T12:02:44.807Z</time>
      </trkpt>
      <trkpt lat="41.97941" lon="34.04979">
        <ele>38.4898</ele>
        <time>2021-08-20T12:03:02.048Z</time>
      </trkpt>
      <trkpt lat="41.97949" lon="34.04926">
        <ele>35.28729</ele>
        <time>2021-08-20T12:03:09.791Z</time>
      </trkpt>
      <trkpt lat="41.9796" lon="34.04895">
        <ele>33.253182</ele>
        <time>2021-08-20T12:03:14.758Z</time>
      </trkpt>
      <trkpt lat="41.98003" lon="34.04831">
        <ele>28.144825</ele>
        <time>2021-08-20T12:03:27.246Z</time>
      </trkpt>
      <trkpt lat="41.98017" lon="34.04763">
        <ele>26.12312</ele>
        <time>2021-08-20T12:03:37.893Z</time>
      </trkpt>
      <trkpt lat="41.9803" lon="34.0462">
        <ele>24.166139</ele>
        <time>2021-08-20T12:04:06.570Z</time>
      </trkpt>
      <trkpt lat="41.98027" lon="34.04576">
        <ele>23.565935</ele>
        <time>2021-08-20T12:04:19.224Z</time>
      </trkpt>
      <trkpt lat="41.98008" lon="34.04499">
        <ele>24.714561</ele>
        <time>2021-08-20T12:04:45.906Z</time>
      </trkpt>
      <trkpt lat="41.97941" lon="34.0408">
        <ele>31.215968</ele>
        <time>2021-08-20T12:07:09.830Z</time>
      </trkpt>
      <trkpt lat="41.97935" lon="34.0402">
        <ele>30.574485</ele>
        <time>2021-08-20T12:07:23.036Z</time>
      </trkpt>
      <trkpt lat="41.97936" lon="34.0375">
        <ele>26.45372</ele>
        <time>2021-08-20T12:08:10.322Z</time>
      </trkpt>
      <trkpt lat="41.97919" lon="34.03597">
        <ele>23.016657</ele>
        <time>2021-08-20T12:08:36.508Z</time>
      </trkpt>
      <trkpt lat="41.97903" lon="34.03334">
        <ele>17.642074</ele>
        <time>2021-08-20T12:09:22.019Z</time>
      </trkpt>
      <trkpt lat="41.97903" lon="34.03261">
        <ele>16.73184</ele>
        <time>2021-08-20T12:09:35.192Z</time>
      </trkpt>
      <trkpt lat="41.97911" lon="34.03058">
        <ele>15.66471</ele>
        <time>2021-08-20T12:10:16.742Z</time>
      </trkpt>
      <trkpt lat="41.97921" lon="34.02764">
        <ele>18.779368</ele>
        <time>2021-08-20T12:11:46.470Z</time>
      </trkpt>
      <trkpt lat="41.97911" lon="34.02569">
        <ele>20.410085</ele>
        <time>2021-08-20T12:12:53.229Z</time>
      </trkpt>
      <trkpt lat="41.97892" lon="34.02446">
        <ele>20.180348</ele>
        <time>2021-08-20T12:13:18.186Z</time>
      </trkpt>
      <trkpt lat="41.97885" lon="34.0237">
        <ele>18.894241</ele>
        <time>2021-08-20T12:13:31.423Z</time>
      </trkpt>
      <trkpt lat="41.97932" lon="34.02355">
        <ele>17.044905</ele>
        <time>2021-08-20T12:13:42.381Z</time>
      </trkpt>
      <trkpt lat="41.97938" lon="34.02204">
        <ele>13.197517</ele>
        <time>2021-08-20T12:14:07.745Z</time>
      </trkpt>
      <trkpt lat="41.97938" lon="34.0207">
        <ele>12.758339</ele>
        <time>2021-08-20T12:14:33.912Z</time>
      </trkpt>
      <trkpt lat="41.97938" lon="34.01953">
        <ele>13.061392</ele>
        <time>2021-08-20T12:15:16.278Z</time>
      </trkpt>
      <trkpt lat="41.97927" lon="34.01918">
        <ele>13.914039</ele>
        <time>2021-08-20T12:15:31.915Z</time>
      </trkpt>
      <trkpt lat="41.9793" lon="34.01867">
        <ele>15.035092</ele>
        <time>2021-08-20T12:15:52.416Z</time>
      </trkpt>
      <trkpt lat="41.9787" lon="34.01864">
        <ele>16.837359</ele>
        <time>2021-08-20T12:16:25.841Z</time>
      </trkpt>
      <trkpt lat="41.97872" lon="34.01582">
        <ele>18.288174</ele>
        <time>2021-08-20T12:17:38.896Z</time>
      </trkpt>
      <trkpt lat="41.97877" lon="34.01488">
        <ele>16.472641</ele>
        <time>2021-08-20T12:17:54.707Z</time>
      </trkpt>
      <trkpt lat="41.97934" lon="34.01492">
        <ele>14.896524</ele>
        <time>2021-08-20T12:18:08.287Z</time>
      </trkpt>
      <trkpt lat="41.97932" lon="34.01286">
        <ele>11.678052</ele>
        <time>2021-08-20T12:18:46.316Z</time>
      </trkpt>
      <trkpt lat="41.97925" lon="34.0121">
        <ele>10.679712</ele>
        <time>2021-08-20T12:19:03.496Z</time>
      </trkpt>
      <trkpt lat="41.97921" lon="34.01146">
        <ele>10.146305</ele>
        <time>2021-08-20T12:19:17.177Z</time>
      </trkpt>
      <trkpt lat="41.97923" lon="34.01074">
        <ele>9.911853</ele>
        <time>2021-08-20T12:19:32.506Z</time>
      </trkpt>
      <trkpt lat="41.9793" lon="34.00924">
        <ele>9.588145</ele>
        <time>2021-08-20T12:20:04.439Z</time>
      </trkpt>
      <trkpt lat="41.97932" lon="34.00847">
        <ele>10.534179</ele>
        <time>2021-08-20T12:20:33.635Z</time>
      </trkpt>
      <trkpt lat="41.97933" lon="34.00803">
        <ele>11.064733</ele>
        <time>2021-08-20T12:20:50.751Z</time>
      </trkpt>
      <trkpt lat="41.97935" lon="34.00779">
        <ele>11.367246</ele>
        <time>2021-08-20T12:20:56.366Z</time>
      </trkpt>
      <trkpt lat="41.97898" lon="34.00774">
        <ele>11.985622</ele>
        <time>2021-08-20T12:21:11.572Z</time>
      </trkpt>
      <trkpt lat="41.97847" lon="34.00768">
        <ele>12.409408</ele>
        <time>2021-08-20T12:21:32.679Z</time>
      </trkpt>
      <trkpt lat="41.97848" lon="34.00716">
        <ele>12.389202</ele>
        <time>2021-08-20T12:21:46.675Z</time>
      </trkpt>
      <trkpt lat="41.97854" lon="34.00704">
        <ele>12.383709</ele>
        <time>2021-08-20T12:21:49.188Z</time>
      </trkpt>
      <trkpt lat="41.97866" lon="34.00611">
        <ele>12.346605</ele>
        <time>2021-08-20T12:22:15.135Z</time>
      </trkpt>
      <trkpt lat="41.97871" lon="34.00573">
        <ele>12.331486</ele>
        <time>2021-08-20T12:22:23.683Z</time>
      </trkpt>
      <trkpt lat="41.97876" lon="34.00538">
        <ele>12.009596</ele>
        <time>2021-08-20T12:22:29.836Z</time>
      </trkpt>
      <trkpt lat="41.97876" lon="34.00536">
        <ele>11.985977</ele>
        <time>2021-08-20T12:22:30.173Z</time>
      </trkpt>
      <trkpt lat="41.97876" lon="34.00497">
        <ele>11.511112</ele>
        <time>2021-08-20T12:22:36.781Z</time>
      </trkpt>
      <trkpt lat="41.97865" lon="34.00402">
        <ele>10.312494</ele>
        <time>2021-08-20T12:22:55.640Z</time>
      </trkpt>
      <trkpt lat="41.97864" lon="34.00378">
        <ele>10.01244</ele>
        <time>2021-08-20T12:23:00.651Z</time>
      </trkpt>
      <trkpt lat="41.97862" lon="34.00327">
        <ele>9.371278</ele>
        <time>2021-08-20T12:23:11.813Z</time>
      </trkpt>
      <trkpt lat="41.9786" lon="34.00291">
        <ele>9.236533</ele>
        <time>2021-08-20T12:23:19.474Z</time>
      </trkpt>
      <trkpt lat="41.97857" lon="34.00249">
        <ele>9.122654</ele>
        <time>2021-08-20T12:23:28.691Z</time>
      </trkpt>
      <trkpt lat="41.97858" lon="34.00159">
        <ele>8.880542</ele>
        <time>2021-08-20T12:23:49.195Z</time>
      </trkpt>
      <trkpt lat="41.97859" lon="34.0007">
        <ele>8.69489</ele>
        <time>2021-08-20T12:24:10.738Z</time>
      </trkpt>
      <trkpt lat="41.97854" lon="34.00049">
        <ele>8.73962</ele>
        <time>2021-08-20T12:24:16.090Z</time>
      </trkpt>
      <trkpt lat="41.97841" lon="34.00037">
        <ele>8.782489</ele>
        <time>2021-08-20T12:24:21.728Z</time>
      </trkpt>
      <trkpt lat="41.9771" lon="34.00022">
        <ele>9.146899</ele>
        <time>2021-08-20T12:25:07.678Z</time>
      </trkpt>
      <trkpt lat="41.97709" lon="34.00002">
        <ele>9.133176</ele>
        <time>2021-08-20T12:25:13.047Z</time>
      </trkpt>
      <trkpt lat="41.97707" lon="33.99869">
        <ele>8.637119</ele>
        <time>2021-08-20T12:25:41.585Z</time>
      </trkpt>
      <trkpt lat="41.97707" lon="33.99862">
        <ele>8.608406</ele>
        <time>2021-08-20T12:25:43.586Z</time>
      </trkpt>
      <trkpt lat="41.97722" lon="33.99868">
        <ele>8.529544</ele>
        <time>2021-08-20T12:25:47.783Z</time>
      </trkpt>
      <trkpt lat="41.97765" lon="33.99869">
        <ele>8.31378</ele>
        <time>2021-08-20T12:25:59.754Z</time>
      </trkpt>
      <trkpt lat="41.97878" lon="33.99807">
        <ele>8.011463</ele>
        <time>2021-08-20T12:26:36.723Z</time>
      </trkpt>
      <trkpt lat="41.97889" lon="33.99802">
        <ele>7.986368</ele>
        <time>2021-08-20T12:26:40.022Z</time>
      </trkpt>
      <trkpt lat="41.97866" lon="33.99758">
        <ele>7.896631</ele>
        <time>2021-08-20T12:26:53.563Z</time>
      </trkpt>
      <trkpt lat="41.97837" lon="33.99719">
        <ele>8.175252</ele>
        <time>2021-08-20T12:27:08.036Z</time>
      </trkpt>
      <trkpt lat="41.97832" lon="33.99702">
        <ele>8.342299</ele>
        <time>2021-08-20T12:27:13.153Z</time>
      </trkpt>
      <trkpt lat="41.9783" lon="33.99489">
        <ele>10.628295</ele>
        <time>2021-08-20T12:28:16.438Z</time>
      </trkpt>
      <trkpt lat="41.97831" lon="33.99478">
        <ele>10.882214</ele>
        <time>2021-08-20T12:28:20.338Z</time>
      </trkpt>
      <trkpt lat="41.97836" lon="33.99456">
        <ele>11.432258</ele>
        <time>2021-08-20T12:28:28.559Z</time>
      </trkpt>
      <trkpt lat="41.97839" lon="33.99437">
        <ele>11.884166</ele>
        <time>2021-08-20T12:28:35.262Z</time>
      </trkpt>
      <trkpt lat="41.9784" lon="33.99423">
        <ele>12.215699</ele>
        <time>2021-08-20T12:28:40.933Z</time>
      </trkpt>
      <trkpt lat="41.97837" lon="33.99359">
        <ele>13.713592</ele>
        <time>2021-08-20T12:29:05.319Z</time>
      </trkpt>
      <trkpt lat="41.97832" lon="33.99289">
        <ele>15.342056</ele>
        <time>2021-08-20T12:29:33.586Z</time>
      </trkpt>
      <trkpt lat="41.9783" lon="33.99243">
        <ele>16.470321</ele>
        <time>2021-08-20T12:29:52.888Z</time>
      </trkpt>
      <trkpt lat="41.97826" lon="33.99198">
        <ele>17.586191</ele>
        <time>2021-08-20T12:30:12.128Z</time>
      </trkpt>
      <trkpt lat="41.97816" lon="33.99185">
        <ele>18.062148</ele>
        <time>2021-08-20T12:30:20.875Z</time>
      </trkpt>
      <trkpt lat="41.97819" lon="33.99136">
        <ele>19.25433</ele>
        <time>2021-08-20T12:30:40.389Z</time>
      </trkpt>
      <trkpt lat="41.9782" lon="33.99097">
        <ele>20.227688</ele>
        <time>2021-08-20T12:30:55.540Z</time>
      </trkpt>
      <trkpt lat="41.97834" lon="33.98636">
        <ele>24.730132</ele>
        <time>2021-08-20T12:33:05.448Z</time>
      </trkpt>
      <trkpt lat="41.97845" lon="33.98502">
        <ele>25.598848</ele>
        <time>2021-08-20T12:33:34.166Z</time>
      </trkpt>
      <trkpt lat="41.97845" lon="33.98452">
        <ele>26.059713</ele>
        <time>2021-08-20T12:33:46.456Z</time>
      </trkpt>
      <trkpt lat="41.97845" lon="33.98365">
        <ele>26.849114</ele>
        <time>2021-08-20T12:34:10.830Z</time>
      </trkpt>
      <trkpt lat="41.97875" lon="33.98041">
        <ele>33.555977</ele>
        <time>2021-08-20T12:36:16.866Z</time>
      </trkpt>
      <trkpt lat="41.97893" lon="33.97917">
        <ele>33.836994</ele>
        <time>2021-08-20T12:36:51.743Z</time>
      </trkpt>
      <trkpt lat="41.9793" lon="33.97583">
        <ele>28.5826</ele>
        <time>2021-08-20T12:37:51.194Z</time>
      </trkpt>
      <trkpt lat="41.97931" lon="33.97501">
        <ele>25.451069</ele>
        <time>2021-08-20T12:38:04.361Z</time>
      </trkpt>
      <trkpt lat="41.97961" lon="33.97368">
        <ele>20.150262</ele>
        <time>2021-08-20T12:38:25.453Z</time>
      </trkpt>
      <trkpt lat="41.97958" lon="33.97301">
        <ele>18.997443</ele>
        <time>2021-08-20T12:38:35.873Z</time>
      </trkpt>
      <trkpt lat="41.97958" lon="33.9729">
        <ele>18.841083</ele>
        <time>2021-08-20T12:38:37.605Z</time>
      </trkpt>
      <trkpt lat="41.97967" lon="33.97224">
        <ele>17.875464</ele>
        <time>2021-08-20T12:38:49.067Z</time>
      </trkpt>
      <trkpt lat="41.97967" lon="33.97173">
        <ele>17.144763</ele>
        <time>2021-08-20T12:38:59.522Z</time>
      </trkpt>
      <trkpt lat="41.97973" lon="33.97161">
        <ele>16.937732</ele>
        <time>2021-08-20T12:39:03.571Z</time>
      </trkpt>
      <trkpt lat="41.97976" lon="33.97156">
        <ele>16.845738</ele>
        <time>2021-08-20T12:39:05.319Z</time>
      </trkpt>
      <trkpt lat="41.97994" lon="33.97138">
        <ele>16.413462</ele>
        <time>2021-08-20T12:39:13.314Z</time>
      </trkpt>
      <trkpt lat="41.98013" lon="33.97102">
        <ele>19.026916</ele>
        <time>2021-08-20T12:39:29.631Z</time>
      </trkpt>
      <trkpt lat="41.98021" lon="33.97063">
        <ele>21.678018</ele>
        <time>2021-08-20T12:39:50.575Z</time>
      </trkpt>
      <trkpt lat="41.98019" lon="33.96959">
        <ele>28.434886</ele>
        <time>2021-08-20T12:40:59.173Z</time>
      </trkpt>
      <trkpt lat="41.98012" lon="33.96912">
        <ele>31.548114</ele>
        <time>2021-08-20T12:41:35.962Z</time>
      </trkpt>
      <trkpt lat="41.97996" lon="33.96874">
        <ele>35.183996</ele>
        <time>2021-08-20T12:42:12.127Z</time>
      </trkpt>
      <trkpt lat="41.97973" lon="33.96848">
        <ele>38.722072</ele>
        <time>2021-08-20T12:42:44.007Z</time>
      </trkpt>
      <trkpt lat="41.97909" lon="33.96836">
        <ele>46.332088</ele>
        <time>2021-08-20T12:43:51.010Z</time>
      </trkpt>
      <trkpt lat="41.97876" lon="33.96824">
        <ele>50.357927</ele>
        <time>2021-08-20T12:44:23.732Z</time>
      </trkpt>
      <trkpt lat="41.97842" lon="33.96803">
        <ele>53.660097</ele>
        <time>2021-08-20T12:44:55.632Z</time>
      </trkpt>
      <trkpt lat="41.97781" lon="33.96731">
        <ele>56.159886</ele>
        <time>2021-08-20T12:45:46.976Z</time>
      </trkpt>
      <trkpt lat="41.97731" lon="33.96633">
        <ele>58.68476</ele>
        <time>2021-08-20T12:46:14.198Z</time>
      </trkpt>
      <trkpt lat="41.97675" lon="33.96479">
        <ele>51.900771</ele>
        <time>2021-08-20T12:46:40.732Z</time>
      </trkpt>
      <trkpt lat="41.97647" lon="33.96373">
        <ele>47.630227</ele>
        <time>2021-08-20T12:46:57.379Z</time>
      </trkpt>
      <trkpt lat="41.97628" lon="33.96256">
        <ele>43.371332</ele>
        <time>2021-08-20T12:47:15.752Z</time>
      </trkpt>
      <trkpt lat="41.97617" lon="33.96139">
        <ele>41.421815</ele>
        <time>2021-08-20T12:47:36.691Z</time>
      </trkpt>
      <trkpt lat="41.97591" lon="33.95964">
        <ele>44.87169</ele>
        <time>2021-08-20T12:48:42.333Z</time>
      </trkpt>
      <trkpt lat="41.97565" lon="33.95856">
        <ele>49.623683</ele>
        <time>2021-08-20T12:49:42.722Z</time>
      </trkpt>
      <trkpt lat="41.97538" lon="33.9581">
        <ele>52.405131</ele>
        <time>2021-08-20T12:50:14.390Z</time>
      </trkpt>
      <trkpt lat="41.97499" lon="33.95774">
        <ele>55.424582</ele>
        <time>2021-08-20T12:50:47.263Z</time>
      </trkpt>
      <trkpt lat="41.97429" lon="33.95693">
        <ele>58.314031</ele>
        <time>2021-08-20T12:51:40.900Z</time>
      </trkpt>
      <trkpt lat="41.97411" lon="33.95572">
        <ele>60.284432</ele>
        <time>2021-08-20T12:52:15.804Z</time>
      </trkpt>
      <trkpt lat="41.9741" lon="33.95513">
        <ele>59.632383</ele>
        <time>2021-08-20T12:52:26.660Z</time>
      </trkpt>
      <trkpt lat="41.97423" lon="33.95435">
        <ele>57.347365</ele>
        <time>2021-08-20T12:52:40.099Z</time>
      </trkpt>
      <trkpt lat="41.97437" lon="33.95352">
        <ele>54.939113</ele>
        <time>2021-08-20T12:52:53.478Z</time>
      </trkpt>
      <trkpt lat="41.97456" lon="33.95181">
        <ele>49.498404</ele>
        <time>2021-08-20T12:53:20.256Z</time>
      </trkpt>
      <trkpt lat="41.97448" lon="33.95116">
        <ele>47.363132</ele>
        <time>2021-08-20T12:53:31.044Z</time>
      </trkpt>
      <trkpt lat="41.97428" lon="33.95043">
        <ele>46.079649</ele>
        <time>2021-08-20T12:53:44.822Z</time>
      </trkpt>
      <trkpt lat="41.97402" lon="33.94971">
        <ele>46.428674</ele>
        <time>2021-08-20T12:54:01.673Z</time>
      </trkpt>
      <trkpt lat="41.97385" lon="33.94901">
        <ele>46.749777</ele>
        <time>2021-08-20T12:54:22.513Z</time>
      </trkpt>
      <trkpt lat="41.97371" lon="33.94754">
        <ele>50.042903</ele>
        <time>2021-08-20T12:55:20.677Z</time>
      </trkpt>
      <trkpt lat="41.97346" lon="33.94611">
        <ele>54.836761</ele>
        <time>2021-08-20T12:56:26.195Z</time>
      </trkpt>
      <trkpt lat="41.9731" lon="33.94491">
        <ele>58.079271</ele>
        <time>2021-08-20T12:57:17.735Z</time>
      </trkpt>
      <trkpt lat="41.97301" lon="33.94433">
        <ele>59.558998</ele>
        <time>2021-08-20T12:57:38.527Z</time>
      </trkpt>
      <trkpt lat="41.97301" lon="33.94373">
        <ele>60.970292</ele>
        <time>2021-08-20T12:57:58.080Z</time>
      </trkpt>
      <trkpt lat="41.97311" lon="33.94319">
        <ele>61.446819</ele>
        <time>2021-08-20T12:58:15.012Z</time>
      </trkpt>
      <trkpt lat="41.97328" lon="33.9427">
        <ele>61.90984</ele>
        <time>2021-08-20T12:58:30.117Z</time>
      </trkpt>
      <trkpt lat="41.97329" lon="33.94221">
        <ele>62.32958</ele>
        <time>2021-08-20T12:58:43.581Z</time>
      </trkpt>
      <trkpt lat="41.97311" lon="33.94179">
        <ele>62.744699</ele>
        <time>2021-08-20T12:58:56.837Z</time>
      </trkpt>
      <trkpt lat="41.97243" lon="33.94136">
        <ele>61.822003</ele>
        <time>2021-08-20T12:59:21.465Z</time>
      </trkpt>
      <trkpt lat="41.97221" lon="33.94097">
        <ele>61.019778</ele>
        <time>2021-08-20T12:59:30.896Z</time>
      </trkpt>
      <trkpt lat="41.97229" lon="33.94058">
        <ele>60.356811</ele>
        <time>2021-08-20T12:59:37.854Z</time>
      </trkpt>
      <trkpt lat="41.97292" lon="33.9401">
        <ele>58.402523</ele>
        <time>2021-08-20T12:59:53.484Z</time>
      </trkpt>
      <trkpt lat="41.9732" lon="33.93978">
        <ele>56.52208</ele>
        <time>2021-08-20T13:00:01.179Z</time>
      </trkpt>
      <trkpt lat="41.9733" lon="33.93934">
        <ele>54.771419</ele>
        <time>2021-08-20T13:00:08.312Z</time>
      </trkpt>
      <trkpt lat="41.97318" lon="33.93809">
        <ele>49.975735</ele>
        <time>2021-08-20T13:00:28.032Z</time>
      </trkpt>
      <trkpt lat="41.97316" lon="33.93742">
        <ele>47.954666</ele>
        <time>2021-08-20T13:00:38.558Z</time>
      </trkpt>
      <trkpt lat="41.9733" lon="33.93614">
        <ele>44.118579</ele>
        <time>2021-08-20T13:00:59.906Z</time>
      </trkpt>
      <trkpt lat="41.97331" lon="33.93587">
        <ele>43.308332</ele>
        <time>2021-08-20T13:01:04.645Z</time>
      </trkpt>
      <trkpt lat="41.97332" lon="33.93556">
        <ele>42.490407</ele>
        <time>2021-08-20T13:01:09.887Z</time>
      </trkpt>
      <trkpt lat="41.9734" lon="33.935">
        <ele>41.415453</ele>
        <time>2021-08-20T13:01:19.776Z</time>
      </trkpt>
      <trkpt lat="41.97356" lon="33.93447">
        <ele>40.33714</ele>
        <time>2021-08-20T13:01:29.612Z</time>
      </trkpt>
      <trkpt lat="41.97364" lon="33.93258">
        <ele>37.943279</ele>
        <time>2021-08-20T13:02:04.100Z</time>
      </trkpt>
      <trkpt lat="41.97376" lon="33.93146">
        <ele>37.70233</ele>
        <time>2021-08-20T13:02:29.837Z</time>
      </trkpt>
      <trkpt lat="41.97414" lon="33.9306">
        <ele>38.530097</ele>
        <time>2021-08-20T13:02:58.438Z</time>
      </trkpt>
      <trkpt lat="41.9742" lon="33.93019">
        <ele>39.488616</ele>
        <time>2021-08-20T13:03:12.229Z</time>
      </trkpt>
      <trkpt lat="41.97409" lon="33.92945">
        <ele>41.219652</ele>
        <time>2021-08-20T13:03:39.463Z</time>
      </trkpt>
      <trkpt lat="41.9735" lon="33.92729">
        <ele>48.595752</ele>
        <time>2021-08-20T13:05:17.197Z</time>
      </trkpt>
      <trkpt lat="41.97355" lon="33.92677">
        <ele>50.546897</ele>
        <time>2021-08-20T13:05:40.044Z</time>
      </trkpt>
      <trkpt lat="41.97348" lon="33.92615">
        <ele>53.025585</ele>
        <time>2021-08-20T13:06:09.831Z</time>
      </trkpt>
      <trkpt lat="41.97329" lon="33.92561">
        <ele>55.678496</ele>
        <time>2021-08-20T13:06:40.067Z</time>
      </trkpt>
      <trkpt lat="41.97299" lon="33.9252">
        <ele>58.233021</ele>
        <time>2021-08-20T13:07:08.412Z</time>
      </trkpt>
      <trkpt lat="41.97265" lon="33.92499">
        <ele>60.467689</ele>
        <time>2021-08-20T13:07:32.538Z</time>
      </trkpt>
      <trkpt lat="41.97261" lon="33.92498">
        <ele>60.72047</ele>
        <time>2021-08-20T13:07:36.871Z</time>
      </trkpt>
      <trkpt lat="41.97219" lon="33.92491">
        <ele>63.094119</ele>
        <time>2021-08-20T13:08:03.035Z</time>
      </trkpt>
      <trkpt lat="41.97186" lon="33.92458">
        <ele>64.581198</ele>
        <time>2021-08-20T13:08:27.005Z</time>
      </trkpt>
      <trkpt lat="41.97155" lon="33.92416">
        <ele>66.172412</ele>
        <time>2021-08-20T13:08:51.556Z</time>
      </trkpt>
      <trkpt lat="41.97136" lon="33.92367">
        <ele>67.658273</ele>
        <time>2021-08-20T13:09:13.583Z</time>
      </trkpt>
      <trkpt lat="41.97129" lon="33.92239">
        <ele>69.496965</ele>
        <time>2021-08-20T13:09:49.494Z</time>
      </trkpt>
      <trkpt lat="41.97121" lon="33.92183">
        <ele>69.602608</ele>
        <time>2021-08-20T13:10:03.509Z</time>
      </trkpt>
      <trkpt lat="41.97134" lon="33.92135">
        <ele>69.69725</ele>
        <time>2021-08-20T13:10:15.021Z</time>
      </trkpt>
      <trkpt lat="41.97163" lon="33.92094">
        <ele>69.802089</ele>
        <time>2021-08-20T13:10:27.268Z</time>
      </trkpt>
      <trkpt lat="41.97185" lon="33.92035">
        <ele>69.149664</ele>
        <time>2021-08-20T13:10:41.014Z</time>
      </trkpt>
      <trkpt lat="41.97198" lon="33.91908">
        <ele>67.51959</ele>
        <time>2021-08-20T13:11:05.089Z</time>
      </trkpt>
      <trkpt lat="41.97209" lon="33.9185">
        <ele>66.758488</ele>
        <time>2021-08-20T13:11:15.936Z</time>
      </trkpt>
      <trkpt lat="41.9721" lon="33.9183">
        <ele>66.26422</ele>
        <time>2021-08-20T13:11:19.390Z</time>
      </trkpt>
      <trkpt lat="41.97231" lon="33.91411">
        <ele>55.268528</ele>
        <time>2021-08-20T13:12:29.643Z</time>
      </trkpt>
      <trkpt lat="41.97273" lon="33.91282">
        <ele>50.541446</ele>
        <time>2021-08-20T13:12:52.230Z</time>
      </trkpt>
      <trkpt lat="41.9728" lon="33.91218">
        <ele>48.200229</ele>
        <time>2021-08-20T13:13:02.647Z</time>
      </trkpt>
      <trkpt lat="41.97292" lon="33.91163">
        <ele>46.125728</ele>
        <time>2021-08-20T13:13:11.535Z</time>
      </trkpt>
      <trkpt lat="41.97309" lon="33.91113">
        <ele>44.476485</ele>
        <time>2021-08-20T13:13:19.933Z</time>
      </trkpt>
      <trkpt lat="41.97299" lon="33.91059">
        <ele>43.067153</ele>
        <time>2021-08-20T13:13:28.463Z</time>
      </trkpt>
      <trkpt lat="41.97288" lon="33.91031">
        <ele>42.28043</ele>
        <time>2021-08-20T13:13:33.860Z</time>
      </trkpt>
      <trkpt lat="41.97279" lon="33.91007">
        <ele>41.584466</ele>
        <time>2021-08-20T13:13:38.314Z</time>
      </trkpt>
      <trkpt lat="41.97271" lon="33.90986">
        <ele>40.993748</ele>
        <time>2021-08-20T13:13:42.820Z</time>
      </trkpt>
      <trkpt lat="41.97272" lon="33.90951">
        <ele>40.112271</ele>
        <time>2021-08-20T13:13:49.121Z</time>
      </trkpt>
      <trkpt lat="41.97283" lon="33.90898">
        <ele>39.307764</ele>
        <time>2021-08-20T13:14:00.592Z</time>
      </trkpt>
      <trkpt lat="41.97284" lon="33.90873">
        <ele>39.558251</ele>
        <time>2021-08-20T13:14:05.294Z</time>
      </trkpt>
      <trkpt lat="41.97284" lon="33.90848">
        <ele>39.803359</ele>
        <time>2021-08-20T13:14:12.854Z</time>
      </trkpt>
      <trkpt lat="41.97276" lon="33.90774">
        <ele>40.528569</ele>
        <time>2021-08-20T13:14:31.765Z</time>
      </trkpt>
      <trkpt lat="41.97231" lon="33.90637">
        <ele>41.707897</ele>
        <time>2021-08-20T13:15:28.334Z</time>
      </trkpt>
      <trkpt lat="41.97214" lon="33.90572">
        <ele>41.987982</ele>
        <time>2021-08-20T13:15:49.605Z</time>
      </trkpt>
      <trkpt lat="41.97136" lon="33.9007">
        <ele>44.37878</ele>
        <time>2021-08-20T13:17:45.383Z</time>
      </trkpt>
      <trkpt lat="41.97114" lon="33.89701">
        <ele>49.592314</ele>
        <time>2021-08-20T13:19:47.384Z</time>
      </trkpt>
      <trkpt lat="41.97105" lon="33.89635">
        <ele>50.446916</ele>
        <time>2021-08-20T13:20:10.858Z</time>
      </trkpt>
      <trkpt lat="41.97107" lon="33.89439">
        <ele>51.278238</ele>
        <time>2021-08-20T13:21:06.721Z</time>
      </trkpt>
      <trkpt lat="41.97117" lon="33.89316">
        <ele>49.116859</ele>
        <time>2021-08-20T13:21:29.278Z</time>
      </trkpt>
      <trkpt lat="41.97169" lon="33.8906">
        <ele>38.418505</ele>
        <time>2021-08-20T13:22:09.785Z</time>
      </trkpt>
      <trkpt lat="41.97187" lon="33.89005">
        <ele>35.41599</ele>
        <time>2021-08-20T13:22:18.594Z</time>
      </trkpt>
      <trkpt lat="41.97209" lon="33.8896">
        <ele>32.455244</ele>
        <time>2021-08-20T13:22:26.528Z</time>
      </trkpt>
      <trkpt lat="41.9728" lon="33.88861">
        <ele>24.922994</ele>
        <time>2021-08-20T13:22:46.730Z</time>
      </trkpt>
      <trkpt lat="41.97349" lon="33.88726">
        <ele>17.8833</ele>
        <time>2021-08-20T13:23:11.509Z</time>
      </trkpt>
      <trkpt lat="41.97354" lon="33.88717">
        <ele>17.457541</ele>
        <time>2021-08-20T13:23:13.181Z</time>
      </trkpt>
      <trkpt lat="41.97366" lon="33.88694">
        <ele>16.328564</ele>
        <time>2021-08-20T13:23:17.472Z</time>
      </trkpt>
      <trkpt lat="41.97398" lon="33.88626">
        <ele>13.691029</ele>
        <time>2021-08-20T13:23:30.721Z</time>
      </trkpt>
      <trkpt lat="41.97407" lon="33.88595">
        <ele>14.102571</ele>
        <time>2021-08-20T13:23:36.745Z</time>
      </trkpt>
      <trkpt lat="41.97403" lon="33.88521">
        <ele>15.022407</ele>
        <time>2021-08-20T13:23:55.011Z</time>
      </trkpt>
      <trkpt lat="41.97397" lon="33.88477">
        <ele>15.575519</ele>
        <time>2021-08-20T13:24:11.680Z</time>
      </trkpt>
      <trkpt lat="41.97385" lon="33.88391">
        <ele>17.065492</ele>
        <time>2021-08-20T13:24:48.694Z</time>
      </trkpt>
      <trkpt lat="41.97376" lon="33.88364">
        <ele>18.668266</ele>
        <time>2021-08-20T13:25:03.281Z</time>
      </trkpt>
      <trkpt lat="41.97369" lon="33.88342">
        <ele>20.007917</ele>
        <time>2021-08-20T13:25:16.669Z</time>
      </trkpt>
      <trkpt lat="41.97315" lon="33.88203">
        <ele>28.604346</ele>
        <time>2021-08-20T13:26:45.679Z</time>
      </trkpt>
      <trkpt lat="41.97311" lon="33.88187">
        <ele>29.55931</ele>
        <time>2021-08-20T13:26:56.909Z</time>
      </trkpt>
      <trkpt lat="41.973" lon="33.88129">
        <ele>33.026667</ele>
        <time>2021-08-20T13:27:29.145Z</time>
      </trkpt>
      <trkpt lat="41.97303" lon="33.88005">
        <ele>40.246609</ele>
        <time>2021-08-20T13:28:37.515Z</time>
      </trkpt>
      <trkpt lat="41.97278" lon="33.87919">
        <ele>45.653102</ele>
        <time>2021-08-20T13:29:29.427Z</time>
      </trkpt>
      <trkpt lat="41.97276" lon="33.87821">
        <ele>51.507515</ele>
        <time>2021-08-20T13:30:26.155Z</time>
      </trkpt>
      <trkpt lat="41.9725" lon="33.87685">
        <ele>59.475215</ele>
        <time>2021-08-20T13:31:46.272Z</time>
      </trkpt>
      <trkpt lat="41.97254" lon="33.87618">
        <ele>62.386995</ele>
        <time>2021-08-20T13:32:21.212Z</time>
      </trkpt>
      <trkpt lat="41.97274" lon="33.87474">
        <ele>68.732974</ele>
        <time>2021-08-20T13:33:26.360Z</time>
      </trkpt>
      <trkpt lat="41.97271" lon="33.87412">
        <ele>70.00859</ele>
        <time>2021-08-20T13:33:50.322Z</time>
      </trkpt>
      <trkpt lat="41.9726" lon="33.87359">
        <ele>71.082091</ele>
        <time>2021-08-20T13:34:10.077Z</time>
      </trkpt>
      <trkpt lat="41.97263" lon="33.873">
        <ele>72.235801</ele>
        <time>2021-08-20T13:34:29.032Z</time>
      </trkpt>
      <trkpt lat="41.97292" lon="33.87169">
        <ele>74.157221</ele>
        <time>2021-08-20T13:35:07.843Z</time>
      </trkpt>
      <trkpt lat="41.97295" lon="33.87109">
        <ele>74.669987</ele>
        <time>2021-08-20T13:35:24.662Z</time>
      </trkpt>
      <trkpt lat="41.97291" lon="33.87032">
        <ele>75.330513</ele>
        <time>2021-08-20T13:35:46.889Z</time>
      </trkpt>
      <trkpt lat="41.97331" lon="33.86836">
        <ele>75.951739</ele>
        <time>2021-08-20T13:36:40.249Z</time>
      </trkpt>
      <trkpt lat="41.97333" lon="33.8681">
        <ele>76.00036</ele>
        <time>2021-08-20T13:36:46.052Z</time>
      </trkpt>
      <trkpt lat="41.97322" lon="33.86756">
        <ele>76.004041</ele>
        <time>2021-08-20T13:36:57.638Z</time>
      </trkpt>
      <trkpt lat="41.97316" lon="33.867">
        <ele>75.364531</ele>
        <time>2021-08-20T13:37:08.533Z</time>
      </trkpt>
      <trkpt lat="41.9732" lon="33.86672">
        <ele>75.046171</ele>
        <time>2021-08-20T13:37:13.686Z</time>
      </trkpt>
      <trkpt lat="41.97341" lon="33.86624">
        <ele>74.413945</ele>
        <time>2021-08-20T13:37:23.835Z</time>
      </trkpt>
      <trkpt lat="41.97347" lon="33.86599">
        <ele>74.110942</ele>
        <time>2021-08-20T13:37:28.667Z</time>
      </trkpt>
      <trkpt lat="41.97338" lon="33.86553">
        <ele>73.567488</ele>
        <time>2021-08-20T13:37:37.805Z</time>
      </trkpt>
      <trkpt lat="41.97337" lon="33.86528">
        <ele>73.324956</ele>
        <time>2021-08-20T13:37:42.612Z</time>
      </trkpt>
      <trkpt lat="41.97349" lon="33.86505">
        <ele>73.204767</ele>
        <time>2021-08-20T13:37:48.100Z</time>
      </trkpt>
      <trkpt lat="41.97372" lon="33.86482">
        <ele>73.042976</ele>
        <time>2021-08-20T13:37:55.800Z</time>
      </trkpt>
      <trkpt lat="41.9739" lon="33.86439">
        <ele>72.838397</ele>
        <time>2021-08-20T13:38:06.272Z</time>
      </trkpt>
      <trkpt lat="41.97401" lon="33.86381">
        <ele>72.588042</ele>
        <time>2021-08-20T13:38:20.616Z</time>
      </trkpt>
      <trkpt lat="41.97402" lon="33.86338">
        <ele>72.406814</ele>
        <time>2021-08-20T13:38:30.689Z</time>
      </trkpt>
      <trkpt lat="41.97387" lon="33.8626">
        <ele>71.537088</ele>
        <time>2021-08-20T13:38:48.363Z</time>
      </trkpt>
      <trkpt lat="41.97365" lon="33.86189">
        <ele>70.561231</ele>
        <time>2021-08-20T13:39:03.111Z</time>
      </trkpt>
      <trkpt lat="41.97291" lon="33.86104">
        <ele>68.702863</ele>
        <time>2021-08-20T13:39:25.909Z</time>
      </trkpt>
      <trkpt lat="41.97279" lon="33.86066">
        <ele>67.908171</ele>
        <time>2021-08-20T13:39:32.870Z</time>
      </trkpt>
      <trkpt lat="41.97279" lon="33.86011">
        <ele>66.851244</ele>
        <time>2021-08-20T13:39:42.168Z</time>
      </trkpt>
      <trkpt lat="41.97287" lon="33.85963">
        <ele>65.909292</ele>
        <time>2021-08-20T13:39:50.675Z</time>
      </trkpt>
      <trkpt lat="41.9732" lon="33.85889">
        <ele>64.515923</ele>
        <time>2021-08-20T13:40:06.596Z</time>
      </trkpt>
      <trkpt lat="41.97337" lon="33.85822">
        <ele>64.21621</ele>
        <time>2021-08-20T13:40:21.314Z</time>
      </trkpt>
      <trkpt lat="41.97337" lon="33.85768">
        <ele>63.989885</ele>
        <time>2021-08-20T13:40:33.691Z</time>
      </trkpt>
      <trkpt lat="41.9735" lon="33.85706">
        <ele>63.7188</ele>
        <time>2021-08-20T13:40:49.423Z</time>
      </trkpt>
      <trkpt lat="41.97434" lon="33.85518">
        <ele>61.358332</ele>
        <time>2021-08-20T13:41:35.916Z</time>
      </trkpt>
      <trkpt lat="41.97429" lon="33.8546">
        <ele>60.544694</ele>
        <time>2021-08-20T13:41:45.768Z</time>
      </trkpt>
      <trkpt lat="41.9739" lon="33.85388">
        <ele>54.704371</ele>
        <time>2021-08-20T13:41:59.436Z</time>
      </trkpt>
      <trkpt lat="41.97385" lon="33.85352">
        <ele>52.311708</ele>
        <time>2021-08-20T13:42:04.803Z</time>
      </trkpt>
      <trkpt lat="41.97398" lon="33.85133">
        <ele>39.255821</ele>
        <time>2021-08-20T13:42:35.152Z</time>
      </trkpt>
      <trkpt lat="41.97398" lon="33.85109">
        <ele>38.010708</ele>
        <time>2021-08-20T13:42:38.560Z</time>
      </trkpt>
      <trkpt lat="41.97397" lon="33.85089">
        <ele>36.953979</ele>
        <time>2021-08-20T13:42:41.857Z</time>
      </trkpt>
      <trkpt lat="41.97396" lon="33.85036">
        <ele>34.155137</ele>
        <time>2021-08-20T13:42:50.663Z</time>
      </trkpt>
      <trkpt lat="41.97393" lon="33.84887">
        <ele>36.234088</ele>
        <time>2021-08-20T13:43:34.134Z</time>
      </trkpt>
      <trkpt lat="41.97358" lon="33.84769">
        <ele>41.058261</ele>
        <time>2021-08-20T13:44:58.087Z</time>
      </trkpt>
      <trkpt lat="41.97299" lon="33.84536">
        <ele>48.145531</ele>
        <time>2021-08-20T13:46:35.348Z</time>
      </trkpt>
      <trkpt lat="41.97291" lon="33.8448">
        <ele>46.69677</ele>
        <time>2021-08-20T13:46:46.670Z</time>
      </trkpt>
      <trkpt lat="41.97297" lon="33.84106">
        <ele>34.717701</ele>
        <time>2021-08-20T13:47:45.032Z</time>
      </trkpt>
      <trkpt lat="41.97297" lon="33.84092">
        <ele>34.190919</ele>
        <time>2021-08-20T13:47:47.038Z</time>
      </trkpt>
      <trkpt lat="41.97299" lon="33.84038">
        <ele>32.904865</ele>
        <time>2021-08-20T13:47:55.351Z</time>
      </trkpt>
      <trkpt lat="41.97304" lon="33.83865">
        <ele>35.480188</ele>
        <time>2021-08-20T13:48:40.809Z</time>
      </trkpt>
      <trkpt lat="41.97303" lon="33.83858">
        <ele>35.57898</ele>
        <time>2021-08-20T13:48:43.717Z</time>
      </trkpt>
      <trkpt lat="41.97295" lon="33.83756">
        <ele>40.032606</ele>
        <time>2021-08-20T13:49:49.342Z</time>
      </trkpt>
      <trkpt lat="41.97298" lon="33.83667">
        <ele>46.125608</ele>
        <time>2021-08-20T13:50:50.023Z</time>
      </trkpt>
      <trkpt lat="41.97295" lon="33.83631">
        <ele>48.603081</ele>
        <time>2021-08-20T13:51:15.048Z</time>
      </trkpt>
      <trkpt lat="41.97286" lon="33.83605">
        <ele>50.564523</ele>
        <time>2021-08-20T13:51:34.494Z</time>
      </trkpt>
      <trkpt lat="41.97273" lon="33.83586">
        <ele>52.330473</ele>
        <time>2021-08-20T13:51:48.934Z</time>
      </trkpt>
      <trkpt lat="41.97257" lon="33.83556">
        <ele>53.40225</ele>
        <time>2021-08-20T13:52:07.661Z</time>
      </trkpt>
      <trkpt lat="41.97235" lon="33.83475">
        <ele>54.986214</ele>
        <time>2021-08-20T13:52:42.907Z</time>
      </trkpt>
      <trkpt lat="41.97212" lon="33.8341">
        <ele>56.339508</ele>
        <time>2021-08-20T13:53:04.284Z</time>
      </trkpt>
      <trkpt lat="41.97167" lon="33.83218">
        <ele>53.985753</ele>
        <time>2021-08-20T13:53:39.285Z</time>
      </trkpt>
      <trkpt lat="41.97163" lon="33.8317">
        <ele>52.880392</ele>
        <time>2021-08-20T13:53:47.180Z</time>
      </trkpt>
      <trkpt lat="41.9717" lon="33.83124">
        <ele>51.803281</ele>
        <time>2021-08-20T13:53:54.843Z</time>
      </trkpt>
      <trkpt lat="41.97183" lon="33.83078">
        <ele>50.766446</ele>
        <time>2021-08-20T13:54:02.926Z</time>
      </trkpt>
      <trkpt lat="41.97187" lon="33.83035">
        <ele>49.85047</ele>
        <time>2021-08-20T13:54:10.196Z</time>
      </trkpt>
      <trkpt lat="41.97215" lon="33.82927">
        <ele>47.442981</ele>
        <time>2021-08-20T13:54:30.247Z</time>
      </trkpt>
      <trkpt lat="41.9722" lon="33.82877">
        <ele>46.620234</ele>
        <time>2021-08-20T13:54:39.896Z</time>
      </trkpt>
      <trkpt lat="41.97234" lon="33.82827">
        <ele>46.29622</ele>
        <time>2021-08-20T13:54:50.530Z</time>
      </trkpt>
      <trkpt lat="41.97279" lon="33.82725">
        <ele>45.576939</ele>
        <time>2021-08-20T13:55:15.454Z</time>
      </trkpt>
      <trkpt lat="41.973" lon="33.82611">
        <ele>45.888188</ele>
        <time>2021-08-20T13:55:41.482Z</time>
      </trkpt>
      <trkpt lat="41.9734" lon="33.82508">
        <ele>47.056002</ele>
        <time>2021-08-20T13:56:12.647Z</time>
      </trkpt>
      <trkpt lat="41.9736" lon="33.82409">
        <ele>49.162691</ele>
        <time>2021-08-20T13:56:50.480Z</time>
      </trkpt>
      <trkpt lat="41.97373" lon="33.82223">
        <ele>56.016723</ele>
        <time>2021-08-20T13:58:18.091Z</time>
      </trkpt>
      <trkpt lat="41.97367" lon="33.82165">
        <ele>57.227347</ele>
        <time>2021-08-20T13:58:44.585Z</time>
      </trkpt>
      <trkpt lat="41.97368" lon="33.82107">
        <ele>58.114524</ele>
        <time>2021-08-20T13:59:07.286Z</time>
      </trkpt>
      <trkpt lat="41.97376" lon="33.82052">
        <ele>58.971532</ele>
        <time>2021-08-20T13:59:25.668Z</time>
      </trkpt>
      <trkpt lat="41.97392" lon="33.8179">
        <ele>57.985058</ele>
        <time>2021-08-20T14:00:17.244Z</time>
      </trkpt>
      <trkpt lat="41.97398" lon="33.81724">
        <ele>57.096919</ele>
        <time>2021-08-20T14:00:28.914Z</time>
      </trkpt>
      <trkpt lat="41.97433" lon="33.8151">
        <ele>51.5062</ele>
        <time>2021-08-20T14:01:05.461Z</time>
      </trkpt>
      <trkpt lat="41.9746" lon="33.81381">
        <ele>49.134777</ele>
        <time>2021-08-20T14:01:27.927Z</time>
      </trkpt>
      <trkpt lat="41.97482" lon="33.81336">
        <ele>48.253106</ele>
        <time>2021-08-20T14:01:37.470Z</time>
      </trkpt>
      <trkpt lat="41.97546" lon="33.81274">
        <ele>48.158226</ele>
        <time>2021-08-20T14:01:59.068Z</time>
      </trkpt>
      <trkpt lat="41.97557" lon="33.81227">
        <ele>49.832429</ele>
        <time>2021-08-20T14:02:15.183Z</time>
      </trkpt>
      <trkpt lat="41.97525" lon="33.81119">
        <ele>53.782701</ele>
        <time>2021-08-20T14:03:10.158Z</time>
      </trkpt>
      <trkpt lat="41.97521" lon="33.81058">
        <ele>56.392009</ele>
        <time>2021-08-20T14:03:45.555Z</time>
      </trkpt>
      <trkpt lat="41.97523" lon="33.80999">
        <ele>60.188555</ele>
        <time>2021-08-20T14:04:22.106Z</time>
      </trkpt>
      <trkpt lat="41.97531" lon="33.80946">
        <ele>63.664983</ele>
        <time>2021-08-20T14:04:56.422Z</time>
      </trkpt>
      <trkpt lat="41.97522" lon="33.809">
        <ele>66.722612</ele>
        <time>2021-08-20T14:05:27.154Z</time>
      </trkpt>
      <trkpt lat="41.97487" lon="33.8087">
        <ele>70.311118</ele>
        <time>2021-08-20T14:06:01.526Z</time>
      </trkpt>
      <trkpt lat="41.97396" lon="33.80827">
        <ele>73.97051</ele>
        <time>2021-08-20T14:07:02.439Z</time>
      </trkpt>
      <trkpt lat="41.97364" lon="33.80792">
        <ele>75.404515</ele>
        <time>2021-08-20T14:07:19.380Z</time>
      </trkpt>
      <trkpt lat="41.97346" lon="33.80745">
        <ele>76.771134</ele>
        <time>2021-08-20T14:07:31.749Z</time>
      </trkpt>
      <trkpt lat="41.97345" lon="33.80694">
        <ele>76.485556</ele>
        <time>2021-08-20T14:07:42.201Z</time>
      </trkpt>
      <trkpt lat="41.97351" lon="33.80636">
        <ele>75.603166</ele>
        <time>2021-08-20T14:07:53.111Z</time>
      </trkpt>
      <trkpt lat="41.97368" lon="33.80587">
        <ele>74.788374</ele>
        <time>2021-08-20T14:08:02.659Z</time>
      </trkpt>
      <trkpt lat="41.97438" lon="33.80489">
        <ele>72.304996</ele>
        <time>2021-08-20T14:08:26.128Z</time>
      </trkpt>
      <trkpt lat="41.97465" lon="33.80433">
        <ele>70.66466</ele>
        <time>2021-08-20T14:08:38.196Z</time>
      </trkpt>
      <trkpt lat="41.9747" lon="33.80369">
        <ele>69.083142</ele>
        <time>2021-08-20T14:08:48.903Z</time>
      </trkpt>
      <trkpt lat="41.97459" lon="33.80298">
        <ele>67.332595</ele>
        <time>2021-08-20T14:09:00.422Z</time>
      </trkpt>
      <trkpt lat="41.97454" lon="33.80227">
        <ele>65.882561</ele>
        <time>2021-08-20T14:09:12.636Z</time>
      </trkpt>
      <trkpt lat="41.97456" lon="33.80213">
        <ele>65.58692</ele>
        <time>2021-08-20T14:09:14.767Z</time>
      </trkpt>
      <trkpt lat="41.97461" lon="33.8016">
        <ele>64.497605</ele>
        <time>2021-08-20T14:09:24.126Z</time>
      </trkpt>
      <trkpt lat="41.97507" lon="33.80024">
        <ele>62.985369</ele>
        <time>2021-08-20T14:09:52.619Z</time>
      </trkpt>
      <trkpt lat="41.97513" lon="33.79954">
        <ele>63.531789</ele>
        <time>2021-08-20T14:10:14.339Z</time>
      </trkpt>
      <trkpt lat="41.97471" lon="33.79767">
        <ele>66.03432</ele>
        <time>2021-08-20T14:11:16.018Z</time>
      </trkpt>
      <trkpt lat="41.97466" lon="33.79706">
        <ele>67.287864</ele>
        <time>2021-08-20T14:11:35.256Z</time>
      </trkpt>
      <trkpt lat="41.97469" lon="33.79587">
        <ele>69.987092</ele>
        <time>2021-08-20T14:12:19.857Z</time>
      </trkpt>
      <trkpt lat="41.97459" lon="33.79535">
        <ele>71.95649</ele>
        <time>2021-08-20T14:12:43.166Z</time>
      </trkpt>
      <trkpt lat="41.97438" lon="33.79495">
        <ele>73.751975</ele>
        <time>2021-08-20T14:13:06.002Z</time>
      </trkpt>
      <trkpt lat="41.9737" lon="33.79448">
        <ele>77.522569</ele>
        <time>2021-08-20T14:13:55.117Z</time>
      </trkpt>
      <trkpt lat="41.97341" lon="33.79418">
        <ele>78.020633</ele>
        <time>2021-08-20T14:14:16.096Z</time>
      </trkpt>
      <trkpt lat="41.97319" lon="33.79378">
        <ele>77.622091</ele>
        <time>2021-08-20T14:14:33.812Z</time>
      </trkpt>
      <trkpt lat="41.97292" lon="33.79349">
        <ele>77.24983</ele>
        <time>2021-08-20T14:14:45.612Z</time>
      </trkpt>
      <trkpt lat="41.97274" lon="33.79303">
        <ele>76.833451</ele>
        <time>2021-08-20T14:14:54.841Z</time>
      </trkpt>
      <trkpt lat="41.9726" lon="33.79249">
        <ele>76.375365</ele>
        <time>2021-08-20T14:15:03.668Z</time>
      </trkpt>
      <trkpt lat="41.97234" lon="33.79201">
        <ele>72.340843</ele>
        <time>2021-08-20T14:15:12.285Z</time>
      </trkpt>
      <trkpt lat="41.97225" lon="33.79144">
        <ele>67.893767</ele>
        <time>2021-08-20T14:15:20.471Z</time>
      </trkpt>
      <trkpt lat="41.97229" lon="33.79089">
        <ele>63.676307</ele>
        <time>2021-08-20T14:15:28.145Z</time>
      </trkpt>
      <trkpt lat="41.97259" lon="33.78968">
        <ele>54.74584</ele>
        <time>2021-08-20T14:15:45.869Z</time>
      </trkpt>
      <trkpt lat="41.97279" lon="33.78826">
        <ele>45.982454</ele>
        <time>2021-08-20T14:16:06.867Z</time>
      </trkpt>
      <trkpt lat="41.97289" lon="33.78531">
        <ele>36.546385</ele>
        <time>2021-08-20T14:16:56.095Z</time>
      </trkpt>
      <trkpt lat="41.97276" lon="33.78337">
        <ele>33.337174</ele>
        <time>2021-08-20T14:17:32.784Z</time>
      </trkpt>
      <trkpt lat="41.97281" lon="33.78171">
        <ele>29.29089</ele>
        <time>2021-08-20T14:18:01.657Z</time>
      </trkpt>
      <trkpt lat="41.97287" lon="33.78121">
        <ele>27.931205</ele>
        <time>2021-08-20T14:18:09.868Z</time>
      </trkpt>
      <trkpt lat="41.97304" lon="33.78077">
        <ele>26.599986</ele>
        <time>2021-08-20T14:18:17.775Z</time>
      </trkpt>
      <trkpt lat="41.97356" lon="33.77988">
        <ele>23.217178</ele>
        <time>2021-08-20T14:18:35.593Z</time>
      </trkpt>
      <trkpt lat="41.97421" lon="33.77895">
        <ele>19.34122</ele>
        <time>2021-08-20T14:18:56.403Z</time>
      </trkpt>
      <trkpt lat="41.9744" lon="33.77843">
        <ele>18.541323</ele>
        <time>2021-08-20T14:19:06.663Z</time>
      </trkpt>
      <trkpt lat="41.97448" lon="33.77793">
        <ele>18.174066</ele>
        <time>2021-08-20T14:19:16.468Z</time>
      </trkpt>
      <trkpt lat="41.97446" lon="33.77687">
        <ele>17.412664</ele>
        <time>2021-08-20T14:19:39.734Z</time>
      </trkpt>
      <trkpt lat="41.9745" lon="33.7763">
        <ele>17.156028</ele>
        <time>2021-08-20T14:19:54.575Z</time>
      </trkpt>
      <trkpt lat="41.97498" lon="33.77371">
        <ele>18.280849</ele>
        <time>2021-08-20T14:21:02.674Z</time>
      </trkpt>
      <trkpt lat="41.97506" lon="33.77334">
        <ele>18.507379</ele>
        <time>2021-08-20T14:21:12.769Z</time>
      </trkpt>
      <trkpt lat="41.97521" lon="33.77283">
        <ele>18.825446</ele>
        <time>2021-08-20T14:21:27.174Z</time>
      </trkpt>
      <trkpt lat="41.97531" lon="33.77231">
        <ele>19.14012</ele>
        <time>2021-08-20T14:21:41.679Z</time>
      </trkpt>
      <trkpt lat="41.97544" lon="33.7717">
        <ele>19.505482</ele>
        <time>2021-08-20T14:21:58.206Z</time>
      </trkpt>
      <trkpt lat="41.9755" lon="33.77052">
        <ele>20.172392</ele>
        <time>2021-08-20T14:22:31.696Z</time>
      </trkpt>
      <trkpt lat="41.97557" lon="33.77021">
        <ele>20.360222</ele>
        <time>2021-08-20T14:22:40.749Z</time>
      </trkpt>
      <trkpt lat="41.97608" lon="33.76924">
        <ele>20.732921</ele>
        <time>2021-08-20T14:23:09.515Z</time>
      </trkpt>
      <trkpt lat="41.97705" lon="33.76688">
        <ele>20.007378</ele>
        <time>2021-08-20T14:24:06.860Z</time>
      </trkpt>
      <trkpt lat="41.97816" lon="33.76582">
        <ele>19.612371</ele>
        <time>2021-08-20T14:24:46.150Z</time>
      </trkpt>
      <trkpt lat="41.97982" lon="33.76455">
        <ele>21.689356</ele>
        <time>2021-08-20T14:25:58.386Z</time>
      </trkpt>
      <trkpt lat="41.97996" lon="33.76439">
        <ele>21.751266</ele>
        <time>2021-08-20T14:26:09.162Z</time>
      </trkpt>
      <trkpt lat="41.98005" lon="33.76428">
        <ele>21.793021</ele>
        <time>2021-08-20T14:26:13.491Z</time>
      </trkpt>
      <trkpt lat="41.98009" lon="33.76422">
        <ele>21.810781</ele>
        <time>2021-08-20T14:26:15.343Z</time>
      </trkpt>
      <trkpt lat="41.9801" lon="33.76414">
        <ele>21.832086</ele>
        <time>2021-08-20T14:26:21.944Z</time>
      </trkpt>
      <trkpt lat="41.97964" lon="33.76189">
        <ele>20.053285</ele>
        <time>2021-08-20T14:27:10.292Z</time>
      </trkpt>
      <trkpt lat="41.97954" lon="33.76131">
        <ele>18.113447</ele>
        <time>2021-08-20T14:27:19.619Z</time>
      </trkpt>
      <trkpt lat="41.97952" lon="33.76116">
        <ele>17.609033</ele>
        <time>2021-08-20T14:27:21.789Z</time>
      </trkpt>
      <trkpt lat="41.97943" lon="33.76025">
        <ele>14.6428</ele>
        <time>2021-08-20T14:27:35.858Z</time>
      </trkpt>
      <trkpt lat="41.97943" lon="33.76023">
        <ele>14.557927</ele>
        <time>2021-08-20T14:27:36.201Z</time>
      </trkpt>
      <trkpt lat="41.97941" lon="33.75991">
        <ele>14.198975</ele>
        <time>2021-08-20T14:27:41.231Z</time>
      </trkpt>
      <trkpt lat="41.97935" lon="33.7593">
        <ele>13.765155</ele>
        <time>2021-08-20T14:27:51.443Z</time>
      </trkpt>
      <trkpt lat="41.97933" lon="33.7592">
        <ele>13.692699</ele>
        <time>2021-08-20T14:27:53.051Z</time>
      </trkpt>
      <trkpt lat="41.97932" lon="33.75912">
        <ele>13.629767</ele>
        <time>2021-08-20T14:27:54.904Z</time>
      </trkpt>
      <trkpt lat="41.97924" lon="33.75866">
        <ele>13.297757</ele>
        <time>2021-08-20T14:28:06.199Z</time>
      </trkpt>
      <trkpt lat="41.97918" lon="33.7584">
        <ele>13.107783</ele>
        <time>2021-08-20T14:28:13.838Z</time>
      </trkpt>
      <trkpt lat="41.97916" lon="33.75833">
        <ele>13.05159</ele>
        <time>2021-08-20T14:28:15.418Z</time>
      </trkpt>
      <trkpt lat="41.97914" lon="33.75827">
        <ele>13.008947</ele>
        <time>2021-08-20T14:28:17.681Z</time>
      </trkpt>
      <trkpt lat="41.97906" lon="33.75798">
        <ele>12.787479</ele>
        <time>2021-08-20T14:28:26.904Z</time>
      </trkpt>
      <trkpt lat="41.97901" lon="33.75785">
        <ele>12.685943</ele>
        <time>2021-08-20T14:28:34.297Z</time>
      </trkpt>
      <trkpt lat="41.97793" lon="33.7559">
        <ele>19.588633</ele>
        <time>2021-08-20T14:30:15.327Z</time>
      </trkpt>
      <trkpt lat="41.9777" lon="33.75525">
        <ele>20.008622</ele>
        <time>2021-08-20T14:30:38.247Z</time>
      </trkpt>
      <trkpt lat="41.97737" lon="33.75399">
        <ele>20.756287</ele>
        <time>2021-08-20T14:31:09.650Z</time>
      </trkpt>
      <trkpt lat="41.97713" lon="33.7527">
        <ele>20.632756</ele>
        <time>2021-08-20T14:31:36.377Z</time>
      </trkpt>
      <trkpt lat="41.97707" lon="33.7522">
        <ele>20.456403</ele>
        <time>2021-08-20T14:31:46.952Z</time>
      </trkpt>
      <trkpt lat="41.97697" lon="33.75142">
        <ele>20.183205</ele>
        <time>2021-08-20T14:32:04.437Z</time>
      </trkpt>
      <trkpt lat="41.97689" lon="33.74981">
        <ele>20.930238</ele>
        <time>2021-08-20T14:32:46.338Z</time>
      </trkpt>
      <trkpt lat="41.97688" lon="33.74791">
        <ele>22.226209</ele>
        <time>2021-08-20T14:33:39.077Z</time>
      </trkpt>
      <trkpt lat="41.97694" lon="33.74574">
        <ele>23.839047</ele>
        <time>2021-08-20T14:34:39.381Z</time>
      </trkpt>
      <trkpt lat="41.97699" lon="33.74459">
        <ele>24.529043</ele>
        <time>2021-08-20T14:35:10.953Z</time>
      </trkpt>
      <trkpt lat="41.97715" lon="33.74137">
        <ele>24.600333</ele>
        <time>2021-08-20T14:36:26.770Z</time>
      </trkpt>
      <trkpt lat="41.97744" lon="33.73736">
        <ele>20.869286</ele>
        <time>2021-08-20T14:37:43.094Z</time>
      </trkpt>
      <trkpt lat="41.9774" lon="33.73493">
        <ele>20.684521</ele>
        <time>2021-08-20T14:38:43.301Z</time>
      </trkpt>
      <trkpt lat="41.97747" lon="33.73311">
        <ele>19.894286</ele>
        <time>2021-08-20T14:39:25.446Z</time>
      </trkpt>
      <trkpt lat="41.97768" lon="33.73096">
        <ele>17.216516</ele>
        <time>2021-08-20T14:40:05.360Z</time>
      </trkpt>
      <trkpt lat="41.97788" lon="33.72972">
        <ele>14.875427</ele>
        <time>2021-08-20T14:40:27.195Z</time>
      </trkpt>
      <trkpt lat="41.97795" lon="33.72929">
        <ele>14.336579</ele>
        <time>2021-08-20T14:40:34.803Z</time>
      </trkpt>
      <trkpt lat="41.97812" lon="33.72857">
        <ele>13.673125</ele>
        <time>2021-08-20T14:40:48.526Z</time>
      </trkpt>
      <trkpt lat="41.97836" lon="33.72714">
        <ele>12.608989</ele>
        <time>2021-08-20T14:41:19.852Z</time>
      </trkpt>
      <trkpt lat="41.9784" lon="33.72689">
        <ele>12.987802</ele>
        <time>2021-08-20T14:41:27.164Z</time>
      </trkpt>
      <trkpt lat="41.97842" lon="33.72538">
        <ele>15.248325</ele>
        <time>2021-08-20T14:42:13.676Z</time>
      </trkpt>
      <trkpt lat="41.9788" lon="33.72232">
        <ele>24.001714</ele>
        <time>2021-08-20T14:44:16.694Z</time>
      </trkpt>
      <trkpt lat="41.97905" lon="33.72109">
        <ele>28.900936</ele>
        <time>2021-08-20T14:45:21.211Z</time>
      </trkpt>
      <trkpt lat="41.97925" lon="33.71984">
        <ele>33.102035</ele>
        <time>2021-08-20T14:46:17.292Z</time>
      </trkpt>
      <trkpt lat="41.97974" lon="33.71676">
        <ele>37.767683</ele>
        <time>2021-08-20T14:47:37.884Z</time>
      </trkpt>
      <trkpt lat="41.97986" lon="33.71556">
        <ele>40.781511</ele>
        <time>2021-08-20T14:48:25.070Z</time>
      </trkpt>
      <trkpt lat="41.97988" lon="33.71477">
        <ele>46.158173</ele>
        <time>2021-08-20T14:49:08.994Z</time>
      </trkpt>
      <trkpt lat="41.97965" lon="33.71292">
        <ele>62.289078</ele>
        <time>2021-08-20T14:51:33.968Z</time>
      </trkpt>
      <trkpt lat="41.97956" lon="33.71276">
        <ele>64.314741</ele>
        <time>2021-08-20T14:51:51.145Z</time>
      </trkpt>
      <trkpt lat="41.97885" lon="33.71219">
        <ele>75.872151</ele>
        <time>2021-08-20T14:53:28.071Z</time>
      </trkpt>
      <trkpt lat="41.97845" lon="33.71174">
        <ele>83.157587</ele>
        <time>2021-08-20T14:54:26.160Z</time>
      </trkpt>
      <trkpt lat="41.97809" lon="33.71118">
        <ele>88.800496</ele>
        <time>2021-08-20T14:55:22.479Z</time>
      </trkpt>
      <trkpt lat="41.9779" lon="33.71066">
        <ele>91.481333</ele>
        <time>2021-08-20T14:55:58.660Z</time>
      </trkpt>
      <trkpt lat="41.97777" lon="33.70982">
        <ele>95.451179</ele>
        <time>2021-08-20T14:56:38.306Z</time>
      </trkpt>
      <trkpt lat="41.97778" lon="33.70926">
        <ele>98.042942</ele>
        <time>2021-08-20T14:56:55.066Z</time>
      </trkpt>
      <trkpt lat="41.9777" lon="33.70887">
        <ele>97.50206</ele>
        <time>2021-08-20T14:57:03.629Z</time>
      </trkpt>
      <trkpt lat="41.97732" lon="33.7083">
        <ele>95.579532</ele>
        <time>2021-08-20T14:57:16.736Z</time>
      </trkpt>
      <trkpt lat="41.97721" lon="33.70802">
        <ele>94.784298</ele>
        <time>2021-08-20T14:57:21.757Z</time>
      </trkpt>
      <trkpt lat="41.97726" lon="33.70761">
        <ele>93.741003</ele>
        <time>2021-08-20T14:57:28.139Z</time>
      </trkpt>
      <trkpt lat="41.97764" lon="33.70642">
        <ele>91.563804</ele>
        <time>2021-08-20T14:57:48.308Z</time>
      </trkpt>
      <trkpt lat="41.97791" lon="33.70596">
        <ele>90.977577</ele>
        <time>2021-08-20T14:57:58.550Z</time>
      </trkpt>
      <trkpt lat="41.97802" lon="33.7055">
        <ele>90.494259</ele>
        <time>2021-08-20T14:58:08.844Z</time>
      </trkpt>
      <trkpt lat="41.97805" lon="33.70487">
        <ele>89.86283</ele>
        <time>2021-08-20T14:58:28.191Z</time>
      </trkpt>
      <trkpt lat="41.97795" lon="33.70343">
        <ele>97.450029</ele>
        <time>2021-08-20T14:59:38.984Z</time>
      </trkpt>
      <trkpt lat="41.97775" lon="33.70267">
        <ele>101.705231</ele>
        <time>2021-08-20T15:00:30.575Z</time>
      </trkpt>
      <trkpt lat="41.97713" lon="33.70112">
        <ele>113.355371</ele>
        <time>2021-08-20T15:02:25.747Z</time>
      </trkpt>
      <trkpt lat="41.97715" lon="33.70069">
        <ele>116.270601</ele>
        <time>2021-08-20T15:02:51.497Z</time>
      </trkpt>
      <trkpt lat="41.97753" lon="33.69937">
        <ele>122.516725</ele>
        <time>2021-08-20T15:04:03.272Z</time>
      </trkpt>
      <trkpt lat="41.97775" lon="33.69816">
        <ele>126.847024</ele>
        <time>2021-08-20T15:04:50.356Z</time>
      </trkpt>
      <trkpt lat="41.9777" lon="33.69785">
        <ele>127.574527</ele>
        <time>2021-08-20T15:05:00.809Z</time>
      </trkpt>
      <trkpt lat="41.97738" lon="33.69678">
        <ele>128.811498</ele>
        <time>2021-08-20T15:05:34.453Z</time>
      </trkpt>
      <trkpt lat="41.97703" lon="33.69511">
        <ele>130.369862</ele>
        <time>2021-08-20T15:06:21.213Z</time>
      </trkpt>
      <trkpt lat="41.97676" lon="33.69422">
        <ele>130.935545</ele>
        <time>2021-08-20T15:06:46.804Z</time>
      </trkpt>
      <trkpt lat="41.97679" lon="33.69401">
        <ele>131.061388</ele>
        <time>2021-08-20T15:06:52.454Z</time>
      </trkpt>
      <trkpt lat="41.97793" lon="33.69161">
        <ele>132.262464</ele>
        <time>2021-08-20T15:08:06.411Z</time>
      </trkpt>
      <trkpt lat="41.97811" lon="33.6903">
        <ele>130.70838</ele>
        <time>2021-08-20T15:08:35.252Z</time>
      </trkpt>
      <trkpt lat="41.97815" lon="33.6899">
        <ele>130.133616</ele>
        <time>2021-08-20T15:08:42.770Z</time>
      </trkpt>
      <trkpt lat="41.97809" lon="33.68951">
        <ele>129.566455</ele>
        <time>2021-08-20T15:08:49.806Z</time>
      </trkpt>
      <trkpt lat="41.9775" lon="33.68786">
        <ele>122.784333</ele>
        <time>2021-08-20T15:09:18.775Z</time>
      </trkpt>
      <trkpt lat="41.97756" lon="33.68772">
        <ele>122.056279</ele>
        <time>2021-08-20T15:09:21.165Z</time>
      </trkpt>
      <trkpt lat="41.97823" lon="33.68748">
        <ele>117.81886</ele>
        <time>2021-08-20T15:09:34.786Z</time>
      </trkpt>
      <trkpt lat="41.97843" lon="33.68729">
        <ele>115.941458</ele>
        <time>2021-08-20T15:09:39.610Z</time>
      </trkpt>
      <trkpt lat="41.97855" lon="33.68695">
        <ele>113.796096</ele>
        <time>2021-08-20T15:09:45.131Z</time>
      </trkpt>
      <trkpt lat="41.97856" lon="33.68657">
        <ele>111.628708</ele>
        <time>2021-08-20T15:09:50.719Z</time>
      </trkpt>
      <trkpt lat="41.97849" lon="33.6863">
        <ele>109.998776</ele>
        <time>2021-08-20T15:09:54.932Z</time>
      </trkpt>
      <trkpt lat="41.9781" lon="33.68573">
        <ele>105.583035</ele>
        <time>2021-08-20T15:10:06.370Z</time>
      </trkpt>
      <trkpt lat="41.978" lon="33.68544">
        <ele>103.809674</ele>
        <time>2021-08-20T15:10:11.082Z</time>
      </trkpt>
      <trkpt lat="41.97793" lon="33.68415">
        <ele>97.263302</ele>
        <time>2021-08-20T15:10:30.315Z</time>
      </trkpt>
      <trkpt lat="41.97806" lon="33.68349">
        <ele>93.807621</ele>
        <time>2021-08-20T15:10:40.574Z</time>
      </trkpt>
      <trkpt lat="41.9787" lon="33.68203">
        <ele>87.598963</ele>
        <time>2021-08-20T15:11:06.728Z</time>
      </trkpt>
      <trkpt lat="41.97893" lon="33.68093">
        <ele>84.002799</ele>
        <time>2021-08-20T15:11:26.185Z</time>
      </trkpt>
      <trkpt lat="41.97888" lon="33.68057">
        <ele>83.861535</ele>
        <time>2021-08-20T15:11:33.082Z</time>
      </trkpt>
      <trkpt lat="41.97871" lon="33.67998">
        <ele>83.617459</ele>
        <time>2021-08-20T15:11:46.358Z</time>
      </trkpt>
      <trkpt lat="41.97865" lon="33.67954">
        <ele>83.444908</ele>
        <time>2021-08-20T15:11:56.885Z</time>
      </trkpt>
      <trkpt lat="41.97885" lon="33.67787">
        <ele>82.788486</ele>
        <time>2021-08-20T15:12:39.937Z</time>
      </trkpt>
      <trkpt lat="41.97899" lon="33.6757">
        <ele>80.558201</ele>
        <time>2021-08-20T15:13:24.347Z</time>
      </trkpt>
      <trkpt lat="41.97913" lon="33.67475">
        <ele>77.651843</ele>
        <time>2021-08-20T15:13:40.471Z</time>
      </trkpt>
      <trkpt lat="41.97983" lon="33.67345">
        <ele>70.626576</ele>
        <time>2021-08-20T15:14:04.767Z</time>
      </trkpt>
      <trkpt lat="41.97974" lon="33.67189">
        <ele>60.868507</ele>
        <time>2021-08-20T15:14:27.285Z</time>
      </trkpt>
      <trkpt lat="41.98069" lon="33.67015">
        <ele>45.569193</ele>
        <time>2021-08-20T15:14:57.820Z</time>
      </trkpt>
      <trkpt lat="41.98087" lon="33.66991">
        <ele>43.128008</ele>
        <time>2021-08-20T15:15:02.704Z</time>
      </trkpt>
      <trkpt lat="41.98148" lon="33.66942">
        <ele>38.988609</ele>
        <time>2021-08-20T15:15:16.743Z</time>
      </trkpt>
      <trkpt lat="41.98172" lon="33.66902">
        <ele>36.917455</ele>
        <time>2021-08-20T15:15:24.623Z</time>
      </trkpt>
      <trkpt lat="41.98221" lon="33.66763">
        <ele>32.204169</ele>
        <time>2021-08-20T15:15:50.988Z</time>
      </trkpt>
      <trkpt lat="41.98294" lon="33.66601">
        <ele>30.238352</ele>
        <time>2021-08-20T15:16:30.042Z</time>
      </trkpt>
      <trkpt lat="41.98358" lon="33.66425">
        <ele>28.634462</ele>
        <time>2021-08-20T15:17:08.922Z</time>
      </trkpt>
      <trkpt lat="41.98385" lon="33.66322">
        <ele>28.282556</ele>
        <time>2021-08-20T15:17:29.984Z</time>
      </trkpt>
      <trkpt lat="41.98403" lon="33.66131">
        <ele>28.642089</ele>
        <time>2021-08-20T15:18:17.637Z</time>
      </trkpt>
      <trkpt lat="41.98415" lon="33.65933">
        <ele>32.633134</ele>
        <time>2021-08-20T15:19:26.431Z</time>
      </trkpt>
      <trkpt lat="41.98399" lon="33.65636">
        <ele>41.960515</ele>
        <time>2021-08-20T15:21:27.852Z</time>
      </trkpt>
      <trkpt lat="41.98392" lon="33.65337">
        <ele>56.198705</ele>
        <time>2021-08-20T15:23:53.394Z</time>
      </trkpt>
      <trkpt lat="41.98374" lon="33.65063">
        <ele>71.446639</ele>
        <time>2021-08-20T15:26:40.519Z</time>
      </trkpt>
      <trkpt lat="41.98318" lon="33.64905">
        <ele>77.310188</ele>
        <time>2021-08-20T15:27:58.854Z</time>
      </trkpt>
      <trkpt lat="41.98303" lon="33.6481">
        <ele>76.231227</ele>
        <time>2021-08-20T15:28:19.543Z</time>
      </trkpt>
      <trkpt lat="41.98302" lon="33.64758">
        <ele>75.653332</ele>
        <time>2021-08-20T15:28:28.178Z</time>
      </trkpt>
      <trkpt lat="41.9831" lon="33.64604">
        <ele>67.755008</ele>
        <time>2021-08-20T15:28:50.779Z</time>
      </trkpt>
      <trkpt lat="41.98299" lon="33.6452">
        <ele>61.935299</ele>
        <time>2021-08-20T15:29:02.741Z</time>
      </trkpt>
      <trkpt lat="41.98302" lon="33.6449">
        <ele>59.869912</ele>
        <time>2021-08-20T15:29:06.986Z</time>
      </trkpt>
      <trkpt lat="41.98345" lon="33.64411">
        <ele>54.982152</ele>
        <time>2021-08-20T15:29:20.927Z</time>
      </trkpt>
      <trkpt lat="41.98357" lon="33.64374">
        <ele>53.13531</ele>
        <time>2021-08-20T15:29:26.811Z</time>
      </trkpt>
      <trkpt lat="41.98362" lon="33.64333">
        <ele>51.234502</ele>
        <time>2021-08-20T15:29:33.015Z</time>
      </trkpt>
      <trkpt lat="41.98364" lon="33.64117">
        <ele>49.55672</ele>
        <time>2021-08-20T15:30:16.546Z</time>
      </trkpt>
      <trkpt lat="41.98385" lon="33.63872">
        <ele>56.914841</ele>
        <time>2021-08-20T15:32:15.097Z</time>
      </trkpt>
      <trkpt lat="41.98386" lon="33.63828">
        <ele>58.732366</ele>
        <time>2021-08-20T15:32:36.534Z</time>
      </trkpt>
      <trkpt lat="41.98378" lon="33.63763">
        <ele>61.241611</ele>
        <time>2021-08-20T15:33:05.577Z</time>
      </trkpt>
      <trkpt lat="41.98383" lon="33.63675">
        <ele>62.64524</ele>
        <time>2021-08-20T15:33:38.659Z</time>
      </trkpt>
      <trkpt lat="41.98414" lon="33.63441">
        <ele>65.542656</ele>
        <time>2021-08-20T15:34:41.685Z</time>
      </trkpt>
      <trkpt lat="41.98486" lon="33.63171">
        <ele>68.967761</ele>
        <time>2021-08-20T15:35:58.991Z</time>
      </trkpt>
      <trkpt lat="41.98493" lon="33.63122">
        <ele>69.868566</ele>
        <time>2021-08-20T15:36:18.522Z</time>
      </trkpt>
      <trkpt lat="41.9849" lon="33.63075">
        <ele>70.720199</ele>
        <time>2021-08-20T15:36:38.543Z</time>
      </trkpt>
      <trkpt lat="41.98452" lon="33.62995">
        <ele>73.864622</ele>
        <time>2021-08-20T15:37:20.428Z</time>
      </trkpt>
      <trkpt lat="41.98435" lon="33.62975">
        <ele>74.911507</ele>
        <time>2021-08-20T15:37:33.960Z</time>
      </trkpt>
      <trkpt lat="41.9839" lon="33.62957">
        <ele>77.087793</ele>
        <time>2021-08-20T15:38:01.187Z</time>
      </trkpt>
      <trkpt lat="41.98353" lon="33.62932">
        <ele>79.007154</ele>
        <time>2021-08-20T15:38:24.388Z</time>
      </trkpt>
      <trkpt lat="41.98339" lon="33.62909">
        <ele>79.768639</ele>
        <time>2021-08-20T15:38:36.206Z</time>
      </trkpt>
      <trkpt lat="41.9833" lon="33.6287">
        <ele>80.732137</ele>
        <time>2021-08-20T15:38:51.841Z</time>
      </trkpt>
      <trkpt lat="41.9833" lon="33.62842">
        <ele>81.392776</ele>
        <time>2021-08-20T15:39:02.199Z</time>
      </trkpt>
      <trkpt lat="41.98353" lon="33.62813">
        <ele>82.393341</ele>
        <time>2021-08-20T15:39:17.128Z</time>
      </trkpt>
      <trkpt lat="41.9842" lon="33.62769">
        <ele>84.759841</ele>
        <time>2021-08-20T15:39:50.781Z</time>
      </trkpt>
      <trkpt lat="41.98437" lon="33.62738">
        <ele>85.364189</ele>
        <time>2021-08-20T15:40:04.300Z</time>
      </trkpt>
      <trkpt lat="41.98442" lon="33.62704">
        <ele>85.855065</ele>
        <time>2021-08-20T15:40:16.899Z</time>
      </trkpt>
      <trkpt lat="41.9844" lon="33.62673">
        <ele>86.29577</ele>
        <time>2021-08-20T15:40:28.280Z</time>
      </trkpt>
      <trkpt lat="41.98414" lon="33.62577">
        <ele>87.742861</ele>
        <time>2021-08-20T15:41:02.024Z</time>
      </trkpt>
      <trkpt lat="41.98419" lon="33.62473">
        <ele>87.067535</ele>
        <time>2021-08-20T15:41:25.038Z</time>
      </trkpt>
      <trkpt lat="41.98436" lon="33.62378">
        <ele>85.062554</ele>
        <time>2021-08-20T15:41:42.124Z</time>
      </trkpt>
      <trkpt lat="41.98441" lon="33.62261">
        <ele>81.853003</ele>
        <time>2021-08-20T15:42:00.545Z</time>
      </trkpt>
      <trkpt lat="41.98468" lon="33.62137">
        <ele>76.124687</ele>
        <time>2021-08-20T15:42:20.353Z</time>
      </trkpt>
      <trkpt lat="41.98491" lon="33.62071">
        <ele>72.959013</ele>
        <time>2021-08-20T15:42:31.318Z</time>
      </trkpt>
      <trkpt lat="41.98491" lon="33.61979">
        <ele>68.163242</ele>
        <time>2021-08-20T15:42:45.403Z</time>
      </trkpt>
      <trkpt lat="41.985" lon="33.61874">
        <ele>62.65222</ele>
        <time>2021-08-20T15:43:01.091Z</time>
      </trkpt>
      <trkpt lat="41.98498" lon="33.61828">
        <ele>60.237874</ele>
        <time>2021-08-20T15:43:07.880Z</time>
      </trkpt>
      <trkpt lat="41.98504" lon="33.61792">
        <ele>58.3477</ele>
        <time>2021-08-20T15:43:13.176Z</time>
      </trkpt>
      <trkpt lat="41.98539" lon="33.61667">
        <ele>51.347961</ele>
        <time>2021-08-20T15:43:32.979Z</time>
      </trkpt>
      <trkpt lat="41.98552" lon="33.61601">
        <ele>47.776982</ele>
        <time>2021-08-20T15:43:43.315Z</time>
      </trkpt>
      <trkpt lat="41.98576" lon="33.61375">
        <ele>39.399209</ele>
        <time>2021-08-20T15:44:19.522Z</time>
      </trkpt>
      <trkpt lat="41.9863" lon="33.61023">
        <ele>27.818549</ele>
        <time>2021-08-20T15:45:18.029Z</time>
      </trkpt>
      <trkpt lat="41.98644" lon="33.609">
        <ele>23.731922</ele>
        <time>2021-08-20T15:45:38.015Z</time>
      </trkpt>
      <trkpt lat="41.98644" lon="33.60757">
        <ele>18.548382</ele>
        <time>2021-08-20T15:46:00.430Z</time>
      </trkpt>
      <trkpt lat="41.9864" lon="33.6064">
        <ele>14.229416</ele>
        <time>2021-08-20T15:46:18.882Z</time>
      </trkpt>
      <trkpt lat="41.98637" lon="33.60411">
        <ele>8.199095</ele>
        <time>2021-08-20T15:46:56.806Z</time>
      </trkpt>
      <trkpt lat="41.98636" lon="33.60324">
        <ele>7.590181</ele>
        <time>2021-08-20T15:47:13.157Z</time>
      </trkpt>
      <trkpt lat="41.98634" lon="33.60202">
        <ele>7.199504</ele>
        <time>2021-08-20T15:47:40.307Z</time>
      </trkpt>
      <trkpt lat="41.98633" lon="33.60115">
        <ele>8.205847</ele>
        <time>2021-08-20T15:48:06.015Z</time>
      </trkpt>
      <trkpt lat="41.98636" lon="33.60071">
        <ele>9.479779</ele>
        <time>2021-08-20T15:48:20.167Z</time>
      </trkpt>
      <trkpt lat="41.98637" lon="33.6006">
        <ele>9.814947</ele>
        <time>2021-08-20T15:48:24.032Z</time>
      </trkpt>
      <trkpt lat="41.98649" lon="33.60055">
        <ele>10.296607</ele>
        <time>2021-08-20T15:48:29.228Z</time>
      </trkpt>
      <trkpt lat="41.98677" lon="33.60034">
        <ele>11.546434</ele>
        <time>2021-08-20T15:48:44.575Z</time>
      </trkpt>
      <trkpt lat="41.98684" lon="33.60024">
        <ele>11.957495</ele>
        <time>2021-08-20T15:48:49.284Z</time>
      </trkpt>
      <trkpt lat="41.98688" lon="33.60017">
        <ele>12.218207</ele>
        <time>2021-08-20T15:48:53.413Z</time>
      </trkpt>
      <trkpt lat="41.98707" lon="33.59926">
        <ele>16.243507</ele>
        <time>2021-08-20T15:49:47.037Z</time>
      </trkpt>
      <trkpt lat="41.9871" lon="33.59867">
        <ele>20.515742</ele>
        <time>2021-08-20T15:50:24.955Z</time>
      </trkpt>
      <trkpt lat="41.98715" lon="33.59849">
        <ele>21.869301</ele>
        <time>2021-08-20T15:50:39.732Z</time>
      </trkpt>
      <trkpt lat="41.98727" lon="33.59831">
        <ele>23.553016</ele>
        <time>2021-08-20T15:50:52.781Z</time>
      </trkpt>
      <trkpt lat="41.98729" lon="33.59824">
        <ele>24.113215</ele>
        <time>2021-08-20T15:50:59.204Z</time>
      </trkpt>
      <trkpt lat="41.9872" lon="33.59824">
        <ele>24.978787</ele>
        <time>2021-08-20T15:51:09.682Z</time>
      </trkpt>
      <trkpt lat="41.98695" lon="33.59826">
        <ele>27.378612</ele>
        <time>2021-08-20T15:51:27.814Z</time>
      </trkpt>
      <trkpt lat="41.98697" lon="33.5982">
        <ele>27.865658</ele>
        <time>2021-08-20T15:51:35.989Z</time>
      </trkpt>
      <trkpt lat="41.98732" lon="33.59591">
        <ele>43.973327</ele>
        <time>2021-08-20T15:54:08.405Z</time>
      </trkpt>
      <trkpt lat="41.98745" lon="33.59535">
        <ele>48.017077</ele>
        <time>2021-08-20T15:54:38.341Z</time>
      </trkpt>
      <trkpt lat="41.98752" lon="33.59445">
        <ele>53.211653</ele>
        <time>2021-08-20T15:55:24.284Z</time>
      </trkpt>
      <trkpt lat="41.98777" lon="33.59294">
        <ele>62.192853</ele>
        <time>2021-08-20T15:56:50.794Z</time>
      </trkpt>
      <trkpt lat="41.98775" lon="33.59264">
        <ele>64.605449</ele>
        <time>2021-08-20T15:57:09.234Z</time>
      </trkpt>
      <trkpt lat="41.98767" lon="33.59239">
        <ele>66.897482</ele>
        <time>2021-08-20T15:57:27.408Z</time>
      </trkpt>
      <trkpt lat="41.98741" lon="33.59194">
        <ele>71.524574</ele>
        <time>2021-08-20T15:58:05.596Z</time>
      </trkpt>
      <trkpt lat="41.98624" lon="33.59086">
        <ele>87.984329</ele>
        <time>2021-08-20T16:00:27.607Z</time>
      </trkpt>
      <trkpt lat="41.98591" lon="33.59035">
        <ele>94.376203</ele>
        <time>2021-08-20T16:01:21.135Z</time>
      </trkpt>
      <trkpt lat="41.98523" lon="33.58849">
        <ele>111.466552</ele>
        <time>2021-08-20T16:03:58.369Z</time>
      </trkpt>
      <trkpt lat="41.98468" lon="33.58752">
        <ele>119.968676</ele>
        <time>2021-08-20T16:05:14.104Z</time>
      </trkpt>
      <trkpt lat="41.98442" lon="33.58678">
        <ele>120.104622</ele>
        <time>2021-08-20T16:05:41.770Z</time>
      </trkpt>
      <trkpt lat="41.98429" lon="33.58576">
        <ele>118.122876</ele>
        <time>2021-08-20T16:05:59.257Z</time>
      </trkpt>
      <trkpt lat="41.98431" lon="33.58554">
        <ele>117.698448</ele>
        <time>2021-08-20T16:06:02.475Z</time>
      </trkpt>
      <trkpt lat="41.98447" lon="33.58536">
        <ele>117.16113</ele>
        <time>2021-08-20T16:06:06.783Z</time>
      </trkpt>
      <trkpt lat="41.9846" lon="33.58534">
        <ele>116.824044</ele>
        <time>2021-08-20T16:06:09.235Z</time>
      </trkpt>
      <trkpt lat="41.98499" lon="33.58613">
        <ele>113.671199</ele>
        <time>2021-08-20T16:06:23.069Z</time>
      </trkpt>
      <trkpt lat="41.98518" lon="33.58636">
        <ele>112.48351</ele>
        <time>2021-08-20T16:06:28.272Z</time>
      </trkpt>
      <trkpt lat="41.98557" lon="33.58665">
        <ele>110.412868</ele>
        <time>2021-08-20T16:06:37.173Z</time>
      </trkpt>
      <trkpt lat="41.98605" lon="33.5873">
        <ele>110.005742</ele>
        <time>2021-08-20T16:07:02.648Z</time>
      </trkpt>
      <trkpt lat="41.98628" lon="33.5875">
        <ele>112.027679</ele>
        <time>2021-08-20T16:07:19.633Z</time>
      </trkpt>
      <trkpt lat="41.9864" lon="33.58751">
        <ele>112.915344</ele>
        <time>2021-08-20T16:07:27.655Z</time>
      </trkpt>
      <trkpt lat="41.9865" lon="33.58738">
        <ele>113.942021</ele>
        <time>2021-08-20T16:07:37.969Z</time>
      </trkpt>
      <trkpt lat="41.98681" lon="33.58578">
        <ele>123.315925</ele>
        <time>2021-08-20T16:09:29.206Z</time>
      </trkpt>
      <trkpt lat="41.98732" lon="33.58392">
        <ele>136.488881</ele>
        <time>2021-08-20T16:11:32.873Z</time>
      </trkpt>
      <trkpt lat="41.98829" lon="33.58223">
        <ele>146.457157</ele>
        <time>2021-08-20T16:13:10.074Z</time>
      </trkpt>
      <trkpt lat="41.98829" lon="33.58202">
        <ele>147.399802</ele>
        <time>2021-08-20T16:13:20.421Z</time>
      </trkpt>
      <trkpt lat="41.98821" lon="33.58184">
        <ele>148.34121</ele>
        <time>2021-08-20T16:13:30.447Z</time>
      </trkpt>
      <trkpt lat="41.98745" lon="33.58122">
        <ele>154.108306</ele>
        <time>2021-08-20T16:14:32.715Z</time>
      </trkpt>
      <trkpt lat="41.98729" lon="33.581">
        <ele>155.596593</ele>
        <time>2021-08-20T16:14:48.511Z</time>
      </trkpt>
      <trkpt lat="41.98723" lon="33.5808">
        <ele>156.639465</ele>
        <time>2021-08-20T16:15:00.593Z</time>
      </trkpt>
      <trkpt lat="41.98723" lon="33.5803">
        <ele>159.05715</ele>
        <time>2021-08-20T16:15:26.508Z</time>
      </trkpt>
      <trkpt lat="41.98742" lon="33.57876">
        <ele>163.799924</ele>
        <time>2021-08-20T16:16:36.128Z</time>
      </trkpt>
      <trkpt lat="41.98816" lon="33.57522">
        <ele>170.203811</ele>
        <time>2021-08-20T16:18:25.290Z</time>
      </trkpt>
      <trkpt lat="41.98815" lon="33.57244">
        <ele>175.631109</ele>
        <time>2021-08-20T16:20:05.532Z</time>
      </trkpt>
      <trkpt lat="41.98824" lon="33.5722">
        <ele>175.989223</ele>
        <time>2021-08-20T16:20:14.564Z</time>
      </trkpt>
      <trkpt lat="41.98897" lon="33.57117">
        <ele>177.885187</ele>
        <time>2021-08-20T16:20:56.931Z</time>
      </trkpt>
      <trkpt lat="41.98903" lon="33.57091">
        <ele>178.202198</ele>
        <time>2021-08-20T16:21:03.841Z</time>
      </trkpt>
      <trkpt lat="41.98901" lon="33.57058">
        <ele>178.390351</ele>
        <time>2021-08-20T16:21:11.120Z</time>
      </trkpt>
      <trkpt lat="41.98885" lon="33.56992">
        <ele>178.784857</ele>
        <time>2021-08-20T16:21:27.226Z</time>
      </trkpt>
      <trkpt lat="41.98862" lon="33.56926">
        <ele>179.199097</ele>
        <time>2021-08-20T16:21:45.734Z</time>
      </trkpt>
      <trkpt lat="41.98858" lon="33.56874">
        <ele>179.49618</ele>
        <time>2021-08-20T16:22:00.416Z</time>
      </trkpt>
      <trkpt lat="41.98861" lon="33.56851">
        <ele>180.172433</ele>
        <time>2021-08-20T16:22:07.500Z</time>
      </trkpt>
      <trkpt lat="41.98878" lon="33.56843">
        <ele>181.185611</ele>
        <time>2021-08-20T16:22:14.272Z</time>
      </trkpt>
      <trkpt lat="41.98958" lon="33.56829">
        <ele>185.724055</ele>
        <time>2021-08-20T16:22:56.806Z</time>
      </trkpt>
      <trkpt lat="41.98976" lon="33.5681">
        <ele>187.011131</ele>
        <time>2021-08-20T16:23:13.385Z</time>
      </trkpt>
      <trkpt lat="41.98986" lon="33.5678">
        <ele>188.38591</ele>
        <time>2021-08-20T16:23:33.653Z</time>
      </trkpt>
      <trkpt lat="41.9899" lon="33.56743">
        <ele>190.22061</ele>
        <time>2021-08-20T16:23:58.810Z</time>
      </trkpt>
      <trkpt lat="41.98968" lon="33.56671">
        <ele>196.549336</ele>
        <time>2021-08-20T16:24:56.197Z</time>
      </trkpt>
      <trkpt lat="41.98966" lon="33.56646">
        <ele>198.59351</ele>
        <time>2021-08-20T16:25:14.505Z</time>
      </trkpt>
      <trkpt lat="41.98989" lon="33.5661">
        <ele>202.452834</ele>
        <time>2021-08-20T16:25:48.493Z</time>
      </trkpt>
      <trkpt lat="41.99" lon="33.56572">
        <ele>205.768149</ele>
        <time>2021-08-20T16:26:17.091Z</time>
      </trkpt>
      <trkpt lat="41.99002" lon="33.56498">
        <ele>210.810325</ele>
        <time>2021-08-20T16:27:07.797Z</time>
      </trkpt>
      <trkpt lat="41.99041" lon="33.56347">
        <ele>218.625584</ele>
        <time>2021-08-20T16:28:30.705Z</time>
      </trkpt>
      <trkpt lat="41.99068" lon="33.56311">
        <ele>221.125915</ele>
        <time>2021-08-20T16:28:48.640Z</time>
      </trkpt>
      <trkpt lat="41.99089" lon="33.56267">
        <ele>222.206359</ele>
        <time>2021-08-20T16:29:05.257Z</time>
      </trkpt>
      <trkpt lat="41.99102" lon="33.5621">
        <ele>223.411399</ele>
        <time>2021-08-20T16:29:25.239Z</time>
      </trkpt>
      <trkpt lat="41.99099" lon="33.56164">
        <ele>224.344674</ele>
        <time>2021-08-20T16:29:41.474Z</time>
      </trkpt>
      <trkpt lat="41.99081" lon="33.56106">
        <ele>225.614994</ele>
        <time>2021-08-20T16:30:03.509Z</time>
      </trkpt>
      <trkpt lat="41.9908" lon="33.56069">
        <ele>226.259814</ele>
        <time>2021-08-20T16:30:15.907Z</time>
      </trkpt>
      <trkpt lat="41.99091" lon="33.55992">
        <ele>227.308917</ele>
        <time>2021-08-20T16:30:40.188Z</time>
      </trkpt>
      <trkpt lat="41.99094" lon="33.55928">
        <ele>228.166926</ele>
        <time>2021-08-20T16:30:59.318Z</time>
      </trkpt>
      <trkpt lat="41.9905" lon="33.55807">
        <ele>229.945243</ele>
        <time>2021-08-20T16:31:39.293Z</time>
      </trkpt>
      <trkpt lat="41.99002" lon="33.55719">
        <ele>231.353692</ele>
        <time>2021-08-20T16:32:11.537Z</time>
      </trkpt>
      <trkpt lat="41.98953" lon="33.55708">
        <ele>232.216113</ele>
        <time>2021-08-20T16:32:32.350Z</time>
      </trkpt>
      <trkpt lat="41.98869" lon="33.55671">
        <ele>233.99078</ele>
        <time>2021-08-20T16:33:11.047Z</time>
      </trkpt>
      <trkpt lat="41.98817" lon="33.55671">
        <ele>235.056206</ele>
        <time>2021-08-20T16:33:33.912Z</time>
      </trkpt>
      <trkpt lat="41.98805" lon="33.55666">
        <ele>235.313594</ele>
        <time>2021-08-20T16:33:39.182Z</time>
      </trkpt>
      <trkpt lat="41.98798" lon="33.55655">
        <ele>235.534124</ele>
        <time>2021-08-20T16:33:43.817Z</time>
      </trkpt>
      <trkpt lat="41.98799" lon="33.55639">
        <ele>235.77865</ele>
        <time>2021-08-20T16:33:48.634Z</time>
      </trkpt>
      <trkpt lat="41.98842" lon="33.55515">
        <ele>237.439322</ele>
        <time>2021-08-20T16:34:28.985Z</time>
      </trkpt>
      <trkpt lat="41.98842" lon="33.55498">
        <ele>237.635962</ele>
        <time>2021-08-20T16:34:33.747Z</time>
      </trkpt>
      <trkpt lat="41.98833" lon="33.55483">
        <ele>237.858943</ele>
        <time>2021-08-20T16:34:39.530Z</time>
      </trkpt>
      <trkpt lat="41.98736" lon="33.55404">
        <ele>239.761358</ele>
        <time>2021-08-20T16:35:24.552Z</time>
      </trkpt>
      <trkpt lat="41.98721" lon="33.55397">
        <ele>240.055626</ele>
        <time>2021-08-20T16:35:30.576Z</time>
      </trkpt>
      <trkpt lat="41.98646" lon="33.554">
        <ele>241.446331</ele>
        <time>2021-08-20T16:36:02.124Z</time>
      </trkpt>
      <trkpt lat="41.98618" lon="33.55394">
        <ele>241.97184</ele>
        <time>2021-08-20T16:36:14.512Z</time>
      </trkpt>
      <trkpt lat="41.98609" lon="33.55383">
        <ele>242.19721</ele>
        <time>2021-08-20T16:36:19.973Z</time>
      </trkpt>
      <trkpt lat="41.98606" lon="33.5537">
        <ele>242.419371</ele>
        <time>2021-08-20T16:36:24.409Z</time>
      </trkpt>
      <trkpt lat="41.98611" lon="33.55345">
        <ele>242.858817</ele>
        <time>2021-08-20T16:36:32.738Z</time>
      </trkpt>
      <trkpt lat="41.98674" lon="33.55236">
        <ele>245.202513</ele>
        <time>2021-08-20T16:37:17.384Z</time>
      </trkpt>
      <trkpt lat="41.98675" lon="33.55218">
        <ele>245.508897</ele>
        <time>2021-08-20T16:37:24.040Z</time>
      </trkpt>
      <trkpt lat="41.98666" lon="33.55203">
        <ele>245.836107</ele>
        <time>2021-08-20T16:37:30.801Z</time>
      </trkpt>
      <trkpt lat="41.98652" lon="33.55192">
        <ele>246.20634</ele>
        <time>2021-08-20T16:37:38.231Z</time>
      </trkpt>
      <trkpt lat="41.98609" lon="33.55182">
        <ele>245.947947</ele>
        <time>2021-08-20T16:37:57.829Z</time>
      </trkpt>
      <trkpt lat="41.98593" lon="33.55169">
        <ele>245.7519</ele>
        <time>2021-08-20T16:38:04.934Z</time>
      </trkpt>
      <trkpt lat="41.98565" lon="33.55136">
        <ele>245.361466</ele>
        <time>2021-08-20T16:38:17.016Z</time>
      </trkpt>
      <trkpt lat="41.98559" lon="33.55114">
        <ele>245.178768</ele>
        <time>2021-08-20T16:38:21.583Z</time>
      </trkpt>
      <trkpt lat="41.98561" lon="33.55098">
        <ele>245.052276</ele>
        <time>2021-08-20T16:38:24.516Z</time>
      </trkpt>
      <trkpt lat="41.98601" lon="33.55073">
        <ele>244.589671</ele>
        <time>2021-08-20T16:38:34.389Z</time>
      </trkpt>
      <trkpt lat="41.98617" lon="33.55056">
        <ele>243.803564</ele>
        <time>2021-08-20T16:38:38.683Z</time>
      </trkpt>
      <trkpt lat="41.98628" lon="33.55038">
        <ele>242.331553</ele>
        <time>2021-08-20T16:38:42.282Z</time>
      </trkpt>
      <trkpt lat="41.98641" lon="33.54996">
        <ele>239.457584</ele>
        <time>2021-08-20T16:38:49.131Z</time>
      </trkpt>
      <trkpt lat="41.98657" lon="33.5499">
        <ele>238.045988</ele>
        <time>2021-08-20T16:38:52.360Z</time>
      </trkpt>
      <trkpt lat="41.98719" lon="33.55041">
        <ele>231.9017</ele>
        <time>2021-08-20T16:39:06.092Z</time>
      </trkpt>
      <trkpt lat="41.98775" lon="33.55042">
        <ele>227.635033</ele>
        <time>2021-08-20T16:39:16.592Z</time>
      </trkpt>
      <trkpt lat="41.98797" lon="33.55064">
        <ele>225.87795</ele>
        <time>2021-08-20T16:39:21.721Z</time>
      </trkpt>
      <trkpt lat="41.98823" lon="33.55079">
        <ele>224.012835</ele>
        <time>2021-08-20T16:39:27.421Z</time>
      </trkpt>
      <trkpt lat="41.98916" lon="33.55112">
        <ele>217.825621</ele>
        <time>2021-08-20T16:39:48.495Z</time>
      </trkpt>
      <trkpt lat="41.9893" lon="33.55111">
        <ele>217.282702</ele>
        <time>2021-08-20T16:39:51.368Z</time>
      </trkpt>
      <trkpt lat="41.98944" lon="33.55102">
        <ele>216.883253</ele>
        <time>2021-08-20T16:39:58.500Z</time>
      </trkpt>
      <trkpt lat="41.98961" lon="33.55084">
        <ele>216.314603</ele>
        <time>2021-08-20T16:40:03.073Z</time>
      </trkpt>
      <trkpt lat="41.99008" lon="33.5501">
        <ele>214.428611</ele>
        <time>2021-08-20T16:40:21.629Z</time>
      </trkpt>
      <trkpt lat="41.9903" lon="33.55008">
        <ele>213.844276</ele>
        <time>2021-08-20T16:40:28.613Z</time>
      </trkpt>
      <trkpt lat="41.99068" lon="33.55086">
        <ele>211.544555</ele>
        <time>2021-08-20T16:40:44.065Z</time>
      </trkpt>
      <trkpt lat="41.99108" lon="33.55134">
        <ele>209.295749</ele>
        <time>2021-08-20T16:40:55.251Z</time>
      </trkpt>
      <trkpt lat="41.99139" lon="33.55167">
        <ele>207.639833</ele>
        <time>2021-08-20T16:41:03.507Z</time>
      </trkpt>
      <trkpt lat="41.99193" lon="33.55198">
        <ele>205.427694</ele>
        <time>2021-08-20T16:41:16.304Z</time>
      </trkpt>
      <trkpt lat="41.99254" lon="33.55262">
        <ele>207.63723</ele>
        <time>2021-08-20T16:41:37.377Z</time>
      </trkpt>
      <trkpt lat="41.9929" lon="33.55275">
        <ele>208.712966</ele>
        <time>2021-08-20T16:41:56.892Z</time>
      </trkpt>
      <trkpt lat="41.99339" lon="33.55273">
        <ele>210.126141</ele>
        <time>2021-08-20T16:42:31.051Z</time>
      </trkpt>
      <trkpt lat="41.99438" lon="33.55235">
        <ele>218.915452</ele>
        <time>2021-08-20T16:44:01.144Z</time>
      </trkpt>
      <trkpt lat="41.99447" lon="33.55223">
        <ele>220.14904</ele>
        <time>2021-08-20T16:44:13.502Z</time>
      </trkpt>
      <trkpt lat="41.99458" lon="33.55204">
        <ele>221.799815</ele>
        <time>2021-08-20T16:44:29.308Z</time>
      </trkpt>
      <trkpt lat="41.99456" lon="33.55164">
        <ele>224.564563</ele>
        <time>2021-08-20T16:44:55.815Z</time>
      </trkpt>
      <trkpt lat="41.99447" lon="33.55133">
        <ele>226.914122</ele>
        <time>2021-08-20T16:45:17.177Z</time>
      </trkpt>
      <trkpt lat="41.99423" lon="33.55094">
        <ele>228.217424</ele>
        <time>2021-08-20T16:45:45.999Z</time>
      </trkpt>
      <trkpt lat="41.99398" lon="33.55012">
        <ele>229.868467</ele>
        <time>2021-08-20T16:46:23.487Z</time>
      </trkpt>
      <trkpt lat="41.99397" lon="33.54985">
        <ele>230.379385</ele>
        <time>2021-08-20T16:46:31.069Z</time>
      </trkpt>
      <trkpt lat="41.99405" lon="33.54927">
        <ele>231.494039</ele>
        <time>2021-08-20T16:46:42.587Z</time>
      </trkpt>
      <trkpt lat="41.99424" lon="33.54888">
        <ele>230.807331</ele>
        <time>2021-08-20T16:46:50.075Z</time>
      </trkpt>
      <trkpt lat="41.99429" lon="33.54863">
        <ele>229.500484</ele>
        <time>2021-08-20T16:46:54.197Z</time>
      </trkpt>
      <trkpt lat="41.99424" lon="33.54774">
        <ele>225.155537</ele>
        <time>2021-08-20T16:47:07.517Z</time>
      </trkpt>
      <trkpt lat="41.99438" lon="33.54663">
        <ele>219.597348</ele>
        <time>2021-08-20T16:47:23.991Z</time>
      </trkpt>
      <trkpt lat="41.99463" lon="33.54634">
        <ele>217.374486</ele>
        <time>2021-08-20T16:47:30.406Z</time>
      </trkpt>
      <trkpt lat="41.99497" lon="33.54608">
        <ele>214.75275</ele>
        <time>2021-08-20T16:47:38.108Z</time>
      </trkpt>
      <trkpt lat="41.99531" lon="33.5455">
        <ele>211.044402</ele>
        <time>2021-08-20T16:47:49.402Z</time>
      </trkpt>
      <trkpt lat="41.99532" lon="33.54525">
        <ele>209.825535</ele>
        <time>2021-08-20T16:47:53.236Z</time>
      </trkpt>
      <trkpt lat="41.99526" lon="33.54497">
        <ele>208.374528</ele>
        <time>2021-08-20T16:47:57.887Z</time>
      </trkpt>
      <trkpt lat="41.99516" lon="33.54474">
        <ele>207.068579</ele>
        <time>2021-08-20T16:48:02.155Z</time>
      </trkpt>
      <trkpt lat="41.9951" lon="33.54441">
        <ele>205.469402</ele>
        <time>2021-08-20T16:48:07.442Z</time>
      </trkpt>
      <trkpt lat="41.99517" lon="33.54317">
        <ele>199.492636</ele>
        <time>2021-08-20T16:48:26.573Z</time>
      </trkpt>
      <trkpt lat="41.99514" lon="33.54282">
        <ele>197.818101</ele>
        <time>2021-08-20T16:48:31.793Z</time>
      </trkpt>
      <trkpt lat="41.99503" lon="33.54254">
        <ele>196.224963</ele>
        <time>2021-08-20T16:48:36.493Z</time>
      </trkpt>
      <trkpt lat="41.99501" lon="33.54196">
        <ele>191.859521</ele>
        <time>2021-08-20T16:48:44.807Z</time>
      </trkpt>
      <trkpt lat="41.99512" lon="33.54163">
        <ele>189.113529</ele>
        <time>2021-08-20T16:48:49.959Z</time>
      </trkpt>
      <trkpt lat="41.99541" lon="33.54141">
        <ele>185.811265</ele>
        <time>2021-08-20T16:48:56.092Z</time>
      </trkpt>
      <trkpt lat="41.99548" lon="33.54123">
        <ele>184.238991</ele>
        <time>2021-08-20T16:48:58.994Z</time>
      </trkpt>
      <trkpt lat="41.99547" lon="33.54102">
        <ele>182.652721</ele>
        <time>2021-08-20T16:49:01.938Z</time>
      </trkpt>
      <trkpt lat="41.99532" lon="33.54039">
        <ele>177.702224</ele>
        <time>2021-08-20T16:49:11.206Z</time>
      </trkpt>
      <trkpt lat="41.99535" lon="33.54025">
        <ele>176.685231</ele>
        <time>2021-08-20T16:49:13.252Z</time>
      </trkpt>
      <trkpt lat="41.99628" lon="33.53937">
        <ele>166.047329</ele>
        <time>2021-08-20T16:49:34.937Z</time>
      </trkpt>
      <trkpt lat="41.99644" lon="33.53901">
        <ele>163.131503</ele>
        <time>2021-08-20T16:49:41.077Z</time>
      </trkpt>
      <trkpt lat="41.99671" lon="33.53772">
        <ele>155.60543</ele>
        <time>2021-08-20T16:50:01.123Z</time>
      </trkpt>
      <trkpt lat="41.99692" lon="33.53698">
        <ele>151.407898</ele>
        <time>2021-08-20T16:50:12.917Z</time>
      </trkpt>
      <trkpt lat="41.99725" lon="33.53631">
        <ele>147.33929</ele>
        <time>2021-08-20T16:50:24.853Z</time>
      </trkpt>
      <trkpt lat="41.99768" lon="33.53589">
        <ele>144.076934</ele>
        <time>2021-08-20T16:50:35.543Z</time>
      </trkpt>
      <trkpt lat="41.99799" lon="33.5355">
        <ele>141.471272</ele>
        <time>2021-08-20T16:50:44.232Z</time>
      </trkpt>
      <trkpt lat="41.99809" lon="33.53526">
        <ele>140.215798</ele>
        <time>2021-08-20T16:50:48.478Z</time>
      </trkpt>
      <trkpt lat="41.99804" lon="33.53495">
        <ele>138.768367</ele>
        <time>2021-08-20T16:50:53.422Z</time>
      </trkpt>
      <trkpt lat="41.99788" lon="33.53479">
        <ele>137.54442</ele>
        <time>2021-08-20T16:50:57.638Z</time>
      </trkpt>
      <trkpt lat="41.9977" lon="33.53472">
        <ele>136.428421</ele>
        <time>2021-08-20T16:51:01.660Z</time>
      </trkpt>
      <trkpt lat="41.99688" lon="33.53486">
        <ele>131.514407</ele>
        <time>2021-08-20T16:51:19.265Z</time>
      </trkpt>
      <trkpt lat="41.99614" lon="33.53476">
        <ele>127.092951</ele>
        <time>2021-08-20T16:51:34.511Z</time>
      </trkpt>
      <trkpt lat="41.99482" lon="33.53423">
        <ele>113.500385</ele>
        <time>2021-08-20T16:52:00.692Z</time>
      </trkpt>
      <trkpt lat="41.99435" lon="33.53371">
        <ele>107.603427</ele>
        <time>2021-08-20T16:52:12.031Z</time>
      </trkpt>
      <trkpt lat="41.994" lon="33.53341">
        <ele>104.058332</ele>
        <time>2021-08-20T16:52:19.859Z</time>
      </trkpt>
      <trkpt lat="41.99381" lon="33.53332">
        <ele>102.337573</ele>
        <time>2021-08-20T16:52:23.705Z</time>
      </trkpt>
      <trkpt lat="41.99364" lon="33.53334">
        <ele>100.879774</ele>
        <time>2021-08-20T16:52:26.995Z</time>
      </trkpt>
      <trkpt lat="41.99302" lon="33.53378">
        <ele>94.891709</ele>
        <time>2021-08-20T16:52:40.947Z</time>
      </trkpt>
      <trkpt lat="41.99288" lon="33.53396">
        <ele>93.245912</ele>
        <time>2021-08-20T16:52:45.046Z</time>
      </trkpt>
      <trkpt lat="41.99279" lon="33.53462">
        <ele>89.211106</ele>
        <time>2021-08-20T16:52:55.755Z</time>
      </trkpt>
      <trkpt lat="41.99267" lon="33.53472">
        <ele>88.069138</ele>
        <time>2021-08-20T16:52:58.766Z</time>
      </trkpt>
      <trkpt lat="41.99256" lon="33.53471">
        <ele>87.177171</ele>
        <time>2021-08-20T16:53:01.080Z</time>
      </trkpt>
      <trkpt lat="41.9919" lon="33.53401">
        <ele>80.378032</ele>
        <time>2021-08-20T16:53:17.403Z</time>
      </trkpt>
      <trkpt lat="41.99176" lon="33.53393">
        <ele>79.147465</ele>
        <time>2021-08-20T16:53:20.218Z</time>
      </trkpt>
      <trkpt lat="41.99146" lon="33.53393">
        <ele>75.181783</ele>
        <time>2021-08-20T16:53:25.717Z</time>
      </trkpt>
      <trkpt lat="41.99126" lon="33.53382">
        <ele>72.167905</ele>
        <time>2021-08-20T16:53:29.661Z</time>
      </trkpt>
      <trkpt lat="41.99119" lon="33.53365">
        <ele>70.153029</ele>
        <time>2021-08-20T16:53:32.318Z</time>
      </trkpt>
      <trkpt lat="41.99133" lon="33.53254">
        <ele>58.510256</ele>
        <time>2021-08-20T16:53:47.563Z</time>
      </trkpt>
      <trkpt lat="41.99135" lon="33.53235">
        <ele>56.491744</ele>
        <time>2021-08-20T16:53:50.199Z</time>
      </trkpt>
      <trkpt lat="41.99128" lon="33.53208">
        <ele>53.567942</ele>
        <time>2021-08-20T16:53:54.086Z</time>
      </trkpt>
      <trkpt lat="41.99115" lon="33.53196">
        <ele>51.76127</ele>
        <time>2021-08-20T16:53:56.939Z</time>
      </trkpt>
      <trkpt lat="41.99102" lon="33.53195">
        <ele>50.269073</ele>
        <time>2021-08-20T16:53:59.327Z</time>
      </trkpt>
      <trkpt lat="41.9906" lon="33.53236">
        <ele>44.322564</ele>
        <time>2021-08-20T16:54:08.829Z</time>
      </trkpt>
      <trkpt lat="41.99038" lon="33.53238">
        <ele>41.795676</ele>
        <time>2021-08-20T16:54:12.972Z</time>
      </trkpt>
      <trkpt lat="41.99023" lon="33.53232">
        <ele>40.002357</ele>
        <time>2021-08-20T16:54:15.936Z</time>
      </trkpt>
      <trkpt lat="41.99016" lon="33.5321">
        <ele>37.964012</ele>
        <time>2021-08-20T16:54:19.443Z</time>
      </trkpt>
      <trkpt lat="41.99017" lon="33.53195">
        <ele>36.685095</ele>
        <time>2021-08-20T16:54:21.642Z</time>
      </trkpt>
      <trkpt lat="41.99022" lon="33.53172">
        <ele>34.627164</ele>
        <time>2021-08-20T16:54:25.193Z</time>
      </trkpt>
      <trkpt lat="41.99061" lon="33.53075">
        <ele>29.30277</ele>
        <time>2021-08-20T16:54:41.255Z</time>
      </trkpt>
      <trkpt lat="41.99091" lon="33.53029">
        <ele>26.771561</ele>
        <time>2021-08-20T16:54:50.472Z</time>
      </trkpt>
      <trkpt lat="41.99164" lon="33.52995">
        <ele>23.369267</ele>
        <time>2021-08-20T16:55:08.122Z</time>
      </trkpt>
      <trkpt lat="41.9919" lon="33.52982">
        <ele>23.937665</ele>
        <time>2021-08-20T16:55:16.357Z</time>
      </trkpt>
      <trkpt lat="41.99213" lon="33.52971">
        <ele>24.435326</ele>
        <time>2021-08-20T16:55:26.495Z</time>
      </trkpt>
      <trkpt lat="41.99231" lon="33.52948">
        <ele>24.93948</ele>
        <time>2021-08-20T16:55:36.912Z</time>
      </trkpt>
      <trkpt lat="41.99277" lon="33.52824">
        <ele>27.192497</ele>
        <time>2021-08-20T16:56:32.884Z</time>
      </trkpt>
      <trkpt lat="41.99306" lon="33.52789">
        <ele>28.540805</ele>
        <time>2021-08-20T16:56:55.867Z</time>
      </trkpt>
      <trkpt lat="41.99341" lon="33.52764">
        <ele>29.933067</ele>
        <time>2021-08-20T16:57:17.079Z</time>
      </trkpt>
      <trkpt lat="41.99367" lon="33.5272">
        <ele>31.362091</ele>
        <time>2021-08-20T16:57:37.151Z</time>
      </trkpt>
      <trkpt lat="41.99387" lon="33.52697">
        <ele>32.285335</ele>
        <time>2021-08-20T16:57:49.185Z</time>
      </trkpt>
      <trkpt lat="41.99406" lon="33.52696">
        <ele>32.952745</ele>
        <time>2021-08-20T16:57:57.530Z</time>
      </trkpt>
      <trkpt lat="41.99418" lon="33.52708">
        <ele>33.586689</ele>
        <time>2021-08-20T16:58:03.866Z</time>
      </trkpt>
      <trkpt lat="41.99444" lon="33.52758">
        <ele>35.532845</ele>
        <time>2021-08-20T16:58:23.618Z</time>
      </trkpt>
      <trkpt lat="41.9946" lon="33.52779">
        <ele>36.464519</ele>
        <time>2021-08-20T16:58:34.404Z</time>
      </trkpt>
      <trkpt lat="41.995" lon="33.52791">
        <ele>38.200287</ele>
        <time>2021-08-20T16:58:57.132Z</time>
      </trkpt>
      <trkpt lat="41.99562" lon="33.52827">
        <ele>41.765072</ele>
        <time>2021-08-20T16:59:39.957Z</time>
      </trkpt>
      <trkpt lat="41.99602" lon="33.52851">
        <ele>46.749231</ele>
        <time>2021-08-20T17:00:13.683Z</time>
      </trkpt>
      <trkpt lat="41.99636" lon="33.5286">
        <ele>50.728214</ele>
        <time>2021-08-20T17:00:43.796Z</time>
      </trkpt>
      <trkpt lat="41.99676" lon="33.5286">
        <ele>55.218996</ele>
        <time>2021-08-20T17:01:23.622Z</time>
      </trkpt>
      <trkpt lat="41.99711" lon="33.5283">
        <ele>59.967763</ele>
        <time>2021-08-20T17:02:11.881Z</time>
      </trkpt>
      <trkpt lat="41.9973" lon="33.52821">
        <ele>63.01393</ele>
        <time>2021-08-20T17:02:36.346Z</time>
      </trkpt>
      <trkpt lat="41.99774" lon="33.52813">
        <ele>71.648961</ele>
        <time>2021-08-20T17:03:32.690Z</time>
      </trkpt>
      <trkpt lat="41.99848" lon="33.52738">
        <ele>89.727692</ele>
        <time>2021-08-20T17:05:47.370Z</time>
      </trkpt>
      <trkpt lat="41.99873" lon="33.52677">
        <ele>99.436199</ele>
        <time>2021-08-20T17:07:09.953Z</time>
      </trkpt>
      <trkpt lat="41.99868" lon="33.52506">
        <ele>121.690716</ele>
        <time>2021-08-20T17:10:05.845Z</time>
      </trkpt>
      <trkpt lat="41.99871" lon="33.52472">
        <ele>126.16607</ele>
        <time>2021-08-20T17:10:34.311Z</time>
      </trkpt>
      <trkpt lat="41.99879" lon="33.52446">
        <ele>128.025124</ele>
        <time>2021-08-20T17:10:50.314Z</time>
      </trkpt>
      <trkpt lat="41.99907" lon="33.52329">
        <ele>130.92448</ele>
        <time>2021-08-20T17:11:46.941Z</time>
      </trkpt>
      <trkpt lat="41.99933" lon="33.52185">
        <ele>132.548883</ele>
        <time>2021-08-20T17:12:12.280Z</time>
      </trkpt>
      <trkpt lat="41.99946" lon="33.5215">
        <ele>131.883847</ele>
        <time>2021-08-20T17:12:19.004Z</time>
      </trkpt>
      <trkpt lat="41.99966" lon="33.52041">
        <ele>129.975615</ele>
        <time>2021-08-20T17:12:39.718Z</time>
      </trkpt>
      <trkpt lat="42.00027" lon="33.51906">
        <ele>127.226075</ele>
        <time>2021-08-20T17:13:09.240Z</time>
      </trkpt>
      <trkpt lat="42.00045" lon="33.51846">
        <ele>126.089768</ele>
        <time>2021-08-20T17:13:20.727Z</time>
      </trkpt>
      <trkpt lat="42.00072" lon="33.51692">
        <ele>123.04082</ele>
        <time>2021-08-20T17:13:47.652Z</time>
      </trkpt>
      <trkpt lat="42.00084" lon="33.51668">
        <ele>122.450079</ele>
        <time>2021-08-20T17:13:52.525Z</time>
      </trkpt>
      <trkpt lat="42.00139" lon="33.51637">
        <ele>120.811401</ele>
        <time>2021-08-20T17:14:05.961Z</time>
      </trkpt>
      <trkpt lat="42.00156" lon="33.51622">
        <ele>120.252752</ele>
        <time>2021-08-20T17:14:10.920Z</time>
      </trkpt>
      <trkpt lat="42.0016" lon="33.51605">
        <ele>120.054575</ele>
        <time>2021-08-20T17:14:14.341Z</time>
      </trkpt>
      <trkpt lat="42.00158" lon="33.51573">
        <ele>120.183876</ele>
        <time>2021-08-20T17:14:21.096Z</time>
      </trkpt>
      <trkpt lat="42.00107" lon="33.51503">
        <ele>120.57859</ele>
        <time>2021-08-20T17:14:47.809Z</time>
      </trkpt>
      <trkpt lat="42.00086" lon="33.51485">
        <ele>120.713496</ele>
        <time>2021-08-20T17:14:57.960Z</time>
      </trkpt>
      <trkpt lat="42.00018" lon="33.51467">
        <ele>120.713543</ele>
        <time>2021-08-20T17:15:25.745Z</time>
      </trkpt>
      <trkpt lat="41.99998" lon="33.51454">
        <ele>120.315774</ele>
        <time>2021-08-20T17:15:33.470Z</time>
      </trkpt>
      <trkpt lat="41.99986" lon="33.51425">
        <ele>119.874024</ele>
        <time>2021-08-20T17:15:41.173Z</time>
      </trkpt>
      <trkpt lat="41.9998" lon="33.51372">
        <ele>119.160524</ele>
        <time>2021-08-20T17:15:51.684Z</time>
      </trkpt>
      <trkpt lat="41.99983" lon="33.51293">
        <ele>118.107763</ele>
        <time>2021-08-20T17:16:04.957Z</time>
      </trkpt>
      <trkpt lat="41.99998" lon="33.51232">
        <ele>116.53853</ele>
        <time>2021-08-20T17:16:15.030Z</time>
      </trkpt>
      <trkpt lat="42.00041" lon="33.51169">
        <ele>113.860496</ele>
        <time>2021-08-20T17:16:28.044Z</time>
      </trkpt>
      <trkpt lat="42.00164" lon="33.51144">
        <ele>110.773441</ele>
        <time>2021-08-20T17:16:56.263Z</time>
      </trkpt>
      <trkpt lat="42.00188" lon="33.51114">
        <ele>111.270395</ele>
        <time>2021-08-20T17:17:08.697Z</time>
      </trkpt>
      <trkpt lat="42.00197" lon="33.51081">
        <ele>111.666699</ele>
        <time>2021-08-20T17:17:21.220Z</time>
      </trkpt>
      <trkpt lat="42.00188" lon="33.50954">
        <ele>113.101239</ele>
        <time>2021-08-20T17:18:10.894Z</time>
      </trkpt>
      <trkpt lat="42.00187" lon="33.50876">
        <ele>113.961699</ele>
        <time>2021-08-20T17:18:40.904Z</time>
      </trkpt>
      <trkpt lat="42.00177" lon="33.50862">
        <ele>114.175885</ele>
        <time>2021-08-20T17:18:47.971Z</time>
      </trkpt>
      <trkpt lat="41.99988" lon="33.5081">
        <ele>112.771619</ele>
        <time>2021-08-20T17:19:44.354Z</time>
      </trkpt>
      <trkpt lat="41.99889" lon="33.50757">
        <ele>108.384242</ele>
        <time>2021-08-20T17:20:06.525Z</time>
      </trkpt>
      <trkpt lat="41.99844" lon="33.50713">
        <ele>103.747564</ele>
        <time>2021-08-20T17:20:17.427Z</time>
      </trkpt>
      <trkpt lat="41.99766" lon="33.50603">
        <ele>94.185567</ele>
        <time>2021-08-20T17:20:39.153Z</time>
      </trkpt>
      <trkpt lat="41.99734" lon="33.50576">
        <ele>90.595394</ele>
        <time>2021-08-20T17:20:46.342Z</time>
      </trkpt>
      <trkpt lat="41.99662" lon="33.50553">
        <ele>83.561465</ele>
        <time>2021-08-20T17:21:00.476Z</time>
      </trkpt>
      <trkpt lat="41.99636" lon="33.5055">
        <ele>81.081055</ele>
        <time>2021-08-20T17:21:05.526Z</time>
      </trkpt>
      <trkpt lat="41.99612" lon="33.50557">
        <ele>78.746838</ele>
        <time>2021-08-20T17:21:10.329Z</time>
      </trkpt>
      <trkpt lat="41.99592" lon="33.50555">
        <ele>76.693241</ele>
        <time>2021-08-20T17:21:14.271Z</time>
      </trkpt>
      <trkpt lat="41.99564" lon="33.50539">
        <ele>73.500998</ele>
        <time>2021-08-20T17:21:20.022Z</time>
      </trkpt>
      <trkpt lat="41.99522" lon="33.50444">
        <ele>64.880188</ele>
        <time>2021-08-20T17:21:35.380Z</time>
      </trkpt>
      <trkpt lat="41.99517" lon="33.5041">
        <ele>62.177122</ele>
        <time>2021-08-20T17:21:40.240Z</time>
      </trkpt>
      <trkpt lat="41.99525" lon="33.5038">
        <ele>59.691377</ele>
        <time>2021-08-20T17:21:44.822Z</time>
      </trkpt>
      <trkpt lat="41.99538" lon="33.50366">
        <ele>58.53145</ele>
        <time>2021-08-20T17:21:47.909Z</time>
      </trkpt>
      <trkpt lat="41.99557" lon="33.50369">
        <ele>57.343745</ele>
        <time>2021-08-20T17:21:51.717Z</time>
      </trkpt>
      <trkpt lat="41.9958" lon="33.50386">
        <ele>55.714536</ele>
        <time>2021-08-20T17:21:56.716Z</time>
      </trkpt>
      <trkpt lat="41.99602" lon="33.50394">
        <ele>54.29967</ele>
        <time>2021-08-20T17:22:01.131Z</time>
      </trkpt>
      <trkpt lat="41.99732" lon="33.50404">
        <ele>49.192659</ele>
        <time>2021-08-20T17:22:29.382Z</time>
      </trkpt>
      <trkpt lat="41.99928" lon="33.50468">
        <ele>59.7855</ele>
        <time>2021-08-20T17:24:29.209Z</time>
      </trkpt>
      <trkpt lat="42.00025" lon="33.5048">
        <ele>70.808191</ele>
        <time>2021-08-20T17:26:09.213Z</time>
      </trkpt>
      <trkpt lat="42.00047" lon="33.50473">
        <ele>73.366332</ele>
        <time>2021-08-20T17:26:36.746Z</time>
      </trkpt>
      <trkpt lat="42.0008" lon="33.5045">
        <ele>79.700103</ele>
        <time>2021-08-20T17:27:25.474Z</time>
      </trkpt>
      <trkpt lat="42.00182" lon="33.50332">
        <ele>104.051674</ele>
        <time>2021-08-20T17:30:32.556Z</time>
      </trkpt>
      <trkpt lat="42.00195" lon="33.50306">
        <ele>107.836579</ele>
        <time>2021-08-20T17:31:03.089Z</time>
      </trkpt>
      <trkpt lat="42.00195" lon="33.50279">
        <ele>110.538187</ele>
        <time>2021-08-20T17:31:28.914Z</time>
      </trkpt>
      <trkpt lat="42.00182" lon="33.5023">
        <ele>115.744204</ele>
        <time>2021-08-20T17:32:15.423Z</time>
      </trkpt>
      <trkpt lat="42.00155" lon="33.49996">
        <ele>136.665483</ele>
        <time>2021-08-20T17:35:00.361Z</time>
      </trkpt>
      <trkpt lat="42.00162" lon="33.49953">
        <ele>139.655447</ele>
        <time>2021-08-20T17:35:26.160Z</time>
      </trkpt>
      <trkpt lat="42.00165" lon="33.49946">
        <ele>140.233982</ele>
        <time>2021-08-20T17:35:31.535Z</time>
      </trkpt>
      <trkpt lat="42.00197" lon="33.49867">
        <ele>146.315489</ele>
        <time>2021-08-20T17:36:22.879Z</time>
      </trkpt>
      <trkpt lat="42.0019" lon="33.49817">
        <ele>148.27682</ele>
        <time>2021-08-20T17:36:50.788Z</time>
      </trkpt>
      <trkpt lat="42.00119" lon="33.49756">
        <ele>151.423432</ele>
        <time>2021-08-20T17:37:43.308Z</time>
      </trkpt>
      <trkpt lat="42.00087" lon="33.49654">
        <ele>153.055418</ele>
        <time>2021-08-20T17:38:12.831Z</time>
      </trkpt>
      <trkpt lat="42.00096" lon="33.49521">
        <ele>146.760642</ele>
        <time>2021-08-20T17:38:33.827Z</time>
      </trkpt>
      <trkpt lat="42.00151" lon="33.49331">
        <ele>133.111037</ele>
        <time>2021-08-20T17:39:02.375Z</time>
      </trkpt>
      <trkpt lat="42.00156" lon="33.49296">
        <ele>130.175847</ele>
        <time>2021-08-20T17:39:07.297Z</time>
      </trkpt>
      <trkpt lat="42.0015" lon="33.49262">
        <ele>127.29792</ele>
        <time>2021-08-20T17:39:12.137Z</time>
      </trkpt>
      <trkpt lat="42.00097" lon="33.49181">
        <ele>120.255278</ele>
        <time>2021-08-20T17:39:27.345Z</time>
      </trkpt>
      <trkpt lat="42.00096" lon="33.49159">
        <ele>119.235427</ele>
        <time>2021-08-20T17:39:30.536Z</time>
      </trkpt>
      <trkpt lat="42.00105" lon="33.49146">
        <ele>118.413333</ele>
        <time>2021-08-20T17:39:33.116Z</time>
      </trkpt>
      <trkpt lat="42.00152" lon="33.49128">
        <ele>115.370721</ele>
        <time>2021-08-20T17:39:42.916Z</time>
      </trkpt>
      <trkpt lat="42.00263" lon="33.49054">
        <ele>113.051256</ele>
        <time>2021-08-20T17:40:13.424Z</time>
      </trkpt>
      <trkpt lat="42.00276" lon="33.4903">
        <ele>113.645745</ele>
        <time>2021-08-20T17:40:23.296Z</time>
      </trkpt>
      <trkpt lat="42.00277" lon="33.49005">
        <ele>114.146896</ele>
        <time>2021-08-20T17:40:32.927Z</time>
      </trkpt>
      <trkpt lat="42.0027" lon="33.48985">
        <ele>114.589418</ele>
        <time>2021-08-20T17:40:42.291Z</time>
      </trkpt>
      <trkpt lat="42.00233" lon="33.48945">
        <ele>115.867865</ele>
        <time>2021-08-20T17:41:12.251Z</time>
      </trkpt>
      <trkpt lat="42.00218" lon="33.48917">
        <ele>117.182001</ele>
        <time>2021-08-20T17:41:30.575Z</time>
      </trkpt>
      <trkpt lat="42.00226" lon="33.48872">
        <ele>120.089622</ele>
        <time>2021-08-20T17:41:57.111Z</time>
      </trkpt>
      <trkpt lat="42.00257" lon="33.48793">
        <ele>125.703642</ele>
        <time>2021-08-20T17:42:52.697Z</time>
      </trkpt>
      <trkpt lat="42.00256" lon="33.48771">
        <ele>127.088711</ele>
        <time>2021-08-20T17:43:06.944Z</time>
      </trkpt>
      <trkpt lat="42.00247" lon="33.48743">
        <ele>129.005783</ele>
        <time>2021-08-20T17:43:27.236Z</time>
      </trkpt>
      <trkpt lat="42.00082" lon="33.48478">
        <ele>145.72105</ele>
        <time>2021-08-20T17:46:36.554Z</time>
      </trkpt>
      <trkpt lat="42.00072" lon="33.48394">
        <ele>146.700041</ele>
        <time>2021-08-20T17:46:55.218Z</time>
      </trkpt>
      <trkpt lat="42.00084" lon="33.48375">
        <ele>146.98699</ele>
        <time>2021-08-20T17:46:59.887Z</time>
      </trkpt>
      <trkpt lat="42.00102" lon="33.4837">
        <ele>147.271608</ele>
        <time>2021-08-20T17:47:04.606Z</time>
      </trkpt>
      <trkpt lat="42.00193" lon="33.48405">
        <ele>150.57956</ele>
        <time>2021-08-20T17:47:28.364Z</time>
      </trkpt>
      <trkpt lat="42.0026" lon="33.48403">
        <ele>153.5758</ele>
        <time>2021-08-20T17:48:05.948Z</time>
      </trkpt>
      <trkpt lat="42.00275" lon="33.48389">
        <ele>154.40303</ele>
        <time>2021-08-20T17:48:22.879Z</time>
      </trkpt>
      <trkpt lat="42.00276" lon="33.48374">
        <ele>154.905661</ele>
        <time>2021-08-20T17:48:33.229Z</time>
      </trkpt>
      <trkpt lat="42.00252" lon="33.4827">
        <ele>163.19832</ele>
        <time>2021-08-20T17:49:53.600Z</time>
      </trkpt>
      <trkpt lat="42.00247" lon="33.48233">
        <ele>166.664351</ele>
        <time>2021-08-20T17:50:26.257Z</time>
      </trkpt>
      <trkpt lat="42.00242" lon="33.48198">
        <ele>169.843998</ele>
        <time>2021-08-20T17:50:54.679Z</time>
      </trkpt>
      <trkpt lat="42.00238" lon="33.48142">
        <ele>174.9666</ele>
        <time>2021-08-20T17:51:38.584Z</time>
      </trkpt>
      <trkpt lat="42.00253" lon="33.48074">
        <ele>178.679145</ele>
        <time>2021-08-20T17:52:28.081Z</time>
      </trkpt>
      <trkpt lat="42.00255" lon="33.48026">
        <ele>179.650011</ele>
        <time>2021-08-20T17:52:55.373Z</time>
      </trkpt>
      <trkpt lat="42.00251" lon="33.47879">
        <ele>182.626309</ele>
        <time>2021-08-20T17:53:28.909Z</time>
      </trkpt>
      <trkpt lat="42.00291" lon="33.47744">
        <ele>173.999715</ele>
        <time>2021-08-20T17:53:50.490Z</time>
      </trkpt>
      <trkpt lat="42.00303" lon="33.47663">
        <ele>168.711302</ele>
        <time>2021-08-20T17:54:02.044Z</time>
      </trkpt>
      <trkpt lat="42.00317" lon="33.47625">
        <ele>165.086868</ele>
        <time>2021-08-20T17:54:07.908Z</time>
      </trkpt>
      <trkpt lat="42.00358" lon="33.47554">
        <ele>155.546093</ele>
        <time>2021-08-20T17:54:20.098Z</time>
      </trkpt>
      <trkpt lat="42.00361" lon="33.47508">
        <ele>150.607047</ele>
        <time>2021-08-20T17:54:26.289Z</time>
      </trkpt>
      <trkpt lat="42.0036" lon="33.47402">
        <ele>139.340051</ele>
        <time>2021-08-20T17:54:40.581Z</time>
      </trkpt>
      <trkpt lat="42.00337" lon="33.47373">
        <ele>134.883955</ele>
        <time>2021-08-20T17:54:46.390Z</time>
      </trkpt>
      <trkpt lat="42.00336" lon="33.47356">
        <ele>133.125511</ele>
        <time>2021-08-20T17:54:48.636Z</time>
      </trkpt>
      <trkpt lat="42.00341" lon="33.47331">
        <ele>130.421209</ele>
        <time>2021-08-20T17:54:52.231Z</time>
      </trkpt>
      <trkpt lat="42.00367" lon="33.47267">
        <ele>122.818537</ele>
        <time>2021-08-20T17:55:02.079Z</time>
      </trkpt>
      <trkpt lat="42.00389" lon="33.47251">
        <ele>119.32015</ele>
        <time>2021-08-20T17:55:06.692Z</time>
      </trkpt>
      <trkpt lat="42.00412" lon="33.4721">
        <ele>114.894212</ele>
        <time>2021-08-20T17:55:13.698Z</time>
      </trkpt>
      <trkpt lat="42.00416" lon="33.47149">
        <ele>111.246952</ele>
        <time>2021-08-20T17:55:22.347Z</time>
      </trkpt>
      <trkpt lat="42.00411" lon="33.47119">
        <ele>109.41577</ele>
        <time>2021-08-20T17:55:26.842Z</time>
      </trkpt>
      <trkpt lat="42.00388" lon="33.47082">
        <ele>106.542667</ele>
        <time>2021-08-20T17:55:34.035Z</time>
      </trkpt>
      <trkpt lat="42.00379" lon="33.47058">
        <ele>104.941526</ele>
        <time>2021-08-20T17:55:38.146Z</time>
      </trkpt>
      <trkpt lat="42.0038" lon="33.47044">
        <ele>104.103842</ele>
        <time>2021-08-20T17:55:40.316Z</time>
      </trkpt>
      <trkpt lat="42.00393" lon="33.47033">
        <ele>102.873024</ele>
        <time>2021-08-20T17:55:43.560Z</time>
      </trkpt>
      <trkpt lat="42.00443" lon="33.47023">
        <ele>100.930523</ele>
        <time>2021-08-20T17:55:54.774Z</time>
      </trkpt>
      <trkpt lat="42.00466" lon="33.47011">
        <ele>100.382791</ele>
        <time>2021-08-20T17:56:00.752Z</time>
      </trkpt>
      <trkpt lat="42.0049" lon="33.4695">
        <ele>99.262434</ele>
        <time>2021-08-20T17:56:14.413Z</time>
      </trkpt>
      <trkpt lat="42.00485" lon="33.46855">
        <ele>97.661717</ele>
        <time>2021-08-20T17:56:35.082Z</time>
      </trkpt>
      <trkpt lat="42.00514" lon="33.46579">
        <ele>89.342555</ele>
        <time>2021-08-20T17:57:21.586Z</time>
      </trkpt>
      <trkpt lat="42.00498" lon="33.46508">
        <ele>84.864166</ele>
        <time>2021-08-20T17:57:32.603Z</time>
      </trkpt>
      <trkpt lat="42.00502" lon="33.46436">
        <ele>80.529211</ele>
        <time>2021-08-20T17:57:42.927Z</time>
      </trkpt>
      <trkpt lat="42.00516" lon="33.46386">
        <ele>77.298062</ele>
        <time>2021-08-20T17:57:50.417Z</time>
      </trkpt>
      <trkpt lat="42.00532" lon="33.46351">
        <ele>73.090103</ele>
        <time>2021-08-20T17:57:56.106Z</time>
      </trkpt>
      <trkpt lat="42.00534" lon="33.46327">
        <ele>70.615121</ele>
        <time>2021-08-20T17:57:59.391Z</time>
      </trkpt>
      <trkpt lat="42.00489" lon="33.4623">
        <ele>58.720346</ele>
        <time>2021-08-20T17:58:15.137Z</time>
      </trkpt>
      <trkpt lat="42.00466" lon="33.4614">
        <ele>48.355599</ele>
        <time>2021-08-20T17:58:27.818Z</time>
      </trkpt>
      <trkpt lat="42.00422" lon="33.4606">
        <ele>36.534601</ele>
        <time>2021-08-20T17:58:41.040Z</time>
      </trkpt>
      <trkpt lat="42.00427" lon="33.46045">
        <ele>34.59729</ele>
        <time>2021-08-20T17:58:43.180Z</time>
      </trkpt>
      <trkpt lat="42.00429" lon="33.46038">
        <ele>33.611933</ele>
        <time>2021-08-20T17:58:44.306Z</time>
      </trkpt>
      <trkpt lat="42.00442" lon="33.46017">
        <ele>30.361416</ele>
        <time>2021-08-20T17:58:47.980Z</time>
      </trkpt>
      <trkpt lat="42.00483" lon="33.45994">
        <ele>23.231706</ele>
        <time>2021-08-20T17:58:56.040Z</time>
      </trkpt>
      <trkpt lat="42.00536" lon="33.45969">
        <ele>19.160887</ele>
        <time>2021-08-20T17:59:06.476Z</time>
      </trkpt>
      <trkpt lat="42.00584" lon="33.45946">
        <ele>15.435658</ele>
        <time>2021-08-20T17:59:16.520Z</time>
      </trkpt>
      <trkpt lat="42.00636" lon="33.4592">
        <ele>11.462092</ele>
        <time>2021-08-20T17:59:29.090Z</time>
      </trkpt>
      <trkpt lat="42.00658" lon="33.45885">
        <ele>10.73309</ele>
        <time>2021-08-20T17:59:37.909Z</time>
      </trkpt>
      <trkpt lat="42.00659" lon="33.4584">
        <ele>11.841162</ele>
        <time>2021-08-20T17:59:50.387Z</time>
      </trkpt>
      <trkpt lat="42.00649" lon="33.45819">
        <ele>12.470617</ele>
        <time>2021-08-20T17:59:59.727Z</time>
      </trkpt>
      <trkpt lat="42.00589" lon="33.45775">
        <ele>14.730789</ele>
        <time>2021-08-20T18:00:38.069Z</time>
      </trkpt>
      <trkpt lat="42.0058" lon="33.45739">
        <ele>15.676215</ele>
        <time>2021-08-20T18:00:55.687Z</time>
      </trkpt>
      <trkpt lat="42.00579" lon="33.4571">
        <ele>16.689682</ele>
        <time>2021-08-20T18:01:10.313Z</time>
      </trkpt>
      <trkpt lat="42.00576" lon="33.45665">
        <ele>19.382339</ele>
        <time>2021-08-20T18:01:34.074Z</time>
      </trkpt>
      <trkpt lat="42.0057" lon="33.4557">
        <ele>25.108908</ele>
        <time>2021-08-20T18:02:28.990Z</time>
      </trkpt>
      <trkpt lat="42.00526" lon="33.45402">
        <ele>36.580158</ele>
        <time>2021-08-20T18:04:16.801Z</time>
      </trkpt>
      <trkpt lat="42.00502" lon="33.45328">
        <ele>42.259234</ele>
        <time>2021-08-20T18:05:07.527Z</time>
      </trkpt>
      <trkpt lat="42.00478" lon="33.45281">
        <ele>46.292932</ele>
        <time>2021-08-20T18:05:44.494Z</time>
      </trkpt>
      <trkpt lat="42.00404" lon="33.45216">
        <ele>54.697365</ele>
        <time>2021-08-20T18:07:01.207Z</time>
      </trkpt>
      <trkpt lat="42.00394" lon="33.45189">
        <ele>56.837606</ele>
        <time>2021-08-20T18:07:21.077Z</time>
      </trkpt>
      <trkpt lat="42.00403" lon="33.4517">
        <ele>58.454573</ele>
        <time>2021-08-20T18:07:36.453Z</time>
      </trkpt>
      <trkpt lat="42.00415" lon="33.45171">
        <ele>59.61852</ele>
        <time>2021-08-20T18:07:47.118Z</time>
      </trkpt>
      <trkpt lat="42.0053" lon="33.45262">
        <ele>70.707021</ele>
        <time>2021-08-20T18:09:31.930Z</time>
      </trkpt>
      <trkpt lat="42.00545" lon="33.45287">
        <ele>72.454733</ele>
        <time>2021-08-20T18:09:47.712Z</time>
      </trkpt>
      <trkpt lat="42.0056" lon="33.45331">
        <ele>75.163225</ele>
        <time>2021-08-20T18:10:11.615Z</time>
      </trkpt>
      <trkpt lat="42.0063" lon="33.45426">
        <ele>83.852783</ele>
        <time>2021-08-20T18:11:21.178Z</time>
      </trkpt>
      <trkpt lat="42.00649" lon="33.45511">
        <ele>90.185885</ele>
        <time>2021-08-20T18:12:15.383Z</time>
      </trkpt>
      <trkpt lat="42.00683" lon="33.45576">
        <ele>95.935416</ele>
        <time>2021-08-20T18:13:13.175Z</time>
      </trkpt>
      <trkpt lat="42.00706" lon="33.45602">
        <ele>99.622608</ele>
        <time>2021-08-20T18:13:45.808Z</time>
      </trkpt>
      <trkpt lat="42.00723" lon="33.45613">
        <ele>101.917168</ele>
        <time>2021-08-20T18:14:11.642Z</time>
      </trkpt>
      <trkpt lat="42.0074" lon="33.45615">
        <ele>104.008029</ele>
        <time>2021-08-20T18:14:29.783Z</time>
      </trkpt>
      <trkpt lat="42.00761" lon="33.45603">
        <ele>106.795232</ele>
        <time>2021-08-20T18:14:58.333Z</time>
      </trkpt>
      <trkpt lat="42.00793" lon="33.45536">
        <ele>114.069337</ele>
        <time>2021-08-20T18:16:05.387Z</time>
      </trkpt>
      <trkpt lat="42.008" lon="33.45501">
        <ele>117.359148</ele>
        <time>2021-08-20T18:16:16.645Z</time>
      </trkpt>
      <trkpt lat="42.00799" lon="33.45495">
        <ele>117.516425</ele>
        <time>2021-08-20T18:16:24.832Z</time>
      </trkpt>
      <trkpt lat="42.00791" lon="33.4549">
        <ele>117.628449</ele>
        <time>2021-08-20T18:16:26.760Z</time>
      </trkpt>
      <trkpt lat="42.00744" lon="33.45454">
        <ele>118.325546</ele>
        <time>2021-08-20T18:16:49.120Z</time>
      </trkpt>
      <trkpt lat="42.00707" lon="33.45413">
        <ele>118.940664</ele>
        <time>2021-08-20T18:17:13.882Z</time>
      </trkpt>
      <trkpt lat="42.00697" lon="33.45409">
        <ele>119.078199</ele>
        <time>2021-08-20T18:17:15.890Z</time>
      </trkpt>
      <trkpt lat="42.00685" lon="33.45405">
        <ele>119.238514</ele>
        <time>2021-08-20T18:17:18.341Z</time>
      </trkpt>
      <trkpt lat="42.0067" lon="33.45402">
        <ele>119.437284</ele>
        <time>2021-08-20T18:17:28.451Z</time>
      </trkpt>
      <trkpt lat="42.00651" lon="33.45384">
        <ele>119.734493</ele>
        <time>2021-08-20T18:17:33.023Z</time>
      </trkpt>
      <trkpt lat="42.00645" lon="33.4537">
        <ele>119.949093</ele>
        <time>2021-08-20T18:17:36.428Z</time>
      </trkpt>
      <trkpt lat="42.00643" lon="33.45336">
        <ele>120.50827</ele>
        <time>2021-08-20T18:17:41.875Z</time>
      </trkpt>
      <trkpt lat="42.00629" lon="33.45314">
        <ele>120.977481</ele>
        <time>2021-08-20T18:17:47.097Z</time>
      </trkpt>
      <trkpt lat="42.00619" lon="33.45267">
        <ele>121.775319</ele>
        <time>2021-08-20T18:17:57.026Z</time>
      </trkpt>
      <trkpt lat="42.00606" lon="33.4525">
        <ele>122.180131</ele>
        <time>2021-08-20T18:18:04.850Z</time>
      </trkpt>
      <trkpt lat="42.00593" lon="33.45224">
        <ele>122.676433</ele>
        <time>2021-08-20T18:18:17.790Z</time>
      </trkpt>
      <trkpt lat="42.00587" lon="33.45209">
        <ele>122.960802</ele>
        <time>2021-08-20T18:18:28.239Z</time>
      </trkpt>
      <trkpt lat="42.00522" lon="33.45123">
        <ele>130.449211</ele>
        <time>2021-08-20T18:19:41.840Z</time>
      </trkpt>
      <trkpt lat="42.00514" lon="33.4504">
        <ele>137.95898</ele>
        <time>2021-08-20T18:20:49.035Z</time>
      </trkpt>
      <trkpt lat="42.00495" lon="33.44971">
        <ele>144.571956</ele>
        <time>2021-08-20T18:21:49.333Z</time>
      </trkpt>
      <trkpt lat="42.00475" lon="33.44934">
        <ele>149.141208</ele>
        <time>2021-08-20T18:22:26.330Z</time>
      </trkpt>
      <trkpt lat="42.0046" lon="33.44916">
        <ele>151.953124</ele>
        <time>2021-08-20T18:22:48.346Z</time>
      </trkpt>
      <trkpt lat="42.00436" lon="33.44903">
        <ele>155.534291</ele>
        <time>2021-08-20T18:23:15.628Z</time>
      </trkpt>
      <trkpt lat="42.00422" lon="33.44895">
        <ele>157.667976</ele>
        <time>2021-08-20T18:23:33.622Z</time>
      </trkpt>
      <trkpt lat="42.00404" lon="33.44864">
        <ele>161.639345</ele>
        <time>2021-08-20T18:24:03.774Z</time>
      </trkpt>
      <trkpt lat="42.00387" lon="33.44798">
        <ele>168.851439</ele>
        <time>2021-08-20T18:25:01.123Z</time>
      </trkpt>
      <trkpt lat="42.00388" lon="33.44754">
        <ele>173.230974</ele>
        <time>2021-08-20T18:25:37.601Z</time>
      </trkpt>
      <trkpt lat="42.00402" lon="33.44718">
        <ele>177.322291</ele>
        <time>2021-08-20T18:26:12.071Z</time>
      </trkpt>
      <trkpt lat="42.00404" lon="33.44691">
        <ele>180.027251</ele>
        <time>2021-08-20T18:26:31.966Z</time>
      </trkpt>
      <trkpt lat="42.00376" lon="33.44637">
        <ele>186.493544</ele>
        <time>2021-08-20T18:27:20.322Z</time>
      </trkpt>
      <trkpt lat="42.00364" lon="33.44579">
        <ele>192.431931</ele>
        <time>2021-08-20T18:28:07.580Z</time>
      </trkpt>
      <trkpt lat="42.00347" lon="33.44526">
        <ele>198.632317</ele>
        <time>2021-08-20T18:28:54.156Z</time>
      </trkpt>
      <trkpt lat="42.0034" lon="33.44457">
        <ele>206.531403</ele>
        <time>2021-08-20T18:29:51.499Z</time>
      </trkpt>
      <trkpt lat="42.0033" lon="33.44427">
        <ele>210.298078</ele>
        <time>2021-08-20T18:30:20.467Z</time>
      </trkpt>
      <trkpt lat="42.003" lon="33.4438">
        <ele>217.367646</ele>
        <time>2021-08-20T18:31:18.790Z</time>
      </trkpt>
      <trkpt lat="42.0026" lon="33.44278">
        <ele>231.334036</ele>
        <time>2021-08-20T18:33:04.777Z</time>
      </trkpt>
      <trkpt lat="42.00246" lon="33.44238">
        <ele>236.968521</ele>
        <time>2021-08-20T18:33:46.088Z</time>
      </trkpt>
      <trkpt lat="42.00241" lon="33.44233">
        <ele>237.966837</ele>
        <time>2021-08-20T18:33:54.606Z</time>
      </trkpt>
      <trkpt lat="42.00199" lon="33.44203">
        <ele>246.003698</ele>
        <time>2021-08-20T18:34:53.709Z</time>
      </trkpt>
      <trkpt lat="42.00146" lon="33.44177">
        <ele>255.392224</ele>
        <time>2021-08-20T18:36:07.658Z</time>
      </trkpt>
      <trkpt lat="42.00136" lon="33.44166">
        <ele>257.32638</ele>
        <time>2021-08-20T18:36:24.600Z</time>
      </trkpt>
      <trkpt lat="42.00126" lon="33.44142">
        <ele>260.546939</ele>
        <time>2021-08-20T18:36:51.672Z</time>
      </trkpt>
      <trkpt lat="42.00125" lon="33.44105">
        <ele>264.856591</ele>
        <time>2021-08-20T18:37:25.529Z</time>
      </trkpt>
      <trkpt lat="42.00117" lon="33.4406">
        <ele>270.172159</ele>
        <time>2021-08-20T18:38:05.622Z</time>
      </trkpt>
      <trkpt lat="42.00085" lon="33.43996">
        <ele>279.137869</ele>
        <time>2021-08-20T18:39:10.857Z</time>
      </trkpt>
      <trkpt lat="42.0007" lon="33.43977">
        <ele>281.208024</ele>
        <time>2021-08-20T18:39:32.915Z</time>
      </trkpt>
      <trkpt lat="42.00023" lon="33.43941">
        <ele>285.107537</ele>
        <time>2021-08-20T18:40:23.971Z</time>
      </trkpt>
      <trkpt lat="42.00003" lon="33.43931">
        <ele>286.62347</ele>
        <time>2021-08-20T18:40:40.855Z</time>
      </trkpt>
      <trkpt lat="41.99943" lon="33.43917">
        <ele>291.040503</ele>
        <time>2021-08-20T18:41:19.348Z</time>
      </trkpt>
      <trkpt lat="41.99925" lon="33.43897">
        <ele>292.740934</ele>
        <time>2021-08-20T18:41:29.786Z</time>
      </trkpt>
      <trkpt lat="41.99918" lon="33.43871">
        <ele>292.81655</ele>
        <time>2021-08-20T18:41:34.627Z</time>
      </trkpt>
      <trkpt lat="41.99913" lon="33.43822">
        <ele>291.721619</ele>
        <time>2021-08-20T18:41:43.553Z</time>
      </trkpt>
      <trkpt lat="41.99877" lon="33.43778">
        <ele>290.265078</ele>
        <time>2021-08-20T18:41:54.638Z</time>
      </trkpt>
      <trkpt lat="41.99858" lon="33.43719">
        <ele>288.841212</ele>
        <time>2021-08-20T18:42:04.993Z</time>
      </trkpt>
      <trkpt lat="41.99856" lon="33.43711">
        <ele>288.668278</ele>
        <time>2021-08-20T18:42:06.054Z</time>
      </trkpt>
      <trkpt lat="41.99854" lon="33.43706">
        <ele>288.534715</ele>
        <time>2021-08-20T18:42:07.070Z</time>
      </trkpt>
      <trkpt lat="41.99856" lon="33.43664">
        <ele>287.781354</ele>
        <time>2021-08-20T18:42:13.563Z</time>
      </trkpt>
      <trkpt lat="41.99872" lon="33.43558">
        <ele>286.915588</ele>
        <time>2021-08-20T18:42:32.387Z</time>
      </trkpt>
      <trkpt lat="41.99848" lon="33.43509">
        <ele>286.440727</ele>
        <time>2021-08-20T18:42:45.528Z</time>
      </trkpt>
      <trkpt lat="41.99847" lon="33.43487">
        <ele>286.270004</ele>
        <time>2021-08-20T18:42:54.363Z</time>
      </trkpt>
      <trkpt lat="41.9985" lon="33.43464">
        <ele>286.077984</ele>
        <time>2021-08-20T18:43:00.175Z</time>
      </trkpt>
      <trkpt lat="41.99852" lon="33.43443">
        <ele>285.968988</ele>
        <time>2021-08-20T18:43:09.440Z</time>
      </trkpt>
      <trkpt lat="41.99847" lon="33.43385">
        <ele>286.464091</ele>
        <time>2021-08-20T18:43:28.153Z</time>
      </trkpt>
      <trkpt lat="41.9985" lon="33.43289">
        <ele>287.277521</ele>
        <time>2021-08-20T18:43:59.847Z</time>
      </trkpt>
      <trkpt lat="41.99827" lon="33.43025">
        <ele>285.816949</ele>
        <time>2021-08-20T18:44:53.476Z</time>
      </trkpt>
      <trkpt lat="41.99832" lon="33.4297">
        <ele>285.156172</ele>
        <time>2021-08-20T18:45:02.649Z</time>
      </trkpt>
      <trkpt lat="41.99844" lon="33.42906">
        <ele>284.355532</ele>
        <time>2021-08-20T18:45:14.093Z</time>
      </trkpt>
      <trkpt lat="41.99845" lon="33.42889">
        <ele>284.143695</ele>
        <time>2021-08-20T18:45:17.050Z</time>
      </trkpt>
      <trkpt lat="41.99843" lon="33.42866">
        <ele>283.871246</ele>
        <time>2021-08-20T18:45:21.002Z</time>
      </trkpt>
      <trkpt lat="41.99833" lon="33.42833">
        <ele>283.435884</ele>
        <time>2021-08-20T18:45:27.449Z</time>
      </trkpt>
      <trkpt lat="41.99789" lon="33.42756">
        <ele>282.253096</ele>
        <time>2021-08-20T18:45:46.746Z</time>
      </trkpt>
      <trkpt lat="41.99786" lon="33.42727">
        <ele>282.584025</ele>
        <time>2021-08-20T18:45:54.167Z</time>
      </trkpt>
      <trkpt lat="41.99762" lon="33.4264">
        <ele>284.396711</ele>
        <time>2021-08-20T18:46:26.447Z</time>
      </trkpt>
      <trkpt lat="41.99765" lon="33.42553">
        <ele>286.119903</ele>
        <time>2021-08-20T18:47:00.779Z</time>
      </trkpt>
      <trkpt lat="41.99744" lon="33.42485">
        <ele>287.513215</ele>
        <time>2021-08-20T18:47:28.023Z</time>
      </trkpt>
      <trkpt lat="41.99747" lon="33.42451">
        <ele>288.138065</ele>
        <time>2021-08-20T18:47:40.358Z</time>
      </trkpt>
      <trkpt lat="41.9977" lon="33.42394">
        <ele>289.3164</ele>
        <time>2021-08-20T18:48:03.307Z</time>
      </trkpt>
      <trkpt lat="41.99795" lon="33.4235">
        <ele>290.341925</ele>
        <time>2021-08-20T18:48:21.642Z</time>
      </trkpt>
      <trkpt lat="41.99804" lon="33.42316">
        <ele>290.987467</ele>
        <time>2021-08-20T18:48:31.983Z</time>
      </trkpt>
      <trkpt lat="41.99778" lon="33.42169">
        <ele>291.972808</ele>
        <time>2021-08-20T18:49:12.157Z</time>
      </trkpt>
      <trkpt lat="41.99758" lon="33.4212">
        <ele>292.239433</ele>
        <time>2021-08-20T18:49:25.466Z</time>
      </trkpt>
      <trkpt lat="41.99755" lon="33.42099">
        <ele>292.344329</ele>
        <time>2021-08-20T18:49:29.879Z</time>
      </trkpt>
      <trkpt lat="41.99756" lon="33.42055">
        <ele>292.614443</ele>
        <time>2021-08-20T18:49:40.717Z</time>
      </trkpt>
      <trkpt lat="41.99753" lon="33.42027">
        <ele>292.898917</ele>
        <time>2021-08-20T18:49:49.702Z</time>
      </trkpt>
      <trkpt lat="41.99751" lon="33.42012">
        <ele>293.058067</ele>
        <time>2021-08-20T18:49:52.692Z</time>
      </trkpt>
      <trkpt lat="41.99743" lon="33.41971">
        <ele>293.477013</ele>
        <time>2021-08-20T18:50:04.506Z</time>
      </trkpt>
      <trkpt lat="41.99733" lon="33.41921">
        <ele>294.001373</ele>
        <time>2021-08-20T18:50:18.623Z</time>
      </trkpt>
      <trkpt lat="41.99724" lon="33.4188">
        <ele>294.428426</ele>
        <time>2021-08-20T18:50:31.956Z</time>
      </trkpt>
      <trkpt lat="41.99639" lon="33.41613">
        <ele>299.902922</ele>
        <time>2021-08-20T18:52:10.828Z</time>
      </trkpt>
      <trkpt lat="41.99632" lon="33.41587">
        <ele>300.889651</ele>
        <time>2021-08-20T18:52:21.593Z</time>
      </trkpt>
      <trkpt lat="41.99633" lon="33.41531">
        <ele>303.019516</ele>
        <time>2021-08-20T18:52:45.006Z</time>
      </trkpt>
      <trkpt lat="41.99627" lon="33.41479">
        <ele>304.986703</ele>
        <time>2021-08-20T18:53:07.683Z</time>
      </trkpt>
      <trkpt lat="41.99597" lon="33.41379">
        <ele>309.043916</ele>
        <time>2021-08-20T18:53:57.054Z</time>
      </trkpt>
      <trkpt lat="41.99578" lon="33.41333">
        <ele>312.095717</ele>
        <time>2021-08-20T18:54:27.346Z</time>
      </trkpt>
      <trkpt lat="41.99585" lon="33.41266">
        <ele>315.914056</ele>
        <time>2021-08-20T18:55:07.338Z</time>
      </trkpt>
      <trkpt lat="41.99587" lon="33.41194">
        <ele>320.051481</ele>
        <time>2021-08-20T18:55:49.949Z</time>
      </trkpt>
      <trkpt lat="41.99604" lon="33.41152">
        <ele>322.734927</ele>
        <time>2021-08-20T18:56:15.823Z</time>
      </trkpt>
      <trkpt lat="41.99635" lon="33.41118">
        <ele>324.265958</ele>
        <time>2021-08-20T18:56:42.727Z</time>
      </trkpt>
      <trkpt lat="41.99659" lon="33.4109">
        <ele>325.444286</ele>
        <time>2021-08-20T18:57:02.119Z</time>
      </trkpt>
      <trkpt lat="41.99696" lon="33.41037">
        <ele>327.430706</ele>
        <time>2021-08-20T18:57:32.640Z</time>
      </trkpt>
      <trkpt lat="41.99706" lon="33.41035">
        <ele>327.787017</ele>
        <time>2021-08-20T18:57:36.768Z</time>
      </trkpt>
      <trkpt lat="41.99725" lon="33.41042">
        <ele>328.513218</ele>
        <time>2021-08-20T18:57:45.334Z</time>
      </trkpt>
      <trkpt lat="41.99752" lon="33.41035">
        <ele>329.354082</ele>
        <time>2021-08-20T18:57:53.506Z</time>
      </trkpt>
      <trkpt lat="41.99785" lon="33.41002">
        <ele>327.653291</ele>
        <time>2021-08-20T18:58:03.892Z</time>
      </trkpt>
      <trkpt lat="41.99795" lon="33.40997">
        <ele>327.203079</ele>
        <time>2021-08-20T18:58:06.606Z</time>
      </trkpt>
      <trkpt lat="41.99811" lon="33.40997">
        <ele>326.529812</ele>
        <time>2021-08-20T18:58:10.265Z</time>
      </trkpt>
      <trkpt lat="41.99864" lon="33.41014">
        <ele>324.282237</ele>
        <time>2021-08-20T18:58:22.143Z</time>
      </trkpt>
      <trkpt lat="41.99878" lon="33.41009">
        <ele>323.711871</ele>
        <time>2021-08-20T18:58:25.109Z</time>
      </trkpt>
      <trkpt lat="41.99895" lon="33.40993">
        <ele>322.858574</ele>
        <time>2021-08-20T18:58:29.564Z</time>
      </trkpt>
      <trkpt lat="41.99911" lon="33.40943">
        <ele>320.889079</ele>
        <time>2021-08-20T18:58:38.459Z</time>
      </trkpt>
      <trkpt lat="41.99923" lon="33.40932">
        <ele>320.117985</ele>
        <time>2021-08-20T18:58:41.509Z</time>
      </trkpt>
      <trkpt lat="41.99938" lon="33.40928">
        <ele>319.263342</ele>
        <time>2021-08-20T18:58:44.862Z</time>
      </trkpt>
      <trkpt lat="41.99962" lon="33.40932">
        <ele>317.929106</ele>
        <time>2021-08-20T18:58:50.062Z</time>
      </trkpt>
      <trkpt lat="41.99999" lon="33.40955">
        <ele>315.71458</ele>
        <time>2021-08-20T18:58:58.760Z</time>
      </trkpt>
      <trkpt lat="42.00024" lon="33.40948">
        <ele>314.361883</ele>
        <time>2021-08-20T18:59:04.127Z</time>
      </trkpt>
      <trkpt lat="42.00033" lon="33.40951">
        <ele>313.828153</ele>
        <time>2021-08-20T18:59:06.271Z</time>
      </trkpt>
      <trkpt lat="42.00055" lon="33.40987">
        <ele>312.217162</ele>
        <time>2021-08-20T18:59:13.969Z</time>
      </trkpt>
      <trkpt lat="42.00094" lon="33.41021">
        <ele>312.333146</ele>
        <time>2021-08-20T18:59:25.748Z</time>
      </trkpt>
      <trkpt lat="42.00109" lon="33.41028">
        <ele>312.372009</ele>
        <time>2021-08-20T18:59:30.458Z</time>
      </trkpt>
      <trkpt lat="42.00119" lon="33.41026">
        <ele>312.399063</ele>
        <time>2021-08-20T18:59:34.135Z</time>
      </trkpt>
      <trkpt lat="42.00151" lon="33.40986">
        <ele>312.505559</ele>
        <time>2021-08-20T18:59:51.272Z</time>
      </trkpt>
      <trkpt lat="42.00171" lon="33.40973">
        <ele>312.561667</ele>
        <time>2021-08-20T19:00:01.267Z</time>
      </trkpt>
      <trkpt lat="42.00187" lon="33.40972">
        <ele>312.600497</ele>
        <time>2021-08-20T19:00:08.563Z</time>
      </trkpt>
      <trkpt lat="42.00263" lon="33.41015">
        <ele>315.145552</ele>
        <time>2021-08-20T19:00:51.763Z</time>
      </trkpt>
      <trkpt lat="42.00285" lon="33.41013">
        <ele>316.056405</ele>
        <time>2021-08-20T19:01:05.091Z</time>
      </trkpt>
      <trkpt lat="42.00302" lon="33.40998">
        <ele>316.912873</ele>
        <time>2021-08-20T19:01:18.493Z</time>
      </trkpt>
      <trkpt lat="42.00314" lon="33.40976">
        <ele>317.733014</ele>
        <time>2021-08-20T19:01:31.535Z</time>
      </trkpt>
      <trkpt lat="42.00325" lon="33.40935">
        <ele>319.056272</ele>
        <time>2021-08-20T19:01:51.581Z</time>
      </trkpt>
      <trkpt lat="42.00328" lon="33.40868">
        <ele>319.667564</ele>
        <time>2021-08-20T19:02:17.596Z</time>
      </trkpt>
      <trkpt lat="42.00318" lon="33.40792">
        <ele>318.981042</ele>
        <time>2021-08-20T19:02:38.398Z</time>
      </trkpt>
      <trkpt lat="42.00308" lon="33.40757">
        <ele>318.642951</ele>
        <time>2021-08-20T19:02:45.775Z</time>
      </trkpt>
      <trkpt lat="42.00286" lon="33.40715">
        <ele>318.17658</ele>
        <time>2021-08-20T19:02:55.064Z</time>
      </trkpt>
      <trkpt lat="42.00257" lon="33.40697">
        <ele>317.521015</ele>
        <time>2021-08-20T19:03:01.984Z</time>
      </trkpt>
      <trkpt lat="42.00251" lon="33.40687">
        <ele>316.096518</ele>
        <time>2021-08-20T19:03:04.176Z</time>
      </trkpt>
      <trkpt lat="42.00261" lon="33.40626">
        <ele>309.631071</ele>
        <time>2021-08-20T19:03:13.719Z</time>
      </trkpt>
      <trkpt lat="42.00261" lon="33.40598">
        <ele>306.689131</ele>
        <time>2021-08-20T19:03:17.827Z</time>
      </trkpt>
      <trkpt lat="42.00242" lon="33.40519">
        <ele>298.0857</ele>
        <time>2021-08-20T19:03:29.447Z</time>
      </trkpt>
      <trkpt lat="42.00247" lon="33.40516">
        <ele>297.306001</ele>
        <time>2021-08-20T19:03:30.475Z</time>
      </trkpt>
      <trkpt lat="42.00308" lon="33.40541">
        <ele>285.586774</ele>
        <time>2021-08-20T19:03:42.157Z</time>
      </trkpt>
      <trkpt lat="42.00332" lon="33.40569">
        <ele>278.152388</ele>
        <time>2021-08-20T19:03:47.955Z</time>
      </trkpt>
      <trkpt lat="42.00339" lon="33.40556">
        <ele>275.253916</ele>
        <time>2021-08-20T19:03:51.803Z</time>
      </trkpt>
      <trkpt lat="42.00343" lon="33.40541">
        <ele>272.489141</ele>
        <time>2021-08-20T19:03:55.455Z</time>
      </trkpt>
      <trkpt lat="42.0036" lon="33.40531">
        <ele>268.056759</ele>
        <time>2021-08-20T19:04:01.277Z</time>
      </trkpt>
      <trkpt lat="42.00389" lon="33.40509">
        <ele>260.14844</ele>
        <time>2021-08-20T19:04:11.683Z</time>
      </trkpt>
      <trkpt lat="42.00402" lon="33.405">
        <ele>256.739414</ele>
        <time>2021-08-20T19:04:14.384Z</time>
      </trkpt>
      <trkpt lat="42.00448" lon="33.40506">
        <ele>246.903556</ele>
        <time>2021-08-20T19:04:22.835Z</time>
      </trkpt>
      <trkpt lat="42.00469" lon="33.40508">
        <ele>243.101429</ele>
        <time>2021-08-20T19:04:26.769Z</time>
      </trkpt>
      <trkpt lat="42.00496" lon="33.40486">
        <ele>237.353787</ele>
        <time>2021-08-20T19:04:32.740Z</time>
      </trkpt>
      <trkpt lat="42.00525" lon="33.40464">
        <ele>231.359436</ele>
        <time>2021-08-20T19:04:38.964Z</time>
      </trkpt>
      <trkpt lat="42.00538" lon="33.40459">
        <ele>228.913052</ele>
        <time>2021-08-20T19:04:41.520Z</time>
      </trkpt>
      <trkpt lat="42.00581" lon="33.40467">
        <ele>221.051907</ele>
        <time>2021-08-20T19:04:49.944Z</time>
      </trkpt>
      <trkpt lat="42.00621" lon="33.40455">
        <ele>216.164731</ele>
        <time>2021-08-20T19:04:57.794Z</time>
      </trkpt>
      <trkpt lat="42.00749" lon="33.40478">
        <ele>207.156461</ele>
        <time>2021-08-20T19:05:25.008Z</time>
      </trkpt>
      <trkpt lat="42.0085" lon="33.40473">
        <ele>203.695424</ele>
        <time>2021-08-20T19:05:50.415Z</time>
      </trkpt>
      <trkpt lat="42.00853" lon="33.40468">
        <ele>203.605163</ele>
        <time>2021-08-20T19:05:51.607Z</time>
      </trkpt>
      <trkpt lat="42.00847" lon="33.40455">
        <ele>203.392147</ele>
        <time>2021-08-20T19:05:54.615Z</time>
      </trkpt>
      <trkpt lat="42.00801" lon="33.40419">
        <ele>202.34221</ele>
        <time>2021-08-20T19:06:09.605Z</time>
      </trkpt>
      <trkpt lat="42.00752" lon="33.40391">
        <ele>201.121803</ele>
        <time>2021-08-20T19:06:24.624Z</time>
      </trkpt>
      <trkpt lat="42.00729" lon="33.40341">
        <ele>199.772078</ele>
        <time>2021-08-20T19:06:35.971Z</time>
      </trkpt>
      <trkpt lat="42.00696" lon="33.40284">
        <ele>198.107213</ele>
        <time>2021-08-20T19:06:48.995Z</time>
      </trkpt>
      <trkpt lat="42.00673" lon="33.40256">
        <ele>197.154802</ele>
        <time>2021-08-20T19:06:56.081Z</time>
      </trkpt>
      <trkpt lat="42.00654" lon="33.40246">
        <ele>196.51401</ele>
        <time>2021-08-20T19:07:00.788Z</time>
      </trkpt>
      <trkpt lat="42.00634" lon="33.40239">
        <ele>195.733369</ele>
        <time>2021-08-20T19:07:05.398Z</time>
      </trkpt>
      <trkpt lat="42.00607" lon="33.40245">
        <ele>194.003997</ele>
        <time>2021-08-20T19:07:11.428Z</time>
      </trkpt>
      <trkpt lat="42.00593" lon="33.40254">
        <ele>192.965983</ele>
        <time>2021-08-20T19:07:15.036Z</time>
      </trkpt>
      <trkpt lat="42.00585" lon="33.40267">
        <ele>192.185669</ele>
        <time>2021-08-20T19:07:17.722Z</time>
      </trkpt>
      <trkpt lat="42.00577" lon="33.40268">
        <ele>191.670844</ele>
        <time>2021-08-20T19:07:19.463Z</time>
      </trkpt>
      <trkpt lat="42.00544" lon="33.40251">
        <ele>189.448779</ele>
        <time>2021-08-20T19:07:26.951Z</time>
      </trkpt>
      <trkpt lat="42.00515" lon="33.40253">
        <ele>187.594903</ele>
        <time>2021-08-20T19:07:33.104Z</time>
      </trkpt>
      <trkpt lat="42.00485" lon="33.40245">
        <ele>185.674962</ele>
        <time>2021-08-20T19:07:39.397Z</time>
      </trkpt>
      <trkpt lat="42.00455" lon="33.4025">
        <ele>183.330946</ele>
        <time>2021-08-20T19:07:45.723Z</time>
      </trkpt>
      <trkpt lat="42.00454" lon="33.40245">
        <ele>182.932258</ele>
        <time>2021-08-20T19:07:46.539Z</time>
      </trkpt>
      <trkpt lat="42.0046" lon="33.40239">
        <ele>182.286482</ele>
        <time>2021-08-20T19:07:47.927Z</time>
      </trkpt>
      <trkpt lat="42.00541" lon="33.40194">
        <ele>174.142892</ele>
        <time>2021-08-20T19:08:06.000Z</time>
      </trkpt>
      <trkpt lat="42.00581" lon="33.40181">
        <ele>170.384568</ele>
        <time>2021-08-20T19:08:14.269Z</time>
      </trkpt>
      <trkpt lat="42.00587" lon="33.40173">
        <ele>169.570955</ele>
        <time>2021-08-20T19:08:15.935Z</time>
      </trkpt>
      <trkpt lat="42.00587" lon="33.40169">
        <ele>169.267683</ele>
        <time>2021-08-20T19:08:16.569Z</time>
      </trkpt>
      <trkpt lat="42.00528" lon="33.40155">
        <ele>162.062745</ele>
        <time>2021-08-20T19:08:28.326Z</time>
      </trkpt>
      <trkpt lat="42.00492" lon="33.40159">
        <ele>157.293193</ele>
        <time>2021-08-20T19:08:35.395Z</time>
      </trkpt>
      <trkpt lat="42.0048" lon="33.40151">
        <ele>155.51124</ele>
        <time>2021-08-20T19:08:37.918Z</time>
      </trkpt>
      <trkpt lat="42.00478" lon="33.40142">
        <ele>154.571801</ele>
        <time>2021-08-20T19:08:39.303Z</time>
      </trkpt>
      <trkpt lat="42.00479" lon="33.40135">
        <ele>153.824554</ele>
        <time>2021-08-20T19:08:40.460Z</time>
      </trkpt>
      <trkpt lat="42.005" lon="33.40111">
        <ele>150.228323</ele>
        <time>2021-08-20T19:08:45.622Z</time>
      </trkpt>
      <trkpt lat="42.00568" lon="33.40059">
        <ele>140.332137</ele>
        <time>2021-08-20T19:09:00.680Z</time>
      </trkpt>
      <trkpt lat="42.00591" lon="33.4005">
        <ele>137.400249</ele>
        <time>2021-08-20T19:09:05.280Z</time>
      </trkpt>
      <trkpt lat="42.00596" lon="33.40043">
        <ele>136.54086</ele>
        <time>2021-08-20T19:09:06.546Z</time>
      </trkpt>
      <trkpt lat="42.00639" lon="33.3999">
        <ele>129.450625</ele>
        <time>2021-08-20T19:09:17.270Z</time>
      </trkpt>
      <trkpt lat="42.00656" lon="33.39977">
        <ele>127.009667</ele>
        <time>2021-08-20T19:09:21.007Z</time>
      </trkpt>
      <trkpt lat="42.00753" lon="33.3996">
        <ele>120.378369</ele>
        <time>2021-08-20T19:09:39.840Z</time>
      </trkpt>
      <trkpt lat="42.00783" lon="33.39946">
        <ele>119.254004</ele>
        <time>2021-08-20T19:09:47.012Z</time>
      </trkpt>
      <trkpt lat="42.00819" lon="33.39912">
        <ele>117.728855</ele>
        <time>2021-08-20T19:09:57.751Z</time>
      </trkpt>
      <trkpt lat="42.00935" lon="33.39899">
        <ele>120.431516</ele>
        <time>2021-08-20T19:10:50.793Z</time>
      </trkpt>
      <trkpt lat="42.00962" lon="33.39881">
        <ele>122.182717</ele>
        <time>2021-08-20T19:11:12.024Z</time>
      </trkpt>
      <trkpt lat="42.0098" lon="33.3986">
        <ele>123.573276</ele>
        <time>2021-08-20T19:11:30.936Z</time>
      </trkpt>
      <trkpt lat="42.01052" lon="33.39732">
        <ele>130.279332</ele>
        <time>2021-08-20T19:13:07.836Z</time>
      </trkpt>
      <trkpt lat="42.01069" lon="33.39686">
        <ele>132.413901</ele>
        <time>2021-08-20T19:13:34.603Z</time>
      </trkpt>
      <trkpt lat="42.0107" lon="33.39653">
        <ele>133.759864</ele>
        <time>2021-08-20T19:13:49.451Z</time>
      </trkpt>
      <trkpt lat="42.01041" lon="33.39574">
        <ele>135.897781</ele>
        <time>2021-08-20T19:14:16.355Z</time>
      </trkpt>
      <trkpt lat="42.0104" lon="33.39556">
        <ele>135.328917</ele>
        <time>2021-08-20T19:14:19.853Z</time>
      </trkpt>
      <trkpt lat="42.01048" lon="33.39525">
        <ele>134.262832</ele>
        <time>2021-08-20T19:14:25.712Z</time>
      </trkpt>
      <trkpt lat="42.01067" lon="33.395">
        <ele>133.116717</ele>
        <time>2021-08-20T19:14:31.403Z</time>
      </trkpt>
      <trkpt lat="42.0109" lon="33.39483">
        <ele>131.955942</ele>
        <time>2021-08-20T19:14:36.893Z</time>
      </trkpt>
      <trkpt lat="42.01167" lon="33.39467">
        <ele>128.557092</ele>
        <time>2021-08-20T19:14:52.363Z</time>
      </trkpt>
      <trkpt lat="42.01203" lon="33.39446">
        <ele>126.715677</ele>
        <time>2021-08-20T19:15:00.145Z</time>
      </trkpt>
      <trkpt lat="42.01234" lon="33.39415">
        <ele>124.868396</ele>
        <time>2021-08-20T19:15:08.188Z</time>
      </trkpt>
      <trkpt lat="42.01249" lon="33.3939">
        <ele>123.753016</ele>
        <time>2021-08-20T19:15:13.186Z</time>
      </trkpt>
      <trkpt lat="42.0126" lon="33.39342">
        <ele>121.969896</ele>
        <time>2021-08-20T19:15:21.536Z</time>
      </trkpt>
      <trkpt lat="42.01254" lon="33.39297">
        <ele>120.393</ele>
        <time>2021-08-20T19:15:29.445Z</time>
      </trkpt>
      <trkpt lat="42.01198" lon="33.39216">
        <ele>118.985453</ele>
        <time>2021-08-20T19:15:51.929Z</time>
      </trkpt>
      <trkpt lat="42.01162" lon="33.39189">
        <ele>118.348677</ele>
        <time>2021-08-20T19:16:04.414Z</time>
      </trkpt>
      <trkpt lat="42.01137" lon="33.39179">
        <ele>117.942535</ele>
        <time>2021-08-20T19:16:12.443Z</time>
      </trkpt>
      <trkpt lat="42.01119" lon="33.3916">
        <ele>117.601034</ele>
        <time>2021-08-20T19:16:18.847Z</time>
      </trkpt>
      <trkpt lat="42.01111" lon="33.39132">
        <ele>116.726336</ele>
        <time>2021-08-20T19:16:23.621Z</time>
      </trkpt>
      <trkpt lat="42.01106" lon="33.39068">
        <ele>113.923413</ele>
        <time>2021-08-20T19:16:34.002Z</time>
      </trkpt>
      <trkpt lat="42.01069" lon="33.38981">
        <ele>109.5541</ele>
        <time>2021-08-20T19:16:49.093Z</time>
      </trkpt>
      <trkpt lat="42.0107" lon="33.38971">
        <ele>109.109912</ele>
        <time>2021-08-20T19:16:50.493Z</time>
      </trkpt>
      <trkpt lat="42.01072" lon="33.38962">
        <ele>108.662748</ele>
        <time>2021-08-20T19:16:51.853Z</time>
      </trkpt>
      <trkpt lat="42.0109" lon="33.38941">
        <ele>107.276951</ele>
        <time>2021-08-20T19:16:56.817Z</time>
      </trkpt>
      <trkpt lat="42.01178" lon="33.38866">
        <ele>100.287135</ele>
        <time>2021-08-20T19:17:17.330Z</time>
      </trkpt>
      <trkpt lat="42.01185" lon="33.38859">
        <ele>99.739173</ele>
        <time>2021-08-20T19:17:18.861Z</time>
      </trkpt>
      <trkpt lat="42.01192" lon="33.38854">
        <ele>99.16525</ele>
        <time>2021-08-20T19:17:20.402Z</time>
      </trkpt>
      <trkpt lat="42.01246" lon="33.38839">
        <ele>95.454644</ele>
        <time>2021-08-20T19:17:32.568Z</time>
      </trkpt>
      <trkpt lat="42.01265" lon="33.38827">
        <ele>94.516076</ele>
        <time>2021-08-20T19:17:36.928Z</time>
      </trkpt>
      <trkpt lat="42.01279" lon="33.38808">
        <ele>94.23551</ele>
        <time>2021-08-20T19:17:41.629Z</time>
      </trkpt>
      <trkpt lat="42.01305" lon="33.3875">
        <ele>93.552497</ele>
        <time>2021-08-20T19:17:53.154Z</time>
      </trkpt>
      <trkpt lat="42.01317" lon="33.38701">
        <ele>93.019889</ele>
        <time>2021-08-20T19:18:04.803Z</time>
      </trkpt>
      <trkpt lat="42.01317" lon="33.38673">
        <ele>92.743809</ele>
        <time>2021-08-20T19:18:11.274Z</time>
      </trkpt>
      <trkpt lat="42.01312" lon="33.38649">
        <ele>92.481856</ele>
        <time>2021-08-20T19:18:17.792Z</time>
      </trkpt>
      <trkpt lat="42.01293" lon="33.38614">
        <ele>92.262722</ele>
        <time>2021-08-20T19:18:29.284Z</time>
      </trkpt>
      <trkpt lat="42.01289" lon="33.38594">
        <ele>92.436463</ele>
        <time>2021-08-20T19:18:35.094Z</time>
      </trkpt>
      <trkpt lat="42.01295" lon="33.38575">
        <ele>92.609352</ele>
        <time>2021-08-20T19:18:41.172Z</time>
      </trkpt>
      <trkpt lat="42.01334" lon="33.38534">
        <ele>93.153962</ele>
        <time>2021-08-20T19:18:59.574Z</time>
      </trkpt>
      <trkpt lat="42.01376" lon="33.38413">
        <ele>94.172169</ele>
        <time>2021-08-20T19:19:37.985Z</time>
      </trkpt>
      <trkpt lat="42.01383" lon="33.38359">
        <ele>94.21607</ele>
        <time>2021-08-20T19:19:52.713Z</time>
      </trkpt>
      <trkpt lat="42.01375" lon="33.38276">
        <ele>94.283304</ele>
        <time>2021-08-20T19:20:12.803Z</time>
      </trkpt>
      <trkpt lat="42.01385" lon="33.38235">
        <ele>94.318324</ele>
        <time>2021-08-20T19:20:21.681Z</time>
      </trkpt>
      <trkpt lat="42.01403" lon="33.38209">
        <ele>94.346971</ele>
        <time>2021-08-20T19:20:28.540Z</time>
      </trkpt>
      <trkpt lat="42.01498" lon="33.38133">
        <ele>95.620732</ele>
        <time>2021-08-20T19:21:01.835Z</time>
      </trkpt>
      <trkpt lat="42.01514" lon="33.38106">
        <ele>95.946877</ele>
        <time>2021-08-20T19:21:12.324Z</time>
      </trkpt>
      <trkpt lat="42.01514" lon="33.3807">
        <ele>96.282702</ele>
        <time>2021-08-20T19:21:24.440Z</time>
      </trkpt>
      <trkpt lat="42.01485" lon="33.37894">
        <ele>101.338306</ele>
        <time>2021-08-20T19:22:41.121Z</time>
      </trkpt>
      <trkpt lat="42.01497" lon="33.37803">
        <ele>104.346123</ele>
        <time>2021-08-20T19:23:22.160Z</time>
      </trkpt>
      <trkpt lat="42.01497" lon="33.3777">
        <ele>104.764419</ele>
        <time>2021-08-20T19:23:35.044Z</time>
      </trkpt>
      <trkpt lat="42.0147" lon="33.37672">
        <ele>105.703594</ele>
        <time>2021-08-20T19:24:09.530Z</time>
      </trkpt>
      <trkpt lat="42.01459" lon="33.37485">
        <ele>104.785702</ele>
        <time>2021-08-20T19:24:47.060Z</time>
      </trkpt>
      <trkpt lat="42.01459" lon="33.37464">
        <ele>104.258776</ele>
        <time>2021-08-20T19:24:50.662Z</time>
      </trkpt>
      <trkpt lat="42.0146" lon="33.37323">
        <ele>100.799288</ele>
        <time>2021-08-20T19:25:13.498Z</time>
      </trkpt>
      <trkpt lat="42.01459" lon="33.37306">
        <ele>99.971224</ele>
        <time>2021-08-20T19:25:16.274Z</time>
      </trkpt>
      <trkpt lat="42.01457" lon="33.37289">
        <ele>99.086856</ele>
        <time>2021-08-20T19:25:18.860Z</time>
      </trkpt>
      <trkpt lat="42.0142" lon="33.37175">
        <ele>92.672965</ele>
        <time>2021-08-20T19:25:37.560Z</time>
      </trkpt>
      <trkpt lat="42.01417" lon="33.37157">
        <ele>91.711809</ele>
        <time>2021-08-20T19:25:40.249Z</time>
      </trkpt>
      <trkpt lat="42.01419" lon="33.37125">
        <ele>90.013422</ele>
        <time>2021-08-20T19:25:45.043Z</time>
      </trkpt>
      <trkpt lat="42.01454" lon="33.37047">
        <ele>84.410187</ele>
        <time>2021-08-20T19:25:58.137Z</time>
      </trkpt>
      <trkpt lat="42.01472" lon="33.37022">
        <ele>82.069717</ele>
        <time>2021-08-20T19:26:03.099Z</time>
      </trkpt>
      <trkpt lat="42.01508" lon="33.36995">
        <ele>78.354967</ele>
        <time>2021-08-20T19:26:10.935Z</time>
      </trkpt>
      <trkpt lat="42.01513" lon="33.36972">
        <ele>76.693876</ele>
        <time>2021-08-20T19:26:14.435Z</time>
      </trkpt>
      <trkpt lat="42.01503" lon="33.36963">
        <ele>75.557675</ele>
        <time>2021-08-20T19:26:16.834Z</time>
      </trkpt>
      <trkpt lat="42.0143" lon="33.36954">
        <ele>68.426441</ele>
        <time>2021-08-20T19:26:30.816Z</time>
      </trkpt>
      <trkpt lat="42.01382" lon="33.36927">
        <ele>62.901664</ele>
        <time>2021-08-20T19:26:40.563Z</time>
      </trkpt>
      <trkpt lat="42.01325" lon="33.36942">
        <ele>56.659345</ele>
        <time>2021-08-20T19:26:51.495Z</time>
      </trkpt>
      <trkpt lat="42.01314" lon="33.36939">
        <ele>55.498688</ele>
        <time>2021-08-20T19:26:53.529Z</time>
      </trkpt>
      <trkpt lat="42.01297" lon="33.36923">
        <ele>53.241303</ele>
        <time>2021-08-20T19:26:57.535Z</time>
      </trkpt>
      <trkpt lat="42.01262" lon="33.36843">
        <ele>46.385448</ele>
        <time>2021-08-20T19:27:10.587Z</time>
      </trkpt>
      <trkpt lat="42.01255" lon="33.36828">
        <ele>45.077677</ele>
        <time>2021-08-20T19:27:13.067Z</time>
      </trkpt>
      <trkpt lat="42.01242" lon="33.368">
        <ele>42.694576</ele>
        <time>2021-08-20T19:27:17.703Z</time>
      </trkpt>
      <trkpt lat="42.01226" lon="33.36786">
        <ele>40.773651</ele>
        <time>2021-08-20T19:27:21.392Z</time>
      </trkpt>
      <trkpt lat="42.01159" lon="33.36812">
        <ele>34.173585</ele>
        <time>2021-08-20T19:27:34.672Z</time>
      </trkpt>
      <trkpt lat="42.0113" lon="33.36809">
        <ele>31.979883</ele>
        <time>2021-08-20T19:27:40.509Z</time>
      </trkpt>
      <trkpt lat="42.01002" lon="33.36678">
        <ele>20.459391</ele>
        <time>2021-08-20T19:28:12.695Z</time>
      </trkpt>
      <trkpt lat="42.00995" lon="33.36667">
        <ele>19.954936</ele>
        <time>2021-08-20T19:28:14.626Z</time>
      </trkpt>
      <trkpt lat="42.00991" lon="33.36655">
        <ele>19.461453</ele>
        <time>2021-08-20T19:28:16.687Z</time>
      </trkpt>
      <trkpt lat="42.00989" lon="33.36642">
        <ele>18.946072</ele>
        <time>2021-08-20T19:28:19.007Z</time>
      </trkpt>
      <trkpt lat="42.00988" lon="33.36627">
        <ele>18.415343</ele>
        <time>2021-08-20T19:28:21.129Z</time>
      </trkpt>
      <trkpt lat="42.00988" lon="33.36613">
        <ele>17.89062</ele>
        <time>2021-08-20T19:28:23.253Z</time>
      </trkpt>
      <trkpt lat="42.00993" lon="33.36575">
        <ele>16.465412</ele>
        <time>2021-08-20T19:28:29.299Z</time>
      </trkpt>
      <trkpt lat="42.00998" lon="33.36564">
        <ele>16.006136</ele>
        <time>2021-08-20T19:28:31.250Z</time>
      </trkpt>
      <trkpt lat="42.01003" lon="33.36555">
        <ele>15.566934</ele>
        <time>2021-08-20T19:28:33.349Z</time>
      </trkpt>
      <trkpt lat="42.01036" lon="33.36505">
        <ele>13.123859</ele>
        <time>2021-08-20T19:28:44.059Z</time>
      </trkpt>
      <trkpt lat="42.0104" lon="33.36491">
        <ele>12.550594</ele>
        <time>2021-08-20T19:28:46.495Z</time>
      </trkpt>
      <trkpt lat="42.01044" lon="33.36479">
        <ele>12.534192</ele>
        <time>2021-08-20T19:28:49.165Z</time>
      </trkpt>
      <trkpt lat="42.01047" lon="33.36469">
        <ele>12.585305</ele>
        <time>2021-08-20T19:28:51.447Z</time>
      </trkpt>
      <trkpt lat="42.01059" lon="33.36419">
        <ele>12.826863</ele>
        <time>2021-08-20T19:29:02.867Z</time>
      </trkpt>
      <trkpt lat="42.01076" lon="33.36369">
        <ele>13.079155</ele>
        <time>2021-08-20T19:29:16.644Z</time>
      </trkpt>
      <trkpt lat="42.01102" lon="33.36324">
        <ele>13.338367</ele>
        <time>2021-08-20T19:29:32.988Z</time>
      </trkpt>
      <trkpt lat="42.01112" lon="33.36312">
        <ele>13.4184</ele>
        <time>2021-08-20T19:29:38.572Z</time>
      </trkpt>
      <trkpt lat="42.01121" lon="33.36302">
        <ele>13.493774</ele>
        <time>2021-08-20T19:29:44.419Z</time>
      </trkpt>
      <trkpt lat="42.01176" lon="33.36271">
        <ele>16.023261</ele>
        <time>2021-08-20T19:30:14.635Z</time>
      </trkpt>
      <trkpt lat="42.01196" lon="33.3626">
        <ele>17.231585</ele>
        <time>2021-08-20T19:30:27.387Z</time>
      </trkpt>
      <trkpt lat="42.01244" lon="33.36253">
        <ele>19.898107</ele>
        <time>2021-08-20T19:30:57.444Z</time>
      </trkpt>
      <trkpt lat="42.01286" lon="33.36268">
        <ele>22.321223</ele>
        <time>2021-08-20T19:31:27.517Z</time>
      </trkpt>
      <trkpt lat="42.01305" lon="33.36269">
        <ele>23.396963</ele>
        <time>2021-08-20T19:31:41.665Z</time>
      </trkpt>
      <trkpt lat="42.01322" lon="33.3626">
        <ele>24.86623</ele>
        <time>2021-08-20T19:31:54.936Z</time>
      </trkpt>
      <trkpt lat="42.01336" lon="33.36244">
        <ele>26.521966</ele>
        <time>2021-08-20T19:32:09.544Z</time>
      </trkpt>
      <trkpt lat="42.01347" lon="33.3621">
        <ele>29.021388</ele>
        <time>2021-08-20T19:32:32.049Z</time>
      </trkpt>
      <trkpt lat="42.01338" lon="33.3613">
        <ele>34.480953</ele>
        <time>2021-08-20T19:33:23.443Z</time>
      </trkpt>
      <trkpt lat="42.01343" lon="33.36109">
        <ele>35.904001</ele>
        <time>2021-08-20T19:33:37.121Z</time>
      </trkpt>
      <trkpt lat="42.01356" lon="33.36094">
        <ele>37.450002</ele>
        <time>2021-08-20T19:33:51.746Z</time>
      </trkpt>
      <trkpt lat="42.01407" lon="33.36059">
        <ele>42.613953</ele>
        <time>2021-08-20T19:34:39.915Z</time>
      </trkpt>
      <trkpt lat="42.01464" lon="33.3604">
        <ele>47.944585</ele>
        <time>2021-08-20T19:35:28.473Z</time>
      </trkpt>
      <trkpt lat="42.0148" lon="33.3602">
        <ele>49.911118</ele>
        <time>2021-08-20T19:35:46.097Z</time>
      </trkpt>
      <trkpt lat="42.01499" lon="33.35981">
        <ele>53.028971</ele>
        <time>2021-08-20T19:36:13.749Z</time>
      </trkpt>
      <trkpt lat="42.01515" lon="33.35919">
        <ele>57.413956</ele>
        <time>2021-08-20T19:36:52.971Z</time>
      </trkpt>
      <trkpt lat="42.01508" lon="33.35794">
        <ele>65.698242</ele>
        <time>2021-08-20T19:38:07.471Z</time>
      </trkpt>
      <trkpt lat="42.01514" lon="33.3573">
        <ele>69.977951</ele>
        <time>2021-08-20T19:38:46.786Z</time>
      </trkpt>
      <trkpt lat="42.01531" lon="33.35655">
        <ele>75.82575</ele>
        <time>2021-08-20T19:39:35.120Z</time>
      </trkpt>
      <trkpt lat="42.01546" lon="33.35615">
        <ele>79.428271</ele>
        <time>2021-08-20T19:40:03.722Z</time>
      </trkpt>
      <trkpt lat="42.01594" lon="33.35536">
        <ele>87.600667</ele>
        <time>2021-08-20T19:41:14.233Z</time>
      </trkpt>
      <trkpt lat="42.01612" lon="33.35493">
        <ele>91.626052</ele>
        <time>2021-08-20T19:41:50.932Z</time>
      </trkpt>
      <trkpt lat="42.01615" lon="33.35455">
        <ele>95.650872</ele>
        <time>2021-08-20T19:42:20.064Z</time>
      </trkpt>
      <trkpt lat="42.01598" lon="33.35389">
        <ele>102.949463</ele>
        <time>2021-08-20T19:43:16.172Z</time>
      </trkpt>
      <trkpt lat="42.01603" lon="33.35363">
        <ele>105.793649</ele>
        <time>2021-08-20T19:43:38.712Z</time>
      </trkpt>
      <trkpt lat="42.01622" lon="33.35334">
        <ele>109.831439</ele>
        <time>2021-08-20T19:44:11.446Z</time>
      </trkpt>
      <trkpt lat="42.01628" lon="33.35314">
        <ele>112.064101</ele>
        <time>2021-08-20T19:44:29.896Z</time>
      </trkpt>
      <trkpt lat="42.01623" lon="33.35295">
        <ele>114.139312</ele>
        <time>2021-08-20T19:44:47.356Z</time>
      </trkpt>
      <trkpt lat="42.01595" lon="33.35259">
        <ele>119.360133</ele>
        <time>2021-08-20T19:45:34.333Z</time>
      </trkpt>
      <trkpt lat="42.01583" lon="33.35231">
        <ele>122.385092</ele>
        <time>2021-08-20T19:46:02.893Z</time>
      </trkpt>
      <trkpt lat="42.01578" lon="33.35197">
        <ele>125.653628</ele>
        <time>2021-08-20T19:46:32.297Z</time>
      </trkpt>
      <trkpt lat="42.01591" lon="33.35081">
        <ele>136.72814</ele>
        <time>2021-08-20T19:48:01.245Z</time>
      </trkpt>
      <trkpt lat="42.01581" lon="33.35037">
        <ele>140.086278</ele>
        <time>2021-08-20T19:48:31.255Z</time>
      </trkpt>
      <trkpt lat="42.01518" lon="33.34857">
        <ele>146.323386</ele>
        <time>2021-08-20T19:49:54.969Z</time>
      </trkpt>
      <trkpt lat="42.01494" lon="33.34802">
        <ele>146.189845</ele>
        <time>2021-08-20T19:50:06.706Z</time>
      </trkpt>
      <trkpt lat="42.01491" lon="33.34772">
        <ele>145.347536</ele>
        <time>2021-08-20T19:50:11.762Z</time>
      </trkpt>
      <trkpt lat="42.01527" lon="33.34658">
        <ele>141.8362</ele>
        <time>2021-08-20T19:50:31.034Z</time>
      </trkpt>
      <trkpt lat="42.01573" lon="33.34596">
        <ele>140.213598</ele>
        <time>2021-08-20T19:50:44.785Z</time>
      </trkpt>
      <trkpt lat="42.01609" lon="33.34557">
        <ele>139.944695</ele>
        <time>2021-08-20T19:50:55.303Z</time>
      </trkpt>
      <trkpt lat="42.01619" lon="33.34535">
        <ele>139.8307</ele>
        <time>2021-08-20T19:51:01.000Z</time>
      </trkpt>
      <trkpt lat="42.01624" lon="33.34507">
        <ele>139.706545</ele>
        <time>2021-08-20T19:51:06.590Z</time>
      </trkpt>
      <trkpt lat="42.01624" lon="33.34498">
        <ele>139.667189</ele>
        <time>2021-08-20T19:51:08.203Z</time>
      </trkpt>
      <trkpt lat="42.01625" lon="33.34491">
        <ele>139.636612</ele>
        <time>2021-08-20T19:51:12.557Z</time>
      </trkpt>
      <trkpt lat="42.0162" lon="33.34439">
        <ele>139.408099</ele>
        <time>2021-08-20T19:51:28.958Z</time>
      </trkpt>
      <trkpt lat="42.01596" lon="33.34368">
        <ele>141.65745</ele>
        <time>2021-08-20T19:51:59.439Z</time>
      </trkpt>
      <trkpt lat="42.01571" lon="33.34316">
        <ele>144.213882</ele>
        <time>2021-08-20T19:52:35.123Z</time>
      </trkpt>
      <trkpt lat="42.01538" lon="33.34283">
        <ele>146.496604</ele>
        <time>2021-08-20T19:53:03.637Z</time>
      </trkpt>
      <trkpt lat="42.01457" lon="33.34251">
        <ele>150.426667</ele>
        <time>2021-08-20T19:53:53.349Z</time>
      </trkpt>
      <trkpt lat="42.01448" lon="33.34242">
        <ele>150.808575</ele>
        <time>2021-08-20T19:54:01.098Z</time>
      </trkpt>
      <trkpt lat="42.01442" lon="33.34247">
        <ele>151.01527</ele>
        <time>2021-08-20T19:54:04.822Z</time>
      </trkpt>
      <trkpt lat="42.01487" lon="33.34299">
        <ele>152.890646</ele>
        <time>2021-08-20T19:54:32.613Z</time>
      </trkpt>
      <trkpt lat="42.015" lon="33.34331">
        <ele>153.772358</ele>
        <time>2021-08-20T19:54:45.054Z</time>
      </trkpt>
      <trkpt lat="42.01523" lon="33.34366">
        <ele>154.880869</ele>
        <time>2021-08-20T19:55:00.952Z</time>
      </trkpt>
      <trkpt lat="42.01543" lon="33.34392">
        <ele>155.457413</ele>
        <time>2021-08-20T19:55:14.430Z</time>
      </trkpt>
      <trkpt lat="42.01523" lon="33.34366">
        <ele>155.903689</ele>
        <time>2021-08-20T19:55:23.324Z</time>
      </trkpt>
      <trkpt lat="42.015" lon="33.34331">
        <ele>156.451008</ele>
        <time>2021-08-20T19:55:36.168Z</time>
      </trkpt>
      <trkpt lat="42.01487" lon="33.34299">
        <ele>156.886346</ele>
        <time>2021-08-20T19:55:47.041Z</time>
      </trkpt>
      <trkpt lat="42.01442" lon="33.34247">
        <ele>157.812297</ele>
        <time>2021-08-20T19:56:12.179Z</time>
      </trkpt>
      <trkpt lat="42.01448" lon="33.34242">
        <ele>157.914351</ele>
        <time>2021-08-20T19:56:14.106Z</time>
      </trkpt>
      <trkpt lat="42.01447" lon="33.34241">
        <ele>157.928895</ele>
        <time>2021-08-20T19:56:15.163Z</time>
      </trkpt>
      <trkpt lat="42.01428" lon="33.34206">
        <ele>158.586998</ele>
        <time>2021-08-20T19:56:29.409Z</time>
      </trkpt>
      <trkpt lat="42.01425" lon="33.34191">
        <ele>158.814291</ele>
        <time>2021-08-20T19:56:34.808Z</time>
      </trkpt>
      <trkpt lat="42.01425" lon="33.34178">
        <ele>159.025311</ele>
        <time>2021-08-20T19:56:39.528Z</time>
      </trkpt>
      <trkpt lat="42.01427" lon="33.34165">
        <ele>159.225162</ele>
        <time>2021-08-20T19:56:43.658Z</time>
      </trkpt>
      <trkpt lat="42.01503" lon="33.34038">
        <ele>161.735433</ele>
        <time>2021-08-20T19:57:34.783Z</time>
      </trkpt>
      <trkpt lat="42.01576" lon="33.33992">
        <ele>163.688448</ele>
        <time>2021-08-20T19:58:08.978Z</time>
      </trkpt>
      <trkpt lat="42.01585" lon="33.33969">
        <ele>164.174301</ele>
        <time>2021-08-20T19:58:17.994Z</time>
      </trkpt>
      <trkpt lat="42.01596" lon="33.33902">
        <ele>165.406234</ele>
        <time>2021-08-20T19:58:41.718Z</time>
      </trkpt>
      <trkpt lat="42.01627" lon="33.33836">
        <ele>166.60376</ele>
        <time>2021-08-20T19:59:09.288Z</time>
      </trkpt>
      <trkpt lat="42.01639" lon="33.33783">
        <ele>167.2988</ele>
        <time>2021-08-20T19:59:27.808Z</time>
      </trkpt>
      <trkpt lat="42.01635" lon="33.3375">
        <ele>167.725544</ele>
        <time>2021-08-20T19:59:38.810Z</time>
      </trkpt>
      <trkpt lat="42.01602" lon="33.33656">
        <ele>169.039941</ele>
        <time>2021-08-20T20:00:10.007Z</time>
      </trkpt>
      <trkpt lat="42.01568" lon="33.33491">
        <ele>166.301203</ele>
        <time>2021-08-20T20:00:43.299Z</time>
      </trkpt>
      <trkpt lat="42.01567" lon="33.33415">
        <ele>164.973662</ele>
        <time>2021-08-20T20:00:55.435Z</time>
      </trkpt>
      <trkpt lat="42.01556" lon="33.33289">
        <ele>158.918115</ele>
        <time>2021-08-20T20:01:14.725Z</time>
      </trkpt>
      <trkpt lat="42.0155" lon="33.3327">
        <ele>157.930597</ele>
        <time>2021-08-20T20:01:17.716Z</time>
      </trkpt>
      <trkpt lat="42.01505" lon="33.33181">
        <ele>152.824822</ele>
        <time>2021-08-20T20:01:33.660Z</time>
      </trkpt>
      <trkpt lat="42.0149" lon="33.33101">
        <ele>149.938353</ele>
        <time>2021-08-20T20:01:46.177Z</time>
      </trkpt>
      <trkpt lat="42.01492" lon="33.33062">
        <ele>148.559378</ele>
        <time>2021-08-20T20:01:52.362Z</time>
      </trkpt>
      <trkpt lat="42.01507" lon="33.33006">
        <ele>146.497362</ele>
        <time>2021-08-20T20:02:01.993Z</time>
      </trkpt>
      <trkpt lat="42.0155" lon="33.32937">
        <ele>144.231238</ele>
        <time>2021-08-20T20:02:18.219Z</time>
      </trkpt>
      <trkpt lat="42.01543" lon="33.32835">
        <ele>143.056308</ele>
        <time>2021-08-20T20:02:39.259Z</time>
      </trkpt>
      <trkpt lat="42.0154" lon="33.32819">
        <ele>142.871164</ele>
        <time>2021-08-20T20:02:42.711Z</time>
      </trkpt>
      <trkpt lat="42.01476" lon="33.32695">
        <ele>139.92516</ele>
        <time>2021-08-20T20:03:11.354Z</time>
      </trkpt>
      <trkpt lat="42.01433" lon="33.32535">
        <ele>134.847484</ele>
        <time>2021-08-20T20:03:38.800Z</time>
      </trkpt>
      <trkpt lat="42.01407" lon="33.32375">
        <ele>125.422635</ele>
        <time>2021-08-20T20:04:02.803Z</time>
      </trkpt>
      <trkpt lat="42.01402" lon="33.32282">
        <ele>119.87659</ele>
        <time>2021-08-20T20:04:16.262Z</time>
      </trkpt>
      <trkpt lat="42.01372" lon="33.32221">
        <ele>115.188277</ele>
        <time>2021-08-20T20:04:26.764Z</time>
      </trkpt>
      <trkpt lat="42.01361" lon="33.32189">
        <ele>112.968452</ele>
        <time>2021-08-20T20:04:31.745Z</time>
      </trkpt>
      <trkpt lat="42.0136" lon="33.32158">
        <ele>110.984199</ele>
        <time>2021-08-20T20:04:36.201Z</time>
      </trkpt>
      <trkpt lat="42.01384" lon="33.32077">
        <ele>105.398827</ele>
        <time>2021-08-20T20:04:48.840Z</time>
      </trkpt>
      <trkpt lat="42.01384" lon="33.32049">
        <ele>104.171026</ele>
        <time>2021-08-20T20:04:53.065Z</time>
      </trkpt>
      <trkpt lat="42.01371" lon="33.32026">
        <ele>103.103009</ele>
        <time>2021-08-20T20:04:57.371Z</time>
      </trkpt>
      <trkpt lat="42.01311" lon="33.3197">
        <ele>99.419841</ele>
        <time>2021-08-20T20:05:12.926Z</time>
      </trkpt>
      <trkpt lat="42.01261" lon="33.31858">
        <ele>95.121796</ele>
        <time>2021-08-20T20:05:34.586Z</time>
      </trkpt>
      <trkpt lat="42.01252" lon="33.31803">
        <ele>93.86759</ele>
        <time>2021-08-20T20:05:44.423Z</time>
      </trkpt>
      <trkpt lat="42.01241" lon="33.31769">
        <ele>93.065242</ele>
        <time>2021-08-20T20:05:50.929Z</time>
      </trkpt>
      <trkpt lat="42.01223" lon="33.31739">
        <ele>92.222037</ele>
        <time>2021-08-20T20:05:57.704Z</time>
      </trkpt>
      <trkpt lat="42.01181" lon="33.31688">
        <ele>90.530378</ele>
        <time>2021-08-20T20:06:10.931Z</time>
      </trkpt>
      <trkpt lat="42.01174" lon="33.3166">
        <ele>89.825597</ele>
        <time>2021-08-20T20:06:15.974Z</time>
      </trkpt>
      <trkpt lat="42.01171" lon="33.31612">
        <ele>88.688362</ele>
        <time>2021-08-20T20:06:24.016Z</time>
      </trkpt>
      <trkpt lat="42.01153" lon="33.31563">
        <ele>87.393092</ele>
        <time>2021-08-20T20:06:33.144Z</time>
      </trkpt>
      <trkpt lat="42.01004" lon="33.31361">
        <ele>81.010115</ele>
        <time>2021-08-20T20:07:21.894Z</time>
      </trkpt>
      <trkpt lat="42.00933" lon="33.31306">
        <ele>78.072106</ele>
        <time>2021-08-20T20:07:41.217Z</time>
      </trkpt>
      <trkpt lat="42.00869" lon="33.31196">
        <ele>73.480145</ele>
        <time>2021-08-20T20:08:03.836Z</time>
      </trkpt>
      <trkpt lat="42.00857" lon="33.31168">
        <ele>72.415399</ele>
        <time>2021-08-20T20:08:08.811Z</time>
      </trkpt>
      <trkpt lat="42.00852" lon="33.31142">
        <ele>71.503034</ele>
        <time>2021-08-20T20:08:12.734Z</time>
      </trkpt>
      <trkpt lat="42.00859" lon="33.31118">
        <ele>70.479757</ele>
        <time>2021-08-20T20:08:16.672Z</time>
      </trkpt>
      <trkpt lat="42.00896" lon="33.31041">
        <ele>66.721432</ele>
        <time>2021-08-20T20:08:30.675Z</time>
      </trkpt>
      <trkpt lat="42.00912" lon="33.31025">
        <ele>65.638392</ele>
        <time>2021-08-20T20:08:34.562Z</time>
      </trkpt>
      <trkpt lat="42.00919" lon="33.31018">
        <ele>65.148994</ele>
        <time>2021-08-20T20:08:36.542Z</time>
      </trkpt>
      <trkpt lat="42.00939" lon="33.30996">
        <ele>63.7251</ele>
        <time>2021-08-20T20:08:41.879Z</time>
      </trkpt>
      <trkpt lat="42.00942" lon="33.30986">
        <ele>63.286772</ele>
        <time>2021-08-20T20:08:43.662Z</time>
      </trkpt>
      <trkpt lat="42.00939" lon="33.30958">
        <ele>62.122701</ele>
        <time>2021-08-20T20:08:48.253Z</time>
      </trkpt>
      <trkpt lat="42.00922" lon="33.30906">
        <ele>61.089205</ele>
        <time>2021-08-20T20:08:57.484Z</time>
      </trkpt>
      <trkpt lat="42.00881" lon="33.30836">
        <ele>59.902742</ele>
        <time>2021-08-20T20:09:13.937Z</time>
      </trkpt>
      <trkpt lat="42.00866" lon="33.30798">
        <ele>59.322445</ele>
        <time>2021-08-20T20:09:23.903Z</time>
      </trkpt>
      <trkpt lat="42.00843" lon="33.30668">
        <ele>57.847002</ele>
        <time>2021-08-20T20:09:53.011Z</time>
      </trkpt>
      <trkpt lat="42.00852" lon="33.30462">
        <ele>55.391859</ele>
        <time>2021-08-20T20:10:32.854Z</time>
      </trkpt>
      <trkpt lat="42.00851" lon="33.30389">
        <ele>53.41968</ele>
        <time>2021-08-20T20:10:45.234Z</time>
      </trkpt>
      <trkpt lat="42.0083" lon="33.30354">
        <ele>52.221782</ele>
        <time>2021-08-20T20:10:52.506Z</time>
      </trkpt>
      <trkpt lat="42.00822" lon="33.30293">
        <ele>50.56233</ele>
        <time>2021-08-20T20:11:02.308Z</time>
      </trkpt>
      <trkpt lat="42.00784" lon="33.30204">
        <ele>47.470194</ele>
        <time>2021-08-20T20:11:18.437Z</time>
      </trkpt>
      <trkpt lat="42.00775" lon="33.3013">
        <ele>45.117143</ele>
        <time>2021-08-20T20:11:30.096Z</time>
      </trkpt>
      <trkpt lat="42.00721" lon="33.29902">
        <ele>41.447905</ele>
        <time>2021-08-20T20:12:12.094Z</time>
      </trkpt>
      <trkpt lat="42.00637" lon="33.29783">
        <ele>43.033908</ele>
        <time>2021-08-20T20:13:04.663Z</time>
      </trkpt>
      <trkpt lat="42.00616" lon="33.29744">
        <ele>44.492152</ele>
        <time>2021-08-20T20:13:24.577Z</time>
      </trkpt>
      <trkpt lat="42.00565" lon="33.29721">
        <ele>46.651237</ele>
        <time>2021-08-20T20:13:56.213Z</time>
      </trkpt>
      <trkpt lat="42.00516" lon="33.29675">
        <ele>49.274058</ele>
        <time>2021-08-20T20:14:32.222Z</time>
      </trkpt>
      <trkpt lat="42.00485" lon="33.2964">
        <ele>51.332671</ele>
        <time>2021-08-20T20:14:57.170Z</time>
      </trkpt>
      <trkpt lat="42.00439" lon="33.29574">
        <ele>54.803318</ele>
        <time>2021-08-20T20:15:37.138Z</time>
      </trkpt>
      <trkpt lat="42.00401" lon="33.29493">
        <ele>58.528894</ele>
        <time>2021-08-20T20:16:18.731Z</time>
      </trkpt>
      <trkpt lat="42.00383" lon="33.29413">
        <ele>61.956373</ele>
        <time>2021-08-20T20:16:57.991Z</time>
      </trkpt>
      <trkpt lat="42.00328" lon="33.293">
        <ele>67.451908</ele>
        <time>2021-08-20T20:18:01.402Z</time>
      </trkpt>
      <trkpt lat="42.00303" lon="33.29256">
        <ele>69.340917</ele>
        <time>2021-08-20T20:18:27.041Z</time>
      </trkpt>
      <trkpt lat="42.00266" lon="33.29166">
        <ele>72.823552</ele>
        <time>2021-08-20T20:19:12.190Z</time>
      </trkpt>
      <trkpt lat="42.00211" lon="33.28982">
        <ele>78.112062</ele>
        <time>2021-08-20T20:20:25.081Z</time>
      </trkpt>
      <trkpt lat="42.0013" lon="33.28753">
        <ele>83.477902</ele>
        <time>2021-08-20T20:21:51.299Z</time>
      </trkpt>
      <trkpt lat="42.00113" lon="33.2864">
        <ele>85.849404</ele>
        <time>2021-08-20T20:22:31.914Z</time>
      </trkpt>
      <trkpt lat="42.00044" lon="33.28406">
        <ele>91.468425</ele>
        <time>2021-08-20T20:24:03.211Z</time>
      </trkpt>
      <trkpt lat="41.99995" lon="33.28332">
        <ele>92.815417</ele>
        <time>2021-08-20T20:24:36.957Z</time>
      </trkpt>
      <trkpt lat="41.99972" lon="33.28262">
        <ele>93.861473</ele>
        <time>2021-08-20T20:25:00.359Z</time>
      </trkpt>
      <trkpt lat="41.99936" lon="33.28214">
        <ele>94.576541</ele>
        <time>2021-08-20T20:25:18.131Z</time>
      </trkpt>
      <trkpt lat="41.99893" lon="33.28105">
        <ele>94.592248</ele>
        <time>2021-08-20T20:25:43.592Z</time>
      </trkpt>
      <trkpt lat="41.99812" lon="33.27925">
        <ele>96.985191</ele>
        <time>2021-08-20T20:26:35.648Z</time>
      </trkpt>
      <trkpt lat="41.998" lon="33.2789">
        <ele>97.847234</ele>
        <time>2021-08-20T20:26:47.900Z</time>
      </trkpt>
      <trkpt lat="41.99794" lon="33.27884">
        <ele>98.079272</ele>
        <time>2021-08-20T20:26:54.952Z</time>
      </trkpt>
      <trkpt lat="41.99781" lon="33.2788">
        <ele>98.494996</ele>
        <time>2021-08-20T20:27:01.748Z</time>
      </trkpt>
      <trkpt lat="41.99755" lon="33.27888">
        <ele>99.295804</ele>
        <time>2021-08-20T20:27:19.181Z</time>
      </trkpt>
      <trkpt lat="41.99734" lon="33.27888">
        <ele>99.911614</ele>
        <time>2021-08-20T20:27:30.876Z</time>
      </trkpt>
      <trkpt lat="41.99699" lon="33.27863">
        <ele>102.214169</ele>
        <time>2021-08-20T20:27:58.516Z</time>
      </trkpt>
      <trkpt lat="41.9968" lon="33.27856">
        <ele>103.429676</ele>
        <time>2021-08-20T20:28:14.912Z</time>
      </trkpt>
      <trkpt lat="41.99621" lon="33.27871">
        <ele>107.058514</ele>
        <time>2021-08-20T20:29:00.763Z</time>
      </trkpt>
      <trkpt lat="41.996" lon="33.27864">
        <ele>108.371163</ele>
        <time>2021-08-20T20:29:15.088Z</time>
      </trkpt>
      <trkpt lat="41.9955" lon="33.27758">
        <ele>110.766994</ele>
        <time>2021-08-20T20:29:59.850Z</time>
      </trkpt>
      <trkpt lat="41.99509" lon="33.27723">
        <ele>110.649839</ele>
        <time>2021-08-20T20:30:14.874Z</time>
      </trkpt>
      <trkpt lat="41.99489" lon="33.27699">
        <ele>110.584688</ele>
        <time>2021-08-20T20:30:21.704Z</time>
      </trkpt>
      <trkpt lat="41.99411" lon="33.2754">
        <ele>107.781239</ele>
        <time>2021-08-20T20:30:53.709Z</time>
      </trkpt>
      <trkpt lat="41.9936" lon="33.27489">
        <ele>105.881347</ele>
        <time>2021-08-20T20:31:08.254Z</time>
      </trkpt>
      <trkpt lat="41.99342" lon="33.27463">
        <ele>105.089846</ele>
        <time>2021-08-20T20:31:14.485Z</time>
      </trkpt>
      <trkpt lat="41.99318" lon="33.27354">
        <ele>103.922841</ele>
        <time>2021-08-20T20:31:35.257Z</time>
      </trkpt>
      <trkpt lat="41.99235" lon="33.2721">
        <ele>102.540912</ele>
        <time>2021-08-20T20:32:13.405Z</time>
      </trkpt>
      <trkpt lat="41.9916" lon="33.27159">
        <ele>102.397882</ele>
        <time>2021-08-20T20:32:39.941Z</time>
      </trkpt>
      <trkpt lat="41.99119" lon="33.27144">
        <ele>102.326824</ele>
        <time>2021-08-20T20:32:53.795Z</time>
      </trkpt>
      <trkpt lat="41.98953" lon="33.2705">
        <ele>101.735822</ele>
        <time>2021-08-20T20:33:47.454Z</time>
      </trkpt>
      <trkpt lat="41.98948" lon="33.27035">
        <ele>101.69285</ele>
        <time>2021-08-20T20:33:50.816Z</time>
      </trkpt>
      <trkpt lat="41.98951" lon="33.2702">
        <ele>101.608927</ele>
        <time>2021-08-20T20:33:54.006Z</time>
      </trkpt>
      <trkpt lat="41.98997" lon="33.26981">
        <ele>101.174305</ele>
        <time>2021-08-20T20:34:08.442Z</time>
      </trkpt>
      <trkpt lat="41.99062" lon="33.26876">
        <ele>100.369005</ele>
        <time>2021-08-20T20:34:36.132Z</time>
      </trkpt>
      <trkpt lat="41.99083" lon="33.2685">
        <ele>100.210373</ele>
        <time>2021-08-20T20:34:44.258Z</time>
      </trkpt>
      <trkpt lat="41.99085" lon="33.26835">
        <ele>100.170389</ele>
        <time>2021-08-20T20:34:47.834Z</time>
      </trkpt>
      <trkpt lat="41.99078" lon="33.26818">
        <ele>100.122712</ele>
        <time>2021-08-20T20:34:52.326Z</time>
      </trkpt>
      <trkpt lat="41.99054" lon="33.26791">
        <ele>100.016631</ele>
        <time>2021-08-20T20:35:02.784Z</time>
      </trkpt>
      <trkpt lat="41.98978" lon="33.26621">
        <ele>98.953805</ele>
        <time>2021-08-20T20:35:46.068Z</time>
      </trkpt>
      <trkpt lat="41.98963" lon="33.26578">
        <ele>98.314766</ele>
        <time>2021-08-20T20:35:55.312Z</time>
      </trkpt>
      <trkpt lat="41.98937" lon="33.26447">
        <ele>96.513887</ele>
        <time>2021-08-20T20:36:19.517Z</time>
      </trkpt>
      <trkpt lat="41.98867" lon="33.26317">
        <ele>92.914559</ele>
        <time>2021-08-20T20:36:46.924Z</time>
      </trkpt>
      <trkpt lat="41.98826" lon="33.2623">
        <ele>90.457069</ele>
        <time>2021-08-20T20:37:04.528Z</time>
      </trkpt>
      <trkpt lat="41.98823" lon="33.26204">
        <ele>89.696063</ele>
        <time>2021-08-20T20:37:08.878Z</time>
      </trkpt>
      <trkpt lat="41.98829" lon="33.26177">
        <ele>88.884505</ele>
        <time>2021-08-20T20:37:13.482Z</time>
      </trkpt>
      <trkpt lat="41.98829" lon="33.2615">
        <ele>88.076358</ele>
        <time>2021-08-20T20:37:18.036Z</time>
      </trkpt>
      <trkpt lat="41.98809" lon="33.26061">
        <ele>85.373504</ele>
        <time>2021-08-20T20:37:33.098Z</time>
      </trkpt>
      <trkpt lat="41.98778" lon="33.25983">
        <ele>82.92027</ele>
        <time>2021-08-20T20:37:47.414Z</time>
      </trkpt>
      <trkpt lat="41.98785" lon="33.25903">
        <ele>80.855242</ele>
        <time>2021-08-20T20:38:00.497Z</time>
      </trkpt>
      <trkpt lat="41.98754" lon="33.25774">
        <ele>77.644179</ele>
        <time>2021-08-20T20:38:23.629Z</time>
      </trkpt>
      <trkpt lat="41.98734" lon="33.25741">
        <ele>77.725144</ele>
        <time>2021-08-20T20:38:31.562Z</time>
      </trkpt>
      <trkpt lat="41.9871" lon="33.25719">
        <ele>77.800542</ele>
        <time>2021-08-20T20:38:39.837Z</time>
      </trkpt>
      <trkpt lat="41.98623" lon="33.25691">
        <ele>78.027718</ele>
        <time>2021-08-20T20:39:12.312Z</time>
      </trkpt>
      <trkpt lat="41.98612" lon="33.25679">
        <ele>78.065605</ele>
        <time>2021-08-20T20:39:19.189Z</time>
      </trkpt>
      <trkpt lat="41.98621" lon="33.2566">
        <ele>78.421022</ele>
        <time>2021-08-20T20:39:26.226Z</time>
      </trkpt>
      <trkpt lat="41.98687" lon="33.25602">
        <ele>81.588733</ele>
        <time>2021-08-20T20:40:05.644Z</time>
      </trkpt>
      <trkpt lat="41.98694" lon="33.25583">
        <ele>82.240826</ele>
        <time>2021-08-20T20:40:15.034Z</time>
      </trkpt>
      <trkpt lat="41.98682" lon="33.25506">
        <ele>84.561156</ele>
        <time>2021-08-20T20:40:49.632Z</time>
      </trkpt>
      <trkpt lat="41.98643" lon="33.25375">
        <ele>90.704383</ele>
        <time>2021-08-20T20:41:54.099Z</time>
      </trkpt>
      <trkpt lat="41.98591" lon="33.25238">
        <ele>98.678732</ele>
        <time>2021-08-20T20:43:12.111Z</time>
      </trkpt>
      <trkpt lat="41.98572" lon="33.25219">
        <ele>101.122239</ele>
        <time>2021-08-20T20:43:31.082Z</time>
      </trkpt>
      <trkpt lat="41.98517" lon="33.25212">
        <ele>106.916354</ele>
        <time>2021-08-20T20:44:19.945Z</time>
      </trkpt>
      <trkpt lat="41.98456" lon="33.25188">
        <ele>113.630307</ele>
        <time>2021-08-20T20:45:25.680Z</time>
      </trkpt>
      <trkpt lat="41.98437" lon="33.25188">
        <ele>115.514741</ele>
        <time>2021-08-20T20:45:48.683Z</time>
      </trkpt>
      <trkpt lat="41.98399" lon="33.25205">
        <ele>118.833532</ele>
        <time>2021-08-20T20:46:25.563Z</time>
      </trkpt>
      <trkpt lat="41.98377" lon="33.25247">
        <ele>121.992422</ele>
        <time>2021-08-20T20:46:58.346Z</time>
      </trkpt>
      <trkpt lat="41.98359" lon="33.2526">
        <ele>123.717842</ele>
        <time>2021-08-20T20:47:12.034Z</time>
      </trkpt>
      <trkpt lat="41.98355" lon="33.25267">
        <ele>124.24817</ele>
        <time>2021-08-20T20:47:22.315Z</time>
      </trkpt>
      <trkpt lat="41.98354" lon="33.25262">
        <ele>124.540729</ele>
        <time>2021-08-20T20:47:23.000Z</time>
      </trkpt>
      <trkpt lat="41.98349" lon="33.25239">
        <ele>126.035856</ele>
        <time>2021-08-20T20:47:32.839Z</time>
      </trkpt>
      <trkpt lat="41.98364" lon="33.25178">
        <ele>129.94143</ele>
        <time>2021-08-20T20:48:04.790Z</time>
      </trkpt>
      <trkpt lat="41.98375" lon="33.25156">
        <ele>130.355924</ele>
        <time>2021-08-20T20:48:12.524Z</time>
      </trkpt>
      <trkpt lat="41.98415" lon="33.25108">
        <ele>131.059378</ele>
        <time>2021-08-20T20:48:38.719Z</time>
      </trkpt>
      <trkpt lat="41.98421" lon="33.2509">
        <ele>131.245993</ele>
        <time>2021-08-20T20:48:41.903Z</time>
      </trkpt>
      <trkpt lat="41.98412" lon="33.25042">
        <ele>131.730988</ele>
        <time>2021-08-20T20:48:51.535Z</time>
      </trkpt>
      <trkpt lat="41.98421" lon="33.2492">
        <ele>133.123744</ele>
        <time>2021-08-20T20:49:23.067Z</time>
      </trkpt>
      <trkpt lat="41.98386" lon="33.24837">
        <ele>134.440094</ele>
        <time>2021-08-20T20:49:54.611Z</time>
      </trkpt>
      <trkpt lat="41.98354" lon="33.24655">
        <ele>136.670985</ele>
        <time>2021-08-20T20:50:55.623Z</time>
      </trkpt>
      <trkpt lat="41.98339" lon="33.24479">
        <ele>138.426728</ele>
        <time>2021-08-20T20:51:41.929Z</time>
      </trkpt>
      <trkpt lat="41.98316" lon="33.24379">
        <ele>139.733874</ele>
        <time>2021-08-20T20:52:11.121Z</time>
      </trkpt>
      <trkpt lat="41.98273" lon="33.2431">
        <ele>140.84683</ele>
        <time>2021-08-20T20:52:40.127Z</time>
      </trkpt>
      <trkpt lat="41.98264" lon="33.24233">
        <ele>141.723427</ele>
        <time>2021-08-20T20:53:06.924Z</time>
      </trkpt>
      <trkpt lat="41.98226" lon="33.24179">
        <ele>142.492062</ele>
        <time>2021-08-20T20:53:32.829Z</time>
      </trkpt>
      <trkpt lat="41.98229" lon="33.24063">
        <ele>143.710412</ele>
        <time>2021-08-20T20:54:03.614Z</time>
      </trkpt>
      <trkpt lat="41.98207" lon="33.23995">
        <ele>141.59285</ele>
        <time>2021-08-20T20:54:17.304Z</time>
      </trkpt>
      <trkpt lat="41.98204" lon="33.23922">
        <ele>139.487338</ele>
        <time>2021-08-20T20:54:29.451Z</time>
      </trkpt>
      <trkpt lat="41.98206" lon="33.23901">
        <ele>138.894072</ele>
        <time>2021-08-20T20:54:32.702Z</time>
      </trkpt>
      <trkpt lat="41.98206" lon="33.23884">
        <ele>138.398094</ele>
        <time>2021-08-20T20:54:35.342Z</time>
      </trkpt>
      <trkpt lat="41.98182" lon="33.23778">
        <ele>133.058184</ele>
        <time>2021-08-20T20:54:52.062Z</time>
      </trkpt>
      <trkpt lat="41.9817" lon="33.23698">
        <ele>127.428735</ele>
        <time>2021-08-20T20:55:03.756Z</time>
      </trkpt>
      <trkpt lat="41.98122" lon="33.23569">
        <ele>116.05572</ele>
        <time>2021-08-20T20:55:24.138Z</time>
      </trkpt>
      <trkpt lat="41.981" lon="33.23533">
        <ele>111.147956</ele>
        <time>2021-08-20T20:55:30.460Z</time>
      </trkpt>
      <trkpt lat="41.98074" lon="33.2347">
        <ele>103.525137</ele>
        <time>2021-08-20T20:55:40.183Z</time>
      </trkpt>
      <trkpt lat="41.98063" lon="33.23422">
        <ele>98.119182</ele>
        <time>2021-08-20T20:55:47.065Z</time>
      </trkpt>
      <trkpt lat="41.98054" lon="33.23352">
        <ele>90.641617</ele>
        <time>2021-08-20T20:55:56.601Z</time>
      </trkpt>
      <trkpt lat="41.98042" lon="33.23314">
        <ele>86.306646</ele>
        <time>2021-08-20T20:56:02.159Z</time>
      </trkpt>
      <trkpt lat="41.98016" lon="33.23259">
        <ele>79.465407</ele>
        <time>2021-08-20T20:56:10.952Z</time>
      </trkpt>
      <trkpt lat="41.98002" lon="33.23245">
        <ele>76.954935</ele>
        <time>2021-08-20T20:56:14.184Z</time>
      </trkpt>
      <trkpt lat="41.97969" lon="33.23248">
        <ele>72.363448</ele>
        <time>2021-08-20T20:56:20.147Z</time>
      </trkpt>
      <trkpt lat="41.9795" lon="33.23257">
        <ele>69.515467</ele>
        <time>2021-08-20T20:56:23.907Z</time>
      </trkpt>
      <trkpt lat="41.9788" lon="33.23344">
        <ele>60.990166</ele>
        <time>2021-08-20T20:56:42.369Z</time>
      </trkpt>
      <trkpt lat="41.9786" lon="33.23349">
        <ele>59.198271</ele>
        <time>2021-08-20T20:56:46.421Z</time>
      </trkpt>
      <trkpt lat="41.97848" lon="33.2334">
        <ele>57.998667</ele>
        <time>2021-08-20T20:56:49.111Z</time>
      </trkpt>
      <trkpt lat="41.97833" lon="33.23279">
        <ele>53.838941</ele>
        <time>2021-08-20T20:56:58.525Z</time>
      </trkpt>
      <trkpt lat="41.97815" lon="33.2325">
        <ele>51.754666</ele>
        <time>2021-08-20T20:57:04.151Z</time>
      </trkpt>
      <trkpt lat="41.97795" lon="33.23249">
        <ele>50.382252</ele>
        <time>2021-08-20T20:57:08.139Z</time>
      </trkpt>
      <trkpt lat="41.97737" lon="33.23284">
        <ele>46.01285</ele>
        <time>2021-08-20T20:57:21.003Z</time>
      </trkpt>
      <trkpt lat="41.97727" lon="33.23296">
        <ele>45.08806</ele>
        <time>2021-08-20T20:57:23.699Z</time>
      </trkpt>
      <trkpt lat="41.97712" lon="33.233">
        <ele>44.024668</ele>
        <time>2021-08-20T20:57:26.792Z</time>
      </trkpt>
      <trkpt lat="41.97702" lon="33.2329">
        <ele>43.126391</ele>
        <time>2021-08-20T20:57:29.364Z</time>
      </trkpt>
      <trkpt lat="41.97694" lon="33.23257">
        <ele>41.340323</ele>
        <time>2021-08-20T20:57:34.449Z</time>
      </trkpt>
      <trkpt lat="41.97679" lon="33.23238">
        <ele>40.306181</ele>
        <time>2021-08-20T20:57:38.281Z</time>
      </trkpt>
      <trkpt lat="41.97669" lon="33.23233">
        <ele>39.861786</ele>
        <time>2021-08-20T20:57:40.491Z</time>
      </trkpt>
      <trkpt lat="41.97602" lon="33.23229">
        <ele>37.068828</ele>
        <time>2021-08-20T20:57:54.587Z</time>
      </trkpt>
      <trkpt lat="41.9756" lon="33.23211">
        <ele>35.243417</ele>
        <time>2021-08-20T20:58:04.877Z</time>
      </trkpt>
      <trkpt lat="41.97548" lon="33.23201">
        <ele>34.658405</ele>
        <time>2021-08-20T20:58:07.933Z</time>
      </trkpt>
      <trkpt lat="41.97524" lon="33.23124">
        <ele>33.804673</ele>
        <time>2021-08-20T20:58:25.312Z</time>
      </trkpt>
      <trkpt lat="41.97523" lon="33.23095">
        <ele>34.110849</ele>
        <time>2021-08-20T20:58:31.725Z</time>
      </trkpt>
      <trkpt lat="41.97529" lon="33.23074">
        <ele>34.348593</ele>
        <time>2021-08-20T20:58:36.772Z</time>
      </trkpt>
      <trkpt lat="41.97568" lon="33.23024">
        <ele>35.108172</ele>
        <time>2021-08-20T20:58:58.416Z</time>
      </trkpt>
      <trkpt lat="41.97592" lon="33.22981">
        <ele>35.673037</ele>
        <time>2021-08-20T20:59:19.552Z</time>
      </trkpt>
      <trkpt lat="41.97614" lon="33.22966">
        <ele>36.399179</ele>
        <time>2021-08-20T20:59:31.694Z</time>
      </trkpt>
      <trkpt lat="41.97641" lon="33.22961">
        <ele>38.044616</ele>
        <time>2021-08-20T20:59:45.935Z</time>
      </trkpt>
      <trkpt lat="41.9776" lon="33.22964">
        <ele>45.230224</ele>
        <time>2021-08-20T21:01:03.724Z</time>
      </trkpt>
      <trkpt lat="41.97808" lon="33.22932">
        <ele>49.268896</ele>
        <time>2021-08-20T21:01:46.093Z</time>
      </trkpt>
      <trkpt lat="41.97825" lon="33.22906">
        <ele>51.558535</ele>
        <time>2021-08-20T21:02:07.638Z</time>
      </trkpt>
      <trkpt lat="41.97831" lon="33.22876">
        <ele>53.612831</ele>
        <time>2021-08-20T21:02:27.512Z</time>
      </trkpt>
      <trkpt lat="41.97788" lon="33.22724">
        <ele>63.963315</ele>
        <time>2021-08-20T21:04:08.990Z</time>
      </trkpt>
      <trkpt lat="41.97794" lon="33.22708">
        <ele>64.849862</ele>
        <time>2021-08-20T21:04:18.819Z</time>
      </trkpt>
      <trkpt lat="41.97806" lon="33.227">
        <ele>65.741121</ele>
        <time>2021-08-20T21:04:28.645Z</time>
      </trkpt>
      <trkpt lat="41.97896" lon="33.22701">
        <ele>71.730576</ele>
        <time>2021-08-20T21:05:26.567Z</time>
      </trkpt>
      <trkpt lat="41.9791" lon="33.22687">
        <ele>72.891468</ele>
        <time>2021-08-20T21:05:37.651Z</time>
      </trkpt>
      <trkpt lat="41.97927" lon="33.22633">
        <ele>75.958309</ele>
        <time>2021-08-20T21:06:04.683Z</time>
      </trkpt>
      <trkpt lat="41.97962" lon="33.22572">
        <ele>80.366964</ele>
        <time>2021-08-20T21:06:41.280Z</time>
      </trkpt>
      <trkpt lat="41.97969" lon="33.22539">
        <ele>82.330355</ele>
        <time>2021-08-20T21:06:58.926Z</time>
      </trkpt>
      <trkpt lat="41.97954" lon="33.22389">
        <ele>92.597567</ele>
        <time>2021-08-20T21:08:33.004Z</time>
      </trkpt>
      <trkpt lat="41.97942" lon="33.22348">
        <ele>96.798331</ele>
        <time>2021-08-20T21:09:06.098Z</time>
      </trkpt>
      <trkpt lat="41.97921" lon="33.22313">
        <ele>101.086298</ele>
        <time>2021-08-20T21:09:41.757Z</time>
      </trkpt>
      <trkpt lat="41.97847" lon="33.22256">
        <ele>112.024219</ele>
        <time>2021-08-20T21:11:17.610Z</time>
      </trkpt>
      <trkpt lat="41.9782" lon="33.22221">
        <ele>116.885357</ele>
        <time>2021-08-20T21:12:01.059Z</time>
      </trkpt>
      <trkpt lat="41.97773" lon="33.22077">
        <ele>131.944452</ele>
        <time>2021-08-20T21:14:05.439Z</time>
      </trkpt>
      <trkpt lat="41.9776" lon="33.21998">
        <ele>137.251397</ele>
        <time>2021-08-20T21:14:56.580Z</time>
      </trkpt>
      <trkpt lat="41.97759" lon="33.21964">
        <ele>138.861481</ele>
        <time>2021-08-20T21:15:14.873Z</time>
      </trkpt>
      <trkpt lat="41.97778" lon="33.219">
        <ele>142.143821</ele>
        <time>2021-08-20T21:15:47.621Z</time>
      </trkpt>
      <trkpt lat="41.97763" lon="33.21865">
        <ele>144.022968</ele>
        <time>2021-08-20T21:16:04.157Z</time>
      </trkpt>
      <trkpt lat="41.97724" lon="33.21814">
        <ele>146.805569</ele>
        <time>2021-08-20T21:16:32.261Z</time>
      </trkpt>
      <trkpt lat="41.97715" lon="33.21794">
        <ele>147.265657</ele>
        <time>2021-08-20T21:16:40.357Z</time>
      </trkpt>
      <trkpt lat="41.97713" lon="33.21762">
        <ele>147.897113</ele>
        <time>2021-08-20T21:16:50.569Z</time>
      </trkpt>
      <trkpt lat="41.97735" lon="33.21652">
        <ele>150.144788</ele>
        <time>2021-08-20T21:17:25.417Z</time>
      </trkpt>
      <trkpt lat="41.97704" lon="33.215">
        <ele>154.093352</ele>
        <time>2021-08-20T21:18:24.809Z</time>
      </trkpt>
      <trkpt lat="41.97713" lon="33.21448">
        <ele>155.555336</ele>
        <time>2021-08-20T21:18:45.187Z</time>
      </trkpt>
      <trkpt lat="41.9771" lon="33.2141">
        <ele>156.59305</ele>
        <time>2021-08-20T21:18:59.819Z</time>
      </trkpt>
      <trkpt lat="41.97676" lon="33.21341">
        <ele>158.808486</ele>
        <time>2021-08-20T21:19:33.841Z</time>
      </trkpt>
      <trkpt lat="41.97638" lon="33.21313">
        <ele>160.348361</ele>
        <time>2021-08-20T21:19:59.390Z</time>
      </trkpt>
      <trkpt lat="41.97615" lon="33.21306">
        <ele>161.189336</ele>
        <time>2021-08-20T21:20:13.445Z</time>
      </trkpt>
      <trkpt lat="41.97588" lon="33.2132">
        <ele>162.212536</ele>
        <time>2021-08-20T21:20:28.978Z</time>
      </trkpt>
      <trkpt lat="41.97571" lon="33.21289">
        <ele>163.238821</ele>
        <time>2021-08-20T21:20:42.552Z</time>
      </trkpt>
      <trkpt lat="41.97581" lon="33.21208">
        <ele>163.429758</ele>
        <time>2021-08-20T21:21:05.153Z</time>
      </trkpt>
      <trkpt lat="41.97566" lon="33.2117">
        <ele>162.85951</ele>
        <time>2021-08-20T21:21:14.713Z</time>
      </trkpt>
      <trkpt lat="41.97459" lon="33.21078">
        <ele>159.908189</ele>
        <time>2021-08-20T21:21:43.916Z</time>
      </trkpt>
      <trkpt lat="41.97388" lon="33.21049">
        <ele>155.414846</ele>
        <time>2021-08-20T21:21:58.952Z</time>
      </trkpt>
      <trkpt lat="41.97351" lon="33.21008">
        <ele>152.498427</ele>
        <time>2021-08-20T21:22:08.671Z</time>
      </trkpt>
      <trkpt lat="41.97334" lon="33.20999">
        <ele>151.425895</ele>
        <time>2021-08-20T21:22:12.239Z</time>
      </trkpt>
      <trkpt lat="41.9728" lon="33.21014">
        <ele>147.609444</ele>
        <time>2021-08-20T21:22:23.339Z</time>
      </trkpt>
      <trkpt lat="41.97235" lon="33.21056">
        <ele>143.453442</ele>
        <time>2021-08-20T21:22:34.363Z</time>
      </trkpt>
      <trkpt lat="41.97204" lon="33.21058">
        <ele>141.048754</ele>
        <time>2021-08-20T21:22:40.596Z</time>
      </trkpt>
      <trkpt lat="41.97179" lon="33.21049">
        <ele>139.078929</ele>
        <time>2021-08-20T21:22:45.636Z</time>
      </trkpt>
      <trkpt lat="41.97119" lon="33.21075">
        <ele>134.006071</ele>
        <time>2021-08-20T21:22:57.794Z</time>
      </trkpt>
      <trkpt lat="41.97094" lon="33.21075">
        <ele>131.849035</ele>
        <time>2021-08-20T21:23:02.534Z</time>
      </trkpt>
      <trkpt lat="41.97052" lon="33.21053">
        <ele>127.911561</ele>
        <time>2021-08-20T21:23:11.166Z</time>
      </trkpt>
      <trkpt lat="41.97015" lon="33.21043">
        <ele>124.612287</ele>
        <time>2021-08-20T21:23:18.448Z</time>
      </trkpt>
      <trkpt lat="41.96947" lon="33.21051">
        <ele>119.707469</ele>
        <time>2021-08-20T21:23:31.729Z</time>
      </trkpt>
      <trkpt lat="41.96931" lon="33.21066">
        <ele>118.889692</ele>
        <time>2021-08-20T21:23:35.783Z</time>
      </trkpt>
      <trkpt lat="41.96927" lon="33.21088">
        <ele>118.21381</ele>
        <time>2021-08-20T21:23:39.228Z</time>
      </trkpt>
      <trkpt lat="41.96969" lon="33.21201">
        <ele>114.409852</ele>
        <time>2021-08-20T21:24:00.872Z</time>
      </trkpt>
      <trkpt lat="41.96992" lon="33.21249">
        <ele>113.082954</ele>
        <time>2021-08-20T21:24:12.624Z</time>
      </trkpt>
      <trkpt lat="41.96996" lon="33.2128">
        <ele>112.730063</ele>
        <time>2021-08-20T21:24:19.872Z</time>
      </trkpt>
      <trkpt lat="41.96984" lon="33.21316">
        <ele>112.287567</ele>
        <time>2021-08-20T21:24:29.131Z</time>
      </trkpt>
      <trkpt lat="41.96965" lon="33.21334">
        <ele>111.936981</ele>
        <time>2021-08-20T21:24:36.061Z</time>
      </trkpt>
      <trkpt lat="41.96949" lon="33.21331">
        <ele>111.69328</ele>
        <time>2021-08-20T21:24:40.744Z</time>
      </trkpt>
      <trkpt lat="41.96927" lon="33.213">
        <ele>111.212618</ele>
        <time>2021-08-20T21:24:49.434Z</time>
      </trkpt>
      <trkpt lat="41.96897" lon="33.21233">
        <ele>109.129183</ele>
        <time>2021-08-20T21:25:02.828Z</time>
      </trkpt>
      <trkpt lat="41.96872" lon="33.21208">
        <ele>106.555124</ele>
        <time>2021-08-20T21:25:09.344Z</time>
      </trkpt>
      <trkpt lat="41.96828" lon="33.21179">
        <ele>102.506491</ele>
        <time>2021-08-20T21:25:19.080Z</time>
      </trkpt>
      <trkpt lat="41.96719" lon="33.2116">
        <ele>91.858092</ele>
        <time>2021-08-20T21:25:39.657Z</time>
      </trkpt>
      <trkpt lat="41.96692" lon="33.21134">
        <ele>87.260004</ele>
        <time>2021-08-20T21:25:45.717Z</time>
      </trkpt>
      <trkpt lat="41.96627" lon="33.21049">
        <ele>74.706568</ele>
        <time>2021-08-20T21:26:02.214Z</time>
      </trkpt>
      <trkpt lat="41.96587" lon="33.21026">
        <ele>69.034995</ele>
        <time>2021-08-20T21:26:10.172Z</time>
      </trkpt>
      <trkpt lat="41.96556" lon="33.2102">
        <ele>65.406766</ele>
        <time>2021-08-20T21:26:15.925Z</time>
      </trkpt>
      <trkpt lat="41.96528" lon="33.21028">
        <ele>62.090684</ele>
        <time>2021-08-20T21:26:21.223Z</time>
      </trkpt>
      <trkpt lat="41.96451" lon="33.21117">
        <ele>50.342463</ele>
        <time>2021-08-20T21:26:40.487Z</time>
      </trkpt>
      <trkpt lat="41.96425" lon="33.21156">
        <ele>47.059774</ele>
        <time>2021-08-20T21:26:47.885Z</time>
      </trkpt>
      <trkpt lat="41.96392" lon="33.21151">
        <ele>44.333252</ele>
        <time>2021-08-20T21:26:54.334Z</time>
      </trkpt>
      <trkpt lat="41.96358" lon="33.2109">
        <ele>39.741189</ele>
        <time>2021-08-20T21:27:05.545Z</time>
      </trkpt>
      <trkpt lat="41.96334" lon="33.21069">
        <ele>37.411874</ele>
        <time>2021-08-20T21:27:11.394Z</time>
      </trkpt>
      <trkpt lat="41.96308" lon="33.2107">
        <ele>35.326642</ele>
        <time>2021-08-20T21:27:16.526Z</time>
      </trkpt>
      <trkpt lat="41.9621" lon="33.21165">
        <ele>30.173827</ele>
        <time>2021-08-20T21:27:41.685Z</time>
      </trkpt>
      <trkpt lat="41.96156" lon="33.21162">
        <ele>27.886618</ele>
        <time>2021-08-20T21:27:54.737Z</time>
      </trkpt>
      <trkpt lat="41.96131" lon="33.21154">
        <ele>28.077473</ele>
        <time>2021-08-20T21:28:02.856Z</time>
      </trkpt>
      <trkpt lat="41.96113" lon="33.21179">
        <ele>28.514323</ele>
        <time>2021-08-20T21:28:12.805Z</time>
      </trkpt>
      <trkpt lat="41.96051" lon="33.21237">
        <ele>29.757587</ele>
        <time>2021-08-20T21:28:43.330Z</time>
      </trkpt>
      <trkpt lat="41.96023" lon="33.21274">
        <ele>30.413602</ele>
        <time>2021-08-20T21:29:03.126Z</time>
      </trkpt>
      <trkpt lat="41.96018" lon="33.21323">
        <ele>31.882581</ele>
        <time>2021-08-20T21:29:24.560Z</time>
      </trkpt>
      <trkpt lat="41.96016" lon="33.21422">
        <ele>36.455927</ele>
        <time>2021-08-20T21:30:08.375Z</time>
      </trkpt>
      <trkpt lat="41.95979" lon="33.21389">
        <ele>39.224846</ele>
        <time>2021-08-20T21:30:38.917Z</time>
      </trkpt>
      <trkpt lat="41.95946" lon="33.21374">
        <ele>41.35564</ele>
        <time>2021-08-20T21:31:06.749Z</time>
      </trkpt>
      <trkpt lat="41.95909" lon="33.21354">
        <ele>44.649029</ele>
        <time>2021-08-20T21:31:41.166Z</time>
      </trkpt>
      <trkpt lat="41.95884" lon="33.21343">
        <ele>46.955297</ele>
        <time>2021-08-20T21:32:02.719Z</time>
      </trkpt>
      <trkpt lat="41.95847" lon="33.21333">
        <ele>50.265707</ele>
        <time>2021-08-20T21:32:33.279Z</time>
      </trkpt>
      <trkpt lat="41.95816" lon="33.21331">
        <ele>52.991396</ele>
        <time>2021-08-20T21:32:58.649Z</time>
      </trkpt>
      <trkpt lat="41.95792" lon="33.21333">
        <ele>55.08806</ele>
        <time>2021-08-20T21:33:19.244Z</time>
      </trkpt>
      <trkpt lat="41.95763" lon="33.21316">
        <ele>57.675655</ele>
        <time>2021-08-20T21:33:44.202Z</time>
      </trkpt>
      <trkpt lat="41.9575" lon="33.21295">
        <ele>58.389957</ele>
        <time>2021-08-20T21:33:58.411Z</time>
      </trkpt>
      <trkpt lat="41.95693" lon="33.2125">
        <ele>60.757563</ele>
        <time>2021-08-20T21:34:43.166Z</time>
      </trkpt>
      <trkpt lat="41.95672" lon="33.21216">
        <ele>61.958078</ele>
        <time>2021-08-20T21:34:58.925Z</time>
      </trkpt>
      <trkpt lat="41.9564" lon="33.21179">
        <ele>63.467709</ele>
        <time>2021-08-20T21:35:11.048Z</time>
      </trkpt>
      <trkpt lat="41.95586" lon="33.21133">
        <ele>61.973637</ele>
        <time>2021-08-20T21:35:26.586Z</time>
      </trkpt>
      <trkpt lat="41.95543" lon="33.21073">
        <ele>59.410011</ele>
        <time>2021-08-20T21:35:40.015Z</time>
      </trkpt>
      <trkpt lat="41.95518" lon="33.21065">
        <ele>58.350929</ele>
        <time>2021-08-20T21:35:45.402Z</time>
      </trkpt>
      <trkpt lat="41.95482" lon="33.2104">
        <ele>56.690376</ele>
        <time>2021-08-20T21:35:53.724Z</time>
      </trkpt>
      <trkpt lat="41.95421" lon="33.20979">
        <ele>52.231219</ele>
        <time>2021-08-20T21:36:09.135Z</time>
      </trkpt>
      <trkpt lat="41.95344" lon="33.20949">
        <ele>47.433155</ele>
        <time>2021-08-20T21:36:25.801Z</time>
      </trkpt>
      <trkpt lat="41.95319" lon="33.20964">
        <ele>45.857095</ele>
        <time>2021-08-20T21:36:31.358Z</time>
      </trkpt>
      <trkpt lat="41.95292" lon="33.20991">
        <ele>44.638738</ele>
        <time>2021-08-20T21:36:38.214Z</time>
      </trkpt>
      <trkpt lat="41.95261" lon="33.21009">
        <ele>43.358247</ele>
        <time>2021-08-20T21:36:45.572Z</time>
      </trkpt>
      <trkpt lat="41.95228" lon="33.21063">
        <ele>41.457194</ele>
        <time>2021-08-20T21:36:57.002Z</time>
      </trkpt>
      <trkpt lat="41.95192" lon="33.21053">
        <ele>40.083508</ele>
        <time>2021-08-20T21:37:06.067Z</time>
      </trkpt>
      <trkpt lat="41.95146" lon="33.21035">
        <ele>39.686094</ele>
        <time>2021-08-20T21:37:18.431Z</time>
      </trkpt>
      <trkpt lat="41.94978" lon="33.21046">
        <ele>43.142852</ele>
        <time>2021-08-20T21:38:30.768Z</time>
      </trkpt>
      <trkpt lat="41.94936" lon="33.21058">
        <ele>46.152643</ele>
        <time>2021-08-20T21:39:04.198Z</time>
      </trkpt>
      <trkpt lat="41.94897" lon="33.21054">
        <ele>48.873559</ele>
        <time>2021-08-20T21:39:35.030Z</time>
      </trkpt>
      <trkpt lat="41.94887" lon="33.21104">
        <ele>51.563391</ele>
        <time>2021-08-20T21:40:05.503Z</time>
      </trkpt>
      <trkpt lat="41.94879" lon="33.2113">
        <ele>53.078502</ele>
        <time>2021-08-20T21:40:23.657Z</time>
      </trkpt>
      <trkpt lat="41.94855" lon="33.21109">
        <ele>54.943184</ele>
        <time>2021-08-20T21:40:45.322Z</time>
      </trkpt>
      <trkpt lat="41.94832" lon="33.21082">
        <ele>55.899623</ele>
        <time>2021-08-20T21:41:06.084Z</time>
      </trkpt>
      <trkpt lat="41.94787" lon="33.21046">
        <ele>57.526149</ele>
        <time>2021-08-20T21:41:38.875Z</time>
      </trkpt>
      <trkpt lat="41.94706" lon="33.20887">
        <ele>60.068154</ele>
        <time>2021-08-20T21:42:23.167Z</time>
      </trkpt>
      <trkpt lat="41.94669" lon="33.20838">
        <ele>59.683673</ele>
        <time>2021-08-20T21:42:35.751Z</time>
      </trkpt>
      <trkpt lat="41.94626" lon="33.20793">
        <ele>59.274403</ele>
        <time>2021-08-20T21:42:50.605Z</time>
      </trkpt>
      <trkpt lat="41.94602" lon="33.20788">
        <ele>59.108163</ele>
        <time>2021-08-20T21:42:57.919Z</time>
      </trkpt>
      <trkpt lat="41.94515" lon="33.20742">
        <ele>59.475415</ele>
        <time>2021-08-20T21:43:30.196Z</time>
      </trkpt>
      <trkpt lat="41.94458" lon="33.20737">
        <ele>59.700132</ele>
        <time>2021-08-20T21:43:51.818Z</time>
      </trkpt>
      <trkpt lat="41.94437" lon="33.20729">
        <ele>59.784379</ele>
        <time>2021-08-20T21:43:59.669Z</time>
      </trkpt>
      <trkpt lat="41.94415" lon="33.20711">
        <ele>59.330996</ele>
        <time>2021-08-20T21:44:08.316Z</time>
      </trkpt>
      <trkpt lat="41.94322" lon="33.20586">
        <ele>56.10309</ele>
        <time>2021-08-20T21:44:39.929Z</time>
      </trkpt>
      <trkpt lat="41.943" lon="33.20574">
        <ele>55.515053</ele>
        <time>2021-08-20T21:44:44.901Z</time>
      </trkpt>
      <trkpt lat="41.94277" lon="33.20577">
        <ele>54.626206</ele>
        <time>2021-08-20T21:44:49.547Z</time>
      </trkpt>
      <trkpt lat="41.94254" lon="33.20589">
        <ele>53.536538</ele>
        <time>2021-08-20T21:44:54.723Z</time>
      </trkpt>
      <trkpt lat="41.94228" lon="33.20587">
        <ele>52.402089</ele>
        <time>2021-08-20T21:45:00.135Z</time>
      </trkpt>
      <trkpt lat="41.94223" lon="33.20579">
        <ele>52.054935</ele>
        <time>2021-08-20T21:45:01.796Z</time>
      </trkpt>
      <trkpt lat="41.94217" lon="33.2057">
        <ele>51.655129</ele>
        <time>2021-08-20T21:45:03.652Z</time>
      </trkpt>
      <trkpt lat="41.94194" lon="33.20507">
        <ele>49.356055</ele>
        <time>2021-08-20T21:45:14.923Z</time>
      </trkpt>
      <trkpt lat="41.94173" lon="33.205">
        <ele>48.41002</ele>
        <time>2021-08-20T21:45:19.605Z</time>
      </trkpt>
      <trkpt lat="41.94146" lon="33.20503">
        <ele>47.5077</ele>
        <time>2021-08-20T21:45:25.857Z</time>
      </trkpt>
      <trkpt lat="41.94103" lon="33.20518">
        <ele>47.622052</ele>
        <time>2021-08-20T21:45:36.456Z</time>
      </trkpt>
      <trkpt lat="41.94074" lon="33.20519">
        <ele>47.694493</ele>
        <time>2021-08-20T21:45:44.289Z</time>
      </trkpt>
      <trkpt lat="41.94045" lon="33.20516">
        <ele>47.769683</ele>
        <time>2021-08-20T21:45:54.315Z</time>
      </trkpt>
      <trkpt lat="41.93908" lon="33.20496">
        <ele>49.910544</ele>
        <time>2021-08-20T21:47:00.339Z</time>
      </trkpt>
      <trkpt lat="41.9387" lon="33.20495">
        <ele>51.03825</ele>
        <time>2021-08-20T21:47:19.384Z</time>
      </trkpt>
      <trkpt lat="41.93831" lon="33.20494">
        <ele>52.165999</ele>
        <time>2021-08-20T21:47:38.006Z</time>
      </trkpt>
      <trkpt lat="41.93774" lon="33.20435">
        <ele>53.754082</ele>
        <time>2021-08-20T21:48:11.423Z</time>
      </trkpt>
      <trkpt lat="41.93723" lon="33.20417">
        <ele>54.505911</ele>
        <time>2021-08-20T21:48:32.907Z</time>
      </trkpt>
      <trkpt lat="41.93701" lon="33.20418">
        <ele>54.8118</ele>
        <time>2021-08-20T21:48:40.724Z</time>
      </trkpt>
      <trkpt lat="41.93644" lon="33.20456">
        <ele>55.720868</ele>
        <time>2021-08-20T21:49:02.608Z</time>
      </trkpt>
      <trkpt lat="41.93601" lon="33.20447">
        <ele>56.150769</ele>
        <time>2021-08-20T21:49:17.145Z</time>
      </trkpt>
      <trkpt lat="41.93589" lon="33.20435">
        <ele>56.295493</ele>
        <time>2021-08-20T21:49:22.464Z</time>
      </trkpt>
      <trkpt lat="41.93571" lon="33.20397">
        <ele>56.611212</ele>
        <time>2021-08-20T21:49:34.256Z</time>
      </trkpt>
      <trkpt lat="41.93551" lon="33.20377">
        <ele>56.842413</ele>
        <time>2021-08-20T21:49:43.086Z</time>
      </trkpt>
      <trkpt lat="41.93505" lon="33.20348">
        <ele>57.320104</ele>
        <time>2021-08-20T21:50:02.126Z</time>
      </trkpt>
      <trkpt lat="41.93463" lon="33.20278">
        <ele>58.30707</ele>
        <time>2021-08-20T21:50:29.244Z</time>
      </trkpt>
      <trkpt lat="41.93409" lon="33.20253">
        <ele>59.263073</ele>
        <time>2021-08-20T21:50:53.718Z</time>
      </trkpt>
      <trkpt lat="41.93362" lon="33.20253">
        <ele>60.049858</ele>
        <time>2021-08-20T21:51:13.200Z</time>
      </trkpt>
      <trkpt lat="41.93306" lon="33.20269">
        <ele>60.707773</ele>
        <time>2021-08-20T21:51:35.802Z</time>
      </trkpt>
      <trkpt lat="41.93139" lon="33.20258">
        <ele>61.8024</ele>
        <time>2021-08-20T21:52:32.345Z</time>
      </trkpt>
      <trkpt lat="41.93062" lon="33.20259">
        <ele>62.049464</ele>
        <time>2021-08-20T21:52:56.454Z</time>
      </trkpt>
      <trkpt lat="41.93001" lon="33.20277">
        <ele>62.24822</ele>
        <time>2021-08-20T21:53:17.003Z</time>
      </trkpt>
      <trkpt lat="41.92977" lon="33.20274">
        <ele>62.342245</ele>
        <time>2021-08-20T21:53:25.379Z</time>
      </trkpt>
      <trkpt lat="41.92898" lon="33.20227">
        <ele>63.268679</ele>
        <time>2021-08-20T21:53:56.039Z</time>
      </trkpt>
      <trkpt lat="41.92856" lon="33.20206">
        <ele>63.746959</ele>
        <time>2021-08-20T21:54:13.190Z</time>
      </trkpt>
      <trkpt lat="41.92757" lon="33.20195">
        <ele>65.122978</ele>
        <time>2021-08-20T21:54:52.829Z</time>
      </trkpt>
      <trkpt lat="41.92731" lon="33.20177">
        <ele>65.605251</ele>
        <time>2021-08-20T21:55:03.846Z</time>
      </trkpt>
      <trkpt lat="41.92727" lon="33.20169">
        <ele>65.726886</ele>
        <time>2021-08-20T21:55:07.153Z</time>
      </trkpt>
      <trkpt lat="41.92708" lon="33.2014">
        <ele>66.207671</ele>
        <time>2021-08-20T21:55:18.074Z</time>
      </trkpt>
      <trkpt lat="41.92698" lon="33.20103">
        <ele>66.699017</ele>
        <time>2021-08-20T21:55:30.203Z</time>
      </trkpt>
      <trkpt lat="41.92684" lon="33.20072">
        <ele>67.15286</ele>
        <time>2021-08-20T21:55:41.963Z</time>
      </trkpt>
      <trkpt lat="41.92657" lon="33.20041">
        <ele>67.917092</ele>
        <time>2021-08-20T21:55:57.106Z</time>
      </trkpt>
      <trkpt lat="41.92609" lon="33.19977">
        <ele>69.461619</ele>
        <time>2021-08-20T21:56:26.571Z</time>
      </trkpt>
      <trkpt lat="41.92579" lon="33.1995">
        <ele>70.274344</ele>
        <time>2021-08-20T21:56:42.132Z</time>
      </trkpt>
      <trkpt lat="41.92546" lon="33.19922">
        <ele>71.159302</ele>
        <time>2021-08-20T21:56:59.486Z</time>
      </trkpt>
      <trkpt lat="41.92488" lon="33.199">
        <ele>72.6873</ele>
        <time>2021-08-20T21:57:27.333Z</time>
      </trkpt>
      <trkpt lat="41.92462" lon="33.1987">
        <ele>73.557236</ele>
        <time>2021-08-20T21:57:43.269Z</time>
      </trkpt>
      <trkpt lat="41.92452" lon="33.19837">
        <ele>74.244484</ele>
        <time>2021-08-20T21:57:55.591Z</time>
      </trkpt>
      <trkpt lat="41.92451" lon="33.19801">
        <ele>74.920342</ele>
        <time>2021-08-20T21:58:07.438Z</time>
      </trkpt>
      <trkpt lat="41.92472" lon="33.1973">
        <ele>76.281394</ele>
        <time>2021-08-20T21:58:33.071Z</time>
      </trkpt>
      <trkpt lat="41.92474" lon="33.19691">
        <ele>76.867125</ele>
        <time>2021-08-20T21:58:46.281Z</time>
      </trkpt>
      <trkpt lat="41.92466" lon="33.19648">
        <ele>77.515022</ele>
        <time>2021-08-20T21:59:00.476Z</time>
      </trkpt>
      <trkpt lat="41.92443" lon="33.19606">
        <ele>78.29284</ele>
        <time>2021-08-20T21:59:16.980Z</time>
      </trkpt>
      <trkpt lat="41.92416" lon="33.19587">
        <ele>78.88791</ele>
        <time>2021-08-20T21:59:29.264Z</time>
      </trkpt>
      <trkpt lat="41.92401" lon="33.19564">
        <ele>79.334314</ele>
        <time>2021-08-20T21:59:38.417Z</time>
      </trkpt>
      <trkpt lat="41.9238" lon="33.19546">
        <ele>79.691568</ele>
        <time>2021-08-20T21:59:48.129Z</time>
      </trkpt>
      <trkpt lat="41.92326" lon="33.19527">
        <ele>80.323608</ele>
        <time>2021-08-20T22:00:09.569Z</time>
      </trkpt>
      <trkpt lat="41.92295" lon="33.19509">
        <ele>80.701599</ele>
        <time>2021-08-20T22:00:22.141Z</time>
      </trkpt>
      <trkpt lat="41.92273" lon="33.19488">
        <ele>81.00396</ele>
        <time>2021-08-20T22:00:31.998Z</time>
      </trkpt>
      <trkpt lat="41.92242" lon="33.19472">
        <ele>81.378863</ele>
        <time>2021-08-20T22:00:43.914Z</time>
      </trkpt>
      <trkpt lat="41.92203" lon="33.1943">
        <ele>81.955951</ele>
        <time>2021-08-20T22:01:01.688Z</time>
      </trkpt>
      <trkpt lat="41.9219" lon="33.19417">
        <ele>82.1402</ele>
        <time>2021-08-20T22:01:07.464Z</time>
      </trkpt>
      <trkpt lat="41.92157" lon="33.19398">
        <ele>82.563867</ele>
        <time>2021-08-20T22:01:20.606Z</time>
      </trkpt>
      <trkpt lat="41.92075" lon="33.1933">
        <ele>83.712219</ele>
        <time>2021-08-20T22:01:57.754Z</time>
      </trkpt>
      <trkpt lat="41.92047" lon="33.19285">
        <ele>84.479776</ele>
        <time>2021-08-20T22:02:15.802Z</time>
      </trkpt>
      <trkpt lat="41.92043" lon="33.19247">
        <ele>84.991017</ele>
        <time>2021-08-20T22:02:27.905Z</time>
      </trkpt>
      <trkpt lat="41.92032" lon="33.19213">
        <ele>85.462358</ele>
        <time>2021-08-20T22:02:39.308Z</time>
      </trkpt>
      <trkpt lat="41.92014" lon="33.19183">
        <ele>85.970965</ele>
        <time>2021-08-20T22:02:51.638Z</time>
      </trkpt>
      <trkpt lat="41.91978" lon="33.19141">
        <ele>86.803477</ele>
        <time>2021-08-20T22:03:11.506Z</time>
      </trkpt>
      <trkpt lat="41.9192" lon="33.19087">
        <ele>87.809984</ele>
        <time>2021-08-20T22:03:39.567Z</time>
      </trkpt>
      <trkpt lat="41.91892" lon="33.19077">
        <ele>88.219304</ele>
        <time>2021-08-20T22:03:49.750Z</time>
      </trkpt>
      <trkpt lat="41.91861" lon="33.19089">
        <ele>88.676759</ele>
        <time>2021-08-20T22:04:02.134Z</time>
      </trkpt>
      <trkpt lat="41.91801" lon="33.19125">
        <ele>89.693872</ele>
        <time>2021-08-20T22:04:27.893Z</time>
      </trkpt>
      <trkpt lat="41.91761" lon="33.19129">
        <ele>90.485518</ele>
        <time>2021-08-20T22:04:43.934Z</time>
      </trkpt>
      <trkpt lat="41.9173" lon="33.19133">
        <ele>91.092591</ele>
        <time>2021-08-20T22:04:57.168Z</time>
      </trkpt>
      <trkpt lat="41.91703" lon="33.1911">
        <ele>91.711131</ele>
        <time>2021-08-20T22:05:10.555Z</time>
      </trkpt>
      <trkpt lat="41.91696" lon="33.19092">
        <ele>92.003293</ele>
        <time>2021-08-20T22:05:16.802Z</time>
      </trkpt>
      <trkpt lat="41.91661" lon="33.19075">
        <ele>92.730077</ele>
        <time>2021-08-20T22:05:33.148Z</time>
      </trkpt>
      <trkpt lat="41.91603" lon="33.19074">
        <ele>93.846428</ele>
        <time>2021-08-20T22:06:00.461Z</time>
      </trkpt>
      <trkpt lat="41.91583" lon="33.19061">
        <ele>94.271394</ele>
        <time>2021-08-20T22:06:09.944Z</time>
      </trkpt>
      <trkpt lat="41.91517" lon="33.1899">
        <ele>95.881636</ele>
        <time>2021-08-20T22:06:44.097Z</time>
      </trkpt>
      <trkpt lat="41.91469" lon="33.1896">
        <ele>96.802516</ele>
        <time>2021-08-20T22:07:03.933Z</time>
      </trkpt>
      <trkpt lat="41.91416" lon="33.18944">
        <ele>97.697275</ele>
        <time>2021-08-20T22:07:24.669Z</time>
      </trkpt>
      <trkpt lat="41.9133" lon="33.18958">
        <ele>99.101211</ele>
        <time>2021-08-20T22:07:59.779Z</time>
      </trkpt>
      <trkpt lat="41.91275" lon="33.18935">
        <ele>100.603624</ele>
        <time>2021-08-20T22:08:25.646Z</time>
      </trkpt>
      <trkpt lat="41.9118" lon="33.18956">
        <ele>103.260262</ele>
        <time>2021-08-20T22:09:11.191Z</time>
      </trkpt>
      <trkpt lat="41.91112" lon="33.18953">
        <ele>105.092249</ele>
        <time>2021-08-20T22:09:44.714Z</time>
      </trkpt>
      <trkpt lat="41.91065" lon="33.18975">
        <ele>106.451993</ele>
        <time>2021-08-20T22:10:09.090Z</time>
      </trkpt>
      <trkpt lat="41.90999" lon="33.19034">
        <ele>108.611733</ele>
        <time>2021-08-20T22:10:44.376Z</time>
      </trkpt>
      <trkpt lat="41.90971" lon="33.19035">
        <ele>109.244414</ele>
        <time>2021-08-20T22:10:56.406Z</time>
      </trkpt>
      <trkpt lat="41.90934" lon="33.19026">
        <ele>109.894963</ele>
        <time>2021-08-20T22:11:12.939Z</time>
      </trkpt>
      <trkpt lat="41.90907" lon="33.18994">
        <ele>110.499372</ele>
        <time>2021-08-20T22:11:28.142Z</time>
      </trkpt>
      <trkpt lat="41.90875" lon="33.18979">
        <ele>111.086025</ele>
        <time>2021-08-20T22:11:42.340Z</time>
      </trkpt>
      <trkpt lat="41.908" lon="33.18979">
        <ele>112.16425</ele>
        <time>2021-08-20T22:12:10.234Z</time>
      </trkpt>
      <trkpt lat="41.90741" lon="33.18987">
        <ele>112.444645</ele>
        <time>2021-08-20T22:12:30.660Z</time>
      </trkpt>
      <trkpt lat="41.90704" lon="33.18983">
        <ele>112.623187</ele>
        <time>2021-08-20T22:12:43.353Z</time>
      </trkpt>
      <trkpt lat="41.90671" lon="33.18978">
        <ele>112.778471</ele>
        <time>2021-08-20T22:12:54.007Z</time>
      </trkpt>
      <trkpt lat="41.90609" lon="33.18953">
        <ele>113.045373</ele>
        <time>2021-08-20T22:13:13.662Z</time>
      </trkpt>
      <trkpt lat="41.90484" lon="33.18909">
        <ele>113.493767</ele>
        <time>2021-08-20T22:13:55.696Z</time>
      </trkpt>
      <trkpt lat="41.90453" lon="33.18849">
        <ele>114.44386</ele>
        <time>2021-08-20T22:14:15.799Z</time>
      </trkpt>
      <trkpt lat="41.90439" lon="33.18781">
        <ele>115.800481</ele>
        <time>2021-08-20T22:14:36.125Z</time>
      </trkpt>
      <trkpt lat="41.90437" lon="33.18733">
        <ele>116.738284</ele>
        <time>2021-08-20T22:14:50.881Z</time>
      </trkpt>
      <trkpt lat="41.90423" lon="33.18695">
        <ele>117.545299</ele>
        <time>2021-08-20T22:15:08.071Z</time>
      </trkpt>
      <trkpt lat="41.90406" lon="33.18672">
        <ele>118.192538</ele>
        <time>2021-08-20T22:15:21.092Z</time>
      </trkpt>
      <trkpt lat="41.90391" lon="33.18666">
        <ele>119.099037</ele>
        <time>2021-08-20T22:15:34.037Z</time>
      </trkpt>
      <trkpt lat="41.90318" lon="33.18684">
        <ele>123.718554</ele>
        <time>2021-08-20T22:16:22.018Z</time>
      </trkpt>
      <trkpt lat="41.90301" lon="33.18682">
        <ele>124.773937</ele>
        <time>2021-08-20T22:16:30.685Z</time>
      </trkpt>
      <trkpt lat="41.90296" lon="33.18679">
        <ele>125.143506</ele>
        <time>2021-08-20T22:16:33.594Z</time>
      </trkpt>
      <trkpt lat="41.90287" lon="33.18675">
        <ele>125.739974</ele>
        <time>2021-08-20T22:16:44.022Z</time>
      </trkpt>
      <trkpt lat="41.90276" lon="33.18609">
        <ele>128.868755</ele>
        <time>2021-08-20T22:17:16.817Z</time>
      </trkpt>
      <trkpt lat="41.90261" lon="33.18589">
        <ele>130.156461</ele>
        <time>2021-08-20T22:17:33.996Z</time>
      </trkpt>
      <trkpt lat="41.90249" lon="33.186">
        <ele>130.955982</ele>
        <time>2021-08-20T22:17:42.284Z</time>
      </trkpt>
      <trkpt lat="41.90228" lon="33.18672">
        <ele>134.316179</ele>
        <time>2021-08-20T22:18:26.538Z</time>
      </trkpt>
      <trkpt lat="41.90214" lon="33.18688">
        <ele>135.370014</ele>
        <time>2021-08-20T22:18:37.403Z</time>
      </trkpt>
      <trkpt lat="41.90194" lon="33.18693">
        <ele>136.547422</ele>
        <time>2021-08-20T22:18:48.873Z</time>
      </trkpt>
      <trkpt lat="41.90176" lon="33.18706">
        <ele>137.751078</ele>
        <time>2021-08-20T22:18:59.952Z</time>
      </trkpt>
      <trkpt lat="41.90163" lon="33.18724">
        <ele>138.831934</ele>
        <time>2021-08-20T22:19:09.997Z</time>
      </trkpt>
      <trkpt lat="41.90151" lon="33.1877">
        <ele>140.856779</ele>
        <time>2021-08-20T22:19:29.003Z</time>
      </trkpt>
      <trkpt lat="41.90142" lon="33.1878">
        <ele>141.458738</ele>
        <time>2021-08-20T22:19:34.950Z</time>
      </trkpt>
      <trkpt lat="41.90124" lon="33.18781">
        <ele>142.436813</ele>
        <time>2021-08-20T22:19:45.208Z</time>
      </trkpt>
      <trkpt lat="41.90107" lon="33.18771">
        <ele>143.402971</ele>
        <time>2021-08-20T22:19:55.392Z</time>
      </trkpt>
      <trkpt lat="41.90093" lon="33.18725">
        <ele>145.379035</ele>
        <time>2021-08-20T22:20:17.096Z</time>
      </trkpt>
      <trkpt lat="41.90074" lon="33.18697">
        <ele>146.8524</ele>
        <time>2021-08-20T22:20:33.738Z</time>
      </trkpt>
      <trkpt lat="41.90044" lon="33.18682">
        <ele>148.57218</ele>
        <time>2021-08-20T22:20:57.394Z</time>
      </trkpt>
      <trkpt lat="41.90002" lon="33.18732">
        <ele>152.399092</ele>
        <time>2021-08-20T22:21:36.746Z</time>
      </trkpt>
      <trkpt lat="41.89987" lon="33.18744">
        <ele>153.74192</ele>
        <time>2021-08-20T22:21:50.104Z</time>
      </trkpt>
      <trkpt lat="41.89965" lon="33.1875">
        <ele>155.390668</ele>
        <time>2021-08-20T22:22:05.608Z</time>
      </trkpt>
      <trkpt lat="41.89945" lon="33.1874">
        <ele>156.986323</ele>
        <time>2021-08-20T22:22:21.037Z</time>
      </trkpt>
      <trkpt lat="41.89921" lon="33.1874">
        <ele>158.779845</ele>
        <time>2021-08-20T22:22:40.795Z</time>
      </trkpt>
      <trkpt lat="41.89884" lon="33.18753">
        <ele>161.692003</ele>
        <time>2021-08-20T22:23:10.051Z</time>
      </trkpt>
      <trkpt lat="41.8984" lon="33.18803">
        <ele>165.256516</ele>
        <time>2021-08-20T22:23:50.494Z</time>
      </trkpt>
      <trkpt lat="41.89797" lon="33.18838">
        <ele>168.111943</ele>
        <time>2021-08-20T22:24:25.308Z</time>
      </trkpt>
      <trkpt lat="41.89783" lon="33.18858">
        <ele>169.300815</ele>
        <time>2021-08-20T22:24:36.264Z</time>
      </trkpt>
      <trkpt lat="41.89749" lon="33.18875">
        <ele>171.38613</ele>
        <time>2021-08-20T22:24:56.162Z</time>
      </trkpt>
      <trkpt lat="41.89722" lon="33.18902">
        <ele>173.257601</ele>
        <time>2021-08-20T22:25:14.884Z</time>
      </trkpt>
      <trkpt lat="41.89709" lon="33.18896">
        <ele>173.851807</ele>
        <time>2021-08-20T22:25:23.241Z</time>
      </trkpt>
      <trkpt lat="41.89694" lon="33.18865">
        <ele>174.973806</ele>
        <time>2021-08-20T22:25:39.119Z</time>
      </trkpt>
      <trkpt lat="41.8968" lon="33.1886">
        <ele>175.582082</ele>
        <time>2021-08-20T22:25:47.287Z</time>
      </trkpt>
      <trkpt lat="41.89652" lon="33.1887">
        <ele>176.769675</ele>
        <time>2021-08-20T22:26:02.686Z</time>
      </trkpt>
      <trkpt lat="41.89632" lon="33.18904">
        <ele>178.109438</ele>
        <time>2021-08-20T22:26:19.872Z</time>
      </trkpt>
      <trkpt lat="41.89606" lon="33.18902">
        <ele>179.167213</ele>
        <time>2021-08-20T22:26:33.661Z</time>
      </trkpt>
      <trkpt lat="41.89583" lon="33.18941">
        <ele>180.666695</ele>
        <time>2021-08-20T22:26:53.699Z</time>
      </trkpt>
      <trkpt lat="41.89541" lon="33.18943">
        <ele>181.320764</ele>
        <time>2021-08-20T22:27:15.801Z</time>
      </trkpt>
      <trkpt lat="41.89527" lon="33.18956">
        <ele>181.591396</ele>
        <time>2021-08-20T22:27:24.382Z</time>
      </trkpt>
      <trkpt lat="41.89515" lon="33.18984">
        <ele>181.968249</ele>
        <time>2021-08-20T22:27:35.380Z</time>
      </trkpt>
      <trkpt lat="41.89502" lon="33.19047">
        <ele>182.735393</ele>
        <time>2021-08-20T22:27:53.335Z</time>
      </trkpt>
      <trkpt lat="41.89489" lon="33.19077">
        <ele>183.139804</ele>
        <time>2021-08-20T22:28:01.198Z</time>
      </trkpt>
      <trkpt lat="41.89477" lon="33.19089">
        <ele>183.37219</ele>
        <time>2021-08-20T22:28:05.214Z</time>
      </trkpt>
      <trkpt lat="41.89459" lon="33.19078">
        <ele>183.043246</ele>
        <time>2021-08-20T22:28:10.686Z</time>
      </trkpt>
      <trkpt lat="41.8944" lon="33.19078">
        <ele>182.468274</ele>
        <time>2021-08-20T22:28:15.421Z</time>
      </trkpt>
      <trkpt lat="41.89414" lon="33.191">
        <ele>181.567883</ele>
        <time>2021-08-20T22:28:22.578Z</time>
      </trkpt>
      <trkpt lat="41.89396" lon="33.19147">
        <ele>180.391093</ele>
        <time>2021-08-20T22:28:31.274Z</time>
      </trkpt>
      <trkpt lat="41.8936" lon="33.19205">
        <ele>178.69418</ele>
        <time>2021-08-20T22:28:43.480Z</time>
      </trkpt>
      <trkpt lat="41.89339" lon="33.19267">
        <ele>178.473071</ele>
        <time>2021-08-20T22:28:54.540Z</time>
      </trkpt>
      <trkpt lat="41.8931" lon="33.19289">
        <ele>178.907088</ele>
        <time>2021-08-20T22:29:03.732Z</time>
      </trkpt>
      <trkpt lat="41.89283" lon="33.19302">
        <ele>179.281635</ele>
        <time>2021-08-20T22:29:15.503Z</time>
      </trkpt>
      <trkpt lat="41.89269" lon="33.19301">
        <ele>179.46953</ele>
        <time>2021-08-20T22:29:18.941Z</time>
      </trkpt>
      <trkpt lat="41.89263" lon="33.19284">
        <ele>179.656035</ele>
        <time>2021-08-20T22:29:29.252Z</time>
      </trkpt>
      <trkpt lat="41.89242" lon="33.19234">
        <ele>180.213203</ele>
        <time>2021-08-20T22:29:52.022Z</time>
      </trkpt>
      <trkpt lat="41.89213" lon="33.19207">
        <ele>182.246658</ele>
        <time>2021-08-20T22:30:15.537Z</time>
      </trkpt>
      <trkpt lat="41.89186" lon="33.19194">
        <ele>184.906653</ele>
        <time>2021-08-20T22:30:36.532Z</time>
      </trkpt>
      <trkpt lat="41.89173" lon="33.19178">
        <ele>186.600013</ele>
        <time>2021-08-20T22:30:50.146Z</time>
      </trkpt>
      <trkpt lat="41.89177" lon="33.19169">
        <ele>187.36741</ele>
        <time>2021-08-20T22:30:56.277Z</time>
      </trkpt>
      <trkpt lat="41.89222" lon="33.19155">
        <ele>191.807038</ele>
        <time>2021-08-20T22:31:40.697Z</time>
      </trkpt>
      <trkpt lat="41.89234" lon="33.19147">
        <ele>193.103981</ele>
        <time>2021-08-20T22:31:53.388Z</time>
      </trkpt>
      <trkpt lat="41.89246" lon="33.19133">
        <ele>194.570604</ele>
        <time>2021-08-20T22:32:07.825Z</time>
      </trkpt>
      <trkpt lat="41.8926" lon="33.19103">
        <ele>197.083497</ele>
        <time>2021-08-20T22:32:33.794Z</time>
      </trkpt>
      <trkpt lat="41.89282" lon="33.19095">
        <ele>199.774556</ele>
        <time>2021-08-20T22:32:57.786Z</time>
      </trkpt>
      <trkpt lat="41.89285" lon="33.19089">
        <ele>200.49392</ele>
        <time>2021-08-20T22:33:03.559Z</time>
      </trkpt>
      <trkpt lat="41.89282" lon="33.1908">
        <ele>201.391018</ele>
        <time>2021-08-20T22:33:10.682Z</time>
      </trkpt>
      <trkpt lat="41.89276" lon="33.19078">
        <ele>202.156072</ele>
        <time>2021-08-20T22:33:18.020Z</time>
      </trkpt>
      <trkpt lat="41.89233" lon="33.19092">
        <ele>207.615797</ele>
        <time>2021-08-20T22:34:02.657Z</time>
      </trkpt>
      <trkpt lat="41.89226" lon="33.19087">
        <ele>208.592008</ele>
        <time>2021-08-20T22:34:09.807Z</time>
      </trkpt>
      <trkpt lat="41.89218" lon="33.1907">
        <ele>210.539402</ele>
        <time>2021-08-20T22:34:24.998Z</time>
      </trkpt>
      <trkpt lat="41.892" lon="33.1903">
        <ele>214.892719</ele>
        <time>2021-08-20T22:35:00.403Z</time>
      </trkpt>
      <trkpt lat="41.89194" lon="33.19018">
        <ele>216.26402</ele>
        <time>2021-08-20T22:35:13.899Z</time>
      </trkpt>
      <trkpt lat="41.89183" lon="33.19">
        <ele>218.396276</ele>
        <time>2021-08-20T22:35:30.235Z</time>
      </trkpt>
      <trkpt lat="41.89186" lon="33.18995">
        <ele>219.038661</ele>
        <time>2021-08-20T22:35:35.139Z</time>
      </trkpt>
      <trkpt lat="41.89197" lon="33.18995">
        <ele>220.354373</ele>
        <time>2021-08-20T22:35:47.310Z</time>
      </trkpt>
      <trkpt lat="41.89212" lon="33.19006">
        <ele>222.66934</ele>
        <time>2021-08-20T22:36:05.757Z</time>
      </trkpt>
      <trkpt lat="41.89247" lon="33.19014">
        <ele>227.216514</ele>
        <time>2021-08-20T22:36:43.790Z</time>
      </trkpt>
      <trkpt lat="41.89263" lon="33.19011">
        <ele>229.388815</ele>
        <time>2021-08-20T22:37:01.709Z</time>
      </trkpt>
      <trkpt lat="41.89273" lon="33.18998">
        <ele>231.197084</ele>
        <time>2021-08-20T22:37:18.232Z</time>
      </trkpt>
      <trkpt lat="41.89258" lon="33.18984">
        <ele>233.632113</ele>
        <time>2021-08-20T22:37:36.980Z</time>
      </trkpt>
      <trkpt lat="41.89249" lon="33.18961">
        <ele>236.092331</ele>
        <time>2021-08-20T22:37:59.141Z</time>
      </trkpt>
      <trkpt lat="41.89212" lon="33.18924">
        <ele>242.128786</ele>
        <time>2021-08-20T22:38:44.285Z</time>
      </trkpt>
      <trkpt lat="41.89199" lon="33.18903">
        <ele>244.707629</ele>
        <time>2021-08-20T22:39:05.274Z</time>
      </trkpt>
      <trkpt lat="41.89152" lon="33.18892">
        <ele>250.428946</ele>
        <time>2021-08-20T22:39:53.301Z</time>
      </trkpt>
      <trkpt lat="41.89144" lon="33.1888">
        <ele>251.900962</ele>
        <time>2021-08-20T22:40:05.187Z</time>
      </trkpt>
      <trkpt lat="41.89147" lon="33.18861">
        <ele>253.64011</ele>
        <time>2021-08-20T22:40:20.778Z</time>
      </trkpt>
      <trkpt lat="41.89176" lon="33.18853">
        <ele>257.18731</ele>
        <time>2021-08-20T22:40:49.946Z</time>
      </trkpt>
      <trkpt lat="41.89206" lon="33.18853">
        <ele>260.864346</ele>
        <time>2021-08-20T22:41:19.738Z</time>
      </trkpt>
      <trkpt lat="41.89273" lon="33.1889">
        <ele>269.746564</ele>
        <time>2021-08-20T22:42:30.159Z</time>
      </trkpt>
      <trkpt lat="41.89303" lon="33.18891">
        <ele>273.627491</ele>
        <time>2021-08-20T22:43:01.181Z</time>
      </trkpt>
      <trkpt lat="41.89312" lon="33.18889">
        <ele>274.743202</ele>
        <time>2021-08-20T22:43:09.779Z</time>
      </trkpt>
      <trkpt lat="41.89343" lon="33.1885">
        <ele>280.046418</ele>
        <time>2021-08-20T22:43:53.178Z</time>
      </trkpt>
      <trkpt lat="41.89378" lon="33.18832">
        <ele>284.788847</ele>
        <time>2021-08-20T22:44:33.333Z</time>
      </trkpt>
      <trkpt lat="41.8938" lon="33.18825">
        <ele>285.51402</ele>
        <time>2021-08-20T22:44:39.609Z</time>
      </trkpt>
      <trkpt lat="41.89375" lon="33.18817">
        <ele>286.549265</ele>
        <time>2021-08-20T22:44:48.765Z</time>
      </trkpt>
      <trkpt lat="41.89339" lon="33.18807">
        <ele>291.643529</ele>
        <time>2021-08-20T22:45:29.845Z</time>
      </trkpt>
      <trkpt lat="41.893" lon="33.18808">
        <ele>297.034077</ele>
        <time>2021-08-20T22:46:11.860Z</time>
      </trkpt>
      <trkpt lat="41.8922" lon="33.18744">
        <ele>310.068387</ele>
        <time>2021-08-20T22:47:57.124Z</time>
      </trkpt>
      <trkpt lat="41.89183" lon="33.18737">
        <ele>315.091178</ele>
        <time>2021-08-20T22:48:39.720Z</time>
      </trkpt>
      <trkpt lat="41.89142" lon="33.1872">
        <ele>320.296315</ele>
        <time>2021-08-20T22:49:27.302Z</time>
      </trkpt>
      <trkpt lat="41.89131" lon="33.18693">
        <ele>323.061366</ele>
        <time>2021-08-20T22:49:51.720Z</time>
      </trkpt>
      <trkpt lat="41.89124" lon="33.18689">
        <ele>324.012968</ele>
        <time>2021-08-20T22:49:59.671Z</time>
      </trkpt>
      <trkpt lat="41.89102" lon="33.18693">
        <ele>326.727145</ele>
        <time>2021-08-20T22:50:22.158Z</time>
      </trkpt>
      <trkpt lat="41.8905" lon="33.18723">
        <ele>333.561831</ele>
        <time>2021-08-20T22:51:13.932Z</time>
      </trkpt>
      <trkpt lat="41.89015" lon="33.18709">
        <ele>336.865297</ele>
        <time>2021-08-20T22:51:44.895Z</time>
      </trkpt>
      <trkpt lat="41.88985" lon="33.18721">
        <ele>339.295151</ele>
        <time>2021-08-20T22:52:10.737Z</time>
      </trkpt>
      <trkpt lat="41.88948" lon="33.18699">
        <ele>342.404362</ele>
        <time>2021-08-20T22:52:41.878Z</time>
      </trkpt>
      <trkpt lat="41.88901" lon="33.18719">
        <ele>346.222695</ele>
        <time>2021-08-20T22:53:16.949Z</time>
      </trkpt>
      <trkpt lat="41.88859" lon="33.18703">
        <ele>349.398006</ele>
        <time>2021-08-20T22:53:45.593Z</time>
      </trkpt>
      <trkpt lat="41.88831" lon="33.18686">
        <ele>351.203004</ele>
        <time>2021-08-20T22:54:04.900Z</time>
      </trkpt>
      <trkpt lat="41.88787" lon="33.18642">
        <ele>354.419851</ele>
        <time>2021-08-20T22:54:39.541Z</time>
      </trkpt>
      <trkpt lat="41.88699" lon="33.18483">
        <ele>362.0619</ele>
        <time>2021-08-20T22:56:18.256Z</time>
      </trkpt>
      <trkpt lat="41.88665" lon="33.18454">
        <ele>363.76186</ele>
        <time>2021-08-20T22:56:41.898Z</time>
      </trkpt>
      <trkpt lat="41.88658" lon="33.18422">
        <ele>364.824086</ele>
        <time>2021-08-20T22:56:55.867Z</time>
      </trkpt>
      <trkpt lat="41.88654" lon="33.18392">
        <ele>365.771445</ele>
        <time>2021-08-20T22:57:06.463Z</time>
      </trkpt>
      <trkpt lat="41.88658" lon="33.18356">
        <ele>366.921431</ele>
        <time>2021-08-20T22:57:18.117Z</time>
      </trkpt>
      <trkpt lat="41.88676" lon="33.18337">
        <ele>366.841195</ele>
        <time>2021-08-20T22:57:27.936Z</time>
      </trkpt>
      <trkpt lat="41.88692" lon="33.18303">
        <ele>366.569736</ele>
        <time>2021-08-20T22:57:39.047Z</time>
      </trkpt>
      <trkpt lat="41.88701" lon="33.18272">
        <ele>366.347345</ele>
        <time>2021-08-20T22:57:46.910Z</time>
      </trkpt>
      <trkpt lat="41.88699" lon="33.18254">
        <ele>366.226439</ele>
        <time>2021-08-20T22:57:51.306Z</time>
      </trkpt>
      <trkpt lat="41.88686" lon="33.18228">
        <ele>366.018323</ele>
        <time>2021-08-20T22:57:57.440Z</time>
      </trkpt>
      <trkpt lat="41.88653" lon="33.18206">
        <ele>365.678401</ele>
        <time>2021-08-20T22:58:06.765Z</time>
      </trkpt>
      <trkpt lat="41.88578" lon="33.18174">
        <ele>364.386987</ele>
        <time>2021-08-20T22:58:25.100Z</time>
      </trkpt>
      <trkpt lat="41.88559" lon="33.18162">
        <ele>363.943253</ele>
        <time>2021-08-20T22:58:30.070Z</time>
      </trkpt>
      <trkpt lat="41.88553" lon="33.18147">
        <ele>363.673128</ele>
        <time>2021-08-20T22:58:33.274Z</time>
      </trkpt>
      <trkpt lat="41.88555" lon="33.18129">
        <ele>363.369421</ele>
        <time>2021-08-20T22:58:36.927Z</time>
      </trkpt>
      <trkpt lat="41.8858" lon="33.18061">
        <ele>362.176518</ele>
        <time>2021-08-20T22:58:52.402Z</time>
      </trkpt>
      <trkpt lat="41.88581" lon="33.18027">
        <ele>361.644062</ele>
        <time>2021-08-20T22:58:59.710Z</time>
      </trkpt>
      <trkpt lat="41.88597" lon="33.17986">
        <ele>361.270266</ele>
        <time>2021-08-20T22:59:09.736Z</time>
      </trkpt>
      <trkpt lat="41.88587" lon="33.17976">
        <ele>361.146699</ele>
        <time>2021-08-20T22:59:13.329Z</time>
      </trkpt>
      <trkpt lat="41.88573" lon="33.17976">
        <ele>361.01002</ele>
        <time>2021-08-20T22:59:17.076Z</time>
      </trkpt>
      <trkpt lat="41.88503" lon="33.17924">
        <ele>360.238794</ele>
        <time>2021-08-20T22:59:38.700Z</time>
      </trkpt>
      <trkpt lat="41.88501" lon="33.17896">
        <ele>360.034247</ele>
        <time>2021-08-20T22:59:44.988Z</time>
      </trkpt>
      <trkpt lat="41.88512" lon="33.17861">
        <ele>359.804851</ele>
        <time>2021-08-20T22:59:53.939Z</time>
      </trkpt>
      <trkpt lat="41.88506" lon="33.17803">
        <ele>359.669545</ele>
        <time>2021-08-20T23:00:07.538Z</time>
      </trkpt>
      <trkpt lat="41.88488" lon="33.17768">
        <ele>359.570632</ele>
        <time>2021-08-20T23:00:17.050Z</time>
      </trkpt>
      <trkpt lat="41.88488" lon="33.1773">
        <ele>359.484335</ele>
        <time>2021-08-20T23:00:25.298Z</time>
      </trkpt>
      <trkpt lat="41.88448" lon="33.17672">
        <ele>359.304715</ele>
        <time>2021-08-20T23:00:42.284Z</time>
      </trkpt>
      <trkpt lat="41.88438" lon="33.17612">
        <ele>361.107194</ele>
        <time>2021-08-20T23:00:58.743Z</time>
      </trkpt>
      <trkpt lat="41.8843" lon="33.17594">
        <ele>361.903133</ele>
        <time>2021-08-20T23:01:03.844Z</time>
      </trkpt>
      <trkpt lat="41.88413" lon="33.17578">
        <ele>362.980633</ele>
        <time>2021-08-20T23:01:15.950Z</time>
      </trkpt>
      <trkpt lat="41.88404" lon="33.17558">
        <ele>363.877195</ele>
        <time>2021-08-20T23:01:25.847Z</time>
      </trkpt>
      <trkpt lat="41.88402" lon="33.17537">
        <ele>364.709989</ele>
        <time>2021-08-20T23:01:36.608Z</time>
      </trkpt>
      <trkpt lat="41.88418" lon="33.17497">
        <ele>366.443935</ele>
        <time>2021-08-20T23:02:00.239Z</time>
      </trkpt>
      <trkpt lat="41.88419" lon="33.17482">
        <ele>367.04793</ele>
        <time>2021-08-20T23:02:10.858Z</time>
      </trkpt>
      <trkpt lat="41.88387" lon="33.1746">
        <ele>369.441705</ele>
        <time>2021-08-20T23:02:41.058Z</time>
      </trkpt>
      <trkpt lat="41.88372" lon="33.1745">
        <ele>371.802734</ele>
        <time>2021-08-20T23:02:53.518Z</time>
      </trkpt>
      <trkpt lat="41.88362" lon="33.17422">
        <ele>375.135773</ele>
        <time>2021-08-20T23:03:19.568Z</time>
      </trkpt>
      <trkpt lat="41.88357" lon="33.17391">
        <ele>378.40674</ele>
        <time>2021-08-20T23:03:42.342Z</time>
      </trkpt>
      <trkpt lat="41.88361" lon="33.17328">
        <ele>385.162778</ele>
        <time>2021-08-20T23:04:38.071Z</time>
      </trkpt>
      <trkpt lat="41.8835" lon="33.17219">
        <ele>397.290054</ele>
        <time>2021-08-20T23:06:24.024Z</time>
      </trkpt>
      <trkpt lat="41.88356" lon="33.17206">
        <ele>399.178129</ele>
        <time>2021-08-20T23:06:39.424Z</time>
      </trkpt>
      <trkpt lat="41.88373" lon="33.17192">
        <ele>402.502187</ele>
        <time>2021-08-20T23:07:06.294Z</time>
      </trkpt>
      <trkpt lat="41.88376" lon="33.17177">
        <ele>404.508279</ele>
        <time>2021-08-20T23:07:21.631Z</time>
      </trkpt>
      <trkpt lat="41.88358" lon="33.17087">
        <ele>416.173783</ele>
        <time>2021-08-20T23:08:49.385Z</time>
      </trkpt>
      <trkpt lat="41.8836" lon="33.17056">
        <ele>420.112306</ele>
        <time>2021-08-20T23:09:18.323Z</time>
      </trkpt>
      <trkpt lat="41.8837" lon="33.17019">
        <ele>425.115341</ele>
        <time>2021-08-20T23:10:01.176Z</time>
      </trkpt>
      <trkpt lat="41.88386" lon="33.16975">
        <ele>430.735818</ele>
        <time>2021-08-20T23:10:52.672Z</time>
      </trkpt>
      <trkpt lat="41.88418" lon="33.1692">
        <ele>438.931751</ele>
        <time>2021-08-20T23:12:05.625Z</time>
      </trkpt>
      <trkpt lat="41.88419" lon="33.16889">
        <ele>442.481534</ele>
        <time>2021-08-20T23:12:38.798Z</time>
      </trkpt>
      <trkpt lat="41.88407" lon="33.16846">
        <ele>447.841706</ele>
        <time>2021-08-20T23:13:25.884Z</time>
      </trkpt>
      <trkpt lat="41.88402" lon="33.16804">
        <ele>452.852719</ele>
        <time>2021-08-20T23:14:07.054Z</time>
      </trkpt>
      <trkpt lat="41.88393" lon="33.16717">
        <ele>464.518051</ele>
        <time>2021-08-20T23:15:39.338Z</time>
      </trkpt>
      <trkpt lat="41.88396" lon="33.16693">
        <ele>467.668529</ele>
        <time>2021-08-20T23:16:06.225Z</time>
      </trkpt>
      <trkpt lat="41.8841" lon="33.16675">
        <ele>471.08424</ele>
        <time>2021-08-20T23:16:36.534Z</time>
      </trkpt>
      <trkpt lat="41.88444" lon="33.16653">
        <ele>477.837039</ele>
        <time>2021-08-20T23:17:37.114Z</time>
      </trkpt>
      <trkpt lat="41.8844" lon="33.16633">
        <ele>480.627269</ele>
        <time>2021-08-20T23:18:02.207Z</time>
      </trkpt>
      <trkpt lat="41.88434" lon="33.1663">
        <ele>481.76785</ele>
        <time>2021-08-20T23:18:12.383Z</time>
      </trkpt>
      <trkpt lat="41.88429" lon="33.16615">
        <ele>483.903065</ele>
        <time>2021-08-20T23:18:31.870Z</time>
      </trkpt>
      <trkpt lat="41.88425" lon="33.16587">
        <ele>488.255692</ele>
        <time>2021-08-20T23:19:06.292Z</time>
      </trkpt>
      <trkpt lat="41.88422" lon="33.16495">
        <ele>503.277175</ele>
        <time>2021-08-20T23:21:06.657Z</time>
      </trkpt>
      <trkpt lat="41.88431" lon="33.1644">
        <ele>512.247084</ele>
        <time>2021-08-20T23:22:20.810Z</time>
      </trkpt>
      <trkpt lat="41.88411" lon="33.16358">
        <ele>526.190183</ele>
        <time>2021-08-20T23:24:16.786Z</time>
      </trkpt>
      <trkpt lat="41.88451" lon="33.16333">
        <ele>535.706435</ele>
        <time>2021-08-20T23:25:35.068Z</time>
      </trkpt>
      <trkpt lat="41.88444" lon="33.1628">
        <ele>544.318774</ele>
        <time>2021-08-20T23:26:44.762Z</time>
      </trkpt>
      <trkpt lat="41.88448" lon="33.16223">
        <ele>553.373719</ele>
        <time>2021-08-20T23:27:56.875Z</time>
      </trkpt>
      <trkpt lat="41.88461" lon="33.16174">
        <ele>561.748295</ele>
        <time>2021-08-20T23:29:02.636Z</time>
      </trkpt>
      <trkpt lat="41.88438" lon="33.16092">
        <ele>574.70176</ele>
        <time>2021-08-20T23:30:51.800Z</time>
      </trkpt>
      <trkpt lat="41.88412" lon="33.16033">
        <ele>584.827805</ele>
        <time>2021-08-20T23:32:15.868Z</time>
      </trkpt>
      <trkpt lat="41.88374" lon="33.1603">
        <ele>592.354205</ele>
        <time>2021-08-20T23:33:16.944Z</time>
      </trkpt>
      <trkpt lat="41.88359" lon="33.16011">
        <ele>596.534551</ele>
        <time>2021-08-20T23:33:50.845Z</time>
      </trkpt>
      <trkpt lat="41.88345" lon="33.16022">
        <ele>599.431984</ele>
        <time>2021-08-20T23:34:16.431Z</time>
      </trkpt>
      <trkpt lat="41.88309" lon="33.16032">
        <ele>605.414852</ele>
        <time>2021-08-20T23:35:13.187Z</time>
      </trkpt>
      <trkpt lat="41.88298" lon="33.16028">
        <ele>607.329412</ele>
        <time>2021-08-20T23:35:31.078Z</time>
      </trkpt>
      <trkpt lat="41.88281" lon="33.16003">
        <ele>611.450093</ele>
        <time>2021-08-20T23:36:09.293Z</time>
      </trkpt>
      <trkpt lat="41.88265" lon="33.15998">
        <ele>614.134089</ele>
        <time>2021-08-20T23:36:33.516Z</time>
      </trkpt>
      <trkpt lat="41.88236" lon="33.16008">
        <ele>618.953504</ele>
        <time>2021-08-20T23:37:15.859Z</time>
      </trkpt>
      <trkpt lat="41.88215" lon="33.16035">
        <ele>623.794918</ele>
        <time>2021-08-20T23:37:56.078Z</time>
      </trkpt>
      <trkpt lat="41.88203" lon="33.16085">
        <ele>629.131358</ele>
        <time>2021-08-20T23:38:45.372Z</time>
      </trkpt>
      <trkpt lat="41.88197" lon="33.16099">
        <ele>630.323661</ele>
        <time>2021-08-20T23:38:59.510Z</time>
      </trkpt>
      <trkpt lat="41.88192" lon="33.16101">
        <ele>630.901412</ele>
        <time>2021-08-20T23:39:06.513Z</time>
      </trkpt>
      <trkpt lat="41.88195" lon="33.16071">
        <ele>633.140046</ele>
        <time>2021-08-20T23:39:31.857Z</time>
      </trkpt>
      <trkpt lat="41.88189" lon="33.16038">
        <ele>635.664086</ele>
        <time>2021-08-20T23:39:59.158Z</time>
      </trkpt>
      <trkpt lat="41.8817" lon="33.16017">
        <ele>638.071275</ele>
        <time>2021-08-20T23:40:24.685Z</time>
      </trkpt>
      <trkpt lat="41.88168" lon="33.16002">
        <ele>639.210537</ele>
        <time>2021-08-20T23:40:37.072Z</time>
      </trkpt>
      <trkpt lat="41.8818" lon="33.15974">
        <ele>641.547447</ele>
        <time>2021-08-20T23:41:00.245Z</time>
      </trkpt>
      <trkpt lat="41.88232" lon="33.15918">
        <ele>646.974932</ele>
        <time>2021-08-20T23:42:02.459Z</time>
      </trkpt>
      <trkpt lat="41.88258" lon="33.15893">
        <ele>648.872169</ele>
        <time>2021-08-20T23:42:31.986Z</time>
      </trkpt>
      <trkpt lat="41.88278" lon="33.15872">
        <ele>650.310826</ele>
        <time>2021-08-20T23:42:53.373Z</time>
      </trkpt>
      <trkpt lat="41.88317" lon="33.15794">
        <ele>654.340659</ele>
        <time>2021-08-20T23:43:49.944Z</time>
      </trkpt>
      <trkpt lat="41.88322" lon="33.15771">
        <ele>655.385834</ele>
        <time>2021-08-20T23:44:04.996Z</time>
      </trkpt>
      <trkpt lat="41.88323" lon="33.15758">
        <ele>655.756517</ele>
        <time>2021-08-20T23:44:11.917Z</time>
      </trkpt>
      <trkpt lat="41.883" lon="33.15769">
        <ele>655.986913</ele>
        <time>2021-08-20T23:44:26.837Z</time>
      </trkpt>
      <trkpt lat="41.88244" lon="33.1579">
        <ele>656.517878</ele>
        <time>2021-08-20T23:44:49.889Z</time>
      </trkpt>
      <trkpt lat="41.88223" lon="33.15778">
        <ele>656.733996</ele>
        <time>2021-08-20T23:44:58.704Z</time>
      </trkpt>
      <trkpt lat="41.88193" lon="33.15749">
        <ele>657.070286</ele>
        <time>2021-08-20T23:45:10.026Z</time>
      </trkpt>
      <trkpt lat="41.88175" lon="33.15741">
        <ele>657.245821</ele>
        <time>2021-08-20T23:45:15.170Z</time>
      </trkpt>
      <trkpt lat="41.88166" lon="33.15743">
        <ele>657.33527</ele>
        <time>2021-08-20T23:45:17.970Z</time>
      </trkpt>
      <trkpt lat="41.88154" lon="33.15752">
        <ele>657.090545</ele>
        <time>2021-08-20T23:45:20.994Z</time>
      </trkpt>
      <trkpt lat="41.88136" lon="33.15769">
        <ele>656.418022</ele>
        <time>2021-08-20T23:45:26.727Z</time>
      </trkpt>
      <trkpt lat="41.88069" lon="33.15825">
        <ele>654.018804</ele>
        <time>2021-08-20T23:45:45.285Z</time>
      </trkpt>
      <trkpt lat="41.88054" lon="33.15832">
        <ele>653.558836</ele>
        <time>2021-08-20T23:45:48.797Z</time>
      </trkpt>
      <trkpt lat="41.87996" lon="33.1581">
        <ele>651.880276</ele>
        <time>2021-08-20T23:46:03.026Z</time>
      </trkpt>
      <trkpt lat="41.8798" lon="33.15812">
        <ele>651.777785</ele>
        <time>2021-08-20T23:46:06.986Z</time>
      </trkpt>
      <trkpt lat="41.87928" lon="33.15845">
        <ele>651.409621</ele>
        <time>2021-08-20T23:46:21.645Z</time>
      </trkpt>
      <trkpt lat="41.87876" lon="33.15843">
        <ele>651.071556</ele>
        <time>2021-08-20T23:46:38.077Z</time>
      </trkpt>
      <trkpt lat="41.87782" lon="33.15865">
        <ele>652.0421</ele>
        <time>2021-08-20T23:47:19.101Z</time>
      </trkpt>
      <trkpt lat="41.87755" lon="33.15858">
        <ele>652.775753</ele>
        <time>2021-08-20T23:47:32.360Z</time>
      </trkpt>
      <trkpt lat="41.87734" lon="33.15849">
        <ele>653.371217</ele>
        <time>2021-08-20T23:47:44.623Z</time>
      </trkpt>
      <trkpt lat="41.87696" lon="33.15827">
        <ele>654.503344</ele>
        <time>2021-08-20T23:48:06.529Z</time>
      </trkpt>
      <trkpt lat="41.87656" lon="33.15835">
        <ele>655.58017</ele>
        <time>2021-08-20T23:48:27.423Z</time>
      </trkpt>
      <trkpt lat="41.87644" lon="33.15832">
        <ele>655.461488</ele>
        <time>2021-08-20T23:48:33.652Z</time>
      </trkpt>
      <trkpt lat="41.87637" lon="33.15818">
        <ele>655.294079</ele>
        <time>2021-08-20T23:48:40.184Z</time>
      </trkpt>
      <trkpt lat="41.87604" lon="33.15654">
        <ele>653.579698</ele>
        <time>2021-08-20T23:49:16.646Z</time>
      </trkpt>
      <trkpt lat="41.87605" lon="33.15579">
        <ele>650.434679</ele>
        <time>2021-08-20T23:49:28.596Z</time>
      </trkpt>
      <trkpt lat="41.87601" lon="33.15534">
        <ele>646.796475</ele>
        <time>2021-08-20T23:49:35.540Z</time>
      </trkpt>
      <trkpt lat="41.87607" lon="33.15517">
        <ele>645.279403</ele>
        <time>2021-08-20T23:49:38.375Z</time>
      </trkpt>
      <trkpt lat="41.876" lon="33.15495">
        <ele>643.367668</ele>
        <time>2021-08-20T23:49:41.919Z</time>
      </trkpt>
      <trkpt lat="41.87604" lon="33.15451">
        <ele>639.894437</ele>
        <time>2021-08-20T23:49:48.259Z</time>
      </trkpt>
      <trkpt lat="41.87595" lon="33.15378">
        <ele>634.011787</ele>
        <time>2021-08-20T23:49:58.803Z</time>
      </trkpt>
      <trkpt lat="41.87601" lon="33.15321">
        <ele>627.928848</ele>
        <time>2021-08-20T23:50:07.007Z</time>
      </trkpt>
      <trkpt lat="41.87596" lon="33.15299">
        <ele>625.50967</ele>
        <time>2021-08-20T23:50:10.248Z</time>
      </trkpt>
      <trkpt lat="41.87602" lon="33.15248">
        <ele>620.062372</ele>
        <time>2021-08-20T23:50:17.564Z</time>
      </trkpt>
      <trkpt lat="41.87601" lon="33.15234">
        <ele>618.567713</ele>
        <time>2021-08-20T23:50:19.569Z</time>
      </trkpt>
      <trkpt lat="41.87594" lon="33.15225">
        <ele>617.223599</ele>
        <time>2021-08-20T23:50:21.384Z</time>
      </trkpt>
      <trkpt lat="41.87574" lon="33.15225">
        <ele>614.332453</ele>
        <time>2021-08-20T23:50:25.285Z</time>
      </trkpt>
      <trkpt lat="41.87533" lon="33.15245">
        <ele>608.260971</ele>
        <time>2021-08-20T23:50:33.693Z</time>
      </trkpt>
      <trkpt lat="41.87495" lon="33.15253">
        <ele>604.647639</ele>
        <time>2021-08-20T23:50:41.342Z</time>
      </trkpt>
      <trkpt lat="41.87364" lon="33.15427">
        <ele>587.41917</ele>
        <time>2021-08-20T23:51:19.176Z</time>
      </trkpt>
      <trkpt lat="41.87351" lon="33.15441">
        <ele>585.780849</ele>
        <time>2021-08-20T23:51:22.664Z</time>
      </trkpt>
      <trkpt lat="41.87316" lon="33.15451">
        <ele>582.263063</ele>
        <time>2021-08-20T23:51:29.969Z</time>
      </trkpt>
      <trkpt lat="41.87247" lon="33.1552">
        <ele>573.61155</ele>
        <time>2021-08-20T23:51:46.914Z</time>
      </trkpt>
      <trkpt lat="41.87222" lon="33.15518">
        <ele>569.674322</ele>
        <time>2021-08-20T23:51:51.844Z</time>
      </trkpt>
      <trkpt lat="41.87181" lon="33.15488">
        <ele>562.444488</ele>
        <time>2021-08-20T23:52:00.779Z</time>
      </trkpt>
      <trkpt lat="41.87165" lon="33.1549">
        <ele>560.038333</ele>
        <time>2021-08-20T23:52:03.718Z</time>
      </trkpt>
      <trkpt lat="41.87115" lon="33.15527">
        <ele>551.212017</ele>
        <time>2021-08-20T23:52:14.546Z</time>
      </trkpt>
      <trkpt lat="41.8704" lon="33.15594">
        <ele>538.159497</ele>
        <time>2021-08-20T23:52:31.562Z</time>
      </trkpt>
      <trkpt lat="41.87015" lon="33.15627">
        <ele>533.312349</ele>
        <time>2021-08-20T23:52:38.153Z</time>
      </trkpt>
      <trkpt lat="41.86977" lon="33.15655">
        <ele>527.263469</ele>
        <time>2021-08-20T23:52:46.449Z</time>
      </trkpt>
      <trkpt lat="41.86945" lon="33.157">
        <ele>520.968615</ele>
        <time>2021-08-20T23:52:55.619Z</time>
      </trkpt>
      <trkpt lat="41.86864" lon="33.15787">
        <ele>512.83531</ele>
        <time>2021-08-20T23:53:16.550Z</time>
      </trkpt>
      <trkpt lat="41.8683" lon="33.15841">
        <ele>508.633035</ele>
        <time>2021-08-20T23:53:28.024Z</time>
      </trkpt>
      <trkpt lat="41.8682" lon="33.15885">
        <ele>506.462998</ele>
        <time>2021-08-20T23:53:35.672Z</time>
      </trkpt>
      <trkpt lat="41.86806" lon="33.15895">
        <ele>505.740045</ele>
        <time>2021-08-20T23:53:39.352Z</time>
      </trkpt>
      <trkpt lat="41.86792" lon="33.15897">
        <ele>505.098852</ele>
        <time>2021-08-20T23:53:42.750Z</time>
      </trkpt>
      <trkpt lat="41.86772" lon="33.15933">
        <ele>503.560325</ele>
        <time>2021-08-20T23:53:50.426Z</time>
      </trkpt>
      <trkpt lat="41.86744" lon="33.15951">
        <ele>502.147673</ele>
        <time>2021-08-20T23:53:57.462Z</time>
      </trkpt>
      <trkpt lat="41.86685" lon="33.16009">
        <ele>498.786541</ele>
        <time>2021-08-20T23:54:13.831Z</time>
      </trkpt>
      <trkpt lat="41.86665" lon="33.16027">
        <ele>497.069144</ele>
        <time>2021-08-20T23:54:19.866Z</time>
      </trkpt>
      <trkpt lat="41.86662" lon="33.16015">
        <ele>496.391783</ele>
        <time>2021-08-20T23:54:21.633Z</time>
      </trkpt>
      <trkpt lat="41.86669" lon="33.15974">
        <ele>494.149012</ele>
        <time>2021-08-20T23:54:28.267Z</time>
      </trkpt>
      <trkpt lat="41.86706" lon="33.15936">
        <ele>490.788402</ele>
        <time>2021-08-20T23:54:37.583Z</time>
      </trkpt>
      <trkpt lat="41.86711" lon="33.1589">
        <ele>488.345957</ele>
        <time>2021-08-20T23:54:44.270Z</time>
      </trkpt>
      <trkpt lat="41.86742" lon="33.15841">
        <ele>484.671708</ele>
        <time>2021-08-20T23:54:53.496Z</time>
      </trkpt>
      <trkpt lat="41.8674" lon="33.15806">
        <ele>482.466081</ele>
        <time>2021-08-20T23:54:58.450Z</time>
      </trkpt>
      <trkpt lat="41.86758" lon="33.15785">
        <ele>480.439556</ele>
        <time>2021-08-20T23:55:02.972Z</time>
      </trkpt>
      <trkpt lat="41.86799" lon="33.15716">
        <ele>474.728929</ele>
        <time>2021-08-20T23:55:15.844Z</time>
      </trkpt>
      <trkpt lat="41.86807" lon="33.15663">
        <ele>471.280553</ele>
        <time>2021-08-20T23:55:23.686Z</time>
      </trkpt>
      <trkpt lat="41.86841" lon="33.15628">
        <ele>467.996218</ele>
        <time>2021-08-20T23:55:32.111Z</time>
      </trkpt>
      <trkpt lat="41.86846" lon="33.1557">
        <ele>464.707335</ele>
        <time>2021-08-20T23:55:40.865Z</time>
      </trkpt>
      <trkpt lat="41.86865" lon="33.15543">
        <ele>462.63249</ele>
        <time>2021-08-20T23:55:46.380Z</time>
      </trkpt>
      <trkpt lat="41.86896" lon="33.15474">
        <ele>458.170544</ele>
        <time>2021-08-20T23:55:58.408Z</time>
      </trkpt>
      <trkpt lat="41.869" lon="33.15462">
        <ele>457.4353</ele>
        <time>2021-08-20T23:56:00.392Z</time>
      </trkpt>
      <trkpt lat="41.86902" lon="33.15427">
        <ele>455.391009</ele>
        <time>2021-08-20T23:56:05.593Z</time>
      </trkpt>
      <trkpt lat="41.86909" lon="33.15414">
        <ele>454.497969</ele>
        <time>2021-08-20T23:56:07.886Z</time>
      </trkpt>
      <trkpt lat="41.86951" lon="33.15375">
        <ele>450.515855</ele>
        <time>2021-08-20T23:56:17.906Z</time>
      </trkpt>
      <trkpt lat="41.86959" lon="33.1534">
        <ele>448.401984</ele>
        <time>2021-08-20T23:56:23.324Z</time>
      </trkpt>
      <trkpt lat="41.86978" lon="33.15311">
        <ele>446.154276</ele>
        <time>2021-08-20T23:56:29.145Z</time>
      </trkpt>
      <trkpt lat="41.86981" lon="33.15297">
        <ele>445.315829</ele>
        <time>2021-08-20T23:56:31.242Z</time>
      </trkpt>
      <trkpt lat="41.8699" lon="33.15257">
        <ele>442.793576</ele>
        <time>2021-08-20T23:56:37.399Z</time>
      </trkpt>
      <trkpt lat="41.8701" lon="33.15186">
        <ele>436.742628</ele>
        <time>2021-08-20T23:56:48.320Z</time>
      </trkpt>
      <trkpt lat="41.87018" lon="33.15179">
        <ele>435.716816</ele>
        <time>2021-08-20T23:56:50.153Z</time>
      </trkpt>
      <trkpt lat="41.87028" lon="33.15176">
        <ele>434.574024</ele>
        <time>2021-08-20T23:56:52.122Z</time>
      </trkpt>
      <trkpt lat="41.87034" lon="33.1518">
        <ele>433.850771</ele>
        <time>2021-08-20T23:56:53.413Z</time>
      </trkpt>
      <trkpt lat="41.87043" lon="33.15206">
        <ele>431.62737</ele>
        <time>2021-08-20T23:56:57.309Z</time>
      </trkpt>
      <trkpt lat="41.87052" lon="33.15216">
        <ele>430.388896</ele>
        <time>2021-08-20T23:56:59.445Z</time>
      </trkpt>
      <trkpt lat="41.87128" lon="33.15191">
        <ele>421.22451</ele>
        <time>2021-08-20T23:57:13.976Z</time>
      </trkpt>
      <trkpt lat="41.87157" lon="33.15203">
        <ele>416.478378</ele>
        <time>2021-08-20T23:57:19.707Z</time>
      </trkpt>
      <trkpt lat="41.87162" lon="33.15175">
        <ele>413.191701</ele>
        <time>2021-08-20T23:57:23.639Z</time>
      </trkpt>
      <trkpt lat="41.87177" lon="33.15138">
        <ele>408.481451</ele>
        <time>2021-08-20T23:57:29.250Z</time>
      </trkpt>
      <trkpt lat="41.87199" lon="33.15102">
        <ele>403.186895</ele>
        <time>2021-08-20T23:57:35.543Z</time>
      </trkpt>
      <trkpt lat="41.87205" lon="33.15065">
        <ele>398.916523</ele>
        <time>2021-08-20T23:57:40.644Z</time>
      </trkpt>
      <trkpt lat="41.87247" lon="33.14985">
        <ele>388.580844</ele>
        <time>2021-08-20T23:57:53.927Z</time>
      </trkpt>
      <trkpt lat="41.87253" lon="33.1496">
        <ele>385.917335</ele>
        <time>2021-08-20T23:57:57.434Z</time>
      </trkpt>
      <trkpt lat="41.8728" lon="33.14897">
        <ele>378.385233</ele>
        <time>2021-08-20T23:58:07.402Z</time>
      </trkpt>
      <trkpt lat="41.87322" lon="33.14851">
        <ele>371.013042</ele>
        <time>2021-08-20T23:58:17.336Z</time>
      </trkpt>
      <trkpt lat="41.8735" lon="33.1484">
        <ele>367.355777</ele>
        <time>2021-08-20T23:58:22.870Z</time>
      </trkpt>
      <trkpt lat="41.87366" lon="33.14844">
        <ele>365.408652</ele>
        <time>2021-08-20T23:58:25.883Z</time>
      </trkpt>
      <trkpt lat="41.87394" lon="33.14837">
        <ele>361.90648</ele>
        <time>2021-08-20T23:58:31.166Z</time>
      </trkpt>
      <trkpt lat="41.87401" lon="33.14833">
        <ele>360.961312</ele>
        <time>2021-08-20T23:58:32.624Z</time>
      </trkpt>
      <trkpt lat="41.87408" lon="33.14812">
        <ele>358.83515</ele>
        <time>2021-08-20T23:58:35.816Z</time>
      </trkpt>
      <trkpt lat="41.87436" lon="33.14792">
        <ele>354.883758</ele>
        <time>2021-08-20T23:58:41.784Z</time>
      </trkpt>
      <trkpt lat="41.87458" lon="33.14788">
        <ele>352.158315</ele>
        <time>2021-08-20T23:58:45.892Z</time>
      </trkpt>
      <trkpt lat="41.87476" lon="33.14729">
        <ele>346.479694</ele>
        <time>2021-08-20T23:58:54.718Z</time>
      </trkpt>
      <trkpt lat="41.87547" lon="33.14658">
        <ele>336.428449</ele>
        <time>2021-08-20T23:59:11.109Z</time>
      </trkpt>
      <trkpt lat="41.87557" lon="33.1462">
        <ele>332.976072</ele>
        <time>2021-08-20T23:59:16.803Z</time>
      </trkpt>
      <trkpt lat="41.87574" lon="33.14592">
        <ele>329.910632</ele>
        <time>2021-08-20T23:59:21.913Z</time>
      </trkpt>
      <trkpt lat="41.876" lon="33.1457">
        <ele>326.93847</ele>
        <time>2021-08-20T23:59:27.907Z</time>
      </trkpt>
      <trkpt lat="41.87615" lon="33.14566">
        <ele>325.637074</ele>
        <time>2021-08-20T23:59:30.764Z</time>
      </trkpt>
      <trkpt lat="41.87639" lon="33.14568">
        <ele>323.477204</ele>
        <time>2021-08-20T23:59:35.553Z</time>
      </trkpt>
      <trkpt lat="41.87695" lon="33.14551">
        <ele>318.444823</ele>
        <time>2021-08-20T23:59:46.760Z</time>
      </trkpt>
      <trkpt lat="41.87719" lon="33.14565">
        <ele>316.077114</ele>
        <time>2021-08-20T23:59:52.093Z</time>
      </trkpt>
      <trkpt lat="41.87767" lon="33.14613">
        <ele>310.307023</ele>
        <time>2021-08-21T00:00:03.693Z</time>
      </trkpt>
      <trkpt lat="41.87774" lon="33.14607">
        <ele>309.49238</ele>
        <time>2021-08-21T00:00:05.092Z</time>
      </trkpt>
      <trkpt lat="41.87791" lon="33.14559">
        <ele>305.24558</ele>
        <time>2021-08-21T00:00:12.576Z</time>
      </trkpt>
      <trkpt lat="41.87807" lon="33.14541">
        <ele>303.0795</ele>
        <time>2021-08-21T00:00:16.500Z</time>
      </trkpt>
      <trkpt lat="41.87813" lon="33.14455">
        <ele>296.222399</ele>
        <time>2021-08-21T00:00:28.748Z</time>
      </trkpt>
      <trkpt lat="41.87807" lon="33.14429">
        <ele>294.050052</ele>
        <time>2021-08-21T00:00:32.509Z</time>
      </trkpt>
      <trkpt lat="41.878" lon="33.14414">
        <ele>292.420181</ele>
        <time>2021-08-21T00:00:35.206Z</time>
      </trkpt>
      <trkpt lat="41.87801" lon="33.144">
        <ele>291.019895</ele>
        <time>2021-08-21T00:00:37.281Z</time>
      </trkpt>
      <trkpt lat="41.87828" lon="33.1439">
        <ele>287.467698</ele>
        <time>2021-08-21T00:00:42.611Z</time>
      </trkpt>
      <trkpt lat="41.87837" lon="33.1438">
        <ele>285.950792</ele>
        <time>2021-08-21T00:00:44.758Z</time>
      </trkpt>
      <trkpt lat="41.87862" lon="33.14333">
        <ele>280.515171</ele>
        <time>2021-08-21T00:00:52.532Z</time>
      </trkpt>
      <trkpt lat="41.879" lon="33.14321">
        <ele>275.540929</ele>
        <time>2021-08-21T00:00:59.704Z</time>
      </trkpt>
      <trkpt lat="41.87904" lon="33.14311">
        <ele>274.47254</ele>
        <time>2021-08-21T00:01:01.411Z</time>
      </trkpt>
      <trkpt lat="41.87884" lon="33.14295">
        <ele>271.60075</ele>
        <time>2021-08-21T00:01:05.657Z</time>
      </trkpt>
      <trkpt lat="41.8786" lon="33.14287">
        <ele>268.256654</ele>
        <time>2021-08-21T00:01:10.562Z</time>
      </trkpt>
      <trkpt lat="41.87846" lon="33.14285">
        <ele>266.50485</ele>
        <time>2021-08-21T00:01:12.972Z</time>
      </trkpt>
      <trkpt lat="41.87825" lon="33.14269">
        <ele>263.367563</ele>
        <time>2021-08-21T00:01:17.531Z</time>
      </trkpt>
      <trkpt lat="41.87763" lon="33.14255">
        <ele>255.085101</ele>
        <time>2021-08-21T00:01:29.067Z</time>
      </trkpt>
      <trkpt lat="41.87751" lon="33.14232">
        <ele>252.295026</ele>
        <time>2021-08-21T00:01:32.898Z</time>
      </trkpt>
      <trkpt lat="41.8775" lon="33.142">
        <ele>249.189394</ele>
        <time>2021-08-21T00:01:37.300Z</time>
      </trkpt>
      <trkpt lat="41.87756" lon="33.14182">
        <ele>247.291126</ele>
        <time>2021-08-21T00:01:39.930Z</time>
      </trkpt>
      <trkpt lat="41.87809" lon="33.14148">
        <ele>240.129165</ele>
        <time>2021-08-21T00:01:51.088Z</time>
      </trkpt>
      <trkpt lat="41.87825" lon="33.14129">
        <ele>237.514644</ele>
        <time>2021-08-21T00:01:55.165Z</time>
      </trkpt>
      <trkpt lat="41.87838" lon="33.14101">
        <ele>234.548242</ele>
        <time>2021-08-21T00:01:59.811Z</time>
      </trkpt>
      <trkpt lat="41.87845" lon="33.14072">
        <ele>231.810322</ele>
        <time>2021-08-21T00:02:03.924Z</time>
      </trkpt>
      <trkpt lat="41.87857" lon="33.13906">
        <ele>216.121028</ele>
        <time>2021-08-21T00:02:27.023Z</time>
      </trkpt>
      <trkpt lat="41.87856" lon="33.13883">
        <ele>213.944853</ele>
        <time>2021-08-21T00:02:30.108Z</time>
      </trkpt>
      <trkpt lat="41.8786" lon="33.13864">
        <ele>212.043065</ele>
        <time>2021-08-21T00:02:32.857Z</time>
      </trkpt>
      <trkpt lat="41.87899" lon="33.13792">
        <ele>203.471805</ele>
        <time>2021-08-21T00:02:45.125Z</time>
      </trkpt>
      <trkpt lat="41.87919" lon="33.13772">
        <ele>200.413841</ele>
        <time>2021-08-21T00:02:49.741Z</time>
      </trkpt>
      <trkpt lat="41.87922" lon="33.13755">
        <ele>198.888227</ele>
        <time>2021-08-21T00:02:52.117Z</time>
      </trkpt>
      <trkpt lat="41.87939" lon="33.13727">
        <ele>195.719923</ele>
        <time>2021-08-21T00:02:57.010Z</time>
      </trkpt>
      <trkpt lat="41.87947" lon="33.13716">
        <ele>194.372247</ele>
        <time>2021-08-21T00:02:59.084Z</time>
      </trkpt>
      <trkpt lat="41.87968" lon="33.13707">
        <ele>191.700501</ele>
        <time>2021-08-21T00:03:03.349Z</time>
      </trkpt>
      <trkpt lat="41.87982" lon="33.13656">
        <ele>186.875677</ele>
        <time>2021-08-21T00:03:10.996Z</time>
      </trkpt>
      <trkpt lat="41.8798" lon="33.13628">
        <ele>184.433548</ele>
        <time>2021-08-21T00:03:14.864Z</time>
      </trkpt>
      <trkpt lat="41.87984" lon="33.13611">
        <ele>182.790452</ele>
        <time>2021-08-21T00:03:17.475Z</time>
      </trkpt>
      <trkpt lat="41.8801" lon="33.13586">
        <ele>179.798487</ele>
        <time>2021-08-21T00:03:23.420Z</time>
      </trkpt>
      <trkpt lat="41.87983" lon="33.13495">
        <ele>174.173982</ele>
        <time>2021-08-21T00:03:37.532Z</time>
      </trkpt>
      <trkpt lat="41.87959" lon="33.1344">
        <ele>170.514303</ele>
        <time>2021-08-21T00:03:47.126Z</time>
      </trkpt>
      <trkpt lat="41.87938" lon="33.13329">
        <ele>165.764209</ele>
        <time>2021-08-21T00:04:05.675Z</time>
      </trkpt>
      <trkpt lat="41.87931" lon="33.13321">
        <ele>165.437163</ele>
        <time>2021-08-21T00:04:07.800Z</time>
      </trkpt>
      <trkpt lat="41.87921" lon="33.13332">
        <ele>164.989929</ele>
        <time>2021-08-21T00:04:10.842Z</time>
      </trkpt>
      <trkpt lat="41.8792" lon="33.13344">
        <ele>164.664321</ele>
        <time>2021-08-21T00:04:12.962Z</time>
      </trkpt>
      <trkpt lat="41.87934" lon="33.13393">
        <ele>163.266167</ele>
        <time>2021-08-21T00:04:22.314Z</time>
      </trkpt>
      <trkpt lat="41.87931" lon="33.13405">
        <ele>162.932233</ele>
        <time>2021-08-21T00:04:24.550Z</time>
      </trkpt>
      <trkpt lat="41.87921" lon="33.13406">
        <ele>162.594165</ele>
        <time>2021-08-21T00:04:26.959Z</time>
      </trkpt>
      <trkpt lat="41.87913" lon="33.1338">
        <ele>161.838442</ele>
        <time>2021-08-21T00:04:31.696Z</time>
      </trkpt>
      <trkpt lat="41.87895" lon="33.13359">
        <ele>160.971871</ele>
        <time>2021-08-21T00:04:37.216Z</time>
      </trkpt>
      <trkpt lat="41.87889" lon="33.13287">
        <ele>157.294516</ele>
        <time>2021-08-21T00:04:48.683Z</time>
      </trkpt>
      <trkpt lat="41.87893" lon="33.1327">
        <ele>156.398635</ele>
        <time>2021-08-21T00:04:51.397Z</time>
      </trkpt>
      <trkpt lat="41.87908" lon="33.13253">
        <ele>155.058601</ele>
        <time>2021-08-21T00:04:55.289Z</time>
      </trkpt>
      <trkpt lat="41.87944" lon="33.13253">
        <ele>152.577417</ele>
        <time>2021-08-21T00:05:02.410Z</time>
      </trkpt>
      <trkpt lat="41.87983" lon="33.13244">
        <ele>149.820297</ele>
        <time>2021-08-21T00:05:10.166Z</time>
      </trkpt>
      <trkpt lat="41.87995" lon="33.13223">
        <ele>148.407157</ele>
        <time>2021-08-21T00:05:13.996Z</time>
      </trkpt>
      <trkpt lat="41.88002" lon="33.13179">
        <ele>144.693564</ele>
        <time>2021-08-21T00:05:20.364Z</time>
      </trkpt>
      <trkpt lat="41.87992" lon="33.13135">
        <ele>140.820893</ele>
        <time>2021-08-21T00:05:26.935Z</time>
      </trkpt>
      <trkpt lat="41.8801" lon="33.13109">
        <ele>137.858793</ele>
        <time>2021-08-21T00:05:31.929Z</time>
      </trkpt>
      <trkpt lat="41.88014" lon="33.1309">
        <ele>136.22499</ele>
        <time>2021-08-21T00:05:34.685Z</time>
      </trkpt>
      <trkpt lat="41.87995" lon="33.12988">
        <ele>127.534491</ele>
        <time>2021-08-21T00:05:49.177Z</time>
      </trkpt>
      <trkpt lat="41.88" lon="33.12961">
        <ele>125.064723</ele>
        <time>2021-08-21T00:05:53.096Z</time>
      </trkpt>
      <trkpt lat="41.88011" lon="33.12939">
        <ele>122.782582</ele>
        <time>2021-08-21T00:05:56.721Z</time>
      </trkpt>
      <trkpt lat="41.88025" lon="33.12879">
        <ele>117.311101</ele>
        <time>2021-08-21T00:06:05.383Z</time>
      </trkpt>
      <trkpt lat="41.88112" lon="33.12674">
        <ele>99.066998</ele>
        <time>2021-08-21T00:06:38.461Z</time>
      </trkpt>
      <trkpt lat="41.88141" lon="33.12658">
        <ele>96.216106</ele>
        <time>2021-08-21T00:06:44.558Z</time>
      </trkpt>
      <trkpt lat="41.88148" lon="33.12648">
        <ele>95.274424</ele>
        <time>2021-08-21T00:06:46.587Z</time>
      </trkpt>
      <trkpt lat="41.88147" lon="33.12625">
        <ele>93.6622</ele>
        <time>2021-08-21T00:06:50.082Z</time>
      </trkpt>
      <trkpt lat="41.88154" lon="33.12589">
        <ele>91.157846</ele>
        <time>2021-08-21T00:06:55.571Z</time>
      </trkpt>
      <trkpt lat="41.88172" lon="33.12532">
        <ele>87.848861</ele>
        <time>2021-08-21T00:07:04.920Z</time>
      </trkpt>
      <trkpt lat="41.88162" lon="33.12472">
        <ele>84.583503</ele>
        <time>2021-08-21T00:07:14.430Z</time>
      </trkpt>
      <trkpt lat="41.88113" lon="33.12358">
        <ele>77.611871</ele>
        <time>2021-08-21T00:07:33.824Z</time>
      </trkpt>
      <trkpt lat="41.8811" lon="33.1233">
        <ele>76.17481</ele>
        <time>2021-08-21T00:07:37.943Z</time>
      </trkpt>
      <trkpt lat="41.88114" lon="33.12303">
        <ele>74.783358</ele>
        <time>2021-08-21T00:07:42.118Z</time>
      </trkpt>
      <trkpt lat="41.88127" lon="33.1228">
        <ele>73.30522</ele>
        <time>2021-08-21T00:07:46.289Z</time>
      </trkpt>
      <trkpt lat="41.88146" lon="33.1225">
        <ele>71.29087</ele>
        <time>2021-08-21T00:07:52.216Z</time>
      </trkpt>
      <trkpt lat="41.88155" lon="33.12191">
        <ele>68.227696</ele>
        <time>2021-08-21T00:08:01.280Z</time>
      </trkpt>
      <trkpt lat="41.88164" lon="33.12169">
        <ele>66.933873</ele>
        <time>2021-08-21T00:08:05.245Z</time>
      </trkpt>
      <trkpt lat="41.88167" lon="33.12106">
        <ele>65.179911</ele>
        <time>2021-08-21T00:08:14.901Z</time>
      </trkpt>
      <trkpt lat="41.88179" lon="33.12055">
        <ele>64.349</ele>
        <time>2021-08-21T00:08:24.105Z</time>
      </trkpt>
      <trkpt lat="41.88151" lon="33.11975">
        <ele>62.945226</ele>
        <time>2021-08-21T00:08:41.521Z</time>
      </trkpt>
      <trkpt lat="41.88177" lon="33.11889">
        <ele>62.489891</ele>
        <time>2021-08-21T00:09:04.055Z</time>
      </trkpt>
      <trkpt lat="41.88175" lon="33.11868">
        <ele>62.778833</ele>
        <time>2021-08-21T00:09:09.843Z</time>
      </trkpt>
      <trkpt lat="41.88158" lon="33.11821">
        <ele>63.492009</ele>
        <time>2021-08-21T00:09:25.087Z</time>
      </trkpt>
      <trkpt lat="41.8816" lon="33.1176">
        <ele>64.326565</ele>
        <time>2021-08-21T00:09:48.386Z</time>
      </trkpt>
      <trkpt lat="41.88186" lon="33.11699">
        <ele>65.280204</ele>
        <time>2021-08-21T00:10:11.815Z</time>
      </trkpt>
      <trkpt lat="41.88211" lon="33.11666">
        <ele>65.194588</ele>
        <time>2021-08-21T00:10:26.699Z</time>
      </trkpt>
      <trkpt lat="41.8823" lon="33.11654">
        <ele>65.119864</ele>
        <time>2021-08-21T00:10:35.699Z</time>
      </trkpt>
      <trkpt lat="41.88243" lon="33.11653">
        <ele>65.076648</ele>
        <time>2021-08-21T00:10:39.148Z</time>
      </trkpt>
      <trkpt lat="41.88269" lon="33.11659">
        <ele>64.982057</ele>
        <time>2021-08-21T00:10:49.149Z</time>
      </trkpt>
      <trkpt lat="41.88294" lon="33.11654">
        <ele>64.89092</ele>
        <time>2021-08-21T00:10:55.784Z</time>
      </trkpt>
      <trkpt lat="41.88318" lon="33.11638">
        <ele>64.796296</ele>
        <time>2021-08-21T00:11:02.504Z</time>
      </trkpt>
      <trkpt lat="41.88341" lon="33.11573">
        <ele>63.595701</ele>
        <time>2021-08-21T00:11:15.163Z</time>
      </trkpt>
      <trkpt lat="41.88348" lon="33.11529">
        <ele>61.735996</ele>
        <time>2021-08-21T00:11:22.517Z</time>
      </trkpt>
      <trkpt lat="41.88408" lon="33.11434">
        <ele>56.674244</ele>
        <time>2021-08-21T00:11:41.006Z</time>
      </trkpt>
      <trkpt lat="41.8845" lon="33.11426">
        <ele>54.549099</ele>
        <time>2021-08-21T00:11:49.720Z</time>
      </trkpt>
      <trkpt lat="41.88432" lon="33.11413">
        <ele>53.949669</ele>
        <time>2021-08-21T00:11:53.822Z</time>
      </trkpt>
      <trkpt lat="41.88411" lon="33.11412">
        <ele>53.29727</ele>
        <time>2021-08-21T00:11:58.406Z</time>
      </trkpt>
      <trkpt lat="41.88348" lon="33.11283">
        <ele>49.822825</ele>
        <time>2021-08-21T00:12:25.947Z</time>
      </trkpt>
      <trkpt lat="41.88342" lon="33.11267">
        <ele>49.428303</ele>
        <time>2021-08-21T00:12:29.832Z</time>
      </trkpt>
      <trkpt lat="41.88326" lon="33.11221">
        <ele>49.709651</ele>
        <time>2021-08-21T00:12:42.702Z</time>
      </trkpt>
      <trkpt lat="41.88328" lon="33.11188">
        <ele>49.917322</ele>
        <time>2021-08-21T00:12:51.624Z</time>
      </trkpt>
      <trkpt lat="41.88348" lon="33.11097">
        <ele>50.52696</ele>
        <time>2021-08-21T00:13:19.067Z</time>
      </trkpt>
      <trkpt lat="41.88354" lon="33.1106">
        <ele>50.771745</ele>
        <time>2021-08-21T00:13:30.943Z</time>
      </trkpt>
      <trkpt lat="41.88347" lon="33.11022">
        <ele>51.1466</ele>
        <time>2021-08-21T00:13:42.646Z</time>
      </trkpt>
      <trkpt lat="41.88341" lon="33.10997">
        <ele>51.535858</ele>
        <time>2021-08-21T00:13:49.957Z</time>
      </trkpt>
      <trkpt lat="41.88345" lon="33.10978">
        <ele>51.849556</ele>
        <time>2021-08-21T00:13:55.486Z</time>
      </trkpt>
      <trkpt lat="41.8836" lon="33.10921">
        <ele>52.772639</ele>
        <time>2021-08-21T00:14:12.387Z</time>
      </trkpt>
      <trkpt lat="41.88373" lon="33.10896">
        <ele>53.241094</ele>
        <time>2021-08-21T00:14:21.526Z</time>
      </trkpt>
      <trkpt lat="41.88387" lon="33.10889">
        <ele>53.540207</ele>
        <time>2021-08-21T00:14:27.711Z</time>
      </trkpt>
      <trkpt lat="41.88474" lon="33.10888">
        <ele>56.905187</ele>
        <time>2021-08-21T00:15:09.760Z</time>
      </trkpt>
      <trkpt lat="41.88532" lon="33.10895">
        <ele>60.75394</ele>
        <time>2021-08-21T00:15:46.081Z</time>
      </trkpt>
      <trkpt lat="41.88541" lon="33.10884">
        <ele>61.574873</ele>
        <time>2021-08-21T00:15:54.941Z</time>
      </trkpt>
      <trkpt lat="41.88545" lon="33.10771">
        <ele>67.543707</ele>
        <time>2021-08-21T00:17:03.094Z</time>
      </trkpt>
      <trkpt lat="41.88553" lon="33.10755">
        <ele>69.079427</ele>
        <time>2021-08-21T00:17:15.194Z</time>
      </trkpt>
      <trkpt lat="41.88568" lon="33.10741">
        <ele>71.161921</ele>
        <time>2021-08-21T00:17:32.495Z</time>
      </trkpt>
      <trkpt lat="41.88588" lon="33.10739">
        <ele>73.356161</ele>
        <time>2021-08-21T00:17:50.638Z</time>
      </trkpt>
      <trkpt lat="41.88613" lon="33.10725">
        <ele>76.291498</ele>
        <time>2021-08-21T00:18:15.999Z</time>
      </trkpt>
      <trkpt lat="41.88617" lon="33.10708">
        <ele>77.806918</ele>
        <time>2021-08-21T00:18:29.374Z</time>
      </trkpt>
      <trkpt lat="41.88612" lon="33.1069">
        <ele>79.348978</ele>
        <time>2021-08-21T00:18:43.141Z</time>
      </trkpt>
      <trkpt lat="41.88604" lon="33.10675">
        <ele>80.893316</ele>
        <time>2021-08-21T00:18:56.685Z</time>
      </trkpt>
      <trkpt lat="41.88571" lon="33.10655">
        <ele>84.934713</ele>
        <time>2021-08-21T00:19:32.794Z</time>
      </trkpt>
      <trkpt lat="41.88536" lon="33.10568">
        <ele>92.266075</ele>
        <time>2021-08-21T00:20:42.797Z</time>
      </trkpt>
      <trkpt lat="41.88546" lon="33.10491">
        <ele>97.934726</ele>
        <time>2021-08-21T00:21:32.472Z</time>
      </trkpt>
      <trkpt lat="41.88548" lon="33.10404">
        <ele>104.24048</ele>
        <time>2021-08-21T00:22:22.846Z</time>
      </trkpt>
      <trkpt lat="41.88556" lon="33.10365">
        <ele>105.934769</ele>
        <time>2021-08-21T00:22:47.035Z</time>
      </trkpt>
      <trkpt lat="41.88582" lon="33.10335">
        <ele>107.88612</ele>
        <time>2021-08-21T00:23:11.419Z</time>
      </trkpt>
      <trkpt lat="41.88607" lon="33.1033">
        <ele>109.326556</ele>
        <time>2021-08-21T00:23:28.722Z</time>
      </trkpt>
      <trkpt lat="41.88613" lon="33.10321">
        <ele>109.827303</ele>
        <time>2021-08-21T00:23:33.600Z</time>
      </trkpt>
      <trkpt lat="41.88613" lon="33.10307">
        <ele>110.432406</ele>
        <time>2021-08-21T00:23:37.106Z</time>
      </trkpt>
      <trkpt lat="41.88605" lon="33.10301">
        <ele>110.97437</ele>
        <time>2021-08-21T00:23:46.703Z</time>
      </trkpt>
      <trkpt lat="41.88567" lon="33.10314">
        <ele>113.186585</ele>
        <time>2021-08-21T00:24:07.300Z</time>
      </trkpt>
      <trkpt lat="41.88542" lon="33.10358">
        <ele>114.356088</ele>
        <time>2021-08-21T00:24:25.924Z</time>
      </trkpt>
      <trkpt lat="41.88531" lon="33.10401">
        <ele>114.457505</ele>
        <time>2021-08-21T00:24:39.766Z</time>
      </trkpt>
      <trkpt lat="41.88508" lon="33.10435">
        <ele>114.562382</ele>
        <time>2021-08-21T00:24:52.802Z</time>
      </trkpt>
      <trkpt lat="41.88418" lon="33.10489">
        <ele>114.754156</ele>
        <time>2021-08-21T00:25:18.367Z</time>
      </trkpt>
      <trkpt lat="41.88385" lon="33.10488">
        <ele>114.455471</ele>
        <time>2021-08-21T00:25:26.389Z</time>
      </trkpt>
      <trkpt lat="41.88364" lon="33.10474">
        <ele>114.238664</ele>
        <time>2021-08-21T00:25:32.136Z</time>
      </trkpt>
      <trkpt lat="41.88341" lon="33.10435">
        <ele>113.903971</ele>
        <time>2021-08-21T00:25:41.431Z</time>
      </trkpt>
      <trkpt lat="41.88312" lon="33.1037">
        <ele>113.375616</ele>
        <time>2021-08-21T00:25:58.108Z</time>
      </trkpt>
      <trkpt lat="41.88309" lon="33.10353">
        <ele>113.258597</ele>
        <time>2021-08-21T00:26:01.577Z</time>
      </trkpt>
      <trkpt lat="41.88316" lon="33.10325">
        <ele>113.708311</ele>
        <time>2021-08-21T00:26:09.510Z</time>
      </trkpt>
      <trkpt lat="41.8832" lon="33.10311">
        <ele>114.175741</ele>
        <time>2021-08-21T00:26:12.935Z</time>
      </trkpt>
      <trkpt lat="41.88317" lon="33.10288">
        <ele>114.88723</ele>
        <time>2021-08-21T00:26:19.711Z</time>
      </trkpt>
      <trkpt lat="41.8831" lon="33.10274">
        <ele>115.413307</ele>
        <time>2021-08-21T00:26:24.845Z</time>
      </trkpt>
      <trkpt lat="41.88299" lon="33.10268">
        <ele>115.908241</ele>
        <time>2021-08-21T00:26:29.340Z</time>
      </trkpt>
      <trkpt lat="41.88221" lon="33.10253">
        <ele>119.110679</ele>
        <time>2021-08-21T00:27:16.994Z</time>
      </trkpt>
      <trkpt lat="41.88196" lon="33.10228">
        <ele>120.390415</ele>
        <time>2021-08-21T00:27:39.735Z</time>
      </trkpt>
      <trkpt lat="41.88175" lon="33.10181">
        <ele>123.203015</ele>
        <time>2021-08-21T00:28:09.197Z</time>
      </trkpt>
      <trkpt lat="41.88167" lon="33.10154">
        <ele>124.737409</ele>
        <time>2021-08-21T00:28:27.242Z</time>
      </trkpt>
      <trkpt lat="41.88139" lon="33.10117">
        <ele>127.547478</ele>
        <time>2021-08-21T00:28:56.408Z</time>
      </trkpt>
      <trkpt lat="41.88134" lon="33.10101">
        <ele>128.470459</ele>
        <time>2021-08-21T00:29:04.793Z</time>
      </trkpt>
      <trkpt lat="41.88157" lon="33.10054">
        <ele>131.430818</ele>
        <time>2021-08-21T00:29:36.969Z</time>
      </trkpt>
      <trkpt lat="41.88158" lon="33.10039">
        <ele>132.257237</ele>
        <time>2021-08-21T00:29:46.776Z</time>
      </trkpt>
      <trkpt lat="41.88152" lon="33.10024">
        <ele>133.150271</ele>
        <time>2021-08-21T00:29:54.993Z</time>
      </trkpt>
      <trkpt lat="41.88065" lon="33.0992">
        <ele>137.019918</ele>
        <time>2021-08-21T00:30:56.130Z</time>
      </trkpt>
      <trkpt lat="41.88045" lon="33.09902">
        <ele>137.789528</ele>
        <time>2021-08-21T00:31:04.320Z</time>
      </trkpt>
      <trkpt lat="41.87967" lon="33.0988">
        <ele>139.552287</ele>
        <time>2021-08-21T00:31:34.905Z</time>
      </trkpt>
      <trkpt lat="41.87948" lon="33.09856">
        <ele>139.814398</ele>
        <time>2021-08-21T00:31:42.865Z</time>
      </trkpt>
      <trkpt lat="41.87935" lon="33.09837">
        <ele>140.010724</ele>
        <time>2021-08-21T00:31:51.334Z</time>
      </trkpt>
      <trkpt lat="41.87924" lon="33.09808">
        <ele>140.252104</ele>
        <time>2021-08-21T00:31:59.051Z</time>
      </trkpt>
      <trkpt lat="41.87916" lon="33.09759">
        <ele>140.629585</ele>
        <time>2021-08-21T00:32:12.405Z</time>
      </trkpt>
      <trkpt lat="41.87873" lon="33.09681">
        <ele>141.468613</ele>
        <time>2021-08-21T00:32:39.958Z</time>
      </trkpt>
      <trkpt lat="41.87866" lon="33.09659">
        <ele>141.698792</ele>
        <time>2021-08-21T00:32:48.334Z</time>
      </trkpt>
      <trkpt lat="41.87865" lon="33.09603">
        <ele>142.248599</ele>
        <time>2021-08-21T00:33:05.206Z</time>
      </trkpt>
      <trkpt lat="41.8786" lon="33.0958">
        <ele>142.478626</ele>
        <time>2021-08-21T00:33:11.812Z</time>
      </trkpt>
      <trkpt lat="41.87851" lon="33.09563">
        <ele>142.683693</ele>
        <time>2021-08-21T00:33:17.288Z</time>
      </trkpt>
      <trkpt lat="41.87834" lon="33.0955">
        <ele>142.939227</ele>
        <time>2021-08-21T00:33:24.401Z</time>
      </trkpt>
      <trkpt lat="41.87792" lon="33.09491">
        <ele>143.900828</ele>
        <time>2021-08-21T00:33:46.497Z</time>
      </trkpt>
      <trkpt lat="41.87754" lon="33.09418">
        <ele>145.125764</ele>
        <time>2021-08-21T00:34:12.085Z</time>
      </trkpt>
      <trkpt lat="41.87685" lon="33.09238">
        <ele>148.805816</ele>
        <time>2021-08-21T00:35:21.210Z</time>
      </trkpt>
      <trkpt lat="41.87687" lon="33.09167">
        <ele>150.472884</ele>
        <time>2021-08-21T00:35:48.223Z</time>
      </trkpt>
      <trkpt lat="41.87693" lon="33.09126">
        <ele>151.475697</ele>
        <time>2021-08-21T00:36:04.426Z</time>
      </trkpt>
      <trkpt lat="41.87658" lon="33.09076">
        <ele>153.227449</ele>
        <time>2021-08-21T00:36:30.440Z</time>
      </trkpt>
      <trkpt lat="41.8764" lon="33.09029">
        <ele>154.710293</ele>
        <time>2021-08-21T00:36:50.070Z</time>
      </trkpt>
      <trkpt lat="41.87645" lon="33.09005">
        <ele>155.406707</ele>
        <time>2021-08-21T00:36:59.068Z</time>
      </trkpt>
      <trkpt lat="41.87666" lon="33.08961">
        <ele>156.870749</ele>
        <time>2021-08-21T00:37:20.332Z</time>
      </trkpt>
      <trkpt lat="41.87669" lon="33.08941">
        <ele>157.435232</ele>
        <time>2021-08-21T00:37:28.278Z</time>
      </trkpt>
      <trkpt lat="41.87665" lon="33.08914">
        <ele>158.211615</ele>
        <time>2021-08-21T00:37:39.999Z</time>
      </trkpt>
      <trkpt lat="41.87648" lon="33.08904">
        <ele>158.888155</ele>
        <time>2021-08-21T00:37:49.324Z</time>
      </trkpt>
      <trkpt lat="41.87645" lon="33.08896">
        <ele>159.147438</ele>
        <time>2021-08-21T00:37:52.932Z</time>
      </trkpt>
      <trkpt lat="41.87635" lon="33.0882">
        <ele>161.496715</ele>
        <time>2021-08-21T00:38:23.972Z</time>
      </trkpt>
      <trkpt lat="41.87627" lon="33.08803">
        <ele>162.102757</ele>
        <time>2021-08-21T00:38:31.815Z</time>
      </trkpt>
      <trkpt lat="41.87629" lon="33.08784">
        <ele>162.673935</ele>
        <time>2021-08-21T00:38:40.334Z</time>
      </trkpt>
      <trkpt lat="41.87628" lon="33.08738">
        <ele>164.079604</ele>
        <time>2021-08-21T00:38:59.359Z</time>
      </trkpt>
      <trkpt lat="41.87612" lon="33.08692">
        <ele>165.615113</ele>
        <time>2021-08-21T00:39:20.466Z</time>
      </trkpt>
      <trkpt lat="41.87616" lon="33.08663">
        <ele>166.485618</ele>
        <time>2021-08-21T00:39:31.756Z</time>
      </trkpt>
      <trkpt lat="41.87613" lon="33.0861">
        <ele>167.745489</ele>
        <time>2021-08-21T00:39:54.204Z</time>
      </trkpt>
      <trkpt lat="41.87619" lon="33.08532">
        <ele>169.606268</ele>
        <time>2021-08-21T00:40:23.738Z</time>
      </trkpt>
      <trkpt lat="41.87612" lon="33.08507">
        <ele>170.228358</ele>
        <time>2021-08-21T00:40:33.283Z</time>
      </trkpt>
      <trkpt lat="41.87574" lon="33.0845">
        <ele>172.046716</ele>
        <time>2021-08-21T00:41:00.927Z</time>
      </trkpt>
      <trkpt lat="41.87566" lon="33.08382">
        <ele>172.897643</ele>
        <time>2021-08-21T00:41:23.973Z</time>
      </trkpt>
      <trkpt lat="41.87568" lon="33.08336">
        <ele>173.417018</ele>
        <time>2021-08-21T00:41:38.388Z</time>
      </trkpt>
      <trkpt lat="41.8758" lon="33.08284">
        <ele>174.044343</ele>
        <time>2021-08-21T00:41:54.569Z</time>
      </trkpt>
      <trkpt lat="41.87581" lon="33.08275">
        <ele>174.142886</ele>
        <time>2021-08-21T00:41:57.894Z</time>
      </trkpt>
      <trkpt lat="41.87571" lon="33.0827">
        <ele>174.305048</ele>
        <time>2021-08-21T00:42:01.139Z</time>
      </trkpt>
      <trkpt lat="41.87561" lon="33.08255">
        <ele>174.53897</ele>
        <time>2021-08-21T00:42:06.659Z</time>
      </trkpt>
      <trkpt lat="41.87564" lon="33.08167">
        <ele>175.38512</ele>
        <time>2021-08-21T00:42:30.316Z</time>
      </trkpt>
      <trkpt lat="41.87551" lon="33.08071">
        <ele>176.231355</ele>
        <time>2021-08-21T00:42:56.938Z</time>
      </trkpt>
      <trkpt lat="41.8751" lon="33.08083">
        <ele>176.709425</ele>
        <time>2021-08-21T00:43:13.216Z</time>
      </trkpt>
      <trkpt lat="41.87491" lon="33.08077">
        <ele>176.93399</ele>
        <time>2021-08-21T00:43:21.502Z</time>
      </trkpt>
      <trkpt lat="41.87467" lon="33.0806">
        <ele>178.002343</ele>
        <time>2021-08-21T00:43:33.732Z</time>
      </trkpt>
      <trkpt lat="41.87456" lon="33.08041">
        <ele>178.838476</ele>
        <time>2021-08-21T00:43:41.900Z</time>
      </trkpt>
      <trkpt lat="41.87462" lon="33.07958">
        <ele>181.776668</ele>
        <time>2021-08-21T00:44:15.941Z</time>
      </trkpt>
      <trkpt lat="41.87459" lon="33.07939">
        <ele>182.465698</ele>
        <time>2021-08-21T00:44:24.857Z</time>
      </trkpt>
      <trkpt lat="41.87448" lon="33.07929">
        <ele>183.093903</ele>
        <time>2021-08-21T00:44:33.547Z</time>
      </trkpt>
      <trkpt lat="41.8739" lon="33.07938">
        <ele>186.192971</ele>
        <time>2021-08-21T00:45:14.810Z</time>
      </trkpt>
      <trkpt lat="41.8736" lon="33.07933">
        <ele>189.104048</ele>
        <time>2021-08-21T00:45:38.898Z</time>
      </trkpt>
      <trkpt lat="41.87349" lon="33.07929">
        <ele>190.190953</ele>
        <time>2021-08-21T00:45:48.324Z</time>
      </trkpt>
      <trkpt lat="41.87341" lon="33.07912">
        <ele>191.597702</ele>
        <time>2021-08-21T00:46:00.556Z</time>
      </trkpt>
      <trkpt lat="41.87342" lon="33.0786">
        <ele>195.298656</ele>
        <time>2021-08-21T00:46:33.897Z</time>
      </trkpt>
      <trkpt lat="41.87355" lon="33.07796">
        <ele>200.028607</ele>
        <time>2021-08-21T00:47:19.085Z</time>
      </trkpt>
      <trkpt lat="41.87344" lon="33.07745">
        <ele>204.027854</ele>
        <time>2021-08-21T00:47:57.274Z</time>
      </trkpt>
      <trkpt lat="41.87335" lon="33.07736">
        <ele>205.275095</ele>
        <time>2021-08-21T00:48:07.996Z</time>
      </trkpt>
      <trkpt lat="41.87318" lon="33.07744">
        <ele>207.358714</ele>
        <time>2021-08-21T00:48:25.035Z</time>
      </trkpt>
      <trkpt lat="41.87286" lon="33.07747">
        <ele>211.067449</ele>
        <time>2021-08-21T00:48:56.659Z</time>
      </trkpt>
      <trkpt lat="41.87283" lon="33.07741">
        <ele>211.735099</ele>
        <time>2021-08-21T00:49:02.428Z</time>
      </trkpt>
      <trkpt lat="41.87298" lon="33.07703">
        <ele>215.430011</ele>
        <time>2021-08-21T00:49:34.243Z</time>
      </trkpt>
      <trkpt lat="41.87295" lon="33.07689">
        <ele>216.658606</ele>
        <time>2021-08-21T00:49:45.110Z</time>
      </trkpt>
      <trkpt lat="41.87287" lon="33.07686">
        <ele>217.621588</ele>
        <time>2021-08-21T00:49:53.533Z</time>
      </trkpt>
      <trkpt lat="41.87271" lon="33.07694">
        <ele>219.621466</ele>
        <time>2021-08-21T00:50:10.025Z</time>
      </trkpt>
      <trkpt lat="41.87233" lon="33.07691">
        <ele>224.024216</ele>
        <time>2021-08-21T00:50:46.719Z</time>
      </trkpt>
      <trkpt lat="41.87173" lon="33.07665">
        <ele>231.538207</ele>
        <time>2021-08-21T00:51:46.896Z</time>
      </trkpt>
      <trkpt lat="41.87128" lon="33.07636">
        <ele>237.453591</ele>
        <time>2021-08-21T00:52:37.706Z</time>
      </trkpt>
      <trkpt lat="41.87088" lon="33.07577">
        <ele>244.530158</ele>
        <time>2021-08-21T00:53:38.365Z</time>
      </trkpt>
      <trkpt lat="41.87069" lon="33.07526">
        <ele>249.572691</ele>
        <time>2021-08-21T00:54:19.856Z</time>
      </trkpt>
      <trkpt lat="41.87053" lon="33.07504">
        <ele>252.340424</ele>
        <time>2021-08-21T00:54:43.489Z</time>
      </trkpt>
      <trkpt lat="41.8704" lon="33.07471">
        <ele>255.619955</ele>
        <time>2021-08-21T00:55:10.500Z</time>
      </trkpt>
      <trkpt lat="41.87028" lon="33.07443">
        <ele>258.462502</ele>
        <time>2021-08-21T00:55:32.946Z</time>
      </trkpt>
      <trkpt lat="41.87023" lon="33.0737">
        <ele>264.919529</ele>
        <time>2021-08-21T00:56:26.563Z</time>
      </trkpt>
      <trkpt lat="41.86959" lon="33.07237">
        <ele>278.921811</ele>
        <time>2021-08-21T00:58:21.715Z</time>
      </trkpt>
      <trkpt lat="41.86954" lon="33.07191">
        <ele>283.04708</ele>
        <time>2021-08-21T00:58:56.135Z</time>
      </trkpt>
      <trkpt lat="41.86988" lon="33.07139">
        <ele>289.099233</ele>
        <time>2021-08-21T00:59:45.478Z</time>
      </trkpt>
      <trkpt lat="41.86988" lon="33.07119">
        <ele>290.799876</ele>
        <time>2021-08-21T01:00:01.339Z</time>
      </trkpt>
      <trkpt lat="41.86987" lon="33.0709">
        <ele>293.283378</ele>
        <time>2021-08-21T01:00:21.180Z</time>
      </trkpt>
      <trkpt lat="41.86978" lon="33.0706">
        <ele>296.068458</ele>
        <time>2021-08-21T01:00:45.607Z</time>
      </trkpt>
      <trkpt lat="41.8698" lon="33.07036">
        <ele>298.206725</ele>
        <time>2021-08-21T01:01:03.535Z</time>
      </trkpt>
      <trkpt lat="41.87018" lon="33.06946">
        <ele>307.003666</ele>
        <time>2021-08-21T01:02:19.366Z</time>
      </trkpt>
      <trkpt lat="41.87059" lon="33.0689">
        <ele>313.859185</ele>
        <time>2021-08-21T01:03:11.232Z</time>
      </trkpt>
      <trkpt lat="41.87069" lon="33.06865">
        <ele>316.35154</ele>
        <time>2021-08-21T01:03:29.459Z</time>
      </trkpt>
      <trkpt lat="41.87067" lon="33.0685">
        <ele>317.685624</ele>
        <time>2021-08-21T01:03:39.352Z</time>
      </trkpt>
      <trkpt lat="41.87052" lon="33.06828">
        <ele>320.321353</ele>
        <time>2021-08-21T01:04:00.190Z</time>
      </trkpt>
      <trkpt lat="41.87037" lon="33.06791">
        <ele>324.024683</ele>
        <time>2021-08-21T01:04:35.019Z</time>
      </trkpt>
      <trkpt lat="41.86998" lon="33.06766">
        <ele>329.21787</ele>
        <time>2021-08-21T01:05:22.135Z</time>
      </trkpt>
      <trkpt lat="41.86985" lon="33.06737">
        <ele>332.547936</ele>
        <time>2021-08-21T01:05:49.827Z</time>
      </trkpt>
      <trkpt lat="41.86984" lon="33.06711">
        <ele>335.263639</ele>
        <time>2021-08-21T01:06:08.774Z</time>
      </trkpt>
      <trkpt lat="41.86994" lon="33.06697">
        <ele>337.223652</ele>
        <time>2021-08-21T01:06:26.071Z</time>
      </trkpt>
      <trkpt lat="41.8701" lon="33.06665">
        <ele>341.182904</ele>
        <time>2021-08-21T01:06:53.267Z</time>
      </trkpt>
      <trkpt lat="41.87017" lon="33.06662">
        <ele>342.199821</ele>
        <time>2021-08-21T01:07:03.814Z</time>
      </trkpt>
      <trkpt lat="41.87027" lon="33.06643">
        <ele>344.695773</ele>
        <time>2021-08-21T01:07:24.384Z</time>
      </trkpt>
      <trkpt lat="41.87033" lon="33.0662">
        <ele>347.148455</ele>
        <time>2021-08-21T01:07:44.113Z</time>
      </trkpt>
      <trkpt lat="41.87048" lon="33.06515">
        <ele>358.11656</ele>
        <time>2021-08-21T01:09:14.380Z</time>
      </trkpt>
      <trkpt lat="41.87076" lon="33.06499">
        <ele>362.169048</ele>
        <time>2021-08-21T01:09:47.354Z</time>
      </trkpt>
      <trkpt lat="41.87083" lon="33.06501">
        <ele>363.221573</ele>
        <time>2021-08-21T01:09:57.357Z</time>
      </trkpt>
      <trkpt lat="41.87092" lon="33.06495">
        <ele>364.528538</ele>
        <time>2021-08-21T01:10:06.265Z</time>
      </trkpt>
      <trkpt lat="41.87113" lon="33.06506">
        <ele>367.56128</ele>
        <time>2021-08-21T01:10:27.496Z</time>
      </trkpt>
      <trkpt lat="41.87173" lon="33.06492">
        <ele>375.726013</ele>
        <time>2021-08-21T01:11:30.838Z</time>
      </trkpt>
      <trkpt lat="41.87201" lon="33.06463">
        <ele>380.799366</ele>
        <time>2021-08-21T01:12:11.397Z</time>
      </trkpt>
      <trkpt lat="41.87247" lon="33.0638">
        <ele>392.669267</ele>
        <time>2021-08-21T01:13:41.621Z</time>
      </trkpt>
      <trkpt lat="41.87247" lon="33.06354">
        <ele>395.759051</ele>
        <time>2021-08-21T01:14:06.217Z</time>
      </trkpt>
      <trkpt lat="41.87259" lon="33.06315">
        <ele>400.59904</ele>
        <time>2021-08-21T01:14:45.433Z</time>
      </trkpt>
      <trkpt lat="41.87257" lon="33.06268">
        <ele>406.008361</ele>
        <time>2021-08-21T01:15:29.329Z</time>
      </trkpt>
      <trkpt lat="41.87271" lon="33.06227">
        <ele>410.78759</ele>
        <time>2021-08-21T01:16:10.330Z</time>
      </trkpt>
      <trkpt lat="41.87285" lon="33.06205">
        <ele>413.868028</ele>
        <time>2021-08-21T01:16:36.643Z</time>
      </trkpt>
      <trkpt lat="41.87301" lon="33.06162">
        <ele>418.96083</ele>
        <time>2021-08-21T01:17:18.278Z</time>
      </trkpt>
      <trkpt lat="41.87337" lon="33.06148">
        <ele>424.099353</ele>
        <time>2021-08-21T01:17:58.208Z</time>
      </trkpt>
      <trkpt lat="41.87339" lon="33.06047">
        <ele>434.01155</ele>
        <time>2021-08-21T01:19:15.650Z</time>
      </trkpt>
      <trkpt lat="41.87349" lon="33.05998">
        <ele>437.883768</ele>
        <time>2021-08-21T01:19:50.919Z</time>
      </trkpt>
      <trkpt lat="41.87378" lon="33.05965">
        <ele>441.780144</ele>
        <time>2021-08-21T01:20:23.924Z</time>
      </trkpt>
      <trkpt lat="41.87454" lon="33.05928">
        <ele>450.176701</ele>
        <time>2021-08-21T01:21:32.528Z</time>
      </trkpt>
      <trkpt lat="41.87488" lon="33.05875">
        <ele>455.404901</ele>
        <time>2021-08-21T01:22:18.404Z</time>
      </trkpt>
      <trkpt lat="41.87535" lon="33.05842">
        <ele>460.784605</ele>
        <time>2021-08-21T01:23:07.427Z</time>
      </trkpt>
      <trkpt lat="41.87542" lon="33.05827">
        <ele>462.105884</ele>
        <time>2021-08-21T01:23:19.419Z</time>
      </trkpt>
      <trkpt lat="41.87543" lon="33.0579">
        <ele>464.877365</ele>
        <time>2021-08-21T01:23:44.655Z</time>
      </trkpt>
      <trkpt lat="41.87549" lon="33.05758">
        <ele>467.34567</ele>
        <time>2021-08-21T01:24:06.662Z</time>
      </trkpt>
      <trkpt lat="41.87558" lon="33.05741">
        <ele>468.90811</ele>
        <time>2021-08-21T01:24:20.644Z</time>
      </trkpt>
      <trkpt lat="41.87576" lon="33.05731">
        <ele>470.476913</ele>
        <time>2021-08-21T01:24:36.784Z</time>
      </trkpt>
      <trkpt lat="41.87597" lon="33.05707">
        <ele>472.800231</ele>
        <time>2021-08-21T01:25:00.285Z</time>
      </trkpt>
      <trkpt lat="41.87622" lon="33.05701">
        <ele>474.934561</ele>
        <time>2021-08-21T01:25:21.495Z</time>
      </trkpt>
      <trkpt lat="41.8763" lon="33.05656">
        <ele>477.814874</ele>
        <time>2021-08-21T01:25:49.664Z</time>
      </trkpt>
      <trkpt lat="41.87654" lon="33.05629">
        <ele>480.41778</ele>
        <time>2021-08-21T01:26:13.857Z</time>
      </trkpt>
      <trkpt lat="41.87662" lon="33.0558">
        <ele>483.513443</ele>
        <time>2021-08-21T01:26:40.114Z</time>
      </trkpt>
      <trkpt lat="41.8767" lon="33.05567">
        <ele>484.319708</ele>
        <time>2021-08-21T01:26:48.691Z</time>
      </trkpt>
      <trkpt lat="41.87686" lon="33.05551">
        <ele>485.440554</ele>
        <time>2021-08-21T01:27:02.575Z</time>
      </trkpt>
      <trkpt lat="41.87715" lon="33.05546">
        <ele>487.059898</ele>
        <time>2021-08-21T01:27:20.632Z</time>
      </trkpt>
      <trkpt lat="41.87757" lon="33.05573">
        <ele>489.677694</ele>
        <time>2021-08-21T01:27:49.769Z</time>
      </trkpt>
      <trkpt lat="41.87813" lon="33.05578">
        <ele>492.878266</ele>
        <time>2021-08-21T01:28:23.311Z</time>
      </trkpt>
      <trkpt lat="41.87827" lon="33.05581">
        <ele>493.6243</ele>
        <time>2021-08-21T01:28:32.269Z</time>
      </trkpt>
      <trkpt lat="41.87834" lon="33.05589">
        <ele>494.245173</ele>
        <time>2021-08-21T01:28:38.050Z</time>
      </trkpt>
      <trkpt lat="41.87863" lon="33.0564">
        <ele>497.405909</ele>
        <time>2021-08-21T01:29:07.854Z</time>
      </trkpt>
      <trkpt lat="41.87902" lon="33.05664">
        <ele>500.243439</ele>
        <time>2021-08-21T01:29:40.679Z</time>
      </trkpt>
      <trkpt lat="41.8794" lon="33.0567">
        <ele>502.750452</ele>
        <time>2021-08-21T01:30:08.574Z</time>
      </trkpt>
      <trkpt lat="41.8795" lon="33.05667">
        <ele>503.431594</ele>
        <time>2021-08-21T01:30:15.672Z</time>
      </trkpt>
      <trkpt lat="41.8796" lon="33.05642">
        <ele>504.850589</ele>
        <time>2021-08-21T01:30:31.849Z</time>
      </trkpt>
      <trkpt lat="41.8795" lon="33.05606">
        <ele>506.486636</ele>
        <time>2021-08-21T01:30:49.235Z</time>
      </trkpt>
      <trkpt lat="41.87953" lon="33.05599">
        <ele>506.805792</ele>
        <time>2021-08-21T01:30:56.175Z</time>
      </trkpt>
      <trkpt lat="41.8794" lon="33.0557">
        <ele>508.03752</ele>
        <time>2021-08-21T01:31:12.442Z</time>
      </trkpt>
      <trkpt lat="41.87925" lon="33.05516">
        <ele>510.191818</ele>
        <time>2021-08-21T01:31:42.750Z</time>
      </trkpt>
      <trkpt lat="41.87919" lon="33.05459">
        <ele>512.30863</ele>
        <time>2021-08-21T01:32:10.111Z</time>
      </trkpt>
      <trkpt lat="41.87923" lon="33.05406">
        <ele>514.271698</ele>
        <time>2021-08-21T01:32:28.695Z</time>
      </trkpt>
      <trkpt lat="41.87928" lon="33.05378">
        <ele>514.379494</ele>
        <time>2021-08-21T01:32:37.196Z</time>
      </trkpt>
      <trkpt lat="41.87933" lon="33.0535">
        <ele>513.872068</ele>
        <time>2021-08-21T01:32:42.637Z</time>
      </trkpt>
      <trkpt lat="41.87956" lon="33.05292">
        <ele>512.725089</ele>
        <time>2021-08-21T01:32:54.947Z</time>
      </trkpt>
      <trkpt lat="41.87988" lon="33.05292">
        <ele>511.979179</ele>
        <time>2021-08-21T01:33:02.029Z</time>
      </trkpt>
      <trkpt lat="41.88009" lon="33.05301">
        <ele>511.45385</ele>
        <time>2021-08-21T01:33:06.813Z</time>
      </trkpt>
      <trkpt lat="41.8805" lon="33.05383">
        <ele>509.200772</ele>
        <time>2021-08-21T01:33:22.768Z</time>
      </trkpt>
      <trkpt lat="41.88065" lon="33.05395">
        <ele>508.497976</ele>
        <time>2021-08-21T01:33:26.626Z</time>
      </trkpt>
      <trkpt lat="41.88079" lon="33.05396">
        <ele>507.937259</ele>
        <time>2021-08-21T01:33:29.412Z</time>
      </trkpt>
      <trkpt lat="41.88087" lon="33.05387">
        <ele>507.517595</ele>
        <time>2021-08-21T01:33:31.739Z</time>
      </trkpt>
      <trkpt lat="41.88095" lon="33.05353">
        <ele>506.474723</ele>
        <time>2021-08-21T01:33:37.322Z</time>
      </trkpt>
      <trkpt lat="41.88101" lon="33.05331">
        <ele>505.786781</ele>
        <time>2021-08-21T01:33:41.691Z</time>
      </trkpt>
      <trkpt lat="41.88108" lon="33.0519">
        <ele>501.258812</ele>
        <time>2021-08-21T01:34:05.562Z</time>
      </trkpt>
      <trkpt lat="41.8813" lon="33.05163">
        <ele>499.873481</ele>
        <time>2021-08-21T01:34:11.931Z</time>
      </trkpt>
      <trkpt lat="41.88141" lon="33.05139">
        <ele>498.87262</ele>
        <time>2021-08-21T01:34:16.607Z</time>
      </trkpt>
      <trkpt lat="41.88159" lon="33.05073">
        <ele>496.40431</ele>
        <time>2021-08-21T01:34:27.625Z</time>
      </trkpt>
      <trkpt lat="41.88167" lon="33.05065">
        <ele>495.917918</ele>
        <time>2021-08-21T01:34:29.750Z</time>
      </trkpt>
      <trkpt lat="41.88172" lon="33.05043">
        <ele>495.112919</ele>
        <time>2021-08-21T01:34:33.318Z</time>
      </trkpt>
      <trkpt lat="41.88169" lon="33.05017">
        <ele>493.800918</ele>
        <time>2021-08-21T01:34:37.373Z</time>
      </trkpt>
      <trkpt lat="41.88152" lon="33.04977">
        <ele>491.176686</ele>
        <time>2021-08-21T01:34:44.335Z</time>
      </trkpt>
      <trkpt lat="41.88155" lon="33.0494">
        <ele>489.059613</ele>
        <time>2021-08-21T01:34:49.875Z</time>
      </trkpt>
      <trkpt lat="41.88144" lon="33.04903">
        <ele>486.823782</ele>
        <time>2021-08-21T01:34:55.738Z</time>
      </trkpt>
      <trkpt lat="41.88163" lon="33.04887">
        <ele>485.093189</ele>
        <time>2021-08-21T01:35:00.261Z</time>
      </trkpt>
      <trkpt lat="41.88168" lon="33.04877">
        <ele>484.406296</ele>
        <time>2021-08-21T01:35:02.015Z</time>
      </trkpt>
      <trkpt lat="41.88169" lon="33.04856">
        <ele>483.190885</ele>
        <time>2021-08-21T01:35:05.092Z</time>
      </trkpt>
      <trkpt lat="41.8816" lon="33.04843">
        <ele>482.170085</ele>
        <time>2021-08-21T01:35:07.642Z</time>
      </trkpt>
      <trkpt lat="41.88141" lon="33.04818">
        <ele>479.865899</ele>
        <time>2021-08-21T01:35:12.623Z</time>
      </trkpt>
      <trkpt lat="41.88131" lon="33.04793">
        <ele>477.633084</ele>
        <time>2021-08-21T01:35:16.721Z</time>
      </trkpt>
      <trkpt lat="41.88129" lon="33.04764">
        <ele>475.402173</ele>
        <time>2021-08-21T01:35:20.835Z</time>
      </trkpt>
      <trkpt lat="41.88138" lon="33.0473">
        <ele>472.638254</ele>
        <time>2021-08-21T01:35:25.977Z</time>
      </trkpt>
      <trkpt lat="41.88154" lon="33.04701">
        <ele>469.904083</ele>
        <time>2021-08-21T01:35:31.016Z</time>
      </trkpt>
      <trkpt lat="41.88168" lon="33.0469">
        <ele>468.262792</ele>
        <time>2021-08-21T01:35:34.020Z</time>
      </trkpt>
      <trkpt lat="41.88209" lon="33.0468">
        <ele>463.961292</ele>
        <time>2021-08-21T01:35:41.911Z</time>
      </trkpt>
      <trkpt lat="41.88216" lon="33.04664">
        <ele>462.528623</ele>
        <time>2021-08-21T01:35:44.564Z</time>
      </trkpt>
      <trkpt lat="41.88252" lon="33.04642">
        <ele>458.399387</ele>
        <time>2021-08-21T01:35:52.005Z</time>
      </trkpt>
      <trkpt lat="41.88264" lon="33.0462">
        <ele>456.292402</ele>
        <time>2021-08-21T01:35:55.757Z</time>
      </trkpt>
      <trkpt lat="41.88296" lon="33.04483">
        <ele>444.983298</ele>
        <time>2021-08-21T01:36:16.190Z</time>
      </trkpt>
      <trkpt lat="41.88304" lon="33.04464">
        <ele>443.239837</ele>
        <time>2021-08-21T01:36:19.221Z</time>
      </trkpt>
      <trkpt lat="41.88331" lon="33.04445">
        <ele>439.238971</ele>
        <time>2021-08-21T01:36:24.927Z</time>
      </trkpt>
      <trkpt lat="41.88353" lon="33.04338">
        <ele>428.354415</ele>
        <time>2021-08-21T01:36:40.183Z</time>
      </trkpt>
      <trkpt lat="41.88384" lon="33.04081">
        <ele>399.963659</ele>
        <time>2021-08-21T01:37:15.399Z</time>
      </trkpt>
      <trkpt lat="41.8839" lon="33.04">
        <ele>390.85003</ele>
        <time>2021-08-21T01:37:26.404Z</time>
      </trkpt>
      <trkpt lat="41.88383" lon="33.03974">
        <ele>387.984799</ele>
        <time>2021-08-21T01:37:30.294Z</time>
      </trkpt>
      <trkpt lat="41.88354" lon="33.03934">
        <ele>382.4454</ele>
        <time>2021-08-21T01:37:37.821Z</time>
      </trkpt>
      <trkpt lat="41.8834" lon="33.03883">
        <ele>377.015658</ele>
        <time>2021-08-21T01:37:45.245Z</time>
      </trkpt>
      <trkpt lat="41.88339" lon="33.03826">
        <ele>371.221878</ele>
        <time>2021-08-21T01:37:53.234Z</time>
      </trkpt>
      <trkpt lat="41.88354" lon="33.03718">
        <ele>362.046464</ele>
        <time>2021-08-21T01:38:08.521Z</time>
      </trkpt>
      <trkpt lat="41.88348" lon="33.03702">
        <ele>360.663819</ele>
        <time>2021-08-21T01:38:11.064Z</time>
      </trkpt>
      <trkpt lat="41.88325" lon="33.03676">
        <ele>357.613266</ele>
        <time>2021-08-21T01:38:16.865Z</time>
      </trkpt>
      <trkpt lat="41.88325" lon="33.0366">
        <ele>356.376175</ele>
        <time>2021-08-21T01:38:19.120Z</time>
      </trkpt>
      <trkpt lat="41.88333" lon="33.03646">
        <ele>355.033022</ele>
        <time>2021-08-21T01:38:21.561Z</time>
      </trkpt>
      <trkpt lat="41.88346" lon="33.03642">
        <ele>353.631983</ele>
        <time>2021-08-21T01:38:24.303Z</time>
      </trkpt>
      <trkpt lat="41.8835" lon="33.03634">
        <ele>352.894306</ele>
        <time>2021-08-21T01:38:25.620Z</time>
      </trkpt>
      <trkpt lat="41.88381" lon="33.03629">
        <ele>349.666979</ele>
        <time>2021-08-21T01:38:31.665Z</time>
      </trkpt>
      <trkpt lat="41.88395" lon="33.03636">
        <ele>348.109779</ele>
        <time>2021-08-21T01:38:34.527Z</time>
      </trkpt>
      <trkpt lat="41.88421" lon="33.03666">
        <ele>344.637574</ele>
        <time>2021-08-21T01:38:41.038Z</time>
      </trkpt>
      <trkpt lat="41.88448" lon="33.03691">
        <ele>341.188282</ele>
        <time>2021-08-21T01:38:47.487Z</time>
      </trkpt>
      <trkpt lat="41.88457" lon="33.03697">
        <ele>340.195855</ele>
        <time>2021-08-21T01:38:49.259Z</time>
      </trkpt>
      <trkpt lat="41.88502" lon="33.03678">
        <ele>335.342773</ele>
        <time>2021-08-21T01:38:58.366Z</time>
      </trkpt>
      <trkpt lat="41.88565" lon="33.03588">
        <ele>325.204795</ele>
        <time>2021-08-21T01:39:15.515Z</time>
      </trkpt>
      <trkpt lat="41.88583" lon="33.03556">
        <ele>321.720269</ele>
        <time>2021-08-21T01:39:21.065Z</time>
      </trkpt>
      <trkpt lat="41.88595" lon="33.03519">
        <ele>318.186183</ele>
        <time>2021-08-21T01:39:26.755Z</time>
      </trkpt>
      <trkpt lat="41.88614" lon="33.03481">
        <ele>314.165825</ele>
        <time>2021-08-21T01:39:33.130Z</time>
      </trkpt>
      <trkpt lat="41.88627" lon="33.03468">
        <ele>312.32625</ele>
        <time>2021-08-21T01:39:36.034Z</time>
      </trkpt>
      <trkpt lat="41.88679" lon="33.03434">
        <ele>305.712326</ele>
        <time>2021-08-21T01:39:46.896Z</time>
      </trkpt>
      <trkpt lat="41.88708" lon="33.03397">
        <ele>301.244631</ele>
        <time>2021-08-21T01:39:54.398Z</time>
      </trkpt>
      <trkpt lat="41.88718" lon="33.03368">
        <ele>298.663423</ele>
        <time>2021-08-21T01:39:58.706Z</time>
      </trkpt>
      <trkpt lat="41.88722" lon="33.03292">
        <ele>292.329148</ele>
        <time>2021-08-21T01:40:09.545Z</time>
      </trkpt>
      <trkpt lat="41.88719" lon="33.03264">
        <ele>289.944255</ele>
        <time>2021-08-21T01:40:13.614Z</time>
      </trkpt>
      <trkpt lat="41.88647" lon="33.03187">
        <ele>280.24493</ele>
        <time>2021-08-21T01:40:30.987Z</time>
      </trkpt>
      <trkpt lat="41.88632" lon="33.03182">
        <ele>278.605111</ele>
        <time>2021-08-21T01:40:33.932Z</time>
      </trkpt>
      <trkpt lat="41.88619" lon="33.0319">
        <ele>277.140558</ele>
        <time>2021-08-21T01:40:36.592Z</time>
      </trkpt>
      <trkpt lat="41.88593" lon="33.03225">
        <ele>273.202592</ele>
        <time>2021-08-21T01:40:43.659Z</time>
      </trkpt>
      <trkpt lat="41.88555" lon="33.03248">
        <ele>268.376064</ele>
        <time>2021-08-21T01:40:51.427Z</time>
      </trkpt>
      <trkpt lat="41.88533" lon="33.03246">
        <ele>265.480857</ele>
        <time>2021-08-21T01:40:55.610Z</time>
      </trkpt>
      <trkpt lat="41.88531" lon="33.03234">
        <ele>264.323669</ele>
        <time>2021-08-21T01:40:57.284Z</time>
      </trkpt>
      <trkpt lat="41.88617" lon="33.03006">
        <ele>238.538632</ele>
        <time>2021-08-21T01:41:32.298Z</time>
      </trkpt>
      <trkpt lat="41.88635" lon="33.02934">
        <ele>230.162117</ele>
        <time>2021-08-21T01:41:42.613Z</time>
      </trkpt>
      <trkpt lat="41.8864" lon="33.02891">
        <ele>225.445204</ele>
        <time>2021-08-21T01:41:48.418Z</time>
      </trkpt>
      <trkpt lat="41.88644" lon="33.02857">
        <ele>221.635463</ele>
        <time>2021-08-21T01:41:53.112Z</time>
      </trkpt>
      <trkpt lat="41.88643" lon="33.0277">
        <ele>212.087073</ele>
        <time>2021-08-21T01:42:04.865Z</time>
      </trkpt>
      <trkpt lat="41.88671" lon="33.02722">
        <ele>205.345138</ele>
        <time>2021-08-21T01:42:13.166Z</time>
      </trkpt>
      <trkpt lat="41.88692" lon="33.02636">
        <ele>195.391028</ele>
        <time>2021-08-21T01:42:25.473Z</time>
      </trkpt>
      <trkpt lat="41.88696" lon="33.02602">
        <ele>191.754237</ele>
        <time>2021-08-21T01:42:30.151Z</time>
      </trkpt>
      <trkpt lat="41.88685" lon="33.02478">
        <ele>178.65903</ele>
        <time>2021-08-21T01:42:47.179Z</time>
      </trkpt>
      <trkpt lat="41.88694" lon="33.02414">
        <ele>171.75102</ele>
        <time>2021-08-21T01:42:56.182Z</time>
      </trkpt>
      <trkpt lat="41.88692" lon="33.02353">
        <ele>165.711985</ele>
        <time>2021-08-21T01:43:04.459Z</time>
      </trkpt>
      <trkpt lat="41.88719" lon="33.02172">
        <ele>148.018768</ele>
        <time>2021-08-21T01:43:29.841Z</time>
      </trkpt>
      <trkpt lat="41.8873" lon="33.02136">
        <ele>144.511239</ele>
        <time>2021-08-21T01:43:35.354Z</time>
      </trkpt>
      <trkpt lat="41.88751" lon="33.02004">
        <ele>133.863018</ele>
        <time>2021-08-21T01:43:54.368Z</time>
      </trkpt>
      <trkpt lat="41.88758" lon="33.01921">
        <ele>127.256779</ele>
        <time>2021-08-21T01:44:06.302Z</time>
      </trkpt>
      <trkpt lat="41.88793" lon="33.01753">
        <ele>114.243293</ele>
        <time>2021-08-21T01:44:31.175Z</time>
      </trkpt>
      <trkpt lat="41.88795" lon="33.01616">
        <ele>103.558928</ele>
        <time>2021-08-21T01:44:50.473Z</time>
      </trkpt>
      <trkpt lat="41.8879" lon="33.01514">
        <ele>95.21378</ele>
        <time>2021-08-21T01:45:04.637Z</time>
      </trkpt>
      <trkpt lat="41.88785" lon="33.01487">
        <ele>92.909848</ele>
        <time>2021-08-21T01:45:08.529Z</time>
      </trkpt>
      <trkpt lat="41.88789" lon="33.01391">
        <ele>86.23493</ele>
        <time>2021-08-21T01:45:22.089Z</time>
      </trkpt>
      <trkpt lat="41.88786" lon="33.0129">
        <ele>80.533474</ele>
        <time>2021-08-21T01:45:36.952Z</time>
      </trkpt>
      <trkpt lat="41.88793" lon="33.01267">
        <ele>79.128266</ele>
        <time>2021-08-21T01:45:40.820Z</time>
      </trkpt>
      <trkpt lat="41.88804" lon="33.01243">
        <ele>77.52042</ele>
        <time>2021-08-21T01:45:45.187Z</time>
      </trkpt>
      <trkpt lat="41.8882" lon="33.01223">
        <ele>75.895003</ele>
        <time>2021-08-21T01:45:49.564Z</time>
      </trkpt>
      <trkpt lat="41.88855" lon="33.01195">
        <ele>73.656258</ele>
        <time>2021-08-21T01:45:58.264Z</time>
      </trkpt>
      <trkpt lat="41.88892" lon="33.01167">
        <ele>71.585989</ele>
        <time>2021-08-21T01:46:07.578Z</time>
      </trkpt>
      <trkpt lat="41.88904" lon="33.01155">
        <ele>70.888026</ele>
        <time>2021-08-21T01:46:10.926Z</time>
      </trkpt>
      <trkpt lat="41.88912" lon="33.01134">
        <ele>70.032818</ele>
        <time>2021-08-21T01:46:14.883Z</time>
      </trkpt>
      <trkpt lat="41.8892" lon="33.01117">
        <ele>69.307541</ele>
        <time>2021-08-21T01:46:18.340Z</time>
      </trkpt>
      <trkpt lat="41.88925" lon="33.01109">
        <ele>68.930521</ele>
        <time>2021-08-21T01:46:19.933Z</time>
      </trkpt>
      <trkpt lat="41.88943" lon="33.01086">
        <ele>67.711589</ele>
        <time>2021-08-21T01:46:25.476Z</time>
      </trkpt>
      <trkpt lat="41.89014" lon="33.00959">
        <ele>58.705967</ele>
        <time>2021-08-21T01:46:49.186Z</time>
      </trkpt>
      <trkpt lat="41.89098" lon="33.00796">
        <ele>44.967668</ele>
        <time>2021-08-21T01:47:17.217Z</time>
      </trkpt>
      <trkpt lat="41.89103" lon="33.00746">
        <ele>41.010885</ele>
        <time>2021-08-21T01:47:24.229Z</time>
      </trkpt>
      <trkpt lat="41.89112" lon="33.00729">
        <ele>39.334148</ele>
        <time>2021-08-21T01:47:27.138Z</time>
      </trkpt>
      <trkpt lat="41.89141" lon="33.00694">
        <ele>35.140314</ele>
        <time>2021-08-21T01:47:34.627Z</time>
      </trkpt>
      <trkpt lat="41.89148" lon="33.00678">
        <ele>33.709554</ele>
        <time>2021-08-21T01:47:37.288Z</time>
      </trkpt>
      <trkpt lat="41.8915" lon="33.00641">
        <ele>31.50567</ele>
        <time>2021-08-21T01:47:42.554Z</time>
      </trkpt>
      <trkpt lat="41.89161" lon="33.00556">
        <ele>27.717276</ele>
        <time>2021-08-21T01:47:55.102Z</time>
      </trkpt>
      <trkpt lat="41.89162" lon="33.00523">
        <ele>26.249162</ele>
        <time>2021-08-21T01:48:00.571Z</time>
      </trkpt>
      <trkpt lat="41.89162" lon="33.00479">
        <ele>24.340166</ele>
        <time>2021-08-21T01:48:07.775Z</time>
      </trkpt>
      <trkpt lat="41.89162" lon="33.00439">
        <ele>22.563115</ele>
        <time>2021-08-21T01:48:14.608Z</time>
      </trkpt>
      <trkpt lat="41.89162" lon="33.00428">
        <ele>22.096845</ele>
        <time>2021-08-21T01:48:16.391Z</time>
      </trkpt>
      <trkpt lat="41.89154" lon="33.00378">
        <ele>21.075729</ele>
        <time>2021-08-21T01:48:25.459Z</time>
      </trkpt>
      <trkpt lat="41.89137" lon="33.00325">
        <ele>20.162896</ele>
        <time>2021-08-21T01:48:36.082Z</time>
      </trkpt>
      <trkpt lat="41.89116" lon="33.0026">
        <ele>19.016143</ele>
        <time>2021-08-21T01:48:49.471Z</time>
      </trkpt>
      <trkpt lat="41.89114" lon="33.00232">
        <ele>18.570063</ele>
        <time>2021-08-21T01:48:54.559Z</time>
      </trkpt>
      <trkpt lat="41.89112" lon="33.0017">
        <ele>17.692669</ele>
        <time>2021-08-21T01:49:05.936Z</time>
      </trkpt>
      <trkpt lat="41.89111" lon="33.00139">
        <ele>17.351313</ele>
        <time>2021-08-21T01:49:11.689Z</time>
      </trkpt>
      <trkpt lat="41.89115" lon="33.00108">
        <ele>17.008785</ele>
        <time>2021-08-21T01:49:17.749Z</time>
      </trkpt>
      <trkpt lat="41.89115" lon="33.00099">
        <ele>16.917958</ele>
        <time>2021-08-21T01:49:19.188Z</time>
      </trkpt>
      <trkpt lat="41.89122" lon="33.00043">
        <ele>16.300595</ele>
        <time>2021-08-21T01:49:30.171Z</time>
      </trkpt>
      <trkpt lat="41.89123" lon="32.99983">
        <ele>15.654785</ele>
        <time>2021-08-21T01:49:41.947Z</time>
      </trkpt>
      <trkpt lat="41.89122" lon="32.99979">
        <ele>15.603281</ele>
        <time>2021-08-21T01:49:42.936Z</time>
      </trkpt>
      <trkpt lat="41.89117" lon="32.99951">
        <ele>15.303715</ele>
        <time>2021-08-21T01:49:48.621Z</time>
      </trkpt>
      <trkpt lat="41.89102" lon="32.99914">
        <ele>15.197039</ele>
        <time>2021-08-21T01:49:57.235Z</time>
      </trkpt>
      <trkpt lat="41.89086" lon="32.99874">
        <ele>15.082272</ele>
        <time>2021-08-21T01:50:07.647Z</time>
      </trkpt>
      <trkpt lat="41.89115" lon="32.99762">
        <ele>14.780485</ele>
        <time>2021-08-21T01:50:35.826Z</time>
      </trkpt>
      <trkpt lat="41.89131" lon="32.99684">
        <ele>14.708219</ele>
        <time>2021-08-21T01:50:55.311Z</time>
      </trkpt>
      <trkpt lat="41.89147" lon="32.99638">
        <ele>14.724123</ele>
        <time>2021-08-21T01:51:07.114Z</time>
      </trkpt>
      <trkpt lat="41.89219" lon="32.99441">
        <ele>16.270187</ele>
        <time>2021-08-21T01:52:01.218Z</time>
      </trkpt>
      <trkpt lat="41.89293" lon="32.9928">
        <ele>20.826043</ele>
        <time>2021-08-21T01:53:13.258Z</time>
      </trkpt>
      <trkpt lat="41.89182" lon="32.99232">
        <ele>29.683048</ele>
        <time>2021-08-21T01:54:40.561Z</time>
      </trkpt>
      <trkpt lat="41.89174" lon="32.99217">
        <ele>30.72185</ele>
        <time>2021-08-21T01:54:52.158Z</time>
      </trkpt>
      <trkpt lat="41.89169" lon="32.99181">
        <ele>32.83268</ele>
        <time>2021-08-21T01:55:16.439Z</time>
      </trkpt>
      <trkpt lat="41.89157" lon="32.99164">
        <ele>34.258979</ele>
        <time>2021-08-21T01:55:32.353Z</time>
      </trkpt>
      <trkpt lat="41.89135" lon="32.99151">
        <ele>36.205569</ele>
        <time>2021-08-21T01:55:56.508Z</time>
      </trkpt>
      <trkpt lat="41.89107" lon="32.99146">
        <ele>38.512767</ele>
        <time>2021-08-21T01:56:22.562Z</time>
      </trkpt>
      <trkpt lat="41.89078" lon="32.99126">
        <ele>41.15369</ele>
        <time>2021-08-21T01:56:48.611Z</time>
      </trkpt>
      <trkpt lat="41.89054" lon="32.99089">
        <ele>44.109068</ele>
        <time>2021-08-21T01:57:16.505Z</time>
      </trkpt>
      <trkpt lat="41.89042" lon="32.99049">
        <ele>46.730133</ele>
        <time>2021-08-21T01:57:37.416Z</time>
      </trkpt>
      <trkpt lat="41.89043" lon="32.99038">
        <ele>47.443179</ele>
        <time>2021-08-21T01:57:45.858Z</time>
      </trkpt>
      <trkpt lat="41.89043" lon="32.99031">
        <ele>47.869848</ele>
        <time>2021-08-21T01:57:48.432Z</time>
      </trkpt>
      <trkpt lat="41.89055" lon="32.99">
        <ele>48.318076</ele>
        <time>2021-08-21T01:58:02.928Z</time>
      </trkpt>
      <trkpt lat="41.89072" lon="32.98984">
        <ele>48.60013</ele>
        <time>2021-08-21T01:58:13.387Z</time>
      </trkpt>
      <trkpt lat="41.89113" lon="32.98961">
        <ele>49.206791</ele>
        <time>2021-08-21T01:58:32.519Z</time>
      </trkpt>
      <trkpt lat="41.89122" lon="32.9895">
        <ele>49.371472</ele>
        <time>2021-08-21T01:58:39.148Z</time>
      </trkpt>
      <trkpt lat="41.89143" lon="32.98904">
        <ele>49.92773</ele>
        <time>2021-08-21T01:58:51.099Z</time>
      </trkpt>
      <trkpt lat="41.89189" lon="32.98862">
        <ele>50.097417</ele>
        <time>2021-08-21T01:59:04.537Z</time>
      </trkpt>
      <trkpt lat="41.89218" lon="32.98847">
        <ele>49.459616</ele>
        <time>2021-08-21T01:59:12.740Z</time>
      </trkpt>
      <trkpt lat="41.89238" lon="32.98834">
        <ele>49.021508</ele>
        <time>2021-08-21T01:59:18.590Z</time>
      </trkpt>
      <trkpt lat="41.89277" lon="32.98808">
        <ele>48.15618</ele>
        <time>2021-08-21T01:59:29.941Z</time>
      </trkpt>
      <trkpt lat="41.89283" lon="32.98802">
        <ele>48.005021</ele>
        <time>2021-08-21T01:59:31.733Z</time>
      </trkpt>
      <trkpt lat="41.89291" lon="32.98795">
        <ele>47.814209</ele>
        <time>2021-08-21T01:59:34.115Z</time>
      </trkpt>
      <trkpt lat="41.89294" lon="32.98786">
        <ele>47.679442</ele>
        <time>2021-08-21T01:59:35.810Z</time>
      </trkpt>
      <trkpt lat="41.89295" lon="32.98782">
        <ele>47.60775</ele>
        <time>2021-08-21T01:59:38.201Z</time>
      </trkpt>
      <trkpt lat="41.89293" lon="32.98655">
        <ele>45.476941</ele>
        <time>2021-08-21T02:00:02.492Z</time>
      </trkpt>
      <trkpt lat="41.89277" lon="32.98562">
        <ele>43.748749</ele>
        <time>2021-08-21T02:00:20.789Z</time>
      </trkpt>
      <trkpt lat="41.89254" lon="32.98505">
        <ele>42.581993</ele>
        <time>2021-08-21T02:00:32.595Z</time>
      </trkpt>
      <trkpt lat="41.89254" lon="32.98484">
        <ele>42.152683</ele>
        <time>2021-08-21T02:00:36.049Z</time>
      </trkpt>
      <trkpt lat="41.89238" lon="32.98416">
        <ele>40.637799</ele>
        <time>2021-08-21T02:00:48.769Z</time>
      </trkpt>
      <trkpt lat="41.89223" lon="32.98385">
        <ele>39.83791</ele>
        <time>2021-08-21T02:00:55.118Z</time>
      </trkpt>
      <trkpt lat="41.89182" lon="32.98338">
        <ele>38.307694</ele>
        <time>2021-08-21T02:01:08.223Z</time>
      </trkpt>
      <trkpt lat="41.89161" lon="32.98294">
        <ele>37.32238</ele>
        <time>2021-08-21T02:01:18.235Z</time>
      </trkpt>
      <trkpt lat="41.89155" lon="32.98253">
        <ele>37.110705</ele>
        <time>2021-08-21T02:01:27.477Z</time>
      </trkpt>
      <trkpt lat="41.8915" lon="32.98239">
        <ele>37.03028</ele>
        <time>2021-08-21T02:01:30.572Z</time>
      </trkpt>
      <trkpt lat="41.89116" lon="32.98211">
        <ele>36.752138</ele>
        <time>2021-08-21T02:01:43.512Z</time>
      </trkpt>
      <trkpt lat="41.89081" lon="32.9815">
        <ele>36.359948</ele>
        <time>2021-08-21T02:02:01.385Z</time>
      </trkpt>
      <trkpt lat="41.89055" lon="32.98124">
        <ele>36.135132</ele>
        <time>2021-08-21T02:02:11.449Z</time>
      </trkpt>
      <trkpt lat="41.89018" lon="32.98027">
        <ele>35.031108</ele>
        <time>2021-08-21T02:02:34.612Z</time>
      </trkpt>
      <trkpt lat="41.88998" lon="32.97998">
        <ele>34.623837</ele>
        <time>2021-08-21T02:02:42.419Z</time>
      </trkpt>
      <trkpt lat="41.88989" lon="32.97985">
        <ele>34.447187</ele>
        <time>2021-08-21T02:02:45.777Z</time>
      </trkpt>
      <trkpt lat="41.88967" lon="32.97965">
        <ele>34.081548</ele>
        <time>2021-08-21T02:02:53.016Z</time>
      </trkpt>
      <trkpt lat="41.8896" lon="32.97944">
        <ele>33.840015</ele>
        <time>2021-08-21T02:02:57.521Z</time>
      </trkpt>
      <trkpt lat="41.88946" lon="32.97862">
        <ele>31.665667</ele>
        <time>2021-08-21T02:03:13.792Z</time>
      </trkpt>
      <trkpt lat="41.88929" lon="32.97819">
        <ele>30.190915</ele>
        <time>2021-08-21T02:03:22.029Z</time>
      </trkpt>
      <trkpt lat="41.88914" lon="32.97796">
        <ele>29.26097</ele>
        <time>2021-08-21T02:03:27.106Z</time>
      </trkpt>
      <trkpt lat="41.88889" lon="32.97774">
        <ele>28.0271</ele>
        <time>2021-08-21T02:03:33.709Z</time>
      </trkpt>
      <trkpt lat="41.88877" lon="32.97748">
        <ele>27.090715</ele>
        <time>2021-08-21T02:03:38.867Z</time>
      </trkpt>
      <trkpt lat="41.88943" lon="32.97684">
        <ele>22.350175</ele>
        <time>2021-08-21T02:03:56.341Z</time>
      </trkpt>
      <trkpt lat="41.88987" lon="32.97642">
        <ele>18.903157</ele>
        <time>2021-08-21T02:04:07.715Z</time>
      </trkpt>
      <trkpt lat="41.89026" lon="32.9759">
        <ele>15.413777</ele>
        <time>2021-08-21T02:04:19.047Z</time>
      </trkpt>
      <trkpt lat="41.89061" lon="32.97554">
        <ele>13.501454</ele>
        <time>2021-08-21T02:04:28.743Z</time>
      </trkpt>
      <trkpt lat="41.89132" lon="32.97494">
        <ele>10.502731</ele>
        <time>2021-08-21T02:04:48.006Z</time>
      </trkpt>
      <trkpt lat="41.89175" lon="32.97466">
        <ele>8.766661</ele>
        <time>2021-08-21T02:05:00.125Z</time>
      </trkpt>
      <trkpt lat="41.89043" lon="32.97149">
        <ele>6.725974</ele>
        <time>2021-08-21T02:06:18.196Z</time>
      </trkpt>
      <trkpt lat="41.8903" lon="32.97115">
        <ele>6.598609</ele>
        <time>2021-08-21T02:06:26.685Z</time>
      </trkpt>
      <trkpt lat="41.89006" lon="32.97059">
        <ele>6.383035</ele>
        <time>2021-08-21T02:06:40.780Z</time>
      </trkpt>
      <trkpt lat="41.88966" lon="32.96957">
        <ele>6.059113</ele>
        <time>2021-08-21T02:07:05.313Z</time>
      </trkpt>
      <trkpt lat="41.88952" lon="32.96922">
        <ele>5.956164</ele>
        <time>2021-08-21T02:07:13.751Z</time>
      </trkpt>
      <trkpt lat="41.88906" lon="32.96795">
        <ele>5.669774</ele>
        <time>2021-08-21T02:07:45.302Z</time>
      </trkpt>
      <trkpt lat="41.88881" lon="32.9672">
        <ele>5.810584</ele>
        <time>2021-08-21T02:08:05.206Z</time>
      </trkpt>
      <trkpt lat="41.88851" lon="32.96627">
        <ele>5.985966</ele>
        <time>2021-08-21T02:08:30.486Z</time>
      </trkpt>
      <trkpt lat="41.88825" lon="32.96541">
        <ele>6.04729</ele>
        <time>2021-08-21T02:08:53.441Z</time>
      </trkpt>
      <trkpt lat="41.88777" lon="32.96382">
        <ele>6.021066</ele>
        <time>2021-08-21T02:09:33.029Z</time>
      </trkpt>
      <trkpt lat="41.88728" lon="32.96221">
        <ele>5.529936</ele>
        <time>2021-08-21T02:10:09.753Z</time>
      </trkpt>
      <trkpt lat="41.88683" lon="32.96072">
        <ele>5.341343</ele>
        <time>2021-08-21T02:10:45.563Z</time>
      </trkpt>
      <trkpt lat="41.88646" lon="32.95948">
        <ele>5.479344</ele>
        <time>2021-08-21T02:11:17.914Z</time>
      </trkpt>
      <trkpt lat="41.8863" lon="32.95895">
        <ele>5.610931</ele>
        <time>2021-08-21T02:11:32.525Z</time>
      </trkpt>
      <trkpt lat="41.88586" lon="32.95746">
        <ele>6.235494</ele>
        <time>2021-08-21T02:12:13.970Z</time>
      </trkpt>
      <trkpt lat="41.88566" lon="32.95668">
        <ele>6.455513</ele>
        <time>2021-08-21T02:12:34.535Z</time>
      </trkpt>
      <trkpt lat="41.88556" lon="32.95613">
        <ele>6.454927</ele>
        <time>2021-08-21T02:12:48.208Z</time>
      </trkpt>
      <trkpt lat="41.88532" lon="32.95526">
        <ele>6.453977</ele>
        <time>2021-08-21T02:13:09.589Z</time>
      </trkpt>
      <trkpt lat="41.88523" lon="32.95497">
        <ele>6.453653</ele>
        <time>2021-08-21T02:13:16.580Z</time>
      </trkpt>
      <trkpt lat="41.88488" lon="32.9538">
        <ele>6.442771</ele>
        <time>2021-08-21T02:13:44.099Z</time>
      </trkpt>
      <trkpt lat="41.88451" lon="32.95259">
        <ele>6.427687</ele>
        <time>2021-08-21T02:14:14.228Z</time>
      </trkpt>
      <trkpt lat="41.88419" lon="32.95153">
        <ele>7.779165</ele>
        <time>2021-08-21T02:14:44.367Z</time>
      </trkpt>
      <trkpt lat="41.88406" lon="32.95104">
        <ele>8.517646</ele>
        <time>2021-08-21T02:14:59.942Z</time>
      </trkpt>
      <trkpt lat="41.88366" lon="32.94956">
        <ele>11.428615</ele>
        <time>2021-08-21T02:15:58.932Z</time>
      </trkpt>
      <trkpt lat="41.88349" lon="32.94881">
        <ele>13.366832</ele>
        <time>2021-08-21T02:16:28.966Z</time>
      </trkpt>
      <trkpt lat="41.88345" lon="32.9486">
        <ele>13.902914</ele>
        <time>2021-08-21T02:16:38.214Z</time>
      </trkpt>
      <trkpt lat="41.88328" lon="32.94769">
        <ele>15.959429</ele>
        <time>2021-08-21T02:17:11.734Z</time>
      </trkpt>
      <trkpt lat="41.88295" lon="32.94668">
        <ele>16.909292</ele>
        <time>2021-08-21T02:17:46.268Z</time>
      </trkpt>
      <trkpt lat="41.88284" lon="32.94647">
        <ele>17.120434</ele>
        <time>2021-08-21T02:17:52.634Z</time>
      </trkpt>
      <trkpt lat="41.88274" lon="32.94628">
        <ele>17.329395</ele>
        <time>2021-08-21T02:17:58.073Z</time>
      </trkpt>
      <trkpt lat="41.88109" lon="32.94386">
        <ele>17.731464</ele>
        <time>2021-08-21T02:19:11.417Z</time>
      </trkpt>
      <trkpt lat="41.88024" lon="32.94261">
        <ele>18.337192</ele>
        <time>2021-08-21T02:19:55.066Z</time>
      </trkpt>
      <trkpt lat="41.87983" lon="32.942">
        <ele>18.241453</ele>
        <time>2021-08-21T02:20:16.905Z</time>
      </trkpt>
      <trkpt lat="41.87951" lon="32.94155">
        <ele>17.644961</ele>
        <time>2021-08-21T02:20:31.556Z</time>
      </trkpt>
      <trkpt lat="41.87925" lon="32.9413">
        <ele>17.237262</ele>
        <time>2021-08-21T02:20:40.918Z</time>
      </trkpt>
      <trkpt lat="41.87833" lon="32.94083">
        <ele>15.549583</ele>
        <time>2021-08-21T02:21:03.578Z</time>
      </trkpt>
      <trkpt lat="41.87826" lon="32.94078">
        <ele>15.251434</ele>
        <time>2021-08-21T02:21:05.699Z</time>
      </trkpt>
      <trkpt lat="41.8782" lon="32.94073">
        <ele>14.996479</ele>
        <time>2021-08-21T02:21:07.072Z</time>
      </trkpt>
      <trkpt lat="41.87798" lon="32.94047">
        <ele>13.946172</ele>
        <time>2021-08-21T02:21:13.816Z</time>
      </trkpt>
      <trkpt lat="41.87767" lon="32.93969">
        <ele>11.586362</ele>
        <time>2021-08-21T02:21:28.016Z</time>
      </trkpt>
      <trkpt lat="41.87724" lon="32.93854">
        <ele>9.056824</ele>
        <time>2021-08-21T02:21:49.927Z</time>
      </trkpt>
      <trkpt lat="41.87698" lon="32.93795">
        <ele>8.281571</ele>
        <time>2021-08-21T02:22:02.968Z</time>
      </trkpt>
      <trkpt lat="41.87688" lon="32.93764">
        <ele>7.904924</ele>
        <time>2021-08-21T02:22:09.848Z</time>
      </trkpt>
      <trkpt lat="41.87673" lon="32.93717">
        <ele>7.32847</ele>
        <time>2021-08-21T02:22:20.941Z</time>
      </trkpt>
      <trkpt lat="41.87669" lon="32.93698">
        <ele>7.105794</ele>
        <time>2021-08-21T02:22:25.797Z</time>
      </trkpt>
      <trkpt lat="41.87665" lon="32.93681">
        <ele>7.011052</ele>
        <time>2021-08-21T02:22:29.716Z</time>
      </trkpt>
      <trkpt lat="41.87664" lon="32.93657">
        <ele>7.012301</ele>
        <time>2021-08-21T02:22:35.447Z</time>
      </trkpt>
      <trkpt lat="41.87677" lon="32.93562">
        <ele>7.017486</ele>
        <time>2021-08-21T02:22:57.560Z</time>
      </trkpt>
      <trkpt lat="41.87715" lon="32.9337">
        <ele>7.415696</ele>
        <time>2021-08-21T02:23:44.814Z</time>
      </trkpt>
      <trkpt lat="41.87738" lon="32.93251">
        <ele>7.971947</ele>
        <time>2021-08-21T02:24:17.652Z</time>
      </trkpt>
      <trkpt lat="41.87754" lon="32.93168">
        <ele>8.555528</ele>
        <time>2021-08-21T02:24:41.336Z</time>
      </trkpt>
      <trkpt lat="41.8777" lon="32.93089">
        <ele>9.226317</ele>
        <time>2021-08-21T02:25:04.477Z</time>
      </trkpt>
      <trkpt lat="41.87779" lon="32.93043">
        <ele>9.612781</ele>
        <time>2021-08-21T02:25:17.459Z</time>
      </trkpt>
      <trkpt lat="41.87784" lon="32.92983">
        <ele>10.111025</ele>
        <time>2021-08-21T02:25:34.055Z</time>
      </trkpt>
      <trkpt lat="41.8778" lon="32.92916">
        <ele>10.689681</ele>
        <time>2021-08-21T02:25:52.717Z</time>
      </trkpt>
      <trkpt lat="41.87759" lon="32.92812">
        <ele>11.617136</ele>
        <time>2021-08-21T02:26:24.560Z</time>
      </trkpt>
      <trkpt lat="41.87728" lon="32.92716">
        <ele>12.081073</ele>
        <time>2021-08-21T02:26:53.052Z</time>
      </trkpt>
      <trkpt lat="41.87716" lon="32.92679">
        <ele>11.992564</ele>
        <time>2021-08-21T02:27:02.907Z</time>
      </trkpt>
      <trkpt lat="41.8764" lon="32.92498">
        <ele>11.194649</ele>
        <time>2021-08-21T02:27:45.675Z</time>
      </trkpt>
      <trkpt lat="41.87541" lon="32.92138">
        <ele>7.477199</ele>
        <time>2021-08-21T02:28:59.743Z</time>
      </trkpt>
      <trkpt lat="41.87529" lon="32.92097">
        <ele>7.047151</ele>
        <time>2021-08-21T02:29:08.504Z</time>
      </trkpt>
      <trkpt lat="41.87523" lon="32.92074">
        <ele>6.917469</ele>
        <time>2021-08-21T02:29:13.378Z</time>
      </trkpt>
      <trkpt lat="41.87496" lon="32.91978">
        <ele>6.590949</ele>
        <time>2021-08-21T02:29:35.127Z</time>
      </trkpt>
      <trkpt lat="41.8747" lon="32.91885">
        <ele>6.273832</ele>
        <time>2021-08-21T02:29:57.428Z</time>
      </trkpt>
      <trkpt lat="41.87454" lon="32.9183">
        <ele>6.225168</ele>
        <time>2021-08-21T02:30:11.403Z</time>
      </trkpt>
      <trkpt lat="41.87393" lon="32.91611">
        <ele>6.384103</ele>
        <time>2021-08-21T02:31:06.958Z</time>
      </trkpt>
      <trkpt lat="41.8735" lon="32.91455">
        <ele>6.458332</ele>
        <time>2021-08-21T02:31:46.007Z</time>
      </trkpt>
      <trkpt lat="41.87338" lon="32.91418">
        <ele>6.476334</ele>
        <time>2021-08-21T02:31:55.412Z</time>
      </trkpt>
      <trkpt lat="41.87317" lon="32.91351">
        <ele>6.405338</ele>
        <time>2021-08-21T02:32:12.215Z</time>
      </trkpt>
      <trkpt lat="41.87291" lon="32.91266">
        <ele>6.301279</ele>
        <time>2021-08-21T02:32:32.719Z</time>
      </trkpt>
      <trkpt lat="41.87215" lon="32.91026">
        <ele>6.426839</ele>
        <time>2021-08-21T02:33:31.857Z</time>
      </trkpt>
      <trkpt lat="41.87178" lon="32.90901">
        <ele>7.154743</ele>
        <time>2021-08-21T02:34:08.276Z</time>
      </trkpt>
      <trkpt lat="41.8717" lon="32.90876">
        <ele>7.402255</ele>
        <time>2021-08-21T02:34:15.923Z</time>
      </trkpt>
      <trkpt lat="41.87143" lon="32.90784">
        <ele>8.308875</ele>
        <time>2021-08-21T02:34:45.406Z</time>
      </trkpt>
      <trkpt lat="41.87117" lon="32.90698">
        <ele>9.38263</ele>
        <time>2021-08-21T02:35:11.331Z</time>
      </trkpt>
      <trkpt lat="41.87104" lon="32.90655">
        <ele>10.017198</ele>
        <time>2021-08-21T02:35:24.750Z</time>
      </trkpt>
      <trkpt lat="41.87101" lon="32.90643">
        <ele>10.186567</ele>
        <time>2021-08-21T02:35:28.479Z</time>
      </trkpt>
      <trkpt lat="41.87088" lon="32.90595">
        <ele>10.880601</ele>
        <time>2021-08-21T02:35:43.911Z</time>
      </trkpt>
      <trkpt lat="41.8707" lon="32.90528">
        <ele>11.854961</ele>
        <time>2021-08-21T02:36:06.454Z</time>
      </trkpt>
      <trkpt lat="41.87003" lon="32.90278">
        <ele>17.576067</ele>
        <time>2021-08-21T02:37:43.988Z</time>
      </trkpt>
      <trkpt lat="41.86987" lon="32.9022">
        <ele>18.157962</ele>
        <time>2021-08-21T02:38:05.863Z</time>
      </trkpt>
      <trkpt lat="41.86907" lon="32.89954">
        <ele>18.586282</ele>
        <time>2021-08-21T02:39:17.667Z</time>
      </trkpt>
      <trkpt lat="41.8669" lon="32.8919">
        <ele>11.091182</ele>
        <time>2021-08-21T02:41:52.596Z</time>
      </trkpt>
      <trkpt lat="41.86683" lon="32.89164">
        <ele>10.872886</ele>
        <time>2021-08-21T02:41:58.456Z</time>
      </trkpt>
      <trkpt lat="41.86623" lon="32.88947">
        <ele>14.674897</ele>
        <time>2021-08-21T02:43:13.303Z</time>
      </trkpt>
      <trkpt lat="41.86594" lon="32.88792">
        <ele>21.048478</ele>
        <time>2021-08-21T02:44:26.113Z</time>
      </trkpt>
      <trkpt lat="41.86596" lon="32.8863">
        <ele>29.030703</ele>
        <time>2021-08-21T02:45:49.453Z</time>
      </trkpt>
      <trkpt lat="41.86597" lon="32.88595">
        <ele>31.115606</ele>
        <time>2021-08-21T02:46:08.924Z</time>
      </trkpt>
      <trkpt lat="41.86598" lon="32.885">
        <ele>36.820609</ele>
        <time>2021-08-21T02:47:04.840Z</time>
      </trkpt>
      <trkpt lat="41.86599" lon="32.88405">
        <ele>44.139585</ele>
        <time>2021-08-21T02:48:02.524Z</time>
      </trkpt>
      <trkpt lat="41.86599" lon="32.88381">
        <ele>46.332801</ele>
        <time>2021-08-21T02:48:16.781Z</time>
      </trkpt>
      <trkpt lat="41.86596" lon="32.8835">
        <ele>49.200887</ele>
        <time>2021-08-21T02:48:39.564Z</time>
      </trkpt>
      <trkpt lat="41.86602" lon="32.88327">
        <ele>51.411012</ele>
        <time>2021-08-21T02:48:56.781Z</time>
      </trkpt>
      <trkpt lat="41.8662" lon="32.88271">
        <ele>57.059161</ele>
        <time>2021-08-21T02:49:47.702Z</time>
      </trkpt>
      <trkpt lat="41.86625" lon="32.88249">
        <ele>59.149799</ele>
        <time>2021-08-21T02:50:06.371Z</time>
      </trkpt>
      <trkpt lat="41.86626" lon="32.88236">
        <ele>60.35299</ele>
        <time>2021-08-21T02:50:18.633Z</time>
      </trkpt>
      <trkpt lat="41.86644" lon="32.88063">
        <ele>79.696267</ele>
        <time>2021-08-21T02:52:58.760Z</time>
      </trkpt>
      <trkpt lat="41.86648" lon="32.88018">
        <ele>84.79648</ele>
        <time>2021-08-21T02:53:39.972Z</time>
      </trkpt>
      <trkpt lat="41.86638" lon="32.87894">
        <ele>92.552537</ele>
        <time>2021-08-21T02:55:08.933Z</time>
      </trkpt>
      <trkpt lat="41.86648" lon="32.87763">
        <ele>98.15677</ele>
        <time>2021-08-21T02:55:56.699Z</time>
      </trkpt>
      <trkpt lat="41.86701" lon="32.87502">
        <ele>97.801856</ele>
        <time>2021-08-21T02:56:46.497Z</time>
      </trkpt>
      <trkpt lat="41.86696" lon="32.87453">
        <ele>100.359136</ele>
        <time>2021-08-21T02:57:04.276Z</time>
      </trkpt>
      <trkpt lat="41.8668" lon="32.87395">
        <ele>103.485822</ele>
        <time>2021-08-21T02:57:33.141Z</time>
      </trkpt>
      <trkpt lat="41.86578" lon="32.87219">
        <ele>117.702382</ele>
        <time>2021-08-21T03:00:07.000Z</time>
      </trkpt>
      <trkpt lat="41.86567" lon="32.87208">
        <ele>119.155135</ele>
        <time>2021-08-21T03:00:20.830Z</time>
      </trkpt>
      <trkpt lat="41.86545" lon="32.87199">
        <ele>121.592668</ele>
        <time>2021-08-21T03:00:43.515Z</time>
      </trkpt>
      <trkpt lat="41.86491" lon="32.87194">
        <ele>127.210943</ele>
        <time>2021-08-21T03:01:32.192Z</time>
      </trkpt>
      <trkpt lat="41.86468" lon="32.87169">
        <ele>129.166529</ele>
        <time>2021-08-21T03:01:55.642Z</time>
      </trkpt>
      <trkpt lat="41.86464" lon="32.87144">
        <ele>129.820973</ele>
        <time>2021-08-21T03:02:09.857Z</time>
      </trkpt>
      <trkpt lat="41.86476" lon="32.87072">
        <ele>131.651775</ele>
        <time>2021-08-21T03:02:43.495Z</time>
      </trkpt>
      <trkpt lat="41.86473" lon="32.87047">
        <ele>132.282498</ele>
        <time>2021-08-21T03:02:53.654Z</time>
      </trkpt>
      <trkpt lat="41.86393" lon="32.86771">
        <ele>130.720125</ele>
        <time>2021-08-21T03:03:49.836Z</time>
      </trkpt>
      <trkpt lat="41.86346" lon="32.86696">
        <ele>126.979999</ele>
        <time>2021-08-21T03:04:04.764Z</time>
      </trkpt>
      <trkpt lat="41.86297" lon="32.8665">
        <ele>122.878179</ele>
        <time>2021-08-21T03:04:16.674Z</time>
      </trkpt>
      <trkpt lat="41.86233" lon="32.86643">
        <ele>118.420886</ele>
        <time>2021-08-21T03:04:29.534Z</time>
      </trkpt>
      <trkpt lat="41.862" lon="32.86651">
        <ele>115.977012</ele>
        <time>2021-08-21T03:04:36.061Z</time>
      </trkpt>
      <trkpt lat="41.8616" lon="32.86705">
        <ele>111.589269</ele>
        <time>2021-08-21T03:04:46.931Z</time>
      </trkpt>
      <trkpt lat="41.86142" lon="32.86712">
        <ele>110.100952</ele>
        <time>2021-08-21T03:04:50.711Z</time>
      </trkpt>
      <trkpt lat="41.86125" lon="32.86704">
        <ele>108.660663</ele>
        <time>2021-08-21T03:04:54.310Z</time>
      </trkpt>
      <trkpt lat="41.86096" lon="32.86655">
        <ele>105.101361</ele>
        <time>2021-08-21T03:05:03.516Z</time>
      </trkpt>
      <trkpt lat="41.86085" lon="32.86635">
        <ele>103.622977</ele>
        <time>2021-08-21T03:05:07.189Z</time>
      </trkpt>
      <trkpt lat="41.86024" lon="32.86564">
        <ele>101.367781</ele>
        <time>2021-08-21T03:05:24.267Z</time>
      </trkpt>
      <trkpt lat="41.86" lon="32.86547">
        <ele>100.616591</ele>
        <time>2021-08-21T03:05:30.107Z</time>
      </trkpt>
      <trkpt lat="41.85977" lon="32.8654">
        <ele>99.955158</ele>
        <time>2021-08-21T03:05:36.587Z</time>
      </trkpt>
      <trkpt lat="41.85966" lon="32.86543">
        <ele>99.656499</ele>
        <time>2021-08-21T03:05:38.890Z</time>
      </trkpt>
      <trkpt lat="41.85912" lon="32.86608">
        <ele>99.861399</ele>
        <time>2021-08-21T03:06:11.812Z</time>
      </trkpt>
      <trkpt lat="41.85892" lon="32.86614">
        <ele>100.633967</ele>
        <time>2021-08-21T03:06:23.283Z</time>
      </trkpt>
      <trkpt lat="41.85879" lon="32.86601">
        <ele>101.250809</ele>
        <time>2021-08-21T03:06:32.409Z</time>
      </trkpt>
      <trkpt lat="41.85855" lon="32.86489">
        <ele>104.467182</ele>
        <time>2021-08-21T03:07:20.986Z</time>
      </trkpt>
      <trkpt lat="41.85848" lon="32.86413">
        <ele>106.784942</ele>
        <time>2021-08-21T03:07:52.532Z</time>
      </trkpt>
      <trkpt lat="41.85852" lon="32.86346">
        <ele>108.909238</ele>
        <time>2021-08-21T03:08:19.830Z</time>
      </trkpt>
      <trkpt lat="41.85849" lon="32.86309">
        <ele>110.121154</ele>
        <time>2021-08-21T03:08:35.414Z</time>
      </trkpt>
      <trkpt lat="41.85832" lon="32.86244">
        <ele>112.301347</ele>
        <time>2021-08-21T03:09:03.014Z</time>
      </trkpt>
      <trkpt lat="41.85791" lon="32.86022">
        <ele>117.93357</ele>
        <time>2021-08-21T03:10:39.216Z</time>
      </trkpt>
      <trkpt lat="41.85771" lon="32.85886">
        <ele>113.460419</ele>
        <time>2021-08-21T03:11:05.485Z</time>
      </trkpt>
      <trkpt lat="41.85751" lon="32.85818">
        <ele>109.750373</ele>
        <time>2021-08-21T03:11:16.245Z</time>
      </trkpt>
      <trkpt lat="41.85748" lon="32.85803">
        <ele>108.95922</ele>
        <time>2021-08-21T03:11:18.901Z</time>
      </trkpt>
      <trkpt lat="41.85747" lon="32.85788">
        <ele>108.22498</ele>
        <time>2021-08-21T03:11:20.821Z</time>
      </trkpt>
      <trkpt lat="41.85818" lon="32.85519">
        <ele>79.445701</ele>
        <time>2021-08-21T03:11:59.488Z</time>
      </trkpt>
      <trkpt lat="41.8585" lon="32.85446">
        <ele>73.817146</ele>
        <time>2021-08-21T03:12:11.429Z</time>
      </trkpt>
      <trkpt lat="41.85852" lon="32.8544">
        <ele>73.372279</ele>
        <time>2021-08-21T03:12:12.310Z</time>
      </trkpt>
      <trkpt lat="41.85856" lon="32.85428">
        <ele>72.554079</ele>
        <time>2021-08-21T03:12:14.141Z</time>
      </trkpt>
      <trkpt lat="41.85862" lon="32.85263">
        <ele>63.793353</ele>
        <time>2021-08-21T03:12:39.671Z</time>
      </trkpt>
      <trkpt lat="41.85868" lon="32.85244">
        <ele>63.607882</ele>
        <time>2021-08-21T03:12:42.739Z</time>
      </trkpt>
      <trkpt lat="41.85912" lon="32.85157">
        <ele>62.638805</ele>
        <time>2021-08-21T03:13:08.308Z</time>
      </trkpt>
      <trkpt lat="41.85921" lon="32.85102">
        <ele>62.127341</ele>
        <time>2021-08-21T03:13:23.725Z</time>
      </trkpt>
      <trkpt lat="41.85889" lon="32.84943">
        <ele>62.265263</ele>
        <time>2021-08-21T03:14:09.023Z</time>
      </trkpt>
      <trkpt lat="41.85865" lon="32.84696">
        <ele>62.088666</ele>
        <time>2021-08-21T03:15:01.116Z</time>
      </trkpt>
      <trkpt lat="41.85866" lon="32.84655">
        <ele>61.984458</ele>
        <time>2021-08-21T03:15:09.349Z</time>
      </trkpt>
      <trkpt lat="41.85876" lon="32.84624">
        <ele>61.895257</ele>
        <time>2021-08-21T03:15:17.125Z</time>
      </trkpt>
      <trkpt lat="41.85927" lon="32.84567">
        <ele>63.65996</ele>
        <time>2021-08-21T03:15:42.732Z</time>
      </trkpt>
      <trkpt lat="41.85949" lon="32.84522">
        <ele>64.933595</ele>
        <time>2021-08-21T03:16:01.444Z</time>
      </trkpt>
      <trkpt lat="41.85968" lon="32.84331">
        <ele>70.645081</ele>
        <time>2021-08-21T03:17:27.489Z</time>
      </trkpt>
      <trkpt lat="41.85941" lon="32.84131">
        <ele>77.835737</ele>
        <time>2021-08-21T03:18:58.436Z</time>
      </trkpt>
      <trkpt lat="41.85941" lon="32.84108">
        <ele>78.45497</ele>
        <time>2021-08-21T03:19:07.010Z</time>
      </trkpt>
      <trkpt lat="41.8596" lon="32.8395">
        <ele>82.771718</ele>
        <time>2021-08-21T03:20:03.938Z</time>
      </trkpt>
      <trkpt lat="41.85944" lon="32.83853">
        <ele>86.135991</ele>
        <time>2021-08-21T03:20:42.460Z</time>
      </trkpt>
      <trkpt lat="41.85927" lon="32.83798">
        <ele>88.257788</ele>
        <time>2021-08-21T03:21:07.296Z</time>
      </trkpt>
      <trkpt lat="41.8592" lon="32.83782">
        <ele>88.903033</ele>
        <time>2021-08-21T03:21:15.843Z</time>
      </trkpt>
      <trkpt lat="41.85905" lon="32.83751">
        <ele>90.200326</ele>
        <time>2021-08-21T03:21:32.673Z</time>
      </trkpt>
      <trkpt lat="41.85883" lon="32.83689">
        <ele>93.029818</ele>
        <time>2021-08-21T03:22:06.606Z</time>
      </trkpt>
      <trkpt lat="41.85877" lon="32.83653">
        <ele>94.903028</ele>
        <time>2021-08-21T03:22:25.704Z</time>
      </trkpt>
      <trkpt lat="41.85876" lon="32.83563">
        <ele>99.44976</ele>
        <time>2021-08-21T03:23:13.834Z</time>
      </trkpt>
      <trkpt lat="41.85868" lon="32.83532">
        <ele>101.179818</ele>
        <time>2021-08-21T03:23:31.017Z</time>
      </trkpt>
      <trkpt lat="41.85851" lon="32.83502">
        <ele>103.080583</ele>
        <time>2021-08-21T03:23:50.435Z</time>
      </trkpt>
      <trkpt lat="41.85822" lon="32.83471">
        <ele>105.376806</ele>
        <time>2021-08-21T03:24:16.584Z</time>
      </trkpt>
      <trkpt lat="41.85791" lon="32.83425">
        <ele>108.174937</ele>
        <time>2021-08-21T03:24:48.966Z</time>
      </trkpt>
      <trkpt lat="41.8579" lon="32.83342">
        <ele>111.826787</ele>
        <time>2021-08-21T03:25:28.036Z</time>
      </trkpt>
      <trkpt lat="41.85808" lon="32.83305">
        <ele>113.803125</ele>
        <time>2021-08-21T03:25:47.569Z</time>
      </trkpt>
      <trkpt lat="41.85809" lon="32.83293">
        <ele>114.378158</ele>
        <time>2021-08-21T03:25:53.340Z</time>
      </trkpt>
      <trkpt lat="41.85776" lon="32.83218">
        <ele>117.597001</ele>
        <time>2021-08-21T03:26:31.317Z</time>
      </trkpt>
      <trkpt lat="41.8577" lon="32.83127">
        <ele>120.901504</ele>
        <time>2021-08-21T03:27:09.563Z</time>
      </trkpt>
      <trkpt lat="41.85785" lon="32.83042">
        <ele>124.290386</ele>
        <time>2021-08-21T03:27:46.963Z</time>
      </trkpt>
      <trkpt lat="41.85798" lon="32.83003">
        <ele>126.513414</ele>
        <time>2021-08-21T03:28:07.039Z</time>
      </trkpt>
      <trkpt lat="41.85796" lon="32.82995">
        <ele>126.957381</ele>
        <time>2021-08-21T03:28:11.232Z</time>
      </trkpt>
      <trkpt lat="41.85786" lon="32.82984">
        <ele>127.876387</ele>
        <time>2021-08-21T03:28:20.160Z</time>
      </trkpt>
      <trkpt lat="41.85762" lon="32.8297">
        <ele>129.705696</ele>
        <time>2021-08-21T03:28:38.164Z</time>
      </trkpt>
      <trkpt lat="41.85754" lon="32.82954">
        <ele>130.677167</ele>
        <time>2021-08-21T03:28:48.290Z</time>
      </trkpt>
      <trkpt lat="41.85752" lon="32.82938">
        <ele>131.54645</ele>
        <time>2021-08-21T03:28:57.318Z</time>
      </trkpt>
      <trkpt lat="41.85758" lon="32.82907">
        <ele>133.220726</ele>
        <time>2021-08-21T03:29:15.363Z</time>
      </trkpt>
      <trkpt lat="41.85758" lon="32.82888">
        <ele>134.216252</ele>
        <time>2021-08-21T03:29:26.033Z</time>
      </trkpt>
      <trkpt lat="41.85753" lon="32.82873">
        <ele>135.104775</ele>
        <time>2021-08-21T03:29:35.990Z</time>
      </trkpt>
      <trkpt lat="41.85682" lon="32.82765">
        <ele>144.572494</ele>
        <time>2021-08-21T03:31:02.537Z</time>
      </trkpt>
      <trkpt lat="41.85661" lon="32.82704">
        <ele>149.181867</ele>
        <time>2021-08-21T03:31:45.012Z</time>
      </trkpt>
      <trkpt lat="41.85618" lon="32.82635">
        <ele>155.511776</ele>
        <time>2021-08-21T03:32:42.408Z</time>
      </trkpt>
      <trkpt lat="41.85593" lon="32.82608">
        <ele>158.561315</ele>
        <time>2021-08-21T03:33:09.511Z</time>
      </trkpt>
      <trkpt lat="41.85561" lon="32.82594">
        <ele>161.85767</ele>
        <time>2021-08-21T03:33:38.943Z</time>
      </trkpt>
      <trkpt lat="41.85433" lon="32.8259">
        <ele>173.563893</ele>
        <time>2021-08-21T03:35:27.340Z</time>
      </trkpt>
      <trkpt lat="41.85416" lon="32.82585">
        <ele>175.062064</ele>
        <time>2021-08-21T03:35:42.191Z</time>
      </trkpt>
      <trkpt lat="41.85383" lon="32.82555">
        <ele>178.378858</ele>
        <time>2021-08-21T03:36:14.037Z</time>
      </trkpt>
      <trkpt lat="41.85368" lon="32.8252">
        <ele>180.884514</ele>
        <time>2021-08-21T03:36:37.160Z</time>
      </trkpt>
      <trkpt lat="41.85348" lon="32.82421">
        <ele>186.343848</ele>
        <time>2021-08-21T03:37:31.297Z</time>
      </trkpt>
      <trkpt lat="41.85311" lon="32.8233">
        <ele>190.264948</ele>
        <time>2021-08-21T03:38:19.169Z</time>
      </trkpt>
      <trkpt lat="41.85302" lon="32.82246">
        <ele>193.463721</ele>
        <time>2021-08-21T03:38:53.420Z</time>
      </trkpt>
      <trkpt lat="41.85271" lon="32.82204">
        <ele>194.743968</ele>
        <time>2021-08-21T03:39:14.899Z</time>
      </trkpt>
      <trkpt lat="41.85221" lon="32.82083">
        <ele>196.906655</ele>
        <time>2021-08-21T03:39:59.130Z</time>
      </trkpt>
      <trkpt lat="41.85137" lon="32.81978">
        <ele>198.313942</ele>
        <time>2021-08-21T03:40:40.856Z</time>
      </trkpt>
      <trkpt lat="41.85115" lon="32.81931">
        <ele>198.583039</ele>
        <time>2021-08-21T03:40:54.738Z</time>
      </trkpt>
      <trkpt lat="41.85103" lon="32.81918">
        <ele>198.683469</ele>
        <time>2021-08-21T03:40:59.801Z</time>
      </trkpt>
      <trkpt lat="41.85024" lon="32.81866">
        <ele>199.39131</ele>
        <time>2021-08-21T03:41:28.946Z</time>
      </trkpt>
      <trkpt lat="41.84954" lon="32.81732">
        <ele>200.662535</ele>
        <time>2021-08-21T03:42:13.851Z</time>
      </trkpt>
      <trkpt lat="41.84952" lon="32.81669">
        <ele>201.36204</ele>
        <time>2021-08-21T03:42:33.069Z</time>
      </trkpt>
      <trkpt lat="41.84957" lon="32.81632">
        <ele>201.916046</ele>
        <time>2021-08-21T03:42:45.050Z</time>
      </trkpt>
      <trkpt lat="41.84977" lon="32.81571">
        <ele>202.909769</ele>
        <time>2021-08-21T03:43:07.419Z</time>
      </trkpt>
      <trkpt lat="41.84975" lon="32.81528">
        <ele>203.539025</ele>
        <time>2021-08-21T03:43:21.635Z</time>
      </trkpt>
      <trkpt lat="41.84969" lon="32.81503">
        <ele>203.917718</ele>
        <time>2021-08-21T03:43:30.079Z</time>
      </trkpt>
      <trkpt lat="41.84935" lon="32.81426">
        <ele>204.009465</ele>
        <time>2021-08-21T03:43:57.207Z</time>
      </trkpt>
      <trkpt lat="41.84927" lon="32.81372">
        <ele>203.537741</ele>
        <time>2021-08-21T03:44:10.602Z</time>
      </trkpt>
      <trkpt lat="41.84882" lon="32.81282">
        <ele>202.613093</ele>
        <time>2021-08-21T03:44:30.413Z</time>
      </trkpt>
      <trkpt lat="41.84871" lon="32.81236">
        <ele>201.224877</ele>
        <time>2021-08-21T03:44:38.307Z</time>
      </trkpt>
      <trkpt lat="41.84868" lon="32.81205">
        <ele>199.664534</ele>
        <time>2021-08-21T03:44:43.153Z</time>
      </trkpt>
      <trkpt lat="41.84873" lon="32.81193">
        <ele>198.95511</ele>
        <time>2021-08-21T03:44:45.311Z</time>
      </trkpt>
      <trkpt lat="41.84896" lon="32.81179">
        <ele>197.259687</ele>
        <time>2021-08-21T03:44:50.401Z</time>
      </trkpt>
      <trkpt lat="41.84922" lon="32.81172">
        <ele>195.512879</ele>
        <time>2021-08-21T03:44:55.539Z</time>
      </trkpt>
      <trkpt lat="41.84947" lon="32.8115">
        <ele>193.487749</ele>
        <time>2021-08-21T03:45:01.434Z</time>
      </trkpt>
      <trkpt lat="41.84993" lon="32.8115">
        <ele>190.360415</ele>
        <time>2021-08-21T03:45:10.431Z</time>
      </trkpt>
      <trkpt lat="41.85024" lon="32.81128">
        <ele>187.470157</ele>
        <time>2021-08-21T03:45:17.120Z</time>
      </trkpt>
      <trkpt lat="41.85052" lon="32.81096">
        <ele>184.32393</ele>
        <time>2021-08-21T03:45:24.335Z</time>
      </trkpt>
      <trkpt lat="41.85058" lon="32.81073">
        <ele>182.782784</ele>
        <time>2021-08-21T03:45:27.901Z</time>
      </trkpt>
      <trkpt lat="41.85072" lon="32.8095">
        <ele>174.99852</ele>
        <time>2021-08-21T03:45:45.952Z</time>
      </trkpt>
      <trkpt lat="41.85078" lon="32.80932">
        <ele>173.833535</ele>
        <time>2021-08-21T03:45:48.890Z</time>
      </trkpt>
      <trkpt lat="41.85128" lon="32.80885">
        <ele>169.068792</ele>
        <time>2021-08-21T03:46:00.924Z</time>
      </trkpt>
      <trkpt lat="41.85165" lon="32.80801">
        <ele>163.423933</ele>
        <time>2021-08-21T03:46:15.265Z</time>
      </trkpt>
      <trkpt lat="41.85225" lon="32.80724">
        <ele>156.555705</ele>
        <time>2021-08-21T03:46:31.704Z</time>
      </trkpt>
      <trkpt lat="41.85247" lon="32.80711">
        <ele>154.453349</ele>
        <time>2021-08-21T03:46:36.544Z</time>
      </trkpt>
      <trkpt lat="41.85283" lon="32.80634">
        <ele>148.705481</ele>
        <time>2021-08-21T03:46:49.678Z</time>
      </trkpt>
      <trkpt lat="41.85272" lon="32.80553">
        <ele>142.84606</ele>
        <time>2021-08-21T03:47:01.421Z</time>
      </trkpt>
      <trkpt lat="41.8528" lon="32.80513">
        <ele>139.388307</ele>
        <time>2021-08-21T03:47:07.363Z</time>
      </trkpt>
      <trkpt lat="41.85327" lon="32.80364">
        <ele>126.09944</ele>
        <time>2021-08-21T03:47:29.920Z</time>
      </trkpt>
      <trkpt lat="41.85386" lon="32.80303">
        <ele>116.554062</ele>
        <time>2021-08-21T03:47:43.783Z</time>
      </trkpt>
      <trkpt lat="41.85513" lon="32.80306">
        <ele>100.934676</ele>
        <time>2021-08-21T03:48:06.973Z</time>
      </trkpt>
      <trkpt lat="41.8553" lon="32.80306">
        <ele>99.238505</ele>
        <time>2021-08-21T03:48:10.182Z</time>
      </trkpt>
      <trkpt lat="41.85554" lon="32.80306">
        <ele>96.922019</ele>
        <time>2021-08-21T03:48:14.651Z</time>
      </trkpt>
      <trkpt lat="41.85583" lon="32.80311">
        <ele>94.077599</ele>
        <time>2021-08-21T03:48:20.230Z</time>
      </trkpt>
      <trkpt lat="41.8561" lon="32.8033">
        <ele>91.140129</ele>
        <time>2021-08-21T03:48:26.023Z</time>
      </trkpt>
      <trkpt lat="41.85634" lon="32.80351">
        <ele>88.379889</ele>
        <time>2021-08-21T03:48:31.499Z</time>
      </trkpt>
      <trkpt lat="41.85639" lon="32.80337">
        <ele>87.218044</ele>
        <time>2021-08-21T03:48:33.950Z</time>
      </trkpt>
      <trkpt lat="41.85667" lon="32.80193">
        <ele>82.691133</ele>
        <time>2021-08-21T03:48:57.774Z</time>
      </trkpt>
      <trkpt lat="41.85681" lon="32.80146">
        <ele>81.600215</ele>
        <time>2021-08-21T03:49:07.471Z</time>
      </trkpt>
      <trkpt lat="41.85741" lon="32.7995">
        <ele>80.479413</ele>
        <time>2021-08-21T03:49:58.000Z</time>
      </trkpt>
      <trkpt lat="41.85809" lon="32.79759">
        <ele>81.276529</ele>
        <time>2021-08-21T03:50:53.187Z</time>
      </trkpt>
      <trkpt lat="41.85814" lon="32.79507">
        <ele>82.109427</ele>
        <time>2021-08-21T03:51:58.722Z</time>
      </trkpt>
      <trkpt lat="41.85812" lon="32.7942">
        <ele>82.250101</ele>
        <time>2021-08-21T03:52:18.388Z</time>
      </trkpt>
      <trkpt lat="41.85822" lon="32.79306">
        <ele>82.133379</ele>
        <time>2021-08-21T03:52:43.324Z</time>
      </trkpt>
      <trkpt lat="41.85818" lon="32.79095">
        <ele>81.212593</ele>
        <time>2021-08-21T03:53:31.166Z</time>
      </trkpt>
      <trkpt lat="41.85799" lon="32.78986">
        <ele>79.94509</ele>
        <time>2021-08-21T03:53:53.734Z</time>
      </trkpt>
      <trkpt lat="41.85796" lon="32.78921">
        <ele>79.208646</ele>
        <time>2021-08-21T03:54:05.492Z</time>
      </trkpt>
      <trkpt lat="41.85821" lon="32.78675">
        <ele>71.338463</ele>
        <time>2021-08-21T03:54:45.404Z</time>
      </trkpt>
      <trkpt lat="41.85822" lon="32.78587">
        <ele>68.313626</ele>
        <time>2021-08-21T03:54:59.043Z</time>
      </trkpt>
      <trkpt lat="41.85852" lon="32.784">
        <ele>62.598494</ele>
        <time>2021-08-21T03:55:29.739Z</time>
      </trkpt>
      <trkpt lat="41.85849" lon="32.78235">
        <ele>61.285417</ele>
        <time>2021-08-21T03:56:02.204Z</time>
      </trkpt>
      <trkpt lat="41.85846" lon="32.78216">
        <ele>61.132856</ele>
        <time>2021-08-21T03:56:08.005Z</time>
      </trkpt>
      <trkpt lat="41.85831" lon="32.78171">
        <ele>61.769499</ele>
        <time>2021-08-21T03:56:22.942Z</time>
      </trkpt>
      <trkpt lat="41.85771" lon="32.7805">
        <ele>66.37279</ele>
        <time>2021-08-21T03:57:21.575Z</time>
      </trkpt>
      <trkpt lat="41.85653" lon="32.77893">
        <ele>76.607454</ele>
        <time>2021-08-21T03:59:13.767Z</time>
      </trkpt>
      <trkpt lat="41.85598" lon="32.77866">
        <ele>80.715122</ele>
        <time>2021-08-21T03:59:57.519Z</time>
      </trkpt>
      <trkpt lat="41.85511" lon="32.77781">
        <ele>90.270198</ele>
        <time>2021-08-21T04:01:23.039Z</time>
      </trkpt>
      <trkpt lat="41.85479" lon="32.77757">
        <ele>93.57075</ele>
        <time>2021-08-21T04:01:53.879Z</time>
      </trkpt>
      <trkpt lat="41.85455" lon="32.7773">
        <ele>96.403784</ele>
        <time>2021-08-21T04:02:20.958Z</time>
      </trkpt>
      <trkpt lat="41.85338" lon="32.77511">
        <ele>116.337555</ele>
        <time>2021-08-21T04:05:17.334Z</time>
      </trkpt>
      <trkpt lat="41.85221" lon="32.77313">
        <ele>134.243821</ele>
        <time>2021-08-21T04:07:55.553Z</time>
      </trkpt>
      <trkpt lat="41.8501" lon="32.77155">
        <ele>155.286239</ele>
        <time>2021-08-21T04:11:17.372Z</time>
      </trkpt>
      <trkpt lat="41.84955" lon="32.77098">
        <ele>160.420285</ele>
        <time>2021-08-21T04:12:05.891Z</time>
      </trkpt>
      <trkpt lat="41.84808" lon="32.77065">
        <ele>167.261073</ele>
        <time>2021-08-21T04:13:28.524Z</time>
      </trkpt>
      <trkpt lat="41.8479" lon="32.77051">
        <ele>168.101584</ele>
        <time>2021-08-21T04:13:38.402Z</time>
      </trkpt>
      <trkpt lat="41.84752" lon="32.76993">
        <ele>170.225553</ele>
        <time>2021-08-21T04:14:04.284Z</time>
      </trkpt>
      <trkpt lat="41.8473" lon="32.76975">
        <ele>171.06153</ele>
        <time>2021-08-21T04:14:15.891Z</time>
      </trkpt>
      <trkpt lat="41.84612" lon="32.76918">
        <ele>175.199505</ele>
        <time>2021-08-21T04:15:17.100Z</time>
      </trkpt>
      <trkpt lat="41.84497" lon="32.76906">
        <ele>180.682467</ele>
        <time>2021-08-21T04:16:24.905Z</time>
      </trkpt>
      <trkpt lat="41.84464" lon="32.76887">
        <ele>182.466796</ele>
        <time>2021-08-21T04:16:48.369Z</time>
      </trkpt>
      <trkpt lat="41.84452" lon="32.76863">
        <ele>183.545338</ele>
        <time>2021-08-21T04:17:02.803Z</time>
      </trkpt>
      <trkpt lat="41.84432" lon="32.76718">
        <ele>186.540296</ele>
        <time>2021-08-21T04:18:03.292Z</time>
      </trkpt>
      <trkpt lat="41.8443" lon="32.76632">
        <ele>188.014398</ele>
        <time>2021-08-21T04:18:27.461Z</time>
      </trkpt>
      <trkpt lat="41.84466" lon="32.76519">
        <ele>186.671634</ele>
        <time>2021-08-21T04:18:50.596Z</time>
      </trkpt>
      <trkpt lat="41.84478" lon="32.76496">
        <ele>186.053506</ele>
        <time>2021-08-21T04:18:55.378Z</time>
      </trkpt>
      <trkpt lat="41.84494" lon="32.76479">
        <ele>185.471952</ele>
        <time>2021-08-21T04:18:59.773Z</time>
      </trkpt>
      <trkpt lat="41.84555" lon="32.76441">
        <ele>183.546146</ele>
        <time>2021-08-21T04:19:14.159Z</time>
      </trkpt>
      <trkpt lat="41.84566" lon="32.76421">
        <ele>182.77294</ele>
        <time>2021-08-21T04:19:18.302Z</time>
      </trkpt>
      <trkpt lat="41.84566" lon="32.7641">
        <ele>182.386586</ele>
        <time>2021-08-21T04:19:20.216Z</time>
      </trkpt>
      <trkpt lat="41.84556" lon="32.76388">
        <ele>181.479207</ele>
        <time>2021-08-21T04:19:24.735Z</time>
      </trkpt>
      <trkpt lat="41.84511" lon="32.76356">
        <ele>179.09516</ele>
        <time>2021-08-21T04:19:37.142Z</time>
      </trkpt>
      <trkpt lat="41.84493" lon="32.76329">
        <ele>177.850282</ele>
        <time>2021-08-21T04:19:42.573Z</time>
      </trkpt>
      <trkpt lat="41.84459" lon="32.76193">
        <ele>171.164874</ele>
        <time>2021-08-21T04:20:04.502Z</time>
      </trkpt>
      <trkpt lat="41.84459" lon="32.76172">
        <ele>169.918457</ele>
        <time>2021-08-21T04:20:07.785Z</time>
      </trkpt>
      <trkpt lat="41.84463" lon="32.76166">
        <ele>169.347222</ele>
        <time>2021-08-21T04:20:09.022Z</time>
      </trkpt>
      <trkpt lat="41.8447" lon="32.76162">
        <ele>168.775978</ele>
        <time>2021-08-21T04:20:10.396Z</time>
      </trkpt>
      <trkpt lat="41.84484" lon="32.7617">
        <ele>167.523065</ele>
        <time>2021-08-21T04:20:13.665Z</time>
      </trkpt>
      <trkpt lat="41.84504" lon="32.76214">
        <ele>164.318825</ele>
        <time>2021-08-21T04:20:21.247Z</time>
      </trkpt>
      <trkpt lat="41.84524" lon="32.76244">
        <ele>161.905115</ele>
        <time>2021-08-21T04:20:26.769Z</time>
      </trkpt>
      <trkpt lat="41.84545" lon="32.76261">
        <ele>159.701209</ele>
        <time>2021-08-21T04:20:31.434Z</time>
      </trkpt>
      <trkpt lat="41.84567" lon="32.7626">
        <ele>157.151171</ele>
        <time>2021-08-21T04:20:35.563Z</time>
      </trkpt>
      <trkpt lat="41.84604" lon="32.7622">
        <ele>151.500996</ele>
        <time>2021-08-21T04:20:44.326Z</time>
      </trkpt>
      <trkpt lat="41.84682" lon="32.76196">
        <ele>141.897731</ele>
        <time>2021-08-21T04:20:59.325Z</time>
      </trkpt>
      <trkpt lat="41.84701" lon="32.76204">
        <ele>139.574459</ele>
        <time>2021-08-21T04:21:02.941Z</time>
      </trkpt>
      <trkpt lat="41.84718" lon="32.76261">
        <ele>133.988533</ele>
        <time>2021-08-21T04:21:11.386Z</time>
      </trkpt>
      <trkpt lat="41.84727" lon="32.76273">
        <ele>132.402161</ele>
        <time>2021-08-21T04:21:13.758Z</time>
      </trkpt>
      <trkpt lat="41.84737" lon="32.76283">
        <ele>130.900708</ele>
        <time>2021-08-21T04:21:15.997Z</time>
      </trkpt>
      <trkpt lat="41.84775" lon="32.76284">
        <ele>126.217032</ele>
        <time>2021-08-21T04:21:22.970Z</time>
      </trkpt>
      <trkpt lat="41.84805" lon="32.76281">
        <ele>122.398775</ele>
        <time>2021-08-21T04:21:28.658Z</time>
      </trkpt>
      <trkpt lat="41.84834" lon="32.7627">
        <ele>118.679324</ele>
        <time>2021-08-21T04:21:34.218Z</time>
      </trkpt>
      <trkpt lat="41.84857" lon="32.76247">
        <ele>115.360292</ele>
        <time>2021-08-21T04:21:39.566Z</time>
      </trkpt>
      <trkpt lat="41.84869" lon="32.76214">
        <ele>112.607536</ele>
        <time>2021-08-21T04:21:44.660Z</time>
      </trkpt>
      <trkpt lat="41.84871" lon="32.76178">
        <ele>109.881177</ele>
        <time>2021-08-21T04:21:49.724Z</time>
      </trkpt>
      <trkpt lat="41.8486" lon="32.76146">
        <ele>107.200514</ele>
        <time>2021-08-21T04:21:54.735Z</time>
      </trkpt>
      <trkpt lat="41.84851" lon="32.76134">
        <ele>105.877373</ele>
        <time>2021-08-21T04:21:57.203Z</time>
      </trkpt>
      <trkpt lat="41.84792" lon="32.76094">
        <ele>99.15695</ele>
        <time>2021-08-21T04:22:09.813Z</time>
      </trkpt>
      <trkpt lat="41.84785" lon="32.76081">
        <ele>97.972155</ele>
        <time>2021-08-21T04:22:12.093Z</time>
      </trkpt>
      <trkpt lat="41.84766" lon="32.75995">
        <ele>92.11355</ele>
        <time>2021-08-21T04:22:25.093Z</time>
      </trkpt>
      <trkpt lat="41.84701" lon="32.75878">
        <ele>82.590533</ele>
        <time>2021-08-21T04:22:46.233Z</time>
      </trkpt>
      <trkpt lat="41.84684" lon="32.75855">
        <ele>80.426402</ele>
        <time>2021-08-21T04:22:51.022Z</time>
      </trkpt>
      <trkpt lat="41.84666" lon="32.75844">
        <ele>78.722705</ele>
        <time>2021-08-21T04:22:54.809Z</time>
      </trkpt>
      <trkpt lat="41.84647" lon="32.75848">
        <ele>77.054564</ele>
        <time>2021-08-21T04:22:58.528Z</time>
      </trkpt>
      <trkpt lat="41.84629" lon="32.75869">
        <ele>74.955701</ele>
        <time>2021-08-21T04:23:03.224Z</time>
      </trkpt>
      <trkpt lat="41.84606" lon="32.75912">
        <ele>71.527143</ele>
        <time>2021-08-21T04:23:10.896Z</time>
      </trkpt>
      <trkpt lat="41.84591" lon="32.75918">
        <ele>70.104519</ele>
        <time>2021-08-21T04:23:14.051Z</time>
      </trkpt>
      <trkpt lat="41.84581" lon="32.75905">
        <ele>68.92401</ele>
        <time>2021-08-21T04:23:16.661Z</time>
      </trkpt>
      <trkpt lat="41.8458" lon="32.75895">
        <ele>68.266561</ele>
        <time>2021-08-21T04:23:18.115Z</time>
      </trkpt>
      <trkpt lat="41.84608" lon="32.7581">
        <ele>61.804258</ele>
        <time>2021-08-21T04:23:31.274Z</time>
      </trkpt>
      <trkpt lat="41.84621" lon="32.75786">
        <ele>59.613765</ele>
        <time>2021-08-21T04:23:35.594Z</time>
      </trkpt>
      <trkpt lat="41.84639" lon="32.75771">
        <ele>57.576088</ele>
        <time>2021-08-21T04:23:39.638Z</time>
      </trkpt>
      <trkpt lat="41.84658" lon="32.75765">
        <ele>55.684673</ele>
        <time>2021-08-21T04:23:43.373Z</time>
      </trkpt>
      <trkpt lat="41.84707" lon="32.75777">
        <ele>50.870952</ele>
        <time>2021-08-21T04:23:52.934Z</time>
      </trkpt>
      <trkpt lat="41.84715" lon="32.75773">
        <ele>50.052334</ele>
        <time>2021-08-21T04:23:54.536Z</time>
      </trkpt>
      <trkpt lat="41.84711" lon="32.75757">
        <ele>48.801659</ele>
        <time>2021-08-21T04:23:56.959Z</time>
      </trkpt>
      <trkpt lat="41.84683" lon="32.75733">
        <ele>45.424915</ele>
        <time>2021-08-21T04:24:03.254Z</time>
      </trkpt>
      <trkpt lat="41.84628" lon="32.75721">
        <ele>39.777227</ele>
        <time>2021-08-21T04:24:13.749Z</time>
      </trkpt>
      <trkpt lat="41.84604" lon="32.75709">
        <ele>37.16764</ele>
        <time>2021-08-21T04:24:18.619Z</time>
      </trkpt>
      <trkpt lat="41.84552" lon="32.75629">
        <ele>29.50132</ele>
        <time>2021-08-21T04:24:33.732Z</time>
      </trkpt>
      <trkpt lat="41.84458" lon="32.75578">
        <ele>21.213919</ele>
        <time>2021-08-21T04:24:53.286Z</time>
      </trkpt>
      <trkpt lat="41.8443" lon="32.75556">
        <ele>18.574855</ele>
        <time>2021-08-21T04:24:59.630Z</time>
      </trkpt>
      <trkpt lat="41.84412" lon="32.75526">
        <ele>16.219468</ele>
        <time>2021-08-21T04:25:05.463Z</time>
      </trkpt>
      <trkpt lat="41.84402" lon="32.75492">
        <ele>15.718257</ele>
        <time>2021-08-21T04:25:11.176Z</time>
      </trkpt>
      <trkpt lat="41.84395" lon="32.75392">
        <ele>14.355342</ele>
        <time>2021-08-21T04:25:28.458Z</time>
      </trkpt>
      <trkpt lat="41.84388" lon="32.75281">
        <ele>13.153633</ele>
        <time>2021-08-21T04:25:58.451Z</time>
      </trkpt>
      <trkpt lat="41.84384" lon="32.75259">
        <ele>13.83637</ele>
        <time>2021-08-21T04:26:05.551Z</time>
      </trkpt>
      <trkpt lat="41.84382" lon="32.75242">
        <ele>14.372939</ele>
        <time>2021-08-21T04:26:12.747Z</time>
      </trkpt>
      <trkpt lat="41.84381" lon="32.75227">
        <ele>14.818062</ele>
        <time>2021-08-21T04:26:17.871Z</time>
      </trkpt>
      <trkpt lat="41.84382" lon="32.75215">
        <ele>15.184137</ele>
        <time>2021-08-21T04:26:22.018Z</time>
      </trkpt>
      <trkpt lat="41.84384" lon="32.75203">
        <ele>15.546068</ele>
        <time>2021-08-21T04:26:27.883Z</time>
      </trkpt>
      <trkpt lat="41.84394" lon="32.75184">
        <ele>16.26229</ele>
        <time>2021-08-21T04:26:37.380Z</time>
      </trkpt>
      <trkpt lat="41.84408" lon="32.75171">
        <ele>16.968766</ele>
        <time>2021-08-21T04:26:48.028Z</time>
      </trkpt>
      <trkpt lat="41.84435" lon="32.7516">
        <ele>18.116091</ele>
        <time>2021-08-21T04:27:03.623Z</time>
      </trkpt>
      <trkpt lat="41.84445" lon="32.75158">
        <ele>18.5261</ele>
        <time>2021-08-21T04:27:10.702Z</time>
      </trkpt>
      <trkpt lat="41.84475" lon="32.75154">
        <ele>19.749085</ele>
        <time>2021-08-21T04:27:28.148Z</time>
      </trkpt>
      <trkpt lat="41.84532" lon="32.75131">
        <ele>23.133491</ele>
        <time>2021-08-21T04:28:04.827Z</time>
      </trkpt>
      <trkpt lat="41.84597" lon="32.75114">
        <ele>27.242642</ele>
        <time>2021-08-21T04:28:45.567Z</time>
      </trkpt>
      <trkpt lat="41.84629" lon="32.75089">
        <ele>29.497074</ele>
        <time>2021-08-21T04:29:10.103Z</time>
      </trkpt>
      <trkpt lat="41.84664" lon="32.75075">
        <ele>32.077082</ele>
        <time>2021-08-21T04:29:37.020Z</time>
      </trkpt>
      <trkpt lat="41.8473" lon="32.75074">
        <ele>39.007256</ele>
        <time>2021-08-21T04:30:31.310Z</time>
      </trkpt>
      <trkpt lat="41.84739" lon="32.75066">
        <ele>40.140602</ele>
        <time>2021-08-21T04:30:40.931Z</time>
      </trkpt>
      <trkpt lat="41.8474" lon="32.75054">
        <ele>41.085025</ele>
        <time>2021-08-21T04:30:49.355Z</time>
      </trkpt>
      <trkpt lat="41.84735" lon="32.75044">
        <ele>42.027017</ele>
        <time>2021-08-21T04:30:57.715Z</time>
      </trkpt>
      <trkpt lat="41.84692" lon="32.75018">
        <ele>46.978691</ele>
        <time>2021-08-21T04:31:43.457Z</time>
      </trkpt>
      <trkpt lat="41.8465" lon="32.74928">
        <ele>55.958526</ele>
        <time>2021-08-21T04:33:05.827Z</time>
      </trkpt>
      <trkpt lat="41.84622" lon="32.74903">
        <ele>59.956629</ele>
        <time>2021-08-21T04:33:40.688Z</time>
      </trkpt>
      <trkpt lat="41.84551" lon="32.74924">
        <ele>68.600485</ele>
        <time>2021-08-21T04:34:50.919Z</time>
      </trkpt>
      <trkpt lat="41.84542" lon="32.74921">
        <ele>69.703015</ele>
        <time>2021-08-21T04:34:59.339Z</time>
      </trkpt>
      <trkpt lat="41.84539" lon="32.74898">
        <ele>71.725426</ele>
        <time>2021-08-21T04:35:15.371Z</time>
      </trkpt>
      <trkpt lat="41.84569" lon="32.74859">
        <ele>75.485987</ele>
        <time>2021-08-21T04:35:52.096Z</time>
      </trkpt>
      <trkpt lat="41.84616" lon="32.74812">
        <ele>80.763447</ele>
        <time>2021-08-21T04:36:39.773Z</time>
      </trkpt>
      <trkpt lat="41.84661" lon="32.74787">
        <ele>85.14888</ele>
        <time>2021-08-21T04:37:17.203Z</time>
      </trkpt>
      <trkpt lat="41.84692" lon="32.7479">
        <ele>87.950723</ele>
        <time>2021-08-21T04:37:40.228Z</time>
      </trkpt>
      <trkpt lat="41.84747" lon="32.74836">
        <ele>93.894454</ele>
        <time>2021-08-21T04:38:29.553Z</time>
      </trkpt>
      <trkpt lat="41.84755" lon="32.74837">
        <ele>94.631408</ele>
        <time>2021-08-21T04:38:36.034Z</time>
      </trkpt>
      <trkpt lat="41.84766" lon="32.74824">
        <ele>95.975634</ele>
        <time>2021-08-21T04:38:47.977Z</time>
      </trkpt>
      <trkpt lat="41.84704" lon="32.74712">
        <ele>105.540594</ele>
        <time>2021-08-21T04:40:17.877Z</time>
      </trkpt>
      <trkpt lat="41.8469" lon="32.74678">
        <ele>108.261177</ele>
        <time>2021-08-21T04:40:46.115Z</time>
      </trkpt>
      <trkpt lat="41.84677" lon="32.7461">
        <ele>113.177591</ele>
        <time>2021-08-21T04:41:34.389Z</time>
      </trkpt>
      <trkpt lat="41.8467" lon="32.74529">
        <ele>118.888137</ele>
        <time>2021-08-21T04:42:24.420Z</time>
      </trkpt>
      <trkpt lat="41.8467" lon="32.74488">
        <ele>121.354125</ele>
        <time>2021-08-21T04:42:47.322Z</time>
      </trkpt>
      <trkpt lat="41.84669" lon="32.74429">
        <ele>122.502061</ele>
        <time>2021-08-21T04:43:14.694Z</time>
      </trkpt>
      <trkpt lat="41.84681" lon="32.74324">
        <ele>124.582809</ele>
        <time>2021-08-21T04:43:51.827Z</time>
      </trkpt>
      <trkpt lat="41.84679" lon="32.7423">
        <ele>125.015684</ele>
        <time>2021-08-21T04:44:10.744Z</time>
      </trkpt>
      <trkpt lat="41.84689" lon="32.74163">
        <ele>122.638965</ele>
        <time>2021-08-21T04:44:22.026Z</time>
      </trkpt>
      <trkpt lat="41.84685" lon="32.74123">
        <ele>121.238852</ele>
        <time>2021-08-21T04:44:28.380Z</time>
      </trkpt>
      <trkpt lat="41.84676" lon="32.74105">
        <ele>120.486781</ele>
        <time>2021-08-21T04:44:31.844Z</time>
      </trkpt>
      <trkpt lat="41.8462" lon="32.74049">
        <ele>116.93161</ele>
        <time>2021-08-21T04:44:46.055Z</time>
      </trkpt>
      <trkpt lat="41.84602" lon="32.74031">
        <ele>114.894706</ele>
        <time>2021-08-21T04:44:50.422Z</time>
      </trkpt>
      <trkpt lat="41.84591" lon="32.7398">
        <ele>111.285314</ele>
        <time>2021-08-21T04:44:58.167Z</time>
      </trkpt>
      <trkpt lat="41.84597" lon="32.73904">
        <ele>106.089876</ele>
        <time>2021-08-21T04:45:09.104Z</time>
      </trkpt>
      <trkpt lat="41.84698" lon="32.73671">
        <ele>86.364083</ele>
        <time>2021-08-21T04:45:47.141Z</time>
      </trkpt>
      <trkpt lat="41.84756" lon="32.73561">
        <ele>78.433931</ele>
        <time>2021-08-21T04:46:06.655Z</time>
      </trkpt>
      <trkpt lat="41.84762" lon="32.73528">
        <ele>76.711098</ele>
        <time>2021-08-21T04:46:11.739Z</time>
      </trkpt>
      <trkpt lat="41.84763" lon="32.7349">
        <ele>74.782605</ele>
        <time>2021-08-21T04:46:17.531Z</time>
      </trkpt>
      <trkpt lat="41.84755" lon="32.7341">
        <ele>70.723149</ele>
        <time>2021-08-21T04:46:30.233Z</time>
      </trkpt>
      <trkpt lat="41.84737" lon="32.7334">
        <ele>69.24574</ele>
        <time>2021-08-21T04:46:42.462Z</time>
      </trkpt>
      <trkpt lat="41.847" lon="32.73264">
        <ele>67.434389</ele>
        <time>2021-08-21T04:46:58.457Z</time>
      </trkpt>
      <trkpt lat="41.84628" lon="32.73171">
        <ele>65.86999</ele>
        <time>2021-08-21T04:47:24.839Z</time>
      </trkpt>
      <trkpt lat="41.84576" lon="32.73119">
        <ele>65.783433</ele>
        <time>2021-08-21T04:47:44.960Z</time>
      </trkpt>
      <trkpt lat="41.84561" lon="32.73107">
        <ele>65.760123</ele>
        <time>2021-08-21T04:47:50.824Z</time>
      </trkpt>
      <trkpt lat="41.84473" lon="32.73101">
        <ele>65.284309</ele>
        <time>2021-08-21T04:48:21.953Z</time>
      </trkpt>
      <trkpt lat="41.84412" lon="32.7308">
        <ele>64.541389</ele>
        <time>2021-08-21T04:48:42.168Z</time>
      </trkpt>
      <trkpt lat="41.8436" lon="32.73046">
        <ele>63.859028</ele>
        <time>2021-08-21T04:48:56.291Z</time>
      </trkpt>
      <trkpt lat="41.84329" lon="32.72996">
        <ele>62.212907</ele>
        <time>2021-08-21T04:49:07.027Z</time>
      </trkpt>
      <trkpt lat="41.84318" lon="32.72912">
        <ele>58.596315</ele>
        <time>2021-08-21T04:49:20.362Z</time>
      </trkpt>
      <trkpt lat="41.8431" lon="32.72847">
        <ele>55.767743</ele>
        <time>2021-08-21T04:49:30.466Z</time>
      </trkpt>
      <trkpt lat="41.8431" lon="32.72757">
        <ele>51.834667</ele>
        <time>2021-08-21T04:49:43.770Z</time>
      </trkpt>
      <trkpt lat="41.84337" lon="32.72668">
        <ele>47.515681</ele>
        <time>2021-08-21T04:49:58.021Z</time>
      </trkpt>
      <trkpt lat="41.84347" lon="32.72621">
        <ele>45.285833</ele>
        <time>2021-08-21T04:50:05.709Z</time>
      </trkpt>
      <trkpt lat="41.84357" lon="32.72576">
        <ele>43.158349</ele>
        <time>2021-08-21T04:50:13.212Z</time>
      </trkpt>
      <trkpt lat="41.84383" lon="32.72489">
        <ele>39.625394</ele>
        <time>2021-08-21T04:50:28.644Z</time>
      </trkpt>
      <trkpt lat="41.84395" lon="32.72419">
        <ele>37.041469</ele>
        <time>2021-08-21T04:50:40.116Z</time>
      </trkpt>
      <trkpt lat="41.84391" lon="32.72396">
        <ele>36.191843</ele>
        <time>2021-08-21T04:50:43.865Z</time>
      </trkpt>
      <trkpt lat="41.84379" lon="32.72371">
        <ele>35.107284</ele>
        <time>2021-08-21T04:50:48.724Z</time>
      </trkpt>
      <trkpt lat="41.84355" lon="32.7232">
        <ele>32.721297</ele>
        <time>2021-08-21T04:50:58.031Z</time>
      </trkpt>
      <trkpt lat="41.84352" lon="32.72307">
        <ele>32.075924</ele>
        <time>2021-08-21T04:51:00.055Z</time>
      </trkpt>
      <trkpt lat="41.84334" lon="32.72243">
        <ele>28.813263</ele>
        <time>2021-08-21T04:51:10.231Z</time>
      </trkpt>
      <trkpt lat="41.8433" lon="32.72208">
        <ele>27.125637</ele>
        <time>2021-08-21T04:51:15.451Z</time>
      </trkpt>
      <trkpt lat="41.84335" lon="32.72181">
        <ele>25.799646</ele>
        <time>2021-08-21T04:51:19.647Z</time>
      </trkpt>
      <trkpt lat="41.84377" lon="32.7209">
        <ele>22.088716</ele>
        <time>2021-08-21T04:51:35.871Z</time>
      </trkpt>
      <trkpt lat="41.84406" lon="32.7203">
        <ele>21.933212</ele>
        <time>2021-08-21T04:51:48.430Z</time>
      </trkpt>
      <trkpt lat="41.84416" lon="32.72008">
        <ele>21.876836</ele>
        <time>2021-08-21T04:51:53.727Z</time>
      </trkpt>
      <trkpt lat="41.84467" lon="32.71941">
        <ele>21.667184</ele>
        <time>2021-08-21T04:52:24.445Z</time>
      </trkpt>
      <trkpt lat="41.84507" lon="32.71889">
        <ele>23.611465</ele>
        <time>2021-08-21T04:53:01.166Z</time>
      </trkpt>
      <trkpt lat="41.84546" lon="32.7183">
        <ele>26.355993</ele>
        <time>2021-08-21T04:53:37.907Z</time>
      </trkpt>
      <trkpt lat="41.84551" lon="32.71816">
        <ele>26.90145</ele>
        <time>2021-08-21T04:53:46.517Z</time>
      </trkpt>
      <trkpt lat="41.84556" lon="32.71804">
        <ele>27.374115</ele>
        <time>2021-08-21T04:53:51.697Z</time>
      </trkpt>
      <trkpt lat="41.8456" lon="32.7177">
        <ele>28.571783</ele>
        <time>2021-08-21T04:54:06.836Z</time>
      </trkpt>
      <trkpt lat="41.84554" lon="32.71712">
        <ele>30.163614</ele>
        <time>2021-08-21T04:54:28.337Z</time>
      </trkpt>
      <trkpt lat="41.84545" lon="32.71677">
        <ele>30.45985</ele>
        <time>2021-08-21T04:54:40.616Z</time>
      </trkpt>
      <trkpt lat="41.8453" lon="32.71647">
        <ele>30.748922</ele>
        <time>2021-08-21T04:54:50.478Z</time>
      </trkpt>
      <trkpt lat="41.84515" lon="32.7163">
        <ele>30.959759</ele>
        <time>2021-08-21T04:54:58.565Z</time>
      </trkpt>
      <trkpt lat="41.84492" lon="32.71618">
        <ele>31.224779</ele>
        <time>2021-08-21T04:55:05.673Z</time>
      </trkpt>
      <trkpt lat="41.84331" lon="32.71581">
        <ele>33.620192</ele>
        <time>2021-08-21T04:55:55.986Z</time>
      </trkpt>
      <trkpt lat="41.8431" lon="32.71566">
        <ele>34.036768</ele>
        <time>2021-08-21T04:56:07.368Z</time>
      </trkpt>
      <trkpt lat="41.84304" lon="32.71559">
        <ele>34.182512</ele>
        <time>2021-08-21T04:56:10.120Z</time>
      </trkpt>
      <trkpt lat="41.84286" lon="32.71538">
        <ele>34.593614</ele>
        <time>2021-08-21T04:56:23.131Z</time>
      </trkpt>
      <trkpt lat="41.84262" lon="32.715">
        <ele>35.508572</ele>
        <time>2021-08-21T04:56:43.153Z</time>
      </trkpt>
      <trkpt lat="41.84241" lon="32.71443">
        <ele>38.010356</ele>
        <time>2021-08-21T04:57:10.385Z</time>
      </trkpt>
      <trkpt lat="41.84217" lon="32.71336">
        <ele>42.40672</ele>
        <time>2021-08-21T04:58:05.669Z</time>
      </trkpt>
      <trkpt lat="41.84178" lon="32.7127">
        <ele>45.510497</ele>
        <time>2021-08-21T04:58:43.453Z</time>
      </trkpt>
      <trkpt lat="41.84164" lon="32.71262">
        <ele>46.16168</ele>
        <time>2021-08-21T04:58:52.281Z</time>
      </trkpt>
      <trkpt lat="41.84114" lon="32.7126">
        <ele>48.306733</ele>
        <time>2021-08-21T04:59:19.476Z</time>
      </trkpt>
      <trkpt lat="41.84088" lon="32.71246">
        <ele>49.501663</ele>
        <time>2021-08-21T04:59:34.006Z</time>
      </trkpt>
      <trkpt lat="41.84028" lon="32.71184">
        <ele>52.862163</ele>
        <time>2021-08-21T05:00:13.639Z</time>
      </trkpt>
      <trkpt lat="41.84001" lon="32.71161">
        <ele>54.602559</ele>
        <time>2021-08-21T05:00:30.720Z</time>
      </trkpt>
      <trkpt lat="41.83984" lon="32.71147">
        <ele>55.698524</ele>
        <time>2021-08-21T05:00:42.152Z</time>
      </trkpt>
      <trkpt lat="41.8391" lon="32.71138">
        <ele>59.757912</ele>
        <time>2021-08-21T05:01:28.186Z</time>
      </trkpt>
      <trkpt lat="41.83881" lon="32.71141">
        <ele>61.329866</ele>
        <time>2021-08-21T05:01:47.700Z</time>
      </trkpt>
      <trkpt lat="41.83847" lon="32.71158">
        <ele>63.684526</ele>
        <time>2021-08-21T05:02:14.323Z</time>
      </trkpt>
      <trkpt lat="41.83824" lon="32.71154">
        <ele>65.324919</ele>
        <time>2021-08-21T05:02:32.229Z</time>
      </trkpt>
      <trkpt lat="41.83808" lon="32.71139">
        <ele>66.70532</ele>
        <time>2021-08-21T05:02:47.130Z</time>
      </trkpt>
      <trkpt lat="41.83776" lon="32.71077">
        <ele>70.717678</ele>
        <time>2021-08-21T05:03:29.626Z</time>
      </trkpt>
      <trkpt lat="41.83745" lon="32.71032">
        <ele>73.897227</ele>
        <time>2021-08-21T05:04:01.326Z</time>
      </trkpt>
      <trkpt lat="41.8372" lon="32.71006">
        <ele>75.405393</ele>
        <time>2021-08-21T05:04:21.920Z</time>
      </trkpt>
      <trkpt lat="41.83658" lon="32.70951">
        <ele>77.648238</ele>
        <time>2021-08-21T05:05:01.916Z</time>
      </trkpt>
      <trkpt lat="41.83637" lon="32.70941">
        <ele>78.320703</ele>
        <time>2021-08-21T05:05:11.807Z</time>
      </trkpt>
      <trkpt lat="41.83596" lon="32.70936">
        <ele>79.563141</ele>
        <time>2021-08-21T05:05:27.884Z</time>
      </trkpt>
      <trkpt lat="41.83583" lon="32.70927">
        <ele>80.004585</ele>
        <time>2021-08-21T05:05:32.799Z</time>
      </trkpt>
      <trkpt lat="41.83578" lon="32.70911">
        <ele>80.284507</ele>
        <time>2021-08-21T05:05:36.833Z</time>
      </trkpt>
      <trkpt lat="41.8358" lon="32.70884">
        <ele>80.287763</ele>
        <time>2021-08-21T05:05:42.939Z</time>
      </trkpt>
      <trkpt lat="41.83604" lon="32.70827">
        <ele>80.295619</ele>
        <time>2021-08-21T05:05:56.539Z</time>
      </trkpt>
      <trkpt lat="41.83616" lon="32.70784">
        <ele>80.301128</ele>
        <time>2021-08-21T05:06:05.579Z</time>
      </trkpt>
      <trkpt lat="41.83629" lon="32.70593">
        <ele>82.91676</ele>
        <time>2021-08-21T05:06:55.090Z</time>
      </trkpt>
      <trkpt lat="41.83631" lon="32.70505">
        <ele>85.359843</ele>
        <time>2021-08-21T05:07:30.904Z</time>
      </trkpt>
      <trkpt lat="41.83643" lon="32.70459">
        <ele>86.712297</ele>
        <time>2021-08-21T05:07:55.098Z</time>
      </trkpt>
      <trkpt lat="41.83676" lon="32.70398">
        <ele>92.209635</ele>
        <time>2021-08-21T05:08:39.393Z</time>
      </trkpt>
      <trkpt lat="41.83682" lon="32.70372">
        <ele>94.400066</ele>
        <time>2021-08-21T05:08:57.294Z</time>
      </trkpt>
      <trkpt lat="41.83682" lon="32.70359">
        <ele>95.446247</ele>
        <time>2021-08-21T05:09:06.150Z</time>
      </trkpt>
      <trkpt lat="41.83662" lon="32.70301">
        <ele>100.589506</ele>
        <time>2021-08-21T05:09:51.915Z</time>
      </trkpt>
      <trkpt lat="41.83663" lon="32.70188">
        <ele>110.942133</ele>
        <time>2021-08-21T05:11:20.705Z</time>
      </trkpt>
      <trkpt lat="41.83644" lon="32.70147">
        <ele>116.334859</ele>
        <time>2021-08-21T05:12:01.218Z</time>
      </trkpt>
      <trkpt lat="41.83624" lon="32.70052">
        <ele>127.360696</ele>
        <time>2021-08-21T05:13:27.617Z</time>
      </trkpt>
      <trkpt lat="41.83618" lon="32.70041">
        <ele>128.88332</ele>
        <time>2021-08-21T05:13:39.973Z</time>
      </trkpt>
      <trkpt lat="41.83587" lon="32.70036">
        <ele>133.583265</ele>
        <time>2021-08-21T05:14:18.106Z</time>
      </trkpt>
      <trkpt lat="41.83574" lon="32.70045">
        <ele>136.039904</ele>
        <time>2021-08-21T05:14:36.332Z</time>
      </trkpt>
      <trkpt lat="41.8354" lon="32.70099">
        <ele>144.886588</ele>
        <time>2021-08-21T05:15:42.609Z</time>
      </trkpt>
      <trkpt lat="41.83519" lon="32.70116">
        <ele>149.005319</ele>
        <time>2021-08-21T05:16:14.080Z</time>
      </trkpt>
      <trkpt lat="41.83488" lon="32.70118">
        <ele>154.217669</ele>
        <time>2021-08-21T05:16:54.301Z</time>
      </trkpt>
      <trkpt lat="41.8346" lon="32.70098">
        <ele>159.54465</ele>
        <time>2021-08-21T05:17:35.741Z</time>
      </trkpt>
      <trkpt lat="41.83352" lon="32.69965">
        <ele>180.868591</ele>
        <time>2021-08-21T05:20:31.893Z</time>
      </trkpt>
      <trkpt lat="41.83322" lon="32.69921">
        <ele>187.136135</ele>
        <time>2021-08-21T05:21:15.414Z</time>
      </trkpt>
      <trkpt lat="41.8331" lon="32.69874">
        <ele>190.271214</ele>
        <time>2021-08-21T05:21:47.400Z</time>
      </trkpt>
      <trkpt lat="41.8331" lon="32.69824">
        <ele>192.282149</ele>
        <time>2021-08-21T05:22:15.689Z</time>
      </trkpt>
      <trkpt lat="41.83344" lon="32.69589">
        <ele>200.118296</ele>
        <time>2021-08-21T05:23:42.128Z</time>
      </trkpt>
      <trkpt lat="41.83359" lon="32.69539">
        <ele>201.081092</ele>
        <time>2021-08-21T05:23:55.397Z</time>
      </trkpt>
      <trkpt lat="41.83397" lon="32.69474">
        <ele>202.55688</ele>
        <time>2021-08-21T05:24:19.794Z</time>
      </trkpt>
      <trkpt lat="41.83432" lon="32.69442">
        <ele>204.770742</ele>
        <time>2021-08-21T05:24:43.023Z</time>
      </trkpt>
      <trkpt lat="41.83471" lon="32.69421">
        <ele>207.866724</ele>
        <time>2021-08-21T05:25:08.132Z</time>
      </trkpt>
      <trkpt lat="41.83485" lon="32.69404">
        <ele>209.248917</ele>
        <time>2021-08-21T05:25:23.599Z</time>
      </trkpt>
      <trkpt lat="41.83484" lon="32.69389">
        <ele>210.082664</ele>
        <time>2021-08-21T05:25:33.513Z</time>
      </trkpt>
      <trkpt lat="41.83467" lon="32.69303">
        <ele>215.001376</ele>
        <time>2021-08-21T05:26:30.972Z</time>
      </trkpt>
      <trkpt lat="41.83459" lon="32.69231">
        <ele>217.808134</ele>
        <time>2021-08-21T05:27:13.717Z</time>
      </trkpt>
      <trkpt lat="41.83454" lon="32.69209">
        <ele>218.507658</ele>
        <time>2021-08-21T05:27:28.905Z</time>
      </trkpt>
      <trkpt lat="41.83449" lon="32.69186">
        <ele>219.232768</ele>
        <time>2021-08-21T05:27:40.778Z</time>
      </trkpt>
      <trkpt lat="41.8343" lon="32.69152">
        <ele>220.522146</ele>
        <time>2021-08-21T05:28:01.812Z</time>
      </trkpt>
      <trkpt lat="41.83394" lon="32.69122">
        <ele>222.247564</ele>
        <time>2021-08-21T05:28:20.473Z</time>
      </trkpt>
      <trkpt lat="41.83385" lon="32.69107">
        <ele>222.831846</ele>
        <time>2021-08-21T05:28:26.225Z</time>
      </trkpt>
      <trkpt lat="41.83354" lon="32.69018">
        <ele>219.336019</ele>
        <time>2021-08-21T05:28:41.982Z</time>
      </trkpt>
      <trkpt lat="41.83317" lon="32.68962">
        <ele>214.820926</ele>
        <time>2021-08-21T05:28:52.613Z</time>
      </trkpt>
      <trkpt lat="41.83282" lon="32.68926">
        <ele>211.250733</ele>
        <time>2021-08-21T05:29:00.918Z</time>
      </trkpt>
      <trkpt lat="41.83256" lon="32.68927">
        <ele>209.144821</ele>
        <time>2021-08-21T05:29:05.806Z</time>
      </trkpt>
      <trkpt lat="41.83242" lon="32.68939">
        <ele>207.763233</ele>
        <time>2021-08-21T05:29:08.927Z</time>
      </trkpt>
      <trkpt lat="41.83222" lon="32.68972">
        <ele>205.123853</ele>
        <time>2021-08-21T05:29:14.895Z</time>
      </trkpt>
      <trkpt lat="41.83166" lon="32.69136">
        <ele>194.056785</ele>
        <time>2021-08-21T05:29:41.330Z</time>
      </trkpt>
      <trkpt lat="41.83144" lon="32.6919">
        <ele>192.91222</ele>
        <time>2021-08-21T05:29:51.460Z</time>
      </trkpt>
      <trkpt lat="41.83106" lon="32.6926">
        <ele>191.301548</ele>
        <time>2021-08-21T05:30:07.010Z</time>
      </trkpt>
      <trkpt lat="41.83077" lon="32.69336">
        <ele>189.713589</ele>
        <time>2021-08-21T05:30:25.249Z</time>
      </trkpt>
      <trkpt lat="41.83066" lon="32.69408">
        <ele>189.800625</ele>
        <time>2021-08-21T05:30:43.481Z</time>
      </trkpt>
      <trkpt lat="41.83035" lon="32.69512">
        <ele>190.101379</ele>
        <time>2021-08-21T05:31:12.140Z</time>
      </trkpt>
      <trkpt lat="41.83007" lon="32.6954">
        <ele>190.227204</ele>
        <time>2021-08-21T05:31:23.960Z</time>
      </trkpt>
      <trkpt lat="41.82969" lon="32.69558">
        <ele>190.615148</ele>
        <time>2021-08-21T05:31:37.663Z</time>
      </trkpt>
      <trkpt lat="41.82871" lon="32.69579">
        <ele>191.783368</ele>
        <time>2021-08-21T05:32:12.506Z</time>
      </trkpt>
      <trkpt lat="41.82852" lon="32.69574">
        <ele>192.011286</ele>
        <time>2021-08-21T05:32:19.904Z</time>
      </trkpt>
      <trkpt lat="41.82802" lon="32.69538">
        <ele>193.102764</ele>
        <time>2021-08-21T05:32:45.019Z</time>
      </trkpt>
      <trkpt lat="41.82752" lon="32.69449">
        <ele>195.476508</ele>
        <time>2021-08-21T05:33:27.777Z</time>
      </trkpt>
      <trkpt lat="41.82744" lon="32.69439">
        <ele>195.79743</ele>
        <time>2021-08-21T05:33:34.196Z</time>
      </trkpt>
      <trkpt lat="41.82669" lon="32.6935">
        <ele>196.642162</ele>
        <time>2021-08-21T05:34:18.821Z</time>
      </trkpt>
      <trkpt lat="41.82656" lon="32.69328">
        <ele>196.174722</ele>
        <time>2021-08-21T05:34:26.685Z</time>
      </trkpt>
      <trkpt lat="41.82647" lon="32.69293">
        <ele>195.55832</ele>
        <time>2021-08-21T05:34:36.322Z</time>
      </trkpt>
      <trkpt lat="41.82628" lon="32.6907">
        <ele>185.214208</ele>
        <time>2021-08-21T05:35:10.764Z</time>
      </trkpt>
      <trkpt lat="41.82592" lon="32.68993">
        <ele>177.760146</ele>
        <time>2021-08-21T05:35:23.217Z</time>
      </trkpt>
      <trkpt lat="41.82589" lon="32.68968">
        <ele>175.683673</ele>
        <time>2021-08-21T05:35:26.665Z</time>
      </trkpt>
      <trkpt lat="41.82591" lon="32.68949">
        <ele>174.089012</ele>
        <time>2021-08-21T05:35:29.287Z</time>
      </trkpt>
      <trkpt lat="41.82595" lon="32.68919">
        <ele>170.59551</ele>
        <time>2021-08-21T05:35:33.373Z</time>
      </trkpt>
      <trkpt lat="41.82618" lon="32.68848">
        <ele>161.175097</ele>
        <time>2021-08-21T05:35:43.762Z</time>
      </trkpt>
      <trkpt lat="41.82624" lon="32.68811">
        <ele>156.567529</ele>
        <time>2021-08-21T05:35:48.828Z</time>
      </trkpt>
      <trkpt lat="41.8262" lon="32.6879">
        <ele>153.930071</ele>
        <time>2021-08-21T05:35:51.735Z</time>
      </trkpt>
      <trkpt lat="41.82589" lon="32.68725">
        <ele>144.53958</ele>
        <time>2021-08-21T05:36:02.103Z</time>
      </trkpt>
      <trkpt lat="41.82588" lon="32.68686">
        <ele>141.017567</ele>
        <time>2021-08-21T05:36:07.477Z</time>
      </trkpt>
      <trkpt lat="41.82596" lon="32.6865">
        <ele>137.678494</ele>
        <time>2021-08-21T05:36:12.660Z</time>
      </trkpt>
      <trkpt lat="41.82623" lon="32.68563">
        <ele>129.301786</ele>
        <time>2021-08-21T05:36:25.763Z</time>
      </trkpt>
      <trkpt lat="41.82766" lon="32.68318">
        <ele>106.271527</ele>
        <time>2021-08-21T05:37:10.397Z</time>
      </trkpt>
      <trkpt lat="41.82824" lon="32.68242">
        <ele>98.663802</ele>
        <time>2021-08-21T05:37:26.078Z</time>
      </trkpt>
      <trkpt lat="41.82834" lon="32.6821">
        <ele>96.236821</ele>
        <time>2021-08-21T05:37:31.067Z</time>
      </trkpt>
      <trkpt lat="41.82832" lon="32.68189">
        <ele>94.756103</ele>
        <time>2021-08-21T05:37:34.096Z</time>
      </trkpt>
      <trkpt lat="41.82818" lon="32.68174">
        <ele>93.074599</ele>
        <time>2021-08-21T05:37:37.536Z</time>
      </trkpt>
      <trkpt lat="41.82753" lon="32.68113">
        <ele>84.962224</ele>
        <time>2021-08-21T05:37:52.705Z</time>
      </trkpt>
      <trkpt lat="41.82783" lon="32.67995">
        <ele>74.720085</ele>
        <time>2021-08-21T05:38:11.083Z</time>
      </trkpt>
      <trkpt lat="41.8282" lon="32.67945">
        <ele>68.862887</ele>
        <time>2021-08-21T05:38:21.217Z</time>
      </trkpt>
      <trkpt lat="41.82861" lon="32.67912">
        <ele>62.652268</ele>
        <time>2021-08-21T05:38:30.568Z</time>
      </trkpt>
      <trkpt lat="41.82888" lon="32.67826">
        <ele>53.748031</ele>
        <time>2021-08-21T05:38:44.034Z</time>
      </trkpt>
      <trkpt lat="41.8289" lon="32.67805">
        <ele>51.701108</ele>
        <time>2021-08-21T05:38:47.092Z</time>
      </trkpt>
      <trkpt lat="41.82902" lon="32.67796">
        <ele>49.925832</ele>
        <time>2021-08-21T05:38:49.638Z</time>
      </trkpt>
      <trkpt lat="41.82924" lon="32.67767">
        <ele>45.992331</ele>
        <time>2021-08-21T05:38:55.346Z</time>
      </trkpt>
      <trkpt lat="41.82928" lon="32.67737">
        <ele>43.356552</ele>
        <time>2021-08-21T05:38:59.534Z</time>
      </trkpt>
      <trkpt lat="41.8292" lon="32.6768">
        <ele>38.284484</ele>
        <time>2021-08-21T05:39:07.541Z</time>
      </trkpt>
      <trkpt lat="41.82903" lon="32.67614">
        <ele>32.131897</ele>
        <time>2021-08-21T05:39:17.255Z</time>
      </trkpt>
      <trkpt lat="41.82898" lon="32.67594">
        <ele>30.277545</ele>
        <time>2021-08-21T05:39:20.303Z</time>
      </trkpt>
      <trkpt lat="41.82891" lon="32.67557">
        <ele>27.005866</ele>
        <time>2021-08-21T05:39:25.656Z</time>
      </trkpt>
      <trkpt lat="41.82871" lon="32.67451">
        <ele>20.415622</ele>
        <time>2021-08-21T05:39:41.260Z</time>
      </trkpt>
      <trkpt lat="41.82848" lon="32.67332">
        <ele>13.807539</ele>
        <time>2021-08-21T05:39:59.876Z</time>
      </trkpt>
      <trkpt lat="41.82846" lon="32.67319">
        <ele>13.07061</ele>
        <time>2021-08-21T05:40:02.083Z</time>
      </trkpt>
      <trkpt lat="41.82839" lon="32.67283">
        <ele>12.093142</ele>
        <time>2021-08-21T05:40:08.032Z</time>
      </trkpt>
      <trkpt lat="41.82833" lon="32.6726">
        <ele>11.975596</ele>
        <time>2021-08-21T05:40:12.212Z</time>
      </trkpt>
      <trkpt lat="41.82813" lon="32.67178">
        <ele>11.556104</ele>
        <time>2021-08-21T05:40:28.346Z</time>
      </trkpt>
      <trkpt lat="41.82857" lon="32.67166">
        <ele>11.2636</ele>
        <time>2021-08-21T05:40:45.023Z</time>
      </trkpt>
      <trkpt lat="41.82888" lon="32.67153">
        <ele>11.056052</ele>
        <time>2021-08-21T05:40:58.447Z</time>
      </trkpt>
      <trkpt lat="41.8293" lon="32.67123">
        <ele>14.296675</ele>
        <time>2021-08-21T05:41:24.282Z</time>
      </trkpt>
      <trkpt lat="41.82939" lon="32.67103">
        <ele>15.62528</ele>
        <time>2021-08-21T05:41:36.359Z</time>
      </trkpt>
      <trkpt lat="41.82937" lon="32.6708">
        <ele>16.930891</ele>
        <time>2021-08-21T05:41:48.036Z</time>
      </trkpt>
      <trkpt lat="41.82941" lon="32.67042">
        <ele>19.154871</ele>
        <time>2021-08-21T05:42:09.337Z</time>
      </trkpt>
      <trkpt lat="41.82928" lon="32.66982">
        <ele>22.722959</ele>
        <time>2021-08-21T05:42:50.485Z</time>
      </trkpt>
      <trkpt lat="41.82914" lon="32.66952">
        <ele>24.743815</ele>
        <time>2021-08-21T05:43:15.038Z</time>
      </trkpt>
      <trkpt lat="41.82905" lon="32.66928">
        <ele>27.843148</ele>
        <time>2021-08-21T05:43:37.923Z</time>
      </trkpt>
      <trkpt lat="41.82894" lon="32.66915">
        <ele>30.188099</ele>
        <time>2021-08-21T05:43:51.836Z</time>
      </trkpt>
      <trkpt lat="41.82877" lon="32.66905">
        <ele>33.203608</ele>
        <time>2021-08-21T05:44:14.998Z</time>
      </trkpt>
      <trkpt lat="41.82871" lon="32.6689">
        <ele>35.285663</ele>
        <time>2021-08-21T05:44:28.517Z</time>
      </trkpt>
      <trkpt lat="41.82864" lon="32.66831">
        <ele>42.396524</ele>
        <time>2021-08-21T05:45:23.849Z</time>
      </trkpt>
      <trkpt lat="41.82854" lon="32.66825">
        <ele>44.155378</ele>
        <time>2021-08-21T05:45:40.279Z</time>
      </trkpt>
      <trkpt lat="41.82832" lon="32.66834">
        <ele>47.855937</ele>
        <time>2021-08-21T05:46:12.694Z</time>
      </trkpt>
      <trkpt lat="41.82825" lon="32.66827">
        <ele>49.156098</ele>
        <time>2021-08-21T05:46:25.523Z</time>
      </trkpt>
      <trkpt lat="41.82823" lon="32.66812">
        <ele>51.017413</ele>
        <time>2021-08-21T05:46:43.545Z</time>
      </trkpt>
      <trkpt lat="41.82801" lon="32.66801">
        <ele>54.617088</ele>
        <time>2021-08-21T05:47:13.242Z</time>
      </trkpt>
      <trkpt lat="41.8278" lon="32.66754">
        <ele>60.61604</ele>
        <time>2021-08-21T05:48:05.333Z</time>
      </trkpt>
      <trkpt lat="41.82755" lon="32.66708">
        <ele>66.749347</ele>
        <time>2021-08-21T05:48:57.209Z</time>
      </trkpt>
      <trkpt lat="41.82736" lon="32.66688">
        <ele>70.287985</ele>
        <time>2021-08-21T05:49:25.349Z</time>
      </trkpt>
      <trkpt lat="41.82736" lon="32.66514">
        <ele>84.953255</ele>
        <time>2021-08-21T05:51:27.092Z</time>
      </trkpt>
      <trkpt lat="41.82717" lon="32.66414">
        <ele>91.10031</ele>
        <time>2021-08-21T05:52:16.663Z</time>
      </trkpt>
      <trkpt lat="41.82716" lon="32.66377">
        <ele>93.318197</ele>
        <time>2021-08-21T05:52:32.883Z</time>
      </trkpt>
      <trkpt lat="41.82715" lon="32.6635">
        <ele>94.934219</ele>
        <time>2021-08-21T05:52:45.629Z</time>
      </trkpt>
      <trkpt lat="41.82742" lon="32.66108">
        <ele>110.421814</ele>
        <time>2021-08-21T05:55:06.328Z</time>
      </trkpt>
      <trkpt lat="41.82746" lon="32.66076">
        <ele>113.461388</ele>
        <time>2021-08-21T05:55:30.035Z</time>
      </trkpt>
      <trkpt lat="41.82803" lon="32.65789">
        <ele>142.713063</ele>
        <time>2021-08-21T05:59:28.939Z</time>
      </trkpt>
      <trkpt lat="41.82807" lon="32.65686">
        <ele>153.64368</ele>
        <time>2021-08-21T06:00:55.823Z</time>
      </trkpt>
      <trkpt lat="41.82804" lon="32.6567">
        <ele>155.392196</ele>
        <time>2021-08-21T06:01:09.912Z</time>
      </trkpt>
      <trkpt lat="41.8278" lon="32.65618">
        <ele>161.955021</ele>
        <time>2021-08-21T06:02:01.895Z</time>
      </trkpt>
      <trkpt lat="41.82768" lon="32.65572">
        <ele>167.212371</ele>
        <time>2021-08-21T06:02:43.403Z</time>
      </trkpt>
      <trkpt lat="41.82743" lon="32.65538">
        <ele>172.36496</ele>
        <time>2021-08-21T06:03:23.472Z</time>
      </trkpt>
      <trkpt lat="41.82739" lon="32.65522">
        <ele>174.185449</ele>
        <time>2021-08-21T06:03:37.403Z</time>
      </trkpt>
      <trkpt lat="41.82739" lon="32.65471">
        <ele>179.68689</ele>
        <time>2021-08-21T06:04:19.403Z</time>
      </trkpt>
      <trkpt lat="41.82758" lon="32.65378">
        <ele>189.932942</ele>
        <time>2021-08-21T06:05:39.597Z</time>
      </trkpt>
      <trkpt lat="41.82741" lon="32.65302">
        <ele>198.292524</ele>
        <time>2021-08-21T06:06:46.551Z</time>
      </trkpt>
      <trkpt lat="41.82738" lon="32.65201">
        <ele>208.910957</ele>
        <time>2021-08-21T06:08:10.830Z</time>
      </trkpt>
      <trkpt lat="41.82731" lon="32.65171">
        <ele>211.278239</ele>
        <time>2021-08-21T06:08:35.853Z</time>
      </trkpt>
      <trkpt lat="41.82681" lon="32.65055">
        <ele>221.369664</ele>
        <time>2021-08-21T06:10:09.288Z</time>
      </trkpt>
      <trkpt lat="41.82678" lon="32.65035">
        <ele>222.905965</ele>
        <time>2021-08-21T06:10:21.319Z</time>
      </trkpt>
      <trkpt lat="41.82681" lon="32.65014">
        <ele>224.516158</ele>
        <time>2021-08-21T06:10:33.570Z</time>
      </trkpt>
      <trkpt lat="41.82748" lon="32.64835">
        <ele>232.434051</ele>
        <time>2021-08-21T06:12:01.205Z</time>
      </trkpt>
      <trkpt lat="41.82764" lon="32.64781">
        <ele>234.318997</ele>
        <time>2021-08-21T06:12:20.951Z</time>
      </trkpt>
      <trkpt lat="41.82768" lon="32.64744">
        <ele>235.019053</ele>
        <time>2021-08-21T06:12:33.430Z</time>
      </trkpt>
      <trkpt lat="41.82766" lon="32.64713">
        <ele>235.279453</ele>
        <time>2021-08-21T06:12:43.657Z</time>
      </trkpt>
      <trkpt lat="41.82756" lon="32.64681">
        <ele>235.569848</ele>
        <time>2021-08-21T06:12:54.551Z</time>
      </trkpt>
      <trkpt lat="41.82744" lon="32.64661">
        <ele>235.784736</ele>
        <time>2021-08-21T06:13:02.183Z</time>
      </trkpt>
      <trkpt lat="41.82684" lon="32.64626">
        <ele>236.519492</ele>
        <time>2021-08-21T06:13:26.155Z</time>
      </trkpt>
      <trkpt lat="41.82663" lon="32.64605">
        <ele>236.813618</ele>
        <time>2021-08-21T06:13:34.669Z</time>
      </trkpt>
      <trkpt lat="41.82661" lon="32.64593">
        <ele>236.779408</ele>
        <time>2021-08-21T06:13:37.370Z</time>
      </trkpt>
      <trkpt lat="41.82669" lon="32.64567">
        <ele>236.435367</ele>
        <time>2021-08-21T06:13:42.842Z</time>
      </trkpt>
      <trkpt lat="41.82736" lon="32.64433">
        <ele>234.461704</ele>
        <time>2021-08-21T06:14:11.538Z</time>
      </trkpt>
      <trkpt lat="41.82724" lon="32.64389">
        <ele>233.927909</ele>
        <time>2021-08-21T06:14:20.313Z</time>
      </trkpt>
      <trkpt lat="41.82726" lon="32.64374">
        <ele>234.107621</ele>
        <time>2021-08-21T06:14:23.232Z</time>
      </trkpt>
      <trkpt lat="41.82736" lon="32.64356">
        <ele>234.372411</ele>
        <time>2021-08-21T06:14:27.954Z</time>
      </trkpt>
      <trkpt lat="41.8278" lon="32.6431">
        <ele>235.255166</ele>
        <time>2021-08-21T06:14:47.142Z</time>
      </trkpt>
      <trkpt lat="41.82811" lon="32.64269">
        <ele>235.944022</ele>
        <time>2021-08-21T06:15:06.035Z</time>
      </trkpt>
      <trkpt lat="41.82838" lon="32.64186">
        <ele>237.117301</ele>
        <time>2021-08-21T06:15:42.331Z</time>
      </trkpt>
      <trkpt lat="41.82842" lon="32.6416">
        <ele>237.558701</ele>
        <time>2021-08-21T06:15:54.190Z</time>
      </trkpt>
      <trkpt lat="41.82838" lon="32.64109">
        <ele>238.411324</ele>
        <time>2021-08-21T06:16:15.841Z</time>
      </trkpt>
      <trkpt lat="41.82831" lon="32.64089">
        <ele>238.778704</ele>
        <time>2021-08-21T06:16:24.420Z</time>
      </trkpt>
      <trkpt lat="41.82796" lon="32.64038">
        <ele>239.931477</ele>
        <time>2021-08-21T06:16:47.972Z</time>
      </trkpt>
      <trkpt lat="41.82782" lon="32.64006">
        <ele>240.548447</ele>
        <time>2021-08-21T06:16:56.495Z</time>
      </trkpt>
      <trkpt lat="41.8278" lon="32.63984">
        <ele>240.338368</ele>
        <time>2021-08-21T06:17:00.746Z</time>
      </trkpt>
      <trkpt lat="41.82798" lon="32.63908">
        <ele>236.492918</ele>
        <time>2021-08-21T06:17:13.814Z</time>
      </trkpt>
      <trkpt lat="41.82829" lon="32.63838">
        <ele>232.566331</ele>
        <time>2021-08-21T06:17:25.839Z</time>
      </trkpt>
      <trkpt lat="41.8284" lon="32.63727">
        <ele>226.078563</ele>
        <time>2021-08-21T06:17:41.769Z</time>
      </trkpt>
      <trkpt lat="41.82858" lon="32.63679">
        <ele>222.050545</ele>
        <time>2021-08-21T06:17:49.314Z</time>
      </trkpt>
      <trkpt lat="41.82861" lon="32.63637">
        <ele>218.887809</ele>
        <time>2021-08-21T06:17:55.252Z</time>
      </trkpt>
      <trkpt lat="41.82875" lon="32.63595">
        <ele>215.438855</ele>
        <time>2021-08-21T06:18:01.744Z</time>
      </trkpt>
      <trkpt lat="41.82873" lon="32.63561">
        <ele>212.882305</ele>
        <time>2021-08-21T06:18:06.582Z</time>
      </trkpt>
      <trkpt lat="41.82866" lon="32.6355">
        <ele>211.797978</ele>
        <time>2021-08-21T06:18:08.649Z</time>
      </trkpt>
      <trkpt lat="41.82846" lon="32.63544">
        <ele>210.331493</ele>
        <time>2021-08-21T06:18:12.606Z</time>
      </trkpt>
      <trkpt lat="41.82777" lon="32.63607">
        <ele>205.783022</ele>
        <time>2021-08-21T06:18:29.362Z</time>
      </trkpt>
      <trkpt lat="41.82764" lon="32.63645">
        <ele>204.08488</ele>
        <time>2021-08-21T06:18:36.084Z</time>
      </trkpt>
      <trkpt lat="41.82739" lon="32.63691">
        <ele>201.772607</ele>
        <time>2021-08-21T06:18:45.805Z</time>
      </trkpt>
      <trkpt lat="41.82679" lon="32.63725">
        <ele>202.042938</ele>
        <time>2021-08-21T06:19:03.397Z</time>
      </trkpt>
      <trkpt lat="41.82666" lon="32.63742">
        <ele>202.309466</ele>
        <time>2021-08-21T06:19:10.312Z</time>
      </trkpt>
      <trkpt lat="41.82634" lon="32.63836">
        <ele>203.440237</ele>
        <time>2021-08-21T06:19:47.938Z</time>
      </trkpt>
      <trkpt lat="41.82615" lon="32.63854">
        <ele>203.781741</ele>
        <time>2021-08-21T06:20:00.349Z</time>
      </trkpt>
      <trkpt lat="41.82504" lon="32.63928">
        <ele>206.432227</ele>
        <time>2021-08-21T06:21:01.742Z</time>
      </trkpt>
      <trkpt lat="41.82449" lon="32.63956">
        <ele>207.711052</ele>
        <time>2021-08-21T06:21:23.526Z</time>
      </trkpt>
      <trkpt lat="41.82434" lon="32.6395">
        <ele>207.360789</ele>
        <time>2021-08-21T06:21:28.538Z</time>
      </trkpt>
      <trkpt lat="41.82428" lon="32.63935">
        <ele>206.925702</ele>
        <time>2021-08-21T06:21:31.903Z</time>
      </trkpt>
      <trkpt lat="41.8243" lon="32.63907">
        <ele>206.206833</ele>
        <time>2021-08-21T06:21:37.367Z</time>
      </trkpt>
      <trkpt lat="41.82492" lon="32.63781">
        <ele>202.348011</ele>
        <time>2021-08-21T06:22:01.944Z</time>
      </trkpt>
      <trkpt lat="41.82515" lon="32.63705">
        <ele>198.846627</ele>
        <time>2021-08-21T06:22:14.382Z</time>
      </trkpt>
      <trkpt lat="41.82522" lon="32.63645">
        <ele>195.69491</ele>
        <time>2021-08-21T06:22:23.507Z</time>
      </trkpt>
      <trkpt lat="41.82546" lon="32.63561">
        <ele>191.026178</ele>
        <time>2021-08-21T06:22:36.822Z</time>
      </trkpt>
      <trkpt lat="41.82546" lon="32.6353">
        <ele>189.417395</ele>
        <time>2021-08-21T06:22:41.401Z</time>
      </trkpt>
      <trkpt lat="41.82533" lon="32.63464">
        <ele>185.515152</ele>
        <time>2021-08-21T06:22:51.529Z</time>
      </trkpt>
      <trkpt lat="41.82535" lon="32.63447">
        <ele>184.522098</ele>
        <time>2021-08-21T06:22:54.054Z</time>
      </trkpt>
      <trkpt lat="41.82542" lon="32.63435">
        <ele>183.642777</ele>
        <time>2021-08-21T06:22:56.285Z</time>
      </trkpt>
      <trkpt lat="41.82588" lon="32.63395">
        <ele>179.385945</ele>
        <time>2021-08-21T06:23:07.104Z</time>
      </trkpt>
      <trkpt lat="41.826" lon="32.63376">
        <ele>177.97074</ele>
        <time>2021-08-21T06:23:10.710Z</time>
      </trkpt>
      <trkpt lat="41.82598" lon="32.63319">
        <ele>174.676665</ele>
        <time>2021-08-21T06:23:19.161Z</time>
      </trkpt>
      <trkpt lat="41.82624" lon="32.63273">
        <ele>171.196073</ele>
        <time>2021-08-21T06:23:27.639Z</time>
      </trkpt>
      <trkpt lat="41.82635" lon="32.63232">
        <ele>168.581251</ele>
        <time>2021-08-21T06:23:34.004Z</time>
      </trkpt>
      <trkpt lat="41.82634" lon="32.63203">
        <ele>166.822446</ele>
        <time>2021-08-21T06:23:38.269Z</time>
      </trkpt>
      <trkpt lat="41.82659" lon="32.6315">
        <ele>163.071924</ele>
        <time>2021-08-21T06:23:47.346Z</time>
      </trkpt>
      <trkpt lat="41.82659" lon="32.63106">
        <ele>160.438129</ele>
        <time>2021-08-21T06:23:53.714Z</time>
      </trkpt>
      <trkpt lat="41.82668" lon="32.63063">
        <ele>157.671008</ele>
        <time>2021-08-21T06:24:00.337Z</time>
      </trkpt>
      <trkpt lat="41.82662" lon="32.63009">
        <ele>154.360936</ele>
        <time>2021-08-21T06:24:08.291Z</time>
      </trkpt>
      <trkpt lat="41.82689" lon="32.62907">
        <ele>147.722643</ele>
        <time>2021-08-21T06:24:24.113Z</time>
      </trkpt>
      <trkpt lat="41.82686" lon="32.62872">
        <ele>145.606129</ele>
        <time>2021-08-21T06:24:29.139Z</time>
      </trkpt>
      <trkpt lat="41.82676" lon="32.62851">
        <ele>143.969055</ele>
        <time>2021-08-21T06:24:32.804Z</time>
      </trkpt>
      <trkpt lat="41.82645" lon="32.62818">
        <ele>140.448036</ele>
        <time>2021-08-21T06:24:40.703Z</time>
      </trkpt>
      <trkpt lat="41.82636" lon="32.62795">
        <ele>138.723418</ele>
        <time>2021-08-21T06:24:44.554Z</time>
      </trkpt>
      <trkpt lat="41.82628" lon="32.62651">
        <ele>129.029217</ele>
        <time>2021-08-21T06:25:05.315Z</time>
      </trkpt>
      <trkpt lat="41.82632" lon="32.62593">
        <ele>124.005706</ele>
        <time>2021-08-21T06:25:13.587Z</time>
      </trkpt>
      <trkpt lat="41.82681" lon="32.62449">
        <ele>110.461835</ele>
        <time>2021-08-21T06:25:35.489Z</time>
      </trkpt>
      <trkpt lat="41.82745" lon="32.62318">
        <ele>98.993489</ele>
        <time>2021-08-21T06:25:57.534Z</time>
      </trkpt>
      <trkpt lat="41.82749" lon="32.623">
        <ele>97.697752</ele>
        <time>2021-08-21T06:26:00.164Z</time>
      </trkpt>
      <trkpt lat="41.82746" lon="32.62284">
        <ele>96.465736</ele>
        <time>2021-08-21T06:26:02.647Z</time>
      </trkpt>
      <trkpt lat="41.82731" lon="32.62264">
        <ele>94.424189</ele>
        <time>2021-08-21T06:26:06.819Z</time>
      </trkpt>
      <trkpt lat="41.82651" lon="32.62195">
        <ele>88.228142</ele>
        <time>2021-08-21T06:26:25.923Z</time>
      </trkpt>
      <trkpt lat="41.82614" lon="32.62186">
        <ele>86.195278</ele>
        <time>2021-08-21T06:26:34.193Z</time>
      </trkpt>
      <trkpt lat="41.82586" lon="32.62151">
        <ele>84.151844</ele>
        <time>2021-08-21T06:26:42.508Z</time>
      </trkpt>
      <trkpt lat="41.82572" lon="32.62132">
        <ele>83.099447</ele>
        <time>2021-08-21T06:26:46.695Z</time>
      </trkpt>
      <trkpt lat="41.82559" lon="32.62119">
        <ele>82.191029</ele>
        <time>2021-08-21T06:26:50.495Z</time>
      </trkpt>
      <trkpt lat="41.82545" lon="32.62102">
        <ele>80.842891</ele>
        <time>2021-08-21T06:26:54.621Z</time>
      </trkpt>
      <trkpt lat="41.82527" lon="32.62062">
        <ele>78.367952</ele>
        <time>2021-08-21T06:27:01.752Z</time>
      </trkpt>
      <trkpt lat="41.82494" lon="32.6202">
        <ele>75.136929</ele>
        <time>2021-08-21T06:27:10.984Z</time>
      </trkpt>
      <trkpt lat="41.82428" lon="32.62002">
        <ele>70.353397</ele>
        <time>2021-08-21T06:27:24.080Z</time>
      </trkpt>
      <trkpt lat="41.8242" lon="32.61989">
        <ele>69.417901</ele>
        <time>2021-08-21T06:27:26.704Z</time>
      </trkpt>
      <trkpt lat="41.82418" lon="32.6197">
        <ele>67.699098</ele>
        <time>2021-08-21T06:27:29.336Z</time>
      </trkpt>
      <trkpt lat="41.82422" lon="32.61946">
        <ele>65.496208</ele>
        <time>2021-08-21T06:27:32.992Z</time>
      </trkpt>
      <trkpt lat="41.82447" lon="32.61881">
        <ele>58.944143</ele>
        <time>2021-08-21T06:27:43.122Z</time>
      </trkpt>
      <trkpt lat="41.82473" lon="32.61766">
        <ele>48.138258</ele>
        <time>2021-08-21T06:27:59.692Z</time>
      </trkpt>
      <trkpt lat="41.82471" lon="32.61724">
        <ele>44.471433</ele>
        <time>2021-08-21T06:28:05.502Z</time>
      </trkpt>
      <trkpt lat="41.82454" lon="32.61651">
        <ele>37.8202</ele>
        <time>2021-08-21T06:28:16.045Z</time>
      </trkpt>
      <trkpt lat="41.82431" lon="32.61585">
        <ele>31.483874</ele>
        <time>2021-08-21T06:28:26.161Z</time>
      </trkpt>
      <trkpt lat="41.82397" lon="32.61514">
        <ele>25.849227</ele>
        <time>2021-08-21T06:28:38.202Z</time>
      </trkpt>
      <trkpt lat="41.82372" lon="32.6147">
        <ele>23.957186</ele>
        <time>2021-08-21T06:28:46.552Z</time>
      </trkpt>
      <trkpt lat="41.82357" lon="32.61442">
        <ele>22.771257</ele>
        <time>2021-08-21T06:28:52.031Z</time>
      </trkpt>
      <trkpt lat="41.8235" lon="32.61429">
        <ele>22.231452</ele>
        <time>2021-08-21T06:28:54.560Z</time>
      </trkpt>
      <trkpt lat="41.82343" lon="32.61417">
        <ele>21.713459</ele>
        <time>2021-08-21T06:28:57.056Z</time>
      </trkpt>
      <trkpt lat="41.82294" lon="32.61334">
        <ele>19.125913</ele>
        <time>2021-08-21T06:29:16.653Z</time>
      </trkpt>
      <trkpt lat="41.8225" lon="32.61281">
        <ele>21.034101</ele>
        <time>2021-08-21T06:29:45.636Z</time>
      </trkpt>
      <trkpt lat="41.82246" lon="32.61267">
        <ele>21.394704</ele>
        <time>2021-08-21T06:29:51.459Z</time>
      </trkpt>
      <trkpt lat="41.82242" lon="32.61193">
        <ele>23.1791</ele>
        <time>2021-08-21T06:30:22.735Z</time>
      </trkpt>
      <trkpt lat="41.82226" lon="32.61175">
        <ele>23.858848</ele>
        <time>2021-08-21T06:30:34.539Z</time>
      </trkpt>
      <trkpt lat="41.82212" lon="32.6116">
        <ele>24.431013</ele>
        <time>2021-08-21T06:30:45.403Z</time>
      </trkpt>
      <trkpt lat="41.82139" lon="32.61034">
        <ele>30.572558</ele>
        <time>2021-08-21T06:31:58.456Z</time>
      </trkpt>
      <trkpt lat="41.8209" lon="32.60991">
        <ele>33.604105</ele>
        <time>2021-08-21T06:32:33.397Z</time>
      </trkpt>
      <trkpt lat="41.82078" lon="32.60972">
        <ele>34.549546</ele>
        <time>2021-08-21T06:32:44.013Z</time>
      </trkpt>
      <trkpt lat="41.82064" lon="32.60868">
        <ele>38.526013</ele>
        <time>2021-08-21T06:33:30.935Z</time>
      </trkpt>
      <trkpt lat="41.82064" lon="32.60789">
        <ele>41.513893</ele>
        <time>2021-08-21T06:34:06.772Z</time>
      </trkpt>
      <trkpt lat="41.82069" lon="32.60682">
        <ele>45.533595</ele>
        <time>2021-08-21T06:34:53.208Z</time>
      </trkpt>
      <trkpt lat="41.82088" lon="32.60619">
        <ele>48.0723</ele>
        <time>2021-08-21T06:35:22.701Z</time>
      </trkpt>
      <trkpt lat="41.82093" lon="32.60489">
        <ele>53.208485</ele>
        <time>2021-08-21T06:36:21.255Z</time>
      </trkpt>
      <trkpt lat="41.82077" lon="32.60445">
        <ele>55.49764</ele>
        <time>2021-08-21T06:36:44.070Z</time>
      </trkpt>
      <trkpt lat="41.8204" lon="32.60399">
        <ele>58.662299</ele>
        <time>2021-08-21T06:37:16.707Z</time>
      </trkpt>
      <trkpt lat="41.82034" lon="32.60383">
        <ele>59.499789</ele>
        <time>2021-08-21T06:37:25.719Z</time>
      </trkpt>
      <trkpt lat="41.82034" lon="32.60365">
        <ele>60.34142</ele>
        <time>2021-08-21T06:37:34.888Z</time>
      </trkpt>
      <trkpt lat="41.82057" lon="32.60315">
        <ele>63.088777</ele>
        <time>2021-08-21T06:38:06.162Z</time>
      </trkpt>
      <trkpt lat="41.8206" lon="32.60295">
        <ele>64.274568</ele>
        <time>2021-08-21T06:38:17.373Z</time>
      </trkpt>
      <trkpt lat="41.82058" lon="32.60277">
        <ele>65.394381</ele>
        <time>2021-08-21T06:38:27.349Z</time>
      </trkpt>
      <trkpt lat="41.82038" lon="32.60241">
        <ele>68.167313</ele>
        <time>2021-08-21T06:38:52.412Z</time>
      </trkpt>
      <trkpt lat="41.82025" lon="32.60168">
        <ele>72.765563</ele>
        <time>2021-08-21T06:39:35.438Z</time>
      </trkpt>
      <trkpt lat="41.82017" lon="32.60152">
        <ele>73.95113</ele>
        <time>2021-08-21T06:39:46.696Z</time>
      </trkpt>
      <trkpt lat="41.81971" lon="32.60098">
        <ele>79.216081</ele>
        <time>2021-08-21T06:40:34.955Z</time>
      </trkpt>
      <trkpt lat="41.81963" lon="32.60072">
        <ele>81.467188</ele>
        <time>2021-08-21T06:40:51.869Z</time>
      </trkpt>
      <trkpt lat="41.8196" lon="32.5993">
        <ele>92.875763</ele>
        <time>2021-08-21T06:42:35.017Z</time>
      </trkpt>
      <trkpt lat="41.81984" lon="32.5987">
        <ele>98.318954</ele>
        <time>2021-08-21T06:43:20.853Z</time>
      </trkpt>
      <trkpt lat="41.81987" lon="32.59845">
        <ele>100.157913</ele>
        <time>2021-08-21T06:43:39.459Z</time>
      </trkpt>
      <trkpt lat="41.8198" lon="32.5983">
        <ele>101.513767</ele>
        <time>2021-08-21T06:43:50.708Z</time>
      </trkpt>
      <trkpt lat="41.81969" lon="32.59822">
        <ele>102.735018</ele>
        <time>2021-08-21T06:44:01.696Z</time>
      </trkpt>
      <trkpt lat="41.81911" lon="32.59812">
        <ele>108.57265</ele>
        <time>2021-08-21T06:44:54.389Z</time>
      </trkpt>
      <trkpt lat="41.81894" lon="32.59802">
        <ele>110.428788</ele>
        <time>2021-08-21T06:45:11.278Z</time>
      </trkpt>
      <trkpt lat="41.81859" lon="32.59766">
        <ele>114.838688</ele>
        <time>2021-08-21T06:45:50.098Z</time>
      </trkpt>
      <trkpt lat="41.81844" lon="32.59774">
        <ele>116.194437</ele>
        <time>2021-08-21T06:46:01.989Z</time>
      </trkpt>
      <trkpt lat="41.81832" lon="32.59818">
        <ele>118.695797</ele>
        <time>2021-08-21T06:46:24.937Z</time>
      </trkpt>
      <trkpt lat="41.81811" lon="32.59826">
        <ele>120.259579</ele>
        <time>2021-08-21T06:46:39.554Z</time>
      </trkpt>
      <trkpt lat="41.81793" lon="32.59822">
        <ele>121.566568</ele>
        <time>2021-08-21T06:46:51.948Z</time>
      </trkpt>
      <trkpt lat="41.81662" lon="32.59753">
        <ele>132.542215</ele>
        <time>2021-08-21T06:48:29.657Z</time>
      </trkpt>
      <trkpt lat="41.81579" lon="32.59721">
        <ele>140.570914</ele>
        <time>2021-08-21T06:49:39.964Z</time>
      </trkpt>
      <trkpt lat="41.81564" lon="32.59711">
        <ele>142.048398</ele>
        <time>2021-08-21T06:49:54.243Z</time>
      </trkpt>
      <trkpt lat="41.8147" lon="32.59602">
        <ele>157.877462</ele>
        <time>2021-08-21T06:52:00.427Z</time>
      </trkpt>
      <trkpt lat="41.81425" lon="32.59519">
        <ele>168.489372</ele>
        <time>2021-08-21T06:53:31.327Z</time>
      </trkpt>
      <trkpt lat="41.81387" lon="32.59474">
        <ele>176.972452</ele>
        <time>2021-08-21T06:54:32.997Z</time>
      </trkpt>
      <trkpt lat="41.8136" lon="32.59422">
        <ele>185.050471</ele>
        <time>2021-08-21T06:55:28.741Z</time>
      </trkpt>
      <trkpt lat="41.81315" lon="32.5937">
        <ele>195.347439</ele>
        <time>2021-08-21T06:56:49.931Z</time>
      </trkpt>
      <trkpt lat="41.81285" lon="32.59317">
        <ele>204.503992</ele>
        <time>2021-08-21T06:57:57.968Z</time>
      </trkpt>
      <trkpt lat="41.81264" lon="32.59261">
        <ele>214.23008</ele>
        <time>2021-08-21T06:59:00.888Z</time>
      </trkpt>
      <trkpt lat="41.81242" lon="32.5924">
        <ele>219.915619</ele>
        <time>2021-08-21T06:59:44.172Z</time>
      </trkpt>
      <trkpt lat="41.81227" lon="32.5923">
        <ele>223.249718</ele>
        <time>2021-08-21T07:00:08.235Z</time>
      </trkpt>
      <trkpt lat="41.81206" lon="32.59217">
        <ele>228.093645</ele>
        <time>2021-08-21T07:00:44.211Z</time>
      </trkpt>
      <trkpt lat="41.81187" lon="32.59218">
        <ele>231.993838</ele>
        <time>2021-08-21T07:01:13.841Z</time>
      </trkpt>
      <trkpt lat="41.81139" lon="32.59245">
        <ele>242.748035</ele>
        <time>2021-08-21T07:02:32.024Z</time>
      </trkpt>
      <trkpt lat="41.81125" lon="32.59236">
        <ele>246.034589</ele>
        <time>2021-08-21T07:02:55.526Z</time>
      </trkpt>
      <trkpt lat="41.81123" lon="32.59226">
        <ele>247.66835</ele>
        <time>2021-08-21T07:03:08.047Z</time>
      </trkpt>
      <trkpt lat="41.8113" lon="32.59203">
        <ele>251.588517</ele>
        <time>2021-08-21T07:03:36.371Z</time>
      </trkpt>
      <trkpt lat="41.81128" lon="32.59169">
        <ele>256.970196</ele>
        <time>2021-08-21T07:04:14.711Z</time>
      </trkpt>
      <trkpt lat="41.81083" lon="32.59112">
        <ele>270.106154</ele>
        <time>2021-08-21T07:05:44.316Z</time>
      </trkpt>
      <trkpt lat="41.81025" lon="32.59075">
        <ele>282.507452</ele>
        <time>2021-08-21T07:07:21.290Z</time>
      </trkpt>
      <trkpt lat="41.81" lon="32.59071">
        <ele>287.052965</ele>
        <time>2021-08-21T07:07:55.234Z</time>
      </trkpt>
      <trkpt lat="41.80923" lon="32.59127">
        <ele>302.526872</ele>
        <time>2021-08-21T07:09:50.551Z</time>
      </trkpt>
      <trkpt lat="41.8091" lon="32.59126">
        <ele>304.90193</ele>
        <time>2021-08-21T07:10:06.979Z</time>
      </trkpt>
      <trkpt lat="41.80898" lon="32.59116">
        <ele>307.450791</ele>
        <time>2021-08-21T07:10:23.828Z</time>
      </trkpt>
      <trkpt lat="41.80862" lon="32.59053">
        <ele>313.915565</ele>
        <time>2021-08-21T07:11:25.164Z</time>
      </trkpt>
      <trkpt lat="41.80837" lon="32.59034">
        <ele>316.851329</ele>
        <time>2021-08-21T07:11:51.036Z</time>
      </trkpt>
      <trkpt lat="41.80785" lon="32.59034">
        <ele>322.164434</ele>
        <time>2021-08-21T07:12:33.300Z</time>
      </trkpt>
      <trkpt lat="41.8077" lon="32.59027">
        <ele>323.787135</ele>
        <time>2021-08-21T07:12:44.725Z</time>
      </trkpt>
      <trkpt lat="41.80712" lon="32.58972">
        <ele>329.756468</ele>
        <time>2021-08-21T07:13:32.839Z</time>
      </trkpt>
      <trkpt lat="41.80685" lon="32.58893">
        <ele>334.368411</ele>
        <time>2021-08-21T07:14:14.993Z</time>
      </trkpt>
      <trkpt lat="41.80677" lon="32.58875">
        <ele>335.480523</ele>
        <time>2021-08-21T07:14:25.750Z</time>
      </trkpt>
      <trkpt lat="41.80665" lon="32.58866">
        <ele>336.459275</ele>
        <time>2021-08-21T07:14:35.790Z</time>
      </trkpt>
      <trkpt lat="41.80571" lon="32.58883">
        <ele>343.669384</ele>
        <time>2021-08-21T07:15:51.048Z</time>
      </trkpt>
      <trkpt lat="41.80516" lon="32.58918">
        <ele>348.530695</ele>
        <time>2021-08-21T07:16:42.023Z</time>
      </trkpt>
      <trkpt lat="41.80481" lon="32.58926">
        <ele>351.402419</ele>
        <time>2021-08-21T07:17:10.016Z</time>
      </trkpt>
      <trkpt lat="41.8047" lon="32.58911">
        <ele>352.67661</ele>
        <time>2021-08-21T07:17:21.185Z</time>
      </trkpt>
      <trkpt lat="41.80458" lon="32.58874">
        <ele>354.195292</ele>
        <time>2021-08-21T07:17:40.997Z</time>
      </trkpt>
      <trkpt lat="41.80433" lon="32.58835">
        <ele>354.662143</ele>
        <time>2021-08-21T07:18:01.733Z</time>
      </trkpt>
      <trkpt lat="41.80426" lon="32.5881">
        <ele>354.900741</ele>
        <time>2021-08-21T07:18:10.534Z</time>
      </trkpt>
      <trkpt lat="41.80427" lon="32.58744">
        <ele>355.497037</ele>
        <time>2021-08-21T07:18:26.647Z</time>
      </trkpt>
      <trkpt lat="41.80418" lon="32.58728">
        <ele>355.67795</ele>
        <time>2021-08-21T07:18:30.664Z</time>
      </trkpt>
      <trkpt lat="41.8038" lon="32.58711">
        <ele>356.168602</ele>
        <time>2021-08-21T07:18:40.790Z</time>
      </trkpt>
      <trkpt lat="41.80364" lon="32.58687">
        <ele>355.487356</ele>
        <time>2021-08-21T07:18:46.191Z</time>
      </trkpt>
      <trkpt lat="41.80348" lon="32.58613">
        <ele>353.350016</ele>
        <time>2021-08-21T07:18:58.780Z</time>
      </trkpt>
      <trkpt lat="41.80358" lon="32.5853">
        <ele>351.024903</ele>
        <time>2021-08-21T07:19:12.412Z</time>
      </trkpt>
      <trkpt lat="41.80358" lon="32.58511">
        <ele>350.49914</ele>
        <time>2021-08-21T07:19:15.500Z</time>
      </trkpt>
      <trkpt lat="41.80347" lon="32.58484">
        <ele>349.650001</ele>
        <time>2021-08-21T07:19:20.590Z</time>
      </trkpt>
      <trkpt lat="41.80259" lon="32.58416">
        <ele>345.160843</ele>
        <time>2021-08-21T07:19:43.511Z</time>
      </trkpt>
      <trkpt lat="41.80232" lon="32.5838">
        <ele>343.488247</ele>
        <time>2021-08-21T07:19:51.694Z</time>
      </trkpt>
      <trkpt lat="41.80183" lon="32.58367">
        <ele>340.9092</ele>
        <time>2021-08-21T07:20:02.179Z</time>
      </trkpt>
      <trkpt lat="41.80173" lon="32.58359">
        <ele>339.813473</ele>
        <time>2021-08-21T07:20:04.508Z</time>
      </trkpt>
      <trkpt lat="41.80164" lon="32.58348">
        <ele>338.646529</ele>
        <time>2021-08-21T07:20:07.006Z</time>
      </trkpt>
      <trkpt lat="41.80148" lon="32.58296">
        <ele>334.676704</ele>
        <time>2021-08-21T07:20:15.246Z</time>
      </trkpt>
      <trkpt lat="41.80134" lon="32.58268">
        <ele>332.340368</ele>
        <time>2021-08-21T07:20:19.988Z</time>
      </trkpt>
      <trkpt lat="41.80114" lon="32.58255">
        <ele>330.257373</ele>
        <time>2021-08-21T07:20:24.171Z</time>
      </trkpt>
      <trkpt lat="41.80102" lon="32.58254">
        <ele>329.120838</ele>
        <time>2021-08-21T07:20:26.429Z</time>
      </trkpt>
      <trkpt lat="41.80035" lon="32.58269">
        <ele>321.687551</ele>
        <time>2021-08-21T07:20:39.122Z</time>
      </trkpt>
      <trkpt lat="41.80006" lon="32.58262">
        <ele>317.489084</ele>
        <time>2021-08-21T07:20:44.498Z</time>
      </trkpt>
      <trkpt lat="41.79993" lon="32.58249">
        <ele>315.160673</ele>
        <time>2021-08-21T07:20:47.477Z</time>
      </trkpt>
      <trkpt lat="41.79983" lon="32.5822">
        <ele>311.763276</ele>
        <time>2021-08-21T07:20:51.812Z</time>
      </trkpt>
      <trkpt lat="41.79977" lon="32.5815">
        <ele>304.231972</ele>
        <time>2021-08-21T07:21:01.318Z</time>
      </trkpt>
      <trkpt lat="41.79934" lon="32.58052">
        <ele>292.239725</ele>
        <time>2021-08-21T07:21:16.777Z</time>
      </trkpt>
      <trkpt lat="41.79912" lon="32.58014">
        <ele>287.221656</ele>
        <time>2021-08-21T07:21:23.350Z</time>
      </trkpt>
      <trkpt lat="41.79893" lon="32.58008">
        <ele>284.490804</ele>
        <time>2021-08-21T07:21:26.912Z</time>
      </trkpt>
      <trkpt lat="41.79885" lon="32.58014">
        <ele>283.208503</ele>
        <time>2021-08-21T07:21:28.604Z</time>
      </trkpt>
      <trkpt lat="41.79879" lon="32.58029">
        <ele>281.433066</ele>
        <time>2021-08-21T07:21:30.938Z</time>
      </trkpt>
      <trkpt lat="41.79875" lon="32.58137">
        <ele>270.663072</ele>
        <time>2021-08-21T07:21:45.810Z</time>
      </trkpt>
      <trkpt lat="41.79864" lon="32.58155">
        <ele>268.5923</ele>
        <time>2021-08-21T07:21:49.025Z</time>
      </trkpt>
      <trkpt lat="41.79855" lon="32.58159">
        <ele>267.468888</ele>
        <time>2021-08-21T07:21:50.763Z</time>
      </trkpt>
      <trkpt lat="41.79849" lon="32.58141">
        <ele>265.758171</ele>
        <time>2021-08-21T07:21:53.446Z</time>
      </trkpt>
      <trkpt lat="41.79846" lon="32.58091">
        <ele>261.304131</ele>
        <time>2021-08-21T07:22:00.506Z</time>
      </trkpt>
      <trkpt lat="41.79811" lon="32.57991">
        <ele>251.46034</ele>
        <time>2021-08-21T07:22:16.040Z</time>
      </trkpt>
      <trkpt lat="41.79771" lon="32.57925">
        <ele>244.524574</ele>
        <time>2021-08-21T07:22:27.808Z</time>
      </trkpt>
      <trkpt lat="41.79764" lon="32.57899">
        <ele>242.240876</ele>
        <time>2021-08-21T07:22:31.711Z</time>
      </trkpt>
      <trkpt lat="41.7977" lon="32.57872">
        <ele>239.990965</ele>
        <time>2021-08-21T07:22:35.572Z</time>
      </trkpt>
      <trkpt lat="41.79786" lon="32.57844">
        <ele>237.065029</ele>
        <time>2021-08-21T07:22:40.582Z</time>
      </trkpt>
      <trkpt lat="41.79786" lon="32.57835">
        <ele>236.325352</ele>
        <time>2021-08-21T07:22:41.858Z</time>
      </trkpt>
      <trkpt lat="41.79774" lon="32.57823">
        <ele>234.67527</ele>
        <time>2021-08-21T07:22:44.680Z</time>
      </trkpt>
      <trkpt lat="41.79768" lon="32.57825">
        <ele>233.993694</ele>
        <time>2021-08-21T07:22:45.845Z</time>
      </trkpt>
      <trkpt lat="41.79734" lon="32.5789">
        <ele>227.59226</ele>
        <time>2021-08-21T07:22:57.086Z</time>
      </trkpt>
      <trkpt lat="41.79729" lon="32.57938">
        <ele>223.711227</ele>
        <time>2021-08-21T07:23:04.023Z</time>
      </trkpt>
      <trkpt lat="41.79731" lon="32.58094">
        <ele>211.494414</ele>
        <time>2021-08-21T07:23:25.847Z</time>
      </trkpt>
      <trkpt lat="41.79722" lon="32.58131">
        <ele>208.848768</ele>
        <time>2021-08-21T07:23:31.429Z</time>
      </trkpt>
      <trkpt lat="41.79711" lon="32.58136">
        <ele>207.814318</ele>
        <time>2021-08-21T07:23:33.528Z</time>
      </trkpt>
      <trkpt lat="41.797" lon="32.58124">
        <ele>206.544755</ele>
        <time>2021-08-21T07:23:36.192Z</time>
      </trkpt>
      <trkpt lat="41.79643" lon="32.57961">
        <ele>194.888402</ele>
        <time>2021-08-21T07:24:02.501Z</time>
      </trkpt>
      <trkpt lat="41.7964" lon="32.57934">
        <ele>193.499511</ele>
        <time>2021-08-21T07:24:06.685Z</time>
      </trkpt>
      <trkpt lat="41.79658" lon="32.57827">
        <ele>187.910216</ele>
        <time>2021-08-21T07:24:24.056Z</time>
      </trkpt>
      <trkpt lat="41.79657" lon="32.57659">
        <ele>176.004566</ele>
        <time>2021-08-21T07:24:48.541Z</time>
      </trkpt>
      <trkpt lat="41.79638" lon="32.57519">
        <ele>163.817826</ele>
        <time>2021-08-21T07:25:08.260Z</time>
      </trkpt>
      <trkpt lat="41.79625" lon="32.57496">
        <ele>160.20399</ele>
        <time>2021-08-21T07:25:12.072Z</time>
      </trkpt>
      <trkpt lat="41.79592" lon="32.57477">
        <ele>153.976798</ele>
        <time>2021-08-21T07:25:18.507Z</time>
      </trkpt>
      <trkpt lat="41.7955" lon="32.57404">
        <ele>142.097804</ele>
        <time>2021-08-21T07:25:30.788Z</time>
      </trkpt>
      <trkpt lat="41.79547" lon="32.57387">
        <ele>139.805474</ele>
        <time>2021-08-21T07:25:33.149Z</time>
      </trkpt>
      <trkpt lat="41.79516" lon="32.57383">
        <ele>134.324563</ele>
        <time>2021-08-21T07:25:39.069Z</time>
      </trkpt>
      <trkpt lat="41.79431" lon="32.57339">
        <ele>117.964404</ele>
        <time>2021-08-21T07:25:56.041Z</time>
      </trkpt>
      <trkpt lat="41.79349" lon="32.57258">
        <ele>99.581786</ele>
        <time>2021-08-21T07:26:15.082Z</time>
      </trkpt>
      <trkpt lat="41.79329" lon="32.57255">
        <ele>96.031919</ele>
        <time>2021-08-21T07:26:19.008Z</time>
      </trkpt>
      <trkpt lat="41.79315" lon="32.57242">
        <ele>93.204982</ele>
        <time>2021-08-21T07:26:22.147Z</time>
      </trkpt>
      <trkpt lat="41.79302" lon="32.57201">
        <ele>87.545109</ele>
        <time>2021-08-21T07:26:28.435Z</time>
      </trkpt>
      <trkpt lat="41.79273" lon="32.57142">
        <ele>78.604409</ele>
        <time>2021-08-21T07:26:38.356Z</time>
      </trkpt>
      <trkpt lat="41.79259" lon="32.57104">
        <ele>73.248499</ele>
        <time>2021-08-21T07:26:44.325Z</time>
      </trkpt>
      <trkpt lat="41.7914" lon="32.57161">
        <ele>56.633365</ele>
        <time>2021-08-21T07:27:08.383Z</time>
      </trkpt>
      <trkpt lat="41.79117" lon="32.57119">
        <ele>51.81748</ele>
        <time>2021-08-21T07:27:16.098Z</time>
      </trkpt>
      <trkpt lat="41.79119" lon="32.57042">
        <ele>46.283557</ele>
        <time>2021-08-21T07:27:27.914Z</time>
      </trkpt>
      <trkpt lat="41.79116" lon="32.57006">
        <ele>45.03389</ele>
        <time>2021-08-21T07:27:33.633Z</time>
      </trkpt>
      <trkpt lat="41.79107" lon="32.56983">
        <ele>44.120517</ele>
        <time>2021-08-21T07:27:37.884Z</time>
      </trkpt>
      <trkpt lat="41.79099" lon="32.56968">
        <ele>43.47163</ele>
        <time>2021-08-21T07:27:41.036Z</time>
      </trkpt>
      <trkpt lat="41.79048" lon="32.56951">
        <ele>41.047162</ele>
        <time>2021-08-21T07:27:53.162Z</time>
      </trkpt>
      <trkpt lat="41.79017" lon="32.56906">
        <ele>38.904226</ele>
        <time>2021-08-21T07:28:04.711Z</time>
      </trkpt>
      <trkpt lat="41.78996" lon="32.56886">
        <ele>38.552561</ele>
        <time>2021-08-21T07:28:11.526Z</time>
      </trkpt>
      <trkpt lat="41.78986" lon="32.56862">
        <ele>38.300291</ele>
        <time>2021-08-21T07:28:17.193Z</time>
      </trkpt>
      <trkpt lat="41.78969" lon="32.5686">
        <ele>38.095272</ele>
        <time>2021-08-21T07:28:21.915Z</time>
      </trkpt>
      <trkpt lat="41.78956" lon="32.56872">
        <ele>37.89997</ele>
        <time>2021-08-21T07:28:26.464Z</time>
      </trkpt>
      <trkpt lat="41.78941" lon="32.56877">
        <ele>37.709643</ele>
        <time>2021-08-21T07:28:30.929Z</time>
      </trkpt>
      <trkpt lat="41.78917" lon="32.56855">
        <ele>37.362412</ele>
        <time>2021-08-21T07:28:39.215Z</time>
      </trkpt>
      <trkpt lat="41.78855" lon="32.56821">
        <ele>36.550689</ele>
        <time>2021-08-21T07:28:58.511Z</time>
      </trkpt>
      <trkpt lat="41.78815" lon="32.5683">
        <ele>36.066996</ele>
        <time>2021-08-21T07:29:10.013Z</time>
      </trkpt>
      <trkpt lat="41.78765" lon="32.56809">
        <ele>35.438743</ele>
        <time>2021-08-21T07:29:24.855Z</time>
      </trkpt>
      <trkpt lat="41.78698" lon="32.56804">
        <ele>34.632134</ele>
        <time>2021-08-21T07:29:43.255Z</time>
      </trkpt>
      <trkpt lat="41.78687" lon="32.56815">
        <ele>34.451402</ele>
        <time>2021-08-21T07:29:46.685Z</time>
      </trkpt>
      <trkpt lat="41.78671" lon="32.56849">
        <ele>33.808994</ele>
        <time>2021-08-21T07:29:54.704Z</time>
      </trkpt>
      <trkpt lat="41.78646" lon="32.56859">
        <ele>33.277106</ele>
        <time>2021-08-21T07:30:01.223Z</time>
      </trkpt>
      <trkpt lat="41.78619" lon="32.56857">
        <ele>32.704826</ele>
        <time>2021-08-21T07:30:08.154Z</time>
      </trkpt>
      <trkpt lat="41.7858" lon="32.56828">
        <ele>31.772361</ele>
        <time>2021-08-21T07:30:19.492Z</time>
      </trkpt>
      <trkpt lat="41.78504" lon="32.56817">
        <ele>30.241062</ele>
        <time>2021-08-21T07:30:38.728Z</time>
      </trkpt>
      <trkpt lat="41.78489" lon="32.56803">
        <ele>29.916645</ele>
        <time>2021-08-21T07:30:43.131Z</time>
      </trkpt>
      <trkpt lat="41.78482" lon="32.56784">
        <ele>29.632089</ele>
        <time>2021-08-21T07:30:47.048Z</time>
      </trkpt>
      <trkpt lat="41.78452" lon="32.56772">
        <ele>29.057419</ele>
        <time>2021-08-21T07:30:55.155Z</time>
      </trkpt>
      <trkpt lat="41.78421" lon="32.56748">
        <ele>28.406768</ele>
        <time>2021-08-21T07:31:04.501Z</time>
      </trkpt>
      <trkpt lat="41.78406" lon="32.56756">
        <ele>28.110249</ele>
        <time>2021-08-21T07:31:08.756Z</time>
      </trkpt>
      <trkpt lat="41.7837" lon="32.56748">
        <ele>27.459636</ele>
        <time>2021-08-21T07:31:18.807Z</time>
      </trkpt>
      <trkpt lat="41.78334" lon="32.56734">
        <ele>27.306927</ele>
        <time>2021-08-21T07:31:29.741Z</time>
      </trkpt>
      <trkpt lat="41.78325" lon="32.56731">
        <ele>27.268519</ele>
        <time>2021-08-21T07:31:32.906Z</time>
      </trkpt>
      <trkpt lat="41.78277" lon="32.56696">
        <ele>27.04798</ele>
        <time>2021-08-21T07:31:49.333Z</time>
      </trkpt>
      <trkpt lat="41.7826" lon="32.5669">
        <ele>26.976668</ele>
        <time>2021-08-21T07:31:55.177Z</time>
      </trkpt>
      <trkpt lat="41.78223" lon="32.56715">
        <ele>26.810695</ele>
        <time>2021-08-21T07:32:08.407Z</time>
      </trkpt>
      <trkpt lat="41.7816" lon="32.56727">
        <ele>26.518318</ele>
        <time>2021-08-21T07:32:29.151Z</time>
      </trkpt>
      <trkpt lat="41.78094" lon="32.5665">
        <ele>26.093495</ele>
        <time>2021-08-21T07:32:55.798Z</time>
      </trkpt>
      <trkpt lat="41.78064" lon="32.56607">
        <ele>25.880515</ele>
        <time>2021-08-21T07:33:08.389Z</time>
      </trkpt>
      <trkpt lat="41.78046" lon="32.56591">
        <ele>25.665118</ele>
        <time>2021-08-21T07:33:14.482Z</time>
      </trkpt>
      <trkpt lat="41.78007" lon="32.56574">
        <ele>25.228734</ele>
        <time>2021-08-21T07:33:25.619Z</time>
      </trkpt>
      <trkpt lat="41.77989" lon="32.56574">
        <ele>25.033618</ele>
        <time>2021-08-21T07:33:30.522Z</time>
      </trkpt>
      <trkpt lat="41.7796" lon="32.56595">
        <ele>24.683383</ele>
        <time>2021-08-21T07:33:39.364Z</time>
      </trkpt>
      <trkpt lat="41.77939" lon="32.566">
        <ele>24.454457</ele>
        <time>2021-08-21T07:33:45.087Z</time>
      </trkpt>
      <trkpt lat="41.77921" lon="32.56595">
        <ele>24.254811</ele>
        <time>2021-08-21T07:33:50.286Z</time>
      </trkpt>
      <trkpt lat="41.77855" lon="32.56532">
        <ele>24.67412</ele>
        <time>2021-08-21T07:34:14.789Z</time>
      </trkpt>
      <trkpt lat="41.77847" lon="32.565">
        <ele>25.027874</ele>
        <time>2021-08-21T07:34:23.504Z</time>
      </trkpt>
      <trkpt lat="41.77834" lon="32.56528">
        <ele>25.383379</ele>
        <time>2021-08-21T07:34:32.429Z</time>
      </trkpt>
      <trkpt lat="41.77811" lon="32.56605">
        <ele>26.262902</ele>
        <time>2021-08-21T07:34:59.898Z</time>
      </trkpt>
      <trkpt lat="41.77811" lon="32.56622">
        <ele>26.443352</ele>
        <time>2021-08-21T07:35:06.884Z</time>
      </trkpt>
      <trkpt lat="41.77824" lon="32.56667">
        <ele>27.989329</ele>
        <time>2021-08-21T07:35:27.347Z</time>
      </trkpt>
      <trkpt lat="41.77823" lon="32.56682">
        <ele>28.513944</ele>
        <time>2021-08-21T07:35:32.775Z</time>
      </trkpt>
      <trkpt lat="41.77805" lon="32.56748">
        <ele>30.99834</ele>
        <time>2021-08-21T07:36:06.605Z</time>
      </trkpt>
      <trkpt lat="41.77792" lon="32.56776">
        <ele>32.141279</ele>
        <time>2021-08-21T07:36:19.336Z</time>
      </trkpt>
      <trkpt lat="41.77785" lon="32.56786">
        <ele>32.628736</ele>
        <time>2021-08-21T07:36:27.978Z</time>
      </trkpt>
      <trkpt lat="41.77778" lon="32.56789">
        <ele>32.974218</ele>
        <time>2021-08-21T07:36:31.988Z</time>
      </trkpt>
      <trkpt lat="41.77766" lon="32.56786">
        <ele>33.538694</ele>
        <time>2021-08-21T07:36:37.936Z</time>
      </trkpt>
      <trkpt lat="41.77692" lon="32.56767">
        <ele>36.002409</ele>
        <time>2021-08-21T07:37:21.176Z</time>
      </trkpt>
      <trkpt lat="41.77665" lon="32.56765">
        <ele>36.627412</ele>
        <time>2021-08-21T07:37:36.567Z</time>
      </trkpt>
      <trkpt lat="41.77651" lon="32.56773">
        <ele>36.968446</ele>
        <time>2021-08-21T07:37:43.876Z</time>
      </trkpt>
      <trkpt lat="41.77612" lon="32.56811">
        <ele>38.047031</ele>
        <time>2021-08-21T07:38:03.404Z</time>
      </trkpt>
      <trkpt lat="41.77593" lon="32.56816">
        <ele>38.486035</ele>
        <time>2021-08-21T07:38:09.588Z</time>
      </trkpt>
      <trkpt lat="41.77564" lon="32.56796">
        <ele>38.859325</ele>
        <time>2021-08-21T07:38:18.855Z</time>
      </trkpt>
      <trkpt lat="41.77526" lon="32.56742">
        <ele>37.372066</ele>
        <time>2021-08-21T07:38:32.452Z</time>
      </trkpt>
      <trkpt lat="41.77513" lon="32.56731">
        <ele>36.974995</ele>
        <time>2021-08-21T07:38:35.940Z</time>
      </trkpt>
      <trkpt lat="41.77457" lon="32.56704">
        <ele>35.385479</ele>
        <time>2021-08-21T07:38:49.313Z</time>
      </trkpt>
      <trkpt lat="41.77414" lon="32.56666">
        <ele>34.124955</ele>
        <time>2021-08-21T07:39:00.778Z</time>
      </trkpt>
      <trkpt lat="41.77388" lon="32.5665">
        <ele>33.759799</ele>
        <time>2021-08-21T07:39:06.998Z</time>
      </trkpt>
      <trkpt lat="41.77307" lon="32.56639">
        <ele>32.695915</ele>
        <time>2021-08-21T07:39:25.647Z</time>
      </trkpt>
      <trkpt lat="41.77242" lon="32.56678">
        <ele>32.669776</ele>
        <time>2021-08-21T07:39:54.638Z</time>
      </trkpt>
      <trkpt lat="41.7717" lon="32.56705">
        <ele>38.087437</ele>
        <time>2021-08-21T07:40:39.435Z</time>
      </trkpt>
      <trkpt lat="41.77166" lon="32.56726">
        <ele>39.302908</ele>
        <time>2021-08-21T07:40:54.295Z</time>
      </trkpt>
      <trkpt lat="41.77122" lon="32.56842">
        <ele>46.862336</ele>
        <time>2021-08-21T07:42:18.321Z</time>
      </trkpt>
      <trkpt lat="41.77109" lon="32.56859">
        <ele>48.615874</ele>
        <time>2021-08-21T07:42:36.357Z</time>
      </trkpt>
      <trkpt lat="41.77082" lon="32.5687">
        <ele>51.331908</ele>
        <time>2021-08-21T07:43:04.845Z</time>
      </trkpt>
      <trkpt lat="41.77053" lon="32.56895">
        <ele>54.722994</ele>
        <time>2021-08-21T07:43:36.262Z</time>
      </trkpt>
      <trkpt lat="41.77039" lon="32.56941">
        <ele>58.324435</ele>
        <time>2021-08-21T07:44:08.599Z</time>
      </trkpt>
      <trkpt lat="41.77022" lon="32.56964">
        <ele>60.669894</ele>
        <time>2021-08-21T07:44:29.102Z</time>
      </trkpt>
      <trkpt lat="41.76971" lon="32.57001">
        <ele>63.613634</ele>
        <time>2021-08-21T07:45:08.610Z</time>
      </trkpt>
      <trkpt lat="41.76918" lon="32.57004">
        <ele>65.014796</ele>
        <time>2021-08-21T07:45:35.949Z</time>
      </trkpt>
      <trkpt lat="41.76895" lon="32.57019">
        <ele>65.678081</ele>
        <time>2021-08-21T07:45:45.427Z</time>
      </trkpt>
      <trkpt lat="41.76883" lon="32.57023">
        <ele>66.01371</ele>
        <time>2021-08-21T07:45:50.299Z</time>
      </trkpt>
      <trkpt lat="41.76845" lon="32.57016">
        <ele>67.010566</ele>
        <time>2021-08-21T07:46:01.156Z</time>
      </trkpt>
      <trkpt lat="41.76822" lon="32.57024">
        <ele>67.049405</ele>
        <time>2021-08-21T07:46:07.065Z</time>
      </trkpt>
      <trkpt lat="41.768" lon="32.57069">
        <ele>66.156079</ele>
        <time>2021-08-21T07:46:16.922Z</time>
      </trkpt>
      <trkpt lat="41.76791" lon="32.57078">
        <ele>65.91964</ele>
        <time>2021-08-21T07:46:19.409Z</time>
      </trkpt>
      <trkpt lat="41.76742" lon="32.57089">
        <ele>64.829606</ele>
        <time>2021-08-21T07:46:30.473Z</time>
      </trkpt>
      <trkpt lat="41.76704" lon="32.57111">
        <ele>63.905409</ele>
        <time>2021-08-21T07:46:40.229Z</time>
      </trkpt>
      <trkpt lat="41.76656" lon="32.57178">
        <ele>64.45727</ele>
        <time>2021-08-21T07:46:59.059Z</time>
      </trkpt>
      <trkpt lat="41.76587" lon="32.57224">
        <ele>66.379477</ele>
        <time>2021-08-21T07:47:27.750Z</time>
      </trkpt>
      <trkpt lat="41.76476" lon="32.57281">
        <ele>71.637609</ele>
        <time>2021-08-21T07:48:52.688Z</time>
      </trkpt>
      <trkpt lat="41.76454" lon="32.5732">
        <ele>73.977956</ele>
        <time>2021-08-21T07:49:19.842Z</time>
      </trkpt>
      <trkpt lat="41.76444" lon="32.57326">
        <ele>74.709387</ele>
        <time>2021-08-21T07:49:30.810Z</time>
      </trkpt>
      <trkpt lat="41.76431" lon="32.57329">
        <ele>75.519793</ele>
        <time>2021-08-21T07:49:39.250Z</time>
      </trkpt>
      <trkpt lat="41.76411" lon="32.57328">
        <ele>76.847482</ele>
        <time>2021-08-21T07:49:54.297Z</time>
      </trkpt>
      <trkpt lat="41.76274" lon="32.57251">
        <ele>79.783646</ele>
        <time>2021-08-21T07:51:05.117Z</time>
      </trkpt>
      <trkpt lat="41.76243" lon="32.57242">
        <ele>79.932056</ele>
        <time>2021-08-21T07:51:12.337Z</time>
      </trkpt>
      <trkpt lat="41.76228" lon="32.57244">
        <ele>79.998986</ele>
        <time>2021-08-21T07:51:15.316Z</time>
      </trkpt>
      <trkpt lat="41.7621" lon="32.57248">
        <ele>80.083247</ele>
        <time>2021-08-21T07:51:19.614Z</time>
      </trkpt>
      <trkpt lat="41.76197" lon="32.57252">
        <ele>79.870081</ele>
        <time>2021-08-21T07:51:22.516Z</time>
      </trkpt>
      <trkpt lat="41.76179" lon="32.57255">
        <ele>79.339304</ele>
        <time>2021-08-21T07:51:26.632Z</time>
      </trkpt>
      <trkpt lat="41.76068" lon="32.57226">
        <ele>76.098158</ele>
        <time>2021-08-21T07:51:51.933Z</time>
      </trkpt>
      <trkpt lat="41.76031" lon="32.57207">
        <ele>74.987852</ele>
        <time>2021-08-21T07:52:02.461Z</time>
      </trkpt>
      <trkpt lat="41.75998" lon="32.57206">
        <ele>76.25106</ele>
        <time>2021-08-21T07:52:11.090Z</time>
      </trkpt>
      <trkpt lat="41.75975" lon="32.57214">
        <ele>77.183245</ele>
        <time>2021-08-21T07:52:18.056Z</time>
      </trkpt>
      <trkpt lat="41.75928" lon="32.5727">
        <ele>79.665739</ele>
        <time>2021-08-21T07:52:54.506Z</time>
      </trkpt>
      <trkpt lat="41.75883" lon="32.57306">
        <ele>81.728065</ele>
        <time>2021-08-21T07:53:29.725Z</time>
      </trkpt>
      <trkpt lat="41.75863" lon="32.57313">
        <ele>83.604467</ele>
        <time>2021-08-21T07:53:47.793Z</time>
      </trkpt>
      <trkpt lat="41.75843" lon="32.57317">
        <ele>85.94466</ele>
        <time>2021-08-21T07:54:01.993Z</time>
      </trkpt>
      <trkpt lat="41.7584" lon="32.57317">
        <ele>86.385777</ele>
        <time>2021-08-21T07:54:07.990Z</time>
      </trkpt>
      <trkpt lat="41.75799" lon="32.57334">
        <ele>91.607855</ele>
        <time>2021-08-21T07:54:46.406Z</time>
      </trkpt>
      <trkpt lat="41.75761" lon="32.57364">
        <ele>96.911811</ele>
        <time>2021-08-21T07:55:28.655Z</time>
      </trkpt>
      <trkpt lat="41.75685" lon="32.57401">
        <ele>107.36206</ele>
        <time>2021-08-21T07:57:07.603Z</time>
      </trkpt>
      <trkpt lat="41.75682" lon="32.57409">
        <ele>108.416238</ele>
        <time>2021-08-21T07:57:14.233Z</time>
      </trkpt>
      <trkpt lat="41.75688" lon="32.5742">
        <ele>109.899474</ele>
        <time>2021-08-21T07:57:24.048Z</time>
      </trkpt>
      <trkpt lat="41.75754" lon="32.5745">
        <ele>120.459301</ele>
        <time>2021-08-21T07:58:42.826Z</time>
      </trkpt>
      <trkpt lat="41.75758" lon="32.57454">
        <ele>121.188025</ele>
        <time>2021-08-21T07:58:48.602Z</time>
      </trkpt>
      <trkpt lat="41.75752" lon="32.57462">
        <ele>122.460085</ele>
        <time>2021-08-21T07:59:02.061Z</time>
      </trkpt>
      <trkpt lat="41.7571" lon="32.57472">
        <ele>128.839748</ele>
        <time>2021-08-21T07:59:50.220Z</time>
      </trkpt>
      <trkpt lat="41.75655" lon="32.5751">
        <ele>137.89604</ele>
        <time>2021-08-21T08:01:03.436Z</time>
      </trkpt>
      <trkpt lat="41.75639" lon="32.57512">
        <ele>140.13651</ele>
        <time>2021-08-21T08:01:21.759Z</time>
      </trkpt>
      <trkpt lat="41.75572" lon="32.57501">
        <ele>149.810713</ele>
        <time>2021-08-21T08:02:38.553Z</time>
      </trkpt>
      <trkpt lat="41.75531" lon="32.57506">
        <ele>155.74582</ele>
        <time>2021-08-21T08:03:22.477Z</time>
      </trkpt>
      <trkpt lat="41.75507" lon="32.57485">
        <ele>159.592904</ele>
        <time>2021-08-21T08:03:52.941Z</time>
      </trkpt>
      <trkpt lat="41.75469" lon="32.5748">
        <ele>164.670535</ele>
        <time>2021-08-21T08:04:34.239Z</time>
      </trkpt>
      <trkpt lat="41.75446" lon="32.57471">
        <ele>167.76122</ele>
        <time>2021-08-21T08:04:59.217Z</time>
      </trkpt>
      <trkpt lat="41.75431" lon="32.57472">
        <ele>169.798217</ele>
        <time>2021-08-21T08:05:15.712Z</time>
      </trkpt>
      <trkpt lat="41.75407" lon="32.57483">
        <ele>173.041602</ele>
        <time>2021-08-21T08:05:41.866Z</time>
      </trkpt>
      <trkpt lat="41.75313" lon="32.57499">
        <ele>185.491554</ele>
        <time>2021-08-21T08:07:22.121Z</time>
      </trkpt>
      <trkpt lat="41.7528" lon="32.57502">
        <ele>189.801299</ele>
        <time>2021-08-21T08:07:56.271Z</time>
      </trkpt>
      <trkpt lat="41.75208" lon="32.57495">
        <ele>199.234738</ele>
        <time>2021-08-21T08:09:13.207Z</time>
      </trkpt>
      <trkpt lat="41.75204" lon="32.57498">
        <ele>199.903323</ele>
        <time>2021-08-21T08:09:17.979Z</time>
      </trkpt>
      <trkpt lat="41.75204" lon="32.57505">
        <ele>200.59224</ele>
        <time>2021-08-21T08:09:23.032Z</time>
      </trkpt>
      <trkpt lat="41.75248" lon="32.5754">
        <ele>207.293304</ele>
        <time>2021-08-21T08:10:19.213Z</time>
      </trkpt>
      <trkpt lat="41.75292" lon="32.5759">
        <ele>214.976714</ele>
        <time>2021-08-21T08:11:18.329Z</time>
      </trkpt>
      <trkpt lat="41.75297" lon="32.57599">
        <ele>216.153753</ele>
        <time>2021-08-21T08:11:28.259Z</time>
      </trkpt>
      <trkpt lat="41.75286" lon="32.57599">
        <ele>217.634784</ele>
        <time>2021-08-21T08:11:41.771Z</time>
      </trkpt>
      <trkpt lat="41.75257" lon="32.57589">
        <ele>221.630363</ele>
        <time>2021-08-21T08:12:12.244Z</time>
      </trkpt>
      <trkpt lat="41.75184" lon="32.5758">
        <ele>231.480562</ele>
        <time>2021-08-21T08:13:31.661Z</time>
      </trkpt>
      <trkpt lat="41.75082" lon="32.57578">
        <ele>245.134914</ele>
        <time>2021-08-21T08:15:20.336Z</time>
      </trkpt>
      <trkpt lat="41.7504" lon="32.57588">
        <ele>250.830015</ele>
        <time>2021-08-21T08:16:05.327Z</time>
      </trkpt>
      <trkpt lat="41.74992" lon="32.57579">
        <ele>256.551228</ele>
        <time>2021-08-21T08:16:57.981Z</time>
      </trkpt>
      <trkpt lat="41.74971" lon="32.57565">
        <ele>259.207181</ele>
        <time>2021-08-21T08:17:22.019Z</time>
      </trkpt>
      <trkpt lat="41.74957" lon="32.57538">
        <ele>261.927202</ele>
        <time>2021-08-21T08:17:45.978Z</time>
      </trkpt>
      <trkpt lat="41.74958" lon="32.57485">
        <ele>266.351541</ele>
        <time>2021-08-21T08:18:22.580Z</time>
      </trkpt>
      <trkpt lat="41.74949" lon="32.57442">
        <ele>270.113883</ele>
        <time>2021-08-21T08:18:51.910Z</time>
      </trkpt>
      <trkpt lat="41.74944" lon="32.57433">
        <ele>271.039392</ele>
        <time>2021-08-21T08:18:58.821Z</time>
      </trkpt>
      <trkpt lat="41.74938" lon="32.57434">
        <ele>271.786605</ele>
        <time>2021-08-21T08:19:04.452Z</time>
      </trkpt>
      <trkpt lat="41.74912" lon="32.57522">
        <ele>275.336172</ele>
        <time>2021-08-21T08:19:56.305Z</time>
      </trkpt>
      <trkpt lat="41.74924" lon="32.57616">
        <ele>278.586877</ele>
        <time>2021-08-21T08:20:34.626Z</time>
      </trkpt>
      <trkpt lat="41.74932" lon="32.5764">
        <ele>279.49011</ele>
        <time>2021-08-21T08:20:41.901Z</time>
      </trkpt>
      <trkpt lat="41.74961" lon="32.57682">
        <ele>280.455531</ele>
        <time>2021-08-21T08:20:56.270Z</time>
      </trkpt>
      <trkpt lat="41.74997" lon="32.57784">
        <ele>279.91897</ele>
        <time>2021-08-21T08:21:19.689Z</time>
      </trkpt>
      <trkpt lat="41.75" lon="32.57801">
        <ele>279.840551</ele>
        <time>2021-08-21T08:21:22.754Z</time>
      </trkpt>
      <trkpt lat="41.74979" lon="32.57795">
        <ele>279.708416</ele>
        <time>2021-08-21T08:21:28.372Z</time>
      </trkpt>
      <trkpt lat="41.74935" lon="32.57787">
        <ele>279.449239</ele>
        <time>2021-08-21T08:21:40.101Z</time>
      </trkpt>
      <trkpt lat="41.74921" lon="32.57776">
        <ele>279.586822</ele>
        <time>2021-08-21T08:21:44.621Z</time>
      </trkpt>
      <trkpt lat="41.74849" lon="32.57666">
        <ele>280.466568</ele>
        <time>2021-08-21T08:22:20.606Z</time>
      </trkpt>
      <trkpt lat="41.74821" lon="32.57647">
        <ele>280.720898</ele>
        <time>2021-08-21T08:22:34.765Z</time>
      </trkpt>
      <trkpt lat="41.74746" lon="32.57566">
        <ele>284.830774</ele>
        <time>2021-08-21T08:23:27.925Z</time>
      </trkpt>
      <trkpt lat="41.74708" lon="32.57552">
        <ele>286.870572</ele>
        <time>2021-08-21T08:23:52.533Z</time>
      </trkpt>
      <trkpt lat="41.74691" lon="32.5754">
        <ele>287.896347</ele>
        <time>2021-08-21T08:24:05.728Z</time>
      </trkpt>
      <trkpt lat="41.74652" lon="32.57483">
        <ele>291.191021</ele>
        <time>2021-08-21T08:24:46.632Z</time>
      </trkpt>
      <trkpt lat="41.74624" lon="32.57465">
        <ele>293.56283</ele>
        <time>2021-08-21T08:25:09.428Z</time>
      </trkpt>
      <trkpt lat="41.74613" lon="32.57449">
        <ele>294.850253</ele>
        <time>2021-08-21T08:25:22.153Z</time>
      </trkpt>
      <trkpt lat="41.74583" lon="32.57362">
        <ele>300.301989</ele>
        <time>2021-08-21T08:26:17.016Z</time>
      </trkpt>
      <trkpt lat="41.74527" lon="32.57292">
        <ele>306.310789</ele>
        <time>2021-08-21T08:27:16.243Z</time>
      </trkpt>
      <trkpt lat="41.74493" lon="32.57213">
        <ele>311.668889</ele>
        <time>2021-08-21T08:28:08.803Z</time>
      </trkpt>
      <trkpt lat="41.74481" lon="32.57195">
        <ele>313.109846</ele>
        <time>2021-08-21T08:28:22.770Z</time>
      </trkpt>
      <trkpt lat="41.74467" lon="32.57185">
        <ele>314.322636</ele>
        <time>2021-08-21T08:28:34.414Z</time>
      </trkpt>
      <trkpt lat="41.74392" lon="32.57168">
        <ele>320.385069</ele>
        <time>2021-08-21T08:29:32.756Z</time>
      </trkpt>
      <trkpt lat="41.74377" lon="32.57169">
        <ele>321.56276</ele>
        <time>2021-08-21T08:29:44.197Z</time>
      </trkpt>
      <trkpt lat="41.74353" lon="32.57187">
        <ele>323.699562</ele>
        <time>2021-08-21T08:30:04.984Z</time>
      </trkpt>
      <trkpt lat="41.74334" lon="32.57186">
        <ele>325.261617</ele>
        <time>2021-08-21T08:30:20.062Z</time>
      </trkpt>
      <trkpt lat="41.74305" lon="32.57156">
        <ele>328.146962</ele>
        <time>2021-08-21T08:30:48.306Z</time>
      </trkpt>
      <trkpt lat="41.74287" lon="32.57069">
        <ele>333.481592</ele>
        <time>2021-08-21T08:31:40.135Z</time>
      </trkpt>
      <trkpt lat="41.7427" lon="32.57046">
        <ele>335.481683</ele>
        <time>2021-08-21T08:31:58.761Z</time>
      </trkpt>
      <trkpt lat="41.74159" lon="32.57017">
        <ele>344.705956</ele>
        <time>2021-08-21T08:33:25.738Z</time>
      </trkpt>
      <trkpt lat="41.74134" lon="32.5702">
        <ele>346.760692</ele>
        <time>2021-08-21T08:33:45.595Z</time>
      </trkpt>
      <trkpt lat="41.74109" lon="32.57038">
        <ele>349.634108</ele>
        <time>2021-08-21T08:34:08.606Z</time>
      </trkpt>
      <trkpt lat="41.74093" lon="32.57038">
        <ele>351.36945</ele>
        <time>2021-08-21T08:34:22.144Z</time>
      </trkpt>
      <trkpt lat="41.74038" lon="32.56992">
        <ele>358.267761</ele>
        <time>2021-08-21T08:35:19.312Z</time>
      </trkpt>
      <trkpt lat="41.74001" lon="32.56931">
        <ele>364.61814</ele>
        <time>2021-08-21T08:36:16.780Z</time>
      </trkpt>
      <trkpt lat="41.73972" lon="32.569">
        <ele>369.049855</ele>
        <time>2021-08-21T08:36:55.894Z</time>
      </trkpt>
      <trkpt lat="41.73953" lon="32.56889">
        <ele>371.690749</ele>
        <time>2021-08-21T08:37:19.467Z</time>
      </trkpt>
      <trkpt lat="41.73901" lon="32.56876">
        <ele>378.584304</ele>
        <time>2021-08-21T08:38:19.841Z</time>
      </trkpt>
      <trkpt lat="41.73869" lon="32.56856">
        <ele>383.2467</ele>
        <time>2021-08-21T08:38:58.884Z</time>
      </trkpt>
      <trkpt lat="41.73842" lon="32.56847">
        <ele>386.821408</ele>
        <time>2021-08-21T08:39:27.684Z</time>
      </trkpt>
      <trkpt lat="41.73807" lon="32.56849">
        <ele>390.76144</ele>
        <time>2021-08-21T08:40:03.443Z</time>
      </trkpt>
      <trkpt lat="41.73769" lon="32.56871">
        <ele>393.024765</ele>
        <time>2021-08-21T08:40:39.744Z</time>
      </trkpt>
      <trkpt lat="41.73756" lon="32.56879">
        <ele>393.834418</ele>
        <time>2021-08-21T08:40:50.274Z</time>
      </trkpt>
      <trkpt lat="41.73744" lon="32.56878">
        <ele>394.444758</ele>
        <time>2021-08-21T08:40:57.904Z</time>
      </trkpt>
      <trkpt lat="41.73691" lon="32.56826">
        <ele>398.039576</ele>
        <time>2021-08-21T08:41:35.927Z</time>
      </trkpt>
      <trkpt lat="41.73689" lon="32.56799">
        <ele>399.124508</ele>
        <time>2021-08-21T08:41:45.163Z</time>
      </trkpt>
      <trkpt lat="41.73692" lon="32.56769">
        <ele>399.929165</ele>
        <time>2021-08-21T08:41:51.002Z</time>
      </trkpt>
      <trkpt lat="41.73694" lon="32.56736">
        <ele>399.290328</ele>
        <time>2021-08-21T08:41:57.522Z</time>
      </trkpt>
      <trkpt lat="41.73678" lon="32.56689">
        <ele>398.302168</ele>
        <time>2021-08-21T08:42:06.858Z</time>
      </trkpt>
      <trkpt lat="41.73678" lon="32.56642">
        <ele>397.403752</ele>
        <time>2021-08-21T08:42:15.178Z</time>
      </trkpt>
      <trkpt lat="41.73646" lon="32.56611">
        <ele>396.396942</ele>
        <time>2021-08-21T08:42:24.181Z</time>
      </trkpt>
      <trkpt lat="41.73638" lon="32.5657">
        <ele>395.578334</ele>
        <time>2021-08-21T08:42:31.531Z</time>
      </trkpt>
      <trkpt lat="41.73609" lon="32.56536">
        <ele>394.982076</ele>
        <time>2021-08-21T08:42:40.830Z</time>
      </trkpt>
      <trkpt lat="41.73604" lon="32.5651">
        <ele>394.701969</ele>
        <time>2021-08-21T08:42:46.073Z</time>
      </trkpt>
      <trkpt lat="41.73608" lon="32.56426">
        <ele>393.841568</ele>
        <time>2021-08-21T08:43:03.717Z</time>
      </trkpt>
      <trkpt lat="41.73623" lon="32.56396">
        <ele>393.46247</ele>
        <time>2021-08-21T08:43:12.474Z</time>
      </trkpt>
      <trkpt lat="41.73624" lon="32.5638">
        <ele>393.302823</ele>
        <time>2021-08-21T08:43:16.146Z</time>
      </trkpt>
      <trkpt lat="41.73616" lon="32.56353">
        <ele>393.000351</ele>
        <time>2021-08-21T08:43:23.011Z</time>
      </trkpt>
      <trkpt lat="41.7359" lon="32.56291">
        <ele>391.967397</ele>
        <time>2021-08-21T08:43:39.404Z</time>
      </trkpt>
      <trkpt lat="41.73575" lon="32.5624">
        <ele>391.170304</ele>
        <time>2021-08-21T08:43:51.020Z</time>
      </trkpt>
      <trkpt lat="41.73572" lon="32.56204">
        <ele>390.637764</ele>
        <time>2021-08-21T08:43:58.199Z</time>
      </trkpt>
      <trkpt lat="41.73591" lon="32.56088">
        <ele>387.596452</ele>
        <time>2021-08-21T08:44:19.144Z</time>
      </trkpt>
      <trkpt lat="41.73594" lon="32.56051">
        <ele>385.702115</ele>
        <time>2021-08-21T08:44:25.151Z</time>
      </trkpt>
      <trkpt lat="41.73561" lon="32.55973">
        <ele>381.146254</ele>
        <time>2021-08-21T08:44:38.993Z</time>
      </trkpt>
      <trkpt lat="41.73554" lon="32.55935">
        <ele>379.170618</ele>
        <time>2021-08-21T08:44:44.926Z</time>
      </trkpt>
      <trkpt lat="41.73545" lon="32.55824">
        <ele>373.027326</ele>
        <time>2021-08-21T08:45:02.001Z</time>
      </trkpt>
      <trkpt lat="41.73536" lon="32.55792">
        <ele>371.064852</ele>
        <time>2021-08-21T08:45:07.252Z</time>
      </trkpt>
      <trkpt lat="41.73498" lon="32.55706">
        <ele>365.335891</ele>
        <time>2021-08-21T08:45:22.765Z</time>
      </trkpt>
      <trkpt lat="41.73488" lon="32.55696">
        <ele>364.364565</ele>
        <time>2021-08-21T08:45:25.452Z</time>
      </trkpt>
      <trkpt lat="41.73399" lon="32.5568">
        <ele>359.49223</ele>
        <time>2021-08-21T08:45:44.699Z</time>
      </trkpt>
      <trkpt lat="41.73297" lon="32.55627">
        <ele>353.974353</ele>
        <time>2021-08-21T08:46:09.550Z</time>
      </trkpt>
      <trkpt lat="41.73278" lon="32.55602">
        <ele>352.913422</ele>
        <time>2021-08-21T08:46:15.755Z</time>
      </trkpt>
      <trkpt lat="41.73262" lon="32.55552">
        <ele>351.298794</ele>
        <time>2021-08-21T08:46:25.264Z</time>
      </trkpt>
      <trkpt lat="41.73177" lon="32.55477">
        <ele>347.277204</ele>
        <time>2021-08-21T08:46:48.702Z</time>
      </trkpt>
      <trkpt lat="41.73143" lon="32.55433">
        <ele>345.384119</ele>
        <time>2021-08-21T08:46:59.687Z</time>
      </trkpt>
      <trkpt lat="41.73129" lon="32.5541">
        <ele>344.515855</ele>
        <time>2021-08-21T08:47:04.694Z</time>
      </trkpt>
      <trkpt lat="41.73124" lon="32.55383">
        <ele>343.690317</ele>
        <time>2021-08-21T08:47:09.472Z</time>
      </trkpt>
      <trkpt lat="41.73126" lon="32.55279">
        <ele>340.614889</ele>
        <time>2021-08-21T08:47:27.279Z</time>
      </trkpt>
      <trkpt lat="41.73122" lon="32.55258">
        <ele>339.959783</ele>
        <time>2021-08-21T08:47:31.108Z</time>
      </trkpt>
      <trkpt lat="41.7309" lon="32.55203">
        <ele>338.757102</ele>
        <time>2021-08-21T08:47:43.368Z</time>
      </trkpt>
      <trkpt lat="41.73053" lon="32.55161">
        <ele>337.642179</ele>
        <time>2021-08-21T08:47:55.546Z</time>
      </trkpt>
      <trkpt lat="41.7302" lon="32.55109">
        <ele>336.501355</ele>
        <time>2021-08-21T08:48:08.836Z</time>
      </trkpt>
      <trkpt lat="41.72977" lon="32.55071">
        <ele>335.811944</ele>
        <time>2021-08-21T08:48:23.429Z</time>
      </trkpt>
      <trkpt lat="41.72963" lon="32.55043">
        <ele>335.811525</ele>
        <time>2021-08-21T08:48:31.251Z</time>
      </trkpt>
      <trkpt lat="41.72944" lon="32.54942">
        <ele>335.810231</ele>
        <time>2021-08-21T08:48:58.582Z</time>
      </trkpt>
      <trkpt lat="41.72944" lon="32.54912">
        <ele>335.809864</ele>
        <time>2021-08-21T08:49:07.035Z</time>
      </trkpt>
      <trkpt lat="41.72938" lon="32.54895">
        <ele>335.809624</ele>
        <time>2021-08-21T08:49:12.450Z</time>
      </trkpt>
      <trkpt lat="41.72892" lon="32.54861">
        <ele>335.151039</ele>
        <time>2021-08-21T08:49:29.823Z</time>
      </trkpt>
      <trkpt lat="41.72827" lon="32.5484">
        <ele>333.836692</ele>
        <time>2021-08-21T08:49:47.704Z</time>
      </trkpt>
      <trkpt lat="41.72801" lon="32.548">
        <ele>333.049807</ele>
        <time>2021-08-21T08:49:57.579Z</time>
      </trkpt>
      <trkpt lat="41.72786" lon="32.54777">
        <ele>332.601213</ele>
        <time>2021-08-21T08:50:03.407Z</time>
      </trkpt>
      <trkpt lat="41.72783" lon="32.54782">
        <ele>332.499473</ele>
        <time>2021-08-21T08:50:04.365Z</time>
      </trkpt>
      <trkpt lat="41.72755" lon="32.54785">
        <ele>331.386211</ele>
        <time>2021-08-21T08:50:10.805Z</time>
      </trkpt>
      <trkpt lat="41.72679" lon="32.54806">
        <ele>327.088072</ele>
        <time>2021-08-21T08:50:26.720Z</time>
      </trkpt>
      <trkpt lat="41.72664" lon="32.54801">
        <ele>326.229234</ele>
        <time>2021-08-21T08:50:29.816Z</time>
      </trkpt>
      <trkpt lat="41.7265" lon="32.54779">
        <ele>325.007001</ele>
        <time>2021-08-21T08:50:34.220Z</time>
      </trkpt>
      <trkpt lat="41.72614" lon="32.54692">
        <ele>321.311416</ele>
        <time>2021-08-21T08:50:49.494Z</time>
      </trkpt>
      <trkpt lat="41.72568" lon="32.54598">
        <ele>318.077653</ele>
        <time>2021-08-21T08:51:07.535Z</time>
      </trkpt>
      <trkpt lat="41.72449" lon="32.54428">
        <ele>314.525022</ele>
        <time>2021-08-21T08:51:50.619Z</time>
      </trkpt>
      <trkpt lat="41.7243" lon="32.5441">
        <ele>314.338771</ele>
        <time>2021-08-21T08:51:58.148Z</time>
      </trkpt>
      <trkpt lat="41.72353" lon="32.54374">
        <ele>314.346944</ele>
        <time>2021-08-21T08:52:26.705Z</time>
      </trkpt>
      <trkpt lat="41.72311" lon="32.5434">
        <ele>315.115678</ele>
        <time>2021-08-21T08:52:46.480Z</time>
      </trkpt>
      <trkpt lat="41.72276" lon="32.54322">
        <ele>315.711899</ele>
        <time>2021-08-21T08:53:02.785Z</time>
      </trkpt>
      <trkpt lat="41.72245" lon="32.54298">
        <ele>316.264764</ele>
        <time>2021-08-21T08:53:18.146Z</time>
      </trkpt>
      <trkpt lat="41.72231" lon="32.54266">
        <ele>316.696396</ele>
        <time>2021-08-21T08:53:30.218Z</time>
      </trkpt>
      <trkpt lat="41.72193" lon="32.54087">
        <ele>316.801073</ele>
        <time>2021-08-21T08:54:21.143Z</time>
      </trkpt>
      <trkpt lat="41.72135" lon="32.54004">
        <ele>314.481724</ele>
        <time>2021-08-21T08:54:40.965Z</time>
      </trkpt>
      <trkpt lat="41.72117" lon="32.53999">
        <ele>313.41567</ele>
        <time>2021-08-21T08:54:45.096Z</time>
      </trkpt>
      <trkpt lat="41.72096" lon="32.53998">
        <ele>312.192726</ele>
        <time>2021-08-21T08:54:49.500Z</time>
      </trkpt>
      <trkpt lat="41.72062" lon="32.54003">
        <ele>310.240067</ele>
        <time>2021-08-21T08:54:56.487Z</time>
      </trkpt>
      <trkpt lat="41.72031" lon="32.53996">
        <ele>308.435499</ele>
        <time>2021-08-21T08:55:02.794Z</time>
      </trkpt>
      <trkpt lat="41.72012" lon="32.53999">
        <ele>307.342809</ele>
        <time>2021-08-21T08:55:06.605Z</time>
      </trkpt>
      <trkpt lat="41.71968" lon="32.54021">
        <ele>302.955131</ele>
        <time>2021-08-21T08:55:15.537Z</time>
      </trkpt>
      <trkpt lat="41.71838" lon="32.53984">
        <ele>288.147982</ele>
        <time>2021-08-21T08:55:40.386Z</time>
      </trkpt>
      <trkpt lat="41.71821" lon="32.53967">
        <ele>285.779486</ele>
        <time>2021-08-21T08:55:44.340Z</time>
      </trkpt>
      <trkpt lat="41.71814" lon="32.5394">
        <ele>283.394457</ele>
        <time>2021-08-21T08:55:48.252Z</time>
      </trkpt>
      <trkpt lat="41.71804" lon="32.53966">
        <ele>280.956927</ele>
        <time>2021-08-21T08:55:52.475Z</time>
      </trkpt>
      <trkpt lat="41.7178" lon="32.53963">
        <ele>278.28334</ele>
        <time>2021-08-21T08:55:57.156Z</time>
      </trkpt>
      <trkpt lat="41.71742" lon="32.53932">
        <ele>273.19311</ele>
        <time>2021-08-21T08:56:05.995Z</time>
      </trkpt>
      <trkpt lat="41.71729" lon="32.53911">
        <ele>270.953163</ele>
        <time>2021-08-21T08:56:09.882Z</time>
      </trkpt>
      <trkpt lat="41.71717" lon="32.53904">
        <ele>269.429847</ele>
        <time>2021-08-21T08:56:12.566Z</time>
      </trkpt>
      <trkpt lat="41.71685" lon="32.53907">
        <ele>266.053272</ele>
        <time>2021-08-21T08:56:18.725Z</time>
      </trkpt>
      <trkpt lat="41.71662" lon="32.53879">
        <ele>263.723561</ele>
        <time>2021-08-21T08:56:25.139Z</time>
      </trkpt>
      <trkpt lat="41.71635" lon="32.53858">
        <ele>261.442716</ele>
        <time>2021-08-21T08:56:31.468Z</time>
      </trkpt>
      <trkpt lat="41.71574" lon="32.5387">
        <ele>256.940978</ele>
        <time>2021-08-21T08:56:43.802Z</time>
      </trkpt>
      <trkpt lat="41.71528" lon="32.53877">
        <ele>253.558379</ele>
        <time>2021-08-21T08:56:53.462Z</time>
      </trkpt>
      <trkpt lat="41.71515" lon="32.53872">
        <ele>252.732096</ele>
        <time>2021-08-21T08:56:56.260Z</time>
      </trkpt>
      <trkpt lat="41.71507" lon="32.53845">
        <ele>251.696597</ele>
        <time>2021-08-21T08:57:00.876Z</time>
      </trkpt>
      <trkpt lat="41.71503" lon="32.53822">
        <ele>250.870036</ele>
        <time>2021-08-21T08:57:04.400Z</time>
      </trkpt>
      <trkpt lat="41.71493" lon="32.53804">
        <ele>250.024734</ele>
        <time>2021-08-21T08:57:08.278Z</time>
      </trkpt>
      <trkpt lat="41.71477" lon="32.53779">
        <ele>248.867703</ele>
        <time>2021-08-21T08:57:13.373Z</time>
      </trkpt>
      <trkpt lat="41.71465" lon="32.53743">
        <ele>247.444734</ele>
        <time>2021-08-21T08:57:19.729Z</time>
      </trkpt>
      <trkpt lat="41.71464" lon="32.53727">
        <ele>246.894674</ele>
        <time>2021-08-21T08:57:22.327Z</time>
      </trkpt>
      <trkpt lat="41.71461" lon="32.537">
        <ele>245.888913</ele>
        <time>2021-08-21T08:57:26.720Z</time>
      </trkpt>
      <trkpt lat="41.7146" lon="32.53604">
        <ele>242.459943</ele>
        <time>2021-08-21T08:57:42.500Z</time>
      </trkpt>
      <trkpt lat="41.71455" lon="32.53572">
        <ele>241.331474</ele>
        <time>2021-08-21T08:57:47.644Z</time>
      </trkpt>
      <trkpt lat="41.71442" lon="32.53534">
        <ele>239.840419</ele>
        <time>2021-08-21T08:57:54.130Z</time>
      </trkpt>
      <trkpt lat="41.71375" lon="32.53393">
        <ele>234.409787</ele>
        <time>2021-08-21T08:58:20.596Z</time>
      </trkpt>
      <trkpt lat="41.71359" lon="32.53373">
        <ele>233.619115</ele>
        <time>2021-08-21T08:58:25.387Z</time>
      </trkpt>
      <trkpt lat="41.71353" lon="32.53365">
        <ele>233.315093</ele>
        <time>2021-08-21T08:58:27.392Z</time>
      </trkpt>
      <trkpt lat="41.71287" lon="32.53242">
        <ele>229.417706</ele>
        <time>2021-08-21T08:58:53.457Z</time>
      </trkpt>
      <trkpt lat="41.71258" lon="32.53206">
        <ele>228.565767</ele>
        <time>2021-08-21T08:59:03.075Z</time>
      </trkpt>
      <trkpt lat="41.71221" lon="32.53189">
        <ele>227.731534</ele>
        <time>2021-08-21T08:59:13.278Z</time>
      </trkpt>
      <trkpt lat="41.71196" lon="32.53195">
        <ele>227.185985</ele>
        <time>2021-08-21T08:59:19.846Z</time>
      </trkpt>
      <trkpt lat="41.71164" lon="32.53204">
        <ele>226.48633</ele>
        <time>2021-08-21T08:59:27.979Z</time>
      </trkpt>
      <trkpt lat="41.71143" lon="32.532">
        <ele>226.042798</ele>
        <time>2021-08-21T08:59:32.927Z</time>
      </trkpt>
      <trkpt lat="41.7111" lon="32.53167">
        <ele>224.89026</ele>
        <time>2021-08-21T08:59:42.635Z</time>
      </trkpt>
      <trkpt lat="41.71098" lon="32.53147">
        <ele>224.268109</ele>
        <time>2021-08-21T08:59:47.072Z</time>
      </trkpt>
      <trkpt lat="41.71089" lon="32.53095">
        <ele>222.976646</ele>
        <time>2021-08-21T08:59:56.078Z</time>
      </trkpt>
      <trkpt lat="41.71077" lon="32.53063">
        <ele>222.117258</ele>
        <time>2021-08-21T09:00:02.014Z</time>
      </trkpt>
      <trkpt lat="41.71065" lon="32.53045">
        <ele>221.528291</ele>
        <time>2021-08-21T09:00:06.056Z</time>
      </trkpt>
      <trkpt lat="41.71012" lon="32.53001">
        <ele>219.366135</ele>
        <time>2021-08-21T09:00:20.024Z</time>
      </trkpt>
      <trkpt lat="41.70976" lon="32.5296">
        <ele>217.082567</ele>
        <time>2021-08-21T09:00:30.918Z</time>
      </trkpt>
      <trkpt lat="41.70919" lon="32.52917">
        <ele>213.980605</ele>
        <time>2021-08-21T09:00:44.663Z</time>
      </trkpt>
      <trkpt lat="41.70901" lon="32.52893">
        <ele>212.741156</ele>
        <time>2021-08-21T09:00:50.285Z</time>
      </trkpt>
      <trkpt lat="41.70886" lon="32.52849">
        <ele>210.852263</ele>
        <time>2021-08-21T09:00:57.675Z</time>
      </trkpt>
      <trkpt lat="41.70873" lon="32.52805">
        <ele>207.995382</ele>
        <time>2021-08-21T09:01:04.749Z</time>
      </trkpt>
      <trkpt lat="41.70862" lon="32.528">
        <ele>206.996322</ele>
        <time>2021-08-21T09:01:07.057Z</time>
      </trkpt>
      <trkpt lat="41.70829" lon="32.52792">
        <ele>204.339057</ele>
        <time>2021-08-21T09:01:13.509Z</time>
      </trkpt>
      <trkpt lat="41.70801" lon="32.52801">
        <ele>201.937338</ele>
        <time>2021-08-21T09:01:19.333Z</time>
      </trkpt>
      <trkpt lat="41.70785" lon="32.52822">
        <ele>200.110199</ele>
        <time>2021-08-21T09:01:23.639Z</time>
      </trkpt>
      <trkpt lat="41.70773" lon="32.52857">
        <ele>197.806245</ele>
        <time>2021-08-21T09:01:29.052Z</time>
      </trkpt>
      <trkpt lat="41.70761" lon="32.52917">
        <ele>194.010217</ele>
        <time>2021-08-21T09:01:37.983Z</time>
      </trkpt>
      <trkpt lat="41.70753" lon="32.52923">
        <ele>193.227633</ele>
        <time>2021-08-21T09:01:39.836Z</time>
      </trkpt>
      <trkpt lat="41.70644" lon="32.52872">
        <ele>183.845703</ele>
        <time>2021-08-21T09:02:02.448Z</time>
      </trkpt>
      <trkpt lat="41.70586" lon="32.5279">
        <ele>178.621574</ele>
        <time>2021-08-21T09:02:19.710Z</time>
      </trkpt>
      <trkpt lat="41.70573" lon="32.52784">
        <ele>177.845247</ele>
        <time>2021-08-21T09:02:22.669Z</time>
      </trkpt>
      <trkpt lat="41.70515" lon="32.52804">
        <ele>174.577352</ele>
        <time>2021-08-21T09:02:35.320Z</time>
      </trkpt>
      <trkpt lat="41.7044" lon="32.52783">
        <ele>170.172225</ele>
        <time>2021-08-21T09:02:51.727Z</time>
      </trkpt>
      <trkpt lat="41.70328" lon="32.52721">
        <ele>162.751821</ele>
        <time>2021-08-21T09:03:16.473Z</time>
      </trkpt>
      <trkpt lat="41.70319" lon="32.52715">
        <ele>162.151177</ele>
        <time>2021-08-21T09:03:18.405Z</time>
      </trkpt>
      <trkpt lat="41.70284" lon="32.5269">
        <ele>159.340679</ele>
        <time>2021-08-21T09:03:26.245Z</time>
      </trkpt>
      <trkpt lat="41.70265" lon="32.52667">
        <ele>157.275938</ele>
        <time>2021-08-21T09:03:31.424Z</time>
      </trkpt>
      <trkpt lat="41.70238" lon="32.52594">
        <ele>152.520205</ele>
        <time>2021-08-21T09:03:43.132Z</time>
      </trkpt>
      <trkpt lat="41.70207" lon="32.52549">
        <ele>148.876804</ele>
        <time>2021-08-21T09:03:52.043Z</time>
      </trkpt>
      <trkpt lat="41.70146" lon="32.52496">
        <ele>144.242463</ele>
        <time>2021-08-21T09:04:06.588Z</time>
      </trkpt>
      <trkpt lat="41.7011" lon="32.52475">
        <ele>142.035175</ele>
        <time>2021-08-21T09:04:15.060Z</time>
      </trkpt>
      <trkpt lat="41.70012" lon="32.52376">
        <ele>136.153444</ele>
        <time>2021-08-21T09:04:42.671Z</time>
      </trkpt>
      <trkpt lat="41.69925" lon="32.52329">
        <ele>133.866457</ele>
        <time>2021-08-21T09:05:06.780Z</time>
      </trkpt>
      <trkpt lat="41.69897" lon="32.52306">
        <ele>133.061367</ele>
        <time>2021-08-21T09:05:15.632Z</time>
      </trkpt>
      <trkpt lat="41.69887" lon="32.52279">
        <ele>132.529448</ele>
        <time>2021-08-21T09:05:21.504Z</time>
      </trkpt>
      <trkpt lat="41.69879" lon="32.52266">
        <ele>132.320918</ele>
        <time>2021-08-21T09:05:25.005Z</time>
      </trkpt>
      <trkpt lat="41.69859" lon="32.52253">
        <ele>131.981466</ele>
        <time>2021-08-21T09:05:30.883Z</time>
      </trkpt>
      <trkpt lat="41.6982" lon="32.52235">
        <ele>131.329597</ele>
        <time>2021-08-21T09:05:42.201Z</time>
      </trkpt>
      <trkpt lat="41.6979" lon="32.5219">
        <ele>130.62538</ele>
        <time>2021-08-21T09:05:54.343Z</time>
      </trkpt>
      <trkpt lat="41.69771" lon="32.52122">
        <ele>129.772866</ele>
        <time>2021-08-21T09:06:08.866Z</time>
      </trkpt>
      <trkpt lat="41.69766" lon="32.52053">
        <ele>128.900335</ele>
        <time>2021-08-21T09:06:22.416Z</time>
      </trkpt>
      <trkpt lat="41.69744" lon="32.51953">
        <ele>127.572391</ele>
        <time>2021-08-21T09:06:43.098Z</time>
      </trkpt>
      <trkpt lat="41.69723" lon="32.5191">
        <ele>126.922329</ele>
        <time>2021-08-21T09:06:53.183Z</time>
      </trkpt>
      <trkpt lat="41.69678" lon="32.51825">
        <ele>125.566707</ele>
        <time>2021-08-21T09:07:13.776Z</time>
      </trkpt>
      <trkpt lat="41.69669" lon="32.51799">
        <ele>125.195293</ele>
        <time>2021-08-21T09:07:19.474Z</time>
      </trkpt>
      <trkpt lat="41.69675" lon="32.51724">
        <ele>124.212169</ele>
        <time>2021-08-21T09:07:34.378Z</time>
      </trkpt>
      <trkpt lat="41.6962" lon="32.51645">
        <ele>122.695427</ele>
        <time>2021-08-21T09:07:55.669Z</time>
      </trkpt>
      <trkpt lat="41.69578" lon="32.51552">
        <ele>121.077044</ele>
        <time>2021-08-21T09:08:16.238Z</time>
      </trkpt>
      <trkpt lat="41.69544" lon="32.51534">
        <ele>120.34465</ele>
        <time>2021-08-21T09:08:25.584Z</time>
      </trkpt>
      <trkpt lat="41.69513" lon="32.51489">
        <ele>119.569507</ele>
        <time>2021-08-21T09:08:37.629Z</time>
      </trkpt>
      <trkpt lat="41.69442" lon="32.51457">
        <ele>118.579186</ele>
        <time>2021-08-21T09:08:57.310Z</time>
      </trkpt>
      <trkpt lat="41.69343" lon="32.51359">
        <ele>117.282396</ele>
        <time>2021-08-21T09:09:32.966Z</time>
      </trkpt>
      <trkpt lat="41.6933" lon="32.5134">
        <ele>117.190263</ele>
        <time>2021-08-21T09:09:38.886Z</time>
      </trkpt>
      <trkpt lat="41.69324" lon="32.5129">
        <ele>117.005442</ele>
        <time>2021-08-21T09:09:50.912Z</time>
      </trkpt>
      <trkpt lat="41.6933" lon="32.51223">
        <ele>116.763096</ele>
        <time>2021-08-21T09:10:06.557Z</time>
      </trkpt>
      <trkpt lat="41.69344" lon="32.51193">
        <ele>116.632886</ele>
        <time>2021-08-21T09:10:14.945Z</time>
      </trkpt>
      <trkpt lat="41.69372" lon="32.51159">
        <ele>116.165528</ele>
        <time>2021-08-21T09:10:25.825Z</time>
      </trkpt>
      <trkpt lat="41.69376" lon="32.51137">
        <ele>115.930122</ele>
        <time>2021-08-21T09:10:30.565Z</time>
      </trkpt>
      <trkpt lat="41.69362" lon="32.51053">
        <ele>115.059553</ele>
        <time>2021-08-21T09:10:47.938Z</time>
      </trkpt>
      <trkpt lat="41.6934" lon="32.51011">
        <ele>114.543457</ele>
        <time>2021-08-21T09:10:58.043Z</time>
      </trkpt>
      <trkpt lat="41.69298" lon="32.50967">
        <ele>113.702362</ele>
        <time>2021-08-21T09:11:11.992Z</time>
      </trkpt>
      <trkpt lat="41.69282" lon="32.50924">
        <ele>113.067774</ele>
        <time>2021-08-21T09:11:21.316Z</time>
      </trkpt>
      <trkpt lat="41.69209" lon="32.5087">
        <ele>111.572235</ele>
        <time>2021-08-21T09:11:43.211Z</time>
      </trkpt>
      <trkpt lat="41.6916" lon="32.50853">
        <ele>110.632626</ele>
        <time>2021-08-21T09:11:56.692Z</time>
      </trkpt>
      <trkpt lat="41.69144" lon="32.50842">
        <ele>110.275701</ele>
        <time>2021-08-21T09:12:01.517Z</time>
      </trkpt>
      <trkpt lat="41.69114" lon="32.50801">
        <ele>109.432005</ele>
        <time>2021-08-21T09:12:12.716Z</time>
      </trkpt>
      <trkpt lat="41.69095" lon="32.50745">
        <ele>108.529999</ele>
        <time>2021-08-21T09:12:24.514Z</time>
      </trkpt>
      <trkpt lat="41.69077" lon="32.50698">
        <ele>107.74454</ele>
        <time>2021-08-21T09:12:34.632Z</time>
      </trkpt>
      <trkpt lat="41.69002" lon="32.50536">
        <ele>104.983216</ele>
        <time>2021-08-21T09:13:10.715Z</time>
      </trkpt>
      <trkpt lat="41.68968" lon="32.50429">
        <ele>103.611162</ele>
        <time>2021-08-21T09:13:34.225Z</time>
      </trkpt>
      <trkpt lat="41.68896" lon="32.50239">
        <ele>102.129642</ele>
        <time>2021-08-21T09:14:20.077Z</time>
      </trkpt>
      <trkpt lat="41.68881" lon="32.5012">
        <ele>101.617894</ele>
        <time>2021-08-21T09:14:47.908Z</time>
      </trkpt>
      <trkpt lat="41.68881" lon="32.50041">
        <ele>101.28671</ele>
        <time>2021-08-21T09:15:05.809Z</time>
      </trkpt>
      <trkpt lat="41.68893" lon="32.49898">
        <ele>99.711545</ele>
        <time>2021-08-21T09:15:36.122Z</time>
      </trkpt>
      <trkpt lat="41.68902" lon="32.49864">
        <ele>99.268202</ele>
        <time>2021-08-21T09:15:42.840Z</time>
      </trkpt>
      <trkpt lat="41.68918" lon="32.49834">
        <ele>98.810596</ele>
        <time>2021-08-21T09:15:49.779Z</time>
      </trkpt>
      <trkpt lat="41.68922" lon="32.49761">
        <ele>97.918544</ele>
        <time>2021-08-21T09:16:03.827Z</time>
      </trkpt>
      <trkpt lat="41.68905" lon="32.49692">
        <ele>97.056966</ele>
        <time>2021-08-21T09:16:17.721Z</time>
      </trkpt>
      <trkpt lat="41.68879" lon="32.49629">
        <ele>96.20919</ele>
        <time>2021-08-21T09:16:32.035Z</time>
      </trkpt>
      <trkpt lat="41.68869" lon="32.49595">
        <ele>95.77995</ele>
        <time>2021-08-21T09:16:39.380Z</time>
      </trkpt>
      <trkpt lat="41.68869" lon="32.49538">
        <ele>95.31245</ele>
        <time>2021-08-21T09:16:51.636Z</time>
      </trkpt>
      <trkpt lat="41.68894" lon="32.49437">
        <ele>95.130576</ele>
        <time>2021-08-21T09:17:17.605Z</time>
      </trkpt>
      <trkpt lat="41.68901" lon="32.49365">
        <ele>95.006913</ele>
        <time>2021-08-21T09:17:35.086Z</time>
      </trkpt>
      <trkpt lat="41.68911" lon="32.49321">
        <ele>94.934948</ele>
        <time>2021-08-21T09:17:46.082Z</time>
      </trkpt>
      <trkpt lat="41.68942" lon="32.49258">
        <ele>94.937325</ele>
        <time>2021-08-21T09:18:03.502Z</time>
      </trkpt>
      <trkpt lat="41.69006" lon="32.4918">
        <ele>94.940999</ele>
        <time>2021-08-21T09:18:31.338Z</time>
      </trkpt>
      <trkpt lat="41.69042" lon="32.49124">
        <ele>95.241259</ele>
        <time>2021-08-21T09:18:49.165Z</time>
      </trkpt>
      <trkpt lat="41.69175" lon="32.49069">
        <ele>97.176963</ele>
        <time>2021-08-21T09:19:45.752Z</time>
      </trkpt>
      <trkpt lat="41.69225" lon="32.49058">
        <ele>98.181736</ele>
        <time>2021-08-21T09:20:09.249Z</time>
      </trkpt>
      <trkpt lat="41.69205" lon="32.49042">
        <ele>98.738826</ele>
        <time>2021-08-21T09:20:19.963Z</time>
      </trkpt>
      <trkpt lat="41.69177" lon="32.49036">
        <ele>99.418365</ele>
        <time>2021-08-21T09:20:32.989Z</time>
      </trkpt>
      <trkpt lat="41.69143" lon="32.49023">
        <ele>100.256495</ele>
        <time>2021-08-21T09:20:48.892Z</time>
      </trkpt>
      <trkpt lat="41.69097" lon="32.49013">
        <ele>101.369752</ele>
        <time>2021-08-21T09:21:09.720Z</time>
      </trkpt>
      <trkpt lat="41.69069" lon="32.48996">
        <ele>101.984947</ele>
        <time>2021-08-21T09:21:23.189Z</time>
      </trkpt>
      <trkpt lat="41.69024" lon="32.48947">
        <ele>102.907515</ele>
        <time>2021-08-21T09:21:47.814Z</time>
      </trkpt>
      <trkpt lat="41.68992" lon="32.4888">
        <ele>103.850406</ele>
        <time>2021-08-21T09:22:10.329Z</time>
      </trkpt>
      <trkpt lat="41.68975" lon="32.48871">
        <ele>104.138117</ele>
        <time>2021-08-21T09:22:16.812Z</time>
      </trkpt>
      <trkpt lat="41.68937" lon="32.48864">
        <ele>104.670005</ele>
        <time>2021-08-21T09:22:31.870Z</time>
      </trkpt>
      <trkpt lat="41.6892" lon="32.4885">
        <ele>104.823997</ele>
        <time>2021-08-21T09:22:39.733Z</time>
      </trkpt>
      <trkpt lat="41.68853" lon="32.48749">
        <ele>105.606008</ele>
        <time>2021-08-21T09:23:17.776Z</time>
      </trkpt>
      <trkpt lat="41.68842" lon="32.48726">
        <ele>105.760209</ele>
        <time>2021-08-21T09:23:25.224Z</time>
      </trkpt>
      <trkpt lat="41.68824" lon="32.48686">
        <ele>105.844178</ele>
        <time>2021-08-21T09:23:35.616Z</time>
      </trkpt>
      <trkpt lat="41.68806" lon="32.48637">
        <ele>104.937868</ele>
        <time>2021-08-21T09:23:46.719Z</time>
      </trkpt>
      <trkpt lat="41.68797" lon="32.48616">
        <ele>104.544299</ele>
        <time>2021-08-21T09:23:50.851Z</time>
      </trkpt>
      <trkpt lat="41.68786" lon="32.48607">
        <ele>104.251237</ele>
        <time>2021-08-21T09:23:54.763Z</time>
      </trkpt>
      <trkpt lat="41.68732" lon="32.48592">
        <ele>103.013253</ele>
        <time>2021-08-21T09:24:07.792Z</time>
      </trkpt>
      <trkpt lat="41.68687" lon="32.48562">
        <ele>101.830947</ele>
        <time>2021-08-21T09:24:18.886Z</time>
      </trkpt>
      <trkpt lat="41.6862" lon="32.48459">
        <ele>97.617153</ele>
        <time>2021-08-21T09:24:40.906Z</time>
      </trkpt>
      <trkpt lat="41.68529" lon="32.4836">
        <ele>93.061542</ele>
        <time>2021-08-21T09:25:06.581Z</time>
      </trkpt>
      <trkpt lat="41.68456" lon="32.48323">
        <ele>90.342376</ele>
        <time>2021-08-21T09:25:24.103Z</time>
      </trkpt>
      <trkpt lat="41.6834" lon="32.48236">
        <ele>86.645624</ele>
        <time>2021-08-21T09:25:54.858Z</time>
      </trkpt>
      <trkpt lat="41.68099" lon="32.48018">
        <ele>81.385541</ele>
        <time>2021-08-21T09:27:08.252Z</time>
      </trkpt>
      <trkpt lat="41.68012" lon="32.47956">
        <ele>80.964478</ele>
        <time>2021-08-21T09:27:35.894Z</time>
      </trkpt>
      <trkpt lat="41.67563" lon="32.47626">
        <ele>81.088977</ele>
        <time>2021-08-21T09:30:20.534Z</time>
      </trkpt>
      <trkpt lat="41.67537" lon="32.47602">
        <ele>81.0168</ele>
        <time>2021-08-21T09:30:30.293Z</time>
      </trkpt>
      <trkpt lat="41.67522" lon="32.47559">
        <ele>80.93369</ele>
        <time>2021-08-21T09:30:40.983Z</time>
      </trkpt>
      <trkpt lat="41.67508" lon="32.47442">
        <ele>79.881009</ele>
        <time>2021-08-21T09:31:04.969Z</time>
      </trkpt>
      <trkpt lat="41.67479" lon="32.47299">
        <ele>77.778545</ele>
        <time>2021-08-21T09:31:31.601Z</time>
      </trkpt>
      <trkpt lat="41.67446" lon="32.47181">
        <ele>76.458135</ele>
        <time>2021-08-21T09:31:54.594Z</time>
      </trkpt>
      <trkpt lat="41.67421" lon="32.47132">
        <ele>75.90453</ele>
        <time>2021-08-21T09:32:06.099Z</time>
      </trkpt>
      <trkpt lat="41.6733" lon="32.47025">
        <ele>75.120139</ele>
        <time>2021-08-21T09:32:42.970Z</time>
      </trkpt>
      <trkpt lat="41.67292" lon="32.47001">
        <ele>75.10608</ele>
        <time>2021-08-21T09:32:57.404Z</time>
      </trkpt>
      <trkpt lat="41.67169" lon="32.46902">
        <ele>74.801575</ele>
        <time>2021-08-21T09:33:42.596Z</time>
      </trkpt>
      <trkpt lat="41.6712" lon="32.46827">
        <ele>74.489897</ele>
        <time>2021-08-21T09:34:04.147Z</time>
      </trkpt>
      <trkpt lat="41.67091" lon="32.46795">
        <ele>74.334843</ele>
        <time>2021-08-21T09:34:15.328Z</time>
      </trkpt>
      <trkpt lat="41.67056" lon="32.46769">
        <ele>74.550033</ele>
        <time>2021-08-21T09:34:27.814Z</time>
      </trkpt>
      <trkpt lat="41.66973" lon="32.46742">
        <ele>75.010454</ele>
        <time>2021-08-21T09:34:57.549Z</time>
      </trkpt>
      <trkpt lat="41.66917" lon="32.4671">
        <ele>75.443943</ele>
        <time>2021-08-21T09:35:21.586Z</time>
      </trkpt>
      <trkpt lat="41.66816" lon="32.46681">
        <ele>77.712571</ele>
        <time>2021-08-21T09:36:05.672Z</time>
      </trkpt>
      <trkpt lat="41.66777" lon="32.4665">
        <ele>78.722646</ele>
        <time>2021-08-21T09:36:26.972Z</time>
      </trkpt>
      <trkpt lat="41.66689" lon="32.46602">
        <ele>82.47182</ele>
        <time>2021-08-21T09:37:15.606Z</time>
      </trkpt>
      <trkpt lat="41.66667" lon="32.46605">
        <ele>83.513371</ele>
        <time>2021-08-21T09:37:27.607Z</time>
      </trkpt>
      <trkpt lat="41.66632" lon="32.46624">
        <ele>85.234458</ele>
        <time>2021-08-21T09:37:48.496Z</time>
      </trkpt>
      <trkpt lat="41.66552" lon="32.46623">
        <ele>89.239392</ele>
        <time>2021-08-21T09:38:45.512Z</time>
      </trkpt>
      <trkpt lat="41.66533" lon="32.46606">
        <ele>90.493533</ele>
        <time>2021-08-21T09:39:01.882Z</time>
      </trkpt>
      <trkpt lat="41.66526" lon="32.46588">
        <ele>91.347227</ele>
        <time>2021-08-21T09:39:12.613Z</time>
      </trkpt>
      <trkpt lat="41.66522" lon="32.46561">
        <ele>92.521918</ele>
        <time>2021-08-21T09:39:30.132Z</time>
      </trkpt>
      <trkpt lat="41.66527" lon="32.46528">
        <ele>93.921951</ele>
        <time>2021-08-21T09:39:45.863Z</time>
      </trkpt>
      <trkpt lat="41.66525" lon="32.46518">
        <ele>94.358857</ele>
        <time>2021-08-21T09:39:52.597Z</time>
      </trkpt>
      <trkpt lat="41.66533" lon="32.46454">
        <ele>97.11268</ele>
        <time>2021-08-21T09:40:18.737Z</time>
      </trkpt>
      <trkpt lat="41.66531" lon="32.46438">
        <ele>97.69988</ele>
        <time>2021-08-21T09:40:23.829Z</time>
      </trkpt>
      <trkpt lat="41.66528" lon="32.4643">
        <ele>97.569511</ele>
        <time>2021-08-21T09:40:28.002Z</time>
      </trkpt>
      <trkpt lat="41.66504" lon="32.46414">
        <ele>97.079544</ele>
        <time>2021-08-21T09:40:38.415Z</time>
      </trkpt>
      <trkpt lat="41.66487" lon="32.4641">
        <ele>96.745238</ele>
        <time>2021-08-21T09:40:47.186Z</time>
      </trkpt>
      <trkpt lat="41.6644" lon="32.46481">
        <ele>95.411569</ele>
        <time>2021-08-21T09:41:05.862Z</time>
      </trkpt>
      <trkpt lat="41.66407" lon="32.46557">
        <ele>93.733284</ele>
        <time>2021-08-21T09:41:19.932Z</time>
      </trkpt>
      <trkpt lat="41.66391" lon="32.46567">
        <ele>92.421904</ele>
        <time>2021-08-21T09:41:23.708Z</time>
      </trkpt>
      <trkpt lat="41.66275" lon="32.46561">
        <ele>84.011132</ele>
        <time>2021-08-21T09:41:47.613Z</time>
      </trkpt>
      <trkpt lat="41.6607" lon="32.46526">
        <ele>69.424684</ele>
        <time>2021-08-21T09:42:30.911Z</time>
      </trkpt>
      <trkpt lat="41.65953" lon="32.46514">
        <ele>62.710322</ele>
        <time>2021-08-21T09:42:55.816Z</time>
      </trkpt>
      <trkpt lat="41.65921" lon="32.46505">
        <ele>60.854494</ele>
        <time>2021-08-21T09:43:03.001Z</time>
      </trkpt>
      <trkpt lat="41.65868" lon="32.46503">
        <ele>58.179992</ele>
        <time>2021-08-21T09:43:14.970Z</time>
      </trkpt>
      <trkpt lat="41.65628" lon="32.46466">
        <ele>53.222663</ele>
        <time>2021-08-21T09:44:14.931Z</time>
      </trkpt>
      <trkpt lat="41.65621" lon="32.46467">
        <ele>53.215023</ele>
        <time>2021-08-21T09:44:17.421Z</time>
      </trkpt>
      <trkpt lat="41.65611" lon="32.46468">
        <ele>53.203265</ele>
        <time>2021-08-21T09:44:22.026Z</time>
      </trkpt>
      <trkpt lat="41.65488" lon="32.46417">
        <ele>53.824155</ele>
        <time>2021-08-21T09:45:14.330Z</time>
      </trkpt>
      <trkpt lat="41.65482" lon="32.46417">
        <ele>53.933641</ele>
        <time>2021-08-21T09:45:17.629Z</time>
      </trkpt>
      <trkpt lat="41.65459" lon="32.46399">
        <ele>54.427925</ele>
        <time>2021-08-21T09:45:30.294Z</time>
      </trkpt>
      <trkpt lat="41.65432" lon="32.46395">
        <ele>54.926744</ele>
        <time>2021-08-21T09:45:43.025Z</time>
      </trkpt>
      <trkpt lat="41.65399" lon="32.464">
        <ele>55.51596</ele>
        <time>2021-08-21T09:45:57.283Z</time>
      </trkpt>
      <trkpt lat="41.65322" lon="32.46439">
        <ele>56.556904</ele>
        <time>2021-08-21T09:46:30.413Z</time>
      </trkpt>
      <trkpt lat="41.65211" lon="32.46463">
        <ele>57.13596</ele>
        <time>2021-08-21T09:47:06.860Z</time>
      </trkpt>
      <trkpt lat="41.65163" lon="32.46483">
        <ele>57.446731</ele>
        <time>2021-08-21T09:47:24.755Z</time>
      </trkpt>
      <trkpt lat="41.65113" lon="32.4652">
        <ele>57.887919</ele>
        <time>2021-08-21T09:47:46.816Z</time>
      </trkpt>
      <trkpt lat="41.65109" lon="32.46528">
        <ele>57.941331</ele>
        <time>2021-08-21T09:47:48.644Z</time>
      </trkpt>
      <trkpt lat="41.65089" lon="32.4654">
        <ele>58.112322</ele>
        <time>2021-08-21T09:47:58.574Z</time>
      </trkpt>
      <trkpt lat="41.65034" lon="32.46587">
        <ele>58.618521</ele>
        <time>2021-08-21T09:48:22.290Z</time>
      </trkpt>
      <trkpt lat="41.65004" lon="32.46606">
        <ele>58.323115</ele>
        <time>2021-08-21T09:48:33.710Z</time>
      </trkpt>
      <trkpt lat="41.64946" lon="32.46617">
        <ele>57.387513</ele>
        <time>2021-08-21T09:48:52.574Z</time>
      </trkpt>
      <trkpt lat="41.64844" lon="32.46678">
        <ele>55.268905</ele>
        <time>2021-08-21T09:49:19.817Z</time>
      </trkpt>
      <trkpt lat="41.6472" lon="32.4674">
        <ele>49.878543</ele>
        <time>2021-08-21T09:49:49.714Z</time>
      </trkpt>
      <trkpt lat="41.64533" lon="32.46803">
        <ele>43.011845</ele>
        <time>2021-08-21T09:50:34.583Z</time>
      </trkpt>
      <trkpt lat="41.64472" lon="32.46829">
        <ele>41.591258</ele>
        <time>2021-08-21T09:50:50.980Z</time>
      </trkpt>
      <trkpt lat="41.64453" lon="32.46794">
        <ele>41.083181</ele>
        <time>2021-08-21T09:50:58.953Z</time>
      </trkpt>
      <trkpt lat="41.64441" lon="32.46771">
        <ele>40.745363</ele>
        <time>2021-08-21T09:51:04.384Z</time>
      </trkpt>
      <trkpt lat="41.64422" lon="32.46746">
        <ele>40.315733</ele>
        <time>2021-08-21T09:51:11.364Z</time>
      </trkpt>
      <trkpt lat="41.64244" lon="32.4655">
        <ele>37.838622</ele>
        <time>2021-08-21T09:52:14.654Z</time>
      </trkpt>
      <trkpt lat="41.64197" lon="32.46514">
        <ele>37.448957</ele>
        <time>2021-08-21T09:52:29.288Z</time>
      </trkpt>
      <trkpt lat="41.64125" lon="32.46476">
        <ele>36.901484</ele>
        <time>2021-08-21T09:52:50.749Z</time>
      </trkpt>
      <trkpt lat="41.64101" lon="32.46466">
        <ele>36.724369</ele>
        <time>2021-08-21T09:52:57.770Z</time>
      </trkpt>
      <trkpt lat="41.64077" lon="32.46471">
        <ele>36.553432</ele>
        <time>2021-08-21T09:53:04.610Z</time>
      </trkpt>
      <trkpt lat="41.63937" lon="32.46513">
        <ele>35.922253</ele>
        <time>2021-08-21T09:53:46.424Z</time>
      </trkpt>
      <trkpt lat="41.63903" lon="32.46524">
        <ele>35.769669</ele>
        <time>2021-08-21T09:53:56.864Z</time>
      </trkpt>
      <trkpt lat="41.63866" lon="32.46531">
        <ele>35.646609</ele>
        <time>2021-08-21T09:54:07.873Z</time>
      </trkpt>
      <trkpt lat="41.63842" lon="32.4653">
        <ele>35.573864</ele>
        <time>2021-08-21T09:54:14.829Z</time>
      </trkpt>
      <trkpt lat="41.63657" lon="32.46427">
        <ele>35.090578</ele>
        <time>2021-08-21T09:55:14.478Z</time>
      </trkpt>
      <trkpt lat="41.63444" lon="32.46331">
        <ele>35.262672</ele>
        <time>2021-08-21T09:56:24.032Z</time>
      </trkpt>
      <trkpt lat="41.63398" lon="32.46322">
        <ele>35.381819</ele>
        <time>2021-08-21T09:56:39.858Z</time>
      </trkpt>
      <trkpt lat="41.63327" lon="32.46317">
        <ele>36.12356</ele>
        <time>2021-08-21T09:57:06.168Z</time>
      </trkpt>
      <trkpt lat="41.63224" lon="32.46341">
        <ele>37.389955</ele>
        <time>2021-08-21T09:57:47.462Z</time>
      </trkpt>
      <trkpt lat="41.632" lon="32.46328">
        <ele>37.624488</ele>
        <time>2021-08-21T09:57:57.082Z</time>
      </trkpt>
      <trkpt lat="41.63186" lon="32.46297">
        <ele>37.724057</ele>
        <time>2021-08-21T09:58:07.387Z</time>
      </trkpt>
      <trkpt lat="41.63161" lon="32.46244">
        <ele>37.889209</ele>
        <time>2021-08-21T09:58:23.317Z</time>
      </trkpt>
      <trkpt lat="41.63143" lon="32.46186">
        <ele>38.060013</ele>
        <time>2021-08-21T09:58:38.927Z</time>
      </trkpt>
      <trkpt lat="41.63129" lon="32.46156">
        <ele>38.15298</ele>
        <time>2021-08-21T09:58:46.937Z</time>
      </trkpt>
      <trkpt lat="41.63113" lon="32.4613">
        <ele>38.229361</ele>
        <time>2021-08-21T09:58:54.473Z</time>
      </trkpt>
      <trkpt lat="41.63" lon="32.45944">
        <ele>36.887015</ele>
        <time>2021-08-21T09:59:43.211Z</time>
      </trkpt>
      <trkpt lat="41.62945" lon="32.45835">
        <ele>36.395873</ele>
        <time>2021-08-21T10:00:11.503Z</time>
      </trkpt>
      <trkpt lat="41.62929" lon="32.45817">
        <ele>36.287076</ele>
        <time>2021-08-21T10:00:17.876Z</time>
      </trkpt>
      <trkpt lat="41.62829" lon="32.45758">
        <ele>35.854745</ele>
        <time>2021-08-21T10:00:49.979Z</time>
      </trkpt>
      <trkpt lat="41.62734" lon="32.45675">
        <ele>35.547338</ele>
        <time>2021-08-21T10:01:23.599Z</time>
      </trkpt>
      <trkpt lat="41.62693" lon="32.45626">
        <ele>35.55844</ele>
        <time>2021-08-21T10:01:40.060Z</time>
      </trkpt>
      <trkpt lat="41.62622" lon="32.45517">
        <ele>35.71844</ele>
        <time>2021-08-21T10:02:14.457Z</time>
      </trkpt>
      <trkpt lat="41.62608" lon="32.45506">
        <ele>35.74246</ele>
        <time>2021-08-21T10:02:19.951Z</time>
      </trkpt>
      <trkpt lat="41.62473" lon="32.45478">
        <ele>36.528463</ele>
        <time>2021-08-21T10:03:07.703Z</time>
      </trkpt>
      <trkpt lat="41.62434" lon="32.45475">
        <ele>36.777143</ele>
        <time>2021-08-21T10:03:21.390Z</time>
      </trkpt>
      <trkpt lat="41.62375" lon="32.45471">
        <ele>37.124217</ele>
        <time>2021-08-21T10:03:41.989Z</time>
      </trkpt>
      <trkpt lat="41.62328" lon="32.45456">
        <ele>37.392828</ele>
        <time>2021-08-21T10:03:58.592Z</time>
      </trkpt>
      <trkpt lat="41.62186" lon="32.45342">
        <ele>38.261203</ele>
        <time>2021-08-21T10:04:54.787Z</time>
      </trkpt>
      <trkpt lat="41.62171" lon="32.45324">
        <ele>38.361487</ele>
        <time>2021-08-21T10:05:01.759Z</time>
      </trkpt>
      <trkpt lat="41.62149" lon="32.45297">
        <ele>38.503921</ele>
        <time>2021-08-21T10:05:11.638Z</time>
      </trkpt>
      <trkpt lat="41.62079" lon="32.45071">
        <ele>39.352061</ele>
        <time>2021-08-21T10:06:13.700Z</time>
      </trkpt>
      <trkpt lat="41.6199" lon="32.44807">
        <ele>40.087701</ele>
        <time>2021-08-21T10:07:25.933Z</time>
      </trkpt>
      <trkpt lat="41.61953" lon="32.44731">
        <ele>40.017198</ele>
        <time>2021-08-21T10:07:47.016Z</time>
      </trkpt>
      <trkpt lat="41.61945" lon="32.44724">
        <ele>39.993268</ele>
        <time>2021-08-21T10:07:49.998Z</time>
      </trkpt>
      <trkpt lat="41.61934" lon="32.44714">
        <ele>39.958882</ele>
        <time>2021-08-21T10:07:53.736Z</time>
      </trkpt>
      <trkpt lat="41.61883" lon="32.44697">
        <ele>39.822725</ele>
        <time>2021-08-21T10:08:09.190Z</time>
      </trkpt>
      <trkpt lat="41.61866" lon="32.44686">
        <ele>39.773748</ele>
        <time>2021-08-21T10:08:14.515Z</time>
      </trkpt>
      <trkpt lat="41.61848" lon="32.44664">
        <ele>39.710257</ele>
        <time>2021-08-21T10:08:21.815Z</time>
      </trkpt>
      <trkpt lat="41.61809" lon="32.44601">
        <ele>39.280136</ele>
        <time>2021-08-21T10:08:39.099Z</time>
      </trkpt>
      <trkpt lat="41.61794" lon="32.4457">
        <ele>39.054248</ele>
        <time>2021-08-21T10:08:46.771Z</time>
      </trkpt>
      <trkpt lat="41.6178" lon="32.44546">
        <ele>38.873259</ele>
        <time>2021-08-21T10:08:52.950Z</time>
      </trkpt>
      <trkpt lat="41.61742" lon="32.44481">
        <ele>38.364991</ele>
        <time>2021-08-21T10:09:09.961Z</time>
      </trkpt>
      <trkpt lat="41.61704" lon="32.44418">
        <ele>37.635554</ele>
        <time>2021-08-21T10:09:26.034Z</time>
      </trkpt>
      <trkpt lat="41.61649" lon="32.44313">
        <ele>36.302332</ele>
        <time>2021-08-21T10:09:50.923Z</time>
      </trkpt>
      <trkpt lat="41.61594" lon="32.44191">
        <ele>34.935893</ele>
        <time>2021-08-21T10:10:17.917Z</time>
      </trkpt>
      <trkpt lat="41.61573" lon="32.44134">
        <ele>34.356155</ele>
        <time>2021-08-21T10:10:30.247Z</time>
      </trkpt>
      <trkpt lat="41.61555" lon="32.441">
        <ele>33.979948</ele>
        <time>2021-08-21T10:10:38.320Z</time>
      </trkpt>
      <trkpt lat="41.61537" lon="32.44076">
        <ele>33.678938</ele>
        <time>2021-08-21T10:10:45.269Z</time>
      </trkpt>
      <trkpt lat="41.61449" lon="32.43988">
        <ele>34.599976</ele>
        <time>2021-08-21T10:11:20.656Z</time>
      </trkpt>
      <trkpt lat="41.61444" lon="32.43982">
        <ele>34.670857</ele>
        <time>2021-08-21T10:11:22.967Z</time>
      </trkpt>
      <trkpt lat="41.61428" lon="32.43961">
        <ele>34.911574</ele>
        <time>2021-08-21T10:11:31.949Z</time>
      </trkpt>
      <trkpt lat="41.61409" lon="32.43934">
        <ele>35.219082</ele>
        <time>2021-08-21T10:11:43.846Z</time>
      </trkpt>
      <trkpt lat="41.61389" lon="32.43893">
        <ele>35.995305</ele>
        <time>2021-08-21T10:12:00.794Z</time>
      </trkpt>
      <trkpt lat="41.61363" lon="32.43808">
        <ele>38.999215</ele>
        <time>2021-08-21T10:12:37.703Z</time>
      </trkpt>
      <trkpt lat="41.61343" lon="32.43688">
        <ele>43.007256</ele>
        <time>2021-08-21T10:13:34.482Z</time>
      </trkpt>
      <trkpt lat="41.61346" lon="32.4366">
        <ele>43.771171</ele>
        <time>2021-08-21T10:13:47.191Z</time>
      </trkpt>
      <trkpt lat="41.61356" lon="32.43637">
        <ele>44.406009</ele>
        <time>2021-08-21T10:13:57.399Z</time>
      </trkpt>
      <trkpt lat="41.61374" lon="32.43616">
        <ele>45.151143</ele>
        <time>2021-08-21T10:14:11.114Z</time>
      </trkpt>
      <trkpt lat="41.61387" lon="32.43604">
        <ele>45.645401</ele>
        <time>2021-08-21T10:14:18.490Z</time>
      </trkpt>
      <trkpt lat="41.61426" lon="32.43525">
        <ele>47.883159</ele>
        <time>2021-08-21T10:14:52.367Z</time>
      </trkpt>
      <trkpt lat="41.61428" lon="32.43511">
        <ele>48.224392</ele>
        <time>2021-08-21T10:14:57.842Z</time>
      </trkpt>
      <trkpt lat="41.61424" lon="32.43491">
        <ele>48.705627</ele>
        <time>2021-08-21T10:15:03.965Z</time>
      </trkpt>
      <trkpt lat="41.61366" lon="32.43394">
        <ele>48.573824</ele>
        <time>2021-08-21T10:15:36.209Z</time>
      </trkpt>
      <trkpt lat="41.61353" lon="32.43361">
        <ele>48.42142</ele>
        <time>2021-08-21T10:15:43.731Z</time>
      </trkpt>
      <trkpt lat="41.61342" lon="32.43312">
        <ele>48.215983</ele>
        <time>2021-08-21T10:15:53.254Z</time>
      </trkpt>
      <trkpt lat="41.61339" lon="32.43267">
        <ele>47.947651</ele>
        <time>2021-08-21T10:16:01.519Z</time>
      </trkpt>
      <trkpt lat="41.61344" lon="32.43217">
        <ele>46.615866</ele>
        <time>2021-08-21T10:16:10.511Z</time>
      </trkpt>
      <trkpt lat="41.61331" lon="32.43214">
        <ele>46.174305</ele>
        <time>2021-08-21T10:16:13.207Z</time>
      </trkpt>
      <trkpt lat="41.6125" lon="32.43193">
        <ele>43.266014</ele>
        <time>2021-08-21T10:16:31.600Z</time>
      </trkpt>
      <trkpt lat="41.61223" lon="32.43178">
        <ele>42.219277</ele>
        <time>2021-08-21T10:16:37.973Z</time>
      </trkpt>
      <trkpt lat="41.61158" lon="32.43166">
        <ele>39.934043</ele>
        <time>2021-08-21T10:16:51.882Z</time>
      </trkpt>
      <trkpt lat="41.61106" lon="32.43131">
        <ele>37.876319</ele>
        <time>2021-08-21T10:17:04.825Z</time>
      </trkpt>
      <trkpt lat="41.6106" lon="32.43087">
        <ele>35.904586</ele>
        <time>2021-08-21T10:17:17.840Z</time>
      </trkpt>
      <trkpt lat="41.61015" lon="32.43005">
        <ele>34.86482</ele>
        <time>2021-08-21T10:17:37.103Z</time>
      </trkpt>
      <trkpt lat="41.61001" lon="32.42996">
        <ele>34.731766</ele>
        <time>2021-08-21T10:17:41.310Z</time>
      </trkpt>
      <trkpt lat="41.60935" lon="32.42984">
        <ele>34.160387</ele>
        <time>2021-08-21T10:18:01.146Z</time>
      </trkpt>
      <trkpt lat="41.60927" lon="32.42972">
        <ele>34.055916</ele>
        <time>2021-08-21T10:18:04.783Z</time>
      </trkpt>
      <trkpt lat="41.60908" lon="32.42889">
        <ele>33.717425</ele>
        <time>2021-08-21T10:18:25.439Z</time>
      </trkpt>
      <trkpt lat="41.60895" lon="32.42871">
        <ele>33.654437</ele>
        <time>2021-08-21T10:18:31.134Z</time>
      </trkpt>
      <trkpt lat="41.60884" lon="32.42861">
        <ele>33.610056</ele>
        <time>2021-08-21T10:18:35.687Z</time>
      </trkpt>
      <trkpt lat="41.60879" lon="32.42857">
        <ele>33.593064</ele>
        <time>2021-08-21T10:18:37.142Z</time>
      </trkpt>
      <trkpt lat="41.60822" lon="32.42831">
        <ele>33.394654</ele>
        <time>2021-08-21T10:18:54.642Z</time>
      </trkpt>
      <trkpt lat="41.60779" lon="32.42804">
        <ele>33.1897</ele>
        <time>2021-08-21T10:19:08.238Z</time>
      </trkpt>
      <trkpt lat="41.60723" lon="32.42762">
        <ele>32.490681</ele>
        <time>2021-08-21T10:19:25.728Z</time>
      </trkpt>
      <trkpt lat="41.60679" lon="32.42788">
        <ele>31.964523</ele>
        <time>2021-08-21T10:19:38.552Z</time>
      </trkpt>
      <trkpt lat="41.60662" lon="32.42795">
        <ele>31.772195</ele>
        <time>2021-08-21T10:19:43.171Z</time>
      </trkpt>
      <trkpt lat="41.60573" lon="32.42803">
        <ele>30.57879</ele>
        <time>2021-08-21T10:20:06.310Z</time>
      </trkpt>
      <trkpt lat="41.60551" lon="32.428">
        <ele>30.237936</ele>
        <time>2021-08-21T10:20:11.961Z</time>
      </trkpt>
      <trkpt lat="41.60456" lon="32.42731">
        <ele>28.540718</ele>
        <time>2021-08-21T10:20:39.352Z</time>
      </trkpt>
      <trkpt lat="41.60429" lon="32.42721">
        <ele>28.017496</ele>
        <time>2021-08-21T10:20:46.348Z</time>
      </trkpt>
      <trkpt lat="41.60415" lon="32.42703">
        <ele>27.648435</ele>
        <time>2021-08-21T10:20:51.175Z</time>
      </trkpt>
      <trkpt lat="41.60394" lon="32.42642">
        <ele>26.702137</ele>
        <time>2021-08-21T10:21:03.519Z</time>
      </trkpt>
      <trkpt lat="41.60369" lon="32.42612">
        <ele>26.051114</ele>
        <time>2021-08-21T10:21:11.991Z</time>
      </trkpt>
      <trkpt lat="41.60328" lon="32.42605">
        <ele>25.273506</ele>
        <time>2021-08-21T10:21:22.140Z</time>
      </trkpt>
      <trkpt lat="41.60318" lon="32.42597">
        <ele>25.060859</ele>
        <time>2021-08-21T10:21:24.975Z</time>
      </trkpt>
      <trkpt lat="41.60315" lon="32.42581">
        <ele>24.884904</ele>
        <time>2021-08-21T10:21:28.039Z</time>
      </trkpt>
      <trkpt lat="41.60322" lon="32.42477">
        <ele>23.768489</ele>
        <time>2021-08-21T10:21:47.812Z</time>
      </trkpt>
      <trkpt lat="41.60319" lon="32.42431">
        <ele>23.269621</ele>
        <time>2021-08-21T10:21:56.861Z</time>
      </trkpt>
      <trkpt lat="41.60312" lon="32.42395">
        <ele>22.866973</ele>
        <time>2021-08-21T10:22:04.275Z</time>
      </trkpt>
      <trkpt lat="41.60293" lon="32.42348">
        <ele>22.446816</ele>
        <time>2021-08-21T10:22:14.920Z</time>
      </trkpt>
      <trkpt lat="41.602" lon="32.42192">
        <ele>21.924382</ele>
        <time>2021-08-21T10:22:58.634Z</time>
      </trkpt>
      <trkpt lat="41.6018" lon="32.42175">
        <ele>21.896503</ele>
        <time>2021-08-21T10:23:06.130Z</time>
      </trkpt>
      <trkpt lat="41.60163" lon="32.4217">
        <ele>21.986119</ele>
        <time>2021-08-21T10:23:12.365Z</time>
      </trkpt>
      <trkpt lat="41.60124" lon="32.42156">
        <ele>22.186766</ele>
        <time>2021-08-21T10:23:26.200Z</time>
      </trkpt>
      <trkpt lat="41.60111" lon="32.42148">
        <ele>22.256672</ele>
        <time>2021-08-21T10:23:31.336Z</time>
      </trkpt>
      <trkpt lat="41.60101" lon="32.42139">
        <ele>22.317537</ele>
        <time>2021-08-21T10:23:35.806Z</time>
      </trkpt>
      <trkpt lat="41.60086" lon="32.42127">
        <ele>22.403664</ele>
        <time>2021-08-21T10:23:41.499Z</time>
      </trkpt>
      <trkpt lat="41.60073" lon="32.42125">
        <ele>22.46975</ele>
        <time>2021-08-21T10:23:46.359Z</time>
      </trkpt>
      <trkpt lat="41.60062" lon="32.4213">
        <ele>22.528952</ele>
        <time>2021-08-21T10:23:50.303Z</time>
      </trkpt>
      <trkpt lat="41.6003" lon="32.42162">
        <ele>22.727673</ele>
        <time>2021-08-21T10:24:03.896Z</time>
      </trkpt>
      <trkpt lat="41.60017" lon="32.42169">
        <ele>22.744367</ele>
        <time>2021-08-21T10:24:09.059Z</time>
      </trkpt>
      <trkpt lat="41.60004" lon="32.42132">
        <ele>22.682309</ele>
        <time>2021-08-21T10:24:19.253Z</time>
      </trkpt>
      <trkpt lat="41.60004" lon="32.42111">
        <ele>22.650625</ele>
        <time>2021-08-21T10:24:24.845Z</time>
      </trkpt>
      <trkpt lat="41.6001" lon="32.4208">
        <ele>22.601333</ele>
        <time>2021-08-21T10:24:32.359Z</time>
      </trkpt>
      <trkpt lat="41.60063" lon="32.41926">
        <ele>22.170114</ele>
        <time>2021-08-21T10:25:08.044Z</time>
      </trkpt>
      <trkpt lat="41.60084" lon="32.41838">
        <ele>21.539628</ele>
        <time>2021-08-21T10:25:26.551Z</time>
      </trkpt>
      <trkpt lat="41.60085" lon="32.41817">
        <ele>21.394682</ele>
        <time>2021-08-21T10:25:30.923Z</time>
      </trkpt>
      <trkpt lat="41.60079" lon="32.41801">
        <ele>21.272</ele>
        <time>2021-08-21T10:25:34.460Z</time>
      </trkpt>
      <trkpt lat="41.60059" lon="32.41792">
        <ele>21.086291</ele>
        <time>2021-08-21T10:25:40.210Z</time>
      </trkpt>
      <trkpt lat="41.60051" lon="32.41787">
        <ele>21.003231</ele>
        <time>2021-08-21T10:25:42.518Z</time>
      </trkpt>
      <trkpt lat="41.59993" lon="32.41757">
        <ele>20.633185</ele>
        <time>2021-08-21T10:25:59.940Z</time>
      </trkpt>
      <trkpt lat="41.59939" lon="32.41741">
        <ele>20.43499</ele>
        <time>2021-08-21T10:26:15.624Z</time>
      </trkpt>
      <trkpt lat="41.59811" lon="32.41684">
        <ele>20.137651</ele>
        <time>2021-08-21T10:26:57.619Z</time>
      </trkpt>
      <trkpt lat="41.59785" lon="32.41667">
        <ele>20.151197</ele>
        <time>2021-08-21T10:27:06.958Z</time>
      </trkpt>
      <trkpt lat="41.59773" lon="32.41652">
        <ele>20.158698</ele>
        <time>2021-08-21T10:27:12.100Z</time>
      </trkpt>
      <trkpt lat="41.59755" lon="32.41611">
        <ele>20.175036</ele>
        <time>2021-08-21T10:27:23.232Z</time>
      </trkpt>
      <trkpt lat="41.59734" lon="32.41557">
        <ele>20.196058</ele>
        <time>2021-08-21T10:27:37.456Z</time>
      </trkpt>
      <trkpt lat="41.59728" lon="32.4154">
        <ele>20.2071</ele>
        <time>2021-08-21T10:27:41.924Z</time>
      </trkpt>
      <trkpt lat="41.5971" lon="32.41495">
        <ele>20.253843</ele>
        <time>2021-08-21T10:27:53.672Z</time>
      </trkpt>
      <trkpt lat="41.59681" lon="32.41438">
        <ele>20.317273</ele>
        <time>2021-08-21T10:28:09.583Z</time>
      </trkpt>
      <trkpt lat="41.59618" lon="32.41335">
        <ele>20.731805</ele>
        <time>2021-08-21T10:28:41.162Z</time>
      </trkpt>
      <trkpt lat="41.59609" lon="32.4131">
        <ele>21.150136</ele>
        <time>2021-08-21T10:28:48.616Z</time>
      </trkpt>
      <trkpt lat="41.59601" lon="32.41271">
        <ele>21.770965</ele>
        <time>2021-08-21T10:29:00.265Z</time>
      </trkpt>
      <trkpt lat="41.59602" lon="32.41235">
        <ele>22.313001</ele>
        <time>2021-08-21T10:29:11.075Z</time>
      </trkpt>
      <trkpt lat="41.5961" lon="32.41197">
        <ele>22.914833</ele>
        <time>2021-08-21T10:29:23.772Z</time>
      </trkpt>
      <trkpt lat="41.59625" lon="32.41155">
        <ele>23.624192</ele>
        <time>2021-08-21T10:29:39.827Z</time>
      </trkpt>
      <trkpt lat="41.59754" lon="32.40916">
        <ele>33.62819</ele>
        <time>2021-08-21T10:31:44.369Z</time>
      </trkpt>
      <trkpt lat="41.5982" lon="32.40823">
        <ele>40.397733</ele>
        <time>2021-08-21T10:32:52.787Z</time>
      </trkpt>
      <trkpt lat="41.59887" lon="32.40778">
        <ele>45.792746</ele>
        <time>2021-08-21T10:33:49.800Z</time>
      </trkpt>
      <trkpt lat="41.59889" lon="32.40762">
        <ele>46.787935</ele>
        <time>2021-08-21T10:33:59.993Z</time>
      </trkpt>
      <trkpt lat="41.59877" lon="32.4075">
        <ele>47.980729</ele>
        <time>2021-08-21T10:34:11.796Z</time>
      </trkpt>
      <trkpt lat="41.59816" lon="32.40755">
        <ele>53.006192</ele>
        <time>2021-08-21T10:35:00.129Z</time>
      </trkpt>
      <trkpt lat="41.59766" lon="32.40739">
        <ele>57.154982</ele>
        <time>2021-08-21T10:35:40.325Z</time>
      </trkpt>
      <trkpt lat="41.59703" lon="32.40704">
        <ele>61.501137</ele>
        <time>2021-08-21T10:36:30.182Z</time>
      </trkpt>
      <trkpt lat="41.59646" lon="32.40722">
        <ele>64.420508</ele>
        <time>2021-08-21T10:37:06.755Z</time>
      </trkpt>
      <trkpt lat="41.59603" lon="32.40721">
        <ele>66.518595</ele>
        <time>2021-08-21T10:37:30.290Z</time>
      </trkpt>
      <trkpt lat="41.59567" lon="32.4071">
        <ele>68.326653</ele>
        <time>2021-08-21T10:37:48.100Z</time>
      </trkpt>
      <trkpt lat="41.59538" lon="32.40708">
        <ele>68.382075</ele>
        <time>2021-08-21T10:38:00.798Z</time>
      </trkpt>
      <trkpt lat="41.5947" lon="32.40723">
        <ele>67.911505</ele>
        <time>2021-08-21T10:38:23.937Z</time>
      </trkpt>
      <trkpt lat="41.5937" lon="32.40702">
        <ele>66.765634</ele>
        <time>2021-08-21T10:38:47.593Z</time>
      </trkpt>
      <trkpt lat="41.59342" lon="32.40666">
        <ele>65.27083</ele>
        <time>2021-08-21T10:38:56.208Z</time>
      </trkpt>
      <trkpt lat="41.59335" lon="32.40643">
        <ele>64.550485</ele>
        <time>2021-08-21T10:39:00.286Z</time>
      </trkpt>
      <trkpt lat="41.59329" lon="32.40596">
        <ele>63.225719</ele>
        <time>2021-08-21T10:39:07.845Z</time>
      </trkpt>
      <trkpt lat="41.59308" lon="32.40553">
        <ele>61.748818</ele>
        <time>2021-08-21T10:39:16.793Z</time>
      </trkpt>
      <trkpt lat="41.59287" lon="32.40521">
        <ele>60.559395</ele>
        <time>2021-08-21T10:39:24.130Z</time>
      </trkpt>
      <trkpt lat="41.59258" lon="32.40493">
        <ele>59.964303</ele>
        <time>2021-08-21T10:39:32.724Z</time>
      </trkpt>
      <trkpt lat="41.59237" lon="32.40502">
        <ele>59.635285</ele>
        <time>2021-08-21T10:39:37.631Z</time>
      </trkpt>
      <trkpt lat="41.59081" lon="32.40685">
        <ele>57.279832</ele>
        <time>2021-08-21T10:40:36.463Z</time>
      </trkpt>
      <trkpt lat="41.58978" lon="32.40781">
        <ele>56.615657</ele>
        <time>2021-08-21T10:41:13.226Z</time>
      </trkpt>
      <trkpt lat="41.58947" lon="32.408">
        <ele>56.433907</ele>
        <time>2021-08-21T10:41:22.647Z</time>
      </trkpt>
      <trkpt lat="41.58907" lon="32.40815">
        <ele>56.211745</ele>
        <time>2021-08-21T10:41:34.126Z</time>
      </trkpt>
      <trkpt lat="41.58871" lon="32.40842">
        <ele>55.992949</ele>
        <time>2021-08-21T10:41:45.645Z</time>
      </trkpt>
      <trkpt lat="41.58812" lon="32.40912">
        <ele>56.240754</ele>
        <time>2021-08-21T10:42:09.119Z</time>
      </trkpt>
      <trkpt lat="41.58745" lon="32.40982">
        <ele>57.036936</ele>
        <time>2021-08-21T10:42:39.811Z</time>
      </trkpt>
      <trkpt lat="41.58668" lon="32.41094">
        <ele>58.880578</ele>
        <time>2021-08-21T10:43:29.501Z</time>
      </trkpt>
      <trkpt lat="41.58594" lon="32.41144">
        <ele>60.648286</ele>
        <time>2021-08-21T10:44:06.943Z</time>
      </trkpt>
      <trkpt lat="41.58473" lon="32.41247">
        <ele>62.456602</ele>
        <time>2021-08-21T10:45:03.083Z</time>
      </trkpt>
      <trkpt lat="41.58398" lon="32.41285">
        <ele>63.196932</ele>
        <time>2021-08-21T10:45:28.903Z</time>
      </trkpt>
      <trkpt lat="41.58338" lon="32.41344">
        <ele>63.60291</ele>
        <time>2021-08-21T10:45:52.881Z</time>
      </trkpt>
      <trkpt lat="41.58326" lon="32.41376">
        <ele>63.749737</ele>
        <time>2021-08-21T10:46:01.791Z</time>
      </trkpt>
      <trkpt lat="41.58322" lon="32.41411">
        <ele>63.890424</ele>
        <time>2021-08-21T10:46:10.812Z</time>
      </trkpt>
      <trkpt lat="41.58324" lon="32.41487">
        <ele>64.393073</ele>
        <time>2021-08-21T10:46:32.129Z</time>
      </trkpt>
      <trkpt lat="41.58316" lon="32.4152">
        <ele>64.841236</ele>
        <time>2021-08-21T10:46:42.177Z</time>
      </trkpt>
      <trkpt lat="41.58289" lon="32.41568">
        <ele>65.63836</ele>
        <time>2021-08-21T10:47:00.655Z</time>
      </trkpt>
      <trkpt lat="41.58211" lon="32.41623">
        <ele>67.187883</ele>
        <time>2021-08-21T10:47:39.221Z</time>
      </trkpt>
      <trkpt lat="41.58163" lon="32.41666">
        <ele>67.525217</ele>
        <time>2021-08-21T10:48:03.214Z</time>
      </trkpt>
      <trkpt lat="41.58132" lon="32.4168">
        <ele>67.683081</ele>
        <time>2021-08-21T10:48:14.914Z</time>
      </trkpt>
      <trkpt lat="41.58128" lon="32.41684">
        <ele>67.705421</ele>
        <time>2021-08-21T10:48:17.285Z</time>
      </trkpt>
      <trkpt lat="41.58116" lon="32.41696">
        <ele>67.778481</ele>
        <time>2021-08-21T10:48:22.272Z</time>
      </trkpt>
      <trkpt lat="41.58053" lon="32.41775">
        <ele>67.831248</ele>
        <time>2021-08-21T10:48:46.852Z</time>
      </trkpt>
      <trkpt lat="41.57989" lon="32.41872">
        <ele>65.366862</ele>
        <time>2021-08-21T10:49:09.833Z</time>
      </trkpt>
      <trkpt lat="41.57949" lon="32.41956">
        <ele>63.490866</ele>
        <time>2021-08-21T10:49:26.551Z</time>
      </trkpt>
      <trkpt lat="41.57941" lon="32.41999">
        <ele>63.066329</ele>
        <time>2021-08-21T10:49:34.083Z</time>
      </trkpt>
      <trkpt lat="41.57927" lon="32.42143">
        <ele>61.673372</ele>
        <time>2021-08-21T10:50:01.710Z</time>
      </trkpt>
      <trkpt lat="41.57907" lon="32.42236">
        <ele>62.56887</ele>
        <time>2021-08-21T10:50:30.373Z</time>
      </trkpt>
      <trkpt lat="41.57893" lon="32.42249">
        <ele>63.171698</ele>
        <time>2021-08-21T10:50:38.720Z</time>
      </trkpt>
      <trkpt lat="41.57876" lon="32.42252">
        <ele>63.807819</ele>
        <time>2021-08-21T10:50:47.489Z</time>
      </trkpt>
      <trkpt lat="41.5783" lon="32.42225">
        <ele>65.581924</ele>
        <time>2021-08-21T10:51:15.618Z</time>
      </trkpt>
      <trkpt lat="41.5772" lon="32.42154">
        <ele>68.899021</ele>
        <time>2021-08-21T10:52:27.878Z</time>
      </trkpt>
      <trkpt lat="41.57648" lon="32.42095">
        <ele>70.571605</ele>
        <time>2021-08-21T10:53:01.659Z</time>
      </trkpt>
      <trkpt lat="41.57612" lon="32.4208">
        <ele>70.850568</ele>
        <time>2021-08-21T10:53:12.012Z</time>
      </trkpt>
      <trkpt lat="41.57584" lon="32.42065">
        <ele>69.530907</ele>
        <time>2021-08-21T10:53:18.976Z</time>
      </trkpt>
      <trkpt lat="41.57519" lon="32.42053">
        <ele>66.627186</ele>
        <time>2021-08-21T10:53:33.136Z</time>
      </trkpt>
      <trkpt lat="41.5737" lon="32.42035">
        <ele>59.203414</ele>
        <time>2021-08-21T10:54:03.556Z</time>
      </trkpt>
      <trkpt lat="41.57228" lon="32.42002">
        <ele>51.893917</ele>
        <time>2021-08-21T10:54:33.903Z</time>
      </trkpt>
      <trkpt lat="41.57093" lon="32.41979">
        <ele>46.730392</ele>
        <time>2021-08-21T10:55:04.533Z</time>
      </trkpt>
      <trkpt lat="41.56905" lon="32.41951">
        <ele>41.098184</ele>
        <time>2021-08-21T10:55:48.833Z</time>
      </trkpt>
      <trkpt lat="41.56875" lon="32.41946">
        <ele>39.95964</ele>
        <time>2021-08-21T10:55:55.490Z</time>
      </trkpt>
      <trkpt lat="41.56803" lon="32.41934">
        <ele>37.245988</ele>
        <time>2021-08-21T10:56:11.310Z</time>
      </trkpt>
      <trkpt lat="41.56764" lon="32.41922">
        <ele>35.725041</ele>
        <time>2021-08-21T10:56:20.208Z</time>
      </trkpt>
      <trkpt lat="41.56743" lon="32.41912">
        <ele>34.915588</ele>
        <time>2021-08-21T10:56:24.857Z</time>
      </trkpt>
      <trkpt lat="41.56731" lon="32.41918">
        <ele>34.438428</ele>
        <time>2021-08-21T10:56:27.787Z</time>
      </trkpt>
      <trkpt lat="41.56727" lon="32.41929">
        <ele>34.229867</ele>
        <time>2021-08-21T10:56:29.768Z</time>
      </trkpt>
      <trkpt lat="41.56658" lon="32.41914">
        <ele>32.628194</ele>
        <time>2021-08-21T10:56:45.614Z</time>
      </trkpt>
      <trkpt lat="41.56538" lon="32.41871">
        <ele>30.293904</ele>
        <time>2021-08-21T10:57:17.642Z</time>
      </trkpt>
      <trkpt lat="41.56497" lon="32.41838">
        <ele>30.239786</ele>
        <time>2021-08-21T10:57:32.205Z</time>
      </trkpt>
      <trkpt lat="41.56464" lon="32.41793">
        <ele>30.185524</ele>
        <time>2021-08-21T10:57:47.610Z</time>
      </trkpt>
      <trkpt lat="41.56418" lon="32.41713">
        <ele>30.134816</ele>
        <time>2021-08-21T10:58:12.469Z</time>
      </trkpt>
      <trkpt lat="41.56389" lon="32.41651">
        <ele>30.211032</ele>
        <time>2021-08-21T10:58:30.709Z</time>
      </trkpt>
      <trkpt lat="41.56367" lon="32.41621">
        <ele>30.25395</ele>
        <time>2021-08-21T10:58:40.795Z</time>
      </trkpt>
      <trkpt lat="41.56209" lon="32.41395">
        <ele>30.21969</ele>
        <time>2021-08-21T10:59:52.418Z</time>
      </trkpt>
      <trkpt lat="41.56187" lon="32.41362">
        <ele>30.19301</ele>
        <time>2021-08-21T11:00:02.081Z</time>
      </trkpt>
      <trkpt lat="41.56151" lon="32.41323">
        <ele>30.19185</ele>
        <time>2021-08-21T11:00:15.870Z</time>
      </trkpt>
      <trkpt lat="41.56118" lon="32.41291">
        <ele>30.190846</ele>
        <time>2021-08-21T11:00:27.547Z</time>
      </trkpt>
      <trkpt lat="41.56093" lon="32.41271">
        <ele>30.190119</ele>
        <time>2021-08-21T11:00:36.089Z</time>
      </trkpt>
      <trkpt lat="41.55971" lon="32.41203">
        <ele>31.118316</ele>
        <time>2021-08-21T11:01:22.450Z</time>
      </trkpt>
      <trkpt lat="41.55952" lon="32.41179">
        <ele>31.449271</ele>
        <time>2021-08-21T11:01:32.895Z</time>
      </trkpt>
      <trkpt lat="41.55945" lon="32.41147">
        <ele>31.759002</ele>
        <time>2021-08-21T11:01:42.936Z</time>
      </trkpt>
      <trkpt lat="41.55939" lon="32.41124">
        <ele>31.994823</ele>
        <time>2021-08-21T11:01:49.450Z</time>
      </trkpt>
      <trkpt lat="41.55935" lon="32.41108">
        <ele>32.15833</ele>
        <time>2021-08-21T11:01:55.527Z</time>
      </trkpt>
      <trkpt lat="41.55937" lon="32.41103">
        <ele>32.212165</ele>
        <time>2021-08-21T11:01:57.183Z</time>
      </trkpt>
      <trkpt lat="41.55939" lon="32.41097">
        <ele>32.272915</ele>
        <time>2021-08-21T11:01:59.179Z</time>
      </trkpt>
      <trkpt lat="41.55937" lon="32.41084">
        <ele>32.392149</ele>
        <time>2021-08-21T11:02:02.329Z</time>
      </trkpt>
      <trkpt lat="41.55931" lon="32.41075">
        <ele>32.558302</ele>
        <time>2021-08-21T11:02:06.109Z</time>
      </trkpt>
      <trkpt lat="41.55927" lon="32.41072">
        <ele>32.672508</ele>
        <time>2021-08-21T11:02:08.692Z</time>
      </trkpt>
      <trkpt lat="41.55922" lon="32.41072">
        <ele>32.788362</ele>
        <time>2021-08-21T11:02:10.782Z</time>
      </trkpt>
      <trkpt lat="41.55917" lon="32.41073">
        <ele>32.90408</ele>
        <time>2021-08-21T11:02:12.776Z</time>
      </trkpt>
      <trkpt lat="41.55913" lon="32.41076">
        <ele>33.014308</ele>
        <time>2021-08-21T11:02:14.518Z</time>
      </trkpt>
      <trkpt lat="41.5591" lon="32.41081">
        <ele>33.124642</ele>
        <time>2021-08-21T11:02:16.090Z</time>
      </trkpt>
      <trkpt lat="41.55908" lon="32.41086">
        <ele>33.236787</ele>
        <time>2021-08-21T11:02:17.716Z</time>
      </trkpt>
      <trkpt lat="41.55867" lon="32.41119">
        <ele>34.392939</ele>
        <time>2021-08-21T11:02:40.710Z</time>
      </trkpt>
      <trkpt lat="41.55818" lon="32.41181">
        <ele>35.991425</ele>
        <time>2021-08-21T11:03:10.995Z</time>
      </trkpt>
      <trkpt lat="41.55795" lon="32.41218">
        <ele>36.89066</ele>
        <time>2021-08-21T11:03:27.428Z</time>
      </trkpt>
      <trkpt lat="41.55772" lon="32.41188">
        <ele>37.768724</ele>
        <time>2021-08-21T11:03:42.341Z</time>
      </trkpt>
      <trkpt lat="41.55757" lon="32.41167">
        <ele>38.379762</ele>
        <time>2021-08-21T11:03:52.750Z</time>
      </trkpt>
      <trkpt lat="41.55739" lon="32.41158">
        <ele>38.907255</ele>
        <time>2021-08-21T11:04:01.731Z</time>
      </trkpt>
      <trkpt lat="41.55656" lon="32.41167">
        <ele>41.21274</ele>
        <time>2021-08-21T11:04:43.146Z</time>
      </trkpt>
      <trkpt lat="41.55537" lon="32.41139">
        <ele>43.679968</ele>
        <time>2021-08-21T11:05:40.127Z</time>
      </trkpt>
      <trkpt lat="41.55515" lon="32.41123">
        <ele>44.148461</ele>
        <time>2021-08-21T11:05:50.154Z</time>
      </trkpt>
      <trkpt lat="41.5549" lon="32.41098">
        <ele>44.751767</ele>
        <time>2021-08-21T11:06:02.683Z</time>
      </trkpt>
      <trkpt lat="41.55479" lon="32.41087">
        <ele>45.005175</ele>
        <time>2021-08-21T11:06:08.066Z</time>
      </trkpt>
      <trkpt lat="41.55376" lon="32.4098">
        <ele>44.580969</ele>
        <time>2021-08-21T11:06:49.139Z</time>
      </trkpt>
      <trkpt lat="41.55355" lon="32.40941">
        <ele>44.403674</ele>
        <time>2021-08-21T11:06:58.753Z</time>
      </trkpt>
      <trkpt lat="41.5534" lon="32.40933">
        <ele>44.324819</ele>
        <time>2021-08-21T11:07:02.975Z</time>
      </trkpt>
      <trkpt lat="41.55318" lon="32.40941">
        <ele>44.184495</ele>
        <time>2021-08-21T11:07:09.205Z</time>
      </trkpt>
      <trkpt lat="41.55297" lon="32.40959">
        <ele>44.022553</ele>
        <time>2021-08-21T11:07:15.905Z</time>
      </trkpt>
      <trkpt lat="41.55265" lon="32.41036">
        <ele>43.589278</ele>
        <time>2021-08-21T11:07:34.534Z</time>
      </trkpt>
      <trkpt lat="41.55246" lon="32.40991">
        <ele>43.336934</ele>
        <time>2021-08-21T11:07:45.617Z</time>
      </trkpt>
      <trkpt lat="41.55218" lon="32.40962">
        <ele>43.118631</ele>
        <time>2021-08-21T11:07:56.800Z</time>
      </trkpt>
      <trkpt lat="41.55173" lon="32.40869">
        <ele>43.772274</ele>
        <time>2021-08-21T11:08:25.856Z</time>
      </trkpt>
      <trkpt lat="41.55152" lon="32.40846">
        <ele>43.99082</ele>
        <time>2021-08-21T11:08:36.636Z</time>
      </trkpt>
      <trkpt lat="41.55036" lon="32.40782">
        <ele>44.962854</ele>
        <time>2021-08-21T11:09:22.407Z</time>
      </trkpt>
      <trkpt lat="41.54971" lon="32.40728">
        <ele>45.5374</ele>
        <time>2021-08-21T11:09:48.505Z</time>
      </trkpt>
      <trkpt lat="41.54867" lon="32.4066">
        <ele>47.014489</ele>
        <time>2021-08-21T11:10:29.447Z</time>
      </trkpt>
      <trkpt lat="41.54795" lon="32.4063">
        <ele>48.242964</ele>
        <time>2021-08-21T11:10:59.785Z</time>
      </trkpt>
      <trkpt lat="41.54722" lon="32.40601">
        <ele>50.625164</ele>
        <time>2021-08-21T11:11:35.854Z</time>
      </trkpt>
      <trkpt lat="41.54682" lon="32.40594">
        <ele>52.461093</ele>
        <time>2021-08-21T11:11:58.155Z</time>
      </trkpt>
      <trkpt lat="41.54631" lon="32.40592">
        <ele>54.720776</ele>
        <time>2021-08-21T11:12:27.574Z</time>
      </trkpt>
      <trkpt lat="41.54587" lon="32.40581">
        <ele>56.739591</ele>
        <time>2021-08-21T11:12:55.585Z</time>
      </trkpt>
      <trkpt lat="41.54486" lon="32.40501">
        <ele>64.269551</ele>
        <time>2021-08-21T11:14:15.026Z</time>
      </trkpt>
      <trkpt lat="41.54341" lon="32.40424">
        <ele>73.952501</ele>
        <time>2021-08-21T11:16:02.640Z</time>
      </trkpt>
      <trkpt lat="41.54276" lon="32.40396">
        <ele>78.055572</ele>
        <time>2021-08-21T11:16:45.534Z</time>
      </trkpt>
      <trkpt lat="41.5421" lon="32.40355">
        <ele>81.426106</ele>
        <time>2021-08-21T11:17:27.096Z</time>
      </trkpt>
      <trkpt lat="41.54089" lon="32.40238">
        <ele>87.368702</ele>
        <time>2021-08-21T11:18:45.856Z</time>
      </trkpt>
      <trkpt lat="41.5406" lon="32.4021">
        <ele>88.459027</ele>
        <time>2021-08-21T11:19:02.917Z</time>
      </trkpt>
      <trkpt lat="41.54049" lon="32.402">
        <ele>88.892283</ele>
        <time>2021-08-21T11:19:09.882Z</time>
      </trkpt>
      <trkpt lat="41.53846" lon="32.40002">
        <ele>96.967414</ele>
        <time>2021-08-21T11:21:07.958Z</time>
      </trkpt>
      <trkpt lat="41.53725" lon="32.39853">
        <ele>103.507311</ele>
        <time>2021-08-21T11:22:42.256Z</time>
      </trkpt>
      <trkpt lat="41.53708" lon="32.39817">
        <ele>104.851136</ele>
        <time>2021-08-21T11:22:59.735Z</time>
      </trkpt>
      <trkpt lat="41.53708" lon="32.39778">
        <ele>105.727901</ele>
        <time>2021-08-21T11:23:14.524Z</time>
      </trkpt>
      <trkpt lat="41.53709" lon="32.39735">
        <ele>105.650516</ele>
        <time>2021-08-21T11:23:29.189Z</time>
      </trkpt>
      <trkpt lat="41.53719" lon="32.39684">
        <ele>105.555646</ele>
        <time>2021-08-21T11:23:45.511Z</time>
      </trkpt>
      <trkpt lat="41.53777" lon="32.39515">
        <ele>103.510661</ele>
        <time>2021-08-21T11:24:19.101Z</time>
      </trkpt>
      <trkpt lat="41.53793" lon="32.39444">
        <ele>100.956947</ele>
        <time>2021-08-21T11:24:30.705Z</time>
      </trkpt>
      <trkpt lat="41.53796" lon="32.39295">
        <ele>95.828364</ele>
        <time>2021-08-21T11:24:53.932Z</time>
      </trkpt>
      <trkpt lat="41.53816" lon="32.39059">
        <ele>88.288599</ele>
        <time>2021-08-21T11:25:32.402Z</time>
      </trkpt>
      <trkpt lat="41.53828" lon="32.38843">
        <ele>84.469939</ele>
        <time>2021-08-21T11:26:12.442Z</time>
      </trkpt>
      <trkpt lat="41.53819" lon="32.38805">
        <ele>84.079399</ele>
        <time>2021-08-21T11:26:20.271Z</time>
      </trkpt>
      <trkpt lat="41.53759" lon="32.38749">
        <ele>83.114027</ele>
        <time>2021-08-21T11:26:39.554Z</time>
      </trkpt>
      <trkpt lat="41.53736" lon="32.38712">
        <ele>82.632994</ele>
        <time>2021-08-21T11:26:49.215Z</time>
      </trkpt>
      <trkpt lat="41.53726" lon="32.38687">
        <ele>82.346351</ele>
        <time>2021-08-21T11:26:54.831Z</time>
      </trkpt>
      <trkpt lat="41.53714" lon="32.38601">
        <ele>81.554217</ele>
        <time>2021-08-21T11:27:12.102Z</time>
      </trkpt>
      <trkpt lat="41.53678" lon="32.38501">
        <ele>80.563788</ele>
        <time>2021-08-21T11:27:33.624Z</time>
      </trkpt>
      <trkpt lat="41.53668" lon="32.38427">
        <ele>79.99826</ele>
        <time>2021-08-21T11:27:48.845Z</time>
      </trkpt>
      <trkpt lat="41.53672" lon="32.38333">
        <ele>79.819718</ele>
        <time>2021-08-21T11:28:09.106Z</time>
      </trkpt>
      <trkpt lat="41.5367" lon="32.38279">
        <ele>79.717782</ele>
        <time>2021-08-21T11:28:21.420Z</time>
      </trkpt>
      <trkpt lat="41.53657" lon="32.38177">
        <ele>79.437554</ele>
        <time>2021-08-21T11:28:47.175Z</time>
      </trkpt>
      <trkpt lat="41.53559" lon="32.38075">
        <ele>78.597175</ele>
        <time>2021-08-21T11:29:25.281Z</time>
      </trkpt>
      <trkpt lat="41.53512" lon="32.38035">
        <ele>77.595141</ele>
        <time>2021-08-21T11:29:39.002Z</time>
      </trkpt>
      <trkpt lat="41.53398" lon="32.37939">
        <ele>72.549397</ele>
        <time>2021-08-21T11:30:08.363Z</time>
      </trkpt>
      <trkpt lat="41.53364" lon="32.37899">
        <ele>70.951891</ele>
        <time>2021-08-21T11:30:17.858Z</time>
      </trkpt>
      <trkpt lat="41.53336" lon="32.37825">
        <ele>68.928967</ele>
        <time>2021-08-21T11:30:31.518Z</time>
      </trkpt>
      <trkpt lat="41.53295" lon="32.37746">
        <ele>66.623564</ele>
        <time>2021-08-21T11:30:48.592Z</time>
      </trkpt>
      <trkpt lat="41.53266" lon="32.37689">
        <ele>65.378075</ele>
        <time>2021-08-21T11:31:01.653Z</time>
      </trkpt>
      <trkpt lat="41.53248" lon="32.37602">
        <ele>64.314436</ele>
        <time>2021-08-21T11:31:19.200Z</time>
      </trkpt>
      <trkpt lat="41.53221" lon="32.37398">
        <ele>61.902152</ele>
        <time>2021-08-21T11:31:58.779Z</time>
      </trkpt>
      <trkpt lat="41.53195" lon="32.373">
        <ele>60.695484</ele>
        <time>2021-08-21T11:32:18.392Z</time>
      </trkpt>
      <trkpt lat="41.53192" lon="32.3725">
        <ele>60.171883</ele>
        <time>2021-08-21T11:32:28.152Z</time>
      </trkpt>
      <trkpt lat="41.53193" lon="32.37147">
        <ele>60.076846</ele>
        <time>2021-08-21T11:32:49.797Z</time>
      </trkpt>
      <trkpt lat="41.53178" lon="32.36861">
        <ele>61.297135</ele>
        <time>2021-08-21T11:34:03.801Z</time>
      </trkpt>
      <trkpt lat="41.53181" lon="32.36792">
        <ele>61.899692</ele>
        <time>2021-08-21T11:34:24.856Z</time>
      </trkpt>
      <trkpt lat="41.53217" lon="32.3644">
        <ele>69.060043</ele>
        <time>2021-08-21T11:36:29.237Z</time>
      </trkpt>
      <trkpt lat="41.53312" lon="32.3614">
        <ele>75.102283</ele>
        <time>2021-08-21T11:38:28.268Z</time>
      </trkpt>
      <trkpt lat="41.53313" lon="32.36121">
        <ele>75.394679</ele>
        <time>2021-08-21T11:38:33.825Z</time>
      </trkpt>
      <trkpt lat="41.53314" lon="32.36092">
        <ele>75.837128</ele>
        <time>2021-08-21T11:38:40.070Z</time>
      </trkpt>
      <trkpt lat="41.53354" lon="32.35924">
        <ele>73.319833</ele>
        <time>2021-08-21T11:39:12.983Z</time>
      </trkpt>
      <trkpt lat="41.53354" lon="32.3582">
        <ele>71.461898</ele>
        <time>2021-08-21T11:39:30.422Z</time>
      </trkpt>
      <trkpt lat="41.53411" lon="32.35433">
        <ele>63.012569</ele>
        <time>2021-08-21T11:40:39.043Z</time>
      </trkpt>
      <trkpt lat="41.53416" lon="32.35365">
        <ele>61.708442</ele>
        <time>2021-08-21T11:40:51.551Z</time>
      </trkpt>
      <trkpt lat="41.53463" lon="32.35009">
        <ele>56.164062</ele>
        <time>2021-08-21T11:41:58.895Z</time>
      </trkpt>
      <trkpt lat="41.53478" lon="32.34946">
        <ele>55.102908</ele>
        <time>2021-08-21T11:42:10.983Z</time>
      </trkpt>
      <trkpt lat="41.53573" lon="32.34745">
        <ele>49.536979</ele>
        <time>2021-08-21T11:42:52.241Z</time>
      </trkpt>
      <trkpt lat="41.53669" lon="32.34603">
        <ele>42.547936</ele>
        <time>2021-08-21T11:43:22.583Z</time>
      </trkpt>
      <trkpt lat="41.53716" lon="32.34548">
        <ele>39.243742</ele>
        <time>2021-08-21T11:43:35.426Z</time>
      </trkpt>
      <trkpt lat="41.53728" lon="32.34539">
        <ele>38.499675</ele>
        <time>2021-08-21T11:43:38.266Z</time>
      </trkpt>
      <trkpt lat="41.53749" lon="32.34524">
        <ele>37.276724</ele>
        <time>2021-08-21T11:43:43.028Z</time>
      </trkpt>
      <trkpt lat="41.53804" lon="32.34478">
        <ele>33.838031</ele>
        <time>2021-08-21T11:43:56.478Z</time>
      </trkpt>
      <trkpt lat="41.53817" lon="32.34452">
        <ele>32.613571</ele>
        <time>2021-08-21T11:44:01.309Z</time>
      </trkpt>
      <trkpt lat="41.53816" lon="32.34431">
        <ele>31.783381</ele>
        <time>2021-08-21T11:44:04.606Z</time>
      </trkpt>
      <trkpt lat="41.5381" lon="32.34391">
        <ele>30.161626</ele>
        <time>2021-08-21T11:44:11.056Z</time>
      </trkpt>
      <trkpt lat="41.53795" lon="32.34329">
        <ele>28.70006</ele>
        <time>2021-08-21T11:44:22.245Z</time>
      </trkpt>
      <trkpt lat="41.53773" lon="32.34196">
        <ele>26.520335</ele>
        <time>2021-08-21T11:44:47.014Z</time>
      </trkpt>
      <trkpt lat="41.53741" lon="32.34039">
        <ele>25.87635</ele>
        <time>2021-08-21T11:45:23.796Z</time>
      </trkpt>
      <trkpt lat="41.53745" lon="32.3398">
        <ele>26.015718</ele>
        <time>2021-08-21T11:45:39.162Z</time>
      </trkpt>
      <trkpt lat="41.53758" lon="32.33961">
        <ele>26.073845</ele>
        <time>2021-08-21T11:45:45.400Z</time>
      </trkpt>
      <trkpt lat="41.53776" lon="32.33944">
        <ele>26.144431</ele>
        <time>2021-08-21T11:45:53.885Z</time>
      </trkpt>
      <trkpt lat="41.5382" lon="32.3393">
        <ele>26.747669</ele>
        <time>2021-08-21T11:46:11.027Z</time>
      </trkpt>
      <trkpt lat="41.53865" lon="32.33897">
        <ele>27.681861</ele>
        <time>2021-08-21T11:46:30.629Z</time>
      </trkpt>
      <trkpt lat="41.53876" lon="32.33868">
        <ele>28.126876</ele>
        <time>2021-08-21T11:46:40.278Z</time>
      </trkpt>
      <trkpt lat="41.53875" lon="32.33846">
        <ele>28.427027</ele>
        <time>2021-08-21T11:46:46.566Z</time>
      </trkpt>
      <trkpt lat="41.53866" lon="32.33832">
        <ele>28.673318</ele>
        <time>2021-08-21T11:46:52.630Z</time>
      </trkpt>
      <trkpt lat="41.53845" lon="32.33814">
        <ele>29.12509</ele>
        <time>2021-08-21T11:47:02.736Z</time>
      </trkpt>
      <trkpt lat="41.53798" lon="32.33747">
        <ele>32.10385</ele>
        <time>2021-08-21T11:47:37.978Z</time>
      </trkpt>
      <trkpt lat="41.53776" lon="32.33725">
        <ele>33.572219</ele>
        <time>2021-08-21T11:47:54.178Z</time>
      </trkpt>
      <trkpt lat="41.53747" lon="32.33693">
        <ele>35.576737</ele>
        <time>2021-08-21T11:48:18.040Z</time>
      </trkpt>
      <trkpt lat="41.5371" lon="32.33641">
        <ele>38.382903</ele>
        <time>2021-08-21T11:48:53.763Z</time>
      </trkpt>
      <trkpt lat="41.53689" lon="32.33594">
        <ele>41.336152</ele>
        <time>2021-08-21T11:49:23.704Z</time>
      </trkpt>
      <trkpt lat="41.53644" lon="32.33448">
        <ele>50.582077</ele>
        <time>2021-08-21T11:50:55.362Z</time>
      </trkpt>
      <trkpt lat="41.53586" lon="32.33326">
        <ele>58.354019</ele>
        <time>2021-08-21T11:52:16.002Z</time>
      </trkpt>
      <trkpt lat="41.53562" lon="32.33254">
        <ele>62.425549</ele>
        <time>2021-08-21T11:52:57.266Z</time>
      </trkpt>
      <trkpt lat="41.53526" lon="32.33184">
        <ele>66.160623</ele>
        <time>2021-08-21T11:53:38.161Z</time>
      </trkpt>
      <trkpt lat="41.53511" lon="32.33162">
        <ele>66.943651</ele>
        <time>2021-08-21T11:53:51.921Z</time>
      </trkpt>
      <trkpt lat="41.53427" lon="32.33046">
        <ele>71.184353</ele>
        <time>2021-08-21T11:54:52.331Z</time>
      </trkpt>
      <trkpt lat="41.53408" lon="32.33016">
        <ele>71.726609</ele>
        <time>2021-08-21T11:55:03.681Z</time>
      </trkpt>
      <trkpt lat="41.534" lon="32.32995">
        <ele>71.588064</ele>
        <time>2021-08-21T11:55:09.124Z</time>
      </trkpt>
      <trkpt lat="41.53403" lon="32.32948">
        <ele>71.304701</ele>
        <time>2021-08-21T11:55:19.323Z</time>
      </trkpt>
      <trkpt lat="41.53414" lon="32.32922">
        <ele>71.126616</ele>
        <time>2021-08-21T11:55:25.288Z</time>
      </trkpt>
      <trkpt lat="41.53416" lon="32.32864">
        <ele>70.780014</ele>
        <time>2021-08-21T11:55:36.381Z</time>
      </trkpt>
      <trkpt lat="41.53412" lon="32.32837">
        <ele>70.618649</ele>
        <time>2021-08-21T11:55:41.371Z</time>
      </trkpt>
      <trkpt lat="41.53377" lon="32.32751">
        <ele>69.91791</ele>
        <time>2021-08-21T11:55:59.301Z</time>
      </trkpt>
      <trkpt lat="41.53365" lon="32.32706">
        <ele>69.532893</ele>
        <time>2021-08-21T11:56:08.316Z</time>
      </trkpt>
      <trkpt lat="41.53364" lon="32.32536">
        <ele>68.539707</ele>
        <time>2021-08-21T11:56:45.140Z</time>
      </trkpt>
      <trkpt lat="41.5336" lon="32.32518">
        <ele>68.576086</ele>
        <time>2021-08-21T11:56:49.976Z</time>
      </trkpt>
      <trkpt lat="41.53343" lon="32.32503">
        <ele>68.630424</ele>
        <time>2021-08-21T11:56:57.349Z</time>
      </trkpt>
      <trkpt lat="41.53255" lon="32.32519">
        <ele>68.868014</ele>
        <time>2021-08-21T11:57:28.037Z</time>
      </trkpt>
      <trkpt lat="41.53224" lon="32.32517">
        <ele>68.933074</ele>
        <time>2021-08-21T11:57:37.908Z</time>
      </trkpt>
      <trkpt lat="41.53192" lon="32.32501">
        <ele>68.61419</ele>
        <time>2021-08-21T11:57:48.428Z</time>
      </trkpt>
      <trkpt lat="41.53148" lon="32.32446">
        <ele>68.043183</ele>
        <time>2021-08-21T11:58:05.493Z</time>
      </trkpt>
      <trkpt lat="41.53111" lon="32.32396">
        <ele>67.551033</ele>
        <time>2021-08-21T11:58:19.176Z</time>
      </trkpt>
      <trkpt lat="41.53071" lon="32.32325">
        <ele>66.513964</ele>
        <time>2021-08-21T11:58:35.414Z</time>
      </trkpt>
      <trkpt lat="41.53014" lon="32.32263">
        <ele>64.923814</ele>
        <time>2021-08-21T11:58:53.519Z</time>
      </trkpt>
      <trkpt lat="41.52992" lon="32.32225">
        <ele>64.154886</ele>
        <time>2021-08-21T11:59:02.233Z</time>
      </trkpt>
      <trkpt lat="41.52965" lon="32.3216">
        <ele>62.928553</ele>
        <time>2021-08-21T11:59:15.639Z</time>
      </trkpt>
      <trkpt lat="41.52927" lon="32.32111">
        <ele>61.706357</ele>
        <time>2021-08-21T11:59:28.186Z</time>
      </trkpt>
      <trkpt lat="41.52892" lon="32.32018">
        <ele>59.878705</ele>
        <time>2021-08-21T11:59:46.961Z</time>
      </trkpt>
      <trkpt lat="41.52866" lon="32.31963">
        <ele>58.931974</ele>
        <time>2021-08-21T11:59:58.654Z</time>
      </trkpt>
      <trkpt lat="41.52814" lon="32.31886">
        <ele>57.841496</ele>
        <time>2021-08-21T12:00:17.820Z</time>
      </trkpt>
      <trkpt lat="41.52772" lon="32.31802">
        <ele>56.771744</ele>
        <time>2021-08-21T12:00:38.434Z</time>
      </trkpt>
      <trkpt lat="41.52758" lon="32.31781">
        <ele>56.791616</ele>
        <time>2021-08-21T12:00:44.536Z</time>
      </trkpt>
      <trkpt lat="41.52735" lon="32.31744">
        <ele>57.084777</ele>
        <time>2021-08-21T12:00:56.045Z</time>
      </trkpt>
      <trkpt lat="41.5268" lon="32.31653">
        <ele>57.796696</ele>
        <time>2021-08-21T12:01:28.141Z</time>
      </trkpt>
      <trkpt lat="41.52609" lon="32.31501">
        <ele>59.615322</ele>
        <time>2021-08-21T12:02:23.743Z</time>
      </trkpt>
      <trkpt lat="41.5259" lon="32.31411">
        <ele>60.736287</ele>
        <time>2021-08-21T12:02:52.081Z</time>
      </trkpt>
      <trkpt lat="41.52568" lon="32.31351">
        <ele>61.381041</ele>
        <time>2021-08-21T12:03:11.360Z</time>
      </trkpt>
      <trkpt lat="41.52565" lon="32.3124">
        <ele>62.275988</ele>
        <time>2021-08-21T12:03:40.687Z</time>
      </trkpt>
      <trkpt lat="41.52557" lon="32.31205">
        <ele>62.573931</ele>
        <time>2021-08-21T12:03:50.009Z</time>
      </trkpt>
      <trkpt lat="41.52507" lon="32.31104">
        <ele>64.089743</ele>
        <time>2021-08-21T12:04:26.169Z</time>
      </trkpt>
      <trkpt lat="41.52485" lon="32.31039">
        <ele>65.196101</ele>
        <time>2021-08-21T12:04:48.631Z</time>
      </trkpt>
      <trkpt lat="41.52477" lon="32.31022">
        <ele>65.518944</ele>
        <time>2021-08-21T12:04:55.698Z</time>
      </trkpt>
      <trkpt lat="41.52457" lon="32.3098">
        <ele>66.290994</ele>
        <time>2021-08-21T12:05:12.579Z</time>
      </trkpt>
      <trkpt lat="41.52426" lon="32.30934">
        <ele>67.317721</ele>
        <time>2021-08-21T12:05:34.412Z</time>
      </trkpt>
      <trkpt lat="41.52406" lon="32.30883">
        <ele>68.295278</ele>
        <time>2021-08-21T12:05:54.629Z</time>
      </trkpt>
      <trkpt lat="41.52378" lon="32.30781">
        <ele>70.160122</ele>
        <time>2021-08-21T12:06:31.193Z</time>
      </trkpt>
      <trkpt lat="41.5236" lon="32.30732">
        <ele>70.93721</ele>
        <time>2021-08-21T12:06:47.251Z</time>
      </trkpt>
      <trkpt lat="41.52335" lon="32.30621">
        <ele>71.67999</ele>
        <time>2021-08-21T12:07:18.793Z</time>
      </trkpt>
      <trkpt lat="41.52331" lon="32.30548">
        <ele>72.141762</ele>
        <time>2021-08-21T12:07:36.921Z</time>
      </trkpt>
      <trkpt lat="41.5232" lon="32.30451">
        <ele>72.825016</ele>
        <time>2021-08-21T12:08:02.014Z</time>
      </trkpt>
      <trkpt lat="41.52308" lon="32.30397">
        <ele>73.225203</ele>
        <time>2021-08-21T12:08:16.747Z</time>
      </trkpt>
      <trkpt lat="41.5229" lon="32.30359">
        <ele>73.549621</ele>
        <time>2021-08-21T12:08:29.128Z</time>
      </trkpt>
      <trkpt lat="41.52257" lon="32.30317">
        <ele>73.992757</ele>
        <time>2021-08-21T12:08:46.831Z</time>
      </trkpt>
      <trkpt lat="41.52233" lon="32.30271">
        <ele>74.681304</ele>
        <time>2021-08-21T12:09:03.751Z</time>
      </trkpt>
      <trkpt lat="41.52183" lon="32.30217">
        <ele>75.915357</ele>
        <time>2021-08-21T12:09:30.930Z</time>
      </trkpt>
      <trkpt lat="41.52158" lon="32.30177">
        <ele>76.658553</ele>
        <time>2021-08-21T12:09:47.635Z</time>
      </trkpt>
      <trkpt lat="41.52093" lon="32.30038">
        <ele>79.051489</ele>
        <time>2021-08-21T12:10:39.551Z</time>
      </trkpt>
      <trkpt lat="41.52074" lon="32.30003">
        <ele>79.701153</ele>
        <time>2021-08-21T12:10:52.945Z</time>
      </trkpt>
      <trkpt lat="41.52049" lon="32.29972">
        <ele>80.390739</ele>
        <time>2021-08-21T12:11:08.066Z</time>
      </trkpt>
      <trkpt lat="41.52027" lon="32.29919">
        <ele>81.277353</ele>
        <time>2021-08-21T12:11:27.356Z</time>
      </trkpt>
      <trkpt lat="41.51984" lon="32.29838">
        <ele>82.676547</ele>
        <time>2021-08-21T12:11:58.593Z</time>
      </trkpt>
      <trkpt lat="41.51978" lon="32.29828">
        <ele>82.860573</ele>
        <time>2021-08-21T12:12:02.941Z</time>
      </trkpt>
      <trkpt lat="41.51966" lon="32.2981">
        <ele>83.195888</ele>
        <time>2021-08-21T12:12:10.385Z</time>
      </trkpt>
      <trkpt lat="41.5192" lon="32.29755">
        <ele>84.361543</ele>
        <time>2021-08-21T12:12:35.769Z</time>
      </trkpt>
      <trkpt lat="41.51817" lon="32.29483">
        <ele>88.669278</ele>
        <time>2021-08-21T12:14:07.076Z</time>
      </trkpt>
      <trkpt lat="41.51792" lon="32.29439">
        <ele>89.926128</ele>
        <time>2021-08-21T12:14:25.971Z</time>
      </trkpt>
      <trkpt lat="41.5175" lon="32.294">
        <ele>91.484098</ele>
        <time>2021-08-21T12:14:51.076Z</time>
      </trkpt>
      <trkpt lat="41.51694" lon="32.29358">
        <ele>93.543437</ele>
        <time>2021-08-21T12:15:27.626Z</time>
      </trkpt>
      <trkpt lat="41.51633" lon="32.29325">
        <ele>95.939779</ele>
        <time>2021-08-21T12:16:03.879Z</time>
      </trkpt>
      <trkpt lat="41.51603" lon="32.29287">
        <ele>97.460134</ele>
        <time>2021-08-21T12:16:25.870Z</time>
      </trkpt>
      <trkpt lat="41.51585" lon="32.29241">
        <ele>98.863493</ele>
        <time>2021-08-21T12:16:44.900Z</time>
      </trkpt>
      <trkpt lat="41.51581" lon="32.2923">
        <ele>99.214142</ele>
        <time>2021-08-21T12:16:48.355Z</time>
      </trkpt>
      <trkpt lat="41.51551" lon="32.29137">
        <ele>100.758473</ele>
        <time>2021-08-21T12:17:21.240Z</time>
      </trkpt>
      <trkpt lat="41.51528" lon="32.29025">
        <ele>102.38165</ele>
        <time>2021-08-21T12:17:53.885Z</time>
      </trkpt>
      <trkpt lat="41.51505" lon="32.28943">
        <ele>104.757224</ele>
        <time>2021-08-21T12:18:21.065Z</time>
      </trkpt>
      <trkpt lat="41.51447" lon="32.28823">
        <ele>109.752346</ele>
        <time>2021-08-21T12:19:24.262Z</time>
      </trkpt>
      <trkpt lat="41.51429" lon="32.28792">
        <ele>111.128481</ele>
        <time>2021-08-21T12:19:44.257Z</time>
      </trkpt>
      <trkpt lat="41.51418" lon="32.28772">
        <ele>112.617197</ele>
        <time>2021-08-21T12:19:58.595Z</time>
      </trkpt>
      <trkpt lat="41.51393" lon="32.28748">
        <ele>115.2696</ele>
        <time>2021-08-21T12:20:21.182Z</time>
      </trkpt>
      <trkpt lat="41.51357" lon="32.28734">
        <ele>118.568953</ele>
        <time>2021-08-21T12:20:51.696Z</time>
      </trkpt>
      <trkpt lat="41.51291" lon="32.28728">
        <ele>124.29812</ele>
        <time>2021-08-21T12:21:48.228Z</time>
      </trkpt>
      <trkpt lat="41.5115" lon="32.2864">
        <ele>138.080385</ele>
        <time>2021-08-21T12:23:57.039Z</time>
      </trkpt>
      <trkpt lat="41.51134" lon="32.28637">
        <ele>139.47792</ele>
        <time>2021-08-21T12:24:09.783Z</time>
      </trkpt>
      <trkpt lat="41.51022" lon="32.28669">
        <ele>148.306339</ele>
        <time>2021-08-21T12:25:37.053Z</time>
      </trkpt>
      <trkpt lat="41.50991" lon="32.28668">
        <ele>150.458649</ele>
        <time>2021-08-21T12:25:58.308Z</time>
      </trkpt>
      <trkpt lat="41.50943" lon="32.28645">
        <ele>154.090452</ele>
        <time>2021-08-21T12:26:31.902Z</time>
      </trkpt>
      <trkpt lat="41.50935" lon="32.28638">
        <ele>154.723333</ele>
        <time>2021-08-21T12:26:38.251Z</time>
      </trkpt>
      <trkpt lat="41.50907" lon="32.28611">
        <ele>157.118213</ele>
        <time>2021-08-21T12:27:00.883Z</time>
      </trkpt>
      <trkpt lat="41.50885" lon="32.28597">
        <ele>158.735194</ele>
        <time>2021-08-21T12:27:15.971Z</time>
      </trkpt>
      <trkpt lat="41.50836" lon="32.28579">
        <ele>162.109998</ele>
        <time>2021-08-21T12:27:48.970Z</time>
      </trkpt>
      <trkpt lat="41.50799" lon="32.28551">
        <ele>164.954155</ele>
        <time>2021-08-21T12:28:18.006Z</time>
      </trkpt>
      <trkpt lat="41.50733" lon="32.2848">
        <ele>172.08706</ele>
        <time>2021-08-21T12:29:21.337Z</time>
      </trkpt>
      <trkpt lat="41.50685" lon="32.28416">
        <ele>178.858838</ele>
        <time>2021-08-21T12:30:20.634Z</time>
      </trkpt>
      <trkpt lat="41.50643" lon="32.2838">
        <ele>183.90825</ele>
        <time>2021-08-21T12:31:08.981Z</time>
      </trkpt>
      <trkpt lat="41.50635" lon="32.28352">
        <ele>186.172013</ele>
        <time>2021-08-21T12:31:30.922Z</time>
      </trkpt>
      <trkpt lat="41.50627" lon="32.28281">
        <ele>191.77618</ele>
        <time>2021-08-21T12:32:23.676Z</time>
      </trkpt>
      <trkpt lat="41.50613" lon="32.28208">
        <ele>197.661965</ele>
        <time>2021-08-21T12:33:17.625Z</time>
      </trkpt>
      <trkpt lat="41.50617" lon="32.28175">
        <ele>200.332807</ele>
        <time>2021-08-21T12:33:41.337Z</time>
      </trkpt>
      <trkpt lat="41.50715" lon="32.2791">
        <ele>215.904728</ele>
        <time>2021-08-21T12:36:20.905Z</time>
      </trkpt>
      <trkpt lat="41.5073" lon="32.27818">
        <ele>213.631208</ele>
        <time>2021-08-21T12:36:40.071Z</time>
      </trkpt>
      <trkpt lat="41.50737" lon="32.27794">
        <ele>213.006674</ele>
        <time>2021-08-21T12:36:44.382Z</time>
      </trkpt>
      <trkpt lat="41.50754" lon="32.27747">
        <ele>211.721787</ele>
        <time>2021-08-21T12:36:52.734Z</time>
      </trkpt>
      <trkpt lat="41.50774" lon="32.27691">
        <ele>210.218397</ele>
        <time>2021-08-21T12:37:01.901Z</time>
      </trkpt>
      <trkpt lat="41.50796" lon="32.27527">
        <ele>198.158074</ele>
        <time>2021-08-21T12:37:25.592Z</time>
      </trkpt>
      <trkpt lat="41.50801" lon="32.27404">
        <ele>190.17205</ele>
        <time>2021-08-21T12:37:43.215Z</time>
      </trkpt>
      <trkpt lat="41.50813" lon="32.27337">
        <ele>186.527174</ele>
        <time>2021-08-21T12:37:53.530Z</time>
      </trkpt>
      <trkpt lat="41.50822" lon="32.27297">
        <ele>184.292248</ele>
        <time>2021-08-21T12:37:59.976Z</time>
      </trkpt>
      <trkpt lat="41.50831" lon="32.27272">
        <ele>182.870768</ele>
        <time>2021-08-21T12:38:04.388Z</time>
      </trkpt>
      <trkpt lat="41.50838" lon="32.27225">
        <ele>180.314105</ele>
        <time>2021-08-21T12:38:12.345Z</time>
      </trkpt>
      <trkpt lat="41.50857" lon="32.27182">
        <ele>178.131104</ele>
        <time>2021-08-21T12:38:20.584Z</time>
      </trkpt>
      <trkpt lat="41.50871" lon="32.27129">
        <ele>175.696977</ele>
        <time>2021-08-21T12:38:30.083Z</time>
      </trkpt>
      <trkpt lat="41.50874" lon="32.27091">
        <ele>174.060393</ele>
        <time>2021-08-21T12:38:36.572Z</time>
      </trkpt>
      <trkpt lat="41.50871" lon="32.27066">
        <ele>173.016564</ele>
        <time>2021-08-21T12:38:40.613Z</time>
      </trkpt>
      <trkpt lat="41.50817" lon="32.26968">
        <ele>166.572891</ele>
        <time>2021-08-21T12:38:59.885Z</time>
      </trkpt>
      <trkpt lat="41.50809" lon="32.26934">
        <ele>164.017035</ele>
        <time>2021-08-21T12:39:05.395Z</time>
      </trkpt>
      <trkpt lat="41.50806" lon="32.2682">
        <ele>155.988835</ele>
        <time>2021-08-21T12:39:22.378Z</time>
      </trkpt>
      <trkpt lat="41.50797" lon="32.26778">
        <ele>152.867639</ele>
        <time>2021-08-21T12:39:28.882Z</time>
      </trkpt>
      <trkpt lat="41.50785" lon="32.26744">
        <ele>149.936558</ele>
        <time>2021-08-21T12:39:34.433Z</time>
      </trkpt>
      <trkpt lat="41.50761" lon="32.26702">
        <ele>145.795171</ele>
        <time>2021-08-21T12:39:42.202Z</time>
      </trkpt>
      <trkpt lat="41.50764" lon="32.26649">
        <ele>141.659618</ele>
        <time>2021-08-21T12:39:49.954Z</time>
      </trkpt>
      <trkpt lat="41.50756" lon="32.26615">
        <ele>138.867681</ele>
        <time>2021-08-21T12:39:55.237Z</time>
      </trkpt>
      <trkpt lat="41.50726" lon="32.26536">
        <ele>132.840828</ele>
        <time>2021-08-21T12:40:08.629Z</time>
      </trkpt>
      <trkpt lat="41.50711" lon="32.26538">
        <ele>131.958463</ele>
        <time>2021-08-21T12:40:11.885Z</time>
      </trkpt>
      <trkpt lat="41.50697" lon="32.26551">
        <ele>130.989782</ele>
        <time>2021-08-21T12:40:15.333Z</time>
      </trkpt>
      <trkpt lat="41.50689" lon="32.2649">
        <ele>128.312582</ele>
        <time>2021-08-21T12:40:25.053Z</time>
      </trkpt>
      <trkpt lat="41.50682" lon="32.2637">
        <ele>123.277424</ele>
        <time>2021-08-21T12:40:44.403Z</time>
      </trkpt>
      <trkpt lat="41.50671" lon="32.26321">
        <ele>121.953087</ele>
        <time>2021-08-21T12:40:53.443Z</time>
      </trkpt>
      <trkpt lat="41.50674" lon="32.26271">
        <ele>120.681498</ele>
        <time>2021-08-21T12:41:02.168Z</time>
      </trkpt>
      <trkpt lat="41.50675" lon="32.26262">
        <ele>120.434386</ele>
        <time>2021-08-21T12:41:03.657Z</time>
      </trkpt>
      <trkpt lat="41.50663" lon="32.26118">
        <ele>116.887658</ele>
        <time>2021-08-21T12:41:28.218Z</time>
      </trkpt>
      <trkpt lat="41.5067" lon="32.26023">
        <ele>115.01072</ele>
        <time>2021-08-21T12:41:44.774Z</time>
      </trkpt>
      <trkpt lat="41.50653" lon="32.259">
        <ele>112.558525</ele>
        <time>2021-08-21T12:42:07.668Z</time>
      </trkpt>
      <trkpt lat="41.50632" lon="32.25817">
        <ele>110.933185</ele>
        <time>2021-08-21T12:42:23.643Z</time>
      </trkpt>
      <trkpt lat="41.50612" lon="32.25751">
        <ele>109.625734</ele>
        <time>2021-08-21T12:42:36.447Z</time>
      </trkpt>
      <trkpt lat="41.50591" lon="32.2571">
        <ele>108.712165</ele>
        <time>2021-08-21T12:42:45.181Z</time>
      </trkpt>
      <trkpt lat="41.50545" lon="32.25619">
        <ele>106.150014</ele>
        <time>2021-08-21T12:43:04.123Z</time>
      </trkpt>
      <trkpt lat="41.50479" lon="32.2554">
        <ele>103.193023</ele>
        <time>2021-08-21T12:43:23.990Z</time>
      </trkpt>
      <trkpt lat="41.50466" lon="32.25514">
        <ele>102.417316</ele>
        <time>2021-08-21T12:43:29.168Z</time>
      </trkpt>
      <trkpt lat="41.50466" lon="32.25417">
        <ele>100.991063</ele>
        <time>2021-08-21T12:43:45.957Z</time>
      </trkpt>
      <trkpt lat="41.5046" lon="32.25397">
        <ele>100.690501</ele>
        <time>2021-08-21T12:43:50.054Z</time>
      </trkpt>
      <trkpt lat="41.50447" lon="32.25377">
        <ele>100.313086</ele>
        <time>2021-08-21T12:43:54.856Z</time>
      </trkpt>
      <trkpt lat="41.50351" lon="32.25266">
        <ele>98.623031</ele>
        <time>2021-08-21T12:44:30.354Z</time>
      </trkpt>
      <trkpt lat="41.50276" lon="32.25168">
        <ele>98.088565</ele>
        <time>2021-08-21T12:45:01.077Z</time>
      </trkpt>
      <trkpt lat="41.50213" lon="32.25137">
        <ele>97.828275</ele>
        <time>2021-08-21T12:45:20.591Z</time>
      </trkpt>
      <trkpt lat="41.50198" lon="32.25113">
        <ele>97.755252</ele>
        <time>2021-08-21T12:45:27.229Z</time>
      </trkpt>
      <trkpt lat="41.50185" lon="32.25067">
        <ele>97.640331</ele>
        <time>2021-08-21T12:45:37.661Z</time>
      </trkpt>
      <trkpt lat="41.50168" lon="32.25045">
        <ele>97.567941</ele>
        <time>2021-08-21T12:45:44.286Z</time>
      </trkpt>
      <trkpt lat="41.50148" lon="32.25038">
        <ele>97.501494</ele>
        <time>2021-08-21T12:45:50.197Z</time>
      </trkpt>
      <trkpt lat="41.50125" lon="32.25039">
        <ele>97.431782</ele>
        <time>2021-08-21T12:45:57.028Z</time>
      </trkpt>
      <trkpt lat="41.50108" lon="32.2503">
        <ele>97.561222</ele>
        <time>2021-08-21T12:46:03.194Z</time>
      </trkpt>
      <trkpt lat="41.50099" lon="32.25011">
        <ele>97.883734</ele>
        <time>2021-08-21T12:46:09.282Z</time>
      </trkpt>
      <trkpt lat="41.50103" lon="32.24957">
        <ele>98.666466</ele>
        <time>2021-08-21T12:46:25.173Z</time>
      </trkpt>
      <trkpt lat="41.50095" lon="32.24944">
        <ele>98.893097</ele>
        <time>2021-08-21T12:46:30.011Z</time>
      </trkpt>
      <trkpt lat="41.50063" lon="32.24944">
        <ele>99.509829</ele>
        <time>2021-08-21T12:46:43.760Z</time>
      </trkpt>
      <trkpt lat="41.50025" lon="32.24928">
        <ele>100.27748</ele>
        <time>2021-08-21T12:47:02.159Z</time>
      </trkpt>
      <trkpt lat="41.50007" lon="32.24913">
        <ele>100.685753</ele>
        <time>2021-08-21T12:47:12.476Z</time>
      </trkpt>
      <trkpt lat="41.49974" lon="32.2486">
        <ele>102.495103</ele>
        <time>2021-08-21T12:47:38.426Z</time>
      </trkpt>
      <trkpt lat="41.49917" lon="32.24743">
        <ele>106.454242</ele>
        <time>2021-08-21T12:48:33.641Z</time>
      </trkpt>
      <trkpt lat="41.49872" lon="32.2469">
        <ele>109.021615</ele>
        <time>2021-08-21T12:49:06.699Z</time>
      </trkpt>
      <trkpt lat="41.4985" lon="32.24625">
        <ele>111.627146</ele>
        <time>2021-08-21T12:49:37.534Z</time>
      </trkpt>
      <trkpt lat="41.49838" lon="32.24602">
        <ele>112.646424</ele>
        <time>2021-08-21T12:49:49.800Z</time>
      </trkpt>
      <trkpt lat="41.49794" lon="32.24562">
        <ele>115.230533</ele>
        <time>2021-08-21T12:50:21.346Z</time>
      </trkpt>
      <trkpt lat="41.49778" lon="32.24512">
        <ele>117.360103</ele>
        <time>2021-08-21T12:50:46.298Z</time>
      </trkpt>
      <trkpt lat="41.49771" lon="32.24403">
        <ele>122.078388</ele>
        <time>2021-08-21T12:51:38.565Z</time>
      </trkpt>
      <trkpt lat="41.49756" lon="32.24323">
        <ele>125.669226</ele>
        <time>2021-08-21T12:52:19.765Z</time>
      </trkpt>
      <trkpt lat="41.49742" lon="32.24311">
        <ele>126.632918</ele>
        <time>2021-08-21T12:52:30.062Z</time>
      </trkpt>
      <trkpt lat="41.49674" lon="32.24326">
        <ele>130.09996</ele>
        <time>2021-08-21T12:53:12.555Z</time>
      </trkpt>
      <trkpt lat="41.49652" lon="32.24323">
        <ele>131.255625</ele>
        <time>2021-08-21T12:53:26.534Z</time>
      </trkpt>
      <trkpt lat="41.49634" lon="32.2431">
        <ele>132.255356</ele>
        <time>2021-08-21T12:53:37.408Z</time>
      </trkpt>
      <trkpt lat="41.49631" lon="32.24302">
        <ele>132.623304</ele>
        <time>2021-08-21T12:53:42.575Z</time>
      </trkpt>
      <trkpt lat="41.49609" lon="32.24247">
        <ele>134.951066</ele>
        <time>2021-08-21T12:54:07.728Z</time>
      </trkpt>
      <trkpt lat="41.4958" lon="32.24213">
        <ele>136.70997</ele>
        <time>2021-08-21T12:54:29.079Z</time>
      </trkpt>
      <trkpt lat="41.49493" lon="32.24157">
        <ele>140.599485</ele>
        <time>2021-08-21T12:55:24.516Z</time>
      </trkpt>
      <trkpt lat="41.49433" lon="32.24124">
        <ele>143.139537</ele>
        <time>2021-08-21T12:55:56.969Z</time>
      </trkpt>
      <trkpt lat="41.49429" lon="32.24122">
        <ele>143.144116</ele>
        <time>2021-08-21T12:56:00.074Z</time>
      </trkpt>
      <trkpt lat="41.49415" lon="32.24105">
        <ele>143.164358</ele>
        <time>2021-08-21T12:56:08.394Z</time>
      </trkpt>
      <trkpt lat="41.49398" lon="32.2407">
        <ele>143.197716</ele>
        <time>2021-08-21T12:56:22.126Z</time>
      </trkpt>
      <trkpt lat="41.49383" lon="32.24057">
        <ele>143.216513</ele>
        <time>2021-08-21T12:56:28.398Z</time>
      </trkpt>
      <trkpt lat="41.49368" lon="32.2405">
        <ele>143.233007</ele>
        <time>2021-08-21T12:56:34.745Z</time>
      </trkpt>
      <trkpt lat="41.49347" lon="32.24057">
        <ele>143.256208</ele>
        <time>2021-08-21T12:56:41.883Z</time>
      </trkpt>
      <trkpt lat="41.49287" lon="32.24056">
        <ele>143.320042</ele>
        <time>2021-08-21T12:56:58.246Z</time>
      </trkpt>
      <trkpt lat="41.49203" lon="32.24033">
        <ele>138.090694</ele>
        <time>2021-08-21T12:57:17.089Z</time>
      </trkpt>
      <trkpt lat="41.49129" lon="32.2402">
        <ele>133.060989</ele>
        <time>2021-08-21T12:57:32.348Z</time>
      </trkpt>
      <trkpt lat="41.49084" lon="32.23999">
        <ele>129.426152</ele>
        <time>2021-08-21T12:57:42.025Z</time>
      </trkpt>
      <trkpt lat="41.49068" lon="32.23976">
        <ele>127.327762</ele>
        <time>2021-08-21T12:57:46.845Z</time>
      </trkpt>
      <trkpt lat="41.49049" lon="32.23959">
        <ele>125.395155</ele>
        <time>2021-08-21T12:57:51.283Z</time>
      </trkpt>
      <trkpt lat="41.49006" lon="32.23943">
        <ele>121.430919</ele>
        <time>2021-08-21T12:58:00.411Z</time>
      </trkpt>
      <trkpt lat="41.48947" lon="32.23935">
        <ele>116.24129</ele>
        <time>2021-08-21T12:58:12.326Z</time>
      </trkpt>
      <trkpt lat="41.48904" lon="32.23922">
        <ele>112.646626</ele>
        <time>2021-08-21T12:58:21.485Z</time>
      </trkpt>
      <trkpt lat="41.48866" lon="32.23904">
        <ele>109.553284</ele>
        <time>2021-08-21T12:58:29.833Z</time>
      </trkpt>
      <trkpt lat="41.48834" lon="32.23881">
        <ele>106.731036</ele>
        <time>2021-08-21T12:58:37.405Z</time>
      </trkpt>
      <trkpt lat="41.48807" lon="32.23828">
        <ele>102.946023</ele>
        <time>2021-08-21T12:58:47.507Z</time>
      </trkpt>
      <trkpt lat="41.48774" lon="32.23783">
        <ele>99.048336</ele>
        <time>2021-08-21T12:58:57.131Z</time>
      </trkpt>
      <trkpt lat="41.48761" lon="32.23754">
        <ele>96.859836</ele>
        <time>2021-08-21T12:59:02.272Z</time>
      </trkpt>
      <trkpt lat="41.48758" lon="32.23728">
        <ele>95.163939</ele>
        <time>2021-08-21T12:59:06.231Z</time>
      </trkpt>
      <trkpt lat="41.48769" lon="32.23694">
        <ele>92.743512</ele>
        <time>2021-08-21T12:59:11.888Z</time>
      </trkpt>
      <trkpt lat="41.48767" lon="32.23674">
        <ele>91.438705</ele>
        <time>2021-08-21T12:59:14.933Z</time>
      </trkpt>
      <trkpt lat="41.4874" lon="32.23659">
        <ele>88.859845</ele>
        <time>2021-08-21T12:59:20.910Z</time>
      </trkpt>
      <trkpt lat="41.48646" lon="32.23646">
        <ele>82.395213</ele>
        <time>2021-08-21T12:59:40.142Z</time>
      </trkpt>
      <trkpt lat="41.48594" lon="32.23661">
        <ele>79.345071</ele>
        <time>2021-08-21T12:59:51.400Z</time>
      </trkpt>
      <trkpt lat="41.48559" lon="32.23664">
        <ele>77.356699</ele>
        <time>2021-08-21T12:59:59.163Z</time>
      </trkpt>
      <trkpt lat="41.48523" lon="32.2369">
        <ele>75.600989</ele>
        <time>2021-08-21T13:00:09.001Z</time>
      </trkpt>
      <trkpt lat="41.48423" lon="32.23674">
        <ele>77.35944</ele>
        <time>2021-08-21T13:00:48.128Z</time>
      </trkpt>
      <trkpt lat="41.4839" lon="32.23693">
        <ele>77.989574</ele>
        <time>2021-08-21T13:01:07.927Z</time>
      </trkpt>
      <trkpt lat="41.48361" lon="32.23742">
        <ele>79.128414</ele>
        <time>2021-08-21T13:01:34.784Z</time>
      </trkpt>
      <trkpt lat="41.48347" lon="32.23755">
        <ele>79.910418</ele>
        <time>2021-08-21T13:01:45.964Z</time>
      </trkpt>
      <trkpt lat="41.48344" lon="32.23719">
        <ele>81.129145</ele>
        <time>2021-08-21T13:02:01.902Z</time>
      </trkpt>
      <trkpt lat="41.48331" lon="32.23662">
        <ele>83.14248</ele>
        <time>2021-08-21T13:02:29.412Z</time>
      </trkpt>
      <trkpt lat="41.48322" lon="32.23642">
        <ele>83.895119</ele>
        <time>2021-08-21T13:02:38.828Z</time>
      </trkpt>
      <trkpt lat="41.48255" lon="32.23553">
        <ele>87.342938</ele>
        <time>2021-08-21T13:03:32.370Z</time>
      </trkpt>
      <trkpt lat="41.48229" lon="32.23526">
        <ele>88.006958</ele>
        <time>2021-08-21T13:03:46.917Z</time>
      </trkpt>
      <trkpt lat="41.482" lon="32.23506">
        <ele>88.685395</ele>
        <time>2021-08-21T13:04:01.331Z</time>
      </trkpt>
      <trkpt lat="41.4818" lon="32.235">
        <ele>89.095482</ele>
        <time>2021-08-21T13:04:09.847Z</time>
      </trkpt>
      <trkpt lat="41.48105" lon="32.23521">
        <ele>90.316133</ele>
        <time>2021-08-21T13:04:38.506Z</time>
      </trkpt>
      <trkpt lat="41.48092" lon="32.23514">
        <ele>90.305921</ele>
        <time>2021-08-21T13:04:43.290Z</time>
      </trkpt>
      <trkpt lat="41.48088" lon="32.23502">
        <ele>90.298845</ele>
        <time>2021-08-21T13:04:46.411Z</time>
      </trkpt>
      <trkpt lat="41.48091" lon="32.23483">
        <ele>90.287696</ele>
        <time>2021-08-21T13:04:50.886Z</time>
      </trkpt>
      <trkpt lat="41.48117" lon="32.2342">
        <ele>90.248226</ele>
        <time>2021-08-21T13:05:07.052Z</time>
      </trkpt>
      <trkpt lat="41.48125" lon="32.23394">
        <ele>90.232634</ele>
        <time>2021-08-21T13:05:13.042Z</time>
      </trkpt>
      <trkpt lat="41.48115" lon="32.23316">
        <ele>90.352363</ele>
        <time>2021-08-21T13:05:31.583Z</time>
      </trkpt>
      <trkpt lat="41.48091" lon="32.23248">
        <ele>91.35503</ele>
        <time>2021-08-21T13:05:50.906Z</time>
      </trkpt>
      <trkpt lat="41.48052" lon="32.23222">
        <ele>92.127612</ele>
        <time>2021-08-21T13:06:08.164Z</time>
      </trkpt>
      <trkpt lat="41.47994" lon="32.2317">
        <ele>93.382437</ele>
        <time>2021-08-21T13:06:43.494Z</time>
      </trkpt>
      <trkpt lat="41.47968" lon="32.23133">
        <ele>95.061912</ele>
        <time>2021-08-21T13:07:05.225Z</time>
      </trkpt>
      <trkpt lat="41.47934" lon="32.23066">
        <ele>97.747317</ele>
        <time>2021-08-21T13:07:41.949Z</time>
      </trkpt>
      <trkpt lat="41.47922" lon="32.2305">
        <ele>98.525743</ele>
        <time>2021-08-21T13:07:52.818Z</time>
      </trkpt>
      <trkpt lat="41.47907" lon="32.23042">
        <ele>99.249091</ele>
        <time>2021-08-21T13:08:03.282Z</time>
      </trkpt>
      <trkpt lat="41.47752" lon="32.23">
        <ele>103.184242</ele>
        <time>2021-08-21T13:09:28.972Z</time>
      </trkpt>
      <trkpt lat="41.47675" lon="32.22988">
        <ele>104.057033</ele>
        <time>2021-08-21T13:09:51.033Z</time>
      </trkpt>
      <trkpt lat="41.4765" lon="32.22884">
        <ele>100.572447</ele>
        <time>2021-08-21T13:10:09.588Z</time>
      </trkpt>
      <trkpt lat="41.47641" lon="32.22875">
        <ele>100.110945</ele>
        <time>2021-08-21T13:10:12.076Z</time>
      </trkpt>
      <trkpt lat="41.47596" lon="32.2286">
        <ele>98.135679</ele>
        <time>2021-08-21T13:10:22.249Z</time>
      </trkpt>
      <trkpt lat="41.4758" lon="32.22837">
        <ele>97.163393</ele>
        <time>2021-08-21T13:10:27.305Z</time>
      </trkpt>
      <trkpt lat="41.47564" lon="32.2281">
        <ele>96.611557</ele>
        <time>2021-08-21T13:10:32.902Z</time>
      </trkpt>
      <trkpt lat="41.4755" lon="32.22778">
        <ele>96.432382</ele>
        <time>2021-08-21T13:10:39.437Z</time>
      </trkpt>
      <trkpt lat="41.47521" lon="32.22751">
        <ele>96.208799</ele>
        <time>2021-08-21T13:10:48.441Z</time>
      </trkpt>
      <trkpt lat="41.47434" lon="32.22647">
        <ele>96.403859</ele>
        <time>2021-08-21T13:11:34.231Z</time>
      </trkpt>
      <trkpt lat="41.47416" lon="32.22636">
        <ele>97.557326</ele>
        <time>2021-08-21T13:11:45.945Z</time>
      </trkpt>
      <trkpt lat="41.47365" lon="32.22593">
        <ele>100.914846</ele>
        <time>2021-08-21T13:12:26.452Z</time>
      </trkpt>
      <trkpt lat="41.47339" lon="32.22574">
        <ele>102.584068</ele>
        <time>2021-08-21T13:12:47.674Z</time>
      </trkpt>
      <trkpt lat="41.47318" lon="32.22564">
        <ele>103.837823</ele>
        <time>2021-08-21T13:13:02.428Z</time>
      </trkpt>
      <trkpt lat="41.47315" lon="32.22558">
        <ele>104.133942</ele>
        <time>2021-08-21T13:13:08.718Z</time>
      </trkpt>
      <trkpt lat="41.47209" lon="32.22487">
        <ele>110.461601</ele>
        <time>2021-08-21T13:14:32.399Z</time>
      </trkpt>
      <trkpt lat="41.47141" lon="32.22466">
        <ele>114.129777</ele>
        <time>2021-08-21T13:15:13.393Z</time>
      </trkpt>
      <trkpt lat="41.47132" lon="32.22458">
        <ele>114.676497</ele>
        <time>2021-08-21T13:15:18.423Z</time>
      </trkpt>
      <trkpt lat="41.47124" lon="32.22436">
        <ele>115.159485</ele>
        <time>2021-08-21T13:15:27.016Z</time>
      </trkpt>
      <trkpt lat="41.47156" lon="32.22189">
        <ele>116.013909</ele>
        <time>2021-08-21T13:16:31.176Z</time>
      </trkpt>
      <trkpt lat="41.47173" lon="32.22083">
        <ele>114.716763</ele>
        <time>2021-08-21T13:16:53.118Z</time>
      </trkpt>
      <trkpt lat="41.47192" lon="32.21994">
        <ele>113.609782</ele>
        <time>2021-08-21T13:17:10.825Z</time>
      </trkpt>
      <trkpt lat="41.47193" lon="32.21898">
        <ele>111.282239</ele>
        <time>2021-08-21T13:17:28.346Z</time>
      </trkpt>
      <trkpt lat="41.47208" lon="32.21865">
        <ele>110.251654</ele>
        <time>2021-08-21T13:17:35.279Z</time>
      </trkpt>
      <trkpt lat="41.47239" lon="32.21851">
        <ele>109.100122</ele>
        <time>2021-08-21T13:17:42.849Z</time>
      </trkpt>
      <trkpt lat="41.47252" lon="32.21839">
        <ele>108.536543</ele>
        <time>2021-08-21T13:17:46.510Z</time>
      </trkpt>
      <trkpt lat="41.47263" lon="32.21794">
        <ele>107.286084</ele>
        <time>2021-08-21T13:17:54.618Z</time>
      </trkpt>
      <trkpt lat="41.47258" lon="32.21718">
        <ele>104.591508</ele>
        <time>2021-08-21T13:18:07.603Z</time>
      </trkpt>
      <trkpt lat="41.47241" lon="32.21671">
        <ele>102.682506</ele>
        <time>2021-08-21T13:18:16.485Z</time>
      </trkpt>
      <trkpt lat="41.47209" lon="32.21637">
        <ele>100.687304</ele>
        <time>2021-08-21T13:18:25.585Z</time>
      </trkpt>
      <trkpt lat="41.47179" lon="32.21617">
        <ele>99.04313</ele>
        <time>2021-08-21T13:18:32.918Z</time>
      </trkpt>
      <trkpt lat="41.47105" lon="32.21589">
        <ele>95.008171</ele>
        <time>2021-08-21T13:18:49.761Z</time>
      </trkpt>
      <trkpt lat="41.47104" lon="32.21583">
        <ele>94.782922</ele>
        <time>2021-08-21T13:18:50.597Z</time>
      </trkpt>
      <trkpt lat="41.47105" lon="32.21534">
        <ele>92.84494</ele>
        <time>2021-08-21T13:18:58.678Z</time>
      </trkpt>
      <trkpt lat="41.47108" lon="32.21507">
        <ele>91.758936</ele>
        <time>2021-08-21T13:19:03.245Z</time>
      </trkpt>
      <trkpt lat="41.47109" lon="32.21415">
        <ele>88.422413</ele>
        <time>2021-08-21T13:19:17.875Z</time>
      </trkpt>
      <trkpt lat="41.47123" lon="32.21306">
        <ele>86.0889</ele>
        <time>2021-08-21T13:19:36.110Z</time>
      </trkpt>
      <trkpt lat="41.47121" lon="32.21265">
        <ele>85.220173</ele>
        <time>2021-08-21T13:19:43.794Z</time>
      </trkpt>
      <trkpt lat="41.47109" lon="32.21191">
        <ele>83.684536</ele>
        <time>2021-08-21T13:19:59.120Z</time>
      </trkpt>
      <trkpt lat="41.47097" lon="32.21129">
        <ele>83.384422</ele>
        <time>2021-08-21T13:20:12.702Z</time>
      </trkpt>
      <trkpt lat="41.47084" lon="32.21036">
        <ele>82.943954</ele>
        <time>2021-08-21T13:20:32.249Z</time>
      </trkpt>
      <trkpt lat="41.47075" lon="32.20987">
        <ele>82.710325</ele>
        <time>2021-08-21T13:20:43.485Z</time>
      </trkpt>
      <trkpt lat="41.47067" lon="32.20943">
        <ele>82.692577</ele>
        <time>2021-08-21T13:20:53.887Z</time>
      </trkpt>
      <trkpt lat="41.47063" lon="32.20933">
        <ele>82.75262</ele>
        <time>2021-08-21T13:20:56.441Z</time>
      </trkpt>
      <trkpt lat="41.47062" lon="32.20927">
        <ele>82.789213</ele>
        <time>2021-08-21T13:20:57.723Z</time>
      </trkpt>
      <trkpt lat="41.47058" lon="32.20905">
        <ele>82.912462</ele>
        <time>2021-08-21T13:21:04.124Z</time>
      </trkpt>
      <trkpt lat="41.4706" lon="32.20898">
        <ele>82.953171</ele>
        <time>2021-08-21T13:21:05.780Z</time>
      </trkpt>
      <trkpt lat="41.4706" lon="32.20887">
        <ele>83.015008</ele>
        <time>2021-08-21T13:21:08.371Z</time>
      </trkpt>
      <trkpt lat="41.47057" lon="32.20867">
        <ele>83.123218</ele>
        <time>2021-08-21T13:21:13.693Z</time>
      </trkpt>
      <trkpt lat="41.47058" lon="32.20835">
        <ele>83.299267</ele>
        <time>2021-08-21T13:21:20.809Z</time>
      </trkpt>
      <trkpt lat="41.47053" lon="32.20773">
        <ele>83.640846</ele>
        <time>2021-08-21T13:21:38.528Z</time>
      </trkpt>
      <trkpt lat="41.47046" lon="32.20738">
        <ele>83.841352</ele>
        <time>2021-08-21T13:21:49.219Z</time>
      </trkpt>
      <trkpt lat="41.47044" lon="32.20735">
        <ele>83.860168</ele>
        <time>2021-08-21T13:21:51.446Z</time>
      </trkpt>
      <trkpt lat="41.47021" lon="32.20627">
        <ele>84.476006</ele>
        <time>2021-08-21T13:22:25.819Z</time>
      </trkpt>
      <trkpt lat="41.47006" lon="32.20555">
        <ele>84.879428</ele>
        <time>2021-08-21T13:22:46.885Z</time>
      </trkpt>
      <trkpt lat="41.46947" lon="32.20308">
        <ele>82.902009</ele>
        <time>2021-08-21T13:23:37.979Z</time>
      </trkpt>
      <trkpt lat="41.46938" lon="32.20259">
        <ele>82.251065</ele>
        <time>2021-08-21T13:23:46.795Z</time>
      </trkpt>
      <trkpt lat="41.46923" lon="32.20168">
        <ele>80.57222</ele>
        <time>2021-08-21T13:24:03.178Z</time>
      </trkpt>
      <trkpt lat="41.46904" lon="32.20164">
        <ele>80.093727</ele>
        <time>2021-08-21T13:24:08.099Z</time>
      </trkpt>
      <trkpt lat="41.46642" lon="32.20238">
        <ele>73.898174</ele>
        <time>2021-08-21T13:25:16.248Z</time>
      </trkpt>
      <trkpt lat="41.46581" lon="32.20244">
        <ele>71.338071</ele>
        <time>2021-08-21T13:25:31.348Z</time>
      </trkpt>
      <trkpt lat="41.46567" lon="32.20235">
        <ele>70.700425</ele>
        <time>2021-08-21T13:25:35.046Z</time>
      </trkpt>
      <trkpt lat="41.46553" lon="32.20216">
        <ele>69.861574</ele>
        <time>2021-08-21T13:25:39.895Z</time>
      </trkpt>
      <trkpt lat="41.46466" lon="32.20033">
        <ele>60.40285</ele>
        <time>2021-08-21T13:26:14.972Z</time>
      </trkpt>
      <trkpt lat="41.46456" lon="32.20001">
        <ele>58.493255</ele>
        <time>2021-08-21T13:26:20.287Z</time>
      </trkpt>
      <trkpt lat="41.46433" lon="32.19968">
        <ele>56.016298</ele>
        <time>2021-08-21T13:26:27.133Z</time>
      </trkpt>
      <trkpt lat="41.46397" lon="32.19954">
        <ele>53.252795</ele>
        <time>2021-08-21T13:26:34.704Z</time>
      </trkpt>
      <trkpt lat="41.46383" lon="32.19942">
        <ele>51.964034</ele>
        <time>2021-08-21T13:26:38.202Z</time>
      </trkpt>
      <trkpt lat="41.4637" lon="32.1992">
        <ele>50.417461</ele>
        <time>2021-08-21T13:26:42.359Z</time>
      </trkpt>
      <trkpt lat="41.46351" lon="32.19858">
        <ele>46.65762</ele>
        <time>2021-08-21T13:26:52.545Z</time>
      </trkpt>
      <trkpt lat="41.46331" lon="32.19835">
        <ele>44.65193</ele>
        <time>2021-08-21T13:26:58.065Z</time>
      </trkpt>
      <trkpt lat="41.46312" lon="32.19822">
        <ele>43.080048</ele>
        <time>2021-08-21T13:27:02.510Z</time>
      </trkpt>
      <trkpt lat="41.4627" lon="32.19812">
        <ele>39.903585</ele>
        <time>2021-08-21T13:27:11.638Z</time>
      </trkpt>
      <trkpt lat="41.46147" lon="32.1981">
        <ele>37.930875</ele>
        <time>2021-08-21T13:27:41.660Z</time>
      </trkpt>
      <trkpt lat="41.46131" lon="32.19803">
        <ele>37.662719</ele>
        <time>2021-08-21T13:27:47.329Z</time>
      </trkpt>
      <trkpt lat="41.46074" lon="32.19756">
        <ele>38.598913</ele>
        <time>2021-08-21T13:28:16.226Z</time>
      </trkpt>
      <trkpt lat="41.4599" lon="32.19759">
        <ele>43.54992</ele>
        <time>2021-08-21T13:29:09.878Z</time>
      </trkpt>
      <trkpt lat="41.45933" lon="32.19747">
        <ele>46.970841</ele>
        <time>2021-08-21T13:29:54.822Z</time>
      </trkpt>
      <trkpt lat="41.45878" lon="32.19716">
        <ele>51.034366</ele>
        <time>2021-08-21T13:30:45.298Z</time>
      </trkpt>
      <trkpt lat="41.45849" lon="32.19686">
        <ele>53.631307</ele>
        <time>2021-08-21T13:31:15.989Z</time>
      </trkpt>
      <trkpt lat="41.45837" lon="32.1967">
        <ele>54.860624</ele>
        <time>2021-08-21T13:31:29.168Z</time>
      </trkpt>
      <trkpt lat="41.45827" lon="32.1959">
        <ele>59.166975</ele>
        <time>2021-08-21T13:32:12.427Z</time>
      </trkpt>
      <trkpt lat="41.45821" lon="32.1955">
        <ele>60.131418</ele>
        <time>2021-08-21T13:32:29.576Z</time>
      </trkpt>
      <trkpt lat="41.45822" lon="32.19539">
        <ele>59.951368</ele>
        <time>2021-08-21T13:32:32.276Z</time>
      </trkpt>
      <trkpt lat="41.45831" lon="32.19454">
        <ele>58.529841</ele>
        <time>2021-08-21T13:32:52.247Z</time>
      </trkpt>
      <trkpt lat="41.45831" lon="32.19447">
        <ele>58.412365</ele>
        <time>2021-08-21T13:32:53.418Z</time>
      </trkpt>
      <trkpt lat="41.45872" lon="32.19315">
        <ele>55.023722</ele>
        <time>2021-08-21T13:33:17.072Z</time>
      </trkpt>
      <trkpt lat="41.4587" lon="32.19288">
        <ele>53.44716</ele>
        <time>2021-08-21T13:33:21.215Z</time>
      </trkpt>
      <trkpt lat="41.45854" lon="32.19278">
        <ele>52.050663</ele>
        <time>2021-08-21T13:33:24.847Z</time>
      </trkpt>
      <trkpt lat="41.45812" lon="32.19281">
        <ele>48.771567</ele>
        <time>2021-08-21T13:33:33.369Z</time>
      </trkpt>
      <trkpt lat="41.45736" lon="32.19318">
        <ele>42.403099</ele>
        <time>2021-08-21T13:33:49.844Z</time>
      </trkpt>
      <trkpt lat="41.45686" lon="32.1932">
        <ele>39.662633</ele>
        <time>2021-08-21T13:34:00.246Z</time>
      </trkpt>
      <trkpt lat="41.4566" lon="32.19302">
        <ele>38.068884</ele>
        <time>2021-08-21T13:34:06.497Z</time>
      </trkpt>
      <trkpt lat="41.45644" lon="32.19281">
        <ele>36.811994</ele>
        <time>2021-08-21T13:34:11.413Z</time>
      </trkpt>
      <trkpt lat="41.45638" lon="32.19278">
        <ele>36.493847</ele>
        <time>2021-08-21T13:34:12.695Z</time>
      </trkpt>
      <trkpt lat="41.45625" lon="32.19265">
        <ele>35.585584</ele>
        <time>2021-08-21T13:34:16.410Z</time>
      </trkpt>
      <trkpt lat="41.4561" lon="32.19243">
        <ele>34.392547</ele>
        <time>2021-08-21T13:34:21.310Z</time>
      </trkpt>
      <trkpt lat="41.45519" lon="32.1898">
        <ele>29.334096</ele>
        <time>2021-08-21T13:35:18.216Z</time>
      </trkpt>
      <trkpt lat="41.45495" lon="32.18936">
        <ele>29.216385</ele>
        <time>2021-08-21T13:35:31.551Z</time>
      </trkpt>
      <trkpt lat="41.45405" lon="32.18861">
        <ele>28.911991</ele>
        <time>2021-08-21T13:36:05.885Z</time>
      </trkpt>
      <trkpt lat="41.45325" lon="32.18762">
        <ele>28.6963</ele>
        <time>2021-08-21T13:36:40.282Z</time>
      </trkpt>
      <trkpt lat="41.45236" lon="32.18593">
        <ele>28.718075</ele>
        <time>2021-08-21T13:37:28.886Z</time>
      </trkpt>
      <trkpt lat="41.45132" lon="32.18424">
        <ele>29.730461</ele>
        <time>2021-08-21T13:38:26.941Z</time>
      </trkpt>
      <trkpt lat="41.45112" lon="32.18352">
        <ele>30.591607</ele>
        <time>2021-08-21T13:38:50.445Z</time>
      </trkpt>
      <trkpt lat="41.45088" lon="32.18305">
        <ele>31.227249</ele>
        <time>2021-08-21T13:39:08.492Z</time>
      </trkpt>
      <trkpt lat="41.45031" lon="32.18237">
        <ele>32.483725</ele>
        <time>2021-08-21T13:39:42.655Z</time>
      </trkpt>
      <trkpt lat="41.45008" lon="32.18218">
        <ele>32.958967</ele>
        <time>2021-08-21T13:39:55.063Z</time>
      </trkpt>
      <trkpt lat="41.44994" lon="32.18182">
        <ele>33.514593</ele>
        <time>2021-08-21T13:40:09.394Z</time>
      </trkpt>
      <trkpt lat="41.44994" lon="32.18176">
        <ele>33.59408</ele>
        <time>2021-08-21T13:40:11.673Z</time>
      </trkpt>
      <trkpt lat="41.44989" lon="32.1812">
        <ele>34.355891</ele>
        <time>2021-08-21T13:40:30.022Z</time>
      </trkpt>
      <trkpt lat="41.44984" lon="32.18105">
        <ele>34.574727</ele>
        <time>2021-08-21T13:40:34.455Z</time>
      </trkpt>
      <trkpt lat="41.44973" lon="32.18083">
        <ele>34.927589</ele>
        <time>2021-08-21T13:40:42.621Z</time>
      </trkpt>
      <trkpt lat="41.44959" lon="32.18059">
        <ele>34.961802</ele>
        <time>2021-08-21T13:40:50.533Z</time>
      </trkpt>
      <trkpt lat="41.44946" lon="32.18028">
        <ele>34.766298</ele>
        <time>2021-08-21T13:40:59.223Z</time>
      </trkpt>
      <trkpt lat="41.4494" lon="32.18009">
        <ele>34.65742</ele>
        <time>2021-08-21T13:41:04.549Z</time>
      </trkpt>
      <trkpt lat="41.44925" lon="32.18004">
        <ele>34.541241</ele>
        <time>2021-08-21T13:41:09.185Z</time>
      </trkpt>
      <trkpt lat="41.44898" lon="32.18008">
        <ele>34.345475</ele>
        <time>2021-08-21T13:41:17.454Z</time>
      </trkpt>
      <trkpt lat="41.44891" lon="32.18007">
        <ele>34.292223</ele>
        <time>2021-08-21T13:41:19.318Z</time>
      </trkpt>
      <trkpt lat="41.44872" lon="32.17971">
        <ele>34.055926</ele>
        <time>2021-08-21T13:41:28.449Z</time>
      </trkpt>
      <trkpt lat="41.44872" lon="32.17853">
        <ele>32.618094</ele>
        <time>2021-08-21T13:41:50.965Z</time>
      </trkpt>
      <trkpt lat="41.44898" lon="32.17668">
        <ele>29.385001</ele>
        <time>2021-08-21T13:42:26.034Z</time>
      </trkpt>
      <trkpt lat="41.44912" lon="32.17605">
        <ele>28.698661</ele>
        <time>2021-08-21T13:42:38.760Z</time>
      </trkpt>
      <trkpt lat="41.44913" lon="32.17566">
        <ele>28.295562</ele>
        <time>2021-08-21T13:42:46.363Z</time>
      </trkpt>
      <trkpt lat="41.44898" lon="32.175">
        <ele>27.576904</ele>
        <time>2021-08-21T13:43:00.668Z</time>
      </trkpt>
      <trkpt lat="41.44856" lon="32.17388">
        <ele>27.74757</ele>
        <time>2021-08-21T13:43:29.934Z</time>
      </trkpt>
      <trkpt lat="41.44719" lon="32.17063">
        <ele>33.185413</ele>
        <time>2021-08-21T13:45:34.689Z</time>
      </trkpt>
      <trkpt lat="41.44702" lon="32.1702">
        <ele>34.122491</ele>
        <time>2021-08-21T13:45:54.035Z</time>
      </trkpt>
      <trkpt lat="41.44619" lon="32.16818">
        <ele>39.055569</ele>
        <time>2021-08-21T13:47:20.967Z</time>
      </trkpt>
      <trkpt lat="41.44608" lon="32.1678">
        <ele>39.245543</ele>
        <time>2021-08-21T13:47:33.110Z</time>
      </trkpt>
      <trkpt lat="41.44606" lon="32.16694">
        <ele>39.644503</ele>
        <time>2021-08-21T13:47:55.734Z</time>
      </trkpt>
      <trkpt lat="41.44585" lon="32.16584">
        <ele>40.222366</ele>
        <time>2021-08-21T13:48:22.098Z</time>
      </trkpt>
      <trkpt lat="41.44583" lon="32.16512">
        <ele>41.467956</ele>
        <time>2021-08-21T13:48:39.557Z</time>
      </trkpt>
      <trkpt lat="41.44598" lon="32.16479">
        <ele>42.12794</ele>
        <time>2021-08-21T13:48:50.348Z</time>
      </trkpt>
      <trkpt lat="41.44579" lon="32.16462">
        <ele>42.664769</ele>
        <time>2021-08-21T13:49:00.803Z</time>
      </trkpt>
      <trkpt lat="41.44524" lon="32.16359">
        <ele>46.054543</ele>
        <time>2021-08-21T13:49:55.010Z</time>
      </trkpt>
      <trkpt lat="41.44507" lon="32.16344">
        <ele>47.542945</ele>
        <time>2021-08-21T13:50:09.152Z</time>
      </trkpt>
      <trkpt lat="41.44492" lon="32.16363">
        <ele>49.046744</ele>
        <time>2021-08-21T13:50:24.930Z</time>
      </trkpt>
      <trkpt lat="41.44467" lon="32.16376">
        <ele>51.015501</ele>
        <time>2021-08-21T13:50:45.236Z</time>
      </trkpt>
      <trkpt lat="41.44444" lon="32.16376">
        <ele>52.75331</ele>
        <time>2021-08-21T13:51:03.938Z</time>
      </trkpt>
      <trkpt lat="41.44404" lon="32.16392">
        <ele>55.802873</ele>
        <time>2021-08-21T13:51:37.417Z</time>
      </trkpt>
      <trkpt lat="41.44331" lon="32.16374">
        <ele>60.771566</ele>
        <time>2021-08-21T13:52:37.220Z</time>
      </trkpt>
      <trkpt lat="41.44312" lon="32.16378">
        <ele>61.940622</ele>
        <time>2021-08-21T13:52:51.031Z</time>
      </trkpt>
      <trkpt lat="41.44306" lon="32.16396">
        <ele>62.91812</ele>
        <time>2021-08-21T13:53:02.830Z</time>
      </trkpt>
      <trkpt lat="41.44311" lon="32.16509">
        <ele>68.342652</ele>
        <time>2021-08-21T13:53:54.667Z</time>
      </trkpt>
      <trkpt lat="41.443" lon="32.16528">
        <ele>69.198735</ele>
        <time>2021-08-21T13:54:04.891Z</time>
      </trkpt>
      <trkpt lat="41.44273" lon="32.16527">
        <ele>69.959991</ele>
        <time>2021-08-21T13:54:18.872Z</time>
      </trkpt>
      <trkpt lat="41.44249" lon="32.16519">
        <ele>70.679998</ele>
        <time>2021-08-21T13:54:31.625Z</time>
      </trkpt>
      <trkpt lat="41.44213" lon="32.16505">
        <ele>71.746548</ele>
        <time>2021-08-21T13:54:49.546Z</time>
      </trkpt>
      <trkpt lat="41.44182" lon="32.16435">
        <ele>73.497545</ele>
        <time>2021-08-21T13:55:17.214Z</time>
      </trkpt>
      <trkpt lat="41.4416" lon="32.16395">
        <ele>74.333378</ele>
        <time>2021-08-21T13:55:32.793Z</time>
      </trkpt>
      <trkpt lat="41.44105" lon="32.16325">
        <ele>75.457459</ele>
        <time>2021-08-21T13:56:04.621Z</time>
      </trkpt>
      <trkpt lat="41.44067" lon="32.16243">
        <ele>76.531652</ele>
        <time>2021-08-21T13:56:33.639Z</time>
      </trkpt>
      <trkpt lat="41.44048" lon="32.16218">
        <ele>76.831936</ele>
        <time>2021-08-21T13:56:43.745Z</time>
      </trkpt>
      <trkpt lat="41.43914" lon="32.16136">
        <ele>77.833793</ele>
        <time>2021-08-21T13:57:37.465Z</time>
      </trkpt>
      <trkpt lat="41.43879" lon="32.1612">
        <ele>78.020885</ele>
        <time>2021-08-21T13:57:49.959Z</time>
      </trkpt>
      <trkpt lat="41.43773" lon="32.16089">
        <ele>78.330849</ele>
        <time>2021-08-21T13:58:25.487Z</time>
      </trkpt>
      <trkpt lat="41.43692" lon="32.16055">
        <ele>79.031591</ele>
        <time>2021-08-21T13:58:54.545Z</time>
      </trkpt>
      <trkpt lat="41.43623" lon="32.15993">
        <ele>80.552027</ele>
        <time>2021-08-21T13:59:27.468Z</time>
      </trkpt>
      <trkpt lat="41.43553" lon="32.15885">
        <ele>83.251295</ele>
        <time>2021-08-21T14:00:21.789Z</time>
      </trkpt>
      <trkpt lat="41.43515" lon="32.1587">
        <ele>84.696966</ele>
        <time>2021-08-21T14:00:43.111Z</time>
      </trkpt>
      <trkpt lat="41.43485" lon="32.15894">
        <ele>85.98592</ele>
        <time>2021-08-21T14:01:02.381Z</time>
      </trkpt>
      <trkpt lat="41.43458" lon="32.15899">
        <ele>86.97114</ele>
        <time>2021-08-21T14:01:17.137Z</time>
      </trkpt>
      <trkpt lat="41.43406" lon="32.15878">
        <ele>88.708112</ele>
        <time>2021-08-21T14:01:46.957Z</time>
      </trkpt>
      <trkpt lat="41.43289" lon="32.15896">
        <ele>91.068633</ele>
        <time>2021-08-21T14:02:40.629Z</time>
      </trkpt>
      <trkpt lat="41.43212" lon="32.15877">
        <ele>91.543275</ele>
        <time>2021-08-21T14:03:08.013Z</time>
      </trkpt>
      <trkpt lat="41.43189" lon="32.15888">
        <ele>91.202616</ele>
        <time>2021-08-21T14:03:15.167Z</time>
      </trkpt>
      <trkpt lat="41.43133" lon="32.15941">
        <ele>90.217661</ele>
        <time>2021-08-21T14:03:33.789Z</time>
      </trkpt>
      <trkpt lat="41.43085" lon="32.1597">
        <ele>89.469217</ele>
        <time>2021-08-21T14:03:46.737Z</time>
      </trkpt>
      <trkpt lat="41.4299" lon="32.15991">
        <ele>85.895798</ele>
        <time>2021-08-21T14:04:08.985Z</time>
      </trkpt>
      <trkpt lat="41.42924" lon="32.16011">
        <ele>83.318861</ele>
        <time>2021-08-21T14:04:24.521Z</time>
      </trkpt>
      <trkpt lat="41.42928" lon="32.15992">
        <ele>82.749205</ele>
        <time>2021-08-21T14:04:27.765Z</time>
      </trkpt>
      <trkpt lat="41.42957" lon="32.15924">
        <ele>80.860052</ele>
        <time>2021-08-21T14:04:40.754Z</time>
      </trkpt>
      <trkpt lat="41.42961" lon="32.15894">
        <ele>80.146786</ele>
        <time>2021-08-21T14:04:45.710Z</time>
      </trkpt>
      <trkpt lat="41.42956" lon="32.15872">
        <ele>79.603904</ele>
        <time>2021-08-21T14:04:49.536Z</time>
      </trkpt>
      <trkpt lat="41.42946" lon="32.1586">
        <ele>79.161263</ele>
        <time>2021-08-21T14:04:52.658Z</time>
      </trkpt>
      <trkpt lat="41.42912" lon="32.15839">
        <ele>77.980046</ele>
        <time>2021-08-21T14:05:01.315Z</time>
      </trkpt>
      <trkpt lat="41.42899" lon="32.15824">
        <ele>77.419095</ele>
        <time>2021-08-21T14:05:05.709Z</time>
      </trkpt>
      <trkpt lat="41.42886" lon="32.15787">
        <ele>76.667604</ele>
        <time>2021-08-21T14:05:13.483Z</time>
      </trkpt>
      <trkpt lat="41.42869" lon="32.15692">
        <ele>75.45384</ele>
        <time>2021-08-21T14:05:32.571Z</time>
      </trkpt>
      <trkpt lat="41.42863" lon="32.15663">
        <ele>75.080453</ele>
        <time>2021-08-21T14:05:38.260Z</time>
      </trkpt>
      <trkpt lat="41.42861" lon="32.15654">
        <ele>74.962014</ele>
        <time>2021-08-21T14:05:39.958Z</time>
      </trkpt>
      <trkpt lat="41.42848" lon="32.15634">
        <ele>74.631004</ele>
        <time>2021-08-21T14:05:45.002Z</time>
      </trkpt>
      <trkpt lat="41.42782" lon="32.15616">
        <ele>73.581753</ele>
        <time>2021-08-21T14:06:02.002Z</time>
      </trkpt>
      <trkpt lat="41.42774" lon="32.15616">
        <ele>73.469541</ele>
        <time>2021-08-21T14:06:04.226Z</time>
      </trkpt>
      <trkpt lat="41.42764" lon="32.15617">
        <ele>73.328243</ele>
        <time>2021-08-21T14:06:06.659Z</time>
      </trkpt>
      <trkpt lat="41.42728" lon="32.15645">
        <ele>72.759351</ele>
        <time>2021-08-21T14:06:17.799Z</time>
      </trkpt>
      <trkpt lat="41.42711" lon="32.15651">
        <ele>72.513404</ele>
        <time>2021-08-21T14:06:22.688Z</time>
      </trkpt>
      <trkpt lat="41.42704" lon="32.15647">
        <ele>72.413432</ele>
        <time>2021-08-21T14:06:24.339Z</time>
      </trkpt>
      <trkpt lat="41.42697" lon="32.15644">
        <ele>72.305542</ele>
        <time>2021-08-21T14:06:26.379Z</time>
      </trkpt>
      <trkpt lat="41.42658" lon="32.15564">
        <ele>71.331811</ele>
        <time>2021-08-21T14:06:44.664Z</time>
      </trkpt>
      <trkpt lat="41.42638" lon="32.15533">
        <ele>70.933476</ele>
        <time>2021-08-21T14:06:52.851Z</time>
      </trkpt>
      <trkpt lat="41.42619" lon="32.15517">
        <ele>70.654084</ele>
        <time>2021-08-21T14:06:59.205Z</time>
      </trkpt>
      <trkpt lat="41.42592" lon="32.15512">
        <ele>70.295776</ele>
        <time>2021-08-21T14:07:07.192Z</time>
      </trkpt>
      <trkpt lat="41.42509" lon="32.15517">
        <ele>69.228504</ele>
        <time>2021-08-21T14:07:28.715Z</time>
      </trkpt>
      <trkpt lat="41.42453" lon="32.15505">
        <ele>67.872615</ele>
        <time>2021-08-21T14:07:42.725Z</time>
      </trkpt>
      <trkpt lat="41.42424" lon="32.155">
        <ele>67.142354</ele>
        <time>2021-08-21T14:07:49.383Z</time>
      </trkpt>
      <trkpt lat="41.42401" lon="32.15489">
        <ele>66.504165</ele>
        <time>2021-08-21T14:07:55.126Z</time>
      </trkpt>
      <trkpt lat="41.42369" lon="32.15464">
        <ele>65.548469</ele>
        <time>2021-08-21T14:08:03.676Z</time>
      </trkpt>
      <trkpt lat="41.42324" lon="32.15376">
        <ele>63.677896</ele>
        <time>2021-08-21T14:08:22.070Z</time>
      </trkpt>
      <trkpt lat="41.4232" lon="32.15369">
        <ele>63.524374</ele>
        <time>2021-08-21T14:08:23.653Z</time>
      </trkpt>
      <trkpt lat="41.42308" lon="32.15351">
        <ele>63.145613</ele>
        <time>2021-08-21T14:08:28.050Z</time>
      </trkpt>
      <trkpt lat="41.42279" lon="32.15331">
        <ele>62.450204</ele>
        <time>2021-08-21T14:08:35.959Z</time>
      </trkpt>
      <trkpt lat="41.42252" lon="32.15321">
        <ele>61.86201</ele>
        <time>2021-08-21T14:08:42.597Z</time>
      </trkpt>
      <trkpt lat="41.42188" lon="32.15317">
        <ele>60.681868</ele>
        <time>2021-08-21T14:08:59.061Z</time>
      </trkpt>
      <trkpt lat="41.42166" lon="32.15317">
        <ele>60.693898</ele>
        <time>2021-08-21T14:09:05.043Z</time>
      </trkpt>
      <trkpt lat="41.42089" lon="32.15319">
        <ele>60.737374</ele>
        <time>2021-08-21T14:09:29.829Z</time>
      </trkpt>
      <trkpt lat="41.42082" lon="32.15273">
        <ele>60.757054</ele>
        <time>2021-08-21T14:09:42.230Z</time>
      </trkpt>
      <trkpt lat="41.42075" lon="32.15181">
        <ele>61.046565</ele>
        <time>2021-08-21T14:10:06.534Z</time>
      </trkpt>
      <trkpt lat="41.42067" lon="32.15146">
        <ele>61.267018</ele>
        <time>2021-08-21T14:10:16.425Z</time>
      </trkpt>
      <trkpt lat="41.42054" lon="32.15113">
        <ele>61.49674</ele>
        <time>2021-08-21T14:10:27.207Z</time>
      </trkpt>
      <trkpt lat="41.42015" lon="32.15046">
        <ele>62.01498</ele>
        <time>2021-08-21T14:10:50.930Z</time>
      </trkpt>
      <trkpt lat="41.41963" lon="32.14948">
        <ele>62.892876</ele>
        <time>2021-08-21T14:11:22.968Z</time>
      </trkpt>
      <trkpt lat="41.41936" lon="32.14723">
        <ele>65.532298</ele>
        <time>2021-08-21T14:12:30.118Z</time>
      </trkpt>
      <trkpt lat="41.4188" lon="32.1457">
        <ele>68.963315</ele>
        <time>2021-08-21T14:13:34.160Z</time>
      </trkpt>
      <trkpt lat="41.41853" lon="32.14518">
        <ele>70.973037</ele>
        <time>2021-08-21T14:14:00.686Z</time>
      </trkpt>
      <trkpt lat="41.41786" lon="32.14444">
        <ele>74.665516</ele>
        <time>2021-08-21T14:14:50.844Z</time>
      </trkpt>
      <trkpt lat="41.41763" lon="32.14401">
        <ele>76.344681</ele>
        <time>2021-08-21T14:15:13.980Z</time>
      </trkpt>
      <trkpt lat="41.41752" lon="32.14388">
        <ele>76.888309</ele>
        <time>2021-08-21T14:15:22.650Z</time>
      </trkpt>
      <trkpt lat="41.41736" lon="32.14301">
        <ele>79.329963</ele>
        <time>2021-08-21T14:15:58.809Z</time>
      </trkpt>
      <trkpt lat="41.41718" lon="32.14246">
        <ele>80.945365</ele>
        <time>2021-08-21T14:16:21.950Z</time>
      </trkpt>
      <trkpt lat="41.41712" lon="32.14228">
        <ele>81.495344</ele>
        <time>2021-08-21T14:16:29.197Z</time>
      </trkpt>
      <trkpt lat="41.41691" lon="32.14175">
        <ele>83.048813</ele>
        <time>2021-08-21T14:16:50.839Z</time>
      </trkpt>
      <trkpt lat="41.41673" lon="32.14129">
        <ele>83.491892</ele>
        <time>2021-08-21T14:17:08.603Z</time>
      </trkpt>
      <trkpt lat="41.41633" lon="32.14043">
        <ele>84.357745</ele>
        <time>2021-08-21T14:17:38.024Z</time>
      </trkpt>
      <trkpt lat="41.41598" lon="32.13985">
        <ele>84.984741</ele>
        <time>2021-08-21T14:17:55.857Z</time>
      </trkpt>
      <trkpt lat="41.41572" lon="32.13941">
        <ele>84.089419</ele>
        <time>2021-08-21T14:18:07.934Z</time>
      </trkpt>
      <trkpt lat="41.41567" lon="32.13933">
        <ele>83.866172</ele>
        <time>2021-08-21T14:18:09.739Z</time>
      </trkpt>
      <trkpt lat="41.41542" lon="32.13877">
        <ele>82.492586</ele>
        <time>2021-08-21T14:18:22.071Z</time>
      </trkpt>
      <trkpt lat="41.415" lon="32.13719">
        <ele>77.889674</ele>
        <time>2021-08-21T14:18:49.224Z</time>
      </trkpt>
      <trkpt lat="41.41484" lon="32.1367">
        <ele>75.61882</ele>
        <time>2021-08-21T14:18:57.554Z</time>
      </trkpt>
      <trkpt lat="41.41457" lon="32.13588">
        <ele>71.831661</ele>
        <time>2021-08-21T14:19:11.313Z</time>
      </trkpt>
      <trkpt lat="41.41449" lon="32.13538">
        <ele>69.700747</ele>
        <time>2021-08-21T14:19:19.162Z</time>
      </trkpt>
      <trkpt lat="41.41449" lon="32.13503">
        <ele>68.538086</ele>
        <time>2021-08-21T14:19:24.523Z</time>
      </trkpt>
      <trkpt lat="41.41459" lon="32.13473">
        <ele>67.45705</ele>
        <time>2021-08-21T14:19:29.556Z</time>
      </trkpt>
      <trkpt lat="41.41511" lon="32.1341">
        <ele>64.317034</ele>
        <time>2021-08-21T14:19:44.513Z</time>
      </trkpt>
      <trkpt lat="41.41519" lon="32.13383">
        <ele>63.373214</ele>
        <time>2021-08-21T14:19:49.331Z</time>
      </trkpt>
      <trkpt lat="41.41516" lon="32.13357">
        <ele>62.471784</ele>
        <time>2021-08-21T14:19:54.064Z</time>
      </trkpt>
      <trkpt lat="41.41498" lon="32.1333">
        <ele>61.933526</ele>
        <time>2021-08-21T14:20:00.774Z</time>
      </trkpt>
      <trkpt lat="41.41471" lon="32.13312">
        <ele>62.102346</ele>
        <time>2021-08-21T14:20:08.965Z</time>
      </trkpt>
      <trkpt lat="41.41434" lon="32.13289">
        <ele>62.327332</ele>
        <time>2021-08-21T14:20:21.355Z</time>
      </trkpt>
      <trkpt lat="41.41424" lon="32.13283">
        <ele>62.389944</ele>
        <time>2021-08-21T14:20:25.325Z</time>
      </trkpt>
      <trkpt lat="41.41395" lon="32.13249">
        <ele>62.604623</ele>
        <time>2021-08-21T14:20:40.699Z</time>
      </trkpt>
      <trkpt lat="41.41341" lon="32.13161">
        <ele>63.82783</ele>
        <time>2021-08-21T14:21:20.313Z</time>
      </trkpt>
      <trkpt lat="41.41297" lon="32.13077">
        <ele>65.719374</ele>
        <time>2021-08-21T14:21:59.108Z</time>
      </trkpt>
      <trkpt lat="41.41262" lon="32.13038">
        <ele>66.841057</ele>
        <time>2021-08-21T14:22:19.332Z</time>
      </trkpt>
      <trkpt lat="41.41168" lon="32.12953">
        <ele>66.51919</ele>
        <time>2021-08-21T14:22:56.157Z</time>
      </trkpt>
      <trkpt lat="41.41145" lon="32.12918">
        <ele>66.23367</ele>
        <time>2021-08-21T14:23:05.103Z</time>
      </trkpt>
      <trkpt lat="41.41065" lon="32.12773">
        <ele>63.03651</ele>
        <time>2021-08-21T14:23:36.741Z</time>
      </trkpt>
      <trkpt lat="41.4106" lon="32.12764">
        <ele>62.75343</ele>
        <time>2021-08-21T14:23:38.658Z</time>
      </trkpt>
      <trkpt lat="41.41026" lon="32.12697">
        <ele>60.772197</ele>
        <time>2021-08-21T14:23:52.075Z</time>
      </trkpt>
      <trkpt lat="41.40997" lon="32.12656">
        <ele>59.273885</ele>
        <time>2021-08-21T14:24:01.483Z</time>
      </trkpt>
      <trkpt lat="41.40986" lon="32.12636">
        <ele>58.547946</ele>
        <time>2021-08-21T14:24:05.727Z</time>
      </trkpt>
      <trkpt lat="41.40974" lon="32.12614">
        <ele>57.749876</ele>
        <time>2021-08-21T14:24:10.210Z</time>
      </trkpt>
      <trkpt lat="41.40949" lon="32.12521">
        <ele>54.899439</ele>
        <time>2021-08-21T14:24:26.418Z</time>
      </trkpt>
      <trkpt lat="41.4096" lon="32.12478">
        <ele>53.583862</ele>
        <time>2021-08-21T14:24:33.853Z</time>
      </trkpt>
      <trkpt lat="41.4098" lon="32.1243">
        <ele>52.596477</ele>
        <time>2021-08-21T14:24:42.973Z</time>
      </trkpt>
      <trkpt lat="41.40989" lon="32.12387">
        <ele>52.121643</ele>
        <time>2021-08-21T14:24:50.476Z</time>
      </trkpt>
      <trkpt lat="41.40989" lon="32.12343">
        <ele>51.642332</ele>
        <time>2021-08-21T14:24:58.724Z</time>
      </trkpt>
      <trkpt lat="41.40977" lon="32.12285">
        <ele>51.000646</ele>
        <time>2021-08-21T14:25:11.421Z</time>
      </trkpt>
      <trkpt lat="41.40961" lon="32.12217">
        <ele>50.608932</ele>
        <time>2021-08-21T14:25:29.814Z</time>
      </trkpt>
      <trkpt lat="41.40959" lon="32.12207">
        <ele>50.805111</ele>
        <time>2021-08-21T14:25:33.071Z</time>
      </trkpt>
      <trkpt lat="41.40942" lon="32.12139">
        <ele>52.027584</ele>
        <time>2021-08-21T14:25:56.718Z</time>
      </trkpt>
      <trkpt lat="41.4088" lon="32.11981">
        <ele>54.291455</ele>
        <time>2021-08-21T14:27:02.556Z</time>
      </trkpt>
      <trkpt lat="41.40873" lon="32.11918">
        <ele>53.869142</ele>
        <time>2021-08-21T14:27:17.926Z</time>
      </trkpt>
      <trkpt lat="41.40872" lon="32.1189">
        <ele>53.683565</ele>
        <time>2021-08-21T14:27:24.367Z</time>
      </trkpt>
      <trkpt lat="41.40816" lon="32.11879">
        <ele>53.180636</ele>
        <time>2021-08-21T14:27:38.731Z</time>
      </trkpt>
      <trkpt lat="41.40778" lon="32.11882">
        <ele>52.324172</ele>
        <time>2021-08-21T14:27:47.884Z</time>
      </trkpt>
      <trkpt lat="41.40736" lon="32.11899">
        <ele>49.667748</ele>
        <time>2021-08-21T14:27:57.452Z</time>
      </trkpt>
      <trkpt lat="41.40721" lon="32.11883">
        <ele>48.507439</ele>
        <time>2021-08-21T14:28:01.390Z</time>
      </trkpt>
      <trkpt lat="41.40716" lon="32.11869">
        <ele>47.810887</ele>
        <time>2021-08-21T14:28:03.853Z</time>
      </trkpt>
      <trkpt lat="41.40708" lon="32.11797">
        <ele>44.533958</ele>
        <time>2021-08-21T14:28:15.378Z</time>
      </trkpt>
      <trkpt lat="41.40696" lon="32.11764">
        <ele>42.899528</ele>
        <time>2021-08-21T14:28:21.284Z</time>
      </trkpt>
      <trkpt lat="41.40691" lon="32.11756">
        <ele>42.378737</ele>
        <time>2021-08-21T14:28:23.082Z</time>
      </trkpt>
      <trkpt lat="41.40685" lon="32.11748">
        <ele>41.971421</ele>
        <time>2021-08-21T14:28:24.613Z</time>
      </trkpt>
      <trkpt lat="41.40652" lon="32.11731">
        <ele>40.371968</ele>
        <time>2021-08-21T14:28:32.427Z</time>
      </trkpt>
      <trkpt lat="41.40611" lon="32.11731">
        <ele>38.56746</ele>
        <time>2021-08-21T14:28:41.392Z</time>
      </trkpt>
      <trkpt lat="41.40476" lon="32.11704">
        <ele>33.674003</ele>
        <time>2021-08-21T14:29:13.634Z</time>
      </trkpt>
      <trkpt lat="41.40443" lon="32.11682">
        <ele>33.167833</ele>
        <time>2021-08-21T14:29:23.962Z</time>
      </trkpt>
      <trkpt lat="41.40427" lon="32.11682">
        <ele>32.954297</ele>
        <time>2021-08-21T14:29:28.434Z</time>
      </trkpt>
      <trkpt lat="41.40359" lon="32.11713">
        <ele>31.99044</ele>
        <time>2021-08-21T14:29:49.538Z</time>
      </trkpt>
      <trkpt lat="41.40345" lon="32.11716">
        <ele>31.805139</ele>
        <time>2021-08-21T14:29:53.887Z</time>
      </trkpt>
      <trkpt lat="41.40333" lon="32.11717">
        <ele>31.792121</ele>
        <time>2021-08-21T14:29:57.643Z</time>
      </trkpt>
      <trkpt lat="41.40328" lon="32.11727">
        <ele>31.848379</ele>
        <time>2021-08-21T14:30:00.681Z</time>
      </trkpt>
      <trkpt lat="41.40287" lon="32.11717">
        <ele>32.088795</ele>
        <time>2021-08-21T14:30:13.992Z</time>
      </trkpt>
      <trkpt lat="41.40203" lon="32.1168">
        <ele>32.60283</ele>
        <time>2021-08-21T14:30:44.741Z</time>
      </trkpt>
      <trkpt lat="41.40155" lon="32.11667">
        <ele>33.289847</ele>
        <time>2021-08-21T14:31:02.991Z</time>
      </trkpt>
      <trkpt lat="41.40109" lon="32.11667">
        <ele>34.746135</ele>
        <time>2021-08-21T14:31:21.860Z</time>
      </trkpt>
      <trkpt lat="41.40084" lon="32.11671">
        <ele>35.531728</ele>
        <time>2021-08-21T14:31:33.656Z</time>
      </trkpt>
      <trkpt lat="41.40066" lon="32.11683">
        <ele>36.155615</ele>
        <time>2021-08-21T14:31:44.508Z</time>
      </trkpt>
      <trkpt lat="41.4003" lon="32.11719">
        <ele>37.544634</ele>
        <time>2021-08-21T14:32:08.418Z</time>
      </trkpt>
      <trkpt lat="41.39986" lon="32.1174">
        <ele>39.373511</ele>
        <time>2021-08-21T14:32:36.006Z</time>
      </trkpt>
      <trkpt lat="41.39957" lon="32.11747">
        <ele>40.826222</ele>
        <time>2021-08-21T14:32:53.850Z</time>
      </trkpt>
      <trkpt lat="41.39939" lon="32.11724">
        <ele>42.061918</ele>
        <time>2021-08-21T14:33:09.446Z</time>
      </trkpt>
      <trkpt lat="41.39916" lon="32.11696">
        <ele>43.625342</ele>
        <time>2021-08-21T14:33:28.537Z</time>
      </trkpt>
      <trkpt lat="41.39869" lon="32.11678">
        <ele>46.049563</ele>
        <time>2021-08-21T14:33:58.318Z</time>
      </trkpt>
      <trkpt lat="41.39844" lon="32.11795">
        <ele>50.271754</ele>
        <time>2021-08-21T14:34:50.181Z</time>
      </trkpt>
      <trkpt lat="41.39838" lon="32.11883">
        <ele>53.276542</ele>
        <time>2021-08-21T14:35:27.231Z</time>
      </trkpt>
      <trkpt lat="41.39825" lon="32.11918">
        <ele>54.592369</ele>
        <time>2021-08-21T14:35:42.730Z</time>
      </trkpt>
      <trkpt lat="41.3981" lon="32.11941">
        <ele>55.690326</ele>
        <time>2021-08-21T14:35:55.381Z</time>
      </trkpt>
      <trkpt lat="41.39786" lon="32.11947">
        <ele>57.255065</ele>
        <time>2021-08-21T14:36:09.144Z</time>
      </trkpt>
      <trkpt lat="41.39778" lon="32.11964">
        <ele>58.214351</ele>
        <time>2021-08-21T14:36:18.361Z</time>
      </trkpt>
      <trkpt lat="41.3975" lon="32.12054">
        <ele>62.944037</ele>
        <time>2021-08-21T14:37:06.123Z</time>
      </trkpt>
      <trkpt lat="41.39725" lon="32.12065">
        <ele>64.642217</ele>
        <time>2021-08-21T14:37:25.260Z</time>
      </trkpt>
      <trkpt lat="41.39627" lon="32.12087">
        <ele>73.158404</ele>
        <time>2021-08-21T14:38:43.628Z</time>
      </trkpt>
      <trkpt lat="41.39533" lon="32.12084">
        <ele>82.412273</ele>
        <time>2021-08-21T14:40:08.470Z</time>
      </trkpt>
      <trkpt lat="41.39467" lon="32.12094">
        <ele>88.451115</ele>
        <time>2021-08-21T14:41:10.840Z</time>
      </trkpt>
      <trkpt lat="41.39449" lon="32.12085">
        <ele>90.115101</ele>
        <time>2021-08-21T14:41:28.560Z</time>
      </trkpt>
      <trkpt lat="41.39424" lon="32.12039">
        <ele>93.700413</ele>
        <time>2021-08-21T14:42:05.302Z</time>
      </trkpt>
      <trkpt lat="41.3941" lon="32.12032">
        <ele>95.040432</ele>
        <time>2021-08-21T14:42:18.063Z</time>
      </trkpt>
      <trkpt lat="41.39385" lon="32.12036">
        <ele>97.160759</ele>
        <time>2021-08-21T14:42:36.887Z</time>
      </trkpt>
      <trkpt lat="41.39352" lon="32.12031">
        <ele>100.020204</ele>
        <time>2021-08-21T14:42:57.977Z</time>
      </trkpt>
      <trkpt lat="41.39296" lon="32.12015">
        <ele>99.684549</ele>
        <time>2021-08-21T14:43:24.159Z</time>
      </trkpt>
      <trkpt lat="41.39254" lon="32.11984">
        <ele>99.279399</ele>
        <time>2021-08-21T14:43:39.042Z</time>
      </trkpt>
      <trkpt lat="41.39254" lon="32.11962">
        <ele>99.143155</ele>
        <time>2021-08-21T14:43:42.639Z</time>
      </trkpt>
      <trkpt lat="41.39257" lon="32.11919">
        <ele>98.866436</ele>
        <time>2021-08-21T14:43:50.159Z</time>
      </trkpt>
      <trkpt lat="41.39252" lon="32.11615">
        <ele>84.7806</ele>
        <time>2021-08-21T14:44:36.092Z</time>
      </trkpt>
      <trkpt lat="41.39255" lon="32.11488">
        <ele>77.161604</ele>
        <time>2021-08-21T14:44:54.711Z</time>
      </trkpt>
      <trkpt lat="41.39272" lon="32.11205">
        <ele>60.38596</ele>
        <time>2021-08-21T14:45:36.363Z</time>
      </trkpt>
      <trkpt lat="41.39243" lon="32.11183">
        <ele>57.878305</ele>
        <time>2021-08-21T14:45:43.538Z</time>
      </trkpt>
      <trkpt lat="41.39207" lon="32.11164">
        <ele>56.22808</ele>
        <time>2021-08-21T14:45:52.112Z</time>
      </trkpt>
      <trkpt lat="41.39178" lon="32.11139">
        <ele>54.794889</ele>
        <time>2021-08-21T14:45:59.748Z</time>
      </trkpt>
      <trkpt lat="41.39155" lon="32.11134">
        <ele>53.80201</ele>
        <time>2021-08-21T14:46:05.401Z</time>
      </trkpt>
      <trkpt lat="41.39143" lon="32.11128">
        <ele>53.275866</ele>
        <time>2021-08-21T14:46:08.163Z</time>
      </trkpt>
      <trkpt lat="41.39105" lon="32.1111">
        <ele>51.56286</ele>
        <time>2021-08-21T14:46:18.179Z</time>
      </trkpt>
      <trkpt lat="41.39117" lon="32.1109">
        <ele>50.757302</ele>
        <time>2021-08-21T14:46:23.141Z</time>
      </trkpt>
      <trkpt lat="41.39132" lon="32.11026">
        <ele>49.220976</ele>
        <time>2021-08-21T14:46:35.495Z</time>
      </trkpt>
      <trkpt lat="41.39128" lon="32.10997">
        <ele>48.606358</ele>
        <time>2021-08-21T14:46:40.984Z</time>
      </trkpt>
      <trkpt lat="41.39119" lon="32.10973">
        <ele>48.027908</ele>
        <time>2021-08-21T14:46:45.912Z</time>
      </trkpt>
      <trkpt lat="41.39087" lon="32.10946">
        <ele>46.971815</ele>
        <time>2021-08-21T14:46:54.846Z</time>
      </trkpt>
      <trkpt lat="41.39048" lon="32.10914">
        <ele>45.685101</ele>
        <time>2021-08-21T14:47:05.255Z</time>
      </trkpt>
      <trkpt lat="41.38991" lon="32.10884">
        <ele>43.926359</ele>
        <time>2021-08-21T14:47:19.457Z</time>
      </trkpt>
      <trkpt lat="41.38946" lon="32.10875">
        <ele>42.668007</ele>
        <time>2021-08-21T14:47:29.693Z</time>
      </trkpt>
      <trkpt lat="41.38899" lon="32.10881">
        <ele>41.320084</ele>
        <time>2021-08-21T14:47:40.764Z</time>
      </trkpt>
      <trkpt lat="41.38873" lon="32.10896">
        <ele>40.511464</ele>
        <time>2021-08-21T14:47:47.620Z</time>
      </trkpt>
      <trkpt lat="41.38848" lon="32.10925">
        <ele>39.945461</ele>
        <time>2021-08-21T14:47:55.505Z</time>
      </trkpt>
      <trkpt lat="41.3881" lon="32.11009">
        <ele>38.930679</ele>
        <time>2021-08-21T14:48:13.874Z</time>
      </trkpt>
      <trkpt lat="41.38806" lon="32.11026">
        <ele>38.74271</ele>
        <time>2021-08-21T14:48:17.479Z</time>
      </trkpt>
      <trkpt lat="41.38729" lon="32.11034">
        <ele>37.928083</ele>
        <time>2021-08-21T14:48:39.519Z</time>
      </trkpt>
      <trkpt lat="41.38693" lon="32.11025">
        <ele>38.44156</ele>
        <time>2021-08-21T14:48:52.331Z</time>
      </trkpt>
      <trkpt lat="41.38671" lon="32.11012">
        <ele>38.777609</ele>
        <time>2021-08-21T14:49:01.839Z</time>
      </trkpt>
      <trkpt lat="41.38627" lon="32.10969">
        <ele>39.546552</ele>
        <time>2021-08-21T14:49:25.285Z</time>
      </trkpt>
      <trkpt lat="41.38602" lon="32.10937">
        <ele>40.036805</ele>
        <time>2021-08-21T14:49:41.046Z</time>
      </trkpt>
      <trkpt lat="41.38589" lon="32.10892">
        <ele>40.520424</ele>
        <time>2021-08-21T14:49:57.911Z</time>
      </trkpt>
      <trkpt lat="41.38552" lon="32.10853">
        <ele>41.104186</ele>
        <time>2021-08-21T14:50:19.879Z</time>
      </trkpt>
      <trkpt lat="41.38551" lon="32.10845">
        <ele>41.175021</ele>
        <time>2021-08-21T14:50:22.433Z</time>
      </trkpt>
      <trkpt lat="41.38536" lon="32.108">
        <ele>41.629017</ele>
        <time>2021-08-21T14:50:38.052Z</time>
      </trkpt>
      <trkpt lat="41.38532" lon="32.10786">
        <ele>41.77109</ele>
        <time>2021-08-21T14:50:42.572Z</time>
      </trkpt>
      <trkpt lat="41.38514" lon="32.10746">
        <ele>42.201309</ele>
        <time>2021-08-21T14:50:55.560Z</time>
      </trkpt>
      <trkpt lat="41.38492" lon="32.10706">
        <ele>42.339222</ele>
        <time>2021-08-21T14:51:07.270Z</time>
      </trkpt>
      <trkpt lat="41.38474" lon="32.10656">
        <ele>41.346242</ele>
        <time>2021-08-21T14:51:18.317Z</time>
      </trkpt>
      <trkpt lat="41.38454" lon="32.10604">
        <ele>40.293386</ele>
        <time>2021-08-21T14:51:29.130Z</time>
      </trkpt>
      <trkpt lat="41.38422" lon="32.10545">
        <ele>38.99091</ele>
        <time>2021-08-21T14:51:42.157Z</time>
      </trkpt>
      <trkpt lat="41.38388" lon="32.10494">
        <ele>37.734176</ele>
        <time>2021-08-21T14:51:54.168Z</time>
      </trkpt>
      <trkpt lat="41.38405" lon="32.10405">
        <ele>35.966546</ele>
        <time>2021-08-21T14:52:10.858Z</time>
      </trkpt>
      <trkpt lat="41.38362" lon="32.10238">
        <ele>33.285274</ele>
        <time>2021-08-21T14:52:45.001Z</time>
      </trkpt>
      <trkpt lat="41.38349" lon="32.10211">
        <ele>33.084454</ele>
        <time>2021-08-21T14:52:52.030Z</time>
      </trkpt>
      <trkpt lat="41.38301" lon="32.10182">
        <ele>32.65688</ele>
        <time>2021-08-21T14:53:07.596Z</time>
      </trkpt>
      <trkpt lat="41.38239" lon="32.10124">
        <ele>32.134543</ele>
        <time>2021-08-21T14:53:31.441Z</time>
      </trkpt>
      <trkpt lat="41.38209" lon="32.10083">
        <ele>32.105123</ele>
        <time>2021-08-21T14:53:45.491Z</time>
      </trkpt>
      <trkpt lat="41.38156" lon="32.10043">
        <ele>32.06354</ele>
        <time>2021-08-21T14:54:05.015Z</time>
      </trkpt>
      <trkpt lat="41.38105" lon="32.09923">
        <ele>32.13133</ele>
        <time>2021-08-21T14:54:38.138Z</time>
      </trkpt>
      <trkpt lat="41.38084" lon="32.09885">
        <ele>32.228927</ele>
        <time>2021-08-21T14:54:50.212Z</time>
      </trkpt>
      <trkpt lat="41.38084" lon="32.09879">
        <ele>32.241317</ele>
        <time>2021-08-21T14:54:51.960Z</time>
      </trkpt>
      <trkpt lat="41.38071" lon="32.09791">
        <ele>32.422301</ele>
        <time>2021-08-21T14:55:13.858Z</time>
      </trkpt>
      <trkpt lat="41.38052" lon="32.09751">
        <ele>32.526429</ele>
        <time>2021-08-21T14:55:25.818Z</time>
      </trkpt>
      <trkpt lat="41.38019" lon="32.09698">
        <ele>32.76896</ele>
        <time>2021-08-21T14:55:43.813Z</time>
      </trkpt>
      <trkpt lat="41.37995" lon="32.0967">
        <ele>32.921761</ele>
        <time>2021-08-21T14:55:55.087Z</time>
      </trkpt>
      <trkpt lat="41.37952" lon="32.09636">
        <ele>33.154759</ele>
        <time>2021-08-21T14:56:11.928Z</time>
      </trkpt>
      <trkpt lat="41.37902" lon="32.09523">
        <ele>33.333035</ele>
        <time>2021-08-21T14:56:43.933Z</time>
      </trkpt>
      <trkpt lat="41.3789" lon="32.09497">
        <ele>33.324815</ele>
        <time>2021-08-21T14:56:51.082Z</time>
      </trkpt>
      <trkpt lat="41.37885" lon="32.09506">
        <ele>33.321954</ele>
        <time>2021-08-21T14:56:53.426Z</time>
      </trkpt>
      <trkpt lat="41.37848" lon="32.09555">
        <ele>33.302677</ele>
        <time>2021-08-21T14:57:09.554Z</time>
      </trkpt>
      <trkpt lat="41.37652" lon="32.09703">
        <ele>32.872767</ele>
        <time>2021-08-21T14:58:16.295Z</time>
      </trkpt>
      <trkpt lat="41.37611" lon="32.09725">
        <ele>32.920553</ele>
        <time>2021-08-21T14:58:30.002Z</time>
      </trkpt>
      <trkpt lat="41.37578" lon="32.09735">
        <ele>32.957119</ele>
        <time>2021-08-21T14:58:40.695Z</time>
      </trkpt>
      <trkpt lat="41.37497" lon="32.09727">
        <ele>33.045157</ele>
        <time>2021-08-21T14:59:07.295Z</time>
      </trkpt>
      <trkpt lat="41.37475" lon="32.09721">
        <ele>33.085434</ele>
        <time>2021-08-21T14:59:14.791Z</time>
      </trkpt>
      <trkpt lat="41.37401" lon="32.0968">
        <ele>33.338563</ele>
        <time>2021-08-21T14:59:40.938Z</time>
      </trkpt>
      <trkpt lat="41.37372" lon="32.09665">
        <ele>33.438053</ele>
        <time>2021-08-21T14:59:51.199Z</time>
      </trkpt>
      <trkpt lat="41.37366" lon="32.09662">
        <ele>33.458366</ele>
        <time>2021-08-21T14:59:53.320Z</time>
      </trkpt>
      <trkpt lat="41.37346" lon="32.09651">
        <ele>33.527302</ele>
        <time>2021-08-21T15:00:00.373Z</time>
      </trkpt>
      <trkpt lat="41.37268" lon="32.0962">
        <ele>33.884827</ele>
        <time>2021-08-21T15:00:27.025Z</time>
      </trkpt>
      <trkpt lat="41.37125" lon="32.09578">
        <ele>34.707959</ele>
        <time>2021-08-21T15:01:16.913Z</time>
      </trkpt>
      <trkpt lat="41.3702" lon="32.09556">
        <ele>35.631862</ele>
        <time>2021-08-21T15:01:55.898Z</time>
      </trkpt>
      <trkpt lat="41.3699" lon="32.09546">
        <ele>35.898114</ele>
        <time>2021-08-21T15:02:07.134Z</time>
      </trkpt>
      <trkpt lat="41.36931" lon="32.09526">
        <ele>36.343152</ele>
        <time>2021-08-21T15:02:29.427Z</time>
      </trkpt>
      <trkpt lat="41.36799" lon="32.09483">
        <ele>37.166738</ele>
        <time>2021-08-21T15:03:16.445Z</time>
      </trkpt>
      <trkpt lat="41.36646" lon="32.09463">
        <ele>37.456631</ele>
        <time>2021-08-21T15:04:05.435Z</time>
      </trkpt>
      <trkpt lat="41.36607" lon="32.09447">
        <ele>37.513719</ele>
        <time>2021-08-21T15:04:18.249Z</time>
      </trkpt>
      <trkpt lat="41.36544" lon="32.09369">
        <ele>37.501606</ele>
        <time>2021-08-21T15:04:45.127Z</time>
      </trkpt>
      <trkpt lat="41.36487" lon="32.09271">
        <ele>37.484836</ele>
        <time>2021-08-21T15:05:13.977Z</time>
      </trkpt>
      <trkpt lat="41.36439" lon="32.09227">
        <ele>37.405074</ele>
        <time>2021-08-21T15:05:31.566Z</time>
      </trkpt>
      <trkpt lat="41.36392" lon="32.09196">
        <ele>37.33269</ele>
        <time>2021-08-21T15:05:47.324Z</time>
      </trkpt>
      <trkpt lat="41.36379" lon="32.09176">
        <ele>37.305152</ele>
        <time>2021-08-21T15:05:53.384Z</time>
      </trkpt>
      <trkpt lat="41.36377" lon="32.09161">
        <ele>37.288796</ele>
        <time>2021-08-21T15:05:56.932Z</time>
      </trkpt>
      <trkpt lat="41.36383" lon="32.09126">
        <ele>37.251901</ele>
        <time>2021-08-21T15:06:05.101Z</time>
      </trkpt>
      <trkpt lat="41.36361" lon="32.0912">
        <ele>37.254777</ele>
        <time>2021-08-21T15:06:11.773Z</time>
      </trkpt>
      <trkpt lat="41.36285" lon="32.09108">
        <ele>37.328676</ele>
        <time>2021-08-21T15:06:35.528Z</time>
      </trkpt>
      <trkpt lat="41.36119" lon="32.09083">
        <ele>37.681883</ele>
        <time>2021-08-21T15:07:29.555Z</time>
      </trkpt>
      <trkpt lat="41.35955" lon="32.09071">
        <ele>38.282729</ele>
        <time>2021-08-21T15:08:24.592Z</time>
      </trkpt>
      <trkpt lat="41.35721" lon="32.09059">
        <ele>38.863116</ele>
        <time>2021-08-21T15:09:42.806Z</time>
      </trkpt>
      <trkpt lat="41.35551" lon="32.09051">
        <ele>38.472655</ele>
        <time>2021-08-21T15:10:32.094Z</time>
      </trkpt>
      <trkpt lat="41.3547" lon="32.09045">
        <ele>38.166481</ele>
        <time>2021-08-21T15:10:55.504Z</time>
      </trkpt>
      <trkpt lat="41.35368" lon="32.09025">
        <ele>38.199102</ele>
        <time>2021-08-21T15:11:27.157Z</time>
      </trkpt>
      <trkpt lat="41.35309" lon="32.08996">
        <ele>38.218696</ele>
        <time>2021-08-21T15:11:47.456Z</time>
      </trkpt>
      <trkpt lat="41.35082" lon="32.0884">
        <ele>39.443647</ele>
        <time>2021-08-21T15:13:14.981Z</time>
      </trkpt>
      <trkpt lat="41.3499" lon="32.08797">
        <ele>39.804043</ele>
        <time>2021-08-21T15:13:47.148Z</time>
      </trkpt>
      <trkpt lat="41.34918" lon="32.08785">
        <ele>39.861237</ele>
        <time>2021-08-21T15:14:09.949Z</time>
      </trkpt>
      <trkpt lat="41.34849" lon="32.08784">
        <ele>39.87581</ele>
        <time>2021-08-21T15:14:31.319Z</time>
      </trkpt>
      <trkpt lat="41.34442" lon="32.08842">
        <ele>39.895879</ele>
        <time>2021-08-21T15:16:38.293Z</time>
      </trkpt>
      <trkpt lat="41.34316" lon="32.0885">
        <ele>40.514862</ele>
        <time>2021-08-21T15:17:20.025Z</time>
      </trkpt>
      <trkpt lat="41.34198" lon="32.08847">
        <ele>41.443479</ele>
        <time>2021-08-21T15:18:02.675Z</time>
      </trkpt>
      <trkpt lat="41.34093" lon="32.08836">
        <ele>42.531509</ele>
        <time>2021-08-21T15:18:42.679Z</time>
      </trkpt>
      <trkpt lat="41.3392" lon="32.08802">
        <ele>43.94559</ele>
        <time>2021-08-21T15:19:45.870Z</time>
      </trkpt>
      <trkpt lat="41.33869" lon="32.08783">
        <ele>43.846219</ele>
        <time>2021-08-21T15:20:02.908Z</time>
      </trkpt>
      <trkpt lat="41.33845" lon="32.0876">
        <ele>43.664596</ele>
        <time>2021-08-21T15:20:11.463Z</time>
      </trkpt>
      <trkpt lat="41.33823" lon="32.08727">
        <ele>43.456333</ele>
        <time>2021-08-21T15:20:20.883Z</time>
      </trkpt>
      <trkpt lat="41.33795" lon="32.08658">
        <ele>43.087582</ele>
        <time>2021-08-21T15:20:36.676Z</time>
      </trkpt>
      <trkpt lat="41.3378" lon="32.0859">
        <ele>42.549379</ele>
        <time>2021-08-21T15:20:50.201Z</time>
      </trkpt>
      <trkpt lat="41.33761" lon="32.08511">
        <ele>41.752141</ele>
        <time>2021-08-21T15:21:06.069Z</time>
      </trkpt>
      <trkpt lat="41.33731" lon="32.08386">
        <ele>40.665422</ele>
        <time>2021-08-21T15:21:31.936Z</time>
      </trkpt>
      <trkpt lat="41.33626" lon="32.08005">
        <ele>41.582032</ele>
        <time>2021-08-21T15:23:13.559Z</time>
      </trkpt>
      <trkpt lat="41.33583" lon="32.07849">
        <ele>43.015435</ele>
        <time>2021-08-21T15:23:59.047Z</time>
      </trkpt>
      <trkpt lat="41.33569" lon="32.07797">
        <ele>43.624665</ele>
        <time>2021-08-21T15:24:15.350Z</time>
      </trkpt>
      <trkpt lat="41.3348" lon="32.0746">
        <ele>49.170258</ele>
        <time>2021-08-21T15:26:14.066Z</time>
      </trkpt>
      <trkpt lat="41.33428" lon="32.07296">
        <ele>51.605664</ele>
        <time>2021-08-21T15:27:08.676Z</time>
      </trkpt>
      <trkpt lat="41.33365" lon="32.07133">
        <ele>53.849675</ele>
        <time>2021-08-21T15:28:02.949Z</time>
      </trkpt>
      <trkpt lat="41.33299" lon="32.06993">
        <ele>55.775562</ele>
        <time>2021-08-21T15:28:54.504Z</time>
      </trkpt>
      <trkpt lat="41.33214" lon="32.06838">
        <ele>57.483796</ele>
        <time>2021-08-21T15:29:51.092Z</time>
      </trkpt>
      <trkpt lat="41.33108" lon="32.06672">
        <ele>57.302855</ele>
        <time>2021-08-21T15:30:40.074Z</time>
      </trkpt>
      <trkpt lat="41.32907" lon="32.06402">
        <ele>53.164344</ele>
        <time>2021-08-21T15:31:52.629Z</time>
      </trkpt>
      <trkpt lat="41.32795" lon="32.06234">
        <ele>51.631651</ele>
        <time>2021-08-21T15:32:36.911Z</time>
      </trkpt>
      <trkpt lat="41.32469" lon="32.05488">
        <ele>53.498605</ele>
        <time>2021-08-21T15:36:15.168Z</time>
      </trkpt>
      <trkpt lat="41.3244" lon="32.05388">
        <ele>53.496206</ele>
        <time>2021-08-21T15:36:40.160Z</time>
      </trkpt>
      <trkpt lat="41.32423" lon="32.05297">
        <ele>53.465868</ele>
        <time>2021-08-21T15:37:01.140Z</time>
      </trkpt>
      <trkpt lat="41.32418" lon="32.05205">
        <ele>53.267565</ele>
        <time>2021-08-21T15:37:20.938Z</time>
      </trkpt>
      <trkpt lat="41.32421" lon="32.05157">
        <ele>53.162978</ele>
        <time>2021-08-21T15:37:31.584Z</time>
      </trkpt>
      <trkpt lat="41.32426" lon="32.05099">
        <ele>53.036046</ele>
        <time>2021-08-21T15:37:44.811Z</time>
      </trkpt>
      <trkpt lat="41.32429" lon="32.05074">
        <ele>52.983315</ele>
        <time>2021-08-21T15:37:50.390Z</time>
      </trkpt>
      <trkpt lat="41.32433" lon="32.05039">
        <ele>53.114726</ele>
        <time>2021-08-21T15:37:58.800Z</time>
      </trkpt>
      <trkpt lat="41.3247" lon="32.049">
        <ele>53.711739</ele>
        <time>2021-08-21T15:38:36.048Z</time>
      </trkpt>
      <trkpt lat="41.32511" lon="32.04812">
        <ele>54.551035</ele>
        <time>2021-08-21T15:39:05.583Z</time>
      </trkpt>
      <trkpt lat="41.32559" lon="32.04725">
        <ele>55.996371</ele>
        <time>2021-08-21T15:39:38.112Z</time>
      </trkpt>
      <trkpt lat="41.32611" lon="32.04653">
        <ele>57.391812</ele>
        <time>2021-08-21T15:40:11.555Z</time>
      </trkpt>
      <trkpt lat="41.32603" lon="32.04644">
        <ele>57.632783</ele>
        <time>2021-08-21T15:40:15.829Z</time>
      </trkpt>
      <trkpt lat="41.32579" lon="32.04597">
        <ele>58.591016</ele>
        <time>2021-08-21T15:40:35.691Z</time>
      </trkpt>
      <trkpt lat="41.32529" lon="32.04509">
        <ele>60.453949</ele>
        <time>2021-08-21T15:41:14.084Z</time>
      </trkpt>
      <trkpt lat="41.32516" lon="32.04499">
        <ele>60.792552</ele>
        <time>2021-08-21T15:41:20.723Z</time>
      </trkpt>
      <trkpt lat="41.32503" lon="32.04499">
        <ele>61.08747</ele>
        <time>2021-08-21T15:41:26.478Z</time>
      </trkpt>
      <trkpt lat="41.32408" lon="32.04628">
        <ele>60.819928</ele>
        <time>2021-08-21T15:42:11.086Z</time>
      </trkpt>
      <trkpt lat="41.32353" lon="32.04682">
        <ele>60.274503</ele>
        <time>2021-08-21T15:42:27.556Z</time>
      </trkpt>
      <trkpt lat="41.32293" lon="32.04768">
        <ele>58.419774</ele>
        <time>2021-08-21T15:42:47.954Z</time>
      </trkpt>
      <trkpt lat="41.32271" lon="32.04781">
        <ele>57.903921</ele>
        <time>2021-08-21T15:42:53.713Z</time>
      </trkpt>
      <trkpt lat="41.32248" lon="32.04779">
        <ele>57.430848</ele>
        <time>2021-08-21T15:42:59.153Z</time>
      </trkpt>
      <trkpt lat="41.32228" lon="32.04754">
        <ele>56.880698</ele>
        <time>2021-08-21T15:43:06.258Z</time>
      </trkpt>
      <trkpt lat="41.32094" lon="32.04495">
        <ele>57.815139</ele>
        <time>2021-08-21T15:44:28.537Z</time>
      </trkpt>
      <trkpt lat="41.32085" lon="32.04469">
        <ele>57.954105</ele>
        <time>2021-08-21T15:44:36.701Z</time>
      </trkpt>
      <trkpt lat="41.32073" lon="32.04315">
        <ele>58.697738</ele>
        <time>2021-08-21T15:45:16.558Z</time>
      </trkpt>
      <trkpt lat="41.32062" lon="32.04282">
        <ele>58.890287</ele>
        <time>2021-08-21T15:45:25.625Z</time>
      </trkpt>
      <trkpt lat="41.32034" lon="32.04239">
        <ele>59.185232</ele>
        <time>2021-08-21T15:45:39.739Z</time>
      </trkpt>
      <trkpt lat="41.32017" lon="32.042">
        <ele>59.417135</ele>
        <time>2021-08-21T15:45:51.336Z</time>
      </trkpt>
      <trkpt lat="41.3201" lon="32.04167">
        <ele>59.599475</ele>
        <time>2021-08-21T15:46:00.762Z</time>
      </trkpt>
      <trkpt lat="41.32014" lon="32.04084">
        <ele>60.175554</ele>
        <time>2021-08-21T15:46:24.131Z</time>
      </trkpt>
      <trkpt lat="41.31991" lon="32.03955">
        <ele>61.392474</ele>
        <time>2021-08-21T15:47:04.133Z</time>
      </trkpt>
      <trkpt lat="41.31991" lon="32.03869">
        <ele>62.05586</ele>
        <time>2021-08-21T15:47:27.603Z</time>
      </trkpt>
      <trkpt lat="41.31987" lon="32.03835">
        <ele>62.124611</ele>
        <time>2021-08-21T15:47:36.580Z</time>
      </trkpt>
      <trkpt lat="41.31976" lon="32.03812">
        <ele>62.177567</ele>
        <time>2021-08-21T15:47:43.769Z</time>
      </trkpt>
      <trkpt lat="41.31939" lon="32.03779">
        <ele>62.295463</ele>
        <time>2021-08-21T15:47:57.890Z</time>
      </trkpt>
      <trkpt lat="41.31924" lon="32.03764">
        <ele>62.34529</ele>
        <time>2021-08-21T15:48:03.803Z</time>
      </trkpt>
      <trkpt lat="41.31789" lon="32.03503">
        <ele>62.341456</ele>
        <time>2021-08-21T15:49:16.057Z</time>
      </trkpt>
      <trkpt lat="41.31737" lon="32.03342">
        <ele>62.807312</ele>
        <time>2021-08-21T15:50:00.022Z</time>
      </trkpt>
      <trkpt lat="41.3171" lon="32.03296">
        <ele>62.963912</ele>
        <time>2021-08-21T15:50:14.826Z</time>
      </trkpt>
      <trkpt lat="41.31633" lon="32.03205">
        <ele>63.297906</ele>
        <time>2021-08-21T15:50:48.752Z</time>
      </trkpt>
      <trkpt lat="41.31601" lon="32.03143">
        <ele>63.481028</ele>
        <time>2021-08-21T15:51:07.275Z</time>
      </trkpt>
      <trkpt lat="41.31583" lon="32.03124">
        <ele>63.553759</ele>
        <time>2021-08-21T15:51:14.663Z</time>
      </trkpt>
      <trkpt lat="41.315" lon="32.03071">
        <ele>64.090364</ele>
        <time>2021-08-21T15:51:45.500Z</time>
      </trkpt>
      <trkpt lat="41.31454" lon="32.03022">
        <ele>64.437384</ele>
        <time>2021-08-21T15:52:06.003Z</time>
      </trkpt>
      <trkpt lat="41.31364" lon="32.02949">
        <ele>65.411279</ele>
        <time>2021-08-21T15:52:44.255Z</time>
      </trkpt>
      <trkpt lat="41.31311" lon="32.02925">
        <ele>66.006177</ele>
        <time>2021-08-21T15:53:05.193Z</time>
      </trkpt>
      <trkpt lat="41.31224" lon="32.02897">
        <ele>67.092781</ele>
        <time>2021-08-21T15:53:39.040Z</time>
      </trkpt>
      <trkpt lat="41.31192" lon="32.02878">
        <ele>67.604113</ele>
        <time>2021-08-21T15:53:53.019Z</time>
      </trkpt>
      <trkpt lat="41.31096" lon="32.02803">
        <ele>69.179595</ele>
        <time>2021-08-21T15:54:36.972Z</time>
      </trkpt>
      <trkpt lat="41.31066" lon="32.02786">
        <ele>69.637148</ele>
        <time>2021-08-21T15:54:49.875Z</time>
      </trkpt>
      <trkpt lat="41.30975" lon="32.02757">
        <ele>70.939728</ele>
        <time>2021-08-21T15:55:26.275Z</time>
      </trkpt>
      <trkpt lat="41.30781" lon="32.02725">
        <ele>73.54706</ele>
        <time>2021-08-21T15:56:41.430Z</time>
      </trkpt>
      <trkpt lat="41.30701" lon="32.02688">
        <ele>74.72151</ele>
        <time>2021-08-21T15:57:14.594Z</time>
      </trkpt>
      <trkpt lat="41.30609" lon="32.02629">
        <ele>76.180514</ele>
        <time>2021-08-21T15:57:54.746Z</time>
      </trkpt>
      <trkpt lat="41.30588" lon="32.02625">
        <ele>76.483603</ele>
        <time>2021-08-21T15:58:03.002Z</time>
      </trkpt>
      <trkpt lat="41.30496" lon="32.02654">
        <ele>77.829396</ele>
        <time>2021-08-21T15:58:39.297Z</time>
      </trkpt>
      <trkpt lat="41.30485" lon="32.02645">
        <ele>78.013165</ele>
        <time>2021-08-21T15:58:44.265Z</time>
      </trkpt>
      <trkpt lat="41.30477" lon="32.02622">
        <ele>78.284159</ele>
        <time>2021-08-21T15:58:51.614Z</time>
      </trkpt>
      <trkpt lat="41.30464" lon="32.02452">
        <ele>80.452406</ele>
        <time>2021-08-21T15:59:43.023Z</time>
      </trkpt>
      <trkpt lat="41.30437" lon="32.0236">
        <ele>81.859919</ele>
        <time>2021-08-21T16:00:14.747Z</time>
      </trkpt>
      <trkpt lat="41.30409" lon="32.02313">
        <ele>82.78455</ele>
        <time>2021-08-21T16:00:34.429Z</time>
      </trkpt>
      <trkpt lat="41.30358" lon="32.02278">
        <ele>84.223292</ele>
        <time>2021-08-21T16:00:59.813Z</time>
      </trkpt>
      <trkpt lat="41.3035" lon="32.02262">
        <ele>84.585331</ele>
        <time>2021-08-21T16:01:06.310Z</time>
      </trkpt>
      <trkpt lat="41.30348" lon="32.02238">
        <ele>85.040182</ele>
        <time>2021-08-21T16:01:14.510Z</time>
      </trkpt>
      <trkpt lat="41.30363" lon="32.0212">
        <ele>87.317354</ele>
        <time>2021-08-21T16:01:55.864Z</time>
      </trkpt>
      <trkpt lat="41.30354" lon="32.02088">
        <ele>88.012296</ele>
        <time>2021-08-21T16:02:07.784Z</time>
      </trkpt>
      <trkpt lat="41.30329" lon="32.02041">
        <ele>89.183562</ele>
        <time>2021-08-21T16:02:27.971Z</time>
      </trkpt>
      <trkpt lat="41.30318" lon="32.01969">
        <ele>90.677904</ele>
        <time>2021-08-21T16:02:54.019Z</time>
      </trkpt>
      <trkpt lat="41.30305" lon="32.01945">
        <ele>91.279682</ele>
        <time>2021-08-21T16:03:04.333Z</time>
      </trkpt>
      <trkpt lat="41.30256" lon="32.01895">
        <ele>92.662029</ele>
        <time>2021-08-21T16:03:32.771Z</time>
      </trkpt>
      <trkpt lat="41.30249" lon="32.0187">
        <ele>93.058533</ele>
        <time>2021-08-21T16:03:41.964Z</time>
      </trkpt>
      <trkpt lat="41.3026" lon="32.01706">
        <ele>95.462811</ele>
        <time>2021-08-21T16:04:32.967Z</time>
      </trkpt>
      <trkpt lat="41.30256" lon="32.0168">
        <ele>95.616458</ele>
        <time>2021-08-21T16:04:40.410Z</time>
      </trkpt>
      <trkpt lat="41.30245" lon="32.01664">
        <ele>95.742023</ele>
        <time>2021-08-21T16:04:46.067Z</time>
      </trkpt>
      <trkpt lat="41.30209" lon="32.01637">
        <ele>96.060462</ele>
        <time>2021-08-21T16:05:00.218Z</time>
      </trkpt>
      <trkpt lat="41.30191" lon="32.01615">
        <ele>96.248783</ele>
        <time>2021-08-21T16:05:08.533Z</time>
      </trkpt>
      <trkpt lat="41.30175" lon="32.01571">
        <ele>96.531791</ele>
        <time>2021-08-21T16:05:20.821Z</time>
      </trkpt>
      <trkpt lat="41.3017" lon="32.01501">
        <ele>97.053255</ele>
        <time>2021-08-21T16:05:38.840Z</time>
      </trkpt>
      <trkpt lat="41.30134" lon="32.0138">
        <ele>98.542051</ele>
        <time>2021-08-21T16:06:15.512Z</time>
      </trkpt>
      <trkpt lat="41.30105" lon="32.01231">
        <ele>100.885199</ele>
        <time>2021-08-21T16:07:06.956Z</time>
      </trkpt>
      <trkpt lat="41.30108" lon="32.01051">
        <ele>104.562709</ele>
        <time>2021-08-21T16:08:11.292Z</time>
      </trkpt>
      <trkpt lat="41.30097" lon="32.01001">
        <ele>105.644325</ele>
        <time>2021-08-21T16:08:29.482Z</time>
      </trkpt>
      <trkpt lat="41.30071" lon="32.00924">
        <ele>107.396929</ele>
        <time>2021-08-21T16:08:58.532Z</time>
      </trkpt>
      <trkpt lat="41.30061" lon="32.00824">
        <ele>109.520465</ele>
        <time>2021-08-21T16:09:33.167Z</time>
      </trkpt>
      <trkpt lat="41.30064" lon="32.00688">
        <ele>113.481288</ele>
        <time>2021-08-21T16:10:25.340Z</time>
      </trkpt>
      <trkpt lat="41.3008" lon="32.00586">
        <ele>116.538967</ele>
        <time>2021-08-21T16:11:08.856Z</time>
      </trkpt>
      <trkpt lat="41.30084" lon="32.00558">
        <ele>117.577512</ele>
        <time>2021-08-21T16:11:22.157Z</time>
      </trkpt>
      <trkpt lat="41.30133" lon="32.00471">
        <ele>121.515349</ele>
        <time>2021-08-21T16:12:11.976Z</time>
      </trkpt>
      <trkpt lat="41.30178" lon="32.00434">
        <ele>124.065106</ele>
        <time>2021-08-21T16:12:43.459Z</time>
      </trkpt>
      <trkpt lat="41.30201" lon="32.00422">
        <ele>125.148501</ele>
        <time>2021-08-21T16:12:57.464Z</time>
      </trkpt>
      <trkpt lat="41.3023" lon="32.00424">
        <ele>125.784137</ele>
        <time>2021-08-21T16:13:12.551Z</time>
      </trkpt>
      <trkpt lat="41.30334" lon="32.00485">
        <ele>128.271803</ele>
        <time>2021-08-21T16:14:02.616Z</time>
      </trkpt>
      <trkpt lat="41.30364" lon="32.00479">
        <ele>128.935848</ele>
        <time>2021-08-21T16:14:12.596Z</time>
      </trkpt>
      <trkpt lat="41.3037" lon="32.00463">
        <ele>128.921824</ele>
        <time>2021-08-21T16:14:16.448Z</time>
      </trkpt>
      <trkpt lat="41.30369" lon="32.00446">
        <ele>128.832611</ele>
        <time>2021-08-21T16:14:20.060Z</time>
      </trkpt>
      <trkpt lat="41.3036" lon="32.00427">
        <ele>128.715096</ele>
        <time>2021-08-21T16:14:24.877Z</time>
      </trkpt>
      <trkpt lat="41.30308" lon="32.00361">
        <ele>128.214712</ele>
        <time>2021-08-21T16:14:43.893Z</time>
      </trkpt>
      <trkpt lat="41.3031" lon="32.00336">
        <ele>128.083177</ele>
        <time>2021-08-21T16:14:48.701Z</time>
      </trkpt>
      <trkpt lat="41.30321" lon="32.00301">
        <ele>127.884683</ele>
        <time>2021-08-21T16:14:56.216Z</time>
      </trkpt>
      <trkpt lat="41.30363" lon="32.00212">
        <ele>128.62875</ele>
        <time>2021-08-21T16:15:19.187Z</time>
      </trkpt>
      <trkpt lat="41.30387" lon="32.00123">
        <ele>129.700163</ele>
        <time>2021-08-21T16:15:46.855Z</time>
      </trkpt>
      <trkpt lat="41.3039" lon="32.00028">
        <ele>131.661483</ele>
        <time>2021-08-21T16:16:22.456Z</time>
      </trkpt>
      <trkpt lat="41.30418" lon="31.99885">
        <ele>137.945103</ele>
        <time>2021-08-21T16:17:36.277Z</time>
      </trkpt>
      <trkpt lat="41.3044" lon="31.99843">
        <ele>140.122249</ele>
        <time>2021-08-21T16:18:02.587Z</time>
      </trkpt>
      <trkpt lat="41.30487" lon="31.99796">
        <ele>142.603067</ele>
        <time>2021-08-21T16:18:40.988Z</time>
      </trkpt>
      <trkpt lat="41.3054" lon="31.99756">
        <ele>145.013625</ele>
        <time>2021-08-21T16:19:16.334Z</time>
      </trkpt>
      <trkpt lat="41.3065" lon="31.99617">
        <ele>147.610156</ele>
        <time>2021-08-21T16:20:16.975Z</time>
      </trkpt>
      <trkpt lat="41.30667" lon="31.99569">
        <ele>147.540765</ele>
        <time>2021-08-21T16:20:27.438Z</time>
      </trkpt>
      <trkpt lat="41.30686" lon="31.99558">
        <ele>147.5047</ele>
        <time>2021-08-21T16:20:32.805Z</time>
      </trkpt>
      <trkpt lat="41.30713" lon="31.99554">
        <ele>147.457411</ele>
        <time>2021-08-21T16:20:39.673Z</time>
      </trkpt>
      <trkpt lat="41.30731" lon="31.99559">
        <ele>147.152849</ele>
        <time>2021-08-21T16:20:44.101Z</time>
      </trkpt>
      <trkpt lat="41.30762" lon="31.99596">
        <ele>145.774184</ele>
        <time>2021-08-21T16:20:54.039Z</time>
      </trkpt>
      <trkpt lat="41.30774" lon="31.99601">
        <ele>145.357819</ele>
        <time>2021-08-21T16:20:57.015Z</time>
      </trkpt>
      <trkpt lat="41.30783" lon="31.99592">
        <ele>144.985088</ele>
        <time>2021-08-21T16:20:59.517Z</time>
      </trkpt>
      <trkpt lat="41.30787" lon="31.99578">
        <ele>144.612518</ele>
        <time>2021-08-21T16:21:02.030Z</time>
      </trkpt>
      <trkpt lat="41.30782" lon="31.99515">
        <ele>143.036756</ele>
        <time>2021-08-21T16:21:12.577Z</time>
      </trkpt>
      <trkpt lat="41.30791" lon="31.99491">
        <ele>142.369535</ele>
        <time>2021-08-21T16:21:16.902Z</time>
      </trkpt>
      <trkpt lat="41.30802" lon="31.99481">
        <ele>141.928465</ele>
        <time>2021-08-21T16:21:19.881Z</time>
      </trkpt>
      <trkpt lat="41.30841" lon="31.99467">
        <ele>140.596711</ele>
        <time>2021-08-21T16:21:28.751Z</time>
      </trkpt>
      <trkpt lat="41.30856" lon="31.99456">
        <ele>140.033309</ele>
        <time>2021-08-21T16:21:32.451Z</time>
      </trkpt>
      <trkpt lat="41.30865" lon="31.99439">
        <ele>139.519341</ele>
        <time>2021-08-21T16:21:35.964Z</time>
      </trkpt>
      <trkpt lat="41.3087" lon="31.99414">
        <ele>138.880006</ele>
        <time>2021-08-21T16:21:40.203Z</time>
      </trkpt>
      <trkpt lat="41.30893" lon="31.9938">
        <ele>137.749286</ele>
        <time>2021-08-21T16:21:47.811Z</time>
      </trkpt>
      <trkpt lat="41.30921" lon="31.9935">
        <ele>136.566839</ele>
        <time>2021-08-21T16:21:55.908Z</time>
      </trkpt>
      <trkpt lat="41.31034" lon="31.99262">
        <ele>135.907576</ele>
        <time>2021-08-21T16:22:30.473Z</time>
      </trkpt>
      <trkpt lat="41.31225" lon="31.99081">
        <ele>140.287595</ele>
        <time>2021-08-21T16:24:17.355Z</time>
      </trkpt>
      <trkpt lat="41.31268" lon="31.99032">
        <ele>141.484685</ele>
        <time>2021-08-21T16:24:44.719Z</time>
      </trkpt>
      <trkpt lat="41.31292" lon="31.99004">
        <ele>142.028574</ele>
        <time>2021-08-21T16:24:59.387Z</time>
      </trkpt>
      <trkpt lat="41.3139" lon="31.98873">
        <ele>143.966157</ele>
        <time>2021-08-21T16:25:52.518Z</time>
      </trkpt>
      <trkpt lat="41.3162" lon="31.98722">
        <ele>144.168681</ele>
        <time>2021-08-21T16:27:06.184Z</time>
      </trkpt>
      <trkpt lat="41.31635" lon="31.98682">
        <ele>144.326718</ele>
        <time>2021-08-21T16:27:18.383Z</time>
      </trkpt>
      <trkpt lat="41.31686" lon="31.98586">
        <ele>145.8893</ele>
        <time>2021-08-21T16:27:55.551Z</time>
      </trkpt>
      <trkpt lat="41.31726" lon="31.98548">
        <ele>147.472359</ele>
        <time>2021-08-21T16:28:19.351Z</time>
      </trkpt>
      <trkpt lat="41.31823" lon="31.98444">
        <ele>151.905931</ele>
        <time>2021-08-21T16:29:25.793Z</time>
      </trkpt>
      <trkpt lat="41.31933" lon="31.98223">
        <ele>160.695019</ele>
        <time>2021-08-21T16:31:18.208Z</time>
      </trkpt>
      <trkpt lat="41.31981" lon="31.98167">
        <ele>163.566193</ele>
        <time>2021-08-21T16:31:55.218Z</time>
      </trkpt>
      <trkpt lat="41.32102" lon="31.98069">
        <ele>168.584181</ele>
        <time>2021-08-21T16:33:12.984Z</time>
      </trkpt>
      <trkpt lat="41.32218" lon="31.98003">
        <ele>171.194571</ele>
        <time>2021-08-21T16:34:06.129Z</time>
      </trkpt>
      <trkpt lat="41.32288" lon="31.97925">
        <ele>170.521199</ele>
        <time>2021-08-21T16:34:31.005Z</time>
      </trkpt>
      <trkpt lat="41.32314" lon="31.97882">
        <ele>170.215346</ele>
        <time>2021-08-21T16:34:41.230Z</time>
      </trkpt>
      <trkpt lat="41.32334" lon="31.97821">
        <ele>169.792526</ele>
        <time>2021-08-21T16:34:53.321Z</time>
      </trkpt>
      <trkpt lat="41.32336" lon="31.97766">
        <ele>169.410503</ele>
        <time>2021-08-21T16:35:03.516Z</time>
      </trkpt>
      <trkpt lat="41.32332" lon="31.97732">
        <ele>169.171742</ele>
        <time>2021-08-21T16:35:09.973Z</time>
      </trkpt>
      <trkpt lat="41.32378" lon="31.97553">
        <ele>169.465564</ele>
        <time>2021-08-21T16:35:56.327Z</time>
      </trkpt>
      <trkpt lat="41.32397" lon="31.97519">
        <ele>170.046015</ele>
        <time>2021-08-21T16:36:10.810Z</time>
      </trkpt>
      <trkpt lat="41.32428" lon="31.97495">
        <ele>170.699994</ele>
        <time>2021-08-21T16:36:27.180Z</time>
      </trkpt>
      <trkpt lat="41.3244" lon="31.9747">
        <ele>171.106364</ele>
        <time>2021-08-21T16:36:36.512Z</time>
      </trkpt>
      <trkpt lat="41.32442" lon="31.97464">
        <ele>171.198683</ele>
        <time>2021-08-21T16:36:40.306Z</time>
      </trkpt>
      <trkpt lat="41.32462" lon="31.97393">
        <ele>172.324115</ele>
        <time>2021-08-21T16:37:06.246Z</time>
      </trkpt>
      <trkpt lat="41.32477" lon="31.97362">
        <ele>172.91054</ele>
        <time>2021-08-21T16:37:19.927Z</time>
      </trkpt>
      <trkpt lat="41.32611" lon="31.97231">
        <ele>175.683899</ele>
        <time>2021-08-21T16:38:28.353Z</time>
      </trkpt>
      <trkpt lat="41.32779" lon="31.97034">
        <ele>176.590722</ele>
        <time>2021-08-21T16:39:37.174Z</time>
      </trkpt>
      <trkpt lat="41.32785" lon="31.97011">
        <ele>176.655104</ele>
        <time>2021-08-21T16:39:43.747Z</time>
      </trkpt>
      <trkpt lat="41.32782" lon="31.96978">
        <ele>176.743043</ele>
        <time>2021-08-21T16:39:51.497Z</time>
      </trkpt>
      <trkpt lat="41.32779" lon="31.96944">
        <ele>176.834437</ele>
        <time>2021-08-21T16:40:01.213Z</time>
      </trkpt>
      <trkpt lat="41.32771" lon="31.969">
        <ele>177.092266</ele>
        <time>2021-08-21T16:40:13.656Z</time>
      </trkpt>
      <trkpt lat="41.32772" lon="31.96877">
        <ele>177.371077</ele>
        <time>2021-08-21T16:40:20.034Z</time>
      </trkpt>
      <trkpt lat="41.32767" lon="31.96865">
        <ele>177.526582</ele>
        <time>2021-08-21T16:40:24.305Z</time>
      </trkpt>
      <trkpt lat="41.32766" lon="31.96835">
        <ele>177.878668</ele>
        <time>2021-08-21T16:40:31.811Z</time>
      </trkpt>
      <trkpt lat="41.3276" lon="31.96832">
        <ele>177.96974</ele>
        <time>2021-08-21T16:40:34.756Z</time>
      </trkpt>
      <trkpt lat="41.32783" lon="31.96796">
        <ele>178.521683</ele>
        <time>2021-08-21T16:40:48.289Z</time>
      </trkpt>
      <trkpt lat="41.32801" lon="31.96752">
        <ele>179.100737</ele>
        <time>2021-08-21T16:41:04.049Z</time>
      </trkpt>
      <trkpt lat="41.32789" lon="31.96743">
        <ele>179.319257</ele>
        <time>2021-08-21T16:41:09.944Z</time>
      </trkpt>
      <trkpt lat="41.32787" lon="31.96731">
        <ele>179.459574</ele>
        <time>2021-08-21T16:41:13.599Z</time>
      </trkpt>
      <trkpt lat="41.32798" lon="31.96696">
        <ele>179.988356</ele>
        <time>2021-08-21T16:41:26.508Z</time>
      </trkpt>
      <trkpt lat="41.32769" lon="31.96584">
        <ele>182.018982</ele>
        <time>2021-08-21T16:42:04.958Z</time>
      </trkpt>
      <trkpt lat="41.32787" lon="31.96507">
        <ele>183.398404</ele>
        <time>2021-08-21T16:42:31.420Z</time>
      </trkpt>
      <trkpt lat="41.32786" lon="31.96477">
        <ele>183.944002</ele>
        <time>2021-08-21T16:42:41.826Z</time>
      </trkpt>
      <trkpt lat="41.32768" lon="31.96408">
        <ele>185.600713</ele>
        <time>2021-08-21T16:43:07.782Z</time>
      </trkpt>
      <trkpt lat="41.32768" lon="31.96344">
        <ele>187.041888</ele>
        <time>2021-08-21T16:43:31.110Z</time>
      </trkpt>
      <trkpt lat="41.32778" lon="31.96265">
        <ele>188.85916</ele>
        <time>2021-08-21T16:44:01.023Z</time>
      </trkpt>
      <trkpt lat="41.32802" lon="31.96179">
        <ele>190.856912</ele>
        <time>2021-08-21T16:44:34.591Z</time>
      </trkpt>
      <trkpt lat="41.32827" lon="31.96083">
        <ele>193.04396</ele>
        <time>2021-08-21T16:45:10.884Z</time>
      </trkpt>
      <trkpt lat="41.32834" lon="31.96023">
        <ele>194.351641</ele>
        <time>2021-08-21T16:45:31.808Z</time>
      </trkpt>
      <trkpt lat="41.32832" lon="31.95923">
        <ele>195.800064</ele>
        <time>2021-08-21T16:46:04.965Z</time>
      </trkpt>
      <trkpt lat="41.32849" lon="31.95757">
        <ele>198.14037</ele>
        <time>2021-08-21T16:46:55.687Z</time>
      </trkpt>
      <trkpt lat="41.32844" lon="31.95725">
        <ele>198.536739</ele>
        <time>2021-08-21T16:47:04.938Z</time>
      </trkpt>
      <trkpt lat="41.3283" lon="31.95686">
        <ele>199.060946</ele>
        <time>2021-08-21T16:47:16.718Z</time>
      </trkpt>
      <trkpt lat="41.32804" lon="31.9553">
        <ele>201.292417</ele>
        <time>2021-08-21T16:48:05.886Z</time>
      </trkpt>
      <trkpt lat="41.32795" lon="31.95469">
        <ele>202.890871</ele>
        <time>2021-08-21T16:48:26.630Z</time>
      </trkpt>
      <trkpt lat="41.32792" lon="31.95452">
        <ele>203.332996</ele>
        <time>2021-08-21T16:48:33.801Z</time>
      </trkpt>
      <trkpt lat="41.32811" lon="31.95317">
        <ele>206.853144</ele>
        <time>2021-08-21T16:49:28.459Z</time>
      </trkpt>
      <trkpt lat="41.32831" lon="31.95267">
        <ele>208.879243</ele>
        <time>2021-08-21T16:49:54.032Z</time>
      </trkpt>
      <trkpt lat="41.32873" lon="31.95188">
        <ele>212.355089</ele>
        <time>2021-08-21T16:50:36.335Z</time>
      </trkpt>
      <trkpt lat="41.32899" lon="31.95156">
        <ele>214.04809</ele>
        <time>2021-08-21T16:50:57.078Z</time>
      </trkpt>
      <trkpt lat="41.32948" lon="31.95123">
        <ele>216.752634</ele>
        <time>2021-08-21T16:51:29.115Z</time>
      </trkpt>
      <trkpt lat="41.3301" lon="31.9507">
        <ele>220.507177</ele>
        <time>2021-08-21T16:52:12.439Z</time>
      </trkpt>
      <trkpt lat="41.33063" lon="31.95001">
        <ele>224.284356</ele>
        <time>2021-08-21T16:52:57.244Z</time>
      </trkpt>
      <trkpt lat="41.33166" lon="31.94843">
        <ele>232.615577</ele>
        <time>2021-08-21T16:54:35.134Z</time>
      </trkpt>
      <trkpt lat="41.332" lon="31.94817">
        <ele>234.501019</ele>
        <time>2021-08-21T16:54:58.572Z</time>
      </trkpt>
      <trkpt lat="41.33219" lon="31.94809">
        <ele>235.144108</ele>
        <time>2021-08-21T16:55:09.927Z</time>
      </trkpt>
      <trkpt lat="41.33282" lon="31.94805">
        <ele>237.17957</ele>
        <time>2021-08-21T16:55:43.035Z</time>
      </trkpt>
      <trkpt lat="41.33306" lon="31.9477">
        <ele>238.328158</ele>
        <time>2021-08-21T16:55:59.535Z</time>
      </trkpt>
      <trkpt lat="41.33325" lon="31.94705">
        <ele>240.011118</ele>
        <time>2021-08-21T16:56:21.289Z</time>
      </trkpt>
      <trkpt lat="41.33333" lon="31.94649">
        <ele>240.837334</ele>
        <time>2021-08-21T16:56:37.951Z</time>
      </trkpt>
      <trkpt lat="41.33334" lon="31.94542">
        <ele>242.388299</ele>
        <time>2021-08-21T16:57:08.912Z</time>
      </trkpt>
      <trkpt lat="41.33321" lon="31.94444">
        <ele>244.523729</ele>
        <time>2021-08-21T16:57:41.729Z</time>
      </trkpt>
      <trkpt lat="41.33319" lon="31.94318">
        <ele>249.880412</ele>
        <time>2021-08-21T16:58:36.942Z</time>
      </trkpt>
      <trkpt lat="41.33309" lon="31.94262">
        <ele>252.327013</ele>
        <time>2021-08-21T16:59:07.826Z</time>
      </trkpt>
      <trkpt lat="41.33305" lon="31.9421">
        <ele>255.331827</ele>
        <time>2021-08-21T16:59:39.104Z</time>
      </trkpt>
      <trkpt lat="41.33311" lon="31.94172">
        <ele>258.425606</ele>
        <time>2021-08-21T17:00:04.053Z</time>
      </trkpt>
      <trkpt lat="41.33323" lon="31.94142">
        <ele>261.133775</ele>
        <time>2021-08-21T17:00:27.079Z</time>
      </trkpt>
      <trkpt lat="41.33359" lon="31.94085">
        <ele>267.067958</ele>
        <time>2021-08-21T17:01:20.331Z</time>
      </trkpt>
      <trkpt lat="41.33386" lon="31.94008">
        <ele>273.875191</ele>
        <time>2021-08-21T17:02:22.392Z</time>
      </trkpt>
      <trkpt lat="41.33418" lon="31.9395">
        <ele>279.799739</ele>
        <time>2021-08-21T17:03:14.762Z</time>
      </trkpt>
      <trkpt lat="41.33458" lon="31.93902">
        <ele>285.702285</ele>
        <time>2021-08-21T17:04:05.903Z</time>
      </trkpt>
      <trkpt lat="41.33574" lon="31.93807">
        <ele>297.854821</ele>
        <time>2021-08-21T17:06:04.061Z</time>
      </trkpt>
      <trkpt lat="41.33665" lon="31.93767">
        <ele>304.792753</ele>
        <time>2021-08-21T17:07:11.118Z</time>
      </trkpt>
      <trkpt lat="41.33692" lon="31.9376">
        <ele>305.231058</ele>
        <time>2021-08-21T17:07:21.995Z</time>
      </trkpt>
      <trkpt lat="41.33761" lon="31.93759">
        <ele>304.286791</ele>
        <time>2021-08-21T17:07:43.391Z</time>
      </trkpt>
      <trkpt lat="41.33782" lon="31.93743">
        <ele>303.955724</ele>
        <time>2021-08-21T17:07:52.765Z</time>
      </trkpt>
      <trkpt lat="41.33785" lon="31.93729">
        <ele>303.806138</ele>
        <time>2021-08-21T17:07:54.817Z</time>
      </trkpt>
      <trkpt lat="41.33781" lon="31.9371">
        <ele>303.603394</ele>
        <time>2021-08-21T17:07:58.779Z</time>
      </trkpt>
      <trkpt lat="41.33754" lon="31.93674">
        <ele>303.080589</ele>
        <time>2021-08-21T17:08:06.864Z</time>
      </trkpt>
      <trkpt lat="41.33744" lon="31.93648">
        <ele>301.882969</ele>
        <time>2021-08-21T17:08:11.150Z</time>
      </trkpt>
      <trkpt lat="41.33747" lon="31.93628">
        <ele>300.877242</ele>
        <time>2021-08-21T17:08:14.530Z</time>
      </trkpt>
      <trkpt lat="41.33768" lon="31.9357">
        <ele>297.701982</ele>
        <time>2021-08-21T17:08:23.979Z</time>
      </trkpt>
      <trkpt lat="41.33761" lon="31.9354">
        <ele>296.152841</ele>
        <time>2021-08-21T17:08:28.526Z</time>
      </trkpt>
      <trkpt lat="41.33764" lon="31.93527">
        <ele>295.482192</ele>
        <time>2021-08-21T17:08:30.642Z</time>
      </trkpt>
      <trkpt lat="41.33799" lon="31.93493">
        <ele>292.637047</ele>
        <time>2021-08-21T17:08:39.561Z</time>
      </trkpt>
      <trkpt lat="41.33806" lon="31.93435">
        <ele>290.452316</ele>
        <time>2021-08-21T17:08:48.783Z</time>
      </trkpt>
      <trkpt lat="41.33788" lon="31.93302">
        <ele>287.030388</ele>
        <time>2021-08-21T17:09:11.317Z</time>
      </trkpt>
      <trkpt lat="41.33778" lon="31.9327">
        <ele>286.152745</ele>
        <time>2021-08-21T17:09:17.768Z</time>
      </trkpt>
      <trkpt lat="41.33755" lon="31.93241">
        <ele>285.129226</ele>
        <time>2021-08-21T17:09:26.045Z</time>
      </trkpt>
      <trkpt lat="41.33754" lon="31.93225">
        <ele>285.061555</ele>
        <time>2021-08-21T17:09:29.240Z</time>
      </trkpt>
      <trkpt lat="41.3377" lon="31.9318">
        <ele>284.851696</ele>
        <time>2021-08-21T17:09:39.530Z</time>
      </trkpt>
      <trkpt lat="41.33834" lon="31.93084">
        <ele>284.310591</ele>
        <time>2021-08-21T17:10:08.166Z</time>
      </trkpt>
      <trkpt lat="41.33975" lon="31.92927">
        <ele>284.515842</ele>
        <time>2021-08-21T17:11:03.519Z</time>
      </trkpt>
      <trkpt lat="41.33992" lon="31.92877">
        <ele>285.101586</ele>
        <time>2021-08-21T17:11:19.047Z</time>
      </trkpt>
      <trkpt lat="41.33991" lon="31.92858">
        <ele>285.679751</ele>
        <time>2021-08-21T17:11:26.061Z</time>
      </trkpt>
      <trkpt lat="41.33971" lon="31.92808">
        <ele>287.399474</ele>
        <time>2021-08-21T17:11:45.700Z</time>
      </trkpt>
      <trkpt lat="41.33921" lon="31.92652">
        <ele>292.929057</ele>
        <time>2021-08-21T17:13:02.754Z</time>
      </trkpt>
      <trkpt lat="41.33896" lon="31.92554">
        <ele>297.810687</ele>
        <time>2021-08-21T17:13:56.431Z</time>
      </trkpt>
      <trkpt lat="41.3389" lon="31.92486">
        <ele>301.039951</ele>
        <time>2021-08-21T17:14:31.055Z</time>
      </trkpt>
      <trkpt lat="41.33897" lon="31.92346">
        <ele>307.904441</ele>
        <time>2021-08-21T17:15:40.415Z</time>
      </trkpt>
      <trkpt lat="41.33891" lon="31.92299">
        <ele>310.276374</ele>
        <time>2021-08-21T17:16:03.996Z</time>
      </trkpt>
      <trkpt lat="41.33883" lon="31.92279">
        <ele>311.40383</ele>
        <time>2021-08-21T17:16:15.197Z</time>
      </trkpt>
      <trkpt lat="41.33859" lon="31.92247">
        <ele>313.654158</ele>
        <time>2021-08-21T17:16:38.464Z</time>
      </trkpt>
      <trkpt lat="41.3385" lon="31.92202">
        <ele>316.379447</ele>
        <time>2021-08-21T17:17:03.952Z</time>
      </trkpt>
      <trkpt lat="41.33854" lon="31.92091">
        <ele>324.436803</ele>
        <time>2021-08-21T17:18:11.945Z</time>
      </trkpt>
      <trkpt lat="41.33869" lon="31.92059">
        <ele>327.172017</ele>
        <time>2021-08-21T17:18:37.615Z</time>
      </trkpt>
      <trkpt lat="41.33879" lon="31.92023">
        <ele>329.955109</ele>
        <time>2021-08-21T17:19:05.078Z</time>
      </trkpt>
      <trkpt lat="41.3388" lon="31.91985">
        <ele>332.717197</ele>
        <time>2021-08-21T17:19:32.569Z</time>
      </trkpt>
      <trkpt lat="41.33869" lon="31.91917">
        <ele>337.859875</ele>
        <time>2021-08-21T17:20:22.086Z</time>
      </trkpt>
      <trkpt lat="41.3389" lon="31.91832">
        <ele>344.475488</ele>
        <time>2021-08-21T17:21:23.087Z</time>
      </trkpt>
      <trkpt lat="41.33891" lon="31.91793">
        <ele>347.360478</ele>
        <time>2021-08-21T17:21:47.290Z</time>
      </trkpt>
      <trkpt lat="41.33884" lon="31.9172">
        <ele>351.490689</ele>
        <time>2021-08-21T17:22:27.233Z</time>
      </trkpt>
      <trkpt lat="41.33879" lon="31.91701">
        <ele>352.241104</ele>
        <time>2021-08-21T17:22:37.194Z</time>
      </trkpt>
      <trkpt lat="41.3387" lon="31.91692">
        <ele>352.7998</ele>
        <time>2021-08-21T17:22:43.876Z</time>
      </trkpt>
      <trkpt lat="41.33848" lon="31.9169">
        <ele>353.894476</ele>
        <time>2021-08-21T17:22:56.890Z</time>
      </trkpt>
      <trkpt lat="41.33834" lon="31.917">
        <ele>354.683109</ele>
        <time>2021-08-21T17:23:05.438Z</time>
      </trkpt>
      <trkpt lat="41.33818" lon="31.91723">
        <ele>355.851781</ele>
        <time>2021-08-21T17:23:17.848Z</time>
      </trkpt>
      <trkpt lat="41.33812" lon="31.91744">
        <ele>356.689266</ele>
        <time>2021-08-21T17:23:25.968Z</time>
      </trkpt>
      <trkpt lat="41.33805" lon="31.9175">
        <ele>357.102507</ele>
        <time>2021-08-21T17:23:30.128Z</time>
      </trkpt>
      <trkpt lat="41.33788" lon="31.91748">
        <ele>357.949715</ele>
        <time>2021-08-21T17:23:38.442Z</time>
      </trkpt>
      <trkpt lat="41.33778" lon="31.91739">
        <ele>358.548854</ele>
        <time>2021-08-21T17:23:44.240Z</time>
      </trkpt>
      <trkpt lat="41.33763" lon="31.9171">
        <ele>360.000391</ele>
        <time>2021-08-21T17:23:57.142Z</time>
      </trkpt>
      <trkpt lat="41.33716" lon="31.91532">
        <ele>368.295341</ele>
        <time>2021-08-21T17:25:25.225Z</time>
      </trkpt>
      <trkpt lat="41.3371" lon="31.91447">
        <ele>373.32751</ele>
        <time>2021-08-21T17:26:17.719Z</time>
      </trkpt>
      <trkpt lat="41.33722" lon="31.91391">
        <ele>377.23491</ele>
        <time>2021-08-21T17:26:55.071Z</time>
      </trkpt>
      <trkpt lat="41.3376" lon="31.91263">
        <ele>386.056889</ele>
        <time>2021-08-21T17:28:22.932Z</time>
      </trkpt>
      <trkpt lat="41.33784" lon="31.91202">
        <ele>388.226241</ele>
        <time>2021-08-21T17:29:00.222Z</time>
      </trkpt>
      <trkpt lat="41.33802" lon="31.91178">
        <ele>389.294806</ele>
        <time>2021-08-21T17:29:14.835Z</time>
      </trkpt>
      <trkpt lat="41.33844" lon="31.91138">
        <ele>391.461026</ele>
        <time>2021-08-21T17:29:38.301Z</time>
      </trkpt>
      <trkpt lat="41.3385" lon="31.91108">
        <ele>392.438977</ele>
        <time>2021-08-21T17:29:47.375Z</time>
      </trkpt>
      <trkpt lat="41.33843" lon="31.91067">
        <ele>393.199361</ele>
        <time>2021-08-21T17:29:57.634Z</time>
      </trkpt>
      <trkpt lat="41.33825" lon="31.91036">
        <ele>393.110516</ele>
        <time>2021-08-21T17:30:05.683Z</time>
      </trkpt>
      <trkpt lat="41.33805" lon="31.91015">
        <ele>393.033615</ele>
        <time>2021-08-21T17:30:12.712Z</time>
      </trkpt>
      <trkpt lat="41.33735" lon="31.90987">
        <ele>392.812922</ele>
        <time>2021-08-21T17:30:32.453Z</time>
      </trkpt>
      <trkpt lat="41.33722" lon="31.90973">
        <ele>392.762441</ele>
        <time>2021-08-21T17:30:37.514Z</time>
      </trkpt>
      <trkpt lat="41.33712" lon="31.9095">
        <ele>392.702185</ele>
        <time>2021-08-21T17:30:42.675Z</time>
      </trkpt>
      <trkpt lat="41.33701" lon="31.90873">
        <ele>393.748415</ele>
        <time>2021-08-21T17:31:05.363Z</time>
      </trkpt>
      <trkpt lat="41.33711" lon="31.90788">
        <ele>394.960626</ele>
        <time>2021-08-21T17:31:35.079Z</time>
      </trkpt>
      <trkpt lat="41.337" lon="31.90765">
        <ele>395.344838</ele>
        <time>2021-08-21T17:31:44.505Z</time>
      </trkpt>
      <trkpt lat="41.33683" lon="31.90754">
        <ele>395.699498</ele>
        <time>2021-08-21T17:31:53.453Z</time>
      </trkpt>
      <trkpt lat="41.33617" lon="31.90732">
        <ele>396.733373</ele>
        <time>2021-08-21T17:32:23.443Z</time>
      </trkpt>
      <trkpt lat="41.33574" lon="31.90708">
        <ele>397.374022</ele>
        <time>2021-08-21T17:32:41.816Z</time>
      </trkpt>
      <trkpt lat="41.33442" lon="31.9056">
        <ele>399.802155</ele>
        <time>2021-08-21T17:33:41.858Z</time>
      </trkpt>
      <trkpt lat="41.33425" lon="31.90534">
        <ele>400.174744</ele>
        <time>2021-08-21T17:33:51.759Z</time>
      </trkpt>
      <trkpt lat="41.33375" lon="31.90428">
        <ele>402.159308</ele>
        <time>2021-08-21T17:34:33.076Z</time>
      </trkpt>
      <trkpt lat="41.3335" lon="31.90336">
        <ele>404.89477</ele>
        <time>2021-08-21T17:35:11.593Z</time>
      </trkpt>
      <trkpt lat="41.33337" lon="31.90306">
        <ele>405.863187</ele>
        <time>2021-08-21T17:35:25.818Z</time>
      </trkpt>
      <trkpt lat="41.33322" lon="31.90291">
        <ele>406.561635</ele>
        <time>2021-08-21T17:35:36.075Z</time>
      </trkpt>
      <trkpt lat="41.33292" lon="31.90285">
        <ele>407.691205</ele>
        <time>2021-08-21T17:35:52.965Z</time>
      </trkpt>
      <trkpt lat="41.33275" lon="31.90269">
        <ele>408.664842</ele>
        <time>2021-08-21T17:36:04.806Z</time>
      </trkpt>
      <trkpt lat="41.33265" lon="31.90246">
        <ele>409.638587</ele>
        <time>2021-08-21T17:36:16.310Z</time>
      </trkpt>
      <trkpt lat="41.33262" lon="31.90209">
        <ele>411.00208</ele>
        <time>2021-08-21T17:36:32.701Z</time>
      </trkpt>
      <trkpt lat="41.3327" lon="31.90183">
        <ele>412.031545</ele>
        <time>2021-08-21T17:36:45.266Z</time>
      </trkpt>
      <trkpt lat="41.33273" lon="31.90139">
        <ele>413.650255</ele>
        <time>2021-08-21T17:37:05.235Z</time>
      </trkpt>
      <trkpt lat="41.33262" lon="31.90084">
        <ele>415.735606</ele>
        <time>2021-08-21T17:37:30.863Z</time>
      </trkpt>
      <trkpt lat="41.33205" lon="31.89958">
        <ele>420.779286</ele>
        <time>2021-08-21T17:38:34.919Z</time>
      </trkpt>
      <trkpt lat="41.33169" lon="31.8984">
        <ele>425.03083</ele>
        <time>2021-08-21T17:39:27.598Z</time>
      </trkpt>
      <trkpt lat="41.33131" lon="31.89762">
        <ele>427.696596</ele>
        <time>2021-08-21T17:40:03.515Z</time>
      </trkpt>
      <trkpt lat="41.3297" lon="31.89542">
        <ele>437.276957</ele>
        <time>2021-08-21T17:42:04.516Z</time>
      </trkpt>
      <trkpt lat="41.32834" lon="31.89278">
        <ele>450.618549</ele>
        <time>2021-08-21T17:44:37.931Z</time>
      </trkpt>
      <trkpt lat="41.32798" lon="31.89176">
        <ele>456.29595</ele>
        <time>2021-08-21T17:45:34.687Z</time>
      </trkpt>
      <trkpt lat="41.32789" lon="31.89057">
        <ele>462.387071</ele>
        <time>2021-08-21T17:46:38.504Z</time>
      </trkpt>
      <trkpt lat="41.32797" lon="31.89026">
        <ele>464.412791</ele>
        <time>2021-08-21T17:46:56.503Z</time>
      </trkpt>
      <trkpt lat="41.32795" lon="31.89015">
        <ele>465.112216</ele>
        <time>2021-08-21T17:47:02.891Z</time>
      </trkpt>
      <trkpt lat="41.32783" lon="31.8901">
        <ele>466.146963</ele>
        <time>2021-08-21T17:47:12.190Z</time>
      </trkpt>
      <trkpt lat="41.32774" lon="31.89015">
        <ele>466.949484</ele>
        <time>2021-08-21T17:47:19.413Z</time>
      </trkpt>
      <trkpt lat="41.32767" lon="31.8903">
        <ele>468.040878</ele>
        <time>2021-08-21T17:47:29.383Z</time>
      </trkpt>
      <trkpt lat="41.32762" lon="31.89084">
        <ele>471.403283</ele>
        <time>2021-08-21T17:48:00.387Z</time>
      </trkpt>
      <trkpt lat="41.32749" lon="31.89107">
        <ele>473.182282</ele>
        <time>2021-08-21T17:48:17.359Z</time>
      </trkpt>
      <trkpt lat="41.32734" lon="31.89116">
        <ele>474.536216</ele>
        <time>2021-08-21T17:48:30.746Z</time>
      </trkpt>
      <trkpt lat="41.32713" lon="31.89111">
        <ele>476.291809</ele>
        <time>2021-08-21T17:48:48.447Z</time>
      </trkpt>
      <trkpt lat="41.327" lon="31.89091">
        <ele>478.131221</ele>
        <time>2021-08-21T17:49:05.499Z</time>
      </trkpt>
      <trkpt lat="41.32692" lon="31.89067">
        <ele>480.057126</ele>
        <time>2021-08-21T17:49:22.793Z</time>
      </trkpt>
      <trkpt lat="41.32699" lon="31.89006">
        <ele>484.583112</ele>
        <time>2021-08-21T17:50:02.950Z</time>
      </trkpt>
      <trkpt lat="41.32692" lon="31.88986">
        <ele>486.201514</ele>
        <time>2021-08-21T17:50:17.393Z</time>
      </trkpt>
      <trkpt lat="41.32681" lon="31.88972">
        <ele>487.687664</ele>
        <time>2021-08-21T17:50:30.541Z</time>
      </trkpt>
      <trkpt lat="41.32652" lon="31.88955">
        <ele>490.782374</ele>
        <time>2021-08-21T17:50:57.874Z</time>
      </trkpt>
      <trkpt lat="41.32628" lon="31.88925">
        <ele>493.99738</ele>
        <time>2021-08-21T17:51:26.137Z</time>
      </trkpt>
      <trkpt lat="41.32533" lon="31.8875">
        <ele>510.075821</ele>
        <time>2021-08-21T17:53:45.601Z</time>
      </trkpt>
      <trkpt lat="41.32491" lon="31.88709">
        <ele>515.79236</ele>
        <time>2021-08-21T17:54:31.764Z</time>
      </trkpt>
      <trkpt lat="41.32419" lon="31.88662">
        <ele>525.20556</ele>
        <time>2021-08-21T17:55:47.986Z</time>
      </trkpt>
      <trkpt lat="41.32401" lon="31.88636">
        <ele>528.323084</ele>
        <time>2021-08-21T17:56:14.586Z</time>
      </trkpt>
      <trkpt lat="41.32387" lon="31.88609">
        <ele>531.215654</ele>
        <time>2021-08-21T17:56:40.021Z</time>
      </trkpt>
      <trkpt lat="41.32369" lon="31.88536">
        <ele>538.819558</ele>
        <time>2021-08-21T17:57:41.604Z</time>
      </trkpt>
      <trkpt lat="41.32342" lon="31.88468">
        <ele>546.815118</ele>
        <time>2021-08-21T17:58:45.255Z</time>
      </trkpt>
      <trkpt lat="41.32287" lon="31.88364">
        <ele>559.858891</ele>
        <time>2021-08-21T18:00:32.322Z</time>
      </trkpt>
      <trkpt lat="41.32232" lon="31.8815">
        <ele>580.845527</ele>
        <time>2021-08-21T18:03:26.701Z</time>
      </trkpt>
      <trkpt lat="41.32195" lon="31.88041">
        <ele>586.472147</ele>
        <time>2021-08-21T18:04:36.018Z</time>
      </trkpt>
      <trkpt lat="41.32171" lon="31.87992">
        <ele>589.223915</ele>
        <time>2021-08-21T18:05:02.054Z</time>
      </trkpt>
      <trkpt lat="41.32137" lon="31.8794">
        <ele>591.906552</ele>
        <time>2021-08-21T18:05:26.295Z</time>
      </trkpt>
      <trkpt lat="41.31955" lon="31.87732">
        <ele>590.053638</ele>
        <time>2021-08-21T18:06:32.069Z</time>
      </trkpt>
      <trkpt lat="41.31903" lon="31.87652">
        <ele>588.405152</ele>
        <time>2021-08-21T18:06:50.642Z</time>
      </trkpt>
      <trkpt lat="41.3187" lon="31.87566">
        <ele>587.095219</ele>
        <time>2021-08-21T18:07:07.253Z</time>
      </trkpt>
      <trkpt lat="41.31841" lon="31.87386">
        <ele>584.888333</ele>
        <time>2021-08-21T18:07:41.949Z</time>
      </trkpt>
      <trkpt lat="41.31832" lon="31.87238">
        <ele>588.818447</ele>
        <time>2021-08-21T18:08:32.529Z</time>
      </trkpt>
      <trkpt lat="41.31815" lon="31.87139">
        <ele>591.836026</ele>
        <time>2021-08-21T18:09:22.288Z</time>
      </trkpt>
      <trkpt lat="41.31813" lon="31.87017">
        <ele>598.985864</ele>
        <time>2021-08-21T18:10:31.767Z</time>
      </trkpt>
      <trkpt lat="41.31833" lon="31.86846">
        <ele>609.09135</ele>
        <time>2021-08-21T18:12:12.738Z</time>
      </trkpt>
      <trkpt lat="41.31827" lon="31.86788">
        <ele>612.490758</ele>
        <time>2021-08-21T18:12:45.617Z</time>
      </trkpt>
      <trkpt lat="41.31792" lon="31.86663">
        <ele>619.955576</ele>
        <time>2021-08-21T18:13:58.773Z</time>
      </trkpt>
      <trkpt lat="41.31771" lon="31.86525">
        <ele>625.864772</ele>
        <time>2021-08-21T18:15:12.964Z</time>
      </trkpt>
      <trkpt lat="41.31763" lon="31.86401">
        <ele>628.232737</ele>
        <time>2021-08-21T18:16:01.308Z</time>
      </trkpt>
      <trkpt lat="41.31768" lon="31.86368">
        <ele>627.42243</ele>
        <time>2021-08-21T18:16:08.074Z</time>
      </trkpt>
      <trkpt lat="41.31759" lon="31.863">
        <ele>625.755719</ele>
        <time>2021-08-21T18:16:20.776Z</time>
      </trkpt>
      <trkpt lat="41.31742" lon="31.86285">
        <ele>625.091456</ele>
        <time>2021-08-21T18:16:25.104Z</time>
      </trkpt>
      <trkpt lat="41.31725" lon="31.86263">
        <ele>624.361204</ele>
        <time>2021-08-21T18:16:30.022Z</time>
      </trkpt>
      <trkpt lat="41.31712" lon="31.86235">
        <ele>623.551158</ele>
        <time>2021-08-21T18:16:35.208Z</time>
      </trkpt>
      <trkpt lat="41.31702" lon="31.86203">
        <ele>620.379181</ele>
        <time>2021-08-21T18:16:40.335Z</time>
      </trkpt>
      <trkpt lat="41.31693" lon="31.86142">
        <ele>614.492323</ele>
        <time>2021-08-21T18:16:49.407Z</time>
      </trkpt>
      <trkpt lat="41.31649" lon="31.86097">
        <ele>607.507454</ele>
        <time>2021-08-21T18:16:59.905Z</time>
      </trkpt>
      <trkpt lat="41.31585" lon="31.85985">
        <ele>594.300329</ele>
        <time>2021-08-21T18:17:20.292Z</time>
      </trkpt>
      <trkpt lat="41.31565" lon="31.85968">
        <ele>591.364043</ele>
        <time>2021-08-21T18:17:24.929Z</time>
      </trkpt>
      <trkpt lat="41.31494" lon="31.85946">
        <ele>582.476848</ele>
        <time>2021-08-21T18:17:39.128Z</time>
      </trkpt>
      <trkpt lat="41.31464" lon="31.85923">
        <ele>578.431489</ele>
        <time>2021-08-21T18:17:45.794Z</time>
      </trkpt>
      <trkpt lat="41.31441" lon="31.85898">
        <ele>575.765507</ele>
        <time>2021-08-21T18:17:51.817Z</time>
      </trkpt>
      <trkpt lat="41.31432" lon="31.8587">
        <ele>573.764757</ele>
        <time>2021-08-21T18:17:56.379Z</time>
      </trkpt>
      <trkpt lat="41.31432" lon="31.85833">
        <ele>571.288139</ele>
        <time>2021-08-21T18:18:02.142Z</time>
      </trkpt>
      <trkpt lat="41.31423" lon="31.85793">
        <ele>568.548121</ele>
        <time>2021-08-21T18:18:08.505Z</time>
      </trkpt>
      <trkpt lat="41.31408" lon="31.85794">
        <ele>567.232463</ele>
        <time>2021-08-21T18:18:11.397Z</time>
      </trkpt>
      <trkpt lat="41.31319" lon="31.85779">
        <ele>559.940999</ele>
        <time>2021-08-21T18:18:29.316Z</time>
      </trkpt>
      <trkpt lat="41.31267" lon="31.85771">
        <ele>556.221668</ele>
        <time>2021-08-21T18:18:39.692Z</time>
      </trkpt>
      <trkpt lat="41.31247" lon="31.85769">
        <ele>554.793812</ele>
        <time>2021-08-21T18:18:43.750Z</time>
      </trkpt>
      <trkpt lat="41.31238" lon="31.85767">
        <ele>554.0907</ele>
        <time>2021-08-21T18:18:45.617Z</time>
      </trkpt>
      <trkpt lat="41.31214" lon="31.85753">
        <ele>552.246764</ele>
        <time>2021-08-21T18:18:50.908Z</time>
      </trkpt>
      <trkpt lat="41.31196" lon="31.85731">
        <ele>550.440836</ele>
        <time>2021-08-21T18:18:55.960Z</time>
      </trkpt>
      <trkpt lat="41.31182" lon="31.85693">
        <ele>547.661602</ele>
        <time>2021-08-21T18:19:02.109Z</time>
      </trkpt>
      <trkpt lat="41.31183" lon="31.85643">
        <ele>544.061033</ele>
        <time>2021-08-21T18:19:09.621Z</time>
      </trkpt>
      <trkpt lat="41.31182" lon="31.85631">
        <ele>543.240773</ele>
        <time>2021-08-21T18:19:11.312Z</time>
      </trkpt>
      <trkpt lat="41.3118" lon="31.85614">
        <ele>541.995602</ele>
        <time>2021-08-21T18:19:13.787Z</time>
      </trkpt>
      <trkpt lat="41.31172" lon="31.85584">
        <ele>539.700525</ele>
        <time>2021-08-21T18:19:18.433Z</time>
      </trkpt>
      <trkpt lat="41.31158" lon="31.85555">
        <ele>537.269923</ele>
        <time>2021-08-21T18:19:23.360Z</time>
      </trkpt>
      <trkpt lat="41.31111" lon="31.8551">
        <ele>531.542487</ele>
        <time>2021-08-21T18:19:34.152Z</time>
      </trkpt>
      <trkpt lat="41.3108" lon="31.8547">
        <ele>526.426511</ele>
        <time>2021-08-21T18:19:42.169Z</time>
      </trkpt>
      <trkpt lat="41.31063" lon="31.85458">
        <ele>524.168638</ele>
        <time>2021-08-21T18:19:45.708Z</time>
      </trkpt>
      <trkpt lat="41.30994" lon="31.85468">
        <ele>515.844703</ele>
        <time>2021-08-21T18:19:58.727Z</time>
      </trkpt>
      <trkpt lat="41.30786" lon="31.85403">
        <ele>491.709438</ele>
        <time>2021-08-21T18:20:38.580Z</time>
      </trkpt>
      <trkpt lat="41.30709" lon="31.85363">
        <ele>485.888295</ele>
        <time>2021-08-21T18:20:54.680Z</time>
      </trkpt>
      <trkpt lat="41.3069" lon="31.85337">
        <ele>484.012934</ele>
        <time>2021-08-21T18:21:00.121Z</time>
      </trkpt>
      <trkpt lat="41.30686" lon="31.85309">
        <ele>482.51212</ele>
        <time>2021-08-21T18:21:04.597Z</time>
      </trkpt>
      <trkpt lat="41.30692" lon="31.8529">
        <ele>481.45759</ele>
        <time>2021-08-21T18:21:07.772Z</time>
      </trkpt>
      <trkpt lat="41.30784" lon="31.8511">
        <ele>472.774485</ele>
        <time>2021-08-21T18:21:43.326Z</time>
      </trkpt>
      <trkpt lat="41.30786" lon="31.8509">
        <ele>472.044296</ele>
        <time>2021-08-21T18:21:46.543Z</time>
      </trkpt>
      <trkpt lat="41.30781" lon="31.85043">
        <ele>470.334075</ele>
        <time>2021-08-21T18:21:53.970Z</time>
      </trkpt>
      <trkpt lat="41.30787" lon="31.84962">
        <ele>466.052895</ele>
        <time>2021-08-21T18:22:06.471Z</time>
      </trkpt>
      <trkpt lat="41.3079" lon="31.84933">
        <ele>464.477349</ele>
        <time>2021-08-21T18:22:10.924Z</time>
      </trkpt>
      <trkpt lat="41.30802" lon="31.84901">
        <ele>462.583285</ele>
        <time>2021-08-21T18:22:16.260Z</time>
      </trkpt>
      <trkpt lat="41.30804" lon="31.84878">
        <ele>461.344211</ele>
        <time>2021-08-21T18:22:19.709Z</time>
      </trkpt>
      <trkpt lat="41.30801" lon="31.84869">
        <ele>460.781693</ele>
        <time>2021-08-21T18:22:21.278Z</time>
      </trkpt>
      <trkpt lat="41.30639" lon="31.84806">
        <ele>448.568725</ele>
        <time>2021-08-21T18:22:54.359Z</time>
      </trkpt>
      <trkpt lat="41.306" lon="31.84784">
        <ele>445.505975</ele>
        <time>2021-08-21T18:23:02.779Z</time>
      </trkpt>
      <trkpt lat="41.30591" lon="31.84769">
        <ele>444.412778</ele>
        <time>2021-08-21T18:23:05.827Z</time>
      </trkpt>
      <trkpt lat="41.30567" lon="31.84642">
        <ele>439.890642</ele>
        <time>2021-08-21T18:23:26.388Z</time>
      </trkpt>
      <trkpt lat="41.30569" lon="31.84617">
        <ele>439.004431</ele>
        <time>2021-08-21T18:23:30.605Z</time>
      </trkpt>
      <trkpt lat="41.30583" lon="31.84567">
        <ele>437.176472</ele>
        <time>2021-08-21T18:23:39.521Z</time>
      </trkpt>
      <trkpt lat="41.30631" lon="31.84483">
        <ele>435.27974</ele>
        <time>2021-08-21T18:23:58.089Z</time>
      </trkpt>
      <trkpt lat="41.30654" lon="31.84452">
        <ele>434.811712</ele>
        <time>2021-08-21T18:24:06.591Z</time>
      </trkpt>
      <trkpt lat="41.3066" lon="31.84435">
        <ele>434.607045</ele>
        <time>2021-08-21T18:24:10.877Z</time>
      </trkpt>
      <trkpt lat="41.30665" lon="31.84356">
        <ele>433.754535</ele>
        <time>2021-08-21T18:24:28.457Z</time>
      </trkpt>
      <trkpt lat="41.30665" lon="31.84322">
        <ele>433.29188</ele>
        <time>2021-08-21T18:24:36.437Z</time>
      </trkpt>
      <trkpt lat="41.30666" lon="31.84289">
        <ele>432.655299</ele>
        <time>2021-08-21T18:24:43.407Z</time>
      </trkpt>
      <trkpt lat="41.30676" lon="31.84264">
        <ele>432.125079</ele>
        <time>2021-08-21T18:24:48.590Z</time>
      </trkpt>
      <trkpt lat="41.30716" lon="31.84224">
        <ele>430.849994</ele>
        <time>2021-08-21T18:25:01.048Z</time>
      </trkpt>
      <trkpt lat="41.30719" lon="31.84216">
        <ele>430.670354</ele>
        <time>2021-08-21T18:25:04.151Z</time>
      </trkpt>
      <trkpt lat="41.3073" lon="31.84211">
        <ele>430.378497</ele>
        <time>2021-08-21T18:25:06.557Z</time>
      </trkpt>
      <trkpt lat="41.3075" lon="31.84191">
        <ele>429.744455</ele>
        <time>2021-08-21T18:25:13.103Z</time>
      </trkpt>
      <trkpt lat="41.30765" lon="31.84166">
        <ele>429.139814</ele>
        <time>2021-08-21T18:25:18.290Z</time>
      </trkpt>
      <trkpt lat="41.30771" lon="31.84118">
        <ele>426.596366</ele>
        <time>2021-08-21T18:25:26.296Z</time>
      </trkpt>
      <trkpt lat="41.30765" lon="31.84103">
        <ele>425.536743</ele>
        <time>2021-08-21T18:25:29.236Z</time>
      </trkpt>
      <trkpt lat="41.30741" lon="31.84093">
        <ele>423.383294</ele>
        <time>2021-08-21T18:25:34.370Z</time>
      </trkpt>
      <trkpt lat="41.30676" lon="31.83992">
        <ele>414.963697</ele>
        <time>2021-08-21T18:25:54.313Z</time>
      </trkpt>
      <trkpt lat="41.30661" lon="31.83923">
        <ele>409.69359</ele>
        <time>2021-08-21T18:26:05.091Z</time>
      </trkpt>
      <trkpt lat="41.30635" lon="31.83891">
        <ele>406.044076</ele>
        <time>2021-08-21T18:26:12.177Z</time>
      </trkpt>
      <trkpt lat="41.30611" lon="31.8384">
        <ele>401.462877</ele>
        <time>2021-08-21T18:26:21.080Z</time>
      </trkpt>
      <trkpt lat="41.30521" lon="31.83724">
        <ele>389.824759</ele>
        <time>2021-08-21T18:26:46.156Z</time>
      </trkpt>
      <trkpt lat="41.30479" lon="31.83713">
        <ele>386.195817</ele>
        <time>2021-08-21T18:26:54.828Z</time>
      </trkpt>
      <trkpt lat="41.30444" lon="31.8372">
        <ele>383.23104</ele>
        <time>2021-08-21T18:27:02.032Z</time>
      </trkpt>
      <trkpt lat="41.30408" lon="31.83746">
        <ele>379.926047</ele>
        <time>2021-08-21T18:27:10.786Z</time>
      </trkpt>
      <trkpt lat="41.30397" lon="31.8375">
        <ele>379.467535</ele>
        <time>2021-08-21T18:27:13.094Z</time>
      </trkpt>
      <trkpt lat="41.30393" lon="31.83713">
        <ele>378.317873</ele>
        <time>2021-08-21T18:27:18.972Z</time>
      </trkpt>
      <trkpt lat="41.3038" lon="31.83604">
        <ele>374.902342</ele>
        <time>2021-08-21T18:27:37.067Z</time>
      </trkpt>
      <trkpt lat="41.30336" lon="31.83508">
        <ele>372.323484</ele>
        <time>2021-08-21T18:27:57.844Z</time>
      </trkpt>
      <trkpt lat="41.3026" lon="31.83323">
        <ele>370.247464</ele>
        <time>2021-08-21T18:28:41.222Z</time>
      </trkpt>
      <trkpt lat="41.30244" lon="31.83291">
        <ele>369.701224</ele>
        <time>2021-08-21T18:28:48.679Z</time>
      </trkpt>
      <trkpt lat="41.30206" lon="31.83238">
        <ele>368.662936</ele>
        <time>2021-08-21T18:29:02.396Z</time>
      </trkpt>
      <trkpt lat="41.30188" lon="31.8314">
        <ele>367.242485</ele>
        <time>2021-08-21T18:29:20.664Z</time>
      </trkpt>
      <trkpt lat="41.30169" lon="31.83089">
        <ele>366.324815</ele>
        <time>2021-08-21T18:29:31.142Z</time>
      </trkpt>
      <trkpt lat="41.30141" lon="31.83054">
        <ele>365.493878</ele>
        <time>2021-08-21T18:29:40.270Z</time>
      </trkpt>
      <trkpt lat="41.30129" lon="31.83026">
        <ele>364.953348</ele>
        <time>2021-08-21T18:29:46.227Z</time>
      </trkpt>
      <trkpt lat="41.30116" lon="31.82963">
        <ele>363.880028</ele>
        <time>2021-08-21T18:29:58.142Z</time>
      </trkpt>
      <trkpt lat="41.30112" lon="31.82926">
        <ele>363.266201</ele>
        <time>2021-08-21T18:30:05.030Z</time>
      </trkpt>
      <trkpt lat="41.30121" lon="31.82888">
        <ele>362.511564</ele>
        <time>2021-08-21T18:30:12.352Z</time>
      </trkpt>
      <trkpt lat="41.30119" lon="31.82864">
        <ele>362.03028</ele>
        <time>2021-08-21T18:30:16.796Z</time>
      </trkpt>
      <trkpt lat="41.30096" lon="31.82799">
        <ele>360.586419</ele>
        <time>2021-08-21T18:30:30.163Z</time>
      </trkpt>
      <trkpt lat="41.30089" lon="31.82758">
        <ele>359.755057</ele>
        <time>2021-08-21T18:30:37.479Z</time>
      </trkpt>
      <trkpt lat="41.30092" lon="31.82719">
        <ele>358.957263</ele>
        <time>2021-08-21T18:30:44.299Z</time>
      </trkpt>
      <trkpt lat="41.30078" lon="31.82634">
        <ele>356.558577</ele>
        <time>2021-08-21T18:30:58.763Z</time>
      </trkpt>
      <trkpt lat="41.30067" lon="31.82608">
        <ele>355.59516</ele>
        <time>2021-08-21T18:31:03.640Z</time>
      </trkpt>
      <trkpt lat="41.30026" lon="31.82582">
        <ele>353.628039</ele>
        <time>2021-08-21T18:31:13.504Z</time>
      </trkpt>
      <trkpt lat="41.2998" lon="31.82518">
        <ele>350.750624</ele>
        <time>2021-08-21T18:31:27.739Z</time>
      </trkpt>
      <trkpt lat="41.29963" lon="31.82465">
        <ele>349.079507</ele>
        <time>2021-08-21T18:31:36.918Z</time>
      </trkpt>
      <trkpt lat="41.29959" lon="31.82408">
        <ele>347.458102</ele>
        <time>2021-08-21T18:31:46.136Z</time>
      </trkpt>
      <trkpt lat="41.29931" lon="31.8235">
        <ele>345.488383</ele>
        <time>2021-08-21T18:31:57.692Z</time>
      </trkpt>
      <trkpt lat="41.29914" lon="31.82297">
        <ele>343.854209</ele>
        <time>2021-08-21T18:32:07.640Z</time>
      </trkpt>
      <trkpt lat="41.29887" lon="31.82251">
        <ele>343.396581</ele>
        <time>2021-08-21T18:32:18.327Z</time>
      </trkpt>
      <trkpt lat="41.29839" lon="31.82201">
        <ele>342.933442</ele>
        <time>2021-08-21T18:32:34.368Z</time>
      </trkpt>
      <trkpt lat="41.29819" lon="31.8217">
        <ele>342.702901</ele>
        <time>2021-08-21T18:32:43.583Z</time>
      </trkpt>
      <trkpt lat="41.29806" lon="31.82114">
        <ele>342.362587</ele>
        <time>2021-08-21T18:32:58.949Z</time>
      </trkpt>
      <trkpt lat="41.29777" lon="31.82069">
        <ele>342.977929</ele>
        <time>2021-08-21T18:33:16.288Z</time>
      </trkpt>
      <trkpt lat="41.2977" lon="31.82042">
        <ele>343.321963</ele>
        <time>2021-08-21T18:33:25.421Z</time>
      </trkpt>
      <trkpt lat="41.2977" lon="31.82005">
        <ele>343.775491</ele>
        <time>2021-08-21T18:33:37.541Z</time>
      </trkpt>
      <trkpt lat="41.29759" lon="31.81958">
        <ele>344.365634</ele>
        <time>2021-08-21T18:33:53.390Z</time>
      </trkpt>
      <trkpt lat="41.2974" lon="31.81917">
        <ele>344.947324</ele>
        <time>2021-08-21T18:34:08.621Z</time>
      </trkpt>
      <trkpt lat="41.2972" lon="31.81874">
        <ele>345.103806</ele>
        <time>2021-08-21T18:34:23.978Z</time>
      </trkpt>
      <trkpt lat="41.29677" lon="31.81762">
        <ele>344.497236</ele>
        <time>2021-08-21T18:34:54.625Z</time>
      </trkpt>
      <trkpt lat="41.2967" lon="31.81697">
        <ele>344.185553</ele>
        <time>2021-08-21T18:35:06.963Z</time>
      </trkpt>
      <trkpt lat="41.29684" lon="31.81653">
        <ele>342.809572</ele>
        <time>2021-08-21T18:35:15.067Z</time>
      </trkpt>
      <trkpt lat="41.29681" lon="31.81629">
        <ele>341.682268</ele>
        <time>2021-08-21T18:35:18.952Z</time>
      </trkpt>
      <trkpt lat="41.29667" lon="31.81615">
        <ele>340.590455</ele>
        <time>2021-08-21T18:35:22.652Z</time>
      </trkpt>
      <trkpt lat="41.29642" lon="31.81608">
        <ele>338.975257</ele>
        <time>2021-08-21T18:35:27.977Z</time>
      </trkpt>
      <trkpt lat="41.29547" lon="31.81605">
        <ele>333.056952</ele>
        <time>2021-08-21T18:35:46.699Z</time>
      </trkpt>
      <trkpt lat="41.2952" lon="31.81598">
        <ele>330.533911</ele>
        <time>2021-08-21T18:35:52.050Z</time>
      </trkpt>
      <trkpt lat="41.295" lon="31.81581">
        <ele>328.302579</ele>
        <time>2021-08-21T18:35:56.535Z</time>
      </trkpt>
      <trkpt lat="41.29485" lon="31.81552">
        <ele>325.762096</ele>
        <time>2021-08-21T18:36:01.636Z</time>
      </trkpt>
      <trkpt lat="41.29466" lon="31.81477">
        <ele>320.126407</ele>
        <time>2021-08-21T18:36:12.908Z</time>
      </trkpt>
      <trkpt lat="41.29454" lon="31.81462">
        <ele>318.512963</ele>
        <time>2021-08-21T18:36:16.114Z</time>
      </trkpt>
      <trkpt lat="41.29385" lon="31.81461">
        <ele>312.2758</ele>
        <time>2021-08-21T18:36:29.201Z</time>
      </trkpt>
      <trkpt lat="41.29351" lon="31.81435">
        <ele>308.859329</ele>
        <time>2021-08-21T18:36:36.776Z</time>
      </trkpt>
      <trkpt lat="41.2934" lon="31.81403">
        <ele>306.582044</ele>
        <time>2021-08-21T18:36:41.868Z</time>
      </trkpt>
      <trkpt lat="41.29327" lon="31.81329">
        <ele>301.608182</ele>
        <time>2021-08-21T18:36:53.118Z</time>
      </trkpt>
      <trkpt lat="41.29312" lon="31.81294">
        <ele>299.276235</ele>
        <time>2021-08-21T18:36:59.155Z</time>
      </trkpt>
      <trkpt lat="41.29218" lon="31.81133">
        <ele>289.698474</ele>
        <time>2021-08-21T18:37:30.527Z</time>
      </trkpt>
      <trkpt lat="41.29182" lon="31.81021">
        <ele>285.985334</ele>
        <time>2021-08-21T18:37:49.888Z</time>
      </trkpt>
      <trkpt lat="41.29175" lon="31.80949">
        <ele>284.011829</ele>
        <time>2021-08-21T18:38:02.121Z</time>
      </trkpt>
      <trkpt lat="41.29177" lon="31.80905">
        <ele>282.801898</ele>
        <time>2021-08-21T18:38:10.235Z</time>
      </trkpt>
      <trkpt lat="41.29175" lon="31.80885">
        <ele>282.267611</ele>
        <time>2021-08-21T18:38:13.909Z</time>
      </trkpt>
      <trkpt lat="41.29266" lon="31.80855">
        <ele>283.903942</ele>
        <time>2021-08-21T18:38:42.238Z</time>
      </trkpt>
      <trkpt lat="41.29461" lon="31.80821">
        <ele>291.991362</ele>
        <time>2021-08-21T18:40:32.249Z</time>
      </trkpt>
      <trkpt lat="41.29537" lon="31.80779">
        <ele>297.421342</ele>
        <time>2021-08-21T18:41:34.260Z</time>
      </trkpt>
      <trkpt lat="41.29554" lon="31.80754">
        <ele>300.046535</ele>
        <time>2021-08-21T18:41:55.389Z</time>
      </trkpt>
      <trkpt lat="41.29567" lon="31.80714">
        <ele>303.400853</ele>
        <time>2021-08-21T18:42:23.987Z</time>
      </trkpt>
      <trkpt lat="41.29569" lon="31.80678">
        <ele>306.146602</ele>
        <time>2021-08-21T18:42:48.624Z</time>
      </trkpt>
      <trkpt lat="41.29552" lon="31.8061">
        <ele>311.673088</ele>
        <time>2021-08-21T18:43:39.562Z</time>
      </trkpt>
      <trkpt lat="41.29555" lon="31.80589">
        <ele>313.331251</ele>
        <time>2021-08-21T18:43:55.057Z</time>
      </trkpt>
      <trkpt lat="41.29569" lon="31.80569">
        <ele>315.551118</ele>
        <time>2021-08-21T18:44:15.003Z</time>
      </trkpt>
      <trkpt lat="41.2967" lon="31.80541">
        <ele>327.018923</ele>
        <time>2021-08-21T18:45:50.421Z</time>
      </trkpt>
      <trkpt lat="41.29706" lon="31.80519">
        <ele>331.391201</ele>
        <time>2021-08-21T18:46:26.852Z</time>
      </trkpt>
      <trkpt lat="41.29721" lon="31.80501">
        <ele>333.63927</ele>
        <time>2021-08-21T18:46:45.833Z</time>
      </trkpt>
      <trkpt lat="41.29719" lon="31.80485">
        <ele>335.025318</ele>
        <time>2021-08-21T18:46:57.756Z</time>
      </trkpt>
      <trkpt lat="41.29709" lon="31.80476">
        <ele>336.430016</ele>
        <time>2021-08-21T18:47:09.433Z</time>
      </trkpt>
      <trkpt lat="41.2965" lon="31.80447">
        <ele>343.638178</ele>
        <time>2021-08-21T18:48:09.747Z</time>
      </trkpt>
      <trkpt lat="41.29597" lon="31.80432">
        <ele>349.855025</ele>
        <time>2021-08-21T18:49:00.926Z</time>
      </trkpt>
      <trkpt lat="41.29565" lon="31.80415">
        <ele>353.901934</ele>
        <time>2021-08-21T18:49:34.497Z</time>
      </trkpt>
      <trkpt lat="41.2954" lon="31.80395">
        <ele>357.14853</ele>
        <time>2021-08-21T18:50:02.702Z</time>
      </trkpt>
      <trkpt lat="41.29524" lon="31.80374">
        <ele>359.57091</ele>
        <time>2021-08-21T18:50:24.638Z</time>
      </trkpt>
      <trkpt lat="41.29503" lon="31.80296">
        <ele>366.319202</ele>
        <time>2021-08-21T18:51:25.784Z</time>
      </trkpt>
      <trkpt lat="41.29494" lon="31.80284">
        <ele>367.764305</ele>
        <time>2021-08-21T18:51:38.525Z</time>
      </trkpt>
      <trkpt lat="41.29481" lon="31.80288">
        <ele>369.252114</ele>
        <time>2021-08-21T18:51:50.961Z</time>
      </trkpt>
      <trkpt lat="41.29412" lon="31.80382">
        <ele>378.361052</ele>
        <time>2021-08-21T18:53:11.664Z</time>
      </trkpt>
      <trkpt lat="41.29393" lon="31.80397">
        <ele>380.072323</ele>
        <time>2021-08-21T18:53:28.897Z</time>
      </trkpt>
      <trkpt lat="41.29372" lon="31.80396">
        <ele>381.614221</ele>
        <time>2021-08-21T18:53:44.278Z</time>
      </trkpt>
      <trkpt lat="41.2934" lon="31.80385">
        <ele>384.074004</ele>
        <time>2021-08-21T18:54:08.580Z</time>
      </trkpt>
      <trkpt lat="41.29284" lon="31.80347">
        <ele>388.670939</ele>
        <time>2021-08-21T18:54:49.587Z</time>
      </trkpt>
      <trkpt lat="41.29242" lon="31.80355">
        <ele>391.012586</ele>
        <time>2021-08-21T18:55:14.082Z</time>
      </trkpt>
      <trkpt lat="41.29216" lon="31.80374">
        <ele>392.62122</ele>
        <time>2021-08-21T18:55:31.284Z</time>
      </trkpt>
      <trkpt lat="41.29203" lon="31.80382">
        <ele>393.453554</ele>
        <time>2021-08-21T18:55:41.400Z</time>
      </trkpt>
      <trkpt lat="41.2919" lon="31.8039">
        <ele>394.200501</ele>
        <time>2021-08-21T18:55:50.312Z</time>
      </trkpt>
      <trkpt lat="41.29172" lon="31.80392">
        <ele>395.228718</ele>
        <time>2021-08-21T18:56:02.084Z</time>
      </trkpt>
      <trkpt lat="41.29152" lon="31.80382">
        <ele>396.376709</ele>
        <time>2021-08-21T18:56:15.399Z</time>
      </trkpt>
      <trkpt lat="41.29136" lon="31.80358">
        <ele>397.706399</ele>
        <time>2021-08-21T18:56:30.672Z</time>
      </trkpt>
      <trkpt lat="41.2913" lon="31.80319">
        <ele>399.418655</ele>
        <time>2021-08-21T18:56:48.606Z</time>
      </trkpt>
      <trkpt lat="41.2913" lon="31.80285">
        <ele>400.935911</ele>
        <time>2021-08-21T18:57:03.746Z</time>
      </trkpt>
      <trkpt lat="41.29124" lon="31.80255">
        <ele>402.329786</ele>
        <time>2021-08-21T18:57:18.008Z</time>
      </trkpt>
      <trkpt lat="41.29119" lon="31.80224">
        <ele>403.727538</ele>
        <time>2021-08-21T18:57:30.104Z</time>
      </trkpt>
      <trkpt lat="41.29121" lon="31.80197">
        <ele>404.922167</ele>
        <time>2021-08-21T18:57:43.554Z</time>
      </trkpt>
      <trkpt lat="41.29113" lon="31.80156">
        <ele>406.798771</ele>
        <time>2021-08-21T18:58:02.929Z</time>
      </trkpt>
      <trkpt lat="41.29104" lon="31.80152">
        <ele>407.347706</ele>
        <time>2021-08-21T18:58:09.509Z</time>
      </trkpt>
      <trkpt lat="41.2904" lon="31.80178">
        <ele>412.982515</ele>
        <time>2021-08-21T18:59:06.878Z</time>
      </trkpt>
      <trkpt lat="41.29028" lon="31.80176">
        <ele>414.149389</ele>
        <time>2021-08-21T18:59:15.803Z</time>
      </trkpt>
      <trkpt lat="41.29024" lon="31.80168">
        <ele>414.804108</ele>
        <time>2021-08-21T18:59:20.073Z</time>
      </trkpt>
      <trkpt lat="41.29021" lon="31.80161">
        <ele>415.446349</ele>
        <time>2021-08-21T18:59:27.352Z</time>
      </trkpt>
      <trkpt lat="41.29017" lon="31.80139">
        <ele>417.044925</ele>
        <time>2021-08-21T18:59:40.567Z</time>
      </trkpt>
      <trkpt lat="41.29021" lon="31.80113">
        <ele>419.055722</ele>
        <time>2021-08-21T18:59:58.747Z</time>
      </trkpt>
      <trkpt lat="41.29028" lon="31.80108">
        <ele>419.756031</ele>
        <time>2021-08-21T19:00:04.816Z</time>
      </trkpt>
      <trkpt lat="41.29039" lon="31.80111">
        <ele>420.933301</ele>
        <time>2021-08-21T19:00:15.141Z</time>
      </trkpt>
      <trkpt lat="41.29041" lon="31.8008">
        <ele>423.22899</ele>
        <time>2021-08-21T19:00:41.068Z</time>
      </trkpt>
      <trkpt lat="41.29036" lon="31.79985">
        <ele>429.227442</ele>
        <time>2021-08-21T19:01:48.102Z</time>
      </trkpt>
      <trkpt lat="41.29036" lon="31.79916">
        <ele>432.967518</ele>
        <time>2021-08-21T19:02:30.876Z</time>
      </trkpt>
      <trkpt lat="41.29019" lon="31.79897">
        <ele>434.562511</ele>
        <time>2021-08-21T19:02:50.450Z</time>
      </trkpt>
      <trkpt lat="41.28985" lon="31.79883">
        <ele>437.106442</ele>
        <time>2021-08-21T19:03:09.172Z</time>
      </trkpt>
      <trkpt lat="41.28953" lon="31.79861">
        <ele>439.347057</ele>
        <time>2021-08-21T19:03:26.090Z</time>
      </trkpt>
      <trkpt lat="41.28932" lon="31.79832">
        <ele>439.457067</ele>
        <time>2021-08-21T19:03:37.498Z</time>
      </trkpt>
      <trkpt lat="41.2888" lon="31.7973">
        <ele>439.800208</ele>
        <time>2021-08-21T19:04:03.935Z</time>
      </trkpt>
      <trkpt lat="41.28853" lon="31.79697">
        <ele>439.93462</ele>
        <time>2021-08-21T19:04:14.506Z</time>
      </trkpt>
      <trkpt lat="41.28823" lon="31.79672">
        <ele>440.170934</ele>
        <time>2021-08-21T19:04:25.683Z</time>
      </trkpt>
      <trkpt lat="41.28784" lon="31.79604">
        <ele>440.740931</ele>
        <time>2021-08-21T19:04:48.690Z</time>
      </trkpt>
      <trkpt lat="41.28776" lon="31.79575">
        <ele>440.945966</ele>
        <time>2021-08-21T19:04:57.728Z</time>
      </trkpt>
      <trkpt lat="41.28778" lon="31.79512">
        <ele>441.365051</ele>
        <time>2021-08-21T19:05:16.647Z</time>
      </trkpt>
      <trkpt lat="41.288" lon="31.79468">
        <ele>441.623489</ele>
        <time>2021-08-21T19:05:31.891Z</time>
      </trkpt>
      <trkpt lat="41.28823" lon="31.79366">
        <ele>441.851308</ele>
        <time>2021-08-21T19:05:59.485Z</time>
      </trkpt>
      <trkpt lat="41.28817" lon="31.79348">
        <ele>441.892818</ele>
        <time>2021-08-21T19:06:03.867Z</time>
      </trkpt>
      <trkpt lat="41.28698" lon="31.79269">
        <ele>442.145084</ele>
        <time>2021-08-21T19:06:43.054Z</time>
      </trkpt>
      <trkpt lat="41.28686" lon="31.7925">
        <ele>442.16152</ele>
        <time>2021-08-21T19:06:48.597Z</time>
      </trkpt>
      <trkpt lat="41.2868" lon="31.79228">
        <ele>442.176534</ele>
        <time>2021-08-21T19:06:54.039Z</time>
      </trkpt>
      <trkpt lat="41.28683" lon="31.79061">
        <ele>441.930726</ele>
        <time>2021-08-21T19:07:37.221Z</time>
      </trkpt>
      <trkpt lat="41.28701" lon="31.79027">
        <ele>441.716785</ele>
        <time>2021-08-21T19:07:47.973Z</time>
      </trkpt>
      <trkpt lat="41.28761" lon="31.78968">
        <ele>441.199108</ele>
        <time>2021-08-21T19:08:09.161Z</time>
      </trkpt>
      <trkpt lat="41.28782" lon="31.78928">
        <ele>440.666056</ele>
        <time>2021-08-21T19:08:17.746Z</time>
      </trkpt>
      <trkpt lat="41.28811" lon="31.78852">
        <ele>437.876772</ele>
        <time>2021-08-21T19:08:31.830Z</time>
      </trkpt>
      <trkpt lat="41.28815" lon="31.78832">
        <ele>437.190284</ele>
        <time>2021-08-21T19:08:35.190Z</time>
      </trkpt>
      <trkpt lat="41.28808" lon="31.78812">
        <ele>436.466752</ele>
        <time>2021-08-21T19:08:38.681Z</time>
      </trkpt>
      <trkpt lat="41.28775" lon="31.78759">
        <ele>434.212135</ele>
        <time>2021-08-21T19:08:49.574Z</time>
      </trkpt>
      <trkpt lat="41.28746" lon="31.78739">
        <ele>432.835429</ele>
        <time>2021-08-21T19:08:56.354Z</time>
      </trkpt>
      <trkpt lat="41.28698" lon="31.78692">
        <ele>430.452146</ele>
        <time>2021-08-21T19:09:08.942Z</time>
      </trkpt>
      <trkpt lat="41.28664" lon="31.78592">
        <ele>427.159606</ele>
        <time>2021-08-21T19:09:27.376Z</time>
      </trkpt>
      <trkpt lat="41.28645" lon="31.78555">
        <ele>425.88015</ele>
        <time>2021-08-21T19:09:35.327Z</time>
      </trkpt>
      <trkpt lat="41.28623" lon="31.78542">
        <ele>425.223875</ele>
        <time>2021-08-21T19:09:41.115Z</time>
      </trkpt>
      <trkpt lat="41.2857" lon="31.78538">
        <ele>423.825314</ele>
        <time>2021-08-21T19:09:53.669Z</time>
      </trkpt>
      <trkpt lat="41.2854" lon="31.78545">
        <ele>423.005494</ele>
        <time>2021-08-21T19:10:00.839Z</time>
      </trkpt>
      <trkpt lat="41.28504" lon="31.78566">
        <ele>421.960973</ele>
        <time>2021-08-21T19:10:09.844Z</time>
      </trkpt>
      <trkpt lat="41.28485" lon="31.78558">
        <ele>421.439909</ele>
        <time>2021-08-21T19:10:14.380Z</time>
      </trkpt>
      <trkpt lat="41.28469" lon="31.78532">
        <ele>420.857545</ele>
        <time>2021-08-21T19:10:20.527Z</time>
      </trkpt>
      <trkpt lat="41.28455" lon="31.78468">
        <ele>419.809651</ele>
        <time>2021-08-21T19:10:32.821Z</time>
      </trkpt>
      <trkpt lat="41.28457" lon="31.78408">
        <ele>418.869021</ele>
        <time>2021-08-21T19:10:43.756Z</time>
      </trkpt>
      <trkpt lat="41.28469" lon="31.78303">
        <ele>417.407786</ele>
        <time>2021-08-21T19:11:03.488Z</time>
      </trkpt>
      <trkpt lat="41.28506" lon="31.78231">
        <ele>417.179929</ele>
        <time>2021-08-21T19:11:21.376Z</time>
      </trkpt>
      <trkpt lat="41.28511" lon="31.78206">
        <ele>417.109957</ele>
        <time>2021-08-21T19:11:27.427Z</time>
      </trkpt>
      <trkpt lat="41.28507" lon="31.78177">
        <ele>417.031494</ele>
        <time>2021-08-21T19:11:34.220Z</time>
      </trkpt>
      <trkpt lat="41.28483" lon="31.78104">
        <ele>416.823223</ele>
        <time>2021-08-21T19:11:53.418Z</time>
      </trkpt>
      <trkpt lat="41.28485" lon="31.7807">
        <ele>416.491014</ele>
        <time>2021-08-21T19:12:03.870Z</time>
      </trkpt>
      <trkpt lat="41.28475" lon="31.78027">
        <ele>416.033399</ele>
        <time>2021-08-21T19:12:16.993Z</time>
      </trkpt>
      <trkpt lat="41.28477" lon="31.77999">
        <ele>415.75619</ele>
        <time>2021-08-21T19:12:26.046Z</time>
      </trkpt>
      <trkpt lat="41.28521" lon="31.77926">
        <ele>414.808918</ele>
        <time>2021-08-21T19:12:43.309Z</time>
      </trkpt>
      <trkpt lat="41.28548" lon="31.77887">
        <ele>413.687334</ele>
        <time>2021-08-21T19:12:51.872Z</time>
      </trkpt>
      <trkpt lat="41.28556" lon="31.7788">
        <ele>412.949585</ele>
        <time>2021-08-21T19:12:53.736Z</time>
      </trkpt>
      <trkpt lat="41.28567" lon="31.77851">
        <ele>411.093832</ele>
        <time>2021-08-21T19:12:58.953Z</time>
      </trkpt>
      <trkpt lat="41.2856" lon="31.77823">
        <ele>409.4099</ele>
        <time>2021-08-21T19:13:03.345Z</time>
      </trkpt>
      <trkpt lat="41.28529" lon="31.77788">
        <ele>406.288774</ele>
        <time>2021-08-21T19:13:11.450Z</time>
      </trkpt>
      <trkpt lat="41.28462" lon="31.77729">
        <ele>400.008682</ele>
        <time>2021-08-21T19:13:26.821Z</time>
      </trkpt>
      <trkpt lat="41.28394" lon="31.77729">
        <ele>393.158462</ele>
        <time>2021-08-21T19:13:39.707Z</time>
      </trkpt>
      <trkpt lat="41.28346" lon="31.77716">
        <ele>388.221802</ele>
        <time>2021-08-21T19:13:49.328Z</time>
      </trkpt>
      <trkpt lat="41.28317" lon="31.77715">
        <ele>385.316494</ele>
        <time>2021-08-21T19:13:54.930Z</time>
      </trkpt>
      <trkpt lat="41.28309" lon="31.77715">
        <ele>384.605274</ele>
        <time>2021-08-21T19:13:56.211Z</time>
      </trkpt>
      <trkpt lat="41.28259" lon="31.77704">
        <ele>378.415588</ele>
        <time>2021-08-21T19:14:05.769Z</time>
      </trkpt>
      <trkpt lat="41.28243" lon="31.77693">
        <ele>376.009372</ele>
        <time>2021-08-21T19:14:09.155Z</time>
      </trkpt>
      <trkpt lat="41.28215" lon="31.77659">
        <ele>371.006047</ele>
        <time>2021-08-21T19:14:16.079Z</time>
      </trkpt>
      <trkpt lat="41.28207" lon="31.77653">
        <ele>369.77661</ele>
        <time>2021-08-21T19:14:17.746Z</time>
      </trkpt>
      <trkpt lat="41.28144" lon="31.77643">
        <ele>361.267359</ele>
        <time>2021-08-21T19:14:29.427Z</time>
      </trkpt>
      <trkpt lat="41.28098" lon="31.77628">
        <ele>354.290197</ele>
        <time>2021-08-21T19:14:38.066Z</time>
      </trkpt>
      <trkpt lat="41.2805" lon="31.77637">
        <ele>346.819398</ele>
        <time>2021-08-21T19:14:46.768Z</time>
      </trkpt>
      <trkpt lat="41.27958" lon="31.77701">
        <ele>330.890778</ele>
        <time>2021-08-21T19:15:05.492Z</time>
      </trkpt>
      <trkpt lat="41.27894" lon="31.7771">
        <ele>321.499361</ele>
        <time>2021-08-21T19:15:17.326Z</time>
      </trkpt>
      <trkpt lat="41.27831" lon="31.77739">
        <ele>311.987543</ele>
        <time>2021-08-21T19:15:29.358Z</time>
      </trkpt>
      <trkpt lat="41.278" lon="31.77732">
        <ele>307.384865</ele>
        <time>2021-08-21T19:15:35.191Z</time>
      </trkpt>
      <trkpt lat="41.27766" lon="31.77711">
        <ele>302.163872</ele>
        <time>2021-08-21T19:15:42.068Z</time>
      </trkpt>
      <trkpt lat="41.2774" lon="31.77709">
        <ele>298.736737</ele>
        <time>2021-08-21T19:15:46.711Z</time>
      </trkpt>
      <trkpt lat="41.27561" lon="31.77765">
        <ele>274.922094</ele>
        <time>2021-08-21T19:16:20.600Z</time>
      </trkpt>
      <trkpt lat="41.27528" lon="31.7776">
        <ele>271.1019</ele>
        <time>2021-08-21T19:16:26.822Z</time>
      </trkpt>
      <trkpt lat="41.2751" lon="31.77767">
        <ele>268.998141</ele>
        <time>2021-08-21T19:16:30.261Z</time>
      </trkpt>
      <trkpt lat="41.27496" lon="31.77808">
        <ele>265.061088</ele>
        <time>2021-08-21T19:16:36.751Z</time>
      </trkpt>
      <trkpt lat="41.27509" lon="31.7787">
        <ele>259.789378</ele>
        <time>2021-08-21T19:16:45.937Z</time>
      </trkpt>
      <trkpt lat="41.27509" lon="31.77891">
        <ele>258.754553</ele>
        <time>2021-08-21T19:16:48.934Z</time>
      </trkpt>
      <trkpt lat="41.27491" lon="31.7789">
        <ele>257.585459</ele>
        <time>2021-08-21T19:16:52.302Z</time>
      </trkpt>
      <trkpt lat="41.27451" lon="31.77807">
        <ele>252.601578</ele>
        <time>2021-08-21T19:17:07.207Z</time>
      </trkpt>
      <trkpt lat="41.27442" lon="31.77759">
        <ele>250.100998</ele>
        <time>2021-08-21T19:17:14.984Z</time>
      </trkpt>
      <trkpt lat="41.27443" lon="31.77718">
        <ele>248.035318</ele>
        <time>2021-08-21T19:17:21.648Z</time>
      </trkpt>
      <trkpt lat="41.27449" lon="31.77686">
        <ele>247.40361</ele>
        <time>2021-08-21T19:17:27.282Z</time>
      </trkpt>
      <trkpt lat="41.27484" lon="31.77664">
        <ele>246.447547</ele>
        <time>2021-08-21T19:17:35.983Z</time>
      </trkpt>
      <trkpt lat="41.27488" lon="31.77648">
        <ele>246.123286</ele>
        <time>2021-08-21T19:17:38.984Z</time>
      </trkpt>
      <trkpt lat="41.27485" lon="31.77632">
        <ele>245.80393</ele>
        <time>2021-08-21T19:17:42.039Z</time>
      </trkpt>
      <trkpt lat="41.27437" lon="31.7761">
        <ele>244.550553</ele>
        <time>2021-08-21T19:17:54.458Z</time>
      </trkpt>
      <trkpt lat="41.2741" lon="31.77556">
        <ele>243.559465</ele>
        <time>2021-08-21T19:18:07.338Z</time>
      </trkpt>
      <trkpt lat="41.27372" lon="31.77523">
        <ele>243.677086</ele>
        <time>2021-08-21T19:18:19.761Z</time>
      </trkpt>
      <trkpt lat="41.2734" lon="31.77445">
        <ele>243.851531</ele>
        <time>2021-08-21T19:18:40.812Z</time>
      </trkpt>
      <trkpt lat="41.27319" lon="31.77419">
        <ele>243.926833</ele>
        <time>2021-08-21T19:18:51.374Z</time>
      </trkpt>
      <trkpt lat="41.27306" lon="31.77386">
        <ele>243.998483</ele>
        <time>2021-08-21T19:19:02.323Z</time>
      </trkpt>
      <trkpt lat="41.27306" lon="31.77355">
        <ele>244.610733</ele>
        <time>2021-08-21T19:19:12.599Z</time>
      </trkpt>
      <trkpt lat="41.27296" lon="31.77348">
        <ele>244.943096</ele>
        <time>2021-08-21T19:19:17.491Z</time>
      </trkpt>
      <trkpt lat="41.27254" lon="31.7735">
        <ele>246.187724</ele>
        <time>2021-08-21T19:19:37.438Z</time>
      </trkpt>
      <trkpt lat="41.27159" lon="31.77293">
        <ele>249.299234</ele>
        <time>2021-08-21T19:20:31.496Z</time>
      </trkpt>
      <trkpt lat="41.27089" lon="31.77304">
        <ele>249.554047</ele>
        <time>2021-08-21T19:21:04.799Z</time>
      </trkpt>
      <trkpt lat="41.27066" lon="31.77313">
        <ele>249.61725</ele>
        <time>2021-08-21T19:21:13.995Z</time>
      </trkpt>
      <trkpt lat="41.27003" lon="31.77362">
        <ele>249.809459</ele>
        <time>2021-08-21T19:21:33.490Z</time>
      </trkpt>
      <trkpt lat="41.2697" lon="31.77398">
        <ele>248.243544</ele>
        <time>2021-08-21T19:21:42.960Z</time>
      </trkpt>
      <trkpt lat="41.26949" lon="31.77435">
        <ele>246.2832</ele>
        <time>2021-08-21T19:21:50.190Z</time>
      </trkpt>
      <trkpt lat="41.26927" lon="31.7751">
        <ele>242.828966</ele>
        <time>2021-08-21T19:22:02.422Z</time>
      </trkpt>
      <trkpt lat="41.26912" lon="31.77523">
        <ele>241.79765</ele>
        <time>2021-08-21T19:22:06.037Z</time>
      </trkpt>
      <trkpt lat="41.26892" lon="31.77517">
        <ele>240.617225</ele>
        <time>2021-08-21T19:22:10.139Z</time>
      </trkpt>
      <trkpt lat="41.26804" lon="31.77391">
        <ele>233.775466</ele>
        <time>2021-08-21T19:22:36.402Z</time>
      </trkpt>
      <trkpt lat="41.26781" lon="31.77367">
        <ele>232.257531</ele>
        <time>2021-08-21T19:22:42.682Z</time>
      </trkpt>
      <trkpt lat="41.26721" lon="31.77324">
        <ele>229.989444</ele>
        <time>2021-08-21T19:22:58.341Z</time>
      </trkpt>
      <trkpt lat="41.2671" lon="31.77309">
        <ele>229.878684</ele>
        <time>2021-08-21T19:23:02.363Z</time>
      </trkpt>
      <trkpt lat="41.26684" lon="31.77306">
        <ele>229.701483</ele>
        <time>2021-08-21T19:23:09.207Z</time>
      </trkpt>
      <trkpt lat="41.26615" lon="31.77267">
        <ele>229.187709</ele>
        <time>2021-08-21T19:23:33.210Z</time>
      </trkpt>
      <trkpt lat="41.26556" lon="31.77258">
        <ele>229.202866</ele>
        <time>2021-08-21T19:23:54.710Z</time>
      </trkpt>
      <trkpt lat="41.26517" lon="31.77258">
        <ele>229.603312</ele>
        <time>2021-08-21T19:24:10.050Z</time>
      </trkpt>
      <trkpt lat="41.2647" lon="31.77286">
        <ele>230.115902</ele>
        <time>2021-08-21T19:24:29.681Z</time>
      </trkpt>
      <trkpt lat="41.2644" lon="31.7729">
        <ele>230.419084</ele>
        <time>2021-08-21T19:24:41.276Z</time>
      </trkpt>
      <trkpt lat="41.26419" lon="31.7728">
        <ele>230.649176</ele>
        <time>2021-08-21T19:24:49.781Z</time>
      </trkpt>
      <trkpt lat="41.26381" lon="31.77248">
        <ele>230.520553</ele>
        <time>2021-08-21T19:25:04.808Z</time>
      </trkpt>
      <trkpt lat="41.26298" lon="31.77166">
        <ele>229.751098</ele>
        <time>2021-08-21T19:25:33.505Z</time>
      </trkpt>
      <trkpt lat="41.26269" lon="31.77152">
        <ele>229.525663</ele>
        <time>2021-08-21T19:25:41.214Z</time>
      </trkpt>
      <trkpt lat="41.26195" lon="31.77151">
        <ele>228.109737</ele>
        <time>2021-08-21T19:25:59.545Z</time>
      </trkpt>
      <trkpt lat="41.26161" lon="31.77162">
        <ele>227.378136</ele>
        <time>2021-08-21T19:26:07.821Z</time>
      </trkpt>
      <trkpt lat="41.26123" lon="31.77188">
        <ele>226.470874</ele>
        <time>2021-08-21T19:26:17.975Z</time>
      </trkpt>
      <trkpt lat="41.26089" lon="31.77201">
        <ele>225.712825</ele>
        <time>2021-08-21T19:26:26.538Z</time>
      </trkpt>
      <trkpt lat="41.26056" lon="31.77195">
        <ele>225.075071</ele>
        <time>2021-08-21T19:26:34.683Z</time>
      </trkpt>
      <trkpt lat="41.26007" lon="31.77173">
        <ele>224.119888</ele>
        <time>2021-08-21T19:26:47.322Z</time>
      </trkpt>
      <trkpt lat="41.25966" lon="31.7714">
        <ele>223.228284</ele>
        <time>2021-08-21T19:26:59.178Z</time>
      </trkpt>
      <trkpt lat="41.2595" lon="31.77113">
        <ele>222.750316</ele>
        <time>2021-08-21T19:27:05.557Z</time>
      </trkpt>
      <trkpt lat="41.25886" lon="31.76923">
        <ele>221.175559</ele>
        <time>2021-08-21T19:27:47.208Z</time>
      </trkpt>
      <trkpt lat="41.25874" lon="31.76871">
        <ele>220.839275</ele>
        <time>2021-08-21T19:27:59.970Z</time>
      </trkpt>
      <trkpt lat="41.25853" lon="31.7683">
        <ele>220.80384</ele>
        <time>2021-08-21T19:28:12.264Z</time>
      </trkpt>
      <trkpt lat="41.25828" lon="31.76795">
        <ele>220.851954</ele>
        <time>2021-08-21T19:28:24.361Z</time>
      </trkpt>
      <trkpt lat="41.25816" lon="31.76786">
        <ele>220.869998</ele>
        <time>2021-08-21T19:28:29.766Z</time>
      </trkpt>
      <trkpt lat="41.25809" lon="31.76764">
        <ele>220.893575</ele>
        <time>2021-08-21T19:28:35.156Z</time>
      </trkpt>
      <trkpt lat="41.25816" lon="31.76685">
        <ele>220.972653</ele>
        <time>2021-08-21T19:28:55.200Z</time>
      </trkpt>
      <trkpt lat="41.25807" lon="31.7667">
        <ele>220.991616</ele>
        <time>2021-08-21T19:28:59.237Z</time>
      </trkpt>
      <trkpt lat="41.25796" lon="31.76669">
        <ele>220.981116</ele>
        <time>2021-08-21T19:29:02.737Z</time>
      </trkpt>
      <trkpt lat="41.25762" lon="31.76684">
        <ele>220.545706</ele>
        <time>2021-08-21T19:29:13.045Z</time>
      </trkpt>
      <trkpt lat="41.25736" lon="31.76683">
        <ele>220.227493</ele>
        <time>2021-08-21T19:29:20.036Z</time>
      </trkpt>
      <trkpt lat="41.257" lon="31.76666">
        <ele>219.772564</ele>
        <time>2021-08-21T19:29:29.471Z</time>
      </trkpt>
      <trkpt lat="41.25672" lon="31.76646">
        <ele>219.388855</ele>
        <time>2021-08-21T19:29:37.449Z</time>
      </trkpt>
      <trkpt lat="41.25659" lon="31.76624">
        <ele>219.135177</ele>
        <time>2021-08-21T19:29:42.688Z</time>
      </trkpt>
      <trkpt lat="41.25646" lon="31.7654">
        <ele>218.642526</ele>
        <time>2021-08-21T19:29:59.374Z</time>
      </trkpt>
      <trkpt lat="41.25632" lon="31.76503">
        <ele>218.492413</ele>
        <time>2021-08-21T19:30:07.989Z</time>
      </trkpt>
      <trkpt lat="41.25579" lon="31.76408">
        <ele>218.068746</ele>
        <time>2021-08-21T19:30:35.202Z</time>
      </trkpt>
      <trkpt lat="41.25569" lon="31.76365">
        <ele>217.882554</ele>
        <time>2021-08-21T19:30:46.640Z</time>
      </trkpt>
      <trkpt lat="41.2556" lon="31.76353">
        <ele>217.795965</ele>
        <time>2021-08-21T19:30:51.008Z</time>
      </trkpt>
      <trkpt lat="41.25532" lon="31.76347">
        <ele>217.600285</ele>
        <time>2021-08-21T19:31:00.269Z</time>
      </trkpt>
      <trkpt lat="41.2546" lon="31.76298">
        <ele>217.044157</ele>
        <time>2021-08-21T19:31:23.639Z</time>
      </trkpt>
      <trkpt lat="41.25449" lon="31.76283">
        <ele>216.935009</ele>
        <time>2021-08-21T19:31:27.868Z</time>
      </trkpt>
      <trkpt lat="41.25454" lon="31.76231">
        <ele>216.413792</ele>
        <time>2021-08-21T19:31:37.575Z</time>
      </trkpt>
      <trkpt lat="41.25443" lon="31.76215">
        <ele>215.843083</ele>
        <time>2021-08-21T19:31:41.525Z</time>
      </trkpt>
      <trkpt lat="41.25371" lon="31.76154">
        <ele>212.92714</ele>
        <time>2021-08-21T19:32:00.576Z</time>
      </trkpt>
      <trkpt lat="41.25343" lon="31.76139">
        <ele>211.893632</ele>
        <time>2021-08-21T19:32:07.049Z</time>
      </trkpt>
      <trkpt lat="41.25255" lon="31.76107">
        <ele>208.699796</ele>
        <time>2021-08-21T19:32:26.924Z</time>
      </trkpt>
      <trkpt lat="41.25231" lon="31.7611">
        <ele>207.814967</ele>
        <time>2021-08-21T19:32:32.449Z</time>
      </trkpt>
      <trkpt lat="41.25193" lon="31.76129">
        <ele>206.378374</ele>
        <time>2021-08-21T19:32:41.469Z</time>
      </trkpt>
      <trkpt lat="41.25126" lon="31.76147">
        <ele>204.057315</ele>
        <time>2021-08-21T19:32:57.138Z</time>
      </trkpt>
      <trkpt lat="41.25021" lon="31.76157">
        <ele>202.066627</ele>
        <time>2021-08-21T19:33:22.596Z</time>
      </trkpt>
      <trkpt lat="41.24932" lon="31.76144">
        <ele>200.697826</ele>
        <time>2021-08-21T19:33:46.052Z</time>
      </trkpt>
      <trkpt lat="41.249" lon="31.76132">
        <ele>200.600755</ele>
        <time>2021-08-21T19:33:55.560Z</time>
      </trkpt>
      <trkpt lat="41.24881" lon="31.76114">
        <ele>200.534858</ele>
        <time>2021-08-21T19:34:02.384Z</time>
      </trkpt>
      <trkpt lat="41.24872" lon="31.76095">
        <ele>200.483921</ele>
        <time>2021-08-21T19:34:07.737Z</time>
      </trkpt>
      <trkpt lat="41.24866" lon="31.76071">
        <ele>200.428754</ele>
        <time>2021-08-21T19:34:13.662Z</time>
      </trkpt>
      <trkpt lat="41.24858" lon="31.76037">
        <ele>200.351115</ele>
        <time>2021-08-21T19:34:22.182Z</time>
      </trkpt>
      <trkpt lat="41.24851" lon="31.76006">
        <ele>200.280453</ele>
        <time>2021-08-21T19:34:29.917Z</time>
      </trkpt>
      <trkpt lat="41.24834" lon="31.7598">
        <ele>200.215086</ele>
        <time>2021-08-21T19:34:38.423Z</time>
      </trkpt>
      <trkpt lat="41.24822" lon="31.75928">
        <ele>200.133692</ele>
        <time>2021-08-21T19:34:52.267Z</time>
      </trkpt>
      <trkpt lat="41.24784" lon="31.75725">
        <ele>199.480805</ele>
        <time>2021-08-21T19:35:38.681Z</time>
      </trkpt>
      <trkpt lat="41.24773" lon="31.75705">
        <ele>199.222847</ele>
        <time>2021-08-21T19:35:43.561Z</time>
      </trkpt>
      <trkpt lat="41.24749" lon="31.7569">
        <ele>198.865336</ele>
        <time>2021-08-21T19:35:50.312Z</time>
      </trkpt>
      <trkpt lat="41.2468" lon="31.7567">
        <ele>197.897201</ele>
        <time>2021-08-21T19:36:08.152Z</time>
      </trkpt>
      <trkpt lat="41.24639" lon="31.75646">
        <ele>197.279479</ele>
        <time>2021-08-21T19:36:19.297Z</time>
      </trkpt>
      <trkpt lat="41.24545" lon="31.75546">
        <ele>195.608329</ele>
        <time>2021-08-21T19:36:50.092Z</time>
      </trkpt>
      <trkpt lat="41.24512" lon="31.75494">
        <ele>194.915931</ele>
        <time>2021-08-21T19:37:03.919Z</time>
      </trkpt>
      <trkpt lat="41.24502" lon="31.7545">
        <ele>194.710305</ele>
        <time>2021-08-21T19:37:13.541Z</time>
      </trkpt>
      <trkpt lat="41.24503" lon="31.75409">
        <ele>194.52446</ele>
        <time>2021-08-21T19:37:22.349Z</time>
      </trkpt>
      <trkpt lat="41.24497" lon="31.75368">
        <ele>194.333995</ele>
        <time>2021-08-21T19:37:31.491Z</time>
      </trkpt>
      <trkpt lat="41.24463" lon="31.75281">
        <ele>193.896115</ele>
        <time>2021-08-21T19:37:52.646Z</time>
      </trkpt>
      <trkpt lat="41.24429" lon="31.75151">
        <ele>193.557635</ele>
        <time>2021-08-21T19:38:22.668Z</time>
      </trkpt>
      <trkpt lat="41.24398" lon="31.75112">
        <ele>193.427391</ele>
        <time>2021-08-21T19:38:35.448Z</time>
      </trkpt>
      <trkpt lat="41.24361" lon="31.75088">
        <ele>193.303762</ele>
        <time>2021-08-21T19:38:47.959Z</time>
      </trkpt>
      <trkpt lat="41.2433" lon="31.75077">
        <ele>193.31124</ele>
        <time>2021-08-21T19:38:58.332Z</time>
      </trkpt>
      <trkpt lat="41.24201" lon="31.7503">
        <ele>193.348882</ele>
        <time>2021-08-21T19:39:40.754Z</time>
      </trkpt>
      <trkpt lat="41.24155" lon="31.75025">
        <ele>193.225844</ele>
        <time>2021-08-21T19:39:54.919Z</time>
      </trkpt>
      <trkpt lat="41.24102" lon="31.75034">
        <ele>193.016693</ele>
        <time>2021-08-21T19:40:10.265Z</time>
      </trkpt>
      <trkpt lat="41.2404" lon="31.75069">
        <ele>192.749082</ele>
        <time>2021-08-21T19:40:29.378Z</time>
      </trkpt>
      <trkpt lat="41.23999" lon="31.75073">
        <ele>192.626842</ele>
        <time>2021-08-21T19:40:41.020Z</time>
      </trkpt>
      <trkpt lat="41.23958" lon="31.75072">
        <ele>192.576444</ele>
        <time>2021-08-21T19:40:53.346Z</time>
      </trkpt>
      <trkpt lat="41.23913" lon="31.75054">
        <ele>192.519276</ele>
        <time>2021-08-21T19:41:07.789Z</time>
      </trkpt>
      <trkpt lat="41.23899" lon="31.7503">
        <ele>192.491485</ele>
        <time>2021-08-21T19:41:14.894Z</time>
      </trkpt>
      <trkpt lat="41.23889" lon="31.75002">
        <ele>192.462366</ele>
        <time>2021-08-21T19:41:22.534Z</time>
      </trkpt>
      <trkpt lat="41.23886" lon="31.74963">
        <ele>192.426562</ele>
        <time>2021-08-21T19:41:31.972Z</time>
      </trkpt>
      <trkpt lat="41.2392" lon="31.74871">
        <ele>191.788032</ele>
        <time>2021-08-21T19:41:55.567Z</time>
      </trkpt>
      <trkpt lat="41.23955" lon="31.74794">
        <ele>191.216121</ele>
        <time>2021-08-21T19:42:14.168Z</time>
      </trkpt>
      <trkpt lat="41.23979" lon="31.74617">
        <ele>188.921757</ele>
        <time>2021-08-21T19:42:46.978Z</time>
      </trkpt>
      <trkpt lat="41.2399" lon="31.7455">
        <ele>187.865986</ele>
        <time>2021-08-21T19:42:59.571Z</time>
      </trkpt>
      <trkpt lat="41.23997" lon="31.74499">
        <ele>187.135391</ele>
        <time>2021-08-21T19:43:09.256Z</time>
      </trkpt>
      <trkpt lat="41.24004" lon="31.74334">
        <ele>185.386286</ele>
        <time>2021-08-21T19:43:41.236Z</time>
      </trkpt>
      <trkpt lat="41.24" lon="31.74296">
        <ele>184.980703</ele>
        <time>2021-08-21T19:43:49.156Z</time>
      </trkpt>
      <trkpt lat="41.23984" lon="31.74229">
        <ele>184.387724</ele>
        <time>2021-08-21T19:44:03.864Z</time>
      </trkpt>
      <trkpt lat="41.2398" lon="31.74213">
        <ele>184.267998</ele>
        <time>2021-08-21T19:44:07.100Z</time>
      </trkpt>
      <trkpt lat="41.23974" lon="31.74192">
        <ele>184.104679</ele>
        <time>2021-08-21T19:44:11.857Z</time>
      </trkpt>
      <trkpt lat="41.2396" lon="31.74163">
        <ele>183.850954</ele>
        <time>2021-08-21T19:44:18.993Z</time>
      </trkpt>
      <trkpt lat="41.23941" lon="31.74136">
        <ele>183.57717</ele>
        <time>2021-08-21T19:44:26.580Z</time>
      </trkpt>
      <trkpt lat="41.23886" lon="31.74088">
        <ele>182.934447</ele>
        <time>2021-08-21T19:44:44.166Z</time>
      </trkpt>
      <trkpt lat="41.23824" lon="31.74048">
        <ele>182.107824</ele>
        <time>2021-08-21T19:45:03.046Z</time>
      </trkpt>
      <trkpt lat="41.23775" lon="31.73993">
        <ele>181.336729</ele>
        <time>2021-08-21T19:45:20.205Z</time>
      </trkpt>
      <trkpt lat="41.23712" lon="31.7394">
        <ele>180.167429</ele>
        <time>2021-08-21T19:45:38.936Z</time>
      </trkpt>
      <trkpt lat="41.23702" lon="31.73904">
        <ele>179.556426</ele>
        <time>2021-08-21T19:45:46.089Z</time>
      </trkpt>
      <trkpt lat="41.23697" lon="31.73728">
        <ele>176.780938</ele>
        <time>2021-08-21T19:46:18.197Z</time>
      </trkpt>
      <trkpt lat="41.23683" lon="31.73663">
        <ele>175.806263</ele>
        <time>2021-08-21T19:46:30.402Z</time>
      </trkpt>
      <trkpt lat="41.23678" lon="31.73538">
        <ele>173.974421</ele>
        <time>2021-08-21T19:46:53.942Z</time>
      </trkpt>
      <trkpt lat="41.23587" lon="31.73435">
        <ele>172.417828</ele>
        <time>2021-08-21T19:47:24.729Z</time>
      </trkpt>
      <trkpt lat="41.23535" lon="31.73321">
        <ele>171.372894</ele>
        <time>2021-08-21T19:47:52.538Z</time>
      </trkpt>
      <trkpt lat="41.23522" lon="31.73293">
        <ele>171.254821</ele>
        <time>2021-08-21T19:47:59.300Z</time>
      </trkpt>
      <trkpt lat="41.23505" lon="31.7325">
        <ele>171.076538</ele>
        <time>2021-08-21T19:48:09.789Z</time>
      </trkpt>
      <trkpt lat="41.235" lon="31.73242">
        <ele>171.038582</ele>
        <time>2021-08-21T19:48:12.183Z</time>
      </trkpt>
      <trkpt lat="41.23448" lon="31.73178">
        <ele>170.695361</ele>
        <time>2021-08-21T19:48:32.882Z</time>
      </trkpt>
      <trkpt lat="41.23411" lon="31.73097">
        <ele>170.385995</ele>
        <time>2021-08-21T19:48:54.395Z</time>
      </trkpt>
      <trkpt lat="41.23283" lon="31.72766">
        <ele>169.097715</ele>
        <time>2021-08-21T19:50:15.374Z</time>
      </trkpt>
      <trkpt lat="41.23253" lon="31.72694">
        <ele>168.789123</ele>
        <time>2021-08-21T19:50:33.004Z</time>
      </trkpt>
      <trkpt lat="41.23223" lon="31.72636">
        <ele>168.523216</ele>
        <time>2021-08-21T19:50:48.206Z</time>
      </trkpt>
      <trkpt lat="41.23179" lon="31.72576">
        <ele>168.206702</ele>
        <time>2021-08-21T19:51:06.374Z</time>
      </trkpt>
      <trkpt lat="41.23074" lon="31.7237">
        <ele>167.255027</ele>
        <time>2021-08-21T19:52:00.398Z</time>
      </trkpt>
      <trkpt lat="41.23037" lon="31.72314">
        <ele>167.135721</ele>
        <time>2021-08-21T19:52:16.249Z</time>
      </trkpt>
      <trkpt lat="41.22991" lon="31.72274">
        <ele>167.153235</ele>
        <time>2021-08-21T19:52:32.243Z</time>
      </trkpt>
      <trkpt lat="41.22956" lon="31.72223">
        <ele>167.169433</ele>
        <time>2021-08-21T19:52:47.856Z</time>
      </trkpt>
      <trkpt lat="41.22912" lon="31.72179">
        <ele>167.619952</ele>
        <time>2021-08-21T19:53:07.188Z</time>
      </trkpt>
      <trkpt lat="41.22873" lon="31.72124">
        <ele>169.591415</ele>
        <time>2021-08-21T19:53:31.302Z</time>
      </trkpt>
      <trkpt lat="41.22858" lon="31.72066">
        <ele>171.176755</ele>
        <time>2021-08-21T19:53:54.705Z</time>
      </trkpt>
      <trkpt lat="41.22874" lon="31.72001">
        <ele>172.951392</ele>
        <time>2021-08-21T19:54:25.327Z</time>
      </trkpt>
      <trkpt lat="41.22902" lon="31.71935">
        <ele>175.895437</ele>
        <time>2021-08-21T19:55:03.676Z</time>
      </trkpt>
      <trkpt lat="41.22937" lon="31.71874">
        <ele>179.111188</ele>
        <time>2021-08-21T19:55:42.942Z</time>
      </trkpt>
      <trkpt lat="41.22983" lon="31.71828">
        <ele>182.324356</ele>
        <time>2021-08-21T19:56:19.378Z</time>
      </trkpt>
      <trkpt lat="41.23019" lon="31.71782">
        <ele>183.645666</ele>
        <time>2021-08-21T19:56:46.933Z</time>
      </trkpt>
      <trkpt lat="41.23072" lon="31.7169">
        <ele>184.142445</ele>
        <time>2021-08-21T19:57:19.714Z</time>
      </trkpt>
      <trkpt lat="41.23079" lon="31.71638">
        <ele>184.365861</ele>
        <time>2021-08-21T19:57:29.532Z</time>
      </trkpt>
      <trkpt lat="41.23051" lon="31.71534">
        <ele>183.009012</ele>
        <time>2021-08-21T19:57:48.584Z</time>
      </trkpt>
      <trkpt lat="41.23068" lon="31.71492">
        <ele>182.120032</ele>
        <time>2021-08-21T19:57:56.716Z</time>
      </trkpt>
      <trkpt lat="41.2306" lon="31.71462">
        <ele>181.525109</ele>
        <time>2021-08-21T19:58:02.227Z</time>
      </trkpt>
      <trkpt lat="41.23021" lon="31.71438">
        <ele>180.449816</ele>
        <time>2021-08-21T19:58:12.271Z</time>
      </trkpt>
      <trkpt lat="41.22953" lon="31.71321">
        <ele>180.174003</ele>
        <time>2021-08-21T19:58:43.980Z</time>
      </trkpt>
      <trkpt lat="41.22938" lon="31.71304">
        <ele>180.209585</ele>
        <time>2021-08-21T19:58:51.386Z</time>
      </trkpt>
      <trkpt lat="41.22932" lon="31.71256">
        <ele>180.275915</ele>
        <time>2021-08-21T19:59:05.880Z</time>
      </trkpt>
      <trkpt lat="41.22913" lon="31.71238">
        <ele>180.317437</ele>
        <time>2021-08-21T19:59:15.165Z</time>
      </trkpt>
      <trkpt lat="41.22894" lon="31.7123">
        <ele>180.435904</ele>
        <time>2021-08-21T19:59:23.122Z</time>
      </trkpt>
      <trkpt lat="41.22855" lon="31.71226">
        <ele>180.743308</ele>
        <time>2021-08-21T19:59:38.197Z</time>
      </trkpt>
      <trkpt lat="41.22839" lon="31.71212">
        <ele>180.892366</ele>
        <time>2021-08-21T19:59:45.471Z</time>
      </trkpt>
      <trkpt lat="41.22832" lon="31.71083">
        <ele>181.660241</ele>
        <time>2021-08-21T20:00:20.181Z</time>
      </trkpt>
      <trkpt lat="41.22839" lon="31.7101">
        <ele>181.004754</ele>
        <time>2021-08-21T20:00:36.250Z</time>
      </trkpt>
      <trkpt lat="41.22835" lon="31.70931">
        <ele>180.000284</ele>
        <time>2021-08-21T20:00:51.475Z</time>
      </trkpt>
      <trkpt lat="41.22856" lon="31.70827">
        <ele>178.529551</ele>
        <time>2021-08-21T20:01:10.735Z</time>
      </trkpt>
      <trkpt lat="41.22882" lon="31.70757">
        <ele>176.479284</ele>
        <time>2021-08-21T20:01:24.051Z</time>
      </trkpt>
      <trkpt lat="41.22881" lon="31.7071">
        <ele>175.239686</ele>
        <time>2021-08-21T20:01:31.962Z</time>
      </trkpt>
      <trkpt lat="41.22847" lon="31.70621">
        <ele>172.62928</ele>
        <time>2021-08-21T20:01:48.439Z</time>
      </trkpt>
      <trkpt lat="41.22806" lon="31.7056">
        <ele>171.198821</ele>
        <time>2021-08-21T20:02:02.381Z</time>
      </trkpt>
      <trkpt lat="41.22787" lon="31.70518">
        <ele>170.387292</ele>
        <time>2021-08-21T20:02:11.162Z</time>
      </trkpt>
      <trkpt lat="41.22789" lon="31.70482">
        <ele>169.774512</ele>
        <time>2021-08-21T20:02:18.046Z</time>
      </trkpt>
      <trkpt lat="41.22809" lon="31.70446">
        <ele>169.030075</ele>
        <time>2021-08-21T20:02:26.769Z</time>
      </trkpt>
      <trkpt lat="41.22806" lon="31.70428">
        <ele>168.731577</ele>
        <time>2021-08-21T20:02:30.418Z</time>
      </trkpt>
      <trkpt lat="41.22742" lon="31.7041">
        <ele>168.858706</ele>
        <time>2021-08-21T20:02:48.743Z</time>
      </trkpt>
      <trkpt lat="41.22672" lon="31.70291">
        <ele>169.697424</ele>
        <time>2021-08-21T20:03:30.961Z</time>
      </trkpt>
      <trkpt lat="41.2263" lon="31.70243">
        <ele>171.417413</ele>
        <time>2021-08-21T20:03:56.621Z</time>
      </trkpt>
      <trkpt lat="41.22606" lon="31.70189">
        <ele>173.240502</ele>
        <time>2021-08-21T20:04:21.135Z</time>
      </trkpt>
      <trkpt lat="41.2265" lon="31.70093">
        <ele>176.489211</ele>
        <time>2021-08-21T20:05:09.948Z</time>
      </trkpt>
      <trkpt lat="41.22695" lon="31.6995">
        <ele>180.535454</ele>
        <time>2021-08-21T20:06:18.633Z</time>
      </trkpt>
      <trkpt lat="41.22774" lon="31.69898">
        <ele>182.156116</ele>
        <time>2021-08-21T20:06:56.963Z</time>
      </trkpt>
      <trkpt lat="41.22844" lon="31.69817">
        <ele>178.531985</ele>
        <time>2021-08-21T20:07:18.389Z</time>
      </trkpt>
      <trkpt lat="41.2287" lon="31.69779">
        <ele>177.001491</ele>
        <time>2021-08-21T20:07:26.278Z</time>
      </trkpt>
      <trkpt lat="41.22887" lon="31.69632">
        <ele>169.259021</ele>
        <time>2021-08-21T20:07:47.813Z</time>
      </trkpt>
      <trkpt lat="41.22879" lon="31.69577">
        <ele>165.828884</ele>
        <time>2021-08-21T20:07:56.056Z</time>
      </trkpt>
      <trkpt lat="41.22877" lon="31.69514">
        <ele>162.009589</ele>
        <time>2021-08-21T20:08:05.444Z</time>
      </trkpt>
      <trkpt lat="41.22897" lon="31.69455">
        <ele>160.266543</ele>
        <time>2021-08-21T20:08:15.526Z</time>
      </trkpt>
      <trkpt lat="41.22979" lon="31.69309">
        <ele>156.463128</ele>
        <time>2021-08-21T20:08:50.116Z</time>
      </trkpt>
      <trkpt lat="41.22998" lon="31.6925">
        <ele>155.606378</ele>
        <time>2021-08-21T20:09:05.501Z</time>
      </trkpt>
      <trkpt lat="41.23042" lon="31.6918">
        <ele>154.431374</ele>
        <time>2021-08-21T20:09:23.817Z</time>
      </trkpt>
      <trkpt lat="41.2307" lon="31.69147">
        <ele>153.772114</ele>
        <time>2021-08-21T20:09:33.117Z</time>
      </trkpt>
      <trkpt lat="41.23078" lon="31.69098">
        <ele>152.88256</ele>
        <time>2021-08-21T20:09:41.653Z</time>
      </trkpt>
      <trkpt lat="41.23015" lon="31.68921">
        <ele>146.709971</ele>
        <time>2021-08-21T20:10:13.257Z</time>
      </trkpt>
      <trkpt lat="41.23006" lon="31.68896">
        <ele>145.848465</ele>
        <time>2021-08-21T20:10:17.705Z</time>
      </trkpt>
      <trkpt lat="41.2299" lon="31.68876">
        <ele>145.325652</ele>
        <time>2021-08-21T20:10:22.656Z</time>
      </trkpt>
      <trkpt lat="41.22933" lon="31.6891">
        <ele>143.979066</ele>
        <time>2021-08-21T20:10:36.899Z</time>
      </trkpt>
      <trkpt lat="41.22902" lon="31.68926">
        <ele>143.255459</ele>
        <time>2021-08-21T20:10:45.123Z</time>
      </trkpt>
      <trkpt lat="41.22892" lon="31.68924">
        <ele>143.03773</ele>
        <time>2021-08-21T20:10:47.696Z</time>
      </trkpt>
      <trkpt lat="41.22884" lon="31.68901">
        <ele>142.616736</ele>
        <time>2021-08-21T20:10:52.854Z</time>
      </trkpt>
      <trkpt lat="41.22877" lon="31.68855">
        <ele>141.873578</ele>
        <time>2021-08-21T20:11:02.934Z</time>
      </trkpt>
      <trkpt lat="41.22887" lon="31.68782">
        <ele>142.322165</ele>
        <time>2021-08-21T20:11:21.109Z</time>
      </trkpt>
      <trkpt lat="41.22923" lon="31.68705">
        <ele>142.867902</ele>
        <time>2021-08-21T20:11:46.033Z</time>
      </trkpt>
      <trkpt lat="41.22936" lon="31.68654">
        <ele>143.197172</ele>
        <time>2021-08-21T20:12:01.865Z</time>
      </trkpt>
      <trkpt lat="41.22939" lon="31.68581">
        <ele>144.476037</ele>
        <time>2021-08-21T20:12:24.296Z</time>
      </trkpt>
      <trkpt lat="41.22964" lon="31.68494">
        <ele>146.476981</ele>
        <time>2021-08-21T20:12:56.162Z</time>
      </trkpt>
      <trkpt lat="41.23003" lon="31.68427">
        <ele>148.297538</ele>
        <time>2021-08-21T20:13:28.875Z</time>
      </trkpt>
      <trkpt lat="41.22994" lon="31.68414">
        <ele>148.846793</ele>
        <time>2021-08-21T20:13:36.261Z</time>
      </trkpt>
      <trkpt lat="41.22908" lon="31.68406">
        <ele>153.082652</ele>
        <time>2021-08-21T20:14:26.213Z</time>
      </trkpt>
      <trkpt lat="41.22869" lon="31.68373">
        <ele>155.356857</ele>
        <time>2021-08-21T20:14:54.176Z</time>
      </trkpt>
      <trkpt lat="41.22824" lon="31.68354">
        <ele>157.757282</ele>
        <time>2021-08-21T20:15:23.322Z</time>
      </trkpt>
      <trkpt lat="41.22795" lon="31.68321">
        <ele>160.002182</ele>
        <time>2021-08-21T20:15:47.088Z</time>
      </trkpt>
      <trkpt lat="41.22695" lon="31.68322">
        <ele>165.857957</ele>
        <time>2021-08-21T20:16:50.482Z</time>
      </trkpt>
      <trkpt lat="41.22632" lon="31.68308">
        <ele>170.222222</ele>
        <time>2021-08-21T20:17:33.088Z</time>
      </trkpt>
      <trkpt lat="41.22584" lon="31.68273">
        <ele>174.597722</ele>
        <time>2021-08-21T20:18:12.968Z</time>
      </trkpt>
      <trkpt lat="41.22535" lon="31.68221">
        <ele>179.577513</ele>
        <time>2021-08-21T20:19:01.975Z</time>
      </trkpt>
      <trkpt lat="41.22478" lon="31.68063">
        <ele>191.70285</ele>
        <time>2021-08-21T20:20:54.270Z</time>
      </trkpt>
      <trkpt lat="41.22408" lon="31.67916">
        <ele>204.182842</ele>
        <time>2021-08-21T20:22:47.085Z</time>
      </trkpt>
      <trkpt lat="41.2239" lon="31.6784">
        <ele>209.848159</ele>
        <time>2021-08-21T20:23:37.489Z</time>
      </trkpt>
      <trkpt lat="41.22382" lon="31.67765">
        <ele>215.196404</ele>
        <time>2021-08-21T20:24:24.561Z</time>
      </trkpt>
      <trkpt lat="41.22345" lon="31.67721">
        <ele>219.710439</ele>
        <time>2021-08-21T20:25:04.804Z</time>
      </trkpt>
      <trkpt lat="41.22312" lon="31.67655">
        <ele>225.047846</ele>
        <time>2021-08-21T20:25:52.824Z</time>
      </trkpt>
      <trkpt lat="41.2229" lon="31.67585">
        <ele>230.16537</ele>
        <time>2021-08-21T20:26:38.933Z</time>
      </trkpt>
      <trkpt lat="41.22259" lon="31.67526">
        <ele>234.980416</ele>
        <time>2021-08-21T20:27:25.145Z</time>
      </trkpt>
      <trkpt lat="41.22242" lon="31.67505">
        <ele>236.934627</ele>
        <time>2021-08-21T20:27:43.928Z</time>
      </trkpt>
      <trkpt lat="41.2224" lon="31.6747">
        <ele>239.191414</ele>
        <time>2021-08-21T20:28:05.028Z</time>
      </trkpt>
      <trkpt lat="41.22243" lon="31.67433">
        <ele>241.637596</ele>
        <time>2021-08-21T20:28:26.985Z</time>
      </trkpt>
      <trkpt lat="41.2225" lon="31.67383">
        <ele>244.910352</ele>
        <time>2021-08-21T20:28:56.521Z</time>
      </trkpt>
      <trkpt lat="41.22245" lon="31.67374">
        <ele>245.650802</ele>
        <time>2021-08-21T20:29:03.512Z</time>
      </trkpt>
      <trkpt lat="41.22203" lon="31.67273">
        <ele>252.96769</ele>
        <time>2021-08-21T20:30:09.353Z</time>
      </trkpt>
      <trkpt lat="41.22182" lon="31.67196">
        <ele>258.08935</ele>
        <time>2021-08-21T20:30:58.026Z</time>
      </trkpt>
      <trkpt lat="41.22167" lon="31.67127">
        <ele>262.561003</ele>
        <time>2021-08-21T20:31:39.406Z</time>
      </trkpt>
      <trkpt lat="41.22174" lon="31.67072">
        <ele>266.310551</ele>
        <time>2021-08-21T20:32:13.641Z</time>
      </trkpt>
      <trkpt lat="41.22122" lon="31.67017">
        <ele>272.207314</ele>
        <time>2021-08-21T20:33:07.175Z</time>
      </trkpt>
      <trkpt lat="41.22089" lon="31.66949">
        <ele>277.588766</ele>
        <time>2021-08-21T20:33:55.267Z</time>
      </trkpt>
      <trkpt lat="41.22065" lon="31.66887">
        <ele>282.811278</ele>
        <time>2021-08-21T20:34:41.085Z</time>
      </trkpt>
      <trkpt lat="41.22034" lon="31.66856">
        <ele>286.792593</ele>
        <time>2021-08-21T20:35:15.135Z</time>
      </trkpt>
      <trkpt lat="41.21997" lon="31.66881">
        <ele>291.031814</ele>
        <time>2021-08-21T20:35:51.733Z</time>
      </trkpt>
      <trkpt lat="41.2198" lon="31.66887">
        <ele>292.879405</ele>
        <time>2021-08-21T20:36:07.487Z</time>
      </trkpt>
      <trkpt lat="41.2195" lon="31.66874">
        <ele>296.025088</ele>
        <time>2021-08-21T20:36:35.895Z</time>
      </trkpt>
      <trkpt lat="41.21859" lon="31.66693">
        <ele>311.937788</ele>
        <time>2021-08-21T20:39:11.177Z</time>
      </trkpt>
      <trkpt lat="41.21818" lon="31.66633">
        <ele>314.261655</ele>
        <time>2021-08-21T20:39:47.084Z</time>
      </trkpt>
      <trkpt lat="41.21811" lon="31.66596">
        <ele>313.761675</ele>
        <time>2021-08-21T20:39:59.413Z</time>
      </trkpt>
      <trkpt lat="41.21792" lon="31.66533">
        <ele>312.885441</ele>
        <time>2021-08-21T20:40:12.154Z</time>
      </trkpt>
      <trkpt lat="41.21754" lon="31.66457">
        <ele>311.712367</ele>
        <time>2021-08-21T20:40:26.149Z</time>
      </trkpt>
      <trkpt lat="41.21709" lon="31.66319">
        <ele>302.042827</ele>
        <time>2021-08-21T20:40:47.630Z</time>
      </trkpt>
      <trkpt lat="41.21681" lon="31.66247">
        <ele>296.797156</ele>
        <time>2021-08-21T20:40:59.629Z</time>
      </trkpt>
      <trkpt lat="41.2167" lon="31.66212">
        <ele>295.185174</ele>
        <time>2021-08-21T20:41:05.468Z</time>
      </trkpt>
      <trkpt lat="41.21665" lon="31.66178">
        <ele>293.976846</ele>
        <time>2021-08-21T20:41:10.773Z</time>
      </trkpt>
      <trkpt lat="41.21667" lon="31.66151">
        <ele>293.004528</ele>
        <time>2021-08-21T20:41:15.148Z</time>
      </trkpt>
      <trkpt lat="41.21728" lon="31.66091">
        <ele>289.414972</ele>
        <time>2021-08-21T20:41:32.033Z</time>
      </trkpt>
      <trkpt lat="41.21755" lon="31.66095">
        <ele>288.122374</ele>
        <time>2021-08-21T20:41:38.373Z</time>
      </trkpt>
      <trkpt lat="41.2179" lon="31.66126">
        <ele>285.766305</ele>
        <time>2021-08-21T20:41:47.872Z</time>
      </trkpt>
      <trkpt lat="41.21801" lon="31.66122">
        <ele>285.066409</ele>
        <time>2021-08-21T20:41:50.472Z</time>
      </trkpt>
      <trkpt lat="41.21771" lon="31.66008">
        <ele>279.778181</ele>
        <time>2021-08-21T20:42:09.098Z</time>
      </trkpt>
      <trkpt lat="41.21783" lon="31.65938">
        <ele>276.356442</ele>
        <time>2021-08-21T20:42:19.799Z</time>
      </trkpt>
      <trkpt lat="41.21838" lon="31.65815">
        <ele>267.522295</ele>
        <time>2021-08-21T20:42:40.751Z</time>
      </trkpt>
      <trkpt lat="41.21851" lon="31.65753">
        <ele>263.52082</ele>
        <time>2021-08-21T20:42:50.191Z</time>
      </trkpt>
      <trkpt lat="41.21859" lon="31.6569">
        <ele>260.226226</ele>
        <time>2021-08-21T20:42:59.682Z</time>
      </trkpt>
      <trkpt lat="41.21854" lon="31.65631">
        <ele>257.385844</ele>
        <time>2021-08-21T20:43:08.751Z</time>
      </trkpt>
      <trkpt lat="41.21858" lon="31.65572">
        <ele>254.575519</ele>
        <time>2021-08-21T20:43:17.994Z</time>
      </trkpt>
      <trkpt lat="41.2189" lon="31.65487">
        <ele>250.037781</ele>
        <time>2021-08-21T20:43:33.152Z</time>
      </trkpt>
      <trkpt lat="41.21914" lon="31.65403">
        <ele>245.762139</ele>
        <time>2021-08-21T20:43:47.214Z</time>
      </trkpt>
      <trkpt lat="41.21938" lon="31.65411">
        <ele>244.203029</ele>
        <time>2021-08-21T20:43:52.282Z</time>
      </trkpt>
      <trkpt lat="41.21962" lon="31.65408">
        <ele>242.667498</ele>
        <time>2021-08-21T20:43:57.195Z</time>
      </trkpt>
      <trkpt lat="41.21977" lon="31.65371">
        <ele>240.657187</ele>
        <time>2021-08-21T20:44:03.493Z</time>
      </trkpt>
      <trkpt lat="41.21998" lon="31.65348">
        <ele>238.577989</ele>
        <time>2021-08-21T20:44:08.842Z</time>
      </trkpt>
      <trkpt lat="41.22013" lon="31.65321">
        <ele>236.187547</ele>
        <time>2021-08-21T20:44:13.761Z</time>
      </trkpt>
      <trkpt lat="41.22024" lon="31.65277">
        <ele>232.93952</ele>
        <time>2021-08-21T20:44:20.358Z</time>
      </trkpt>
      <trkpt lat="41.22026" lon="31.65249">
        <ele>230.94171</ele>
        <time>2021-08-21T20:44:24.392Z</time>
      </trkpt>
      <trkpt lat="41.22021" lon="31.65189">
        <ele>226.634485</ele>
        <time>2021-08-21T20:44:33.037Z</time>
      </trkpt>
      <trkpt lat="41.22006" lon="31.65084">
        <ele>219.242801</ele>
        <time>2021-08-21T20:44:48.439Z</time>
      </trkpt>
      <trkpt lat="41.2203" lon="31.6505">
        <ele>216.120839</ele>
        <time>2021-08-21T20:44:55.233Z</time>
      </trkpt>
      <trkpt lat="41.22069" lon="31.65035">
        <ele>212.566076</ele>
        <time>2021-08-21T20:45:03.061Z</time>
      </trkpt>
      <trkpt lat="41.2215" lon="31.65039">
        <ele>205.606473</ele>
        <time>2021-08-21T20:45:18.999Z</time>
      </trkpt>
      <trkpt lat="41.22154" lon="31.65013">
        <ele>204.063317</ele>
        <time>2021-08-21T20:45:23.033Z</time>
      </trkpt>
      <trkpt lat="41.22109" lon="31.6498">
        <ele>200.155729</ele>
        <time>2021-08-21T20:45:33.190Z</time>
      </trkpt>
      <trkpt lat="41.22024" lon="31.64887">
        <ele>192.143236</ele>
        <time>2021-08-21T20:45:54.942Z</time>
      </trkpt>
      <trkpt lat="41.22026" lon="31.64835">
        <ele>189.917424</ele>
        <time>2021-08-21T20:46:02.900Z</time>
      </trkpt>
      <trkpt lat="41.22048" lon="31.64807">
        <ele>188.199163</ele>
        <time>2021-08-21T20:46:09.113Z</time>
      </trkpt>
      <trkpt lat="41.22017" lon="31.64784">
        <ele>186.201944</ele>
        <time>2021-08-21T20:46:16.442Z</time>
      </trkpt>
      <trkpt lat="41.21969" lon="31.64781">
        <ele>183.486265</ele>
        <time>2021-08-21T20:46:26.677Z</time>
      </trkpt>
      <trkpt lat="41.21946" lon="31.64753">
        <ele>182.523151</ele>
        <time>2021-08-21T20:46:33.623Z</time>
      </trkpt>
      <trkpt lat="41.21963" lon="31.64592">
        <ele>180.210453</ele>
        <time>2021-08-21T20:47:04.436Z</time>
      </trkpt>
      <trkpt lat="41.21982" lon="31.64485">
        <ele>179.546222</ele>
        <time>2021-08-21T20:47:28.697Z</time>
      </trkpt>
      <trkpt lat="41.21964" lon="31.64395">
        <ele>179.578313</ele>
        <time>2021-08-21T20:47:52.206Z</time>
      </trkpt>
      <trkpt lat="41.21952" lon="31.64279">
        <ele>179.318593</ele>
        <time>2021-08-21T20:48:21.603Z</time>
      </trkpt>
      <trkpt lat="41.21951" lon="31.64206">
        <ele>178.675518</ele>
        <time>2021-08-21T20:48:37.263Z</time>
      </trkpt>
      <trkpt lat="41.21958" lon="31.64164">
        <ele>178.299508</ele>
        <time>2021-08-21T20:48:45.627Z</time>
      </trkpt>
      <trkpt lat="41.21957" lon="31.64121">
        <ele>177.917219</ele>
        <time>2021-08-21T20:48:53.879Z</time>
      </trkpt>
      <trkpt lat="41.21947" lon="31.64085">
        <ele>177.580161</ele>
        <time>2021-08-21T20:49:00.956Z</time>
      </trkpt>
      <trkpt lat="41.21937" lon="31.64053">
        <ele>176.714586</ele>
        <time>2021-08-21T20:49:07.090Z</time>
      </trkpt>
      <trkpt lat="41.21923" lon="31.64033">
        <ele>175.873549</ele>
        <time>2021-08-21T20:49:11.873Z</time>
      </trkpt>
      <trkpt lat="41.21912" lon="31.63994">
        <ele>174.593547</ele>
        <time>2021-08-21T20:49:18.968Z</time>
      </trkpt>
      <trkpt lat="41.2193" lon="31.63947">
        <ele>173.000345</ele>
        <time>2021-08-21T20:49:27.559Z</time>
      </trkpt>
      <trkpt lat="41.22012" lon="31.63905">
        <ele>168.934252</ele>
        <time>2021-08-21T20:49:46.063Z</time>
      </trkpt>
      <trkpt lat="41.22015" lon="31.63853">
        <ele>166.366218</ele>
        <time>2021-08-21T20:49:54.120Z</time>
      </trkpt>
      <trkpt lat="41.21992" lon="31.63805">
        <ele>163.502594</ele>
        <time>2021-08-21T20:50:02.966Z</time>
      </trkpt>
      <trkpt lat="41.21967" lon="31.63768">
        <ele>161.036824</ele>
        <time>2021-08-21T20:50:10.442Z</time>
      </trkpt>
      <trkpt lat="41.21986" lon="31.6372">
        <ele>158.361637</ele>
        <time>2021-08-21T20:50:18.446Z</time>
      </trkpt>
      <trkpt lat="41.21984" lon="31.6366">
        <ele>154.414209</ele>
        <time>2021-08-21T20:50:27.252Z</time>
      </trkpt>
      <trkpt lat="41.21993" lon="31.63601">
        <ele>150.390227</ele>
        <time>2021-08-21T20:50:36.155Z</time>
      </trkpt>
      <trkpt lat="41.21989" lon="31.63545">
        <ele>146.664918</ele>
        <time>2021-08-21T20:50:44.414Z</time>
      </trkpt>
      <trkpt lat="41.22009" lon="31.63453">
        <ele>140.010281</ele>
        <time>2021-08-21T20:50:58.214Z</time>
      </trkpt>
      <trkpt lat="41.22011" lon="31.6335">
        <ele>132.319353</ele>
        <time>2021-08-21T20:51:13.012Z</time>
      </trkpt>
      <trkpt lat="41.22024" lon="31.63321">
        <ele>129.800671</ele>
        <time>2021-08-21T20:51:17.774Z</time>
      </trkpt>
      <trkpt lat="41.22016" lon="31.63301">
        <ele>128.063328</ele>
        <time>2021-08-21T20:51:21.068Z</time>
      </trkpt>
      <trkpt lat="41.22011" lon="31.63277">
        <ele>126.189496</ele>
        <time>2021-08-21T20:51:24.595Z</time>
      </trkpt>
      <trkpt lat="41.22" lon="31.63262">
        <ele>124.644413</ele>
        <time>2021-08-21T20:51:27.559Z</time>
      </trkpt>
      <trkpt lat="41.2198" lon="31.63253">
        <ele>123.18352</ele>
        <time>2021-08-21T20:51:31.579Z</time>
      </trkpt>
      <trkpt lat="41.21963" lon="31.63255">
        <ele>122.055126</ele>
        <time>2021-08-21T20:51:34.831Z</time>
      </trkpt>
      <trkpt lat="41.21955" lon="31.6326">
        <ele>121.423154</ele>
        <time>2021-08-21T20:51:36.631Z</time>
      </trkpt>
      <trkpt lat="41.21944" lon="31.63221">
        <ele>119.285588</ele>
        <time>2021-08-21T20:51:43.130Z</time>
      </trkpt>
      <trkpt lat="41.21934" lon="31.63155">
        <ele>115.905205</ele>
        <time>2021-08-21T20:51:53.872Z</time>
      </trkpt>
      <trkpt lat="41.21852" lon="31.63165">
        <ele>112.231034</ele>
        <time>2021-08-21T20:52:12.643Z</time>
      </trkpt>
      <trkpt lat="41.21819" lon="31.6319">
        <ele>112.024575</ele>
        <time>2021-08-21T20:52:22.464Z</time>
      </trkpt>
      <trkpt lat="41.21678" lon="31.63219">
        <ele>111.902494</ele>
        <time>2021-08-21T20:53:17.760Z</time>
      </trkpt>
      <trkpt lat="41.21673" lon="31.63216">
        <ele>111.987056</ele>
        <time>2021-08-21T20:53:20.012Z</time>
      </trkpt>
      <trkpt lat="41.21579" lon="31.63251">
        <ele>113.5572</ele>
        <time>2021-08-21T20:54:00.746Z</time>
      </trkpt>
      <trkpt lat="41.21522" lon="31.63248">
        <ele>114.489575</ele>
        <time>2021-08-21T20:54:24.987Z</time>
      </trkpt>
      <trkpt lat="41.21469" lon="31.63238">
        <ele>115.483342</ele>
        <time>2021-08-21T20:54:48.009Z</time>
      </trkpt>
      <trkpt lat="41.2137" lon="31.63244">
        <ele>117.315832</ele>
        <time>2021-08-21T20:55:29.701Z</time>
      </trkpt>
      <trkpt lat="41.21306" lon="31.63258">
        <ele>119.141894</ele>
        <time>2021-08-21T20:55:57.878Z</time>
      </trkpt>
      <trkpt lat="41.21221" lon="31.63287">
        <ele>121.876967</ele>
        <time>2021-08-21T20:56:41.546Z</time>
      </trkpt>
      <trkpt lat="41.21175" lon="31.6329">
        <ele>123.391799</ele>
        <time>2021-08-21T20:57:06.449Z</time>
      </trkpt>
      <trkpt lat="41.21152" lon="31.63281">
        <ele>124.938154</ele>
        <time>2021-08-21T20:57:20.755Z</time>
      </trkpt>
      <trkpt lat="41.21143" lon="31.63281">
        <ele>125.510493</ele>
        <time>2021-08-21T20:57:25.834Z</time>
      </trkpt>
      <trkpt lat="41.21103" lon="31.63301">
        <ele>128.278113</ele>
        <time>2021-08-21T20:57:53.979Z</time>
      </trkpt>
      <trkpt lat="41.21091" lon="31.63274">
        <ele>129.814137</ele>
        <time>2021-08-21T20:58:11.476Z</time>
      </trkpt>
      <trkpt lat="41.21048" lon="31.63235">
        <ele>133.178</ele>
        <time>2021-08-21T20:58:48.101Z</time>
      </trkpt>
      <trkpt lat="41.21047" lon="31.63211">
        <ele>134.389042</ele>
        <time>2021-08-21T20:59:03.487Z</time>
      </trkpt>
      <trkpt lat="41.21057" lon="31.63176">
        <ele>136.496749</ele>
        <time>2021-08-21T20:59:25.403Z</time>
      </trkpt>
      <trkpt lat="41.21091" lon="31.63153">
        <ele>139.521692</ele>
        <time>2021-08-21T20:59:55.843Z</time>
      </trkpt>
      <trkpt lat="41.21105" lon="31.63142">
        <ele>140.835261</ele>
        <time>2021-08-21T21:00:09.214Z</time>
      </trkpt>
      <trkpt lat="41.21117" lon="31.63077">
        <ele>144.915499</ele>
        <time>2021-08-21T21:00:47.312Z</time>
      </trkpt>
      <trkpt lat="41.21126" lon="31.63052">
        <ele>146.578048</ele>
        <time>2021-08-21T21:01:04.114Z</time>
      </trkpt>
      <trkpt lat="41.21097" lon="31.63044">
        <ele>148.970906</ele>
        <time>2021-08-21T21:01:27.078Z</time>
      </trkpt>
      <trkpt lat="41.21065" lon="31.63007">
        <ele>152.342433</ele>
        <time>2021-08-21T21:01:57.798Z</time>
      </trkpt>
      <trkpt lat="41.21034" lon="31.62946">
        <ele>156.747653</ele>
        <time>2021-08-21T21:02:43.505Z</time>
      </trkpt>
      <trkpt lat="41.21024" lon="31.62936">
        <ele>157.754488</ele>
        <time>2021-08-21T21:02:53.774Z</time>
      </trkpt>
      <trkpt lat="41.21004" lon="31.62931">
        <ele>159.353147</ele>
        <time>2021-08-21T21:03:10.547Z</time>
      </trkpt>
      <trkpt lat="41.20947" lon="31.62953">
        <ele>164.072624</ele>
        <time>2021-08-21T21:03:52.435Z</time>
      </trkpt>
      <trkpt lat="41.20935" lon="31.62949">
        <ele>164.961663</ele>
        <time>2021-08-21T21:04:02.241Z</time>
      </trkpt>
      <trkpt lat="41.20906" lon="31.6296">
        <ele>167.260672</ele>
        <time>2021-08-21T21:04:22.717Z</time>
      </trkpt>
      <trkpt lat="41.20854" lon="31.62944">
        <ele>171.317098</ele>
        <time>2021-08-21T21:05:01.079Z</time>
      </trkpt>
      <trkpt lat="41.20825" lon="31.62946">
        <ele>173.535762</ele>
        <time>2021-08-21T21:05:23.887Z</time>
      </trkpt>
      <trkpt lat="41.20815" lon="31.62966">
        <ele>174.973789</ele>
        <time>2021-08-21T21:05:37.637Z</time>
      </trkpt>
      <trkpt lat="41.20804" lon="31.63024">
        <ele>178.850017</ele>
        <time>2021-08-21T21:06:14.290Z</time>
      </trkpt>
      <trkpt lat="41.20785" lon="31.63045">
        <ele>181.593928</ele>
        <time>2021-08-21T21:06:32.627Z</time>
      </trkpt>
      <trkpt lat="41.20714" lon="31.62978">
        <ele>191.401367</ele>
        <time>2021-08-21T21:07:51.280Z</time>
      </trkpt>
      <trkpt lat="41.20708" lon="31.62964">
        <ele>192.799275</ele>
        <time>2021-08-21T21:08:04.290Z</time>
      </trkpt>
      <trkpt lat="41.20708" lon="31.62934">
        <ele>195.345423</ele>
        <time>2021-08-21T21:08:29.116Z</time>
      </trkpt>
      <trkpt lat="41.20722" lon="31.62906">
        <ele>198.435003</ele>
        <time>2021-08-21T21:08:58.886Z</time>
      </trkpt>
      <trkpt lat="41.20792" lon="31.62867">
        <ele>210.33949</ele>
        <time>2021-08-21T21:10:33.217Z</time>
      </trkpt>
      <trkpt lat="41.20834" lon="31.62815">
        <ele>219.320679</ele>
        <time>2021-08-21T21:11:45.502Z</time>
      </trkpt>
      <trkpt lat="41.20842" lon="31.62795">
        <ele>222.072311</ele>
        <time>2021-08-21T21:12:07.681Z</time>
      </trkpt>
      <trkpt lat="41.20846" lon="31.62745">
        <ele>227.511579</ele>
        <time>2021-08-21T21:12:53.385Z</time>
      </trkpt>
      <trkpt lat="41.20834" lon="31.62652">
        <ele>236.035438</ele>
        <time>2021-08-21T21:14:06.434Z</time>
      </trkpt>
      <trkpt lat="41.2082" lon="31.62587">
        <ele>242.088573</ele>
        <time>2021-08-21T21:14:55.458Z</time>
      </trkpt>
      <trkpt lat="41.20821" lon="31.62567">
        <ele>243.886765</ele>
        <time>2021-08-21T21:15:09.597Z</time>
      </trkpt>
      <trkpt lat="41.20835" lon="31.6255">
        <ele>246.13997</ele>
        <time>2021-08-21T21:15:25.515Z</time>
      </trkpt>
      <trkpt lat="41.20877" lon="31.6254">
        <ele>249.952207</ele>
        <time>2021-08-21T21:16:01.969Z</time>
      </trkpt>
      <trkpt lat="41.20883" lon="31.6251">
        <ele>251.809791</ele>
        <time>2021-08-21T21:16:19.560Z</time>
      </trkpt>
      <trkpt lat="41.20852" lon="31.62501">
        <ele>254.229041</ele>
        <time>2021-08-21T21:16:44.780Z</time>
      </trkpt>
      <trkpt lat="41.20837" lon="31.62502">
        <ele>255.425458</ele>
        <time>2021-08-21T21:16:56.791Z</time>
      </trkpt>
      <trkpt lat="41.20796" lon="31.62523">
        <ele>258.839631</ele>
        <time>2021-08-21T21:17:28.801Z</time>
      </trkpt>
      <trkpt lat="41.2076" lon="31.62641">
        <ele>262.995756</ele>
        <time>2021-08-21T21:18:32.218Z</time>
      </trkpt>
      <trkpt lat="41.20728" lon="31.62697">
        <ele>264.252127</ele>
        <time>2021-08-21T21:18:54.876Z</time>
      </trkpt>
      <trkpt lat="41.20711" lon="31.62712">
        <ele>264.730195</ele>
        <time>2021-08-21T21:19:01.928Z</time>
      </trkpt>
      <trkpt lat="41.20699" lon="31.62714">
        <ele>265.029039</ele>
        <time>2021-08-21T21:19:06.046Z</time>
      </trkpt>
      <trkpt lat="41.20667" lon="31.62701">
        <ele>265.795797</ele>
        <time>2021-08-21T21:19:15.822Z</time>
      </trkpt>
      <trkpt lat="41.20642" lon="31.62704">
        <ele>265.483294</ele>
        <time>2021-08-21T21:19:22.477Z</time>
      </trkpt>
      <trkpt lat="41.20614" lon="31.62731">
        <ele>265.061045</ele>
        <time>2021-08-21T21:19:30.843Z</time>
      </trkpt>
      <trkpt lat="41.20558" lon="31.62765">
        <ele>264.294563</ele>
        <time>2021-08-21T21:19:45.666Z</time>
      </trkpt>
      <trkpt lat="41.20545" lon="31.62768">
        <ele>264.138652</ele>
        <time>2021-08-21T21:19:49.857Z</time>
      </trkpt>
      <trkpt lat="41.20521" lon="31.6276">
        <ele>263.828866</ele>
        <time>2021-08-21T21:19:57.246Z</time>
      </trkpt>
      <trkpt lat="41.20483" lon="31.62735">
        <ele>263.979245</ele>
        <time>2021-08-21T21:20:14.322Z</time>
      </trkpt>
      <trkpt lat="41.20443" lon="31.62747">
        <ele>264.737824</ele>
        <time>2021-08-21T21:20:34.641Z</time>
      </trkpt>
      <trkpt lat="41.20421" lon="31.62738">
        <ele>265.163003</ele>
        <time>2021-08-21T21:20:42.672Z</time>
      </trkpt>
      <trkpt lat="41.20417" lon="31.62718">
        <ele>265.444452</ele>
        <time>2021-08-21T21:20:52.024Z</time>
      </trkpt>
      <trkpt lat="41.20388" lon="31.62693">
        <ele>266.077434</ele>
        <time>2021-08-21T21:21:05.325Z</time>
      </trkpt>
      <trkpt lat="41.20362" lon="31.62693">
        <ele>266.555094</ele>
        <time>2021-08-21T21:21:13.905Z</time>
      </trkpt>
      <trkpt lat="41.2031" lon="31.62698">
        <ele>267.806944</ele>
        <time>2021-08-21T21:21:40.952Z</time>
      </trkpt>
      <trkpt lat="41.20295" lon="31.62706">
        <ele>268.240754</ele>
        <time>2021-08-21T21:21:46.276Z</time>
      </trkpt>
      <trkpt lat="41.20274" lon="31.62735">
        <ele>269.049168</ele>
        <time>2021-08-21T21:22:03.712Z</time>
      </trkpt>
      <trkpt lat="41.20254" lon="31.62762">
        <ele>269.821059</ele>
        <time>2021-08-21T21:22:18.154Z</time>
      </trkpt>
      <trkpt lat="41.20254" lon="31.62752">
        <ele>270.033002</ele>
        <time>2021-08-21T21:22:21.254Z</time>
      </trkpt>
      <trkpt lat="41.20248" lon="31.62735">
        <ele>270.403615</ele>
        <time>2021-08-21T21:22:26.765Z</time>
      </trkpt>
      <trkpt lat="41.20242" lon="31.62721">
        <ele>270.718363</ele>
        <time>2021-08-21T21:22:33.732Z</time>
      </trkpt>
      <trkpt lat="41.20226" lon="31.62652">
        <ele>272.57771</ele>
        <time>2021-08-21T21:22:56.430Z</time>
      </trkpt>
      <trkpt lat="41.20204" lon="31.6262">
        <ele>274.220794</ele>
        <time>2021-08-21T21:23:13.696Z</time>
      </trkpt>
      <trkpt lat="41.20171" lon="31.62595">
        <ele>276.093534</ele>
        <time>2021-08-21T21:23:35.148Z</time>
      </trkpt>
      <trkpt lat="41.20161" lon="31.62587">
        <ele>276.659388</ele>
        <time>2021-08-21T21:23:42.632Z</time>
      </trkpt>
      <trkpt lat="41.20139" lon="31.62508">
        <ele>279.843083</ele>
        <time>2021-08-21T21:24:25.306Z</time>
      </trkpt>
      <trkpt lat="41.20123" lon="31.62493">
        <ele>280.860286</ele>
        <time>2021-08-21T21:24:38.904Z</time>
      </trkpt>
      <trkpt lat="41.20084" lon="31.62475">
        <ele>283.701674</ele>
        <time>2021-08-21T21:25:06.922Z</time>
      </trkpt>
      <trkpt lat="41.20033" lon="31.62358">
        <ele>290.809708</ele>
        <time>2021-08-21T21:26:19.828Z</time>
      </trkpt>
      <trkpt lat="41.20016" lon="31.62351">
        <ele>292.048042</ele>
        <time>2021-08-21T21:26:32.061Z</time>
      </trkpt>
      <trkpt lat="41.19957" lon="31.62344">
        <ele>294.478108</ele>
        <time>2021-08-21T21:27:16.454Z</time>
      </trkpt>
      <trkpt lat="41.19919" lon="31.62295">
        <ele>296.032558</ele>
        <time>2021-08-21T21:27:44.202Z</time>
      </trkpt>
      <trkpt lat="41.1991" lon="31.62279">
        <ele>296.484024</ele>
        <time>2021-08-21T21:27:54.824Z</time>
      </trkpt>
      <trkpt lat="41.19913" lon="31.62274">
        <ele>296.63023</ele>
        <time>2021-08-21T21:27:57.241Z</time>
      </trkpt>
      <trkpt lat="41.1992" lon="31.6227">
        <ele>296.848457</ele>
        <time>2021-08-21T21:27:59.335Z</time>
      </trkpt>
      <trkpt lat="41.1995" lon="31.62264">
        <ele>297.737147</ele>
        <time>2021-08-21T21:28:10.192Z</time>
      </trkpt>
      <trkpt lat="41.1997" lon="31.62253">
        <ele>298.375707</ele>
        <time>2021-08-21T21:28:15.108Z</time>
      </trkpt>
      <trkpt lat="41.20006" lon="31.62207">
        <ele>295.156217</ele>
        <time>2021-08-21T21:28:27.204Z</time>
      </trkpt>
      <trkpt lat="41.20007" lon="31.62201">
        <ele>294.825289</ele>
        <time>2021-08-21T21:28:28.208Z</time>
      </trkpt>
      <trkpt lat="41.20007" lon="31.62191">
        <ele>294.244368</ele>
        <time>2021-08-21T21:28:29.584Z</time>
      </trkpt>
      <trkpt lat="41.20003" lon="31.62084">
        <ele>288.076406</ele>
        <time>2021-08-21T21:28:45.383Z</time>
      </trkpt>
      <trkpt lat="41.20006" lon="31.62023">
        <ele>284.391689</ele>
        <time>2021-08-21T21:28:54.084Z</time>
      </trkpt>
      <trkpt lat="41.20002" lon="31.61992">
        <ele>281.343518</ele>
        <time>2021-08-21T21:28:58.478Z</time>
      </trkpt>
      <trkpt lat="41.19971" lon="31.61918">
        <ele>273.318234</ele>
        <time>2021-08-21T21:29:10.187Z</time>
      </trkpt>
      <trkpt lat="41.19956" lon="31.619">
        <ele>270.728039</ele>
        <time>2021-08-21T21:29:13.859Z</time>
      </trkpt>
      <trkpt lat="41.19946" lon="31.61897">
        <ele>269.456463</ele>
        <time>2021-08-21T21:29:15.752Z</time>
      </trkpt>
      <trkpt lat="41.19898" lon="31.61903">
        <ele>263.208491</ele>
        <time>2021-08-21T21:29:24.878Z</time>
      </trkpt>
      <trkpt lat="41.19888" lon="31.61901">
        <ele>261.961035</ele>
        <time>2021-08-21T21:29:26.606Z</time>
      </trkpt>
      <trkpt lat="41.19877" lon="31.61897">
        <ele>260.69822</ele>
        <time>2021-08-21T21:29:28.722Z</time>
      </trkpt>
      <trkpt lat="41.19871" lon="31.61893">
        <ele>259.917859</ele>
        <time>2021-08-21T21:29:30.035Z</time>
      </trkpt>
      <trkpt lat="41.19841" lon="31.61858">
        <ele>255.349167</ele>
        <time>2021-08-21T21:29:37.513Z</time>
      </trkpt>
      <trkpt lat="41.19837" lon="31.61853">
        <ele>254.699703</ele>
        <time>2021-08-21T21:29:38.588Z</time>
      </trkpt>
      <trkpt lat="41.19832" lon="31.6185">
        <ele>254.124976</ele>
        <time>2021-08-21T21:29:39.491Z</time>
      </trkpt>
      <trkpt lat="41.19757" lon="31.61851">
        <ele>245.562043</ele>
        <time>2021-08-21T21:29:53.457Z</time>
      </trkpt>
      <trkpt lat="41.19693" lon="31.61789">
        <ele>239.481343</ele>
        <time>2021-08-21T21:30:08.954Z</time>
      </trkpt>
      <trkpt lat="41.19623" lon="31.61677">
        <ele>234.643087</ele>
        <time>2021-08-21T21:30:33.363Z</time>
      </trkpt>
      <trkpt lat="41.19603" lon="31.61621">
        <ele>233.334124</ele>
        <time>2021-08-21T21:30:46.414Z</time>
      </trkpt>
      <trkpt lat="41.1958" lon="31.61573">
        <ele>233.123812</ele>
        <time>2021-08-21T21:31:00.384Z</time>
      </trkpt>
      <trkpt lat="41.19582" lon="31.61548">
        <ele>233.031819</ele>
        <time>2021-08-21T21:31:06.752Z</time>
      </trkpt>
      <trkpt lat="41.19595" lon="31.61536">
        <ele>232.953201</ele>
        <time>2021-08-21T21:31:12.679Z</time>
      </trkpt>
      <trkpt lat="41.19645" lon="31.61536">
        <ele>232.712845</ele>
        <time>2021-08-21T21:31:29.639Z</time>
      </trkpt>
      <trkpt lat="41.19717" lon="31.61569">
        <ele>228.932546</ele>
        <time>2021-08-21T21:31:49.271Z</time>
      </trkpt>
      <trkpt lat="41.1973" lon="31.61565">
        <ele>227.797261</ele>
        <time>2021-08-21T21:31:52.332Z</time>
      </trkpt>
      <trkpt lat="41.1973" lon="31.61529">
        <ele>225.502523</ele>
        <time>2021-08-21T21:31:57.979Z</time>
      </trkpt>
      <trkpt lat="41.19716" lon="31.61466">
        <ele>221.402524</ele>
        <time>2021-08-21T21:32:07.195Z</time>
      </trkpt>
      <trkpt lat="41.19696" lon="31.61425">
        <ele>218.296579</ele>
        <time>2021-08-21T21:32:14.029Z</time>
      </trkpt>
      <trkpt lat="41.19665" lon="31.61384">
        <ele>212.217172</ele>
        <time>2021-08-21T21:32:21.976Z</time>
      </trkpt>
      <trkpt lat="41.19651" lon="31.61356">
        <ele>208.359824</ele>
        <time>2021-08-21T21:32:26.628Z</time>
      </trkpt>
      <trkpt lat="41.19645" lon="31.61345">
        <ele>206.843265</ele>
        <time>2021-08-21T21:32:28.375Z</time>
      </trkpt>
      <trkpt lat="41.19615" lon="31.61305">
        <ele>200.351313</ele>
        <time>2021-08-21T21:32:36.055Z</time>
      </trkpt>
      <trkpt lat="41.19571" lon="31.61227">
        <ele>189.466505</ele>
        <time>2021-08-21T21:32:49.320Z</time>
      </trkpt>
      <trkpt lat="41.19552" lon="31.61163">
        <ele>184.396062</ele>
        <time>2021-08-21T21:32:58.970Z</time>
      </trkpt>
      <trkpt lat="41.19546" lon="31.61124">
        <ele>181.477519</ele>
        <time>2021-08-21T21:33:04.851Z</time>
      </trkpt>
      <trkpt lat="41.19547" lon="31.61068">
        <ele>177.396371</ele>
        <time>2021-08-21T21:33:13.329Z</time>
      </trkpt>
      <trkpt lat="41.19552" lon="31.61051">
        <ele>176.047212</ele>
        <time>2021-08-21T21:33:15.927Z</time>
      </trkpt>
      <trkpt lat="41.19578" lon="31.61009">
        <ele>172.084611</ele>
        <time>2021-08-21T21:33:24.108Z</time>
      </trkpt>
      <trkpt lat="41.19618" lon="31.60931">
        <ele>165.758173</ele>
        <time>2021-08-21T21:33:38.193Z</time>
      </trkpt>
      <trkpt lat="41.19623" lon="31.60906">
        <ele>164.075292</ele>
        <time>2021-08-21T21:33:42.264Z</time>
      </trkpt>
      <trkpt lat="41.19621" lon="31.60901">
        <ele>163.699081</ele>
        <time>2021-08-21T21:33:43.067Z</time>
      </trkpt>
      <trkpt lat="41.19619" lon="31.60896">
        <ele>163.30903</ele>
        <time>2021-08-21T21:33:43.853Z</time>
      </trkpt>
      <trkpt lat="41.19568" lon="31.60859">
        <ele>158.209108</ele>
        <time>2021-08-21T21:33:54.801Z</time>
      </trkpt>
      <trkpt lat="41.19524" lon="31.60842">
        <ele>153.710138</ele>
        <time>2021-08-21T21:34:03.707Z</time>
      </trkpt>
      <trkpt lat="41.19514" lon="31.60837">
        <ele>152.632419</ele>
        <time>2021-08-21T21:34:05.619Z</time>
      </trkpt>
      <trkpt lat="41.19511" lon="31.60836">
        <ele>152.320724</ele>
        <time>2021-08-21T21:34:06.151Z</time>
      </trkpt>
      <trkpt lat="41.19495" lon="31.60823">
        <ele>150.45756</ele>
        <time>2021-08-21T21:34:09.855Z</time>
      </trkpt>
      <trkpt lat="41.19474" lon="31.60792">
        <ele>147.201721</ele>
        <time>2021-08-21T21:34:15.791Z</time>
      </trkpt>
      <trkpt lat="41.19457" lon="31.60767">
        <ele>144.652333</ele>
        <time>2021-08-21T21:34:20.493Z</time>
      </trkpt>
      <trkpt lat="41.1945" lon="31.60734">
        <ele>142.019222</ele>
        <time>2021-08-21T21:34:25.592Z</time>
      </trkpt>
      <trkpt lat="41.19459" lon="31.60702">
        <ele>139.418555</ele>
        <time>2021-08-21T21:34:30.514Z</time>
      </trkpt>
      <trkpt lat="41.19475" lon="31.60674">
        <ele>137.292537</ele>
        <time>2021-08-21T21:34:35.505Z</time>
      </trkpt>
      <trkpt lat="41.19481" lon="31.60663">
        <ele>136.649178</ele>
        <time>2021-08-21T21:34:37.575Z</time>
      </trkpt>
      <trkpt lat="41.19522" lon="31.60597">
        <ele>132.72683</ele>
        <time>2021-08-21T21:34:50.664Z</time>
      </trkpt>
      <trkpt lat="41.19551" lon="31.60572">
        <ele>130.646671</ele>
        <time>2021-08-21T21:34:57.903Z</time>
      </trkpt>
      <trkpt lat="41.19565" lon="31.60562">
        <ele>129.663022</ele>
        <time>2021-08-21T21:35:01.219Z</time>
      </trkpt>
      <trkpt lat="41.19549" lon="31.60559">
        <ele>128.692563</ele>
        <time>2021-08-21T21:35:04.619Z</time>
      </trkpt>
      <trkpt lat="41.19499" lon="31.6053">
        <ele>126.330793</ele>
        <time>2021-08-21T21:35:16.445Z</time>
      </trkpt>
      <trkpt lat="41.19402" lon="31.60456">
        <ele>123.102337</ele>
        <time>2021-08-21T21:35:42.401Z</time>
      </trkpt>
      <trkpt lat="41.19384" lon="31.60447">
        <ele>122.553294</ele>
        <time>2021-08-21T21:35:47.326Z</time>
      </trkpt>
      <trkpt lat="41.19363" lon="31.60437">
        <ele>121.950377</ele>
        <time>2021-08-21T21:35:53.261Z</time>
      </trkpt>
      <trkpt lat="41.19256" lon="31.60406">
        <ele>120.077745</ele>
        <time>2021-08-21T21:36:21.415Z</time>
      </trkpt>
      <trkpt lat="41.1917" lon="31.60392">
        <ele>118.691635</ele>
        <time>2021-08-21T21:36:42.861Z</time>
      </trkpt>
      <trkpt lat="41.19161" lon="31.60389">
        <ele>118.580921</ele>
        <time>2021-08-21T21:36:44.995Z</time>
      </trkpt>
      <trkpt lat="41.19157" lon="31.60387">
        <ele>118.528567</ele>
        <time>2021-08-21T21:36:45.990Z</time>
      </trkpt>
      <trkpt lat="41.19123" lon="31.60363">
        <ele>118.061244</ele>
        <time>2021-08-21T21:36:55.320Z</time>
      </trkpt>
      <trkpt lat="41.19004" lon="31.60279">
        <ele>117.202209</ele>
        <time>2021-08-21T21:37:32.727Z</time>
      </trkpt>
      <trkpt lat="41.18998" lon="31.60273">
        <ele>117.329492</ele>
        <time>2021-08-21T21:37:35.492Z</time>
      </trkpt>
      <trkpt lat="41.1897" lon="31.60247">
        <ele>117.918804</ele>
        <time>2021-08-21T21:37:48.476Z</time>
      </trkpt>
      <trkpt lat="41.18954" lon="31.60229">
        <ele>118.273945</ele>
        <time>2021-08-21T21:37:56.694Z</time>
      </trkpt>
      <trkpt lat="41.18953" lon="31.60226">
        <ele>118.326699</ele>
        <time>2021-08-21T21:37:57.955Z</time>
      </trkpt>
      <trkpt lat="41.18948" lon="31.60203">
        <ele>118.63055</ele>
        <time>2021-08-21T21:38:06.071Z</time>
      </trkpt>
      <trkpt lat="41.18943" lon="31.60134">
        <ele>119.524491</ele>
        <time>2021-08-21T21:38:30.906Z</time>
      </trkpt>
      <trkpt lat="41.1894" lon="31.60105">
        <ele>119.972436</ele>
        <time>2021-08-21T21:38:42.190Z</time>
      </trkpt>
      <trkpt lat="41.18936" lon="31.60027">
        <ele>122.084366</ele>
        <time>2021-08-21T21:39:10.617Z</time>
      </trkpt>
      <trkpt lat="41.18937" lon="31.59999">
        <ele>122.861779</ele>
        <time>2021-08-21T21:39:20.348Z</time>
      </trkpt>
      <trkpt lat="41.18938" lon="31.59984">
        <ele>123.273908</ele>
        <time>2021-08-21T21:39:25.407Z</time>
      </trkpt>
      <trkpt lat="41.18949" lon="31.59915">
        <ele>125.161212</ele>
        <time>2021-08-21T21:39:51.626Z</time>
      </trkpt>
      <trkpt lat="41.18951" lon="31.59867">
        <ele>126.659961</ele>
        <time>2021-08-21T21:40:13.142Z</time>
      </trkpt>
      <trkpt lat="41.18941" lon="31.5984">
        <ele>128.424668</ele>
        <time>2021-08-21T21:40:27.441Z</time>
      </trkpt>
      <trkpt lat="41.18912" lon="31.59812">
        <ele>131.244433</ele>
        <time>2021-08-21T21:40:52.335Z</time>
      </trkpt>
      <trkpt lat="41.18906" lon="31.59793">
        <ele>132.44277</ele>
        <time>2021-08-21T21:41:02.985Z</time>
      </trkpt>
      <trkpt lat="41.18907" lon="31.59772">
        <ele>133.636769</ele>
        <time>2021-08-21T21:41:13.787Z</time>
      </trkpt>
      <trkpt lat="41.18926" lon="31.59707">
        <ele>137.709221</ele>
        <time>2021-08-21T21:41:55.652Z</time>
      </trkpt>
      <trkpt lat="41.18918" lon="31.596">
        <ele>145.644581</ele>
        <time>2021-08-21T21:43:08.969Z</time>
      </trkpt>
      <trkpt lat="41.18921" lon="31.59583">
        <ele>147.182251</ele>
        <time>2021-08-21T21:43:22.664Z</time>
      </trkpt>
      <trkpt lat="41.18933" lon="31.59559">
        <ele>149.562532</ele>
        <time>2021-08-21T21:43:44.703Z</time>
      </trkpt>
      <trkpt lat="41.18957" lon="31.59541">
        <ele>152.663124</ele>
        <time>2021-08-21T21:44:12.879Z</time>
      </trkpt>
      <trkpt lat="41.18965" lon="31.59527">
        <ele>154.162917</ele>
        <time>2021-08-21T21:44:25.629Z</time>
      </trkpt>
      <trkpt lat="41.18967" lon="31.59509">
        <ele>155.758635</ele>
        <time>2021-08-21T21:44:39.448Z</time>
      </trkpt>
      <trkpt lat="41.18957" lon="31.59355">
        <ele>167.401624</ele>
        <time>2021-08-21T21:46:23.495Z</time>
      </trkpt>
      <trkpt lat="41.18954" lon="31.59286">
        <ele>172.250378</ele>
        <time>2021-08-21T21:47:06.130Z</time>
      </trkpt>
      <trkpt lat="41.18939" lon="31.59168">
        <ele>180.235271</ele>
        <time>2021-08-21T21:48:15.901Z</time>
      </trkpt>
      <trkpt lat="41.1893" lon="31.59121">
        <ele>183.114208</ele>
        <time>2021-08-21T21:48:41.855Z</time>
      </trkpt>
      <trkpt lat="41.18938" lon="31.5909">
        <ele>185.124869</ele>
        <time>2021-08-21T21:49:00.872Z</time>
      </trkpt>
      <trkpt lat="41.18959" lon="31.58971">
        <ele>192.564491</ele>
        <time>2021-08-21T21:50:11.134Z</time>
      </trkpt>
      <trkpt lat="41.18969" lon="31.58857">
        <ele>200.636875</ele>
        <time>2021-08-21T21:51:24.539Z</time>
      </trkpt>
      <trkpt lat="41.19005" lon="31.58734">
        <ele>210.194469</ele>
        <time>2021-08-21T21:52:50.707Z</time>
      </trkpt>
      <trkpt lat="41.19003" lon="31.5871">
        <ele>212.161108</ele>
        <time>2021-08-21T21:53:06.946Z</time>
      </trkpt>
      <trkpt lat="41.18989" lon="31.58659">
        <ele>216.503921</ele>
        <time>2021-08-21T21:53:47.316Z</time>
      </trkpt>
      <trkpt lat="41.18964" lon="31.58607">
        <ele>221.516742</ele>
        <time>2021-08-21T21:54:31.664Z</time>
      </trkpt>
      <trkpt lat="41.18953" lon="31.58572">
        <ele>224.539252</ele>
        <time>2021-08-21T21:54:57.686Z</time>
      </trkpt>
      <trkpt lat="41.18951" lon="31.58539">
        <ele>227.255931</ele>
        <time>2021-08-21T21:55:19.996Z</time>
      </trkpt>
      <trkpt lat="41.1895" lon="31.58505">
        <ele>229.796203</ele>
        <time>2021-08-21T21:55:42.657Z</time>
      </trkpt>
      <trkpt lat="41.18953" lon="31.58488">
        <ele>231.067374</ele>
        <time>2021-08-21T21:55:55.991Z</time>
      </trkpt>
      <trkpt lat="41.1896" lon="31.58385">
        <ele>238.800451</ele>
        <time>2021-08-21T21:57:05.823Z</time>
      </trkpt>
      <trkpt lat="41.1897" lon="31.58341">
        <ele>242.233477</ele>
        <time>2021-08-21T21:57:38.079Z</time>
      </trkpt>
      <trkpt lat="41.1898" lon="31.58314">
        <ele>244.416186</ele>
        <time>2021-08-21T21:57:56.907Z</time>
      </trkpt>
      <trkpt lat="41.18986" lon="31.58298">
        <ele>245.664635</ele>
        <time>2021-08-21T21:58:08.911Z</time>
      </trkpt>
      <trkpt lat="41.19026" lon="31.58232">
        <ele>249.706706</ele>
        <time>2021-08-21T21:58:54.187Z</time>
      </trkpt>
      <trkpt lat="41.19033" lon="31.58212">
        <ele>250.72004</ele>
        <time>2021-08-21T21:59:04.788Z</time>
      </trkpt>
      <trkpt lat="41.19039" lon="31.5819">
        <ele>251.811589</ele>
        <time>2021-08-21T21:59:17.408Z</time>
      </trkpt>
      <trkpt lat="41.19024" lon="31.5819">
        <ele>252.729661</ele>
        <time>2021-08-21T21:59:27.136Z</time>
      </trkpt>
      <trkpt lat="41.18973" lon="31.58202">
        <ele>255.983318</ele>
        <time>2021-08-21T21:59:59.657Z</time>
      </trkpt>
      <trkpt lat="41.18802" lon="31.58187">
        <ele>261.362865</ele>
        <time>2021-08-21T22:01:21.409Z</time>
      </trkpt>
      <trkpt lat="41.18707" lon="31.58159">
        <ele>262.517986</ele>
        <time>2021-08-21T22:01:58.764Z</time>
      </trkpt>
      <trkpt lat="41.18665" lon="31.58163">
        <ele>262.819245</ele>
        <time>2021-08-21T22:02:12.837Z</time>
      </trkpt>
      <trkpt lat="41.18631" lon="31.58179">
        <ele>263.076613</ele>
        <time>2021-08-21T22:02:23.846Z</time>
      </trkpt>
      <trkpt lat="41.18606" lon="31.58172">
        <ele>263.259851</ele>
        <time>2021-08-21T22:02:31.433Z</time>
      </trkpt>
      <trkpt lat="41.18515" lon="31.58103">
        <ele>263.242038</ele>
        <time>2021-08-21T22:03:02.338Z</time>
      </trkpt>
      <trkpt lat="41.18498" lon="31.58096">
        <ele>263.237802</ele>
        <time>2021-08-21T22:03:08.328Z</time>
      </trkpt>
      <trkpt lat="41.18448" lon="31.58108">
        <ele>263.225567</ele>
        <time>2021-08-21T22:03:24.973Z</time>
      </trkpt>
      <trkpt lat="41.18428" lon="31.58109">
        <ele>263.039705</ele>
        <time>2021-08-21T22:03:32.150Z</time>
      </trkpt>
      <trkpt lat="41.18414" lon="31.58101">
        <ele>262.828987</ele>
        <time>2021-08-21T22:03:37.038Z</time>
      </trkpt>
      <trkpt lat="41.18391" lon="31.58077">
        <ele>262.412274</ele>
        <time>2021-08-21T22:03:46.246Z</time>
      </trkpt>
      <trkpt lat="41.18374" lon="31.5806">
        <ele>262.102539</ele>
        <time>2021-08-21T22:03:52.325Z</time>
      </trkpt>
      <trkpt lat="41.18279" lon="31.57991">
        <ele>260.44305</ele>
        <time>2021-08-21T22:04:18.556Z</time>
      </trkpt>
      <trkpt lat="41.18273" lon="31.57985">
        <ele>260.215003</ele>
        <time>2021-08-21T22:04:20.372Z</time>
      </trkpt>
      <trkpt lat="41.18259" lon="31.57975">
        <ele>259.753747</ele>
        <time>2021-08-21T22:04:23.518Z</time>
      </trkpt>
      <trkpt lat="41.18229" lon="31.57946">
        <ele>258.643957</ele>
        <time>2021-08-21T22:04:31.609Z</time>
      </trkpt>
      <trkpt lat="41.18171" lon="31.57906">
        <ele>256.667505</ele>
        <time>2021-08-21T22:04:46.401Z</time>
      </trkpt>
      <trkpt lat="41.18131" lon="31.57864">
        <ele>255.18583</ele>
        <time>2021-08-21T22:04:58.719Z</time>
      </trkpt>
      <trkpt lat="41.18121" lon="31.57857">
        <ele>255.011033</ele>
        <time>2021-08-21T22:05:00.901Z</time>
      </trkpt>
      <trkpt lat="41.18109" lon="31.5786">
        <ele>254.815047</ele>
        <time>2021-08-21T22:05:08.481Z</time>
      </trkpt>
      <trkpt lat="41.18069" lon="31.57888">
        <ele>254.108585</ele>
        <time>2021-08-21T22:05:21.672Z</time>
      </trkpt>
      <trkpt lat="41.18028" lon="31.57904">
        <ele>253.437466</ele>
        <time>2021-08-21T22:05:33.492Z</time>
      </trkpt>
      <trkpt lat="41.17994" lon="31.57906">
        <ele>252.889843</ele>
        <time>2021-08-21T22:05:43.059Z</time>
      </trkpt>
      <trkpt lat="41.17909" lon="31.57878">
        <ele>248.030828</ele>
        <time>2021-08-21T22:06:02.952Z</time>
      </trkpt>
      <trkpt lat="41.17696" lon="31.5771">
        <ele>227.345564</ele>
        <time>2021-08-21T22:06:50.040Z</time>
      </trkpt>
      <trkpt lat="41.1768" lon="31.57688">
        <ele>225.303134</ele>
        <time>2021-08-21T22:06:54.505Z</time>
      </trkpt>
      <trkpt lat="41.17679" lon="31.57657">
        <ele>223.253896</ele>
        <time>2021-08-21T22:06:59.101Z</time>
      </trkpt>
      <trkpt lat="41.17686" lon="31.57593">
        <ele>222.506087</ele>
        <time>2021-08-21T22:07:09.418Z</time>
      </trkpt>
      <trkpt lat="41.17697" lon="31.57558">
        <ele>222.560849</ele>
        <time>2021-08-21T22:07:16.271Z</time>
      </trkpt>
      <trkpt lat="41.17723" lon="31.57514">
        <ele>222.641471</ele>
        <time>2021-08-21T22:07:30.108Z</time>
      </trkpt>
      <trkpt lat="41.17732" lon="31.57487">
        <ele>222.684795</ele>
        <time>2021-08-21T22:07:40.621Z</time>
      </trkpt>
      <trkpt lat="41.17738" lon="31.57442">
        <ele>222.750559</ele>
        <time>2021-08-21T22:08:00.228Z</time>
      </trkpt>
      <trkpt lat="41.17735" lon="31.57414">
        <ele>223.552513</ele>
        <time>2021-08-21T22:08:14.139Z</time>
      </trkpt>
      <trkpt lat="41.17715" lon="31.57354">
        <ele>228.107641</ele>
        <time>2021-08-21T22:08:50.583Z</time>
      </trkpt>
      <trkpt lat="41.17718" lon="31.57302">
        <ele>231.664967</ele>
        <time>2021-08-21T22:09:25.617Z</time>
      </trkpt>
      <trkpt lat="41.17694" lon="31.57227">
        <ele>237.265003</ele>
        <time>2021-08-21T22:10:21.989Z</time>
      </trkpt>
      <trkpt lat="41.1768" lon="31.57214">
        <ele>238.831339</ele>
        <time>2021-08-21T22:10:37.042Z</time>
      </trkpt>
      <trkpt lat="41.17658" lon="31.57209">
        <ele>241.126556</ele>
        <time>2021-08-21T22:10:58.181Z</time>
      </trkpt>
      <trkpt lat="41.17644" lon="31.57197">
        <ele>242.804228</ele>
        <time>2021-08-21T22:11:11.382Z</time>
      </trkpt>
      <trkpt lat="41.17631" lon="31.5717">
        <ele>245.338225</ele>
        <time>2021-08-21T22:11:34.392Z</time>
      </trkpt>
      <trkpt lat="41.17555" lon="31.57174">
        <ele>253.354021</ele>
        <time>2021-08-21T22:12:41.359Z</time>
      </trkpt>
      <trkpt lat="41.1754" lon="31.57167">
        <ele>255.018363</ele>
        <time>2021-08-21T22:12:55.160Z</time>
      </trkpt>
      <trkpt lat="41.17518" lon="31.57136">
        <ele>258.391261</ele>
        <time>2021-08-21T22:13:24.205Z</time>
      </trkpt>
      <trkpt lat="41.17507" lon="31.57111">
        <ele>260.997484</ele>
        <time>2021-08-21T22:13:46.029Z</time>
      </trkpt>
      <trkpt lat="41.17502" lon="31.57078">
        <ele>263.948307</ele>
        <time>2021-08-21T22:14:07.563Z</time>
      </trkpt>
      <trkpt lat="41.17519" lon="31.56967">
        <ele>274.070506</ele>
        <time>2021-08-21T22:15:30.098Z</time>
      </trkpt>
      <trkpt lat="41.17502" lon="31.56806">
        <ele>289.177523</ele>
        <time>2021-08-21T22:17:41.239Z</time>
      </trkpt>
      <trkpt lat="41.17478" lon="31.5669">
        <ele>300.568438</ele>
        <time>2021-08-21T22:19:15.534Z</time>
      </trkpt>
      <trkpt lat="41.17466" lon="31.56661">
        <ele>302.831307</ele>
        <time>2021-08-21T22:19:38.973Z</time>
      </trkpt>
      <trkpt lat="41.17424" lon="31.56593">
        <ele>306.761657</ele>
        <time>2021-08-21T22:20:30.225Z</time>
      </trkpt>
      <trkpt lat="41.17401" lon="31.56567">
        <ele>308.599814</ele>
        <time>2021-08-21T22:20:49.435Z</time>
      </trkpt>
      <trkpt lat="41.17408" lon="31.56545">
        <ele>309.687275</ele>
        <time>2021-08-21T22:20:59.265Z</time>
      </trkpt>
      <trkpt lat="41.1741" lon="31.56539">
        <ele>309.994098</ele>
        <time>2021-08-21T22:21:02.007Z</time>
      </trkpt>
      <trkpt lat="41.17437" lon="31.56484">
        <ele>312.738101</ele>
        <time>2021-08-21T22:21:23.171Z</time>
      </trkpt>
      <trkpt lat="41.17443" lon="31.56458">
        <ele>312.402406</ele>
        <time>2021-08-21T22:21:30.352Z</time>
      </trkpt>
      <trkpt lat="41.17446" lon="31.56421">
        <ele>311.928622</ele>
        <time>2021-08-21T22:21:38.583Z</time>
      </trkpt>
      <trkpt lat="41.17448" lon="31.56239">
        <ele>309.655987</ele>
        <time>2021-08-21T22:22:10.117Z</time>
      </trkpt>
      <trkpt lat="41.17491" lon="31.56047">
        <ele>307.126059</ele>
        <time>2021-08-21T22:22:48.004Z</time>
      </trkpt>
      <trkpt lat="41.17494" lon="31.5601">
        <ele>306.790848</ele>
        <time>2021-08-21T22:22:56.082Z</time>
      </trkpt>
      <trkpt lat="41.1749" lon="31.55977">
        <ele>306.799358</ele>
        <time>2021-08-21T22:23:04.176Z</time>
      </trkpt>
      <trkpt lat="41.17478" lon="31.55944">
        <ele>306.808323</ele>
        <time>2021-08-21T22:23:12.604Z</time>
      </trkpt>
      <trkpt lat="41.17461" lon="31.55918">
        <ele>306.816987</ele>
        <time>2021-08-21T22:23:20.657Z</time>
      </trkpt>
      <trkpt lat="41.1743" lon="31.5588">
        <ele>306.830988</ele>
        <time>2021-08-21T22:23:34.658Z</time>
      </trkpt>
      <trkpt lat="41.17332" lon="31.55765">
        <ele>307.561764</ele>
        <time>2021-08-21T22:24:18.679Z</time>
      </trkpt>
      <trkpt lat="41.17129" lon="31.55546">
        <ele>311.196663</ele>
        <time>2021-08-21T22:25:58.285Z</time>
      </trkpt>
      <trkpt lat="41.17106" lon="31.55511">
        <ele>311.904425</ele>
        <time>2021-08-21T22:26:16.435Z</time>
      </trkpt>
      <trkpt lat="41.17089" lon="31.5544">
        <ele>313.237895</ele>
        <time>2021-08-21T22:26:45.827Z</time>
      </trkpt>
      <trkpt lat="41.17088" lon="31.55334">
        <ele>315.149692</ele>
        <time>2021-08-21T22:27:23.819Z</time>
      </trkpt>
      <trkpt lat="41.17097" lon="31.55258">
        <ele>314.890514</ele>
        <time>2021-08-21T22:27:43.541Z</time>
      </trkpt>
      <trkpt lat="41.17122" lon="31.55191">
        <ele>313.171365</ele>
        <time>2021-08-21T22:27:57.241Z</time>
      </trkpt>
      <trkpt lat="41.17193" lon="31.55034">
        <ele>308.476602</ele>
        <time>2021-08-21T22:28:26.103Z</time>
      </trkpt>
      <trkpt lat="41.17204" lon="31.54995">
        <ele>307.135821</ele>
        <time>2021-08-21T22:28:32.886Z</time>
      </trkpt>
      <trkpt lat="41.17221" lon="31.54915">
        <ele>304.522267</ele>
        <time>2021-08-21T22:28:46.469Z</time>
      </trkpt>
      <trkpt lat="41.17237" lon="31.54831">
        <ele>302.149244</ele>
        <time>2021-08-21T22:29:01.703Z</time>
      </trkpt>
      <trkpt lat="41.17272" lon="31.54629">
        <ele>298.020278</ele>
        <time>2021-08-21T22:29:39.958Z</time>
      </trkpt>
      <trkpt lat="41.1728" lon="31.54611">
        <ele>297.074788</ele>
        <time>2021-08-21T22:29:43.435Z</time>
      </trkpt>
      <trkpt lat="41.17342" lon="31.54537">
        <ele>292.08451</ele>
        <time>2021-08-21T22:30:00.897Z</time>
      </trkpt>
      <trkpt lat="41.17368" lon="31.54481">
        <ele>289.150835</ele>
        <time>2021-08-21T22:30:10.725Z</time>
      </trkpt>
      <trkpt lat="41.17376" lon="31.54442">
        <ele>287.319881</ele>
        <time>2021-08-21T22:30:16.748Z</time>
      </trkpt>
      <trkpt lat="41.17372" lon="31.54382">
        <ele>283.581487</ele>
        <time>2021-08-21T22:30:25.549Z</time>
      </trkpt>
      <trkpt lat="41.17326" lon="31.54107">
        <ele>266.894171</ele>
        <time>2021-08-21T22:31:07.125Z</time>
      </trkpt>
      <trkpt lat="41.17317" lon="31.54076">
        <ele>265.166178</ele>
        <time>2021-08-21T22:31:12.106Z</time>
      </trkpt>
      <trkpt lat="41.1731" lon="31.54022">
        <ele>262.288795</ele>
        <time>2021-08-21T22:31:20.401Z</time>
      </trkpt>
      <trkpt lat="41.17314" lon="31.5389">
        <ele>257.498728</ele>
        <time>2021-08-21T22:31:41.541Z</time>
      </trkpt>
      <trkpt lat="41.17309" lon="31.53865">
        <ele>256.801704</ele>
        <time>2021-08-21T22:31:45.969Z</time>
      </trkpt>
      <trkpt lat="41.17301" lon="31.53844">
        <ele>256.202624</ele>
        <time>2021-08-21T22:31:49.877Z</time>
      </trkpt>
      <trkpt lat="41.17276" lon="31.53785">
        <ele>254.393113</ele>
        <time>2021-08-21T22:32:01.920Z</time>
      </trkpt>
      <trkpt lat="41.17255" lon="31.53696">
        <ele>253.27214</ele>
        <time>2021-08-21T22:32:19.446Z</time>
      </trkpt>
      <trkpt lat="41.1725" lon="31.53586">
        <ele>253.063678</ele>
        <time>2021-08-21T22:32:45.304Z</time>
      </trkpt>
      <trkpt lat="41.17247" lon="31.53528">
        <ele>252.953227</ele>
        <time>2021-08-21T22:33:01.246Z</time>
      </trkpt>
      <trkpt lat="41.1723" lon="31.53244">
        <ele>253.328479</ele>
        <time>2021-08-21T22:34:17.826Z</time>
      </trkpt>
      <trkpt lat="41.17193" lon="31.52935">
        <ele>246.88424</ele>
        <time>2021-08-21T22:35:11.465Z</time>
      </trkpt>
      <trkpt lat="41.17165" lon="31.52771">
        <ele>243.436554</ele>
        <time>2021-08-21T22:35:40.247Z</time>
      </trkpt>
      <trkpt lat="41.17151" lon="31.52722">
        <ele>243.170261</ele>
        <time>2021-08-21T22:35:50.304Z</time>
      </trkpt>
      <trkpt lat="41.17117" lon="31.52634">
        <ele>242.655307</ele>
        <time>2021-08-21T22:36:12.690Z</time>
      </trkpt>
      <trkpt lat="41.17074" lon="31.52532">
        <ele>243.125334</ele>
        <time>2021-08-21T22:36:46.023Z</time>
      </trkpt>
      <trkpt lat="41.17029" lon="31.52445">
        <ele>244.394335</ele>
        <time>2021-08-21T22:37:17.002Z</time>
      </trkpt>
      <trkpt lat="41.16955" lon="31.52246">
        <ele>249.500562</ele>
        <time>2021-08-21T22:38:31.917Z</time>
      </trkpt>
      <trkpt lat="41.1694" lon="31.52186">
        <ele>251.275955</ele>
        <time>2021-08-21T22:39:00.372Z</time>
      </trkpt>
      <trkpt lat="41.16909" lon="31.52118">
        <ele>254.76415</ele>
        <time>2021-08-21T22:39:41.146Z</time>
      </trkpt>
      <trkpt lat="41.16862" lon="31.51987">
        <ele>262.136036</ele>
        <time>2021-08-21T22:41:01.586Z</time>
      </trkpt>
      <trkpt lat="41.16827" lon="31.51932">
        <ele>264.82611</ele>
        <time>2021-08-21T22:41:38.244Z</time>
      </trkpt>
      <trkpt lat="41.16801" lon="31.51878">
        <ele>266.130216</ele>
        <time>2021-08-21T22:42:04.155Z</time>
      </trkpt>
      <trkpt lat="41.16791" lon="31.5182">
        <ele>267.35528</ele>
        <time>2021-08-21T22:42:24.703Z</time>
      </trkpt>
      <trkpt lat="41.16791" lon="31.51793">
        <ele>267.899222</ele>
        <time>2021-08-21T22:42:33.745Z</time>
      </trkpt>
      <trkpt lat="41.16797" lon="31.51677">
        <ele>267.785368</ele>
        <time>2021-08-21T22:42:57.672Z</time>
      </trkpt>
      <trkpt lat="41.16801" lon="31.51568">
        <ele>265.480506</ele>
        <time>2021-08-21T22:43:16.314Z</time>
      </trkpt>
      <trkpt lat="41.16799" lon="31.51531">
        <ele>264.701411</ele>
        <time>2021-08-21T22:43:22.344Z</time>
      </trkpt>
      <trkpt lat="41.16823" lon="31.51502">
        <ele>263.938482</ele>
        <time>2021-08-21T22:43:29.754Z</time>
      </trkpt>
      <trkpt lat="41.16848" lon="31.51479">
        <ele>263.6</ele>
        <time>2021-08-21T22:43:36.869Z</time>
      </trkpt>
      <trkpt lat="41.16917" lon="31.51435">
        <ele>262.745023</ele>
        <time>2021-08-21T22:43:56.015Z</time>
      </trkpt>
      <trkpt lat="41.16933" lon="31.51419">
        <ele>262.519753</ele>
        <time>2021-08-21T22:44:02.170Z</time>
      </trkpt>
      <trkpt lat="41.16975" lon="31.51355">
        <ele>262.850842</ele>
        <time>2021-08-21T22:44:30.419Z</time>
      </trkpt>
      <trkpt lat="41.16994" lon="31.51337">
        <ele>263.893598</ele>
        <time>2021-08-21T22:44:43.295Z</time>
      </trkpt>
      <trkpt lat="41.171" lon="31.51291">
        <ele>268.809094</ele>
        <time>2021-08-21T22:45:55.424Z</time>
      </trkpt>
      <trkpt lat="41.17127" lon="31.51271">
        <ele>269.970722</ele>
        <time>2021-08-21T22:46:14.498Z</time>
      </trkpt>
      <trkpt lat="41.17207" lon="31.51192">
        <ele>270.208383</ele>
        <time>2021-08-21T22:47:01.645Z</time>
      </trkpt>
      <trkpt lat="41.17226" lon="31.51187">
        <ele>270.254571</ele>
        <time>2021-08-21T22:47:06.396Z</time>
      </trkpt>
      <trkpt lat="41.17284" lon="31.51137">
        <ele>269.111436</ele>
        <time>2021-08-21T22:47:22.033Z</time>
      </trkpt>
      <trkpt lat="41.1733" lon="31.51109">
        <ele>264.369524</ele>
        <time>2021-08-21T22:47:32.029Z</time>
      </trkpt>
      <trkpt lat="41.1738" lon="31.51092">
        <ele>259.460419</ele>
        <time>2021-08-21T22:47:41.833Z</time>
      </trkpt>
      <trkpt lat="41.17495" lon="31.51054">
        <ele>246.072311</ele>
        <time>2021-08-21T22:48:03.760Z</time>
      </trkpt>
      <trkpt lat="41.1751" lon="31.51047">
        <ele>243.889548</ele>
        <time>2021-08-21T22:48:06.688Z</time>
      </trkpt>
      <trkpt lat="41.17522" lon="31.51034">
        <ele>241.793762</ele>
        <time>2021-08-21T22:48:09.496Z</time>
      </trkpt>
      <trkpt lat="41.17528" lon="31.51016">
        <ele>239.757172</ele>
        <time>2021-08-21T22:48:12.232Z</time>
      </trkpt>
      <trkpt lat="41.17548" lon="31.50898">
        <ele>228.070949</ele>
        <time>2021-08-21T22:48:28.872Z</time>
      </trkpt>
      <trkpt lat="41.1756" lon="31.50845">
        <ele>224.714454</ele>
        <time>2021-08-21T22:48:36.585Z</time>
      </trkpt>
      <trkpt lat="41.17568" lon="31.50817">
        <ele>222.887117</ele>
        <time>2021-08-21T22:48:40.854Z</time>
      </trkpt>
      <trkpt lat="41.17583" lon="31.50784">
        <ele>220.529764</ele>
        <time>2021-08-21T22:48:46.430Z</time>
      </trkpt>
      <trkpt lat="41.17603" lon="31.50742">
        <ele>217.485601</ele>
        <time>2021-08-21T22:48:53.813Z</time>
      </trkpt>
      <trkpt lat="41.17991" lon="31.49918">
        <ele>214.37223</ele>
        <time>2021-08-21T22:52:42.756Z</time>
      </trkpt>
      <trkpt lat="41.18064" lon="31.49811">
        <ele>215.650334</ele>
        <time>2021-08-21T22:53:24.332Z</time>
      </trkpt>
      <trkpt lat="41.18075" lon="31.49788">
        <ele>215.948447</ele>
        <time>2021-08-21T22:53:32.492Z</time>
      </trkpt>
      <trkpt lat="41.1813" lon="31.49513">
        <ele>219.480918</ele>
        <time>2021-08-21T22:55:02.297Z</time>
      </trkpt>
      <trkpt lat="41.1826" lon="31.49388">
        <ele>221.4265</ele>
        <time>2021-08-21T22:56:03.765Z</time>
      </trkpt>
      <trkpt lat="41.18282" lon="31.49355">
        <ele>221.769006</ele>
        <time>2021-08-21T22:56:15.013Z</time>
      </trkpt>
      <trkpt lat="41.18325" lon="31.49196">
        <ele>222.651539</ele>
        <time>2021-08-21T22:56:58.190Z</time>
      </trkpt>
      <trkpt lat="41.18365" lon="31.49059">
        <ele>223.306286</ele>
        <time>2021-08-21T22:57:36.660Z</time>
      </trkpt>
      <trkpt lat="41.1837" lon="31.49035">
        <ele>223.415518</ele>
        <time>2021-08-21T22:57:43.453Z</time>
      </trkpt>
      <trkpt lat="41.18368" lon="31.49016">
        <ele>223.495605</ele>
        <time>2021-08-21T22:57:48.493Z</time>
      </trkpt>
      <trkpt lat="41.18321" lon="31.48884">
        <ele>224.124331</ele>
        <time>2021-08-21T22:58:27.035Z</time>
      </trkpt>
      <trkpt lat="41.18313" lon="31.4885">
        <ele>224.033017</ele>
        <time>2021-08-21T22:58:35.438Z</time>
      </trkpt>
      <trkpt lat="41.18316" lon="31.48785">
        <ele>223.704129</ele>
        <time>2021-08-21T22:58:50.285Z</time>
      </trkpt>
      <trkpt lat="41.18338" lon="31.48625">
        <ele>222.742225</ele>
        <time>2021-08-21T22:59:23.456Z</time>
      </trkpt>
      <trkpt lat="41.18282" lon="31.48416">
        <ele>219.679129</ele>
        <time>2021-08-21T23:00:04.505Z</time>
      </trkpt>
      <trkpt lat="41.18279" lon="31.48384">
        <ele>219.488622</ele>
        <time>2021-08-21T23:00:10.490Z</time>
      </trkpt>
      <trkpt lat="41.18287" lon="31.48339">
        <ele>219.245051</ele>
        <time>2021-08-21T23:00:19.298Z</time>
      </trkpt>
      <trkpt lat="41.18362" lon="31.48156">
        <ele>218.882209</ele>
        <time>2021-08-21T23:01:06.253Z</time>
      </trkpt>
      <trkpt lat="41.18368" lon="31.48115">
        <ele>219.339569</ele>
        <time>2021-08-21T23:01:19.951Z</time>
      </trkpt>
      <trkpt lat="41.18364" lon="31.48081">
        <ele>219.710006</ele>
        <time>2021-08-21T23:01:30.832Z</time>
      </trkpt>
      <trkpt lat="41.18324" lon="31.47945">
        <ele>221.230949</ele>
        <time>2021-08-21T23:02:16.967Z</time>
      </trkpt>
      <trkpt lat="41.18315" lon="31.47925">
        <ele>221.440782</ele>
        <time>2021-08-21T23:02:25.143Z</time>
      </trkpt>
      <trkpt lat="41.18299" lon="31.47913">
        <ele>221.660843</ele>
        <time>2021-08-21T23:02:31.616Z</time>
      </trkpt>
      <trkpt lat="41.18214" lon="31.47904">
        <ele>222.677197</ele>
        <time>2021-08-21T23:03:05.055Z</time>
      </trkpt>
      <trkpt lat="41.18208" lon="31.479">
        <ele>222.766342</ele>
        <time>2021-08-21T23:03:07.060Z</time>
      </trkpt>
      <trkpt lat="41.18198" lon="31.47895">
        <ele>222.89034</ele>
        <time>2021-08-21T23:03:10.383Z</time>
      </trkpt>
      <trkpt lat="41.18173" lon="31.47861">
        <ele>223.004747</ele>
        <time>2021-08-21T23:03:22.207Z</time>
      </trkpt>
      <trkpt lat="41.18165" lon="31.4784">
        <ele>222.866882</ele>
        <time>2021-08-21T23:03:27.296Z</time>
      </trkpt>
      <trkpt lat="41.18162" lon="31.47815">
        <ele>222.714472</ele>
        <time>2021-08-21T23:03:32.498Z</time>
      </trkpt>
      <trkpt lat="41.18167" lon="31.47794">
        <ele>222.581539</ele>
        <time>2021-08-21T23:03:37.555Z</time>
      </trkpt>
      <trkpt lat="41.182" lon="31.47739">
        <ele>222.165646</ele>
        <time>2021-08-21T23:03:51.986Z</time>
      </trkpt>
      <trkpt lat="41.18207" lon="31.47714">
        <ele>222.004902</ele>
        <time>2021-08-21T23:03:58.046Z</time>
      </trkpt>
      <trkpt lat="41.18233" lon="31.47431">
        <ele>217.997902</ele>
        <time>2021-08-21T23:04:51.393Z</time>
      </trkpt>
      <trkpt lat="41.18254" lon="31.47347">
        <ele>214.832454</ele>
        <time>2021-08-21T23:05:06.198Z</time>
      </trkpt>
      <trkpt lat="41.18285" lon="31.47248">
        <ele>210.927115</ele>
        <time>2021-08-21T23:05:23.155Z</time>
      </trkpt>
      <trkpt lat="41.18308" lon="31.47137">
        <ele>206.000564</ele>
        <time>2021-08-21T23:05:40.680Z</time>
      </trkpt>
      <trkpt lat="41.18345" lon="31.46914">
        <ele>196.054318</ele>
        <time>2021-08-21T23:06:15.816Z</time>
      </trkpt>
      <trkpt lat="41.18339" lon="31.46848">
        <ele>193.99042</ele>
        <time>2021-08-21T23:06:26.371Z</time>
      </trkpt>
      <trkpt lat="41.1829" lon="31.46719">
        <ele>190.323221</ele>
        <time>2021-08-21T23:06:51.658Z</time>
      </trkpt>
      <trkpt lat="41.18283" lon="31.46695">
        <ele>190.28349</ele>
        <time>2021-08-21T23:06:56.787Z</time>
      </trkpt>
      <trkpt lat="41.18278" lon="31.46664">
        <ele>190.236017</ele>
        <time>2021-08-21T23:07:03.246Z</time>
      </trkpt>
      <trkpt lat="41.18275" lon="31.46463">
        <ele>190.965326</ele>
        <time>2021-08-21T23:07:56.587Z</time>
      </trkpt>
      <trkpt lat="41.18271" lon="31.46331">
        <ele>193.575759</ele>
        <time>2021-08-21T23:08:44.054Z</time>
      </trkpt>
      <trkpt lat="41.18269" lon="31.46232">
        <ele>195.820227</ele>
        <time>2021-08-21T23:09:23.252Z</time>
      </trkpt>
      <trkpt lat="41.18262" lon="31.4613">
        <ele>198.574386</ele>
        <time>2021-08-21T23:10:04.203Z</time>
      </trkpt>
      <trkpt lat="41.18251" lon="31.46097">
        <ele>199.546901</ele>
        <time>2021-08-21T23:10:18.309Z</time>
      </trkpt>
      <trkpt lat="41.18222" lon="31.46042">
        <ele>201.315686</ele>
        <time>2021-08-21T23:10:43.061Z</time>
      </trkpt>
      <trkpt lat="41.1822" lon="31.46022">
        <ele>201.722881</ele>
        <time>2021-08-21T23:10:50.232Z</time>
      </trkpt>
      <trkpt lat="41.18259" lon="31.45899">
        <ele>204.397549</ele>
        <time>2021-08-21T23:11:36.045Z</time>
      </trkpt>
      <trkpt lat="41.18254" lon="31.45882">
        <ele>204.76772</ele>
        <time>2021-08-21T23:11:42.219Z</time>
      </trkpt>
      <trkpt lat="41.18172" lon="31.45779">
        <ele>208.269906</ele>
        <time>2021-08-21T23:12:33.297Z</time>
      </trkpt>
      <trkpt lat="41.18164" lon="31.45757">
        <ele>208.869662</ele>
        <time>2021-08-21T23:12:41.700Z</time>
      </trkpt>
      <trkpt lat="41.18199" lon="31.45459">
        <ele>216.652781</ele>
        <time>2021-08-21T23:14:44.670Z</time>
      </trkpt>
      <trkpt lat="41.18202" lon="31.45425">
        <ele>217.549014</ele>
        <time>2021-08-21T23:14:57.211Z</time>
      </trkpt>
      <trkpt lat="41.18201" lon="31.45402">
        <ele>218.144749</ele>
        <time>2021-08-21T23:15:05.462Z</time>
      </trkpt>
      <trkpt lat="41.18177" lon="31.45336">
        <ele>217.378734</ele>
        <time>2021-08-21T23:15:26.771Z</time>
      </trkpt>
      <trkpt lat="41.18107" lon="31.45206">
        <ele>215.263453</ele>
        <time>2021-08-21T23:15:55.406Z</time>
      </trkpt>
      <trkpt lat="41.18089" lon="31.4515">
        <ele>212.787881</ele>
        <time>2021-08-21T23:16:04.676Z</time>
      </trkpt>
      <trkpt lat="41.18078" lon="31.4505">
        <ele>208.056483</ele>
        <time>2021-08-21T23:16:19.892Z</time>
      </trkpt>
      <trkpt lat="41.18062" lon="31.44974">
        <ele>204.324827</ele>
        <time>2021-08-21T23:16:31.989Z</time>
      </trkpt>
      <trkpt lat="41.18039" lon="31.44921">
        <ele>202.519777</ele>
        <time>2021-08-21T23:16:41.459Z</time>
      </trkpt>
      <trkpt lat="41.17998" lon="31.44852">
        <ele>200.142522</ele>
        <time>2021-08-21T23:16:56.151Z</time>
      </trkpt>
      <trkpt lat="41.17992" lon="31.44835">
        <ele>199.634367</ele>
        <time>2021-08-21T23:16:59.606Z</time>
      </trkpt>
      <trkpt lat="41.17991" lon="31.44817">
        <ele>199.142848</ele>
        <time>2021-08-21T23:17:03.039Z</time>
      </trkpt>
      <trkpt lat="41.18006" lon="31.44686">
        <ele>195.994104</ele>
        <time>2021-08-21T23:17:28.385Z</time>
      </trkpt>
      <trkpt lat="41.18006" lon="31.44659">
        <ele>195.432917</ele>
        <time>2021-08-21T23:17:33.084Z</time>
      </trkpt>
      <trkpt lat="41.17992" lon="31.4459">
        <ele>193.961448</ele>
        <time>2021-08-21T23:17:45.709Z</time>
      </trkpt>
      <trkpt lat="41.17976" lon="31.44517">
        <ele>192.41421</ele>
        <time>2021-08-21T23:17:58.347Z</time>
      </trkpt>
      <trkpt lat="41.17917" lon="31.4438">
        <ele>189.515842</ele>
        <time>2021-08-21T23:18:24.999Z</time>
      </trkpt>
      <trkpt lat="41.17884" lon="31.44289">
        <ele>188.765527</ele>
        <time>2021-08-21T23:18:46.721Z</time>
      </trkpt>
      <trkpt lat="41.1785" lon="31.44228">
        <ele>190.51209</ele>
        <time>2021-08-21T23:19:10.891Z</time>
      </trkpt>
      <trkpt lat="41.17837" lon="31.44181">
        <ele>191.674119</ele>
        <time>2021-08-21T23:19:30.356Z</time>
      </trkpt>
      <trkpt lat="41.17809" lon="31.4396">
        <ele>199.241122</ele>
        <time>2021-08-21T23:21:14.945Z</time>
      </trkpt>
      <trkpt lat="41.17807" lon="31.43893">
        <ele>201.922304</ele>
        <time>2021-08-21T23:21:46.346Z</time>
      </trkpt>
      <trkpt lat="41.17797" lon="31.43848">
        <ele>203.686805</ele>
        <time>2021-08-21T23:22:07.727Z</time>
      </trkpt>
      <trkpt lat="41.17787" lon="31.43756">
        <ele>206.356003</ele>
        <time>2021-08-21T23:22:46.828Z</time>
      </trkpt>
      <trkpt lat="41.17785" lon="31.4367">
        <ele>208.825662</ele>
        <time>2021-08-21T23:23:19.648Z</time>
      </trkpt>
      <trkpt lat="41.17792" lon="31.43636">
        <ele>209.827208</ele>
        <time>2021-08-21T23:23:32.119Z</time>
      </trkpt>
      <trkpt lat="41.1781" lon="31.43429">
        <ele>213.874936</ele>
        <time>2021-08-21T23:24:42.635Z</time>
      </trkpt>
      <trkpt lat="41.17788" lon="31.43251">
        <ele>216.802155</ele>
        <time>2021-08-21T23:25:43.324Z</time>
      </trkpt>
      <trkpt lat="41.17788" lon="31.43155">
        <ele>218.269455</ele>
        <time>2021-08-21T23:26:13.358Z</time>
      </trkpt>
      <trkpt lat="41.17796" lon="31.43079">
        <ele>218.044402</ele>
        <time>2021-08-21T23:26:34.331Z</time>
      </trkpt>
      <trkpt lat="41.17798" lon="31.43008">
        <ele>217.722608</ele>
        <time>2021-08-21T23:26:49.898Z</time>
      </trkpt>
      <trkpt lat="41.17803" lon="31.42981">
        <ele>217.59619</ele>
        <time>2021-08-21T23:26:55.435Z</time>
      </trkpt>
      <trkpt lat="41.17823" lon="31.42931">
        <ele>217.339992</ele>
        <time>2021-08-21T23:27:06.047Z</time>
      </trkpt>
      <trkpt lat="41.17836" lon="31.42888">
        <ele>216.233219</ele>
        <time>2021-08-21T23:27:14.342Z</time>
      </trkpt>
      <trkpt lat="41.17839" lon="31.42849">
        <ele>215.018435</ele>
        <time>2021-08-21T23:27:21.068Z</time>
      </trkpt>
      <trkpt lat="41.17836" lon="31.42814">
        <ele>213.947739</ele>
        <time>2021-08-21T23:27:26.859Z</time>
      </trkpt>
      <trkpt lat="41.17825" lon="31.42773">
        <ele>212.593326</ele>
        <time>2021-08-21T23:27:33.994Z</time>
      </trkpt>
      <trkpt lat="41.178" lon="31.42731">
        <ele>210.947</ele>
        <time>2021-08-21T23:27:42.484Z</time>
      </trkpt>
      <trkpt lat="41.17766" lon="31.42692">
        <ele>208.765204</ele>
        <time>2021-08-21T23:27:51.822Z</time>
      </trkpt>
      <trkpt lat="41.1773" lon="31.4267">
        <ele>206.400855</ele>
        <time>2021-08-21T23:28:00.163Z</time>
      </trkpt>
      <trkpt lat="41.17708" lon="31.42643">
        <ele>204.623394</ele>
        <time>2021-08-21T23:28:06.364Z</time>
      </trkpt>
      <trkpt lat="41.17674" lon="31.42614">
        <ele>202.244389</ele>
        <time>2021-08-21T23:28:14.604Z</time>
      </trkpt>
      <trkpt lat="41.1762" lon="31.42588">
        <ele>198.903399</ele>
        <time>2021-08-21T23:28:26.212Z</time>
      </trkpt>
      <trkpt lat="41.17556" lon="31.42577">
        <ele>195.352819</ele>
        <time>2021-08-21T23:28:39.402Z</time>
      </trkpt>
      <trkpt lat="41.17499" lon="31.42567">
        <ele>192.140024</ele>
        <time>2021-08-21T23:28:51.513Z</time>
      </trkpt>
      <trkpt lat="41.17477" lon="31.42555">
        <ele>190.827208</ele>
        <time>2021-08-21T23:28:56.545Z</time>
      </trkpt>
      <trkpt lat="41.17399" lon="31.42456">
        <ele>185.963089</ele>
        <time>2021-08-21T23:29:19.699Z</time>
      </trkpt>
      <trkpt lat="41.17342" lon="31.42423">
        <ele>183.372679</ele>
        <time>2021-08-21T23:29:33.318Z</time>
      </trkpt>
      <trkpt lat="41.17307" lon="31.42414">
        <ele>181.867164</ele>
        <time>2021-08-21T23:29:41.234Z</time>
      </trkpt>
      <trkpt lat="41.17268" lon="31.42428">
        <ele>180.069753</ele>
        <time>2021-08-21T23:29:50.184Z</time>
      </trkpt>
      <trkpt lat="41.17252" lon="31.42423">
        <ele>179.342481</ele>
        <time>2021-08-21T23:29:53.810Z</time>
      </trkpt>
      <trkpt lat="41.17239" lon="31.42406">
        <ele>178.527907</ele>
        <time>2021-08-21T23:29:57.877Z</time>
      </trkpt>
      <trkpt lat="41.17239" lon="31.42385">
        <ele>177.817606</ele>
        <time>2021-08-21T23:30:01.458Z</time>
      </trkpt>
      <trkpt lat="41.17267" lon="31.42311">
        <ele>175.02458</ele>
        <time>2021-08-21T23:30:15.098Z</time>
      </trkpt>
      <trkpt lat="41.17269" lon="31.42246">
        <ele>171.98899</ele>
        <time>2021-08-21T23:30:25.224Z</time>
      </trkpt>
      <trkpt lat="41.17275" lon="31.4223">
        <ele>170.904661</ele>
        <time>2021-08-21T23:30:27.879Z</time>
      </trkpt>
      <trkpt lat="41.17326" lon="31.42197">
        <ele>166.206028</ele>
        <time>2021-08-21T23:30:39.225Z</time>
      </trkpt>
      <trkpt lat="41.17333" lon="31.42184">
        <ele>165.159764</ele>
        <time>2021-08-21T23:30:41.635Z</time>
      </trkpt>
      <trkpt lat="41.17353" lon="31.4215">
        <ele>162.47448</ele>
        <time>2021-08-21T23:30:47.864Z</time>
      </trkpt>
      <trkpt lat="41.1737" lon="31.42128">
        <ele>160.566982</ele>
        <time>2021-08-21T23:30:52.264Z</time>
      </trkpt>
      <trkpt lat="41.17415" lon="31.42097">
        <ele>155.213863</ele>
        <time>2021-08-21T23:31:01.906Z</time>
      </trkpt>
      <trkpt lat="41.1743" lon="31.42067">
        <ele>151.979522</ele>
        <time>2021-08-21T23:31:07.012Z</time>
      </trkpt>
      <trkpt lat="41.17419" lon="31.42056">
        <ele>150.32443</ele>
        <time>2021-08-21T23:31:09.696Z</time>
      </trkpt>
      <trkpt lat="41.17409" lon="31.4203">
        <ele>147.750177</ele>
        <time>2021-08-21T23:31:13.932Z</time>
      </trkpt>
      <trkpt lat="41.17397" lon="31.42017">
        <ele>145.902821</ele>
        <time>2021-08-21T23:31:16.939Z</time>
      </trkpt>
      <trkpt lat="41.17333" lon="31.42005">
        <ele>138.322173</ele>
        <time>2021-08-21T23:31:29.385Z</time>
      </trkpt>
      <trkpt lat="41.17329" lon="31.41995">
        <ele>137.272899</ele>
        <time>2021-08-21T23:31:31.083Z</time>
      </trkpt>
      <trkpt lat="41.17343" lon="31.41911">
        <ele>129.632659</ele>
        <time>2021-08-21T23:31:43.794Z</time>
      </trkpt>
      <trkpt lat="41.17336" lon="31.4189">
        <ele>127.63413</ele>
        <time>2021-08-21T23:31:47.153Z</time>
      </trkpt>
      <trkpt lat="41.17319" lon="31.41863">
        <ele>124.457518</ele>
        <time>2021-08-21T23:31:52.486Z</time>
      </trkpt>
      <trkpt lat="41.17318" lon="31.41841">
        <ele>122.522879</ele>
        <time>2021-08-21T23:31:55.721Z</time>
      </trkpt>
      <trkpt lat="41.17288" lon="31.41817">
        <ele>118.430736</ele>
        <time>2021-08-21T23:32:02.496Z</time>
      </trkpt>
      <trkpt lat="41.17279" lon="31.41781">
        <ele>115.268941</ele>
        <time>2021-08-21T23:32:07.995Z</time>
      </trkpt>
      <trkpt lat="41.17261" lon="31.41762">
        <ele>112.801321</ele>
        <time>2021-08-21T23:32:12.605Z</time>
      </trkpt>
      <trkpt lat="41.17267" lon="31.41709">
        <ele>108.544836</ele>
        <time>2021-08-21T23:32:20.617Z</time>
      </trkpt>
      <trkpt lat="41.17277" lon="31.41672">
        <ele>105.448881</ele>
        <time>2021-08-21T23:32:26.476Z</time>
      </trkpt>
      <trkpt lat="41.17263" lon="31.41638">
        <ele>102.388067</ele>
        <time>2021-08-21T23:32:32.268Z</time>
      </trkpt>
      <trkpt lat="41.17252" lon="31.41564">
        <ele>96.728864</ele>
        <time>2021-08-21T23:32:43.604Z</time>
      </trkpt>
      <trkpt lat="41.17234" lon="31.41536">
        <ele>94.444319</ele>
        <time>2021-08-21T23:32:49.307Z</time>
      </trkpt>
      <trkpt lat="41.17192" lon="31.41416">
        <ele>86.40045</ele>
        <time>2021-08-21T23:33:09.870Z</time>
      </trkpt>
      <trkpt lat="41.17168" lon="31.41371">
        <ele>83.046509</ele>
        <time>2021-08-21T23:33:18.568Z</time>
      </trkpt>
      <trkpt lat="41.17161" lon="31.41348">
        <ele>82.006317</ele>
        <time>2021-08-21T23:33:22.430Z</time>
      </trkpt>
      <trkpt lat="41.17164" lon="31.41328">
        <ele>81.137191</ele>
        <time>2021-08-21T23:33:25.782Z</time>
      </trkpt>
      <trkpt lat="41.17176" lon="31.41311">
        <ele>80.164596</ele>
        <time>2021-08-21T23:33:29.467Z</time>
      </trkpt>
      <trkpt lat="41.17201" lon="31.413">
        <ele>78.678743</ele>
        <time>2021-08-21T23:33:35.241Z</time>
      </trkpt>
      <trkpt lat="41.17236" lon="31.41295">
        <ele>76.69712</ele>
        <time>2021-08-21T23:33:42.944Z</time>
      </trkpt>
      <trkpt lat="41.17223" lon="31.41286">
        <ele>75.880952</ele>
        <time>2021-08-21T23:33:45.899Z</time>
      </trkpt>
      <trkpt lat="41.17166" lon="31.41291">
        <ele>72.940154</ele>
        <time>2021-08-21T23:33:58.118Z</time>
      </trkpt>
      <trkpt lat="41.17136" lon="31.41306">
        <ele>72.827324</ele>
        <time>2021-08-21T23:34:05.009Z</time>
      </trkpt>
      <trkpt lat="41.17065" lon="31.41361">
        <ele>72.531038</ele>
        <time>2021-08-21T23:34:25.988Z</time>
      </trkpt>
      <trkpt lat="41.1703" lon="31.41367">
        <ele>72.403746</ele>
        <time>2021-08-21T23:34:39.499Z</time>
      </trkpt>
      <trkpt lat="41.17021" lon="31.41361">
        <ele>72.366356</ele>
        <time>2021-08-21T23:34:43.889Z</time>
      </trkpt>
      <trkpt lat="41.16882" lon="31.41079">
        <ele>85.592932</ele>
        <time>2021-08-21T23:37:37.993Z</time>
      </trkpt>
      <trkpt lat="41.16862" lon="31.41055">
        <ele>86.566246</ele>
        <time>2021-08-21T23:37:53.583Z</time>
      </trkpt>
      <trkpt lat="41.16859" lon="31.41028">
        <ele>87.326034</ele>
        <time>2021-08-21T23:38:07.547Z</time>
      </trkpt>
      <trkpt lat="41.16849" lon="31.41001">
        <ele>88.184832</ele>
        <time>2021-08-21T23:38:17.728Z</time>
      </trkpt>
      <trkpt lat="41.16817" lon="31.40926">
        <ele>89.199118</ele>
        <time>2021-08-21T23:38:40.923Z</time>
      </trkpt>
      <trkpt lat="41.16799" lon="31.40873">
        <ele>86.436008</ele>
        <time>2021-08-21T23:38:51.968Z</time>
      </trkpt>
      <trkpt lat="41.16738" lon="31.40798">
        <ele>81.117337</ele>
        <time>2021-08-21T23:39:09.156Z</time>
      </trkpt>
      <trkpt lat="41.1674" lon="31.40786">
        <ele>80.552785</ele>
        <time>2021-08-21T23:39:10.924Z</time>
      </trkpt>
      <trkpt lat="41.16751" lon="31.40775">
        <ele>79.673821</ele>
        <time>2021-08-21T23:39:13.676Z</time>
      </trkpt>
      <trkpt lat="41.16802" lon="31.40771">
        <ele>74.636994</ele>
        <time>2021-08-21T23:39:23.798Z</time>
      </trkpt>
      <trkpt lat="41.16814" lon="31.4076">
        <ele>72.958043</ele>
        <time>2021-08-21T23:39:26.705Z</time>
      </trkpt>
      <trkpt lat="41.1683" lon="31.40682">
        <ele>66.039508</ele>
        <time>2021-08-21T23:39:38.479Z</time>
      </trkpt>
      <trkpt lat="41.16837" lon="31.40601">
        <ele>59.015998</ele>
        <time>2021-08-21T23:39:50.554Z</time>
      </trkpt>
      <trkpt lat="41.16836" lon="31.40574">
        <ele>56.965955</ele>
        <time>2021-08-21T23:39:54.521Z</time>
      </trkpt>
      <trkpt lat="41.16824" lon="31.40535">
        <ele>53.926592</ele>
        <time>2021-08-21T23:40:00.847Z</time>
      </trkpt>
      <trkpt lat="41.16832" lon="31.40495">
        <ele>50.931055</ele>
        <time>2021-08-21T23:40:07.138Z</time>
      </trkpt>
      <trkpt lat="41.16847" lon="31.40384">
        <ele>42.901389</ele>
        <time>2021-08-21T23:40:24.218Z</time>
      </trkpt>
      <trkpt lat="41.16845" lon="31.40341">
        <ele>40.343178</ele>
        <time>2021-08-21T23:40:30.776Z</time>
      </trkpt>
      <trkpt lat="41.16813" lon="31.4018">
        <ele>33.752971</ele>
        <time>2021-08-21T23:40:58.470Z</time>
      </trkpt>
      <trkpt lat="41.16814" lon="31.40144">
        <ele>32.358177</ele>
        <time>2021-08-21T23:41:04.667Z</time>
      </trkpt>
      <trkpt lat="41.16833" lon="31.40129">
        <ele>31.482137</ele>
        <time>2021-08-21T23:41:09.970Z</time>
      </trkpt>
      <trkpt lat="41.16849" lon="31.40112">
        <ele>31.220884</ele>
        <time>2021-08-21T23:41:14.915Z</time>
      </trkpt>
      <trkpt lat="41.16873" lon="31.40097">
        <ele>30.882996</ele>
        <time>2021-08-21T23:41:21.501Z</time>
      </trkpt>
      <trkpt lat="41.16993" lon="31.4007">
        <ele>29.347894</ele>
        <time>2021-08-21T23:41:56.799Z</time>
      </trkpt>
      <trkpt lat="41.17034" lon="31.40048">
        <ele>28.511441</ele>
        <time>2021-08-21T23:42:09.145Z</time>
      </trkpt>
      <trkpt lat="41.17091" lon="31.39995">
        <ele>27.16684</ele>
        <time>2021-08-21T23:42:26.194Z</time>
      </trkpt>
      <trkpt lat="41.17124" lon="31.39956">
        <ele>26.305718</ele>
        <time>2021-08-21T23:42:36.676Z</time>
      </trkpt>
      <trkpt lat="41.17155" lon="31.39898">
        <ele>24.931244</ele>
        <time>2021-08-21T23:42:49.168Z</time>
      </trkpt>
      <trkpt lat="41.17227" lon="31.39721">
        <ele>20.198551</ele>
        <time>2021-08-21T23:43:23.590Z</time>
      </trkpt>
      <trkpt lat="41.17236" lon="31.39699">
        <ele>19.643366</ele>
        <time>2021-08-21T23:43:28.080Z</time>
      </trkpt>
      <trkpt lat="41.17245" lon="31.39664">
        <ele>18.867006</ele>
        <time>2021-08-21T23:43:34.411Z</time>
      </trkpt>
      <trkpt lat="41.17262" lon="31.39631">
        <ele>18.007772</ele>
        <time>2021-08-21T23:43:41.428Z</time>
      </trkpt>
      <trkpt lat="41.17282" lon="31.39616">
        <ele>17.350695</ele>
        <time>2021-08-21T23:43:46.794Z</time>
      </trkpt>
      <trkpt lat="41.17316" lon="31.39604">
        <ele>16.344119</ele>
        <time>2021-08-21T23:43:55.020Z</time>
      </trkpt>
      <trkpt lat="41.17333" lon="31.39589">
        <ele>15.77877</ele>
        <time>2021-08-21T23:43:59.651Z</time>
      </trkpt>
      <trkpt lat="41.17362" lon="31.39544">
        <ele>14.772401</ele>
        <time>2021-08-21T23:44:10.210Z</time>
      </trkpt>
      <trkpt lat="41.17383" lon="31.395">
        <ele>14.19062</ele>
        <time>2021-08-21T23:44:19.766Z</time>
      </trkpt>
      <trkpt lat="41.17441" lon="31.39341">
        <ele>12.43174</ele>
        <time>2021-08-21T23:44:54.887Z</time>
      </trkpt>
      <trkpt lat="41.17446" lon="31.39273">
        <ele>12.626759</ele>
        <time>2021-08-21T23:45:11.678Z</time>
      </trkpt>
      <trkpt lat="41.17465" lon="31.39202">
        <ele>12.837526</ele>
        <time>2021-08-21T23:45:32.278Z</time>
      </trkpt>
      <trkpt lat="41.17499" lon="31.39115">
        <ele>13.011691</ele>
        <time>2021-08-21T23:45:59.222Z</time>
      </trkpt>
      <trkpt lat="41.17525" lon="31.39062">
        <ele>12.827046</ele>
        <time>2021-08-21T23:46:15.349Z</time>
      </trkpt>
      <trkpt lat="41.17581" lon="31.38943">
        <ele>12.418082</ele>
        <time>2021-08-21T23:46:45.220Z</time>
      </trkpt>
      <trkpt lat="41.17604" lon="31.38911">
        <ele>11.938338</ele>
        <time>2021-08-21T23:46:53.717Z</time>
      </trkpt>
      <trkpt lat="41.17647" lon="31.38872">
        <ele>10.853047</ele>
        <time>2021-08-21T23:47:05.947Z</time>
      </trkpt>
      <trkpt lat="41.17673" lon="31.38832">
        <ele>10.006727</ele>
        <time>2021-08-21T23:47:15.536Z</time>
      </trkpt>
      <trkpt lat="41.17761" lon="31.38758">
        <ele>8.171042</ele>
        <time>2021-08-21T23:47:40.677Z</time>
      </trkpt>
      <trkpt lat="41.17767" lon="31.38746">
        <ele>8.043144</ele>
        <time>2021-08-21T23:47:43.412Z</time>
      </trkpt>
      <trkpt lat="41.17773" lon="31.38691">
        <ele>7.559493</ele>
        <time>2021-08-21T23:47:54.184Z</time>
      </trkpt>
      <trkpt lat="41.17779" lon="31.38679">
        <ele>7.436003</ele>
        <time>2021-08-21T23:47:57.135Z</time>
      </trkpt>
      <trkpt lat="41.17814" lon="31.38666">
        <ele>7.009278</ele>
        <time>2021-08-21T23:48:07.299Z</time>
      </trkpt>
      <trkpt lat="41.1783" lon="31.38669">
        <ele>6.824216</ele>
        <time>2021-08-21T23:48:11.928Z</time>
      </trkpt>
      <trkpt lat="41.17873" lon="31.38689">
        <ele>6.600129</ele>
        <time>2021-08-21T23:48:25.276Z</time>
      </trkpt>
      <trkpt lat="41.17892" lon="31.38686">
        <ele>6.70795</ele>
        <time>2021-08-21T23:48:31.978Z</time>
      </trkpt>
      <trkpt lat="41.18001" lon="31.38617">
        <ele>7.360302</ele>
        <time>2021-08-21T23:49:13.096Z</time>
      </trkpt>
      <trkpt lat="41.18027" lon="31.3862">
        <ele>7.589164</ele>
        <time>2021-08-21T23:49:22.857Z</time>
      </trkpt>
      <trkpt lat="41.18038" lon="31.38619">
        <ele>7.84087</ele>
        <time>2021-08-21T23:49:27.004Z</time>
      </trkpt>
      <trkpt lat="41.18048" lon="31.3862">
        <ele>8.102112</ele>
        <time>2021-08-21T23:49:31.282Z</time>
      </trkpt>
      <trkpt lat="41.18051" lon="31.38614">
        <ele>8.234209</ele>
        <time>2021-08-21T23:49:33.138Z</time>
      </trkpt>
      <trkpt lat="41.18051" lon="31.38603">
        <ele>8.42441</ele>
        <time>2021-08-21T23:49:36.114Z</time>
      </trkpt>
      <trkpt lat="41.18048" lon="31.386">
        <ele>8.528601</ele>
        <time>2021-08-21T23:49:37.742Z</time>
      </trkpt>
      <trkpt lat="41.18039" lon="31.38596">
        <ele>8.749412</ele>
        <time>2021-08-21T23:49:41.654Z</time>
      </trkpt>
      <trkpt lat="41.18017" lon="31.38582">
        <ele>9.340958</ele>
        <time>2021-08-21T23:49:51.644Z</time>
      </trkpt>
      <trkpt lat="41.17968" lon="31.38491">
        <ele>11.408048</ele>
        <time>2021-08-21T23:50:32.075Z</time>
      </trkpt>
      <trkpt lat="41.17819" lon="31.38234">
        <ele>19.983208</ele>
        <time>2021-08-21T23:52:41.403Z</time>
      </trkpt>
      <trkpt lat="41.17813" lon="31.38229">
        <ele>20.181704</ele>
        <time>2021-08-21T23:52:44.617Z</time>
      </trkpt>
      <trkpt lat="41.17805" lon="31.38202">
        <ele>20.812853</ele>
        <time>2021-08-21T23:52:55.267Z</time>
      </trkpt>
      <trkpt lat="41.17808" lon="31.38185">
        <ele>21.19903</ele>
        <time>2021-08-21T23:53:01.859Z</time>
      </trkpt>
      <trkpt lat="41.17811" lon="31.38189">
        <ele>21.312456</ele>
        <time>2021-08-21T23:53:03.739Z</time>
      </trkpt>
      <trkpt lat="41.17817" lon="31.38195">
        <ele>21.537137</ele>
        <time>2021-08-21T23:53:07.391Z</time>
      </trkpt>
      <trkpt lat="41.17821" lon="31.38195">
        <ele>21.649408</ele>
        <time>2021-08-21T23:53:09.408Z</time>
      </trkpt>
      <trkpt lat="41.17824" lon="31.38195">
        <ele>21.726912</ele>
        <time>2021-08-21T23:53:10.622Z</time>
      </trkpt>
      <trkpt lat="41.17829" lon="31.38192">
        <ele>21.891262</ele>
        <time>2021-08-21T23:53:12.963Z</time>
      </trkpt>
      <trkpt lat="41.17834" lon="31.38172">
        <ele>22.356688</ele>
        <time>2021-08-21T23:53:20.815Z</time>
      </trkpt>
      <trkpt lat="41.17832" lon="31.38165">
        <ele>22.518548</ele>
        <time>2021-08-21T23:53:23.072Z</time>
      </trkpt>
      <trkpt lat="41.17829" lon="31.38161">
        <ele>22.644547</ele>
        <time>2021-08-21T23:53:25.495Z</time>
      </trkpt>
      <trkpt lat="41.17824" lon="31.38159">
        <ele>22.771512</ele>
        <time>2021-08-21T23:53:27.392Z</time>
      </trkpt>
      <trkpt lat="41.17797" lon="31.38137">
        <ele>23.671744</ele>
        <time>2021-08-21T23:53:40.809Z</time>
      </trkpt>
      <trkpt lat="41.17743" lon="31.38078">
        <ele>24.791791</ele>
        <time>2021-08-21T23:54:08.241Z</time>
      </trkpt>
      <trkpt lat="41.17714" lon="31.38038">
        <ele>25.414329</ele>
        <time>2021-08-21T23:54:26.798Z</time>
      </trkpt>
      <trkpt lat="41.173" lon="31.37335">
        <ele>31.496222</ele>
        <time>2021-08-21T23:58:27.732Z</time>
      </trkpt>
      <trkpt lat="41.17131" lon="31.37061">
        <ele>33.733857</ele>
        <time>2021-08-22T00:00:03.353Z</time>
      </trkpt>
      <trkpt lat="41.17057" lon="31.36919">
        <ele>33.194151</ele>
        <time>2021-08-22T00:00:50.641Z</time>
      </trkpt>
      <trkpt lat="41.16993" lon="31.36776">
        <ele>32.179166</ele>
        <time>2021-08-22T00:01:19.815Z</time>
      </trkpt>
      <trkpt lat="41.16984" lon="31.36761">
        <ele>32.078036</ele>
        <time>2021-08-22T00:01:22.941Z</time>
      </trkpt>
      <trkpt lat="41.16979" lon="31.36753">
        <ele>32.022266</ele>
        <time>2021-08-22T00:01:24.900Z</time>
      </trkpt>
      <trkpt lat="41.16966" lon="31.3673">
        <ele>31.865351</ele>
        <time>2021-08-22T00:01:29.443Z</time>
      </trkpt>
      <trkpt lat="41.16857" lon="31.3659">
        <ele>33.942018</ele>
        <time>2021-08-22T00:02:31.270Z</time>
      </trkpt>
      <trkpt lat="41.16846" lon="31.3657">
        <ele>34.822774</ele>
        <time>2021-08-22T00:02:44.196Z</time>
      </trkpt>
      <trkpt lat="41.16843" lon="31.36541">
        <ele>35.896037</ele>
        <time>2021-08-22T00:03:01.604Z</time>
      </trkpt>
      <trkpt lat="41.1684" lon="31.36523">
        <ele>36.56336</ele>
        <time>2021-08-22T00:03:10.127Z</time>
      </trkpt>
      <trkpt lat="41.1681" lon="31.36481">
        <ele>38.628861</ele>
        <time>2021-08-22T00:03:39.240Z</time>
      </trkpt>
      <trkpt lat="41.16785" lon="31.36464">
        <ele>39.91343</ele>
        <time>2021-08-22T00:03:59.744Z</time>
      </trkpt>
      <trkpt lat="41.167" lon="31.36314">
        <ele>42.896364</ele>
        <time>2021-08-22T00:05:10.757Z</time>
      </trkpt>
      <trkpt lat="41.16671" lon="31.36274">
        <ele>43.54284</ele>
        <time>2021-08-22T00:05:19.695Z</time>
      </trkpt>
      <trkpt lat="41.16649" lon="31.36254">
        <ele>43.166474</ele>
        <time>2021-08-22T00:05:25.354Z</time>
      </trkpt>
      <trkpt lat="41.1649" lon="31.36169">
        <ele>41.403557</ele>
        <time>2021-08-22T00:06:10.493Z</time>
      </trkpt>
      <trkpt lat="41.1644" lon="31.36131">
        <ele>42.211346</ele>
        <time>2021-08-22T00:06:34.125Z</time>
      </trkpt>
      <trkpt lat="41.16376" lon="31.36066">
        <ele>43.347705</ele>
        <time>2021-08-22T00:07:09.352Z</time>
      </trkpt>
      <trkpt lat="41.16332" lon="31.36005">
        <ele>44.238628</ele>
        <time>2021-08-22T00:07:38.162Z</time>
      </trkpt>
      <trkpt lat="41.16112" lon="31.35637">
        <ele>48.521077</ele>
        <time>2021-08-22T00:09:47.299Z</time>
      </trkpt>
      <trkpt lat="41.16072" lon="31.35596">
        <ele>49.341747</ele>
        <time>2021-08-22T00:10:07.968Z</time>
      </trkpt>
      <trkpt lat="41.16012" lon="31.35553">
        <ele>50.450239</ele>
        <time>2021-08-22T00:10:37.107Z</time>
      </trkpt>
      <trkpt lat="41.15976" lon="31.35506">
        <ele>50.797057</ele>
        <time>2021-08-22T00:10:58.499Z</time>
      </trkpt>
      <trkpt lat="41.15926" lon="31.35418">
        <ele>50.828836</ele>
        <time>2021-08-22T00:11:28.493Z</time>
      </trkpt>
      <trkpt lat="41.15902" lon="31.35362">
        <ele>50.847273</ele>
        <time>2021-08-22T00:11:41.514Z</time>
      </trkpt>
      <trkpt lat="41.15871" lon="31.35271">
        <ele>47.032329</ele>
        <time>2021-08-22T00:11:59.081Z</time>
      </trkpt>
      <trkpt lat="41.15852" lon="31.35231">
        <ele>44.643042</ele>
        <time>2021-08-22T00:12:06.652Z</time>
      </trkpt>
      <trkpt lat="41.15812" lon="31.35182">
        <ele>40.974601</ele>
        <time>2021-08-22T00:12:17.184Z</time>
      </trkpt>
      <trkpt lat="41.15781" lon="31.35163">
        <ele>38.650038</ele>
        <time>2021-08-22T00:12:23.605Z</time>
      </trkpt>
      <trkpt lat="41.15719" lon="31.3513">
        <ele>31.794629</ele>
        <time>2021-08-22T00:12:35.866Z</time>
      </trkpt>
      <trkpt lat="41.1571" lon="31.35124">
        <ele>30.708882</ele>
        <time>2021-08-22T00:12:37.859Z</time>
      </trkpt>
      <trkpt lat="41.157" lon="31.35118">
        <ele>29.569574</ele>
        <time>2021-08-22T00:12:40.048Z</time>
      </trkpt>
      <trkpt lat="41.1569" lon="31.35103">
        <ele>28.101972</ele>
        <time>2021-08-22T00:12:42.606Z</time>
      </trkpt>
      <trkpt lat="41.15641" lon="31.35057">
        <ele>21.911287</ele>
        <time>2021-08-22T00:12:54.362Z</time>
      </trkpt>
      <trkpt lat="41.15628" lon="31.35051">
        <ele>20.500522</ele>
        <time>2021-08-22T00:12:56.908Z</time>
      </trkpt>
      <trkpt lat="41.15623" lon="31.35044">
        <ele>20.540429</ele>
        <time>2021-08-22T00:12:59.050Z</time>
      </trkpt>
      <trkpt lat="41.15604" lon="31.35007">
        <ele>22.008734</ele>
        <time>2021-08-22T00:13:06.936Z</time>
      </trkpt>
      <trkpt lat="41.15589" lon="31.34963">
        <ele>23.596893</ele>
        <time>2021-08-22T00:13:19.222Z</time>
      </trkpt>
      <trkpt lat="41.15571" lon="31.349">
        <ele>25.846846</ele>
        <time>2021-08-22T00:13:57.216Z</time>
      </trkpt>
      <trkpt lat="41.15555" lon="31.3485">
        <ele>27.657826</ele>
        <time>2021-08-22T00:14:33.489Z</time>
      </trkpt>
      <trkpt lat="41.15515" lon="31.34752">
        <ele>35.002995</ele>
        <time>2021-08-22T00:16:03.812Z</time>
      </trkpt>
      <trkpt lat="41.15469" lon="31.34675">
        <ele>42.026934</ele>
        <time>2021-08-22T00:17:10.636Z</time>
      </trkpt>
      <trkpt lat="41.15392" lon="31.34584">
        <ele>45.642774</ele>
        <time>2021-08-22T00:17:58.743Z</time>
      </trkpt>
      <trkpt lat="41.1536" lon="31.34561">
        <ele>45.803953</ele>
        <time>2021-08-22T00:18:09.322Z</time>
      </trkpt>
      <trkpt lat="41.15328" lon="31.34548">
        <ele>45.948102</ele>
        <time>2021-08-22T00:18:17.427Z</time>
      </trkpt>
      <trkpt lat="41.15277" lon="31.34539">
        <ele>45.973823</ele>
        <time>2021-08-22T00:18:29.608Z</time>
      </trkpt>
      <trkpt lat="41.14984" lon="31.34557">
        <ele>41.351774</ele>
        <time>2021-08-22T00:19:43.799Z</time>
      </trkpt>
      <trkpt lat="41.14931" lon="31.34568">
        <ele>40.653595</ele>
        <time>2021-08-22T00:20:01.118Z</time>
      </trkpt>
      <trkpt lat="41.14821" lon="31.34607">
        <ele>38.238492</ele>
        <time>2021-08-22T00:20:29.734Z</time>
      </trkpt>
      <trkpt lat="41.14774" lon="31.34609">
        <ele>37.224414</ele>
        <time>2021-08-22T00:20:40.608Z</time>
      </trkpt>
      <trkpt lat="41.14734" lon="31.34603">
        <ele>36.429591</ele>
        <time>2021-08-22T00:20:49.948Z</time>
      </trkpt>
      <trkpt lat="41.14727" lon="31.34602">
        <ele>36.321178</ele>
        <time>2021-08-22T00:20:51.205Z</time>
      </trkpt>
      <trkpt lat="41.14719" lon="31.34593">
        <ele>36.14095</ele>
        <time>2021-08-22T00:20:53.455Z</time>
      </trkpt>
      <trkpt lat="41.14685" lon="31.34581">
        <ele>35.55734</ele>
        <time>2021-08-22T00:21:01.422Z</time>
      </trkpt>
      <trkpt lat="41.14657" lon="31.34584">
        <ele>35.075073</ele>
        <time>2021-08-22T00:21:08.289Z</time>
      </trkpt>
      <trkpt lat="41.14643" lon="31.34594">
        <ele>34.816627</ele>
        <time>2021-08-22T00:21:12.199Z</time>
      </trkpt>
      <trkpt lat="41.14584" lon="31.34605">
        <ele>33.818192</ele>
        <time>2021-08-22T00:21:28.994Z</time>
      </trkpt>
      <trkpt lat="41.14514" lon="31.34602">
        <ele>36.208229</ele>
        <time>2021-08-22T00:22:02.864Z</time>
      </trkpt>
      <trkpt lat="41.14494" lon="31.34595">
        <ele>36.979707</ele>
        <time>2021-08-22T00:22:13.333Z</time>
      </trkpt>
      <trkpt lat="41.14476" lon="31.34587">
        <ele>37.690023</ele>
        <time>2021-08-22T00:22:24.885Z</time>
      </trkpt>
      <trkpt lat="41.14451" lon="31.34571">
        <ele>38.747862</ele>
        <time>2021-08-22T00:22:40.884Z</time>
      </trkpt>
      <trkpt lat="41.14297" lon="31.34437">
        <ele>47.443457</ele>
        <time>2021-08-22T00:24:33.054Z</time>
      </trkpt>
      <trkpt lat="41.14253" lon="31.34408">
        <ele>49.738232</ele>
        <time>2021-08-22T00:25:02.874Z</time>
      </trkpt>
      <trkpt lat="41.14199" lon="31.34383">
        <ele>50.989384</ele>
        <time>2021-08-22T00:25:30.414Z</time>
      </trkpt>
      <trkpt lat="41.14163" lon="31.34375">
        <ele>51.787352</ele>
        <time>2021-08-22T00:25:45.347Z</time>
      </trkpt>
      <trkpt lat="41.1415" lon="31.34372">
        <ele>52.076678</ele>
        <time>2021-08-22T00:25:49.466Z</time>
      </trkpt>
      <trkpt lat="41.14143" lon="31.34369">
        <ele>52.239922</ele>
        <time>2021-08-22T00:25:51.845Z</time>
      </trkpt>
      <trkpt lat="41.14136" lon="31.3437">
        <ele>52.401834</ele>
        <time>2021-08-22T00:25:55.857Z</time>
      </trkpt>
      <trkpt lat="41.14131" lon="31.34372">
        <ele>52.50762</ele>
        <time>2021-08-22T00:25:58.955Z</time>
      </trkpt>
      <trkpt lat="41.14112" lon="31.34361">
        <ele>52.966648</ele>
        <time>2021-08-22T00:26:05.076Z</time>
      </trkpt>
      <trkpt lat="41.14055" lon="31.34355">
        <ele>53.533932</ele>
        <time>2021-08-22T00:26:27.845Z</time>
      </trkpt>
      <trkpt lat="41.13884" lon="31.3433">
        <ele>53.00452</ele>
        <time>2021-08-22T00:27:17.306Z</time>
      </trkpt>
      <trkpt lat="41.13845" lon="31.34306">
        <ele>52.119784</ele>
        <time>2021-08-22T00:27:31.128Z</time>
      </trkpt>
      <trkpt lat="41.13801" lon="31.34257">
        <ele>50.949886</ele>
        <time>2021-08-22T00:27:46.322Z</time>
      </trkpt>
      <trkpt lat="41.1358" lon="31.33885">
        <ele>36.279599</ele>
        <time>2021-08-22T00:29:02.094Z</time>
      </trkpt>
      <trkpt lat="41.13405" lon="31.33543">
        <ele>30.797191</ele>
        <time>2021-08-22T00:30:18.418Z</time>
      </trkpt>
      <trkpt lat="41.13258" lon="31.33218">
        <ele>36.347273</ele>
        <time>2021-08-22T00:32:34.341Z</time>
      </trkpt>
      <trkpt lat="41.13062" lon="31.32836">
        <ele>37.275784</ele>
        <time>2021-08-22T00:34:25.664Z</time>
      </trkpt>
      <trkpt lat="41.13037" lon="31.32794">
        <ele>37.223561</ele>
        <time>2021-08-22T00:34:36.883Z</time>
      </trkpt>
      <trkpt lat="41.13036" lon="31.3279">
        <ele>37.217247</ele>
        <time>2021-08-22T00:34:38.075Z</time>
      </trkpt>
      <trkpt lat="41.1303" lon="31.32781">
        <ele>37.19859</ele>
        <time>2021-08-22T00:34:40.598Z</time>
      </trkpt>
      <trkpt lat="41.13028" lon="31.32779">
        <ele>37.192288</ele>
        <time>2021-08-22T00:34:41.895Z</time>
      </trkpt>
      <trkpt lat="41.13009" lon="31.32751">
        <ele>37.135746</ele>
        <time>2021-08-22T00:34:49.457Z</time>
      </trkpt>
      <trkpt lat="41.12885" lon="31.32567">
        <ele>38.191426</ele>
        <time>2021-08-22T00:35:47.170Z</time>
      </trkpt>
      <trkpt lat="41.12838" lon="31.32486">
        <ele>39.504689</ele>
        <time>2021-08-22T00:36:20.745Z</time>
      </trkpt>
      <trkpt lat="41.12737" lon="31.32259">
        <ele>46.590077</ele>
        <time>2021-08-22T00:38:09.784Z</time>
      </trkpt>
      <trkpt lat="41.12614" lon="31.31967">
        <ele>52.001048</ele>
        <time>2021-08-22T00:40:05.031Z</time>
      </trkpt>
      <trkpt lat="41.12458" lon="31.31687">
        <ele>52.544723</ele>
        <time>2021-08-22T00:41:16.342Z</time>
      </trkpt>
      <trkpt lat="41.12375" lon="31.3147">
        <ele>56.520693</ele>
        <time>2021-08-22T00:42:49.740Z</time>
      </trkpt>
      <trkpt lat="41.12333" lon="31.31372">
        <ele>56.0265</ele>
        <time>2021-08-22T00:43:20.220Z</time>
      </trkpt>
      <trkpt lat="41.12227" lon="31.31201">
        <ele>52.134494</ele>
        <time>2021-08-22T00:43:56.788Z</time>
      </trkpt>
      <trkpt lat="41.12178" lon="31.31103">
        <ele>50.024993</ele>
        <time>2021-08-22T00:44:16.442Z</time>
      </trkpt>
      <trkpt lat="41.12059" lon="31.3082">
        <ele>51.151013</ele>
        <time>2021-08-22T00:45:47.114Z</time>
      </trkpt>
      <trkpt lat="41.12039" lon="31.30761">
        <ele>52.086322</ele>
        <time>2021-08-22T00:46:11.555Z</time>
      </trkpt>
      <trkpt lat="41.11967" lon="31.30489">
        <ele>51.956688</ele>
        <time>2021-08-22T00:47:40.432Z</time>
      </trkpt>
      <trkpt lat="41.11943" lon="31.30421">
        <ele>50.631998</ele>
        <time>2021-08-22T00:47:52.288Z</time>
      </trkpt>
      <trkpt lat="41.11913" lon="31.30364">
        <ele>45.975497</ele>
        <time>2021-08-22T00:48:02.517Z</time>
      </trkpt>
      <trkpt lat="41.1181" lon="31.30229">
        <ele>25.874306</ele>
        <time>2021-08-22T00:48:28.757Z</time>
      </trkpt>
      <trkpt lat="41.11792" lon="31.302">
        <ele>23.338625</ele>
        <time>2021-08-22T00:48:33.860Z</time>
      </trkpt>
      <trkpt lat="41.11776" lon="31.30166">
        <ele>20.951631</ele>
        <time>2021-08-22T00:48:39.413Z</time>
      </trkpt>
      <trkpt lat="41.11764" lon="31.30135">
        <ele>18.843025</ele>
        <time>2021-08-22T00:48:44.445Z</time>
      </trkpt>
      <trkpt lat="41.11749" lon="31.30084">
        <ele>15.549796</ele>
        <time>2021-08-22T00:48:52.519Z</time>
      </trkpt>
      <trkpt lat="41.1173" lon="31.30023">
        <ele>11.58896</ele>
        <time>2021-08-22T00:49:03.333Z</time>
      </trkpt>
      <trkpt lat="41.11711" lon="31.29953">
        <ele>13.721973</ele>
        <time>2021-08-22T00:49:32.306Z</time>
      </trkpt>
      <trkpt lat="41.11664" lon="31.29741">
        <ele>23.486509</ele>
        <time>2021-08-22T00:51:42.980Z</time>
      </trkpt>
      <trkpt lat="41.11629" lon="31.29605">
        <ele>28.910673</ele>
        <time>2021-08-22T00:52:55.378Z</time>
      </trkpt>
      <trkpt lat="41.11537" lon="31.29289">
        <ele>28.915117</ele>
        <time>2021-08-22T00:54:05.712Z</time>
      </trkpt>
      <trkpt lat="41.11491" lon="31.29094">
        <ele>26.256066</ele>
        <time>2021-08-22T00:54:41.490Z</time>
      </trkpt>
      <trkpt lat="41.11491" lon="31.29088">
        <ele>26.322546</ele>
        <time>2021-08-22T00:54:42.545Z</time>
      </trkpt>
      <trkpt lat="41.1149" lon="31.29083">
        <ele>26.388139</ele>
        <time>2021-08-22T00:54:43.626Z</time>
      </trkpt>
      <trkpt lat="41.11489" lon="31.29078">
        <ele>26.453955</ele>
        <time>2021-08-22T00:54:44.943Z</time>
      </trkpt>
      <trkpt lat="41.11486" lon="31.29074">
        <ele>26.520765</ele>
        <time>2021-08-22T00:54:46.284Z</time>
      </trkpt>
      <trkpt lat="41.11432" lon="31.28919">
        <ele>28.577206</ele>
        <time>2021-08-22T00:55:44.904Z</time>
      </trkpt>
      <trkpt lat="41.11406" lon="31.28834">
        <ele>28.672105</ele>
        <time>2021-08-22T00:56:20.861Z</time>
      </trkpt>
      <trkpt lat="41.11215" lon="31.28237">
        <ele>25.025439</ele>
        <time>2021-08-22T00:58:29.509Z</time>
      </trkpt>
      <trkpt lat="41.10983" lon="31.27274">
        <ele>30.52574</ele>
        <time>2021-08-22T01:03:04.797Z</time>
      </trkpt>
      <trkpt lat="41.1089" lon="31.2694">
        <ele>27.949724</ele>
        <time>2021-08-22T01:04:17.101Z</time>
      </trkpt>
      <trkpt lat="41.10775" lon="31.26555">
        <ele>23.307561</ele>
        <time>2021-08-22T01:05:32.234Z</time>
      </trkpt>
      <trkpt lat="41.10676" lon="31.25975">
        <ele>26.695892</ele>
        <time>2021-08-22T01:08:22.773Z</time>
      </trkpt>
      <trkpt lat="41.10658" lon="31.25891">
        <ele>27.431554</ele>
        <time>2021-08-22T01:08:49.039Z</time>
      </trkpt>
      <trkpt lat="41.10591" lon="31.25669">
        <ele>28.081937</ele>
        <time>2021-08-22T01:09:55.162Z</time>
      </trkpt>
      <trkpt lat="41.10545" lon="31.25539">
        <ele>26.592027</ele>
        <time>2021-08-22T01:10:22.768Z</time>
      </trkpt>
      <trkpt lat="41.10378" lon="31.25104">
        <ele>10.987855</ele>
        <time>2021-08-22T01:11:41.300Z</time>
      </trkpt>
      <trkpt lat="41.1034" lon="31.24978">
        <ele>10.740071</ele>
        <time>2021-08-22T01:12:08.571Z</time>
      </trkpt>
      <trkpt lat="41.10316" lon="31.24898">
        <ele>10.889233</ele>
        <time>2021-08-22T01:12:34.841Z</time>
      </trkpt>
      <trkpt lat="41.10268" lon="31.24676">
        <ele>15.287517</ele>
        <time>2021-08-22T01:14:02.566Z</time>
      </trkpt>
      <trkpt lat="41.10073" lon="31.2346">
        <ele>28.862508</ele>
        <time>2021-08-22T01:20:12.067Z</time>
      </trkpt>
      <trkpt lat="41.09966" lon="31.22931">
        <ele>22.914945</ele>
        <time>2021-08-22T01:21:55.558Z</time>
      </trkpt>
      <trkpt lat="41.09918" lon="31.2273">
        <ele>21.870692</ele>
        <time>2021-08-22T01:22:43.973Z</time>
      </trkpt>
      <trkpt lat="41.09915" lon="31.22719">
        <ele>21.825323</ele>
        <time>2021-08-22T01:22:47.124Z</time>
      </trkpt>
      <trkpt lat="41.09911" lon="31.22706">
        <ele>21.773574</ele>
        <time>2021-08-22T01:22:50.806Z</time>
      </trkpt>
      <trkpt lat="41.09884" lon="31.22611">
        <ele>21.387585</ele>
        <time>2021-08-22T01:23:13.760Z</time>
      </trkpt>
      <trkpt lat="41.0988" lon="31.22596">
        <ele>21.330165</ele>
        <time>2021-08-22T01:23:16.645Z</time>
      </trkpt>
      <trkpt lat="41.09841" lon="31.22459">
        <ele>19.275923</ele>
        <time>2021-08-22T01:23:45.195Z</time>
      </trkpt>
      <trkpt lat="41.09745" lon="31.22173">
        <ele>12.823923</ele>
        <time>2021-08-22T01:24:39.164Z</time>
      </trkpt>
      <trkpt lat="41.09714" lon="31.22059">
        <ele>10.696593</ele>
        <time>2021-08-22T01:25:00.935Z</time>
      </trkpt>
      <trkpt lat="41.09715" lon="31.22054">
        <ele>10.629254</ele>
        <time>2021-08-22T01:25:01.913Z</time>
      </trkpt>
      <trkpt lat="41.09709" lon="31.22035">
        <ele>10.366184</ele>
        <time>2021-08-22T01:25:05.832Z</time>
      </trkpt>
      <trkpt lat="41.09706" lon="31.22032">
        <ele>10.299748</ele>
        <time>2021-08-22T01:25:06.786Z</time>
      </trkpt>
      <trkpt lat="41.09686" lon="31.21968">
        <ele>9.417509</ele>
        <time>2021-08-22T01:25:20.029Z</time>
      </trkpt>
      <trkpt lat="41.09669" lon="31.21904">
        <ele>8.553355</ele>
        <time>2021-08-22T01:25:33.613Z</time>
      </trkpt>
      <trkpt lat="41.09655" lon="31.21826">
        <ele>7.728565</ele>
        <time>2021-08-22T01:25:50.763Z</time>
      </trkpt>
      <trkpt lat="41.09649" lon="31.21608">
        <ele>5.856017</ele>
        <time>2021-08-22T01:26:32.956Z</time>
      </trkpt>
      <trkpt lat="41.09655" lon="31.21516">
        <ele>5.440748</ele>
        <time>2021-08-22T01:26:50.879Z</time>
      </trkpt>
      <trkpt lat="41.09662" lon="31.21385">
        <ele>5.890888</ele>
        <time>2021-08-22T01:27:22.712Z</time>
      </trkpt>
      <trkpt lat="41.09672" lon="31.21168">
        <ele>11.410601</ele>
        <time>2021-08-22T01:28:49.655Z</time>
      </trkpt>
      <trkpt lat="41.09678" lon="31.20998">
        <ele>17.430789</ele>
        <time>2021-08-22T01:30:10.950Z</time>
      </trkpt>
      <trkpt lat="41.09676" lon="31.20916">
        <ele>19.309026</ele>
        <time>2021-08-22T01:30:44.735Z</time>
      </trkpt>
      <trkpt lat="41.09569" lon="31.20069">
        <ele>15.168381</ele>
        <time>2021-08-22T01:33:47.134Z</time>
      </trkpt>
      <trkpt lat="41.09535" lon="31.19829">
        <ele>9.650302</ele>
        <time>2021-08-22T01:34:27.189Z</time>
      </trkpt>
      <trkpt lat="41.09529" lon="31.19783">
        <ele>8.43859</ele>
        <time>2021-08-22T01:34:35.387Z</time>
      </trkpt>
      <trkpt lat="41.09517" lon="31.19681">
        <ele>8.994875</ele>
        <time>2021-08-22T01:34:56.522Z</time>
      </trkpt>
      <trkpt lat="41.09512" lon="31.19643">
        <ele>9.424614</ele>
        <time>2021-08-22T01:35:07.006Z</time>
      </trkpt>
      <trkpt lat="41.09481" lon="31.19474">
        <ele>13.746753</ele>
        <time>2021-08-22T01:36:16.521Z</time>
      </trkpt>
      <trkpt lat="41.09449" lon="31.19336">
        <ele>20.954987</ele>
        <time>2021-08-22T01:37:33.973Z</time>
      </trkpt>
      <trkpt lat="41.09408" lon="31.19207">
        <ele>29.669702</ele>
        <time>2021-08-22T01:39:00.515Z</time>
      </trkpt>
      <trkpt lat="41.09357" lon="31.19082">
        <ele>38.969146</ele>
        <time>2021-08-22T01:40:28.969Z</time>
      </trkpt>
      <trkpt lat="41.093" lon="31.18958">
        <ele>46.295449</ele>
        <time>2021-08-22T01:41:48.264Z</time>
      </trkpt>
      <trkpt lat="41.09223" lon="31.18816">
        <ele>52.862503</ele>
        <time>2021-08-22T01:43:04.965Z</time>
      </trkpt>
      <trkpt lat="41.09147" lon="31.18701">
        <ele>56.783646</ele>
        <time>2021-08-22T01:43:59.036Z</time>
      </trkpt>
      <trkpt lat="41.08961" lon="31.18448">
        <ele>60.373366</ele>
        <time>2021-08-22T01:45:43.781Z</time>
      </trkpt>
      <trkpt lat="41.08892" lon="31.18334">
        <ele>60.902497</ele>
        <time>2021-08-22T01:46:19.491Z</time>
      </trkpt>
      <trkpt lat="41.08869" lon="31.18288">
        <ele>60.589708</ele>
        <time>2021-08-22T01:46:31.321Z</time>
      </trkpt>
      <trkpt lat="41.08836" lon="31.1822">
        <ele>60.123714</ele>
        <time>2021-08-22T01:46:47.869Z</time>
      </trkpt>
      <trkpt lat="41.08717" lon="31.17915">
        <ele>58.147438</ele>
        <time>2021-08-22T01:47:56.167Z</time>
      </trkpt>
      <trkpt lat="41.08693" lon="31.17858">
        <ele>58.957393</ele>
        <time>2021-08-22T01:48:14.445Z</time>
      </trkpt>
      <trkpt lat="41.08679" lon="31.17825">
        <ele>59.438667</ele>
        <time>2021-08-22T01:48:26.418Z</time>
      </trkpt>
      <trkpt lat="41.08647" lon="31.17769">
        <ele>60.308219</ele>
        <time>2021-08-22T01:48:50.337Z</time>
      </trkpt>
      <trkpt lat="41.0861" lon="31.17704">
        <ele>61.981318</ele>
        <time>2021-08-22T01:49:22.511Z</time>
      </trkpt>
      <trkpt lat="41.08572" lon="31.1763">
        <ele>64.388433</ele>
        <time>2021-08-22T01:49:59.213Z</time>
      </trkpt>
      <trkpt lat="41.08559" lon="31.17602">
        <ele>65.233641</ele>
        <time>2021-08-22T01:50:12.393Z</time>
      </trkpt>
      <trkpt lat="41.08554" lon="31.17593">
        <ele>65.553406</ele>
        <time>2021-08-22T01:50:16.585Z</time>
      </trkpt>
      <trkpt lat="41.08545" lon="31.17579">
        <ele>66.037344</ele>
        <time>2021-08-22T01:50:23.329Z</time>
      </trkpt>
      <trkpt lat="41.08538" lon="31.17566">
        <ele>66.476498</ele>
        <time>2021-08-22T01:50:30.214Z</time>
      </trkpt>
      <trkpt lat="41.08469" lon="31.17447">
        <ele>68.645624</ele>
        <time>2021-08-22T01:51:19.756Z</time>
      </trkpt>
      <trkpt lat="41.0844" lon="31.1738">
        <ele>69.586698</ele>
        <time>2021-08-22T01:51:40.474Z</time>
      </trkpt>
      <trkpt lat="41.08423" lon="31.17301">
        <ele>70.163611</ele>
        <time>2021-08-22T01:52:01.567Z</time>
      </trkpt>
      <trkpt lat="41.08419" lon="31.17261">
        <ele>70.289503</ele>
        <time>2021-08-22T01:52:11.714Z</time>
      </trkpt>
      <trkpt lat="41.08415" lon="31.172">
        <ele>70.484305</ele>
        <time>2021-08-22T01:52:27.753Z</time>
      </trkpt>
      <trkpt lat="41.08428" lon="31.17129">
        <ele>70.71534</ele>
        <time>2021-08-22T01:52:46.452Z</time>
      </trkpt>
      <trkpt lat="41.08473" lon="31.16965">
        <ele>69.880194</ele>
        <time>2021-08-22T01:53:26.625Z</time>
      </trkpt>
      <trkpt lat="41.08477" lon="31.16952">
        <ele>69.804448</ele>
        <time>2021-08-22T01:53:29.399Z</time>
      </trkpt>
      <trkpt lat="41.08565" lon="31.16631">
        <ele>65.189735</ele>
        <time>2021-08-22T01:54:31.901Z</time>
      </trkpt>
      <trkpt lat="41.08577" lon="31.16522">
        <ele>63.908924</ele>
        <time>2021-08-22T01:54:52.513Z</time>
      </trkpt>
      <trkpt lat="41.08591" lon="31.16474">
        <ele>63.317357</ele>
        <time>2021-08-22T01:55:03.170Z</time>
      </trkpt>
      <trkpt lat="41.08594" lon="31.16415">
        <ele>62.966185</ele>
        <time>2021-08-22T01:55:16.345Z</time>
      </trkpt>
      <trkpt lat="41.08582" lon="31.16304">
        <ele>63.69753</ele>
        <time>2021-08-22T01:55:46.280Z</time>
      </trkpt>
      <trkpt lat="41.08581" lon="31.16163">
        <ele>64.639237</ele>
        <time>2021-08-22T01:56:31.221Z</time>
      </trkpt>
      <trkpt lat="41.08569" lon="31.16129">
        <ele>64.919261</ele>
        <time>2021-08-22T01:56:43.656Z</time>
      </trkpt>
      <trkpt lat="41.08543" lon="31.16082">
        <ele>65.347582</ele>
        <time>2021-08-22T01:57:02.771Z</time>
      </trkpt>
      <trkpt lat="41.08519" lon="31.16051">
        <ele>65.678812</ele>
        <time>2021-08-22T01:57:16.878Z</time>
      </trkpt>
      <trkpt lat="41.08504" lon="31.15998">
        <ele>66.097393</ele>
        <time>2021-08-22T01:57:30.340Z</time>
      </trkpt>
      <trkpt lat="41.08507" lon="31.15958">
        <ele>65.000471</ele>
        <time>2021-08-22T01:57:38.196Z</time>
      </trkpt>
      <trkpt lat="41.08519" lon="31.15919">
        <ele>63.404442</ele>
        <time>2021-08-22T01:57:46.455Z</time>
      </trkpt>
      <trkpt lat="41.08526" lon="31.15913">
        <ele>62.996324</ele>
        <time>2021-08-22T01:57:48.487Z</time>
      </trkpt>
      <trkpt lat="41.0854" lon="31.15902">
        <ele>62.171661</ele>
        <time>2021-08-22T01:57:52.746Z</time>
      </trkpt>
      <trkpt lat="41.08562" lon="31.15885">
        <ele>60.902873</ele>
        <time>2021-08-22T01:57:58.196Z</time>
      </trkpt>
      <trkpt lat="41.08572" lon="31.15868">
        <ele>60.098596</ele>
        <time>2021-08-22T01:58:01.587Z</time>
      </trkpt>
      <trkpt lat="41.08577" lon="31.15858">
        <ele>59.639047</ele>
        <time>2021-08-22T01:58:03.426Z</time>
      </trkpt>
      <trkpt lat="41.08588" lon="31.15768">
        <ele>55.00023</ele>
        <time>2021-08-22T01:58:17.658Z</time>
      </trkpt>
      <trkpt lat="41.08613" lon="31.15734">
        <ele>51.067704</ele>
        <time>2021-08-22T01:58:24.764Z</time>
      </trkpt>
      <trkpt lat="41.08621" lon="31.15711">
        <ele>48.978862</ele>
        <time>2021-08-22T01:58:28.538Z</time>
      </trkpt>
      <trkpt lat="41.08632" lon="31.15706">
        <ele>47.751783</ele>
        <time>2021-08-22T01:58:30.637Z</time>
      </trkpt>
      <trkpt lat="41.0867" lon="31.15649">
        <ele>41.421995</ele>
        <time>2021-08-22T01:58:41.879Z</time>
      </trkpt>
      <trkpt lat="41.08677" lon="31.15634">
        <ele>39.940575</ele>
        <time>2021-08-22T01:58:44.444Z</time>
      </trkpt>
      <trkpt lat="41.0869" lon="31.15605">
        <ele>37.186494</ele>
        <time>2021-08-22T01:58:49.516Z</time>
      </trkpt>
      <trkpt lat="41.08695" lon="31.15588">
        <ele>36.016978</ele>
        <time>2021-08-22T01:58:52.149Z</time>
      </trkpt>
      <trkpt lat="41.08704" lon="31.15558">
        <ele>33.931556</ele>
        <time>2021-08-22T01:58:57.008Z</time>
      </trkpt>
      <trkpt lat="41.08699" lon="31.15541">
        <ele>32.809774</ele>
        <time>2021-08-22T01:58:59.552Z</time>
      </trkpt>
      <trkpt lat="41.08698" lon="31.15499">
        <ele>30.127884</ele>
        <time>2021-08-22T01:59:06.108Z</time>
      </trkpt>
      <trkpt lat="41.08705" lon="31.15407">
        <ele>24.222074</ele>
        <time>2021-08-22T01:59:20.734Z</time>
      </trkpt>
      <trkpt lat="41.08708" lon="31.15378">
        <ele>22.348142</ele>
        <time>2021-08-22T01:59:25.440Z</time>
      </trkpt>
      <trkpt lat="41.08714" lon="31.15343">
        <ele>21.543544</ele>
        <time>2021-08-22T01:59:31.362Z</time>
      </trkpt>
      <trkpt lat="41.08719" lon="31.15316">
        <ele>21.063407</ele>
        <time>2021-08-22T01:59:36.706Z</time>
      </trkpt>
      <trkpt lat="41.08722" lon="31.15313">
        <ele>20.982135</ele>
        <time>2021-08-22T01:59:37.536Z</time>
      </trkpt>
      <trkpt lat="41.08766" lon="31.15245">
        <ele>19.447933</ele>
        <time>2021-08-22T01:59:54.110Z</time>
      </trkpt>
      <trkpt lat="41.08797" lon="31.15193">
        <ele>18.309443</ele>
        <time>2021-08-22T02:00:08.305Z</time>
      </trkpt>
      <trkpt lat="41.08844" lon="31.15114">
        <ele>18.004668</ele>
        <time>2021-08-22T02:00:33.496Z</time>
      </trkpt>
      <trkpt lat="41.08893" lon="31.15038">
        <ele>18.006581</ele>
        <time>2021-08-22T02:00:57.867Z</time>
      </trkpt>
      <trkpt lat="41.08914" lon="31.14979">
        <ele>17.923002</ele>
        <time>2021-08-22T02:01:13.460Z</time>
      </trkpt>
      <trkpt lat="41.08931" lon="31.14773">
        <ele>16.045003</ele>
        <time>2021-08-22T02:01:55.630Z</time>
      </trkpt>
      <trkpt lat="41.08955" lon="31.14629">
        <ele>13.037957</ele>
        <time>2021-08-22T02:02:21.132Z</time>
      </trkpt>
      <trkpt lat="41.08958" lon="31.14585">
        <ele>12.034825</ele>
        <time>2021-08-22T02:02:28.841Z</time>
      </trkpt>
      <trkpt lat="41.08959" lon="31.14564">
        <ele>11.561609</ele>
        <time>2021-08-22T02:02:32.411Z</time>
      </trkpt>
      <trkpt lat="41.08955" lon="31.14526">
        <ele>10.705724</ele>
        <time>2021-08-22T02:02:38.978Z</time>
      </trkpt>
      <trkpt lat="41.08946" lon="31.1447">
        <ele>9.841121</ele>
        <time>2021-08-22T02:02:48.862Z</time>
      </trkpt>
      <trkpt lat="41.08929" lon="31.14381">
        <ele>8.575515</ele>
        <time>2021-08-22T02:03:05.613Z</time>
      </trkpt>
      <trkpt lat="41.08923" lon="31.14364">
        <ele>8.326057</ele>
        <time>2021-08-22T02:03:09.217Z</time>
      </trkpt>
      <trkpt lat="41.08919" lon="31.14349">
        <ele>8.102287</ele>
        <time>2021-08-22T02:03:12.508Z</time>
      </trkpt>
      <trkpt lat="41.08895" lon="31.14277">
        <ele>7.194688</ele>
        <time>2021-08-22T02:03:29.603Z</time>
      </trkpt>
      <trkpt lat="41.08889" lon="31.14256">
        <ele>7.169468</ele>
        <time>2021-08-22T02:03:34.583Z</time>
      </trkpt>
      <trkpt lat="41.08874" lon="31.14213">
        <ele>7.114437</ele>
        <time>2021-08-22T02:03:45.306Z</time>
      </trkpt>
      <trkpt lat="41.08863" lon="31.1417">
        <ele>7.062428</ele>
        <time>2021-08-22T02:03:55.515Z</time>
      </trkpt>
      <trkpt lat="41.08859" lon="31.14119">
        <ele>7.00351</ele>
        <time>2021-08-22T02:04:07.548Z</time>
      </trkpt>
      <trkpt lat="41.08867" lon="31.14094">
        <ele>6.971104</ele>
        <time>2021-08-22T02:04:14.174Z</time>
      </trkpt>
      <trkpt lat="41.08898" lon="31.14077">
        <ele>6.952905</ele>
        <time>2021-08-22T02:04:25.275Z</time>
      </trkpt>
      <trkpt lat="41.08928" lon="31.14063">
        <ele>7.010029</ele>
        <time>2021-08-22T02:04:35.989Z</time>
      </trkpt>
      <trkpt lat="41.08969" lon="31.14031">
        <ele>7.094264</ele>
        <time>2021-08-22T02:04:51.569Z</time>
      </trkpt>
      <trkpt lat="41.08992" lon="31.13975">
        <ele>7.179577</ele>
        <time>2021-08-22T02:05:07.021Z</time>
      </trkpt>
      <trkpt lat="41.08999" lon="31.13952">
        <ele>7.212147</ele>
        <time>2021-08-22T02:05:13.291Z</time>
      </trkpt>
      <trkpt lat="41.09008" lon="31.13882">
        <ele>7.637296</ele>
        <time>2021-08-22T02:05:32.450Z</time>
      </trkpt>
      <trkpt lat="41.09008" lon="31.13842">
        <ele>8.015518</ele>
        <time>2021-08-22T02:05:43.815Z</time>
      </trkpt>
      <trkpt lat="41.09004" lon="31.13794">
        <ele>8.484363</ele>
        <time>2021-08-22T02:05:58.232Z</time>
      </trkpt>
      <trkpt lat="41.09003" lon="31.13766">
        <ele>8.749872</ele>
        <time>2021-08-22T02:06:06.687Z</time>
      </trkpt>
      <trkpt lat="41.09004" lon="31.13727">
        <ele>9.122771</ele>
        <time>2021-08-22T02:06:18.459Z</time>
      </trkpt>
      <trkpt lat="41.09007" lon="31.13707">
        <ele>9.317569</ele>
        <time>2021-08-22T02:06:24.903Z</time>
      </trkpt>
      <trkpt lat="41.09007" lon="31.13666">
        <ele>9.913856</ele>
        <time>2021-08-22T02:06:38.463Z</time>
      </trkpt>
      <trkpt lat="41.09008" lon="31.13512">
        <ele>13.055591</ele>
        <time>2021-08-22T02:07:33.365Z</time>
      </trkpt>
      <trkpt lat="41.09006" lon="31.13476">
        <ele>13.802203</ele>
        <time>2021-08-22T02:07:47.224Z</time>
      </trkpt>
      <trkpt lat="41.09011" lon="31.13451">
        <ele>14.318065</ele>
        <time>2021-08-22T02:07:56.782Z</time>
      </trkpt>
      <trkpt lat="41.09029" lon="31.13366">
        <ele>16.867204</ele>
        <time>2021-08-22T02:08:31.710Z</time>
      </trkpt>
      <trkpt lat="41.09004" lon="31.13199">
        <ele>21.718789</ele>
        <time>2021-08-22T02:09:43.795Z</time>
      </trkpt>
      <trkpt lat="41.0898" lon="31.13086">
        <ele>24.061359</ele>
        <time>2021-08-22T02:10:31.224Z</time>
      </trkpt>
      <trkpt lat="41.08975" lon="31.12986">
        <ele>26.064909</ele>
        <time>2021-08-22T02:11:02.849Z</time>
      </trkpt>
      <trkpt lat="41.08976" lon="31.1294">
        <ele>25.533381</ele>
        <time>2021-08-22T02:11:14.898Z</time>
      </trkpt>
      <trkpt lat="41.08977" lon="31.12878">
        <ele>24.539716</ele>
        <time>2021-08-22T02:11:28.667Z</time>
      </trkpt>
      <trkpt lat="41.08977" lon="31.12683">
        <ele>20.628892</ele>
        <time>2021-08-22T02:12:02.754Z</time>
      </trkpt>
      <trkpt lat="41.08972" lon="31.12658">
        <ele>19.85546</ele>
        <time>2021-08-22T02:12:07.177Z</time>
      </trkpt>
      <trkpt lat="41.0897" lon="31.12622">
        <ele>18.783193</ele>
        <time>2021-08-22T02:12:13.239Z</time>
      </trkpt>
      <trkpt lat="41.08944" lon="31.12394">
        <ele>14.996689</ele>
        <time>2021-08-22T02:12:54.448Z</time>
      </trkpt>
      <trkpt lat="41.08942" lon="31.12384">
        <ele>14.971012</ele>
        <time>2021-08-22T02:12:56.654Z</time>
      </trkpt>
      <trkpt lat="41.08941" lon="31.12378">
        <ele>14.955636</ele>
        <time>2021-08-22T02:12:58.366Z</time>
      </trkpt>
      <trkpt lat="41.08939" lon="31.12366">
        <ele>14.925522</ele>
        <time>2021-08-22T02:13:02.092Z</time>
      </trkpt>
      <trkpt lat="41.08937" lon="31.12356">
        <ele>14.900038</ele>
        <time>2021-08-22T02:13:05.420Z</time>
      </trkpt>
      <trkpt lat="41.08935" lon="31.12338">
        <ele>14.851625</ele>
        <time>2021-08-22T02:13:10.873Z</time>
      </trkpt>
      <trkpt lat="41.08919" lon="31.12251">
        <ele>15.546063</ele>
        <time>2021-08-22T02:13:43.890Z</time>
      </trkpt>
      <trkpt lat="41.08909" lon="31.12239">
        <ele>16.25247</ele>
        <time>2021-08-22T02:13:50.914Z</time>
      </trkpt>
      <trkpt lat="41.089" lon="31.12227">
        <ele>16.982447</ele>
        <time>2021-08-22T02:13:59.335Z</time>
      </trkpt>
      <trkpt lat="41.08875" lon="31.12207">
        <ele>18.614085</ele>
        <time>2021-08-22T02:14:17.657Z</time>
      </trkpt>
      <trkpt lat="41.08866" lon="31.12202">
        <ele>19.144735</ele>
        <time>2021-08-22T02:14:24.581Z</time>
      </trkpt>
      <trkpt lat="41.08869" lon="31.12139">
        <ele>21.765732</ele>
        <time>2021-08-22T02:14:57.117Z</time>
      </trkpt>
      <trkpt lat="41.08871" lon="31.12099">
        <ele>23.427352</ele>
        <time>2021-08-22T02:15:17.596Z</time>
      </trkpt>
      <trkpt lat="41.08872" lon="31.12066">
        <ele>24.815421</ele>
        <time>2021-08-22T02:15:35.450Z</time>
      </trkpt>
      <trkpt lat="41.08875" lon="31.12016">
        <ele>26.903661</ele>
        <time>2021-08-22T02:16:01.443Z</time>
      </trkpt>
      <trkpt lat="41.08876" lon="31.12004">
        <ele>27.40267</ele>
        <time>2021-08-22T02:16:07.860Z</time>
      </trkpt>
      <trkpt lat="41.08877" lon="31.11955">
        <ele>29.454311</ele>
        <time>2021-08-22T02:16:31.416Z</time>
      </trkpt>
      <trkpt lat="41.08886" lon="31.11914">
        <ele>31.215812</ele>
        <time>2021-08-22T02:16:50.934Z</time>
      </trkpt>
      <trkpt lat="41.08886" lon="31.11888">
        <ele>32.273879</ele>
        <time>2021-08-22T02:17:02.414Z</time>
      </trkpt>
      <trkpt lat="41.08886" lon="31.11854">
        <ele>33.701232</ele>
        <time>2021-08-22T02:17:18.032Z</time>
      </trkpt>
      <trkpt lat="41.08888" lon="31.11809">
        <ele>35.370531</ele>
        <time>2021-08-22T02:17:38.029Z</time>
      </trkpt>
      <trkpt lat="41.08856" lon="31.1177">
        <ele>37.272246</ele>
        <time>2021-08-22T02:18:02.836Z</time>
      </trkpt>
      <trkpt lat="41.08824" lon="31.11759">
        <ele>38.745297</ele>
        <time>2021-08-22T02:18:22.655Z</time>
      </trkpt>
      <trkpt lat="41.08781" lon="31.11746">
        <ele>40.672014</ele>
        <time>2021-08-22T02:18:48.016Z</time>
      </trkpt>
      <trkpt lat="41.08783" lon="31.11688">
        <ele>42.568495</ele>
        <time>2021-08-22T02:19:11.528Z</time>
      </trkpt>
      <trkpt lat="41.08842" lon="31.11403">
        <ele>48.856461</ele>
        <time>2021-08-22T02:21:02.488Z</time>
      </trkpt>
      <trkpt lat="41.0885" lon="31.11311">
        <ele>49.459232</ele>
        <time>2021-08-22T02:21:26.711Z</time>
      </trkpt>
      <trkpt lat="41.08843" lon="31.11249">
        <ele>49.862867</ele>
        <time>2021-08-22T02:21:40.576Z</time>
      </trkpt>
      <trkpt lat="41.08841" lon="31.11232">
        <ele>49.978965</ele>
        <time>2021-08-22T02:21:43.951Z</time>
      </trkpt>
      <trkpt lat="41.08835" lon="31.11152">
        <ele>48.951302</ele>
        <time>2021-08-22T02:22:00.069Z</time>
      </trkpt>
      <trkpt lat="41.08829" lon="31.11083">
        <ele>47.974266</ele>
        <time>2021-08-22T02:22:12.653Z</time>
      </trkpt>
      <trkpt lat="41.08827" lon="31.11058">
        <ele>47.608781</ele>
        <time>2021-08-22T02:22:17.564Z</time>
      </trkpt>
      <trkpt lat="41.08827" lon="31.10998">
        <ele>46.759546</ele>
        <time>2021-08-22T02:22:28.215Z</time>
      </trkpt>
      <trkpt lat="41.08804" lon="31.10936">
        <ele>45.778963</ele>
        <time>2021-08-22T02:22:40.756Z</time>
      </trkpt>
      <trkpt lat="41.0877" lon="31.10847">
        <ele>44.382381</ele>
        <time>2021-08-22T02:22:59.249Z</time>
      </trkpt>
      <trkpt lat="41.08766" lon="31.10837">
        <ele>44.212606</ele>
        <time>2021-08-22T02:23:01.293Z</time>
      </trkpt>
      <trkpt lat="41.08732" lon="31.10757">
        <ele>43.08281</ele>
        <time>2021-08-22T02:23:19.361Z</time>
      </trkpt>
      <trkpt lat="41.08707" lon="31.10695">
        <ele>42.574492</ele>
        <time>2021-08-22T02:23:34.533Z</time>
      </trkpt>
      <trkpt lat="41.08659" lon="31.10631">
        <ele>41.913941</ele>
        <time>2021-08-22T02:23:54.193Z</time>
      </trkpt>
      <trkpt lat="41.08595" lon="31.10558">
        <ele>39.829729</ele>
        <time>2021-08-22T02:24:16.343Z</time>
      </trkpt>
      <trkpt lat="41.08587" lon="31.10549">
        <ele>39.422491</ele>
        <time>2021-08-22T02:24:18.695Z</time>
      </trkpt>
      <trkpt lat="41.0853" lon="31.10485">
        <ele>36.545777</ele>
        <time>2021-08-22T02:24:35.215Z</time>
      </trkpt>
      <trkpt lat="41.08501" lon="31.10449">
        <ele>35.006985</ele>
        <time>2021-08-22T02:24:43.564Z</time>
      </trkpt>
      <trkpt lat="41.08483" lon="31.10427">
        <ele>33.634657</ele>
        <time>2021-08-22T02:24:48.375Z</time>
      </trkpt>
      <trkpt lat="41.08435" lon="31.10391">
        <ele>29.682127</ele>
        <time>2021-08-22T02:24:59.429Z</time>
      </trkpt>
      <trkpt lat="41.08385" lon="31.10375">
        <ele>26.037862</ele>
        <time>2021-08-22T02:25:09.565Z</time>
      </trkpt>
      <trkpt lat="41.08352" lon="31.10379">
        <ele>23.698306</ele>
        <time>2021-08-22T02:25:16.002Z</time>
      </trkpt>
      <trkpt lat="41.0834" lon="31.1038">
        <ele>22.816407</ele>
        <time>2021-08-22T02:25:18.438Z</time>
      </trkpt>
      <trkpt lat="41.08227" lon="31.10399">
        <ele>17.774958</ele>
        <time>2021-08-22T02:25:42.061Z</time>
      </trkpt>
      <trkpt lat="41.08213" lon="31.10398">
        <ele>17.208374</ele>
        <time>2021-08-22T02:25:45.076Z</time>
      </trkpt>
      <trkpt lat="41.08203" lon="31.10397">
        <ele>16.78851</ele>
        <time>2021-08-22T02:25:47.345Z</time>
      </trkpt>
      <trkpt lat="41.08183" lon="31.10353">
        <ele>15.224707</ele>
        <time>2021-08-22T02:25:57.161Z</time>
      </trkpt>
      <trkpt lat="41.0818" lon="31.10347">
        <ele>15.005171</ele>
        <time>2021-08-22T02:25:59.448Z</time>
      </trkpt>
      <trkpt lat="41.08162" lon="31.10307">
        <ele>14.780687</ele>
        <time>2021-08-22T02:26:09.099Z</time>
      </trkpt>
      <trkpt lat="41.08139" lon="31.10266">
        <ele>15.239954</ele>
        <time>2021-08-22T02:26:20.471Z</time>
      </trkpt>
      <trkpt lat="41.08098" lon="31.10266">
        <ele>15.73626</ele>
        <time>2021-08-22T02:26:33.731Z</time>
      </trkpt>
      <trkpt lat="41.08046" lon="31.10274">
        <ele>16.359387</ele>
        <time>2021-08-22T02:26:56.825Z</time>
      </trkpt>
      <trkpt lat="41.08005" lon="31.1027">
        <ele>17.709373</ele>
        <time>2021-08-22T02:27:18.458Z</time>
      </trkpt>
      <trkpt lat="41.07942" lon="31.1024">
        <ele>22.255239</ele>
        <time>2021-08-22T02:27:58.797Z</time>
      </trkpt>
      <trkpt lat="41.07843" lon="31.10035">
        <ele>37.41853</ele>
        <time>2021-08-22T02:30:26.254Z</time>
      </trkpt>
      <trkpt lat="41.07777" lon="31.09974">
        <ele>45.376403</ele>
        <time>2021-08-22T02:31:40.087Z</time>
      </trkpt>
      <trkpt lat="41.07737" lon="31.09912">
        <ele>51.840764</ele>
        <time>2021-08-22T02:32:38.301Z</time>
      </trkpt>
      <trkpt lat="41.07712" lon="31.09788">
        <ele>62.215085</ele>
        <time>2021-08-22T02:34:10.614Z</time>
      </trkpt>
      <trkpt lat="41.07678" lon="31.09679">
        <ele>69.040264</ele>
        <time>2021-08-22T02:35:23.582Z</time>
      </trkpt>
      <trkpt lat="41.07514" lon="31.09501">
        <ele>78.505041</ele>
        <time>2021-08-22T02:37:18.730Z</time>
      </trkpt>
      <trkpt lat="41.0744" lon="31.09414">
        <ele>80.668932</ele>
        <time>2021-08-22T02:37:55.125Z</time>
      </trkpt>
      <trkpt lat="41.07408" lon="31.09323">
        <ele>79.568753</ele>
        <time>2021-08-22T02:38:20.853Z</time>
      </trkpt>
      <trkpt lat="41.0742" lon="31.09125">
        <ele>75.106765</ele>
        <time>2021-08-22T02:38:55.397Z</time>
      </trkpt>
      <trkpt lat="41.07407" lon="31.09111">
        <ele>74.138081</ele>
        <time>2021-08-22T02:38:58.693Z</time>
      </trkpt>
      <trkpt lat="41.0737" lon="31.09078">
        <ele>71.500374</ele>
        <time>2021-08-22T02:39:07.936Z</time>
      </trkpt>
      <trkpt lat="41.0732" lon="31.09084">
        <ele>68.540934</ele>
        <time>2021-08-22T02:39:17.964Z</time>
      </trkpt>
      <trkpt lat="41.073" lon="31.09075">
        <ele>67.288014</ele>
        <time>2021-08-22T02:39:21.981Z</time>
      </trkpt>
      <trkpt lat="41.07274" lon="31.0902">
        <ele>63.992484</ele>
        <time>2021-08-22T02:39:31.623Z</time>
      </trkpt>
      <trkpt lat="41.07236" lon="31.08962">
        <ele>60.15711</ele>
        <time>2021-08-22T02:39:43.142Z</time>
      </trkpt>
      <trkpt lat="41.07201" lon="31.08881">
        <ele>55.480972</ele>
        <time>2021-08-22T02:39:57.733Z</time>
      </trkpt>
      <trkpt lat="41.07049" lon="31.08491">
        <ele>43.074955</ele>
        <time>2021-08-22T02:41:11.790Z</time>
      </trkpt>
      <trkpt lat="41.07039" lon="31.08433">
        <ele>41.592627</ele>
        <time>2021-08-22T02:41:21.999Z</time>
      </trkpt>
      <trkpt lat="41.07" lon="31.08273">
        <ele>37.716135</ele>
        <time>2021-08-22T02:41:51.423Z</time>
      </trkpt>
      <trkpt lat="41.06938" lon="31.08147">
        <ele>34.570208</ele>
        <time>2021-08-22T02:42:17.567Z</time>
      </trkpt>
      <trkpt lat="41.06928" lon="31.08127">
        <ele>34.086171</ele>
        <time>2021-08-22T02:42:21.902Z</time>
      </trkpt>
      <trkpt lat="41.06945" lon="31.08111">
        <ele>33.545472</ele>
        <time>2021-08-22T02:42:26.622Z</time>
      </trkpt>
      <trkpt lat="41.06965" lon="31.08074">
        <ele>32.630856</ele>
        <time>2021-08-22T02:42:34.864Z</time>
      </trkpt>
      <trkpt lat="41.06998" lon="31.07987">
        <ele>30.989153</ele>
        <time>2021-08-22T02:42:52.622Z</time>
      </trkpt>
      <trkpt lat="41.0701" lon="31.07923">
        <ele>30.009569</ele>
        <time>2021-08-22T02:43:04.971Z</time>
      </trkpt>
      <trkpt lat="41.07069" lon="31.07805">
        <ele>27.876985</ele>
        <time>2021-08-22T02:43:31.928Z</time>
      </trkpt>
      <trkpt lat="41.07099" lon="31.07762">
        <ele>26.921648</ele>
        <time>2021-08-22T02:43:42.901Z</time>
      </trkpt>
      <trkpt lat="41.0713" lon="31.07683">
        <ele>25.484407</ele>
        <time>2021-08-22T02:43:59.059Z</time>
      </trkpt>
      <trkpt lat="41.07138" lon="31.07632">
        <ele>24.634169</ele>
        <time>2021-08-22T02:44:08.441Z</time>
      </trkpt>
      <trkpt lat="41.07132" lon="31.07612">
        <ele>24.290762</ele>
        <time>2021-08-22T02:44:12.342Z</time>
      </trkpt>
      <trkpt lat="41.07137" lon="31.07574">
        <ele>23.700213</ele>
        <time>2021-08-22T02:44:19.292Z</time>
      </trkpt>
      <trkpt lat="41.07163" lon="31.0752">
        <ele>22.728023</ele>
        <time>2021-08-22T02:44:30.775Z</time>
      </trkpt>
      <trkpt lat="41.07174" lon="31.0747">
        <ele>21.945404</ele>
        <time>2021-08-22T02:44:40.273Z</time>
      </trkpt>
      <trkpt lat="41.07176" lon="31.07345">
        <ele>21.02088</ele>
        <time>2021-08-22T02:45:04.854Z</time>
      </trkpt>
      <trkpt lat="41.07179" lon="31.07334">
        <ele>21.064274</ele>
        <time>2021-08-22T02:45:07.305Z</time>
      </trkpt>
      <trkpt lat="41.07088" lon="31.07154">
        <ele>22.901193</ele>
        <time>2021-08-22T02:46:08.473Z</time>
      </trkpt>
      <trkpt lat="41.07016" lon="31.07053">
        <ele>26.776471</ele>
        <time>2021-08-22T02:47:02.583Z</time>
      </trkpt>
      <trkpt lat="41.06985" lon="31.06938">
        <ele>31.879619</ele>
        <time>2021-08-22T02:48:01.359Z</time>
      </trkpt>
      <trkpt lat="41.06964" lon="31.06929">
        <ele>33.453344</ele>
        <time>2021-08-22T02:48:16.430Z</time>
      </trkpt>
      <trkpt lat="41.06893" lon="31.07005">
        <ele>39.913876</ele>
        <time>2021-08-22T02:49:22.980Z</time>
      </trkpt>
      <trkpt lat="41.06839" lon="31.07003">
        <ele>44.887782</ele>
        <time>2021-08-22T02:50:06.484Z</time>
      </trkpt>
      <trkpt lat="41.06747" lon="31.06925">
        <ele>55.878121</ele>
        <time>2021-08-22T02:51:43.165Z</time>
      </trkpt>
      <trkpt lat="41.06615" lon="31.06924">
        <ele>69.818155</ele>
        <time>2021-08-22T02:53:49.792Z</time>
      </trkpt>
      <trkpt lat="41.06573" lon="31.0691">
        <ele>74.506497</ele>
        <time>2021-08-22T02:54:29.815Z</time>
      </trkpt>
      <trkpt lat="41.0655" lon="31.06883">
        <ele>77.75958</ele>
        <time>2021-08-22T02:54:55.997Z</time>
      </trkpt>
      <trkpt lat="41.06538" lon="31.06849">
        <ele>80.149863</ele>
        <time>2021-08-22T02:55:20.323Z</time>
      </trkpt>
      <trkpt lat="41.06518" lon="31.0684">
        <ele>81.719104</ele>
        <time>2021-08-22T02:55:36.439Z</time>
      </trkpt>
      <trkpt lat="41.06487" lon="31.06818">
        <ele>84.363234</ele>
        <time>2021-08-22T02:56:02.987Z</time>
      </trkpt>
      <trkpt lat="41.06467" lon="31.06815">
        <ele>85.88904</ele>
        <time>2021-08-22T02:56:17.413Z</time>
      </trkpt>
      <trkpt lat="41.06397" lon="31.06831">
        <ele>91.177691</ele>
        <time>2021-08-22T02:57:06.535Z</time>
      </trkpt>
      <trkpt lat="41.06326" lon="31.06853">
        <ele>96.214382</ele>
        <time>2021-08-22T02:57:51.027Z</time>
      </trkpt>
      <trkpt lat="41.06264" lon="31.069">
        <ele>100.99</ele>
        <time>2021-08-22T02:58:39.379Z</time>
      </trkpt>
      <trkpt lat="41.06165" lon="31.06926">
        <ele>109.090615</ele>
        <time>2021-08-22T02:59:57.288Z</time>
      </trkpt>
      <trkpt lat="41.06098" lon="31.06916">
        <ele>115.209355</ele>
        <time>2021-08-22T03:00:53.782Z</time>
      </trkpt>
      <trkpt lat="41.06069" lon="31.06903">
        <ele>117.969846</ele>
        <time>2021-08-22T03:01:19.722Z</time>
      </trkpt>
      <trkpt lat="41.06044" lon="31.06864">
        <ele>121.029065</ele>
        <time>2021-08-22T03:01:54.655Z</time>
      </trkpt>
      <trkpt lat="41.06011" lon="31.06846">
        <ele>122.711807</ele>
        <time>2021-08-22T03:02:25.766Z</time>
      </trkpt>
      <trkpt lat="41.05932" lon="31.06855">
        <ele>126.447523</ele>
        <time>2021-08-22T03:03:17.750Z</time>
      </trkpt>
      <trkpt lat="41.05908" lon="31.06844">
        <ele>127.694961</ele>
        <time>2021-08-22T03:03:29.739Z</time>
      </trkpt>
      <trkpt lat="41.05898" lon="31.0684">
        <ele>128.170058</ele>
        <time>2021-08-22T03:03:32.800Z</time>
      </trkpt>
      <trkpt lat="41.05874" lon="31.06828">
        <ele>128.37134</ele>
        <time>2021-08-22T03:03:38.729Z</time>
      </trkpt>
      <trkpt lat="41.05844" lon="31.06759">
        <ele>122.740804</ele>
        <time>2021-08-22T03:03:51.809Z</time>
      </trkpt>
      <trkpt lat="41.05828" lon="31.06727">
        <ele>120.046094</ele>
        <time>2021-08-22T03:03:57.638Z</time>
      </trkpt>
      <trkpt lat="41.058" lon="31.06701">
        <ele>116.895696</ele>
        <time>2021-08-22T03:04:04.239Z</time>
      </trkpt>
      <trkpt lat="41.05796" lon="31.06689">
        <ele>115.951057</ele>
        <time>2021-08-22T03:04:06.222Z</time>
      </trkpt>
      <trkpt lat="41.05787" lon="31.06672">
        <ele>114.458484</ele>
        <time>2021-08-22T03:04:09.218Z</time>
      </trkpt>
      <trkpt lat="41.05758" lon="31.06573">
        <ele>103.551299</ele>
        <time>2021-08-22T03:04:24.424Z</time>
      </trkpt>
      <trkpt lat="41.05741" lon="31.06528">
        <ele>97.722238</ele>
        <time>2021-08-22T03:04:31.554Z</time>
      </trkpt>
      <trkpt lat="41.05737" lon="31.06488">
        <ele>93.01548</ele>
        <time>2021-08-22T03:04:37.331Z</time>
      </trkpt>
      <trkpt lat="41.05745" lon="31.0642">
        <ele>85.021259</ele>
        <time>2021-08-22T03:04:47.326Z</time>
      </trkpt>
      <trkpt lat="41.05731" lon="31.06351">
        <ele>77.589746</ele>
        <time>2021-08-22T03:04:57.660Z</time>
      </trkpt>
      <trkpt lat="41.0571" lon="31.06294">
        <ele>71.082804</ele>
        <time>2021-08-22T03:05:06.784Z</time>
      </trkpt>
      <trkpt lat="41.05693" lon="31.06259">
        <ele>66.794766</ele>
        <time>2021-08-22T03:05:12.806Z</time>
      </trkpt>
      <trkpt lat="41.05683" lon="31.06256">
        <ele>65.373502</ele>
        <time>2021-08-22T03:05:14.803Z</time>
      </trkpt>
      <trkpt lat="41.05668" lon="31.06275">
        <ele>62.555778</ele>
        <time>2021-08-22T03:05:18.781Z</time>
      </trkpt>
      <trkpt lat="41.05654" lon="31.06333">
        <ele>56.910572</ele>
        <time>2021-08-22T03:05:27.678Z</time>
      </trkpt>
      <trkpt lat="41.05639" lon="31.06336">
        <ele>55.237989</ele>
        <time>2021-08-22T03:05:30.533Z</time>
      </trkpt>
      <trkpt lat="41.05632" lon="31.0633">
        <ele>54.24416</ele>
        <time>2021-08-22T03:05:32.239Z</time>
      </trkpt>
      <trkpt lat="41.05606" lon="31.06263">
        <ele>47.844136</ele>
        <time>2021-08-22T03:05:43.309Z</time>
      </trkpt>
      <trkpt lat="41.05593" lon="31.06166">
        <ele>39.495329</ele>
        <time>2021-08-22T03:05:57.982Z</time>
      </trkpt>
      <trkpt lat="41.05623" lon="31.05926">
        <ele>28.252696</ele>
        <time>2021-08-22T03:06:36.900Z</time>
      </trkpt>
      <trkpt lat="41.05578" lon="31.05913">
        <ele>30.240483</ele>
        <time>2021-08-22T03:06:53.723Z</time>
      </trkpt>
      <trkpt lat="41.05569" lon="31.05894">
        <ele>30.972264</ele>
        <time>2021-08-22T03:07:01.368Z</time>
      </trkpt>
      <trkpt lat="41.05566" lon="31.05842">
        <ele>32.665435</ele>
        <time>2021-08-22T03:07:23.939Z</time>
      </trkpt>
      <trkpt lat="41.0559" lon="31.05768">
        <ele>35.288078</ele>
        <time>2021-08-22T03:08:12.718Z</time>
      </trkpt>
      <trkpt lat="41.05595" lon="31.0574">
        <ele>37.038652</ele>
        <time>2021-08-22T03:08:32.953Z</time>
      </trkpt>
      <trkpt lat="41.05556" lon="31.05684">
        <ele>44.457152</ele>
        <time>2021-08-22T03:09:31.085Z</time>
      </trkpt>
      <trkpt lat="41.05553" lon="31.05668">
        <ele>46.049553</ele>
        <time>2021-08-22T03:09:44.471Z</time>
      </trkpt>
      <trkpt lat="41.05555" lon="31.05654">
        <ele>47.441424</ele>
        <time>2021-08-22T03:09:56.533Z</time>
      </trkpt>
      <trkpt lat="41.05568" lon="31.05636">
        <ele>49.844145</ele>
        <time>2021-08-22T03:10:17.272Z</time>
      </trkpt>
      <trkpt lat="41.05599" lon="31.05618">
        <ele>54.280076</ele>
        <time>2021-08-22T03:10:55.196Z</time>
      </trkpt>
      <trkpt lat="41.05619" lon="31.05599">
        <ele>57.43222</ele>
        <time>2021-08-22T03:11:22.070Z</time>
      </trkpt>
      <trkpt lat="41.05644" lon="31.05568">
        <ele>61.986853</ele>
        <time>2021-08-22T03:12:00.642Z</time>
      </trkpt>
      <trkpt lat="41.05657" lon="31.05534">
        <ele>65.858935</ele>
        <time>2021-08-22T03:12:33.733Z</time>
      </trkpt>
      <trkpt lat="41.05638" lon="31.05501">
        <ele>70.126089</ele>
        <time>2021-08-22T03:13:10.687Z</time>
      </trkpt>
      <trkpt lat="41.05578" lon="31.05451">
        <ele>79.672405</ele>
        <time>2021-08-22T03:14:29.263Z</time>
      </trkpt>
      <trkpt lat="41.05526" lon="31.05373">
        <ele>86.356639</ele>
        <time>2021-08-22T03:15:41.970Z</time>
      </trkpt>
      <trkpt lat="41.05528" lon="31.05369">
        <ele>86.623404</ele>
        <time>2021-08-22T03:15:45.351Z</time>
      </trkpt>
      <trkpt lat="41.05529" lon="31.0536">
        <ele>87.040666</ele>
        <time>2021-08-22T03:15:49.981Z</time>
      </trkpt>
      <trkpt lat="41.05524" lon="31.05351">
        <ele>87.5418</ele>
        <time>2021-08-22T03:15:55.836Z</time>
      </trkpt>
      <trkpt lat="41.05515" lon="31.05333">
        <ele>88.48625</ele>
        <time>2021-08-22T03:16:08.349Z</time>
      </trkpt>
      <trkpt lat="41.05496" lon="31.05299">
        <ele>90.403538</ele>
        <time>2021-08-22T03:16:28.705Z</time>
      </trkpt>
      <trkpt lat="41.05479" lon="31.05244">
        <ele>93.077508</ele>
        <time>2021-08-22T03:16:51.923Z</time>
      </trkpt>
      <trkpt lat="41.05456" lon="31.05112">
        <ele>90.56064</ele>
        <time>2021-08-22T03:17:18.056Z</time>
      </trkpt>
      <trkpt lat="41.05435" lon="31.05071">
        <ele>89.027552</ele>
        <time>2021-08-22T03:17:26.359Z</time>
      </trkpt>
      <trkpt lat="41.05434" lon="31.05053">
        <ele>88.492299</ele>
        <time>2021-08-22T03:17:29.191Z</time>
      </trkpt>
      <trkpt lat="41.05461" lon="31.04987">
        <ele>85.520398</ele>
        <time>2021-08-22T03:17:41.196Z</time>
      </trkpt>
      <trkpt lat="41.05468" lon="31.0496">
        <ele>83.779502</ele>
        <time>2021-08-22T03:17:45.479Z</time>
      </trkpt>
      <trkpt lat="41.0548" lon="31.04876">
        <ele>78.314047</ele>
        <time>2021-08-22T03:17:58.690Z</time>
      </trkpt>
      <trkpt lat="41.05481" lon="31.04846">
        <ele>76.417537</ele>
        <time>2021-08-22T03:18:03.317Z</time>
      </trkpt>
      <trkpt lat="41.05485" lon="31.04835">
        <ele>75.673445</ele>
        <time>2021-08-22T03:18:05.079Z</time>
      </trkpt>
      <trkpt lat="41.05505" lon="31.04825">
        <ele>73.811183</ele>
        <time>2021-08-22T03:18:09.672Z</time>
      </trkpt>
      <trkpt lat="41.0551" lon="31.04825">
        <ele>73.458077</ele>
        <time>2021-08-22T03:18:10.463Z</time>
      </trkpt>
      <trkpt lat="41.0552" lon="31.04825">
        <ele>72.558496</ele>
        <time>2021-08-22T03:18:12.622Z</time>
      </trkpt>
      <trkpt lat="41.05542" lon="31.04838">
        <ele>70.590098</ele>
        <time>2021-08-22T03:18:17.585Z</time>
      </trkpt>
      <trkpt lat="41.05561" lon="31.04839">
        <ele>69.120931</ele>
        <time>2021-08-22T03:18:21.298Z</time>
      </trkpt>
      <trkpt lat="41.0558" lon="31.04832">
        <ele>67.510208</ele>
        <time>2021-08-22T03:18:25.472Z</time>
      </trkpt>
      <trkpt lat="41.05595" lon="31.04822">
        <ele>66.141099</ele>
        <time>2021-08-22T03:18:28.962Z</time>
      </trkpt>
      <trkpt lat="41.05603" lon="31.04788">
        <ele>64.013152</ele>
        <time>2021-08-22T03:18:34.220Z</time>
      </trkpt>
      <trkpt lat="41.05619" lon="31.0477">
        <ele>62.32066</ele>
        <time>2021-08-22T03:18:38.704Z</time>
      </trkpt>
      <trkpt lat="41.0563" lon="31.04757">
        <ele>61.190759</ele>
        <time>2021-08-22T03:18:41.537Z</time>
      </trkpt>
      <trkpt lat="41.05642" lon="31.04713">
        <ele>58.372897</ele>
        <time>2021-08-22T03:18:49.028Z</time>
      </trkpt>
      <trkpt lat="41.05656" lon="31.0463">
        <ele>53.238222</ele>
        <time>2021-08-22T03:19:02.316Z</time>
      </trkpt>
      <trkpt lat="41.05674" lon="31.04584">
        <ele>50.095292</ele>
        <time>2021-08-22T03:19:10.393Z</time>
      </trkpt>
      <trkpt lat="41.05691" lon="31.04516">
        <ele>45.739455</ele>
        <time>2021-08-22T03:19:21.589Z</time>
      </trkpt>
      <trkpt lat="41.05777" lon="31.04452">
        <ele>39.380336</ele>
        <time>2021-08-22T03:19:41.613Z</time>
      </trkpt>
      <trkpt lat="41.05788" lon="31.0442">
        <ele>37.925911</ele>
        <time>2021-08-22T03:19:47.432Z</time>
      </trkpt>
      <trkpt lat="41.05769" lon="31.04342">
        <ele>34.491447</ele>
        <time>2021-08-22T03:20:01.251Z</time>
      </trkpt>
      <trkpt lat="41.05769" lon="31.04328">
        <ele>33.909232</ele>
        <time>2021-08-22T03:20:04.044Z</time>
      </trkpt>
      <trkpt lat="41.05771" lon="31.04315">
        <ele>33.360404</ele>
        <time>2021-08-22T03:20:06.087Z</time>
      </trkpt>
      <trkpt lat="41.05762" lon="31.043">
        <ele>33.113493</ele>
        <time>2021-08-22T03:20:11.823Z</time>
      </trkpt>
      <trkpt lat="41.05708" lon="31.04196">
        <ele>35.890704</ele>
        <time>2021-08-22T03:20:47.824Z</time>
      </trkpt>
      <trkpt lat="41.0567" lon="31.04175">
        <ele>37.101103</ele>
        <time>2021-08-22T03:21:12.668Z</time>
      </trkpt>
      <trkpt lat="41.05628" lon="31.04049">
        <ele>44.49168</ele>
        <time>2021-08-22T03:22:34.537Z</time>
      </trkpt>
      <trkpt lat="41.056" lon="31.04005">
        <ele>48.595873</ele>
        <time>2021-08-22T03:23:10.843Z</time>
      </trkpt>
      <trkpt lat="41.05584" lon="31.03981">
        <ele>50.915176</ele>
        <time>2021-08-22T03:23:32.058Z</time>
      </trkpt>
      <trkpt lat="41.05595" lon="31.03959">
        <ele>52.814125</ele>
        <time>2021-08-22T03:23:49.888Z</time>
      </trkpt>
      <trkpt lat="41.05592" lon="31.03926">
        <ele>55.180673</ele>
        <time>2021-08-22T03:24:12.663Z</time>
      </trkpt>
      <trkpt lat="41.05561" lon="31.03795">
        <ele>68.701598</ele>
        <time>2021-08-22T03:26:01.733Z</time>
      </trkpt>
      <trkpt lat="41.05526" lon="31.03723">
        <ele>77.262843</ele>
        <time>2021-08-22T03:27:14.088Z</time>
      </trkpt>
      <trkpt lat="41.05527" lon="31.03685">
        <ele>80.424722</ele>
        <time>2021-08-22T03:27:44.279Z</time>
      </trkpt>
      <trkpt lat="41.05528" lon="31.03607">
        <ele>86.15007</ele>
        <time>2021-08-22T03:28:44.219Z</time>
      </trkpt>
      <trkpt lat="41.0554" lon="31.03537">
        <ele>91.396239</ele>
        <time>2021-08-22T03:29:31.910Z</time>
      </trkpt>
      <trkpt lat="41.05517" lon="31.03412">
        <ele>96.843774</ele>
        <time>2021-08-22T03:30:30.830Z</time>
      </trkpt>
      <trkpt lat="41.05517" lon="31.03377">
        <ele>97.116057</ele>
        <time>2021-08-22T03:30:40.144Z</time>
      </trkpt>
      <trkpt lat="41.05554" lon="31.03274">
        <ele>97.9916</ele>
        <time>2021-08-22T03:31:02.714Z</time>
      </trkpt>
      <trkpt lat="41.05581" lon="31.03263">
        <ele>98.233486</ele>
        <time>2021-08-22T03:31:09.695Z</time>
      </trkpt>
      <trkpt lat="41.05624" lon="31.0328">
        <ele>98.394132</ele>
        <time>2021-08-22T03:31:23.695Z</time>
      </trkpt>
      <trkpt lat="41.05643" lon="31.03279">
        <ele>98.463766</ele>
        <time>2021-08-22T03:31:28.582Z</time>
      </trkpt>
      <trkpt lat="41.05698" lon="31.03268">
        <ele>98.664364</ele>
        <time>2021-08-22T03:31:49.132Z</time>
      </trkpt>
      <trkpt lat="41.05725" lon="31.0326">
        <ele>98.760878</ele>
        <time>2021-08-22T03:31:57.884Z</time>
      </trkpt>
      <trkpt lat="41.05717" lon="31.03245">
        <ele>98.809132</ele>
        <time>2021-08-22T03:32:04.488Z</time>
      </trkpt>
      <trkpt lat="41.0572" lon="31.03175">
        <ele>99.146689</ele>
        <time>2021-08-22T03:32:25.575Z</time>
      </trkpt>
      <trkpt lat="41.0571" lon="31.0308">
        <ele>99.670027</ele>
        <time>2021-08-22T03:32:59.122Z</time>
      </trkpt>
      <trkpt lat="41.05696" lon="31.03059">
        <ele>99.824584</ele>
        <time>2021-08-22T03:33:07.800Z</time>
      </trkpt>
      <trkpt lat="41.05673" lon="31.03038">
        <ele>100.028424</ele>
        <time>2021-08-22T03:33:15.991Z</time>
      </trkpt>
      <trkpt lat="41.05638" lon="31.03034">
        <ele>99.11673</ele>
        <time>2021-08-22T03:33:25.488Z</time>
      </trkpt>
      <trkpt lat="41.05581" lon="31.0301">
        <ele>95.111684</ele>
        <time>2021-08-22T03:33:38.656Z</time>
      </trkpt>
      <trkpt lat="41.05572" lon="31.03">
        <ele>94.287206</ele>
        <time>2021-08-22T03:33:41.226Z</time>
      </trkpt>
      <trkpt lat="41.05568" lon="31.02983">
        <ele>93.410148</ele>
        <time>2021-08-22T03:33:44.129Z</time>
      </trkpt>
      <trkpt lat="41.0557" lon="31.02944">
        <ele>91.432863</ele>
        <time>2021-08-22T03:33:50.147Z</time>
      </trkpt>
      <trkpt lat="41.05562" lon="31.02926">
        <ele>90.374669</ele>
        <time>2021-08-22T03:33:53.321Z</time>
      </trkpt>
      <trkpt lat="41.05538" lon="31.02907">
        <ele>88.534934</ele>
        <time>2021-08-22T03:33:58.892Z</time>
      </trkpt>
      <trkpt lat="41.05535" lon="31.02907">
        <ele>88.292545</ele>
        <time>2021-08-22T03:33:59.563Z</time>
      </trkpt>
      <trkpt lat="41.05532" lon="31.0288">
        <ele>85.909744</ele>
        <time>2021-08-22T03:34:03.576Z</time>
      </trkpt>
      <trkpt lat="41.05524" lon="31.02848">
        <ele>82.768251</ele>
        <time>2021-08-22T03:34:08.562Z</time>
      </trkpt>
      <trkpt lat="41.05525" lon="31.0279">
        <ele>77.358208</ele>
        <time>2021-08-22T03:34:17.024Z</time>
      </trkpt>
      <trkpt lat="41.05531" lon="31.02743">
        <ele>72.907756</ele>
        <time>2021-08-22T03:34:23.946Z</time>
      </trkpt>
      <trkpt lat="41.05544" lon="31.02684">
        <ele>67.150402</ele>
        <time>2021-08-22T03:34:32.886Z</time>
      </trkpt>
      <trkpt lat="41.05542" lon="31.0267">
        <ele>65.844674</ele>
        <time>2021-08-22T03:34:34.988Z</time>
      </trkpt>
      <trkpt lat="41.05521" lon="31.02624">
        <ele>62.945547</ele>
        <time>2021-08-22T03:34:42.984Z</time>
      </trkpt>
      <trkpt lat="41.0552" lon="31.02516">
        <ele>57.084984</ele>
        <time>2021-08-22T03:34:59.786Z</time>
      </trkpt>
      <trkpt lat="41.05546" lon="31.02444">
        <ele>53.098286</ele>
        <time>2021-08-22T03:35:13.692Z</time>
      </trkpt>
      <trkpt lat="41.05564" lon="31.02365">
        <ele>56.193355</ele>
        <time>2021-08-22T03:35:38.367Z</time>
      </trkpt>
      <trkpt lat="41.05547" lon="31.02309">
        <ele>58.42502</ele>
        <time>2021-08-22T03:36:06.595Z</time>
      </trkpt>
      <trkpt lat="41.05514" lon="31.02259">
        <ele>60.876056</ele>
        <time>2021-08-22T03:36:46.698Z</time>
      </trkpt>
      <trkpt lat="41.05494" lon="31.02245">
        <ele>62.316695</ele>
        <time>2021-08-22T03:37:07.572Z</time>
      </trkpt>
      <trkpt lat="41.05421" lon="31.02211">
        <ele>72.70106</ele>
        <time>2021-08-22T03:38:26.846Z</time>
      </trkpt>
      <trkpt lat="41.05402" lon="31.02191">
        <ele>75.956645</ele>
        <time>2021-08-22T03:38:54.253Z</time>
      </trkpt>
      <trkpt lat="41.05406" lon="31.02144">
        <ele>80.774316</ele>
        <time>2021-08-22T03:39:36.174Z</time>
      </trkpt>
      <trkpt lat="41.05426" lon="31.02099">
        <ele>86.051511</ele>
        <time>2021-08-22T03:40:22.847Z</time>
      </trkpt>
      <trkpt lat="41.05425" lon="31.02082">
        <ele>87.578549</ele>
        <time>2021-08-22T03:40:38.108Z</time>
      </trkpt>
      <trkpt lat="41.05404" lon="31.02044">
        <ele>91.794322</ele>
        <time>2021-08-22T03:41:22.328Z</time>
      </trkpt>
      <trkpt lat="41.05404" lon="31.01986">
        <ele>96.932548</ele>
        <time>2021-08-22T03:42:10.224Z</time>
      </trkpt>
      <trkpt lat="41.05394" lon="31.01939">
        <ele>101.299502</ele>
        <time>2021-08-22T03:42:45.857Z</time>
      </trkpt>
      <trkpt lat="41.05391" lon="31.01879">
        <ele>106.646868</ele>
        <time>2021-08-22T03:43:21.501Z</time>
      </trkpt>
      <trkpt lat="41.05388" lon="31.01852">
        <ele>107.383212</ele>
        <time>2021-08-22T03:43:37.629Z</time>
      </trkpt>
      <trkpt lat="41.05395" lon="31.01839">
        <ele>107.548346</ele>
        <time>2021-08-22T03:43:43.452Z</time>
      </trkpt>
      <trkpt lat="41.05408" lon="31.01802">
        <ele>107.948798</ele>
        <time>2021-08-22T03:44:00.491Z</time>
      </trkpt>
      <trkpt lat="41.05431" lon="31.01758">
        <ele>108.484361</ele>
        <time>2021-08-22T03:44:15.104Z</time>
      </trkpt>
      <trkpt lat="41.05446" lon="31.01712">
        <ele>108.992074</ele>
        <time>2021-08-22T03:44:25.131Z</time>
      </trkpt>
      <trkpt lat="41.05457" lon="31.01655">
        <ele>109.549179</ele>
        <time>2021-08-22T03:44:36.474Z</time>
      </trkpt>
      <trkpt lat="41.05498" lon="31.0153">
        <ele>108.721213</ele>
        <time>2021-08-22T03:45:02.220Z</time>
      </trkpt>
      <trkpt lat="41.05508" lon="31.01528">
        <ele>108.640302</ele>
        <time>2021-08-22T03:45:06.235Z</time>
      </trkpt>
      <trkpt lat="41.05548" lon="31.01505">
        <ele>108.285261</ele>
        <time>2021-08-22T03:45:19.976Z</time>
      </trkpt>
      <trkpt lat="41.05614" lon="31.01489">
        <ele>109.559435</ele>
        <time>2021-08-22T03:45:48.852Z</time>
      </trkpt>
      <trkpt lat="41.0562" lon="31.01474">
        <ele>109.962912</ele>
        <time>2021-08-22T03:45:54.834Z</time>
      </trkpt>
      <trkpt lat="41.05626" lon="31.01401">
        <ele>111.724381</ele>
        <time>2021-08-22T03:46:25.532Z</time>
      </trkpt>
      <trkpt lat="41.05638" lon="31.01357">
        <ele>112.851624</ele>
        <time>2021-08-22T03:46:44.259Z</time>
      </trkpt>
      <trkpt lat="41.0569" lon="31.01247">
        <ele>114.924604</ele>
        <time>2021-08-22T03:47:33.408Z</time>
      </trkpt>
      <trkpt lat="41.05784" lon="31.011">
        <ele>116.331924</ele>
        <time>2021-08-22T03:48:23.909Z</time>
      </trkpt>
      <trkpt lat="41.05792" lon="31.01089">
        <ele>116.172132</ele>
        <time>2021-08-22T03:48:27.366Z</time>
      </trkpt>
      <trkpt lat="41.05802" lon="31.01069">
        <ele>115.942164</ele>
        <time>2021-08-22T03:48:32.076Z</time>
      </trkpt>
      <trkpt lat="41.05806" lon="31.01054">
        <ele>115.777553</ele>
        <time>2021-08-22T03:48:35.050Z</time>
      </trkpt>
      <trkpt lat="41.05814" lon="31.01011">
        <ele>115.337086</ele>
        <time>2021-08-22T03:48:43.568Z</time>
      </trkpt>
      <trkpt lat="41.0581" lon="31.00964">
        <ele>114.871141</ele>
        <time>2021-08-22T03:48:52.278Z</time>
      </trkpt>
      <trkpt lat="41.05812" lon="31.00922">
        <ele>114.450527</ele>
        <time>2021-08-22T03:48:59.966Z</time>
      </trkpt>
      <trkpt lat="41.05849" lon="31.008">
        <ele>112.01421</ele>
        <time>2021-08-22T03:49:23.525Z</time>
      </trkpt>
      <trkpt lat="41.05857" lon="31.00787">
        <ele>111.694798</ele>
        <time>2021-08-22T03:49:26.592Z</time>
      </trkpt>
      <trkpt lat="41.05861" lon="31.0078">
        <ele>111.532015</ele>
        <time>2021-08-22T03:49:28.269Z</time>
      </trkpt>
      <trkpt lat="41.05863" lon="31.00776">
        <ele>111.436127</ele>
        <time>2021-08-22T03:49:29.080Z</time>
      </trkpt>
      <trkpt lat="41.05909" lon="31.00746">
        <ele>110.128748</ele>
        <time>2021-08-22T03:49:41.383Z</time>
      </trkpt>
      <trkpt lat="41.05924" lon="31.00715">
        <ele>109.279147</ele>
        <time>2021-08-22T03:49:47.768Z</time>
      </trkpt>
      <trkpt lat="41.05942" lon="31.00695">
        <ele>108.462611</ele>
        <time>2021-08-22T03:49:53.202Z</time>
      </trkpt>
      <trkpt lat="41.0601" lon="31.00659">
        <ele>105.888588</ele>
        <time>2021-08-22T03:50:09.732Z</time>
      </trkpt>
      <trkpt lat="41.06076" lon="31.00592">
        <ele>102.83009</ele>
        <time>2021-08-22T03:50:27.959Z</time>
      </trkpt>
      <trkpt lat="41.06106" lon="31.00574">
        <ele>101.420558</ele>
        <time>2021-08-22T03:50:35.088Z</time>
      </trkpt>
      <trkpt lat="41.06131" lon="31.00534">
        <ele>99.762562</ele>
        <time>2021-08-22T03:50:43.460Z</time>
      </trkpt>
      <trkpt lat="41.06157" lon="31.00522">
        <ele>98.58785</ele>
        <time>2021-08-22T03:50:49.466Z</time>
      </trkpt>
      <trkpt lat="41.06169" lon="31.0051">
        <ele>97.942378</ele>
        <time>2021-08-22T03:50:52.685Z</time>
      </trkpt>
      <trkpt lat="41.06179" lon="31.00473">
        <ele>96.687906</ele>
        <time>2021-08-22T03:50:59.446Z</time>
      </trkpt>
      <trkpt lat="41.06205" lon="31.00355">
        <ele>93.211084</ele>
        <time>2021-08-22T03:51:20.897Z</time>
      </trkpt>
      <trkpt lat="41.06231" lon="31.00293">
        <ele>91.295624</ele>
        <time>2021-08-22T03:51:33.236Z</time>
      </trkpt>
      <trkpt lat="41.06239" lon="31.00262">
        <ele>90.399893</ele>
        <time>2021-08-22T03:51:39.238Z</time>
      </trkpt>
      <trkpt lat="41.0624" lon="31.00234">
        <ele>89.638171</ele>
        <time>2021-08-22T03:51:44.366Z</time>
      </trkpt>
      <trkpt lat="41.06254" lon="31.00181">
        <ele>88.428619</ele>
        <time>2021-08-22T03:51:54.829Z</time>
      </trkpt>
      <trkpt lat="41.06269" lon="31.00161">
        <ele>87.865752</ele>
        <time>2021-08-22T03:52:00.058Z</time>
      </trkpt>
      <trkpt lat="41.06309" lon="31.00088">
        <ele>86.058208</ele>
        <time>2021-08-22T03:52:16.973Z</time>
      </trkpt>
      <trkpt lat="41.06371" lon="31.00008">
        <ele>83.724981</ele>
        <time>2021-08-22T03:52:38.406Z</time>
      </trkpt>
      <trkpt lat="41.06418" lon="30.99962">
        <ele>82.097789</ele>
        <time>2021-08-22T03:52:52.875Z</time>
      </trkpt>
      <trkpt lat="41.06445" lon="30.99913">
        <ele>80.809935</ele>
        <time>2021-08-22T03:53:04.238Z</time>
      </trkpt>
      <trkpt lat="41.06501" lon="30.99864">
        <ele>78.891489</ele>
        <time>2021-08-22T03:53:20.251Z</time>
      </trkpt>
      <trkpt lat="41.06532" lon="30.99746">
        <ele>75.989125</ele>
        <time>2021-08-22T03:53:42.877Z</time>
      </trkpt>
      <trkpt lat="41.06552" lon="30.99694">
        <ele>74.621286</ele>
        <time>2021-08-22T03:53:53.593Z</time>
      </trkpt>
      <trkpt lat="41.06673" lon="30.9952">
        <ele>69.139533</ele>
        <time>2021-08-22T03:54:36.799Z</time>
      </trkpt>
      <trkpt lat="41.06686" lon="30.99464">
        <ele>67.609038</ele>
        <time>2021-08-22T03:54:47.274Z</time>
      </trkpt>
      <trkpt lat="41.06716" lon="30.99418">
        <ele>65.817427</ele>
        <time>2021-08-22T03:54:58.158Z</time>
      </trkpt>
      <trkpt lat="41.06726" lon="30.99395">
        <ele>65.067466</ele>
        <time>2021-08-22T03:55:02.664Z</time>
      </trkpt>
      <trkpt lat="41.06764" lon="30.99238">
        <ele>60.224083</ele>
        <time>2021-08-22T03:55:31.341Z</time>
      </trkpt>
      <trkpt lat="41.06768" lon="30.99202">
        <ele>59.173803</ele>
        <time>2021-08-22T03:55:37.494Z</time>
      </trkpt>
      <trkpt lat="41.06755" lon="30.99106">
        <ele>56.308106</ele>
        <time>2021-08-22T03:55:54.409Z</time>
      </trkpt>
      <trkpt lat="41.06756" lon="30.99087">
        <ele>55.754734</ele>
        <time>2021-08-22T03:55:57.715Z</time>
      </trkpt>
      <trkpt lat="41.06788" lon="30.98936">
        <ele>52.522283</ele>
        <time>2021-08-22T03:56:26.387Z</time>
      </trkpt>
      <trkpt lat="41.06791" lon="30.98893">
        <ele>51.76486</ele>
        <time>2021-08-22T03:56:34.809Z</time>
      </trkpt>
      <trkpt lat="41.06767" lon="30.98659">
        <ele>49.371931</ele>
        <time>2021-08-22T03:57:23.809Z</time>
      </trkpt>
      <trkpt lat="41.06756" lon="30.98474">
        <ele>49.553153</ele>
        <time>2021-08-22T03:58:08.511Z</time>
      </trkpt>
      <trkpt lat="41.06756" lon="30.98435">
        <ele>49.828737</ele>
        <time>2021-08-22T03:58:19.045Z</time>
      </trkpt>
      <trkpt lat="41.06754" lon="30.9841">
        <ele>50.001791</ele>
        <time>2021-08-22T03:58:26.235Z</time>
      </trkpt>
      <trkpt lat="41.06792" lon="30.98111">
        <ele>55.260923</ele>
        <time>2021-08-22T04:00:12.498Z</time>
      </trkpt>
      <trkpt lat="41.06792" lon="30.98102">
        <ele>55.478649</ele>
        <time>2021-08-22T04:00:16.586Z</time>
      </trkpt>
      <trkpt lat="41.06777" lon="30.98068">
        <ele>56.85031</ele>
        <time>2021-08-22T04:00:32.404Z</time>
      </trkpt>
      <trkpt lat="41.06713" lon="30.97941">
        <ele>62.289756</ele>
        <time>2021-08-22T04:01:42.745Z</time>
      </trkpt>
      <trkpt lat="41.06703" lon="30.97913">
        <ele>63.375684</ele>
        <time>2021-08-22T04:01:57.565Z</time>
      </trkpt>
      <trkpt lat="41.06654" lon="30.97824">
        <ele>67.374115</ele>
        <time>2021-08-22T04:02:48.119Z</time>
      </trkpt>
      <trkpt lat="41.06625" lon="30.97798">
        <ele>69.060944</ele>
        <time>2021-08-22T04:03:09.313Z</time>
      </trkpt>
      <trkpt lat="41.06589" lon="30.97781">
        <ele>70.900592</ele>
        <time>2021-08-22T04:03:32.241Z</time>
      </trkpt>
      <trkpt lat="41.0652" lon="30.97722">
        <ele>73.675433</ele>
        <time>2021-08-22T04:04:18.727Z</time>
      </trkpt>
      <trkpt lat="41.06506" lon="30.97705">
        <ele>74.124717</ele>
        <time>2021-08-22T04:04:27.205Z</time>
      </trkpt>
      <trkpt lat="41.06466" lon="30.97631">
        <ele>75.775794</ele>
        <time>2021-08-22T04:04:56.922Z</time>
      </trkpt>
      <trkpt lat="41.06454" lon="30.97609">
        <ele>76.278343</ele>
        <time>2021-08-22T04:05:05.954Z</time>
      </trkpt>
      <trkpt lat="41.06468" lon="30.97592">
        <ele>76.740842</ele>
        <time>2021-08-22T04:05:12.465Z</time>
      </trkpt>
      <trkpt lat="41.06537" lon="30.97531">
        <ele>76.437726</ele>
        <time>2021-08-22T04:05:41.933Z</time>
      </trkpt>
      <trkpt lat="41.06549" lon="30.97524">
        <ele>76.371137</ele>
        <time>2021-08-22T04:05:45.602Z</time>
      </trkpt>
      <trkpt lat="41.06551" lon="30.97497">
        <ele>76.269807</ele>
        <time>2021-08-22T04:05:52.651Z</time>
      </trkpt>
      <trkpt lat="41.06545" lon="30.97434">
        <ele>76.026865</ele>
        <time>2021-08-22T04:06:05.323Z</time>
      </trkpt>
      <trkpt lat="41.0653" lon="30.9738">
        <ele>75.077828</ele>
        <time>2021-08-22T04:06:16.393Z</time>
      </trkpt>
      <trkpt lat="41.06537" lon="30.97324">
        <ele>73.526969</ele>
        <time>2021-08-22T04:06:27.106Z</time>
      </trkpt>
      <trkpt lat="41.06534" lon="30.97302">
        <ele>72.922676</ele>
        <time>2021-08-22T04:06:30.916Z</time>
      </trkpt>
      <trkpt lat="41.0654" lon="30.97283">
        <ele>72.361832</ele>
        <time>2021-08-22T04:06:34.875Z</time>
      </trkpt>
      <trkpt lat="41.06545" lon="30.9727">
        <ele>71.968368</ele>
        <time>2021-08-22T04:06:37.709Z</time>
      </trkpt>
      <trkpt lat="41.06548" lon="30.97268">
        <ele>71.83489</ele>
        <time>2021-08-22T04:06:38.409Z</time>
      </trkpt>
      <trkpt lat="41.0659" lon="30.97203">
        <ele>69.534734</ele>
        <time>2021-08-22T04:06:53.145Z</time>
      </trkpt>
      <trkpt lat="41.06659" lon="30.97158">
        <ele>65.495667</ele>
        <time>2021-08-22T04:07:09.784Z</time>
      </trkpt>
      <trkpt lat="41.06732" lon="30.97118">
        <ele>61.288929</ele>
        <time>2021-08-22T04:07:27.139Z</time>
      </trkpt>
      <trkpt lat="41.06744" lon="30.97109">
        <ele>60.600275</ele>
        <time>2021-08-22T04:07:29.908Z</time>
      </trkpt>
      <trkpt lat="41.06744" lon="30.97097">
        <ele>60.105097</ele>
        <time>2021-08-22T04:07:32.192Z</time>
      </trkpt>
      <trkpt lat="41.06747" lon="30.97053">
        <ele>58.273922</ele>
        <time>2021-08-22T04:07:39.554Z</time>
      </trkpt>
      <trkpt lat="41.06768" lon="30.97031">
        <ele>56.799099</ele>
        <time>2021-08-22T04:07:45.443Z</time>
      </trkpt>
      <trkpt lat="41.06786" lon="30.96997">
        <ele>55.038314</ele>
        <time>2021-08-22T04:07:52.597Z</time>
      </trkpt>
      <trkpt lat="41.06868" lon="30.96884">
        <ele>47.849194</ele>
        <time>2021-08-22T04:08:17.758Z</time>
      </trkpt>
      <trkpt lat="41.06915" lon="30.9684">
        <ele>43.26319</ele>
        <time>2021-08-22T04:08:30.175Z</time>
      </trkpt>
      <trkpt lat="41.06923" lon="30.96835">
        <ele>42.618426</ele>
        <time>2021-08-22T04:08:31.785Z</time>
      </trkpt>
      <trkpt lat="41.0692" lon="30.96821">
        <ele>41.775031</ele>
        <time>2021-08-22T04:08:34.003Z</time>
      </trkpt>
      <trkpt lat="41.0692" lon="30.96804">
        <ele>40.762139</ele>
        <time>2021-08-22T04:08:36.787Z</time>
      </trkpt>
      <trkpt lat="41.06924" lon="30.96795">
        <ele>40.091487</ele>
        <time>2021-08-22T04:08:38.441Z</time>
      </trkpt>
      <trkpt lat="41.06963" lon="30.96777">
        <ele>36.803289</ele>
        <time>2021-08-22T04:08:46.739Z</time>
      </trkpt>
      <trkpt lat="41.06987" lon="30.96777">
        <ele>34.778104</ele>
        <time>2021-08-22T04:08:51.740Z</time>
      </trkpt>
      <trkpt lat="41.07004" lon="30.96785">
        <ele>33.031019</ele>
        <time>2021-08-22T04:08:55.274Z</time>
      </trkpt>
      <trkpt lat="41.0705" lon="30.96777">
        <ele>28.656095</ele>
        <time>2021-08-22T04:09:04.355Z</time>
      </trkpt>
      <trkpt lat="41.0706" lon="30.9678">
        <ele>27.665558</ele>
        <time>2021-08-22T04:09:06.470Z</time>
      </trkpt>
      <trkpt lat="41.07062" lon="30.9677">
        <ele>26.927334</ele>
        <time>2021-08-22T04:09:07.945Z</time>
      </trkpt>
      <trkpt lat="41.07097" lon="30.96733">
        <ele>22.608046</ele>
        <time>2021-08-22T04:09:17.102Z</time>
      </trkpt>
      <trkpt lat="41.07101" lon="30.96721">
        <ele>21.644354</ele>
        <time>2021-08-22T04:09:19.103Z</time>
      </trkpt>
      <trkpt lat="41.07112" lon="30.96711">
        <ele>20.372857</ele>
        <time>2021-08-22T04:09:21.751Z</time>
      </trkpt>
      <trkpt lat="41.07143" lon="30.96696">
        <ele>17.565241</ele>
        <time>2021-08-22T04:09:28.456Z</time>
      </trkpt>
      <trkpt lat="41.07149" lon="30.9668">
        <ele>16.651554</ele>
        <time>2021-08-22T04:09:31.146Z</time>
      </trkpt>
      <trkpt lat="41.07149" lon="30.96667">
        <ele>15.985931</ele>
        <time>2021-08-22T04:09:33.080Z</time>
      </trkpt>
      <trkpt lat="41.07136" lon="30.96653">
        <ele>14.879912</ele>
        <time>2021-08-22T04:09:36.164Z</time>
      </trkpt>
      <trkpt lat="41.07116" lon="30.96614">
        <ele>12.4327</ele>
        <time>2021-08-22T04:09:43.256Z</time>
      </trkpt>
      <trkpt lat="41.07092" lon="30.96523">
        <ele>7.443871</ele>
        <time>2021-08-22T04:09:58.344Z</time>
      </trkpt>
      <trkpt lat="41.07082" lon="30.96464">
        <ele>5.765604</ele>
        <time>2021-08-22T04:10:08.294Z</time>
      </trkpt>
      <trkpt lat="41.07071" lon="30.9644">
        <ele>5.449107</ele>
        <time>2021-08-22T04:10:13.793Z</time>
      </trkpt>
      <trkpt lat="41.06978" lon="30.96226">
        <ele>3.471817</ele>
        <time>2021-08-22T04:11:07.189Z</time>
      </trkpt>
      <trkpt lat="41.06977" lon="30.96205">
        <ele>3.46462</ele>
        <time>2021-08-22T04:11:12.640Z</time>
      </trkpt>
      <trkpt lat="41.0703" lon="30.96106">
        <ele>3.423733</ele>
        <time>2021-08-22T04:11:42.311Z</time>
      </trkpt>
      <trkpt lat="41.07058" lon="30.96069">
        <ele>3.396243</ele>
        <time>2021-08-22T04:11:54.882Z</time>
      </trkpt>
      <trkpt lat="41.07097" lon="30.95985">
        <ele>3.329011</ele>
        <time>2021-08-22T04:12:17.697Z</time>
      </trkpt>
      <trkpt lat="41.07131" lon="30.95884">
        <ele>3.253702</ele>
        <time>2021-08-22T04:12:42.743Z</time>
      </trkpt>
      <trkpt lat="41.07149" lon="30.9581">
        <ele>3.337431</ele>
        <time>2021-08-22T04:13:00.334Z</time>
      </trkpt>
      <trkpt lat="41.07158" lon="30.95742">
        <ele>3.414026</ele>
        <time>2021-08-22T04:13:16.662Z</time>
      </trkpt>
      <trkpt lat="41.07169" lon="30.956">
        <ele>3.898278</ele>
        <time>2021-08-22T04:13:52.754Z</time>
      </trkpt>
      <trkpt lat="41.07215" lon="30.94733">
        <ele>10.330013</ele>
        <time>2021-08-22T04:17:56.258Z</time>
      </trkpt>
      <trkpt lat="41.07215" lon="30.94635">
        <ele>10.610714</ele>
        <time>2021-08-22T04:18:21.001Z</time>
      </trkpt>
      <trkpt lat="41.07213" lon="30.94487">
        <ele>10.7043</ele>
        <time>2021-08-22T04:18:55.478Z</time>
      </trkpt>
      <trkpt lat="41.07187" lon="30.94023">
        <ele>9.949086</ele>
        <time>2021-08-22T04:20:40.848Z</time>
      </trkpt>
      <trkpt lat="41.0704" lon="30.91839">
        <ele>3.780917</ele>
        <time>2021-08-22T04:28:45.908Z</time>
      </trkpt>
      <trkpt lat="41.07027" lon="30.91561">
        <ele>3.624241</ele>
        <time>2021-08-22T04:29:50.955Z</time>
      </trkpt>
      <trkpt lat="41.07029" lon="30.91555">
        <ele>3.62122</ele>
        <time>2021-08-22T04:29:52.571Z</time>
      </trkpt>
      <trkpt lat="41.0703" lon="30.91549">
        <ele>3.618197</ele>
        <time>2021-08-22T04:29:54.186Z</time>
      </trkpt>
      <trkpt lat="41.07143" lon="30.91548">
        <ele>3.549605</ele>
        <time>2021-08-22T04:30:30.501Z</time>
      </trkpt>
      <trkpt lat="41.07148" lon="30.91496">
        <ele>3.528174</ele>
        <time>2021-08-22T04:30:42.885Z</time>
      </trkpt>
      <trkpt lat="41.07154" lon="30.91423">
        <ele>3.50189</ele>
        <time>2021-08-22T04:31:00.618Z</time>
      </trkpt>
      <trkpt lat="41.07166" lon="30.91328">
        <ele>3.467844</ele>
        <time>2021-08-22T04:31:24.757Z</time>
      </trkpt>
      <trkpt lat="41.0718" lon="30.91173">
        <ele>3.454642</ele>
        <time>2021-08-22T04:32:02.438Z</time>
      </trkpt>
      <trkpt lat="41.07139" lon="30.9117">
        <ele>3.45601</ele>
        <time>2021-08-22T04:32:15.519Z</time>
      </trkpt>
      <trkpt lat="41.07153" lon="30.91126">
        <ele>3.457209</ele>
        <time>2021-08-22T04:32:27.172Z</time>
      </trkpt>
      <trkpt lat="41.07164" lon="30.91049">
        <ele>3.581828</ele>
        <time>2021-08-22T04:32:47.051Z</time>
      </trkpt>
      <trkpt lat="41.07172" lon="30.91034">
        <ele>3.624059</ele>
        <time>2021-08-22T04:32:51.686Z</time>
      </trkpt>
      <trkpt lat="41.07178" lon="30.91002">
        <ele>3.701412</ele>
        <time>2021-08-22T04:33:00.068Z</time>
      </trkpt>
      <trkpt lat="41.07179" lon="30.90995">
        <ele>3.717045</ele>
        <time>2021-08-22T04:33:01.792Z</time>
      </trkpt>
      <trkpt lat="41.07184" lon="30.90951">
        <ele>3.821896</ele>
        <time>2021-08-22T04:33:13.368Z</time>
      </trkpt>
      <trkpt lat="41.07186" lon="30.90886">
        <ele>3.973842</ele>
        <time>2021-08-22T04:33:30.567Z</time>
      </trkpt>
      <trkpt lat="41.07187" lon="30.90864">
        <ele>4.03113</ele>
        <time>2021-08-22T04:33:36.457Z</time>
      </trkpt>
      <trkpt lat="41.07189" lon="30.90821">
        <ele>4.182792</ele>
        <time>2021-08-22T04:33:48.089Z</time>
      </trkpt>
      <trkpt lat="41.07191" lon="30.90755">
        <ele>4.413932</ele>
        <time>2021-08-22T04:34:06.228Z</time>
      </trkpt>
      <trkpt lat="41.07192" lon="30.90685">
        <ele>4.655734</ele>
        <time>2021-08-22T04:34:24.822Z</time>
      </trkpt>
      <trkpt lat="41.07193" lon="30.90609">
        <ele>4.848641</ele>
        <time>2021-08-22T04:34:44.277Z</time>
      </trkpt>
      <trkpt lat="41.07159" lon="30.90579">
        <ele>4.843837</ele>
        <time>2021-08-22T04:34:57.724Z</time>
      </trkpt>
      <trkpt lat="41.07167" lon="30.90567">
        <ele>4.842458</ele>
        <time>2021-08-22T04:35:01.327Z</time>
      </trkpt>
      <trkpt lat="41.07175" lon="30.90498">
        <ele>4.836258</ele>
        <time>2021-08-22T04:35:17.920Z</time>
      </trkpt>
      <trkpt lat="41.07188" lon="30.90363">
        <ele>4.704187</ele>
        <time>2021-08-22T04:35:48.777Z</time>
      </trkpt>
      <trkpt lat="41.0719" lon="30.90337">
        <ele>4.648074</ele>
        <time>2021-08-22T04:35:54.615Z</time>
      </trkpt>
      <trkpt lat="41.07193" lon="30.90307">
        <ele>4.581975</ele>
        <time>2021-08-22T04:36:01.524Z</time>
      </trkpt>
      <trkpt lat="41.07197" lon="30.90273">
        <ele>4.508405</ele>
        <time>2021-08-22T04:36:09.183Z</time>
      </trkpt>
      <trkpt lat="41.07204" lon="30.90203">
        <ele>4.357994</ele>
        <time>2021-08-22T04:36:24.942Z</time>
      </trkpt>
      <trkpt lat="41.07207" lon="30.90189">
        <ele>4.325398</ele>
        <time>2021-08-22T04:36:28.196Z</time>
      </trkpt>
      <trkpt lat="41.07219" lon="30.90132">
        <ele>4.200498</ele>
        <time>2021-08-22T04:36:41.191Z</time>
      </trkpt>
      <trkpt lat="41.07221" lon="30.90124">
        <ele>4.181488</ele>
        <time>2021-08-22T04:36:43.218Z</time>
      </trkpt>
      <trkpt lat="41.07229" lon="30.90065">
        <ele>4.054063</ele>
        <time>2021-08-22T04:36:56.643Z</time>
      </trkpt>
      <trkpt lat="41.07223" lon="30.90029">
        <ele>3.974848</ele>
        <time>2021-08-22T04:37:04.972Z</time>
      </trkpt>
      <trkpt lat="41.07223" lon="30.9">
        <ele>3.914567</ele>
        <time>2021-08-22T04:37:11.319Z</time>
      </trkpt>
      <trkpt lat="41.07223" lon="30.89966">
        <ele>3.841722</ele>
        <time>2021-08-22T04:37:19.264Z</time>
      </trkpt>
      <trkpt lat="41.07225" lon="30.8994">
        <ele>3.791454</ele>
        <time>2021-08-22T04:37:25.210Z</time>
      </trkpt>
      <trkpt lat="41.07226" lon="30.89929">
        <ele>3.774432</ele>
        <time>2021-08-22T04:37:27.791Z</time>
      </trkpt>
      <trkpt lat="41.07229" lon="30.89888">
        <ele>3.711653</ele>
        <time>2021-08-22T04:37:36.755Z</time>
      </trkpt>
      <trkpt lat="41.07229" lon="30.89885">
        <ele>3.706269</ele>
        <time>2021-08-22T04:37:37.621Z</time>
      </trkpt>
      <trkpt lat="41.07229" lon="30.89876">
        <ele>3.693494</ele>
        <time>2021-08-22T04:37:39.507Z</time>
      </trkpt>
      <trkpt lat="41.07228" lon="30.89856">
        <ele>3.662094</ele>
        <time>2021-08-22T04:37:43.977Z</time>
      </trkpt>
      <trkpt lat="41.07224" lon="30.89822">
        <ele>3.609673</ele>
        <time>2021-08-22T04:37:51.666Z</time>
      </trkpt>
      <trkpt lat="41.07223" lon="30.89762">
        <ele>3.517785</ele>
        <time>2021-08-22T04:38:05.357Z</time>
      </trkpt>
      <trkpt lat="41.07229" lon="30.89705">
        <ele>3.438309</ele>
        <time>2021-08-22T04:38:18.890Z</time>
      </trkpt>
      <trkpt lat="41.07238" lon="30.89612">
        <ele>3.402</ele>
        <time>2021-08-22T04:38:40.857Z</time>
      </trkpt>
      <trkpt lat="41.07244" lon="30.89472">
        <ele>3.345776</ele>
        <time>2021-08-22T04:39:13.525Z</time>
      </trkpt>
      <trkpt lat="41.07248" lon="30.89367">
        <ele>3.264061</ele>
        <time>2021-08-22T04:39:38.415Z</time>
      </trkpt>
      <trkpt lat="41.07248" lon="30.89358">
        <ele>3.256932</ele>
        <time>2021-08-22T04:39:40.429Z</time>
      </trkpt>
      <trkpt lat="41.07241" lon="30.89263">
        <ele>3.182463</ele>
        <time>2021-08-22T04:40:02.031Z</time>
      </trkpt>
      <trkpt lat="41.07231" lon="30.89232">
        <ele>3.163664</ele>
        <time>2021-08-22T04:40:09.357Z</time>
      </trkpt>
      <trkpt lat="41.0724" lon="30.89233">
        <ele>3.164618</ele>
        <time>2021-08-22T04:40:11.960Z</time>
      </trkpt>
      <trkpt lat="41.07273" lon="30.89234">
        <ele>3.168264</ele>
        <time>2021-08-22T04:40:22.089Z</time>
      </trkpt>
      <trkpt lat="41.0728" lon="30.89106">
        <ele>3.178859</ele>
        <time>2021-08-22T04:40:54.267Z</time>
      </trkpt>
      <trkpt lat="41.07286" lon="30.89009">
        <ele>3.200201</ele>
        <time>2021-08-22T04:41:18.361Z</time>
      </trkpt>
      <trkpt lat="41.07285" lon="30.8897">
        <ele>3.213981</ele>
        <time>2021-08-22T04:41:27.988Z</time>
      </trkpt>
      <trkpt lat="41.07285" lon="30.88925">
        <ele>3.229611</ele>
        <time>2021-08-22T04:41:38.744Z</time>
      </trkpt>
      <trkpt lat="41.07281" lon="30.88915">
        <ele>3.233591</ele>
        <time>2021-08-22T04:41:41.467Z</time>
      </trkpt>
      <trkpt lat="41.07288" lon="30.88909">
        <ele>3.237298</ele>
        <time>2021-08-22T04:41:43.996Z</time>
      </trkpt>
      <trkpt lat="41.07291" lon="30.889">
        <ele>3.240801</ele>
        <time>2021-08-22T04:41:46.574Z</time>
      </trkpt>
      <trkpt lat="41.07291" lon="30.88894">
        <ele>3.242931</ele>
        <time>2021-08-22T04:41:48.152Z</time>
      </trkpt>
      <trkpt lat="41.07293" lon="30.8885">
        <ele>3.258502</ele>
        <time>2021-08-22T04:41:59.302Z</time>
      </trkpt>
      <trkpt lat="41.07293" lon="30.88847">
        <ele>3.259374</ele>
        <time>2021-08-22T04:41:59.896Z</time>
      </trkpt>
      <trkpt lat="41.07293" lon="30.88834">
        <ele>3.264014</ele>
        <time>2021-08-22T04:42:03.285Z</time>
      </trkpt>
      <trkpt lat="41.07293" lon="30.88823">
        <ele>3.266856</ele>
        <time>2021-08-22T04:42:05.906Z</time>
      </trkpt>
      <trkpt lat="41.07298" lon="30.88776">
        <ele>3.27546</ele>
        <time>2021-08-22T04:42:17.852Z</time>
      </trkpt>
      <trkpt lat="41.07299" lon="30.88773">
        <ele>3.27605</ele>
        <time>2021-08-22T04:42:18.563Z</time>
      </trkpt>
      <trkpt lat="41.07301" lon="30.88722">
        <ele>3.285426</ele>
        <time>2021-08-22T04:42:31.556Z</time>
      </trkpt>
      <trkpt lat="41.07303" lon="30.88659">
        <ele>3.296767</ele>
        <time>2021-08-22T04:42:46.821Z</time>
      </trkpt>
      <trkpt lat="41.07308" lon="30.88606">
        <ele>3.306511</ele>
        <time>2021-08-22T04:42:59.573Z</time>
      </trkpt>
      <trkpt lat="41.0731" lon="30.88552">
        <ele>3.331041</ele>
        <time>2021-08-22T04:43:12.854Z</time>
      </trkpt>
      <trkpt lat="41.07312" lon="30.88497">
        <ele>3.36134</ele>
        <time>2021-08-22T04:43:26.665Z</time>
      </trkpt>
      <trkpt lat="41.07313" lon="30.88445">
        <ele>3.389688</ele>
        <time>2021-08-22T04:43:39.506Z</time>
      </trkpt>
      <trkpt lat="41.07314" lon="30.88375">
        <ele>3.428331</ele>
        <time>2021-08-22T04:43:56.780Z</time>
      </trkpt>
      <trkpt lat="41.07314" lon="30.8837">
        <ele>3.430864</ele>
        <time>2021-08-22T04:43:58.062Z</time>
      </trkpt>
      <trkpt lat="41.07321" lon="30.88349">
        <ele>3.47041</ele>
        <time>2021-08-22T04:44:03.587Z</time>
      </trkpt>
      <trkpt lat="41.07334" lon="30.8833">
        <ele>3.621812</ele>
        <time>2021-08-22T04:44:10.101Z</time>
      </trkpt>
      <trkpt lat="41.07337" lon="30.88273">
        <ele>3.955651</ele>
        <time>2021-08-22T04:44:25.398Z</time>
      </trkpt>
      <trkpt lat="41.07449" lon="30.88278">
        <ele>4.819462</ele>
        <time>2021-08-22T04:45:09.250Z</time>
      </trkpt>
      <trkpt lat="41.07452" lon="30.88246">
        <ele>4.895029</ele>
        <time>2021-08-22T04:45:18.416Z</time>
      </trkpt>
      <trkpt lat="41.07456" lon="30.88227">
        <ele>4.938549</ele>
        <time>2021-08-22T04:45:23.883Z</time>
      </trkpt>
      <trkpt lat="41.07464" lon="30.88188">
        <ele>5.028273</ele>
        <time>2021-08-22T04:45:34.500Z</time>
      </trkpt>
      <trkpt lat="41.07463" lon="30.88171">
        <ele>5.067826</ele>
        <time>2021-08-22T04:45:39.273Z</time>
      </trkpt>
      <trkpt lat="41.07463" lon="30.88112">
        <ele>5.199967</ele>
        <time>2021-08-22T04:45:54.141Z</time>
      </trkpt>
      <trkpt lat="41.07464" lon="30.88062">
        <ele>5.31195</ele>
        <time>2021-08-22T04:46:06.307Z</time>
      </trkpt>
      <trkpt lat="41.07466" lon="30.88006">
        <ele>5.098238</ele>
        <time>2021-08-22T04:46:19.180Z</time>
      </trkpt>
      <trkpt lat="41.07468" lon="30.87952">
        <ele>4.705678</ele>
        <time>2021-08-22T04:46:30.615Z</time>
      </trkpt>
      <trkpt lat="41.07472" lon="30.87893">
        <ele>4.26946</ele>
        <time>2021-08-22T04:46:42.767Z</time>
      </trkpt>
      <trkpt lat="41.07475" lon="30.87841">
        <ele>3.885516</ele>
        <time>2021-08-22T04:46:53.639Z</time>
      </trkpt>
      <trkpt lat="41.07476" lon="30.87819">
        <ele>3.722929</ele>
        <time>2021-08-22T04:46:58.360Z</time>
      </trkpt>
      <trkpt lat="41.07478" lon="30.87785">
        <ele>3.550928</ele>
        <time>2021-08-22T04:47:05.753Z</time>
      </trkpt>
      <trkpt lat="41.07479" lon="30.87731">
        <ele>3.379657</ele>
        <time>2021-08-22T04:47:17.807Z</time>
      </trkpt>
      <trkpt lat="41.07481" lon="30.87689">
        <ele>3.246834</ele>
        <time>2021-08-22T04:47:27.328Z</time>
      </trkpt>
      <trkpt lat="41.07483" lon="30.87668">
        <ele>3.179277</ele>
        <time>2021-08-22T04:47:32.214Z</time>
      </trkpt>
      <trkpt lat="41.07468" lon="30.8758">
        <ele>2.891973</ele>
        <time>2021-08-22T04:47:53.073Z</time>
      </trkpt>
      <trkpt lat="41.07467" lon="30.87537">
        <ele>2.972645</ele>
        <time>2021-08-22T04:48:03.767Z</time>
      </trkpt>
      <trkpt lat="41.07466" lon="30.87487">
        <ele>3.173036</ele>
        <time>2021-08-22T04:48:17.467Z</time>
      </trkpt>
      <trkpt lat="41.07466" lon="30.87433">
        <ele>3.388507</ele>
        <time>2021-08-22T04:48:32.758Z</time>
      </trkpt>
      <trkpt lat="41.07467" lon="30.87382">
        <ele>3.590416</ele>
        <time>2021-08-22T04:48:46.789Z</time>
      </trkpt>
      <trkpt lat="41.07467" lon="30.87378">
        <ele>3.609967</ele>
        <time>2021-08-22T04:48:48.493Z</time>
      </trkpt>
      <trkpt lat="41.07468" lon="30.87329">
        <ele>3.804346</ele>
        <time>2021-08-22T04:49:01.181Z</time>
      </trkpt>
      <trkpt lat="41.07468" lon="30.87295">
        <ele>3.924399</ele>
        <time>2021-08-22T04:49:09.711Z</time>
      </trkpt>
      <trkpt lat="41.0747" lon="30.87275">
        <ele>3.994399</ele>
        <time>2021-08-22T04:49:15.386Z</time>
      </trkpt>
      <trkpt lat="41.07476" lon="30.87224">
        <ele>4.178715</ele>
        <time>2021-08-22T04:49:29.473Z</time>
      </trkpt>
      <trkpt lat="41.07481" lon="30.87189">
        <ele>4.301966</ele>
        <time>2021-08-22T04:49:39.304Z</time>
      </trkpt>
      <trkpt lat="41.07483" lon="30.87171">
        <ele>4.365619</ele>
        <time>2021-08-22T04:49:44.069Z</time>
      </trkpt>
      <trkpt lat="41.07489" lon="30.8712">
        <ele>4.548494</ele>
        <time>2021-08-22T04:49:57.828Z</time>
      </trkpt>
      <trkpt lat="41.07492" lon="30.87095">
        <ele>4.637206</ele>
        <time>2021-08-22T04:50:04.632Z</time>
      </trkpt>
      <trkpt lat="41.07508" lon="30.8697">
        <ele>4.35992</ele>
        <time>2021-08-22T04:50:34.308Z</time>
      </trkpt>
      <trkpt lat="41.07515" lon="30.8691">
        <ele>4.219837</ele>
        <time>2021-08-22T04:50:48.496Z</time>
      </trkpt>
      <trkpt lat="41.07517" lon="30.86894">
        <ele>4.180992</ele>
        <time>2021-08-22T04:50:52.266Z</time>
      </trkpt>
      <trkpt lat="41.0752" lon="30.86846">
        <ele>4.052571</ele>
        <time>2021-08-22T04:51:02.738Z</time>
      </trkpt>
      <trkpt lat="41.07522" lon="30.86805">
        <ele>3.886531</ele>
        <time>2021-08-22T04:51:11.791Z</time>
      </trkpt>
      <trkpt lat="41.07523" lon="30.8679">
        <ele>3.824554</ele>
        <time>2021-08-22T04:51:15.165Z</time>
      </trkpt>
      <trkpt lat="41.07525" lon="30.86729">
        <ele>3.5802</ele>
        <time>2021-08-22T04:51:28.917Z</time>
      </trkpt>
      <trkpt lat="41.07527" lon="30.86682">
        <ele>3.39057</ele>
        <time>2021-08-22T04:51:39.629Z</time>
      </trkpt>
      <trkpt lat="41.0753" lon="30.8663">
        <ele>3.181649</ele>
        <time>2021-08-22T04:51:51.412Z</time>
      </trkpt>
      <trkpt lat="41.07532" lon="30.86578">
        <ele>3.212686</ele>
        <time>2021-08-22T04:52:03.355Z</time>
      </trkpt>
      <trkpt lat="41.07534" lon="30.86527">
        <ele>3.307086</ele>
        <time>2021-08-22T04:52:15.705Z</time>
      </trkpt>
      <trkpt lat="41.07536" lon="30.86477">
        <ele>3.401116</ele>
        <time>2021-08-22T04:52:28.809Z</time>
      </trkpt>
      <trkpt lat="41.07537" lon="30.86469">
        <ele>3.415976</ele>
        <time>2021-08-22T04:52:30.878Z</time>
      </trkpt>
      <trkpt lat="41.0754" lon="30.86423">
        <ele>3.500721</ele>
        <time>2021-08-22T04:52:43.358Z</time>
      </trkpt>
      <trkpt lat="41.07545" lon="30.86372">
        <ele>3.638972</ele>
        <time>2021-08-22T04:52:57.611Z</time>
      </trkpt>
      <trkpt lat="41.07561" lon="30.8618">
        <ele>4.877112</ele>
        <time>2021-08-22T04:53:51.711Z</time>
      </trkpt>
      <trkpt lat="41.07567" lon="30.86101">
        <ele>5.317671</ele>
        <time>2021-08-22T04:54:14.888Z</time>
      </trkpt>
      <trkpt lat="41.07572" lon="30.86064">
        <ele>5.495536</ele>
        <time>2021-08-22T04:54:25.547Z</time>
      </trkpt>
      <trkpt lat="41.07595" lon="30.85934">
        <ele>6.123147</ele>
        <time>2021-08-22T04:55:01.624Z</time>
      </trkpt>
      <trkpt lat="41.07631" lon="30.85765">
        <ele>6.298776</ele>
        <time>2021-08-22T04:55:45.214Z</time>
      </trkpt>
      <trkpt lat="41.07636" lon="30.85724">
        <ele>6.314861</ele>
        <time>2021-08-22T04:55:55.321Z</time>
      </trkpt>
      <trkpt lat="41.07646" lon="30.85628">
        <ele>6.234314</ele>
        <time>2021-08-22T04:56:18.478Z</time>
      </trkpt>
      <trkpt lat="41.07647" lon="30.85618">
        <ele>6.215358</ele>
        <time>2021-08-22T04:56:20.851Z</time>
      </trkpt>
      <trkpt lat="41.0765" lon="30.85577">
        <ele>6.13594</ele>
        <time>2021-08-22T04:56:30.571Z</time>
      </trkpt>
      <trkpt lat="41.07674" lon="30.85287">
        <ele>5.554681</ele>
        <time>2021-08-22T04:57:38.421Z</time>
      </trkpt>
      <trkpt lat="41.0768" lon="30.85287">
        <ele>5.537862</ele>
        <time>2021-08-22T04:57:40.268Z</time>
      </trkpt>
      <trkpt lat="41.07699" lon="30.85085">
        <ele>5.387877</ele>
        <time>2021-08-22T04:58:29.327Z</time>
      </trkpt>
      <trkpt lat="41.07724" lon="30.84722">
        <ele>5.656313</ele>
        <time>2021-08-22T05:00:00.408Z</time>
      </trkpt>
      <trkpt lat="41.07725" lon="30.84699">
        <ele>5.694126</ele>
        <time>2021-08-22T05:00:06.907Z</time>
      </trkpt>
      <trkpt lat="41.07732" lon="30.84584">
        <ele>5.881783</ele>
        <time>2021-08-22T05:00:36.209Z</time>
      </trkpt>
      <trkpt lat="41.07733" lon="30.84571">
        <ele>5.903611</ele>
        <time>2021-08-22T05:00:39.962Z</time>
      </trkpt>
      <trkpt lat="41.07642" lon="30.84548">
        <ele>5.854436</ele>
        <time>2021-08-22T05:01:10.737Z</time>
      </trkpt>
      <trkpt lat="41.07587" lon="30.84538">
        <ele>5.627499</ele>
        <time>2021-08-22T05:01:27.851Z</time>
      </trkpt>
      <trkpt lat="41.0759" lon="30.84504">
        <ele>5.519741</ele>
        <time>2021-08-22T05:01:35.479Z</time>
      </trkpt>
      <trkpt lat="41.07593" lon="30.84479">
        <ele>5.440153</ele>
        <time>2021-08-22T05:01:41.088Z</time>
      </trkpt>
      <trkpt lat="41.07599" lon="30.84437">
        <ele>5.306846</ele>
        <time>2021-08-22T05:01:50.238Z</time>
      </trkpt>
      <trkpt lat="41.07602" lon="30.84416">
        <ele>5.22327</ele>
        <time>2021-08-22T05:01:54.676Z</time>
      </trkpt>
      <trkpt lat="41.07606" lon="30.84397">
        <ele>5.124823</ele>
        <time>2021-08-22T05:01:58.845Z</time>
      </trkpt>
      <trkpt lat="41.07607" lon="30.84345">
        <ele>4.873344</ele>
        <time>2021-08-22T05:02:10.295Z</time>
      </trkpt>
      <trkpt lat="41.07607" lon="30.84328">
        <ele>4.791952</ele>
        <time>2021-08-22T05:02:14.219Z</time>
      </trkpt>
      <trkpt lat="41.0761" lon="30.84278">
        <ele>4.546791</ele>
        <time>2021-08-22T05:02:25.906Z</time>
      </trkpt>
      <trkpt lat="41.07623" lon="30.84208">
        <ele>4.192298</ele>
        <time>2021-08-22T05:02:42.151Z</time>
      </trkpt>
      <trkpt lat="41.07615" lon="30.84205">
        <ele>4.13361</ele>
        <time>2021-08-22T05:02:44.717Z</time>
      </trkpt>
      <trkpt lat="41.07618" lon="30.84185">
        <ele>4.087449</ele>
        <time>2021-08-22T05:02:49.520Z</time>
      </trkpt>
      <trkpt lat="41.07629" lon="30.84146">
        <ele>4.023857</ele>
        <time>2021-08-22T05:02:58.773Z</time>
      </trkpt>
      <trkpt lat="41.07636" lon="30.84128">
        <ele>3.993268</ele>
        <time>2021-08-22T05:03:03.441Z</time>
      </trkpt>
      <trkpt lat="41.07628" lon="30.84086">
        <ele>3.926512</ele>
        <time>2021-08-22T05:03:13.595Z</time>
      </trkpt>
      <trkpt lat="41.07637" lon="30.84049">
        <ele>3.86766</ele>
        <time>2021-08-22T05:03:22.788Z</time>
      </trkpt>
      <trkpt lat="41.07638" lon="30.84015">
        <ele>3.81435</ele>
        <time>2021-08-22T05:03:31.280Z</time>
      </trkpt>
      <trkpt lat="41.07644" lon="30.8398">
        <ele>3.758714</ele>
        <time>2021-08-22T05:03:40.548Z</time>
      </trkpt>
      <trkpt lat="41.07657" lon="30.83954">
        <ele>3.764184</ele>
        <time>2021-08-22T05:03:48.155Z</time>
      </trkpt>
      <trkpt lat="41.07664" lon="30.83783">
        <ele>3.894768</ele>
        <time>2021-08-22T05:04:30.064Z</time>
      </trkpt>
      <trkpt lat="41.07672" lon="30.8366">
        <ele>4.034069</ele>
        <time>2021-08-22T05:05:01.897Z</time>
      </trkpt>
      <trkpt lat="41.07669" lon="30.83619">
        <ele>4.090532</ele>
        <time>2021-08-22T05:05:12.626Z</time>
      </trkpt>
      <trkpt lat="41.07673" lon="30.83535">
        <ele>4.203359</ele>
        <time>2021-08-22T05:05:33.950Z</time>
      </trkpt>
      <trkpt lat="41.0768" lon="30.8346">
        <ele>4.239763</ele>
        <time>2021-08-22T05:05:52.765Z</time>
      </trkpt>
      <trkpt lat="41.0768" lon="30.83284">
        <ele>4.198879</ele>
        <time>2021-08-22T05:06:34.527Z</time>
      </trkpt>
      <trkpt lat="41.07683" lon="30.83108">
        <ele>4.441446</ele>
        <time>2021-08-22T05:07:19.454Z</time>
      </trkpt>
      <trkpt lat="41.07623" lon="30.83102">
        <ele>4.569485</ele>
        <time>2021-08-22T05:07:39.926Z</time>
      </trkpt>
      <trkpt lat="41.07612" lon="30.83103">
        <ele>4.575737</ele>
        <time>2021-08-22T05:07:43.913Z</time>
      </trkpt>
      <trkpt lat="41.07615" lon="30.8306">
        <ele>4.570612</ele>
        <time>2021-08-22T05:07:54.546Z</time>
      </trkpt>
      <trkpt lat="41.07616" lon="30.83034">
        <ele>4.567497</ele>
        <time>2021-08-22T05:08:01.054Z</time>
      </trkpt>
      <trkpt lat="41.07619" lon="30.82987">
        <ele>4.561772</ele>
        <time>2021-08-22T05:08:13.196Z</time>
      </trkpt>
      <trkpt lat="41.07614" lon="30.82967">
        <ele>4.559293</ele>
        <time>2021-08-22T05:08:18.513Z</time>
      </trkpt>
      <trkpt lat="41.07602" lon="30.8295">
        <ele>4.556521</ele>
        <time>2021-08-22T05:08:24.248Z</time>
      </trkpt>
      <trkpt lat="41.07539" lon="30.82954">
        <ele>4.491216</ele>
        <time>2021-08-22T05:08:43.603Z</time>
      </trkpt>
      <trkpt lat="41.07542" lon="30.82923">
        <ele>4.378532</ele>
        <time>2021-08-22T05:08:50.597Z</time>
      </trkpt>
      <trkpt lat="41.07551" lon="30.82846">
        <ele>4.09685</ele>
        <time>2021-08-22T05:09:07.843Z</time>
      </trkpt>
      <trkpt lat="41.0755" lon="30.8277">
        <ele>3.824319</ele>
        <time>2021-08-22T05:09:24.890Z</time>
      </trkpt>
      <trkpt lat="41.07507" lon="30.82763">
        <ele>3.654675</ele>
        <time>2021-08-22T05:09:38.538Z</time>
      </trkpt>
      <trkpt lat="41.0748" lon="30.82749">
        <ele>3.590116</ele>
        <time>2021-08-22T05:09:47.554Z</time>
      </trkpt>
      <trkpt lat="41.07514" lon="30.82578">
        <ele>3.291463</ele>
        <time>2021-08-22T05:10:29.350Z</time>
      </trkpt>
      <trkpt lat="41.07521" lon="30.82425">
        <ele>3.0225</ele>
        <time>2021-08-22T05:11:05.338Z</time>
      </trkpt>
      <trkpt lat="41.07548" lon="30.8232">
        <ele>2.850795</ele>
        <time>2021-08-22T05:11:31.559Z</time>
      </trkpt>
      <trkpt lat="41.07544" lon="30.8213">
        <ele>2.729028</ele>
        <time>2021-08-22T05:12:17.578Z</time>
      </trkpt>
      <trkpt lat="41.07548" lon="30.82102">
        <ele>2.713424</ele>
        <time>2021-08-22T05:12:24.267Z</time>
      </trkpt>
      <trkpt lat="41.07548" lon="30.82092">
        <ele>2.732794</ele>
        <time>2021-08-22T05:12:26.925Z</time>
      </trkpt>
      <trkpt lat="41.07515" lon="30.82094">
        <ele>2.815269</ele>
        <time>2021-08-22T05:12:37.544Z</time>
      </trkpt>
      <trkpt lat="41.0748" lon="30.82079">
        <ele>2.909368</ele>
        <time>2021-08-22T05:12:49.959Z</time>
      </trkpt>
      <trkpt lat="41.07465" lon="30.82085">
        <ele>2.947818</ele>
        <time>2021-08-22T05:12:55.018Z</time>
      </trkpt>
      <trkpt lat="41.07453" lon="30.82095">
        <ele>2.983088</ele>
        <time>2021-08-22T05:12:59.740Z</time>
      </trkpt>
      <trkpt lat="41.0742" lon="30.82148">
        <ele>3.114748</ele>
        <time>2021-08-22T05:13:17.972Z</time>
      </trkpt>
      <trkpt lat="41.07382" lon="30.82167">
        <ele>3.302098</ele>
        <time>2021-08-22T05:13:32.207Z</time>
      </trkpt>
      <trkpt lat="41.07365" lon="30.82225">
        <ele>3.617214</ele>
        <time>2021-08-22T05:13:49.549Z</time>
      </trkpt>
      <trkpt lat="41.07326" lon="30.82254">
        <ele>3.917122</ele>
        <time>2021-08-22T05:14:06.611Z</time>
      </trkpt>
      <trkpt lat="41.07307" lon="30.82251">
        <ele>4.0452</ele>
        <time>2021-08-22T05:14:13.399Z</time>
      </trkpt>
      <trkpt lat="41.07298" lon="30.8224">
        <ele>4.125525</ele>
        <time>2021-08-22T05:14:18.042Z</time>
      </trkpt>
      <trkpt lat="41.07245" lon="30.82144">
        <ele>4.392641</ele>
        <time>2021-08-22T05:14:49.134Z</time>
      </trkpt>
      <trkpt lat="41.07231" lon="30.82134">
        <ele>4.400243</ele>
        <time>2021-08-22T05:14:54.920Z</time>
      </trkpt>
      <trkpt lat="41.07229" lon="30.821">
        <ele>4.412468</ele>
        <time>2021-08-22T05:15:02.888Z</time>
      </trkpt>
      <trkpt lat="41.07219" lon="30.81949">
        <ele>4.343853</ele>
        <time>2021-08-22T05:15:36.912Z</time>
      </trkpt>
      <trkpt lat="41.07203" lon="30.81805">
        <ele>3.952882</ele>
        <time>2021-08-22T05:16:08.623Z</time>
      </trkpt>
      <trkpt lat="41.07104" lon="30.8111">
        <ele>3.606474</ele>
        <time>2021-08-22T05:18:52.917Z</time>
      </trkpt>
      <trkpt lat="41.07091" lon="30.8102">
        <ele>3.69537</ele>
        <time>2021-08-22T05:19:15.556Z</time>
      </trkpt>
      <trkpt lat="41.07109" lon="30.81015">
        <ele>3.757289</ele>
        <time>2021-08-22T05:19:22.023Z</time>
      </trkpt>
      <trkpt lat="41.07159" lon="30.80894">
        <ele>4.111914</ele>
        <time>2021-08-22T05:19:57.668Z</time>
      </trkpt>
      <trkpt lat="41.07159" lon="30.80889">
        <ele>4.124337</ele>
        <time>2021-08-22T05:19:59.095Z</time>
      </trkpt>
      <trkpt lat="41.07181" lon="30.80835">
        <ele>4.301208</ele>
        <time>2021-08-22T05:20:15.102Z</time>
      </trkpt>
      <trkpt lat="41.07206" lon="30.80726">
        <ele>4.702543</ele>
        <time>2021-08-22T05:20:45.026Z</time>
      </trkpt>
      <trkpt lat="41.07207" lon="30.80679">
        <ele>4.86838</ele>
        <time>2021-08-22T05:20:57.611Z</time>
      </trkpt>
      <trkpt lat="41.07181" lon="30.80628">
        <ele>5.094319</ele>
        <time>2021-08-22T05:21:13.950Z</time>
      </trkpt>
      <trkpt lat="41.07146" lon="30.80566">
        <ele>5.578209</ele>
        <time>2021-08-22T05:21:34.744Z</time>
      </trkpt>
      <trkpt lat="41.07007" lon="30.80352">
        <ele>7.351224</ele>
        <time>2021-08-22T05:22:55.470Z</time>
      </trkpt>
      <trkpt lat="41.07" lon="30.80284">
        <ele>7.775468</ele>
        <time>2021-08-22T05:23:14.605Z</time>
      </trkpt>
      <trkpt lat="41.0699" lon="30.80286">
        <ele>7.863962</ele>
        <time>2021-08-22T05:23:18.318Z</time>
      </trkpt>
      <trkpt lat="41.06988" lon="30.80281">
        <ele>7.901897</ele>
        <time>2021-08-22T05:23:19.939Z</time>
      </trkpt>
      <trkpt lat="41.06967" lon="30.80119">
        <ele>8.346857</ele>
        <time>2021-08-22T05:24:02.012Z</time>
      </trkpt>
      <trkpt lat="41.06964" lon="30.80043">
        <ele>8.503944</ele>
        <time>2021-08-22T05:24:19.699Z</time>
      </trkpt>
      <trkpt lat="41.06966" lon="30.7995">
        <ele>8.513999</ele>
        <time>2021-08-22T05:24:41.087Z</time>
      </trkpt>
      <trkpt lat="41.06988" lon="30.79785">
        <ele>8.41809</ele>
        <time>2021-08-22T05:25:19.893Z</time>
      </trkpt>
      <trkpt lat="41.0702" lon="30.79651">
        <ele>8.466775</ele>
        <time>2021-08-22T05:25:52.954Z</time>
      </trkpt>
      <trkpt lat="41.07044" lon="30.79572">
        <ele>8.497342</ele>
        <time>2021-08-22T05:26:13.521Z</time>
      </trkpt>
      <trkpt lat="41.07182" lon="30.79226">
        <ele>8.579461</ele>
        <time>2021-08-22T05:27:47.247Z</time>
      </trkpt>
      <trkpt lat="41.07322" lon="30.78871">
        <ele>7.625013</ele>
        <time>2021-08-22T05:29:15.535Z</time>
      </trkpt>
      <trkpt lat="41.07342" lon="30.78821">
        <ele>7.479554</ele>
        <time>2021-08-22T05:29:28.116Z</time>
      </trkpt>
      <trkpt lat="41.07438" lon="30.78586">
        <ele>6.76167</ele>
        <time>2021-08-22T05:30:28.185Z</time>
      </trkpt>
      <trkpt lat="41.07545" lon="30.78345">
        <ele>5.702875</ele>
        <time>2021-08-22T05:31:28.543Z</time>
      </trkpt>
      <trkpt lat="41.07549" lon="30.78342">
        <ele>5.676348</ele>
        <time>2021-08-22T05:31:29.862Z</time>
      </trkpt>
      <trkpt lat="41.07552" lon="30.78337">
        <ele>5.650201</ele>
        <time>2021-08-22T05:31:31.184Z</time>
      </trkpt>
      <trkpt lat="41.07553" lon="30.78331">
        <ele>5.623839</ele>
        <time>2021-08-22T05:31:32.488Z</time>
      </trkpt>
      <trkpt lat="41.07553" lon="30.78325">
        <ele>5.599573</ele>
        <time>2021-08-22T05:31:33.691Z</time>
      </trkpt>
      <trkpt lat="41.07615" lon="30.78157">
        <ele>4.912655</ele>
        <time>2021-08-22T05:32:14.078Z</time>
      </trkpt>
      <trkpt lat="41.07826" lon="30.7759">
        <ele>3.561115</ele>
        <time>2021-08-22T05:34:35.763Z</time>
      </trkpt>
      <trkpt lat="41.07881" lon="30.77423">
        <ele>3.555097</ele>
        <time>2021-08-22T05:35:18.908Z</time>
      </trkpt>
      <trkpt lat="41.07942" lon="30.77242">
        <ele>3.898982</ele>
        <time>2021-08-22T05:36:07.698Z</time>
      </trkpt>
      <trkpt lat="41.08042" lon="30.76948">
        <ele>4.339024</ele>
        <time>2021-08-22T05:37:26.784Z</time>
      </trkpt>
      <trkpt lat="41.08164" lon="30.7658">
        <ele>3.992309</ele>
        <time>2021-08-22T05:38:58.915Z</time>
      </trkpt>
      <trkpt lat="41.08255" lon="30.76337">
        <ele>3.647104</ele>
        <time>2021-08-22T05:40:00.659Z</time>
      </trkpt>
      <trkpt lat="41.08258" lon="30.76332">
        <ele>3.643734</ele>
        <time>2021-08-22T05:40:02.214Z</time>
      </trkpt>
      <trkpt lat="41.0826" lon="30.76326">
        <ele>3.640745</ele>
        <time>2021-08-22T05:40:03.589Z</time>
      </trkpt>
      <trkpt lat="41.0826" lon="30.7632">
        <ele>3.637708</ele>
        <time>2021-08-22T05:40:04.961Z</time>
      </trkpt>
      <trkpt lat="41.08355" lon="30.76015">
        <ele>3.524446</ele>
        <time>2021-08-22T05:41:22.118Z</time>
      </trkpt>
      <trkpt lat="41.08633" lon="30.75181">
        <ele>3.587966</ele>
        <time>2021-08-22T05:44:57.281Z</time>
      </trkpt>
      <trkpt lat="41.08689" lon="30.74995">
        <ele>3.508453</ele>
        <time>2021-08-22T05:45:43.954Z</time>
      </trkpt>
      <trkpt lat="41.08711" lon="30.74874">
        <ele>3.325682</ele>
        <time>2021-08-22T05:46:12.444Z</time>
      </trkpt>
      <trkpt lat="41.08724" lon="30.74718">
        <ele>3.047151</ele>
        <time>2021-08-22T05:46:47.064Z</time>
      </trkpt>
      <trkpt lat="41.08735" lon="30.74568">
        <ele>2.787666</ele>
        <time>2021-08-22T05:47:20.846Z</time>
      </trkpt>
      <trkpt lat="41.08743" lon="30.74421">
        <ele>3.406833</ele>
        <time>2021-08-22T05:47:57.754Z</time>
      </trkpt>
      <trkpt lat="41.08745" lon="30.74393">
        <ele>3.524644</ele>
        <time>2021-08-22T05:48:05.375Z</time>
      </trkpt>
      <trkpt lat="41.08763" lon="30.74362">
        <ele>3.69291</ele>
        <time>2021-08-22T05:48:16.902Z</time>
      </trkpt>
      <trkpt lat="41.08779" lon="30.74355">
        <ele>3.81491</ele>
        <time>2021-08-22T05:48:23.387Z</time>
      </trkpt>
      <trkpt lat="41.08865" lon="30.74358">
        <ele>4.864392</ele>
        <time>2021-08-22T05:48:58.175Z</time>
      </trkpt>
      <trkpt lat="41.08882" lon="30.74354">
        <ele>5.072364</ele>
        <time>2021-08-22T05:49:05.134Z</time>
      </trkpt>
      <trkpt lat="41.08928" lon="30.7426">
        <ele>5.99799</ele>
        <time>2021-08-22T05:49:37.977Z</time>
      </trkpt>
      <trkpt lat="41.08975" lon="30.74169">
        <ele>6.237291</ele>
        <time>2021-08-22T05:50:07.665Z</time>
      </trkpt>
      <trkpt lat="41.0899" lon="30.7414">
        <ele>6.31383</ele>
        <time>2021-08-22T05:50:16.473Z</time>
      </trkpt>
      <trkpt lat="41.09008" lon="30.74093">
        <ele>6.429194</ele>
        <time>2021-08-22T05:50:29.288Z</time>
      </trkpt>
      <trkpt lat="41.09018" lon="30.74078">
        <ele>6.470269</ele>
        <time>2021-08-22T05:50:33.651Z</time>
      </trkpt>
      <trkpt lat="41.09032" lon="30.7404">
        <ele>6.385201</ele>
        <time>2021-08-22T05:50:43.183Z</time>
      </trkpt>
      <trkpt lat="41.0906" lon="30.73972">
        <ele>6.176705</ele>
        <time>2021-08-22T05:51:00.309Z</time>
      </trkpt>
      <trkpt lat="41.09112" lon="30.7399">
        <ele>5.987006</ele>
        <time>2021-08-22T05:51:16.701Z</time>
      </trkpt>
      <trkpt lat="41.09185" lon="30.74019">
        <ele>5.909827</ele>
        <time>2021-08-22T05:51:41.187Z</time>
      </trkpt>
      <trkpt lat="41.09204" lon="30.73975">
        <ele>5.979138</ele>
        <time>2021-08-22T05:51:53.501Z</time>
      </trkpt>
      <trkpt lat="41.09212" lon="30.73955">
        <ele>6.010988</ele>
        <time>2021-08-22T05:51:59.294Z</time>
      </trkpt>
      <trkpt lat="41.09224" lon="30.73925">
        <ele>6.056885</ele>
        <time>2021-08-22T05:52:07.457Z</time>
      </trkpt>
      <trkpt lat="41.0924" lon="30.73888">
        <ele>6.115727</ele>
        <time>2021-08-22T05:52:17.968Z</time>
      </trkpt>
      <trkpt lat="41.09255" lon="30.73854">
        <ele>6.167629</ele>
        <time>2021-08-22T05:52:27.513Z</time>
      </trkpt>
      <trkpt lat="41.09269" lon="30.73822">
        <ele>6.189577</ele>
        <time>2021-08-22T05:52:37.169Z</time>
      </trkpt>
      <trkpt lat="41.09275" lon="30.73806">
        <ele>6.199183</ele>
        <time>2021-08-22T05:52:41.687Z</time>
      </trkpt>
      <trkpt lat="41.09281" lon="30.7379">
        <ele>6.209256</ele>
        <time>2021-08-22T05:52:46.414Z</time>
      </trkpt>
      <trkpt lat="41.09288" lon="30.73776">
        <ele>6.218183</ele>
        <time>2021-08-22T05:52:50.470Z</time>
      </trkpt>
      <trkpt lat="41.09294" lon="30.73762">
        <ele>6.227238</ele>
        <time>2021-08-22T05:52:54.627Z</time>
      </trkpt>
      <trkpt lat="41.09312" lon="30.73716">
        <ele>6.255026</ele>
        <time>2021-08-22T05:53:06.751Z</time>
      </trkpt>
      <trkpt lat="41.09327" lon="30.73678">
        <ele>6.278216</ele>
        <time>2021-08-22T05:53:16.600Z</time>
      </trkpt>
      <trkpt lat="41.09339" lon="30.73647">
        <ele>6.296716</ele>
        <time>2021-08-22T05:53:24.267Z</time>
      </trkpt>
      <trkpt lat="41.09292" lon="30.736">
        <ele>6.040154</ele>
        <time>2021-08-22T05:53:42.320Z</time>
      </trkpt>
      <trkpt lat="41.09241" lon="30.7356">
        <ele>5.759414</ele>
        <time>2021-08-22T05:53:59.938Z</time>
      </trkpt>
      <trkpt lat="41.09294" lon="30.73374">
        <ele>5.101934</ele>
        <time>2021-08-22T05:54:44.968Z</time>
      </trkpt>
      <trkpt lat="41.0931" lon="30.73318">
        <ele>4.916792</ele>
        <time>2021-08-22T05:54:58.516Z</time>
      </trkpt>
      <trkpt lat="41.09326" lon="30.73262">
        <ele>4.72976</ele>
        <time>2021-08-22T05:55:12.413Z</time>
      </trkpt>
      <trkpt lat="41.09342" lon="30.73205">
        <ele>4.781945</ele>
        <time>2021-08-22T05:55:27.055Z</time>
      </trkpt>
      <trkpt lat="41.09353" lon="30.73164">
        <ele>4.841063</ele>
        <time>2021-08-22T05:55:37.984Z</time>
      </trkpt>
      <trkpt lat="41.09371" lon="30.73105">
        <ele>4.928915</ele>
        <time>2021-08-22T05:55:54.383Z</time>
      </trkpt>
      <trkpt lat="41.09415" lon="30.72943">
        <ele>5.311976</ele>
        <time>2021-08-22T05:56:39.218Z</time>
      </trkpt>
      <trkpt lat="41.0942" lon="30.72894">
        <ele>5.459768</ele>
        <time>2021-08-22T05:56:53.337Z</time>
      </trkpt>
      <trkpt lat="41.09436" lon="30.72827">
        <ele>5.665618</ele>
        <time>2021-08-22T05:57:11.969Z</time>
      </trkpt>
      <trkpt lat="41.09442" lon="30.72805">
        <ele>5.734387</ele>
        <time>2021-08-22T05:57:17.680Z</time>
      </trkpt>
      <trkpt lat="41.09478" lon="30.72699">
        <ele>5.446683</ele>
        <time>2021-08-22T05:57:44.781Z</time>
      </trkpt>
      <trkpt lat="41.09491" lon="30.7266">
        <ele>5.336452</ele>
        <time>2021-08-22T05:57:54.209Z</time>
      </trkpt>
      <trkpt lat="41.0953" lon="30.72571">
        <ele>5.164227</ele>
        <time>2021-08-22T05:58:17.653Z</time>
      </trkpt>
      <trkpt lat="41.09536" lon="30.7254">
        <ele>5.212133</ele>
        <time>2021-08-22T05:58:24.921Z</time>
      </trkpt>
      <trkpt lat="41.09543" lon="30.72517">
        <ele>5.249446</ele>
        <time>2021-08-22T05:58:31.248Z</time>
      </trkpt>
      <trkpt lat="41.09575" lon="30.72451">
        <ele>5.368033</ele>
        <time>2021-08-22T05:58:50.562Z</time>
      </trkpt>
      <trkpt lat="41.09597" lon="30.72409">
        <ele>5.445329</ele>
        <time>2021-08-22T05:59:04.466Z</time>
      </trkpt>
      <trkpt lat="41.09605" lon="30.72389">
        <ele>5.478355</ele>
        <time>2021-08-22T05:59:10.834Z</time>
      </trkpt>
      <trkpt lat="41.09723" lon="30.72246">
        <ele>6.755299</ele>
        <time>2021-08-22T06:00:11.879Z</time>
      </trkpt>
      <trkpt lat="41.09745" lon="30.72193">
        <ele>6.941226</ele>
        <time>2021-08-22T06:00:27.450Z</time>
      </trkpt>
      <trkpt lat="41.09763" lon="30.72143">
        <ele>6.897151</ele>
        <time>2021-08-22T06:00:41.184Z</time>
      </trkpt>
      <trkpt lat="41.09771" lon="30.7212">
        <ele>6.876186</ele>
        <time>2021-08-22T06:00:47.544Z</time>
      </trkpt>
      <trkpt lat="41.09792" lon="30.72057">
        <ele>6.821</ele>
        <time>2021-08-22T06:01:03.640Z</time>
      </trkpt>
      <trkpt lat="41.09793" lon="30.7199">
        <ele>6.742297</ele>
        <time>2021-08-22T06:01:19.152Z</time>
      </trkpt>
      <trkpt lat="41.09801" lon="30.7195">
        <ele>6.476841</ele>
        <time>2021-08-22T06:01:28.396Z</time>
      </trkpt>
      <trkpt lat="41.09814" lon="30.71907">
        <ele>6.184122</ele>
        <time>2021-08-22T06:01:38.439Z</time>
      </trkpt>
      <trkpt lat="41.09831" lon="30.71855">
        <ele>5.824515</ele>
        <time>2021-08-22T06:01:50.526Z</time>
      </trkpt>
      <trkpt lat="41.09841" lon="30.71829">
        <ele>5.640088</ele>
        <time>2021-08-22T06:01:56.713Z</time>
      </trkpt>
      <trkpt lat="41.09846" lon="30.71804">
        <ele>5.478109</ele>
        <time>2021-08-22T06:02:02.173Z</time>
      </trkpt>
      <trkpt lat="41.09844" lon="30.71778">
        <ele>5.309621</ele>
        <time>2021-08-22T06:02:07.790Z</time>
      </trkpt>
      <trkpt lat="41.09835" lon="30.71743">
        <ele>5.122584</ele>
        <time>2021-08-22T06:02:15.660Z</time>
      </trkpt>
      <trkpt lat="41.0982" lon="30.71712">
        <ele>4.950574</ele>
        <time>2021-08-22T06:02:23.507Z</time>
      </trkpt>
      <trkpt lat="41.09804" lon="30.7169">
        <ele>4.803115</ele>
        <time>2021-08-22T06:02:30.294Z</time>
      </trkpt>
      <trkpt lat="41.0979" lon="30.71668">
        <ele>4.665709</ele>
        <time>2021-08-22T06:02:36.812Z</time>
      </trkpt>
      <trkpt lat="41.0978" lon="30.71633">
        <ele>4.490854</ele>
        <time>2021-08-22T06:02:45.059Z</time>
      </trkpt>
      <trkpt lat="41.09773" lon="30.71552">
        <ele>4.122081</ele>
        <time>2021-08-22T06:03:03.690Z</time>
      </trkpt>
      <trkpt lat="41.09763" lon="30.71519">
        <ele>4.10667</ele>
        <time>2021-08-22T06:03:12.365Z</time>
      </trkpt>
      <trkpt lat="41.09775" lon="30.71515">
        <ele>4.099749</ele>
        <time>2021-08-22T06:03:16.355Z</time>
      </trkpt>
      <trkpt lat="41.09815" lon="30.71501">
        <ele>4.076176</ele>
        <time>2021-08-22T06:03:30.219Z</time>
      </trkpt>
      <trkpt lat="41.09848" lon="30.71482">
        <ele>4.055972</ele>
        <time>2021-08-22T06:03:42.033Z</time>
      </trkpt>
      <trkpt lat="41.09862" lon="30.71458">
        <ele>4.042894</ele>
        <time>2021-08-22T06:03:49.598Z</time>
      </trkpt>
      <trkpt lat="41.09884" lon="30.71379">
        <ele>4.029585</ele>
        <time>2021-08-22T06:04:09.862Z</time>
      </trkpt>
      <trkpt lat="41.09909" lon="30.71304">
        <ele>4.045668</ele>
        <time>2021-08-22T06:04:29.530Z</time>
      </trkpt>
      <trkpt lat="41.0993" lon="30.71242">
        <ele>4.059085</ele>
        <time>2021-08-22T06:04:46.442Z</time>
      </trkpt>
      <trkpt lat="41.09933" lon="30.71232">
        <ele>4.06119</ele>
        <time>2021-08-22T06:04:48.896Z</time>
      </trkpt>
      <trkpt lat="41.09953" lon="30.71168">
        <ele>4.144608</ele>
        <time>2021-08-22T06:05:06.444Z</time>
      </trkpt>
      <trkpt lat="41.0997" lon="30.71109">
        <ele>4.319951</ele>
        <time>2021-08-22T06:05:22.847Z</time>
      </trkpt>
      <trkpt lat="41.09981" lon="30.71071">
        <ele>4.431867</ele>
        <time>2021-08-22T06:05:33.230Z</time>
      </trkpt>
      <trkpt lat="41.09988" lon="30.71042">
        <ele>4.516748</ele>
        <time>2021-08-22T06:05:41.178Z</time>
      </trkpt>
      <trkpt lat="41.09994" lon="30.71017">
        <ele>4.591755</ele>
        <time>2021-08-22T06:05:48.506Z</time>
      </trkpt>
      <trkpt lat="41.10003" lon="30.7098">
        <ele>4.699163</ele>
        <time>2021-08-22T06:05:58.962Z</time>
      </trkpt>
      <trkpt lat="41.10002" lon="30.70957">
        <ele>4.746031</ele>
        <time>2021-08-22T06:06:05.080Z</time>
      </trkpt>
      <trkpt lat="41.10011" lon="30.70914">
        <ele>4.804962</ele>
        <time>2021-08-22T06:06:17.022Z</time>
      </trkpt>
      <trkpt lat="41.1003" lon="30.70882">
        <ele>4.857568</ele>
        <time>2021-08-22T06:06:27.323Z</time>
      </trkpt>
      <trkpt lat="41.1006" lon="30.70874">
        <ele>4.911089</ele>
        <time>2021-08-22T06:06:37.687Z</time>
      </trkpt>
      <trkpt lat="41.10101" lon="30.70866">
        <ele>4.98358</ele>
        <time>2021-08-22T06:06:51.504Z</time>
      </trkpt>
      <trkpt lat="41.10102" lon="30.70858">
        <ele>4.993637</ele>
        <time>2021-08-22T06:06:53.379Z</time>
      </trkpt>
      <trkpt lat="41.10102" lon="30.70855">
        <ele>4.997665</ele>
        <time>2021-08-22T06:06:54.109Z</time>
      </trkpt>
      <trkpt lat="41.1011" lon="30.70829">
        <ele>5.034102</ele>
        <time>2021-08-22T06:07:00.635Z</time>
      </trkpt>
      <trkpt lat="41.10112" lon="30.70823">
        <ele>5.042303</ele>
        <time>2021-08-22T06:07:02.124Z</time>
      </trkpt>
      <trkpt lat="41.1013" lon="30.70773">
        <ele>4.923429</ele>
        <time>2021-08-22T06:07:15.173Z</time>
      </trkpt>
      <trkpt lat="41.10144" lon="30.70736">
        <ele>4.83392</ele>
        <time>2021-08-22T06:07:24.509Z</time>
      </trkpt>
      <trkpt lat="41.10154" lon="30.70685">
        <ele>4.717567</ele>
        <time>2021-08-22T06:07:36.872Z</time>
      </trkpt>
      <trkpt lat="41.10154" lon="30.7066">
        <ele>4.661664</ele>
        <time>2021-08-22T06:07:42.754Z</time>
      </trkpt>
      <trkpt lat="41.10156" lon="30.70588">
        <ele>4.515278</ele>
        <time>2021-08-22T06:07:59.555Z</time>
      </trkpt>
      <trkpt lat="41.10156" lon="30.7055">
        <ele>4.495566</ele>
        <time>2021-08-22T06:08:08.552Z</time>
      </trkpt>
      <trkpt lat="41.102" lon="30.70551">
        <ele>4.4653</ele>
        <time>2021-08-22T06:08:22.603Z</time>
      </trkpt>
      <trkpt lat="41.10251" lon="30.70549">
        <ele>4.430932</ele>
        <time>2021-08-22T06:08:38.609Z</time>
      </trkpt>
      <trkpt lat="41.10258" lon="30.70548">
        <ele>4.425668</ele>
        <time>2021-08-22T06:08:41.217Z</time>
      </trkpt>
      <trkpt lat="41.10275" lon="30.70545">
        <ele>4.414074</ele>
        <time>2021-08-22T06:08:46.807Z</time>
      </trkpt>
      <trkpt lat="41.10286" lon="30.7054">
        <ele>4.406191</ele>
        <time>2021-08-22T06:08:50.496Z</time>
      </trkpt>
      <trkpt lat="41.1028" lon="30.70505">
        <ele>4.409243</ele>
        <time>2021-08-22T06:08:59.762Z</time>
      </trkpt>
      <trkpt lat="41.10266" lon="30.70469">
        <ele>4.442215</ele>
        <time>2021-08-22T06:09:10.154Z</time>
      </trkpt>
      <trkpt lat="41.10265" lon="30.70437">
        <ele>4.468538</ele>
        <time>2021-08-22T06:09:18.308Z</time>
      </trkpt>
      <trkpt lat="41.103" lon="30.70365">
        <ele>4.5381</ele>
        <time>2021-08-22T06:09:39.536Z</time>
      </trkpt>
      <trkpt lat="41.10336" lon="30.70309">
        <ele>4.58746</ele>
        <time>2021-08-22T06:09:57.899Z</time>
      </trkpt>
      <trkpt lat="41.10341" lon="30.70287">
        <ele>4.580624</ele>
        <time>2021-08-22T06:10:03.592Z</time>
      </trkpt>
      <trkpt lat="41.10371" lon="30.70247">
        <ele>4.564404</ele>
        <time>2021-08-22T06:10:16.853Z</time>
      </trkpt>
      <trkpt lat="41.10401" lon="30.70169">
        <ele>4.538601</ele>
        <time>2021-08-22T06:10:38.065Z</time>
      </trkpt>
      <trkpt lat="41.10403" lon="30.70164">
        <ele>4.537054</ele>
        <time>2021-08-22T06:10:39.327Z</time>
      </trkpt>
      <trkpt lat="41.10413" lon="30.70134">
        <ele>4.527555</ele>
        <time>2021-08-22T06:10:47.206Z</time>
      </trkpt>
      <trkpt lat="41.10423" lon="30.70091">
        <ele>4.584345</ele>
        <time>2021-08-22T06:10:58.294Z</time>
      </trkpt>
      <trkpt lat="41.10452" lon="30.70022">
        <ele>4.81895</ele>
        <time>2021-08-22T06:11:18.463Z</time>
      </trkpt>
      <trkpt lat="41.10459" lon="30.70009">
        <ele>4.868319</ele>
        <time>2021-08-22T06:11:22.700Z</time>
      </trkpt>
      <trkpt lat="41.10461" lon="30.69996">
        <ele>4.907005</ele>
        <time>2021-08-22T06:11:26.284Z</time>
      </trkpt>
      <trkpt lat="41.10471" lon="30.69967">
        <ele>5.00377</ele>
        <time>2021-08-22T06:11:34.771Z</time>
      </trkpt>
      <trkpt lat="41.10488" lon="30.69921">
        <ele>5.153923</ele>
        <time>2021-08-22T06:11:48.536Z</time>
      </trkpt>
      <trkpt lat="41.10499" lon="30.699">
        <ele>5.230972</ele>
        <time>2021-08-22T06:11:55.708Z</time>
      </trkpt>
      <trkpt lat="41.1051" lon="30.6988">
        <ele>5.318052</ele>
        <time>2021-08-22T06:12:02.553Z</time>
      </trkpt>
      <trkpt lat="41.10522" lon="30.69851">
        <ele>5.435594</ele>
        <time>2021-08-22T06:12:11.538Z</time>
      </trkpt>
      <trkpt lat="41.10534" lon="30.69832">
        <ele>5.520938</ele>
        <time>2021-08-22T06:12:18.336Z</time>
      </trkpt>
      <trkpt lat="41.10547" lon="30.69805">
        <ele>5.636</ele>
        <time>2021-08-22T06:12:26.857Z</time>
      </trkpt>
      <trkpt lat="41.10592" lon="30.69738">
        <ele>5.95278</ele>
        <time>2021-08-22T06:12:49.899Z</time>
      </trkpt>
      <trkpt lat="41.10607" lon="30.69725">
        <ele>6.035308</ele>
        <time>2021-08-22T06:12:56.143Z</time>
      </trkpt>
      <trkpt lat="41.10612" lon="30.69711">
        <ele>6.083914</ele>
        <time>2021-08-22T06:13:00.156Z</time>
      </trkpt>
      <trkpt lat="41.10624" lon="30.69665">
        <ele>6.172264</ele>
        <time>2021-08-22T06:13:12.747Z</time>
      </trkpt>
      <trkpt lat="41.10645" lon="30.69587">
        <ele>6.322354</ele>
        <time>2021-08-22T06:13:33.781Z</time>
      </trkpt>
      <trkpt lat="41.10659" lon="30.69551">
        <ele>6.396208</ele>
        <time>2021-08-22T06:13:44.067Z</time>
      </trkpt>
      <trkpt lat="41.10664" lon="30.69536">
        <ele>6.426248</ele>
        <time>2021-08-22T06:13:48.071Z</time>
      </trkpt>
      <trkpt lat="41.1068" lon="30.69492">
        <ele>6.514353</ele>
        <time>2021-08-22T06:14:00.485Z</time>
      </trkpt>
      <trkpt lat="41.10683" lon="30.69482">
        <ele>6.529361</ele>
        <time>2021-08-22T06:14:03.142Z</time>
      </trkpt>
      <trkpt lat="41.107" lon="30.69417">
        <ele>6.631508</ele>
        <time>2021-08-22T06:14:21.158Z</time>
      </trkpt>
      <trkpt lat="41.10708" lon="30.69342">
        <ele>6.742735</ele>
        <time>2021-08-22T06:14:41.144Z</time>
      </trkpt>
      <trkpt lat="41.10711" lon="30.69306">
        <ele>6.795184</ele>
        <time>2021-08-22T06:14:50.053Z</time>
      </trkpt>
      <trkpt lat="41.10714" lon="30.69267">
        <ele>6.852969</ele>
        <time>2021-08-22T06:14:59.672Z</time>
      </trkpt>
      <trkpt lat="41.10714" lon="30.69255">
        <ele>6.832559</ele>
        <time>2021-08-22T06:15:02.537Z</time>
      </trkpt>
      <trkpt lat="41.10722" lon="30.69188">
        <ele>6.564688</ele>
        <time>2021-08-22T06:15:18.141Z</time>
      </trkpt>
      <trkpt lat="41.10735" lon="30.69144">
        <ele>6.377781</ele>
        <time>2021-08-22T06:15:28.869Z</time>
      </trkpt>
      <trkpt lat="41.10763" lon="30.69065">
        <ele>6.035072</ele>
        <time>2021-08-22T06:15:48.451Z</time>
      </trkpt>
      <trkpt lat="41.10768" lon="30.69055">
        <ele>5.988353</ele>
        <time>2021-08-22T06:15:50.934Z</time>
      </trkpt>
      <trkpt lat="41.10771" lon="30.69049">
        <ele>5.961856</ele>
        <time>2021-08-22T06:15:52.396Z</time>
      </trkpt>
      <trkpt lat="41.1079" lon="30.69008">
        <ele>5.645183</ele>
        <time>2021-08-22T06:16:02.944Z</time>
      </trkpt>
      <trkpt lat="41.10805" lon="30.68976">
        <ele>5.371292</ele>
        <time>2021-08-22T06:16:10.982Z</time>
      </trkpt>
      <trkpt lat="41.10837" lon="30.68902">
        <ele>4.759375</ele>
        <time>2021-08-22T06:16:28.851Z</time>
      </trkpt>
      <trkpt lat="41.10867" lon="30.68851">
        <ele>4.294071</ele>
        <time>2021-08-22T06:16:42.636Z</time>
      </trkpt>
      <trkpt lat="41.10875" lon="30.68821">
        <ele>4.161247</ele>
        <time>2021-08-22T06:16:49.705Z</time>
      </trkpt>
      <trkpt lat="41.10874" lon="30.68795">
        <ele>4.10333</ele>
        <time>2021-08-22T06:16:55.418Z</time>
      </trkpt>
      <trkpt lat="41.10866" lon="30.68776">
        <ele>4.053991</ele>
        <time>2021-08-22T06:17:00.428Z</time>
      </trkpt>
      <trkpt lat="41.10859" lon="30.68767">
        <ele>4.024616</ele>
        <time>2021-08-22T06:17:03.252Z</time>
      </trkpt>
      <trkpt lat="41.10849" lon="30.68755">
        <ele>3.98505</ele>
        <time>2021-08-22T06:17:07.332Z</time>
      </trkpt>
      <trkpt lat="41.10839" lon="30.68723">
        <ele>3.906372</ele>
        <time>2021-08-22T06:17:15.303Z</time>
      </trkpt>
      <trkpt lat="41.10838" lon="30.68718">
        <ele>3.895029</ele>
        <time>2021-08-22T06:17:16.531Z</time>
      </trkpt>
      <trkpt lat="41.10842" lon="30.68693">
        <ele>3.837706</ele>
        <time>2021-08-22T06:17:22.611Z</time>
      </trkpt>
      <trkpt lat="41.10864" lon="30.68639">
        <ele>3.700033</ele>
        <time>2021-08-22T06:17:37.863Z</time>
      </trkpt>
      <trkpt lat="41.1087" lon="30.68552">
        <ele>3.831391</ele>
        <time>2021-08-22T06:18:00.540Z</time>
      </trkpt>
      <trkpt lat="41.10891" lon="30.68519">
        <ele>3.925528</ele>
        <time>2021-08-22T06:18:11.628Z</time>
      </trkpt>
      <trkpt lat="41.10896" lon="30.68511">
        <ele>3.948576</ele>
        <time>2021-08-22T06:18:14.425Z</time>
      </trkpt>
      <trkpt lat="41.109" lon="30.68503">
        <ele>3.969036</ele>
        <time>2021-08-22T06:18:16.852Z</time>
      </trkpt>
      <trkpt lat="41.10911" lon="30.68473">
        <ele>4.043349</ele>
        <time>2021-08-22T06:18:25.300Z</time>
      </trkpt>
      <trkpt lat="41.10912" lon="30.68469">
        <ele>4.054464</ele>
        <time>2021-08-22T06:18:26.747Z</time>
      </trkpt>
      <trkpt lat="41.10919" lon="30.68439">
        <ele>4.122643</ele>
        <time>2021-08-22T06:18:34.609Z</time>
      </trkpt>
      <trkpt lat="41.10931" lon="30.68397">
        <ele>4.206514</ele>
        <time>2021-08-22T06:18:46.204Z</time>
      </trkpt>
      <trkpt lat="41.10935" lon="30.68378">
        <ele>4.22369</ele>
        <time>2021-08-22T06:18:51.551Z</time>
      </trkpt>
      <trkpt lat="41.10944" lon="30.68338">
        <ele>4.258706</ele>
        <time>2021-08-22T06:19:02.090Z</time>
      </trkpt>
      <trkpt lat="41.10966" lon="30.68302">
        <ele>4.298788</ele>
        <time>2021-08-22T06:19:13.868Z</time>
      </trkpt>
      <trkpt lat="41.10987" lon="30.68274">
        <ele>4.331711</ele>
        <time>2021-08-22T06:19:23.265Z</time>
      </trkpt>
      <trkpt lat="41.11008" lon="30.68245">
        <ele>4.366332</ele>
        <time>2021-08-22T06:19:33.284Z</time>
      </trkpt>
      <trkpt lat="41.11017" lon="30.68227">
        <ele>4.384774</ele>
        <time>2021-08-22T06:19:38.636Z</time>
      </trkpt>
      <trkpt lat="41.11036" lon="30.68192">
        <ele>4.376154</ele>
        <time>2021-08-22T06:19:49.074Z</time>
      </trkpt>
      <trkpt lat="41.11037" lon="30.68182">
        <ele>4.366384</ele>
        <time>2021-08-22T06:19:51.709Z</time>
      </trkpt>
      <trkpt lat="41.11042" lon="30.68159">
        <ele>4.344258</ele>
        <time>2021-08-22T06:19:57.351Z</time>
      </trkpt>
      <trkpt lat="41.11046" lon="30.68107">
        <ele>4.295251</ele>
        <time>2021-08-22T06:20:09.867Z</time>
      </trkpt>
      <trkpt lat="41.11045" lon="30.6807">
        <ele>4.260182</ele>
        <time>2021-08-22T06:20:18.822Z</time>
      </trkpt>
      <trkpt lat="41.11057" lon="30.68035">
        <ele>4.223949</ele>
        <time>2021-08-22T06:20:28.068Z</time>
      </trkpt>
      <trkpt lat="41.11078" lon="30.67974">
        <ele>4.156472</ele>
        <time>2021-08-22T06:20:43.670Z</time>
      </trkpt>
      <trkpt lat="41.11097" lon="30.67929">
        <ele>4.092465</ele>
        <time>2021-08-22T06:20:55.929Z</time>
      </trkpt>
      <trkpt lat="41.11128" lon="30.67859">
        <ele>3.991659</ele>
        <time>2021-08-22T06:21:15.264Z</time>
      </trkpt>
      <trkpt lat="41.11131" lon="30.67852">
        <ele>3.981828</ele>
        <time>2021-08-22T06:21:17.089Z</time>
      </trkpt>
      <trkpt lat="41.11166" lon="30.67772">
        <ele>3.892978</ele>
        <time>2021-08-22T06:21:39.153Z</time>
      </trkpt>
      <trkpt lat="41.11253" lon="30.67629">
        <ele>4.133001</ele>
        <time>2021-08-22T06:22:25.639Z</time>
      </trkpt>
      <trkpt lat="41.11304" lon="30.67577">
        <ele>4.233429</ele>
        <time>2021-08-22T06:22:47.410Z</time>
      </trkpt>
      <trkpt lat="41.1131" lon="30.67563">
        <ele>4.25035</ele>
        <time>2021-08-22T06:22:51.638Z</time>
      </trkpt>
      <trkpt lat="41.11345" lon="30.67482">
        <ele>4.345764</ele>
        <time>2021-08-22T06:23:15.289Z</time>
      </trkpt>
      <trkpt lat="41.11397" lon="30.67337">
        <ele>4.312031</ele>
        <time>2021-08-22T06:23:54.785Z</time>
      </trkpt>
      <trkpt lat="41.1143" lon="30.67249">
        <ele>4.140921</ele>
        <time>2021-08-22T06:24:17.451Z</time>
      </trkpt>
      <trkpt lat="41.1144" lon="30.67221">
        <ele>4.086035</ele>
        <time>2021-08-22T06:24:24.641Z</time>
      </trkpt>
      <trkpt lat="41.11462" lon="30.67159">
        <ele>3.995248</ele>
        <time>2021-08-22T06:24:40.571Z</time>
      </trkpt>
      <trkpt lat="41.11472" lon="30.67129">
        <ele>3.969335</ele>
        <time>2021-08-22T06:24:48.052Z</time>
      </trkpt>
      <trkpt lat="41.11481" lon="30.67103">
        <ele>3.945797</ele>
        <time>2021-08-22T06:24:54.840Z</time>
      </trkpt>
      <trkpt lat="41.11496" lon="30.67059">
        <ele>3.906706</ele>
        <time>2021-08-22T06:25:06.197Z</time>
      </trkpt>
      <trkpt lat="41.11507" lon="30.67037">
        <ele>3.886193</ele>
        <time>2021-08-22T06:25:12.267Z</time>
      </trkpt>
      <trkpt lat="41.11593" lon="30.66821">
        <ele>4.13438</ele>
        <time>2021-08-22T06:26:14.897Z</time>
      </trkpt>
      <trkpt lat="41.11627" lon="30.66752">
        <ele>4.245651</ele>
        <time>2021-08-22T06:26:35.915Z</time>
      </trkpt>
      <trkpt lat="41.1163" lon="30.66739">
        <ele>4.239427</ele>
        <time>2021-08-22T06:26:39.579Z</time>
      </trkpt>
      <trkpt lat="41.11635" lon="30.66721">
        <ele>4.23106</ele>
        <time>2021-08-22T06:26:44.293Z</time>
      </trkpt>
      <trkpt lat="41.11657" lon="30.66639">
        <ele>4.192218</ele>
        <time>2021-08-22T06:27:05.848Z</time>
      </trkpt>
      <trkpt lat="41.11667" lon="30.6661">
        <ele>4.177972</ele>
        <time>2021-08-22T06:27:13.552Z</time>
      </trkpt>
      <trkpt lat="41.11671" lon="30.66599">
        <ele>4.172379</ele>
        <time>2021-08-22T06:27:16.555Z</time>
      </trkpt>
      <trkpt lat="41.11708" lon="30.66575">
        <ele>4.148376</ele>
        <time>2021-08-22T06:27:28.869Z</time>
      </trkpt>
      <trkpt lat="41.11712" lon="30.66559">
        <ele>4.112699</ele>
        <time>2021-08-22T06:27:32.661Z</time>
      </trkpt>
      <trkpt lat="41.11695" lon="30.665">
        <ele>3.94139</ele>
        <time>2021-08-22T06:27:46.757Z</time>
      </trkpt>
      <trkpt lat="41.11707" lon="30.66446">
        <ele>3.786934</ele>
        <time>2021-08-22T06:27:59.562Z</time>
      </trkpt>
      <trkpt lat="41.11723" lon="30.66384">
        <ele>3.607771</ele>
        <time>2021-08-22T06:28:14.619Z</time>
      </trkpt>
      <trkpt lat="41.11741" lon="30.66293">
        <ele>3.503817</ele>
        <time>2021-08-22T06:28:37.259Z</time>
      </trkpt>
      <trkpt lat="41.11752" lon="30.66242">
        <ele>3.518124</ele>
        <time>2021-08-22T06:28:49.986Z</time>
      </trkpt>
      <trkpt lat="41.11761" lon="30.66192">
        <ele>3.53225</ele>
        <time>2021-08-22T06:29:02.978Z</time>
      </trkpt>
      <trkpt lat="41.11807" lon="30.6598">
        <ele>3.753706</ele>
        <time>2021-08-22T06:29:59.475Z</time>
      </trkpt>
      <trkpt lat="41.11909" lon="30.65705">
        <ele>4.120947</ele>
        <time>2021-08-22T06:31:15.746Z</time>
      </trkpt>
      <trkpt lat="41.11985" lon="30.6553">
        <ele>4.289428</ele>
        <time>2021-08-22T06:32:07.079Z</time>
      </trkpt>
      <trkpt lat="41.1201" lon="30.65458">
        <ele>4.319833</ele>
        <time>2021-08-22T06:32:26.352Z</time>
      </trkpt>
      <trkpt lat="41.12014" lon="30.65446">
        <ele>4.286725</ele>
        <time>2021-08-22T06:32:29.444Z</time>
      </trkpt>
      <trkpt lat="41.12016" lon="30.6544">
        <ele>4.271036</ele>
        <time>2021-08-22T06:32:30.951Z</time>
      </trkpt>
      <trkpt lat="41.11976" lon="30.654">
        <ele>4.104544</ele>
        <time>2021-08-22T06:32:45.923Z</time>
      </trkpt>
      <trkpt lat="41.11968" lon="30.65391">
        <ele>4.069203</ele>
        <time>2021-08-22T06:32:49.017Z</time>
      </trkpt>
      <trkpt lat="41.11872" lon="30.65287">
        <ele>3.671778</ele>
        <time>2021-08-22T06:33:24.833Z</time>
      </trkpt>
      <trkpt lat="41.1176" lon="30.65163">
        <ele>3.271739</ele>
        <time>2021-08-22T06:34:07.940Z</time>
      </trkpt>
      <trkpt lat="41.11757" lon="30.65157">
        <ele>3.257362</ele>
        <time>2021-08-22T06:34:09.628Z</time>
      </trkpt>
      <trkpt lat="41.11741" lon="30.65137">
        <ele>3.301717</ele>
        <time>2021-08-22T06:34:16.649Z</time>
      </trkpt>
      <trkpt lat="41.11728" lon="30.65106">
        <ele>3.369151</ele>
        <time>2021-08-22T06:34:25.623Z</time>
      </trkpt>
      <trkpt lat="41.11726" lon="30.65089">
        <ele>3.400909</ele>
        <time>2021-08-22T06:34:29.853Z</time>
      </trkpt>
      <trkpt lat="41.1173" lon="30.65059">
        <ele>3.457423</ele>
        <time>2021-08-22T06:34:37.705Z</time>
      </trkpt>
      <trkpt lat="41.11737" lon="30.65036">
        <ele>3.501702</ele>
        <time>2021-08-22T06:34:43.707Z</time>
      </trkpt>
      <trkpt lat="41.11753" lon="30.64993">
        <ele>3.59079</ele>
        <time>2021-08-22T06:34:55.731Z</time>
      </trkpt>
      <trkpt lat="41.11785" lon="30.64895">
        <ele>3.715845</ele>
        <time>2021-08-22T06:35:21.958Z</time>
      </trkpt>
      <trkpt lat="41.11792" lon="30.64872">
        <ele>3.725973</ele>
        <time>2021-08-22T06:35:28.138Z</time>
      </trkpt>
      <trkpt lat="41.11798" lon="30.6485">
        <ele>3.735544</ele>
        <time>2021-08-22T06:35:33.392Z</time>
      </trkpt>
      <trkpt lat="41.11817" lon="30.64779">
        <ele>3.766416</ele>
        <time>2021-08-22T06:35:51.332Z</time>
      </trkpt>
      <trkpt lat="41.11835" lon="30.64725">
        <ele>3.790834</ele>
        <time>2021-08-22T06:36:04.803Z</time>
      </trkpt>
      <trkpt lat="41.11842" lon="30.64702">
        <ele>3.781537</ele>
        <time>2021-08-22T06:36:10.617Z</time>
      </trkpt>
      <trkpt lat="41.11853" lon="30.64667">
        <ele>3.758868</ele>
        <time>2021-08-22T06:36:19.131Z</time>
      </trkpt>
      <trkpt lat="41.11891" lon="30.64548">
        <ele>3.681269</ele>
        <time>2021-08-22T06:36:49.292Z</time>
      </trkpt>
      <trkpt lat="41.11874" lon="30.64535">
        <ele>3.666148</ele>
        <time>2021-08-22T06:36:55.536Z</time>
      </trkpt>
      <trkpt lat="41.11842" lon="30.64502">
        <ele>3.623076</ele>
        <time>2021-08-22T06:37:08.655Z</time>
      </trkpt>
      <trkpt lat="41.11828" lon="30.64483">
        <ele>3.597624</ele>
        <time>2021-08-22T06:37:15.094Z</time>
      </trkpt>
      <trkpt lat="41.11846" lon="30.64445">
        <ele>3.553646</ele>
        <time>2021-08-22T06:37:25.519Z</time>
      </trkpt>
      <trkpt lat="41.11856" lon="30.6441">
        <ele>3.51739</ele>
        <time>2021-08-22T06:37:33.966Z</time>
      </trkpt>
      <trkpt lat="41.11865" lon="30.64338">
        <ele>3.446333</ele>
        <time>2021-08-22T06:37:50.700Z</time>
      </trkpt>
      <trkpt lat="41.11867" lon="30.64321">
        <ele>3.42995</ele>
        <time>2021-08-22T06:37:54.311Z</time>
      </trkpt>
      <trkpt lat="41.11863" lon="30.64277">
        <ele>3.402938</ele>
        <time>2021-08-22T06:38:04.368Z</time>
      </trkpt>
      <trkpt lat="41.11874" lon="30.6405">
        <ele>3.326011</ele>
        <time>2021-08-22T06:38:57.557Z</time>
      </trkpt>
      <trkpt lat="41.11868" lon="30.64011">
        <ele>3.359275</ele>
        <time>2021-08-22T06:39:07.476Z</time>
      </trkpt>
      <trkpt lat="41.11848" lon="30.6394">
        <ele>3.420786</ele>
        <time>2021-08-22T06:39:25.583Z</time>
      </trkpt>
      <trkpt lat="41.11848" lon="30.63932">
        <ele>3.427229</ele>
        <time>2021-08-22T06:39:27.629Z</time>
      </trkpt>
      <trkpt lat="41.11838" lon="30.63837">
        <ele>3.505659</ele>
        <time>2021-08-22T06:39:50.681Z</time>
      </trkpt>
      <trkpt lat="41.11823" lon="30.6377">
        <ele>3.545655</ele>
        <time>2021-08-22T06:40:06.954Z</time>
      </trkpt>
      <trkpt lat="41.11818" lon="30.63742">
        <ele>3.562179</ele>
        <time>2021-08-22T06:40:13.941Z</time>
      </trkpt>
      <trkpt lat="41.11817" lon="30.63737">
        <ele>3.565302</ele>
        <time>2021-08-22T06:40:15.200Z</time>
      </trkpt>
      <trkpt lat="41.11813" lon="30.63712">
        <ele>3.579857</ele>
        <time>2021-08-22T06:40:21.258Z</time>
      </trkpt>
      <trkpt lat="41.1181" lon="30.63652">
        <ele>3.614105</ele>
        <time>2021-08-22T06:40:35.447Z</time>
      </trkpt>
      <trkpt lat="41.11811" lon="30.63634">
        <ele>3.62462</ele>
        <time>2021-08-22T06:40:39.697Z</time>
      </trkpt>
      <trkpt lat="41.11812" lon="30.63598">
        <ele>3.64983</ele>
        <time>2021-08-22T06:40:48.391Z</time>
      </trkpt>
      <trkpt lat="41.11813" lon="30.63568">
        <ele>3.689588</ele>
        <time>2021-08-22T06:40:55.476Z</time>
      </trkpt>
      <trkpt lat="41.11814" lon="30.63531">
        <ele>3.739892</ele>
        <time>2021-08-22T06:41:04.362Z</time>
      </trkpt>
      <trkpt lat="41.11808" lon="30.63499">
        <ele>3.784981</ele>
        <time>2021-08-22T06:41:12.314Z</time>
      </trkpt>
      <trkpt lat="41.11798" lon="30.63439">
        <ele>3.868123</ele>
        <time>2021-08-22T06:41:27.221Z</time>
      </trkpt>
      <trkpt lat="41.11796" lon="30.63361">
        <ele>3.975206</ele>
        <time>2021-08-22T06:41:46.524Z</time>
      </trkpt>
      <trkpt lat="41.11808" lon="30.63243">
        <ele>4.182316</ele>
        <time>2021-08-22T06:42:15.783Z</time>
      </trkpt>
      <trkpt lat="41.11826" lon="30.63065">
        <ele>4.405941</ele>
        <time>2021-08-22T06:42:59.633Z</time>
      </trkpt>
      <trkpt lat="41.11829" lon="30.62968">
        <ele>4.444693</ele>
        <time>2021-08-22T06:43:22.917Z</time>
      </trkpt>
      <trkpt lat="41.1182" lon="30.62654">
        <ele>4.317319</ele>
        <time>2021-08-22T06:44:35.747Z</time>
      </trkpt>
      <trkpt lat="41.11819" lon="30.62492">
        <ele>3.962656</ele>
        <time>2021-08-22T06:45:11.715Z</time>
      </trkpt>
      <trkpt lat="41.11815" lon="30.62417">
        <ele>3.798014</ele>
        <time>2021-08-22T06:45:28.571Z</time>
      </trkpt>
      <trkpt lat="41.11809" lon="30.62296">
        <ele>3.716994</ele>
        <time>2021-08-22T06:45:56.361Z</time>
      </trkpt>
      <trkpt lat="41.11809" lon="30.62276">
        <ele>3.703828</ele>
        <time>2021-08-22T06:46:01.107Z</time>
      </trkpt>
      <trkpt lat="41.11805" lon="30.62198">
        <ele>3.652725</ele>
        <time>2021-08-22T06:46:19.410Z</time>
      </trkpt>
      <trkpt lat="41.11805" lon="30.62106">
        <ele>3.654217</ele>
        <time>2021-08-22T06:46:41.331Z</time>
      </trkpt>
      <trkpt lat="41.11826" lon="30.61936">
        <ele>3.688188</ele>
        <time>2021-08-22T06:47:22.167Z</time>
      </trkpt>
      <trkpt lat="41.11857" lon="30.61685">
        <ele>3.651173</ele>
        <time>2021-08-22T06:48:21.410Z</time>
      </trkpt>
      <trkpt lat="41.11868" lon="30.61598">
        <ele>3.702052</ele>
        <time>2021-08-22T06:48:42.594Z</time>
      </trkpt>
      <trkpt lat="41.11866" lon="30.61492">
        <ele>3.762871</ele>
        <time>2021-08-22T06:49:07.919Z</time>
      </trkpt>
      <trkpt lat="41.11859" lon="30.61405">
        <ele>3.724868</ele>
        <time>2021-08-22T06:49:28.692Z</time>
      </trkpt>
      <trkpt lat="41.11849" lon="30.6128">
        <ele>3.622068</ele>
        <time>2021-08-22T06:49:57.433Z</time>
      </trkpt>
      <trkpt lat="41.11875" lon="30.61095">
        <ele>3.310144</ele>
        <time>2021-08-22T06:50:40.088Z</time>
      </trkpt>
      <trkpt lat="41.11877" lon="30.6108">
        <ele>3.280699</ele>
        <time>2021-08-22T06:50:43.383Z</time>
      </trkpt>
      <trkpt lat="41.11866" lon="30.61061">
        <ele>3.234537</ele>
        <time>2021-08-22T06:50:48.784Z</time>
      </trkpt>
      <trkpt lat="41.11848" lon="30.61025">
        <ele>3.152146</ele>
        <time>2021-08-22T06:50:58.291Z</time>
      </trkpt>
      <trkpt lat="41.11798" lon="30.60962">
        <ele>3.089012</ele>
        <time>2021-08-22T06:51:19.392Z</time>
      </trkpt>
      <trkpt lat="41.11773" lon="30.60936">
        <ele>3.073684</ele>
        <time>2021-08-22T06:51:28.889Z</time>
      </trkpt>
      <trkpt lat="41.11773" lon="30.60894">
        <ele>3.058019</ele>
        <time>2021-08-22T06:51:38.835Z</time>
      </trkpt>
      <trkpt lat="41.11761" lon="30.60838">
        <ele>3.036269</ele>
        <time>2021-08-22T06:51:52.687Z</time>
      </trkpt>
      <trkpt lat="41.11747" lon="30.60826">
        <ele>3.027989</ele>
        <time>2021-08-22T06:51:57.973Z</time>
      </trkpt>
      <trkpt lat="41.11736" lon="30.60805">
        <ele>3.052102</ele>
        <time>2021-08-22T06:52:04.049Z</time>
      </trkpt>
      <trkpt lat="41.11725" lon="30.60751">
        <ele>3.105416</ele>
        <time>2021-08-22T06:52:17.303Z</time>
      </trkpt>
      <trkpt lat="41.1173" lon="30.60727">
        <ele>3.129469</ele>
        <time>2021-08-22T06:52:23.390Z</time>
      </trkpt>
      <trkpt lat="41.1174" lon="30.60709">
        <ele>3.151608</ele>
        <time>2021-08-22T06:52:28.964Z</time>
      </trkpt>
      <trkpt lat="41.11774" lon="30.60683">
        <ele>3.201862</ele>
        <time>2021-08-22T06:52:41.616Z</time>
      </trkpt>
      <trkpt lat="41.11786" lon="30.60652">
        <ele>3.235032</ele>
        <time>2021-08-22T06:52:49.970Z</time>
      </trkpt>
      <trkpt lat="41.11793" lon="30.60616">
        <ele>3.265673</ele>
        <time>2021-08-22T06:52:59.110Z</time>
      </trkpt>
      <trkpt lat="41.11794" lon="30.60569">
        <ele>3.292099</ele>
        <time>2021-08-22T06:53:10.418Z</time>
      </trkpt>
      <trkpt lat="41.11811" lon="30.6044">
        <ele>3.365385</ele>
        <time>2021-08-22T06:53:41.251Z</time>
      </trkpt>
      <trkpt lat="41.11806" lon="30.60356">
        <ele>3.380686</ele>
        <time>2021-08-22T06:54:01.053Z</time>
      </trkpt>
      <trkpt lat="41.11824" lon="30.60278">
        <ele>3.357227</ele>
        <time>2021-08-22T06:54:20.099Z</time>
      </trkpt>
      <trkpt lat="41.1182" lon="30.60169">
        <ele>3.325724</ele>
        <time>2021-08-22T06:54:45.399Z</time>
      </trkpt>
      <trkpt lat="41.11823" lon="30.60071">
        <ele>3.346597</ele>
        <time>2021-08-22T06:55:08.438Z</time>
      </trkpt>
      <trkpt lat="41.11829" lon="30.60009">
        <ele>3.363777</ele>
        <time>2021-08-22T06:55:23.077Z</time>
      </trkpt>
      <trkpt lat="41.11816" lon="30.59887">
        <ele>3.447601</ele>
        <time>2021-08-22T06:55:52.446Z</time>
      </trkpt>
      <trkpt lat="41.11825" lon="30.59717">
        <ele>3.744748</ele>
        <time>2021-08-22T06:56:34.560Z</time>
      </trkpt>
      <trkpt lat="41.11834" lon="30.59668">
        <ele>3.83055</ele>
        <time>2021-08-22T06:56:47.204Z</time>
      </trkpt>
      <trkpt lat="41.11856" lon="30.59631">
        <ele>3.905145</ele>
        <time>2021-08-22T06:56:58.849Z</time>
      </trkpt>
      <trkpt lat="41.11881" lon="30.59512">
        <ele>4.101061</ele>
        <time>2021-08-22T06:57:29.120Z</time>
      </trkpt>
      <trkpt lat="41.11884" lon="30.59484">
        <ele>4.146363</ele>
        <time>2021-08-22T06:57:36.026Z</time>
      </trkpt>
      <trkpt lat="41.1188" lon="30.59288">
        <ele>4.147829</ele>
        <time>2021-08-22T06:58:21.847Z</time>
      </trkpt>
      <trkpt lat="41.11898" lon="30.59239">
        <ele>4.136059</ele>
        <time>2021-08-22T06:58:34.434Z</time>
      </trkpt>
      <trkpt lat="41.119" lon="30.59206">
        <ele>4.151506</ele>
        <time>2021-08-22T06:58:42.169Z</time>
      </trkpt>
      <trkpt lat="41.11881" lon="30.59081">
        <ele>4.259574</ele>
        <time>2021-08-22T06:59:12.097Z</time>
      </trkpt>
      <trkpt lat="41.11886" lon="30.58999">
        <ele>4.329835</ele>
        <time>2021-08-22T06:59:32.274Z</time>
      </trkpt>
      <trkpt lat="41.11905" lon="30.58894">
        <ele>4.674071</ele>
        <time>2021-08-22T06:59:59.596Z</time>
      </trkpt>
      <trkpt lat="41.11905" lon="30.58829">
        <ele>4.892758</ele>
        <time>2021-08-22T07:00:16.384Z</time>
      </trkpt>
      <trkpt lat="41.11916" lon="30.58743">
        <ele>5.172603</ele>
        <time>2021-08-22T07:00:38.815Z</time>
      </trkpt>
      <trkpt lat="41.11913" lon="30.58713">
        <ele>5.241694</ele>
        <time>2021-08-22T07:00:46.371Z</time>
      </trkpt>
      <trkpt lat="41.11924" lon="30.58647">
        <ele>5.399412</ele>
        <time>2021-08-22T07:01:03.514Z</time>
      </trkpt>
      <trkpt lat="41.11923" lon="30.58321">
        <ele>5.916736</ele>
        <time>2021-08-22T07:02:22.525Z</time>
      </trkpt>
      <trkpt lat="41.11935" lon="30.58277">
        <ele>5.954684</ele>
        <time>2021-08-22T07:02:33.676Z</time>
      </trkpt>
      <trkpt lat="41.11917" lon="30.58135">
        <ele>5.813439</ele>
        <time>2021-08-22T07:03:07.088Z</time>
      </trkpt>
      <trkpt lat="41.11953" lon="30.57934">
        <ele>5.504621</ele>
        <time>2021-08-22T07:03:53.630Z</time>
      </trkpt>
      <trkpt lat="41.1199" lon="30.57667">
        <ele>5.035752</ele>
        <time>2021-08-22T07:04:55.085Z</time>
      </trkpt>
      <trkpt lat="41.11983" lon="30.57576">
        <ele>4.890412</ele>
        <time>2021-08-22T07:05:15.888Z</time>
      </trkpt>
      <trkpt lat="41.12" lon="30.57511">
        <ele>4.796995</ele>
        <time>2021-08-22T07:05:31.589Z</time>
      </trkpt>
      <trkpt lat="41.11999" lon="30.57445">
        <ele>4.706969</ele>
        <time>2021-08-22T07:05:46.744Z</time>
      </trkpt>
      <trkpt lat="41.12002" lon="30.57434">
        <ele>4.69213</ele>
        <time>2021-08-22T07:05:49.165Z</time>
      </trkpt>
      <trkpt lat="41.12014" lon="30.57352">
        <ele>4.57829</ele>
        <time>2021-08-22T07:06:08.342Z</time>
      </trkpt>
      <trkpt lat="41.12018" lon="30.57247">
        <ele>4.518944</ele>
        <time>2021-08-22T07:06:32.315Z</time>
      </trkpt>
      <trkpt lat="41.12028" lon="30.57196">
        <ele>4.49077</ele>
        <time>2021-08-22T07:06:44.587Z</time>
      </trkpt>
      <trkpt lat="41.12021" lon="30.57159">
        <ele>4.470589</ele>
        <time>2021-08-22T07:06:53.474Z</time>
      </trkpt>
      <trkpt lat="41.12021" lon="30.57107">
        <ele>4.453158</ele>
        <time>2021-08-22T07:07:05.829Z</time>
      </trkpt>
      <trkpt lat="41.12031" lon="30.5705">
        <ele>4.532548</ele>
        <time>2021-08-22T07:07:19.963Z</time>
      </trkpt>
      <trkpt lat="41.12039" lon="30.56863">
        <ele>4.781268</ele>
        <time>2021-08-22T07:08:05.678Z</time>
      </trkpt>
      <trkpt lat="41.12053" lon="30.56786">
        <ele>4.852936</ele>
        <time>2021-08-22T07:08:24.907Z</time>
      </trkpt>
      <trkpt lat="41.12051" lon="30.56779">
        <ele>4.859987</ele>
        <time>2021-08-22T07:08:26.618Z</time>
      </trkpt>
      <trkpt lat="41.12059" lon="30.5673">
        <ele>4.90566</ele>
        <time>2021-08-22T07:08:38.682Z</time>
      </trkpt>
      <trkpt lat="41.12064" lon="30.56657">
        <ele>4.971633</ele>
        <time>2021-08-22T07:08:56.099Z</time>
      </trkpt>
      <trkpt lat="41.1206" lon="30.56597">
        <ele>5.062774</ele>
        <time>2021-08-22T07:09:10.408Z</time>
      </trkpt>
      <trkpt lat="41.12063" lon="30.56515">
        <ele>5.207521</ele>
        <time>2021-08-22T07:09:30.342Z</time>
      </trkpt>
      <trkpt lat="41.12059" lon="30.56429">
        <ele>5.357308</ele>
        <time>2021-08-22T07:09:51.903Z</time>
      </trkpt>
      <trkpt lat="41.12054" lon="30.564">
        <ele>5.410487</ele>
        <time>2021-08-22T07:09:59.694Z</time>
      </trkpt>
      <trkpt lat="41.12046" lon="30.5637">
        <ele>5.46747</ele>
        <time>2021-08-22T07:10:07.519Z</time>
      </trkpt>
      <trkpt lat="41.12053" lon="30.56364">
        <ele>5.487069</ele>
        <time>2021-08-22T07:10:10.559Z</time>
      </trkpt>
      <trkpt lat="41.12086" lon="30.5631">
        <ele>5.612183</ele>
        <time>2021-08-22T07:10:28.066Z</time>
      </trkpt>
      <trkpt lat="41.1209" lon="30.56267">
        <ele>5.690389</ele>
        <time>2021-08-22T07:10:39.036Z</time>
      </trkpt>
      <trkpt lat="41.12089" lon="30.56245">
        <ele>5.73035</ele>
        <time>2021-08-22T07:10:44.695Z</time>
      </trkpt>
      <trkpt lat="41.12087" lon="30.56228">
        <ele>5.760371</ele>
        <time>2021-08-22T07:10:48.865Z</time>
      </trkpt>
      <trkpt lat="41.12093" lon="30.56173">
        <ele>5.822592</ele>
        <time>2021-08-22T07:11:03.074Z</time>
      </trkpt>
      <trkpt lat="41.12094" lon="30.5614">
        <ele>5.797964</ele>
        <time>2021-08-22T07:11:11.227Z</time>
      </trkpt>
      <trkpt lat="41.12095" lon="30.561">
        <ele>5.7682</ele>
        <time>2021-08-22T07:11:21.081Z</time>
      </trkpt>
      <trkpt lat="41.12095" lon="30.56074">
        <ele>5.748948</ele>
        <time>2021-08-22T07:11:27.260Z</time>
      </trkpt>
      <trkpt lat="41.12087" lon="30.56054">
        <ele>5.732251</ele>
        <time>2021-08-22T07:11:32.716Z</time>
      </trkpt>
      <trkpt lat="41.12089" lon="30.5601">
        <ele>5.699527</ele>
        <time>2021-08-22T07:11:42.607Z</time>
      </trkpt>
      <trkpt lat="41.1209" lon="30.56005">
        <ele>5.695428</ele>
        <time>2021-08-22T07:11:43.870Z</time>
      </trkpt>
      <trkpt lat="41.12089" lon="30.55943">
        <ele>5.652876</ele>
        <time>2021-08-22T07:11:57.881Z</time>
      </trkpt>
      <trkpt lat="41.12091" lon="30.55766">
        <ele>5.587081</ele>
        <time>2021-08-22T07:12:38.856Z</time>
      </trkpt>
      <trkpt lat="41.12091" lon="30.55754">
        <ele>5.582772</ele>
        <time>2021-08-22T07:12:41.466Z</time>
      </trkpt>
      <trkpt lat="41.12087" lon="30.55652">
        <ele>5.670081</ele>
        <time>2021-08-22T07:13:06.353Z</time>
      </trkpt>
      <trkpt lat="41.121" lon="30.55616">
        <ele>5.736179</ele>
        <time>2021-08-22T07:13:16.145Z</time>
      </trkpt>
      <trkpt lat="41.1213" lon="30.55533">
        <ele>5.887319</ele>
        <time>2021-08-22T07:13:39.006Z</time>
      </trkpt>
      <trkpt lat="41.12149" lon="30.55414">
        <ele>5.928641</ele>
        <time>2021-08-22T07:14:08.830Z</time>
      </trkpt>
      <trkpt lat="41.12149" lon="30.55343">
        <ele>5.898914</ele>
        <time>2021-08-22T07:14:25.440Z</time>
      </trkpt>
      <trkpt lat="41.12139" lon="30.55308">
        <ele>5.883491</ele>
        <time>2021-08-22T07:14:33.555Z</time>
      </trkpt>
      <trkpt lat="41.12153" lon="30.55252">
        <ele>5.852233</ele>
        <time>2021-08-22T07:14:46.844Z</time>
      </trkpt>
      <trkpt lat="41.12165" lon="30.55173">
        <ele>5.730566</ele>
        <time>2021-08-22T07:15:05.252Z</time>
      </trkpt>
      <trkpt lat="41.12187" lon="30.55107">
        <ele>5.6224</ele>
        <time>2021-08-22T07:15:21.947Z</time>
      </trkpt>
      <trkpt lat="41.12223" lon="30.55022">
        <ele>5.595555</ele>
        <time>2021-08-22T07:15:45.938Z</time>
      </trkpt>
      <trkpt lat="41.12234" lon="30.54966">
        <ele>5.913627</ele>
        <time>2021-08-22T07:16:00.927Z</time>
      </trkpt>
      <trkpt lat="41.12239" lon="30.54898">
        <ele>6.294625</ele>
        <time>2021-08-22T07:16:20.799Z</time>
      </trkpt>
      <trkpt lat="41.12253" lon="30.54821">
        <ele>6.730042</ele>
        <time>2021-08-22T07:16:43.592Z</time>
      </trkpt>
      <trkpt lat="41.12264" lon="30.54786">
        <ele>6.910904</ele>
        <time>2021-08-22T07:16:54.342Z</time>
      </trkpt>
      <trkpt lat="41.12277" lon="30.54763">
        <ele>7.029</ele>
        <time>2021-08-22T07:17:02.638Z</time>
      </trkpt>
      <trkpt lat="41.12299" lon="30.54741">
        <ele>7.188111</ele>
        <time>2021-08-22T07:17:13.094Z</time>
      </trkpt>
      <trkpt lat="41.12331" lon="30.54719">
        <ele>7.385419</ele>
        <time>2021-08-22T07:17:25.680Z</time>
      </trkpt>
      <trkpt lat="41.12349" lon="30.54692">
        <ele>7.540599</ele>
        <time>2021-08-22T07:17:35.352Z</time>
      </trkpt>
      <trkpt lat="41.12367" lon="30.54655">
        <ele>7.723285</ele>
        <time>2021-08-22T07:17:46.099Z</time>
      </trkpt>
      <trkpt lat="41.12387" lon="30.54611">
        <ele>7.776061</ele>
        <time>2021-08-22T07:17:58.466Z</time>
      </trkpt>
      <trkpt lat="41.12402" lon="30.54552">
        <ele>7.675062</ele>
        <time>2021-08-22T07:18:12.321Z</time>
      </trkpt>
      <trkpt lat="41.12435" lon="30.54424">
        <ele>7.452964</ele>
        <time>2021-08-22T07:18:42.373Z</time>
      </trkpt>
      <trkpt lat="41.12437" lon="30.54418">
        <ele>7.443257</ele>
        <time>2021-08-22T07:18:43.792Z</time>
      </trkpt>
      <trkpt lat="41.12453" lon="30.5435">
        <ele>7.401911</ele>
        <time>2021-08-22T07:19:00.060Z</time>
      </trkpt>
      <trkpt lat="41.12453" lon="30.54303">
        <ele>7.379894</ele>
        <time>2021-08-22T07:19:11.016Z</time>
      </trkpt>
      <trkpt lat="41.12436" lon="30.54162">
        <ele>7.330356</ele>
        <time>2021-08-22T07:19:44.612Z</time>
      </trkpt>
      <trkpt lat="41.12423" lon="30.54054">
        <ele>7.397133</ele>
        <time>2021-08-22T07:20:11.010Z</time>
      </trkpt>
      <trkpt lat="41.12422" lon="30.5404">
        <ele>7.405431</ele>
        <time>2021-08-22T07:20:14.342Z</time>
      </trkpt>
      <trkpt lat="41.12419" lon="30.54021">
        <ele>7.417277</ele>
        <time>2021-08-22T07:20:19.036Z</time>
      </trkpt>
      <trkpt lat="41.1241" lon="30.53941">
        <ele>7.46628</ele>
        <time>2021-08-22T07:20:38.388Z</time>
      </trkpt>
      <trkpt lat="41.12396" lon="30.53842">
        <ele>7.390217</ele>
        <time>2021-08-22T07:21:02.319Z</time>
      </trkpt>
      <trkpt lat="41.12392" lon="30.53809">
        <ele>7.364385</ele>
        <time>2021-08-22T07:21:10.219Z</time>
      </trkpt>
      <trkpt lat="41.12391" lon="30.538">
        <ele>7.358104</ele>
        <time>2021-08-22T07:21:11.983Z</time>
      </trkpt>
      <trkpt lat="41.12391" lon="30.53768">
        <ele>7.33374</ele>
        <time>2021-08-22T07:21:19.515Z</time>
      </trkpt>
      <trkpt lat="41.1239" lon="30.5374">
        <ele>7.312249</ele>
        <time>2021-08-22T07:21:25.788Z</time>
      </trkpt>
      <trkpt lat="41.12396" lon="30.53673">
        <ele>7.212623</ele>
        <time>2021-08-22T07:21:40.714Z</time>
      </trkpt>
      <trkpt lat="41.12407" lon="30.53626">
        <ele>7.10006</ele>
        <time>2021-08-22T07:21:51.558Z</time>
      </trkpt>
      <trkpt lat="41.12411" lon="30.53617">
        <ele>7.075667</ele>
        <time>2021-08-22T07:21:53.757Z</time>
      </trkpt>
      <trkpt lat="41.12508" lon="30.53365">
        <ele>6.447659</ele>
        <time>2021-08-22T07:22:57.931Z</time>
      </trkpt>
      <trkpt lat="41.12561" lon="30.53227">
        <ele>6.109525</ele>
        <time>2021-08-22T07:23:32.006Z</time>
      </trkpt>
      <trkpt lat="41.12589" lon="30.53143">
        <ele>5.90129</ele>
        <time>2021-08-22T07:23:52.033Z</time>
      </trkpt>
      <trkpt lat="41.12598" lon="30.53092">
        <ele>5.780498</ele>
        <time>2021-08-22T07:24:03.894Z</time>
      </trkpt>
      <trkpt lat="41.12598" lon="30.53056">
        <ele>5.698759</ele>
        <time>2021-08-22T07:24:11.940Z</time>
      </trkpt>
      <trkpt lat="41.12598" lon="30.52889">
        <ele>6.034269</ele>
        <time>2021-08-22T07:24:51.745Z</time>
      </trkpt>
      <trkpt lat="41.12604" lon="30.52839">
        <ele>6.145956</ele>
        <time>2021-08-22T07:25:05.224Z</time>
      </trkpt>
      <trkpt lat="41.12625" lon="30.52778">
        <ele>6.551434</ele>
        <time>2021-08-22T07:25:23.431Z</time>
      </trkpt>
      <trkpt lat="41.12653" lon="30.52695">
        <ele>7.334613</ele>
        <time>2021-08-22T07:25:48.864Z</time>
      </trkpt>
      <trkpt lat="41.12673" lon="30.52611">
        <ele>8.094592</ele>
        <time>2021-08-22T07:26:14.546Z</time>
      </trkpt>
      <trkpt lat="41.12682" lon="30.52541">
        <ele>8.770499</ele>
        <time>2021-08-22T07:26:36.052Z</time>
      </trkpt>
      <trkpt lat="41.12695" lon="30.52222">
        <ele>11.153689</ele>
        <time>2021-08-22T07:28:07.276Z</time>
      </trkpt>
      <trkpt lat="41.12694" lon="30.52144">
        <ele>11.478771</ele>
        <time>2021-08-22T07:28:26.070Z</time>
      </trkpt>
      <trkpt lat="41.12691" lon="30.51768">
        <ele>10.208609</ele>
        <time>2021-08-22T07:29:46.680Z</time>
      </trkpt>
      <trkpt lat="41.12697" lon="30.51553">
        <ele>9.475848</ele>
        <time>2021-08-22T07:30:33.203Z</time>
      </trkpt>
      <trkpt lat="41.128" lon="30.51096">
        <ele>8.838631</ele>
        <time>2021-08-22T07:32:22.721Z</time>
      </trkpt>
      <trkpt lat="41.1282" lon="30.50865">
        <ele>8.925531</ele>
        <time>2021-08-22T07:33:17.010Z</time>
      </trkpt>
      <trkpt lat="41.12881" lon="30.4975">
        <ele>11.605257</ele>
        <time>2021-08-22T07:37:55.966Z</time>
      </trkpt>
      <trkpt lat="41.129" lon="30.49607">
        <ele>12.031113</ele>
        <time>2021-08-22T07:38:32.472Z</time>
      </trkpt>
      <trkpt lat="41.12996" lon="30.49197">
        <ele>13.406147</ele>
        <time>2021-08-22T07:40:20.812Z</time>
      </trkpt>
      <trkpt lat="41.13017" lon="30.48992">
        <ele>14.026425</ele>
        <time>2021-08-22T07:41:13.528Z</time>
      </trkpt>
      <trkpt lat="41.13011" lon="30.48889">
        <ele>14.267314</ele>
        <time>2021-08-22T07:41:39.586Z</time>
      </trkpt>
      <trkpt lat="41.13005" lon="30.48768">
        <ele>14.291617</ele>
        <time>2021-08-22T07:42:08.735Z</time>
      </trkpt>
      <trkpt lat="41.13022" lon="30.48684">
        <ele>14.067476</ele>
        <time>2021-08-22T07:42:28.444Z</time>
      </trkpt>
      <trkpt lat="41.1306" lon="30.48551">
        <ele>13.542453</ele>
        <time>2021-08-22T07:42:58.211Z</time>
      </trkpt>
      <trkpt lat="41.13116" lon="30.48352">
        <ele>12.328009</ele>
        <time>2021-08-22T07:43:41.670Z</time>
      </trkpt>
      <trkpt lat="41.13148" lon="30.48236">
        <ele>12.634283</ele>
        <time>2021-08-22T07:44:10.571Z</time>
      </trkpt>
      <trkpt lat="41.13175" lon="30.48144">
        <ele>12.878954</ele>
        <time>2021-08-22T07:44:37.756Z</time>
      </trkpt>
      <trkpt lat="41.13207" lon="30.48043">
        <ele>14.357333</ele>
        <time>2021-08-22T07:45:11.387Z</time>
      </trkpt>
      <trkpt lat="41.13271" lon="30.47842">
        <ele>17.339557</ele>
        <time>2021-08-22T07:46:21.694Z</time>
      </trkpt>
      <trkpt lat="41.13319" lon="30.4769">
        <ele>19.475539</ele>
        <time>2021-08-22T07:47:12.966Z</time>
      </trkpt>
      <trkpt lat="41.13322" lon="30.47679">
        <ele>19.52779</ele>
        <time>2021-08-22T07:47:16.745Z</time>
      </trkpt>
      <trkpt lat="41.13344" lon="30.47586">
        <ele>19.967127</ele>
        <time>2021-08-22T07:47:43.401Z</time>
      </trkpt>
      <trkpt lat="41.13403" lon="30.47284">
        <ele>20.281079</ele>
        <time>2021-08-22T07:48:55.295Z</time>
      </trkpt>
      <trkpt lat="41.13404" lon="30.47276">
        <ele>20.272587</ele>
        <time>2021-08-22T07:48:57.087Z</time>
      </trkpt>
      <trkpt lat="41.13429" lon="30.47149">
        <ele>20.114469</ele>
        <time>2021-08-22T07:49:26.789Z</time>
      </trkpt>
      <trkpt lat="41.13455" lon="30.47098">
        <ele>20.035918</ele>
        <time>2021-08-22T07:49:41.091Z</time>
      </trkpt>
      <trkpt lat="41.13494" lon="30.47041">
        <ele>19.938929</ele>
        <time>2021-08-22T07:49:58.787Z</time>
      </trkpt>
      <trkpt lat="41.13515" lon="30.47001">
        <ele>19.829655</ele>
        <time>2021-08-22T07:50:09.631Z</time>
      </trkpt>
      <trkpt lat="41.13539" lon="30.46885">
        <ele>19.5486</ele>
        <time>2021-08-22T07:50:36.350Z</time>
      </trkpt>
      <trkpt lat="41.136" lon="30.46461">
        <ele>18.580966</ele>
        <time>2021-08-22T07:52:11.847Z</time>
      </trkpt>
      <trkpt lat="41.13643" lon="30.46293">
        <ele>18.603293</ele>
        <time>2021-08-22T07:52:54.854Z</time>
      </trkpt>
      <trkpt lat="41.13877" lon="30.45494">
        <ele>19.807901</ele>
        <time>2021-08-22T07:56:24.760Z</time>
      </trkpt>
      <trkpt lat="41.13879" lon="30.45489">
        <ele>19.809382</ele>
        <time>2021-08-22T07:56:25.809Z</time>
      </trkpt>
      <trkpt lat="41.13939" lon="30.45301">
        <ele>19.135274</ele>
        <time>2021-08-22T07:57:09.903Z</time>
      </trkpt>
      <trkpt lat="41.13994" lon="30.45131">
        <ele>18.444878</ele>
        <time>2021-08-22T07:57:49.258Z</time>
      </trkpt>
      <trkpt lat="41.14066" lon="30.44951">
        <ele>17.901535</ele>
        <time>2021-08-22T07:58:34.422Z</time>
      </trkpt>
      <trkpt lat="41.14209" lon="30.44695">
        <ele>17.619725</ele>
        <time>2021-08-22T07:59:48.758Z</time>
      </trkpt>
      <trkpt lat="41.14252" lon="30.44608">
        <ele>17.510124</ele>
        <time>2021-08-22T08:00:12.996Z</time>
      </trkpt>
      <trkpt lat="41.14281" lon="30.44532">
        <ele>17.284993</ele>
        <time>2021-08-22T08:00:32.284Z</time>
      </trkpt>
      <trkpt lat="41.14338" lon="30.44381">
        <ele>16.721822</ele>
        <time>2021-08-22T08:01:08.566Z</time>
      </trkpt>
      <trkpt lat="41.14447" lon="30.44157">
        <ele>15.453093</ele>
        <time>2021-08-22T08:02:04.326Z</time>
      </trkpt>
      <trkpt lat="41.1451" lon="30.44011">
        <ele>15.00168</ele>
        <time>2021-08-22T08:02:42.665Z</time>
      </trkpt>
      <trkpt lat="41.14572" lon="30.43841">
        <ele>15.199115</ele>
        <time>2021-08-22T08:03:28.633Z</time>
      </trkpt>
      <trkpt lat="41.14583" lon="30.43811">
        <ele>15.233435</ele>
        <time>2021-08-22T08:03:36.964Z</time>
      </trkpt>
      <trkpt lat="41.14609" lon="30.43743">
        <ele>15.008599</ele>
        <time>2021-08-22T08:03:55.329Z</time>
      </trkpt>
      <trkpt lat="41.14665" lon="30.43599">
        <ele>14.336899</ele>
        <time>2021-08-22T08:04:29.815Z</time>
      </trkpt>
      <trkpt lat="41.14674" lon="30.43575">
        <ele>14.200507</ele>
        <time>2021-08-22T08:04:34.941Z</time>
      </trkpt>
      <trkpt lat="41.14725" lon="30.43394">
        <ele>12.899862</ele>
        <time>2021-08-22T08:05:13.081Z</time>
      </trkpt>
      <trkpt lat="41.14816" lon="30.43123">
        <ele>13.730716</ele>
        <time>2021-08-22T08:06:26.592Z</time>
      </trkpt>
      <trkpt lat="41.14854" lon="30.43047">
        <ele>15.367353</ele>
        <time>2021-08-22T08:06:57.370Z</time>
      </trkpt>
      <trkpt lat="41.14871" lon="30.42991">
        <ele>16.439423</ele>
        <time>2021-08-22T08:07:18.541Z</time>
      </trkpt>
      <trkpt lat="41.14881" lon="30.42904">
        <ele>18.118414</ele>
        <time>2021-08-22T08:07:51.258Z</time>
      </trkpt>
      <trkpt lat="41.14884" lon="30.42861">
        <ele>19.143999</ele>
        <time>2021-08-22T08:08:07.652Z</time>
      </trkpt>
      <trkpt lat="41.14882" lon="30.42811">
        <ele>20.310125</ele>
        <time>2021-08-22T08:08:25.946Z</time>
      </trkpt>
      <trkpt lat="41.14883" lon="30.42775">
        <ele>21.149888</ele>
        <time>2021-08-22T08:08:39.239Z</time>
      </trkpt>
      <trkpt lat="41.14909" lon="30.42604">
        <ele>25.344928</ele>
        <time>2021-08-22T08:09:41.706Z</time>
      </trkpt>
      <trkpt lat="41.14915" lon="30.42552">
        <ele>26.652596</ele>
        <time>2021-08-22T08:10:00.889Z</time>
      </trkpt>
      <trkpt lat="41.14913" lon="30.42398">
        <ele>30.520442</ele>
        <time>2021-08-22T08:11:01.104Z</time>
      </trkpt>
      <trkpt lat="41.149" lon="30.42303">
        <ele>33.047999</ele>
        <time>2021-08-22T08:11:40.092Z</time>
      </trkpt>
      <trkpt lat="41.14897" lon="30.42255">
        <ele>34.310423</ele>
        <time>2021-08-22T08:11:58.401Z</time>
      </trkpt>
      <trkpt lat="41.14895" lon="30.42227">
        <ele>35.063466</ele>
        <time>2021-08-22T08:12:08.942Z</time>
      </trkpt>
      <trkpt lat="41.14893" lon="30.42117">
        <ele>35.682459</ele>
        <time>2021-08-22T08:12:44.187Z</time>
      </trkpt>
      <trkpt lat="41.1489" lon="30.42105">
        <ele>35.723597</ele>
        <time>2021-08-22T08:12:48.231Z</time>
      </trkpt>
      <trkpt lat="41.14882" lon="30.42073">
        <ele>35.838265</ele>
        <time>2021-08-22T08:12:56.051Z</time>
      </trkpt>
      <trkpt lat="41.14857" lon="30.41999">
        <ele>36.114948</ele>
        <time>2021-08-22T08:13:12.340Z</time>
      </trkpt>
      <trkpt lat="41.14847" lon="30.41954">
        <ele>35.504752</ele>
        <time>2021-08-22T08:13:20.946Z</time>
      </trkpt>
      <trkpt lat="41.14845" lon="30.41945">
        <ele>35.313353</ele>
        <time>2021-08-22T08:13:22.683Z</time>
      </trkpt>
      <trkpt lat="41.14841" lon="30.41927">
        <ele>34.956361</ele>
        <time>2021-08-22T08:13:26.187Z</time>
      </trkpt>
      <trkpt lat="41.14829" lon="30.41874">
        <ele>33.893899</ele>
        <time>2021-08-22T08:13:35.724Z</time>
      </trkpt>
      <trkpt lat="41.14803" lon="30.41699">
        <ele>31.154668</ele>
        <time>2021-08-22T08:14:07.079Z</time>
      </trkpt>
      <trkpt lat="41.14804" lon="30.41632">
        <ele>30.684077</ele>
        <time>2021-08-22T08:14:20.420Z</time>
      </trkpt>
      <trkpt lat="41.14803" lon="30.41586">
        <ele>30.364214</ele>
        <time>2021-08-22T08:14:30.307Z</time>
      </trkpt>
      <trkpt lat="41.14803" lon="30.41576">
        <ele>30.291977</ele>
        <time>2021-08-22T08:14:33.518Z</time>
      </trkpt>
      <trkpt lat="41.14814" lon="30.4147">
        <ele>30.287632</ele>
        <time>2021-08-22T08:15:01.052Z</time>
      </trkpt>
      <trkpt lat="41.14815" lon="30.41375">
        <ele>31.083673</ele>
        <time>2021-08-22T08:15:29.598Z</time>
      </trkpt>
      <trkpt lat="41.14831" lon="30.41314">
        <ele>31.621866</ele>
        <time>2021-08-22T08:15:48.511Z</time>
      </trkpt>
      <trkpt lat="41.14834" lon="30.41284">
        <ele>31.879747</ele>
        <time>2021-08-22T08:15:57.241Z</time>
      </trkpt>
      <trkpt lat="41.1483" lon="30.41256">
        <ele>31.860894</ele>
        <time>2021-08-22T08:16:04.934Z</time>
      </trkpt>
      <trkpt lat="41.14794" lon="30.41181">
        <ele>31.793263</ele>
        <time>2021-08-22T08:16:26.942Z</time>
      </trkpt>
      <trkpt lat="41.14794" lon="30.41151">
        <ele>31.769669</ele>
        <time>2021-08-22T08:16:33.950Z</time>
      </trkpt>
      <trkpt lat="41.14811" lon="30.41108">
        <ele>31.732397</ele>
        <time>2021-08-22T08:16:44.364Z</time>
      </trkpt>
      <trkpt lat="41.14821" lon="30.41064">
        <ele>31.66146</ele>
        <time>2021-08-22T08:16:53.765Z</time>
      </trkpt>
      <trkpt lat="41.14823" lon="30.41013">
        <ele>30.877508</ele>
        <time>2021-08-22T08:17:03.612Z</time>
      </trkpt>
      <trkpt lat="41.14811" lon="30.40898">
        <ele>29.081894</ele>
        <time>2021-08-22T08:17:25.027Z</time>
      </trkpt>
      <trkpt lat="41.14813" lon="30.40833">
        <ele>28.082</ele>
        <time>2021-08-22T08:17:36.562Z</time>
      </trkpt>
      <trkpt lat="41.14848" lon="30.40683">
        <ele>24.574906</ele>
        <time>2021-08-22T08:18:03.957Z</time>
      </trkpt>
      <trkpt lat="41.14889" lon="30.40575">
        <ele>21.93345</ele>
        <time>2021-08-22T08:18:24.834Z</time>
      </trkpt>
      <trkpt lat="41.14889" lon="30.40547">
        <ele>21.378932</ele>
        <time>2021-08-22T08:18:29.662Z</time>
      </trkpt>
      <trkpt lat="41.1488" lon="30.40515">
        <ele>20.702312</ele>
        <time>2021-08-22T08:18:35.598Z</time>
      </trkpt>
      <trkpt lat="41.14878" lon="30.4047">
        <ele>19.800603</ele>
        <time>2021-08-22T08:18:43.532Z</time>
      </trkpt>
      <trkpt lat="41.1489" lon="30.40415">
        <ele>18.668022</ele>
        <time>2021-08-22T08:18:53.577Z</time>
      </trkpt>
      <trkpt lat="41.14955" lon="30.40244">
        <ele>17.923078</ele>
        <time>2021-08-22T08:19:31.696Z</time>
      </trkpt>
      <trkpt lat="41.14955" lon="30.40226">
        <ele>17.927625</ele>
        <time>2021-08-22T08:19:36.481Z</time>
      </trkpt>
      <trkpt lat="41.14917" lon="30.40158">
        <ele>18.555988</ele>
        <time>2021-08-22T08:20:03.851Z</time>
      </trkpt>
      <trkpt lat="41.14896" lon="30.40101">
        <ele>21.078491</ele>
        <time>2021-08-22T08:20:28.813Z</time>
      </trkpt>
      <trkpt lat="41.1484" lon="30.39772">
        <ele>35.942941</ele>
        <time>2021-08-22T08:23:21.554Z</time>
      </trkpt>
      <trkpt lat="41.14808" lon="30.39652">
        <ele>41.058362</ele>
        <time>2021-08-22T08:24:24.051Z</time>
      </trkpt>
      <trkpt lat="41.14772" lon="30.39598">
        <ele>43.391496</ele>
        <time>2021-08-22T08:24:55.010Z</time>
      </trkpt>
      <trkpt lat="41.14765" lon="30.39581">
        <ele>44.028526</ele>
        <time>2021-08-22T08:25:02.939Z</time>
      </trkpt>
      <trkpt lat="41.14769" lon="30.39568">
        <ele>44.461616</ele>
        <time>2021-08-22T08:25:08.074Z</time>
      </trkpt>
      <trkpt lat="41.14813" lon="30.39518">
        <ele>46.761832</ele>
        <time>2021-08-22T08:25:35.712Z</time>
      </trkpt>
      <trkpt lat="41.14855" lon="30.39428">
        <ele>47.71608</ele>
        <time>2021-08-22T08:26:07.267Z</time>
      </trkpt>
      <trkpt lat="41.14908" lon="30.39362">
        <ele>48.593427</ele>
        <time>2021-08-22T08:26:32.708Z</time>
      </trkpt>
      <trkpt lat="41.14914" lon="30.39335">
        <ele>48.842242</ele>
        <time>2021-08-22T08:26:39.581Z</time>
      </trkpt>
      <trkpt lat="41.14871" lon="30.39166">
        <ele>48.978254</ele>
        <time>2021-08-22T08:27:22.580Z</time>
      </trkpt>
      <trkpt lat="41.14872" lon="30.3913">
        <ele>49.005649</ele>
        <time>2021-08-22T08:27:31.235Z</time>
      </trkpt>
      <trkpt lat="41.14888" lon="30.39062">
        <ele>48.290902</ele>
        <time>2021-08-22T08:27:48.292Z</time>
      </trkpt>
      <trkpt lat="41.14888" lon="30.39029">
        <ele>47.77047</ele>
        <time>2021-08-22T08:27:54.815Z</time>
      </trkpt>
      <trkpt lat="41.1487" lon="30.38865">
        <ele>45.004682</ele>
        <time>2021-08-22T08:28:24.373Z</time>
      </trkpt>
      <trkpt lat="41.14863" lon="30.38831">
        <ele>43.631409</ele>
        <time>2021-08-22T08:28:30.092Z</time>
      </trkpt>
      <trkpt lat="41.1478" lon="30.38666">
        <ele>35.879505</ele>
        <time>2021-08-22T08:29:00.933Z</time>
      </trkpt>
      <trkpt lat="41.14744" lon="30.38528">
        <ele>30.608327</ele>
        <time>2021-08-22T08:29:23.980Z</time>
      </trkpt>
      <trkpt lat="41.14732" lon="30.38495">
        <ele>29.318809</ele>
        <time>2021-08-22T08:29:29.805Z</time>
      </trkpt>
      <trkpt lat="41.14716" lon="30.38469">
        <ele>28.091985</ele>
        <time>2021-08-22T08:29:35.442Z</time>
      </trkpt>
      <trkpt lat="41.14695" lon="30.38464">
        <ele>27.371002</ele>
        <time>2021-08-22T08:29:40.314Z</time>
      </trkpt>
      <trkpt lat="41.14663" lon="30.3847">
        <ele>27.471681</ele>
        <time>2021-08-22T08:29:47.986Z</time>
      </trkpt>
      <trkpt lat="41.14647" lon="30.38464">
        <ele>27.525545</ele>
        <time>2021-08-22T08:29:52.344Z</time>
      </trkpt>
      <trkpt lat="41.14615" lon="30.38439">
        <ele>27.642245</ele>
        <time>2021-08-22T08:30:03.293Z</time>
      </trkpt>
      <trkpt lat="41.14575" lon="30.3842">
        <ele>27.776349</ele>
        <time>2021-08-22T08:30:19.698Z</time>
      </trkpt>
      <trkpt lat="41.14549" lon="30.38416">
        <ele>27.859872</ele>
        <time>2021-08-22T08:30:31.757Z</time>
      </trkpt>
      <trkpt lat="41.14501" lon="30.38443">
        <ele>29.300706</ele>
        <time>2021-08-22T08:30:58.484Z</time>
      </trkpt>
      <trkpt lat="41.14468" lon="30.38452">
        <ele>30.778618</ele>
        <time>2021-08-22T08:31:18.091Z</time>
      </trkpt>
      <trkpt lat="41.14384" lon="30.38449">
        <ele>34.364098</ele>
        <time>2021-08-22T08:32:08.144Z</time>
      </trkpt>
      <trkpt lat="41.1428" lon="30.38394">
        <ele>37.131544</ele>
        <time>2021-08-22T08:33:06.102Z</time>
      </trkpt>
      <trkpt lat="41.14148" lon="30.38283">
        <ele>38.005067</ele>
        <time>2021-08-22T08:33:56.298Z</time>
      </trkpt>
      <trkpt lat="41.14137" lon="30.38265">
        <ele>37.714404</ele>
        <time>2021-08-22T08:34:00.778Z</time>
      </trkpt>
      <trkpt lat="41.14121" lon="30.38206">
        <ele>36.975967</ele>
        <time>2021-08-22T08:34:12.082Z</time>
      </trkpt>
      <trkpt lat="41.14117" lon="30.38138">
        <ele>36.16606</ele>
        <time>2021-08-22T08:34:24.255Z</time>
      </trkpt>
      <trkpt lat="41.1411" lon="30.38118">
        <ele>35.776131</ele>
        <time>2021-08-22T08:34:28.106Z</time>
      </trkpt>
      <trkpt lat="41.14078" lon="30.38066">
        <ele>34.370356</ele>
        <time>2021-08-22T08:34:40.026Z</time>
      </trkpt>
      <trkpt lat="41.14043" lon="30.38022">
        <ele>33.049142</ele>
        <time>2021-08-22T08:34:51.323Z</time>
      </trkpt>
      <trkpt lat="41.13949" lon="30.3786">
        <ele>28.481333</ele>
        <time>2021-08-22T08:35:27.298Z</time>
      </trkpt>
      <trkpt lat="41.13752" lon="30.37726">
        <ele>20.598966</ele>
        <time>2021-08-22T08:36:16.779Z</time>
      </trkpt>
      <trkpt lat="41.1355" lon="30.37576">
        <ele>11.154107</ele>
        <time>2021-08-22T08:37:06.921Z</time>
      </trkpt>
      <trkpt lat="41.13539" lon="30.37565">
        <ele>10.886109</ele>
        <time>2021-08-22T08:37:09.827Z</time>
      </trkpt>
      <trkpt lat="41.13512" lon="30.37539">
        <ele>10.357732</ele>
        <time>2021-08-22T08:37:17.656Z</time>
      </trkpt>
      <trkpt lat="41.13363" lon="30.37385">
        <ele>8.294739</ele>
        <time>2021-08-22T08:38:10.358Z</time>
      </trkpt>
      <trkpt lat="41.13335" lon="30.37363">
        <ele>8.322088</ele>
        <time>2021-08-22T08:38:21.809Z</time>
      </trkpt>
      <trkpt lat="41.13299" lon="30.3734">
        <ele>8.355489</ele>
        <time>2021-08-22T08:38:35.441Z</time>
      </trkpt>
      <trkpt lat="41.13277" lon="30.37335">
        <ele>8.374366</ele>
        <time>2021-08-22T08:38:42.910Z</time>
      </trkpt>
      <trkpt lat="41.13232" lon="30.37338">
        <ele>8.381398</ele>
        <time>2021-08-22T08:38:57.452Z</time>
      </trkpt>
      <trkpt lat="41.13195" lon="30.37344">
        <ele>8.328711</ele>
        <time>2021-08-22T08:39:09.512Z</time>
      </trkpt>
      <trkpt lat="41.13141" lon="30.37351">
        <ele>8.25401</ele>
        <time>2021-08-22T08:39:25.865Z</time>
      </trkpt>
      <trkpt lat="41.13118" lon="30.37354">
        <ele>8.221515</ele>
        <time>2021-08-22T08:39:32.684Z</time>
      </trkpt>
      <trkpt lat="41.1309" lon="30.37351">
        <ele>8.182747</ele>
        <time>2021-08-22T08:39:41.030Z</time>
      </trkpt>
      <trkpt lat="41.13082" lon="30.37345">
        <ele>8.169009</ele>
        <time>2021-08-22T08:39:43.632Z</time>
      </trkpt>
      <trkpt lat="41.13075" lon="30.37336">
        <ele>8.155489</ele>
        <time>2021-08-22T08:39:46.820Z</time>
      </trkpt>
      <trkpt lat="41.13041" lon="30.3725">
        <ele>7.785996</ele>
        <time>2021-08-22T08:40:07.630Z</time>
      </trkpt>
      <trkpt lat="41.13025" lon="30.37203">
        <ele>7.584653</ele>
        <time>2021-08-22T08:40:18.579Z</time>
      </trkpt>
      <trkpt lat="41.13023" lon="30.37196">
        <ele>7.553885</ele>
        <time>2021-08-22T08:40:20.105Z</time>
      </trkpt>
      <trkpt lat="41.12979" lon="30.37067">
        <ele>7.184955</ele>
        <time>2021-08-22T08:40:51.086Z</time>
      </trkpt>
      <trkpt lat="41.1296" lon="30.36994">
        <ele>7.154611</ele>
        <time>2021-08-22T08:41:08.300Z</time>
      </trkpt>
      <trkpt lat="41.12962" lon="30.36936">
        <ele>7.132311</ele>
        <time>2021-08-22T08:41:21.884Z</time>
      </trkpt>
      <trkpt lat="41.1297" lon="30.36865">
        <ele>7.314556</ele>
        <time>2021-08-22T08:41:40.180Z</time>
      </trkpt>
      <trkpt lat="41.12963" lon="30.36841">
        <ele>7.563866</ele>
        <time>2021-08-22T08:41:47.295Z</time>
      </trkpt>
      <trkpt lat="41.12943" lon="30.36824">
        <ele>7.863515</ele>
        <time>2021-08-22T08:41:56.090Z</time>
      </trkpt>
      <trkpt lat="41.12811" lon="30.36778">
        <ele>9.67252</ele>
        <time>2021-08-22T08:42:50.147Z</time>
      </trkpt>
      <trkpt lat="41.12787" lon="30.36761">
        <ele>10.176699</ele>
        <time>2021-08-22T08:43:01.139Z</time>
      </trkpt>
      <trkpt lat="41.12765" lon="30.36731">
        <ele>10.78688</ele>
        <time>2021-08-22T08:43:14.263Z</time>
      </trkpt>
      <trkpt lat="41.1271" lon="30.36606">
        <ele>12.879665</ele>
        <time>2021-08-22T08:43:59.772Z</time>
      </trkpt>
      <trkpt lat="41.12701" lon="30.36583">
        <ele>13.51734</ele>
        <time>2021-08-22T08:44:08.317Z</time>
      </trkpt>
      <trkpt lat="41.1271" lon="30.36564">
        <ele>14.060658</ele>
        <time>2021-08-22T08:44:15.836Z</time>
      </trkpt>
      <trkpt lat="41.1278" lon="30.36336">
        <ele>20.751597</ele>
        <time>2021-08-22T08:45:50.038Z</time>
      </trkpt>
      <trkpt lat="41.12902" lon="30.36041">
        <ele>32.685576</ele>
        <time>2021-08-22T08:48:26.948Z</time>
      </trkpt>
      <trkpt lat="41.12987" lon="30.35737">
        <ele>39.626352</ele>
        <time>2021-08-22T08:50:18.632Z</time>
      </trkpt>
      <trkpt lat="41.13081" lon="30.35471">
        <ele>40.939862</ele>
        <time>2021-08-22T08:51:30.032Z</time>
      </trkpt>
      <trkpt lat="41.13114" lon="30.35389">
        <ele>41.535998</ele>
        <time>2021-08-22T08:51:54.311Z</time>
      </trkpt>
      <trkpt lat="41.13166" lon="30.35293">
        <ele>42.459682</ele>
        <time>2021-08-22T08:52:29.335Z</time>
      </trkpt>
      <trkpt lat="41.13235" lon="30.35194">
        <ele>43.98054</ele>
        <time>2021-08-22T08:53:11.108Z</time>
      </trkpt>
      <trkpt lat="41.13262" lon="30.35103">
        <ele>44.907479</ele>
        <time>2021-08-22T08:53:39.584Z</time>
      </trkpt>
      <trkpt lat="41.13289" lon="30.35032">
        <ele>45.279345</ele>
        <time>2021-08-22T08:54:00.792Z</time>
      </trkpt>
      <trkpt lat="41.13304" lon="30.34946">
        <ele>45.698681</ele>
        <time>2021-08-22T08:54:22.918Z</time>
      </trkpt>
      <trkpt lat="41.13322" lon="30.34781">
        <ele>46.810495</ele>
        <time>2021-08-22T08:55:04.218Z</time>
      </trkpt>
      <trkpt lat="41.13331" lon="30.34736">
        <ele>47.150718</ele>
        <time>2021-08-22T08:55:16.992Z</time>
      </trkpt>
      <trkpt lat="41.13361" lon="30.34643">
        <ele>48.492322</ele>
        <time>2021-08-22T08:55:48.368Z</time>
      </trkpt>
      <trkpt lat="41.13367" lon="30.34604">
        <ele>49.534218</ele>
        <time>2021-08-22T08:56:01.716Z</time>
      </trkpt>
      <trkpt lat="41.13367" lon="30.34352">
        <ele>57.274756</ele>
        <time>2021-08-22T08:57:45.778Z</time>
      </trkpt>
      <trkpt lat="41.13382" lon="30.34188">
        <ele>63.556629</ele>
        <time>2021-08-22T08:59:05.869Z</time>
      </trkpt>
      <trkpt lat="41.134" lon="30.34132">
        <ele>64.85588</ele>
        <time>2021-08-22T08:59:33.519Z</time>
      </trkpt>
      <trkpt lat="41.1341" lon="30.34046">
        <ele>66.720582</ele>
        <time>2021-08-22T09:00:06.902Z</time>
      </trkpt>
      <trkpt lat="41.13407" lon="30.34025">
        <ele>67.178272</ele>
        <time>2021-08-22T09:00:14.397Z</time>
      </trkpt>
      <trkpt lat="41.13416" lon="30.34025">
        <ele>67.411107</ele>
        <time>2021-08-22T09:00:17.035Z</time>
      </trkpt>
      <trkpt lat="41.13456" lon="30.34025">
        <ele>68.358785</ele>
        <time>2021-08-22T09:00:28.847Z</time>
      </trkpt>
      <trkpt lat="41.13538" lon="30.34024">
        <ele>66.854605</ele>
        <time>2021-08-22T09:00:49.000Z</time>
      </trkpt>
      <trkpt lat="41.13569" lon="30.34025">
        <ele>66.280511</ele>
        <time>2021-08-22T09:00:56.332Z</time>
      </trkpt>
      <trkpt lat="41.13577" lon="30.34025">
        <ele>66.138337</ele>
        <time>2021-08-22T09:00:57.891Z</time>
      </trkpt>
      <trkpt lat="41.13918" lon="30.34089">
        <ele>61.52806</ele>
        <time>2021-08-22T09:02:24.255Z</time>
      </trkpt>
      <trkpt lat="41.13964" lon="30.34094">
        <ele>61.39642</ele>
        <time>2021-08-22T09:02:42.417Z</time>
      </trkpt>
      <trkpt lat="41.14029" lon="30.34092">
        <ele>62.315931</ele>
        <time>2021-08-22T09:03:10.553Z</time>
      </trkpt>
      <trkpt lat="41.14037" lon="30.34094">
        <ele>62.499387</ele>
        <time>2021-08-22T09:03:14.324Z</time>
      </trkpt>
      <trkpt lat="41.14042" lon="30.34083">
        <ele>62.731725</ele>
        <time>2021-08-22T09:03:20.612Z</time>
      </trkpt>
      <trkpt lat="41.14055" lon="30.34069">
        <ele>63.129005</ele>
        <time>2021-08-22T09:03:27.547Z</time>
      </trkpt>
      <trkpt lat="41.14165" lon="30.33999">
        <ele>65.498415</ele>
        <time>2021-08-22T09:04:23.524Z</time>
      </trkpt>
      <trkpt lat="41.14172" lon="30.33992">
        <ele>65.434722</ele>
        <time>2021-08-22T09:04:27.851Z</time>
      </trkpt>
      <trkpt lat="41.14187" lon="30.33977">
        <ele>65.29065</ele>
        <time>2021-08-22T09:04:33.464Z</time>
      </trkpt>
      <trkpt lat="41.14208" lon="30.33954">
        <ele>65.082486</ele>
        <time>2021-08-22T09:04:41.663Z</time>
      </trkpt>
      <trkpt lat="41.14209" lon="30.33952">
        <ele>65.071959</ele>
        <time>2021-08-22T09:04:42.108Z</time>
      </trkpt>
      <trkpt lat="41.1422" lon="30.33939">
        <ele>64.960153</ele>
        <time>2021-08-22T09:04:46.470Z</time>
      </trkpt>
      <trkpt lat="41.14223" lon="30.33912">
        <ele>64.807833</ele>
        <time>2021-08-22T09:04:51.856Z</time>
      </trkpt>
      <trkpt lat="41.14231" lon="30.33804">
        <ele>63.730948</ele>
        <time>2021-08-22T09:05:12.011Z</time>
      </trkpt>
      <trkpt lat="41.14257" lon="30.33715">
        <ele>60.108085</ele>
        <time>2021-08-22T09:05:27.229Z</time>
      </trkpt>
      <trkpt lat="41.1427" lon="30.33651">
        <ele>57.591344</ele>
        <time>2021-08-22T09:05:37.677Z</time>
      </trkpt>
      <trkpt lat="41.1427" lon="30.33635">
        <ele>56.960907</ele>
        <time>2021-08-22T09:05:40.242Z</time>
      </trkpt>
      <trkpt lat="41.14265" lon="30.33597">
        <ele>55.522471</ele>
        <time>2021-08-22T09:05:46.091Z</time>
      </trkpt>
      <trkpt lat="41.14261" lon="30.33553">
        <ele>53.389759</ele>
        <time>2021-08-22T09:05:52.924Z</time>
      </trkpt>
      <trkpt lat="41.14259" lon="30.33451">
        <ele>48.240615</ele>
        <time>2021-08-22T09:06:08.454Z</time>
      </trkpt>
      <trkpt lat="41.14256" lon="30.33422">
        <ele>46.795692</ele>
        <time>2021-08-22T09:06:12.769Z</time>
      </trkpt>
      <trkpt lat="41.14259" lon="30.33383">
        <ele>44.799659</ele>
        <time>2021-08-22T09:06:18.842Z</time>
      </trkpt>
      <trkpt lat="41.14269" lon="30.33361">
        <ele>43.532237</ele>
        <time>2021-08-22T09:06:22.726Z</time>
      </trkpt>
      <trkpt lat="41.14278" lon="30.33345">
        <ele>42.50634</ele>
        <time>2021-08-22T09:06:25.830Z</time>
      </trkpt>
      <trkpt lat="41.14314" lon="30.33323">
        <ele>39.882862</ele>
        <time>2021-08-22T09:06:33.798Z</time>
      </trkpt>
      <trkpt lat="41.14367" lon="30.33314">
        <ele>36.351319</ele>
        <time>2021-08-22T09:06:44.556Z</time>
      </trkpt>
      <trkpt lat="41.1439" lon="30.33296">
        <ele>34.546843</ele>
        <time>2021-08-22T09:06:50.068Z</time>
      </trkpt>
      <trkpt lat="41.14418" lon="30.33182">
        <ele>28.379911</ele>
        <time>2021-08-22T09:07:08.257Z</time>
      </trkpt>
      <trkpt lat="41.14478" lon="30.32997">
        <ele>17.990656</ele>
        <time>2021-08-22T09:07:38.378Z</time>
      </trkpt>
      <trkpt lat="41.14492" lon="30.32941">
        <ele>15.911686</ele>
        <time>2021-08-22T09:07:47.588Z</time>
      </trkpt>
      <trkpt lat="41.14498" lon="30.32905">
        <ele>14.601655</ele>
        <time>2021-08-22T09:07:53.554Z</time>
      </trkpt>
      <trkpt lat="41.14507" lon="30.32822">
        <ele>11.674831</ele>
        <time>2021-08-22T09:08:07.326Z</time>
      </trkpt>
      <trkpt lat="41.14501" lon="30.32775">
        <ele>10.127087</ele>
        <time>2021-08-22T09:08:15.665Z</time>
      </trkpt>
      <trkpt lat="41.14468" lon="30.32738">
        <ele>9.704071</ele>
        <time>2021-08-22T09:08:26.429Z</time>
      </trkpt>
      <trkpt lat="41.14441" lon="30.3272">
        <ele>9.408807</ele>
        <time>2021-08-22T09:08:34.692Z</time>
      </trkpt>
      <trkpt lat="41.14339" lon="30.32672">
        <ele>8.474006</ele>
        <time>2021-08-22T09:09:06.363Z</time>
      </trkpt>
      <trkpt lat="41.14278" lon="30.32606">
        <ele>9.533317</ele>
        <time>2021-08-22T09:09:33.250Z</time>
      </trkpt>
      <trkpt lat="41.14274" lon="30.32588">
        <ele>9.728322</ele>
        <time>2021-08-22T09:09:38.619Z</time>
      </trkpt>
      <trkpt lat="41.14274" lon="30.3255">
        <ele>10.112144</ele>
        <time>2021-08-22T09:09:49.435Z</time>
      </trkpt>
      <trkpt lat="41.14334" lon="30.32241">
        <ele>16.825517</ele>
        <time>2021-08-22T09:11:44.520Z</time>
      </trkpt>
      <trkpt lat="41.14342" lon="30.32162">
        <ele>20.070621</ele>
        <time>2021-08-22T09:12:19.482Z</time>
      </trkpt>
      <trkpt lat="41.14341" lon="30.32115">
        <ele>21.97094</ele>
        <time>2021-08-22T09:12:40.862Z</time>
      </trkpt>
      <trkpt lat="41.1434" lon="30.32095">
        <ele>22.812202</ele>
        <time>2021-08-22T09:12:52.380Z</time>
      </trkpt>
      <trkpt lat="41.14344" lon="30.32041">
        <ele>24.987122</ele>
        <time>2021-08-22T09:13:20.457Z</time>
      </trkpt>
      <trkpt lat="41.14354" lon="30.32016">
        <ele>26.162183</ele>
        <time>2021-08-22T09:13:33.169Z</time>
      </trkpt>
      <trkpt lat="41.1439" lon="30.31962">
        <ele>29.432728</ele>
        <time>2021-08-22T09:14:10.328Z</time>
      </trkpt>
      <trkpt lat="41.14399" lon="30.31931">
        <ele>30.955084</ele>
        <time>2021-08-22T09:14:25.586Z</time>
      </trkpt>
      <trkpt lat="41.144" lon="30.31922">
        <ele>31.381288</ele>
        <time>2021-08-22T09:14:32.391Z</time>
      </trkpt>
      <trkpt lat="41.14406" lon="30.31874">
        <ele>33.610063</ele>
        <time>2021-08-22T09:14:56.029Z</time>
      </trkpt>
      <trkpt lat="41.14419" lon="30.31789">
        <ele>37.482074</ele>
        <time>2021-08-22T09:15:35.490Z</time>
      </trkpt>
      <trkpt lat="41.1442" lon="30.31785">
        <ele>37.654477</ele>
        <time>2021-08-22T09:15:38.755Z</time>
      </trkpt>
      <trkpt lat="41.14435" lon="30.3171">
        <ele>40.586363</ele>
        <time>2021-08-22T09:16:14.171Z</time>
      </trkpt>
      <trkpt lat="41.14437" lon="30.31698">
        <ele>41.044888</ele>
        <time>2021-08-22T09:16:20.382Z</time>
      </trkpt>
      <trkpt lat="41.14462" lon="30.31575">
        <ele>45.889387</ele>
        <time>2021-08-22T09:17:15.823Z</time>
      </trkpt>
      <trkpt lat="41.14467" lon="30.31539">
        <ele>46.87845</ele>
        <time>2021-08-22T09:17:31.793Z</time>
      </trkpt>
      <trkpt lat="41.14471" lon="30.31501">
        <ele>47.86919</ele>
        <time>2021-08-22T09:17:47.084Z</time>
      </trkpt>
      <trkpt lat="41.14489" lon="30.31409">
        <ele>50.323951</ele>
        <time>2021-08-22T09:18:21.610Z</time>
      </trkpt>
      <trkpt lat="41.1449" lon="30.31404">
        <ele>50.451352</ele>
        <time>2021-08-22T09:18:23.984Z</time>
      </trkpt>
      <trkpt lat="41.14507" lon="30.3131">
        <ele>52.941903</ele>
        <time>2021-08-22T09:18:58.338Z</time>
      </trkpt>
      <trkpt lat="41.14515" lon="30.31248">
        <ele>54.521231</ele>
        <time>2021-08-22T09:19:19.769Z</time>
      </trkpt>
      <trkpt lat="41.14514" lon="30.31226">
        <ele>55.063842</ele>
        <time>2021-08-22T09:19:27.645Z</time>
      </trkpt>
      <trkpt lat="41.14514" lon="30.31197">
        <ele>55.795763</ele>
        <time>2021-08-22T09:19:38.569Z</time>
      </trkpt>
      <trkpt lat="41.14513" lon="30.31177">
        <ele>56.323246</ele>
        <time>2021-08-22T09:19:46.684Z</time>
      </trkpt>
      <trkpt lat="41.1451" lon="30.31133">
        <ele>57.414512</ele>
        <time>2021-08-22T09:20:03.273Z</time>
      </trkpt>
      <trkpt lat="41.14509" lon="30.31111">
        <ele>57.994362</ele>
        <time>2021-08-22T09:20:13.347Z</time>
      </trkpt>
      <trkpt lat="41.14506" lon="30.311">
        <ele>58.26495</ele>
        <time>2021-08-22T09:20:17.565Z</time>
      </trkpt>
      <trkpt lat="41.14503" lon="30.31087">
        <ele>58.775302</ele>
        <time>2021-08-22T09:20:23.299Z</time>
      </trkpt>
      <trkpt lat="41.14483" lon="30.31007">
        <ele>61.840291</ele>
        <time>2021-08-22T09:20:58.800Z</time>
      </trkpt>
      <trkpt lat="41.14471" lon="30.30939">
        <ele>64.431585</ele>
        <time>2021-08-22T09:21:30.302Z</time>
      </trkpt>
      <trkpt lat="41.1447" lon="30.30934">
        <ele>64.609209</ele>
        <time>2021-08-22T09:21:33.973Z</time>
      </trkpt>
      <trkpt lat="41.14472" lon="30.30884">
        <ele>66.453611</ele>
        <time>2021-08-22T09:21:56.982Z</time>
      </trkpt>
      <trkpt lat="41.1449" lon="30.30809">
        <ele>68.929098</ele>
        <time>2021-08-22T09:22:31.553Z</time>
      </trkpt>
      <trkpt lat="41.14494" lon="30.30794">
        <ele>69.413789</ele>
        <time>2021-08-22T09:22:40.771Z</time>
      </trkpt>
      <trkpt lat="41.14502" lon="30.30767">
        <ele>70.283658</ele>
        <time>2021-08-22T09:22:51.538Z</time>
      </trkpt>
      <trkpt lat="41.14513" lon="30.30728">
        <ele>71.569985</ele>
        <time>2021-08-22T09:23:09.277Z</time>
      </trkpt>
      <trkpt lat="41.14517" lon="30.30709">
        <ele>72.163407</ele>
        <time>2021-08-22T09:23:16.952Z</time>
      </trkpt>
      <trkpt lat="41.14522" lon="30.3069">
        <ele>72.770878</ele>
        <time>2021-08-22T09:23:23.983Z</time>
      </trkpt>
      <trkpt lat="41.14529" lon="30.30661">
        <ele>73.712837</ele>
        <time>2021-08-22T09:23:35.269Z</time>
      </trkpt>
      <trkpt lat="41.14533" lon="30.30644">
        <ele>74.230692</ele>
        <time>2021-08-22T09:23:40.789Z</time>
      </trkpt>
      <trkpt lat="41.1455" lon="30.3062">
        <ele>74.470662</ele>
        <time>2021-08-22T09:23:52.442Z</time>
      </trkpt>
      <trkpt lat="41.14625" lon="30.30597">
        <ele>75.053554</ele>
        <time>2021-08-22T09:24:22.253Z</time>
      </trkpt>
      <trkpt lat="41.14643" lon="30.30595">
        <ele>75.191436</ele>
        <time>2021-08-22T09:24:27.691Z</time>
      </trkpt>
      <trkpt lat="41.14666" lon="30.30602">
        <ele>75.368622</ele>
        <time>2021-08-22T09:24:36.048Z</time>
      </trkpt>
      <trkpt lat="41.14718" lon="30.30639">
        <ele>75.025093</ele>
        <time>2021-08-22T09:24:51.530Z</time>
      </trkpt>
      <trkpt lat="41.14737" lon="30.30646">
        <ele>74.439413</ele>
        <time>2021-08-22T09:24:56.608Z</time>
      </trkpt>
      <trkpt lat="41.14743" lon="30.30644">
        <ele>74.264121</ele>
        <time>2021-08-22T09:24:57.942Z</time>
      </trkpt>
      <trkpt lat="41.14751" lon="30.30641">
        <ele>74.026514</ele>
        <time>2021-08-22T09:25:00.182Z</time>
      </trkpt>
      <trkpt lat="41.14757" lon="30.30625">
        <ele>73.643501</ele>
        <time>2021-08-22T09:25:03.673Z</time>
      </trkpt>
      <trkpt lat="41.14762" lon="30.30613">
        <ele>73.323439</ele>
        <time>2021-08-22T09:25:06.246Z</time>
      </trkpt>
      <trkpt lat="41.14783" lon="30.3044">
        <ele>68.005283</ele>
        <time>2021-08-22T09:25:35.478Z</time>
      </trkpt>
      <trkpt lat="41.14785" lon="30.30366">
        <ele>63.72631</ele>
        <time>2021-08-22T09:25:46.446Z</time>
      </trkpt>
      <trkpt lat="41.14792" lon="30.30355">
        <ele>62.867309</ele>
        <time>2021-08-22T09:25:48.793Z</time>
      </trkpt>
      <trkpt lat="41.14798" lon="30.30354">
        <ele>62.420239</ele>
        <time>2021-08-22T09:25:49.878Z</time>
      </trkpt>
      <trkpt lat="41.14804" lon="30.30353">
        <ele>61.935023</ele>
        <time>2021-08-22T09:25:51.069Z</time>
      </trkpt>
      <trkpt lat="41.14861" lon="30.30394">
        <ele>56.954299</ele>
        <time>2021-08-22T09:26:03.616Z</time>
      </trkpt>
      <trkpt lat="41.14875" lon="30.30396">
        <ele>55.751072</ele>
        <time>2021-08-22T09:26:06.303Z</time>
      </trkpt>
      <trkpt lat="41.14878" lon="30.30394">
        <ele>55.488136</ele>
        <time>2021-08-22T09:26:06.833Z</time>
      </trkpt>
      <trkpt lat="41.14888" lon="30.30387">
        <ele>54.40789</ele>
        <time>2021-08-22T09:26:09.233Z</time>
      </trkpt>
      <trkpt lat="41.14909" lon="30.30346">
        <ele>51.042801</ele>
        <time>2021-08-22T09:26:16.388Z</time>
      </trkpt>
      <trkpt lat="41.14931" lon="30.30296">
        <ele>47.192595</ele>
        <time>2021-08-22T09:26:24.586Z</time>
      </trkpt>
      <trkpt lat="41.14936" lon="30.30285">
        <ele>46.291385</ele>
        <time>2021-08-22T09:26:26.533Z</time>
      </trkpt>
      <trkpt lat="41.14963" lon="30.30244">
        <ele>42.585567</ele>
        <time>2021-08-22T09:26:34.485Z</time>
      </trkpt>
      <trkpt lat="41.15021" lon="30.30178">
        <ele>38.067689</ele>
        <time>2021-08-22T09:26:49.983Z</time>
      </trkpt>
      <trkpt lat="41.15044" lon="30.30152">
        <ele>36.708091</ele>
        <time>2021-08-22T09:26:56.283Z</time>
      </trkpt>
      <trkpt lat="41.15056" lon="30.30141">
        <ele>36.077517</ele>
        <time>2021-08-22T09:26:59.299Z</time>
      </trkpt>
      <trkpt lat="41.15074" lon="30.30125">
        <ele>35.094129</ele>
        <time>2021-08-22T09:27:04.292Z</time>
      </trkpt>
      <trkpt lat="41.15088" lon="30.30113">
        <ele>34.356599</ele>
        <time>2021-08-22T09:27:07.975Z</time>
      </trkpt>
      <trkpt lat="41.15164" lon="30.30045">
        <ele>31.547675</ele>
        <time>2021-08-22T09:27:30.479Z</time>
      </trkpt>
      <trkpt lat="41.15172" lon="30.30035">
        <ele>31.356953</ele>
        <time>2021-08-22T09:27:33.320Z</time>
      </trkpt>
      <trkpt lat="41.15184" lon="30.30022">
        <ele>31.10857</ele>
        <time>2021-08-22T09:27:37.241Z</time>
      </trkpt>
      <trkpt lat="41.15203" lon="30.30001">
        <ele>30.686075</ele>
        <time>2021-08-22T09:27:43.791Z</time>
      </trkpt>
      <trkpt lat="41.15224" lon="30.29972">
        <ele>30.192991</ele>
        <time>2021-08-22T09:27:51.536Z</time>
      </trkpt>
      <trkpt lat="41.15283" lon="30.29887">
        <ele>28.792986</ele>
        <time>2021-08-22T09:28:14.097Z</time>
      </trkpt>
      <trkpt lat="41.1534" lon="30.29812">
        <ele>27.579998</ele>
        <time>2021-08-22T09:28:34.752Z</time>
      </trkpt>
      <trkpt lat="41.15354" lon="30.29793">
        <ele>27.271503</ele>
        <time>2021-08-22T09:28:39.934Z</time>
      </trkpt>
      <trkpt lat="41.1536" lon="30.29785">
        <ele>27.148751</ele>
        <time>2021-08-22T09:28:42.009Z</time>
      </trkpt>
      <trkpt lat="41.15377" lon="30.29762">
        <ele>26.774572</ele>
        <time>2021-08-22T09:28:48.295Z</time>
      </trkpt>
      <trkpt lat="41.15406" lon="30.29729">
        <ele>25.892377</ele>
        <time>2021-08-22T09:28:58.118Z</time>
      </trkpt>
      <trkpt lat="41.15418" lon="30.29715">
        <ele>25.474104</ele>
        <time>2021-08-22T09:29:01.843Z</time>
      </trkpt>
      <trkpt lat="41.15438" lon="30.29691">
        <ele>24.759084</ele>
        <time>2021-08-22T09:29:08.577Z</time>
      </trkpt>
      <trkpt lat="41.15447" lon="30.2968">
        <ele>24.449917</ele>
        <time>2021-08-22T09:29:11.293Z</time>
      </trkpt>
      <trkpt lat="41.1547" lon="30.29608">
        <ele>22.889052</ele>
        <time>2021-08-22T09:29:25.280Z</time>
      </trkpt>
      <trkpt lat="41.15484" lon="30.2957">
        <ele>22.050025</ele>
        <time>2021-08-22T09:29:32.558Z</time>
      </trkpt>
      <trkpt lat="41.15488" lon="30.29557">
        <ele>21.758715</ele>
        <time>2021-08-22T09:29:34.838Z</time>
      </trkpt>
      <trkpt lat="41.15506" lon="30.29515">
        <ele>20.666056</ele>
        <time>2021-08-22T09:29:42.727Z</time>
      </trkpt>
      <trkpt lat="41.15541" lon="30.29433">
        <ele>18.510508</ele>
        <time>2021-08-22T09:29:58.505Z</time>
      </trkpt>
      <trkpt lat="41.15563" lon="30.29378">
        <ele>17.098388</ele>
        <time>2021-08-22T09:30:09.437Z</time>
      </trkpt>
      <trkpt lat="41.1557" lon="30.29342">
        <ele>16.446177</ele>
        <time>2021-08-22T09:30:16.524Z</time>
      </trkpt>
      <trkpt lat="41.15573" lon="30.29328">
        <ele>16.507465</ele>
        <time>2021-08-22T09:30:19.909Z</time>
      </trkpt>
      <trkpt lat="41.15576" lon="30.29315">
        <ele>16.560133</ele>
        <time>2021-08-22T09:30:22.513Z</time>
      </trkpt>
      <trkpt lat="41.15579" lon="30.29303">
        <ele>16.61422</ele>
        <time>2021-08-22T09:30:25.193Z</time>
      </trkpt>
      <trkpt lat="41.15599" lon="30.29213">
        <ele>17.006458</ele>
        <time>2021-08-22T09:30:49.796Z</time>
      </trkpt>
      <trkpt lat="41.15601" lon="30.29207">
        <ele>17.034341</ele>
        <time>2021-08-22T09:30:51.575Z</time>
      </trkpt>
      <trkpt lat="41.15618" lon="30.2915">
        <ele>17.288235</ele>
        <time>2021-08-22T09:31:10.029Z</time>
      </trkpt>
      <trkpt lat="41.15637" lon="30.29088">
        <ele>17.635178</ele>
        <time>2021-08-22T09:31:31.878Z</time>
      </trkpt>
      <trkpt lat="41.15641" lon="30.29076">
        <ele>17.711257</ele>
        <time>2021-08-22T09:31:35.818Z</time>
      </trkpt>
      <trkpt lat="41.15652" lon="30.2904">
        <ele>17.944822</ele>
        <time>2021-08-22T09:31:47.899Z</time>
      </trkpt>
      <trkpt lat="41.15723" lon="30.28858">
        <ele>18.681704</ele>
        <time>2021-08-22T09:32:38.033Z</time>
      </trkpt>
      <trkpt lat="41.1576" lon="30.28787">
        <ele>18.442414</ele>
        <time>2021-08-22T09:32:55.523Z</time>
      </trkpt>
      <trkpt lat="41.15771" lon="30.28772">
        <ele>18.384832</ele>
        <time>2021-08-22T09:32:59.833Z</time>
      </trkpt>
      <trkpt lat="41.15782" lon="30.28756">
        <ele>18.324571</ele>
        <time>2021-08-22T09:33:04.568Z</time>
      </trkpt>
      <trkpt lat="41.15798" lon="30.28746">
        <ele>18.262495</ele>
        <time>2021-08-22T09:33:09.402Z</time>
      </trkpt>
      <trkpt lat="41.15826" lon="30.28729">
        <ele>18.29842</ele>
        <time>2021-08-22T09:33:18.961Z</time>
      </trkpt>
      <trkpt lat="41.15845" lon="30.28715">
        <ele>18.685611</ele>
        <time>2021-08-22T09:33:26.365Z</time>
      </trkpt>
      <trkpt lat="41.15859" lon="30.28705">
        <ele>18.947514</ele>
        <time>2021-08-22T09:33:31.288Z</time>
      </trkpt>
      <trkpt lat="41.15911" lon="30.28667">
        <ele>19.986558</ele>
        <time>2021-08-22T09:33:53.321Z</time>
      </trkpt>
      <trkpt lat="41.1601" lon="30.28578">
        <ele>22.973671</ele>
        <time>2021-08-22T09:34:53.052Z</time>
      </trkpt>
      <trkpt lat="41.16065" lon="30.28505">
        <ele>25.909759</ele>
        <time>2021-08-22T09:35:36.006Z</time>
      </trkpt>
      <trkpt lat="41.16096" lon="30.28451">
        <ele>27.848222</ele>
        <time>2021-08-22T09:36:02.501Z</time>
      </trkpt>
      <trkpt lat="41.16101" lon="30.28442">
        <ele>28.14476</ele>
        <time>2021-08-22T09:36:06.649Z</time>
      </trkpt>
      <trkpt lat="41.16115" lon="30.28411">
        <ele>28.917578</ele>
        <time>2021-08-22T09:36:20.391Z</time>
      </trkpt>
      <trkpt lat="41.16162" lon="30.28314">
        <ele>31.342951</ele>
        <time>2021-08-22T09:37:02.136Z</time>
      </trkpt>
      <trkpt lat="41.16174" lon="30.28296">
        <ele>31.840889</ele>
        <time>2021-08-22T09:37:09.962Z</time>
      </trkpt>
      <trkpt lat="41.1622" lon="30.28229">
        <ele>33.803887</ele>
        <time>2021-08-22T09:37:38.348Z</time>
      </trkpt>
      <trkpt lat="41.16265" lon="30.28129">
        <ele>36.467322</ele>
        <time>2021-08-22T09:38:18.455Z</time>
      </trkpt>
      <trkpt lat="41.1628" lon="30.28079">
        <ele>37.695948</ele>
        <time>2021-08-22T09:38:38.886Z</time>
      </trkpt>
      <trkpt lat="41.16293" lon="30.28041">
        <ele>38.666188</ele>
        <time>2021-08-22T09:38:55.797Z</time>
      </trkpt>
      <trkpt lat="41.16291" lon="30.28011">
        <ele>39.72855</ele>
        <time>2021-08-22T09:39:08.837Z</time>
      </trkpt>
      <trkpt lat="41.16284" lon="30.27986">
        <ele>40.663556</ele>
        <time>2021-08-22T09:39:20.319Z</time>
      </trkpt>
      <trkpt lat="41.16257" lon="30.27927">
        <ele>43.104353</ele>
        <time>2021-08-22T09:39:51.005Z</time>
      </trkpt>
      <trkpt lat="41.16247" lon="30.27889">
        <ele>44.52591</ele>
        <time>2021-08-22T09:40:08.915Z</time>
      </trkpt>
      <trkpt lat="41.1623" lon="30.27825">
        <ele>46.932165</ele>
        <time>2021-08-22T09:40:39.144Z</time>
      </trkpt>
      <trkpt lat="41.16214" lon="30.27753">
        <ele>48.812914</ele>
        <time>2021-08-22T09:41:11.236Z</time>
      </trkpt>
      <trkpt lat="41.16208" lon="30.27696">
        <ele>50.226841</ele>
        <time>2021-08-22T09:41:35.168Z</time>
      </trkpt>
      <trkpt lat="41.16214" lon="30.27653">
        <ele>51.315609</ele>
        <time>2021-08-22T09:41:52.034Z</time>
      </trkpt>
      <trkpt lat="41.16238" lon="30.27615">
        <ele>52.538203</ele>
        <time>2021-08-22T09:42:07.854Z</time>
      </trkpt>
      <trkpt lat="41.1633" lon="30.27531">
        <ele>52.084846</ele>
        <time>2021-08-22T09:42:41.257Z</time>
      </trkpt>
      <trkpt lat="41.16399" lon="30.27481">
        <ele>51.429028</ele>
        <time>2021-08-22T09:43:00.454Z</time>
      </trkpt>
      <trkpt lat="41.16432" lon="30.27449">
        <ele>50.859882</ele>
        <time>2021-08-22T09:43:10.511Z</time>
      </trkpt>
      <trkpt lat="41.16454" lon="30.27418">
        <ele>50.405356</ele>
        <time>2021-08-22T09:43:18.073Z</time>
      </trkpt>
      <trkpt lat="41.16466" lon="30.27401">
        <ele>50.152399</ele>
        <time>2021-08-22T09:43:22.476Z</time>
      </trkpt>
      <trkpt lat="41.16487" lon="30.27378">
        <ele>49.756959</ele>
        <time>2021-08-22T09:43:29.292Z</time>
      </trkpt>
      <trkpt lat="41.16513" lon="30.27365">
        <ele>49.36582</ele>
        <time>2021-08-22T09:43:36.193Z</time>
      </trkpt>
      <trkpt lat="41.1652" lon="30.2736">
        <ele>49.259106</ele>
        <time>2021-08-22T09:43:38.907Z</time>
      </trkpt>
      <trkpt lat="41.16529" lon="30.27353">
        <ele>49.103181</ele>
        <time>2021-08-22T09:43:41.899Z</time>
      </trkpt>
      <trkpt lat="41.16534" lon="30.27342">
        <ele>48.968832</ele>
        <time>2021-08-22T09:43:44.574Z</time>
      </trkpt>
      <trkpt lat="41.16541" lon="30.27325">
        <ele>49.04142</ele>
        <time>2021-08-22T09:43:49.863Z</time>
      </trkpt>
      <trkpt lat="41.16543" lon="30.2731">
        <ele>49.334211</ele>
        <time>2021-08-22T09:43:53.693Z</time>
      </trkpt>
      <trkpt lat="41.16548" lon="30.27267">
        <ele>50.119819</ele>
        <time>2021-08-22T09:44:06.511Z</time>
      </trkpt>
      <trkpt lat="41.16542" lon="30.27226">
        <ele>50.891065</ele>
        <time>2021-08-22T09:44:20.831Z</time>
      </trkpt>
      <trkpt lat="41.16541" lon="30.27222">
        <ele>50.970231</ele>
        <time>2021-08-22T09:44:22.131Z</time>
      </trkpt>
      <trkpt lat="41.16534" lon="30.27204">
        <ele>51.335961</ele>
        <time>2021-08-22T09:44:28.501Z</time>
      </trkpt>
      <trkpt lat="41.16526" lon="30.27183">
        <ele>51.774834</ele>
        <time>2021-08-22T09:44:37.284Z</time>
      </trkpt>
      <trkpt lat="41.16515" lon="30.27154">
        <ele>52.358918</ele>
        <time>2021-08-22T09:44:48.805Z</time>
      </trkpt>
      <trkpt lat="41.16513" lon="30.27149">
        <ele>52.46154</ele>
        <time>2021-08-22T09:44:51.146Z</time>
      </trkpt>
      <trkpt lat="41.16479" lon="30.27057">
        <ele>55.641343</ele>
        <time>2021-08-22T09:45:34.614Z</time>
      </trkpt>
      <trkpt lat="41.16459" lon="30.27014">
        <ele>57.6414</ele>
        <time>2021-08-22T09:45:58.934Z</time>
      </trkpt>
      <trkpt lat="41.16444" lon="30.2699">
        <ele>58.907789</ele>
        <time>2021-08-22T09:46:14.200Z</time>
      </trkpt>
      <trkpt lat="41.16427" lon="30.26964">
        <ele>60.266421</ele>
        <time>2021-08-22T09:46:31.858Z</time>
      </trkpt>
      <trkpt lat="41.16412" lon="30.26942">
        <ele>61.427613</ele>
        <time>2021-08-22T09:46:45.672Z</time>
      </trkpt>
      <trkpt lat="41.164" lon="30.26918">
        <ele>62.590529</ele>
        <time>2021-08-22T09:46:59.322Z</time>
      </trkpt>
      <trkpt lat="41.16386" lon="30.26889">
        <ele>63.456428</ele>
        <time>2021-08-22T09:47:14.677Z</time>
      </trkpt>
      <trkpt lat="41.16366" lon="30.26835">
        <ele>64.853901</ele>
        <time>2021-08-22T09:47:39.727Z</time>
      </trkpt>
      <trkpt lat="41.16361" lon="30.26791">
        <ele>65.886999</ele>
        <time>2021-08-22T09:47:56.876Z</time>
      </trkpt>
      <trkpt lat="41.16368" lon="30.26763">
        <ele>66.557568</ele>
        <time>2021-08-22T09:48:07.025Z</time>
      </trkpt>
      <trkpt lat="41.16382" lon="30.26709">
        <ele>67.869219</ele>
        <time>2021-08-22T09:48:24.151Z</time>
      </trkpt>
      <trkpt lat="41.16408" lon="30.26603">
        <ele>68.032503</ele>
        <time>2021-08-22T09:48:50.604Z</time>
      </trkpt>
      <trkpt lat="41.16422" lon="30.26523">
        <ele>67.814646</ele>
        <time>2021-08-22T09:49:07.196Z</time>
      </trkpt>
      <trkpt lat="41.16424" lon="30.26516">
        <ele>67.79568</ele>
        <time>2021-08-22T09:49:08.712Z</time>
      </trkpt>
      <trkpt lat="41.16432" lon="30.26475">
        <ele>67.681105</ele>
        <time>2021-08-22T09:49:17.602Z</time>
      </trkpt>
      <trkpt lat="41.16442" lon="30.26398">
        <ele>67.556244</ele>
        <time>2021-08-22T09:49:34.476Z</time>
      </trkpt>
      <trkpt lat="41.16446" lon="30.26367">
        <ele>67.511244</ele>
        <time>2021-08-22T09:49:41.695Z</time>
      </trkpt>
      <trkpt lat="41.16454" lon="30.2631">
        <ele>67.430504</ele>
        <time>2021-08-22T09:49:55.793Z</time>
      </trkpt>
      <trkpt lat="41.16463" lon="30.26267">
        <ele>67.368392</ele>
        <time>2021-08-22T09:50:06.564Z</time>
      </trkpt>
      <trkpt lat="41.16464" lon="30.2626">
        <ele>67.359088</ele>
        <time>2021-08-22T09:50:08.382Z</time>
      </trkpt>
      <trkpt lat="41.16525" lon="30.26128">
        <ele>66.877138</ele>
        <time>2021-08-22T09:50:43.407Z</time>
      </trkpt>
      <trkpt lat="41.16548" lon="30.26078">
        <ele>66.666267</ele>
        <time>2021-08-22T09:50:56.339Z</time>
      </trkpt>
      <trkpt lat="41.16566" lon="30.26029">
        <ele>66.474919</ele>
        <time>2021-08-22T09:51:07.626Z</time>
      </trkpt>
      <trkpt lat="41.16595" lon="30.25874">
        <ele>64.027959</ele>
        <time>2021-08-22T09:51:38.559Z</time>
      </trkpt>
      <trkpt lat="41.16602" lon="30.25741">
        <ele>61.639066</ele>
        <time>2021-08-22T09:52:01.259Z</time>
      </trkpt>
      <trkpt lat="41.16591" lon="30.25655">
        <ele>59.708801</ele>
        <time>2021-08-22T09:52:16.714Z</time>
      </trkpt>
      <trkpt lat="41.16589" lon="30.25648">
        <ele>59.54101</ele>
        <time>2021-08-22T09:52:17.849Z</time>
      </trkpt>
      <trkpt lat="41.16579" lon="30.25609">
        <ele>58.635099</ele>
        <time>2021-08-22T09:52:25.381Z</time>
      </trkpt>
      <trkpt lat="41.1657" lon="30.25574">
        <ele>57.817717</ele>
        <time>2021-08-22T09:52:31.925Z</time>
      </trkpt>
      <trkpt lat="41.16529" lon="30.25481">
        <ele>56.248525</ele>
        <time>2021-08-22T09:52:51.172Z</time>
      </trkpt>
      <trkpt lat="41.16488" lon="30.25405">
        <ele>54.99597</ele>
        <time>2021-08-22T09:53:09.732Z</time>
      </trkpt>
      <trkpt lat="41.16465" lon="30.25363">
        <ele>54.3109</ele>
        <time>2021-08-22T09:53:20.424Z</time>
      </trkpt>
      <trkpt lat="41.16451" lon="30.25314">
        <ele>53.285556</ele>
        <time>2021-08-22T09:53:30.655Z</time>
      </trkpt>
      <trkpt lat="41.16446" lon="30.25268">
        <ele>52.369831</ele>
        <time>2021-08-22T09:53:39.112Z</time>
      </trkpt>
      <trkpt lat="41.16447" lon="30.25143">
        <ele>49.902563</ele>
        <time>2021-08-22T09:54:00.680Z</time>
      </trkpt>
      <trkpt lat="41.16447" lon="30.2511">
        <ele>49.135947</ele>
        <time>2021-08-22T09:54:06.180Z</time>
      </trkpt>
      <trkpt lat="41.16458" lon="30.2501">
        <ele>46.444354</ele>
        <time>2021-08-22T09:54:23.038Z</time>
      </trkpt>
      <trkpt lat="41.16461" lon="30.24976">
        <ele>45.520072</ele>
        <time>2021-08-22T09:54:28.738Z</time>
      </trkpt>
      <trkpt lat="41.16488" lon="30.24791">
        <ele>41.77012</ele>
        <time>2021-08-22T09:55:01.427Z</time>
      </trkpt>
      <trkpt lat="41.1649" lon="30.24781">
        <ele>41.622792</ele>
        <time>2021-08-22T09:55:03.465Z</time>
      </trkpt>
      <trkpt lat="41.16492" lon="30.24765">
        <ele>41.400934</ele>
        <time>2021-08-22T09:55:06.555Z</time>
      </trkpt>
      <trkpt lat="41.16494" lon="30.24747">
        <ele>41.138972</ele>
        <time>2021-08-22T09:55:10.213Z</time>
      </trkpt>
      <trkpt lat="41.16499" lon="30.24699">
        <ele>40.464543</ele>
        <time>2021-08-22T09:55:19.888Z</time>
      </trkpt>
      <trkpt lat="41.16501" lon="30.24673">
        <ele>40.096211</ele>
        <time>2021-08-22T09:55:25.346Z</time>
      </trkpt>
      <trkpt lat="41.16505" lon="30.2464">
        <ele>39.887565</ele>
        <time>2021-08-22T09:55:32.405Z</time>
      </trkpt>
      <trkpt lat="41.16505" lon="30.24632">
        <ele>39.91288</ele>
        <time>2021-08-22T09:55:34.052Z</time>
      </trkpt>
      <trkpt lat="41.16508" lon="30.24609">
        <ele>39.99359</ele>
        <time>2021-08-22T09:55:39.203Z</time>
      </trkpt>
      <trkpt lat="41.16517" lon="30.24516">
        <ele>40.304962</ele>
        <time>2021-08-22T09:56:01.130Z</time>
      </trkpt>
      <trkpt lat="41.16517" lon="30.24479">
        <ele>40.430931</ele>
        <time>2021-08-22T09:56:11.295Z</time>
      </trkpt>
      <trkpt lat="41.16518" lon="30.24431">
        <ele>40.590393</ele>
        <time>2021-08-22T09:56:25.181Z</time>
      </trkpt>
      <trkpt lat="41.16518" lon="30.24406">
        <ele>40.84324</ele>
        <time>2021-08-22T09:56:32.868Z</time>
      </trkpt>
      <trkpt lat="41.16518" lon="30.24392">
        <ele>41.115664</ele>
        <time>2021-08-22T09:56:37.401Z</time>
      </trkpt>
      <trkpt lat="41.16519" lon="30.24341">
        <ele>42.071888</ele>
        <time>2021-08-22T09:56:55.095Z</time>
      </trkpt>
      <trkpt lat="41.16523" lon="30.24306">
        <ele>42.729088</ele>
        <time>2021-08-22T09:57:07.748Z</time>
      </trkpt>
      <trkpt lat="41.16538" lon="30.24201">
        <ele>44.734391</ele>
        <time>2021-08-22T09:57:45.472Z</time>
      </trkpt>
      <trkpt lat="41.16544" lon="30.24158">
        <ele>45.172687</ele>
        <time>2021-08-22T09:58:01.066Z</time>
      </trkpt>
      <trkpt lat="41.16551" lon="30.24114">
        <ele>45.261791</ele>
        <time>2021-08-22T09:58:16.061Z</time>
      </trkpt>
      <trkpt lat="41.16553" lon="30.24089">
        <ele>45.312365</ele>
        <time>2021-08-22T09:58:23.588Z</time>
      </trkpt>
      <trkpt lat="41.16556" lon="30.24022">
        <ele>45.44534</ele>
        <time>2021-08-22T09:58:40.630Z</time>
      </trkpt>
      <trkpt lat="41.16574" lon="30.23932">
        <ele>45.293724</ele>
        <time>2021-08-22T09:58:58.039Z</time>
      </trkpt>
      <trkpt lat="41.16577" lon="30.23922">
        <ele>45.073794</ele>
        <time>2021-08-22T09:58:59.837Z</time>
      </trkpt>
      <trkpt lat="41.16584" lon="30.23892">
        <ele>44.406844</ele>
        <time>2021-08-22T09:59:05.285Z</time>
      </trkpt>
      <trkpt lat="41.1659" lon="30.23865">
        <ele>43.822538</ele>
        <time>2021-08-22T09:59:09.973Z</time>
      </trkpt>
      <trkpt lat="41.16608" lon="30.23789">
        <ele>42.159583</ele>
        <time>2021-08-22T09:59:23.415Z</time>
      </trkpt>
      <trkpt lat="41.16619" lon="30.23734">
        <ele>40.971039</ele>
        <time>2021-08-22T09:59:33.491Z</time>
      </trkpt>
      <trkpt lat="41.16623" lon="30.23647">
        <ele>40.279494</ele>
        <time>2021-08-22T09:59:50.043Z</time>
      </trkpt>
      <trkpt lat="41.16624" lon="30.23637">
        <ele>40.236009</ele>
        <time>2021-08-22T09:59:52.098Z</time>
      </trkpt>
      <trkpt lat="41.16624" lon="30.23627">
        <ele>40.188385</ele>
        <time>2021-08-22T09:59:54.320Z</time>
      </trkpt>
      <trkpt lat="41.16625" lon="30.23619">
        <ele>40.15116</ele>
        <time>2021-08-22T09:59:56.121Z</time>
      </trkpt>
      <trkpt lat="41.16641" lon="30.23504">
        <ele>39.624562</ele>
        <time>2021-08-22T10:00:23.951Z</time>
      </trkpt>
      <trkpt lat="41.16654" lon="30.23381">
        <ele>39.166768</ele>
        <time>2021-08-22T10:00:55.369Z</time>
      </trkpt>
      <trkpt lat="41.16678" lon="30.23265">
        <ele>38.751355</ele>
        <time>2021-08-22T10:01:20.205Z</time>
      </trkpt>
      <trkpt lat="41.16709" lon="30.23157">
        <ele>36.888495</ele>
        <time>2021-08-22T10:01:42.683Z</time>
      </trkpt>
      <trkpt lat="41.1674" lon="30.23083">
        <ele>35.33204</ele>
        <time>2021-08-22T10:01:57.804Z</time>
      </trkpt>
      <trkpt lat="41.16709" lon="30.23157">
        <ele>32.997883</ele>
        <time>2021-08-22T10:02:11.957Z</time>
      </trkpt>
      <trkpt lat="41.16682" lon="30.23187">
        <ele>30.774557</ele>
        <time>2021-08-22T10:02:19.506Z</time>
      </trkpt>
      <trkpt lat="41.16638" lon="30.23204">
        <ele>27.863442</ele>
        <time>2021-08-22T10:02:28.990Z</time>
      </trkpt>
      <trkpt lat="41.16581" lon="30.23208">
        <ele>24.261095</ele>
        <time>2021-08-22T10:02:40.206Z</time>
      </trkpt>
      <trkpt lat="41.16574" lon="30.23112">
        <ele>19.006672</ele>
        <time>2021-08-22T10:02:55.055Z</time>
      </trkpt>
      <trkpt lat="41.16521" lon="30.23115">
        <ele>14.943638</ele>
        <time>2021-08-22T10:03:05.942Z</time>
      </trkpt>
      <trkpt lat="41.16518" lon="30.23115">
        <ele>14.707247</ele>
        <time>2021-08-22T10:03:06.534Z</time>
      </trkpt>
      <trkpt lat="41.16454" lon="30.23098">
        <ele>9.76826</ele>
        <time>2021-08-22T10:03:20.253Z</time>
      </trkpt>
      <trkpt lat="41.16444" lon="30.23095">
        <ele>9.113946</ele>
        <time>2021-08-22T10:03:22.438Z</time>
      </trkpt>
      <trkpt lat="41.16397" lon="30.23097">
        <ele>7.461763</ele>
        <time>2021-08-22T10:03:32.698Z</time>
      </trkpt>
      <trkpt lat="41.16392" lon="30.23079">
        <ele>6.957055</ele>
        <time>2021-08-22T10:03:36.035Z</time>
      </trkpt>
      <trkpt lat="41.16389" lon="30.23066">
        <ele>6.605624</ele>
        <time>2021-08-22T10:03:38.193Z</time>
      </trkpt>
      <trkpt lat="41.1639" lon="30.22969">
        <ele>4.024892</ele>
        <time>2021-08-22T10:03:56.224Z</time>
      </trkpt>
      <trkpt lat="41.1637" lon="30.2297">
        <ele>3.327793</ele>
        <time>2021-08-22T10:04:01.294Z</time>
      </trkpt>
      <trkpt lat="41.16305" lon="30.22966">
        <ele>2.586624</ele>
        <time>2021-08-22T10:04:20.142Z</time>
      </trkpt>
      <trkpt lat="41.16234" lon="30.22966">
        <ele>2.188365</ele>
        <time>2021-08-22T10:04:42.045Z</time>
      </trkpt>
      <trkpt lat="41.1618" lon="30.22965">
        <ele>1.891198</ele>
        <time>2021-08-22T10:04:58.865Z</time>
      </trkpt>
      <trkpt lat="41.16178" lon="30.22946">
        <ele>1.903643</ele>
        <time>2021-08-22T10:05:03.612Z</time>
      </trkpt>
      <trkpt lat="41.16166" lon="30.2289">
        <ele>1.989733</ele>
        <time>2021-08-22T10:05:18.620Z</time>
      </trkpt>
      <trkpt lat="41.16164" lon="30.22879">
        <ele>2.005775</ele>
        <time>2021-08-22T10:05:21.378Z</time>
      </trkpt>
      <trkpt lat="41.1616" lon="30.22862">
        <ele>2.032972</ele>
        <time>2021-08-22T10:05:26.020Z</time>
      </trkpt>
      <trkpt lat="41.16149" lon="30.22819">
        <ele>2.099032</ele>
        <time>2021-08-22T10:05:37.524Z</time>
      </trkpt>
      <trkpt lat="41.16146" lon="30.22798">
        <ele>2.130865</ele>
        <time>2021-08-22T10:05:43.234Z</time>
      </trkpt>
      <trkpt lat="41.16145" lon="30.22778">
        <ele>2.160138</ele>
        <time>2021-08-22T10:05:48.247Z</time>
      </trkpt>
      <trkpt lat="41.16139" lon="30.22733">
        <ele>2.226617</ele>
        <time>2021-08-22T10:05:59.984Z</time>
      </trkpt>
      <trkpt lat="41.16135" lon="30.22719">
        <ele>2.289028</ele>
        <time>2021-08-22T10:06:03.774Z</time>
      </trkpt>
      <trkpt lat="41.16134" lon="30.22716">
        <ele>2.303824</ele>
        <time>2021-08-22T10:06:04.618Z</time>
      </trkpt>
      <trkpt lat="41.16121" lon="30.22688">
        <ele>2.463519</ele>
        <time>2021-08-22T10:06:13.168Z</time>
      </trkpt>
      <trkpt lat="41.16119" lon="30.22684">
        <ele>2.485431</ele>
        <time>2021-08-22T10:06:14.319Z</time>
      </trkpt>
      <trkpt lat="41.16082" lon="30.22646">
        <ele>2.77776</ele>
        <time>2021-08-22T10:06:30.679Z</time>
      </trkpt>
      <trkpt lat="41.16079" lon="30.22642">
        <ele>2.80471</ele>
        <time>2021-08-22T10:06:32.269Z</time>
      </trkpt>
      <trkpt lat="41.16045" lon="30.22607">
        <ele>3.076857</ele>
        <time>2021-08-22T10:06:48.161Z</time>
      </trkpt>
      <trkpt lat="41.16006" lon="30.22566">
        <ele>3.422645</ele>
        <time>2021-08-22T10:07:06.685Z</time>
      </trkpt>
      <trkpt lat="41.1593" lon="30.22456">
        <ele>4.943954</ele>
        <time>2021-08-22T10:07:50.769Z</time>
      </trkpt>
      <trkpt lat="41.15923" lon="30.22446">
        <ele>5.087626</ele>
        <time>2021-08-22T10:07:55.064Z</time>
      </trkpt>
      <trkpt lat="41.15918" lon="30.22438">
        <ele>5.191052</ele>
        <time>2021-08-22T10:07:58.109Z</time>
      </trkpt>
      <trkpt lat="41.15883" lon="30.22386">
        <ele>5.967448</ele>
        <time>2021-08-22T10:08:20.279Z</time>
      </trkpt>
      <trkpt lat="41.15825" lon="30.22309">
        <ele>7.6793</ele>
        <time>2021-08-22T10:08:55.129Z</time>
      </trkpt>
      <trkpt lat="41.1579" lon="30.22265">
        <ele>8.700899</ele>
        <time>2021-08-22T10:09:16.549Z</time>
      </trkpt>
      <trkpt lat="41.15765" lon="30.22216">
        <ele>9.650202</ele>
        <time>2021-08-22T10:09:37.175Z</time>
      </trkpt>
      <trkpt lat="41.15778" lon="30.2219">
        <ele>10.395449</ele>
        <time>2021-08-22T10:09:48.664Z</time>
      </trkpt>
      <trkpt lat="41.15825" lon="30.22127">
        <ele>12.503961</ele>
        <time>2021-08-22T10:10:21.740Z</time>
      </trkpt>
      <trkpt lat="41.15786" lon="30.22052">
        <ele>14.688327</ele>
        <time>2021-08-22T10:10:56.479Z</time>
      </trkpt>
      <trkpt lat="41.15747" lon="30.21988">
        <ele>16.660661</ele>
        <time>2021-08-22T10:11:28.206Z</time>
      </trkpt>
      <trkpt lat="41.15698" lon="30.21893">
        <ele>19.464675</ele>
        <time>2021-08-22T10:12:12.811Z</time>
      </trkpt>
      <trkpt lat="41.15682" lon="30.21874">
        <ele>20.163376</ele>
        <time>2021-08-22T10:12:22.934Z</time>
      </trkpt>
      <trkpt lat="41.15629" lon="30.21846">
        <ele>21.479326</ele>
        <time>2021-08-22T10:12:48.384Z</time>
      </trkpt>
      <trkpt lat="41.15619" lon="30.2183">
        <ele>21.71086</ele>
        <time>2021-08-22T10:12:55.197Z</time>
      </trkpt>
      <trkpt lat="41.15612" lon="30.21803">
        <ele>22.021958</ele>
        <time>2021-08-22T10:13:04.219Z</time>
      </trkpt>
      <trkpt lat="41.15576" lon="30.21419">
        <ele>24.9359</ele>
        <time>2021-08-22T10:14:49.742Z</time>
      </trkpt>
      <trkpt lat="41.15542" lon="30.20962">
        <ele>23.862957</ele>
        <time>2021-08-22T10:16:32.090Z</time>
      </trkpt>
      <trkpt lat="41.15497" lon="30.20517">
        <ele>20.000804</ele>
        <time>2021-08-22T10:17:59.469Z</time>
      </trkpt>
      <trkpt lat="41.15486" lon="30.20379">
        <ele>20.079275</ele>
        <time>2021-08-22T10:18:36.122Z</time>
      </trkpt>
      <trkpt lat="41.15437" lon="30.19838">
        <ele>21.840992</ele>
        <time>2021-08-22T10:20:59.639Z</time>
      </trkpt>
      <trkpt lat="41.15433" lon="30.198">
        <ele>21.820167</ele>
        <time>2021-08-22T10:21:07.677Z</time>
      </trkpt>
      <trkpt lat="41.15387" lon="30.19798">
        <ele>21.363676</ele>
        <time>2021-08-22T10:21:19.889Z</time>
      </trkpt>
      <trkpt lat="41.15333" lon="30.19804">
        <ele>19.415863</ele>
        <time>2021-08-22T10:21:32.796Z</time>
      </trkpt>
      <trkpt lat="41.15325" lon="30.19797">
        <ele>19.059409</ele>
        <time>2021-08-22T10:21:34.881Z</time>
      </trkpt>
      <trkpt lat="41.15302" lon="30.19756">
        <ele>17.684173</ele>
        <time>2021-08-22T10:21:44.047Z</time>
      </trkpt>
      <trkpt lat="41.15287" lon="30.1974">
        <ele>16.992629</ele>
        <time>2021-08-22T10:21:48.874Z</time>
      </trkpt>
      <trkpt lat="41.15242" lon="30.19721">
        <ele>15.297743</ele>
        <time>2021-08-22T10:21:58.999Z</time>
      </trkpt>
      <trkpt lat="41.1519" lon="30.19726">
        <ele>13.552411</ele>
        <time>2021-08-22T10:22:10.175Z</time>
      </trkpt>
      <trkpt lat="41.15158" lon="30.19745">
        <ele>12.378979</ele>
        <time>2021-08-22T10:22:18.005Z</time>
      </trkpt>
      <trkpt lat="41.15135" lon="30.1977">
        <ele>11.378339</ele>
        <time>2021-08-22T10:22:24.946Z</time>
      </trkpt>
      <trkpt lat="41.15111" lon="30.19737">
        <ele>10.245816</ele>
        <time>2021-08-22T10:22:33.652Z</time>
      </trkpt>
      <trkpt lat="41.15102" lon="30.19722">
        <ele>9.747879</ele>
        <time>2021-08-22T10:22:38.099Z</time>
      </trkpt>
      <trkpt lat="41.15091" lon="30.19715">
        <ele>9.342781</ele>
        <time>2021-08-22T10:22:42.328Z</time>
      </trkpt>
      <trkpt lat="41.15079" lon="30.19714">
        <ele>9.6294</ele>
        <time>2021-08-22T10:22:46.675Z</time>
      </trkpt>
      <trkpt lat="41.15075" lon="30.19707">
        <ele>9.818122</ele>
        <time>2021-08-22T10:22:49.030Z</time>
      </trkpt>
      <trkpt lat="41.15052" lon="30.19658">
        <ele>11.089023</ele>
        <time>2021-08-22T10:23:07.816Z</time>
      </trkpt>
      <trkpt lat="41.15003" lon="30.19555">
        <ele>13.764832</ele>
        <time>2021-08-22T10:23:57.587Z</time>
      </trkpt>
      <trkpt lat="41.14985" lon="30.19562">
        <ele>14.326756</ele>
        <time>2021-08-22T10:24:07.926Z</time>
      </trkpt>
      <trkpt lat="41.14971" lon="30.19554">
        <ele>14.788447</ele>
        <time>2021-08-22T10:24:17.351Z</time>
      </trkpt>
      <trkpt lat="41.15006" lon="30.19474">
        <ele>17.235368</ele>
        <time>2021-08-22T10:25:11.958Z</time>
      </trkpt>
      <trkpt lat="41.15006" lon="30.19453">
        <ele>17.806268</ele>
        <time>2021-08-22T10:25:23.693Z</time>
      </trkpt>
      <trkpt lat="41.14994" lon="30.19431">
        <ele>18.523345</ele>
        <time>2021-08-22T10:25:38.802Z</time>
      </trkpt>
      <trkpt lat="41.14915" lon="30.19388">
        <ele>21.160923</ele>
        <time>2021-08-22T10:26:33.891Z</time>
      </trkpt>
      <trkpt lat="41.14879" lon="30.19371">
        <ele>21.72441</ele>
        <time>2021-08-22T10:26:56.813Z</time>
      </trkpt>
      <trkpt lat="41.14791" lon="30.19357">
        <ele>23.005302</ele>
        <time>2021-08-22T10:27:48.349Z</time>
      </trkpt>
      <trkpt lat="41.14731" lon="30.19341">
        <ele>23.819812</ele>
        <time>2021-08-22T10:28:25.177Z</time>
      </trkpt>
      <trkpt lat="41.14695" lon="30.19318">
        <ele>24.273047</ele>
        <time>2021-08-22T10:28:48.761Z</time>
      </trkpt>
      <trkpt lat="41.14668" lon="30.19293">
        <ele>24.641188</ele>
        <time>2021-08-22T10:29:07.780Z</time>
      </trkpt>
      <trkpt lat="41.14624" lon="30.1921">
        <ele>25.508972</ele>
        <time>2021-08-22T10:29:52.181Z</time>
      </trkpt>
      <trkpt lat="41.14561" lon="30.19137">
        <ele>25.537453</ele>
        <time>2021-08-22T10:30:38.937Z</time>
      </trkpt>
      <trkpt lat="41.14534" lon="30.19091">
        <ele>25.520655</ele>
        <time>2021-08-22T10:31:01.723Z</time>
      </trkpt>
      <trkpt lat="41.1452" lon="30.19053">
        <ele>25.508549</ele>
        <time>2021-08-22T10:31:17.335Z</time>
      </trkpt>
      <trkpt lat="41.14525" lon="30.18955">
        <ele>23.989033</ele>
        <time>2021-08-22T10:31:51.553Z</time>
      </trkpt>
      <trkpt lat="41.14516" lon="30.18919">
        <ele>23.096554</ele>
        <time>2021-08-22T10:32:03.912Z</time>
      </trkpt>
      <trkpt lat="41.14488" lon="30.1889">
        <ele>21.993101</ele>
        <time>2021-08-22T10:32:18.414Z</time>
      </trkpt>
      <trkpt lat="41.14428" lon="30.18844">
        <ele>19.819817</ele>
        <time>2021-08-22T10:32:45.559Z</time>
      </trkpt>
      <trkpt lat="41.14371" lon="30.1881">
        <ele>16.985573</ele>
        <time>2021-08-22T10:33:09.152Z</time>
      </trkpt>
      <trkpt lat="41.1435" lon="30.18762">
        <ele>15.08544</ele>
        <time>2021-08-22T10:33:25.281Z</time>
      </trkpt>
      <trkpt lat="41.14341" lon="30.1871">
        <ele>13.25183</ele>
        <time>2021-08-22T10:33:41.103Z</time>
      </trkpt>
      <trkpt lat="41.14344" lon="30.18691">
        <ele>12.603058</ele>
        <time>2021-08-22T10:33:46.617Z</time>
      </trkpt>
      <trkpt lat="41.1436" lon="30.18673">
        <ele>11.752768</ele>
        <time>2021-08-22T10:33:55.555Z</time>
      </trkpt>
      <trkpt lat="41.14455" lon="30.18666">
        <ele>11.486909</ele>
        <time>2021-08-22T10:34:38.131Z</time>
      </trkpt>
      <trkpt lat="41.14626" lon="30.18601">
        <ele>14.479538</ele>
        <time>2021-08-22T10:36:31.089Z</time>
      </trkpt>
      <trkpt lat="41.14649" lon="30.18557">
        <ele>15.850106</ele>
        <time>2021-08-22T10:37:01.910Z</time>
      </trkpt>
      <trkpt lat="41.14659" lon="30.18544">
        <ele>16.303852</ele>
        <time>2021-08-22T10:37:12.403Z</time>
      </trkpt>
      <trkpt lat="41.14669" lon="30.18541">
        <ele>16.659307</ele>
        <time>2021-08-22T10:37:20.649Z</time>
      </trkpt>
      <trkpt lat="41.14698" lon="30.18538">
        <ele>17.915433</ele>
        <time>2021-08-22T10:37:43.993Z</time>
      </trkpt>
      <trkpt lat="41.14719" lon="30.18544">
        <ele>19.295991</ele>
        <time>2021-08-22T10:38:01.974Z</time>
      </trkpt>
      <trkpt lat="41.14786" lon="30.18597">
        <ele>24.210724</ele>
        <time>2021-08-22T10:39:09.116Z</time>
      </trkpt>
      <trkpt lat="41.14797" lon="30.18594">
        <ele>24.915618</ele>
        <time>2021-08-22T10:39:19.086Z</time>
      </trkpt>
      <trkpt lat="41.14803" lon="30.18583">
        <ele>25.57091</ele>
        <time>2021-08-22T10:39:28.410Z</time>
      </trkpt>
      <trkpt lat="41.14802" lon="30.18568">
        <ele>26.276202</ele>
        <time>2021-08-22T10:39:38.511Z</time>
      </trkpt>
      <trkpt lat="41.1474" lon="30.18461">
        <ele>32.906902</ele>
        <time>2021-08-22T10:41:15.191Z</time>
      </trkpt>
      <trkpt lat="41.14707" lon="30.18396">
        <ele>36.834076</ele>
        <time>2021-08-22T10:42:08.127Z</time>
      </trkpt>
      <trkpt lat="41.14704" lon="30.18352">
        <ele>39.071118</ele>
        <time>2021-08-22T10:42:37.210Z</time>
      </trkpt>
      <trkpt lat="41.14714" lon="30.18313">
        <ele>40.939733</ele>
        <time>2021-08-22T10:43:03.147Z</time>
      </trkpt>
      <trkpt lat="41.14713" lon="30.1824">
        <ele>43.244493</ele>
        <time>2021-08-22T10:43:46.731Z</time>
      </trkpt>
      <trkpt lat="41.14703" lon="30.18173">
        <ele>45.425041</ele>
        <time>2021-08-22T10:44:26.429Z</time>
      </trkpt>
      <trkpt lat="41.14686" lon="30.18122">
        <ele>47.226331</ele>
        <time>2021-08-22T10:44:55.516Z</time>
      </trkpt>
      <trkpt lat="41.14657" lon="30.18052">
        <ele>49.385684</ele>
        <time>2021-08-22T10:45:36.535Z</time>
      </trkpt>
      <trkpt lat="41.14605" lon="30.17972">
        <ele>51.905172</ele>
        <time>2021-08-22T10:46:32.388Z</time>
      </trkpt>
      <trkpt lat="41.14583" lon="30.17894">
        <ele>53.904388</ele>
        <time>2021-08-22T10:47:16.605Z</time>
      </trkpt>
      <trkpt lat="41.14554" lon="30.1783">
        <ele>54.984346</ele>
        <time>2021-08-22T10:47:55.450Z</time>
      </trkpt>
      <trkpt lat="41.14547" lon="30.17753">
        <ele>56.086936</ele>
        <time>2021-08-22T10:48:32.925Z</time>
      </trkpt>
      <trkpt lat="41.14509" lon="30.17686">
        <ele>57.295833</ele>
        <time>2021-08-22T10:49:10.184Z</time>
      </trkpt>
      <trkpt lat="41.14491" lon="30.1762">
        <ele>56.353583</ele>
        <time>2021-08-22T10:49:36.882Z</time>
      </trkpt>
      <trkpt lat="41.14459" lon="30.17578">
        <ele>55.427818</ele>
        <time>2021-08-22T10:49:57.865Z</time>
      </trkpt>
      <trkpt lat="41.14436" lon="30.17528">
        <ele>54.544793</ele>
        <time>2021-08-22T10:50:16.288Z</time>
      </trkpt>
      <trkpt lat="41.14439" lon="30.17491">
        <ele>53.976447</ele>
        <time>2021-08-22T10:50:27.475Z</time>
      </trkpt>
      <trkpt lat="41.14451" lon="30.17456">
        <ele>52.769677</ele>
        <time>2021-08-22T10:50:38.598Z</time>
      </trkpt>
      <trkpt lat="41.14449" lon="30.1743">
        <ele>51.546746</ele>
        <time>2021-08-22T10:50:46.259Z</time>
      </trkpt>
      <trkpt lat="41.14426" lon="30.17392">
        <ele>49.304355</ele>
        <time>2021-08-22T10:50:59.998Z</time>
      </trkpt>
      <trkpt lat="41.14308" lon="30.17296">
        <ele>40.838331</ele>
        <time>2021-08-22T10:51:50.591Z</time>
      </trkpt>
      <trkpt lat="41.14273" lon="30.17244">
        <ele>37.640535</ele>
        <time>2021-08-22T10:52:09.802Z</time>
      </trkpt>
      <trkpt lat="41.14272" lon="30.17217">
        <ele>36.425249</ele>
        <time>2021-08-22T10:52:17.183Z</time>
      </trkpt>
      <trkpt lat="41.14278" lon="30.17206">
        <ele>35.791683</ele>
        <time>2021-08-22T10:52:21.057Z</time>
      </trkpt>
      <trkpt lat="41.14295" lon="30.17192">
        <ele>34.600181</ele>
        <time>2021-08-22T10:52:28.385Z</time>
      </trkpt>
      <trkpt lat="41.14356" lon="30.17189">
        <ele>31.310475</ele>
        <time>2021-08-22T10:52:51.775Z</time>
      </trkpt>
      <trkpt lat="41.14374" lon="30.17172">
        <ele>30.599612</ele>
        <time>2021-08-22T10:53:00.650Z</time>
      </trkpt>
      <trkpt lat="41.14385" lon="30.17134">
        <ele>29.636143</ele>
        <time>2021-08-22T10:53:12.913Z</time>
      </trkpt>
      <trkpt lat="41.14383" lon="30.17112">
        <ele>29.119636</ele>
        <time>2021-08-22T10:53:19.581Z</time>
      </trkpt>
      <trkpt lat="41.14352" lon="30.17067">
        <ele>27.665802</ele>
        <time>2021-08-22T10:53:38.817Z</time>
      </trkpt>
      <trkpt lat="41.14333" lon="30.17024">
        <ele>26.486658</ele>
        <time>2021-08-22T10:53:55.112Z</time>
      </trkpt>
      <trkpt lat="41.14267" lon="30.16968">
        <ele>26.070434</ele>
        <time>2021-08-22T10:54:33.037Z</time>
      </trkpt>
      <trkpt lat="41.14255" lon="30.16947">
        <ele>26.066287</ele>
        <time>2021-08-22T10:54:43.210Z</time>
      </trkpt>
      <trkpt lat="41.14264" lon="30.16923">
        <ele>26.061874</ele>
        <time>2021-08-22T10:54:54.320Z</time>
      </trkpt>
      <trkpt lat="41.1428" lon="30.16901">
        <ele>26.05693</ele>
        <time>2021-08-22T10:55:06.872Z</time>
      </trkpt>
      <trkpt lat="41.14331" lon="30.1684">
        <ele>26.269367</ele>
        <time>2021-08-22T10:55:45.876Z</time>
      </trkpt>
      <trkpt lat="41.14347" lon="30.16778">
        <ele>26.890151</ele>
        <time>2021-08-22T10:56:15.332Z</time>
      </trkpt>
      <trkpt lat="41.14342" lon="30.1672">
        <ele>27.45151</ele>
        <time>2021-08-22T10:56:42.069Z</time>
      </trkpt>
      <trkpt lat="41.14332" lon="30.16696">
        <ele>27.704141</ele>
        <time>2021-08-22T10:56:54.055Z</time>
      </trkpt>
      <trkpt lat="41.14312" lon="30.16668">
        <ele>28.076088</ele>
        <time>2021-08-22T10:57:11.297Z</time>
      </trkpt>
      <trkpt lat="41.14296" lon="30.16617">
        <ele>28.730219</ele>
        <time>2021-08-22T10:57:35.588Z</time>
      </trkpt>
      <trkpt lat="41.14294" lon="30.16588">
        <ele>29.124879</ele>
        <time>2021-08-22T10:57:48.141Z</time>
      </trkpt>
      <trkpt lat="41.14272" lon="30.16554">
        <ele>29.738407</ele>
        <time>2021-08-22T10:58:08.106Z</time>
      </trkpt>
      <trkpt lat="41.1423" lon="30.16534">
        <ele>30.566906</ele>
        <time>2021-08-22T10:58:36.085Z</time>
      </trkpt>
      <trkpt lat="41.14177" lon="30.16532">
        <ele>31.540287</ele>
        <time>2021-08-22T10:59:10.382Z</time>
      </trkpt>
      <trkpt lat="41.14054" lon="30.16567">
        <ele>34.80764</ele>
        <time>2021-08-22T11:00:37.584Z</time>
      </trkpt>
      <trkpt lat="41.14037" lon="30.16551">
        <ele>35.358765</ele>
        <time>2021-08-22T11:00:52.115Z</time>
      </trkpt>
      <trkpt lat="41.14033" lon="30.16534">
        <ele>35.699962</ele>
        <time>2021-08-22T11:01:00.955Z</time>
      </trkpt>
      <trkpt lat="41.1404" lon="30.16458">
        <ele>35.657811</ele>
        <time>2021-08-22T11:01:36.666Z</time>
      </trkpt>
      <trkpt lat="41.14035" lon="30.16421">
        <ele>35.069043</ele>
        <time>2021-08-22T11:01:51.842Z</time>
      </trkpt>
      <trkpt lat="41.14009" lon="30.16359">
        <ele>33.976648</ele>
        <time>2021-08-22T11:02:15.715Z</time>
      </trkpt>
      <trkpt lat="41.13971" lon="30.16304">
        <ele>32.817475</ele>
        <time>2021-08-22T11:02:38.042Z</time>
      </trkpt>
      <trkpt lat="41.13952" lon="30.16258">
        <ele>30.303693</ele>
        <time>2021-08-22T11:02:52.294Z</time>
      </trkpt>
      <trkpt lat="41.13956" lon="30.16239">
        <ele>29.130008</ele>
        <time>2021-08-22T11:02:57.529Z</time>
      </trkpt>
      <trkpt lat="41.13947" lon="30.16161">
        <ele>24.576965</ele>
        <time>2021-08-22T11:03:18.020Z</time>
      </trkpt>
      <trkpt lat="41.13927" lon="30.1609">
        <ele>20.205221</ele>
        <time>2021-08-22T11:03:37.911Z</time>
      </trkpt>
      <trkpt lat="41.13913" lon="30.1607">
        <ele>18.769747</ele>
        <time>2021-08-22T11:03:45.933Z</time>
      </trkpt>
      <trkpt lat="41.13896" lon="30.16067">
        <ele>18.499454</ele>
        <time>2021-08-22T11:03:52.063Z</time>
      </trkpt>
      <trkpt lat="41.13821" lon="30.16129">
        <ele>17.150525</ele>
        <time>2021-08-22T11:04:29.636Z</time>
      </trkpt>
      <trkpt lat="41.13775" lon="30.16141">
        <ele>16.421804</ele>
        <time>2021-08-22T11:04:54.778Z</time>
      </trkpt>
      <trkpt lat="41.13715" lon="30.16147">
        <ele>17.330665</ele>
        <time>2021-08-22T11:05:40.328Z</time>
      </trkpt>
      <trkpt lat="41.13673" lon="30.1614">
        <ele>18.883231</ele>
        <time>2021-08-22T11:06:14.484Z</time>
      </trkpt>
      <trkpt lat="41.13628" lon="30.16143">
        <ele>20.542328</ele>
        <time>2021-08-22T11:06:49.249Z</time>
      </trkpt>
      <trkpt lat="41.13592" lon="30.16136">
        <ele>21.851845</ele>
        <time>2021-08-22T11:07:15.038Z</time>
      </trkpt>
      <trkpt lat="41.13527" lon="30.1611">
        <ele>22.98601</ele>
        <time>2021-08-22T11:07:58.592Z</time>
      </trkpt>
      <trkpt lat="41.13465" lon="30.1606">
        <ele>23.559414</ele>
        <time>2021-08-22T11:08:37.883Z</time>
      </trkpt>
      <trkpt lat="41.13365" lon="30.16009">
        <ele>24.100318</ele>
        <time>2021-08-22T11:09:31.521Z</time>
      </trkpt>
      <trkpt lat="41.13324" lon="30.16015">
        <ele>24.163164</ele>
        <time>2021-08-22T11:09:53.398Z</time>
      </trkpt>
      <trkpt lat="41.13305" lon="30.16006">
        <ele>24.19265</ele>
        <time>2021-08-22T11:10:03.901Z</time>
      </trkpt>
      <trkpt lat="41.13297" lon="30.15998">
        <ele>24.209112</ele>
        <time>2021-08-22T11:10:09.941Z</time>
      </trkpt>
      <trkpt lat="41.13291" lon="30.15983">
        <ele>24.227832</ele>
        <time>2021-08-22T11:10:16.813Z</time>
      </trkpt>
      <trkpt lat="41.13298" lon="30.15924">
        <ele>24.296032</ele>
        <time>2021-08-22T11:10:42.153Z</time>
      </trkpt>
      <trkpt lat="41.13295" lon="30.15904">
        <ele>24.061534</ele>
        <time>2021-08-22T11:10:50.740Z</time>
      </trkpt>
      <trkpt lat="41.1325" lon="30.15788">
        <ele>22.076749</ele>
        <time>2021-08-22T11:11:39.298Z</time>
      </trkpt>
      <trkpt lat="41.13226" lon="30.15765">
        <ele>21.473414</ele>
        <time>2021-08-22T11:11:51.548Z</time>
      </trkpt>
      <trkpt lat="41.13174" lon="30.15739">
        <ele>19.660147</ele>
        <time>2021-08-22T11:12:12.811Z</time>
      </trkpt>
      <trkpt lat="41.13128" lon="30.15693">
        <ele>15.977795</ele>
        <time>2021-08-22T11:12:24.443Z</time>
      </trkpt>
      <trkpt lat="41.13142" lon="30.15697">
        <ele>15.057906</ele>
        <time>2021-08-22T11:12:27.230Z</time>
      </trkpt>
      <trkpt lat="41.13153" lon="30.15696">
        <ele>14.37414</ele>
        <time>2021-08-22T11:12:29.352Z</time>
      </trkpt>
      <trkpt lat="41.13181" lon="30.15671">
        <ele>12.196396</ele>
        <time>2021-08-22T11:12:36.007Z</time>
      </trkpt>
      <trkpt lat="41.13242" lon="30.15613">
        <ele>8.713327</ele>
        <time>2021-08-22T11:13:03.717Z</time>
      </trkpt>
      <trkpt lat="41.1328" lon="30.15578">
        <ele>8.090163</ele>
        <time>2021-08-22T11:13:22.115Z</time>
      </trkpt>
      <trkpt lat="41.13319" lon="30.15544">
        <ele>7.452372</ele>
        <time>2021-08-22T11:13:35.188Z</time>
      </trkpt>
      <trkpt lat="41.13412" lon="30.15465">
        <ele>8.249938</ele>
        <time>2021-08-22T11:14:49.916Z</time>
      </trkpt>
      <trkpt lat="41.13446" lon="30.15424">
        <ele>9.713775</ele>
        <time>2021-08-22T11:15:24.867Z</time>
      </trkpt>
      <trkpt lat="41.13458" lon="30.15395">
        <ele>10.502225</ele>
        <time>2021-08-22T11:15:43.720Z</time>
      </trkpt>
      <trkpt lat="41.13486" lon="30.15247">
        <ele>12.746831</ele>
        <time>2021-08-22T11:17:00.717Z</time>
      </trkpt>
      <trkpt lat="41.13496" lon="30.1521">
        <ele>12.940385</ele>
        <time>2021-08-22T11:17:17.499Z</time>
      </trkpt>
      <trkpt lat="41.13518" lon="30.15158">
        <ele>13.22833</ele>
        <time>2021-08-22T11:17:39.366Z</time>
      </trkpt>
      <trkpt lat="41.13521" lon="30.15131">
        <ele>13.358058</ele>
        <time>2021-08-22T11:17:49.117Z</time>
      </trkpt>
      <trkpt lat="41.13515" lon="30.15065">
        <ele>13.258536</ele>
        <time>2021-08-22T11:18:13.436Z</time>
      </trkpt>
      <trkpt lat="41.13518" lon="30.15037">
        <ele>12.975853</ele>
        <time>2021-08-22T11:18:23.553Z</time>
      </trkpt>
      <trkpt lat="41.13529" lon="30.15013">
        <ele>12.697765</ele>
        <time>2021-08-22T11:18:33.421Z</time>
      </trkpt>
      <trkpt lat="41.1356" lon="30.14981">
        <ele>12.173825</ele>
        <time>2021-08-22T11:18:52.114Z</time>
      </trkpt>
      <trkpt lat="41.13572" lon="30.14961">
        <ele>11.923927</ele>
        <time>2021-08-22T11:19:01.299Z</time>
      </trkpt>
      <trkpt lat="41.1362" lon="30.14816">
        <ele>9.597839</ele>
        <time>2021-08-22T11:19:53.665Z</time>
      </trkpt>
      <trkpt lat="41.13641" lon="30.14785">
        <ele>8.799277</ele>
        <time>2021-08-22T11:20:07.390Z</time>
      </trkpt>
      <trkpt lat="41.13651" lon="30.14777">
        <ele>8.495512</ele>
        <time>2021-08-22T11:20:11.840Z</time>
      </trkpt>
      <trkpt lat="41.13732" lon="30.14807">
        <ele>6.507112</ele>
        <time>2021-08-22T11:20:47.401Z</time>
      </trkpt>
      <trkpt lat="41.13742" lon="30.14805">
        <ele>6.387558</ele>
        <time>2021-08-22T11:20:52.464Z</time>
      </trkpt>
      <trkpt lat="41.13752" lon="30.14801">
        <ele>6.266682</ele>
        <time>2021-08-22T11:20:56.370Z</time>
      </trkpt>
      <trkpt lat="41.13774" lon="30.1474">
        <ele>5.68194</ele>
        <time>2021-08-22T11:21:08.720Z</time>
      </trkpt>
      <trkpt lat="41.13802" lon="30.14605">
        <ele>4.738692</ele>
        <time>2021-08-22T11:21:39.011Z</time>
      </trkpt>
      <trkpt lat="41.13817" lon="30.14561">
        <ele>5.934422</ele>
        <time>2021-08-22T11:21:54.462Z</time>
      </trkpt>
      <trkpt lat="41.1383" lon="30.14547">
        <ele>6.461827</ele>
        <time>2021-08-22T11:22:01.691Z</time>
      </trkpt>
      <trkpt lat="41.13876" lon="30.14527">
        <ele>8.036726</ele>
        <time>2021-08-22T11:22:25.219Z</time>
      </trkpt>
      <trkpt lat="41.13887" lon="30.14512">
        <ele>8.558222</ele>
        <time>2021-08-22T11:22:33.803Z</time>
      </trkpt>
      <trkpt lat="41.13916" lon="30.14395">
        <ele>12.861267</ele>
        <time>2021-08-22T11:23:30.018Z</time>
      </trkpt>
      <trkpt lat="41.13931" lon="30.14274">
        <ele>19.180118</ele>
        <time>2021-08-22T11:24:36.027Z</time>
      </trkpt>
      <trkpt lat="41.13958" lon="30.14159">
        <ele>25.402762</ele>
        <time>2021-08-22T11:25:44.359Z</time>
      </trkpt>
      <trkpt lat="41.13984" lon="30.14094">
        <ele>29.124744</ele>
        <time>2021-08-22T11:26:24.115Z</time>
      </trkpt>
      <trkpt lat="41.13988" lon="30.14027">
        <ele>32.538879</ele>
        <time>2021-08-22T11:26:58.661Z</time>
      </trkpt>
      <trkpt lat="41.13966" lon="30.1398">
        <ele>35.105131</ele>
        <time>2021-08-22T11:27:25.053Z</time>
      </trkpt>
      <trkpt lat="41.1392" lon="30.13943">
        <ele>36.921096</ele>
        <time>2021-08-22T11:27:55.930Z</time>
      </trkpt>
      <trkpt lat="41.13872" lon="30.13867">
        <ele>39.412372</ele>
        <time>2021-08-22T11:28:32.081Z</time>
      </trkpt>
      <trkpt lat="41.13851" lon="30.13853">
        <ele>40.211579</ele>
        <time>2021-08-22T11:28:42.193Z</time>
      </trkpt>
      <trkpt lat="41.1383" lon="30.13847">
        <ele>40.902674</ele>
        <time>2021-08-22T11:28:51.049Z</time>
      </trkpt>
      <trkpt lat="41.13804" lon="30.13822">
        <ele>40.880313</ele>
        <time>2021-08-22T11:29:02.784Z</time>
      </trkpt>
      <trkpt lat="41.13762" lon="30.13735">
        <ele>40.825117</ele>
        <time>2021-08-22T11:29:27.021Z</time>
      </trkpt>
      <trkpt lat="41.1375" lon="30.13668">
        <ele>40.788978</ele>
        <time>2021-08-22T11:29:40.945Z</time>
      </trkpt>
      <trkpt lat="41.13724" lon="30.13602">
        <ele>40.45861</ele>
        <time>2021-08-22T11:29:55.712Z</time>
      </trkpt>
      <trkpt lat="41.13643" lon="30.13538">
        <ele>39.697668</ele>
        <time>2021-08-22T11:30:20.962Z</time>
      </trkpt>
      <trkpt lat="41.13609" lon="30.13522">
        <ele>39.409561</ele>
        <time>2021-08-22T11:30:31.093Z</time>
      </trkpt>
      <trkpt lat="41.13546" lon="30.13439">
        <ele>40.282851</ele>
        <time>2021-08-22T11:31:00.556Z</time>
      </trkpt>
      <trkpt lat="41.13537" lon="30.13412">
        <ele>40.558852</ele>
        <time>2021-08-22T11:31:09.092Z</time>
      </trkpt>
      <trkpt lat="41.13516" lon="30.13372">
        <ele>41.011268</ele>
        <time>2021-08-22T11:31:24.232Z</time>
      </trkpt>
      <trkpt lat="41.13492" lon="30.13288">
        <ele>42.284296</ele>
        <time>2021-08-22T11:31:54.407Z</time>
      </trkpt>
      <trkpt lat="41.13419" lon="30.13153">
        <ele>46.054504</ele>
        <time>2021-08-22T11:32:55.846Z</time>
      </trkpt>
      <trkpt lat="41.13406" lon="30.13074">
        <ele>47.747458</ele>
        <time>2021-08-22T11:33:25.996Z</time>
      </trkpt>
      <trkpt lat="41.13335" lon="30.12936">
        <ele>51.065928</ele>
        <time>2021-08-22T11:34:24.914Z</time>
      </trkpt>
      <trkpt lat="41.1328" lon="30.128">
        <ele>52.562331</ele>
        <time>2021-08-22T11:35:11.027Z</time>
      </trkpt>
      <trkpt lat="41.13258" lon="30.12675">
        <ele>53.314987</ele>
        <time>2021-08-22T11:35:43.091Z</time>
      </trkpt>
      <trkpt lat="41.13243" lon="30.12477">
        <ele>52.440395</ele>
        <time>2021-08-22T11:36:26.098Z</time>
      </trkpt>
      <trkpt lat="41.13201" lon="30.12272">
        <ele>50.178639</ele>
        <time>2021-08-22T11:37:07.640Z</time>
      </trkpt>
      <trkpt lat="41.13185" lon="30.12175">
        <ele>48.803661</ele>
        <time>2021-08-22T11:37:25.781Z</time>
      </trkpt>
      <trkpt lat="41.13189" lon="30.12133">
        <ele>48.111187</ele>
        <time>2021-08-22T11:37:33.389Z</time>
      </trkpt>
      <trkpt lat="41.13218" lon="30.11972">
        <ele>45.456778</ele>
        <time>2021-08-22T11:38:03.691Z</time>
      </trkpt>
      <trkpt lat="41.13225" lon="30.11893">
        <ele>44.515543</ele>
        <time>2021-08-22T11:38:18.853Z</time>
      </trkpt>
      <trkpt lat="41.13261" lon="30.11696">
        <ele>42.056076</ele>
        <time>2021-08-22T11:38:58.993Z</time>
      </trkpt>
      <trkpt lat="41.13288" lon="30.11515">
        <ele>39.646339</ele>
        <time>2021-08-22T11:39:34.035Z</time>
      </trkpt>
      <trkpt lat="41.13334" lon="30.11287">
        <ele>35.412347</ele>
        <time>2021-08-22T11:40:16.401Z</time>
      </trkpt>
      <trkpt lat="41.13356" lon="30.11153">
        <ele>32.452997</ele>
        <time>2021-08-22T11:40:40.778Z</time>
      </trkpt>
      <trkpt lat="41.13375" lon="30.11102">
        <ele>31.235891</ele>
        <time>2021-08-22T11:40:50.680Z</time>
      </trkpt>
      <trkpt lat="41.13393" lon="30.11083">
        <ele>30.575006</ele>
        <time>2021-08-22T11:40:55.999Z</time>
      </trkpt>
      <trkpt lat="41.13398" lon="30.11053">
        <ele>29.852166</ele>
        <time>2021-08-22T11:41:01.272Z</time>
      </trkpt>
      <trkpt lat="41.13417" lon="30.11">
        <ele>28.407898</ele>
        <time>2021-08-22T11:41:11.235Z</time>
      </trkpt>
      <trkpt lat="41.13423" lon="30.10989">
        <ele>28.060971</ele>
        <time>2021-08-22T11:41:13.620Z</time>
      </trkpt>
      <trkpt lat="41.13441" lon="30.10978">
        <ele>27.424746</ele>
        <time>2021-08-22T11:41:17.973Z</time>
      </trkpt>
      <trkpt lat="41.13445" lon="30.10952">
        <ele>26.747327</ele>
        <time>2021-08-22T11:41:22.625Z</time>
      </trkpt>
      <trkpt lat="41.13463" lon="30.10919">
        <ele>25.754907</ele>
        <time>2021-08-22T11:41:29.412Z</time>
      </trkpt>
      <trkpt lat="41.13469" lon="30.10892">
        <ele>25.032535</ele>
        <time>2021-08-22T11:41:34.361Z</time>
      </trkpt>
      <trkpt lat="41.13465" lon="30.10849">
        <ele>24.133248</ele>
        <time>2021-08-22T11:41:41.749Z</time>
      </trkpt>
      <trkpt lat="41.13449" lon="30.10795">
        <ele>23.22287</ele>
        <time>2021-08-22T11:41:51.847Z</time>
      </trkpt>
      <trkpt lat="41.13431" lon="30.10704">
        <ele>21.726326</ele>
        <time>2021-08-22T11:42:09.167Z</time>
      </trkpt>
      <trkpt lat="41.13441" lon="30.10567">
        <ele>19.788492</ele>
        <time>2021-08-22T11:42:37.975Z</time>
      </trkpt>
      <trkpt lat="41.13449" lon="30.10516">
        <ele>19.13166</ele>
        <time>2021-08-22T11:42:48.479Z</time>
      </trkpt>
      <trkpt lat="41.13465" lon="30.1046">
        <ele>18.382509</ele>
        <time>2021-08-22T11:42:59.411Z</time>
      </trkpt>
      <trkpt lat="41.1347" lon="30.10449">
        <ele>18.214409</ele>
        <time>2021-08-22T11:43:02.698Z</time>
      </trkpt>
      <trkpt lat="41.13486" lon="30.10392">
        <ele>17.268776</ele>
        <time>2021-08-22T11:43:13.204Z</time>
      </trkpt>
      <trkpt lat="41.13481" lon="30.10357">
        <ele>16.369246</ele>
        <time>2021-08-22T11:43:19.635Z</time>
      </trkpt>
      <trkpt lat="41.13459" lon="30.1034">
        <ele>15.531888</ele>
        <time>2021-08-22T11:43:25.127Z</time>
      </trkpt>
      <trkpt lat="41.13369" lon="30.1035">
        <ele>12.552559</ele>
        <time>2021-08-22T11:43:45.411Z</time>
      </trkpt>
      <trkpt lat="41.13319" lon="30.10383">
        <ele>11.413344</ele>
        <time>2021-08-22T11:43:57.828Z</time>
      </trkpt>
      <trkpt lat="41.13265" lon="30.10393">
        <ele>10.859264</ele>
        <time>2021-08-22T11:44:12.100Z</time>
      </trkpt>
      <trkpt lat="41.13198" lon="30.10373">
        <ele>10.155363</ele>
        <time>2021-08-22T11:44:33.421Z</time>
      </trkpt>
      <trkpt lat="41.13152" lon="30.10348">
        <ele>9.991463</ele>
        <time>2021-08-22T11:44:50.819Z</time>
      </trkpt>
      <trkpt lat="41.1312" lon="30.10323">
        <ele>10.136397</ele>
        <time>2021-08-22T11:45:04.485Z</time>
      </trkpt>
      <trkpt lat="41.13108" lon="30.103">
        <ele>10.215992</ele>
        <time>2021-08-22T11:45:11.899Z</time>
      </trkpt>
      <trkpt lat="41.13115" lon="30.1027">
        <ele>10.306786</ele>
        <time>2021-08-22T11:45:20.132Z</time>
      </trkpt>
      <trkpt lat="41.1313" lon="30.10245">
        <ele>10.401128</ele>
        <time>2021-08-22T11:45:28.273Z</time>
      </trkpt>
      <trkpt lat="41.13167" lon="30.10203">
        <ele>10.585946</ele>
        <time>2021-08-22T11:45:43.141Z</time>
      </trkpt>
      <trkpt lat="41.13188" lon="30.10139">
        <ele>10.404148</ele>
        <time>2021-08-22T11:45:58.608Z</time>
      </trkpt>
      <trkpt lat="41.13205" lon="30.10071">
        <ele>10.215876</ele>
        <time>2021-08-22T11:46:13.871Z</time>
      </trkpt>
      <trkpt lat="41.13205" lon="30.10014">
        <ele>10.063853</ele>
        <time>2021-08-22T11:46:26.233Z</time>
      </trkpt>
      <trkpt lat="41.13193" lon="30.09905">
        <ele>10.402479</ele>
        <time>2021-08-22T11:46:51.817Z</time>
      </trkpt>
      <trkpt lat="41.13199" lon="30.09858">
        <ele>10.703041</ele>
        <time>2021-08-22T11:47:04.255Z</time>
      </trkpt>
      <trkpt lat="41.13227" lon="30.09735">
        <ele>11.562082</ele>
        <time>2021-08-22T11:47:42.514Z</time>
      </trkpt>
      <trkpt lat="41.1323" lon="30.09652">
        <ele>12.481202</ele>
        <time>2021-08-22T11:48:07.979Z</time>
      </trkpt>
      <trkpt lat="41.13219" lon="30.0961">
        <ele>12.979956</ele>
        <time>2021-08-22T11:48:21.693Z</time>
      </trkpt>
      <trkpt lat="41.13188" lon="30.09565">
        <ele>13.646521</ele>
        <time>2021-08-22T11:48:39.674Z</time>
      </trkpt>
      <trkpt lat="41.13144" lon="30.0954">
        <ele>14.218719</ele>
        <time>2021-08-22T11:48:58.644Z</time>
      </trkpt>
      <trkpt lat="41.1299" lon="30.095">
        <ele>15.054448</ele>
        <time>2021-08-22T11:49:51.784Z</time>
      </trkpt>
      <trkpt lat="41.12962" lon="30.09473">
        <ele>14.91416</ele>
        <time>2021-08-22T11:50:02.055Z</time>
      </trkpt>
      <trkpt lat="41.12897" lon="30.09359">
        <ele>14.157588</ele>
        <time>2021-08-22T11:50:31.310Z</time>
      </trkpt>
      <trkpt lat="41.12876" lon="30.09328">
        <ele>13.938688</ele>
        <time>2021-08-22T11:50:39.530Z</time>
      </trkpt>
      <trkpt lat="41.12849" lon="30.093">
        <ele>14.045366</ele>
        <time>2021-08-22T11:50:49.078Z</time>
      </trkpt>
      <trkpt lat="41.12838" lon="30.09254">
        <ele>14.411568</ele>
        <time>2021-08-22T11:50:59.981Z</time>
      </trkpt>
      <trkpt lat="41.12824" lon="30.09151">
        <ele>15.204873</ele>
        <time>2021-08-22T11:51:28.687Z</time>
      </trkpt>
      <trkpt lat="41.12807" lon="30.09113">
        <ele>15.538705</ele>
        <time>2021-08-22T11:51:43.374Z</time>
      </trkpt>
      <trkpt lat="41.12733" lon="30.09052">
        <ele>18.13405</ele>
        <time>2021-08-22T11:52:28.678Z</time>
      </trkpt>
      <trkpt lat="41.12677" lon="30.08966">
        <ele>20.949884</ele>
        <time>2021-08-22T11:53:14.714Z</time>
      </trkpt>
      <trkpt lat="41.12663" lon="30.08868">
        <ele>20.942606</ele>
        <time>2021-08-22T11:53:45.986Z</time>
      </trkpt>
      <trkpt lat="41.12586" lon="30.08818">
        <ele>20.035987</ele>
        <time>2021-08-22T11:54:08.493Z</time>
      </trkpt>
      <trkpt lat="41.12539" lon="30.08772">
        <ele>18.42324</ele>
        <time>2021-08-22T11:54:21.087Z</time>
      </trkpt>
      <trkpt lat="41.1253" lon="30.08734">
        <ele>16.77139</ele>
        <time>2021-08-22T11:54:27.117Z</time>
      </trkpt>
      <trkpt lat="41.12541" lon="30.08685">
        <ele>14.618714</ele>
        <time>2021-08-22T11:54:34.922Z</time>
      </trkpt>
      <trkpt lat="41.1258" lon="30.08619">
        <ele>11.100928</ele>
        <time>2021-08-22T11:54:47.910Z</time>
      </trkpt>
      <trkpt lat="41.12588" lon="30.08598">
        <ele>10.113005</ele>
        <time>2021-08-22T11:54:51.459Z</time>
      </trkpt>
      <trkpt lat="41.12612" lon="30.08573">
        <ele>9.071885</ele>
        <time>2021-08-22T11:54:57.955Z</time>
      </trkpt>
      <trkpt lat="41.12634" lon="30.08547">
        <ele>8.319792</ele>
        <time>2021-08-22T11:55:04.433Z</time>
      </trkpt>
      <trkpt lat="41.12724" lon="30.08407">
        <ele>5.129772</ele>
        <time>2021-08-22T11:55:38.701Z</time>
      </trkpt>
      <trkpt lat="41.12787" lon="30.08284">
        <ele>6.140315</ele>
        <time>2021-08-22T11:56:21.445Z</time>
      </trkpt>
      <trkpt lat="41.12803" lon="30.08251">
        <ele>6.409992</ele>
        <time>2021-08-22T11:56:33.507Z</time>
      </trkpt>
      <trkpt lat="41.12811" lon="30.08226">
        <ele>6.593124</ele>
        <time>2021-08-22T11:56:42.063Z</time>
      </trkpt>
      <trkpt lat="41.12794" lon="30.08167">
        <ele>7.368396</ele>
        <time>2021-08-22T11:57:01.181Z</time>
      </trkpt>
      <trkpt lat="41.12732" lon="30.08042">
        <ele>9.392639</ele>
        <time>2021-08-22T11:57:48.204Z</time>
      </trkpt>
      <trkpt lat="41.12716" lon="30.0801">
        <ele>9.933572</ele>
        <time>2021-08-22T11:57:59.100Z</time>
      </trkpt>
      <trkpt lat="41.12713" lon="30.08002">
        <ele>10.181618</ele>
        <time>2021-08-22T11:58:01.875Z</time>
      </trkpt>
      <trkpt lat="41.12695" lon="30.07956">
        <ele>11.672926</ele>
        <time>2021-08-22T11:58:18.285Z</time>
      </trkpt>
      <trkpt lat="41.1269" lon="30.07916">
        <ele>12.8058</ele>
        <time>2021-08-22T11:58:32.870Z</time>
      </trkpt>
      <trkpt lat="41.12691" lon="30.07857">
        <ele>14.488959</ele>
        <time>2021-08-22T11:58:56.437Z</time>
      </trkpt>
      <trkpt lat="41.12682" lon="30.07782">
        <ele>16.650182</ele>
        <time>2021-08-22T11:59:30.282Z</time>
      </trkpt>
      <trkpt lat="41.12684" lon="30.07772">
        <ele>17.249944</ele>
        <time>2021-08-22T11:59:35.640Z</time>
      </trkpt>
      <trkpt lat="41.12693" lon="30.07738">
        <ele>19.421999</ele>
        <time>2021-08-22T11:59:53.570Z</time>
      </trkpt>
      <trkpt lat="41.12725" lon="30.07669">
        <ele>24.409483</ele>
        <time>2021-08-22T12:00:39.649Z</time>
      </trkpt>
      <trkpt lat="41.12761" lon="30.07605">
        <ele>29.243828</ele>
        <time>2021-08-22T12:01:30.039Z</time>
      </trkpt>
      <trkpt lat="41.12781" lon="30.07556">
        <ele>32.732598</ele>
        <time>2021-08-22T12:02:06.622Z</time>
      </trkpt>
      <trkpt lat="41.1279" lon="30.07519">
        <ele>35.272574</ele>
        <time>2021-08-22T12:02:31.778Z</time>
      </trkpt>
      <trkpt lat="41.12789" lon="30.0743">
        <ele>41.006759</ele>
        <time>2021-08-22T12:03:27.231Z</time>
      </trkpt>
      <trkpt lat="41.12795" lon="30.07414">
        <ele>42.143612</ele>
        <time>2021-08-22T12:03:37.741Z</time>
      </trkpt>
      <trkpt lat="41.12832" lon="30.07366">
        <ele>46.508792</ele>
        <time>2021-08-22T12:04:15.775Z</time>
      </trkpt>
      <trkpt lat="41.12828" lon="30.07327">
        <ele>47.687768</ele>
        <time>2021-08-22T12:04:35.746Z</time>
      </trkpt>
      <trkpt lat="41.12784" lon="30.07219">
        <ele>51.16431</ele>
        <time>2021-08-22T12:05:27.205Z</time>
      </trkpt>
      <trkpt lat="41.12778" lon="30.07179">
        <ele>52.318879</ele>
        <time>2021-08-22T12:05:40.333Z</time>
      </trkpt>
      <trkpt lat="41.12788" lon="30.07106">
        <ele>52.93617</ele>
        <time>2021-08-22T12:05:59.364Z</time>
      </trkpt>
      <trkpt lat="41.12802" lon="30.07053">
        <ele>52.233556</ele>
        <time>2021-08-22T12:06:11.068Z</time>
      </trkpt>
      <trkpt lat="41.12813" lon="30.06969">
        <ele>51.172504</ele>
        <time>2021-08-22T12:06:26.802Z</time>
      </trkpt>
      <trkpt lat="41.12864" lon="30.06773">
        <ele>45.986336</ele>
        <time>2021-08-22T12:07:01.607Z</time>
      </trkpt>
      <trkpt lat="41.12892" lon="30.06638">
        <ele>41.540441</ele>
        <time>2021-08-22T12:07:24.283Z</time>
      </trkpt>
      <trkpt lat="41.12928" lon="30.0656">
        <ele>38.354478</ele>
        <time>2021-08-22T12:07:39.001Z</time>
      </trkpt>
      <trkpt lat="41.1298" lon="30.06469">
        <ele>34.64223</ele>
        <time>2021-08-22T12:07:57.516Z</time>
      </trkpt>
      <trkpt lat="41.13039" lon="30.06403">
        <ele>32.925384</ele>
        <time>2021-08-22T12:08:14.676Z</time>
      </trkpt>
      <trkpt lat="41.13072" lon="30.06341">
        <ele>31.641839</ele>
        <time>2021-08-22T12:08:29.367Z</time>
      </trkpt>
      <trkpt lat="41.13106" lon="30.06297">
        <ele>31.052866</ele>
        <time>2021-08-22T12:08:43.025Z</time>
      </trkpt>
      <trkpt lat="41.13111" lon="30.0629">
        <ele>31.169286</ele>
        <time>2021-08-22T12:08:47.048Z</time>
      </trkpt>
      <trkpt lat="41.13165" lon="30.06217">
        <ele>32.303073</ele>
        <time>2021-08-22T12:09:17.067Z</time>
      </trkpt>
      <trkpt lat="41.13178" lon="30.0618">
        <ele>32.770758</ele>
        <time>2021-08-22T12:09:31.186Z</time>
      </trkpt>
      <trkpt lat="41.13212" lon="30.06051">
        <ele>33.766438</ele>
        <time>2021-08-22T12:10:15.432Z</time>
      </trkpt>
      <trkpt lat="41.13229" lon="30.05967">
        <ele>34.066202</ele>
        <time>2021-08-22T12:10:38.522Z</time>
      </trkpt>
      <trkpt lat="41.13251" lon="30.05789">
        <ele>32.944296</ele>
        <time>2021-08-22T12:11:14.373Z</time>
      </trkpt>
      <trkpt lat="41.13285" lon="30.05366">
        <ele>26.399241</ele>
        <time>2021-08-22T12:12:30.995Z</time>
      </trkpt>
      <trkpt lat="41.13314" lon="30.05142">
        <ele>24.970796</ele>
        <time>2021-08-22T12:13:23.958Z</time>
      </trkpt>
      <trkpt lat="41.13288" lon="30.05002">
        <ele>23.22717</ele>
        <time>2021-08-22T12:13:52.469Z</time>
      </trkpt>
      <trkpt lat="41.13291" lon="30.04979">
        <ele>22.942282</ele>
        <time>2021-08-22T12:13:56.830Z</time>
      </trkpt>
      <trkpt lat="41.13303" lon="30.04879">
        <ele>20.671341</ele>
        <time>2021-08-22T12:14:13.964Z</time>
      </trkpt>
      <trkpt lat="41.13346" lon="30.04678">
        <ele>15.333079</ele>
        <time>2021-08-22T12:14:47.919Z</time>
      </trkpt>
      <trkpt lat="41.13412" lon="30.04443">
        <ele>14.027751</ele>
        <time>2021-08-22T12:15:41.829Z</time>
      </trkpt>
      <trkpt lat="41.13469" lon="30.043">
        <ele>16.106177</ele>
        <time>2021-08-22T12:16:35.409Z</time>
      </trkpt>
      <trkpt lat="41.13501" lon="30.04151">
        <ele>18.489864</ele>
        <time>2021-08-22T12:17:29.883Z</time>
      </trkpt>
      <trkpt lat="41.1358" lon="30.04004">
        <ele>20.704006</ele>
        <time>2021-08-22T12:18:24.738Z</time>
      </trkpt>
      <trkpt lat="41.13627" lon="30.03865">
        <ele>21.506019</ele>
        <time>2021-08-22T12:19:03.692Z</time>
      </trkpt>
      <trkpt lat="41.13664" lon="30.03793">
        <ele>21.381933</ele>
        <time>2021-08-22T12:19:23.434Z</time>
      </trkpt>
      <trkpt lat="41.13688" lon="30.03732">
        <ele>21.125618</ele>
        <time>2021-08-22T12:19:38.576Z</time>
      </trkpt>
      <trkpt lat="41.13743" lon="30.03407">
        <ele>19.301373</ele>
        <time>2021-08-22T12:20:47.906Z</time>
      </trkpt>
      <trkpt lat="41.13788" lon="30.03259">
        <ele>18.311318</ele>
        <time>2021-08-22T12:21:20.997Z</time>
      </trkpt>
      <trkpt lat="41.13842" lon="30.03005">
        <ele>16.937043</ele>
        <time>2021-08-22T12:22:16.151Z</time>
      </trkpt>
      <trkpt lat="41.13846" lon="30.02946">
        <ele>16.659924</ele>
        <time>2021-08-22T12:22:28.829Z</time>
      </trkpt>
      <trkpt lat="41.13844" lon="30.02808">
        <ele>16.979439</ele>
        <time>2021-08-22T12:23:02.088Z</time>
      </trkpt>
      <trkpt lat="41.13834" lon="30.02723">
        <ele>17.20525</ele>
        <time>2021-08-22T12:23:24.890Z</time>
      </trkpt>
      <trkpt lat="41.13815" lon="30.02667">
        <ele>17.52922</ele>
        <time>2021-08-22T12:23:41.580Z</time>
      </trkpt>
      <trkpt lat="41.13791" lon="30.02642">
        <ele>17.805711</ele>
        <time>2021-08-22T12:23:52.947Z</time>
      </trkpt>
      <trkpt lat="41.13573" lon="30.02461">
        <ele>20.066992</ele>
        <time>2021-08-22T12:25:25.732Z</time>
      </trkpt>
      <trkpt lat="41.13492" lon="30.02381">
        <ele>20.678327</ele>
        <time>2021-08-22T12:26:01.707Z</time>
      </trkpt>
      <trkpt lat="41.13453" lon="30.02335">
        <ele>20.903236</ele>
        <time>2021-08-22T12:26:20.957Z</time>
      </trkpt>
      <trkpt lat="41.13419" lon="30.02311">
        <ele>21.069385</ele>
        <time>2021-08-22T12:26:35.290Z</time>
      </trkpt>
      <trkpt lat="41.13354" lon="30.02266">
        <ele>19.675889</ele>
        <time>2021-08-22T12:26:55.140Z</time>
      </trkpt>
      <trkpt lat="41.13321" lon="30.02225">
        <ele>18.149282</ele>
        <time>2021-08-22T12:27:05.395Z</time>
      </trkpt>
      <trkpt lat="41.13288" lon="30.02192">
        <ele>16.73305</ele>
        <time>2021-08-22T12:27:14.372Z</time>
      </trkpt>
      <trkpt lat="41.13286" lon="30.02128">
        <ele>15.067189</ele>
        <time>2021-08-22T12:27:24.430Z</time>
      </trkpt>
      <trkpt lat="41.1331" lon="30.01903">
        <ele>7.506265</ele>
        <time>2021-08-22T12:28:00.337Z</time>
      </trkpt>
      <trkpt lat="41.13312" lon="30.01881">
        <ele>7.317394</ele>
        <time>2021-08-22T12:28:04.838Z</time>
      </trkpt>
      <trkpt lat="41.13317" lon="30.01826">
        <ele>8.752799</ele>
        <time>2021-08-22T12:28:19.396Z</time>
      </trkpt>
      <trkpt lat="41.13323" lon="30.01772">
        <ele>10.141274</ele>
        <time>2021-08-22T12:28:38.757Z</time>
      </trkpt>
      <trkpt lat="41.13319" lon="30.01737">
        <ele>11.037297</ele>
        <time>2021-08-22T12:28:54.045Z</time>
      </trkpt>
      <trkpt lat="41.13305" lon="30.01693">
        <ele>12.271861</ele>
        <time>2021-08-22T12:29:18.669Z</time>
      </trkpt>
      <trkpt lat="41.13282" lon="30.01661">
        <ele>13.665458</ele>
        <time>2021-08-22T12:29:43.657Z</time>
      </trkpt>
      <trkpt lat="41.13213" lon="30.016">
        <ele>19.811008</ele>
        <time>2021-08-22T12:30:46.226Z</time>
      </trkpt>
      <trkpt lat="41.13199" lon="30.0157">
        <ele>21.808118</ele>
        <time>2021-08-22T12:31:06.637Z</time>
      </trkpt>
      <trkpt lat="41.13188" lon="30.01534">
        <ele>23.943998</ele>
        <time>2021-08-22T12:31:27.893Z</time>
      </trkpt>
      <trkpt lat="41.13174" lon="30.01433">
        <ele>28.71841</ele>
        <time>2021-08-22T12:32:20.975Z</time>
      </trkpt>
      <trkpt lat="41.13153" lon="30.01378">
        <ele>31.109703</ele>
        <time>2021-08-22T12:32:49.784Z</time>
      </trkpt>
      <trkpt lat="41.13061" lon="30.01249">
        <ele>37.128349</ele>
        <time>2021-08-22T12:34:02.552Z</time>
      </trkpt>
      <trkpt lat="41.1303" lon="30.01223">
        <ele>38.287249</ele>
        <time>2021-08-22T12:34:20.812Z</time>
      </trkpt>
      <trkpt lat="41.12957" lon="30.01194">
        <ele>40.669084</ele>
        <time>2021-08-22T12:34:56.587Z</time>
      </trkpt>
      <trkpt lat="41.12904" lon="30.01153">
        <ele>42.068245</ele>
        <time>2021-08-22T12:35:23.539Z</time>
      </trkpt>
      <trkpt lat="41.12811" lon="30.01109">
        <ele>43.749855</ele>
        <time>2021-08-22T12:36:03.153Z</time>
      </trkpt>
      <trkpt lat="41.1281" lon="30.01093">
        <ele>43.956562</ele>
        <time>2021-08-22T12:36:07.626Z</time>
      </trkpt>
      <trkpt lat="41.12818" lon="30.01083">
        <ele>44.142291</ele>
        <time>2021-08-22T12:36:11.891Z</time>
      </trkpt>
      <trkpt lat="41.12858" lon="30.0105">
        <ele>44.760131</ele>
        <time>2021-08-22T12:36:30.005Z</time>
      </trkpt>
      <trkpt lat="41.12877" lon="30.0102">
        <ele>45.040046</ele>
        <time>2021-08-22T12:36:40.880Z</time>
      </trkpt>
      <trkpt lat="41.12888" lon="30.00976">
        <ele>45.369487</ele>
        <time>2021-08-22T12:36:53.666Z</time>
      </trkpt>
      <trkpt lat="41.12927" lon="30.00883">
        <ele>46.140361</ele>
        <time>2021-08-22T12:37:23.615Z</time>
      </trkpt>
      <trkpt lat="41.1305" lon="30.00708">
        <ele>45.94798</ele>
        <time>2021-08-22T12:38:20.706Z</time>
      </trkpt>
      <trkpt lat="41.131" lon="30.00659">
        <ele>44.014792</ele>
        <time>2021-08-22T12:38:36.046Z</time>
      </trkpt>
      <trkpt lat="41.13184" lon="30.00547">
        <ele>39.74455</ele>
        <time>2021-08-22T12:39:01.978Z</time>
      </trkpt>
      <trkpt lat="41.1324" lon="30.00483">
        <ele>35.160537</ele>
        <time>2021-08-22T12:39:17.161Z</time>
      </trkpt>
      <trkpt lat="41.13308" lon="30.00394">
        <ele>28.967089</ele>
        <time>2021-08-22T12:39:36.292Z</time>
      </trkpt>
      <trkpt lat="41.13421" lon="30.00274">
        <ele>20.099134</ele>
        <time>2021-08-22T12:40:05.042Z</time>
      </trkpt>
      <trkpt lat="41.13435" lon="30.00246">
        <ele>18.552403</ele>
        <time>2021-08-22T12:40:10.430Z</time>
      </trkpt>
      <trkpt lat="41.13445" lon="30.00207">
        <ele>16.892103</ele>
        <time>2021-08-22T12:40:17.333Z</time>
      </trkpt>
      <trkpt lat="41.13446" lon="30.0017">
        <ele>17.237803</ele>
        <time>2021-08-22T12:40:23.909Z</time>
      </trkpt>
      <trkpt lat="41.1343" lon="30.00127">
        <ele>17.679225</ele>
        <time>2021-08-22T12:40:34.060Z</time>
      </trkpt>
      <trkpt lat="41.13409" lon="30.0013">
        <ele>17.948665</ele>
        <time>2021-08-22T12:40:42.741Z</time>
      </trkpt>
      <trkpt lat="41.13382" lon="30.00144">
        <ele>18.302083</ele>
        <time>2021-08-22T12:40:54.739Z</time>
      </trkpt>
      <trkpt lat="41.13364" lon="30.00145">
        <ele>18.522866</ele>
        <time>2021-08-22T12:41:02.669Z</time>
      </trkpt>
      <trkpt lat="41.13337" lon="30.00138">
        <ele>18.864132</ele>
        <time>2021-08-22T12:41:17.953Z</time>
      </trkpt>
      <trkpt lat="41.1329" lon="30.00103">
        <ele>21.070444</ele>
        <time>2021-08-22T12:41:52.984Z</time>
      </trkpt>
      <trkpt lat="41.13232" lon="30.00021">
        <ele>25.687051</ele>
        <time>2021-08-22T12:42:51.082Z</time>
      </trkpt>
      <trkpt lat="41.13167" lon="29.99958">
        <ele>29.207311</ele>
        <time>2021-08-22T12:43:37.235Z</time>
      </trkpt>
      <trkpt lat="41.13093" lon="29.99913">
        <ele>30.388392</ele>
        <time>2021-08-22T12:44:12.699Z</time>
      </trkpt>
      <trkpt lat="41.12975" lon="29.99755">
        <ele>30.835053</ele>
        <time>2021-08-22T12:44:59.172Z</time>
      </trkpt>
      <trkpt lat="41.12931" lon="29.99711">
        <ele>30.437379</ele>
        <time>2021-08-22T12:45:13.981Z</time>
      </trkpt>
      <trkpt lat="41.12889" lon="29.99658">
        <ele>30.39959</ele>
        <time>2021-08-22T12:45:31.055Z</time>
      </trkpt>
      <trkpt lat="41.12864" lon="29.99636">
        <ele>30.646545</ele>
        <time>2021-08-22T12:45:40.253Z</time>
      </trkpt>
      <trkpt lat="41.12852" lon="29.99611">
        <ele>30.834019</ele>
        <time>2021-08-22T12:45:47.317Z</time>
      </trkpt>
      <trkpt lat="41.12845" lon="29.99567">
        <ele>31.115137</ele>
        <time>2021-08-22T12:45:59.603Z</time>
      </trkpt>
      <trkpt lat="41.12831" lon="29.99537">
        <ele>31.334747</ele>
        <time>2021-08-22T12:46:10.676Z</time>
      </trkpt>
      <trkpt lat="41.12797" lon="29.99486">
        <ele>31.985048</ele>
        <time>2021-08-22T12:46:32.074Z</time>
      </trkpt>
      <trkpt lat="41.12781" lon="29.99445">
        <ele>33.13601</ele>
        <time>2021-08-22T12:46:47.253Z</time>
      </trkpt>
      <trkpt lat="41.12768" lon="29.99358">
        <ele>35.350659</ele>
        <time>2021-08-22T12:47:19.328Z</time>
      </trkpt>
      <trkpt lat="41.12777" lon="29.99298">
        <ele>36.872384</ele>
        <time>2021-08-22T12:47:43.927Z</time>
      </trkpt>
      <trkpt lat="41.12776" lon="29.99269">
        <ele>37.597682</ele>
        <time>2021-08-22T12:47:56.471Z</time>
      </trkpt>
      <trkpt lat="41.12744" lon="29.99164">
        <ele>42.283455</ele>
        <time>2021-08-22T12:48:48.515Z</time>
      </trkpt>
      <trkpt lat="41.12726" lon="29.99133">
        <ele>43.908354</ele>
        <time>2021-08-22T12:49:07.530Z</time>
      </trkpt>
      <trkpt lat="41.12583" lon="29.98977">
        <ele>54.025925</ele>
        <time>2021-08-22T12:51:07.615Z</time>
      </trkpt>
      <trkpt lat="41.12529" lon="29.98886">
        <ele>58.007945</ele>
        <time>2021-08-22T12:51:56.638Z</time>
      </trkpt>
      <trkpt lat="41.12513" lon="29.98843">
        <ele>58.988533</ele>
        <time>2021-08-22T12:52:15.471Z</time>
      </trkpt>
      <trkpt lat="41.12428" lon="29.98558">
        <ele>62.614182</ele>
        <time>2021-08-22T12:53:50.841Z</time>
      </trkpt>
      <trkpt lat="41.12426" lon="29.98511">
        <ele>62.76368</ele>
        <time>2021-08-22T12:54:00.587Z</time>
      </trkpt>
      <trkpt lat="41.12432" lon="29.98467">
        <ele>62.771384</ele>
        <time>2021-08-22T12:54:09.040Z</time>
      </trkpt>
      <trkpt lat="41.12438" lon="29.98461">
        <ele>62.424606</ele>
        <time>2021-08-22T12:54:11.136Z</time>
      </trkpt>
      <trkpt lat="41.12458" lon="29.98443">
        <ele>61.298536</ele>
        <time>2021-08-22T12:54:16.600Z</time>
      </trkpt>
      <trkpt lat="41.1252" lon="29.98409">
        <ele>58.177301</ele>
        <time>2021-08-22T12:54:31.199Z</time>
      </trkpt>
      <trkpt lat="41.12587" lon="29.98364">
        <ele>54.662252</ele>
        <time>2021-08-22T12:54:46.503Z</time>
      </trkpt>
      <trkpt lat="41.12607" lon="29.98335">
        <ele>52.706259</ele>
        <time>2021-08-22T12:54:52.446Z</time>
      </trkpt>
      <trkpt lat="41.1263" lon="29.98265">
        <ele>48.705887</ele>
        <time>2021-08-22T12:55:04.003Z</time>
      </trkpt>
      <trkpt lat="41.12644" lon="29.9825">
        <ele>47.471684</ele>
        <time>2021-08-22T12:55:07.535Z</time>
      </trkpt>
      <trkpt lat="41.12686" lon="29.98237">
        <ele>44.515044</ele>
        <time>2021-08-22T12:55:16.030Z</time>
      </trkpt>
      <trkpt lat="41.12737" lon="29.98197">
        <ele>41.285936</ele>
        <time>2021-08-22T12:55:28.199Z</time>
      </trkpt>
      <trkpt lat="41.12793" lon="29.98174">
        <ele>39.35357</ele>
        <time>2021-08-22T12:55:40.628Z</time>
      </trkpt>
      <trkpt lat="41.12802" lon="29.98144">
        <ele>38.539953</ele>
        <time>2021-08-22T12:55:46.306Z</time>
      </trkpt>
      <trkpt lat="41.12762" lon="29.98008">
        <ele>36.878438</ele>
        <time>2021-08-22T12:56:15.383Z</time>
      </trkpt>
      <trkpt lat="41.12711" lon="29.97871">
        <ele>39.158307</ele>
        <time>2021-08-22T12:57:07.831Z</time>
      </trkpt>
      <trkpt lat="41.12692" lon="29.97797">
        <ele>41.25224</ele>
        <time>2021-08-22T12:57:39.589Z</time>
      </trkpt>
      <trkpt lat="41.12656" lon="29.97532">
        <ele>51.580561</ele>
        <time>2021-08-22T12:59:42.878Z</time>
      </trkpt>
      <trkpt lat="41.12605" lon="29.97294">
        <ele>61.517135</ele>
        <time>2021-08-22T13:01:41.006Z</time>
      </trkpt>
      <trkpt lat="41.12598" lon="29.97231">
        <ele>63.811658</ele>
        <time>2021-08-22T13:02:09.976Z</time>
      </trkpt>
      <trkpt lat="41.12583" lon="29.97147">
        <ele>66.954559</ele>
        <time>2021-08-22T13:02:46.000Z</time>
      </trkpt>
      <trkpt lat="41.12592" lon="29.97085">
        <ele>67.478011</ele>
        <time>2021-08-22T13:03:08.899Z</time>
      </trkpt>
      <trkpt lat="41.12615" lon="29.97035">
        <ele>67.731403</ele>
        <time>2021-08-22T13:03:26.177Z</time>
      </trkpt>
      <trkpt lat="41.12642" lon="29.97009">
        <ele>67.921062</ele>
        <time>2021-08-22T13:03:36.645Z</time>
      </trkpt>
      <trkpt lat="41.12669" lon="29.96999">
        <ele>68.084863</ele>
        <time>2021-08-22T13:03:44.441Z</time>
      </trkpt>
      <trkpt lat="41.12696" lon="29.96973">
        <ele>68.242225</ele>
        <time>2021-08-22T13:03:52.707Z</time>
      </trkpt>
      <trkpt lat="41.12727" lon="29.96912">
        <ele>66.52316</ele>
        <time>2021-08-22T13:04:05.444Z</time>
      </trkpt>
      <trkpt lat="41.12781" lon="29.9679">
        <ele>63.170589</ele>
        <time>2021-08-22T13:04:29.302Z</time>
      </trkpt>
      <trkpt lat="41.12831" lon="29.96694">
        <ele>61.057171</ele>
        <time>2021-08-22T13:04:49.436Z</time>
      </trkpt>
      <trkpt lat="41.12854" lon="29.96631">
        <ele>59.890775</ele>
        <time>2021-08-22T13:05:02.273Z</time>
      </trkpt>
      <trkpt lat="41.12875" lon="29.96551">
        <ele>58.554565</ele>
        <time>2021-08-22T13:05:19.113Z</time>
      </trkpt>
      <trkpt lat="41.129" lon="29.9648">
        <ele>57.974054</ele>
        <time>2021-08-22T13:05:35.502Z</time>
      </trkpt>
      <trkpt lat="41.1291" lon="29.96457">
        <ele>57.770368</ele>
        <time>2021-08-22T13:05:41.356Z</time>
      </trkpt>
      <trkpt lat="41.12924" lon="29.96423">
        <ele>57.482499</ele>
        <time>2021-08-22T13:05:49.829Z</time>
      </trkpt>
      <trkpt lat="41.12945" lon="29.96313">
        <ele>55.937343</ele>
        <time>2021-08-22T13:06:13.376Z</time>
      </trkpt>
      <trkpt lat="41.12968" lon="29.96258">
        <ele>53.908131</ele>
        <time>2021-08-22T13:06:24.248Z</time>
      </trkpt>
      <trkpt lat="41.13008" lon="29.96195">
        <ele>51.248498</ele>
        <time>2021-08-22T13:06:37.537Z</time>
      </trkpt>
      <trkpt lat="41.1303" lon="29.9605">
        <ele>44.828141</ele>
        <time>2021-08-22T13:07:00.018Z</time>
      </trkpt>
      <trkpt lat="41.12911" lon="29.95966">
        <ele>36.277647</ele>
        <time>2021-08-22T13:07:26.822Z</time>
      </trkpt>
      <trkpt lat="41.12895" lon="29.95926">
        <ele>35.419041</ele>
        <time>2021-08-22T13:07:34.142Z</time>
      </trkpt>
      <trkpt lat="41.12975" lon="29.95795">
        <ele>32.224119</ele>
        <time>2021-08-22T13:08:06.861Z</time>
      </trkpt>
      <trkpt lat="41.12953" lon="29.95708">
        <ele>34.652987</ele>
        <time>2021-08-22T13:08:37.483Z</time>
      </trkpt>
      <trkpt lat="41.13004" lon="29.95507">
        <ele>41.589748</ele>
        <time>2021-08-22T13:10:12.628Z</time>
      </trkpt>
      <trkpt lat="41.12976" lon="29.95427">
        <ele>45.652134</ele>
        <time>2021-08-22T13:10:58.218Z</time>
      </trkpt>
      <trkpt lat="41.12996" lon="29.95356">
        <ele>49.126517</ele>
        <time>2021-08-22T13:11:37.748Z</time>
      </trkpt>
      <trkpt lat="41.12991" lon="29.95313">
        <ele>50.793595</ele>
        <time>2021-08-22T13:11:59.703Z</time>
      </trkpt>
      <trkpt lat="41.12897" lon="29.95248">
        <ele>55.9333</ele>
        <time>2021-08-22T13:13:04.486Z</time>
      </trkpt>
      <trkpt lat="41.12862" lon="29.95147">
        <ele>58.636994</ele>
        <time>2021-08-22T13:13:45.140Z</time>
      </trkpt>
      <trkpt lat="41.12753" lon="29.95016">
        <ele>60.025329</ele>
        <time>2021-08-22T13:14:35.583Z</time>
      </trkpt>
      <trkpt lat="41.12646" lon="29.94923">
        <ele>57.757526</ele>
        <time>2021-08-22T13:15:08.319Z</time>
      </trkpt>
      <trkpt lat="41.1252" lon="29.94753">
        <ele>52.230348</ele>
        <time>2021-08-22T13:15:49.189Z</time>
      </trkpt>
      <trkpt lat="41.12429" lon="29.94664">
        <ele>48.134446</ele>
        <time>2021-08-22T13:16:13.598Z</time>
      </trkpt>
      <trkpt lat="41.12411" lon="29.94597">
        <ele>46.174416</ele>
        <time>2021-08-22T13:16:25.272Z</time>
      </trkpt>
      <trkpt lat="41.1243" lon="29.9452">
        <ele>43.935043</ele>
        <time>2021-08-22T13:16:39.262Z</time>
      </trkpt>
      <trkpt lat="41.12511" lon="29.94481">
        <ele>44.712348</ele>
        <time>2021-08-22T13:17:02.331Z</time>
      </trkpt>
      <trkpt lat="41.12569" lon="29.94387">
        <ele>45.663148</ele>
        <time>2021-08-22T13:17:44.211Z</time>
      </trkpt>
      <trkpt lat="41.12641" lon="29.9436">
        <ele>50.252546</ele>
        <time>2021-08-22T13:18:31.672Z</time>
      </trkpt>
      <trkpt lat="41.12661" lon="29.94265">
        <ele>55.03113</ele>
        <time>2021-08-22T13:19:26.159Z</time>
      </trkpt>
      <trkpt lat="41.12749" lon="29.94062">
        <ele>66.608823</ele>
        <time>2021-08-22T13:21:35.192Z</time>
      </trkpt>
      <trkpt lat="41.12715" lon="29.93926">
        <ele>70.207538</ele>
        <time>2021-08-22T13:22:33.604Z</time>
      </trkpt>
      <trkpt lat="41.12639" lon="29.9379">
        <ele>71.326543</ele>
        <time>2021-08-22T13:23:14.449Z</time>
      </trkpt>
      <trkpt lat="41.1267" lon="29.93688">
        <ele>68.268109</ele>
        <time>2021-08-22T13:23:33.214Z</time>
      </trkpt>
      <trkpt lat="41.12647" lon="29.93501">
        <ele>61.768767</ele>
        <time>2021-08-22T13:24:02.964Z</time>
      </trkpt>
      <trkpt lat="41.12584" lon="29.93388">
        <ele>55.817692</ele>
        <time>2021-08-22T13:24:24.686Z</time>
      </trkpt>
      <trkpt lat="41.12583" lon="29.9331">
        <ele>53.8973</ele>
        <time>2021-08-22T13:24:37.273Z</time>
      </trkpt>
      <trkpt lat="41.12578" lon="29.93269">
        <ele>53.051063</ele>
        <time>2021-08-22T13:24:44.253Z</time>
      </trkpt>
      <trkpt lat="41.12466" lon="29.92972">
        <ele>49.479728</ele>
        <time>2021-08-22T13:25:51.051Z</time>
      </trkpt>
      <trkpt lat="41.12374" lon="29.92851">
        <ele>51.008369</ele>
        <time>2021-08-22T13:26:41.805Z</time>
      </trkpt>
      <trkpt lat="41.12318" lon="29.92764">
        <ele>52.528581</ele>
        <time>2021-08-22T13:27:20.290Z</time>
      </trkpt>
      <trkpt lat="41.12271" lon="29.92732">
        <ele>53.771331</ele>
        <time>2021-08-22T13:27:44.067Z</time>
      </trkpt>
      <trkpt lat="41.12178" lon="29.92645">
        <ele>56.438078</ele>
        <time>2021-08-22T13:28:34.135Z</time>
      </trkpt>
      <trkpt lat="41.12048" lon="29.92623">
        <ele>59.513933</ele>
        <time>2021-08-22T13:29:30.833Z</time>
      </trkpt>
      <trkpt lat="41.12007" lon="29.92589">
        <ele>60.648672</ele>
        <time>2021-08-22T13:29:52.398Z</time>
      </trkpt>
      <trkpt lat="41.11931" lon="29.92577">
        <ele>63.383893</ele>
        <time>2021-08-22T13:30:28.823Z</time>
      </trkpt>
      <trkpt lat="41.1191" lon="29.92567">
        <ele>64.209798</ele>
        <time>2021-08-22T13:30:40.397Z</time>
      </trkpt>
      <trkpt lat="41.11892" lon="29.9255">
        <ele>65.044025</ele>
        <time>2021-08-22T13:30:52.204Z</time>
      </trkpt>
      <trkpt lat="41.11882" lon="29.92511">
        <ele>66.219321</ele>
        <time>2021-08-22T13:31:09.123Z</time>
      </trkpt>
      <trkpt lat="41.11884" lon="29.92487">
        <ele>66.885863</ele>
        <time>2021-08-22T13:31:19.738Z</time>
      </trkpt>
      <trkpt lat="41.11881" lon="29.92474">
        <ele>67.290996</ele>
        <time>2021-08-22T13:31:26.252Z</time>
      </trkpt>
      <trkpt lat="41.11872" lon="29.92467">
        <ele>67.718076</ele>
        <time>2021-08-22T13:31:31.937Z</time>
      </trkpt>
      <trkpt lat="41.11865" lon="29.92463">
        <ele>68.07542</ele>
        <time>2021-08-22T13:31:36.429Z</time>
      </trkpt>
      <trkpt lat="41.11851" lon="29.92435">
        <ele>69.395592</ele>
        <time>2021-08-22T13:31:52.105Z</time>
      </trkpt>
      <trkpt lat="41.11839" lon="29.92414">
        <ele>70.399976</ele>
        <time>2021-08-22T13:32:04.296Z</time>
      </trkpt>
      <trkpt lat="41.11824" lon="29.92384">
        <ele>71.815435</ele>
        <time>2021-08-22T13:32:20.930Z</time>
      </trkpt>
      <trkpt lat="41.11816" lon="29.92362">
        <ele>72.733971</ele>
        <time>2021-08-22T13:32:32.255Z</time>
      </trkpt>
      <trkpt lat="41.1182" lon="29.92336">
        <ele>73.761328</ele>
        <time>2021-08-22T13:32:44.253Z</time>
      </trkpt>
      <trkpt lat="41.11822" lon="29.92322">
        <ele>74.326729</ele>
        <time>2021-08-22T13:32:51.463Z</time>
      </trkpt>
      <trkpt lat="41.11823" lon="29.92314">
        <ele>74.616632</ele>
        <time>2021-08-22T13:32:54.886Z</time>
      </trkpt>
      <trkpt lat="41.11819" lon="29.923">
        <ele>75.190792</ele>
        <time>2021-08-22T13:33:01.395Z</time>
      </trkpt>
      <trkpt lat="41.1181" lon="29.92265">
        <ele>76.623556</ele>
        <time>2021-08-22T13:33:19.932Z</time>
      </trkpt>
      <trkpt lat="41.11786" lon="29.92184">
        <ele>79.804394</ele>
        <time>2021-08-22T13:33:59.954Z</time>
      </trkpt>
      <trkpt lat="41.11761" lon="29.92108">
        <ele>82.848348</ele>
        <time>2021-08-22T13:34:35.812Z</time>
      </trkpt>
      <trkpt lat="41.11743" lon="29.92097">
        <ele>83.787081</ele>
        <time>2021-08-22T13:34:47.525Z</time>
      </trkpt>
      <trkpt lat="41.11701" lon="29.92073">
        <ele>86.103296</ele>
        <time>2021-08-22T13:35:13.493Z</time>
      </trkpt>
      <trkpt lat="41.11668" lon="29.92076">
        <ele>88.104016</ele>
        <time>2021-08-22T13:35:33.721Z</time>
      </trkpt>
      <trkpt lat="41.11624" lon="29.92106">
        <ele>91.1363</ele>
        <time>2021-08-22T13:36:05.653Z</time>
      </trkpt>
      <trkpt lat="41.11591" lon="29.91973">
        <ele>97.964439</ele>
        <time>2021-08-22T13:37:17.552Z</time>
      </trkpt>
      <trkpt lat="41.11511" lon="29.91673">
        <ele>118.532761</ele>
        <time>2021-08-22T13:40:32.594Z</time>
      </trkpt>
      <trkpt lat="41.11488" lon="29.91612">
        <ele>123.038503</ele>
        <time>2021-08-22T13:41:14.850Z</time>
      </trkpt>
      <trkpt lat="41.11464" lon="29.91521">
        <ele>128.648438</ele>
        <time>2021-08-22T13:42:12.421Z</time>
      </trkpt>
      <trkpt lat="41.11443" lon="29.91463">
        <ele>131.250571</ele>
        <time>2021-08-22T13:42:45.932Z</time>
      </trkpt>
      <trkpt lat="41.11412" lon="29.91408">
        <ele>134.013375</ele>
        <time>2021-08-22T13:43:16.595Z</time>
      </trkpt>
      <trkpt lat="41.11383" lon="29.91375">
        <ele>136.050187</ele>
        <time>2021-08-22T13:43:36.238Z</time>
      </trkpt>
      <trkpt lat="41.11331" lon="29.91344">
        <ele>137.68871</ele>
        <time>2021-08-22T13:44:02.164Z</time>
      </trkpt>
      <trkpt lat="41.11355" lon="29.91306">
        <ele>138.238689</ele>
        <time>2021-08-22T13:44:17.812Z</time>
      </trkpt>
      <trkpt lat="41.11368" lon="29.91252">
        <ele>138.868142</ele>
        <time>2021-08-22T13:44:33.194Z</time>
      </trkpt>
      <trkpt lat="41.11379" lon="29.91242">
        <ele>139.070474</ele>
        <time>2021-08-22T13:44:38.029Z</time>
      </trkpt>
      <trkpt lat="41.11422" lon="29.91234">
        <ele>139.721191</ele>
        <time>2021-08-22T13:44:53.946Z</time>
      </trkpt>
      <trkpt lat="41.11468" lon="29.91236">
        <ele>140.441727</ele>
        <time>2021-08-22T13:45:11.493Z</time>
      </trkpt>
      <trkpt lat="41.11483" lon="29.91228">
        <ele>140.69535</ele>
        <time>2021-08-22T13:45:18.302Z</time>
      </trkpt>
      <trkpt lat="41.1154" lon="29.91166">
        <ele>141.853907</ele>
        <time>2021-08-22T13:45:49.846Z</time>
      </trkpt>
      <trkpt lat="41.11592" lon="29.9107">
        <ele>143.334607</ele>
        <time>2021-08-22T13:46:27.762Z</time>
      </trkpt>
      <trkpt lat="41.11607" lon="29.91023">
        <ele>144.02579</ele>
        <time>2021-08-22T13:46:43.738Z</time>
      </trkpt>
      <trkpt lat="41.11629" lon="29.90993">
        <ele>144.596933</ele>
        <time>2021-08-22T13:46:56.805Z</time>
      </trkpt>
      <trkpt lat="41.1165" lon="29.90978">
        <ele>145.028265</ele>
        <time>2021-08-22T13:47:07.478Z</time>
      </trkpt>
      <trkpt lat="41.11646" lon="29.90968">
        <ele>145.19132</ele>
        <time>2021-08-22T13:47:10.712Z</time>
      </trkpt>
      <trkpt lat="41.11647" lon="29.90949">
        <ele>145.445837</ele>
        <time>2021-08-22T13:47:17.020Z</time>
      </trkpt>
      <trkpt lat="41.11674" lon="29.90885">
        <ele>146.619893</ele>
        <time>2021-08-22T13:47:40.904Z</time>
      </trkpt>
      <trkpt lat="41.1168" lon="29.90856">
        <ele>147.150396</ele>
        <time>2021-08-22T13:47:51.152Z</time>
      </trkpt>
      <trkpt lat="41.11676" lon="29.90799">
        <ele>148.174576</ele>
        <time>2021-08-22T13:48:11.033Z</time>
      </trkpt>
      <trkpt lat="41.11668" lon="29.90768">
        <ele>148.754775</ele>
        <time>2021-08-22T13:48:21.780Z</time>
      </trkpt>
      <trkpt lat="41.11649" lon="29.90651">
        <ele>150.809877</ele>
        <time>2021-08-22T13:49:05.383Z</time>
      </trkpt>
      <trkpt lat="41.11634" lon="29.90614">
        <ele>151.480478</ele>
        <time>2021-08-22T13:49:20.604Z</time>
      </trkpt>
      <trkpt lat="41.11616" lon="29.90591">
        <ele>152.011595</ele>
        <time>2021-08-22T13:49:32.126Z</time>
      </trkpt>
      <trkpt lat="41.11588" lon="29.9058">
        <ele>152.624888</ele>
        <time>2021-08-22T13:49:44.898Z</time>
      </trkpt>
      <trkpt lat="41.11522" lon="29.90511">
        <ele>153.772687</ele>
        <time>2021-08-22T13:50:20.388Z</time>
      </trkpt>
      <trkpt lat="41.115" lon="29.90484">
        <ele>153.553043</ele>
        <time>2021-08-22T13:50:30.275Z</time>
      </trkpt>
      <trkpt lat="41.11468" lon="29.90425">
        <ele>153.138625</ele>
        <time>2021-08-22T13:50:46.462Z</time>
      </trkpt>
      <trkpt lat="41.11459" lon="29.90395">
        <ele>152.958176</ele>
        <time>2021-08-22T13:50:53.258Z</time>
      </trkpt>
      <trkpt lat="41.11461" lon="29.90339">
        <ele>152.647091</ele>
        <time>2021-08-22T13:51:03.788Z</time>
      </trkpt>
      <trkpt lat="41.11459" lon="29.90297">
        <ele>151.865908</ele>
        <time>2021-08-22T13:51:11.606Z</time>
      </trkpt>
      <trkpt lat="41.11468" lon="29.90259">
        <ele>150.99656</ele>
        <time>2021-08-22T13:51:18.934Z</time>
      </trkpt>
      <trkpt lat="41.11472" lon="29.90213">
        <ele>149.989627</ele>
        <time>2021-08-22T13:51:27.368Z</time>
      </trkpt>
      <trkpt lat="41.11472" lon="29.90137">
        <ele>148.339445</ele>
        <time>2021-08-22T13:51:40.779Z</time>
      </trkpt>
      <trkpt lat="41.11466" lon="29.89917">
        <ele>144.406492</ele>
        <time>2021-08-22T13:52:22.963Z</time>
      </trkpt>
      <trkpt lat="41.11494" lon="29.89893">
        <ele>143.657177</ele>
        <time>2021-08-22T13:52:31.605Z</time>
      </trkpt>
      <trkpt lat="41.1165" lon="29.89737">
        <ele>138.36393</ele>
        <time>2021-08-22T13:53:18.311Z</time>
      </trkpt>
      <trkpt lat="41.1166" lon="29.89694">
        <ele>136.649646</ele>
        <time>2021-08-22T13:53:25.464Z</time>
      </trkpt>
      <trkpt lat="41.11659" lon="29.89678">
        <ele>136.022321</ele>
        <time>2021-08-22T13:53:28.047Z</time>
      </trkpt>
      <trkpt lat="41.1163" lon="29.89574">
        <ele>131.741526</ele>
        <time>2021-08-22T13:53:45.247Z</time>
      </trkpt>
      <trkpt lat="41.1155" lon="29.89321">
        <ele>122.339079</ele>
        <time>2021-08-22T13:54:28.649Z</time>
      </trkpt>
      <trkpt lat="41.11549" lon="29.89278">
        <ele>121.445181</ele>
        <time>2021-08-22T13:54:37.625Z</time>
      </trkpt>
      <trkpt lat="41.11558" lon="29.89236">
        <ele>121.446083</ele>
        <time>2021-08-22T13:54:48.118Z</time>
      </trkpt>
      <trkpt lat="41.11577" lon="29.89198">
        <ele>121.447008</ele>
        <time>2021-08-22T13:55:00.186Z</time>
      </trkpt>
      <trkpt lat="41.1159" lon="29.89157">
        <ele>121.447903</ele>
        <time>2021-08-22T13:55:13.074Z</time>
      </trkpt>
      <trkpt lat="41.11603" lon="29.89137">
        <ele>121.448427</ele>
        <time>2021-08-22T13:55:20.377Z</time>
      </trkpt>
      <trkpt lat="41.11614" lon="29.89117">
        <ele>121.448936</ele>
        <time>2021-08-22T13:55:27.610Z</time>
      </trkpt>
      <trkpt lat="41.11631" lon="29.89062">
        <ele>120.79835</ele>
        <time>2021-08-22T13:55:42.745Z</time>
      </trkpt>
      <trkpt lat="41.11642" lon="29.89054">
        <ele>120.303371</ele>
        <time>2021-08-22T13:55:46.160Z</time>
      </trkpt>
      <trkpt lat="41.11655" lon="29.89057">
        <ele>119.780574</ele>
        <time>2021-08-22T13:55:49.728Z</time>
      </trkpt>
      <trkpt lat="41.11665" lon="29.89068">
        <ele>119.240613</ele>
        <time>2021-08-22T13:55:52.974Z</time>
      </trkpt>
      <trkpt lat="41.1168" lon="29.8907">
        <ele>118.645606</ele>
        <time>2021-08-22T13:55:56.545Z</time>
      </trkpt>
      <trkpt lat="41.11695" lon="29.89057">
        <ele>117.923527</ele>
        <time>2021-08-22T13:56:00.300Z</time>
      </trkpt>
      <trkpt lat="41.117" lon="29.89052">
        <ele>117.6776</ele>
        <time>2021-08-22T13:56:01.596Z</time>
      </trkpt>
      <trkpt lat="41.11713" lon="29.89038">
        <ele>117.004104</ele>
        <time>2021-08-22T13:56:05.099Z</time>
      </trkpt>
      <trkpt lat="41.11716" lon="29.89028">
        <ele>116.661003</ele>
        <time>2021-08-22T13:56:06.797Z</time>
      </trkpt>
      <trkpt lat="41.1173" lon="29.88988">
        <ele>115.321733</ele>
        <time>2021-08-22T13:56:13.586Z</time>
      </trkpt>
      <trkpt lat="41.11738" lon="29.88937">
        <ele>113.537342</ele>
        <time>2021-08-22T13:56:21.457Z</time>
      </trkpt>
      <trkpt lat="41.11738" lon="29.88906">
        <ele>112.164853</ele>
        <time>2021-08-22T13:56:26.111Z</time>
      </trkpt>
      <trkpt lat="41.11738" lon="29.88894">
        <ele>111.634564</ele>
        <time>2021-08-22T13:56:27.834Z</time>
      </trkpt>
      <trkpt lat="41.11746" lon="29.8884">
        <ele>109.173993</ele>
        <time>2021-08-22T13:56:36.115Z</time>
      </trkpt>
      <trkpt lat="41.1175" lon="29.88756">
        <ele>105.450923</ele>
        <time>2021-08-22T13:56:49.003Z</time>
      </trkpt>
      <trkpt lat="41.11746" lon="29.88731">
        <ele>104.292911</ele>
        <time>2021-08-22T13:56:53.180Z</time>
      </trkpt>
      <trkpt lat="41.11743" lon="29.88721">
        <ele>103.804736</ele>
        <time>2021-08-22T13:56:55.172Z</time>
      </trkpt>
      <trkpt lat="41.11736" lon="29.88692">
        <ele>103.570659</ele>
        <time>2021-08-22T13:57:00.356Z</time>
      </trkpt>
      <trkpt lat="41.11737" lon="29.88673">
        <ele>103.57576</ele>
        <time>2021-08-22T13:57:04.292Z</time>
      </trkpt>
      <trkpt lat="41.11737" lon="29.88667">
        <ele>103.577388</ele>
        <time>2021-08-22T13:57:05.622Z</time>
      </trkpt>
      <trkpt lat="41.11767" lon="29.88572">
        <ele>103.605936</ele>
        <time>2021-08-22T13:57:30.125Z</time>
      </trkpt>
      <trkpt lat="41.118" lon="29.8849">
        <ele>103.774475</ele>
        <time>2021-08-22T13:58:00.077Z</time>
      </trkpt>
      <trkpt lat="41.1189" lon="29.88249">
        <ele>109.029988</ele>
        <time>2021-08-22T13:59:37.432Z</time>
      </trkpt>
      <trkpt lat="41.11922" lon="29.88144">
        <ele>110.316372</ele>
        <time>2021-08-22T14:00:11.762Z</time>
      </trkpt>
      <trkpt lat="41.11935" lon="29.88112">
        <ele>110.726709</ele>
        <time>2021-08-22T14:00:21.829Z</time>
      </trkpt>
      <trkpt lat="41.1194" lon="29.88101">
        <ele>110.863346</ele>
        <time>2021-08-22T14:00:25.000Z</time>
      </trkpt>
      <trkpt lat="41.11953" lon="29.88057">
        <ele>111.256979</ele>
        <time>2021-08-22T14:00:37.082Z</time>
      </trkpt>
      <trkpt lat="41.11961" lon="29.87986">
        <ele>110.847541</ele>
        <time>2021-08-22T14:00:53.800Z</time>
      </trkpt>
      <trkpt lat="41.11969" lon="29.87968">
        <ele>110.722973</ele>
        <time>2021-08-22T14:00:58.579Z</time>
      </trkpt>
      <trkpt lat="41.12076" lon="29.87864">
        <ele>108.909847</ele>
        <time>2021-08-22T14:01:33.557Z</time>
      </trkpt>
      <trkpt lat="41.12118" lon="29.87804">
        <ele>106.699314</ele>
        <time>2021-08-22T14:01:47.479Z</time>
      </trkpt>
      <trkpt lat="41.12163" lon="29.87723">
        <ele>103.943706</ele>
        <time>2021-08-22T14:02:04.010Z</time>
      </trkpt>
      <trkpt lat="41.12204" lon="29.87638">
        <ele>100.658207</ele>
        <time>2021-08-22T14:02:19.792Z</time>
      </trkpt>
      <trkpt lat="41.12328" lon="29.87383">
        <ele>93.44956</ele>
        <time>2021-08-22T14:03:09.817Z</time>
      </trkpt>
      <trkpt lat="41.12411" lon="29.87216">
        <ele>96.010997</ele>
        <time>2021-08-22T14:04:13.404Z</time>
      </trkpt>
      <trkpt lat="41.12439" lon="29.87171">
        <ele>98.056609</ele>
        <time>2021-08-22T14:04:41.919Z</time>
      </trkpt>
      <trkpt lat="41.12469" lon="29.87141">
        <ele>99.797224</ele>
        <time>2021-08-22T14:05:07.496Z</time>
      </trkpt>
      <trkpt lat="41.12581" lon="29.87091">
        <ele>109.075461</ele>
        <time>2021-08-22T14:06:40.275Z</time>
      </trkpt>
      <trkpt lat="41.12609" lon="29.87001">
        <ele>115.223975</ele>
        <time>2021-08-22T14:07:41.665Z</time>
      </trkpt>
      <trkpt lat="41.12618" lon="29.86974">
        <ele>116.1922</ele>
        <time>2021-08-22T14:07:58.556Z</time>
      </trkpt>
      <trkpt lat="41.12623" lon="29.86957">
        <ele>116.628783</ele>
        <time>2021-08-22T14:08:09.382Z</time>
      </trkpt>
      <trkpt lat="41.12626" lon="29.86929">
        <ele>117.30978</ele>
        <time>2021-08-22T14:08:23.341Z</time>
      </trkpt>
      <trkpt lat="41.12626" lon="29.86902">
        <ele>117.94872</ele>
        <time>2021-08-22T14:08:35.935Z</time>
      </trkpt>
      <trkpt lat="41.1263" lon="29.86884">
        <ele>118.374905</ele>
        <time>2021-08-22T14:08:43.123Z</time>
      </trkpt>
      <trkpt lat="41.12639" lon="29.86868">
        <ele>118.841779</ele>
        <time>2021-08-22T14:08:50.736Z</time>
      </trkpt>
      <trkpt lat="41.12648" lon="29.86859">
        <ele>119.196863</ele>
        <time>2021-08-22T14:08:57.116Z</time>
      </trkpt>
      <trkpt lat="41.12654" lon="29.86853">
        <ele>119.447165</ele>
        <time>2021-08-22T14:09:00.593Z</time>
      </trkpt>
      <trkpt lat="41.12658" lon="29.86846">
        <ele>119.65751</ele>
        <time>2021-08-22T14:09:03.253Z</time>
      </trkpt>
      <trkpt lat="41.12665" lon="29.86836">
        <ele>119.975987</ele>
        <time>2021-08-22T14:09:07.942Z</time>
      </trkpt>
      <trkpt lat="41.12671" lon="29.86815">
        <ele>120.50985</ele>
        <time>2021-08-22T14:09:12.779Z</time>
      </trkpt>
      <trkpt lat="41.12673" lon="29.86802">
        <ele>120.821285</ele>
        <time>2021-08-22T14:09:14.936Z</time>
      </trkpt>
      <trkpt lat="41.12676" lon="29.86793">
        <ele>121.058518</ele>
        <time>2021-08-22T14:09:17.442Z</time>
      </trkpt>
      <trkpt lat="41.12685" lon="29.86784">
        <ele>121.023561</ele>
        <time>2021-08-22T14:09:20.658Z</time>
      </trkpt>
      <trkpt lat="41.12689" lon="29.86781">
        <ele>120.669374</ele>
        <time>2021-08-22T14:09:21.559Z</time>
      </trkpt>
      <trkpt lat="41.12712" lon="29.86766">
        <ele>118.630772</ele>
        <time>2021-08-22T14:09:26.970Z</time>
      </trkpt>
      <trkpt lat="41.12735" lon="29.86745">
        <ele>116.420968</ele>
        <time>2021-08-22T14:09:32.523Z</time>
      </trkpt>
      <trkpt lat="41.12752" lon="29.86715">
        <ele>114.235789</ele>
        <time>2021-08-22T14:09:37.953Z</time>
      </trkpt>
      <trkpt lat="41.12756" lon="29.86689">
        <ele>112.653163</ele>
        <time>2021-08-22T14:09:41.942Z</time>
      </trkpt>
      <trkpt lat="41.12757" lon="29.8668">
        <ele>112.099329</ele>
        <time>2021-08-22T14:09:43.240Z</time>
      </trkpt>
      <trkpt lat="41.1276" lon="29.86663">
        <ele>111.064732</ele>
        <time>2021-08-22T14:09:45.672Z</time>
      </trkpt>
      <trkpt lat="41.12764" lon="29.86646">
        <ele>110.059162</ele>
        <time>2021-08-22T14:09:48.184Z</time>
      </trkpt>
      <trkpt lat="41.12775" lon="29.8663">
        <ele>108.744318</ele>
        <time>2021-08-22T14:09:51.262Z</time>
      </trkpt>
      <trkpt lat="41.12803" lon="29.86608">
        <ele>105.880766</ele>
        <time>2021-08-22T14:09:57.410Z</time>
      </trkpt>
      <trkpt lat="41.12832" lon="29.8659">
        <ele>102.622458</ele>
        <time>2021-08-22T14:10:03.421Z</time>
      </trkpt>
      <trkpt lat="41.12936" lon="29.86546">
        <ele>91.533474</ele>
        <time>2021-08-22T14:10:24.011Z</time>
      </trkpt>
      <trkpt lat="41.12994" lon="29.86548">
        <ele>86.386252</ele>
        <time>2021-08-22T14:10:35.388Z</time>
      </trkpt>
      <trkpt lat="41.13053" lon="29.86561">
        <ele>81.904308</ele>
        <time>2021-08-22T14:10:47.035Z</time>
      </trkpt>
      <trkpt lat="41.1308" lon="29.86556">
        <ele>79.785481</ele>
        <time>2021-08-22T14:10:52.613Z</time>
      </trkpt>
      <trkpt lat="41.13095" lon="29.86547">
        <ele>78.561012</ele>
        <time>2021-08-22T14:10:55.861Z</time>
      </trkpt>
      <trkpt lat="41.13102" lon="29.8653">
        <ele>77.46398</ele>
        <time>2021-08-22T14:10:58.780Z</time>
      </trkpt>
      <trkpt lat="41.13086" lon="29.86429">
        <ele>72.147625</ele>
        <time>2021-08-22T14:11:14.552Z</time>
      </trkpt>
      <trkpt lat="41.13065" lon="29.86393">
        <ele>69.945394</ele>
        <time>2021-08-22T14:11:21.562Z</time>
      </trkpt>
      <trkpt lat="41.13006" lon="29.86316">
        <ele>64.643378</ele>
        <time>2021-08-22T14:11:38.439Z</time>
      </trkpt>
      <trkpt lat="41.12982" lon="29.86296">
        <ele>62.918262</ele>
        <time>2021-08-22T14:11:44.261Z</time>
      </trkpt>
      <trkpt lat="41.12878" lon="29.86258">
        <ele>56.863273</ele>
        <time>2021-08-22T14:12:06.413Z</time>
      </trkpt>
      <trkpt lat="41.12837" lon="29.86251">
        <ele>54.518133</ele>
        <time>2021-08-22T14:12:15.148Z</time>
      </trkpt>
      <trkpt lat="41.12825" lon="29.8624">
        <ele>53.680221</ele>
        <time>2021-08-22T14:12:18.304Z</time>
      </trkpt>
      <trkpt lat="41.12819" lon="29.86212">
        <ele>52.293413</ele>
        <time>2021-08-22T14:12:22.805Z</time>
      </trkpt>
      <trkpt lat="41.12821" lon="29.86188">
        <ele>51.061082</ele>
        <time>2021-08-22T14:12:26.731Z</time>
      </trkpt>
      <trkpt lat="41.12849" lon="29.86107">
        <ele>46.629423</ele>
        <time>2021-08-22T14:12:40.559Z</time>
      </trkpt>
      <trkpt lat="41.12854" lon="29.86043">
        <ele>43.436682</ele>
        <time>2021-08-22T14:12:50.287Z</time>
      </trkpt>
      <trkpt lat="41.12849" lon="29.85904">
        <ele>33.469994</ele>
        <time>2021-08-22T14:13:10.596Z</time>
      </trkpt>
      <trkpt lat="41.12817" lon="29.85678">
        <ele>16.216293</ele>
        <time>2021-08-22T14:13:42.990Z</time>
      </trkpt>
      <trkpt lat="41.12808" lon="29.85613">
        <ele>11.649689</ele>
        <time>2021-08-22T14:13:52.569Z</time>
      </trkpt>
      <trkpt lat="41.12804" lon="29.8558">
        <ele>9.346935</ele>
        <time>2021-08-22T14:13:57.584Z</time>
      </trkpt>
      <trkpt lat="41.12795" lon="29.85508">
        <ele>5.795223</ele>
        <time>2021-08-22T14:14:08.959Z</time>
      </trkpt>
      <trkpt lat="41.12781" lon="29.85443">
        <ele>4.776812</ele>
        <time>2021-08-22T14:14:20.302Z</time>
      </trkpt>
      <trkpt lat="41.12725" lon="29.85308">
        <ele>2.650205</ele>
        <time>2021-08-22T14:14:55.821Z</time>
      </trkpt>
      <trkpt lat="41.12709" lon="29.85269">
        <ele>2.847264</ele>
        <time>2021-08-22T14:15:07.577Z</time>
      </trkpt>
      <trkpt lat="41.12745" lon="29.85295">
        <ele>3.090054</ele>
        <time>2021-08-22T14:15:22.110Z</time>
      </trkpt>
      <trkpt lat="41.12774" lon="29.85304">
        <ele>3.264916</ele>
        <time>2021-08-22T14:15:32.605Z</time>
      </trkpt>
      <trkpt lat="41.12866" lon="29.85297">
        <ele>3.75149</ele>
        <time>2021-08-22T14:16:05.152Z</time>
      </trkpt>
      <trkpt lat="41.12983" lon="29.85328">
        <ele>4.177436</ele>
        <time>2021-08-22T14:16:44.733Z</time>
      </trkpt>
      <trkpt lat="41.13039" lon="29.85353">
        <ele>4.391971</ele>
        <time>2021-08-22T14:17:03.247Z</time>
      </trkpt>
      <trkpt lat="41.13077" lon="29.85381">
        <ele>4.552571</ele>
        <time>2021-08-22T14:17:16.427Z</time>
      </trkpt>
      <trkpt lat="41.13177" lon="29.85469">
        <ele>5.16951</ele>
        <time>2021-08-22T14:17:55.655Z</time>
      </trkpt>
      <trkpt lat="41.13225" lon="29.85502">
        <ele>6.716258</ele>
        <time>2021-08-22T14:18:18.834Z</time>
      </trkpt>
      <trkpt lat="41.13257" lon="29.85513">
        <ele>7.689927</ele>
        <time>2021-08-22T14:18:34.657Z</time>
      </trkpt>
      <trkpt lat="41.1327" lon="29.85473">
        <ele>8.634821</ele>
        <time>2021-08-22T14:18:52.072Z</time>
      </trkpt>
      <trkpt lat="41.13286" lon="29.85445">
        <ele>9.391578</ele>
        <time>2021-08-22T14:19:06.579Z</time>
      </trkpt>
      <trkpt lat="41.13292" lon="29.85428">
        <ele>9.80459</ele>
        <time>2021-08-22T14:19:14.801Z</time>
      </trkpt>
      <trkpt lat="41.13297" lon="29.85411">
        <ele>10.192995</ele>
        <time>2021-08-22T14:19:22.422Z</time>
      </trkpt>
      <trkpt lat="41.13299" lon="29.85372">
        <ele>11.052294</ele>
        <time>2021-08-22T14:19:39.212Z</time>
      </trkpt>
      <trkpt lat="41.13299" lon="29.85335">
        <ele>11.852695</ele>
        <time>2021-08-22T14:19:54.537Z</time>
      </trkpt>
      <trkpt lat="41.13295" lon="29.85308">
        <ele>12.473854</ele>
        <time>2021-08-22T14:20:06.422Z</time>
      </trkpt>
      <trkpt lat="41.13283" lon="29.85219">
        <ele>14.448174</ele>
        <time>2021-08-22T14:20:38.491Z</time>
      </trkpt>
      <trkpt lat="41.13279" lon="29.85185">
        <ele>15.207963</ele>
        <time>2021-08-22T14:20:48.297Z</time>
      </trkpt>
      <trkpt lat="41.13278" lon="29.8518">
        <ele>15.318979</ele>
        <time>2021-08-22T14:20:49.888Z</time>
      </trkpt>
      <trkpt lat="41.13278" lon="29.8517">
        <ele>15.472555</ele>
        <time>2021-08-22T14:20:52.872Z</time>
      </trkpt>
      <trkpt lat="41.13277" lon="29.8515">
        <ele>15.726576</ele>
        <time>2021-08-22T14:20:58.240Z</time>
      </trkpt>
      <trkpt lat="41.13263" lon="29.85031">
        <ele>17.271354</ele>
        <time>2021-08-22T14:21:29.909Z</time>
      </trkpt>
      <trkpt lat="41.13261" lon="29.8501">
        <ele>17.540482</ele>
        <time>2021-08-22T14:21:34.939Z</time>
      </trkpt>
      <trkpt lat="41.13263" lon="29.84986">
        <ele>17.845564</ele>
        <time>2021-08-22T14:21:43.694Z</time>
      </trkpt>
      <trkpt lat="41.13271" lon="29.84967">
        <ele>18.128608</ele>
        <time>2021-08-22T14:21:51.167Z</time>
      </trkpt>
      <trkpt lat="41.13317" lon="29.84904">
        <ele>21.012498</ele>
        <time>2021-08-22T14:22:31.082Z</time>
      </trkpt>
      <trkpt lat="41.1332" lon="29.84891">
        <ele>21.563639</ele>
        <time>2021-08-22T14:22:36.772Z</time>
      </trkpt>
      <trkpt lat="41.13317" lon="29.84865">
        <ele>22.630221</ele>
        <time>2021-08-22T14:22:51.838Z</time>
      </trkpt>
      <trkpt lat="41.13317" lon="29.84833">
        <ele>23.953134</ele>
        <time>2021-08-22T14:23:07.611Z</time>
      </trkpt>
      <trkpt lat="41.13315" lon="29.84789">
        <ele>25.740965</ele>
        <time>2021-08-22T14:23:31.382Z</time>
      </trkpt>
      <trkpt lat="41.13308" lon="29.84723">
        <ele>28.017271</ele>
        <time>2021-08-22T14:24:08.635Z</time>
      </trkpt>
      <trkpt lat="41.13305" lon="29.84599">
        <ele>26.254299</ele>
        <time>2021-08-22T14:24:45.850Z</time>
      </trkpt>
      <trkpt lat="41.13309" lon="29.84494">
        <ele>24.762369</ele>
        <time>2021-08-22T14:25:02.963Z</time>
      </trkpt>
      <trkpt lat="41.13334" lon="29.84498">
        <ele>22.501734</ele>
        <time>2021-08-22T14:25:07.770Z</time>
      </trkpt>
      <trkpt lat="41.13396" lon="29.84528">
        <ele>16.264923</ele>
        <time>2021-08-22T14:25:20.856Z</time>
      </trkpt>
      <trkpt lat="41.13406" lon="29.8452">
        <ele>15.161724</ele>
        <time>2021-08-22T14:25:23.295Z</time>
      </trkpt>
      <trkpt lat="41.13423" lon="29.84493">
        <ele>12.714884</ele>
        <time>2021-08-22T14:25:28.336Z</time>
      </trkpt>
      <trkpt lat="41.13435" lon="29.84462">
        <ele>10.269517</ele>
        <time>2021-08-22T14:25:33.620Z</time>
      </trkpt>
      <trkpt lat="41.13439" lon="29.84453">
        <ele>9.474944</ele>
        <time>2021-08-22T14:25:35.206Z</time>
      </trkpt>
      <trkpt lat="41.13454" lon="29.84422">
        <ele>7.51082</ele>
        <time>2021-08-22T14:25:41.170Z</time>
      </trkpt>
      <trkpt lat="41.13478" lon="29.84377">
        <ele>6.265874</ele>
        <time>2021-08-22T14:25:50.191Z</time>
      </trkpt>
      <trkpt lat="41.13453" lon="29.84355">
        <ele>5.361365</ele>
        <time>2021-08-22T14:25:57.571Z</time>
      </trkpt>
      <trkpt lat="41.13484" lon="29.843">
        <ele>3.795445</ele>
        <time>2021-08-22T14:26:10.371Z</time>
      </trkpt>
      <trkpt lat="41.13497" lon="29.84278">
        <ele>3.149687</ele>
        <time>2021-08-22T14:26:18.008Z</time>
      </trkpt>
      <trkpt lat="41.13535" lon="29.84209">
        <ele>2.892463</ele>
        <time>2021-08-22T14:26:40.779Z</time>
      </trkpt>
      <trkpt lat="41.13543" lon="29.84215">
        <ele>3.012822</ele>
        <time>2021-08-22T14:26:43.610Z</time>
      </trkpt>
      <trkpt lat="41.13566" lon="29.84164">
        <ele>3.651778</ele>
        <time>2021-08-22T14:27:00.345Z</time>
      </trkpt>
      <trkpt lat="41.13585" lon="29.84118">
        <ele>4.233591</ele>
        <time>2021-08-22T14:27:16.768Z</time>
      </trkpt>
      <trkpt lat="41.1359" lon="29.84107">
        <ele>4.367348</ele>
        <time>2021-08-22T14:27:20.636Z</time>
      </trkpt>
      <trkpt lat="41.13592" lon="29.841">
        <ele>4.449284</ele>
        <time>2021-08-22T14:27:23.017Z</time>
      </trkpt>
      <trkpt lat="41.13596" lon="29.84089">
        <ele>4.58416</ele>
        <time>2021-08-22T14:27:26.899Z</time>
      </trkpt>
      <trkpt lat="41.13598" lon="29.84072">
        <ele>4.762672</ele>
        <time>2021-08-22T14:27:32.321Z</time>
      </trkpt>
      <trkpt lat="41.13601" lon="29.84047">
        <ele>5.199694</ele>
        <time>2021-08-22T14:27:40.677Z</time>
      </trkpt>
      <trkpt lat="41.13601" lon="29.84043">
        <ele>5.315647</ele>
        <time>2021-08-22T14:27:42.030Z</time>
      </trkpt>
      <trkpt lat="41.136" lon="29.83975">
        <ele>7.203148</ele>
        <time>2021-08-22T14:28:09.277Z</time>
      </trkpt>
      <trkpt lat="41.1359" lon="29.83841">
        <ele>10.899546</ele>
        <time>2021-08-22T14:29:04.109Z</time>
      </trkpt>
      <trkpt lat="41.13583" lon="29.83799">
        <ele>11.913246</ele>
        <time>2021-08-22T14:29:21.855Z</time>
      </trkpt>
      <trkpt lat="41.13588" lon="29.83751">
        <ele>12.817576</ele>
        <time>2021-08-22T14:29:40.027Z</time>
      </trkpt>
      <trkpt lat="41.13605" lon="29.83672">
        <ele>14.348579</ele>
        <time>2021-08-22T14:30:08.644Z</time>
      </trkpt>
      <trkpt lat="41.13653" lon="29.83551">
        <ele>16.425381</ele>
        <time>2021-08-22T14:30:47.953Z</time>
      </trkpt>
      <trkpt lat="41.13692" lon="29.83412">
        <ele>17.742447</ele>
        <time>2021-08-22T14:31:29.162Z</time>
      </trkpt>
      <trkpt lat="41.13706" lon="29.8333">
        <ele>18.743895</ele>
        <time>2021-08-22T14:31:54.029Z</time>
      </trkpt>
      <trkpt lat="41.13724" lon="29.83239">
        <ele>20.136068</ele>
        <time>2021-08-22T14:32:22.528Z</time>
      </trkpt>
      <trkpt lat="41.13747" lon="29.82979">
        <ele>25.497792</ele>
        <time>2021-08-22T14:33:51.890Z</time>
      </trkpt>
      <trkpt lat="41.13756" lon="29.82912">
        <ele>27.129322</ele>
        <time>2021-08-22T14:34:19.831Z</time>
      </trkpt>
      <trkpt lat="41.13762" lon="29.82679">
        <ele>34.174345</ele>
        <time>2021-08-22T14:36:03.209Z</time>
      </trkpt>
      <trkpt lat="41.13761" lon="29.82655">
        <ele>34.591224</ele>
        <time>2021-08-22T14:36:12.792Z</time>
      </trkpt>
      <trkpt lat="41.13764" lon="29.82641">
        <ele>34.397809</ele>
        <time>2021-08-22T14:36:15.697Z</time>
      </trkpt>
      <trkpt lat="41.13833" lon="29.82497">
        <ele>32.181126</ele>
        <time>2021-08-22T14:36:48.491Z</time>
      </trkpt>
      <trkpt lat="41.13837" lon="29.82485">
        <ele>32.005626</ele>
        <time>2021-08-22T14:36:50.544Z</time>
      </trkpt>
      <trkpt lat="41.13882" lon="29.82366">
        <ele>28.426229</ele>
        <time>2021-08-22T14:37:11.348Z</time>
      </trkpt>
      <trkpt lat="41.13901" lon="29.82311">
        <ele>26.526488</ele>
        <time>2021-08-22T14:37:20.782Z</time>
      </trkpt>
      <trkpt lat="41.13916" lon="29.82213">
        <ele>24.026946</ele>
        <time>2021-08-22T14:37:38.654Z</time>
      </trkpt>
      <trkpt lat="41.13916" lon="29.82209">
        <ele>24.024439</ele>
        <time>2021-08-22T14:37:40.380Z</time>
      </trkpt>
      <trkpt lat="41.13919" lon="29.82161">
        <ele>23.998777</ele>
        <time>2021-08-22T14:37:50.854Z</time>
      </trkpt>
      <trkpt lat="41.13917" lon="29.8213">
        <ele>23.982466</ele>
        <time>2021-08-22T14:37:57.513Z</time>
      </trkpt>
      <trkpt lat="41.13919" lon="29.82107">
        <ele>23.970433</ele>
        <time>2021-08-22T14:38:04.628Z</time>
      </trkpt>
      <trkpt lat="41.13922" lon="29.82027">
        <ele>23.927548</ele>
        <time>2021-08-22T14:38:26.003Z</time>
      </trkpt>
      <trkpt lat="41.1395" lon="29.81888">
        <ele>23.679797</ele>
        <time>2021-08-22T14:39:04.576Z</time>
      </trkpt>
      <trkpt lat="41.1401" lon="29.81773">
        <ele>23.29867</ele>
        <time>2021-08-22T14:39:32.596Z</time>
      </trkpt>
      <trkpt lat="41.14026" lon="29.8174">
        <ele>22.934008</ele>
        <time>2021-08-22T14:39:40.243Z</time>
      </trkpt>
      <trkpt lat="41.1403" lon="29.81732">
        <ele>22.847743</ele>
        <time>2021-08-22T14:39:42.123Z</time>
      </trkpt>
      <trkpt lat="41.14034" lon="29.81721">
        <ele>22.735992</ele>
        <time>2021-08-22T14:39:44.250Z</time>
      </trkpt>
      <trkpt lat="41.14043" lon="29.81676">
        <ele>22.305662</ele>
        <time>2021-08-22T14:39:53.209Z</time>
      </trkpt>
      <trkpt lat="41.14041" lon="29.81657">
        <ele>22.134411</ele>
        <time>2021-08-22T14:39:56.920Z</time>
      </trkpt>
      <trkpt lat="41.14029" lon="29.81633">
        <ele>21.860857</ele>
        <time>2021-08-22T14:40:02.500Z</time>
      </trkpt>
      <trkpt lat="41.13792" lon="29.81429">
        <ele>21.415915</ele>
        <time>2021-08-22T14:41:24.547Z</time>
      </trkpt>
      <trkpt lat="41.13761" lon="29.81398">
        <ele>22.125745</ele>
        <time>2021-08-22T14:41:40.620Z</time>
      </trkpt>
      <trkpt lat="41.1374" lon="29.81379">
        <ele>22.578383</ele>
        <time>2021-08-22T14:41:51.507Z</time>
      </trkpt>
      <trkpt lat="41.1371" lon="29.81349">
        <ele>23.256612</ele>
        <time>2021-08-22T14:42:08.642Z</time>
      </trkpt>
      <trkpt lat="41.13688" lon="29.81327">
        <ele>23.771017</ele>
        <time>2021-08-22T14:42:22.061Z</time>
      </trkpt>
      <trkpt lat="41.13643" lon="29.81282">
        <ele>27.040756</ele>
        <time>2021-08-22T14:42:54.030Z</time>
      </trkpt>
      <trkpt lat="41.13574" lon="29.81216">
        <ele>32.037034</ele>
        <time>2021-08-22T14:43:50.284Z</time>
      </trkpt>
      <trkpt lat="41.13531" lon="29.81177">
        <ele>35.460842</ele>
        <time>2021-08-22T14:44:28.040Z</time>
      </trkpt>
      <trkpt lat="41.13524" lon="29.8117">
        <ele>36.205154</ele>
        <time>2021-08-22T14:44:35.888Z</time>
      </trkpt>
      <trkpt lat="41.13465" lon="29.81103">
        <ele>42.756375</ele>
        <time>2021-08-22T14:45:36.008Z</time>
      </trkpt>
      <trkpt lat="41.13451" lon="29.81077">
        <ele>44.774791</ele>
        <time>2021-08-22T14:45:55.530Z</time>
      </trkpt>
      <trkpt lat="41.13425" lon="29.80845">
        <ele>59.746939</ele>
        <time>2021-08-22T14:48:19.202Z</time>
      </trkpt>
      <trkpt lat="41.13412" lon="29.8081">
        <ele>62.242308</ele>
        <time>2021-08-22T14:48:41.765Z</time>
      </trkpt>
      <trkpt lat="41.13384" lon="29.80795">
        <ele>64.847411</ele>
        <time>2021-08-22T14:49:04.707Z</time>
      </trkpt>
      <trkpt lat="41.13299" lon="29.80827">
        <ele>71.517333</ele>
        <time>2021-08-22T14:50:07.976Z</time>
      </trkpt>
      <trkpt lat="41.13281" lon="29.80814">
        <ele>73.000844</ele>
        <time>2021-08-22T14:50:21.856Z</time>
      </trkpt>
      <trkpt lat="41.1327" lon="29.80792">
        <ele>74.540774</ele>
        <time>2021-08-22T14:50:36.452Z</time>
      </trkpt>
      <trkpt lat="41.13265" lon="29.80764">
        <ele>76.148173</ele>
        <time>2021-08-22T14:50:51.858Z</time>
      </trkpt>
      <trkpt lat="41.13267" lon="29.80722">
        <ele>78.590935</ele>
        <time>2021-08-22T14:51:15.763Z</time>
      </trkpt>
      <trkpt lat="41.13304" lon="29.80574">
        <ele>89.093805</ele>
        <time>2021-08-22T14:52:50.341Z</time>
      </trkpt>
      <trkpt lat="41.13308" lon="29.80539">
        <ele>91.494981</ele>
        <time>2021-08-22T14:53:13.255Z</time>
      </trkpt>
      <trkpt lat="41.13308" lon="29.80472">
        <ele>96.068067</ele>
        <time>2021-08-22T14:53:57.691Z</time>
      </trkpt>
      <trkpt lat="41.13273" lon="29.80214">
        <ele>113.471693</ele>
        <time>2021-08-22T14:56:40.927Z</time>
      </trkpt>
      <trkpt lat="41.13275" lon="29.80187">
        <ele>114.907871</ele>
        <time>2021-08-22T14:56:55.650Z</time>
      </trkpt>
      <trkpt lat="41.13286" lon="29.80149">
        <ele>117.093115</ele>
        <time>2021-08-22T14:57:17.003Z</time>
      </trkpt>
      <trkpt lat="41.13359" lon="29.79987">
        <ele>125.673179</ele>
        <time>2021-08-22T14:58:50.082Z</time>
      </trkpt>
      <trkpt lat="41.13379" lon="29.79939">
        <ele>127.380547</ele>
        <time>2021-08-22T14:59:13.868Z</time>
      </trkpt>
      <trkpt lat="41.13386" lon="29.79915">
        <ele>128.188007</ele>
        <time>2021-08-22T14:59:23.937Z</time>
      </trkpt>
      <trkpt lat="41.13389" lon="29.79893">
        <ele>128.875453</ele>
        <time>2021-08-22T14:59:32.942Z</time>
      </trkpt>
      <trkpt lat="41.13405" lon="29.79756">
        <ele>130.677168</ele>
        <time>2021-08-22T15:00:18.327Z</time>
      </trkpt>
      <trkpt lat="41.13415" lon="29.79734">
        <ele>130.520558</ele>
        <time>2021-08-22T15:00:24.645Z</time>
      </trkpt>
      <trkpt lat="41.13551" lon="29.79603">
        <ele>127.515658</ele>
        <time>2021-08-22T15:01:04.790Z</time>
      </trkpt>
      <trkpt lat="41.13668" lon="29.79466">
        <ele>121.582536</ele>
        <time>2021-08-22T15:01:38.851Z</time>
      </trkpt>
      <trkpt lat="41.13705" lon="29.79391">
        <ele>118.415473</ele>
        <time>2021-08-22T15:01:53.599Z</time>
      </trkpt>
      <trkpt lat="41.13749" lon="29.79337">
        <ele>115.616147</ele>
        <time>2021-08-22T15:02:06.422Z</time>
      </trkpt>
      <trkpt lat="41.1378" lon="29.79323">
        <ele>113.851104</ele>
        <time>2021-08-22T15:02:13.030Z</time>
      </trkpt>
      <trkpt lat="41.13864" lon="29.79298">
        <ele>108.191956</ele>
        <time>2021-08-22T15:02:30.768Z</time>
      </trkpt>
      <trkpt lat="41.13878" lon="29.79292">
        <ele>107.260832</ele>
        <time>2021-08-22T15:02:33.595Z</time>
      </trkpt>
      <trkpt lat="41.13938" lon="29.79303">
        <ele>103.32946</ele>
        <time>2021-08-22T15:02:46.255Z</time>
      </trkpt>
      <trkpt lat="41.14011" lon="29.79244">
        <ele>97.198056</ele>
        <time>2021-08-22T15:03:03.893Z</time>
      </trkpt>
      <trkpt lat="41.14027" lon="29.79243">
        <ele>96.062542</ele>
        <time>2021-08-22T15:03:07.169Z</time>
      </trkpt>
      <trkpt lat="41.14039" lon="29.79247">
        <ele>95.179921</ele>
        <time>2021-08-22T15:03:09.728Z</time>
      </trkpt>
      <trkpt lat="41.14084" lon="29.79291">
        <ele>91.158181</ele>
        <time>2021-08-22T15:03:21.498Z</time>
      </trkpt>
      <trkpt lat="41.14095" lon="29.7931">
        <ele>89.985351</ele>
        <time>2021-08-22T15:03:25.323Z</time>
      </trkpt>
      <trkpt lat="41.14144" lon="29.79305">
        <ele>87.688393</ele>
        <time>2021-08-22T15:03:36.027Z</time>
      </trkpt>
      <trkpt lat="41.14205" lon="29.79324">
        <ele>84.720929</ele>
        <time>2021-08-22T15:03:50.510Z</time>
      </trkpt>
      <trkpt lat="41.14225" lon="29.79323">
        <ele>83.769789</ele>
        <time>2021-08-22T15:03:55.206Z</time>
      </trkpt>
      <trkpt lat="41.1431" lon="29.79178">
        <ele>77.37744</ele>
        <time>2021-08-22T15:04:26.740Z</time>
      </trkpt>
      <trkpt lat="41.14329" lon="29.79195">
        <ele>76.321325</ele>
        <time>2021-08-22T15:04:31.437Z</time>
      </trkpt>
      <trkpt lat="41.14368" lon="29.79215">
        <ele>74.386111</ele>
        <time>2021-08-22T15:04:40.697Z</time>
      </trkpt>
      <trkpt lat="41.14399" lon="29.79213">
        <ele>72.953175</ele>
        <time>2021-08-22T15:04:46.958Z</time>
      </trkpt>
      <trkpt lat="41.14418" lon="29.79205">
        <ele>71.941038</ele>
        <time>2021-08-22T15:04:51.550Z</time>
      </trkpt>
      <trkpt lat="41.14423" lon="29.79186">
        <ele>71.201567</ele>
        <time>2021-08-22T15:04:54.426Z</time>
      </trkpt>
      <trkpt lat="41.14419" lon="29.79166">
        <ele>70.414555</ele>
        <time>2021-08-22T15:04:58.118Z</time>
      </trkpt>
      <trkpt lat="41.14387" lon="29.79115">
        <ele>67.902315</ele>
        <time>2021-08-22T15:05:08.434Z</time>
      </trkpt>
      <trkpt lat="41.14355" lon="29.79078">
        <ele>65.782877</ele>
        <time>2021-08-22T15:05:17.387Z</time>
      </trkpt>
      <trkpt lat="41.14362" lon="29.7905">
        <ele>64.655121</ele>
        <time>2021-08-22T15:05:22.400Z</time>
      </trkpt>
      <trkpt lat="41.14406" lon="29.79005">
        <ele>61.814039</ele>
        <time>2021-08-22T15:05:34.226Z</time>
      </trkpt>
      <trkpt lat="41.14423" lon="29.78972">
        <ele>60.280454</ele>
        <time>2021-08-22T15:05:40.569Z</time>
      </trkpt>
      <trkpt lat="41.14426" lon="29.78931">
        <ele>58.686772</ele>
        <time>2021-08-22T15:05:47.123Z</time>
      </trkpt>
      <trkpt lat="41.14421" lon="29.78901">
        <ele>57.49979</ele>
        <time>2021-08-22T15:05:51.978Z</time>
      </trkpt>
      <trkpt lat="41.14407" lon="29.7886">
        <ele>55.755291</ele>
        <time>2021-08-22T15:05:59.086Z</time>
      </trkpt>
      <trkpt lat="41.14392" lon="29.78836">
        <ele>54.632132</ele>
        <time>2021-08-22T15:06:03.908Z</time>
      </trkpt>
      <trkpt lat="41.14351" lon="29.78777">
        <ele>51.849204</ele>
        <time>2021-08-22T15:06:16.507Z</time>
      </trkpt>
      <trkpt lat="41.1431" lon="29.78729">
        <ele>49.335475</ele>
        <time>2021-08-22T15:06:28.077Z</time>
      </trkpt>
      <trkpt lat="41.143" lon="29.78689">
        <ele>47.894043</ele>
        <time>2021-08-22T15:06:34.932Z</time>
      </trkpt>
      <trkpt lat="41.14301" lon="29.78629">
        <ele>47.252855</ele>
        <time>2021-08-22T15:06:45.496Z</time>
      </trkpt>
      <trkpt lat="41.14311" lon="29.78613">
        <ele>47.450188</ele>
        <time>2021-08-22T15:06:49.564Z</time>
      </trkpt>
      <trkpt lat="41.14327" lon="29.78609">
        <ele>47.647126</ele>
        <time>2021-08-22T15:06:53.863Z</time>
      </trkpt>
      <trkpt lat="41.1437" lon="29.78632">
        <ele>48.21188</ele>
        <time>2021-08-22T15:07:08.760Z</time>
      </trkpt>
      <trkpt lat="41.14393" lon="29.78633">
        <ele>48.497925</ele>
        <time>2021-08-22T15:07:18.231Z</time>
      </trkpt>
      <trkpt lat="41.14418" lon="29.78626">
        <ele>48.811934</ele>
        <time>2021-08-22T15:07:30.138Z</time>
      </trkpt>
      <trkpt lat="41.14485" lon="29.78589">
        <ele>53.829647</ele>
        <time>2021-08-22T15:08:19.167Z</time>
      </trkpt>
      <trkpt lat="41.14567" lon="29.78524">
        <ele>63.73486</ele>
        <time>2021-08-22T15:09:52.876Z</time>
      </trkpt>
      <trkpt lat="41.14582" lon="29.78507">
        <ele>65.759944</ele>
        <time>2021-08-22T15:10:12.704Z</time>
      </trkpt>
      <trkpt lat="41.14589" lon="29.78494">
        <ele>67.00583</ele>
        <time>2021-08-22T15:10:26.077Z</time>
      </trkpt>
      <trkpt lat="41.14595" lon="29.78463">
        <ele>69.470963</ele>
        <time>2021-08-22T15:10:51.576Z</time>
      </trkpt>
      <trkpt lat="41.14597" lon="29.78431">
        <ele>71.814083</ele>
        <time>2021-08-22T15:11:16.275Z</time>
      </trkpt>
      <trkpt lat="41.14588" lon="29.7835">
        <ele>77.914378</ele>
        <time>2021-08-22T15:12:17.061Z</time>
      </trkpt>
      <trkpt lat="41.14575" lon="29.78304">
        <ele>81.586143</ele>
        <time>2021-08-22T15:12:50.944Z</time>
      </trkpt>
      <trkpt lat="41.14561" lon="29.78279">
        <ele>83.864192</ele>
        <time>2021-08-22T15:13:10.083Z</time>
      </trkpt>
      <trkpt lat="41.14422" lon="29.78091">
        <ele>88.043459</ele>
        <time>2021-08-22T15:14:27.089Z</time>
      </trkpt>
      <trkpt lat="41.14395" lon="29.7807">
        <ele>86.401656</ele>
        <time>2021-08-22T15:14:34.160Z</time>
      </trkpt>
      <trkpt lat="41.14351" lon="29.78049">
        <ele>83.998829</ele>
        <time>2021-08-22T15:14:44.001Z</time>
      </trkpt>
      <trkpt lat="41.14325" lon="29.78026">
        <ele>82.322315</ele>
        <time>2021-08-22T15:14:50.649Z</time>
      </trkpt>
      <trkpt lat="41.14232" lon="29.77869">
        <ele>71.320552</ele>
        <time>2021-08-22T15:15:20.176Z</time>
      </trkpt>
      <trkpt lat="41.14185" lon="29.77827">
        <ele>66.164366</ele>
        <time>2021-08-22T15:15:31.022Z</time>
      </trkpt>
      <trkpt lat="41.14154" lon="29.77812">
        <ele>63.156456</ele>
        <time>2021-08-22T15:15:37.297Z</time>
      </trkpt>
      <trkpt lat="41.14145" lon="29.778">
        <ele>61.950416</ele>
        <time>2021-08-22T15:15:39.680Z</time>
      </trkpt>
      <trkpt lat="41.14163" lon="29.77771">
        <ele>58.871333</ele>
        <time>2021-08-22T15:15:45.020Z</time>
      </trkpt>
      <trkpt lat="41.14177" lon="29.77763">
        <ele>57.261114</ele>
        <time>2021-08-22T15:15:47.802Z</time>
      </trkpt>
      <trkpt lat="41.14234" lon="29.77786">
        <ele>50.716939</ele>
        <time>2021-08-22T15:15:59.093Z</time>
      </trkpt>
      <trkpt lat="41.14249" lon="29.77785">
        <ele>49.09848</ele>
        <time>2021-08-22T15:16:01.887Z</time>
      </trkpt>
      <trkpt lat="41.1426" lon="29.77765">
        <ele>47.071658</ele>
        <time>2021-08-22T15:16:05.361Z</time>
      </trkpt>
      <trkpt lat="41.14245" lon="29.77739">
        <ele>44.441816</ele>
        <time>2021-08-22T15:16:09.794Z</time>
      </trkpt>
      <trkpt lat="41.142" lon="29.77699">
        <ele>39.684349</ele>
        <time>2021-08-22T15:16:19.897Z</time>
      </trkpt>
      <trkpt lat="41.14175" lon="29.77624">
        <ele>34.814447</ele>
        <time>2021-08-22T15:16:31.845Z</time>
      </trkpt>
      <trkpt lat="41.14167" lon="29.77595">
        <ele>32.955466</ele>
        <time>2021-08-22T15:16:36.473Z</time>
      </trkpt>
      <trkpt lat="41.14165" lon="29.77584">
        <ele>32.304078</ele>
        <time>2021-08-22T15:16:38.261Z</time>
      </trkpt>
      <trkpt lat="41.14149" lon="29.77524">
        <ele>28.541629</ele>
        <time>2021-08-22T15:16:48.545Z</time>
      </trkpt>
      <trkpt lat="41.14143" lon="29.77506">
        <ele>28.776296</ele>
        <time>2021-08-22T15:16:51.648Z</time>
      </trkpt>
      <trkpt lat="41.14134" lon="29.77491">
        <ele>29.075411</ele>
        <time>2021-08-22T15:16:55.557Z</time>
      </trkpt>
      <trkpt lat="41.14132" lon="29.77488">
        <ele>29.135967</ele>
        <time>2021-08-22T15:16:56.979Z</time>
      </trkpt>
      <trkpt lat="41.14092" lon="29.77428">
        <ele>30.368661</ele>
        <time>2021-08-22T15:17:12.278Z</time>
      </trkpt>
      <trkpt lat="41.14084" lon="29.77418">
        <ele>30.606564</ele>
        <time>2021-08-22T15:17:20.628Z</time>
      </trkpt>
      <trkpt lat="41.14078" lon="29.77412">
        <ele>30.754767</ele>
        <time>2021-08-22T15:17:25.775Z</time>
      </trkpt>
      <trkpt lat="41.14068" lon="29.77399">
        <ele>31.041402</ele>
        <time>2021-08-22T15:17:32.559Z</time>
      </trkpt>
      <trkpt lat="41.14051" lon="29.77384">
        <ele>31.465011</ele>
        <time>2021-08-22T15:17:47.976Z</time>
      </trkpt>
      <trkpt lat="41.14037" lon="29.77372">
        <ele>31.807042</ele>
        <time>2021-08-22T15:17:57.410Z</time>
      </trkpt>
      <trkpt lat="41.14016" lon="29.77357">
        <ele>32.715112</ele>
        <time>2021-08-22T15:18:16.814Z</time>
      </trkpt>
      <trkpt lat="41.13991" lon="29.77318">
        <ele>36.523983</ele>
        <time>2021-08-22T15:18:46.180Z</time>
      </trkpt>
      <trkpt lat="41.13988" lon="29.77294">
        <ele>38.266841</ele>
        <time>2021-08-22T15:18:59.672Z</time>
      </trkpt>
      <trkpt lat="41.13994" lon="29.77277">
        <ele>39.678524</ele>
        <time>2021-08-22T15:19:14.165Z</time>
      </trkpt>
      <trkpt lat="41.14008" lon="29.7727">
        <ele>41.144092</ele>
        <time>2021-08-22T15:19:25.485Z</time>
      </trkpt>
      <trkpt lat="41.14043" lon="29.77274">
        <ele>44.569679</ele>
        <time>2021-08-22T15:19:57.072Z</time>
      </trkpt>
      <trkpt lat="41.14075" lon="29.77262">
        <ele>47.867122</ele>
        <time>2021-08-22T15:20:29.593Z</time>
      </trkpt>
      <trkpt lat="41.1413" lon="29.7729">
        <ele>53.607217</ele>
        <time>2021-08-22T15:21:27.539Z</time>
      </trkpt>
      <trkpt lat="41.14147" lon="29.77289">
        <ele>55.278921</ele>
        <time>2021-08-22T15:21:42.765Z</time>
      </trkpt>
      <trkpt lat="41.14161" lon="29.77273">
        <ele>57.124169</ele>
        <time>2021-08-22T15:21:59.314Z</time>
      </trkpt>
      <trkpt lat="41.1418" lon="29.77188">
        <ele>63.649039</ele>
        <time>2021-08-22T15:22:55.609Z</time>
      </trkpt>
      <trkpt lat="41.14195" lon="29.77171">
        <ele>65.603056</ele>
        <time>2021-08-22T15:23:11.415Z</time>
      </trkpt>
      <trkpt lat="41.14214" lon="29.77162">
        <ele>67.60479</ele>
        <time>2021-08-22T15:23:27.334Z</time>
      </trkpt>
      <trkpt lat="41.14247" lon="29.77165">
        <ele>69.827975</ele>
        <time>2021-08-22T15:23:51.077Z</time>
      </trkpt>
      <trkpt lat="41.14325" lon="29.77189">
        <ele>75.321618</ele>
        <time>2021-08-22T15:24:45.836Z</time>
      </trkpt>
      <trkpt lat="41.14387" lon="29.77238">
        <ele>80.128529</ele>
        <time>2021-08-22T15:25:33.144Z</time>
      </trkpt>
      <trkpt lat="41.14403" lon="29.77242">
        <ele>81.091867</ele>
        <time>2021-08-22T15:25:44.091Z</time>
      </trkpt>
      <trkpt lat="41.14414" lon="29.77233">
        <ele>81.842638</ele>
        <time>2021-08-22T15:25:52.707Z</time>
      </trkpt>
      <trkpt lat="41.14419" lon="29.7722">
        <ele>82.478</ele>
        <time>2021-08-22T15:26:00.062Z</time>
      </trkpt>
      <trkpt lat="41.14435" lon="29.77102">
        <ele>87.798701</ele>
        <time>2021-08-22T15:27:00.322Z</time>
      </trkpt>
      <trkpt lat="41.14455" lon="29.77041">
        <ele>90.443254</ele>
        <time>2021-08-22T15:27:30.537Z</time>
      </trkpt>
      <trkpt lat="41.1447" lon="29.77015">
        <ele>90.971153</ele>
        <time>2021-08-22T15:27:43.949Z</time>
      </trkpt>
      <trkpt lat="41.14491" lon="29.76996">
        <ele>91.531984</ele>
        <time>2021-08-22T15:27:57.165Z</time>
      </trkpt>
      <trkpt lat="41.14547" lon="29.76976">
        <ele>92.77751</ele>
        <time>2021-08-22T15:28:22.451Z</time>
      </trkpt>
      <trkpt lat="41.14647" lon="29.76961">
        <ele>93.871114</ele>
        <time>2021-08-22T15:28:53.973Z</time>
      </trkpt>
      <trkpt lat="41.14672" lon="29.76965">
        <ele>93.668191</ele>
        <time>2021-08-22T15:29:00.549Z</time>
      </trkpt>
      <trkpt lat="41.14819" lon="29.77051">
        <ele>92.776157</ele>
        <time>2021-08-22T15:29:42.937Z</time>
      </trkpt>
      <trkpt lat="41.14994" lon="29.77119">
        <ele>93.598589</ele>
        <time>2021-08-22T15:30:45.637Z</time>
      </trkpt>
      <trkpt lat="41.15027" lon="29.77122">
        <ele>94.054446</ele>
        <time>2021-08-22T15:30:59.875Z</time>
      </trkpt>
      <trkpt lat="41.15051" lon="29.77109">
        <ele>94.397972</ele>
        <time>2021-08-22T15:31:10.295Z</time>
      </trkpt>
      <trkpt lat="41.15094" lon="29.77057">
        <ele>95.184857</ele>
        <time>2021-08-22T15:31:34.601Z</time>
      </trkpt>
      <trkpt lat="41.15101" lon="29.77035">
        <ele>95.425776</ele>
        <time>2021-08-22T15:31:41.449Z</time>
      </trkpt>
      <trkpt lat="41.15103" lon="29.77029">
        <ele>95.385929</ele>
        <time>2021-08-22T15:31:43.858Z</time>
      </trkpt>
      <trkpt lat="41.15118" lon="29.76985">
        <ele>95.027403</ele>
        <time>2021-08-22T15:31:57.202Z</time>
      </trkpt>
      <trkpt lat="41.15138" lon="29.76953">
        <ele>94.716573</ele>
        <time>2021-08-22T15:32:07.125Z</time>
      </trkpt>
      <trkpt lat="41.1515" lon="29.76922">
        <ele>94.459626</ele>
        <time>2021-08-22T15:32:14.453Z</time>
      </trkpt>
      <trkpt lat="41.15156" lon="29.76892">
        <ele>94.229506</ele>
        <time>2021-08-22T15:32:20.890Z</time>
      </trkpt>
      <trkpt lat="41.15161" lon="29.76868">
        <ele>94.046729</ele>
        <time>2021-08-22T15:32:25.409Z</time>
      </trkpt>
      <trkpt lat="41.15178" lon="29.76816">
        <ele>93.4617</ele>
        <time>2021-08-22T15:32:35.253Z</time>
      </trkpt>
      <trkpt lat="41.15209" lon="29.76784">
        <ele>91.148257</ele>
        <time>2021-08-22T15:32:43.606Z</time>
      </trkpt>
      <trkpt lat="41.15225" lon="29.76723">
        <ele>88.221578</ele>
        <time>2021-08-22T15:32:53.758Z</time>
      </trkpt>
      <trkpt lat="41.15233" lon="29.76658">
        <ele>85.267719</ele>
        <time>2021-08-22T15:33:03.708Z</time>
      </trkpt>
      <trkpt lat="41.15233" lon="29.76605">
        <ele>82.843095</ele>
        <time>2021-08-22T15:33:11.719Z</time>
      </trkpt>
      <trkpt lat="41.15238" lon="29.7658">
        <ele>81.297907</ele>
        <time>2021-08-22T15:33:15.520Z</time>
      </trkpt>
      <trkpt lat="41.15323" lon="29.76429">
        <ele>69.913928</ele>
        <time>2021-08-22T15:33:43.388Z</time>
      </trkpt>
      <trkpt lat="41.15346" lon="29.76408">
        <ele>67.678326</ele>
        <time>2021-08-22T15:33:48.819Z</time>
      </trkpt>
      <trkpt lat="41.15363" lon="29.76405">
        <ele>66.284942</ele>
        <time>2021-08-22T15:33:52.155Z</time>
      </trkpt>
      <trkpt lat="41.15442" lon="29.76424">
        <ele>59.692228</ele>
        <time>2021-08-22T15:34:07.947Z</time>
      </trkpt>
      <trkpt lat="41.15473" lon="29.7642">
        <ele>57.140496</ele>
        <time>2021-08-22T15:34:14.074Z</time>
      </trkpt>
      <trkpt lat="41.15497" lon="29.76398">
        <ele>54.825097</ele>
        <time>2021-08-22T15:34:19.638Z</time>
      </trkpt>
      <trkpt lat="41.1557" lon="29.76305">
        <ele>45.993083</ele>
        <time>2021-08-22T15:34:39.457Z</time>
      </trkpt>
      <trkpt lat="41.15655" lon="29.7624">
        <ele>37.591365</ele>
        <time>2021-08-22T15:34:58.307Z</time>
      </trkpt>
      <trkpt lat="41.1567" lon="29.7622">
        <ele>36.044525</ele>
        <time>2021-08-22T15:35:02.562Z</time>
      </trkpt>
      <trkpt lat="41.15667" lon="29.76203">
        <ele>35.091754</ele>
        <time>2021-08-22T15:35:05.137Z</time>
      </trkpt>
      <trkpt lat="41.15641" lon="29.76177">
        <ele>32.78051</ele>
        <time>2021-08-22T15:35:11.515Z</time>
      </trkpt>
      <trkpt lat="41.15583" lon="29.7614">
        <ele>28.237853</ele>
        <time>2021-08-22T15:35:24.209Z</time>
      </trkpt>
      <trkpt lat="41.15545" lon="29.76124">
        <ele>25.343268</ele>
        <time>2021-08-22T15:35:32.420Z</time>
      </trkpt>
      <trkpt lat="41.15512" lon="29.76097">
        <ele>23.981957</ele>
        <time>2021-08-22T15:35:40.861Z</time>
      </trkpt>
      <trkpt lat="41.15503" lon="29.76077">
        <ele>23.379619</ele>
        <time>2021-08-22T15:35:44.872Z</time>
      </trkpt>
      <trkpt lat="41.15503" lon="29.76056">
        <ele>22.861382</ele>
        <time>2021-08-22T15:35:48.339Z</time>
      </trkpt>
      <trkpt lat="41.15526" lon="29.76028">
        <ele>21.781839</ele>
        <time>2021-08-22T15:35:55.689Z</time>
      </trkpt>
      <trkpt lat="41.15642" lon="29.7594">
        <ele>18.051427</ele>
        <time>2021-08-22T15:36:27.356Z</time>
      </trkpt>
      <trkpt lat="41.15653" lon="29.75924">
        <ele>17.731086</ele>
        <time>2021-08-22T15:36:31.407Z</time>
      </trkpt>
      <trkpt lat="41.15661" lon="29.75907">
        <ele>17.44625</ele>
        <time>2021-08-22T15:36:34.866Z</time>
      </trkpt>
      <trkpt lat="41.15679" lon="29.75845">
        <ele>16.46636</ele>
        <time>2021-08-22T15:36:47.399Z</time>
      </trkpt>
      <trkpt lat="41.15681" lon="29.75835">
        <ele>16.308842</ele>
        <time>2021-08-22T15:36:49.549Z</time>
      </trkpt>
      <trkpt lat="41.15689" lon="29.75804">
        <ele>15.828877</ele>
        <time>2021-08-22T15:36:55.687Z</time>
      </trkpt>
      <trkpt lat="41.15695" lon="29.75764">
        <ele>15.685097</ele>
        <time>2021-08-22T15:37:03.674Z</time>
      </trkpt>
      <trkpt lat="41.15693" lon="29.75724">
        <ele>15.767611</ele>
        <time>2021-08-22T15:37:11.915Z</time>
      </trkpt>
      <trkpt lat="41.15645" lon="29.75517">
        <ele>16.634682</ele>
        <time>2021-08-22T15:38:11.017Z</time>
      </trkpt>
      <trkpt lat="41.1562" lon="29.75442">
        <ele>17.562406</ele>
        <time>2021-08-22T15:38:37.486Z</time>
      </trkpt>
      <trkpt lat="41.15609" lon="29.75403">
        <ele>18.046565</ele>
        <time>2021-08-22T15:38:51.047Z</time>
      </trkpt>
      <trkpt lat="41.15561" lon="29.75237">
        <ele>18.741218</ele>
        <time>2021-08-22T15:39:41.185Z</time>
      </trkpt>
      <trkpt lat="41.15551" lon="29.75201">
        <ele>18.70364</ele>
        <time>2021-08-22T15:39:49.454Z</time>
      </trkpt>
      <trkpt lat="41.15533" lon="29.75176">
        <ele>18.669959</ele>
        <time>2021-08-22T15:39:56.436Z</time>
      </trkpt>
      <trkpt lat="41.15374" lon="29.75046">
        <ele>16.363376</ele>
        <time>2021-08-22T15:40:43.831Z</time>
      </trkpt>
      <trkpt lat="41.15339" lon="29.74991">
        <ele>15.672707</ele>
        <time>2021-08-22T15:40:57.400Z</time>
      </trkpt>
      <trkpt lat="41.15245" lon="29.74822">
        <ele>14.689204</ele>
        <time>2021-08-22T15:41:42.104Z</time>
      </trkpt>
      <trkpt lat="41.15216" lon="29.74781">
        <ele>15.099788</ele>
        <time>2021-08-22T15:41:56.932Z</time>
      </trkpt>
      <trkpt lat="41.15146" lon="29.74714">
        <ele>16.134445</ele>
        <time>2021-08-22T15:42:30.605Z</time>
      </trkpt>
      <trkpt lat="41.1502" lon="29.74613">
        <ele>18.193985</ele>
        <time>2021-08-22T15:43:30.868Z</time>
      </trkpt>
      <trkpt lat="41.14987" lon="29.74575">
        <ele>18.864388</ele>
        <time>2021-08-22T15:43:47.949Z</time>
      </trkpt>
      <trkpt lat="41.14969" lon="29.74542">
        <ele>19.32787</ele>
        <time>2021-08-22T15:43:59.546Z</time>
      </trkpt>
      <trkpt lat="41.14854" lon="29.74257">
        <ele>22.524052</ele>
        <time>2021-08-22T15:45:31.669Z</time>
      </trkpt>
      <trkpt lat="41.14763" lon="29.74058">
        <ele>25.51856</ele>
        <time>2021-08-22T15:46:43.970Z</time>
      </trkpt>
      <trkpt lat="41.1466" lon="29.73919">
        <ele>28.825651</ele>
        <time>2021-08-22T15:47:43.939Z</time>
      </trkpt>
      <trkpt lat="41.1464" lon="29.73872">
        <ele>30.908302</ele>
        <time>2021-08-22T15:48:07.358Z</time>
      </trkpt>
      <trkpt lat="41.14632" lon="29.73838">
        <ele>32.27571</ele>
        <time>2021-08-22T15:48:21.301Z</time>
      </trkpt>
      <trkpt lat="41.14637" lon="29.73793">
        <ele>34.019755</ele>
        <time>2021-08-22T15:48:41.427Z</time>
      </trkpt>
      <trkpt lat="41.14647" lon="29.7378">
        <ele>34.682856</ele>
        <time>2021-08-22T15:48:51.346Z</time>
      </trkpt>
      <trkpt lat="41.14656" lon="29.73761">
        <ele>35.550882</ele>
        <time>2021-08-22T15:48:59.920Z</time>
      </trkpt>
      <trkpt lat="41.14654" lon="29.73748">
        <ele>36.056291</ele>
        <time>2021-08-22T15:49:07.184Z</time>
      </trkpt>
      <trkpt lat="41.14652" lon="29.73732">
        <ele>36.677879</ele>
        <time>2021-08-22T15:49:19.966Z</time>
      </trkpt>
      <trkpt lat="41.1464" lon="29.73653">
        <ele>40.777626</ele>
        <time>2021-08-22T15:50:02.910Z</time>
      </trkpt>
      <trkpt lat="41.14643" lon="29.73619">
        <ele>42.634923</ele>
        <time>2021-08-22T15:50:21.765Z</time>
      </trkpt>
      <trkpt lat="41.14653" lon="29.73599">
        <ele>43.922447</ele>
        <time>2021-08-22T15:50:40.150Z</time>
      </trkpt>
      <trkpt lat="41.14673" lon="29.7358">
        <ele>45.727928</ele>
        <time>2021-08-22T15:50:56.297Z</time>
      </trkpt>
      <trkpt lat="41.14677" lon="29.73577">
        <ele>46.046573</ele>
        <time>2021-08-22T15:51:02.154Z</time>
      </trkpt>
      <trkpt lat="41.14684" lon="29.73572">
        <ele>46.633066</ele>
        <time>2021-08-22T15:51:09.946Z</time>
      </trkpt>
      <trkpt lat="41.14753" lon="29.73515">
        <ele>50.494014</ele>
        <time>2021-08-22T15:51:57.424Z</time>
      </trkpt>
      <trkpt lat="41.14775" lon="29.73479">
        <ele>50.728055</ele>
        <time>2021-08-22T15:52:15.513Z</time>
      </trkpt>
      <trkpt lat="41.1478" lon="29.73471">
        <ele>50.776019</ele>
        <time>2021-08-22T15:52:18.268Z</time>
      </trkpt>
      <trkpt lat="41.14784" lon="29.73445">
        <ele>50.911956</ele>
        <time>2021-08-22T15:52:28.726Z</time>
      </trkpt>
      <trkpt lat="41.14758" lon="29.73303">
        <ele>50.030729</ele>
        <time>2021-08-22T15:52:55.007Z</time>
      </trkpt>
      <trkpt lat="41.14737" lon="29.72846">
        <ele>27.014251</ele>
        <time>2021-08-22T15:54:03.718Z</time>
      </trkpt>
      <trkpt lat="41.14726" lon="29.72794">
        <ele>26.402791</ele>
        <time>2021-08-22T15:54:12.613Z</time>
      </trkpt>
      <trkpt lat="41.14721" lon="29.7277">
        <ele>26.12195</ele>
        <time>2021-08-22T15:54:16.922Z</time>
      </trkpt>
      <trkpt lat="41.14635" lon="29.72528">
        <ele>27.190675</ele>
        <time>2021-08-22T15:55:28.606Z</time>
      </trkpt>
      <trkpt lat="41.14609" lon="29.7247">
        <ele>28.742499</ele>
        <time>2021-08-22T15:55:56.685Z</time>
      </trkpt>
      <trkpt lat="41.14594" lon="29.72456">
        <ele>29.318207</ele>
        <time>2021-08-22T15:56:07.975Z</time>
      </trkpt>
      <trkpt lat="41.14549" lon="29.72442">
        <ele>32.195852</ele>
        <time>2021-08-22T15:56:37.991Z</time>
      </trkpt>
      <trkpt lat="41.14524" lon="29.7242">
        <ele>34.877339</ele>
        <time>2021-08-22T15:56:59.512Z</time>
      </trkpt>
      <trkpt lat="41.14493" lon="29.72375">
        <ele>39.096031</ele>
        <time>2021-08-22T15:57:36.946Z</time>
      </trkpt>
      <trkpt lat="41.14474" lon="29.72299">
        <ele>44.537282</ele>
        <time>2021-08-22T15:58:29.574Z</time>
      </trkpt>
      <trkpt lat="41.14435" lon="29.72201">
        <ele>55.270583</ele>
        <time>2021-08-22T15:59:54.902Z</time>
      </trkpt>
      <trkpt lat="41.14437" lon="29.72166">
        <ele>59.053915</ele>
        <time>2021-08-22T16:00:27.626Z</time>
      </trkpt>
      <trkpt lat="41.14463" lon="29.72069">
        <ele>69.850174</ele>
        <time>2021-08-22T16:01:55.616Z</time>
      </trkpt>
      <trkpt lat="41.14467" lon="29.72037">
        <ele>73.288663</ele>
        <time>2021-08-22T16:02:21.796Z</time>
      </trkpt>
      <trkpt lat="41.14465" lon="29.72034">
        <ele>73.712554</ele>
        <time>2021-08-22T16:02:26.738Z</time>
      </trkpt>
      <trkpt lat="41.1436" lon="29.7189">
        <ele>94.683937</ele>
        <time>2021-08-22T16:05:19.074Z</time>
      </trkpt>
      <trkpt lat="41.14307" lon="29.71823">
        <ele>100.390194</ele>
        <time>2021-08-22T16:06:18.711Z</time>
      </trkpt>
      <trkpt lat="41.14293" lon="29.71803">
        <ele>101.720557</ele>
        <time>2021-08-22T16:06:33.511Z</time>
      </trkpt>
      <trkpt lat="41.14289" lon="29.71796">
        <ele>102.195678</ele>
        <time>2021-08-22T16:06:38.863Z</time>
      </trkpt>
      <trkpt lat="41.14284" lon="29.71784">
        <ele>102.849236</ele>
        <time>2021-08-22T16:06:46.079Z</time>
      </trkpt>
      <trkpt lat="41.14283" lon="29.71772">
        <ele>103.430729</ele>
        <time>2021-08-22T16:06:51.427Z</time>
      </trkpt>
      <trkpt lat="41.14287" lon="29.71764">
        <ele>103.896586</ele>
        <time>2021-08-22T16:06:55.832Z</time>
      </trkpt>
      <trkpt lat="41.14295" lon="29.71757">
        <ele>104.499395</ele>
        <time>2021-08-22T16:07:01.872Z</time>
      </trkpt>
      <trkpt lat="41.14306" lon="29.71751">
        <ele>105.287204</ele>
        <time>2021-08-22T16:07:09.446Z</time>
      </trkpt>
      <trkpt lat="41.14316" lon="29.71745">
        <ele>106.030443</ele>
        <time>2021-08-22T16:07:15.334Z</time>
      </trkpt>
      <trkpt lat="41.14337" lon="29.71725">
        <ele>107.678879</ele>
        <time>2021-08-22T16:07:29.252Z</time>
      </trkpt>
      <trkpt lat="41.14391" lon="29.71671">
        <ele>105.735997</ele>
        <time>2021-08-22T16:07:48.498Z</time>
      </trkpt>
      <trkpt lat="41.14406" lon="29.71665">
        <ele>105.102054</ele>
        <time>2021-08-22T16:07:52.274Z</time>
      </trkpt>
      <trkpt lat="41.14422" lon="29.71657">
        <ele>104.440319</ele>
        <time>2021-08-22T16:07:55.583Z</time>
      </trkpt>
      <trkpt lat="41.1444" lon="29.71658">
        <ele>103.695714</ele>
        <time>2021-08-22T16:07:59.633Z</time>
      </trkpt>
      <trkpt lat="41.14511" lon="29.71695">
        <ele>100.125454</ele>
        <time>2021-08-22T16:08:14.817Z</time>
      </trkpt>
      <trkpt lat="41.14518" lon="29.71697">
        <ele>99.373481</ele>
        <time>2021-08-22T16:08:16.135Z</time>
      </trkpt>
      <trkpt lat="41.14526" lon="29.717">
        <ele>98.444466</ele>
        <time>2021-08-22T16:08:17.699Z</time>
      </trkpt>
      <trkpt lat="41.14558" lon="29.71695">
        <ele>95.051661</ele>
        <time>2021-08-22T16:08:23.728Z</time>
      </trkpt>
      <trkpt lat="41.14585" lon="29.71677">
        <ele>91.691415</ele>
        <time>2021-08-22T16:08:29.655Z</time>
      </trkpt>
      <trkpt lat="41.14723" lon="29.71549">
        <ele>73.739393</ele>
        <time>2021-08-22T16:09:00.949Z</time>
      </trkpt>
      <trkpt lat="41.14734" lon="29.71533">
        <ele>72.06838</ele>
        <time>2021-08-22T16:09:03.941Z</time>
      </trkpt>
      <trkpt lat="41.14735" lon="29.71498">
        <ele>69.309233</ele>
        <time>2021-08-22T16:09:08.912Z</time>
      </trkpt>
      <trkpt lat="41.14715" lon="29.71393">
        <ele>61.295211</ele>
        <time>2021-08-22T16:09:24.696Z</time>
      </trkpt>
      <trkpt lat="41.14721" lon="29.71339">
        <ele>58.351348</ele>
        <time>2021-08-22T16:09:32.755Z</time>
      </trkpt>
      <trkpt lat="41.14748" lon="29.71294">
        <ele>55.218453</ele>
        <time>2021-08-22T16:09:41.481Z</time>
      </trkpt>
      <trkpt lat="41.14798" lon="29.7124">
        <ele>50.538122</ele>
        <time>2021-08-22T16:09:54.672Z</time>
      </trkpt>
      <trkpt lat="41.14829" lon="29.71231">
        <ele>48.17767</ele>
        <time>2021-08-22T16:10:01.057Z</time>
      </trkpt>
      <trkpt lat="41.14891" lon="29.71229">
        <ele>43.340154</ele>
        <time>2021-08-22T16:10:13.638Z</time>
      </trkpt>
      <trkpt lat="41.14907" lon="29.71224">
        <ele>42.108965</ele>
        <time>2021-08-22T16:10:16.804Z</time>
      </trkpt>
      <trkpt lat="41.14927" lon="29.71204">
        <ele>40.147145</ele>
        <time>2021-08-22T16:10:21.794Z</time>
      </trkpt>
      <trkpt lat="41.14953" lon="29.71132">
        <ele>35.504941</ele>
        <time>2021-08-22T16:10:33.419Z</time>
      </trkpt>
      <trkpt lat="41.15013" lon="29.71059">
        <ele>28.661416</ele>
        <time>2021-08-22T16:10:49.030Z</time>
      </trkpt>
      <trkpt lat="41.15024" lon="29.71034">
        <ele>26.79368</ele>
        <time>2021-08-22T16:10:53.296Z</time>
      </trkpt>
      <trkpt lat="41.15036" lon="29.7099">
        <ele>23.863308</ele>
        <time>2021-08-22T16:11:00.013Z</time>
      </trkpt>
      <trkpt lat="41.15062" lon="29.70808">
        <ele>15.733877</ele>
        <time>2021-08-22T16:11:28.311Z</time>
      </trkpt>
      <trkpt lat="41.15082" lon="29.70703">
        <ele>11.922976</ele>
        <time>2021-08-22T16:11:47.388Z</time>
      </trkpt>
      <trkpt lat="41.15095" lon="29.7063">
        <ele>12.140941</ele>
        <time>2021-08-22T16:12:02.491Z</time>
      </trkpt>
      <trkpt lat="41.15149" lon="29.70354">
        <ele>14.853929</ele>
        <time>2021-08-22T16:13:27.362Z</time>
      </trkpt>
      <trkpt lat="41.15154" lon="29.70308">
        <ele>15.701512</ele>
        <time>2021-08-22T16:13:44.283Z</time>
      </trkpt>
      <trkpt lat="41.15145" lon="29.70262">
        <ele>16.562197</ele>
        <time>2021-08-22T16:14:02.103Z</time>
      </trkpt>
      <trkpt lat="41.15061" lon="29.70053">
        <ele>23.127752</ele>
        <time>2021-08-22T16:15:37.423Z</time>
      </trkpt>
      <trkpt lat="41.1504" lon="29.70032">
        <ele>23.985418</ele>
        <time>2021-08-22T16:15:50.776Z</time>
      </trkpt>
      <trkpt lat="41.15006" lon="29.70009">
        <ele>24.929438</ele>
        <time>2021-08-22T16:16:09.906Z</time>
      </trkpt>
      <trkpt lat="41.14895" lon="29.69961">
        <ele>27.798006</ele>
        <time>2021-08-22T16:17:01.324Z</time>
      </trkpt>
      <trkpt lat="41.14749" lon="29.69854">
        <ele>29.570411</ele>
        <time>2021-08-22T16:18:01.597Z</time>
      </trkpt>
      <trkpt lat="41.14657" lon="29.6978">
        <ele>29.438315</ele>
        <time>2021-08-22T16:18:38.111Z</time>
      </trkpt>
      <trkpt lat="41.14612" lon="29.69724">
        <ele>29.12833</ele>
        <time>2021-08-22T16:18:59.131Z</time>
      </trkpt>
      <trkpt lat="41.14479" lon="29.69517">
        <ele>22.464368</ele>
        <time>2021-08-22T16:19:45.084Z</time>
      </trkpt>
      <trkpt lat="41.14465" lon="29.69498">
        <ele>21.610877</ele>
        <time>2021-08-22T16:19:49.119Z</time>
      </trkpt>
      <trkpt lat="41.14488" lon="29.69471">
        <ele>20.022866</ele>
        <time>2021-08-22T16:19:55.566Z</time>
      </trkpt>
      <trkpt lat="41.145" lon="29.6946">
        <ele>19.271387</ele>
        <time>2021-08-22T16:19:58.560Z</time>
      </trkpt>
      <trkpt lat="41.14507" lon="29.69427">
        <ele>17.913216</ele>
        <time>2021-08-22T16:20:04.161Z</time>
      </trkpt>
      <trkpt lat="41.14513" lon="29.69399">
        <ele>16.749171</ele>
        <time>2021-08-22T16:20:08.965Z</time>
      </trkpt>
      <trkpt lat="41.1452" lon="29.69366">
        <ele>15.410969</ele>
        <time>2021-08-22T16:20:14.433Z</time>
      </trkpt>
      <trkpt lat="41.14507" lon="29.69352">
        <ele>14.561221</ele>
        <time>2021-08-22T16:20:17.881Z</time>
      </trkpt>
      <trkpt lat="41.14488" lon="29.69297">
        <ele>12.493052</ele>
        <time>2021-08-22T16:20:27.568Z</time>
      </trkpt>
      <trkpt lat="41.14483" lon="29.6926">
        <ele>12.468563</ele>
        <time>2021-08-22T16:20:35.274Z</time>
      </trkpt>
      <trkpt lat="41.14479" lon="29.6923">
        <ele>12.448675</ele>
        <time>2021-08-22T16:20:42.853Z</time>
      </trkpt>
      <trkpt lat="41.14475" lon="29.6921">
        <ele>12.435247</ele>
        <time>2021-08-22T16:20:48.590Z</time>
      </trkpt>
      <trkpt lat="41.14481" lon="29.69128">
        <ele>12.381022</ele>
        <time>2021-08-22T16:21:12.083Z</time>
      </trkpt>
      <trkpt lat="41.14465" lon="29.69069">
        <ele>12.374237</ele>
        <time>2021-08-22T16:21:29.556Z</time>
      </trkpt>
      <trkpt lat="41.14455" lon="29.69041">
        <ele>12.678898</ele>
        <time>2021-08-22T16:21:38.506Z</time>
      </trkpt>
      <trkpt lat="41.1445" lon="29.69028">
        <ele>12.821459</ele>
        <time>2021-08-22T16:21:42.519Z</time>
      </trkpt>
      <trkpt lat="41.14436" lon="29.68989">
        <ele>13.235179</ele>
        <time>2021-08-22T16:21:53.394Z</time>
      </trkpt>
      <trkpt lat="41.14427" lon="29.6896">
        <ele>13.538366</ele>
        <time>2021-08-22T16:22:02.522Z</time>
      </trkpt>
      <trkpt lat="41.14412" lon="29.68909">
        <ele>14.066865</ele>
        <time>2021-08-22T16:22:18.386Z</time>
      </trkpt>
      <trkpt lat="41.14374" lon="29.68839">
        <ele>15.054912</ele>
        <time>2021-08-22T16:22:45.193Z</time>
      </trkpt>
      <trkpt lat="41.14366" lon="29.68834">
        <ele>15.235153</ele>
        <time>2021-08-22T16:22:48.695Z</time>
      </trkpt>
      <trkpt lat="41.14361" lon="29.68831">
        <ele>15.351996</ele>
        <time>2021-08-22T16:22:50.784Z</time>
      </trkpt>
      <trkpt lat="41.14367" lon="29.68822">
        <ele>15.544859</ele>
        <time>2021-08-22T16:22:55.961Z</time>
      </trkpt>
      <trkpt lat="41.14379" lon="29.68799">
        <ele>15.972907</ele>
        <time>2021-08-22T16:23:03.534Z</time>
      </trkpt>
      <trkpt lat="41.14376" lon="29.68788">
        <ele>16.142864</ele>
        <time>2021-08-22T16:23:07.328Z</time>
      </trkpt>
      <trkpt lat="41.14366" lon="29.68757">
        <ele>16.673472</ele>
        <time>2021-08-22T16:23:17.965Z</time>
      </trkpt>
      <trkpt lat="41.1436" lon="29.68752">
        <ele>16.82618</ele>
        <time>2021-08-22T16:23:20.755Z</time>
      </trkpt>
      <trkpt lat="41.14354" lon="29.68743">
        <ele>17.006059</ele>
        <time>2021-08-22T16:23:25.766Z</time>
      </trkpt>
      <trkpt lat="41.14352" lon="29.68725">
        <ele>17.284639</ele>
        <time>2021-08-22T16:23:30.407Z</time>
      </trkpt>
      <trkpt lat="41.14362" lon="29.68705">
        <ele>17.648399</ele>
        <time>2021-08-22T16:23:38.375Z</time>
      </trkpt>
      <trkpt lat="41.14347" lon="29.68701">
        <ele>17.954056</ele>
        <time>2021-08-22T16:23:43.968Z</time>
      </trkpt>
      <trkpt lat="41.14315" lon="29.68692">
        <ele>19.154341</ele>
        <time>2021-08-22T16:24:00.231Z</time>
      </trkpt>
      <trkpt lat="41.14286" lon="29.68693">
        <ele>20.915635</ele>
        <time>2021-08-22T16:24:14.568Z</time>
      </trkpt>
      <trkpt lat="41.14266" lon="29.68685">
        <ele>22.216462</ele>
        <time>2021-08-22T16:24:26.241Z</time>
      </trkpt>
      <trkpt lat="41.1422" lon="29.6865">
        <ele>25.424984</ele>
        <time>2021-08-22T16:25:00.490Z</time>
      </trkpt>
      <trkpt lat="41.14199" lon="29.68624">
        <ele>27.221069</ele>
        <time>2021-08-22T16:25:22.182Z</time>
      </trkpt>
      <trkpt lat="41.14194" lon="29.68616">
        <ele>27.658867</ele>
        <time>2021-08-22T16:25:28.733Z</time>
      </trkpt>
      <trkpt lat="41.14203" lon="29.68611">
        <ele>28.217801</ele>
        <time>2021-08-22T16:25:37.454Z</time>
      </trkpt>
      <trkpt lat="41.14209" lon="29.68603">
        <ele>28.774319</ele>
        <time>2021-08-22T16:25:43.708Z</time>
      </trkpt>
      <trkpt lat="41.14209" lon="29.68593">
        <ele>29.230168</ele>
        <time>2021-08-22T16:25:49.585Z</time>
      </trkpt>
      <trkpt lat="41.14193" lon="29.6855">
        <ele>33.280539</ele>
        <time>2021-08-22T16:26:21.326Z</time>
      </trkpt>
      <trkpt lat="41.14194" lon="29.6853">
        <ele>34.966709</ele>
        <time>2021-08-22T16:26:35.770Z</time>
      </trkpt>
      <trkpt lat="41.14202" lon="29.68513">
        <ele>36.726909</ele>
        <time>2021-08-22T16:26:49.013Z</time>
      </trkpt>
      <trkpt lat="41.14212" lon="29.68495">
        <ele>38.670489</ele>
        <time>2021-08-22T16:27:05.981Z</time>
      </trkpt>
      <trkpt lat="41.14215" lon="29.68478">
        <ele>40.154324</ele>
        <time>2021-08-22T16:27:18.397Z</time>
      </trkpt>
      <trkpt lat="41.14208" lon="29.68466">
        <ele>41.5542</ele>
        <time>2021-08-22T16:27:29.013Z</time>
      </trkpt>
      <trkpt lat="41.14193" lon="29.68457">
        <ele>43.377403</ele>
        <time>2021-08-22T16:27:45.835Z</time>
      </trkpt>
      <trkpt lat="41.14184" lon="29.6844">
        <ele>45.176748</ele>
        <time>2021-08-22T16:28:02.561Z</time>
      </trkpt>
      <trkpt lat="41.1418" lon="29.68417">
        <ele>47.222614</ele>
        <time>2021-08-22T16:28:21.263Z</time>
      </trkpt>
      <trkpt lat="41.14133" lon="29.68357">
        <ele>55.59484</ele>
        <time>2021-08-22T16:29:34.097Z</time>
      </trkpt>
      <trkpt lat="41.1412" lon="29.68351">
        <ele>57.418479</ele>
        <time>2021-08-22T16:29:46.320Z</time>
      </trkpt>
      <trkpt lat="41.14107" lon="29.68352">
        <ele>59.28866</ele>
        <time>2021-08-22T16:30:01.654Z</time>
      </trkpt>
      <trkpt lat="41.14094" lon="29.68362">
        <ele>61.242561</ele>
        <time>2021-08-22T16:30:14.862Z</time>
      </trkpt>
      <trkpt lat="41.14084" lon="29.68371">
        <ele>62.912351</ele>
        <time>2021-08-22T16:30:25.082Z</time>
      </trkpt>
      <trkpt lat="41.14075" lon="29.68366">
        <ele>64.274687</ele>
        <time>2021-08-22T16:30:38.395Z</time>
      </trkpt>
      <trkpt lat="41.14067" lon="29.68354">
        <ele>65.929643</ele>
        <time>2021-08-22T16:30:50.028Z</time>
      </trkpt>
      <trkpt lat="41.14059" lon="29.68289">
        <ele>72.659158</ele>
        <time>2021-08-22T16:31:43.525Z</time>
      </trkpt>
      <trkpt lat="41.14076" lon="29.68175">
        <ele>85.160049</ele>
        <time>2021-08-22T16:33:36.328Z</time>
      </trkpt>
      <trkpt lat="41.14094" lon="29.68133">
        <ele>90.3346</ele>
        <time>2021-08-22T16:34:17.588Z</time>
      </trkpt>
      <trkpt lat="41.14133" lon="29.68095">
        <ele>97.373709</ele>
        <time>2021-08-22T16:35:10.886Z</time>
      </trkpt>
      <trkpt lat="41.14141" lon="29.68047">
        <ele>101.471044</ele>
        <time>2021-08-22T16:35:46.840Z</time>
      </trkpt>
      <trkpt lat="41.14179" lon="29.67943">
        <ele>107.564268</ele>
        <time>2021-08-22T16:36:59.313Z</time>
      </trkpt>
      <trkpt lat="41.14181" lon="29.67913">
        <ele>109.12501</ele>
        <time>2021-08-22T16:37:12.631Z</time>
      </trkpt>
      <trkpt lat="41.14173" lon="29.67873">
        <ele>111.354746</ele>
        <time>2021-08-22T16:37:27.355Z</time>
      </trkpt>
      <trkpt lat="41.1415" lon="29.67822">
        <ele>112.841357</ele>
        <time>2021-08-22T16:37:44.717Z</time>
      </trkpt>
      <trkpt lat="41.14146" lon="29.67783">
        <ele>112.72326</ele>
        <time>2021-08-22T16:37:55.178Z</time>
      </trkpt>
      <trkpt lat="41.14155" lon="29.67762">
        <ele>112.651961</ele>
        <time>2021-08-22T16:38:01.995Z</time>
      </trkpt>
      <trkpt lat="41.14173" lon="29.67745">
        <ele>112.564571</ele>
        <time>2021-08-22T16:38:08.068Z</time>
      </trkpt>
      <trkpt lat="41.14244" lon="29.67688">
        <ele>112.23643</ele>
        <time>2021-08-22T16:38:30.182Z</time>
      </trkpt>
      <trkpt lat="41.14282" lon="29.67644">
        <ele>110.102591</ele>
        <time>2021-08-22T16:38:41.663Z</time>
      </trkpt>
      <trkpt lat="41.14329" lon="29.67587">
        <ele>107.12696</ele>
        <time>2021-08-22T16:38:55.432Z</time>
      </trkpt>
      <trkpt lat="41.14359" lon="29.67556">
        <ele>105.366323</ele>
        <time>2021-08-22T16:39:03.275Z</time>
      </trkpt>
      <trkpt lat="41.14398" lon="29.67532">
        <ele>102.907975</ele>
        <time>2021-08-22T16:39:11.978Z</time>
      </trkpt>
      <trkpt lat="41.14456" lon="29.67516">
        <ele>97.274077</ele>
        <time>2021-08-22T16:39:23.670Z</time>
      </trkpt>
      <trkpt lat="41.14525" lon="29.6748">
        <ele>90.333891</ele>
        <time>2021-08-22T16:39:37.688Z</time>
      </trkpt>
      <trkpt lat="41.14545" lon="29.67458">
        <ele>87.88585</ele>
        <time>2021-08-22T16:39:42.575Z</time>
      </trkpt>
      <trkpt lat="41.14563" lon="29.67379">
        <ele>81.484181</ele>
        <time>2021-08-22T16:39:54.224Z</time>
      </trkpt>
      <trkpt lat="41.14582" lon="29.67323">
        <ele>76.677536</ele>
        <time>2021-08-22T16:40:02.841Z</time>
      </trkpt>
      <trkpt lat="41.14586" lon="29.67252">
        <ele>71.022362</ele>
        <time>2021-08-22T16:40:13.096Z</time>
      </trkpt>
      <trkpt lat="41.14602" lon="29.67168">
        <ele>65.82505</ele>
        <time>2021-08-22T16:40:25.747Z</time>
      </trkpt>
      <trkpt lat="41.14605" lon="29.67099">
        <ele>62.675695</ele>
        <time>2021-08-22T16:40:36.290Z</time>
      </trkpt>
      <trkpt lat="41.14619" lon="29.67061">
        <ele>60.758043</ele>
        <time>2021-08-22T16:40:42.958Z</time>
      </trkpt>
      <trkpt lat="41.1465" lon="29.67017">
        <ele>58.006215</ele>
        <time>2021-08-22T16:40:52.966Z</time>
      </trkpt>
      <trkpt lat="41.14677" lon="29.67009">
        <ele>56.61659</ele>
        <time>2021-08-22T16:40:58.998Z</time>
      </trkpt>
      <trkpt lat="41.14717" lon="29.6701">
        <ele>54.920547</ele>
        <time>2021-08-22T16:41:08.118Z</time>
      </trkpt>
      <trkpt lat="41.14755" lon="29.66998">
        <ele>53.272758</ele>
        <time>2021-08-22T16:41:16.799Z</time>
      </trkpt>
      <trkpt lat="41.14795" lon="29.67004">
        <ele>51.582951</ele>
        <time>2021-08-22T16:41:25.518Z</time>
      </trkpt>
      <trkpt lat="41.14823" lon="29.67023">
        <ele>50.221484</ele>
        <time>2021-08-22T16:41:32.425Z</time>
      </trkpt>
      <trkpt lat="41.14837" lon="29.67085">
        <ele>47.121594</ele>
        <time>2021-08-22T16:41:42.582Z</time>
      </trkpt>
      <trkpt lat="41.14846" lon="29.67103">
        <ele>45.868026</ele>
        <time>2021-08-22T16:41:46.046Z</time>
      </trkpt>
      <trkpt lat="41.14878" lon="29.67123">
        <ele>43.258919</ele>
        <time>2021-08-22T16:41:53.012Z</time>
      </trkpt>
      <trkpt lat="41.14907" lon="29.67116">
        <ele>41.01855</ele>
        <time>2021-08-22T16:41:58.833Z</time>
      </trkpt>
      <trkpt lat="41.14952" lon="29.67043">
        <ele>35.723192</ele>
        <time>2021-08-22T16:42:12.493Z</time>
      </trkpt>
      <trkpt lat="41.14984" lon="29.67025">
        <ele>33.116743</ele>
        <time>2021-08-22T16:42:19.200Z</time>
      </trkpt>
      <trkpt lat="41.14995" lon="29.6702">
        <ele>32.215946</ele>
        <time>2021-08-22T16:42:21.485Z</time>
      </trkpt>
      <trkpt lat="41.15016" lon="29.67012">
        <ele>30.571291</ele>
        <time>2021-08-22T16:42:25.816Z</time>
      </trkpt>
      <trkpt lat="41.15059" lon="29.66993">
        <ele>27.180546</ele>
        <time>2021-08-22T16:42:34.659Z</time>
      </trkpt>
      <trkpt lat="41.15073" lon="29.66993">
        <ele>26.150788</ele>
        <time>2021-08-22T16:42:37.373Z</time>
      </trkpt>
      <trkpt lat="41.1508" lon="29.66982">
        <ele>25.344204</ele>
        <time>2021-08-22T16:42:39.538Z</time>
      </trkpt>
      <trkpt lat="41.15093" lon="29.66945">
        <ele>23.024589</ele>
        <time>2021-08-22T16:42:45.753Z</time>
      </trkpt>
      <trkpt lat="41.15108" lon="29.66834">
        <ele>21.51493</ele>
        <time>2021-08-22T16:43:04.680Z</time>
      </trkpt>
      <trkpt lat="41.15119" lon="29.66812">
        <ele>21.233408</ele>
        <time>2021-08-22T16:43:10.172Z</time>
      </trkpt>
      <trkpt lat="41.15148" lon="29.6679">
        <ele>20.776579</ele>
        <time>2021-08-22T16:43:19.867Z</time>
      </trkpt>
      <trkpt lat="41.15237" lon="29.6675">
        <ele>22.757601</ele>
        <time>2021-08-22T16:44:02.475Z</time>
      </trkpt>
      <trkpt lat="41.15266" lon="29.66724">
        <ele>24.754086</ele>
        <time>2021-08-22T16:44:25.007Z</time>
      </trkpt>
      <trkpt lat="41.15312" lon="29.66672">
        <ele>28.130454</ele>
        <time>2021-08-22T16:45:06.942Z</time>
      </trkpt>
      <trkpt lat="41.15321" lon="29.66654">
        <ele>29.04281</ele>
        <time>2021-08-22T16:45:18.094Z</time>
      </trkpt>
      <trkpt lat="41.15324" lon="29.66648">
        <ele>29.395607</ele>
        <time>2021-08-22T16:45:24.972Z</time>
      </trkpt>
      <trkpt lat="41.15334" lon="29.66619">
        <ele>30.900078</ele>
        <time>2021-08-22T16:45:40.494Z</time>
      </trkpt>
      <trkpt lat="41.15364" lon="29.66468">
        <ele>39.921138</ele>
        <time>2021-08-22T16:47:13.089Z</time>
      </trkpt>
      <trkpt lat="41.15382" lon="29.66415">
        <ele>43.279365</ele>
        <time>2021-08-22T16:47:43.476Z</time>
      </trkpt>
      <trkpt lat="41.15401" lon="29.664">
        <ele>44.912271</ele>
        <time>2021-08-22T16:47:57.640Z</time>
      </trkpt>
      <trkpt lat="41.15419" lon="29.66396">
        <ele>46.286353</ele>
        <time>2021-08-22T16:48:10.085Z</time>
      </trkpt>
      <trkpt lat="41.15436" lon="29.664">
        <ele>47.573249</ele>
        <time>2021-08-22T16:48:21.583Z</time>
      </trkpt>
      <trkpt lat="41.15467" lon="29.66423">
        <ele>50.141148</ele>
        <time>2021-08-22T16:48:45.702Z</time>
      </trkpt>
      <trkpt lat="41.1549" lon="29.66424">
        <ele>51.80705</ele>
        <time>2021-08-22T16:49:02.075Z</time>
      </trkpt>
      <trkpt lat="41.15506" lon="29.66408">
        <ele>53.327076</ele>
        <time>2021-08-22T16:49:17.224Z</time>
      </trkpt>
      <trkpt lat="41.15519" lon="29.66355">
        <ele>56.376976</ele>
        <time>2021-08-22T16:49:48.693Z</time>
      </trkpt>
      <trkpt lat="41.15514" lon="29.66332">
        <ele>57.772381</ele>
        <time>2021-08-22T16:50:02.167Z</time>
      </trkpt>
      <trkpt lat="41.15503" lon="29.66312">
        <ele>59.582587</ele>
        <time>2021-08-22T16:50:17.470Z</time>
      </trkpt>
      <trkpt lat="41.15368" lon="29.66201">
        <ele>74.184416</ele>
        <time>2021-08-22T16:52:32.426Z</time>
      </trkpt>
      <trkpt lat="41.15305" lon="29.66163">
        <ele>78.420794</ele>
        <time>2021-08-22T16:53:31.169Z</time>
      </trkpt>
      <trkpt lat="41.15236" lon="29.66106">
        <ele>83.310816</ele>
        <time>2021-08-22T16:54:19.792Z</time>
      </trkpt>
      <trkpt lat="41.15216" lon="29.66095">
        <ele>84.627268</ele>
        <time>2021-08-22T16:54:30.532Z</time>
      </trkpt>
      <trkpt lat="41.15164" lon="29.66067">
        <ele>83.570035</ele>
        <time>2021-08-22T16:54:48.072Z</time>
      </trkpt>
      <trkpt lat="41.1509" lon="29.66001">
        <ele>81.361621</ele>
        <time>2021-08-22T16:55:08.545Z</time>
      </trkpt>
      <trkpt lat="41.15045" lon="29.65973">
        <ele>79.837105</ele>
        <time>2021-08-22T16:55:18.579Z</time>
      </trkpt>
      <trkpt lat="41.14907" lon="29.65939">
        <ele>72.775405</ele>
        <time>2021-08-22T16:55:47.694Z</time>
      </trkpt>
      <trkpt lat="41.14798" lon="29.65862">
        <ele>69.59344</ele>
        <time>2021-08-22T16:56:16.694Z</time>
      </trkpt>
      <trkpt lat="41.14763" lon="29.6583">
        <ele>68.808118</ele>
        <time>2021-08-22T16:56:28.351Z</time>
      </trkpt>
      <trkpt lat="41.14665" lon="29.65776">
        <ele>68.105808</ele>
        <time>2021-08-22T16:56:59.375Z</time>
      </trkpt>
      <trkpt lat="41.14646" lon="29.65755">
        <ele>68.134986</ele>
        <time>2021-08-22T16:57:06.921Z</time>
      </trkpt>
      <trkpt lat="41.14625" lon="29.65698">
        <ele>68.192454</ele>
        <time>2021-08-22T16:57:21.930Z</time>
      </trkpt>
      <trkpt lat="41.14625" lon="29.65669">
        <ele>68.219031</ele>
        <time>2021-08-22T16:57:29.206Z</time>
      </trkpt>
      <trkpt lat="41.14631" lon="29.65642">
        <ele>68.244531</ele>
        <time>2021-08-22T16:57:36.341Z</time>
      </trkpt>
      <trkpt lat="41.14657" lon="29.65615">
        <ele>69.41441</ele>
        <time>2021-08-22T16:57:48.681Z</time>
      </trkpt>
      <trkpt lat="41.14726" lon="29.65583">
        <ele>72.059893</ele>
        <time>2021-08-22T16:58:22.311Z</time>
      </trkpt>
      <trkpt lat="41.14761" lon="29.65559">
        <ele>73.489398</ele>
        <time>2021-08-22T16:58:45.314Z</time>
      </trkpt>
      <trkpt lat="41.14801" lon="29.65518">
        <ele>76.102728</ele>
        <time>2021-08-22T16:59:19.348Z</time>
      </trkpt>
      <trkpt lat="41.14816" lon="29.65494">
        <ele>78.099187</ele>
        <time>2021-08-22T16:59:36.572Z</time>
      </trkpt>
      <trkpt lat="41.14827" lon="29.65451">
        <ele>80.994178</ele>
        <time>2021-08-22T17:00:03.283Z</time>
      </trkpt>
      <trkpt lat="41.14829" lon="29.65395">
        <ele>84.623193</ele>
        <time>2021-08-22T17:00:39.339Z</time>
      </trkpt>
      <trkpt lat="41.14805" lon="29.65153">
        <ele>99.574853</ele>
        <time>2021-08-22T17:03:12.611Z</time>
      </trkpt>
      <trkpt lat="41.14803" lon="29.65135">
        <ele>100.683618</ele>
        <time>2021-08-22T17:03:23.660Z</time>
      </trkpt>
      <trkpt lat="41.14761" lon="29.6495">
        <ele>106.709428</ele>
        <time>2021-08-22T17:04:47.829Z</time>
      </trkpt>
      <trkpt lat="41.14758" lon="29.6492">
        <ele>107.255531</ele>
        <time>2021-08-22T17:04:56.461Z</time>
      </trkpt>
      <trkpt lat="41.14763" lon="29.64879">
        <ele>107.99441</ele>
        <time>2021-08-22T17:05:06.346Z</time>
      </trkpt>
      <trkpt lat="41.14839" lon="29.64769">
        <ele>105.243268</ele>
        <time>2021-08-22T17:05:33.132Z</time>
      </trkpt>
      <trkpt lat="41.14866" lon="29.64726">
        <ele>103.596988</ele>
        <time>2021-08-22T17:05:42.174Z</time>
      </trkpt>
      <trkpt lat="41.14885" lon="29.64695">
        <ele>102.43036</ele>
        <time>2021-08-22T17:05:48.393Z</time>
      </trkpt>
      <trkpt lat="41.14903" lon="29.64679">
        <ele>101.577286</ele>
        <time>2021-08-22T17:05:52.788Z</time>
      </trkpt>
      <trkpt lat="41.14949" lon="29.64625">
        <ele>97.708506</ele>
        <time>2021-08-22T17:06:05.289Z</time>
      </trkpt>
      <trkpt lat="41.15007" lon="29.64552">
        <ele>92.696002</ele>
        <time>2021-08-22T17:06:21.390Z</time>
      </trkpt>
      <trkpt lat="41.15063" lon="29.64426">
        <ele>86.007989</ele>
        <time>2021-08-22T17:06:44.239Z</time>
      </trkpt>
      <trkpt lat="41.15113" lon="29.64344">
        <ele>81.280776</ele>
        <time>2021-08-22T17:07:00.836Z</time>
      </trkpt>
      <trkpt lat="41.15215" lon="29.64201">
        <ele>70.580234</ele>
        <time>2021-08-22T17:07:30.446Z</time>
      </trkpt>
      <trkpt lat="41.15224" lon="29.64189">
        <ele>69.620501</ele>
        <time>2021-08-22T17:07:32.908Z</time>
      </trkpt>
      <trkpt lat="41.15272" lon="29.64119">
        <ele>64.199533</ele>
        <time>2021-08-22T17:07:46.882Z</time>
      </trkpt>
      <trkpt lat="41.15281" lon="29.6411">
        <ele>63.304295</ele>
        <time>2021-08-22T17:07:49.101Z</time>
      </trkpt>
      <trkpt lat="41.15305" lon="29.64089">
        <ele>61.127128</ele>
        <time>2021-08-22T17:07:54.630Z</time>
      </trkpt>
      <trkpt lat="41.15318" lon="29.64074">
        <ele>59.790974</ele>
        <time>2021-08-22T17:07:58.010Z</time>
      </trkpt>
      <trkpt lat="41.15378" lon="29.64031">
        <ele>54.491126</ele>
        <time>2021-08-22T17:08:11.491Z</time>
      </trkpt>
      <trkpt lat="41.15494" lon="29.63984">
        <ele>45.755774</ele>
        <time>2021-08-22T17:08:36.013Z</time>
      </trkpt>
      <trkpt lat="41.15613" lon="29.63868">
        <ele>35.349226</ele>
        <time>2021-08-22T17:09:05.431Z</time>
      </trkpt>
      <trkpt lat="41.15635" lon="29.63847">
        <ele>33.478575</ele>
        <time>2021-08-22T17:09:10.769Z</time>
      </trkpt>
      <trkpt lat="41.15643" lon="29.63835">
        <ele>32.639454</ele>
        <time>2021-08-22T17:09:13.104Z</time>
      </trkpt>
      <trkpt lat="41.1566" lon="29.63783">
        <ele>29.666541</ele>
        <time>2021-08-22T17:09:21.654Z</time>
      </trkpt>
      <trkpt lat="41.1567" lon="29.63715">
        <ele>26.320656</ele>
        <time>2021-08-22T17:09:32.233Z</time>
      </trkpt>
      <trkpt lat="41.15674" lon="29.63691">
        <ele>25.492692</ele>
        <time>2021-08-22T17:09:36.032Z</time>
      </trkpt>
      <trkpt lat="41.15679" lon="29.63674">
        <ele>24.873003</ele>
        <time>2021-08-22T17:09:38.971Z</time>
      </trkpt>
      <trkpt lat="41.15703" lon="29.6365">
        <ele>23.573515</ele>
        <time>2021-08-22T17:09:45.125Z</time>
      </trkpt>
      <trkpt lat="41.15719" lon="29.63644">
        <ele>22.837295</ele>
        <time>2021-08-22T17:09:48.700Z</time>
      </trkpt>
      <trkpt lat="41.15739" lon="29.6363">
        <ele>21.83741</ele>
        <time>2021-08-22T17:09:53.874Z</time>
      </trkpt>
      <trkpt lat="41.15744" lon="29.63622">
        <ele>21.467067</ele>
        <time>2021-08-22T17:09:55.648Z</time>
      </trkpt>
      <trkpt lat="41.15748" lon="29.6361">
        <ele>21.048425</ele>
        <time>2021-08-22T17:09:57.766Z</time>
      </trkpt>
      <trkpt lat="41.15752" lon="29.63571">
        <ele>19.740563</ele>
        <time>2021-08-22T17:10:04.588Z</time>
      </trkpt>
      <trkpt lat="41.15744" lon="29.63518">
        <ele>18.469417</ele>
        <time>2021-08-22T17:10:14.515Z</time>
      </trkpt>
      <trkpt lat="41.15733" lon="29.63439">
        <ele>17.295897</ele>
        <time>2021-08-22T17:10:29.032Z</time>
      </trkpt>
      <trkpt lat="41.15725" lon="29.63331">
        <ele>15.686003</ele>
        <time>2021-08-22T17:10:49.698Z</time>
      </trkpt>
      <trkpt lat="41.15714" lon="29.63245">
        <ele>15.177821</ele>
        <time>2021-08-22T17:11:06.823Z</time>
      </trkpt>
      <trkpt lat="41.15708" lon="29.63112">
        <ele>14.766632</ele>
        <time>2021-08-22T17:11:36.152Z</time>
      </trkpt>
      <trkpt lat="41.15708" lon="29.6305">
        <ele>14.881147</ele>
        <time>2021-08-22T17:11:52.397Z</time>
      </trkpt>
      <trkpt lat="41.15718" lon="29.62892">
        <ele>16.52045</ele>
        <time>2021-08-22T17:12:40.693Z</time>
      </trkpt>
      <trkpt lat="41.15722" lon="29.62869">
        <ele>16.762518</ele>
        <time>2021-08-22T17:12:48.285Z</time>
      </trkpt>
      <trkpt lat="41.15747" lon="29.62804">
        <ele>17.228825</ele>
        <time>2021-08-22T17:13:10.888Z</time>
      </trkpt>
      <trkpt lat="41.15825" lon="29.626">
        <ele>17.490943</ele>
        <time>2021-08-22T17:14:06.465Z</time>
      </trkpt>
      <trkpt lat="41.15757" lon="29.62541">
        <ele>16.282092</ele>
        <time>2021-08-22T17:14:27.782Z</time>
      </trkpt>
      <trkpt lat="41.15755" lon="29.62527">
        <ele>16.115248</ele>
        <time>2021-08-22T17:14:30.705Z</time>
      </trkpt>
      <trkpt lat="41.15781" lon="29.62457">
        <ele>15.238624</ele>
        <time>2021-08-22T17:14:45.825Z</time>
      </trkpt>
      <trkpt lat="41.15779" lon="29.62406">
        <ele>14.825675</ele>
        <time>2021-08-22T17:14:55.592Z</time>
      </trkpt>
      <trkpt lat="41.15757" lon="29.62347">
        <ele>14.327777</ele>
        <time>2021-08-22T17:15:09.204Z</time>
      </trkpt>
      <trkpt lat="41.15701" lon="29.62249">
        <ele>13.39558</ele>
        <time>2021-08-22T17:15:36.616Z</time>
      </trkpt>
      <trkpt lat="41.1569" lon="29.62165">
        <ele>13.436732</ele>
        <time>2021-08-22T17:15:57.380Z</time>
      </trkpt>
      <trkpt lat="41.1569" lon="29.6212">
        <ele>13.496619</ele>
        <time>2021-08-22T17:16:09.051Z</time>
      </trkpt>
      <trkpt lat="41.15692" lon="29.62075">
        <ele>13.555699</ele>
        <time>2021-08-22T17:16:20.724Z</time>
      </trkpt>
      <trkpt lat="41.15693" lon="29.62068">
        <ele>13.565294</ele>
        <time>2021-08-22T17:16:22.480Z</time>
      </trkpt>
      <trkpt lat="41.15699" lon="29.62044">
        <ele>13.598762</ele>
        <time>2021-08-22T17:16:29.317Z</time>
      </trkpt>
      <trkpt lat="41.1571" lon="29.62018">
        <ele>13.638619</ele>
        <time>2021-08-22T17:16:37.059Z</time>
      </trkpt>
      <trkpt lat="41.15766" lon="29.61948">
        <ele>13.698636</ele>
        <time>2021-08-22T17:17:04.184Z</time>
      </trkpt>
      <trkpt lat="41.15868" lon="29.61848">
        <ele>13.551217</ele>
        <time>2021-08-22T17:17:45.065Z</time>
      </trkpt>
      <trkpt lat="41.15889" lon="29.61814">
        <ele>13.113199</ele>
        <time>2021-08-22T17:17:54.647Z</time>
      </trkpt>
      <trkpt lat="41.15899" lon="29.61797">
        <ele>12.902137</ele>
        <time>2021-08-22T17:17:58.943Z</time>
      </trkpt>
      <trkpt lat="41.15917" lon="29.61735">
        <ele>12.236382</ele>
        <time>2021-08-22T17:18:12.692Z</time>
      </trkpt>
      <trkpt lat="41.15917" lon="29.61684">
        <ele>11.736022</ele>
        <time>2021-08-22T17:18:22.777Z</time>
      </trkpt>
      <trkpt lat="41.1592" lon="29.61583">
        <ele>10.368631</ele>
        <time>2021-08-22T17:18:42.138Z</time>
      </trkpt>
      <trkpt lat="41.1592" lon="29.61569">
        <ele>10.155759</ele>
        <time>2021-08-22T17:18:44.749Z</time>
      </trkpt>
      <trkpt lat="41.15921" lon="29.61528">
        <ele>9.546137</ele>
        <time>2021-08-22T17:18:52.319Z</time>
      </trkpt>
      <trkpt lat="41.1593" lon="29.6148">
        <ele>8.789516</ele>
        <time>2021-08-22T17:19:01.828Z</time>
      </trkpt>
      <trkpt lat="41.15933" lon="29.61471">
        <ele>8.637875</ele>
        <time>2021-08-22T17:19:03.684Z</time>
      </trkpt>
      <trkpt lat="41.15944" lon="29.61438">
        <ele>8.097114</ele>
        <time>2021-08-22T17:19:10.813Z</time>
      </trkpt>
      <trkpt lat="41.15969" lon="29.61369">
        <ele>7.777147</ele>
        <time>2021-08-22T17:19:26.949Z</time>
      </trkpt>
      <trkpt lat="41.15986" lon="29.61323">
        <ele>7.782187</ele>
        <time>2021-08-22T17:19:39.270Z</time>
      </trkpt>
      <trkpt lat="41.16009" lon="29.61258">
        <ele>7.789135</ele>
        <time>2021-08-22T17:19:58.076Z</time>
      </trkpt>
      <trkpt lat="41.16018" lon="29.61233">
        <ele>7.791887</ele>
        <time>2021-08-22T17:20:05.941Z</time>
      </trkpt>
      <trkpt lat="41.16053" lon="29.61188">
        <ele>7.971804</ele>
        <time>2021-08-22T17:20:25.160Z</time>
      </trkpt>
      <trkpt lat="41.16084" lon="29.61161">
        <ele>8.233795</ele>
        <time>2021-08-22T17:20:39.904Z</time>
      </trkpt>
      <trkpt lat="41.16112" lon="29.61138">
        <ele>8.465485</ele>
        <time>2021-08-22T17:20:52.675Z</time>
      </trkpt>
      <trkpt lat="41.16115" lon="29.61136">
        <ele>8.488356</ele>
        <time>2021-08-22T17:20:53.638Z</time>
      </trkpt>
      <trkpt lat="41.16144" lon="29.61003">
        <ele>8.9813</ele>
        <time>2021-08-22T17:21:29.624Z</time>
      </trkpt>
      <trkpt lat="41.16146" lon="29.60994">
        <ele>8.951175</ele>
        <time>2021-08-22T17:21:31.464Z</time>
      </trkpt>
      <trkpt lat="41.16148" lon="29.6098">
        <ele>8.900252</ele>
        <time>2021-08-22T17:21:34.918Z</time>
      </trkpt>
      <trkpt lat="41.16178" lon="29.60884">
        <ele>8.550843</ele>
        <time>2021-08-22T17:21:56.877Z</time>
      </trkpt>
      <trkpt lat="41.16203" lon="29.60817">
        <ele>8.30005</ele>
        <time>2021-08-22T17:22:12.622Z</time>
      </trkpt>
      <trkpt lat="41.16206" lon="29.60809">
        <ele>8.27402</ele>
        <time>2021-08-22T17:22:14.389Z</time>
      </trkpt>
      <trkpt lat="41.16245" lon="29.60688">
        <ele>8.139186</ele>
        <time>2021-08-22T17:22:44.175Z</time>
      </trkpt>
      <trkpt lat="41.16264" lon="29.60629">
        <ele>8.073591</ele>
        <time>2021-08-22T17:22:59.565Z</time>
      </trkpt>
      <trkpt lat="41.16275" lon="29.60601">
        <ele>8.041636</ele>
        <time>2021-08-22T17:23:07.204Z</time>
      </trkpt>
      <trkpt lat="41.16284" lon="29.60579">
        <ele>8.01089</ele>
        <time>2021-08-22T17:23:13.343Z</time>
      </trkpt>
      <trkpt lat="41.16285" lon="29.60575">
        <ele>8.004919</ele>
        <time>2021-08-22T17:23:14.404Z</time>
      </trkpt>
      <trkpt lat="41.16299" lon="29.60541">
        <ele>7.952466</ele>
        <time>2021-08-22T17:23:23.576Z</time>
      </trkpt>
      <trkpt lat="41.16317" lon="29.60489">
        <ele>7.874517</ele>
        <time>2021-08-22T17:23:37.045Z</time>
      </trkpt>
      <trkpt lat="41.1635" lon="29.60424">
        <ele>7.767215</ele>
        <time>2021-08-22T17:23:54.765Z</time>
      </trkpt>
      <trkpt lat="41.16378" lon="29.60371">
        <ele>7.599724</ele>
        <time>2021-08-22T17:24:08.587Z</time>
      </trkpt>
      <trkpt lat="41.16407" lon="29.60324">
        <ele>7.267229</ele>
        <time>2021-08-22T17:24:21.175Z</time>
      </trkpt>
      <trkpt lat="41.16412" lon="29.60313">
        <ele>7.194217</ele>
        <time>2021-08-22T17:24:23.938Z</time>
      </trkpt>
      <trkpt lat="41.16417" lon="29.60303">
        <ele>7.133128</ele>
        <time>2021-08-22T17:24:26.100Z</time>
      </trkpt>
      <trkpt lat="41.1644" lon="29.60208">
        <ele>6.58028</ele>
        <time>2021-08-22T17:24:46.998Z</time>
      </trkpt>
      <trkpt lat="41.16457" lon="29.60163">
        <ele>6.337509</ele>
        <time>2021-08-22T17:24:58.304Z</time>
      </trkpt>
      <trkpt lat="41.16487" lon="29.60108">
        <ele>6.10179</ele>
        <time>2021-08-22T17:25:13.192Z</time>
      </trkpt>
      <trkpt lat="41.16515" lon="29.60074">
        <ele>5.926017</ele>
        <time>2021-08-22T17:25:24.588Z</time>
      </trkpt>
      <trkpt lat="41.16555" lon="29.60026">
        <ele>5.675413</ele>
        <time>2021-08-22T17:25:39.970Z</time>
      </trkpt>
      <trkpt lat="41.16589" lon="29.59985">
        <ele>5.324486</ele>
        <time>2021-08-22T17:25:52.943Z</time>
      </trkpt>
      <trkpt lat="41.16593" lon="29.5998">
        <ele>5.262016</ele>
        <time>2021-08-22T17:25:54.353Z</time>
      </trkpt>
      <trkpt lat="41.16611" lon="29.5996">
        <ele>5.006852</ele>
        <time>2021-08-22T17:26:00.849Z</time>
      </trkpt>
      <trkpt lat="41.16614" lon="29.59941">
        <ele>4.842636</ele>
        <time>2021-08-22T17:26:04.908Z</time>
      </trkpt>
      <trkpt lat="41.16614" lon="29.59926">
        <ele>4.718393</ele>
        <time>2021-08-22T17:26:07.857Z</time>
      </trkpt>
      <trkpt lat="41.16614" lon="29.59898">
        <ele>4.483247</ele>
        <time>2021-08-22T17:26:13.793Z</time>
      </trkpt>
      <trkpt lat="41.16614" lon="29.59843">
        <ele>4.029585</ele>
        <time>2021-08-22T17:26:24.528Z</time>
      </trkpt>
      <trkpt lat="41.16618" lon="29.59833">
        <ele>3.933153</ele>
        <time>2021-08-22T17:26:26.600Z</time>
      </trkpt>
      <trkpt lat="41.16576" lon="29.59772">
        <ele>3.287967</ele>
        <time>2021-08-22T17:26:43.493Z</time>
      </trkpt>
      <trkpt lat="41.16522" lon="29.59693">
        <ele>2.532821</ele>
        <time>2021-08-22T17:27:05.735Z</time>
      </trkpt>
      <trkpt lat="41.16563" lon="29.5961">
        <ele>1.864063</ele>
        <time>2021-08-22T17:27:28.839Z</time>
      </trkpt>
      <trkpt lat="41.16639" lon="29.59411">
        <ele>1.545691</ele>
        <time>2021-08-22T17:28:21.847Z</time>
      </trkpt>
      <trkpt lat="41.166" lon="29.59383">
        <ele>1.492756</ele>
        <time>2021-08-22T17:28:35.436Z</time>
      </trkpt>
      <trkpt lat="41.16572" lon="29.59362">
        <ele>1.458072</ele>
        <time>2021-08-22T17:28:45.263Z</time>
      </trkpt>
      <trkpt lat="41.1639" lon="29.59233">
        <ele>1.397755</ele>
        <time>2021-08-22T17:29:48.281Z</time>
      </trkpt>
      <trkpt lat="41.16357" lon="29.59209">
        <ele>1.420087</ele>
        <time>2021-08-22T17:30:00.286Z</time>
      </trkpt>
      <trkpt lat="41.16281" lon="29.59148">
        <ele>1.485311</ele>
        <time>2021-08-22T17:30:29.505Z</time>
      </trkpt>
      <trkpt lat="41.16217" lon="29.59102">
        <ele>1.548237</ele>
        <time>2021-08-22T17:30:52.613Z</time>
      </trkpt>
      <trkpt lat="41.16205" lon="29.59093">
        <ele>1.561004</ele>
        <time>2021-08-22T17:30:57.176Z</time>
      </trkpt>
      <trkpt lat="41.16195" lon="29.59086">
        <ele>1.570537</ele>
        <time>2021-08-22T17:31:00.553Z</time>
      </trkpt>
      <trkpt lat="41.16197" lon="29.59064">
        <ele>1.585214</ele>
        <time>2021-08-22T17:31:05.686Z</time>
      </trkpt>
      <trkpt lat="41.162" lon="29.59026">
        <ele>1.59068</ele>
        <time>2021-08-22T17:31:14.479Z</time>
      </trkpt>
      <trkpt lat="41.16203" lon="29.58998">
        <ele>1.544048</ele>
        <time>2021-08-22T17:31:20.830Z</time>
      </trkpt>
      <trkpt lat="41.16208" lon="29.58923">
        <ele>1.419831</ele>
        <time>2021-08-22T17:31:37.631Z</time>
      </trkpt>
      <trkpt lat="41.16243" lon="29.58824">
        <ele>1.238137</ele>
        <time>2021-08-22T17:32:02.217Z</time>
      </trkpt>
      <trkpt lat="41.16273" lon="29.58734">
        <ele>1.262045</ele>
        <time>2021-08-22T17:32:24.965Z</time>
      </trkpt>
      <trkpt lat="41.16274" lon="29.58731">
        <ele>1.264302</ele>
        <time>2021-08-22T17:32:25.777Z</time>
      </trkpt>
      <trkpt lat="41.16287" lon="29.5869">
        <ele>1.294655</ele>
        <time>2021-08-22T17:32:36.760Z</time>
      </trkpt>
      <trkpt lat="41.16293" lon="29.58673">
        <ele>1.307131</ele>
        <time>2021-08-22T17:32:41.301Z</time>
      </trkpt>
      <trkpt lat="41.16305" lon="29.58635">
        <ele>1.334631</ele>
        <time>2021-08-22T17:32:51.405Z</time>
      </trkpt>
      <trkpt lat="41.1632" lon="29.5859">
        <ele>1.367521</ele>
        <time>2021-08-22T17:33:03.416Z</time>
      </trkpt>
      <trkpt lat="41.16333" lon="29.58551">
        <ele>1.41971</ele>
        <time>2021-08-22T17:33:13.709Z</time>
      </trkpt>
      <trkpt lat="41.16342" lon="29.58524">
        <ele>1.456693</ele>
        <time>2021-08-22T17:33:20.867Z</time>
      </trkpt>
      <trkpt lat="41.16349" lon="29.58504">
        <ele>1.482445</ele>
        <time>2021-08-22T17:33:25.849Z</time>
      </trkpt>
      <trkpt lat="41.16372" lon="29.58435">
        <ele>1.575974</ele>
        <time>2021-08-22T17:33:44.025Z</time>
      </trkpt>
      <trkpt lat="41.16372" lon="29.58434">
        <ele>1.577482</ele>
        <time>2021-08-22T17:33:44.312Z</time>
      </trkpt>
      <trkpt lat="41.16374" lon="29.58428">
        <ele>1.586104</ele>
        <time>2021-08-22T17:33:45.940Z</time>
      </trkpt>
      <trkpt lat="41.16409" lon="29.58322">
        <ele>1.849933</ele>
        <time>2021-08-22T17:34:14.107Z</time>
      </trkpt>
      <trkpt lat="41.16422" lon="29.58284">
        <ele>1.99516</ele>
        <time>2021-08-22T17:34:24.583Z</time>
      </trkpt>
      <trkpt lat="41.16438" lon="29.58236">
        <ele>2.183184</ele>
        <time>2021-08-22T17:34:38.185Z</time>
      </trkpt>
      <trkpt lat="41.16485" lon="29.58144">
        <ele>2.573355</ele>
        <time>2021-08-22T17:35:06.864Z</time>
      </trkpt>
      <trkpt lat="41.16486" lon="29.58141">
        <ele>2.589963</ele>
        <time>2021-08-22T17:35:08.105Z</time>
      </trkpt>
      <trkpt lat="41.16554" lon="29.58009">
        <ele>3.168013</ele>
        <time>2021-08-22T17:35:49.048Z</time>
      </trkpt>
      <trkpt lat="41.16578" lon="29.57961">
        <ele>3.376697</ele>
        <time>2021-08-22T17:36:03.595Z</time>
      </trkpt>
      <trkpt lat="41.16586" lon="29.57945">
        <ele>3.393473</ele>
        <time>2021-08-22T17:36:08.327Z</time>
      </trkpt>
      <trkpt lat="41.16602" lon="29.57913">
        <ele>3.426743</ele>
        <time>2021-08-22T17:36:17.673Z</time>
      </trkpt>
      <trkpt lat="41.16672" lon="29.5777">
        <ele>3.574293</ele>
        <time>2021-08-22T17:36:58.069Z</time>
      </trkpt>
      <trkpt lat="41.16698" lon="29.57717">
        <ele>3.535635</ele>
        <time>2021-08-22T17:37:12.930Z</time>
      </trkpt>
      <trkpt lat="41.16716" lon="29.5768">
        <ele>3.496343</ele>
        <time>2021-08-22T17:37:23.034Z</time>
      </trkpt>
      <trkpt lat="41.16734" lon="29.57642">
        <ele>3.456635</ele>
        <time>2021-08-22T17:37:33.066Z</time>
      </trkpt>
      <trkpt lat="41.16749" lon="29.57612">
        <ele>3.424381</ele>
        <time>2021-08-22T17:37:41.114Z</time>
      </trkpt>
      <trkpt lat="41.16757" lon="29.57596">
        <ele>3.407333</ele>
        <time>2021-08-22T17:37:45.328Z</time>
      </trkpt>
      <trkpt lat="41.16868" lon="29.57407">
        <ele>3.673638</ele>
        <time>2021-08-22T17:38:41.804Z</time>
      </trkpt>
      <trkpt lat="41.16831" lon="29.57347">
        <ele>4.052034</ele>
        <time>2021-08-22T17:39:03.477Z</time>
      </trkpt>
      <trkpt lat="41.16807" lon="29.57271">
        <ele>4.761793</ele>
        <time>2021-08-22T17:39:27.805Z</time>
      </trkpt>
      <trkpt lat="41.1679" lon="29.57233">
        <ele>5.136647</ele>
        <time>2021-08-22T17:39:41.071Z</time>
      </trkpt>
      <trkpt lat="41.16765" lon="29.57127">
        <ele>6.043455</ele>
        <time>2021-08-22T17:40:14.797Z</time>
      </trkpt>
      <trkpt lat="41.16757" lon="29.57095">
        <ele>6.285231</ele>
        <time>2021-08-22T17:40:24.471Z</time>
      </trkpt>
      <trkpt lat="41.16764" lon="29.5704">
        <ele>6.685528</ele>
        <time>2021-08-22T17:40:40.474Z</time>
      </trkpt>
      <trkpt lat="41.16764" lon="29.56984">
        <ele>7.088311</ele>
        <time>2021-08-22T17:40:56.468Z</time>
      </trkpt>
      <trkpt lat="41.16764" lon="29.56962">
        <ele>7.250724</ele>
        <time>2021-08-22T17:41:02.686Z</time>
      </trkpt>
      <trkpt lat="41.16765" lon="29.56908">
        <ele>7.551445</ele>
        <time>2021-08-22T17:41:17.104Z</time>
      </trkpt>
      <trkpt lat="41.16765" lon="29.56904">
        <ele>7.56208</ele>
        <time>2021-08-22T17:41:18.273Z</time>
      </trkpt>
      <trkpt lat="41.16782" lon="29.56791">
        <ele>7.833732</ele>
        <time>2021-08-22T17:41:47.458Z</time>
      </trkpt>
      <trkpt lat="41.16778" lon="29.5677">
        <ele>7.886539</ele>
        <time>2021-08-22T17:41:52.895Z</time>
      </trkpt>
      <trkpt lat="41.16766" lon="29.56759">
        <ele>7.930134</ele>
        <time>2021-08-22T17:41:57.456Z</time>
      </trkpt>
      <trkpt lat="41.16732" lon="29.56735">
        <ele>8.052989</ele>
        <time>2021-08-22T17:42:10.808Z</time>
      </trkpt>
      <trkpt lat="41.16689" lon="29.56713">
        <ele>8.441326</ele>
        <time>2021-08-22T17:42:26.752Z</time>
      </trkpt>
      <trkpt lat="41.16682" lon="29.56703">
        <ele>8.536811</ele>
        <time>2021-08-22T17:42:30.459Z</time>
      </trkpt>
      <trkpt lat="41.16679" lon="29.56682">
        <ele>8.687252</ele>
        <time>2021-08-22T17:42:36.205Z</time>
      </trkpt>
      <trkpt lat="41.16685" lon="29.56622">
        <ele>9.11781</ele>
        <time>2021-08-22T17:42:52.899Z</time>
      </trkpt>
      <trkpt lat="41.1669" lon="29.56592">
        <ele>9.334042</ele>
        <time>2021-08-22T17:43:02.041Z</time>
      </trkpt>
      <trkpt lat="41.16718" lon="29.56469">
        <ele>11.083893</ele>
        <time>2021-08-22T17:43:42.672Z</time>
      </trkpt>
      <trkpt lat="41.16725" lon="29.56421">
        <ele>12.030266</ele>
        <time>2021-08-22T17:43:59.692Z</time>
      </trkpt>
      <trkpt lat="41.1674" lon="29.56324">
        <ele>13.949611</ele>
        <time>2021-08-22T17:44:35.487Z</time>
      </trkpt>
      <trkpt lat="41.16871" lon="29.5604">
        <ele>24.983658</ele>
        <time>2021-08-22T17:46:53.090Z</time>
      </trkpt>
      <trkpt lat="41.16874" lon="29.56024">
        <ele>25.813024</ele>
        <time>2021-08-22T17:47:02.489Z</time>
      </trkpt>
      <trkpt lat="41.16863" lon="29.56011">
        <ele>26.780808</ele>
        <time>2021-08-22T17:47:13.055Z</time>
      </trkpt>
      <trkpt lat="41.16865" lon="29.56004">
        <ele>27.170625</ele>
        <time>2021-08-22T17:47:16.832Z</time>
      </trkpt>
      <trkpt lat="41.16886" lon="29.55944">
        <ele>30.374208</ele>
        <time>2021-08-22T17:47:53.102Z</time>
      </trkpt>
      <trkpt lat="41.16899" lon="29.55936">
        <ele>31.295958</ele>
        <time>2021-08-22T17:48:03.262Z</time>
      </trkpt>
      <trkpt lat="41.16918" lon="29.55939">
        <ele>32.534756</ele>
        <time>2021-08-22T17:48:18.162Z</time>
      </trkpt>
      <trkpt lat="41.16974" lon="29.55986">
        <ele>38.448282</ele>
        <time>2021-08-22T17:49:16.451Z</time>
      </trkpt>
      <trkpt lat="41.17013" lon="29.56067">
        <ele>45.17986</ele>
        <time>2021-08-22T17:50:20.054Z</time>
      </trkpt>
      <trkpt lat="41.17027" lon="29.56087">
        <ele>47.139986</ele>
        <time>2021-08-22T17:50:36.649Z</time>
      </trkpt>
      <trkpt lat="41.17045" lon="29.5611">
        <ele>49.481628</ele>
        <time>2021-08-22T17:50:59.364Z</time>
      </trkpt>
      <trkpt lat="41.17062" lon="29.56104">
        <ele>50.893763</ele>
        <time>2021-08-22T17:51:13.212Z</time>
      </trkpt>
      <trkpt lat="41.17112" lon="29.56077">
        <ele>54.91347</ele>
        <time>2021-08-22T17:51:56.199Z</time>
      </trkpt>
      <trkpt lat="41.17119" lon="29.56075">
        <ele>55.438852</ele>
        <time>2021-08-22T17:52:00.497Z</time>
      </trkpt>
      <trkpt lat="41.17125" lon="29.56073">
        <ele>55.881394</ele>
        <time>2021-08-22T17:52:04.296Z</time>
      </trkpt>
      <trkpt lat="41.17127" lon="29.56071">
        <ele>56.044623</ele>
        <time>2021-08-22T17:52:06.013Z</time>
      </trkpt>
      <trkpt lat="41.17129" lon="29.5607">
        <ele>56.201548</ele>
        <time>2021-08-22T17:52:08.751Z</time>
      </trkpt>
      <trkpt lat="41.17133" lon="29.56054">
        <ele>57.099166</ele>
        <time>2021-08-22T17:52:17.857Z</time>
      </trkpt>
      <trkpt lat="41.17112" lon="29.55919">
        <ele>64.42047</ele>
        <time>2021-08-22T17:53:29.281Z</time>
      </trkpt>
      <trkpt lat="41.17114" lon="29.55896">
        <ele>65.428716</ele>
        <time>2021-08-22T17:53:40.922Z</time>
      </trkpt>
      <trkpt lat="41.17131" lon="29.55859">
        <ele>67.255458</ele>
        <time>2021-08-22T17:53:59.920Z</time>
      </trkpt>
      <trkpt lat="41.17132" lon="29.55854">
        <ele>67.503006</ele>
        <time>2021-08-22T17:54:05.088Z</time>
      </trkpt>
      <trkpt lat="41.17133" lon="29.55846">
        <ele>67.825992</ele>
        <time>2021-08-22T17:54:08.380Z</time>
      </trkpt>
      <trkpt lat="41.17133" lon="29.5583">
        <ele>68.535907</ele>
        <time>2021-08-22T17:54:15.048Z</time>
      </trkpt>
      <trkpt lat="41.17123" lon="29.55799">
        <ele>69.959941</ele>
        <time>2021-08-22T17:54:31.746Z</time>
      </trkpt>
      <trkpt lat="41.17091" lon="29.55743">
        <ele>72.928093</ele>
        <time>2021-08-22T17:55:03.564Z</time>
      </trkpt>
      <trkpt lat="41.17079" lon="29.55643">
        <ele>77.323283</ele>
        <time>2021-08-22T17:55:53.101Z</time>
      </trkpt>
      <trkpt lat="41.17076" lon="29.55544">
        <ele>81.62236</ele>
        <time>2021-08-22T17:56:41.281Z</time>
      </trkpt>
      <trkpt lat="41.17068" lon="29.55514">
        <ele>83.000731</ele>
        <time>2021-08-22T17:56:57.487Z</time>
      </trkpt>
      <trkpt lat="41.17047" lon="29.55469">
        <ele>85.162094</ele>
        <time>2021-08-22T17:57:24.105Z</time>
      </trkpt>
      <trkpt lat="41.17026" lon="29.55431">
        <ele>86.981902</ele>
        <time>2021-08-22T17:57:47.246Z</time>
      </trkpt>
      <trkpt lat="41.16994" lon="29.55356">
        <ele>90.334117</ele>
        <time>2021-08-22T17:58:28.086Z</time>
      </trkpt>
      <trkpt lat="41.16985" lon="29.5533">
        <ele>91.410905</ele>
        <time>2021-08-22T17:58:40.459Z</time>
      </trkpt>
      <trkpt lat="41.16981" lon="29.55263">
        <ele>93.458821</ele>
        <time>2021-08-22T17:59:09.411Z</time>
      </trkpt>
      <trkpt lat="41.16985" lon="29.55188">
        <ele>94.550287</ele>
        <time>2021-08-22T17:59:36.338Z</time>
      </trkpt>
      <trkpt lat="41.16981" lon="29.55112">
        <ele>95.64187</ele>
        <time>2021-08-22T17:59:59.276Z</time>
      </trkpt>
      <trkpt lat="41.16991" lon="29.5497">
        <ele>96.56757</ele>
        <time>2021-08-22T18:00:36.208Z</time>
      </trkpt>
      <trkpt lat="41.16985" lon="29.54838">
        <ele>96.568232</ele>
        <time>2021-08-22T18:01:07.566Z</time>
      </trkpt>
      <trkpt lat="41.16985" lon="29.54801">
        <ele>96.568008</ele>
        <time>2021-08-22T18:01:16.258Z</time>
      </trkpt>
      <trkpt lat="41.16997" lon="29.54727">
        <ele>96.565027</ele>
        <time>2021-08-22T18:01:34.185Z</time>
      </trkpt>
      <trkpt lat="41.17001" lon="29.54612">
        <ele>96.560545</ele>
        <time>2021-08-22T18:02:02.312Z</time>
      </trkpt>
      <trkpt lat="41.16998" lon="29.5456">
        <ele>96.565178</ele>
        <time>2021-08-22T18:02:15.673Z</time>
      </trkpt>
      <trkpt lat="41.16992" lon="29.54532">
        <ele>96.579124</ele>
        <time>2021-08-22T18:02:23.178Z</time>
      </trkpt>
      <trkpt lat="41.16963" lon="29.5446">
        <ele>96.617448</ele>
        <time>2021-08-22T18:02:43.638Z</time>
      </trkpt>
      <trkpt lat="41.16941" lon="29.54369">
        <ele>96.663068</ele>
        <time>2021-08-22T18:03:07.946Z</time>
      </trkpt>
      <trkpt lat="41.16911" lon="29.54146">
        <ele>96.170099</ele>
        <time>2021-08-22T18:04:00.146Z</time>
      </trkpt>
      <trkpt lat="41.16907" lon="29.54117">
        <ele>96.09747</ele>
        <time>2021-08-22T18:04:06.875Z</time>
      </trkpt>
      <trkpt lat="41.16898" lon="29.54091">
        <ele>96.047213</ele>
        <time>2021-08-22T18:04:12.928Z</time>
      </trkpt>
      <trkpt lat="41.16882" lon="29.54055">
        <ele>95.974405</ele>
        <time>2021-08-22T18:04:22.308Z</time>
      </trkpt>
      <trkpt lat="41.16879" lon="29.54034">
        <ele>95.937354</ele>
        <time>2021-08-22T18:04:27.056Z</time>
      </trkpt>
      <trkpt lat="41.16881" lon="29.54015">
        <ele>95.903803</ele>
        <time>2021-08-22T18:04:31.520Z</time>
      </trkpt>
      <trkpt lat="41.16908" lon="29.53954">
        <ele>95.781498</ele>
        <time>2021-08-22T18:04:47.047Z</time>
      </trkpt>
      <trkpt lat="41.169" lon="29.53944">
        <ele>95.756615</ele>
        <time>2021-08-22T18:04:50.497Z</time>
      </trkpt>
      <trkpt lat="41.16951" lon="29.53867">
        <ele>95.663028</ele>
        <time>2021-08-22T18:05:15.129Z</time>
      </trkpt>
      <trkpt lat="41.17038" lon="29.53732">
        <ele>95.616015</ele>
        <time>2021-08-22T18:05:57.736Z</time>
      </trkpt>
      <trkpt lat="41.17074" lon="29.53665">
        <ele>94.285567</ele>
        <time>2021-08-22T18:06:14.566Z</time>
      </trkpt>
      <trkpt lat="41.1708" lon="29.53643">
        <ele>93.882707</ele>
        <time>2021-08-22T18:06:19.122Z</time>
      </trkpt>
      <trkpt lat="41.17085" lon="29.53597">
        <ele>93.100064</ele>
        <time>2021-08-22T18:06:27.666Z</time>
      </trkpt>
      <trkpt lat="41.17082" lon="29.53537">
        <ele>92.070222</ele>
        <time>2021-08-22T18:06:38.436Z</time>
      </trkpt>
      <trkpt lat="41.17018" lon="29.53117">
        <ele>74.725229</ele>
        <time>2021-08-22T18:07:46.205Z</time>
      </trkpt>
      <trkpt lat="41.1696" lon="29.52721">
        <ele>51.084729</ele>
        <time>2021-08-22T18:08:45.374Z</time>
      </trkpt>
      <trkpt lat="41.1694" lon="29.52507">
        <ele>40.562599</ele>
        <time>2021-08-22T18:09:18.640Z</time>
      </trkpt>
      <trkpt lat="41.16912" lon="29.5233">
        <ele>33.908489</ele>
        <time>2021-08-22T18:09:48.099Z</time>
      </trkpt>
      <trkpt lat="41.16921" lon="29.52253">
        <ele>31.2042</ele>
        <time>2021-08-22T18:10:00.977Z</time>
      </trkpt>
      <trkpt lat="41.1695" lon="29.52183">
        <ele>28.453521</ele>
        <time>2021-08-22T18:10:13.854Z</time>
      </trkpt>
      <trkpt lat="41.17025" lon="29.52046">
        <ele>23.137347</ele>
        <time>2021-08-22T18:10:40.865Z</time>
      </trkpt>
      <trkpt lat="41.17068" lon="29.51966">
        <ele>20.323725</ele>
        <time>2021-08-22T18:10:57.138Z</time>
      </trkpt>
      <trkpt lat="41.17134" lon="29.51855">
        <ele>19.227234</ele>
        <time>2021-08-22T18:11:24.486Z</time>
      </trkpt>
      <trkpt lat="41.17141" lon="29.51831">
        <ele>19.311057</ele>
        <time>2021-08-22T18:11:29.964Z</time>
      </trkpt>
      <trkpt lat="41.17147" lon="29.51809">
        <ele>19.392994</ele>
        <time>2021-08-22T18:11:37.406Z</time>
      </trkpt>
      <trkpt lat="41.17149" lon="29.51732">
        <ele>19.652806</ele>
        <time>2021-08-22T18:12:01.521Z</time>
      </trkpt>
      <trkpt lat="41.17141" lon="29.51652">
        <ele>21.361839</ele>
        <time>2021-08-22T18:12:31.487Z</time>
      </trkpt>
      <trkpt lat="41.17126" lon="29.51566">
        <ele>23.765218</ele>
        <time>2021-08-22T18:13:06.616Z</time>
      </trkpt>
      <trkpt lat="41.17102" lon="29.51341">
        <ele>30.476313</ele>
        <time>2021-08-22T18:14:38.691Z</time>
      </trkpt>
      <trkpt lat="41.17099" lon="29.51257">
        <ele>33.060262</ele>
        <time>2021-08-22T18:15:13.334Z</time>
      </trkpt>
      <trkpt lat="41.17107" lon="29.512">
        <ele>34.892541</ele>
        <time>2021-08-22T18:15:37.245Z</time>
      </trkpt>
      <trkpt lat="41.17121" lon="29.51146">
        <ele>36.738508</ele>
        <time>2021-08-22T18:16:01.139Z</time>
      </trkpt>
      <trkpt lat="41.17233" lon="29.50824">
        <ele>48.505932</ele>
        <time>2021-08-22T18:18:28.676Z</time>
      </trkpt>
      <trkpt lat="41.17237" lon="29.50801">
        <ele>49.306443</ele>
        <time>2021-08-22T18:18:38.907Z</time>
      </trkpt>
      <trkpt lat="41.17237" lon="29.50755">
        <ele>51.570495</ele>
        <time>2021-08-22T18:19:00.009Z</time>
      </trkpt>
      <trkpt lat="41.17227" lon="29.50712">
        <ele>53.848313</ele>
        <time>2021-08-22T18:19:22.035Z</time>
      </trkpt>
      <trkpt lat="41.17189" lon="29.50619">
        <ele>59.101902</ele>
        <time>2021-08-22T18:20:17.039Z</time>
      </trkpt>
      <trkpt lat="41.1712" lon="29.50421">
        <ele>71.831367</ele>
        <time>2021-08-22T18:22:27.103Z</time>
      </trkpt>
      <trkpt lat="41.17076" lon="29.50354">
        <ele>76.27192</ele>
        <time>2021-08-22T18:23:17.330Z</time>
      </trkpt>
      <trkpt lat="41.1704" lon="29.50331">
        <ele>77.363133</ele>
        <time>2021-08-22T18:23:42.026Z</time>
      </trkpt>
      <trkpt lat="41.16994" lon="29.50317">
        <ele>78.625458</ele>
        <time>2021-08-22T18:24:05.238Z</time>
      </trkpt>
      <trkpt lat="41.16995" lon="29.50301">
        <ele>78.951729</ele>
        <time>2021-08-22T18:24:10.676Z</time>
      </trkpt>
      <trkpt lat="41.16978" lon="29.50282">
        <ele>79.544598</ele>
        <time>2021-08-22T18:24:18.109Z</time>
      </trkpt>
      <trkpt lat="41.16942" lon="29.50244">
        <ele>80.32249</ele>
        <time>2021-08-22T18:24:31.047Z</time>
      </trkpt>
      <trkpt lat="41.1694" lon="29.50222">
        <ele>79.488145</ele>
        <time>2021-08-22T18:24:34.803Z</time>
      </trkpt>
      <trkpt lat="41.16953" lon="29.502">
        <ele>78.375885</ele>
        <time>2021-08-22T18:24:39.770Z</time>
      </trkpt>
      <trkpt lat="41.1703" lon="29.5014">
        <ele>73.794635</ele>
        <time>2021-08-22T18:24:57.931Z</time>
      </trkpt>
      <trkpt lat="41.17105" lon="29.50123">
        <ele>69.478973</ele>
        <time>2021-08-22T18:25:13.233Z</time>
      </trkpt>
      <trkpt lat="41.17129" lon="29.50103">
        <ele>67.663582</ele>
        <time>2021-08-22T18:25:18.898Z</time>
      </trkpt>
      <trkpt lat="41.17172" lon="29.50035">
        <ele>63.358894</ele>
        <time>2021-08-22T18:25:32.488Z</time>
      </trkpt>
      <trkpt lat="41.17181" lon="29.5001">
        <ele>61.987993</ele>
        <time>2021-08-22T18:25:36.888Z</time>
      </trkpt>
      <trkpt lat="41.17185" lon="29.49966">
        <ele>59.862283</ele>
        <time>2021-08-22T18:25:43.667Z</time>
      </trkpt>
      <trkpt lat="41.17159" lon="29.49813">
        <ele>52.842298</ele>
        <time>2021-08-22T18:26:07.910Z</time>
      </trkpt>
      <trkpt lat="41.17155" lon="29.49793">
        <ele>51.894167</ele>
        <time>2021-08-22T18:26:11.171Z</time>
      </trkpt>
      <trkpt lat="41.17171" lon="29.49746">
        <ele>49.60307</ele>
        <time>2021-08-22T18:26:19.521Z</time>
      </trkpt>
      <trkpt lat="41.17178" lon="29.49711">
        <ele>48.088223</ele>
        <time>2021-08-22T18:26:25.510Z</time>
      </trkpt>
      <trkpt lat="41.17174" lon="29.49674">
        <ele>46.611983</ele>
        <time>2021-08-22T18:26:31.532Z</time>
      </trkpt>
      <trkpt lat="41.17187" lon="29.49641">
        <ele>45.093928</ele>
        <time>2021-08-22T18:26:37.711Z</time>
      </trkpt>
      <trkpt lat="41.17191" lon="29.49602">
        <ele>43.507252</ele>
        <time>2021-08-22T18:26:44.114Z</time>
      </trkpt>
      <trkpt lat="41.1717" lon="29.49488">
        <ele>39.045729</ele>
        <time>2021-08-22T18:27:03.885Z</time>
      </trkpt>
      <trkpt lat="41.1715" lon="29.49443">
        <ele>37.651591</ele>
        <time>2021-08-22T18:27:12.976Z</time>
      </trkpt>
      <trkpt lat="41.17143" lon="29.49409">
        <ele>36.736345</ele>
        <time>2021-08-22T18:27:19.055Z</time>
      </trkpt>
      <trkpt lat="41.17142" lon="29.49396">
        <ele>36.38385</ele>
        <time>2021-08-22T18:27:21.420Z</time>
      </trkpt>
      <trkpt lat="41.17145" lon="29.49374">
        <ele>35.795747</ele>
        <time>2021-08-22T18:27:25.519Z</time>
      </trkpt>
      <trkpt lat="41.17147" lon="29.49371">
        <ele>35.68322</ele>
        <time>2021-08-22T18:27:26.286Z</time>
      </trkpt>
      <trkpt lat="41.17143" lon="29.49354">
        <ele>35.223254</ele>
        <time>2021-08-22T18:27:29.326Z</time>
      </trkpt>
      <trkpt lat="41.17144" lon="29.49335">
        <ele>34.724217</ele>
        <time>2021-08-22T18:27:32.938Z</time>
      </trkpt>
      <trkpt lat="41.17147" lon="29.49317">
        <ele>34.240186</ele>
        <time>2021-08-22T18:27:36.188Z</time>
      </trkpt>
      <trkpt lat="41.17149" lon="29.49301">
        <ele>33.795674</ele>
        <time>2021-08-22T18:27:39.324Z</time>
      </trkpt>
      <trkpt lat="41.17149" lon="29.49278">
        <ele>33.197261</ele>
        <time>2021-08-22T18:27:43.734Z</time>
      </trkpt>
      <trkpt lat="41.17146" lon="29.49264">
        <ele>32.887879</ele>
        <time>2021-08-22T18:27:46.346Z</time>
      </trkpt>
      <trkpt lat="41.17163" lon="29.49237">
        <ele>32.156639</ele>
        <time>2021-08-22T18:27:52.750Z</time>
      </trkpt>
      <trkpt lat="41.17181" lon="29.49216">
        <ele>31.521691</ele>
        <time>2021-08-22T18:27:58.426Z</time>
      </trkpt>
      <trkpt lat="41.17194" lon="29.49204">
        <ele>31.085501</ele>
        <time>2021-08-22T18:28:02.168Z</time>
      </trkpt>
      <trkpt lat="41.17195" lon="29.49203">
        <ele>31.057451</ele>
        <time>2021-08-22T18:28:02.406Z</time>
      </trkpt>
      <trkpt lat="41.1722" lon="29.49185">
        <ele>30.305793</ele>
        <time>2021-08-22T18:28:09.072Z</time>
      </trkpt>
      <trkpt lat="41.17226" lon="29.4918">
        <ele>30.100084</ele>
        <time>2021-08-22T18:28:10.796Z</time>
      </trkpt>
      <trkpt lat="41.17246" lon="29.49162">
        <ele>29.46803</ele>
        <time>2021-08-22T18:28:16.415Z</time>
      </trkpt>
      <trkpt lat="41.17269" lon="29.49143">
        <ele>28.723022</ele>
        <time>2021-08-22T18:28:23.005Z</time>
      </trkpt>
      <trkpt lat="41.17281" lon="29.49131">
        <ele>28.338547</ele>
        <time>2021-08-22T18:28:26.284Z</time>
      </trkpt>
      <trkpt lat="41.17395" lon="29.49024">
        <ele>24.460563</ele>
        <time>2021-08-22T18:28:58.760Z</time>
      </trkpt>
      <trkpt lat="41.1742" lon="29.49008">
        <ele>23.709243</ele>
        <time>2021-08-22T18:29:05.088Z</time>
      </trkpt>
      <trkpt lat="41.17462" lon="29.49016">
        <ele>22.881571</ele>
        <time>2021-08-22T18:29:15.301Z</time>
      </trkpt>
      <trkpt lat="41.17483" lon="29.49027">
        <ele>22.530375</ele>
        <time>2021-08-22T18:29:20.730Z</time>
      </trkpt>
      <trkpt lat="41.17656" lon="29.49157">
        <ele>20.647976</ele>
        <time>2021-08-22T18:30:13.700Z</time>
      </trkpt>
      <trkpt lat="41.17674" lon="29.49152">
        <ele>20.67557</ele>
        <time>2021-08-22T18:30:19.459Z</time>
      </trkpt>
      <trkpt lat="41.1771" lon="29.4912">
        <ele>20.742641</ele>
        <time>2021-08-22T18:30:34.001Z</time>
      </trkpt>
      <trkpt lat="41.17915" lon="29.4892">
        <ele>25.411948</ele>
        <time>2021-08-22T18:32:18.830Z</time>
      </trkpt>
      <trkpt lat="41.17941" lon="29.48916">
        <ele>26.50826</ele>
        <time>2021-08-22T18:32:31.411Z</time>
      </trkpt>
      <trkpt lat="41.181" lon="29.48952">
        <ele>34.188195</ele>
        <time>2021-08-22T18:34:08.373Z</time>
      </trkpt>
      <trkpt lat="41.18242" lon="29.48937">
        <ele>43.216906</ele>
        <time>2021-08-22T18:35:49.189Z</time>
      </trkpt>
      <trkpt lat="41.18294" lon="29.48919">
        <ele>44.693098</ele>
        <time>2021-08-22T18:36:21.195Z</time>
      </trkpt>
      <trkpt lat="41.18307" lon="29.48898">
        <ele>45.232948</ele>
        <time>2021-08-22T18:36:33.564Z</time>
      </trkpt>
      <trkpt lat="41.18316" lon="29.48873">
        <ele>45.764353</ele>
        <time>2021-08-22T18:36:42.914Z</time>
      </trkpt>
      <trkpt lat="41.18349" lon="29.48787">
        <ele>47.648296</ele>
        <time>2021-08-22T18:37:10.363Z</time>
      </trkpt>
      <trkpt lat="41.18361" lon="29.4874">
        <ele>47.225003</ele>
        <time>2021-08-22T18:37:20.249Z</time>
      </trkpt>
      <trkpt lat="41.18343" lon="29.48697">
        <ele>45.912883</ele>
        <time>2021-08-22T18:37:28.756Z</time>
      </trkpt>
      <trkpt lat="41.18289" lon="29.48645">
        <ele>43.548769</ele>
        <time>2021-08-22T18:37:43.123Z</time>
      </trkpt>
      <trkpt lat="41.18267" lon="29.48615">
        <ele>42.436341</ele>
        <time>2021-08-22T18:37:49.783Z</time>
      </trkpt>
      <trkpt lat="41.18248" lon="29.48568">
        <ele>41.145286</ele>
        <time>2021-08-22T18:37:58.318Z</time>
      </trkpt>
      <trkpt lat="41.18252" lon="29.48543">
        <ele>40.603711</ele>
        <time>2021-08-22T18:38:02.449Z</time>
      </trkpt>
      <trkpt lat="41.18303" lon="29.48499">
        <ele>38.869389</ele>
        <time>2021-08-22T18:38:16.135Z</time>
      </trkpt>
      <trkpt lat="41.18361" lon="29.48463">
        <ele>37.057978</ele>
        <time>2021-08-22T18:38:31.844Z</time>
      </trkpt>
      <trkpt lat="41.18459" lon="29.4839">
        <ele>36.362512</ele>
        <time>2021-08-22T18:39:06.518Z</time>
      </trkpt>
      <trkpt lat="41.18467" lon="29.48379">
        <ele>36.335292</ele>
        <time>2021-08-22T18:39:10.565Z</time>
      </trkpt>
      <trkpt lat="41.18473" lon="29.48356">
        <ele>36.29496</ele>
        <time>2021-08-22T18:39:16.517Z</time>
      </trkpt>
      <trkpt lat="41.18444" lon="29.48314">
        <ele>36.199626</ele>
        <time>2021-08-22T18:39:29.459Z</time>
      </trkpt>
      <trkpt lat="41.18438" lon="29.48298">
        <ele>36.152501</ele>
        <time>2021-08-22T18:39:33.917Z</time>
      </trkpt>
      <trkpt lat="41.18438" lon="29.48279">
        <ele>35.973073</ele>
        <time>2021-08-22T18:39:38.454Z</time>
      </trkpt>
      <trkpt lat="41.18448" lon="29.48259">
        <ele>35.747867</ele>
        <time>2021-08-22T18:39:43.389Z</time>
      </trkpt>
      <trkpt lat="41.18465" lon="29.48247">
        <ele>35.514037</ele>
        <time>2021-08-22T18:39:48.964Z</time>
      </trkpt>
      <trkpt lat="41.18474" lon="29.4824">
        <ele>35.380158</ele>
        <time>2021-08-22T18:39:51.540Z</time>
      </trkpt>
      <trkpt lat="41.18557" lon="29.48173">
        <ele>34.167862</ele>
        <time>2021-08-22T18:40:17.169Z</time>
      </trkpt>
      <trkpt lat="41.18571" lon="29.48157">
        <ele>33.934763</ele>
        <time>2021-08-22T18:40:21.497Z</time>
      </trkpt>
      <trkpt lat="41.18598" lon="29.48105">
        <ele>32.066769</ele>
        <time>2021-08-22T18:40:32.548Z</time>
      </trkpt>
      <trkpt lat="41.18617" lon="29.48057">
        <ele>30.434189</ele>
        <time>2021-08-22T18:40:42.351Z</time>
      </trkpt>
      <trkpt lat="41.18626" lon="29.48032">
        <ele>29.583975</ele>
        <time>2021-08-22T18:40:46.804Z</time>
      </trkpt>
      <trkpt lat="41.18644" lon="29.47988">
        <ele>28.094478</ele>
        <time>2021-08-22T18:40:54.855Z</time>
      </trkpt>
      <trkpt lat="41.1866" lon="29.47961">
        <ele>27.057146</ele>
        <time>2021-08-22T18:41:00.785Z</time>
      </trkpt>
      <trkpt lat="41.18665" lon="29.4795">
        <ele>26.588132</ele>
        <time>2021-08-22T18:41:02.633Z</time>
      </trkpt>
      <trkpt lat="41.1867" lon="29.47938">
        <ele>25.871714</ele>
        <time>2021-08-22T18:41:04.742Z</time>
      </trkpt>
      <trkpt lat="41.18684" lon="29.47892">
        <ele>23.244364</ele>
        <time>2021-08-22T18:41:12.213Z</time>
      </trkpt>
      <trkpt lat="41.18689" lon="29.4787">
        <ele>22.014766</ele>
        <time>2021-08-22T18:41:15.908Z</time>
      </trkpt>
      <trkpt lat="41.18691" lon="29.47864">
        <ele>21.686639</ele>
        <time>2021-08-22T18:41:16.742Z</time>
      </trkpt>
      <trkpt lat="41.18708" lon="29.47774">
        <ele>16.790634</ele>
        <time>2021-08-22T18:41:30.639Z</time>
      </trkpt>
      <trkpt lat="41.1871" lon="29.47766">
        <ele>16.313202</ele>
        <time>2021-08-22T18:41:31.871Z</time>
      </trkpt>
      <trkpt lat="41.18712" lon="29.47755">
        <ele>15.743342</ele>
        <time>2021-08-22T18:41:33.518Z</time>
      </trkpt>
      <trkpt lat="41.18714" lon="29.47746">
        <ele>15.227091</ele>
        <time>2021-08-22T18:41:35.053Z</time>
      </trkpt>
      <trkpt lat="41.18718" lon="29.47727">
        <ele>14.163406</ele>
        <time>2021-08-22T18:41:38.042Z</time>
      </trkpt>
      <trkpt lat="41.18725" lon="29.47699">
        <ele>13.255555</ele>
        <time>2021-08-22T18:41:42.472Z</time>
      </trkpt>
      <trkpt lat="41.18735" lon="29.47648">
        <ele>11.653992</ele>
        <time>2021-08-22T18:41:50.627Z</time>
      </trkpt>
      <trkpt lat="41.18741" lon="29.47609">
        <ele>10.461052</ele>
        <time>2021-08-22T18:41:56.989Z</time>
      </trkpt>
      <trkpt lat="41.18746" lon="29.47578">
        <ele>9.488725</ele>
        <time>2021-08-22T18:42:02.232Z</time>
      </trkpt>
      <trkpt lat="41.18753" lon="29.47548">
        <ele>8.54532</ele>
        <time>2021-08-22T18:42:07.821Z</time>
      </trkpt>
      <trkpt lat="41.18753" lon="29.47547">
        <ele>8.514068</ele>
        <time>2021-08-22T18:42:07.999Z</time>
      </trkpt>
      <trkpt lat="41.18773" lon="29.47412">
        <ele>7.485155</ele>
        <time>2021-08-22T18:42:38.328Z</time>
      </trkpt>
      <trkpt lat="41.1884" lon="29.47086">
        <ele>11.708812</ele>
        <time>2021-08-22T18:44:25.154Z</time>
      </trkpt>
      <trkpt lat="41.1885" lon="29.47034">
        <ele>12.61701</ele>
        <time>2021-08-22T18:44:43.953Z</time>
      </trkpt>
      <trkpt lat="41.18859" lon="29.46986">
        <ele>13.91552</ele>
        <time>2021-08-22T18:45:02.150Z</time>
      </trkpt>
      <trkpt lat="41.18872" lon="29.46922">
        <ele>15.713717</ele>
        <time>2021-08-22T18:45:27.933Z</time>
      </trkpt>
      <trkpt lat="41.18876" lon="29.46903">
        <ele>16.234518</ele>
        <time>2021-08-22T18:45:35.849Z</time>
      </trkpt>
      <trkpt lat="41.18885" lon="29.4686">
        <ele>17.450981</ele>
        <time>2021-08-22T18:45:54.053Z</time>
      </trkpt>
      <trkpt lat="41.18888" lon="29.46842">
        <ele>17.936003</ele>
        <time>2021-08-22T18:46:01.115Z</time>
      </trkpt>
      <trkpt lat="41.18904" lon="29.46768">
        <ele>19.981978</ele>
        <time>2021-08-22T18:46:31.064Z</time>
      </trkpt>
      <trkpt lat="41.1891" lon="29.46737">
        <ele>20.84177</ele>
        <time>2021-08-22T18:46:44.524Z</time>
      </trkpt>
      <trkpt lat="41.18917" lon="29.46707">
        <ele>21.651807</ele>
        <time>2021-08-22T18:46:57.314Z</time>
      </trkpt>
      <trkpt lat="41.18921" lon="29.46691">
        <ele>22.089361</ele>
        <time>2021-08-22T18:47:04.445Z</time>
      </trkpt>
      <trkpt lat="41.18934" lon="29.46626">
        <ele>23.84231</ele>
        <time>2021-08-22T18:47:30.779Z</time>
      </trkpt>
      <trkpt lat="41.18938" lon="29.46603">
        <ele>24.45684</ele>
        <time>2021-08-22T18:47:39.942Z</time>
      </trkpt>
      <trkpt lat="41.18944" lon="29.46578">
        <ele>25.142421</ele>
        <time>2021-08-22T18:47:49.059Z</time>
      </trkpt>
      <trkpt lat="41.18945" lon="29.46571">
        <ele>25.348205</ele>
        <time>2021-08-22T18:47:51.934Z</time>
      </trkpt>
      <trkpt lat="41.18959" lon="29.46513">
        <ele>25.059295</ele>
        <time>2021-08-22T18:48:10.661Z</time>
      </trkpt>
      <trkpt lat="41.18967" lon="29.46499">
        <ele>24.967968</ele>
        <time>2021-08-22T18:48:15.111Z</time>
      </trkpt>
      <trkpt lat="41.19001" lon="29.46461">
        <ele>24.654531</ele>
        <time>2021-08-22T18:48:27.116Z</time>
      </trkpt>
      <trkpt lat="41.19033" lon="29.4643">
        <ele>24.37724</ele>
        <time>2021-08-22T18:48:37.146Z</time>
      </trkpt>
      <trkpt lat="41.19092" lon="29.46388">
        <ele>23.130651</ele>
        <time>2021-08-22T18:48:52.154Z</time>
      </trkpt>
      <trkpt lat="41.1911" lon="29.46373">
        <ele>22.422171</ele>
        <time>2021-08-22T18:48:57.116Z</time>
      </trkpt>
      <trkpt lat="41.19118" lon="29.46367">
        <ele>22.078014</ele>
        <time>2021-08-22T18:48:59.270Z</time>
      </trkpt>
      <trkpt lat="41.19122" lon="29.46364">
        <ele>21.941948</ele>
        <time>2021-08-22T18:49:00.019Z</time>
      </trkpt>
      <trkpt lat="41.19162" lon="29.46323">
        <ele>20.230844</ele>
        <time>2021-08-22T18:49:11.277Z</time>
      </trkpt>
      <trkpt lat="41.19186" lon="29.46292">
        <ele>19.092173</ele>
        <time>2021-08-22T18:49:18.652Z</time>
      </trkpt>
      <trkpt lat="41.19192" lon="29.46268">
        <ele>18.459255</ele>
        <time>2021-08-22T18:49:23.057Z</time>
      </trkpt>
      <trkpt lat="41.19194" lon="29.46245">
        <ele>17.992244</ele>
        <time>2021-08-22T18:49:26.999Z</time>
      </trkpt>
      <trkpt lat="41.19189" lon="29.46197">
        <ele>17.928093</ele>
        <time>2021-08-22T18:49:36.012Z</time>
      </trkpt>
      <trkpt lat="41.19182" lon="29.46138">
        <ele>17.850233</ele>
        <time>2021-08-22T18:49:50.219Z</time>
      </trkpt>
      <trkpt lat="41.1916" lon="29.45955">
        <ele>17.536255</ele>
        <time>2021-08-22T18:50:42.580Z</time>
      </trkpt>
      <trkpt lat="41.19139" lon="29.45785">
        <ele>17.105151</ele>
        <time>2021-08-22T18:51:19.609Z</time>
      </trkpt>
      <trkpt lat="41.19124" lon="29.45662">
        <ele>15.369011</ele>
        <time>2021-08-22T18:51:42.547Z</time>
      </trkpt>
      <trkpt lat="41.19121" lon="29.4564">
        <ele>15.042868</ele>
        <time>2021-08-22T18:51:46.736Z</time>
      </trkpt>
      <trkpt lat="41.19108" lon="29.45538">
        <ele>13.591337</ele>
        <time>2021-08-22T18:52:05.380Z</time>
      </trkpt>
      <trkpt lat="41.19104" lon="29.45505">
        <ele>13.469179</ele>
        <time>2021-08-22T18:52:11.678Z</time>
      </trkpt>
      <trkpt lat="41.19098" lon="29.4546">
        <ele>13.300775</ele>
        <time>2021-08-22T18:52:20.808Z</time>
      </trkpt>
      <trkpt lat="41.19089" lon="29.45404">
        <ele>13.088741</ele>
        <time>2021-08-22T18:52:32.779Z</time>
      </trkpt>
      <trkpt lat="41.19085" lon="29.45375">
        <ele>12.981998</ele>
        <time>2021-08-22T18:52:38.940Z</time>
      </trkpt>
      <trkpt lat="41.19079" lon="29.4529">
        <ele>13.038226</ele>
        <time>2021-08-22T18:53:01.272Z</time>
      </trkpt>
      <trkpt lat="41.19076" lon="29.45194">
        <ele>14.82754</ele>
        <time>2021-08-22T18:53:35.289Z</time>
      </trkpt>
      <trkpt lat="41.19075" lon="29.4515">
        <ele>15.651377</ele>
        <time>2021-08-22T18:53:51.857Z</time>
      </trkpt>
      <trkpt lat="41.19074" lon="29.45089">
        <ele>16.7904</ele>
        <time>2021-08-22T18:54:14.757Z</time>
      </trkpt>
      <trkpt lat="41.19074" lon="29.45036">
        <ele>17.449635</ele>
        <time>2021-08-22T18:54:34.321Z</time>
      </trkpt>
      <trkpt lat="41.19061" lon="29.44688">
        <ele>18.606449</ele>
        <time>2021-08-22T18:56:04.120Z</time>
      </trkpt>
      <trkpt lat="41.19054" lon="29.44663">
        <ele>18.506796</ele>
        <time>2021-08-22T18:56:09.119Z</time>
      </trkpt>
      <trkpt lat="41.19048" lon="29.44652">
        <ele>18.45362</ele>
        <time>2021-08-22T18:56:12.108Z</time>
      </trkpt>
      <trkpt lat="41.1901" lon="29.44564">
        <ele>17.792875</ele>
        <time>2021-08-22T18:56:30.594Z</time>
      </trkpt>
      <trkpt lat="41.19006" lon="29.44545">
        <ele>17.589454</ele>
        <time>2021-08-22T18:56:34.025Z</time>
      </trkpt>
      <trkpt lat="41.19005" lon="29.44528">
        <ele>17.419994</ele>
        <time>2021-08-22T18:56:37.373Z</time>
      </trkpt>
      <trkpt lat="41.19009" lon="29.44515">
        <ele>17.271551</ele>
        <time>2021-08-22T18:56:39.796Z</time>
      </trkpt>
      <trkpt lat="41.19028" lon="29.44492">
        <ele>16.93304</ele>
        <time>2021-08-22T18:56:46.242Z</time>
      </trkpt>
      <trkpt lat="41.19073" lon="29.44459">
        <ele>16.232759</ele>
        <time>2021-08-22T18:56:59.919Z</time>
      </trkpt>
      <trkpt lat="41.19126" lon="29.44421">
        <ele>16.585765</ele>
        <time>2021-08-22T18:57:17.791Z</time>
      </trkpt>
      <trkpt lat="41.19191" lon="29.44372">
        <ele>18.63356</ele>
        <time>2021-08-22T18:57:48.708Z</time>
      </trkpt>
      <trkpt lat="41.19219" lon="29.44336">
        <ele>19.683303</ele>
        <time>2021-08-22T18:58:09.583Z</time>
      </trkpt>
      <trkpt lat="41.19237" lon="29.4429">
        <ele>20.807074</ele>
        <time>2021-08-22T18:58:33.700Z</time>
      </trkpt>
      <trkpt lat="41.19244" lon="29.44268">
        <ele>21.957455</ele>
        <time>2021-08-22T18:58:45.614Z</time>
      </trkpt>
      <trkpt lat="41.19247" lon="29.44256">
        <ele>22.57673</ele>
        <time>2021-08-22T18:58:52.503Z</time>
      </trkpt>
      <trkpt lat="41.19263" lon="29.44202">
        <ele>25.360599</ele>
        <time>2021-08-22T18:59:20.065Z</time>
      </trkpt>
      <trkpt lat="41.19268" lon="29.4418">
        <ele>26.500699</ele>
        <time>2021-08-22T18:59:32.840Z</time>
      </trkpt>
      <trkpt lat="41.19276" lon="29.4415">
        <ele>28.038183</ele>
        <time>2021-08-22T18:59:49.675Z</time>
      </trkpt>
      <trkpt lat="41.19316" lon="29.44012">
        <ele>34.703761</ele>
        <time>2021-08-22T19:01:06.889Z</time>
      </trkpt>
      <trkpt lat="41.19321" lon="29.43995">
        <ele>35.471398</ele>
        <time>2021-08-22T19:01:17.366Z</time>
      </trkpt>
      <trkpt lat="41.19325" lon="29.4398">
        <ele>36.093075</ele>
        <time>2021-08-22T19:01:24.044Z</time>
      </trkpt>
      <trkpt lat="41.19331" lon="29.43958">
        <ele>37.033157</ele>
        <time>2021-08-22T19:01:34.803Z</time>
      </trkpt>
      <trkpt lat="41.19341" lon="29.43921">
        <ele>38.632809</ele>
        <time>2021-08-22T19:01:50.968Z</time>
      </trkpt>
      <trkpt lat="41.19343" lon="29.43906">
        <ele>39.263996</ele>
        <time>2021-08-22T19:01:59.431Z</time>
      </trkpt>
      <trkpt lat="41.19348" lon="29.43863">
        <ele>41.030191</ele>
        <time>2021-08-22T19:02:17.972Z</time>
      </trkpt>
      <trkpt lat="41.19356" lon="29.43779">
        <ele>42.987278</ele>
        <time>2021-08-22T19:02:51.450Z</time>
      </trkpt>
      <trkpt lat="41.19356" lon="29.43751">
        <ele>43.452305</ele>
        <time>2021-08-22T19:03:02.082Z</time>
      </trkpt>
      <trkpt lat="41.19356" lon="29.43734">
        <ele>43.727691</ele>
        <time>2021-08-22T19:03:07.277Z</time>
      </trkpt>
      <trkpt lat="41.19356" lon="29.43721">
        <ele>43.953616</ele>
        <time>2021-08-22T19:03:12.889Z</time>
      </trkpt>
      <trkpt lat="41.19372" lon="29.43453">
        <ele>44.588244</ele>
        <time>2021-08-22T19:04:23.476Z</time>
      </trkpt>
      <trkpt lat="41.19387" lon="29.43418">
        <ele>44.235372</ele>
        <time>2021-08-22T19:04:30.299Z</time>
      </trkpt>
      <trkpt lat="41.19393" lon="29.43405">
        <ele>44.100796</ele>
        <time>2021-08-22T19:04:32.980Z</time>
      </trkpt>
      <trkpt lat="41.19416" lon="29.43362">
        <ele>42.861979</ele>
        <time>2021-08-22T19:04:41.857Z</time>
      </trkpt>
      <trkpt lat="41.19423" lon="29.43349">
        <ele>42.021137</ele>
        <time>2021-08-22T19:04:44.586Z</time>
      </trkpt>
      <trkpt lat="41.19427" lon="29.43343">
        <ele>41.604766</ele>
        <time>2021-08-22T19:04:45.728Z</time>
      </trkpt>
      <trkpt lat="41.19533" lon="29.43164">
        <ele>29.795368</ele>
        <time>2021-08-22T19:05:19.588Z</time>
      </trkpt>
      <trkpt lat="41.19541" lon="29.43154">
        <ele>29.040227</ele>
        <time>2021-08-22T19:05:21.779Z</time>
      </trkpt>
      <trkpt lat="41.19552" lon="29.43131">
        <ele>27.693247</ele>
        <time>2021-08-22T19:05:25.842Z</time>
      </trkpt>
      <trkpt lat="41.19597" lon="29.4305">
        <ele>22.666168</ele>
        <time>2021-08-22T19:05:40.934Z</time>
      </trkpt>
      <trkpt lat="41.1961" lon="29.42995">
        <ele>19.751771</ele>
        <time>2021-08-22T19:05:49.962Z</time>
      </trkpt>
      <trkpt lat="41.19615" lon="29.42949">
        <ele>18.568307</ele>
        <time>2021-08-22T19:05:57.553Z</time>
      </trkpt>
      <trkpt lat="41.19617" lon="29.4292">
        <ele>17.991756</ele>
        <time>2021-08-22T19:06:02.391Z</time>
      </trkpt>
      <trkpt lat="41.19622" lon="29.4285">
        <ele>16.547344</ele>
        <time>2021-08-22T19:06:15.824Z</time>
      </trkpt>
      <trkpt lat="41.19631" lon="29.42703">
        <ele>13.719127</ele>
        <time>2021-08-22T19:06:43.410Z</time>
      </trkpt>
      <trkpt lat="41.19642" lon="29.42658">
        <ele>12.931739</ele>
        <time>2021-08-22T19:06:52.742Z</time>
      </trkpt>
      <trkpt lat="41.19656" lon="29.42631">
        <ele>12.386416</ele>
        <time>2021-08-22T19:06:58.875Z</time>
      </trkpt>
      <trkpt lat="41.19671" lon="29.42605">
        <ele>11.824346</ele>
        <time>2021-08-22T19:07:04.830Z</time>
      </trkpt>
      <trkpt lat="41.19694" lon="29.42567">
        <ele>11.006068</ele>
        <time>2021-08-22T19:07:13.440Z</time>
      </trkpt>
      <trkpt lat="41.19702" lon="29.42553">
        <ele>10.720357</ele>
        <time>2021-08-22T19:07:16.468Z</time>
      </trkpt>
      <trkpt lat="41.19708" lon="29.42543">
        <ele>10.493647</ele>
        <time>2021-08-22T19:07:18.814Z</time>
      </trkpt>
      <trkpt lat="41.19731" lon="29.42504">
        <ele>9.594759</ele>
        <time>2021-08-22T19:07:27.384Z</time>
      </trkpt>
      <trkpt lat="41.19752" lon="29.42468">
        <ele>8.778004</ele>
        <time>2021-08-22T19:07:35.149Z</time>
      </trkpt>
      <trkpt lat="41.19761" lon="29.42454">
        <ele>8.442872</ele>
        <time>2021-08-22T19:07:38.269Z</time>
      </trkpt>
      <trkpt lat="41.19793" lon="29.424">
        <ele>7.18195</ele>
        <time>2021-08-22T19:07:50.841Z</time>
      </trkpt>
      <trkpt lat="41.1988" lon="29.42251">
        <ele>5.37227</ele>
        <time>2021-08-22T19:08:27.497Z</time>
      </trkpt>
      <trkpt lat="41.19887" lon="29.42216">
        <ele>5.155519</ele>
        <time>2021-08-22T19:08:36.002Z</time>
      </trkpt>
      <trkpt lat="41.1989" lon="29.42086">
        <ele>5.155921</ele>
        <time>2021-08-22T19:09:07.004Z</time>
      </trkpt>
      <trkpt lat="41.19891" lon="29.42083">
        <ele>5.178514</ele>
        <time>2021-08-22T19:09:08.204Z</time>
      </trkpt>
      <trkpt lat="41.19894" lon="29.42075">
        <ele>5.238641</ele>
        <time>2021-08-22T19:09:10.261Z</time>
      </trkpt>
      <trkpt lat="41.19932" lon="29.41986">
        <ele>5.97723</ele>
        <time>2021-08-22T19:09:38.664Z</time>
      </trkpt>
      <trkpt lat="41.1996" lon="29.41921">
        <ele>6.607045</ele>
        <time>2021-08-22T19:10:00.844Z</time>
      </trkpt>
      <trkpt lat="41.19966" lon="29.41909">
        <ele>6.854605</ele>
        <time>2021-08-22T19:10:05.244Z</time>
      </trkpt>
      <trkpt lat="41.19974" lon="29.41889">
        <ele>7.242859</ele>
        <time>2021-08-22T19:10:12.921Z</time>
      </trkpt>
      <trkpt lat="41.20022" lon="29.41776">
        <ele>9.491113</ele>
        <time>2021-08-22T19:10:54.606Z</time>
      </trkpt>
      <trkpt lat="41.20024" lon="29.41771">
        <ele>9.582912</ele>
        <time>2021-08-22T19:10:57.238Z</time>
      </trkpt>
      <trkpt lat="41.20051" lon="29.41707">
        <ele>11.069768</ele>
        <time>2021-08-22T19:11:23.128Z</time>
      </trkpt>
      <trkpt lat="41.20088" lon="29.41619">
        <ele>14.087112</ele>
        <time>2021-08-22T19:12:01.683Z</time>
      </trkpt>
      <trkpt lat="41.20098" lon="29.41597">
        <ele>14.847336</ele>
        <time>2021-08-22T19:12:12.638Z</time>
      </trkpt>
      <trkpt lat="41.20126" lon="29.41533">
        <ele>17.097556</ele>
        <time>2021-08-22T19:12:44.206Z</time>
      </trkpt>
      <trkpt lat="41.20133" lon="29.41517">
        <ele>17.632094</ele>
        <time>2021-08-22T19:12:52.422Z</time>
      </trkpt>
      <trkpt lat="41.20147" lon="29.41485">
        <ele>18.962645</ele>
        <time>2021-08-22T19:13:08.867Z</time>
      </trkpt>
      <trkpt lat="41.2017" lon="29.41431">
        <ele>21.217454</ele>
        <time>2021-08-22T19:13:36.455Z</time>
      </trkpt>
      <trkpt lat="41.20205" lon="29.41353">
        <ele>24.56367</ele>
        <time>2021-08-22T19:14:17.009Z</time>
      </trkpt>
      <trkpt lat="41.20213" lon="29.41333">
        <ele>25.375152</ele>
        <time>2021-08-22T19:14:26.863Z</time>
      </trkpt>
      <trkpt lat="41.20234" lon="29.41287">
        <ele>27.275588</ele>
        <time>2021-08-22T19:14:49.165Z</time>
      </trkpt>
      <trkpt lat="41.20243" lon="29.4127">
        <ele>27.958252</ele>
        <time>2021-08-22T19:14:57.749Z</time>
      </trkpt>
      <trkpt lat="41.20248" lon="29.41261">
        <ele>28.341066</ele>
        <time>2021-08-22T19:15:03.482Z</time>
      </trkpt>
      <trkpt lat="41.20275" lon="29.41198">
        <ele>30.786175</ele>
        <time>2021-08-22T19:15:34.636Z</time>
      </trkpt>
      <trkpt lat="41.20302" lon="29.41135">
        <ele>33.191765</ele>
        <time>2021-08-22T19:16:04.418Z</time>
      </trkpt>
      <trkpt lat="41.20312" lon="29.4111">
        <ele>34.167455</ele>
        <time>2021-08-22T19:16:15.686Z</time>
      </trkpt>
      <trkpt lat="41.20308" lon="29.4108">
        <ele>35.143023</ele>
        <time>2021-08-22T19:16:29.477Z</time>
      </trkpt>
      <trkpt lat="41.20304" lon="29.41051">
        <ele>36.056248</ele>
        <time>2021-08-22T19:16:41.293Z</time>
      </trkpt>
      <trkpt lat="41.20308" lon="29.41024">
        <ele>36.900701</ele>
        <time>2021-08-22T19:16:52.903Z</time>
      </trkpt>
      <trkpt lat="41.20321" lon="29.40984">
        <ele>38.250227</ele>
        <time>2021-08-22T19:17:12.349Z</time>
      </trkpt>
      <trkpt lat="41.20345" lon="29.40876">
        <ele>41.752343</ele>
        <time>2021-08-22T19:18:00.220Z</time>
      </trkpt>
      <trkpt lat="41.20348" lon="29.40847">
        <ele>42.317622</ele>
        <time>2021-08-22T19:18:10.975Z</time>
      </trkpt>
      <trkpt lat="41.20347" lon="29.4082">
        <ele>42.757199</ele>
        <time>2021-08-22T19:18:21.162Z</time>
      </trkpt>
      <trkpt lat="41.20337" lon="29.40817">
        <ele>42.987839</ele>
        <time>2021-08-22T19:18:25.817Z</time>
      </trkpt>
      <trkpt lat="41.20325" lon="29.40727">
        <ele>44.511488</ele>
        <time>2021-08-22T19:18:56.691Z</time>
      </trkpt>
      <trkpt lat="41.20321" lon="29.40722">
        <ele>44.62835</ele>
        <time>2021-08-22T19:18:58.822Z</time>
      </trkpt>
      <trkpt lat="41.20303" lon="29.40697">
        <ele>45.214889</ele>
        <time>2021-08-22T19:19:10.133Z</time>
      </trkpt>
      <trkpt lat="41.20291" lon="29.40665">
        <ele>45.801446</ele>
        <time>2021-08-22T19:19:20.657Z</time>
      </trkpt>
      <trkpt lat="41.20288" lon="29.4062">
        <ele>45.538082</ele>
        <time>2021-08-22T19:19:31.785Z</time>
      </trkpt>
      <trkpt lat="41.20293" lon="29.4051">
        <ele>44.562727</ele>
        <time>2021-08-22T19:19:54.335Z</time>
      </trkpt>
      <trkpt lat="41.20295" lon="29.4048">
        <ele>44.298748</ele>
        <time>2021-08-22T19:20:00.115Z</time>
      </trkpt>
      <trkpt lat="41.20295" lon="29.4046">
        <ele>44.12599</ele>
        <time>2021-08-22T19:20:03.541Z</time>
      </trkpt>
      <trkpt lat="41.20289" lon="29.40372">
        <ele>42.354304</ele>
        <time>2021-08-22T19:20:19.125Z</time>
      </trkpt>
      <trkpt lat="41.20225" lon="29.4015">
        <ele>35.496525</ele>
        <time>2021-08-22T19:20:58.258Z</time>
      </trkpt>
      <trkpt lat="41.2022" lon="29.40128">
        <ele>34.815355</ele>
        <time>2021-08-22T19:21:01.957Z</time>
      </trkpt>
      <trkpt lat="41.20221" lon="29.40058">
        <ele>32.744271</ele>
        <time>2021-08-22T19:21:13.753Z</time>
      </trkpt>
      <trkpt lat="41.20263" lon="29.39857">
        <ele>26.099431</ele>
        <time>2021-08-22T19:21:48.208Z</time>
      </trkpt>
      <trkpt lat="41.20282" lon="29.39823">
        <ele>24.649658</ele>
        <time>2021-08-22T19:21:55.077Z</time>
      </trkpt>
      <trkpt lat="41.20335" lon="29.39759">
        <ele>21.549997</ele>
        <time>2021-08-22T19:22:10.128Z</time>
      </trkpt>
      <trkpt lat="41.20348" lon="29.39729">
        <ele>20.859606</ele>
        <time>2021-08-22T19:22:15.899Z</time>
      </trkpt>
      <trkpt lat="41.20354" lon="29.39701">
        <ele>20.302874</ele>
        <time>2021-08-22T19:22:20.678Z</time>
      </trkpt>
      <trkpt lat="41.20349" lon="29.39674">
        <ele>19.748415</ele>
        <time>2021-08-22T19:22:25.316Z</time>
      </trkpt>
      <trkpt lat="41.20341" lon="29.39655">
        <ele>19.315939</ele>
        <time>2021-08-22T19:22:29.317Z</time>
      </trkpt>
      <trkpt lat="41.20323" lon="29.39639">
        <ele>18.76853</ele>
        <time>2021-08-22T19:22:34.075Z</time>
      </trkpt>
      <trkpt lat="41.2029" lon="29.39621">
        <ele>17.819904</ele>
        <time>2021-08-22T19:22:43.121Z</time>
      </trkpt>
      <trkpt lat="41.20179" lon="29.39488">
        <ele>17.614691</ele>
        <time>2021-08-22T19:23:32.848Z</time>
      </trkpt>
      <trkpt lat="41.2008" lon="29.39326">
        <ele>19.168718</ele>
        <time>2021-08-22T19:24:31.490Z</time>
      </trkpt>
      <trkpt lat="41.19997" lon="29.39173">
        <ele>22.014499</ele>
        <time>2021-08-22T19:25:27.414Z</time>
      </trkpt>
      <trkpt lat="41.19986" lon="29.39147">
        <ele>22.691668</ele>
        <time>2021-08-22T19:25:37.659Z</time>
      </trkpt>
      <trkpt lat="41.19985" lon="29.39115">
        <ele>23.410289</ele>
        <time>2021-08-22T19:25:48.669Z</time>
      </trkpt>
      <trkpt lat="41.19987" lon="29.39095">
        <ele>23.864257</ele>
        <time>2021-08-22T19:25:56.228Z</time>
      </trkpt>
      <trkpt lat="41.20099" lon="29.38195">
        <ele>54.930794</ele>
        <time>2021-08-22T19:32:31.949Z</time>
      </trkpt>
      <trkpt lat="41.20119" lon="29.38099">
        <ele>58.23863</ele>
        <time>2021-08-22T19:33:14.097Z</time>
      </trkpt>
      <trkpt lat="41.20235" lon="29.37738">
        <ele>68.481581</ele>
        <time>2021-08-22T19:35:45.356Z</time>
      </trkpt>
      <trkpt lat="41.20243" lon="29.37687">
        <ele>69.650338</ele>
        <time>2021-08-22T19:36:02.784Z</time>
      </trkpt>
      <trkpt lat="41.20232" lon="29.37528">
        <ele>72.676256</ele>
        <time>2021-08-22T19:36:54.958Z</time>
      </trkpt>
      <trkpt lat="41.20212" lon="29.37451">
        <ele>74.075643</ele>
        <time>2021-08-22T19:37:21.713Z</time>
      </trkpt>
      <trkpt lat="41.20197" lon="29.37424">
        <ele>74.652286</ele>
        <time>2021-08-22T19:37:33.051Z</time>
      </trkpt>
      <trkpt lat="41.20179" lon="29.37404">
        <ele>75.194527</ele>
        <time>2021-08-22T19:37:43.732Z</time>
      </trkpt>
      <trkpt lat="41.1993" lon="29.37281">
        <ele>80.384302</ele>
        <time>2021-08-22T19:39:42.300Z</time>
      </trkpt>
      <trkpt lat="41.19931" lon="29.37271">
        <ele>80.475327</ele>
        <time>2021-08-22T19:39:45.329Z</time>
      </trkpt>
      <trkpt lat="41.19981" lon="29.37249">
        <ele>81.053141</ele>
        <time>2021-08-22T19:40:02.539Z</time>
      </trkpt>
      <trkpt lat="41.20052" lon="29.37187">
        <ele>79.918986</ele>
        <time>2021-08-22T19:40:25.197Z</time>
      </trkpt>
      <trkpt lat="41.20082" lon="29.37168">
        <ele>79.132781</ele>
        <time>2021-08-22T19:40:33.010Z</time>
      </trkpt>
      <trkpt lat="41.20291" lon="29.37111">
        <ele>72.322635</ele>
        <time>2021-08-22T19:41:20.953Z</time>
      </trkpt>
      <trkpt lat="41.20399" lon="29.37072">
        <ele>67.837505</ele>
        <time>2021-08-22T19:41:45.407Z</time>
      </trkpt>
      <trkpt lat="41.20416" lon="29.37068">
        <ele>67.132677</ele>
        <time>2021-08-22T19:41:48.990Z</time>
      </trkpt>
      <trkpt lat="41.20492" lon="29.37073">
        <ele>63.885886</ele>
        <time>2021-08-22T19:42:05.505Z</time>
      </trkpt>
      <trkpt lat="41.20543" lon="29.37064">
        <ele>61.703625</ele>
        <time>2021-08-22T19:42:16.812Z</time>
      </trkpt>
      <trkpt lat="41.20612" lon="29.37073">
        <ele>58.842254</ele>
        <time>2021-08-22T19:42:31.681Z</time>
      </trkpt>
      <trkpt lat="41.20647" lon="29.37066">
        <ele>57.394371</ele>
        <time>2021-08-22T19:42:39.285Z</time>
      </trkpt>
      <trkpt lat="41.20709" lon="29.3704">
        <ele>54.854469</ele>
        <time>2021-08-22T19:42:53.822Z</time>
      </trkpt>
      <trkpt lat="41.20723" lon="29.37033">
        <ele>54.43524</ele>
        <time>2021-08-22T19:42:57.020Z</time>
      </trkpt>
      <trkpt lat="41.20737" lon="29.37025">
        <ele>54.001187</ele>
        <time>2021-08-22T19:43:00.597Z</time>
      </trkpt>
      <trkpt lat="41.20882" lon="29.3695">
        <ele>49.634511</ele>
        <time>2021-08-22T19:43:37.274Z</time>
      </trkpt>
      <trkpt lat="41.20929" lon="29.36913">
        <ele>48.258156</ele>
        <time>2021-08-22T19:43:50.814Z</time>
      </trkpt>
      <trkpt lat="41.20949" lon="29.36879">
        <ele>47.457184</ele>
        <time>2021-08-22T19:43:58.549Z</time>
      </trkpt>
      <trkpt lat="41.20973" lon="29.36786">
        <ele>45.59803</ele>
        <time>2021-08-22T19:44:16.019Z</time>
      </trkpt>
      <trkpt lat="41.20972" lon="29.36768">
        <ele>45.028223</ele>
        <time>2021-08-22T19:44:19.153Z</time>
      </trkpt>
      <trkpt lat="41.20977" lon="29.36747">
        <ele>44.338205</ele>
        <time>2021-08-22T19:44:22.985Z</time>
      </trkpt>
      <trkpt lat="41.20975" lon="29.36713">
        <ele>43.271764</ele>
        <time>2021-08-22T19:44:28.747Z</time>
      </trkpt>
      <trkpt lat="41.20968" lon="29.367">
        <ele>42.755927</ele>
        <time>2021-08-22T19:44:31.572Z</time>
      </trkpt>
      <trkpt lat="41.20893" lon="29.36648">
        <ele>39.19904</ele>
        <time>2021-08-22T19:44:49.832Z</time>
      </trkpt>
      <trkpt lat="41.20885" lon="29.36635">
        <ele>38.682674</ele>
        <time>2021-08-22T19:44:52.308Z</time>
      </trkpt>
      <trkpt lat="41.20881" lon="29.36619">
        <ele>38.155708</ele>
        <time>2021-08-22T19:44:55.042Z</time>
      </trkpt>
      <trkpt lat="41.20891" lon="29.36513">
        <ele>33.897806</ele>
        <time>2021-08-22T19:45:11.946Z</time>
      </trkpt>
      <trkpt lat="41.20882" lon="29.36499">
        <ele>33.140726</ele>
        <time>2021-08-22T19:45:14.803Z</time>
      </trkpt>
      <trkpt lat="41.20869" lon="29.3647">
        <ele>31.794491</ele>
        <time>2021-08-22T19:45:20.166Z</time>
      </trkpt>
      <trkpt lat="41.20849" lon="29.36402">
        <ele>28.847779</ele>
        <time>2021-08-22T19:45:31.702Z</time>
      </trkpt>
      <trkpt lat="41.20842" lon="29.3634">
        <ele>26.662384</ele>
        <time>2021-08-22T19:45:41.549Z</time>
      </trkpt>
      <trkpt lat="41.20848" lon="29.36277">
        <ele>24.481117</ele>
        <time>2021-08-22T19:45:51.661Z</time>
      </trkpt>
      <trkpt lat="41.20874" lon="29.36133">
        <ele>19.49025</ele>
        <time>2021-08-22T19:46:16.449Z</time>
      </trkpt>
      <trkpt lat="41.20883" lon="29.36053">
        <ele>17.101092</ele>
        <time>2021-08-22T19:46:29.484Z</time>
      </trkpt>
      <trkpt lat="41.20885" lon="29.35955">
        <ele>14.164153</ele>
        <time>2021-08-22T19:46:45.561Z</time>
      </trkpt>
      <trkpt lat="41.20873" lon="29.35897">
        <ele>12.956254</ele>
        <time>2021-08-22T19:46:56.042Z</time>
      </trkpt>
      <trkpt lat="41.20863" lon="29.3589">
        <ele>12.864421</ele>
        <time>2021-08-22T19:46:58.442Z</time>
      </trkpt>
      <trkpt lat="41.20862" lon="29.35877">
        <ele>12.778342</ele>
        <time>2021-08-22T19:47:00.764Z</time>
      </trkpt>
      <trkpt lat="41.20871" lon="29.35784">
        <ele>12.171831</ele>
        <time>2021-08-22T19:47:19.101Z</time>
      </trkpt>
      <trkpt lat="41.20871" lon="29.35767">
        <ele>12.059966</ele>
        <time>2021-08-22T19:47:23.026Z</time>
      </trkpt>
      <trkpt lat="41.20873" lon="29.3575">
        <ele>11.947793</ele>
        <time>2021-08-22T19:47:27.268Z</time>
      </trkpt>
      <trkpt lat="41.2089" lon="29.35698">
        <ele>11.58314</ele>
        <time>2021-08-22T19:47:42.294Z</time>
      </trkpt>
      <trkpt lat="41.20921" lon="29.35639">
        <ele>13.605906</ele>
        <time>2021-08-22T19:48:07.999Z</time>
      </trkpt>
      <trkpt lat="41.20939" lon="29.35619">
        <ele>14.518022</ele>
        <time>2021-08-22T19:48:21.292Z</time>
      </trkpt>
      <trkpt lat="41.20958" lon="29.35609">
        <ele>15.304258</ele>
        <time>2021-08-22T19:48:32.786Z</time>
      </trkpt>
      <trkpt lat="41.20973" lon="29.35589">
        <ele>16.114547</ele>
        <time>2021-08-22T19:48:45.152Z</time>
      </trkpt>
      <trkpt lat="41.20977" lon="29.35561">
        <ele>16.934911</ele>
        <time>2021-08-22T19:48:57.586Z</time>
      </trkpt>
      <trkpt lat="41.20976" lon="29.35534">
        <ele>17.719195</ele>
        <time>2021-08-22T19:49:09.477Z</time>
      </trkpt>
      <trkpt lat="41.20962" lon="29.35477">
        <ele>19.289314</ele>
        <time>2021-08-22T19:49:35.725Z</time>
      </trkpt>
      <trkpt lat="41.20945" lon="29.35429">
        <ele>20.553443</ele>
        <time>2021-08-22T19:49:58.288Z</time>
      </trkpt>
      <trkpt lat="41.20922" lon="29.35386">
        <ele>21.837394</ele>
        <time>2021-08-22T19:50:19.596Z</time>
      </trkpt>
      <trkpt lat="41.20844" lon="29.35277">
        <ele>23.751714</ele>
        <time>2021-08-22T19:51:07.010Z</time>
      </trkpt>
      <trkpt lat="41.20693" lon="29.35113">
        <ele>20.081791</ele>
        <time>2021-08-22T19:51:54.028Z</time>
      </trkpt>
      <trkpt lat="41.2067" lon="29.35092">
        <ele>19.12468</ele>
        <time>2021-08-22T19:51:59.967Z</time>
      </trkpt>
      <trkpt lat="41.20641" lon="29.35076">
        <ele>18.011642</ele>
        <time>2021-08-22T19:52:06.818Z</time>
      </trkpt>
      <trkpt lat="41.20631" lon="29.35073">
        <ele>17.639368</ele>
        <time>2021-08-22T19:52:09.090Z</time>
      </trkpt>
      <trkpt lat="41.20627" lon="29.35061">
        <ele>17.297957</ele>
        <time>2021-08-22T19:52:11.021Z</time>
      </trkpt>
      <trkpt lat="41.20632" lon="29.35002">
        <ele>15.72031</ele>
        <time>2021-08-22T19:52:20.991Z</time>
      </trkpt>
      <trkpt lat="41.20652" lon="29.3494">
        <ele>15.059695</ele>
        <time>2021-08-22T19:52:32.527Z</time>
      </trkpt>
      <trkpt lat="41.20716" lon="29.34847">
        <ele>13.935243</ele>
        <time>2021-08-22T19:52:57.135Z</time>
      </trkpt>
      <trkpt lat="41.20727" lon="29.34841">
        <ele>13.79702</ele>
        <time>2021-08-22T19:53:01.590Z</time>
      </trkpt>
      <trkpt lat="41.20749" lon="29.34847">
        <ele>13.53185</ele>
        <time>2021-08-22T19:53:10.508Z</time>
      </trkpt>
      <trkpt lat="41.2079" lon="29.34877">
        <ele>15.312716</ele>
        <time>2021-08-22T19:53:31.404Z</time>
      </trkpt>
      <trkpt lat="41.20869" lon="29.34922">
        <ele>18.853267</ele>
        <time>2021-08-22T19:54:18.390Z</time>
      </trkpt>
      <trkpt lat="41.20927" lon="29.3497">
        <ele>22.313168</ele>
        <time>2021-08-22T19:55:02.213Z</time>
      </trkpt>
      <trkpt lat="41.20972" lon="29.35022">
        <ele>26.738983</ele>
        <time>2021-08-22T19:55:45.336Z</time>
      </trkpt>
      <trkpt lat="41.20994" lon="29.35038">
        <ele>28.623645</ele>
        <time>2021-08-22T19:56:05.743Z</time>
      </trkpt>
      <trkpt lat="41.21015" lon="29.35035">
        <ele>30.218772</ele>
        <time>2021-08-22T19:56:23.179Z</time>
      </trkpt>
      <trkpt lat="41.21072" lon="29.34997">
        <ele>34.912687</ele>
        <time>2021-08-22T19:57:09.204Z</time>
      </trkpt>
      <trkpt lat="41.21075" lon="29.34993">
        <ele>35.204977</ele>
        <time>2021-08-22T19:57:15.106Z</time>
      </trkpt>
      <trkpt lat="41.21093" lon="29.34977">
        <ele>36.573161</ele>
        <time>2021-08-22T19:57:29.161Z</time>
      </trkpt>
      <trkpt lat="41.211" lon="29.3492">
        <ele>39.434535</ele>
        <time>2021-08-22T19:58:00.208Z</time>
      </trkpt>
      <trkpt lat="41.21099" lon="29.34872">
        <ele>41.778482</ele>
        <time>2021-08-22T19:58:25.838Z</time>
      </trkpt>
      <trkpt lat="41.21023" lon="29.34689">
        <ele>49.947323</ele>
        <time>2021-08-22T20:00:00.731Z</time>
      </trkpt>
      <trkpt lat="41.21003" lon="29.34608">
        <ele>52.657536</ele>
        <time>2021-08-22T20:00:32.438Z</time>
      </trkpt>
      <trkpt lat="41.21006" lon="29.34533">
        <ele>54.393575</ele>
        <time>2021-08-22T20:00:59.744Z</time>
      </trkpt>
      <trkpt lat="41.2102" lon="29.34508">
        <ele>54.909655</ele>
        <time>2021-08-22T20:01:10.618Z</time>
      </trkpt>
      <trkpt lat="41.21074" lon="29.3445">
        <ele>56.467395</ele>
        <time>2021-08-22T20:01:41.221Z</time>
      </trkpt>
      <trkpt lat="41.21083" lon="29.34439">
        <ele>56.752909</ele>
        <time>2021-08-22T20:01:46.482Z</time>
      </trkpt>
      <trkpt lat="41.21092" lon="29.34426">
        <ele>57.035814</ele>
        <time>2021-08-22T20:01:52.128Z</time>
      </trkpt>
      <trkpt lat="41.2111" lon="29.34385">
        <ele>57.711145</ele>
        <time>2021-08-22T20:02:06.200Z</time>
      </trkpt>
      <trkpt lat="41.21113" lon="29.3434">
        <ele>57.740693</ele>
        <time>2021-08-22T20:02:18.667Z</time>
      </trkpt>
      <trkpt lat="41.21098" lon="29.343">
        <ele>57.769825</ele>
        <time>2021-08-22T20:02:30.233Z</time>
      </trkpt>
      <trkpt lat="41.21069" lon="29.34269">
        <ele>57.801726</ele>
        <time>2021-08-22T20:02:42.405Z</time>
      </trkpt>
      <trkpt lat="41.21048" lon="29.34235">
        <ele>57.829991</ele>
        <time>2021-08-22T20:02:51.658Z</time>
      </trkpt>
      <trkpt lat="41.2103" lon="29.34185">
        <ele>57.829824</ele>
        <time>2021-08-22T20:03:02.806Z</time>
      </trkpt>
      <trkpt lat="41.21037" lon="29.34174">
        <ele>57.765046</ele>
        <time>2021-08-22T20:03:05.580Z</time>
      </trkpt>
      <trkpt lat="41.21046" lon="29.3417">
        <ele>57.705392</ele>
        <time>2021-08-22T20:03:08.129Z</time>
      </trkpt>
      <trkpt lat="41.21144" lon="29.34172">
        <ele>57.120439</ele>
        <time>2021-08-22T20:03:33.431Z</time>
      </trkpt>
      <trkpt lat="41.21174" lon="29.34157">
        <ele>56.928409</ele>
        <time>2021-08-22T20:03:44.192Z</time>
      </trkpt>
      <trkpt lat="41.21194" lon="29.34118">
        <ele>56.944992</ele>
        <time>2021-08-22T20:03:56.845Z</time>
      </trkpt>
      <trkpt lat="41.21216" lon="29.34015">
        <ele>58.057697</ele>
        <time>2021-08-22T20:04:28.192Z</time>
      </trkpt>
      <trkpt lat="41.21218" lon="29.34007">
        <ele>58.151081</ele>
        <time>2021-08-22T20:04:31.690Z</time>
      </trkpt>
      <trkpt lat="41.2122" lon="29.33998">
        <ele>58.245038</ele>
        <time>2021-08-22T20:04:35.170Z</time>
      </trkpt>
      <trkpt lat="41.21245" lon="29.33831">
        <ele>58.909532</ele>
        <time>2021-08-22T20:05:26.094Z</time>
      </trkpt>
      <trkpt lat="41.21291" lon="29.33629">
        <ele>56.873159</ele>
        <time>2021-08-22T20:06:07.052Z</time>
      </trkpt>
      <trkpt lat="41.21308" lon="29.33494">
        <ele>53.24698</ele>
        <time>2021-08-22T20:06:29.223Z</time>
      </trkpt>
      <trkpt lat="41.21322" lon="29.33465">
        <ele>52.317889</ele>
        <time>2021-08-22T20:06:34.837Z</time>
      </trkpt>
      <trkpt lat="41.21354" lon="29.33442">
        <ele>51.333307</ele>
        <time>2021-08-22T20:06:43.043Z</time>
      </trkpt>
      <trkpt lat="41.21367" lon="29.33424">
        <ele>50.994753</ele>
        <time>2021-08-22T20:06:47.670Z</time>
      </trkpt>
      <trkpt lat="41.21376" lon="29.3341">
        <ele>50.747628</ele>
        <time>2021-08-22T20:06:50.585Z</time>
      </trkpt>
      <trkpt lat="41.21377" lon="29.3338">
        <ele>50.34906</ele>
        <time>2021-08-22T20:06:56.494Z</time>
      </trkpt>
      <trkpt lat="41.21377" lon="29.33314">
        <ele>49.442063</ele>
        <time>2021-08-22T20:07:08.776Z</time>
      </trkpt>
      <trkpt lat="41.21384" lon="29.33277">
        <ele>48.92116</ele>
        <time>2021-08-22T20:07:18.055Z</time>
      </trkpt>
      <trkpt lat="41.21388" lon="29.33256">
        <ele>48.631437</ele>
        <time>2021-08-22T20:07:22.884Z</time>
      </trkpt>
      <trkpt lat="41.21385" lon="29.33243">
        <ele>48.44384</ele>
        <time>2021-08-22T20:07:26.576Z</time>
      </trkpt>
      <trkpt lat="41.21375" lon="29.33228">
        <ele>48.103368</ele>
        <time>2021-08-22T20:07:30.531Z</time>
      </trkpt>
      <trkpt lat="41.21333" lon="29.33201">
        <ele>47.083288</ele>
        <time>2021-08-22T20:07:45.906Z</time>
      </trkpt>
      <trkpt lat="41.21319" lon="29.33166">
        <ele>46.417624</ele>
        <time>2021-08-22T20:07:54.134Z</time>
      </trkpt>
      <trkpt lat="41.21312" lon="29.33152">
        <ele>46.148996</ele>
        <time>2021-08-22T20:07:57.430Z</time>
      </trkpt>
      <trkpt lat="41.213" lon="29.3314">
        <ele>45.799983</ele>
        <time>2021-08-22T20:08:01.419Z</time>
      </trkpt>
      <trkpt lat="41.21246" lon="29.33102">
        <ele>44.454879</ele>
        <time>2021-08-22T20:08:15.429Z</time>
      </trkpt>
      <trkpt lat="41.2123" lon="29.33085">
        <ele>42.836715</ele>
        <time>2021-08-22T20:08:19.299Z</time>
      </trkpt>
      <trkpt lat="41.21212" lon="29.33056">
        <ele>40.531501</ele>
        <time>2021-08-22T20:08:24.804Z</time>
      </trkpt>
      <trkpt lat="41.21186" lon="29.32993">
        <ele>36.051898</ele>
        <time>2021-08-22T20:08:35.323Z</time>
      </trkpt>
      <trkpt lat="41.21151" lon="29.32957">
        <ele>32.414576</ele>
        <time>2021-08-22T20:08:43.862Z</time>
      </trkpt>
      <trkpt lat="41.21146" lon="29.32943">
        <ele>31.450061</ele>
        <time>2021-08-22T20:08:46.014Z</time>
      </trkpt>
      <trkpt lat="41.21149" lon="29.32928">
        <ele>30.476251</ele>
        <time>2021-08-22T20:08:48.299Z</time>
      </trkpt>
      <trkpt lat="41.21165" lon="29.32909">
        <ele>29.132674</ele>
        <time>2021-08-22T20:08:52.444Z</time>
      </trkpt>
      <trkpt lat="41.21243" lon="29.32918">
        <ele>25.691623</ele>
        <time>2021-08-22T20:09:07.921Z</time>
      </trkpt>
      <trkpt lat="41.21301" lon="29.32948">
        <ele>22.98222</ele>
        <time>2021-08-22T20:09:21.791Z</time>
      </trkpt>
      <trkpt lat="41.21351" lon="29.32998">
        <ele>23.858202</ele>
        <time>2021-08-22T20:09:50.111Z</time>
      </trkpt>
      <trkpt lat="41.21377" lon="29.33015">
        <ele>25.705219</ele>
        <time>2021-08-22T20:10:06.891Z</time>
      </trkpt>
      <trkpt lat="41.21413" lon="29.33026">
        <ele>28.059492</ele>
        <time>2021-08-22T20:10:31.695Z</time>
      </trkpt>
      <trkpt lat="41.21436" lon="29.33021">
        <ele>29.566006</ele>
        <time>2021-08-22T20:10:49.675Z</time>
      </trkpt>
      <trkpt lat="41.21445" lon="29.3301">
        <ele>30.331219</ele>
        <time>2021-08-22T20:10:59.210Z</time>
      </trkpt>
      <trkpt lat="41.21449" lon="29.32994">
        <ele>31.165944</ele>
        <time>2021-08-22T20:11:10.124Z</time>
      </trkpt>
      <trkpt lat="41.21448" lon="29.32976">
        <ele>32.019541</ele>
        <time>2021-08-22T20:11:21.441Z</time>
      </trkpt>
      <trkpt lat="41.21433" lon="29.32829">
        <ele>41.48081</ele>
        <time>2021-08-22T20:13:05.029Z</time>
      </trkpt>
      <trkpt lat="41.21402" lon="29.32654">
        <ele>50.237835</ele>
        <time>2021-08-22T20:14:41.923Z</time>
      </trkpt>
      <trkpt lat="41.214" lon="29.32641">
        <ele>50.457279</ele>
        <time>2021-08-22T20:14:49.022Z</time>
      </trkpt>
      <trkpt lat="41.21402" lon="29.32625">
        <ele>50.711936</ele>
        <time>2021-08-22T20:14:52.717Z</time>
      </trkpt>
      <trkpt lat="41.21424" lon="29.32501">
        <ele>52.80633</ele>
        <time>2021-08-22T20:15:25.448Z</time>
      </trkpt>
      <trkpt lat="41.21438" lon="29.32458">
        <ele>52.536681</ele>
        <time>2021-08-22T20:15:33.774Z</time>
      </trkpt>
      <trkpt lat="41.21464" lon="29.32399">
        <ele>51.196483</ele>
        <time>2021-08-22T20:15:45.156Z</time>
      </trkpt>
      <trkpt lat="41.21477" lon="29.32356">
        <ele>50.301646</ele>
        <time>2021-08-22T20:15:53.056Z</time>
      </trkpt>
      <trkpt lat="41.21484" lon="29.32344">
        <ele>50.007109</ele>
        <time>2021-08-22T20:15:55.710Z</time>
      </trkpt>
      <trkpt lat="41.2152" lon="29.32333">
        <ele>49.046465</ele>
        <time>2021-08-22T20:16:04.458Z</time>
      </trkpt>
      <trkpt lat="41.21559" lon="29.32284">
        <ele>48.201476</ele>
        <time>2021-08-22T20:16:17.952Z</time>
      </trkpt>
      <trkpt lat="41.21564" lon="29.32271">
        <ele>48.114393</ele>
        <time>2021-08-22T20:16:20.767Z</time>
      </trkpt>
      <trkpt lat="41.21566" lon="29.32236">
        <ele>47.893563</ele>
        <time>2021-08-22T20:16:27.908Z</time>
      </trkpt>
      <trkpt lat="41.21544" lon="29.32174">
        <ele>47.471971</ele>
        <time>2021-08-22T20:16:43.230Z</time>
      </trkpt>
      <trkpt lat="41.21544" lon="29.32149">
        <ele>47.313169</ele>
        <time>2021-08-22T20:16:48.795Z</time>
      </trkpt>
      <trkpt lat="41.21582" lon="29.3212">
        <ele>46.932985</ele>
        <time>2021-08-22T20:17:02.275Z</time>
      </trkpt>
      <trkpt lat="41.21592" lon="29.32111">
        <ele>46.742605</ele>
        <time>2021-08-22T20:17:05.830Z</time>
      </trkpt>
      <trkpt lat="41.216" lon="29.32103">
        <ele>46.574552</ele>
        <time>2021-08-22T20:17:08.695Z</time>
      </trkpt>
      <trkpt lat="41.21607" lon="29.32095">
        <ele>46.426346</ele>
        <time>2021-08-22T20:17:11.234Z</time>
      </trkpt>
      <trkpt lat="41.2161" lon="29.32082">
        <ele>46.256402</ele>
        <time>2021-08-22T20:17:14.655Z</time>
      </trkpt>
      <trkpt lat="41.21619" lon="29.31992">
        <ele>45.141817</ele>
        <time>2021-08-22T20:17:32.989Z</time>
      </trkpt>
      <trkpt lat="41.21614" lon="29.31949">
        <ele>44.608575</ele>
        <time>2021-08-22T20:17:40.958Z</time>
      </trkpt>
      <trkpt lat="41.2159" lon="29.319">
        <ele>43.46546</ele>
        <time>2021-08-22T20:17:51.080Z</time>
      </trkpt>
      <trkpt lat="41.21539" lon="29.31851">
        <ele>39.442284</ele>
        <time>2021-08-22T20:18:04.613Z</time>
      </trkpt>
      <trkpt lat="41.21523" lon="29.31824">
        <ele>37.778244</ele>
        <time>2021-08-22T20:18:10.014Z</time>
      </trkpt>
      <trkpt lat="41.21487" lon="29.31703">
        <ele>31.272778</ele>
        <time>2021-08-22T20:18:29.010Z</time>
      </trkpt>
      <trkpt lat="41.21455" lon="29.31634">
        <ele>26.442443</ele>
        <time>2021-08-22T20:18:40.900Z</time>
      </trkpt>
      <trkpt lat="41.2146" lon="29.31597">
        <ele>24.206173</ele>
        <time>2021-08-22T20:18:46.524Z</time>
      </trkpt>
      <trkpt lat="41.21467" lon="29.31588">
        <ele>23.43092</ele>
        <time>2021-08-22T20:18:48.363Z</time>
      </trkpt>
      <trkpt lat="41.21475" lon="29.31586">
        <ele>22.79357</ele>
        <time>2021-08-22T20:18:49.899Z</time>
      </trkpt>
      <trkpt lat="41.21583" lon="29.31553">
        <ele>17.884783</ele>
        <time>2021-08-22T20:19:12.509Z</time>
      </trkpt>
      <trkpt lat="41.21682" lon="29.31535">
        <ele>17.009683</ele>
        <time>2021-08-22T20:19:45.743Z</time>
      </trkpt>
      <trkpt lat="41.21728" lon="29.31543">
        <ele>17.976686</ele>
        <time>2021-08-22T20:20:10.936Z</time>
      </trkpt>
      <trkpt lat="41.2177" lon="29.31566">
        <ele>20.620648</ele>
        <time>2021-08-22T20:20:38.809Z</time>
      </trkpt>
      <trkpt lat="41.21796" lon="29.31572">
        <ele>22.14635</ele>
        <time>2021-08-22T20:20:56.028Z</time>
      </trkpt>
      <trkpt lat="41.21829" lon="29.31564">
        <ele>24.117501</ele>
        <time>2021-08-22T20:21:19.426Z</time>
      </trkpt>
      <trkpt lat="41.21847" lon="29.3155">
        <ele>25.314144</ele>
        <time>2021-08-22T20:21:34.175Z</time>
      </trkpt>
      <trkpt lat="41.21856" lon="29.31526">
        <ele>26.516807</ele>
        <time>2021-08-22T20:21:49.086Z</time>
      </trkpt>
      <trkpt lat="41.21867" lon="29.31395">
        <ele>32.420455</ele>
        <time>2021-08-22T20:22:58.674Z</time>
      </trkpt>
      <trkpt lat="41.21852" lon="29.31269">
        <ele>38.14665</ele>
        <time>2021-08-22T20:23:57.674Z</time>
      </trkpt>
      <trkpt lat="41.21854" lon="29.31251">
        <ele>38.658107</ele>
        <time>2021-08-22T20:24:05.360Z</time>
      </trkpt>
      <trkpt lat="41.2188" lon="29.31169">
        <ele>41.123206</ele>
        <time>2021-08-22T20:24:40.162Z</time>
      </trkpt>
      <trkpt lat="41.21887" lon="29.3115">
        <ele>41.722919</ele>
        <time>2021-08-22T20:24:47.855Z</time>
      </trkpt>
      <trkpt lat="41.21893" lon="29.31131">
        <ele>42.30329</ele>
        <time>2021-08-22T20:24:55.605Z</time>
      </trkpt>
      <trkpt lat="41.21926" lon="29.31054">
        <ele>44.778413</ele>
        <time>2021-08-22T20:25:28.553Z</time>
      </trkpt>
      <trkpt lat="41.21977" lon="29.30977">
        <ele>47.302406</ele>
        <time>2021-08-22T20:26:07.332Z</time>
      </trkpt>
      <trkpt lat="41.21988" lon="29.3095">
        <ele>48.070938</ele>
        <time>2021-08-22T20:26:18.249Z</time>
      </trkpt>
      <trkpt lat="41.2199" lon="29.30937">
        <ele>48.393386</ele>
        <time>2021-08-22T20:26:23.333Z</time>
      </trkpt>
      <trkpt lat="41.21989" lon="29.30924">
        <ele>48.723257</ele>
        <time>2021-08-22T20:26:28.947Z</time>
      </trkpt>
      <trkpt lat="41.21948" lon="29.3083">
        <ele>51.338</ele>
        <time>2021-08-22T20:27:08.674Z</time>
      </trkpt>
      <trkpt lat="41.21943" lon="29.30799">
        <ele>52.033307</ele>
        <time>2021-08-22T20:27:20.798Z</time>
      </trkpt>
      <trkpt lat="41.21959" lon="29.30682">
        <ele>54.703389</ele>
        <time>2021-08-22T20:28:03.314Z</time>
      </trkpt>
      <trkpt lat="41.21947" lon="29.30505">
        <ele>58.538907</ele>
        <time>2021-08-22T20:29:05.652Z</time>
      </trkpt>
      <trkpt lat="41.21961" lon="29.30269">
        <ele>62.704995</ele>
        <time>2021-08-22T20:30:29.945Z</time>
      </trkpt>
      <trkpt lat="41.21956" lon="29.30195">
        <ele>63.74686</ele>
        <time>2021-08-22T20:30:52.577Z</time>
      </trkpt>
      <trkpt lat="41.21957" lon="29.30075">
        <ele>63.016906</ele>
        <time>2021-08-22T20:31:21.183Z</time>
      </trkpt>
      <trkpt lat="41.21957" lon="29.30061">
        <ele>62.739564</ele>
        <time>2021-08-22T20:31:24.055Z</time>
      </trkpt>
      <trkpt lat="41.21959" lon="29.30047">
        <ele>62.471035</ele>
        <time>2021-08-22T20:31:26.653Z</time>
      </trkpt>
      <trkpt lat="41.21968" lon="29.29987">
        <ele>61.311126</ele>
        <time>2021-08-22T20:31:37.499Z</time>
      </trkpt>
      <trkpt lat="41.21966" lon="29.29942">
        <ele>60.455669</ele>
        <time>2021-08-22T20:31:44.899Z</time>
      </trkpt>
      <trkpt lat="41.21955" lon="29.29912">
        <ele>59.750029</ele>
        <time>2021-08-22T20:31:50.152Z</time>
      </trkpt>
      <trkpt lat="41.21922" lon="29.29865">
        <ele>55.920002</ele>
        <time>2021-08-22T20:31:59.902Z</time>
      </trkpt>
      <trkpt lat="41.21886" lon="29.29798">
        <ele>50.970498</ele>
        <time>2021-08-22T20:32:12.146Z</time>
      </trkpt>
      <trkpt lat="41.21851" lon="29.29771">
        <ele>47.736516</ele>
        <time>2021-08-22T20:32:19.950Z</time>
      </trkpt>
      <trkpt lat="41.21751" lon="29.29741">
        <ele>38.387553</ele>
        <time>2021-08-22T20:32:39.470Z</time>
      </trkpt>
      <trkpt lat="41.2168" lon="29.29738">
        <ele>31.677517</ele>
        <time>2021-08-22T20:32:52.796Z</time>
      </trkpt>
      <trkpt lat="41.21659" lon="29.29731">
        <ele>29.553861</ele>
        <time>2021-08-22T20:32:57.078Z</time>
      </trkpt>
      <trkpt lat="41.21607" lon="29.29647">
        <ele>24.842519</ele>
        <time>2021-08-22T20:33:13.567Z</time>
      </trkpt>
      <trkpt lat="41.21606" lon="29.29635">
        <ele>24.357097</ele>
        <time>2021-08-22T20:33:15.395Z</time>
      </trkpt>
      <trkpt lat="41.21614" lon="29.29627">
        <ele>23.849961</ele>
        <time>2021-08-22T20:33:17.512Z</time>
      </trkpt>
      <trkpt lat="41.21625" lon="29.29624">
        <ele>23.287023</ele>
        <time>2021-08-22T20:33:20.270Z</time>
      </trkpt>
      <trkpt lat="41.21678" lon="29.29621">
        <ele>20.557241</ele>
        <time>2021-08-22T20:33:31.887Z</time>
      </trkpt>
      <trkpt lat="41.2169" lon="29.29615">
        <ele>19.919309</ele>
        <time>2021-08-22T20:33:35.080Z</time>
      </trkpt>
      <trkpt lat="41.21719" lon="29.29517">
        <ele>18.111305</ele>
        <time>2021-08-22T20:33:54.655Z</time>
      </trkpt>
      <trkpt lat="41.21747" lon="29.29471">
        <ele>17.359742</ele>
        <time>2021-08-22T20:34:07.667Z</time>
      </trkpt>
      <trkpt lat="41.21782" lon="29.29436">
        <ele>16.629634</ele>
        <time>2021-08-22T20:34:18.828Z</time>
      </trkpt>
      <trkpt lat="41.21868" lon="29.29395">
        <ele>15.230915</ele>
        <time>2021-08-22T20:34:40.936Z</time>
      </trkpt>
      <trkpt lat="41.21892" lon="29.29392">
        <ele>14.872628</ele>
        <time>2021-08-22T20:34:46.842Z</time>
      </trkpt>
      <trkpt lat="41.21936" lon="29.29398">
        <ele>14.229751</ele>
        <time>2021-08-22T20:34:57.762Z</time>
      </trkpt>
      <trkpt lat="41.21974" lon="29.29379">
        <ele>13.634674</ele>
        <time>2021-08-22T20:35:08.794Z</time>
      </trkpt>
      <trkpt lat="41.21995" lon="29.29375">
        <ele>14.036216</ele>
        <time>2021-08-22T20:35:15.283Z</time>
      </trkpt>
      <trkpt lat="41.22062" lon="29.2939">
        <ele>16.247649</ele>
        <time>2021-08-22T20:35:42.409Z</time>
      </trkpt>
      <trkpt lat="41.22091" lon="29.29412">
        <ele>17.348098</ele>
        <time>2021-08-22T20:36:00.120Z</time>
      </trkpt>
      <trkpt lat="41.221" lon="29.29408">
        <ele>17.648483</ele>
        <time>2021-08-22T20:36:05.443Z</time>
      </trkpt>
      <trkpt lat="41.22099" lon="29.29396">
        <ele>17.951501</ele>
        <time>2021-08-22T20:36:10.998Z</time>
      </trkpt>
      <trkpt lat="41.22061" lon="29.29355">
        <ele>19.751083</ele>
        <time>2021-08-22T20:36:42.588Z</time>
      </trkpt>
      <trkpt lat="41.2205" lon="29.29312">
        <ele>22.6992</ele>
        <time>2021-08-22T20:37:07.234Z</time>
      </trkpt>
      <trkpt lat="41.22054" lon="29.29272">
        <ele>25.315868</ele>
        <time>2021-08-22T20:37:30.424Z</time>
      </trkpt>
      <trkpt lat="41.22071" lon="29.29196">
        <ele>30.394483</ele>
        <time>2021-08-22T20:38:24.200Z</time>
      </trkpt>
      <trkpt lat="41.22068" lon="29.29135">
        <ele>34.371741</ele>
        <time>2021-08-22T20:39:01.813Z</time>
      </trkpt>
      <trkpt lat="41.22085" lon="29.29087">
        <ele>36.817943</ele>
        <time>2021-08-22T20:39:32.872Z</time>
      </trkpt>
      <trkpt lat="41.22089" lon="29.29079">
        <ele>37.225071</ele>
        <time>2021-08-22T20:39:40.619Z</time>
      </trkpt>
      <trkpt lat="41.22093" lon="29.29071">
        <ele>37.635283</ele>
        <time>2021-08-22T20:39:46.280Z</time>
      </trkpt>
      <trkpt lat="41.22156" lon="29.28941">
        <ele>44.257527</ele>
        <time>2021-08-22T20:40:56.847Z</time>
      </trkpt>
      <trkpt lat="41.22175" lon="29.28873">
        <ele>44.48872</ele>
        <time>2021-08-22T20:41:19.139Z</time>
      </trkpt>
      <trkpt lat="41.22176" lon="29.2884">
        <ele>44.098372</ele>
        <time>2021-08-22T20:41:26.054Z</time>
      </trkpt>
      <trkpt lat="41.22165" lon="29.28765">
        <ele>43.194618</ele>
        <time>2021-08-22T20:41:40.843Z</time>
      </trkpt>
      <trkpt lat="41.22173" lon="29.28715">
        <ele>42.587351</ele>
        <time>2021-08-22T20:41:49.112Z</time>
      </trkpt>
      <trkpt lat="41.22172" lon="29.28679">
        <ele>41.710924</ele>
        <time>2021-08-22T20:41:54.812Z</time>
      </trkpt>
      <trkpt lat="41.22148" lon="29.28583">
        <ele>36.271722</ele>
        <time>2021-08-22T20:42:10.360Z</time>
      </trkpt>
      <trkpt lat="41.22149" lon="29.2857">
        <ele>35.578462</ele>
        <time>2021-08-22T20:42:12.278Z</time>
      </trkpt>
      <trkpt lat="41.22159" lon="29.28565">
        <ele>34.813255</ele>
        <time>2021-08-22T20:42:14.330Z</time>
      </trkpt>
      <trkpt lat="41.22175" lon="29.28576">
        <ele>33.497406</ele>
        <time>2021-08-22T20:42:17.868Z</time>
      </trkpt>
      <trkpt lat="41.22219" lon="29.28637">
        <ele>29.266802</ele>
        <time>2021-08-22T20:42:30.187Z</time>
      </trkpt>
      <trkpt lat="41.22237" lon="29.28656">
        <ele>28.647247</ele>
        <time>2021-08-22T20:42:34.918Z</time>
      </trkpt>
      <trkpt lat="41.22247" lon="29.28661">
        <ele>28.36935</ele>
        <time>2021-08-22T20:42:37.028Z</time>
      </trkpt>
      <trkpt lat="41.22279" lon="29.28662">
        <ele>27.54209</ele>
        <time>2021-08-22T20:42:43.556Z</time>
      </trkpt>
      <trkpt lat="41.22288" lon="29.28657">
        <ele>27.287068</ele>
        <time>2021-08-22T20:42:45.431Z</time>
      </trkpt>
      <trkpt lat="41.22296" lon="29.28645">
        <ele>26.963223</ele>
        <time>2021-08-22T20:42:48.992Z</time>
      </trkpt>
      <trkpt lat="41.22285" lon="29.28539">
        <ele>24.835705</ele>
        <time>2021-08-22T20:43:13.403Z</time>
      </trkpt>
      <trkpt lat="41.22289" lon="29.28367">
        <ele>31.036365</ele>
        <time>2021-08-22T20:44:30.325Z</time>
      </trkpt>
      <trkpt lat="41.22298" lon="29.28362">
        <ele>31.536049</ele>
        <time>2021-08-22T20:44:37.410Z</time>
      </trkpt>
      <trkpt lat="41.22331" lon="29.28364">
        <ele>33.241321</ele>
        <time>2021-08-22T20:45:01.916Z</time>
      </trkpt>
      <trkpt lat="41.22351" lon="29.28352">
        <ele>34.353847</ele>
        <time>2021-08-22T20:45:17.429Z</time>
      </trkpt>
      <trkpt lat="41.22374" lon="29.28266">
        <ele>37.843885</ele>
        <time>2021-08-22T20:46:03.261Z</time>
      </trkpt>
      <trkpt lat="41.22398" lon="29.28209">
        <ele>40.350745</ele>
        <time>2021-08-22T20:46:33.147Z</time>
      </trkpt>
      <trkpt lat="41.22551" lon="29.28018">
        <ele>47.002014</ele>
        <time>2021-08-22T20:48:11.577Z</time>
      </trkpt>
      <trkpt lat="41.22588" lon="29.27894">
        <ele>48.305975</ele>
        <time>2021-08-22T20:48:48.879Z</time>
      </trkpt>
      <trkpt lat="41.2259" lon="29.2788">
        <ele>48.403189</ele>
        <time>2021-08-22T20:48:52.740Z</time>
      </trkpt>
      <trkpt lat="41.22589" lon="29.27866">
        <ele>48.497648</ele>
        <time>2021-08-22T20:48:56.496Z</time>
      </trkpt>
      <trkpt lat="41.22586" lon="29.27806">
        <ele>48.907879</ele>
        <time>2021-08-22T20:49:12.102Z</time>
      </trkpt>
      <trkpt lat="41.2259" lon="29.27772">
        <ele>49.141918</ele>
        <time>2021-08-22T20:49:21.104Z</time>
      </trkpt>
      <trkpt lat="41.22597" lon="29.27744">
        <ele>49.187142</ele>
        <time>2021-08-22T20:49:28.411Z</time>
      </trkpt>
      <trkpt lat="41.22611" lon="29.27722">
        <ele>49.092302</ele>
        <time>2021-08-22T20:49:36.437Z</time>
      </trkpt>
      <trkpt lat="41.2262" lon="29.27714">
        <ele>49.043736</ele>
        <time>2021-08-22T20:49:39.718Z</time>
      </trkpt>
      <trkpt lat="41.22627" lon="29.27619">
        <ele>48.73347</ele>
        <time>2021-08-22T20:50:04.813Z</time>
      </trkpt>
      <trkpt lat="41.22608" lon="29.27494">
        <ele>47.344077</ele>
        <time>2021-08-22T20:50:29.875Z</time>
      </trkpt>
      <trkpt lat="41.22608" lon="29.27435">
        <ele>45.802888</ele>
        <time>2021-08-22T20:50:40.618Z</time>
      </trkpt>
      <trkpt lat="41.22603" lon="29.27428">
        <ele>45.534958</ele>
        <time>2021-08-22T20:50:42.432Z</time>
      </trkpt>
      <trkpt lat="41.2268" lon="29.27446">
        <ele>42.794643</ele>
        <time>2021-08-22T20:51:00.451Z</time>
      </trkpt>
      <trkpt lat="41.22681" lon="29.27438">
        <ele>42.587207</ele>
        <time>2021-08-22T20:51:01.687Z</time>
      </trkpt>
      <trkpt lat="41.22682" lon="29.27358">
        <ele>40.713892</ele>
        <time>2021-08-22T20:51:14.770Z</time>
      </trkpt>
      <trkpt lat="41.22687" lon="29.27313">
        <ele>39.692728</ele>
        <time>2021-08-22T20:51:22.034Z</time>
      </trkpt>
      <trkpt lat="41.22739" lon="29.27157">
        <ele>36.062282</ele>
        <time>2021-08-22T20:51:54.448Z</time>
      </trkpt>
      <trkpt lat="41.22757" lon="29.27033">
        <ele>33.98152</ele>
        <time>2021-08-22T20:52:18.255Z</time>
      </trkpt>
      <trkpt lat="41.22763" lon="29.2702">
        <ele>33.724226</ele>
        <time>2021-08-22T20:52:21.182Z</time>
      </trkpt>
      <trkpt lat="41.22773" lon="29.27013">
        <ele>33.471625</ele>
        <time>2021-08-22T20:52:24.650Z</time>
      </trkpt>
      <trkpt lat="41.22784" lon="29.27005">
        <ele>33.214045</ele>
        <time>2021-08-22T20:52:27.065Z</time>
      </trkpt>
      <trkpt lat="41.22809" lon="29.26983">
        <ele>32.282921</ele>
        <time>2021-08-22T20:52:34.144Z</time>
      </trkpt>
      <trkpt lat="41.2282" lon="29.26961">
        <ele>31.420777</ele>
        <time>2021-08-22T20:52:38.541Z</time>
      </trkpt>
      <trkpt lat="41.2282" lon="29.26917">
        <ele>30.003284</ele>
        <time>2021-08-22T20:52:45.672Z</time>
      </trkpt>
      <trkpt lat="41.2281" lon="29.26876">
        <ele>28.589388</ele>
        <time>2021-08-22T20:52:52.650Z</time>
      </trkpt>
      <trkpt lat="41.22795" lon="29.26857">
        <ele>27.711759</ele>
        <time>2021-08-22T20:52:57.043Z</time>
      </trkpt>
      <trkpt lat="41.22767" lon="29.26841">
        <ele>26.406979</ele>
        <time>2021-08-22T20:53:03.325Z</time>
      </trkpt>
      <trkpt lat="41.22722" lon="29.26848">
        <ele>24.886354</ele>
        <time>2021-08-22T20:53:13.104Z</time>
      </trkpt>
      <trkpt lat="41.22691" lon="29.26843">
        <ele>24.447435</ele>
        <time>2021-08-22T20:53:20.191Z</time>
      </trkpt>
      <trkpt lat="41.22681" lon="29.2683">
        <ele>24.266871</ele>
        <time>2021-08-22T20:53:23.199Z</time>
      </trkpt>
      <trkpt lat="41.22678" lon="29.26815">
        <ele>24.095978</ele>
        <time>2021-08-22T20:53:26.099Z</time>
      </trkpt>
      <trkpt lat="41.2268" lon="29.26797">
        <ele>23.911298</ele>
        <time>2021-08-22T20:53:29.272Z</time>
      </trkpt>
      <trkpt lat="41.22696" lon="29.26771">
        <ele>23.564628</ele>
        <time>2021-08-22T20:53:35.672Z</time>
      </trkpt>
      <trkpt lat="41.22772" lon="29.26716">
        <ele>23.687874</ele>
        <time>2021-08-22T20:54:03.679Z</time>
      </trkpt>
      <trkpt lat="41.22846" lon="29.26604">
        <ele>30.863757</ele>
        <time>2021-08-22T20:55:19.540Z</time>
      </trkpt>
      <trkpt lat="41.22875" lon="29.2657">
        <ele>33.330085</ele>
        <time>2021-08-22T20:55:52.168Z</time>
      </trkpt>
      <trkpt lat="41.22878" lon="29.26565">
        <ele>33.642407</ele>
        <time>2021-08-22T20:55:58.734Z</time>
      </trkpt>
      <trkpt lat="41.2284" lon="29.26505">
        <ele>37.966092</ele>
        <time>2021-08-22T20:56:48.697Z</time>
      </trkpt>
      <trkpt lat="41.22801" lon="29.26442">
        <ele>42.515453</ele>
        <time>2021-08-22T20:57:36.778Z</time>
      </trkpt>
      <trkpt lat="41.228" lon="29.26434">
        <ele>42.961934</ele>
        <time>2021-08-22T20:57:42.683Z</time>
      </trkpt>
      <trkpt lat="41.22805" lon="29.26429">
        <ele>43.428205</ele>
        <time>2021-08-22T20:57:46.839Z</time>
      </trkpt>
      <trkpt lat="41.22847" lon="29.26379">
        <ele>47.413022</ele>
        <time>2021-08-22T20:58:23.554Z</time>
      </trkpt>
      <trkpt lat="41.22856" lon="29.26349">
        <ele>47.255498</ele>
        <time>2021-08-22T20:58:37.199Z</time>
      </trkpt>
      <trkpt lat="41.22857" lon="29.26335">
        <ele>47.190079</ele>
        <time>2021-08-22T20:58:40.878Z</time>
      </trkpt>
      <trkpt lat="41.22854" lon="29.26307">
        <ele>47.049447</ele>
        <time>2021-08-22T20:58:49.843Z</time>
      </trkpt>
      <trkpt lat="41.22826" lon="29.26138">
        <ele>45.697014</ele>
        <time>2021-08-22T20:59:22.411Z</time>
      </trkpt>
      <trkpt lat="41.22825" lon="29.26128">
        <ele>45.187055</ele>
        <time>2021-08-22T20:59:24.051Z</time>
      </trkpt>
      <trkpt lat="41.2281" lon="29.26066">
        <ele>42.066337</ele>
        <time>2021-08-22T20:59:34.771Z</time>
      </trkpt>
      <trkpt lat="41.22793" lon="29.25972">
        <ele>37.401829</ele>
        <time>2021-08-22T20:59:49.942Z</time>
      </trkpt>
      <trkpt lat="41.22787" lon="29.25916">
        <ele>34.61319</ele>
        <time>2021-08-22T20:59:58.892Z</time>
      </trkpt>
      <trkpt lat="41.22789" lon="29.25862">
        <ele>31.387938</ele>
        <time>2021-08-22T21:00:07.291Z</time>
      </trkpt>
      <trkpt lat="41.22792" lon="29.25841">
        <ele>30.118739</ele>
        <time>2021-08-22T21:00:10.480Z</time>
      </trkpt>
      <trkpt lat="41.22793" lon="29.25825">
        <ele>29.170669</ele>
        <time>2021-08-22T21:00:12.786Z</time>
      </trkpt>
      <trkpt lat="41.22811" lon="29.25719">
        <ele>22.769219</ele>
        <time>2021-08-22T21:00:28.695Z</time>
      </trkpt>
      <trkpt lat="41.22815" lon="29.25705">
        <ele>21.873767</ele>
        <time>2021-08-22T21:00:30.800Z</time>
      </trkpt>
      <trkpt lat="41.22842" lon="29.25658">
        <ele>20.003438</ele>
        <time>2021-08-22T21:00:40.204Z</time>
      </trkpt>
      <trkpt lat="41.22886" lon="29.25611">
        <ele>18.99094</ele>
        <time>2021-08-22T21:00:53.338Z</time>
      </trkpt>
      <trkpt lat="41.22891" lon="29.25606">
        <ele>18.87357</ele>
        <time>2021-08-22T21:00:54.565Z</time>
      </trkpt>
      <trkpt lat="41.22896" lon="29.25603">
        <ele>18.778019</ele>
        <time>2021-08-22T21:00:57.362Z</time>
      </trkpt>
      <trkpt lat="41.22944" lon="29.25564">
        <ele>17.761693</ele>
        <time>2021-08-22T21:01:15.388Z</time>
      </trkpt>
      <trkpt lat="41.22968" lon="29.25524">
        <ele>17.710087</ele>
        <time>2021-08-22T21:01:32.546Z</time>
      </trkpt>
      <trkpt lat="41.22978" lon="29.25469">
        <ele>19.628536</ele>
        <time>2021-08-22T21:01:51.772Z</time>
      </trkpt>
      <trkpt lat="41.22971" lon="29.25414">
        <ele>21.532984</ele>
        <time>2021-08-22T21:02:18.281Z</time>
      </trkpt>
      <trkpt lat="41.22966" lon="29.25402">
        <ele>21.997684</ele>
        <time>2021-08-22T21:02:26.816Z</time>
      </trkpt>
      <trkpt lat="41.22976" lon="29.25397">
        <ele>22.451151</ele>
        <time>2021-08-22T21:02:31.731Z</time>
      </trkpt>
      <trkpt lat="41.22984" lon="29.25391">
        <ele>22.883372</ele>
        <time>2021-08-22T21:02:36.955Z</time>
      </trkpt>
      <trkpt lat="41.23009" lon="29.25343">
        <ele>24.869375</ele>
        <time>2021-08-22T21:03:03.818Z</time>
      </trkpt>
      <trkpt lat="41.23018" lon="29.25332">
        <ele>25.428632</ele>
        <time>2021-08-22T21:03:12.441Z</time>
      </trkpt>
      <trkpt lat="41.22956" lon="29.25171">
        <ele>33.146563</ele>
        <time>2021-08-22T21:04:39.906Z</time>
      </trkpt>
      <trkpt lat="41.22938" lon="29.25127">
        <ele>35.263955</ele>
        <time>2021-08-22T21:05:04.252Z</time>
      </trkpt>
      <trkpt lat="41.22912" lon="29.25068">
        <ele>37.696254</ele>
        <time>2021-08-22T21:05:37.188Z</time>
      </trkpt>
      <trkpt lat="41.22882" lon="29.25008">
        <ele>40.188192</ele>
        <time>2021-08-22T21:06:10.497Z</time>
      </trkpt>
      <trkpt lat="41.22841" lon="29.24932">
        <ele>43.402712</ele>
        <time>2021-08-22T21:06:50.446Z</time>
      </trkpt>
      <trkpt lat="41.22819" lon="29.24895">
        <ele>43.720385</ele>
        <time>2021-08-22T21:07:07.870Z</time>
      </trkpt>
      <trkpt lat="41.22771" lon="29.24813">
        <ele>43.343001</ele>
        <time>2021-08-22T21:07:35.477Z</time>
      </trkpt>
      <trkpt lat="41.2276" lon="29.24812">
        <ele>43.288559</ele>
        <time>2021-08-22T21:07:38.613Z</time>
      </trkpt>
      <trkpt lat="41.22764" lon="29.24741">
        <ele>43.029651</ele>
        <time>2021-08-22T21:07:51.818Z</time>
      </trkpt>
      <trkpt lat="41.22771" lon="29.24686">
        <ele>41.153582</ele>
        <time>2021-08-22T21:08:01.526Z</time>
      </trkpt>
      <trkpt lat="41.22774" lon="29.24662">
        <ele>40.109888</ele>
        <time>2021-08-22T21:08:05.438Z</time>
      </trkpt>
      <trkpt lat="41.22775" lon="29.24653">
        <ele>39.706053</ele>
        <time>2021-08-22T21:08:06.890Z</time>
      </trkpt>
      <trkpt lat="41.22791" lon="29.24589">
        <ele>36.797384</ele>
        <time>2021-08-22T21:08:17.653Z</time>
      </trkpt>
      <trkpt lat="41.22795" lon="29.24576">
        <ele>36.191673</ele>
        <time>2021-08-22T21:08:19.828Z</time>
      </trkpt>
      <trkpt lat="41.22821" lon="29.245">
        <ele>32.605829</ele>
        <time>2021-08-22T21:08:33.226Z</time>
      </trkpt>
      <trkpt lat="41.22832" lon="29.24468">
        <ele>31.833154</ele>
        <time>2021-08-22T21:08:38.797Z</time>
      </trkpt>
      <trkpt lat="41.22856" lon="29.24425">
        <ele>30.652035</ele>
        <time>2021-08-22T21:08:47.940Z</time>
      </trkpt>
      <trkpt lat="41.22849" lon="29.24414">
        <ele>30.349156</ele>
        <time>2021-08-22T21:08:50.285Z</time>
      </trkpt>
      <trkpt lat="41.22801" lon="29.24308">
        <ele>27.589708</ele>
        <time>2021-08-22T21:09:14.083Z</time>
      </trkpt>
      <trkpt lat="41.2276" lon="29.24241">
        <ele>27.638417</ele>
        <time>2021-08-22T21:09:34.626Z</time>
      </trkpt>
      <trkpt lat="41.22755" lon="29.2423">
        <ele>27.690677</ele>
        <time>2021-08-22T21:09:39.177Z</time>
      </trkpt>
      <trkpt lat="41.22751" lon="29.24217">
        <ele>27.743828</ele>
        <time>2021-08-22T21:09:41.934Z</time>
      </trkpt>
      <trkpt lat="41.22743" lon="29.24145">
        <ele>28.036079</ele>
        <time>2021-08-22T21:10:02.187Z</time>
      </trkpt>
      <trkpt lat="41.22742" lon="29.2413">
        <ele>28.097856</ele>
        <time>2021-08-22T21:10:06.772Z</time>
      </trkpt>
      <trkpt lat="41.22742" lon="29.24115">
        <ele>28.160066</ele>
        <time>2021-08-22T21:10:10.166Z</time>
      </trkpt>
      <trkpt lat="41.22761" lon="29.23971">
        <ele>29.551684</ele>
        <time>2021-08-22T21:10:52.562Z</time>
      </trkpt>
      <trkpt lat="41.22762" lon="29.23929">
        <ele>30.021799</ele>
        <time>2021-08-22T21:11:05.270Z</time>
      </trkpt>
      <trkpt lat="41.22779" lon="29.23869">
        <ele>30.740096</ele>
        <time>2021-08-22T21:11:26.117Z</time>
      </trkpt>
      <trkpt lat="41.22765" lon="29.23805">
        <ele>31.151414</ele>
        <time>2021-08-22T21:11:46.191Z</time>
      </trkpt>
      <trkpt lat="41.22763" lon="29.23743">
        <ele>31.38635</ele>
        <time>2021-08-22T21:12:02.598Z</time>
      </trkpt>
      <trkpt lat="41.22787" lon="29.23675">
        <ele>31.67218</ele>
        <time>2021-08-22T21:12:19.395Z</time>
      </trkpt>
      <trkpt lat="41.22822" lon="29.23543">
        <ele>32.658562</ele>
        <time>2021-08-22T21:12:52.435Z</time>
      </trkpt>
      <trkpt lat="41.22841" lon="29.23509">
        <ele>33.055575</ele>
        <time>2021-08-22T21:13:04.256Z</time>
      </trkpt>
      <trkpt lat="41.22848" lon="29.23486">
        <ele>33.282436</ele>
        <time>2021-08-22T21:13:12.927Z</time>
      </trkpt>
      <trkpt lat="41.22849" lon="29.23476">
        <ele>33.373138</ele>
        <time>2021-08-22T21:13:14.733Z</time>
      </trkpt>
      <trkpt lat="41.22848" lon="29.23466">
        <ele>33.469282</ele>
        <time>2021-08-22T21:13:17.812Z</time>
      </trkpt>
      <trkpt lat="41.22846" lon="29.23451">
        <ele>33.609263</ele>
        <time>2021-08-22T21:13:22.036Z</time>
      </trkpt>
      <trkpt lat="41.22843" lon="29.23438">
        <ele>33.735939</ele>
        <time>2021-08-22T21:13:28.507Z</time>
      </trkpt>
      <trkpt lat="41.22808" lon="29.2338">
        <ele>34.759341</ele>
        <time>2021-08-22T21:13:52.674Z</time>
      </trkpt>
      <trkpt lat="41.22795" lon="29.23325">
        <ele>35.848027</ele>
        <time>2021-08-22T21:14:14.846Z</time>
      </trkpt>
      <trkpt lat="41.22828" lon="29.23203">
        <ele>38.262304</ele>
        <time>2021-08-22T21:15:00.886Z</time>
      </trkpt>
      <trkpt lat="41.22828" lon="29.23123">
        <ele>38.212465</ele>
        <time>2021-08-22T21:15:22.042Z</time>
      </trkpt>
      <trkpt lat="41.2281" lon="29.23078">
        <ele>37.92675</ele>
        <time>2021-08-22T21:15:33.602Z</time>
      </trkpt>
      <trkpt lat="41.22786" lon="29.22984">
        <ele>37.383691</ele>
        <time>2021-08-22T21:15:52.376Z</time>
      </trkpt>
      <trkpt lat="41.22756" lon="29.22917">
        <ele>36.39032</ele>
        <time>2021-08-22T21:16:06.296Z</time>
      </trkpt>
      <trkpt lat="41.22748" lon="29.22857">
        <ele>35.416646</ele>
        <time>2021-08-22T21:16:16.982Z</time>
      </trkpt>
      <trkpt lat="41.22721" lon="29.22754">
        <ele>33.673893</ele>
        <time>2021-08-22T21:16:37.082Z</time>
      </trkpt>
      <trkpt lat="41.22718" lon="29.22714">
        <ele>33.199135</ele>
        <time>2021-08-22T21:16:45.094Z</time>
      </trkpt>
      <trkpt lat="41.22712" lon="29.22641">
        <ele>32.512372</ele>
        <time>2021-08-22T21:17:00.913Z</time>
      </trkpt>
      <trkpt lat="41.22699" lon="29.22587">
        <ele>31.980683</ele>
        <time>2021-08-22T21:17:12.312Z</time>
      </trkpt>
      <trkpt lat="41.22674" lon="29.22532">
        <ele>31.372621</ele>
        <time>2021-08-22T21:17:25.076Z</time>
      </trkpt>
      <trkpt lat="41.22655" lon="29.22497">
        <ele>30.601768</ele>
        <time>2021-08-22T21:17:33.472Z</time>
      </trkpt>
      <trkpt lat="41.22639" lon="29.22472">
        <ele>29.758594</ele>
        <time>2021-08-22T21:17:40.183Z</time>
      </trkpt>
      <trkpt lat="41.22634" lon="29.22466">
        <ele>29.537988</ele>
        <time>2021-08-22T21:17:41.567Z</time>
      </trkpt>
      <trkpt lat="41.22571" lon="29.22384">
        <ele>26.515677</ele>
        <time>2021-08-22T21:18:01.442Z</time>
      </trkpt>
      <trkpt lat="41.22537" lon="29.22334">
        <ele>24.733791</ele>
        <time>2021-08-22T21:18:12.031Z</time>
      </trkpt>
      <trkpt lat="41.22518" lon="29.22296">
        <ele>23.237362</ele>
        <time>2021-08-22T21:18:19.199Z</time>
      </trkpt>
      <trkpt lat="41.22511" lon="29.22272">
        <ele>22.374015</ele>
        <time>2021-08-22T21:18:23.374Z</time>
      </trkpt>
      <trkpt lat="41.225" lon="29.22221">
        <ele>20.652395</ele>
        <time>2021-08-22T21:18:31.903Z</time>
      </trkpt>
      <trkpt lat="41.22497" lon="29.22204">
        <ele>20.082341</ele>
        <time>2021-08-22T21:18:34.809Z</time>
      </trkpt>
      <trkpt lat="41.22474" lon="29.22069">
        <ele>16.198451</ele>
        <time>2021-08-22T21:18:57.982Z</time>
      </trkpt>
      <trkpt lat="41.22459" lon="29.21971">
        <ele>14.191569</ele>
        <time>2021-08-22T21:19:16.722Z</time>
      </trkpt>
      <trkpt lat="41.22435" lon="29.21876">
        <ele>12.245662</ele>
        <time>2021-08-22T21:19:34.576Z</time>
      </trkpt>
      <trkpt lat="41.22434" lon="29.21873">
        <ele>12.195215</ele>
        <time>2021-08-22T21:19:35.165Z</time>
      </trkpt>
      <trkpt lat="41.2243" lon="29.21858">
        <ele>11.956615</ele>
        <time>2021-08-22T21:19:37.949Z</time>
      </trkpt>
      <trkpt lat="41.22424" lon="29.21819">
        <ele>11.34498</ele>
        <time>2021-08-22T21:19:44.674Z</time>
      </trkpt>
      <trkpt lat="41.22416" lon="29.21811">
        <ele>11.135697</ele>
        <time>2021-08-22T21:19:47.198Z</time>
      </trkpt>
      <trkpt lat="41.22418" lon="29.21796">
        <ele>10.892449</ele>
        <time>2021-08-22T21:19:51.007Z</time>
      </trkpt>
      <trkpt lat="41.22425" lon="29.2174">
        <ele>10.029284</ele>
        <time>2021-08-22T21:20:05.069Z</time>
      </trkpt>
      <trkpt lat="41.22412" lon="29.21673">
        <ele>8.968241</ele>
        <time>2021-08-22T21:20:24.143Z</time>
      </trkpt>
      <trkpt lat="41.224" lon="29.21665">
        <ele>8.730131</ele>
        <time>2021-08-22T21:20:29.255Z</time>
      </trkpt>
      <trkpt lat="41.22387" lon="29.21656">
        <ele>8.650759</ele>
        <time>2021-08-22T21:20:34.205Z</time>
      </trkpt>
      <trkpt lat="41.2235" lon="29.21692">
        <ele>8.404161</ele>
        <time>2021-08-22T21:20:51.230Z</time>
      </trkpt>
      <trkpt lat="41.2234" lon="29.21715">
        <ele>8.292751</ele>
        <time>2021-08-22T21:20:58.667Z</time>
      </trkpt>
      <trkpt lat="41.22327" lon="29.21744">
        <ele>8.155714</ele>
        <time>2021-08-22T21:21:09.997Z</time>
      </trkpt>
      <trkpt lat="41.22306" lon="29.21747">
        <ele>8.042146</ele>
        <time>2021-08-22T21:21:16.264Z</time>
      </trkpt>
      <trkpt lat="41.22298" lon="29.21747">
        <ele>7.994484</ele>
        <time>2021-08-22T21:21:19.249Z</time>
      </trkpt>
      <trkpt lat="41.22212" lon="29.21792">
        <ele>6.940775</ele>
        <time>2021-08-22T21:21:46.212Z</time>
      </trkpt>
      <trkpt lat="41.22175" lon="29.21801">
        <ele>6.332722</ele>
        <time>2021-08-22T21:21:55.591Z</time>
      </trkpt>
      <trkpt lat="41.22072" lon="29.21803">
        <ele>4.724827</ele>
        <time>2021-08-22T21:22:19.954Z</time>
      </trkpt>
      <trkpt lat="41.22066" lon="29.21732">
        <ele>4.062941</ele>
        <time>2021-08-22T21:22:33.115Z</time>
      </trkpt>
      <trkpt lat="41.22052" lon="29.21599">
        <ele>2.802428</ele>
        <time>2021-08-22T21:23:00.676Z</time>
      </trkpt>
      <trkpt lat="41.22039" lon="29.21547">
        <ele>2.770386</ele>
        <time>2021-08-22T21:23:13.721Z</time>
      </trkpt>
      <trkpt lat="41.22015" lon="29.21503">
        <ele>2.967697</ele>
        <time>2021-08-22T21:23:28.096Z</time>
      </trkpt>
      <trkpt lat="41.2199" lon="29.21477">
        <ele>3.12046</ele>
        <time>2021-08-22T21:23:39.326Z</time>
      </trkpt>
      <trkpt lat="41.21944" lon="29.21455">
        <ele>3.354253</ele>
        <time>2021-08-22T21:23:56.528Z</time>
      </trkpt>
      <trkpt lat="41.21885" lon="29.21438">
        <ele>3.764032</ele>
        <time>2021-08-22T21:24:17.655Z</time>
      </trkpt>
      <trkpt lat="41.21788" lon="29.21401">
        <ele>4.65143</ele>
        <time>2021-08-22T21:24:53.118Z</time>
      </trkpt>
      <trkpt lat="41.21694" lon="29.21366">
        <ele>5.970868</ele>
        <time>2021-08-22T21:25:29.977Z</time>
      </trkpt>
      <trkpt lat="41.21629" lon="29.21347">
        <ele>7.176725</ele>
        <time>2021-08-22T21:25:56.232Z</time>
      </trkpt>
      <trkpt lat="41.21617" lon="29.21343">
        <ele>7.400027</ele>
        <time>2021-08-22T21:26:01.426Z</time>
      </trkpt>
      <trkpt lat="41.2161" lon="29.21341">
        <ele>7.525273</ele>
        <time>2021-08-22T21:26:04.316Z</time>
      </trkpt>
      <trkpt lat="41.21588" lon="29.21336">
        <ele>7.934346</ele>
        <time>2021-08-22T21:26:14.511Z</time>
      </trkpt>
      <trkpt lat="41.21524" lon="29.2134">
        <ele>10.393043</ele>
        <time>2021-08-22T21:26:44.864Z</time>
      </trkpt>
      <trkpt lat="41.21502" lon="29.21347">
        <ele>11.494917</ele>
        <time>2021-08-22T21:26:56.331Z</time>
      </trkpt>
      <trkpt lat="41.21484" lon="29.21355">
        <ele>12.470926</ele>
        <time>2021-08-22T21:27:07.611Z</time>
      </trkpt>
      <trkpt lat="41.21407" lon="29.21409">
        <ele>16.779692</ele>
        <time>2021-08-22T21:28:02.230Z</time>
      </trkpt>
      <trkpt lat="41.21374" lon="29.21425">
        <ele>19.380948</ele>
        <time>2021-08-22T21:28:27.528Z</time>
      </trkpt>
      <trkpt lat="41.21188" lon="29.21456">
        <ele>34.792006</ele>
        <time>2021-08-22T21:31:00.003Z</time>
      </trkpt>
      <trkpt lat="41.21149" lon="29.2147">
        <ele>37.74308</ele>
        <time>2021-08-22T21:31:32.307Z</time>
      </trkpt>
      <trkpt lat="41.21105" lon="29.21493">
        <ele>41.128751</ele>
        <time>2021-08-22T21:32:06.766Z</time>
      </trkpt>
      <trkpt lat="41.21053" lon="29.2153">
        <ele>45.36965</ele>
        <time>2021-08-22T21:32:46.364Z</time>
      </trkpt>
      <trkpt lat="41.20897" lon="29.21677">
        <ele>50.262362</ele>
        <time>2021-08-22T21:34:14.005Z</time>
      </trkpt>
      <trkpt lat="41.20857" lon="29.21705">
        <ele>49.610573</ele>
        <time>2021-08-22T21:34:26.825Z</time>
      </trkpt>
      <trkpt lat="41.2079" lon="29.21747">
        <ele>48.547024</ele>
        <time>2021-08-22T21:34:45.589Z</time>
      </trkpt>
      <trkpt lat="41.20662" lon="29.21793">
        <ele>43.215925</ele>
        <time>2021-08-22T21:35:15.162Z</time>
      </trkpt>
      <trkpt lat="41.20618" lon="29.21804">
        <ele>40.755772</ele>
        <time>2021-08-22T21:35:24.453Z</time>
      </trkpt>
      <trkpt lat="41.20358" lon="29.21808">
        <ele>20.763492</ele>
        <time>2021-08-22T21:36:15.069Z</time>
      </trkpt>
      <trkpt lat="41.20315" lon="29.21799">
        <ele>17.715746</ele>
        <time>2021-08-22T21:36:23.409Z</time>
      </trkpt>
      <trkpt lat="41.20281" lon="29.2179">
        <ele>15.24885</ele>
        <time>2021-08-22T21:36:30.295Z</time>
      </trkpt>
      <trkpt lat="41.20274" lon="29.21786">
        <ele>14.707052</ele>
        <time>2021-08-22T21:36:31.840Z</time>
      </trkpt>
      <trkpt lat="41.20241" lon="29.21772">
        <ele>12.254865</ele>
        <time>2021-08-22T21:36:38.825Z</time>
      </trkpt>
      <trkpt lat="41.20143" lon="29.2173">
        <ele>8.443779</ele>
        <time>2021-08-22T21:37:01.252Z</time>
      </trkpt>
      <trkpt lat="41.20097" lon="29.21699">
        <ele>7.316815</ele>
        <time>2021-08-22T21:37:15.056Z</time>
      </trkpt>
      <trkpt lat="41.20002" lon="29.21592">
        <ele>6.029022</ele>
        <time>2021-08-22T21:37:51.536Z</time>
      </trkpt>
      <trkpt lat="41.19989" lon="29.21581">
        <ele>6.024991</ele>
        <time>2021-08-22T21:37:56.183Z</time>
      </trkpt>
      <trkpt lat="41.19989" lon="29.21581">
        <ele>6.024991</ele>
        <time>2021-08-22T21:37:56.183Z</time>
      </trkpt>
      <trkpt lat="41.1998" lon="29.21573">
        <ele>6.0218</ele>
        <time>2021-08-22T21:37:59.606Z</time>
      </trkpt>
      <trkpt lat="41.1995" lon="29.21555">
        <ele>6.012722</ele>
        <time>2021-08-22T21:38:10.078Z</time>
      </trkpt>
      <trkpt lat="41.19949" lon="29.21555">
        <ele>6.012694</ele>
        <time>2021-08-22T21:38:10.084Z</time>
      </trkpt>
      <trkpt lat="41.19923" lon="29.21544">
        <ele>6.005063</ele>
        <time>2021-08-22T21:38:19.215Z</time>
      </trkpt>
      <trkpt lat="41.1977" lon="29.21476">
        <ele>6.510379</ele>
        <time>2021-08-22T21:39:13.183Z</time>
      </trkpt>
      <trkpt lat="41.19578" lon="29.21394">
        <ele>7.215452</ele>
        <time>2021-08-22T21:40:19.938Z</time>
      </trkpt>
      <trkpt lat="41.19498" lon="29.21353">
        <ele>7.434835</ele>
        <time>2021-08-22T21:40:47.305Z</time>
      </trkpt>
      <trkpt lat="41.19448" lon="29.21313">
        <ele>7.567096</ele>
        <time>2021-08-22T21:41:06.501Z</time>
      </trkpt>
      <trkpt lat="41.19427" lon="29.21292">
        <ele>7.624897</ele>
        <time>2021-08-22T21:41:14.917Z</time>
      </trkpt>
      <trkpt lat="41.19362" lon="29.21196">
        <ele>7.97</ele>
        <time>2021-08-22T21:41:46.810Z</time>
      </trkpt>
      <trkpt lat="41.19323" lon="29.21134">
        <ele>8.221749</ele>
        <time>2021-08-22T21:42:07.163Z</time>
      </trkpt>
      <trkpt lat="41.1928" lon="29.21061">
        <ele>8.58139</ele>
        <time>2021-08-22T21:42:30.864Z</time>
      </trkpt>
      <trkpt lat="41.1919" lon="29.20908">
        <ele>9.844494</ele>
        <time>2021-08-22T21:43:22.735Z</time>
      </trkpt>
      <trkpt lat="41.19087" lon="29.20759">
        <ele>12.318411</ele>
        <time>2021-08-22T21:44:23.411Z</time>
      </trkpt>
      <trkpt lat="41.18971" lon="29.20548">
        <ele>16.745735</ele>
        <time>2021-08-22T21:45:50.843Z</time>
      </trkpt>
      <trkpt lat="41.18933" lon="29.20481">
        <ele>18.912853</ele>
        <time>2021-08-22T21:46:19.467Z</time>
      </trkpt>
      <trkpt lat="41.18911" lon="29.2044">
        <ele>20.539149</ele>
        <time>2021-08-22T21:46:38.169Z</time>
      </trkpt>
      <trkpt lat="41.18859" lon="29.20354">
        <ele>24.097989</ele>
        <time>2021-08-22T21:47:25.996Z</time>
      </trkpt>
      <trkpt lat="41.18827" lon="29.20329">
        <ele>25.96783</ele>
        <time>2021-08-22T21:47:49.845Z</time>
      </trkpt>
      <trkpt lat="41.18744" lon="29.20225">
        <ele>33.366169</ele>
        <time>2021-08-22T21:49:09.315Z</time>
      </trkpt>
      <trkpt lat="41.18523" lon="29.19939">
        <ele>49.704353</ele>
        <time>2021-08-22T21:52:36.832Z</time>
      </trkpt>
      <trkpt lat="41.18465" lon="29.19871">
        <ele>51.06213</ele>
        <time>2021-08-22T21:52:58.764Z</time>
      </trkpt>
      <trkpt lat="41.18461" lon="29.19883">
        <ele>51.241418</ele>
        <time>2021-08-22T21:53:01.292Z</time>
      </trkpt>
      <trkpt lat="41.18439" lon="29.19936">
        <ele>50.153466</ele>
        <time>2021-08-22T21:53:12.070Z</time>
      </trkpt>
      <trkpt lat="41.18387" lon="29.19999">
        <ele>46.76536</ele>
        <time>2021-08-22T21:53:27.673Z</time>
      </trkpt>
      <trkpt lat="41.18374" lon="29.20022">
        <ele>45.692545</ele>
        <time>2021-08-22T21:53:32.459Z</time>
      </trkpt>
      <trkpt lat="41.18348" lon="29.20056">
        <ele>43.937429</ele>
        <time>2021-08-22T21:53:40.168Z</time>
      </trkpt>
      <trkpt lat="41.18314" lon="29.20076">
        <ele>42.0677</ele>
        <time>2021-08-22T21:53:48.195Z</time>
      </trkpt>
      <trkpt lat="41.18279" lon="29.20085">
        <ele>40.199807</ele>
        <time>2021-08-22T21:53:55.914Z</time>
      </trkpt>
      <trkpt lat="41.18228" lon="29.20089">
        <ele>37.484134</ele>
        <time>2021-08-22T21:54:07.364Z</time>
      </trkpt>
      <trkpt lat="41.18173" lon="29.20114">
        <ele>34.398301</ele>
        <time>2021-08-22T21:54:20.430Z</time>
      </trkpt>
      <trkpt lat="41.1809" lon="29.20149">
        <ele>29.573975</ele>
        <time>2021-08-22T21:54:38.990Z</time>
      </trkpt>
      <trkpt lat="41.18051" lon="29.20187">
        <ele>26.856152</ele>
        <time>2021-08-22T21:54:49.304Z</time>
      </trkpt>
      <trkpt lat="41.18005" lon="29.20222">
        <ele>23.85868</ele>
        <time>2021-08-22T21:55:00.826Z</time>
      </trkpt>
      <trkpt lat="41.17988" lon="29.20258">
        <ele>22.54409</ele>
        <time>2021-08-22T21:55:07.789Z</time>
      </trkpt>
      <trkpt lat="41.17975" lon="29.20287">
        <ele>21.80071</ele>
        <time>2021-08-22T21:55:13.342Z</time>
      </trkpt>
      <trkpt lat="41.17964" lon="29.20309">
        <ele>21.230025</ele>
        <time>2021-08-22T21:55:17.529Z</time>
      </trkpt>
      <trkpt lat="41.17944" lon="29.20306">
        <ele>20.636968</ele>
        <time>2021-08-22T21:55:22.071Z</time>
      </trkpt>
      <trkpt lat="41.1789" lon="29.20257">
        <ele>18.704149</ele>
        <time>2021-08-22T21:55:37.725Z</time>
      </trkpt>
      <trkpt lat="41.17845" lon="29.20228">
        <ele>17.766669</ele>
        <time>2021-08-22T21:55:51.567Z</time>
      </trkpt>
      <trkpt lat="41.17766" lon="29.20216">
        <ele>17.577758</ele>
        <time>2021-08-22T21:56:15.976Z</time>
      </trkpt>
      <trkpt lat="41.17738" lon="29.20213">
        <ele>17.511953</ele>
        <time>2021-08-22T21:56:24.808Z</time>
      </trkpt>
      <trkpt lat="41.17692" lon="29.20232">
        <ele>17.396937</ele>
        <time>2021-08-22T21:56:39.958Z</time>
      </trkpt>
      <trkpt lat="41.17613" lon="29.2031">
        <ele>17.432839</ele>
        <time>2021-08-22T21:57:10.247Z</time>
      </trkpt>
      <trkpt lat="41.17581" lon="29.20327">
        <ele>17.449584</ele>
        <time>2021-08-22T21:57:20.839Z</time>
      </trkpt>
      <trkpt lat="41.17547" lon="29.20338">
        <ele>17.466646</ele>
        <time>2021-08-22T21:57:31.927Z</time>
      </trkpt>
      <trkpt lat="41.17517" lon="29.20347">
        <ele>17.566671</ele>
        <time>2021-08-22T21:57:41.939Z</time>
      </trkpt>
      <trkpt lat="41.17451" lon="29.20345">
        <ele>17.988454</ele>
        <time>2021-08-22T21:58:04.478Z</time>
      </trkpt>
      <trkpt lat="41.17443" lon="29.20343">
        <ele>18.035882</ele>
        <time>2021-08-22T21:58:07.224Z</time>
      </trkpt>
      <trkpt lat="41.17403" lon="29.2032">
        <ele>18.312473</ele>
        <time>2021-08-22T21:58:22.552Z</time>
      </trkpt>
      <trkpt lat="41.17387" lon="29.20312">
        <ele>18.423489</ele>
        <time>2021-08-22T21:58:28.796Z</time>
      </trkpt>
      <trkpt lat="41.1734" lon="29.20288">
        <ele>18.789976</ele>
        <time>2021-08-22T21:58:46.935Z</time>
      </trkpt>
      <trkpt lat="41.17289" lon="29.20264">
        <ele>19.273217</ele>
        <time>2021-08-22T21:59:06.793Z</time>
      </trkpt>
      <trkpt lat="41.17254" lon="29.20251">
        <ele>19.588245</ele>
        <time>2021-08-22T21:59:19.634Z</time>
      </trkpt>
      <trkpt lat="41.17203" lon="29.20224">
        <ele>20.078838</ele>
        <time>2021-08-22T21:59:40.207Z</time>
      </trkpt>
      <trkpt lat="41.17125" lon="29.20175">
        <ele>20.553162</ele>
        <time>2021-08-22T22:00:09.921Z</time>
      </trkpt>
      <trkpt lat="41.17095" lon="29.20163">
        <ele>20.709095</ele>
        <time>2021-08-22T22:00:20.173Z</time>
      </trkpt>
      <trkpt lat="41.17052" lon="29.20153">
        <ele>20.920858</ele>
        <time>2021-08-22T22:00:34.400Z</time>
      </trkpt>
      <trkpt lat="41.16999" lon="29.2014">
        <ele>21.175017</ele>
        <time>2021-08-22T22:00:52.781Z</time>
      </trkpt>
      <trkpt lat="41.16992" lon="29.20138">
        <ele>21.205116</ele>
        <time>2021-08-22T22:00:54.874Z</time>
      </trkpt>
      <trkpt lat="41.16966" lon="29.2013">
        <ele>21.318762</ele>
        <time>2021-08-22T22:01:04.072Z</time>
      </trkpt>
      <trkpt lat="41.16948" lon="29.2013">
        <ele>21.396554</ele>
        <time>2021-08-22T22:01:10.165Z</time>
      </trkpt>
      <trkpt lat="41.16858" lon="29.2013">
        <ele>21.787665</ele>
        <time>2021-08-22T22:01:39.884Z</time>
      </trkpt>
      <trkpt lat="41.16832" lon="29.2012">
        <ele>21.928654</ele>
        <time>2021-08-22T22:01:48.669Z</time>
      </trkpt>
      <trkpt lat="41.16809" lon="29.20105">
        <ele>22.106587</ele>
        <time>2021-08-22T22:01:57.706Z</time>
      </trkpt>
      <trkpt lat="41.16808" lon="29.20104">
        <ele>22.116793</ele>
        <time>2021-08-22T22:01:58.212Z</time>
      </trkpt>
      <trkpt lat="41.1675" lon="29.20061">
        <ele>22.578355</ele>
        <time>2021-08-22T22:02:22.481Z</time>
      </trkpt>
      <trkpt lat="41.16614" lon="29.19933">
        <ele>23.585964</ele>
        <time>2021-08-22T22:03:19.676Z</time>
      </trkpt>
      <trkpt lat="41.16582" lon="29.19891">
        <ele>23.825073</ele>
        <time>2021-08-22T22:03:35.047Z</time>
      </trkpt>
      <trkpt lat="41.16575" lon="29.1988">
        <ele>23.881702</ele>
        <time>2021-08-22T22:03:38.570Z</time>
      </trkpt>
      <trkpt lat="41.16533" lon="29.19812">
        <ele>24.286081</ele>
        <time>2021-08-22T22:04:01.399Z</time>
      </trkpt>
      <trkpt lat="41.16496" lon="29.19754">
        <ele>24.678614</ele>
        <time>2021-08-22T22:04:20.998Z</time>
      </trkpt>
      <trkpt lat="41.16437" lon="29.19666">
        <ele>25.284907</ele>
        <time>2021-08-22T22:04:51.913Z</time>
      </trkpt>
      <trkpt lat="41.16403" lon="29.1962">
        <ele>25.779355</ele>
        <time>2021-08-22T22:05:10.176Z</time>
      </trkpt>
      <trkpt lat="41.16387" lon="29.19605">
        <ele>25.981137</ele>
        <time>2021-08-22T22:05:17.446Z</time>
      </trkpt>
      <trkpt lat="41.16341" lon="29.19563">
        <ele>26.559418</ele>
        <time>2021-08-22T22:05:38.509Z</time>
      </trkpt>
      <trkpt lat="41.16308" lon="29.1951">
        <ele>27.09424</ele>
        <time>2021-08-22T22:05:58.119Z</time>
      </trkpt>
      <trkpt lat="41.16292" lon="29.19426">
        <ele>27.460412</ele>
        <time>2021-08-22T22:06:21.599Z</time>
      </trkpt>
      <trkpt lat="41.16283" lon="29.19388">
        <ele>27.612158</ele>
        <time>2021-08-22T22:06:31.436Z</time>
      </trkpt>
      <trkpt lat="41.16276" lon="29.1937">
        <ele>27.690332</ele>
        <time>2021-08-22T22:06:35.964Z</time>
      </trkpt>
      <trkpt lat="41.16264" lon="29.19358">
        <ele>27.771071</ele>
        <time>2021-08-22T22:06:41.442Z</time>
      </trkpt>
      <trkpt lat="41.16245" lon="29.19348">
        <ele>27.876199</ele>
        <time>2021-08-22T22:06:47.500Z</time>
      </trkpt>
      <trkpt lat="41.16165" lon="29.19335">
        <ele>28.415167</ele>
        <time>2021-08-22T22:07:14.547Z</time>
      </trkpt>
      <trkpt lat="41.16147" lon="29.19328">
        <ele>28.57432</ele>
        <time>2021-08-22T22:07:20.991Z</time>
      </trkpt>
      <trkpt lat="41.1614" lon="29.19326">
        <ele>28.632386</ele>
        <time>2021-08-22T22:07:23.331Z</time>
      </trkpt>
      <trkpt lat="41.1612" lon="29.19308">
        <ele>28.833341</ele>
        <time>2021-08-22T22:07:31.865Z</time>
      </trkpt>
      <trkpt lat="41.16106" lon="29.19291">
        <ele>28.989002</ele>
        <time>2021-08-22T22:07:38.321Z</time>
      </trkpt>
      <trkpt lat="41.16016" lon="29.19138">
        <ele>30.735831</ele>
        <time>2021-08-22T22:08:35.161Z</time>
      </trkpt>
      <trkpt lat="41.15976" lon="29.19095">
        <ele>31.51859</ele>
        <time>2021-08-22T22:08:55.797Z</time>
      </trkpt>
      <trkpt lat="41.15966" lon="29.19091">
        <ele>31.687546</ele>
        <time>2021-08-22T22:09:01.237Z</time>
      </trkpt>
      <trkpt lat="41.1596" lon="29.19088">
        <ele>31.781645</ele>
        <time>2021-08-22T22:09:02.948Z</time>
      </trkpt>
      <trkpt lat="41.15941" lon="29.19094">
        <ele>32.070528</ele>
        <time>2021-08-22T22:09:10.499Z</time>
      </trkpt>
      <trkpt lat="41.15921" lon="29.19112">
        <ele>32.395213</ele>
        <time>2021-08-22T22:09:20.733Z</time>
      </trkpt>
      <trkpt lat="41.15901" lon="29.19129">
        <ele>32.596352</ele>
        <time>2021-08-22T22:09:30.336Z</time>
      </trkpt>
      <trkpt lat="41.15893" lon="29.1913">
        <ele>32.666862</ele>
        <time>2021-08-22T22:09:32.861Z</time>
      </trkpt>
      <trkpt lat="41.15885" lon="29.19131">
        <ele>32.733075</ele>
        <time>2021-08-22T22:09:35.897Z</time>
      </trkpt>
      <trkpt lat="41.1586" lon="29.19132">
        <ele>32.950284</ele>
        <time>2021-08-22T22:09:45.033Z</time>
      </trkpt>
      <trkpt lat="41.15832" lon="29.19133">
        <ele>33.19344</ele>
        <time>2021-08-22T22:09:55.871Z</time>
      </trkpt>
      <trkpt lat="41.15757" lon="29.19133">
        <ele>33.841432</ele>
        <time>2021-08-22T22:10:19.193Z</time>
      </trkpt>
      <trkpt lat="41.15732" lon="29.19127">
        <ele>34.077252</ele>
        <time>2021-08-22T22:10:28.404Z</time>
      </trkpt>
      <trkpt lat="41.1568" lon="29.19096">
        <ele>34.615831</ele>
        <time>2021-08-22T22:10:48.398Z</time>
      </trkpt>
      <trkpt lat="41.15638" lon="29.19071">
        <ele>35.038654</ele>
        <time>2021-08-22T22:11:04.690Z</time>
      </trkpt>
      <trkpt lat="41.15588" lon="29.19038">
        <ele>35.562802</ele>
        <time>2021-08-22T22:11:25.735Z</time>
      </trkpt>
      <trkpt lat="41.15544" lon="29.19013">
        <ele>36.64428</ele>
        <time>2021-08-22T22:11:46.577Z</time>
      </trkpt>
      <trkpt lat="41.15523" lon="29.19002">
        <ele>37.162235</ele>
        <time>2021-08-22T22:11:55.822Z</time>
      </trkpt>
      <trkpt lat="41.15513" lon="29.18996">
        <ele>37.42017</ele>
        <time>2021-08-22T22:12:02.208Z</time>
      </trkpt>
      <trkpt lat="41.15482" lon="29.18965">
        <ele>38.300911</ele>
        <time>2021-08-22T22:12:21.113Z</time>
      </trkpt>
      <trkpt lat="41.15446" lon="29.18898">
        <ele>39.667975</ele>
        <time>2021-08-22T22:12:49.978Z</time>
      </trkpt>
      <trkpt lat="41.15419" lon="29.18869">
        <ele>40.17553</ele>
        <time>2021-08-22T22:13:04.859Z</time>
      </trkpt>
      <trkpt lat="41.1534" lon="29.18901">
        <ele>41.386242</ele>
        <time>2021-08-22T22:13:36.788Z</time>
      </trkpt>
      <trkpt lat="41.15334" lon="29.18893">
        <ele>41.513642</ele>
        <time>2021-08-22T22:13:39.759Z</time>
      </trkpt>
      <trkpt lat="41.15312" lon="29.18886">
        <ele>41.836887</ele>
        <time>2021-08-22T22:13:47.846Z</time>
      </trkpt>
      <trkpt lat="41.15286" lon="29.1888">
        <ele>42.233339</ele>
        <time>2021-08-22T22:13:58.132Z</time>
      </trkpt>
      <trkpt lat="41.15266" lon="29.18873">
        <ele>42.754131</ele>
        <time>2021-08-22T22:14:06.975Z</time>
      </trkpt>
      <trkpt lat="41.15259" lon="29.18877">
        <ele>42.958485</ele>
        <time>2021-08-22T22:14:10.476Z</time>
      </trkpt>
      <trkpt lat="41.15223" lon="29.18907">
        <ele>44.06153</ele>
        <time>2021-08-22T22:14:29.082Z</time>
      </trkpt>
      <trkpt lat="41.1521" lon="29.18893">
        <ele>44.501332</ele>
        <time>2021-08-22T22:14:38.643Z</time>
      </trkpt>
      <trkpt lat="41.15208" lon="29.18882">
        <ele>44.726804</ele>
        <time>2021-08-22T22:14:41.831Z</time>
      </trkpt>
      <trkpt lat="41.1518" lon="29.18839">
        <ele>45.842259</ele>
        <time>2021-08-22T22:15:00.650Z</time>
      </trkpt>
      <trkpt lat="41.15167" lon="29.18825">
        <ele>46.268033</ele>
        <time>2021-08-22T22:15:09.399Z</time>
      </trkpt>
      <trkpt lat="41.15142" lon="29.18815">
        <ele>46.942115</ele>
        <time>2021-08-22T22:15:21.780Z</time>
      </trkpt>
      <trkpt lat="41.15112" lon="29.18791">
        <ele>48.86189</ele>
        <time>2021-08-22T22:15:40.092Z</time>
      </trkpt>
      <trkpt lat="41.151" lon="29.18782">
        <ele>49.634307</ele>
        <time>2021-08-22T22:15:49.084Z</time>
      </trkpt>
      <trkpt lat="41.15136" lon="29.18744">
        <ele>52.188936</ele>
        <time>2021-08-22T22:16:16.263Z</time>
      </trkpt>
      <trkpt lat="41.15142" lon="29.18722">
        <ele>53.135827</ele>
        <time>2021-08-22T22:16:27.364Z</time>
      </trkpt>
      <trkpt lat="41.15142" lon="29.18667">
        <ele>55.421767</ele>
        <time>2021-08-22T22:16:56.758Z</time>
      </trkpt>
      <trkpt lat="41.15159" lon="29.18587">
        <ele>61.088337</ele>
        <time>2021-08-22T22:17:40.969Z</time>
      </trkpt>
      <trkpt lat="41.15209" lon="29.18529">
        <ele>68.706789</ele>
        <time>2021-08-22T22:18:41.511Z</time>
      </trkpt>
      <trkpt lat="41.15249" lon="29.18492">
        <ele>74.364856</ele>
        <time>2021-08-22T22:19:35.159Z</time>
      </trkpt>
      <trkpt lat="41.15287" lon="29.18453">
        <ele>81.202143</ele>
        <time>2021-08-22T22:20:33.083Z</time>
      </trkpt>
      <trkpt lat="41.15311" lon="29.1842">
        <ele>87.490419</ele>
        <time>2021-08-22T22:21:17.665Z</time>
      </trkpt>
      <trkpt lat="41.15333" lon="29.18385">
        <ele>93.635043</ele>
        <time>2021-08-22T22:22:03.389Z</time>
      </trkpt>
      <trkpt lat="41.15333" lon="29.18377">
        <ele>94.690532</ele>
        <time>2021-08-22T22:22:11.548Z</time>
      </trkpt>
      <trkpt lat="41.15289" lon="29.18266">
        <ele>111.565403</ele>
        <time>2021-08-22T22:24:29.089Z</time>
      </trkpt>
      <trkpt lat="41.1526" lon="29.18185">
        <ele>121.41172</ele>
        <time>2021-08-22T22:25:57.504Z</time>
      </trkpt>
      <trkpt lat="41.15247" lon="29.18166">
        <ele>124.243515</ele>
        <time>2021-08-22T22:26:22.192Z</time>
      </trkpt>
      <trkpt lat="41.15241" lon="29.18141">
        <ele>127.140367</ele>
        <time>2021-08-22T22:26:42.552Z</time>
      </trkpt>
      <trkpt lat="41.15249" lon="29.18118">
        <ele>129.946789</ele>
        <time>2021-08-22T22:27:04.300Z</time>
      </trkpt>
      <trkpt lat="41.15264" lon="29.18102">
        <ele>132.639974</ele>
        <time>2021-08-22T22:27:21.217Z</time>
      </trkpt>
      <trkpt lat="41.15299" lon="29.18066">
        <ele>137.424818</ele>
        <time>2021-08-22T22:28:03.299Z</time>
      </trkpt>
      <trkpt lat="41.15196" lon="29.18068">
        <ele>142.135407</ele>
        <time>2021-08-22T22:29:03.017Z</time>
      </trkpt>
      <trkpt lat="41.15121" lon="29.18069">
        <ele>144.926484</ele>
        <time>2021-08-22T22:29:31.810Z</time>
      </trkpt>
      <trkpt lat="41.1502" lon="29.18051">
        <ele>145.817852</ele>
        <time>2021-08-22T22:30:09.337Z</time>
      </trkpt>
      <trkpt lat="41.14967" lon="29.18046">
        <ele>146.283422</ele>
        <time>2021-08-22T22:30:29.155Z</time>
      </trkpt>
      <trkpt lat="41.14884" lon="29.1804">
        <ele>146.406694</ele>
        <time>2021-08-22T22:30:58.068Z</time>
      </trkpt>
      <trkpt lat="41.14788" lon="29.17969">
        <ele>146.455545</ele>
        <time>2021-08-22T22:31:32.453Z</time>
      </trkpt>
      <trkpt lat="41.1469" lon="29.17882">
        <ele>145.774728</ele>
        <time>2021-08-22T22:32:08.209Z</time>
      </trkpt>
      <trkpt lat="41.14623" lon="29.17832">
        <ele>144.878624</ele>
        <time>2021-08-22T22:32:30.596Z</time>
      </trkpt>
      <trkpt lat="41.14615" lon="29.17816">
        <ele>144.461215</ele>
        <time>2021-08-22T22:32:34.354Z</time>
      </trkpt>
      <trkpt lat="41.14625" lon="29.17802">
        <ele>144.03778</ele>
        <time>2021-08-22T22:32:38.869Z</time>
      </trkpt>
      <trkpt lat="41.14632" lon="29.17787">
        <ele>143.655807</ele>
        <time>2021-08-22T22:32:42.154Z</time>
      </trkpt>
      <trkpt lat="41.14638" lon="29.17745">
        <ele>142.7028</ele>
        <time>2021-08-22T22:32:50.510Z</time>
      </trkpt>
      <trkpt lat="41.14634" lon="29.17729">
        <ele>142.342128</ele>
        <time>2021-08-22T22:32:53.437Z</time>
      </trkpt>
      <trkpt lat="41.146" lon="29.17667">
        <ele>140.653875</ele>
        <time>2021-08-22T22:33:07.086Z</time>
      </trkpt>
      <trkpt lat="41.14576" lon="29.17663">
        <ele>139.634447</ele>
        <time>2021-08-22T22:33:12.478Z</time>
      </trkpt>
      <trkpt lat="41.14568" lon="29.17656">
        <ele>139.013919</ele>
        <time>2021-08-22T22:33:14.587Z</time>
      </trkpt>
      <trkpt lat="41.14574" lon="29.17603">
        <ele>136.370146</ele>
        <time>2021-08-22T22:33:22.944Z</time>
      </trkpt>
      <trkpt lat="41.14571" lon="29.17592">
        <ele>135.797274</ele>
        <time>2021-08-22T22:33:24.818Z</time>
      </trkpt>
      <trkpt lat="41.14551" lon="29.1755">
        <ele>133.372242</ele>
        <time>2021-08-22T22:33:32.547Z</time>
      </trkpt>
      <trkpt lat="41.14537" lon="29.17536">
        <ele>132.244778</ele>
        <time>2021-08-22T22:33:36.083Z</time>
      </trkpt>
      <trkpt lat="41.14503" lon="29.17481">
        <ele>128.757193</ele>
        <time>2021-08-22T22:33:47.636Z</time>
      </trkpt>
      <trkpt lat="41.14496" lon="29.17467">
        <ele>128.231149</ele>
        <time>2021-08-22T22:33:50.144Z</time>
      </trkpt>
      <trkpt lat="41.1449" lon="29.17463">
        <ele>128.014939</ele>
        <time>2021-08-22T22:33:51.932Z</time>
      </trkpt>
      <trkpt lat="41.14475" lon="29.17455">
        <ele>127.492071</ele>
        <time>2021-08-22T22:33:55.887Z</time>
      </trkpt>
      <trkpt lat="41.14463" lon="29.17453">
        <ele>127.087234</ele>
        <time>2021-08-22T22:33:58.411Z</time>
      </trkpt>
      <trkpt lat="41.14461" lon="29.17457">
        <ele>126.962259</ele>
        <time>2021-08-22T22:33:59.797Z</time>
      </trkpt>
      <trkpt lat="41.14436" lon="29.17469">
        <ele>126.109451</ele>
        <time>2021-08-22T22:34:05.842Z</time>
      </trkpt>
      <trkpt lat="41.14382" lon="29.17467">
        <ele>124.327428</ele>
        <time>2021-08-22T22:34:18.457Z</time>
      </trkpt>
      <trkpt lat="41.14357" lon="29.17467">
        <ele>123.507589</ele>
        <time>2021-08-22T22:34:23.880Z</time>
      </trkpt>
      <trkpt lat="41.14335" lon="29.17471">
        <ele>122.766405</ele>
        <time>2021-08-22T22:34:30.932Z</time>
      </trkpt>
      <trkpt lat="41.1429" lon="29.1748">
        <ele>121.955648</ele>
        <time>2021-08-22T22:34:43.869Z</time>
      </trkpt>
      <trkpt lat="41.1428" lon="29.17481">
        <ele>121.793375</ele>
        <time>2021-08-22T22:34:47.451Z</time>
      </trkpt>
      <trkpt lat="41.14257" lon="29.17467">
        <ele>121.385675</ele>
        <time>2021-08-22T22:34:53.574Z</time>
      </trkpt>
      <trkpt lat="41.14213" lon="29.17451">
        <ele>120.636765</ele>
        <time>2021-08-22T22:35:05.611Z</time>
      </trkpt>
      <trkpt lat="41.14177" lon="29.17423">
        <ele>119.9542</ele>
        <time>2021-08-22T22:35:15.457Z</time>
      </trkpt>
      <trkpt lat="41.14115" lon="29.17276">
        <ele>118.179845</ele>
        <time>2021-08-22T22:35:46.296Z</time>
      </trkpt>
      <trkpt lat="41.14088" lon="29.17248">
        <ele>117.696131</ele>
        <time>2021-08-22T22:35:56.346Z</time>
      </trkpt>
      <trkpt lat="41.14074" lon="29.17239">
        <ele>117.491545</ele>
        <time>2021-08-22T22:36:01.068Z</time>
      </trkpt>
      <trkpt lat="41.1407" lon="29.17236">
        <ele>117.425758</ele>
        <time>2021-08-22T22:36:02.513Z</time>
      </trkpt>
      <trkpt lat="41.14046" lon="29.1722">
        <ele>117.292466</ele>
        <time>2021-08-22T22:36:10.733Z</time>
      </trkpt>
      <trkpt lat="41.1401" lon="29.17188">
        <ele>117.554332</ele>
        <time>2021-08-22T22:36:25.019Z</time>
      </trkpt>
      <trkpt lat="41.13989" lon="29.17165">
        <ele>117.719489</ele>
        <time>2021-08-22T22:36:34.369Z</time>
      </trkpt>
      <trkpt lat="41.13936" lon="29.17097">
        <ele>118.161529</ele>
        <time>2021-08-22T22:37:01.072Z</time>
      </trkpt>
      <trkpt lat="41.13909" lon="29.17062">
        <ele>118.546107</ele>
        <time>2021-08-22T22:37:14.721Z</time>
      </trkpt>
      <trkpt lat="41.13878" lon="29.17022">
        <ele>119.274416</ele>
        <time>2021-08-22T22:37:30.824Z</time>
      </trkpt>
      <trkpt lat="41.13837" lon="29.16972">
        <ele>120.230371</ele>
        <time>2021-08-22T22:37:53.115Z</time>
      </trkpt>
      <trkpt lat="41.1378" lon="29.16911">
        <ele>121.541728</ele>
        <time>2021-08-22T22:38:25.459Z</time>
      </trkpt>
      <trkpt lat="41.13775" lon="29.16906">
        <ele>121.706273</ele>
        <time>2021-08-22T22:38:28.438Z</time>
      </trkpt>
      <trkpt lat="41.1376" lon="29.1689">
        <ele>122.217916</ele>
        <time>2021-08-22T22:38:37.444Z</time>
      </trkpt>
      <trkpt lat="41.13745" lon="29.16873">
        <ele>122.738365</ele>
        <time>2021-08-22T22:38:46.552Z</time>
      </trkpt>
      <trkpt lat="41.13712" lon="29.16834">
        <ele>123.914155</ele>
        <time>2021-08-22T22:39:06.879Z</time>
      </trkpt>
      <trkpt lat="41.13673" lon="29.16782">
        <ele>125.414349</ele>
        <time>2021-08-22T22:39:32.882Z</time>
      </trkpt>
      <trkpt lat="41.13663" lon="29.16769">
        <ele>125.773751</ele>
        <time>2021-08-22T22:39:39.732Z</time>
      </trkpt>
      <trkpt lat="41.13639" lon="29.16735">
        <ele>126.559233</ele>
        <time>2021-08-22T22:39:56.068Z</time>
      </trkpt>
      <trkpt lat="41.13606" lon="29.16682">
        <ele>127.548227</ele>
        <time>2021-08-22T22:40:18.869Z</time>
      </trkpt>
      <trkpt lat="41.13575" lon="29.1664">
        <ele>128.389427</ele>
        <time>2021-08-22T22:40:36.994Z</time>
      </trkpt>
      <trkpt lat="41.13567" lon="29.1663">
        <ele>128.603605</ele>
        <time>2021-08-22T22:40:41.855Z</time>
      </trkpt>
      <trkpt lat="41.13543" lon="29.16599">
        <ele>129.240395</ele>
        <time>2021-08-22T22:40:54.119Z</time>
      </trkpt>
      <trkpt lat="41.13523" lon="29.16573">
        <ele>129.724914</ele>
        <time>2021-08-22T22:41:04.549Z</time>
      </trkpt>
      <trkpt lat="41.13505" lon="29.16556">
        <ele>130.021078</ele>
        <time>2021-08-22T22:41:13.630Z</time>
      </trkpt>
      <trkpt lat="41.13497" lon="29.16548">
        <ele>130.151843</ele>
        <time>2021-08-22T22:41:17.175Z</time>
      </trkpt>
      <trkpt lat="41.13399" lon="29.16461">
        <ele>131.705034</ele>
        <time>2021-08-22T22:42:01.823Z</time>
      </trkpt>
      <trkpt lat="41.13374" lon="29.16443">
        <ele>132.109172</ele>
        <time>2021-08-22T22:42:13.001Z</time>
      </trkpt>
      <trkpt lat="41.13297" lon="29.16379">
        <ele>133.706156</ele>
        <time>2021-08-22T22:42:50.399Z</time>
      </trkpt>
      <trkpt lat="41.13287" lon="29.16371">
        <ele>133.903755</ele>
        <time>2021-08-22T22:42:55.596Z</time>
      </trkpt>
      <trkpt lat="41.13258" lon="29.16355">
        <ele>134.470373</ele>
        <time>2021-08-22T22:43:08.852Z</time>
      </trkpt>
      <trkpt lat="41.132" lon="29.16323">
        <ele>135.621994</ele>
        <time>2021-08-22T22:43:34.328Z</time>
      </trkpt>
      <trkpt lat="41.13188" lon="29.16316">
        <ele>135.874155</ele>
        <time>2021-08-22T22:43:39.933Z</time>
      </trkpt>
      <trkpt lat="41.13161" lon="29.16297">
        <ele>136.462413</ele>
        <time>2021-08-22T22:43:52.234Z</time>
      </trkpt>
      <trkpt lat="41.13101" lon="29.16255">
        <ele>137.797247</ele>
        <time>2021-08-22T22:44:20.553Z</time>
      </trkpt>
      <trkpt lat="41.13046" lon="29.16214">
        <ele>139.259081</ele>
        <time>2021-08-22T22:44:47.523Z</time>
      </trkpt>
      <trkpt lat="41.13031" lon="29.16202">
        <ele>139.809341</ele>
        <time>2021-08-22T22:44:55.871Z</time>
      </trkpt>
      <trkpt lat="41.12971" lon="29.16134">
        <ele>142.254244</ele>
        <time>2021-08-22T22:45:34.056Z</time>
      </trkpt>
      <trkpt lat="41.12947" lon="29.16107">
        <ele>143.239376</ele>
        <time>2021-08-22T22:45:50.264Z</time>
      </trkpt>
      <trkpt lat="41.12902" lon="29.16063">
        <ele>144.964818</ele>
        <time>2021-08-22T22:46:19.416Z</time>
      </trkpt>
      <trkpt lat="41.12856" lon="29.16017">
        <ele>146.687915</ele>
        <time>2021-08-22T22:46:48.865Z</time>
      </trkpt>
      <trkpt lat="41.12847" lon="29.16012">
        <ele>146.978921</ele>
        <time>2021-08-22T22:46:53.892Z</time>
      </trkpt>
      <trkpt lat="41.12792" lon="29.15974">
        <ele>148.826594</ele>
        <time>2021-08-22T22:47:22.639Z</time>
      </trkpt>
      <trkpt lat="41.12754" lon="29.15936">
        <ele>150.044566</ele>
        <time>2021-08-22T22:47:42.557Z</time>
      </trkpt>
      <trkpt lat="41.12737" lon="29.15907">
        <ele>150.599862</ele>
        <time>2021-08-22T22:47:54.047Z</time>
      </trkpt>
      <trkpt lat="41.12704" lon="29.15889">
        <ele>151.333103</ele>
        <time>2021-08-22T22:48:08.864Z</time>
      </trkpt>
      <trkpt lat="41.12691" lon="29.15874">
        <ele>151.686827</ele>
        <time>2021-08-22T22:48:15.495Z</time>
      </trkpt>
      <trkpt lat="41.12652" lon="29.15828">
        <ele>152.738889</ele>
        <time>2021-08-22T22:48:37.362Z</time>
      </trkpt>
      <trkpt lat="41.12632" lon="29.15812">
        <ele>153.213641</ele>
        <time>2021-08-22T22:48:47.252Z</time>
      </trkpt>
      <trkpt lat="41.12619" lon="29.15806">
        <ele>153.687827</ele>
        <time>2021-08-22T22:48:53.924Z</time>
      </trkpt>
      <trkpt lat="41.12612" lon="29.15804">
        <ele>153.953523</ele>
        <time>2021-08-22T22:48:56.970Z</time>
      </trkpt>
      <trkpt lat="41.12593" lon="29.15793">
        <ele>154.755401</ele>
        <time>2021-08-22T22:49:05.966Z</time>
      </trkpt>
      <trkpt lat="41.12576" lon="29.15782">
        <ele>155.492651</ele>
        <time>2021-08-22T22:49:15.202Z</time>
      </trkpt>
      <trkpt lat="41.12557" lon="29.15735">
        <ele>157.103375</ele>
        <time>2021-08-22T22:49:35.860Z</time>
      </trkpt>
      <trkpt lat="41.12554" lon="29.15729">
        <ele>157.297258</ele>
        <time>2021-08-22T22:49:38.739Z</time>
      </trkpt>
      <trkpt lat="41.12528" lon="29.15687">
        <ele>158.921262</ele>
        <time>2021-08-22T22:50:03.115Z</time>
      </trkpt>
      <trkpt lat="41.12507" lon="29.15644">
        <ele>160.4459</ele>
        <time>2021-08-22T22:50:26.342Z</time>
      </trkpt>
      <trkpt lat="41.12492" lon="29.15621">
        <ele>161.779034</ele>
        <time>2021-08-22T22:50:40.321Z</time>
      </trkpt>
      <trkpt lat="41.12455" lon="29.15626">
        <ele>163.935814</ele>
        <time>2021-08-22T22:51:03.311Z</time>
      </trkpt>
      <trkpt lat="41.12426" lon="29.15628">
        <ele>165.609811</ele>
        <time>2021-08-22T22:51:22.282Z</time>
      </trkpt>
      <trkpt lat="41.12399" lon="29.15619">
        <ele>167.168171</ele>
        <time>2021-08-22T22:51:39.079Z</time>
      </trkpt>
      <trkpt lat="41.12381" lon="29.15602">
        <ele>168.451791</ele>
        <time>2021-08-22T22:51:53.111Z</time>
      </trkpt>
      <trkpt lat="41.1233" lon="29.15514">
        <ele>174.035493</ele>
        <time>2021-08-22T22:52:49.411Z</time>
      </trkpt>
      <trkpt lat="41.1231" lon="29.15455">
        <ele>177.645205</ele>
        <time>2021-08-22T22:53:22.660Z</time>
      </trkpt>
      <trkpt lat="41.12302" lon="29.15429">
        <ele>179.2178</ele>
        <time>2021-08-22T22:53:38.949Z</time>
      </trkpt>
      <trkpt lat="41.12296" lon="29.154">
        <ele>180.909673</ele>
        <time>2021-08-22T22:53:56.212Z</time>
      </trkpt>
      <trkpt lat="41.12287" lon="29.15336">
        <ele>184.78623</ele>
        <time>2021-08-22T22:54:34.970Z</time>
      </trkpt>
      <trkpt lat="41.12282" lon="29.15275">
        <ele>189.597685</ele>
        <time>2021-08-22T22:55:12.886Z</time>
      </trkpt>
      <trkpt lat="41.12279" lon="29.15244">
        <ele>192.080753</ele>
        <time>2021-08-22T22:55:34.587Z</time>
      </trkpt>
      <trkpt lat="41.12249" lon="29.15147">
        <ele>200.382254</ele>
        <time>2021-08-22T22:56:47.190Z</time>
      </trkpt>
      <trkpt lat="41.12246" lon="29.1512">
        <ele>202.469265</ele>
        <time>2021-08-22T22:57:07.449Z</time>
      </trkpt>
      <trkpt lat="41.1225" lon="29.15072">
        <ele>206.405037</ele>
        <time>2021-08-22T22:57:45.206Z</time>
      </trkpt>
      <trkpt lat="41.12243" lon="29.15038">
        <ele>209.30261</ele>
        <time>2021-08-22T22:58:11.512Z</time>
      </trkpt>
      <trkpt lat="41.12226" lon="29.15017">
        <ele>211.775692</ele>
        <time>2021-08-22T22:58:32.697Z</time>
      </trkpt>
      <trkpt lat="41.12151" lon="29.14964">
        <ele>220.883983</ele>
        <time>2021-08-22T22:59:49.708Z</time>
      </trkpt>
      <trkpt lat="41.12144" lon="29.14952">
        <ele>222.131597</ele>
        <time>2021-08-22T23:00:00.455Z</time>
      </trkpt>
      <trkpt lat="41.12135" lon="29.14931">
        <ele>223.119738</ele>
        <time>2021-08-22T23:00:15.232Z</time>
      </trkpt>
      <trkpt lat="41.12132" lon="29.14919">
        <ele>223.581606</ele>
        <time>2021-08-22T23:00:24.466Z</time>
      </trkpt>
      <trkpt lat="41.1217" lon="29.14808">
        <ele>227.998316</ele>
        <time>2021-08-22T23:01:22.853Z</time>
      </trkpt>
      <trkpt lat="41.12189" lon="29.14753">
        <ele>230.194415</ele>
        <time>2021-08-22T23:01:40.717Z</time>
      </trkpt>
      <trkpt lat="41.12192" lon="29.14752">
        <ele>230.338373</ele>
        <time>2021-08-22T23:01:42.312Z</time>
      </trkpt>
      <trkpt lat="41.12197" lon="29.14742">
        <ele>230.73384</ele>
        <time>2021-08-22T23:01:45.444Z</time>
      </trkpt>
      <trkpt lat="41.12197" lon="29.14739">
        <ele>230.850066</ele>
        <time>2021-08-22T23:01:46.389Z</time>
      </trkpt>
      <trkpt lat="41.12196" lon="29.14736">
        <ele>230.958288</ele>
        <time>2021-08-22T23:01:47.074Z</time>
      </trkpt>
      <trkpt lat="41.12195" lon="29.14733">
        <ele>230.914474</ele>
        <time>2021-08-22T23:01:47.684Z</time>
      </trkpt>
      <trkpt lat="41.12194" lon="29.14731">
        <ele>230.875416</ele>
        <time>2021-08-22T23:01:48.178Z</time>
      </trkpt>
      <trkpt lat="41.12191" lon="29.14728">
        <ele>230.79941</ele>
        <time>2021-08-22T23:01:49.227Z</time>
      </trkpt>
      <trkpt lat="41.12189" lon="29.14727">
        <ele>230.76025</ele>
        <time>2021-08-22T23:01:49.715Z</time>
      </trkpt>
      <trkpt lat="41.12187" lon="29.14726">
        <ele>230.720687</ele>
        <time>2021-08-22T23:01:50.202Z</time>
      </trkpt>
      <trkpt lat="41.12185" lon="29.14726">
        <ele>230.681645</ele>
        <time>2021-08-22T23:01:50.734Z</time>
      </trkpt>
      <trkpt lat="41.12183" lon="29.14727">
        <ele>230.643623</ele>
        <time>2021-08-22T23:01:51.286Z</time>
      </trkpt>
      <trkpt lat="41.1218" lon="29.14729">
        <ele>230.597761</ele>
        <time>2021-08-22T23:01:51.966Z</time>
      </trkpt>
      <trkpt lat="41.12176" lon="29.14739">
        <ele>230.423529</ele>
        <time>2021-08-22T23:01:55.079Z</time>
      </trkpt>
      <trkpt lat="41.12176" lon="29.14743">
        <ele>230.377394</ele>
        <time>2021-08-22T23:01:55.740Z</time>
      </trkpt>
      <trkpt lat="41.12172" lon="29.14745">
        <ele>230.307274</ele>
        <time>2021-08-22T23:01:56.939Z</time>
      </trkpt>
      <trkpt lat="41.12156" lon="29.14744">
        <ele>230.010564</ele>
        <time>2021-08-22T23:02:00.644Z</time>
      </trkpt>
      <trkpt lat="41.12146" lon="29.14727">
        <ele>229.701307</ele>
        <time>2021-08-22T23:02:05.164Z</time>
      </trkpt>
      <trkpt lat="41.1214" lon="29.14667">
        <ele>228.859204</ele>
        <time>2021-08-22T23:02:15.747Z</time>
      </trkpt>
      <trkpt lat="41.12128" lon="29.14623">
        <ele>228.204383</ele>
        <time>2021-08-22T23:02:23.867Z</time>
      </trkpt>
      <trkpt lat="41.121" lon="29.14573">
        <ele>227.080031</ele>
        <time>2021-08-22T23:02:35.296Z</time>
      </trkpt>
      <trkpt lat="41.12067" lon="29.14536">
        <ele>225.639922</ele>
        <time>2021-08-22T23:02:45.325Z</time>
      </trkpt>
      <trkpt lat="41.12035" lon="29.14528">
        <ele>224.529869</ele>
        <time>2021-08-22T23:02:52.989Z</time>
      </trkpt>
      <trkpt lat="41.12084" lon="29.14465">
        <ele>222.217579</ele>
        <time>2021-08-22T23:03:09.361Z</time>
      </trkpt>
      <trkpt lat="41.12101" lon="29.14442">
        <ele>221.221643</ele>
        <time>2021-08-22T23:03:14.693Z</time>
      </trkpt>
      <trkpt lat="41.12118" lon="29.14353">
        <ele>216.129494</ele>
        <time>2021-08-22T23:03:29.943Z</time>
      </trkpt>
      <trkpt lat="41.12173" lon="29.14279">
        <ele>210.389016</ele>
        <time>2021-08-22T23:03:45.951Z</time>
      </trkpt>
      <trkpt lat="41.12175" lon="29.14265">
        <ele>209.588442</ele>
        <time>2021-08-22T23:03:48.150Z</time>
      </trkpt>
      <trkpt lat="41.12164" lon="29.14223">
        <ele>206.573318</ele>
        <time>2021-08-22T23:03:54.922Z</time>
      </trkpt>
      <trkpt lat="41.12152" lon="29.14189">
        <ele>203.667369</ele>
        <time>2021-08-22T23:04:00.441Z</time>
      </trkpt>
      <trkpt lat="41.12132" lon="29.14167">
        <ele>201.020798</ele>
        <time>2021-08-22T23:04:05.443Z</time>
      </trkpt>
      <trkpt lat="41.12115" lon="29.14167">
        <ele>199.268199</ele>
        <time>2021-08-22T23:04:08.866Z</time>
      </trkpt>
      <trkpt lat="41.121" lon="29.14174">
        <ele>197.563447</ele>
        <time>2021-08-22T23:04:12.032Z</time>
      </trkpt>
      <trkpt lat="41.12091" lon="29.14186">
        <ele>196.244535</ele>
        <time>2021-08-22T23:04:14.607Z</time>
      </trkpt>
      <trkpt lat="41.12075" lon="29.14204">
        <ele>194.063226</ele>
        <time>2021-08-22T23:04:18.692Z</time>
      </trkpt>
      <trkpt lat="41.12059" lon="29.14217">
        <ele>192.145501</ele>
        <time>2021-08-22T23:04:22.461Z</time>
      </trkpt>
      <trkpt lat="41.12039" lon="29.14219">
        <ele>190.072048</ele>
        <time>2021-08-22T23:04:26.384Z</time>
      </trkpt>
      <trkpt lat="41.11959" lon="29.14173">
        <ele>183.090065</ele>
        <time>2021-08-22T23:04:44.112Z</time>
      </trkpt>
      <trkpt lat="41.11952" lon="29.14168">
        <ele>182.477395</ele>
        <time>2021-08-22T23:04:45.641Z</time>
      </trkpt>
      <trkpt lat="41.11911" lon="29.14138">
        <ele>178.718593</ele>
        <time>2021-08-22T23:04:55.583Z</time>
      </trkpt>
      <trkpt lat="41.1187" lon="29.1411">
        <ele>175.181766</ele>
        <time>2021-08-22T23:05:05.477Z</time>
      </trkpt>
      <trkpt lat="41.11821" lon="29.14085">
        <ele>171.975168</ele>
        <time>2021-08-22T23:05:16.774Z</time>
      </trkpt>
      <trkpt lat="41.11786" lon="29.14051">
        <ele>169.267935</ele>
        <time>2021-08-22T23:05:26.178Z</time>
      </trkpt>
      <trkpt lat="41.11753" lon="29.14008">
        <ele>166.415755</ele>
        <time>2021-08-22T23:05:35.996Z</time>
      </trkpt>
      <trkpt lat="41.11707" lon="29.13969">
        <ele>163.339567</ele>
        <time>2021-08-22T23:05:47.790Z</time>
      </trkpt>
      <trkpt lat="41.1169" lon="29.13949">
        <ele>162.238142</ele>
        <time>2021-08-22T23:05:52.605Z</time>
      </trkpt>
      <trkpt lat="41.11659" lon="29.13912">
        <ele>160.205505</ele>
        <time>2021-08-22T23:06:01.827Z</time>
      </trkpt>
      <trkpt lat="41.11633" lon="29.13892">
        <ele>158.695373</ele>
        <time>2021-08-22T23:06:08.714Z</time>
      </trkpt>
      <trkpt lat="41.11582" lon="29.13873">
        <ele>156.109079</ele>
        <time>2021-08-22T23:06:20.609Z</time>
      </trkpt>
      <trkpt lat="41.11555" lon="29.13861">
        <ele>155.138763</ele>
        <time>2021-08-22T23:06:27.013Z</time>
      </trkpt>
      <trkpt lat="41.1154" lon="29.13858">
        <ele>154.749692</ele>
        <time>2021-08-22T23:06:30.676Z</time>
      </trkpt>
      <trkpt lat="41.11515" lon="29.13846">
        <ele>154.049447</ele>
        <time>2021-08-22T23:06:37.340Z</time>
      </trkpt>
      <trkpt lat="41.115" lon="29.1383">
        <ele>153.569063</ele>
        <time>2021-08-22T23:06:42.022Z</time>
      </trkpt>
      <trkpt lat="41.11471" lon="29.13802">
        <ele>152.641775</ele>
        <time>2021-08-22T23:06:51.105Z</time>
      </trkpt>
      <trkpt lat="41.11446" lon="29.13783">
        <ele>151.883354</ele>
        <time>2021-08-22T23:06:58.498Z</time>
      </trkpt>
      <trkpt lat="41.11357" lon="29.13739">
        <ele>149.309695</ele>
        <time>2021-08-22T23:07:23.829Z</time>
      </trkpt>
      <trkpt lat="41.11339" lon="29.13726">
        <ele>148.723418</ele>
        <time>2021-08-22T23:07:30.003Z</time>
      </trkpt>
      <trkpt lat="41.11328" lon="29.13706">
        <ele>148.193906</ele>
        <time>2021-08-22T23:07:34.532Z</time>
      </trkpt>
      <trkpt lat="41.11303" lon="29.13676">
        <ele>147.258176</ele>
        <time>2021-08-22T23:07:42.624Z</time>
      </trkpt>
      <trkpt lat="41.11277" lon="29.13657">
        <ele>146.410983</ele>
        <time>2021-08-22T23:07:49.504Z</time>
      </trkpt>
      <trkpt lat="41.11221" lon="29.13619">
        <ele>142.944106</ele>
        <time>2021-08-22T23:08:03.395Z</time>
      </trkpt>
      <trkpt lat="41.11222" lon="29.13615">
        <ele>142.716227</ele>
        <time>2021-08-22T23:08:04.145Z</time>
      </trkpt>
      <trkpt lat="41.11217" lon="29.13608">
        <ele>142.203636</ele>
        <time>2021-08-22T23:08:05.956Z</time>
      </trkpt>
      <trkpt lat="41.11215" lon="29.13609">
        <ele>142.007416</ele>
        <time>2021-08-22T23:08:06.624Z</time>
      </trkpt>
      <trkpt lat="41.11214" lon="29.13597">
        <ele>141.397303</ele>
        <time>2021-08-22T23:08:08.410Z</time>
      </trkpt>
      <trkpt lat="41.11202" lon="29.13556">
        <ele>139.202326</ele>
        <time>2021-08-22T23:08:15.577Z</time>
      </trkpt>
      <trkpt lat="41.11205" lon="29.13479">
        <ele>135.338047</ele>
        <time>2021-08-22T23:08:27.830Z</time>
      </trkpt>
      <trkpt lat="41.11158" lon="29.13435">
        <ele>131.212255</ele>
        <time>2021-08-22T23:08:39.390Z</time>
      </trkpt>
      <trkpt lat="41.11135" lon="29.13405">
        <ele>128.785617</ele>
        <time>2021-08-22T23:08:46.061Z</time>
      </trkpt>
      <trkpt lat="41.11085" lon="29.13301">
        <ele>121.80175</ele>
        <time>2021-08-22T23:09:05.394Z</time>
      </trkpt>
      <trkpt lat="41.11082" lon="29.13274">
        <ele>120.337716</ele>
        <time>2021-08-22T23:09:09.880Z</time>
      </trkpt>
      <trkpt lat="41.11085" lon="29.13234">
        <ele>119.087944</ele>
        <time>2021-08-22T23:09:16.356Z</time>
      </trkpt>
      <trkpt lat="41.11116" lon="29.13149">
        <ele>116.075762</ele>
        <time>2021-08-22T23:09:32.690Z</time>
      </trkpt>
      <trkpt lat="41.11128" lon="29.13121">
        <ele>115.053779</ele>
        <time>2021-08-22T23:09:38.527Z</time>
      </trkpt>
      <trkpt lat="41.11145" lon="29.13072">
        <ele>113.349886</ele>
        <time>2021-08-22T23:09:48.329Z</time>
      </trkpt>
      <trkpt lat="41.11141" lon="29.13053">
        <ele>112.733873</ele>
        <time>2021-08-22T23:09:51.857Z</time>
      </trkpt>
      <trkpt lat="41.11137" lon="29.13032">
        <ele>112.009845</ele>
        <time>2021-08-22T23:09:56.566Z</time>
      </trkpt>
      <trkpt lat="41.11142" lon="29.129">
        <ele>107.666181</ele>
        <time>2021-08-22T23:10:20.977Z</time>
      </trkpt>
      <trkpt lat="41.11152" lon="29.12837">
        <ele>105.556971</ele>
        <time>2021-08-22T23:10:31.290Z</time>
      </trkpt>
      <trkpt lat="41.11162" lon="29.12811">
        <ele>104.150672</ele>
        <time>2021-08-22T23:10:35.900Z</time>
      </trkpt>
      <trkpt lat="41.11178" lon="29.12776">
        <ele>101.645252</ele>
        <time>2021-08-22T23:10:42.040Z</time>
      </trkpt>
      <trkpt lat="41.11225" lon="29.12715">
        <ele>96.145869</ele>
        <time>2021-08-22T23:10:55.458Z</time>
      </trkpt>
      <trkpt lat="41.11233" lon="29.12689">
        <ele>94.332715</ele>
        <time>2021-08-22T23:10:59.863Z</time>
      </trkpt>
      <trkpt lat="41.11237" lon="29.12673">
        <ele>93.277061</ele>
        <time>2021-08-22T23:11:02.432Z</time>
      </trkpt>
      <trkpt lat="41.11235" lon="29.12657">
        <ele>92.289884</ele>
        <time>2021-08-22T23:11:04.814Z</time>
      </trkpt>
      <trkpt lat="41.11213" lon="29.12587">
        <ele>88.547673</ele>
        <time>2021-08-22T23:11:16.658Z</time>
      </trkpt>
      <trkpt lat="41.11191" lon="29.1254">
        <ele>86.534401</ele>
        <time>2021-08-22T23:11:25.483Z</time>
      </trkpt>
      <trkpt lat="41.11184" lon="29.12527">
        <ele>85.944394</ele>
        <time>2021-08-22T23:11:28.124Z</time>
      </trkpt>
      <trkpt lat="41.11103" lon="29.12441">
        <ele>81.115789</ele>
        <time>2021-08-22T23:11:53.126Z</time>
      </trkpt>
      <trkpt lat="41.11078" lon="29.12387">
        <ele>80.279619</ele>
        <time>2021-08-22T23:12:05.648Z</time>
      </trkpt>
      <trkpt lat="41.11058" lon="29.1233">
        <ele>79.448571</ele>
        <time>2021-08-22T23:12:18.878Z</time>
      </trkpt>
      <trkpt lat="41.11035" lon="29.12262">
        <ele>78.465116</ele>
        <time>2021-08-22T23:12:33.621Z</time>
      </trkpt>
      <trkpt lat="41.10983" lon="29.1217">
        <ele>77.126001</ele>
        <time>2021-08-22T23:12:56.927Z</time>
      </trkpt>
      <trkpt lat="41.10978" lon="29.12158">
        <ele>76.9778</ele>
        <time>2021-08-22T23:12:59.986Z</time>
      </trkpt>
      <trkpt lat="41.10971" lon="29.12131">
        <ele>76.659226</ele>
        <time>2021-08-22T23:13:05.635Z</time>
      </trkpt>
      <trkpt lat="41.10966" lon="29.12108">
        <ele>76.391736</ele>
        <time>2021-08-22T23:13:10.991Z</time>
      </trkpt>
      <trkpt lat="41.10935" lon="29.11932">
        <ele>74.030259</ele>
        <time>2021-08-22T23:13:47.645Z</time>
      </trkpt>
      <trkpt lat="41.10893" lon="29.11832">
        <ele>72.331743</ele>
        <time>2021-08-22T23:14:09.994Z</time>
      </trkpt>
      <trkpt lat="41.10883" lon="29.11803">
        <ele>71.800159</ele>
        <time>2021-08-22T23:14:15.850Z</time>
      </trkpt>
      <trkpt lat="41.10842" lon="29.11711">
        <ele>68.688904</ele>
        <time>2021-08-22T23:14:35.221Z</time>
      </trkpt>
      <trkpt lat="41.10763" lon="29.11646">
        <ele>65.066563</ele>
        <time>2021-08-22T23:14:56.028Z</time>
      </trkpt>
      <trkpt lat="41.10709" lon="29.11601">
        <ele>62.232453</ele>
        <time>2021-08-22T23:15:10.328Z</time>
      </trkpt>
      <trkpt lat="41.10676" lon="29.11563">
        <ele>60.265377</ele>
        <time>2021-08-22T23:15:20.245Z</time>
      </trkpt>
      <trkpt lat="41.10649" lon="29.11537">
        <ele>58.761403</ele>
        <time>2021-08-22T23:15:27.757Z</time>
      </trkpt>
      <trkpt lat="41.10614" lon="29.11517">
        <ele>57.052393</ele>
        <time>2021-08-22T23:15:36.303Z</time>
      </trkpt>
      <trkpt lat="41.10594" lon="29.11515">
        <ele>56.1908</ele>
        <time>2021-08-22T23:15:40.883Z</time>
      </trkpt>
      <trkpt lat="41.10564" lon="29.11494">
        <ele>54.796147</ele>
        <time>2021-08-22T23:15:48.611Z</time>
      </trkpt>
      <trkpt lat="41.10547" lon="29.11472">
        <ele>53.822835</ele>
        <time>2021-08-22T23:15:54.128Z</time>
      </trkpt>
      <trkpt lat="41.10544" lon="29.11469">
        <ele>53.678097</ele>
        <time>2021-08-22T23:15:54.861Z</time>
      </trkpt>
      <trkpt lat="41.10508" lon="29.11331">
        <ele>49.184445</ele>
        <time>2021-08-22T23:16:20.410Z</time>
      </trkpt>
      <trkpt lat="41.1053" lon="29.11266">
        <ele>47.137229</ele>
        <time>2021-08-22T23:16:32.913Z</time>
      </trkpt>
      <trkpt lat="41.10559" lon="29.11177">
        <ele>44.344963</ele>
        <time>2021-08-22T23:16:49.892Z</time>
      </trkpt>
      <trkpt lat="41.10566" lon="29.11097">
        <ele>42.203669</ele>
        <time>2021-08-22T23:17:04.043Z</time>
      </trkpt>
      <trkpt lat="41.10566" lon="29.11058">
        <ele>41.407368</ele>
        <time>2021-08-22T23:17:11.099Z</time>
      </trkpt>
      <trkpt lat="41.10563" lon="29.11009">
        <ele>40.392702</ele>
        <time>2021-08-22T23:17:20.288Z</time>
      </trkpt>
      <trkpt lat="41.10554" lon="29.10936">
        <ele>38.873426</ele>
        <time>2021-08-22T23:17:34.241Z</time>
      </trkpt>
      <trkpt lat="41.10512" lon="29.10799">
        <ele>36.39541</ele>
        <time>2021-08-22T23:18:02.778Z</time>
      </trkpt>
      <trkpt lat="41.10488" lon="29.10689">
        <ele>34.755556</ele>
        <time>2021-08-22T23:18:25.691Z</time>
      </trkpt>
      <trkpt lat="41.10477" lon="29.1056">
        <ele>32.756554</ele>
        <time>2021-08-22T23:18:51.124Z</time>
      </trkpt>
      <trkpt lat="41.10477" lon="29.10454">
        <ele>31.093626</ele>
        <time>2021-08-22T23:19:11.482Z</time>
      </trkpt>
      <trkpt lat="41.1048" lon="29.10431">
        <ele>30.719345</ele>
        <time>2021-08-22T23:19:15.962Z</time>
      </trkpt>
      <trkpt lat="41.10482" lon="29.104">
        <ele>30.307409</ele>
        <time>2021-08-22T23:19:21.887Z</time>
      </trkpt>
      <trkpt lat="41.10484" lon="29.10325">
        <ele>29.439308</ele>
        <time>2021-08-22T23:19:36.319Z</time>
      </trkpt>
      <trkpt lat="41.10492" lon="29.10291">
        <ele>29.034556</ele>
        <time>2021-08-22T23:19:43.134Z</time>
      </trkpt>
      <trkpt lat="41.10506" lon="29.10256">
        <ele>28.57518</ele>
        <time>2021-08-22T23:19:51.056Z</time>
      </trkpt>
      <trkpt lat="41.10526" lon="29.10229">
        <ele>28.13671</ele>
        <time>2021-08-22T23:19:58.851Z</time>
      </trkpt>
      <trkpt lat="41.10556" lon="29.1019">
        <ele>28.204264</ele>
        <time>2021-08-22T23:20:11.518Z</time>
      </trkpt>
      <trkpt lat="41.10566" lon="29.10177">
        <ele>28.544759</ele>
        <time>2021-08-22T23:20:16.508Z</time>
      </trkpt>
      <trkpt lat="41.10576" lon="29.10164">
        <ele>28.889752</ele>
        <time>2021-08-22T23:20:21.250Z</time>
      </trkpt>
      <trkpt lat="41.10584" lon="29.10154">
        <ele>29.1719</ele>
        <time>2021-08-22T23:20:25.931Z</time>
      </trkpt>
      <trkpt lat="41.10596" lon="29.10137">
        <ele>29.61136</ele>
        <time>2021-08-22T23:20:33.050Z</time>
      </trkpt>
      <trkpt lat="41.10601" lon="29.10131">
        <ele>29.794091</ele>
        <time>2021-08-22T23:20:36.255Z</time>
      </trkpt>
      <trkpt lat="41.10612" lon="29.10113">
        <ele>30.239153</ele>
        <time>2021-08-22T23:20:45.167Z</time>
      </trkpt>
      <trkpt lat="41.10617" lon="29.10113">
        <ele>30.35273</ele>
        <time>2021-08-22T23:20:47.008Z</time>
      </trkpt>
      <trkpt lat="41.1062" lon="29.10112">
        <ele>30.443461</ele>
        <time>2021-08-22T23:20:48.584Z</time>
      </trkpt>
      <trkpt lat="41.10623" lon="29.10108">
        <ele>30.537646</ele>
        <time>2021-08-22T23:20:50.206Z</time>
      </trkpt>
      <trkpt lat="41.10625" lon="29.10104">
        <ele>30.628531</ele>
        <time>2021-08-22T23:20:51.943Z</time>
      </trkpt>
      <trkpt lat="41.10625" lon="29.10099">
        <ele>30.713961</ele>
        <time>2021-08-22T23:20:53.804Z</time>
      </trkpt>
      <trkpt lat="41.10624" lon="29.10095">
        <ele>30.798537</ele>
        <time>2021-08-22T23:20:55.421Z</time>
      </trkpt>
      <trkpt lat="41.10622" lon="29.10092">
        <ele>30.883301</ele>
        <time>2021-08-22T23:20:57.277Z</time>
      </trkpt>
      <trkpt lat="41.10619" lon="29.10089">
        <ele>30.965035</ele>
        <time>2021-08-22T23:20:59.181Z</time>
      </trkpt>
      <trkpt lat="41.10622" lon="29.1008">
        <ele>31.151333</ele>
        <time>2021-08-22T23:21:03.718Z</time>
      </trkpt>
      <trkpt lat="41.10621" lon="29.10062">
        <ele>31.481432</ele>
        <time>2021-08-22T23:21:10.240Z</time>
      </trkpt>
      <trkpt lat="41.10619" lon="29.1004">
        <ele>31.911097</ele>
        <time>2021-08-22T23:21:20.712Z</time>
      </trkpt>
      <trkpt lat="41.10636" lon="29.09867">
        <ele>36.334148</ele>
        <time>2021-08-22T23:22:36.923Z</time>
      </trkpt>
      <trkpt lat="41.10638" lon="29.09847">
        <ele>36.853755</ele>
        <time>2021-08-22T23:22:44.617Z</time>
      </trkpt>
      <trkpt lat="41.10632" lon="29.09805">
        <ele>37.984689</ele>
        <time>2021-08-22T23:22:59.536Z</time>
      </trkpt>
      <trkpt lat="41.10619" lon="29.09705">
        <ele>36.652432</ele>
        <time>2021-08-22T23:23:23.742Z</time>
      </trkpt>
      <trkpt lat="41.10639" lon="29.09662">
        <ele>35.451653</ele>
        <time>2021-08-22T23:23:32.982Z</time>
      </trkpt>
      <trkpt lat="41.10657" lon="29.09647">
        <ele>34.792026</ele>
        <time>2021-08-22T23:23:37.787Z</time>
      </trkpt>
      <trkpt lat="41.10705" lon="29.09648">
        <ele>33.306074</ele>
        <time>2021-08-22T23:23:48.024Z</time>
      </trkpt>
      <trkpt lat="41.10731" lon="29.09629">
        <ele>32.195298</ele>
        <time>2021-08-22T23:23:54.346Z</time>
      </trkpt>
      <trkpt lat="41.10759" lon="29.09598">
        <ele>30.704249</ele>
        <time>2021-08-22T23:24:01.860Z</time>
      </trkpt>
      <trkpt lat="41.10768" lon="29.09586">
        <ele>30.167395</ele>
        <time>2021-08-22T23:24:04.594Z</time>
      </trkpt>
      <trkpt lat="41.10796" lon="29.09577">
        <ele>28.957676</ele>
        <time>2021-08-22T23:24:11.194Z</time>
      </trkpt>
      <trkpt lat="41.1082" lon="29.09574">
        <ele>27.976876</ele>
        <time>2021-08-22T23:24:17.038Z</time>
      </trkpt>
      <trkpt lat="41.10836" lon="29.09576">
        <ele>27.304453</ele>
        <time>2021-08-22T23:24:21.113Z</time>
      </trkpt>
      <trkpt lat="41.1085" lon="29.09578">
        <ele>26.691746</ele>
        <time>2021-08-22T23:24:25.623Z</time>
      </trkpt>
      <trkpt lat="41.10858" lon="29.09573">
        <ele>26.326076</ele>
        <time>2021-08-22T23:24:27.967Z</time>
      </trkpt>
      <trkpt lat="41.10867" lon="29.09567">
        <ele>25.908893</ele>
        <time>2021-08-22T23:24:30.113Z</time>
      </trkpt>
      <trkpt lat="41.10871" lon="29.09566">
        <ele>25.739349</ele>
        <time>2021-08-22T23:24:30.963Z</time>
      </trkpt>
      <trkpt lat="41.10874" lon="29.09564">
        <ele>25.614623</ele>
        <time>2021-08-22T23:24:31.755Z</time>
      </trkpt>
      <trkpt lat="41.10877" lon="29.0956">
        <ele>25.480324</ele>
        <time>2021-08-22T23:24:32.909Z</time>
      </trkpt>
      <trkpt lat="41.10878" lon="29.09547">
        <ele>25.484081</ele>
        <time>2021-08-22T23:24:36.816Z</time>
      </trkpt>
      <trkpt lat="41.10876" lon="29.09543">
        <ele>25.485647</ele>
        <time>2021-08-22T23:24:37.812Z</time>
      </trkpt>
      <trkpt lat="41.10873" lon="29.09539">
        <ele>25.487138</ele>
        <time>2021-08-22T23:24:38.661Z</time>
      </trkpt>
      <trkpt lat="41.10869" lon="29.09537">
        <ele>25.488793</ele>
        <time>2021-08-22T23:24:39.566Z</time>
      </trkpt>
      <trkpt lat="41.10864" lon="29.09529">
        <ele>25.491851</ele>
        <time>2021-08-22T23:24:41.141Z</time>
      </trkpt>
      <trkpt lat="41.1085" lon="29.09515">
        <ele>25.498662</ele>
        <time>2021-08-22T23:24:46.196Z</time>
      </trkpt>
      <trkpt lat="41.10833" lon="29.09495">
        <ele>25.507776</ele>
        <time>2021-08-22T23:24:52.288Z</time>
      </trkpt>
      <trkpt lat="41.10794" lon="29.0945">
        <ele>25.527627</ele>
        <time>2021-08-22T23:25:09.433Z</time>
      </trkpt>
      <trkpt lat="41.10784" lon="29.09434">
        <ele>25.533911</ele>
        <time>2021-08-22T23:25:14.420Z</time>
      </trkpt>
      <trkpt lat="41.10763" lon="29.09408">
        <ele>25.544878</ele>
        <time>2021-08-22T23:25:27.162Z</time>
      </trkpt>
      <trkpt lat="41.1075" lon="29.09387">
        <ele>25.781113</ele>
        <time>2021-08-22T23:25:36.565Z</time>
      </trkpt>
      <trkpt lat="41.10742" lon="29.09392">
        <ele>26.056335</ele>
        <time>2021-08-22T23:25:42.006Z</time>
      </trkpt>
      <trkpt lat="41.10736" lon="29.09393">
        <ele>26.243451</ele>
        <time>2021-08-22T23:25:44.168Z</time>
      </trkpt>
      <trkpt lat="41.10733" lon="29.09409">
        <ele>26.612224</ele>
        <time>2021-08-22T23:25:49.120Z</time>
      </trkpt>
      <trkpt lat="41.10701" lon="29.09429">
        <ele>27.676223</ele>
        <time>2021-08-22T23:26:04.774Z</time>
      </trkpt>
      <trkpt lat="41.10685" lon="29.09457">
        <ele>28.491147</ele>
        <time>2021-08-22T23:26:16.352Z</time>
      </trkpt>
      <trkpt lat="41.10633" lon="29.09484">
        <ele>30.194974</ele>
        <time>2021-08-22T23:26:43.800Z</time>
      </trkpt>
      <trkpt lat="41.10606" lon="29.09483">
        <ele>31.038271</ele>
        <time>2021-08-22T23:27:02.611Z</time>
      </trkpt>
      <trkpt lat="41.10565" lon="29.09514">
        <ele>33.508082</ele>
        <time>2021-08-22T23:27:30.278Z</time>
      </trkpt>
      <trkpt lat="41.10536" lon="29.09526">
        <ele>35.128515</ele>
        <time>2021-08-22T23:27:48.004Z</time>
      </trkpt>
      <trkpt lat="41.10504" lon="29.09522">
        <ele>36.809073</ele>
        <time>2021-08-22T23:28:07.464Z</time>
      </trkpt>
      <trkpt lat="41.10475" lon="29.09515">
        <ele>38.395068</ele>
        <time>2021-08-22T23:28:26.207Z</time>
      </trkpt>
      <trkpt lat="41.10431" lon="29.09506">
        <ele>40.817846</ele>
        <time>2021-08-22T23:28:54.037Z</time>
      </trkpt>
      <trkpt lat="41.10411" lon="29.09505">
        <ele>42.279656</ele>
        <time>2021-08-22T23:29:06.282Z</time>
      </trkpt>
      <trkpt lat="41.10404" lon="29.09505">
        <ele>42.78179</ele>
        <time>2021-08-22T23:29:10.250Z</time>
      </trkpt>
      <trkpt lat="41.1037" lon="29.09507">
        <ele>45.359901</ele>
        <time>2021-08-22T23:29:33.574Z</time>
      </trkpt>
      <trkpt lat="41.1035" lon="29.09507">
        <ele>46.777086</ele>
        <time>2021-08-22T23:29:47.709Z</time>
      </trkpt>
      <trkpt lat="41.10331" lon="29.09506">
        <ele>48.240164</ele>
        <time>2021-08-22T23:30:00.739Z</time>
      </trkpt>
      <trkpt lat="41.1029" lon="29.09489">
        <ele>51.399973</ele>
        <time>2021-08-22T23:30:32.815Z</time>
      </trkpt>
      <trkpt lat="41.10264" lon="29.09489">
        <ele>53.281972</ele>
        <time>2021-08-22T23:30:53.318Z</time>
      </trkpt>
      <trkpt lat="41.10201" lon="29.09506">
        <ele>60.246464</ele>
        <time>2021-08-22T23:31:51.552Z</time>
      </trkpt>
      <trkpt lat="41.10111" lon="29.09488">
        <ele>70.355122</ele>
        <time>2021-08-22T23:33:19.664Z</time>
      </trkpt>
      <trkpt lat="41.10014" lon="29.09496">
        <ele>81.963075</ele>
        <time>2021-08-22T23:34:55.780Z</time>
      </trkpt>
      <trkpt lat="41.09968" lon="29.09483">
        <ele>87.604507</ele>
        <time>2021-08-22T23:35:42.523Z</time>
      </trkpt>
      <trkpt lat="41.09927" lon="29.09485">
        <ele>92.647904</ele>
        <time>2021-08-22T23:36:25.951Z</time>
      </trkpt>
      <trkpt lat="41.09883" lon="29.09478">
        <ele>97.630099</ele>
        <time>2021-08-22T23:37:09.155Z</time>
      </trkpt>
      <trkpt lat="41.09879" lon="29.09476">
        <ele>98.053414</ele>
        <time>2021-08-22T23:37:15.751Z</time>
      </trkpt>
      <trkpt lat="41.09789" lon="29.09433">
        <ele>107.474306</ele>
        <time>2021-08-22T23:38:38.809Z</time>
      </trkpt>
      <trkpt lat="41.09763" lon="29.09426">
        <ele>110.142511</ele>
        <time>2021-08-22T23:39:01.579Z</time>
      </trkpt>
      <trkpt lat="41.09735" lon="29.09427">
        <ele>112.863109</ele>
        <time>2021-08-22T23:39:24.551Z</time>
      </trkpt>
      <trkpt lat="41.09722" lon="29.0941">
        <ele>114.131737</ele>
        <time>2021-08-22T23:39:38.145Z</time>
      </trkpt>
      <trkpt lat="41.09719" lon="29.09402">
        <ele>114.442224</ele>
        <time>2021-08-22T23:39:42.411Z</time>
      </trkpt>
      <trkpt lat="41.09714" lon="29.09395">
        <ele>114.774527</ele>
        <time>2021-08-22T23:39:47.024Z</time>
      </trkpt>
      <trkpt lat="41.09708" lon="29.09393">
        <ele>115.074064</ele>
        <time>2021-08-22T23:39:51.247Z</time>
      </trkpt>
      <trkpt lat="41.09701" lon="29.09392">
        <ele>115.413826</ele>
        <time>2021-08-22T23:39:55.896Z</time>
      </trkpt>
      <trkpt lat="41.09674" lon="29.09389">
        <ele>116.720029</ele>
        <time>2021-08-22T23:40:11.774Z</time>
      </trkpt>
      <trkpt lat="41.09598" lon="29.09384">
        <ele>120.337363</ele>
        <time>2021-08-22T23:40:50.868Z</time>
      </trkpt>
      <trkpt lat="41.09605" lon="29.09311">
        <ele>122.548719</ele>
        <time>2021-08-22T23:41:19.204Z</time>
      </trkpt>
      <trkpt lat="41.0962" lon="29.09313">
        <ele>122.912493</ele>
        <time>2021-08-22T23:41:26.687Z</time>
      </trkpt>
      <trkpt lat="41.09612" lon="29.09301">
        <ele>123.207432</ele>
        <time>2021-08-22T23:41:33.381Z</time>
      </trkpt>
      <trkpt lat="41.09596" lon="29.09288">
        <ele>123.650568</ele>
        <time>2021-08-22T23:41:42.924Z</time>
      </trkpt>
      <trkpt lat="41.09591" lon="29.09274">
        <ele>123.919887</ele>
        <time>2021-08-22T23:41:48.283Z</time>
      </trkpt>
      <trkpt lat="41.09588" lon="29.09251">
        <ele>124.335571</ele>
        <time>2021-08-22T23:41:57.056Z</time>
      </trkpt>
      <trkpt lat="41.09578" lon="29.09253">
        <ele>124.571268</ele>
        <time>2021-08-22T23:42:01.727Z</time>
      </trkpt>
      <trkpt lat="41.09544" lon="29.09258">
        <ele>125.394293</ele>
        <time>2021-08-22T23:42:16.843Z</time>
      </trkpt>
      <trkpt lat="41.09514" lon="29.09253">
        <ele>126.111277</ele>
        <time>2021-08-22T23:42:28.925Z</time>
      </trkpt>
      <trkpt lat="41.095" lon="29.09244">
        <ele>126.383536</ele>
        <time>2021-08-22T23:42:34.514Z</time>
      </trkpt>
      <trkpt lat="41.09491" lon="29.09217">
        <ele>126.16482</ele>
        <time>2021-08-22T23:42:43.064Z</time>
      </trkpt>
      <trkpt lat="41.09489" lon="29.09217">
        <ele>126.144866</ele>
        <time>2021-08-22T23:42:43.896Z</time>
      </trkpt>
      <trkpt lat="41.09455" lon="29.09216">
        <ele>125.800592</ele>
        <time>2021-08-22T23:42:55.508Z</time>
      </trkpt>
      <trkpt lat="41.09455" lon="29.09186">
        <ele>125.570407</ele>
        <time>2021-08-22T23:43:01.882Z</time>
      </trkpt>
      <trkpt lat="41.09456" lon="29.09177">
        <ele>125.50855</ele>
        <time>2021-08-22T23:43:03.570Z</time>
      </trkpt>
      <trkpt lat="41.09458" lon="29.09161">
        <ele>125.384824</ele>
        <time>2021-08-22T23:43:06.926Z</time>
      </trkpt>
      <trkpt lat="41.09461" lon="29.0913">
        <ele>125.148071</ele>
        <time>2021-08-22T23:43:12.900Z</time>
      </trkpt>
      <trkpt lat="41.09462" lon="29.09109">
        <ele>124.988059</ele>
        <time>2021-08-22T23:43:16.829Z</time>
      </trkpt>
      <trkpt lat="41.09465" lon="29.09065">
        <ele>124.655126</ele>
        <time>2021-08-22T23:43:24.724Z</time>
      </trkpt>
      <trkpt lat="41.09465" lon="29.09051">
        <ele>124.411154</ele>
        <time>2021-08-22T23:43:27.003Z</time>
      </trkpt>
      <trkpt lat="41.09469" lon="29.09006">
        <ele>123.284142</ele>
        <time>2021-08-22T23:43:34.853Z</time>
      </trkpt>
      <trkpt lat="41.09469" lon="29.09">
        <ele>123.123495</ele>
        <time>2021-08-22T23:43:35.933Z</time>
      </trkpt>
      <trkpt lat="41.09465" lon="29.0894">
        <ele>121.651745</ele>
        <time>2021-08-22T23:43:46.064Z</time>
      </trkpt>
      <trkpt lat="41.09465" lon="29.08908">
        <ele>120.846198</ele>
        <time>2021-08-22T23:43:51.599Z</time>
      </trkpt>
      <trkpt lat="41.09466" lon="29.08889">
        <ele>120.382718</ele>
        <time>2021-08-22T23:43:54.757Z</time>
      </trkpt>
      <trkpt lat="41.09469" lon="29.08839">
        <ele>119.138826</ele>
        <time>2021-08-22T23:44:03.313Z</time>
      </trkpt>
      <trkpt lat="41.09475" lon="29.08811">
        <ele>118.454798</ele>
        <time>2021-08-22T23:44:08.343Z</time>
      </trkpt>
      <trkpt lat="41.09481" lon="29.08785">
        <ele>117.895308</ele>
        <time>2021-08-22T23:44:12.862Z</time>
      </trkpt>
      <trkpt lat="41.09505" lon="29.08729">
        <ele>116.522405</ele>
        <time>2021-08-22T23:44:24.184Z</time>
      </trkpt>
      <trkpt lat="41.09489" lon="29.08725">
        <ele>116.055303</ele>
        <time>2021-08-22T23:44:28.121Z</time>
      </trkpt>
      <trkpt lat="41.09435" lon="29.08708">
        <ele>114.476812</ele>
        <time>2021-08-22T23:44:41.873Z</time>
      </trkpt>
      <trkpt lat="41.09367" lon="29.08684">
        <ele>111.947003</ele>
        <time>2021-08-22T23:44:57.953Z</time>
      </trkpt>
      <trkpt lat="41.09323" lon="29.08645">
        <ele>109.79035</ele>
        <time>2021-08-22T23:45:09.259Z</time>
      </trkpt>
      <trkpt lat="41.09285" lon="29.08597">
        <ele>107.605223</ele>
        <time>2021-08-22T23:45:20.589Z</time>
      </trkpt>
      <trkpt lat="41.09266" lon="29.08553">
        <ele>106.067248</ele>
        <time>2021-08-22T23:45:28.685Z</time>
      </trkpt>
      <trkpt lat="41.09266" lon="29.08536">
        <ele>105.658401</ele>
        <time>2021-08-22T23:45:31.452Z</time>
      </trkpt>
      <trkpt lat="41.0926" lon="29.08511">
        <ele>105.046204</ele>
        <time>2021-08-22T23:45:35.623Z</time>
      </trkpt>
      <trkpt lat="41.09256" lon="29.08504">
        <ele>104.824356</ele>
        <time>2021-08-22T23:45:37.130Z</time>
      </trkpt>
      <trkpt lat="41.09254" lon="29.085">
        <ele>104.720549</ele>
        <time>2021-08-22T23:45:37.816Z</time>
      </trkpt>
      <trkpt lat="41.09248" lon="29.08489">
        <ele>104.408493</ele>
        <time>2021-08-22T23:45:40.025Z</time>
      </trkpt>
      <trkpt lat="41.09244" lon="29.08481">
        <ele>104.188765</ele>
        <time>2021-08-22T23:45:41.514Z</time>
      </trkpt>
      <trkpt lat="41.09165" lon="29.08363">
        <ele>100.603681</ele>
        <time>2021-08-22T23:46:09.260Z</time>
      </trkpt>
      <trkpt lat="41.09157" lon="29.08358">
        <ele>100.670633</ele>
        <time>2021-08-22T23:46:11.848Z</time>
      </trkpt>
      <trkpt lat="41.09156" lon="29.08355">
        <ele>100.693139</ele>
        <time>2021-08-22T23:46:12.885Z</time>
      </trkpt>
      <trkpt lat="41.09062" lon="29.08148">
        <ele>102.156332</ele>
        <time>2021-08-22T23:47:23.872Z</time>
      </trkpt>
      <trkpt lat="41.09034" lon="29.08084">
        <ele>102.841236</ele>
        <time>2021-08-22T23:47:44.894Z</time>
      </trkpt>
      <trkpt lat="41.09033" lon="29.08081">
        <ele>102.874192</ele>
        <time>2021-08-22T23:47:45.904Z</time>
      </trkpt>
      <trkpt lat="41.09007" lon="29.08027">
        <ele>103.476271</ele>
        <time>2021-08-22T23:48:03.631Z</time>
      </trkpt>
      <trkpt lat="41.09001" lon="29.08016">
        <ele>103.599668</ele>
        <time>2021-08-22T23:48:07.145Z</time>
      </trkpt>
      <trkpt lat="41.0899" lon="29.07998">
        <ele>103.820871</ele>
        <time>2021-08-22T23:48:13.916Z</time>
      </trkpt>
      <trkpt lat="41.08979" lon="29.07987">
        <ele>103.984143</ele>
        <time>2021-08-22T23:48:18.863Z</time>
      </trkpt>
      <trkpt lat="41.08958" lon="29.07965">
        <ele>104.439168</ele>
        <time>2021-08-22T23:48:29.374Z</time>
      </trkpt>
      <trkpt lat="41.08944" lon="29.07948">
        <ele>104.857017</ele>
        <time>2021-08-22T23:48:36.769Z</time>
      </trkpt>
      <trkpt lat="41.08926" lon="29.07902">
        <ele>105.726834</ele>
        <time>2021-08-22T23:48:53.361Z</time>
      </trkpt>
      <trkpt lat="41.089" lon="29.07837">
        <ele>106.95523</ele>
        <time>2021-08-22T23:49:18.718Z</time>
      </trkpt>
      <trkpt lat="41.08846" lon="29.07718">
        <ele>108.701817</ele>
        <time>2021-08-22T23:50:07.519Z</time>
      </trkpt>
      <trkpt lat="41.08802" lon="29.07663">
        <ele>109.315893</ele>
        <time>2021-08-22T23:50:32.587Z</time>
      </trkpt>
      <trkpt lat="41.08798" lon="29.07658">
        <ele>109.370177</ele>
        <time>2021-08-22T23:50:34.445Z</time>
      </trkpt>
      <trkpt lat="41.08772" lon="29.07625">
        <ele>109.739306</ele>
        <time>2021-08-22T23:50:45.620Z</time>
      </trkpt>
      <trkpt lat="41.08751" lon="29.07582">
        <ele>109.573733</ele>
        <time>2021-08-22T23:50:55.847Z</time>
      </trkpt>
      <trkpt lat="41.08739" lon="29.07558">
        <ele>108.553798</ele>
        <time>2021-08-22T23:51:01.320Z</time>
      </trkpt>
      <trkpt lat="41.08735" lon="29.07536">
        <ele>107.763</ele>
        <time>2021-08-22T23:51:05.368Z</time>
      </trkpt>
      <trkpt lat="41.08736" lon="29.07527">
        <ele>107.457218</ele>
        <time>2021-08-22T23:51:06.894Z</time>
      </trkpt>
      <trkpt lat="41.0874" lon="29.07516">
        <ele>107.027593</ele>
        <time>2021-08-22T23:51:09.153Z</time>
      </trkpt>
      <trkpt lat="41.08725" lon="29.07486">
        <ele>105.768709</ele>
        <time>2021-08-22T23:51:15.253Z</time>
      </trkpt>
      <trkpt lat="41.08661" lon="29.07387">
        <ele>100.516703</ele>
        <time>2021-08-22T23:51:35.094Z</time>
      </trkpt>
      <trkpt lat="41.08643" lon="29.07371">
        <ele>97.910159</ele>
        <time>2021-08-22T23:51:39.403Z</time>
      </trkpt>
      <trkpt lat="41.08611" lon="29.07361">
        <ele>94.150623</ele>
        <time>2021-08-22T23:51:45.517Z</time>
      </trkpt>
      <trkpt lat="41.08597" lon="29.07348">
        <ele>92.113064</ele>
        <time>2021-08-22T23:51:48.830Z</time>
      </trkpt>
      <trkpt lat="41.08586" lon="29.07339">
        <ele>90.576395</ele>
        <time>2021-08-22T23:51:51.281Z</time>
      </trkpt>
      <trkpt lat="41.0855" lon="29.07299">
        <ele>85.134911</ele>
        <time>2021-08-22T23:51:59.982Z</time>
      </trkpt>
      <trkpt lat="41.08524" lon="29.07252">
        <ele>79.504026</ele>
        <time>2021-08-22T23:52:08.063Z</time>
      </trkpt>
      <trkpt lat="41.08423" lon="29.07117">
        <ele>51.793367</ele>
        <time>2021-08-22T23:52:33.417Z</time>
      </trkpt>
      <trkpt lat="41.08415" lon="29.07103">
        <ele>49.21324</ele>
        <time>2021-08-22T23:52:35.779Z</time>
      </trkpt>
      <trkpt lat="41.08403" lon="29.07083">
        <ele>45.53924</ele>
        <time>2021-08-22T23:52:39.281Z</time>
      </trkpt>
      <trkpt lat="41.08402" lon="29.07081">
        <ele>45.225779</ele>
        <time>2021-08-22T23:52:39.655Z</time>
      </trkpt>
      <trkpt lat="41.08388" lon="29.07045">
        <ele>40.428401</ele>
        <time>2021-08-22T23:52:45.114Z</time>
      </trkpt>
      <trkpt lat="41.08379" lon="29.06986">
        <ele>33.183968</ele>
        <time>2021-08-22T23:52:53.320Z</time>
      </trkpt>
      <trkpt lat="41.0838" lon="29.06959">
        <ele>30.016738</ele>
        <time>2021-08-22T23:52:56.953Z</time>
      </trkpt>
      <trkpt lat="41.08381" lon="29.06943">
        <ele>28.088731</ele>
        <time>2021-08-22T23:52:59.155Z</time>
      </trkpt>
      <trkpt lat="41.08381" lon="29.06932">
        <ele>26.803695</ele>
        <time>2021-08-22T23:53:00.600Z</time>
      </trkpt>
      <trkpt lat="41.0838" lon="29.06911">
        <ele>24.322319</ele>
        <time>2021-08-22T23:53:03.498Z</time>
      </trkpt>
      <trkpt lat="41.08372" lon="29.06899">
        <ele>22.379504</ele>
        <time>2021-08-22T23:53:05.725Z</time>
      </trkpt>
      <trkpt lat="41.08375" lon="29.06871">
        <ele>18.991894</ele>
        <time>2021-08-22T23:53:09.949Z</time>
      </trkpt>
      <trkpt lat="41.08373" lon="29.06853">
        <ele>17.247264</ele>
        <time>2021-08-22T23:53:12.588Z</time>
      </trkpt>
      <trkpt lat="41.08372" lon="29.06847">
        <ele>16.954025</ele>
        <time>2021-08-22T23:53:13.488Z</time>
      </trkpt>
      <trkpt lat="41.08364" lon="29.06835">
        <ele>16.195296</ele>
        <time>2021-08-22T23:53:15.821Z</time>
      </trkpt>
      <trkpt lat="41.08353" lon="29.06807">
        <ele>14.724019</ele>
        <time>2021-08-22T23:53:20.456Z</time>
      </trkpt>
      <trkpt lat="41.08341" lon="29.06785">
        <ele>13.40787</ele>
        <time>2021-08-22T23:53:24.604Z</time>
      </trkpt>
      <trkpt lat="41.08321" lon="29.06757">
        <ele>11.583437</ele>
        <time>2021-08-22T23:53:30.455Z</time>
      </trkpt>
      <trkpt lat="41.08288" lon="29.06715">
        <ele>8.730594</ele>
        <time>2021-08-22T23:53:40.141Z</time>
      </trkpt>
      <trkpt lat="41.08272" lon="29.06685">
        <ele>6.990798</ele>
        <time>2021-08-22T23:53:46.161Z</time>
      </trkpt>
      <trkpt lat="41.08263" lon="29.06682">
        <ele>6.417471</ele>
        <time>2021-08-22T23:53:48.306Z</time>
      </trkpt>
      <trkpt lat="41.08258" lon="29.0668">
        <ele>6.176576</ele>
        <time>2021-08-22T23:53:49.433Z</time>
      </trkpt>
      <trkpt lat="41.0825" lon="29.06681">
        <ele>6.17585</ele>
        <time>2021-08-22T23:53:51.261Z</time>
      </trkpt>
      <trkpt lat="41.08235" lon="29.0671">
        <ele>6.173443</ele>
        <time>2021-08-22T23:53:57.409Z</time>
      </trkpt>
      <trkpt lat="41.08229" lon="29.06727">
        <ele>6.172109</ele>
        <time>2021-08-22T23:54:00.897Z</time>
      </trkpt>
      <trkpt lat="41.08213" lon="29.06747">
        <ele>6.170122</ele>
        <time>2021-08-22T23:54:06.440Z</time>
      </trkpt>
      <trkpt lat="41.08182" lon="29.0678">
        <ele>6.166472</ele>
        <time>2021-08-22T23:54:18.132Z</time>
      </trkpt>
      <trkpt lat="41.08174" lon="29.06789">
        <ele>6.1655</ele>
        <time>2021-08-22T23:54:22.356Z</time>
      </trkpt>
      <trkpt lat="41.08145" lon="29.06823">
        <ele>6.161981</ele>
        <time>2021-08-22T23:54:38.502Z</time>
      </trkpt>
      <trkpt lat="41.081" lon="29.06876">
        <ele>7.680916</ele>
        <time>2021-08-22T23:55:12.724Z</time>
      </trkpt>
      <trkpt lat="41.08093" lon="29.06884">
        <ele>8.010093</ele>
        <time>2021-08-22T23:55:18.467Z</time>
      </trkpt>
      <trkpt lat="41.08082" lon="29.06889">
        <ele>8.43986</ele>
        <time>2021-08-22T23:55:24.707Z</time>
      </trkpt>
      <trkpt lat="41.08072" lon="29.06901">
        <ele>8.927672</ele>
        <time>2021-08-22T23:55:33.090Z</time>
      </trkpt>
      <trkpt lat="41.08046" lon="29.06931">
        <ele>10.210475</ele>
        <time>2021-08-22T23:55:53.972Z</time>
      </trkpt>
      <trkpt lat="41.08024" lon="29.06952">
        <ele>11.180962</ele>
        <time>2021-08-22T23:56:08.059Z</time>
      </trkpt>
      <trkpt lat="41.08011" lon="29.06956">
        <ele>11.675048</ele>
        <time>2021-08-22T23:56:15.440Z</time>
      </trkpt>
      <trkpt lat="41.07999" lon="29.06955">
        <ele>12.101607</ele>
        <time>2021-08-22T23:56:21.116Z</time>
      </trkpt>
      <trkpt lat="41.07975" lon="29.06942">
        <ele>12.661805</ele>
        <time>2021-08-22T23:56:31.735Z</time>
      </trkpt>
      <trkpt lat="41.07924" lon="29.06899">
        <ele>11.896019</ele>
        <time>2021-08-22T23:56:50.656Z</time>
      </trkpt>
      <trkpt lat="41.07905" lon="29.06873">
        <ele>11.553081</ele>
        <time>2021-08-22T23:56:57.940Z</time>
      </trkpt>
      <trkpt lat="41.07864" lon="29.06817">
        <ele>10.801682</ele>
        <time>2021-08-22T23:57:11.690Z</time>
      </trkpt>
      <trkpt lat="41.07841" lon="29.06792">
        <ele>10.427219</ele>
        <time>2021-08-22T23:57:18.086Z</time>
      </trkpt>
      <trkpt lat="41.07764" lon="29.06701">
        <ele>9.175371</ele>
        <time>2021-08-22T23:57:41.487Z</time>
      </trkpt>
      <trkpt lat="41.07755" lon="29.06691">
        <ele>9.025299</ele>
        <time>2021-08-22T23:57:45.412Z</time>
      </trkpt>
      <trkpt lat="41.07723" lon="29.06669">
        <ele>8.585227</ele>
        <time>2021-08-22T23:57:59.810Z</time>
      </trkpt>
      <trkpt lat="41.07708" lon="29.06652">
        <ele>8.344711</ele>
        <time>2021-08-22T23:58:09.217Z</time>
      </trkpt>
      <trkpt lat="41.07683" lon="29.06639">
        <ele>9.089357</ele>
        <time>2021-08-22T23:58:20.848Z</time>
      </trkpt>
      <trkpt lat="41.07656" lon="29.06627">
        <ele>10.086518</ele>
        <time>2021-08-22T23:58:32.705Z</time>
      </trkpt>
      <trkpt lat="41.07652" lon="29.06625">
        <ele>10.254505</ele>
        <time>2021-08-22T23:58:34.607Z</time>
      </trkpt>
      <trkpt lat="41.07631" lon="29.06614">
        <ele>11.059147</ele>
        <time>2021-08-22T23:58:46.421Z</time>
      </trkpt>
      <trkpt lat="41.07609" lon="29.06601">
        <ele>11.906486</ele>
        <time>2021-08-22T23:58:59.193Z</time>
      </trkpt>
      <trkpt lat="41.07561" lon="29.06697">
        <ele>15.084793</ele>
        <time>2021-08-22T23:59:46.172Z</time>
      </trkpt>
      <trkpt lat="41.07554" lon="29.06712">
        <ele>15.754211</ele>
        <time>2021-08-22T23:59:54.058Z</time>
      </trkpt>
      <trkpt lat="41.0753" lon="29.06717">
        <ele>16.889373</ele>
        <time>2021-08-23T00:00:10.455Z</time>
      </trkpt>
      <trkpt lat="41.07513" lon="29.06726">
        <ele>17.807018</ele>
        <time>2021-08-23T00:00:23.965Z</time>
      </trkpt>
      <trkpt lat="41.07509" lon="29.06728">
        <ele>17.989567</ele>
        <time>2021-08-23T00:00:26.668Z</time>
      </trkpt>
      <trkpt lat="41.07493" lon="29.06756">
        <ele>19.27105</ele>
        <time>2021-08-23T00:00:38.056Z</time>
      </trkpt>
      <trkpt lat="41.07459" lon="29.06807">
        <ele>21.734411</ele>
        <time>2021-08-23T00:01:09.399Z</time>
      </trkpt>
      <trkpt lat="41.07444" lon="29.06817">
        <ele>22.552974</ele>
        <time>2021-08-23T00:01:16.521Z</time>
      </trkpt>
      <trkpt lat="41.07434" lon="29.06814">
        <ele>23.040853</ele>
        <time>2021-08-23T00:01:26.825Z</time>
      </trkpt>
      <trkpt lat="41.07388" lon="29.06792">
        <ele>25.777054</ele>
        <time>2021-08-23T00:01:55.847Z</time>
      </trkpt>
      <trkpt lat="41.07375" lon="29.0681">
        <ele>26.855469</ele>
        <time>2021-08-23T00:02:06.476Z</time>
      </trkpt>
      <trkpt lat="41.07377" lon="29.06839">
        <ele>28.12141</ele>
        <time>2021-08-23T00:02:17.808Z</time>
      </trkpt>
      <trkpt lat="41.07372" lon="29.06853">
        <ele>28.797481</ele>
        <time>2021-08-23T00:02:24.641Z</time>
      </trkpt>
      <trkpt lat="41.07319" lon="29.06956">
        <ele>34.752267</ele>
        <time>2021-08-23T00:03:28.315Z</time>
      </trkpt>
      <trkpt lat="41.07307" lon="29.06962">
        <ele>36.231019</ele>
        <time>2021-08-23T00:03:38.442Z</time>
      </trkpt>
      <trkpt lat="41.07295" lon="29.06959">
        <ele>37.655307</ele>
        <time>2021-08-23T00:03:49.127Z</time>
      </trkpt>
      <trkpt lat="41.07276" lon="29.06946">
        <ele>40.276701</ele>
        <time>2021-08-23T00:04:07.571Z</time>
      </trkpt>
      <trkpt lat="41.07255" lon="29.06924">
        <ele>43.538441</ele>
        <time>2021-08-23T00:04:33.150Z</time>
      </trkpt>
      <trkpt lat="41.07236" lon="29.06908">
        <ele>46.266045</ele>
        <time>2021-08-23T00:04:55.904Z</time>
      </trkpt>
      <trkpt lat="41.07228" lon="29.06891">
        <ele>48.085547</ele>
        <time>2021-08-23T00:05:11.163Z</time>
      </trkpt>
      <trkpt lat="41.07227" lon="29.06879">
        <ele>49.128392</ele>
        <time>2021-08-23T00:05:21.418Z</time>
      </trkpt>
      <trkpt lat="41.07214" lon="29.06856">
        <ele>51.725981</ele>
        <time>2021-08-23T00:05:45.502Z</time>
      </trkpt>
      <trkpt lat="41.072" lon="29.06843">
        <ele>53.806069</ele>
        <time>2021-08-23T00:06:05.256Z</time>
      </trkpt>
      <trkpt lat="41.07181" lon="29.06834">
        <ele>56.474042</ele>
        <time>2021-08-23T00:06:29.574Z</time>
      </trkpt>
      <trkpt lat="41.07164" lon="29.06795">
        <ele>61.950405</ele>
        <time>2021-08-23T00:07:13.287Z</time>
      </trkpt>
      <trkpt lat="41.07148" lon="29.06761">
        <ele>66.921089</ele>
        <time>2021-08-23T00:07:55.201Z</time>
      </trkpt>
      <trkpt lat="41.07137" lon="29.06747">
        <ele>69.400893</ele>
        <time>2021-08-23T00:08:16.716Z</time>
      </trkpt>
      <trkpt lat="41.07129" lon="29.06739">
        <ele>70.959642</ele>
        <time>2021-08-23T00:08:28.680Z</time>
      </trkpt>
      <trkpt lat="41.07119" lon="29.06727">
        <ele>73.216775</ele>
        <time>2021-08-23T00:08:46.616Z</time>
      </trkpt>
      <trkpt lat="41.07092" lon="29.06696">
        <ele>79.020567</ele>
        <time>2021-08-23T00:09:29.056Z</time>
      </trkpt>
      <trkpt lat="41.07054" lon="29.06676">
        <ele>85.300234</ele>
        <time>2021-08-23T00:10:14.737Z</time>
      </trkpt>
      <trkpt lat="41.07045" lon="29.06669">
        <ele>86.454228</ele>
        <time>2021-08-23T00:10:27.302Z</time>
      </trkpt>
      <trkpt lat="41.07008" lon="29.06634">
        <ele>91.518259</ele>
        <time>2021-08-23T00:11:11.915Z</time>
      </trkpt>
      <trkpt lat="41.06994" lon="29.06623">
        <ele>93.397235</ele>
        <time>2021-08-23T00:11:26.872Z</time>
      </trkpt>
      <trkpt lat="41.06973" lon="29.06612">
        <ele>95.835647</ele>
        <time>2021-08-23T00:11:47.910Z</time>
      </trkpt>
      <trkpt lat="41.06908" lon="29.06588">
        <ele>103.405572</ele>
        <time>2021-08-23T00:12:47.162Z</time>
      </trkpt>
      <trkpt lat="41.06884" lon="29.0658">
        <ele>105.677677</ele>
        <time>2021-08-23T00:13:06.670Z</time>
      </trkpt>
      <trkpt lat="41.06855" lon="29.06575">
        <ele>107.763992</ele>
        <time>2021-08-23T00:13:28.512Z</time>
      </trkpt>
      <trkpt lat="41.06827" lon="29.06569">
        <ele>109.836677</ele>
        <time>2021-08-23T00:13:49.548Z</time>
      </trkpt>
      <trkpt lat="41.06778" lon="29.06574">
        <ele>113.423872</ele>
        <time>2021-08-23T00:14:24.638Z</time>
      </trkpt>
      <trkpt lat="41.0673" lon="29.06578">
        <ele>116.907337</ele>
        <time>2021-08-23T00:14:56.832Z</time>
      </trkpt>
      <trkpt lat="41.06657" lon="29.06569">
        <ele>120.702395</ele>
        <time>2021-08-23T00:15:42.253Z</time>
      </trkpt>
      <trkpt lat="41.06642" lon="29.06563">
        <ele>121.425797</ele>
        <time>2021-08-23T00:15:52.410Z</time>
      </trkpt>
      <trkpt lat="41.06624" lon="29.06574">
        <ele>122.36957</ele>
        <time>2021-08-23T00:16:03.354Z</time>
      </trkpt>
      <trkpt lat="41.06594" lon="29.06592">
        <ele>123.920284</ele>
        <time>2021-08-23T00:16:22.162Z</time>
      </trkpt>
      <trkpt lat="41.06563" lon="29.0661">
        <ele>125.566828</ele>
        <time>2021-08-23T00:16:40.684Z</time>
      </trkpt>
      <trkpt lat="41.06521" lon="29.06626">
        <ele>126.674028</ele>
        <time>2021-08-23T00:17:02.483Z</time>
      </trkpt>
      <trkpt lat="41.06513" lon="29.06628">
        <ele>126.775439</ele>
        <time>2021-08-23T00:17:07.187Z</time>
      </trkpt>
      <trkpt lat="41.06479" lon="29.06627">
        <ele>127.208902</ele>
        <time>2021-08-23T00:17:20.769Z</time>
      </trkpt>
      <trkpt lat="41.06473" lon="29.06626">
        <ele>127.285165</ele>
        <time>2021-08-23T00:17:22.995Z</time>
      </trkpt>
      <trkpt lat="41.06429" lon="29.06618">
        <ele>127.840583</ele>
        <time>2021-08-23T00:17:37.707Z</time>
      </trkpt>
      <trkpt lat="41.06415" lon="29.06615">
        <ele>128.02153</ele>
        <time>2021-08-23T00:17:42.048Z</time>
      </trkpt>
      <trkpt lat="41.06388" lon="29.06609">
        <ele>128.372405</ele>
        <time>2021-08-23T00:17:51.471Z</time>
      </trkpt>
      <trkpt lat="41.06373" lon="29.06607">
        <ele>128.565059</ele>
        <time>2021-08-23T00:17:56.735Z</time>
      </trkpt>
      <trkpt lat="41.06355" lon="29.06604">
        <ele>128.444137</ele>
        <time>2021-08-23T00:18:01.971Z</time>
      </trkpt>
      <trkpt lat="41.06309" lon="29.06605">
        <ele>127.946328</ele>
        <time>2021-08-23T00:18:14.318Z</time>
      </trkpt>
      <trkpt lat="41.06296" lon="29.06606">
        <ele>127.808219</ele>
        <time>2021-08-23T00:18:17.643Z</time>
      </trkpt>
      <trkpt lat="41.06223" lon="29.06585">
        <ele>127.007761</ele>
        <time>2021-08-23T00:18:36.379Z</time>
      </trkpt>
      <trkpt lat="41.06214" lon="29.06581">
        <ele>126.905168</ele>
        <time>2021-08-23T00:18:38.803Z</time>
      </trkpt>
      <trkpt lat="41.0617" lon="29.06563">
        <ele>126.410939</ele>
        <time>2021-08-23T00:18:51.451Z</time>
      </trkpt>
      <trkpt lat="41.06131" lon="29.06545">
        <ele>125.957127</ele>
        <time>2021-08-23T00:19:04.318Z</time>
      </trkpt>
      <trkpt lat="41.06119" lon="29.06542">
        <ele>125.822934</ele>
        <time>2021-08-23T00:19:07.971Z</time>
      </trkpt>
      <trkpt lat="41.0601" lon="29.06506">
        <ele>124.470557</ele>
        <time>2021-08-23T00:19:37.145Z</time>
      </trkpt>
      <trkpt lat="41.05982" lon="29.065">
        <ele>123.770005</ele>
        <time>2021-08-23T00:19:44.095Z</time>
      </trkpt>
      <trkpt lat="41.05947" lon="29.06493">
        <ele>122.927449</ele>
        <time>2021-08-23T00:19:52.448Z</time>
      </trkpt>
      <trkpt lat="41.05893" lon="29.06475">
        <ele>121.58357</ele>
        <time>2021-08-23T00:20:05.774Z</time>
      </trkpt>
      <trkpt lat="41.05877" lon="29.06469">
        <ele>121.18548</ele>
        <time>2021-08-23T00:20:09.514Z</time>
      </trkpt>
      <trkpt lat="41.05846" lon="29.06457">
        <ele>120.412591</ele>
        <time>2021-08-23T00:20:16.937Z</time>
      </trkpt>
      <trkpt lat="41.05838" lon="29.06454">
        <ele>120.138769</ele>
        <time>2021-08-23T00:20:18.931Z</time>
      </trkpt>
      <trkpt lat="41.05835" lon="29.06452">
        <ele>120.023861</ele>
        <time>2021-08-23T00:20:19.722Z</time>
      </trkpt>
      <trkpt lat="41.05788" lon="29.06427">
        <ele>118.331683</ele>
        <time>2021-08-23T00:20:31.779Z</time>
      </trkpt>
      <trkpt lat="41.05781" lon="29.06423">
        <ele>118.073905</ele>
        <time>2021-08-23T00:20:33.492Z</time>
      </trkpt>
      <trkpt lat="41.05769" lon="29.06407">
        <ele>117.51706</ele>
        <time>2021-08-23T00:20:37.378Z</time>
      </trkpt>
      <trkpt lat="41.05766" lon="29.06359">
        <ele>116.315357</ele>
        <time>2021-08-23T00:20:45.508Z</time>
      </trkpt>
      <trkpt lat="41.05767" lon="29.0634">
        <ele>115.826888</ele>
        <time>2021-08-23T00:20:48.875Z</time>
      </trkpt>
      <trkpt lat="41.05764" lon="29.06322">
        <ele>115.377304</ele>
        <time>2021-08-23T00:20:51.859Z</time>
      </trkpt>
      <trkpt lat="41.05733" lon="29.06257">
        <ele>112.773967</ele>
        <time>2021-08-23T00:21:04.717Z</time>
      </trkpt>
      <trkpt lat="41.05728" lon="29.06249">
        <ele>112.340044</ele>
        <time>2021-08-23T00:21:06.317Z</time>
      </trkpt>
      <trkpt lat="41.05662" lon="29.06148">
        <ele>106.701528</ele>
        <time>2021-08-23T00:21:27.382Z</time>
      </trkpt>
      <trkpt lat="41.05651" lon="29.06132">
        <ele>105.762672</ele>
        <time>2021-08-23T00:21:30.706Z</time>
      </trkpt>
      <trkpt lat="41.05639" lon="29.06112">
        <ele>104.684992</ele>
        <time>2021-08-23T00:21:34.574Z</time>
      </trkpt>
      <trkpt lat="41.05636" lon="29.06106">
        <ele>104.370786</ele>
        <time>2021-08-23T00:21:35.681Z</time>
      </trkpt>
      <trkpt lat="41.05627" lon="29.06083">
        <ele>102.591853</ele>
        <time>2021-08-23T00:21:39.555Z</time>
      </trkpt>
      <trkpt lat="41.05607" lon="29.06035">
        <ele>98.654228</ele>
        <time>2021-08-23T00:21:47.714Z</time>
      </trkpt>
      <trkpt lat="41.05584" lon="29.05979">
        <ele>94.128908</ele>
        <time>2021-08-23T00:21:56.955Z</time>
      </trkpt>
      <trkpt lat="41.05569" lon="29.05944">
        <ele>91.301301</ele>
        <time>2021-08-23T00:22:02.785Z</time>
      </trkpt>
      <trkpt lat="41.05555" lon="29.05908">
        <ele>88.400951</ele>
        <time>2021-08-23T00:22:08.509Z</time>
      </trkpt>
      <trkpt lat="41.05539" lon="29.05888">
        <ele>85.803102</ele>
        <time>2021-08-23T00:22:12.647Z</time>
      </trkpt>
      <trkpt lat="41.05518" lon="29.05861">
        <ele>81.739225</ele>
        <time>2021-08-23T00:22:18.014Z</time>
      </trkpt>
      <trkpt lat="41.05473" lon="29.05809">
        <ele>73.28886</ele>
        <time>2021-08-23T00:22:29.019Z</time>
      </trkpt>
      <trkpt lat="41.05464" lon="29.05801">
        <ele>71.847106</ele>
        <time>2021-08-23T00:22:30.875Z</time>
      </trkpt>
      <trkpt lat="41.05443" lon="29.05788">
        <ele>68.598549</ele>
        <time>2021-08-23T00:22:35.080Z</time>
      </trkpt>
      <trkpt lat="41.05401" lon="29.05762">
        <ele>61.99727</ele>
        <time>2021-08-23T00:22:43.607Z</time>
      </trkpt>
      <trkpt lat="41.05365" lon="29.05756">
        <ele>56.816043</ele>
        <time>2021-08-23T00:22:50.267Z</time>
      </trkpt>
      <trkpt lat="41.05355" lon="29.05754">
        <ele>55.391832</ele>
        <time>2021-08-23T00:22:52.051Z</time>
      </trkpt>
      <trkpt lat="41.05269" lon="29.05706">
        <ele>42.154589</ele>
        <time>2021-08-23T00:23:08.994Z</time>
      </trkpt>
      <trkpt lat="41.05217" lon="29.05656">
        <ele>33.947273</ele>
        <time>2021-08-23T00:23:20.685Z</time>
      </trkpt>
      <trkpt lat="41.05192" lon="29.05632">
        <ele>30.667101</ele>
        <time>2021-08-23T00:23:26.629Z</time>
      </trkpt>
      <trkpt lat="41.0514" lon="29.05583">
        <ele>24.046142</ele>
        <time>2021-08-23T00:23:38.759Z</time>
      </trkpt>
      <trkpt lat="41.05127" lon="29.05555">
        <ele>21.448076</ele>
        <time>2021-08-23T00:23:43.505Z</time>
      </trkpt>
      <trkpt lat="41.05123" lon="29.05546">
        <ele>20.680616</ele>
        <time>2021-08-23T00:23:44.959Z</time>
      </trkpt>
      <trkpt lat="41.05113" lon="29.05518">
        <ele>18.240484</ele>
        <time>2021-08-23T00:23:49.496Z</time>
      </trkpt>
      <trkpt lat="41.05109" lon="29.05485">
        <ele>16.902855</ele>
        <time>2021-08-23T00:23:54.475Z</time>
      </trkpt>
      <trkpt lat="41.05095" lon="29.05456">
        <ele>15.905796</ele>
        <time>2021-08-23T00:23:59.637Z</time>
      </trkpt>
      <trkpt lat="41.05082" lon="29.05421">
        <ele>14.735661</ele>
        <time>2021-08-23T00:24:05.851Z</time>
      </trkpt>
      <trkpt lat="41.05057" lon="29.05419">
        <ele>13.744292</ele>
        <time>2021-08-23T00:24:11.491Z</time>
      </trkpt>
      <trkpt lat="41.05052" lon="29.05418">
        <ele>13.55714</ele>
        <time>2021-08-23T00:24:12.453Z</time>
      </trkpt>
      <trkpt lat="41.05053" lon="29.05395">
        <ele>12.885159</ele>
        <time>2021-08-23T00:24:17.023Z</time>
      </trkpt>
      <trkpt lat="41.05043" lon="29.05375">
        <ele>12.166287</ele>
        <time>2021-08-23T00:24:21.842Z</time>
      </trkpt>
      <trkpt lat="41.05038" lon="29.05379">
        <ele>11.930231</ele>
        <time>2021-08-23T00:24:23.528Z</time>
      </trkpt>
      <trkpt lat="41.05026" lon="29.05353">
        <ele>11.046957</ele>
        <time>2021-08-23T00:24:30.216Z</time>
      </trkpt>
      <trkpt lat="41.05017" lon="29.05344">
        <ele>10.609906</ele>
        <time>2021-08-23T00:24:33.173Z</time>
      </trkpt>
      <trkpt lat="41.05012" lon="29.05352">
        <ele>10.727605</ele>
        <time>2021-08-23T00:24:35.472Z</time>
      </trkpt>
      <trkpt lat="41.04989" lon="29.05392">
        <ele>11.332479</ele>
        <time>2021-08-23T00:24:48.145Z</time>
      </trkpt>
      <trkpt lat="41.04966" lon="29.05448">
        <ele>12.102167</ele>
        <time>2021-08-23T00:25:07.722Z</time>
      </trkpt>
      <trkpt lat="41.04933" lon="29.05444">
        <ele>12.627396</ele>
        <time>2021-08-23T00:25:22.504Z</time>
      </trkpt>
      <trkpt lat="41.04893" lon="29.05439">
        <ele>13.264659</ele>
        <time>2021-08-23T00:25:40.647Z</time>
      </trkpt>
      <trkpt lat="41.04889" lon="29.0544">
        <ele>13.331879</ele>
        <time>2021-08-23T00:25:42.811Z</time>
      </trkpt>
      <trkpt lat="41.04872" lon="29.05442">
        <ele>13.762716</ele>
        <time>2021-08-23T00:25:50.510Z</time>
      </trkpt>
      <trkpt lat="41.04868" lon="29.05441">
        <ele>13.911992</ele>
        <time>2021-08-23T00:25:53.441Z</time>
      </trkpt>
      <trkpt lat="41.04824" lon="29.05425">
        <ele>15.462083</ele>
        <time>2021-08-23T00:26:15.224Z</time>
      </trkpt>
      <trkpt lat="41.04812" lon="29.05415">
        <ele>15.939276</ele>
        <time>2021-08-23T00:26:22.258Z</time>
      </trkpt>
      <trkpt lat="41.04777" lon="29.05371">
        <ele>17.610306</ele>
        <time>2021-08-23T00:26:49.042Z</time>
      </trkpt>
      <trkpt lat="41.04752" lon="29.05319">
        <ele>19.227388</ele>
        <time>2021-08-23T00:27:15.600Z</time>
      </trkpt>
      <trkpt lat="41.0475" lon="29.05313">
        <ele>19.376124</ele>
        <time>2021-08-23T00:27:17.281Z</time>
      </trkpt>
      <trkpt lat="41.04716" lon="29.0521">
        <ele>20.874226</ele>
        <time>2021-08-23T00:27:53.354Z</time>
      </trkpt>
      <trkpt lat="41.04697" lon="29.05156">
        <ele>21.568353</ele>
        <time>2021-08-23T00:28:09.094Z</time>
      </trkpt>
      <trkpt lat="41.04691" lon="29.05148">
        <ele>21.709216</ele>
        <time>2021-08-23T00:28:13.604Z</time>
      </trkpt>
      <trkpt lat="41.04655" lon="29.05064">
        <ele>22.417162</ele>
        <time>2021-08-23T00:28:39.132Z</time>
      </trkpt>
      <trkpt lat="41.04645" lon="29.05044">
        <ele>22.362513</ele>
        <time>2021-08-23T00:28:44.169Z</time>
      </trkpt>
      <trkpt lat="41.04633" lon="29.05017">
        <ele>22.290305</ele>
        <time>2021-08-23T00:28:52.217Z</time>
      </trkpt>
      <trkpt lat="41.04617" lon="29.0498">
        <ele>22.192285</ele>
        <time>2021-08-23T00:29:01.768Z</time>
      </trkpt>
      <trkpt lat="41.04611" lon="29.04961">
        <ele>22.14452</ele>
        <time>2021-08-23T00:29:05.720Z</time>
      </trkpt>
      <trkpt lat="41.04603" lon="29.04937">
        <ele>22.085075</ele>
        <time>2021-08-23T00:29:10.885Z</time>
      </trkpt>
      <trkpt lat="41.04598" lon="29.04919">
        <ele>22.040211</ele>
        <time>2021-08-23T00:29:14.884Z</time>
      </trkpt>
      <trkpt lat="41.04586" lon="29.04885">
        <ele>21.954306</ele>
        <time>2021-08-23T00:29:23.059Z</time>
      </trkpt>
      <trkpt lat="41.04573" lon="29.04838">
        <ele>21.589744</ele>
        <time>2021-08-23T00:29:34.182Z</time>
      </trkpt>
      <trkpt lat="41.04533" lon="29.04735">
        <ele>20.652858</ele>
        <time>2021-08-23T00:29:58.384Z</time>
      </trkpt>
      <trkpt lat="41.04526" lon="29.04723">
        <ele>20.525963</ele>
        <time>2021-08-23T00:30:01.517Z</time>
      </trkpt>
      <trkpt lat="41.04491" lon="29.04655">
        <ele>19.670331</ele>
        <time>2021-08-23T00:30:17.178Z</time>
      </trkpt>
      <trkpt lat="41.04477" lon="29.04636">
        <ele>19.217809</ele>
        <time>2021-08-23T00:30:21.933Z</time>
      </trkpt>
      <trkpt lat="41.04466" lon="29.04623">
        <ele>18.852089</ele>
        <time>2021-08-23T00:30:26.002Z</time>
      </trkpt>
      <trkpt lat="41.04449" lon="29.04592">
        <ele>18.162791</ele>
        <time>2021-08-23T00:30:32.836Z</time>
      </trkpt>
      <trkpt lat="41.04447" lon="29.0458">
        <ele>17.951885</ele>
        <time>2021-08-23T00:30:35.172Z</time>
      </trkpt>
      <trkpt lat="41.04429" lon="29.04538">
        <ele>17.093626</ele>
        <time>2021-08-23T00:30:43.662Z</time>
      </trkpt>
      <trkpt lat="41.04418" lon="29.04506">
        <ele>16.459304</ele>
        <time>2021-08-23T00:30:49.810Z</time>
      </trkpt>
      <trkpt lat="41.04409" lon="29.0447">
        <ele>15.774504</ele>
        <time>2021-08-23T00:30:56.607Z</time>
      </trkpt>
      <trkpt lat="41.04401" lon="29.04439">
        <ele>15.215499</ele>
        <time>2021-08-23T00:31:02.368Z</time>
      </trkpt>
      <trkpt lat="41.04395" lon="29.04422">
        <ele>14.893653</ele>
        <time>2021-08-23T00:31:05.554Z</time>
      </trkpt>
      <trkpt lat="41.04343" lon="29.04304">
        <ele>12.537994</ele>
        <time>2021-08-23T00:31:30.492Z</time>
      </trkpt>
      <trkpt lat="41.04332" lon="29.04272">
        <ele>11.927388</ele>
        <time>2021-08-23T00:31:37.070Z</time>
      </trkpt>
      <trkpt lat="41.04307" lon="29.04176">
        <ele>11.741238</ele>
        <time>2021-08-23T00:31:56.654Z</time>
      </trkpt>
      <trkpt lat="41.04306" lon="29.04171">
        <ele>11.747645</ele>
        <time>2021-08-23T00:31:58.050Z</time>
      </trkpt>
      <trkpt lat="41.04304" lon="29.04166">
        <ele>11.753976</ele>
        <time>2021-08-23T00:31:59.086Z</time>
      </trkpt>
      <trkpt lat="41.04301" lon="29.04163">
        <ele>11.760309</ele>
        <time>2021-08-23T00:32:00.256Z</time>
      </trkpt>
      <trkpt lat="41.04298" lon="29.04162">
        <ele>11.765327</ele>
        <time>2021-08-23T00:32:01.180Z</time>
      </trkpt>
      <trkpt lat="41.04292" lon="29.04162">
        <ele>11.775324</ele>
        <time>2021-08-23T00:32:02.826Z</time>
      </trkpt>
      <trkpt lat="41.04289" lon="29.04163">
        <ele>11.780436</ele>
        <time>2021-08-23T00:32:03.743Z</time>
      </trkpt>
      <trkpt lat="41.0427" lon="29.0417">
        <ele>11.811818</ele>
        <time>2021-08-23T00:32:09.499Z</time>
      </trkpt>
      <trkpt lat="41.04249" lon="29.04178">
        <ele>11.846721</ele>
        <time>2021-08-23T00:32:16.184Z</time>
      </trkpt>
      <trkpt lat="41.04183" lon="29.042">
        <ele>12.927582</ele>
        <time>2021-08-23T00:32:46.647Z</time>
      </trkpt>
      <trkpt lat="41.04125" lon="29.04202">
        <ele>16.208727</ele>
        <time>2021-08-23T00:33:18.330Z</time>
      </trkpt>
      <trkpt lat="41.04076" lon="29.042">
        <ele>19.029114</ele>
        <time>2021-08-23T00:33:50.204Z</time>
      </trkpt>
      <trkpt lat="41.04026" lon="29.04197">
        <ele>21.85002</ele>
        <time>2021-08-23T00:34:26.822Z</time>
      </trkpt>
      <trkpt lat="41.04016" lon="29.04187">
        <ele>22.660423</ele>
        <time>2021-08-23T00:34:37.814Z</time>
      </trkpt>
      <trkpt lat="41.04017" lon="29.04177">
        <ele>23.227778</ele>
        <time>2021-08-23T00:34:44.303Z</time>
      </trkpt>
      <trkpt lat="41.04047" lon="29.04122">
        <ele>26.987307</ele>
        <time>2021-08-23T00:35:27.988Z</time>
      </trkpt>
      <trkpt lat="41.04051" lon="29.04102">
        <ele>28.129104</ele>
        <time>2021-08-23T00:35:41.215Z</time>
      </trkpt>
      <trkpt lat="41.04053" lon="29.04094">
        <ele>28.57724</ele>
        <time>2021-08-23T00:35:45.792Z</time>
      </trkpt>
      <trkpt lat="41.04054" lon="29.04058">
        <ele>30.536945</ele>
        <time>2021-08-23T00:36:06.840Z</time>
      </trkpt>
      <trkpt lat="41.0404" lon="29.03997">
        <ele>34.053099</ele>
        <time>2021-08-23T00:36:38.843Z</time>
      </trkpt>
      <trkpt lat="41.04026" lon="29.03977">
        <ele>35.238065</ele>
        <time>2021-08-23T00:36:50.931Z</time>
      </trkpt>
      <trkpt lat="41.04006" lon="29.0396">
        <ele>34.962558</ele>
        <time>2021-08-23T00:37:03.336Z</time>
      </trkpt>
      <trkpt lat="41.03984" lon="29.03944">
        <ele>34.663173</ele>
        <time>2021-08-23T00:37:15.847Z</time>
      </trkpt>
      <trkpt lat="41.03941" lon="29.03912">
        <ele>34.080388</ele>
        <time>2021-08-23T00:37:31.488Z</time>
      </trkpt>
      <trkpt lat="41.03932" lon="29.039">
        <ele>33.921543</ele>
        <time>2021-08-23T00:37:34.402Z</time>
      </trkpt>
      <trkpt lat="41.0392" lon="29.03869">
        <ele>33.616275</ele>
        <time>2021-08-23T00:37:40.029Z</time>
      </trkpt>
      <trkpt lat="41.03922" lon="29.03831">
        <ele>33.271719</ele>
        <time>2021-08-23T00:37:46.137Z</time>
      </trkpt>
      <trkpt lat="41.03934" lon="29.03771">
        <ele>30.667873</ele>
        <time>2021-08-23T00:37:55.309Z</time>
      </trkpt>
      <trkpt lat="41.03934" lon="29.03736">
        <ele>28.932644</ele>
        <time>2021-08-23T00:38:00.361Z</time>
      </trkpt>
      <trkpt lat="41.03933" lon="29.03717">
        <ele>27.972257</ele>
        <time>2021-08-23T00:38:03.163Z</time>
      </trkpt>
      <trkpt lat="41.03928" lon="29.03684">
        <ele>26.247248</ele>
        <time>2021-08-23T00:38:08.352Z</time>
      </trkpt>
      <trkpt lat="41.03928" lon="29.03659">
        <ele>24.993226</ele>
        <time>2021-08-23T00:38:12.014Z</time>
      </trkpt>
      <trkpt lat="41.03934" lon="29.03631">
        <ele>23.495226</ele>
        <time>2021-08-23T00:38:16.783Z</time>
      </trkpt>
      <trkpt lat="41.03941" lon="29.03616">
        <ele>22.618568</ele>
        <time>2021-08-23T00:38:19.339Z</time>
      </trkpt>
      <trkpt lat="41.03947" lon="29.03606">
        <ele>21.946022</ele>
        <time>2021-08-23T00:38:21.517Z</time>
      </trkpt>
      <trkpt lat="41.03955" lon="29.03594">
        <ele>21.141063</ele>
        <time>2021-08-23T00:38:24.166Z</time>
      </trkpt>
      <trkpt lat="41.03958" lon="29.0358">
        <ele>20.750219</ele>
        <time>2021-08-23T00:38:26.354Z</time>
      </trkpt>
      <trkpt lat="41.03959" lon="29.03563">
        <ele>20.344887</ele>
        <time>2021-08-23T00:38:29.185Z</time>
      </trkpt>
      <trkpt lat="41.03958" lon="29.03558">
        <ele>20.232102</ele>
        <time>2021-08-23T00:38:30.038Z</time>
      </trkpt>
      <trkpt lat="41.03956" lon="29.0355">
        <ele>20.039389</ele>
        <time>2021-08-23T00:38:31.412Z</time>
      </trkpt>
      <trkpt lat="41.0395" lon="29.03525">
        <ele>19.406884</ele>
        <time>2021-08-23T00:38:35.456Z</time>
      </trkpt>
      <trkpt lat="41.03949" lon="29.0352">
        <ele>19.283382</ele>
        <time>2021-08-23T00:38:36.402Z</time>
      </trkpt>
      <trkpt lat="41.03949" lon="29.03511">
        <ele>19.083911</ele>
        <time>2021-08-23T00:38:37.912Z</time>
      </trkpt>
      <trkpt lat="41.03944" lon="29.03465">
        <ele>17.980564</ele>
        <time>2021-08-23T00:38:45.704Z</time>
      </trkpt>
      <trkpt lat="41.03942" lon="29.03445">
        <ele>17.510914</ele>
        <time>2021-08-23T00:38:49.259Z</time>
      </trkpt>
      <trkpt lat="41.0394" lon="29.03432">
        <ele>17.198619</ele>
        <time>2021-08-23T00:38:51.288Z</time>
      </trkpt>
      <trkpt lat="41.03934" lon="29.03415">
        <ele>16.750977</ele>
        <time>2021-08-23T00:38:54.957Z</time>
      </trkpt>
      <trkpt lat="41.03933" lon="29.03411">
        <ele>16.653112</ele>
        <time>2021-08-23T00:38:55.881Z</time>
      </trkpt>
      <trkpt lat="41.03923" lon="29.03393">
        <ele>16.118576</ele>
        <time>2021-08-23T00:39:00.456Z</time>
      </trkpt>
      <trkpt lat="41.0392" lon="29.03389">
        <ele>16.012258</ele>
        <time>2021-08-23T00:39:01.615Z</time>
      </trkpt>
      <trkpt lat="41.03902" lon="29.03366">
        <ele>15.506266</ele>
        <time>2021-08-23T00:39:11.852Z</time>
      </trkpt>
      <trkpt lat="41.03898" lon="29.03359">
        <ele>15.570563</ele>
        <time>2021-08-23T00:39:13.407Z</time>
      </trkpt>
      <trkpt lat="41.03875" lon="29.03325">
        <ele>15.910299</ele>
        <time>2021-08-23T00:39:27.214Z</time>
      </trkpt>
      <trkpt lat="41.03864" lon="29.03302">
        <ele>16.113832</ele>
        <time>2021-08-23T00:39:35.079Z</time>
      </trkpt>
      <trkpt lat="41.03844" lon="29.03265">
        <ele>16.455423</ele>
        <time>2021-08-23T00:39:48.903Z</time>
      </trkpt>
      <trkpt lat="41.0384" lon="29.03254">
        <ele>16.548221</ele>
        <time>2021-08-23T00:39:53.592Z</time>
      </trkpt>
      <trkpt lat="41.03831" lon="29.03214">
        <ele>16.859367</ele>
        <time>2021-08-23T00:40:05.615Z</time>
      </trkpt>
      <trkpt lat="41.03814" lon="29.03176">
        <ele>17.185629</ele>
        <time>2021-08-23T00:40:16.968Z</time>
      </trkpt>
      <trkpt lat="41.03797" lon="29.0315">
        <ele>17.270435</ele>
        <time>2021-08-23T00:40:26.998Z</time>
      </trkpt>
      <trkpt lat="41.03789" lon="29.03138">
        <ele>17.300919</ele>
        <time>2021-08-23T00:40:30.271Z</time>
      </trkpt>
      <trkpt lat="41.03751" lon="29.03094">
        <ele>17.425219</ele>
        <time>2021-08-23T00:40:46.456Z</time>
      </trkpt>
      <trkpt lat="41.03721" lon="29.03066">
        <ele>17.518587</ele>
        <time>2021-08-23T00:40:57.236Z</time>
      </trkpt>
      <trkpt lat="41.03685" lon="29.03021">
        <ele>17.640865</ele>
        <time>2021-08-23T00:41:11.815Z</time>
      </trkpt>
      <trkpt lat="41.03677" lon="29.03009">
        <ele>17.803595</ele>
        <time>2021-08-23T00:41:14.911Z</time>
      </trkpt>
      <trkpt lat="41.03668" lon="29.02995">
        <ele>18.341152</ele>
        <time>2021-08-23T00:41:20.223Z</time>
      </trkpt>
      <trkpt lat="41.03642" lon="29.02939">
        <ele>20.264529</ele>
        <time>2021-08-23T00:41:41.712Z</time>
      </trkpt>
      <trkpt lat="41.03616" lon="29.02878">
        <ele>22.275717</ele>
        <time>2021-08-23T00:42:11.851Z</time>
      </trkpt>
      <trkpt lat="41.03599" lon="29.02846">
        <ele>23.414439</ele>
        <time>2021-08-23T00:42:29.403Z</time>
      </trkpt>
      <trkpt lat="41.03561" lon="29.0278">
        <ele>25.974723</ele>
        <time>2021-08-23T00:43:12.285Z</time>
      </trkpt>
      <trkpt lat="41.03553" lon="29.02769">
        <ele>26.4662</ele>
        <time>2021-08-23T00:43:22.116Z</time>
      </trkpt>
      <trkpt lat="41.03519" lon="29.02743">
        <ele>28.166148</ele>
        <time>2021-08-23T00:43:49.233Z</time>
      </trkpt>
      <trkpt lat="41.03457" lon="29.02655">
        <ele>32.050858</ele>
        <time>2021-08-23T00:44:36.317Z</time>
      </trkpt>
      <trkpt lat="41.03345" lon="29.02511">
        <ele>30.124396</ele>
        <time>2021-08-23T00:45:14.360Z</time>
      </trkpt>
      <trkpt lat="41.03308" lon="29.02476">
        <ele>29.283132</ele>
        <time>2021-08-23T00:45:25.785Z</time>
      </trkpt>
      <trkpt lat="41.03291" lon="29.02456">
        <ele>28.696079</ele>
        <time>2021-08-23T00:45:32.454Z</time>
      </trkpt>
      <trkpt lat="41.03281" lon="29.02441">
        <ele>28.322494</ele>
        <time>2021-08-23T00:45:35.636Z</time>
      </trkpt>
      <trkpt lat="41.0327" lon="29.02421">
        <ele>27.83279</ele>
        <time>2021-08-23T00:45:39.930Z</time>
      </trkpt>
      <trkpt lat="41.03268" lon="29.02418">
        <ele>27.775634</ele>
        <time>2021-08-23T00:45:41.275Z</time>
      </trkpt>
      <trkpt lat="41.03246" lon="29.02371">
        <ele>26.70214</ele>
        <time>2021-08-23T00:45:50.860Z</time>
      </trkpt>
      <trkpt lat="41.03228" lon="29.02335">
        <ele>25.864953</ele>
        <time>2021-08-23T00:45:58.305Z</time>
      </trkpt>
      <trkpt lat="41.03228" lon="29.02334">
        <ele>25.840181</ele>
        <time>2021-08-23T00:45:58.514Z</time>
      </trkpt>
      <trkpt lat="41.03206" lon="29.02292">
        <ele>25.009711</ele>
        <time>2021-08-23T00:46:07.866Z</time>
      </trkpt>
      <trkpt lat="41.03196" lon="29.02254">
        <ele>24.724563</ele>
        <time>2021-08-23T00:46:15.047Z</time>
      </trkpt>
      <trkpt lat="41.03176" lon="29.02181">
        <ele>24.163092</ele>
        <time>2021-08-23T00:46:29.512Z</time>
      </trkpt>
      <trkpt lat="41.03149" lon="29.02113">
        <ele>23.616165</ele>
        <time>2021-08-23T00:46:46.273Z</time>
      </trkpt>
      <trkpt lat="41.03138" lon="29.02087">
        <ele>23.401567</ele>
        <time>2021-08-23T00:46:53.092Z</time>
      </trkpt>
      <trkpt lat="41.03138" lon="29.02086">
        <ele>23.392162</ele>
        <time>2021-08-23T00:46:53.895Z</time>
      </trkpt>
      <trkpt lat="41.0313" lon="29.02072">
        <ele>23.779263</ele>
        <time>2021-08-23T00:46:59.362Z</time>
      </trkpt>
      <trkpt lat="41.03123" lon="29.02058">
        <ele>24.196877</ele>
        <time>2021-08-23T00:47:05.185Z</time>
      </trkpt>
      <trkpt lat="41.03122" lon="29.02056">
        <ele>24.253217</ele>
        <time>2021-08-23T00:47:06.507Z</time>
      </trkpt>
      <trkpt lat="41.03102" lon="29.02021">
        <ele>25.31532</ele>
        <time>2021-08-23T00:47:22.875Z</time>
      </trkpt>
      <trkpt lat="41.03097" lon="29.02013">
        <ele>25.571921</ele>
        <time>2021-08-23T00:47:27.164Z</time>
      </trkpt>
      <trkpt lat="41.03058" lon="29.01955">
        <ele>27.461914</ele>
        <time>2021-08-23T00:47:59.380Z</time>
      </trkpt>
      <trkpt lat="41.0301" lon="29.01874">
        <ele>28.920076</ele>
        <time>2021-08-23T00:48:42.013Z</time>
      </trkpt>
      <trkpt lat="41.02994" lon="29.01849">
        <ele>28.653134</ele>
        <time>2021-08-23T00:48:52.288Z</time>
      </trkpt>
      <trkpt lat="41.02984" lon="29.01835">
        <ele>28.494501</ele>
        <time>2021-08-23T00:48:57.292Z</time>
      </trkpt>
      <trkpt lat="41.02948" lon="29.01792">
        <ele>27.961537</ele>
        <time>2021-08-23T00:49:11.150Z</time>
      </trkpt>
      <trkpt lat="41.02944" lon="29.01787">
        <ele>27.905008</ele>
        <time>2021-08-23T00:49:12.565Z</time>
      </trkpt>
      <trkpt lat="41.02935" lon="29.01777">
        <ele>27.777818</ele>
        <time>2021-08-23T00:49:15.210Z</time>
      </trkpt>
      <trkpt lat="41.02911" lon="29.01754">
        <ele>27.457053</ele>
        <time>2021-08-23T00:49:21.382Z</time>
      </trkpt>
      <trkpt lat="41.02856" lon="29.01696">
        <ele>23.733615</ele>
        <time>2021-08-23T00:49:35.809Z</time>
      </trkpt>
      <trkpt lat="41.02851" lon="29.01691">
        <ele>23.265741</ele>
        <time>2021-08-23T00:49:37.127Z</time>
      </trkpt>
      <trkpt lat="41.02817" lon="29.01658">
        <ele>20.29877</ele>
        <time>2021-08-23T00:49:45.472Z</time>
      </trkpt>
      <trkpt lat="41.02814" lon="29.01639">
        <ele>19.272008</ele>
        <time>2021-08-23T00:49:49.345Z</time>
      </trkpt>
      <trkpt lat="41.02812" lon="29.01625">
        <ele>18.519785</ele>
        <time>2021-08-23T00:49:51.481Z</time>
      </trkpt>
      <trkpt lat="41.02776" lon="29.01588">
        <ele>15.304465</ele>
        <time>2021-08-23T00:50:00.927Z</time>
      </trkpt>
      <trkpt lat="41.02729" lon="29.0154">
        <ele>12.230621</ele>
        <time>2021-08-23T00:50:13.025Z</time>
      </trkpt>
      <trkpt lat="41.02713" lon="29.01529">
        <ele>11.331046</ele>
        <time>2021-08-23T00:50:17.180Z</time>
      </trkpt>
      <trkpt lat="41.02705" lon="29.01525">
        <ele>10.919295</ele>
        <time>2021-08-23T00:50:18.952Z</time>
      </trkpt>
      <trkpt lat="41.02703" lon="29.01523">
        <ele>10.811967</ele>
        <time>2021-08-23T00:50:19.421Z</time>
      </trkpt>
      <trkpt lat="41.02678" lon="29.01497">
        <ele>9.319626</ele>
        <time>2021-08-23T00:50:26.492Z</time>
      </trkpt>
      <trkpt lat="41.02674" lon="29.01493">
        <ele>9.090544</ele>
        <time>2021-08-23T00:50:27.564Z</time>
      </trkpt>
      <trkpt lat="41.02626" lon="29.01418">
        <ele>5.897713</ele>
        <time>2021-08-23T00:50:46.270Z</time>
      </trkpt>
      <trkpt lat="41.02591" lon="29.01296">
        <ele>5.679764</ele>
        <time>2021-08-23T00:51:16.904Z</time>
      </trkpt>
      <trkpt lat="41.02591" lon="29.01295">
        <ele>5.677715</ele>
        <time>2021-08-23T00:51:17.327Z</time>
      </trkpt>
      <trkpt lat="41.02582" lon="29.01248">
        <ele>5.597559</ele>
        <time>2021-08-23T00:51:30.094Z</time>
      </trkpt>
      <trkpt lat="41.02569" lon="29.0117">
        <ele>5.897648</ele>
        <time>2021-08-23T00:51:51.923Z</time>
      </trkpt>
      <trkpt lat="41.02568" lon="29.01127">
        <ele>6.407565</ele>
        <time>2021-08-23T00:52:04.504Z</time>
      </trkpt>
      <trkpt lat="41.02582" lon="29.00985">
        <ele>8.105897</ele>
        <time>2021-08-23T00:52:51.481Z</time>
      </trkpt>
      <trkpt lat="41.02578" lon="29.00961">
        <ele>8.388278</ele>
        <time>2021-08-23T00:52:59.293Z</time>
      </trkpt>
      <trkpt lat="41.02561" lon="29.00923">
        <ele>8.908695</ele>
        <time>2021-08-23T00:53:14.162Z</time>
      </trkpt>
      <trkpt lat="41.02539" lon="29.00886">
        <ele>9.45728</ele>
        <time>2021-08-23T00:53:29.741Z</time>
      </trkpt>
      <trkpt lat="41.0252" lon="29.00864">
        <ele>9.849241</ele>
        <time>2021-08-23T00:53:41.010Z</time>
      </trkpt>
      <trkpt lat="41.02391" lon="29.00748">
        <ele>10.765633</ele>
        <time>2021-08-23T00:54:39.249Z</time>
      </trkpt>
      <trkpt lat="41.02241" lon="29.00656">
        <ele>9.620584</ele>
        <time>2021-08-23T00:55:24.022Z</time>
      </trkpt>
      <trkpt lat="41.02223" lon="29.00649">
        <ele>9.425118</ele>
        <time>2021-08-23T00:55:28.905Z</time>
      </trkpt>
      <trkpt lat="41.02191" lon="29.00655">
        <ele>9.081543</ele>
        <time>2021-08-23T00:55:37.641Z</time>
      </trkpt>
      <trkpt lat="41.02133" lon="29.00676">
        <ele>8.436899</ele>
        <time>2021-08-23T00:55:55.024Z</time>
      </trkpt>
      <trkpt lat="41.02108" lon="29.00693">
        <ele>8.455344</ele>
        <time>2021-08-23T00:56:04.299Z</time>
      </trkpt>
      <trkpt lat="41.02101" lon="29.00698">
        <ele>8.506014</ele>
        <time>2021-08-23T00:56:06.586Z</time>
      </trkpt>
      <trkpt lat="41.02001" lon="29.00777">
        <ele>9.261866</ele>
        <time>2021-08-23T00:56:49.163Z</time>
      </trkpt>
      <trkpt lat="41.01936" lon="29.00859">
        <ele>10.173555</ele>
        <time>2021-08-23T00:57:25.502Z</time>
      </trkpt>
      <trkpt lat="41.01923" lon="29.0087">
        <ele>10.379133</ele>
        <time>2021-08-23T00:57:31.860Z</time>
      </trkpt>
      <trkpt lat="41.01904" lon="29.00878">
        <ele>10.629375</ele>
        <time>2021-08-23T00:57:39.653Z</time>
      </trkpt>
      <trkpt lat="41.01776" lon="29.00873">
        <ele>12.365487</ele>
        <time>2021-08-23T00:58:29.204Z</time>
      </trkpt>
      <trkpt lat="41.01708" lon="29.00969">
        <ele>13.926462</ele>
        <time>2021-08-23T00:59:10.133Z</time>
      </trkpt>
      <trkpt lat="41.0164" lon="29.01034">
        <ele>15.192837</ele>
        <time>2021-08-23T00:59:46.759Z</time>
      </trkpt>
      <trkpt lat="41.01521" lon="29.01089">
        <ele>17.041494</ele>
        <time>2021-08-23T01:00:40.495Z</time>
      </trkpt>
      <trkpt lat="41.01367" lon="29.01126">
        <ele>15.409638</ele>
        <time>2021-08-23T01:01:27.528Z</time>
      </trkpt>
      <trkpt lat="41.01308" lon="29.0113">
        <ele>14.022016</ele>
        <time>2021-08-23T01:01:40.846Z</time>
      </trkpt>
      <trkpt lat="41.01294" lon="29.01129">
        <ele>13.446475</ele>
        <time>2021-08-23T01:01:44.227Z</time>
      </trkpt>
      <trkpt lat="41.01271" lon="29.01124">
        <ele>12.48226</ele>
        <time>2021-08-23T01:02:00.317Z</time>
      </trkpt>
      <trkpt lat="41.01267" lon="29.01133">
        <ele>12.150037</ele>
        <time>2021-08-23T01:02:02.580Z</time>
      </trkpt>
      <trkpt lat="41.0124" lon="29.01126">
        <ele>10.971413</ele>
        <time>2021-08-23T01:02:08.424Z</time>
      </trkpt>
      <trkpt lat="41.01216" lon="29.01119">
        <ele>9.977499</ele>
        <time>2021-08-23T01:02:13.646Z</time>
      </trkpt>
      <trkpt lat="41.01208" lon="29.01115">
        <ele>9.603741</ele>
        <time>2021-08-23T01:02:15.473Z</time>
      </trkpt>
      <trkpt lat="41.01146" lon="29.01084">
        <ele>7.201938</ele>
        <time>2021-08-23T01:02:30.052Z</time>
      </trkpt>
      <trkpt lat="41.01113" lon="29.01067">
        <ele>6.631444</ele>
        <time>2021-08-23T01:02:38.239Z</time>
      </trkpt>
      <trkpt lat="41.01095" lon="29.0106">
        <ele>6.331558</ele>
        <time>2021-08-23T01:02:42.619Z</time>
      </trkpt>
      <trkpt lat="41.01082" lon="29.0106">
        <ele>6.122032</ele>
        <time>2021-08-23T01:02:45.986Z</time>
      </trkpt>
      <trkpt lat="41.0107" lon="29.01058">
        <ele>5.913088</ele>
        <time>2021-08-23T01:02:50.225Z</time>
      </trkpt>
      <trkpt lat="41.01049" lon="29.01073">
        <ele>5.530129</ele>
        <time>2021-08-23T01:02:59.432Z</time>
      </trkpt>
      <trkpt lat="41.00958" lon="29.01146">
        <ele>4.364429</ele>
        <time>2021-08-23T01:03:42.224Z</time>
      </trkpt>
      <trkpt lat="41.00925" lon="29.01155">
        <ele>4.248904</ele>
        <time>2021-08-23T01:03:56.128Z</time>
      </trkpt>
      <trkpt lat="41.00906" lon="29.0115">
        <ele>4.184105</ele>
        <time>2021-08-23T01:04:03.932Z</time>
      </trkpt>
      <trkpt lat="41.00899" lon="29.01144">
        <ele>4.15486</ele>
        <time>2021-08-23T01:04:07.143Z</time>
      </trkpt>
      <trkpt lat="41.00895" lon="29.01136">
        <ele>4.13102</ele>
        <time>2021-08-23T01:04:09.779Z</time>
      </trkpt>
      <trkpt lat="41.01016" lon="29.01047">
        <ele>3.401035</ele>
        <time>2021-08-23T01:05:01.524Z</time>
      </trkpt>
      <trkpt lat="41.01019" lon="29.01035">
        <ele>3.335141</ele>
        <time>2021-08-23T01:05:04.936Z</time>
      </trkpt>
      <trkpt lat="41.01016" lon="29.01028">
        <ele>3.291119</ele>
        <time>2021-08-23T01:05:07.146Z</time>
      </trkpt>
      <trkpt lat="41.0105" lon="29.0104">
        <ele>3.040967</ele>
        <time>2021-08-23T01:05:20.423Z</time>
      </trkpt>
      <trkpt lat="41.01076" lon="29.0102">
        <ele>2.830533</ele>
        <time>2021-08-23T01:05:31.693Z</time>
      </trkpt>
      <trkpt lat="41.01083" lon="29.00992">
        <ele>2.672522</ele>
        <time>2021-08-23T01:05:39.996Z</time>
      </trkpt>
      <trkpt lat="41.01456" lon="29.00591">
        <ele>0.422816</ele>
        <time>2021-08-23T01:06:46.869Z</time>
      </trkpt>
      <trkpt lat="41.01523" lon="29.005">
        <ele>0.149461</ele>
        <time>2021-08-23T01:07:00.174Z</time>
      </trkpt>
      <trkpt lat="41.01573" lon="29.00372">
        <ele>0.045852</ele>
        <time>2021-08-23T01:07:15.304Z</time>
      </trkpt>
      <trkpt lat="41.01848" lon="28.9941">
        <ele>0.002026</ele>
        <time>2021-08-23T01:09:03.429Z</time>
      </trkpt>
      <trkpt lat="41.01861" lon="28.99337">
        <ele>0.009716</ele>
        <time>2021-08-23T01:09:11.337Z</time>
      </trkpt>
      <trkpt lat="41.01868" lon="28.99244">
        <ele>0.019284</ele>
        <time>2021-08-23T01:09:21.166Z</time>
      </trkpt>
      <trkpt lat="41.01869" lon="28.9826">
        <ele>0.519163</ele>
        <time>2021-08-23T01:11:04.539Z</time>
      </trkpt>
      <trkpt lat="41.01858" lon="28.98204">
        <ele>0.74536</ele>
        <time>2021-08-23T01:11:10.663Z</time>
      </trkpt>
      <trkpt lat="41.0184" lon="28.98154">
        <ele>1.048453</ele>
        <time>2021-08-23T01:11:16.526Z</time>
      </trkpt>
      <trkpt lat="41.01708" lon="28.97835">
        <ele>3.477785</ele>
        <time>2021-08-23T01:11:54.717Z</time>
      </trkpt>
      <trkpt lat="41.01677" lon="28.97764">
        <ele>4.05429</ele>
        <time>2021-08-23T01:12:03.309Z</time>
      </trkpt>
      <trkpt lat="41.01675" lon="28.97753">
        <ele>4.131065</ele>
        <time>2021-08-23T01:12:06.992Z</time>
      </trkpt>
      <trkpt lat="41.01665" lon="28.97718">
        <ele>4.390341</ele>
        <time>2021-08-23T01:12:20.557Z</time>
      </trkpt>
      <trkpt lat="41.01659" lon="28.97707">
        <ele>4.486756</ele>
        <time>2021-08-23T01:12:24.988Z</time>
      </trkpt>
      <trkpt lat="41.01656" lon="28.97705">
        <ele>4.518289</ele>
        <time>2021-08-23T01:12:27.005Z</time>
      </trkpt>
      <trkpt lat="41.01647" lon="28.97709">
        <ele>4.602509</ele>
        <time>2021-08-23T01:12:31.176Z</time>
      </trkpt>
      <trkpt lat="41.01644" lon="28.97716">
        <ele>4.660479</ele>
        <time>2021-08-23T01:12:34.117Z</time>
      </trkpt>
      <trkpt lat="41.01638" lon="28.9775">
        <ele>4.902107</ele>
        <time>2021-08-23T01:12:46.000Z</time>
      </trkpt>
      <trkpt lat="41.01635" lon="28.97764">
        <ele>5.000414</ele>
        <time>2021-08-23T01:12:51.016Z</time>
      </trkpt>
      <trkpt lat="41.01628" lon="28.97772">
        <ele>5.084597</ele>
        <time>2021-08-23T01:12:54.946Z</time>
      </trkpt>
      <trkpt lat="41.0162" lon="28.97771">
        <ele>5.152501</ele>
        <time>2021-08-23T01:12:58.067Z</time>
      </trkpt>
      <trkpt lat="41.01618" lon="28.97765">
        <ele>5.195654</ele>
        <time>2021-08-23T01:13:00.492Z</time>
      </trkpt>
      <trkpt lat="41.01617" lon="28.97758">
        <ele>5.244544</ele>
        <time>2021-08-23T01:13:02.783Z</time>
      </trkpt>
      <trkpt lat="41.01615" lon="28.97744">
        <ele>5.279939</ele>
        <time>2021-08-23T01:13:07.864Z</time>
      </trkpt>
      <trkpt lat="41.01634" lon="28.97677">
        <ele>5.349893</ele>
        <time>2021-08-23T01:13:25.937Z</time>
      </trkpt>
      <trkpt lat="41.0164" lon="28.97661">
        <ele>5.367847</ele>
        <time>2021-08-23T01:13:30.527Z</time>
      </trkpt>
      <trkpt lat="41.01642" lon="28.97658">
        <ele>5.371222</ele>
        <time>2021-08-23T01:13:31.449Z</time>
      </trkpt>
      <trkpt lat="41.01657" lon="28.97628">
        <ele>5.4061</ele>
        <time>2021-08-23T01:13:40.312Z</time>
      </trkpt>
      <trkpt lat="41.01669" lon="28.97602">
        <ele>5.436207</ele>
        <time>2021-08-23T01:13:48.062Z</time>
      </trkpt>
      <trkpt lat="41.01719" lon="28.97499">
        <ele>5.19378</ele>
        <time>2021-08-23T01:14:14.179Z</time>
      </trkpt>
      <trkpt lat="41.01726" lon="28.97484">
        <ele>5.091598</ele>
        <time>2021-08-23T01:14:18.013Z</time>
      </trkpt>
      <trkpt lat="41.01735" lon="28.97464">
        <ele>4.958758</ele>
        <time>2021-08-23T01:14:22.766Z</time>
      </trkpt>
      <trkpt lat="41.01746" lon="28.97443">
        <ele>4.81403</ele>
        <time>2021-08-23T01:14:27.944Z</time>
      </trkpt>
      <trkpt lat="41.01765" lon="28.9741">
        <ele>4.574026</ele>
        <time>2021-08-23T01:14:36.302Z</time>
      </trkpt>
      <trkpt lat="41.01786" lon="28.97373">
        <ele>4.316326</ele>
        <time>2021-08-23T01:14:45.703Z</time>
      </trkpt>
      <trkpt lat="41.01797" lon="28.97345">
        <ele>4.153065</ele>
        <time>2021-08-23T01:14:52.793Z</time>
      </trkpt>
      <trkpt lat="41.01798" lon="28.97313">
        <ele>4.222196</ele>
        <time>2021-08-23T01:15:00.244Z</time>
      </trkpt>
      <trkpt lat="41.01788" lon="28.97235">
        <ele>4.391477</ele>
        <time>2021-08-23T01:15:18.060Z</time>
      </trkpt>
      <trkpt lat="41.0178" lon="28.97184">
        <ele>4.505155</ele>
        <time>2021-08-23T01:15:31.593Z</time>
      </trkpt>
      <trkpt lat="41.01779" lon="28.97168">
        <ele>4.538376</ele>
        <time>2021-08-23T01:15:36.001Z</time>
      </trkpt>
      <trkpt lat="41.0178" lon="28.97151">
        <ele>4.575217</ele>
        <time>2021-08-23T01:15:40.940Z</time>
      </trkpt>
      <trkpt lat="41.01787" lon="28.97111">
        <ele>4.674094</ele>
        <time>2021-08-23T01:15:52.816Z</time>
      </trkpt>
      <trkpt lat="41.01813" lon="28.96974">
        <ele>6.205245</ele>
        <time>2021-08-23T01:16:34.134Z</time>
      </trkpt>
      <trkpt lat="41.01821" lon="28.96947">
        <ele>6.52286</ele>
        <time>2021-08-23T01:16:42.533Z</time>
      </trkpt>
      <trkpt lat="41.01826" lon="28.9693">
        <ele>6.713761</ele>
        <time>2021-08-23T01:16:47.398Z</time>
      </trkpt>
      <trkpt lat="41.01838" lon="28.96894">
        <ele>7.145913</ele>
        <time>2021-08-23T01:16:59.287Z</time>
      </trkpt>
      <trkpt lat="41.01848" lon="28.96862">
        <ele>7.980965</ele>
        <time>2021-08-23T01:17:10.175Z</time>
      </trkpt>
      <trkpt lat="41.01852" lon="28.96836">
        <ele>8.796308</ele>
        <time>2021-08-23T01:17:19.443Z</time>
      </trkpt>
      <trkpt lat="41.01857" lon="28.96804">
        <ele>9.753225</ele>
        <time>2021-08-23T01:17:31.146Z</time>
      </trkpt>
      <trkpt lat="41.01861" lon="28.9677">
        <ele>10.77442</ele>
        <time>2021-08-23T01:17:44.084Z</time>
      </trkpt>
      <trkpt lat="41.01865" lon="28.96733">
        <ele>11.886138</ele>
        <time>2021-08-23T01:17:58.625Z</time>
      </trkpt>
      <trkpt lat="41.01853" lon="28.9672">
        <ele>12.497363</ele>
        <time>2021-08-23T01:18:08.326Z</time>
      </trkpt>
      <trkpt lat="41.01845" lon="28.96715">
        <ele>12.835727</ele>
        <time>2021-08-23T01:18:13.156Z</time>
      </trkpt>
      <trkpt lat="41.01802" lon="28.96703">
        <ele>14.824576</ele>
        <time>2021-08-23T01:18:40.001Z</time>
      </trkpt>
      <trkpt lat="41.01791" lon="28.967">
        <ele>15.778195</ele>
        <time>2021-08-23T01:18:49.485Z</time>
      </trkpt>
      <trkpt lat="41.01729" lon="28.96684">
        <ele>20.918061</ele>
        <time>2021-08-23T01:19:34.888Z</time>
      </trkpt>
      <trkpt lat="41.01716" lon="28.9668">
        <ele>22.017144</ele>
        <time>2021-08-23T01:19:46.773Z</time>
      </trkpt>
      <trkpt lat="41.01684" lon="28.96678">
        <ele>24.595566</ele>
        <time>2021-08-23T01:20:12.557Z</time>
      </trkpt>
      <trkpt lat="41.01661" lon="28.96681">
        <ele>26.480139</ele>
        <time>2021-08-23T01:20:30.563Z</time>
      </trkpt>
      <trkpt lat="41.01654" lon="28.96684">
        <ele>27.062052</ele>
        <time>2021-08-23T01:20:37.258Z</time>
      </trkpt>
      <trkpt lat="41.01632" lon="28.96694">
        <ele>28.966253</ele>
        <time>2021-08-23T01:20:55.809Z</time>
      </trkpt>
      <trkpt lat="41.01618" lon="28.967">
        <ele>30.367707</ele>
        <time>2021-08-23T01:21:09.386Z</time>
      </trkpt>
      <trkpt lat="41.01598" lon="28.96696">
        <ele>32.168745</ele>
        <time>2021-08-23T01:21:24.350Z</time>
      </trkpt>
      <trkpt lat="41.01592" lon="28.96691">
        <ele>32.849593</ele>
        <time>2021-08-23T01:21:30.519Z</time>
      </trkpt>
      <trkpt lat="41.01588" lon="28.96675">
        <ele>34.051792</ele>
        <time>2021-08-23T01:21:44.235Z</time>
      </trkpt>
      <trkpt lat="41.01582" lon="28.96669">
        <ele>34.70634</ele>
        <time>2021-08-23T01:21:50.368Z</time>
      </trkpt>
      <trkpt lat="41.01556" lon="28.96671">
        <ele>37.087929</ele>
        <time>2021-08-23T01:22:13.029Z</time>
      </trkpt>
      <trkpt lat="41.01505" lon="28.96673">
        <ele>41.895801</ele>
        <time>2021-08-23T01:22:55.769Z</time>
      </trkpt>
      <trkpt lat="41.015" lon="28.96634">
        <ele>44.718656</ele>
        <time>2021-08-23T01:23:20.967Z</time>
      </trkpt>
      <trkpt lat="41.01498" lon="28.96608">
        <ele>46.281207</ele>
        <time>2021-08-23T01:23:35.849Z</time>
      </trkpt>
      <trkpt lat="41.01498" lon="28.96604">
        <ele>46.449684</ele>
        <time>2021-08-23T01:23:39.578Z</time>
      </trkpt>
      <trkpt lat="41.01497" lon="28.96598">
        <ele>46.70064</ele>
        <time>2021-08-23T01:23:42.882Z</time>
      </trkpt>
      <trkpt lat="41.01457" lon="28.96597">
        <ele>49.145552</ele>
        <time>2021-08-23T01:24:13.789Z</time>
      </trkpt>
      <trkpt lat="41.01412" lon="28.96594">
        <ele>51.850597</ele>
        <time>2021-08-23T01:24:44.068Z</time>
      </trkpt>
      <trkpt lat="41.01376" lon="28.96594">
        <ele>54.005507</ele>
        <time>2021-08-23T01:25:05.524Z</time>
      </trkpt>
      <trkpt lat="41.01323" lon="28.96596">
        <ele>56.763756</ele>
        <time>2021-08-23T01:25:32.291Z</time>
      </trkpt>
      <trkpt lat="41.01299" lon="28.96596">
        <ele>57.144564</ele>
        <time>2021-08-23T01:25:43.586Z</time>
      </trkpt>
      <trkpt lat="41.01289" lon="28.96597">
        <ele>57.299945</ele>
        <time>2021-08-23T01:25:47.361Z</time>
      </trkpt>
      <trkpt lat="41.01264" lon="28.966">
        <ele>57.714234</ele>
        <time>2021-08-23T01:25:58.834Z</time>
      </trkpt>
      <trkpt lat="41.01201" lon="28.96603">
        <ele>58.721772</ele>
        <time>2021-08-23T01:26:22.423Z</time>
      </trkpt>
      <trkpt lat="41.01172" lon="28.96604">
        <ele>59.201309</ele>
        <time>2021-08-23T01:26:32.564Z</time>
      </trkpt>
      <trkpt lat="41.01165" lon="28.96604">
        <ele>59.316035</ele>
        <time>2021-08-23T01:26:34.823Z</time>
      </trkpt>
      <trkpt lat="41.01162" lon="28.966">
        <ele>59.375442</ele>
        <time>2021-08-23T01:26:36.646Z</time>
      </trkpt>
      <trkpt lat="41.01152" lon="28.96584">
        <ele>59.496314</ele>
        <time>2021-08-23T01:26:41.129Z</time>
      </trkpt>
      <trkpt lat="41.01117" lon="28.96529">
        <ele>59.496314</ele>
        <time>2021-08-23T01:26:57.900Z</time>
      </trkpt>
      <trkpt lat="41.01089" lon="28.9648">
        <ele>59.496314</ele>
        <time>2021-08-23T01:27:13.889Z</time>
      </trkpt>
      <trkpt lat="41.01077" lon="28.96437">
        <ele>59.496314</ele>
        <time>2021-08-23T01:27:26.338Z</time>
      </trkpt>
      <trkpt lat="41.01076" lon="28.96418">
        <ele>59.496314</ele>
        <time>2021-08-23T01:27:31.072Z</time>
      </trkpt>
    </trkseg>
  </trk>
</gpx>